<?xml version='1.0' encoding='UTF-8'?><gpx version="1.1" creator="JPX - https://github.com/jenetics/jpx" xmlns="http://www.topografix.com/GPX/1/1"><trk><trkseg><trkpt lat="51.4178842" lon="-0.0872896"><ele>91.0</ele><time>2026-05-02T06:26:34.402Z</time></trkpt><trkpt lat="51.4179415" lon="-0.0872264"><ele>91.0</ele><time>2026-05-02T06:27:13.403Z</time></trkpt><trkpt lat="51.4180745" lon="-0.0873271"><ele>91.0</ele><time>2026-05-02T06:27:17.404Z</time></trkpt><trkpt lat="51.4181607" lon="-0.087405"><ele>91.0</ele><time>2026-05-02T06:27:19.403Z</time></trkpt><trkpt lat="51.418273" lon="-0.0874965"><ele>91.0</ele><time>2026-05-02T06:27:21.404Z</time></trkpt><trkpt lat="51.4183381" lon="-0.0875541"><ele>91.4</ele><time>2026-05-02T06:27:22.403Z</time></trkpt><trkpt lat="51.4184213" lon="-0.0876288"><ele>91.8</ele><time>2026-05-02T06:27:23.404Z</time></trkpt><trkpt lat="51.4185134" lon="-0.0877125"><ele>92.2</ele><time>2026-05-02T06:27:24.402Z</time></trkpt><trkpt lat="51.4186153" lon="-0.0877973"><ele>92.60000000000001</ele><time>2026-05-02T06:27:25.403Z</time></trkpt><trkpt lat="51.4187098" lon="-0.0878731"><ele>93.0</ele><time>2026-05-02T06:27:26.403Z</time></trkpt><trkpt lat="51.4187862" lon="-0.0879345"><ele>94.0</ele><time>2026-05-02T06:27:27.405Z</time></trkpt><trkpt lat="51.4188615" lon="-0.0879727"><ele>95.0</ele><time>2026-05-02T06:27:28.403Z</time></trkpt><trkpt lat="51.4189318" lon="-0.0879864"><ele>96.0</ele><time>2026-05-02T06:27:29.404Z</time></trkpt><trkpt lat="51.419006" lon="-0.0879726"><ele>97.0</ele><time>2026-05-02T06:27:30.403Z</time></trkpt><trkpt lat="51.4190841" lon="-0.0879206"><ele>98.0</ele><time>2026-05-02T06:27:31.403Z</time></trkpt><trkpt lat="51.4191645" lon="-0.0878429"><ele>99.0</ele><time>2026-05-02T06:27:32.403Z</time></trkpt><trkpt lat="51.4192405" lon="-0.0877672"><ele>99.0</ele><time>2026-05-02T06:27:33.404Z</time></trkpt><trkpt lat="51.4193098" lon="-0.0877007"><ele>99.0</ele><time>2026-05-02T06:27:34.405Z</time></trkpt><trkpt lat="51.4193799" lon="-0.0876336"><ele>99.0</ele><time>2026-05-02T06:27:35.403Z</time></trkpt><trkpt lat="51.4195683" lon="-0.0871983"><ele>99.75</ele><time>2026-05-02T06:30:13.402Z</time></trkpt><trkpt lat="51.4195283" lon="-0.087055"><ele>100.5</ele><time>2026-05-02T06:30:15.403Z</time></trkpt><trkpt lat="51.4194817" lon="-0.08689"><ele>101.25</ele><time>2026-05-02T06:30:16.403Z</time></trkpt><trkpt lat="51.41943" lon="-0.086705"><ele>102.0</ele><time>2026-05-02T06:30:17.403Z</time></trkpt><trkpt lat="51.4193817" lon="-0.0865233"><ele>102.6</ele><time>2026-05-02T06:30:18.403Z</time></trkpt><trkpt lat="51.41935" lon="-0.0863433"><ele>103.19999999999999</ele><time>2026-05-02T06:30:19.402Z</time></trkpt><trkpt lat="51.41933" lon="-0.086165"><ele>103.8</ele><time>2026-05-02T06:30:20.405Z</time></trkpt><trkpt lat="51.4193217" lon="-0.0859883"><ele>104.4</ele><time>2026-05-02T06:30:21.402Z</time></trkpt><trkpt lat="51.41932" lon="-0.0858283"><ele>105.0</ele><time>2026-05-02T06:30:22.406Z</time></trkpt><trkpt lat="51.4193233" lon="-0.085675"><ele>105.6</ele><time>2026-05-02T06:30:23.404Z</time></trkpt><trkpt lat="51.4193317" lon="-0.0855283"><ele>106.2</ele><time>2026-05-02T06:30:24.403Z</time></trkpt><trkpt lat="51.4193417" lon="-0.0853733"><ele>106.80000000000001</ele><time>2026-05-02T06:30:25.402Z</time></trkpt><trkpt lat="51.4193583" lon="-0.0852167"><ele>107.4</ele><time>2026-05-02T06:30:26.402Z</time></trkpt><trkpt lat="51.419375" lon="-0.0850767"><ele>108.0</ele><time>2026-05-02T06:30:27.406Z</time></trkpt><trkpt lat="51.4193917" lon="-0.084935"><ele>108.33333333333333</ele><time>2026-05-02T06:30:28.402Z</time></trkpt><trkpt lat="51.41942" lon="-0.0848033"><ele>108.66666666666666</ele><time>2026-05-02T06:30:29.403Z</time></trkpt><trkpt lat="51.41945" lon="-0.0846667"><ele>109.0</ele><time>2026-05-02T06:30:30.403Z</time></trkpt><trkpt lat="51.4194833" lon="-0.0845283"><ele>109.33333333333333</ele><time>2026-05-02T06:30:31.402Z</time></trkpt><trkpt lat="51.419515" lon="-0.0844017"><ele>109.66666666666666</ele><time>2026-05-02T06:30:32.404Z</time></trkpt><trkpt lat="51.41954" lon="-0.08428"><ele>110.0</ele><time>2026-05-02T06:30:33.404Z</time></trkpt><trkpt lat="51.419565" lon="-0.0841667"><ele>110.16666666666666</ele><time>2026-05-02T06:30:34.403Z</time></trkpt><trkpt lat="51.4195867" lon="-0.0840467"><ele>110.33333333333333</ele><time>2026-05-02T06:30:35.402Z</time></trkpt><trkpt lat="51.41961" lon="-0.083935"><ele>110.5</ele><time>2026-05-02T06:30:36.403Z</time></trkpt><trkpt lat="51.4196317" lon="-0.0838333"><ele>110.66666666666666</ele><time>2026-05-02T06:30:37.403Z</time></trkpt><trkpt lat="51.4196517" lon="-0.0837367"><ele>110.83333333333333</ele><time>2026-05-02T06:30:38.402Z</time></trkpt><trkpt lat="51.4196833" lon="-0.083555"><ele>111.0</ele><time>2026-05-02T06:30:40.404Z</time></trkpt><trkpt lat="51.419705" lon="-0.083405"><ele>111.19999999999999</ele><time>2026-05-02T06:30:42.405Z</time></trkpt><trkpt lat="51.4197317" lon="-0.0832083"><ele>111.39999999999999</ele><time>2026-05-02T06:30:44.402Z</time></trkpt><trkpt lat="51.4197433" lon="-0.0830733"><ele>111.6</ele><time>2026-05-02T06:30:45.404Z</time></trkpt><trkpt lat="51.41976" lon="-0.0829267"><ele>111.8</ele><time>2026-05-02T06:30:46.404Z</time></trkpt><trkpt lat="51.4197783" lon="-0.0827667"><ele>112.0</ele><time>2026-05-02T06:30:47.403Z</time></trkpt><trkpt lat="51.4197967" lon="-0.0826083"><ele>112.0</ele><time>2026-05-02T06:30:48.402Z</time></trkpt><trkpt lat="51.4198167" lon="-0.082445"><ele>112.0</ele><time>2026-05-02T06:30:49.403Z</time></trkpt><trkpt lat="51.4198267" lon="-0.082265"><ele>112.0</ele><time>2026-05-02T06:30:50.403Z</time></trkpt><trkpt lat="51.4198267" lon="-0.082075"><ele>112.0</ele><time>2026-05-02T06:30:51.404Z</time></trkpt><trkpt lat="51.4198283" lon="-0.0818867"><ele>112.0</ele><time>2026-05-02T06:30:52.405Z</time></trkpt><trkpt lat="51.419815" lon="-0.0816767"><ele>112.0</ele><time>2026-05-02T06:30:53.407Z</time></trkpt><trkpt lat="51.4197967" lon="-0.0814417"><ele>112.0</ele><time>2026-05-02T06:30:54.403Z</time></trkpt><trkpt lat="51.41977" lon="-0.0812083"><ele>112.0</ele><time>2026-05-02T06:30:55.402Z</time></trkpt><trkpt lat="51.4197633" lon="-0.0809833"><ele>111.5</ele><time>2026-05-02T06:30:56.402Z</time></trkpt><trkpt lat="51.4197567" lon="-0.08077"><ele>111.0</ele><time>2026-05-02T06:30:57.402Z</time></trkpt><trkpt lat="51.4197467" lon="-0.0805667"><ele>110.5</ele><time>2026-05-02T06:30:58.402Z</time></trkpt><trkpt lat="51.4197367" lon="-0.0803633"><ele>110.0</ele><time>2026-05-02T06:30:59.403Z</time></trkpt><trkpt lat="51.4197383" lon="-0.0801567"><ele>110.0</ele><time>2026-05-02T06:31:00.402Z</time></trkpt><trkpt lat="51.4197433" lon="-0.0799567"><ele>110.0</ele><time>2026-05-02T06:31:01.403Z</time></trkpt><trkpt lat="51.41975" lon="-0.0797583"><ele>110.0</ele><time>2026-05-02T06:31:02.404Z</time></trkpt><trkpt lat="51.4197633" lon="-0.0795733"><ele>110.0</ele><time>2026-05-02T06:31:03.402Z</time></trkpt><trkpt lat="51.4197833" lon="-0.0794"><ele>110.2</ele><time>2026-05-02T06:31:04.403Z</time></trkpt><trkpt lat="51.4198017" lon="-0.079235"><ele>110.4</ele><time>2026-05-02T06:31:05.402Z</time></trkpt><trkpt lat="51.41982" lon="-0.0790767"><ele>110.6</ele><time>2026-05-02T06:31:06.402Z</time></trkpt><trkpt lat="51.4198317" lon="-0.0789217"><ele>110.8</ele><time>2026-05-02T06:31:07.404Z</time></trkpt><trkpt lat="51.4198483" lon="-0.07878"><ele>111.0</ele><time>2026-05-02T06:31:08.402Z</time></trkpt><trkpt lat="51.4198767" lon="-0.078655"><ele>111.0</ele><time>2026-05-02T06:31:09.403Z</time></trkpt><trkpt lat="51.4199267" lon="-0.0785433"><ele>111.0</ele><time>2026-05-02T06:31:10.403Z</time></trkpt><trkpt lat="51.42006" lon="-0.0784117"><ele>111.0</ele><time>2026-05-02T06:31:12.403Z</time></trkpt><trkpt lat="51.4201583" lon="-0.0783917"><ele>111.0</ele><time>2026-05-02T06:31:13.41Z</time></trkpt><trkpt lat="51.4202667" lon="-0.078395"><ele>111.0</ele><time>2026-05-02T06:31:14.403Z</time></trkpt><trkpt lat="51.4203717" lon="-0.078375"><ele>111.0</ele><time>2026-05-02T06:31:15.404Z</time></trkpt><trkpt lat="51.42047" lon="-0.0783433"><ele>111.0</ele><time>2026-05-02T06:31:16.404Z</time></trkpt><trkpt lat="51.4205667" lon="-0.0783"><ele>111.0</ele><time>2026-05-02T06:31:17.403Z</time></trkpt><trkpt lat="51.4206583" lon="-0.078245"><ele>111.0</ele><time>2026-05-02T06:31:18.404Z</time></trkpt><trkpt lat="51.4207533" lon="-0.07819"><ele>110.33333333333334</ele><time>2026-05-02T06:31:19.403Z</time></trkpt><trkpt lat="51.4208483" lon="-0.078135"><ele>109.66666666666667</ele><time>2026-05-02T06:31:20.404Z</time></trkpt><trkpt lat="51.4209417" lon="-0.07808"><ele>109.0</ele><time>2026-05-02T06:31:21.405Z</time></trkpt><trkpt lat="51.42122" lon="-0.0779"><ele>109.0</ele><time>2026-05-02T06:31:24.404Z</time></trkpt><trkpt lat="51.4213133" lon="-0.077845"><ele>109.0</ele><time>2026-05-02T06:31:25.403Z</time></trkpt><trkpt lat="51.4214067" lon="-0.0777867"><ele>109.0</ele><time>2026-05-02T06:31:26.405Z</time></trkpt><trkpt lat="51.4215017" lon="-0.077725"><ele>109.0</ele><time>2026-05-02T06:31:27.403Z</time></trkpt><trkpt lat="51.42159" lon="-0.0776567"><ele>109.0</ele><time>2026-05-02T06:31:28.403Z</time></trkpt><trkpt lat="51.42168" lon="-0.0775983"><ele>108.80000000000001</ele><time>2026-05-02T06:31:29.405Z</time></trkpt><trkpt lat="51.4217717" lon="-0.0775383"><ele>108.60000000000001</ele><time>2026-05-02T06:31:30.408Z</time></trkpt><trkpt lat="51.4218633" lon="-0.07748"><ele>108.4</ele><time>2026-05-02T06:31:31.406Z</time></trkpt><trkpt lat="51.4219483" lon="-0.077415"><ele>108.2</ele><time>2026-05-02T06:31:32.405Z</time></trkpt><trkpt lat="51.4220333" lon="-0.07736"><ele>108.0</ele><time>2026-05-02T06:31:33.404Z</time></trkpt><trkpt lat="51.4221167" lon="-0.0773033"><ele>108.16666666666667</ele><time>2026-05-02T06:31:34.403Z</time></trkpt><trkpt lat="51.4222033" lon="-0.0772483"><ele>108.33333333333334</ele><time>2026-05-02T06:31:35.403Z</time></trkpt><trkpt lat="51.4222883" lon="-0.077195"><ele>108.5</ele><time>2026-05-02T06:31:36.405Z</time></trkpt><trkpt lat="51.4223717" lon="-0.077145"><ele>108.66666666666667</ele><time>2026-05-02T06:31:37.405Z</time></trkpt><trkpt lat="51.42245" lon="-0.0770933"><ele>108.83333333333334</ele><time>2026-05-02T06:31:38.403Z</time></trkpt><trkpt lat="51.422525" lon="-0.0770433"><ele>109.0</ele><time>2026-05-02T06:31:39.403Z</time></trkpt><trkpt lat="51.4225967" lon="-0.0769883"><ele>109.0</ele><time>2026-05-02T06:31:40.403Z</time></trkpt><trkpt lat="51.4226617" lon="-0.076935"><ele>109.0</ele><time>2026-05-02T06:31:41.404Z</time></trkpt><trkpt lat="51.422725" lon="-0.0768817"><ele>109.0</ele><time>2026-05-02T06:31:42.405Z</time></trkpt><trkpt lat="51.422785" lon="-0.07683"><ele>109.0</ele><time>2026-05-02T06:31:43.403Z</time></trkpt><trkpt lat="51.4228483" lon="-0.076785"><ele>109.0</ele><time>2026-05-02T06:31:44.406Z</time></trkpt><trkpt lat="51.4229167" lon="-0.07673"><ele>109.0</ele><time>2026-05-02T06:31:45.404Z</time></trkpt><trkpt lat="51.4229917" lon="-0.0766683"><ele>109.0</ele><time>2026-05-02T06:31:46.403Z</time></trkpt><trkpt lat="51.4230783" lon="-0.0766067"><ele>109.2</ele><time>2026-05-02T06:31:47.404Z</time></trkpt><trkpt lat="51.4231733" lon="-0.0765433"><ele>109.4</ele><time>2026-05-02T06:31:48.404Z</time></trkpt><trkpt lat="51.42327" lon="-0.0764833"><ele>109.6</ele><time>2026-05-02T06:31:49.404Z</time></trkpt><trkpt lat="51.423365" lon="-0.0764183"><ele>109.8</ele><time>2026-05-02T06:31:50.404Z</time></trkpt><trkpt lat="51.4234633" lon="-0.0763667"><ele>110.0</ele><time>2026-05-02T06:31:51.404Z</time></trkpt><trkpt lat="51.4235517" lon="-0.076315"><ele>109.99999999999999</ele><time>2026-05-02T06:31:52.404Z</time></trkpt><trkpt lat="51.4236317" lon="-0.0762683"><ele>110.0</ele><time>2026-05-02T06:31:53.403Z</time></trkpt><trkpt lat="51.4237033" lon="-0.0762283"><ele>110.0</ele><time>2026-05-02T06:31:54.405Z</time></trkpt><trkpt lat="51.4237733" lon="-0.0761817"><ele>110.0</ele><time>2026-05-02T06:31:55.403Z</time></trkpt><trkpt lat="51.4238317" lon="-0.0761367"><ele>109.99999999999999</ele><time>2026-05-02T06:31:56.404Z</time></trkpt><trkpt lat="51.4239333" lon="-0.0760783"><ele>110.0</ele><time>2026-05-02T06:31:58.403Z</time></trkpt><trkpt lat="51.424005" lon="-0.0760383"><ele>110.66666666666666</ele><time>2026-05-02T06:32:01.403Z</time></trkpt><trkpt lat="51.4240983" lon="-0.0759917"><ele>111.33333333333333</ele><time>2026-05-02T06:32:05.404Z</time></trkpt><trkpt lat="51.4242067" lon="-0.0759417"><ele>112.0</ele><time>2026-05-02T06:32:07.403Z</time></trkpt><trkpt lat="51.4242767" lon="-0.0759"><ele>112.66666666666666</ele><time>2026-05-02T06:32:08.405Z</time></trkpt><trkpt lat="51.4243417" lon="-0.0758617"><ele>113.33333333333333</ele><time>2026-05-02T06:32:09.405Z</time></trkpt><trkpt lat="51.4244133" lon="-0.0758167"><ele>114.0</ele><time>2026-05-02T06:32:10.403Z</time></trkpt><trkpt lat="51.4244867" lon="-0.0757683"><ele>113.0</ele><time>2026-05-02T06:32:11.404Z</time></trkpt><trkpt lat="51.42457" lon="-0.0757183"><ele>112.0</ele><time>2026-05-02T06:32:12.404Z</time></trkpt><trkpt lat="51.4247417" lon="-0.0756067"><ele>111.0</ele><time>2026-05-02T06:32:14.403Z</time></trkpt><trkpt lat="51.42492" lon="-0.0754833"><ele>111.0</ele><time>2026-05-02T06:32:16.403Z</time></trkpt><trkpt lat="51.4251217" lon="-0.0753517"><ele>111.0</ele><time>2026-05-02T06:32:18.406Z</time></trkpt><trkpt lat="51.4253533" lon="-0.0751983"><ele>111.0</ele><time>2026-05-02T06:32:20.406Z</time></trkpt><trkpt lat="51.42556" lon="-0.07507"><ele>111.0</ele><time>2026-05-02T06:32:22.404Z</time></trkpt><trkpt lat="51.4257167" lon="-0.074965"><ele>111.0</ele><time>2026-05-02T06:32:24.404Z</time></trkpt><trkpt lat="51.4258283" lon="-0.0748733"><ele>111.75</ele><time>2026-05-02T06:32:26.404Z</time></trkpt><trkpt lat="51.425885" lon="-0.0747983"><ele>112.5</ele><time>2026-05-02T06:32:28.404Z</time></trkpt><trkpt lat="51.4259467" lon="-0.0747033"><ele>113.25</ele><time>2026-05-02T06:32:30.404Z</time></trkpt><trkpt lat="51.4260417" lon="-0.0744733"><ele>114.0</ele><time>2026-05-02T06:32:32.403Z</time></trkpt><trkpt lat="51.4261417" lon="-0.07419"><ele>113.75</ele><time>2026-05-02T06:32:34.403Z</time></trkpt><trkpt lat="51.4262517" lon="-0.0740117"><ele>113.5</ele><time>2026-05-02T06:32:36.406Z</time></trkpt><trkpt lat="51.4264517" lon="-0.073965"><ele>113.25</ele><time>2026-05-02T06:32:39.403Z</time></trkpt><trkpt lat="51.4265283" lon="-0.07399"><ele>113.0</ele><time>2026-05-02T06:32:40.402Z</time></trkpt><trkpt lat="51.42661" lon="-0.0740233"><ele>112.80000000000001</ele><time>2026-05-02T06:32:41.403Z</time></trkpt><trkpt lat="51.4266933" lon="-0.0740533"><ele>112.60000000000001</ele><time>2026-05-02T06:32:42.403Z</time></trkpt><trkpt lat="51.4267833" lon="-0.0740917"><ele>112.39999999999999</ele><time>2026-05-02T06:32:43.402Z</time></trkpt><trkpt lat="51.4268783" lon="-0.0741317"><ele>112.19999999999999</ele><time>2026-05-02T06:32:44.402Z</time></trkpt><trkpt lat="51.42698" lon="-0.0741767"><ele>112.0</ele><time>2026-05-02T06:32:45.402Z</time></trkpt><trkpt lat="51.4270833" lon="-0.0742117"><ele>113.0</ele><time>2026-05-02T06:32:46.402Z</time></trkpt><trkpt lat="51.4271883" lon="-0.074245"><ele>114.0</ele><time>2026-05-02T06:32:47.402Z</time></trkpt><trkpt lat="51.4275267" lon="-0.0744033"><ele>114.0</ele><time>2026-05-02T06:32:50.403Z</time></trkpt><trkpt lat="51.4276417" lon="-0.0744833"><ele>114.0</ele><time>2026-05-02T06:32:51.402Z</time></trkpt><trkpt lat="51.4277533" lon="-0.0745667"><ele>114.0</ele><time>2026-05-02T06:32:52.403Z</time></trkpt><trkpt lat="51.4278583" lon="-0.0746567"><ele>114.0</ele><time>2026-05-02T06:32:53.405Z</time></trkpt><trkpt lat="51.4279617" lon="-0.07475"><ele>114.0</ele><time>2026-05-02T06:32:54.403Z</time></trkpt><trkpt lat="51.428065" lon="-0.074825"><ele>114.0</ele><time>2026-05-02T06:32:55.402Z</time></trkpt><trkpt lat="51.4281667" lon="-0.0748883"><ele>114.0</ele><time>2026-05-02T06:32:56.402Z</time></trkpt><trkpt lat="51.428265" lon="-0.0749467"><ele>114.0</ele><time>2026-05-02T06:32:57.402Z</time></trkpt><trkpt lat="51.4283667" lon="-0.0749983"><ele>114.0</ele><time>2026-05-02T06:32:58.402Z</time></trkpt><trkpt lat="51.4284767" lon="-0.0750467"><ele>114.33333333333334</ele><time>2026-05-02T06:32:59.402Z</time></trkpt><trkpt lat="51.4287067" lon="-0.075125"><ele>114.66666666666667</ele><time>2026-05-02T06:33:01.403Z</time></trkpt><trkpt lat="51.42882" lon="-0.0751417"><ele>115.0</ele><time>2026-05-02T06:33:02.403Z</time></trkpt><trkpt lat="51.4289333" lon="-0.075145"><ele>114.4</ele><time>2026-05-02T06:33:03.402Z</time></trkpt><trkpt lat="51.429045" lon="-0.0751367"><ele>113.8</ele><time>2026-05-02T06:33:04.402Z</time></trkpt><trkpt lat="51.4291483" lon="-0.0751267"><ele>113.19999999999999</ele><time>2026-05-02T06:33:05.402Z</time></trkpt><trkpt lat="51.4292483" lon="-0.0751083"><ele>112.6</ele><time>2026-05-02T06:33:06.405Z</time></trkpt><trkpt lat="51.4293483" lon="-0.0750983"><ele>112.0</ele><time>2026-05-02T06:33:07.402Z</time></trkpt><trkpt lat="51.4294483" lon="-0.0750733"><ele>112.0</ele><time>2026-05-02T06:33:08.402Z</time></trkpt><trkpt lat="51.4295417" lon="-0.0750517"><ele>111.99999999999999</ele><time>2026-05-02T06:33:09.405Z</time></trkpt><trkpt lat="51.4296383" lon="-0.07502"><ele>111.99999999999999</ele><time>2026-05-02T06:33:10.402Z</time></trkpt><trkpt lat="51.4297283" lon="-0.0749817"><ele>112.0</ele><time>2026-05-02T06:33:11.402Z</time></trkpt><trkpt lat="51.429815" lon="-0.0749317"><ele>112.0</ele><time>2026-05-02T06:33:12.402Z</time></trkpt><trkpt lat="51.4299017" lon="-0.0748767"><ele>111.8</ele><time>2026-05-02T06:33:13.404Z</time></trkpt><trkpt lat="51.429985" lon="-0.0748217"><ele>111.6</ele><time>2026-05-02T06:33:14.402Z</time></trkpt><trkpt lat="51.430065" lon="-0.07476"><ele>111.39999999999999</ele><time>2026-05-02T06:33:15.402Z</time></trkpt><trkpt lat="51.43015" lon="-0.0746917"><ele>111.19999999999999</ele><time>2026-05-02T06:33:16.403Z</time></trkpt><trkpt lat="51.4302333" lon="-0.074625"><ele>111.0</ele><time>2026-05-02T06:33:17.403Z</time></trkpt><trkpt lat="51.43031" lon="-0.0745583"><ele>111.0</ele><time>2026-05-02T06:33:18.402Z</time></trkpt><trkpt lat="51.4303817" lon="-0.0744967"><ele>111.0</ele><time>2026-05-02T06:33:19.402Z</time></trkpt><trkpt lat="51.4304467" lon="-0.074435"><ele>111.0</ele><time>2026-05-02T06:33:20.402Z</time></trkpt><trkpt lat="51.430505" lon="-0.0743633"><ele>111.0</ele><time>2026-05-02T06:33:21.402Z</time></trkpt><trkpt lat="51.43056" lon="-0.0742967"><ele>111.0</ele><time>2026-05-02T06:33:22.402Z</time></trkpt><trkpt lat="51.4306183" lon="-0.0742417"><ele>111.0</ele><time>2026-05-02T06:33:23.402Z</time></trkpt><trkpt lat="51.4306767" lon="-0.074185"><ele>111.0</ele><time>2026-05-02T06:33:24.402Z</time></trkpt><trkpt lat="51.4307333" lon="-0.07413"><ele>111.14285714285714</ele><time>2026-05-02T06:33:25.402Z</time></trkpt><trkpt lat="51.4307867" lon="-0.0740733"><ele>111.28571428571429</ele><time>2026-05-02T06:33:26.402Z</time></trkpt><trkpt lat="51.4308467" lon="-0.07402"><ele>111.42857142857143</ele><time>2026-05-02T06:33:27.402Z</time></trkpt><trkpt lat="51.4309083" lon="-0.0739717"><ele>111.57142857142857</ele><time>2026-05-02T06:33:28.402Z</time></trkpt><trkpt lat="51.4309733" lon="-0.0739267"><ele>111.71428571428572</ele><time>2026-05-02T06:33:29.403Z</time></trkpt><trkpt lat="51.4310417" lon="-0.0738767"><ele>111.85714285714286</ele><time>2026-05-02T06:33:30.403Z</time></trkpt><trkpt lat="51.4311133" lon="-0.07382"><ele>112.0</ele><time>2026-05-02T06:33:31.402Z</time></trkpt><trkpt lat="51.431185" lon="-0.0737633"><ele>112.00000000000001</ele><time>2026-05-02T06:33:32.403Z</time></trkpt><trkpt lat="51.4312617" lon="-0.0737083"><ele>112.0</ele><time>2026-05-02T06:33:33.403Z</time></trkpt><trkpt lat="51.43134" lon="-0.0736433"><ele>112.0</ele><time>2026-05-02T06:33:34.402Z</time></trkpt><trkpt lat="51.431415" lon="-0.0735767"><ele>112.0</ele><time>2026-05-02T06:33:35.403Z</time></trkpt><trkpt lat="51.4314867" lon="-0.0735083"><ele>112.00000000000001</ele><time>2026-05-02T06:33:36.404Z</time></trkpt><trkpt lat="51.4315533" lon="-0.073435"><ele>112.0</ele><time>2026-05-02T06:33:37.403Z</time></trkpt><trkpt lat="51.4316233" lon="-0.0733617"><ele>111.83333333333334</ele><time>2026-05-02T06:33:38.403Z</time></trkpt><trkpt lat="51.4316883" lon="-0.0732833"><ele>111.66666666666667</ele><time>2026-05-02T06:33:39.402Z</time></trkpt><trkpt lat="51.4317533" lon="-0.0732133"><ele>111.5</ele><time>2026-05-02T06:33:40.403Z</time></trkpt><trkpt lat="51.4318167" lon="-0.07315"><ele>111.33333333333334</ele><time>2026-05-02T06:33:41.405Z</time></trkpt><trkpt lat="51.4318833" lon="-0.073095"><ele>111.16666666666667</ele><time>2026-05-02T06:33:42.404Z</time></trkpt><trkpt lat="51.4319483" lon="-0.0730383"><ele>111.0</ele><time>2026-05-02T06:33:43.402Z</time></trkpt><trkpt lat="51.4320083" lon="-0.0729767"><ele>111.4</ele><time>2026-05-02T06:33:44.402Z</time></trkpt><trkpt lat="51.43207" lon="-0.0729233"><ele>111.8</ele><time>2026-05-02T06:33:45.403Z</time></trkpt><trkpt lat="51.4321617" lon="-0.072855"><ele>112.20000000000002</ele><time>2026-05-02T06:33:47.402Z</time></trkpt><trkpt lat="51.4322017" lon="-0.072755"><ele>112.60000000000001</ele><time>2026-05-02T06:33:51.409Z</time></trkpt><trkpt lat="51.432245" lon="-0.0726767"><ele>113.0</ele><time>2026-05-02T06:33:53.402Z</time></trkpt><trkpt lat="51.4323517" lon="-0.0724983"><ele>113.66666666666666</ele><time>2026-05-02T06:33:55.402Z</time></trkpt><trkpt lat="51.4324133" lon="-0.0723517"><ele>114.33333333333334</ele><time>2026-05-02T06:33:56.403Z</time></trkpt><trkpt lat="51.4324683" lon="-0.07213"><ele>115.0</ele><time>2026-05-02T06:33:57.404Z</time></trkpt><trkpt lat="51.4325083" lon="-0.0716433"><ele>114.66666666666667</ele><time>2026-05-02T06:33:59.403Z</time></trkpt><trkpt lat="51.432505" lon="-0.0713967"><ele>114.33333333333334</ele><time>2026-05-02T06:34:00.403Z</time></trkpt><trkpt lat="51.4324883" lon="-0.0711533"><ele>114.0</ele><time>2026-05-02T06:34:01.403Z</time></trkpt><trkpt lat="51.4324733" lon="-0.0709133"><ele>113.33333333333334</ele><time>2026-05-02T06:34:02.402Z</time></trkpt><trkpt lat="51.4324817" lon="-0.0706767"><ele>112.66666666666667</ele><time>2026-05-02T06:34:03.403Z</time></trkpt><trkpt lat="51.4325083" lon="-0.070435"><ele>112.0</ele><time>2026-05-02T06:34:04.403Z</time></trkpt><trkpt lat="51.4325617" lon="-0.0702033"><ele>112.0</ele><time>2026-05-02T06:34:05.402Z</time></trkpt><trkpt lat="51.4326117" lon="-0.0699833"><ele>112.0</ele><time>2026-05-02T06:34:06.404Z</time></trkpt><trkpt lat="51.4326683" lon="-0.0697667"><ele>112.0</ele><time>2026-05-02T06:34:07.404Z</time></trkpt><trkpt lat="51.4327167" lon="-0.06955"><ele>112.0</ele><time>2026-05-02T06:34:08.403Z</time></trkpt><trkpt lat="51.4327733" lon="-0.069345"><ele>111.25</ele><time>2026-05-02T06:34:09.403Z</time></trkpt><trkpt lat="51.432825" lon="-0.0691367"><ele>110.5</ele><time>2026-05-02T06:34:10.402Z</time></trkpt><trkpt lat="51.43289" lon="-0.0689283"><ele>109.75</ele><time>2026-05-02T06:34:11.403Z</time></trkpt><trkpt lat="51.43297" lon="-0.0687267"><ele>109.0</ele><time>2026-05-02T06:34:12.403Z</time></trkpt><trkpt lat="51.4330567" lon="-0.0685383"><ele>109.0</ele><time>2026-05-02T06:34:13.402Z</time></trkpt><trkpt lat="51.4331433" lon="-0.0683533"><ele>109.0</ele><time>2026-05-02T06:34:14.407Z</time></trkpt><trkpt lat="51.4332283" lon="-0.0681567"><ele>109.0</ele><time>2026-05-02T06:34:15.402Z</time></trkpt><trkpt lat="51.4333133" lon="-0.0679733"><ele>109.0</ele><time>2026-05-02T06:34:16.405Z</time></trkpt><trkpt lat="51.4334" lon="-0.0677983"><ele>108.5</ele><time>2026-05-02T06:34:17.404Z</time></trkpt><trkpt lat="51.4334817" lon="-0.0676267"><ele>108.0</ele><time>2026-05-02T06:34:18.402Z</time></trkpt><trkpt lat="51.4335667" lon="-0.0674567"><ele>107.5</ele><time>2026-05-02T06:34:19.402Z</time></trkpt><trkpt lat="51.4336533" lon="-0.0672867"><ele>107.0</ele><time>2026-05-02T06:34:20.403Z</time></trkpt><trkpt lat="51.4337433" lon="-0.067115"><ele>107.0</ele><time>2026-05-02T06:34:21.402Z</time></trkpt><trkpt lat="51.4338317" lon="-0.066935"><ele>107.0</ele><time>2026-05-02T06:34:22.403Z</time></trkpt><trkpt lat="51.43392" lon="-0.066755"><ele>107.0</ele><time>2026-05-02T06:34:23.402Z</time></trkpt><trkpt lat="51.4340133" lon="-0.0665833"><ele>107.0</ele><time>2026-05-02T06:34:24.405Z</time></trkpt><trkpt lat="51.4341133" lon="-0.0664217"><ele>106.66666666666666</ele><time>2026-05-02T06:34:25.406Z</time></trkpt><trkpt lat="51.4342233" lon="-0.0662767"><ele>106.33333333333334</ele><time>2026-05-02T06:34:26.407Z</time></trkpt><trkpt lat="51.4343367" lon="-0.0661333"><ele>106.0</ele><time>2026-05-02T06:34:27.403Z</time></trkpt><trkpt lat="51.4345867" lon="-0.065885"><ele>105.25</ele><time>2026-05-02T06:34:29.403Z</time></trkpt><trkpt lat="51.4347183" lon="-0.0657833"><ele>104.5</ele><time>2026-05-02T06:34:30.402Z</time></trkpt><trkpt lat="51.4348567" lon="-0.0656933"><ele>103.75</ele><time>2026-05-02T06:34:31.403Z</time></trkpt><trkpt lat="51.4349983" lon="-0.0656033"><ele>103.0</ele><time>2026-05-02T06:34:32.403Z</time></trkpt><trkpt lat="51.435145" lon="-0.065525"><ele>102.33333333333334</ele><time>2026-05-02T06:34:33.403Z</time></trkpt><trkpt lat="51.4352933" lon="-0.0654383"><ele>101.66666666666666</ele><time>2026-05-02T06:34:34.402Z</time></trkpt><trkpt lat="51.43544" lon="-0.0653467"><ele>101.0</ele><time>2026-05-02T06:34:35.402Z</time></trkpt><trkpt lat="51.4355867" lon="-0.0652583"><ele>102.33333333333333</ele><time>2026-05-02T06:34:36.403Z</time></trkpt><trkpt lat="51.43573" lon="-0.0651667"><ele>103.66666666666666</ele><time>2026-05-02T06:34:37.403Z</time></trkpt><trkpt lat="51.43587" lon="-0.065065"><ele>105.0</ele><time>2026-05-02T06:34:38.406Z</time></trkpt><trkpt lat="51.43601" lon="-0.0649683"><ele>104.75</ele><time>2026-05-02T06:34:39.402Z</time></trkpt><trkpt lat="51.436145" lon="-0.064875"><ele>104.5</ele><time>2026-05-02T06:34:40.404Z</time></trkpt><trkpt lat="51.4362767" lon="-0.0647767"><ele>104.25</ele><time>2026-05-02T06:34:41.403Z</time></trkpt><trkpt lat="51.436395" lon="-0.064675"><ele>104.0</ele><time>2026-05-02T06:34:42.403Z</time></trkpt><trkpt lat="51.4365167" lon="-0.0645867"><ele>104.75</ele><time>2026-05-02T06:34:43.403Z</time></trkpt><trkpt lat="51.436645" lon="-0.0645283"><ele>105.5</ele><time>2026-05-02T06:34:44.403Z</time></trkpt><trkpt lat="51.43677" lon="-0.0644783"><ele>106.25</ele><time>2026-05-02T06:34:45.402Z</time></trkpt><trkpt lat="51.4368867" lon="-0.064415"><ele>107.0</ele><time>2026-05-02T06:34:46.403Z</time></trkpt><trkpt lat="51.4369967" lon="-0.0643283"><ele>107.0</ele><time>2026-05-02T06:34:47.402Z</time></trkpt><trkpt lat="51.4371017" lon="-0.064225"><ele>107.0</ele><time>2026-05-02T06:34:48.402Z</time></trkpt><trkpt lat="51.437195" lon="-0.0641"><ele>107.0</ele><time>2026-05-02T06:34:49.402Z</time></trkpt><trkpt lat="51.437275" lon="-0.0639683"><ele>107.0</ele><time>2026-05-02T06:34:50.402Z</time></trkpt><trkpt lat="51.4373433" lon="-0.06385"><ele>106.19999999999999</ele><time>2026-05-02T06:34:51.402Z</time></trkpt><trkpt lat="51.437395" lon="-0.063745"><ele>105.39999999999999</ele><time>2026-05-02T06:34:52.402Z</time></trkpt><trkpt lat="51.4374383" lon="-0.0636483"><ele>104.6</ele><time>2026-05-02T06:34:53.402Z</time></trkpt><trkpt lat="51.4374783" lon="-0.06357"><ele>103.80000000000001</ele><time>2026-05-02T06:34:54.402Z</time></trkpt><trkpt lat="51.43757" lon="-0.0634583"><ele>103.0</ele><time>2026-05-02T06:34:56.402Z</time></trkpt><trkpt lat="51.437695" lon="-0.0634517"><ele>103.00000000000001</ele><time>2026-05-02T06:34:58.404Z</time></trkpt><trkpt lat="51.43776" lon="-0.0634967"><ele>103.0</ele><time>2026-05-02T06:34:59.403Z</time></trkpt><trkpt lat="51.4378367" lon="-0.0635583"><ele>103.0</ele><time>2026-05-02T06:35:00.406Z</time></trkpt><trkpt lat="51.437915" lon="-0.063615"><ele>103.0</ele><time>2026-05-02T06:35:01.402Z</time></trkpt><trkpt lat="51.438005" lon="-0.06367"><ele>103.00000000000001</ele><time>2026-05-02T06:35:02.403Z</time></trkpt><trkpt lat="51.4380883" lon="-0.0637117"><ele>103.0</ele><time>2026-05-02T06:35:03.402Z</time></trkpt><trkpt lat="51.4381733" lon="-0.0637333"><ele>101.4</ele><time>2026-05-02T06:35:04.403Z</time></trkpt><trkpt lat="51.43826" lon="-0.0637417"><ele>99.80000000000001</ele><time>2026-05-02T06:35:05.402Z</time></trkpt><trkpt lat="51.4383483" lon="-0.06374"><ele>98.2</ele><time>2026-05-02T06:35:06.402Z</time></trkpt><trkpt lat="51.4384467" lon="-0.06374"><ele>96.6</ele><time>2026-05-02T06:35:07.407Z</time></trkpt><trkpt lat="51.4385567" lon="-0.0637467"><ele>95.0</ele><time>2026-05-02T06:35:08.406Z</time></trkpt><trkpt lat="51.43868" lon="-0.0637483"><ele>92.75</ele><time>2026-05-02T06:35:09.402Z</time></trkpt><trkpt lat="51.4388033" lon="-0.0637517"><ele>90.5</ele><time>2026-05-02T06:35:10.404Z</time></trkpt><trkpt lat="51.4389217" lon="-0.06376"><ele>88.25</ele><time>2026-05-02T06:35:11.403Z</time></trkpt><trkpt lat="51.4390483" lon="-0.0637733"><ele>86.0</ele><time>2026-05-02T06:35:12.403Z</time></trkpt><trkpt lat="51.4391783" lon="-0.0637933"><ele>86.0</ele><time>2026-05-02T06:35:13.404Z</time></trkpt><trkpt lat="51.43931" lon="-0.06381"><ele>86.0</ele><time>2026-05-02T06:35:14.404Z</time></trkpt><trkpt lat="51.43944" lon="-0.0638267"><ele>86.0</ele><time>2026-05-02T06:35:15.405Z</time></trkpt><trkpt lat="51.43957" lon="-0.06385"><ele>86.0</ele><time>2026-05-02T06:35:16.403Z</time></trkpt><trkpt lat="51.4397017" lon="-0.0638767"><ele>83.25</ele><time>2026-05-02T06:35:17.402Z</time></trkpt><trkpt lat="51.439835" lon="-0.0638983"><ele>80.5</ele><time>2026-05-02T06:35:18.404Z</time></trkpt><trkpt lat="51.4399617" lon="-0.063925"><ele>77.75</ele><time>2026-05-02T06:35:19.403Z</time></trkpt><trkpt lat="51.440085" lon="-0.0639433"><ele>75.0</ele><time>2026-05-02T06:35:20.402Z</time></trkpt><trkpt lat="51.4402017" lon="-0.06396"><ele>75.0</ele><time>2026-05-02T06:35:21.402Z</time></trkpt><trkpt lat="51.4403067" lon="-0.0639717"><ele>75.0</ele><time>2026-05-02T06:35:22.403Z</time></trkpt><trkpt lat="51.4404" lon="-0.063985"><ele>75.0</ele><time>2026-05-02T06:35:23.402Z</time></trkpt><trkpt lat="51.4404867" lon="-0.0640067"><ele>75.0</ele><time>2026-05-02T06:35:24.405Z</time></trkpt><trkpt lat="51.4405733" lon="-0.06403"><ele>75.0</ele><time>2026-05-02T06:35:25.406Z</time></trkpt><trkpt lat="51.44065" lon="-0.0640483"><ele>75.0</ele><time>2026-05-02T06:35:26.403Z</time></trkpt><trkpt lat="51.44072" lon="-0.0640667"><ele>75.0</ele><time>2026-05-02T06:35:27.402Z</time></trkpt><trkpt lat="51.440785" lon="-0.0640933"><ele>75.0</ele><time>2026-05-02T06:35:28.402Z</time></trkpt><trkpt lat="51.4409033" lon="-0.0642067"><ele>75.0</ele><time>2026-05-02T06:35:30.408Z</time></trkpt><trkpt lat="51.4409433" lon="-0.0643033"><ele>75.0</ele><time>2026-05-02T06:35:31.403Z</time></trkpt><trkpt lat="51.4409733" lon="-0.0644267"><ele>75.0</ele><time>2026-05-02T06:35:32.402Z</time></trkpt><trkpt lat="51.4410183" lon="-0.0645567"><ele>74.2</ele><time>2026-05-02T06:35:33.403Z</time></trkpt><trkpt lat="51.4410533" lon="-0.0646883"><ele>73.4</ele><time>2026-05-02T06:35:34.403Z</time></trkpt><trkpt lat="51.4410933" lon="-0.0648233"><ele>72.6</ele><time>2026-05-02T06:35:35.402Z</time></trkpt><trkpt lat="51.441135" lon="-0.0649533"><ele>71.8</ele><time>2026-05-02T06:35:36.404Z</time></trkpt><trkpt lat="51.44119" lon="-0.0650817"><ele>71.0</ele><time>2026-05-02T06:35:37.403Z</time></trkpt><trkpt lat="51.4412583" lon="-0.0652033"><ele>70.39999999999999</ele><time>2026-05-02T06:35:38.405Z</time></trkpt><trkpt lat="51.4413417" lon="-0.06532"><ele>69.8</ele><time>2026-05-02T06:35:39.403Z</time></trkpt><trkpt lat="51.44143" lon="-0.06542"><ele>69.19999999999999</ele><time>2026-05-02T06:35:40.402Z</time></trkpt><trkpt lat="51.4415233" lon="-0.0655167"><ele>68.6</ele><time>2026-05-02T06:35:41.405Z</time></trkpt><trkpt lat="51.4416133" lon="-0.0656"><ele>68.0</ele><time>2026-05-02T06:35:42.403Z</time></trkpt><trkpt lat="51.4417067" lon="-0.0656933"><ele>66.25</ele><time>2026-05-02T06:35:43.403Z</time></trkpt><trkpt lat="51.441805" lon="-0.0657933"><ele>64.5</ele><time>2026-05-02T06:35:44.403Z</time></trkpt><trkpt lat="51.4419033" lon="-0.0658967"><ele>62.75</ele><time>2026-05-02T06:35:45.402Z</time></trkpt><trkpt lat="51.4420033" lon="-0.066"><ele>61.0</ele><time>2026-05-02T06:35:46.402Z</time></trkpt><trkpt lat="51.4421083" lon="-0.0661"><ele>60.0</ele><time>2026-05-02T06:35:47.403Z</time></trkpt><trkpt lat="51.442215" lon="-0.0662033"><ele>59.0</ele><time>2026-05-02T06:35:48.402Z</time></trkpt><trkpt lat="51.44243" lon="-0.0664367"><ele>58.0</ele><time>2026-05-02T06:35:50.402Z</time></trkpt><trkpt lat="51.4425267" lon="-0.0665533"><ele>58.0</ele><time>2026-05-02T06:35:51.404Z</time></trkpt><trkpt lat="51.44262" lon="-0.0666617"><ele>58.0</ele><time>2026-05-02T06:35:52.403Z</time></trkpt><trkpt lat="51.4427083" lon="-0.0667733"><ele>58.0</ele><time>2026-05-02T06:35:53.403Z</time></trkpt><trkpt lat="51.4427867" lon="-0.0668833"><ele>58.0</ele><time>2026-05-02T06:35:54.407Z</time></trkpt><trkpt lat="51.442855" lon="-0.06698"><ele>58.0</ele><time>2026-05-02T06:35:55.402Z</time></trkpt><trkpt lat="51.442915" lon="-0.067065"><ele>57.4</ele><time>2026-05-02T06:35:56.403Z</time></trkpt><trkpt lat="51.4429717" lon="-0.06714"><ele>56.8</ele><time>2026-05-02T06:35:57.407Z</time></trkpt><trkpt lat="51.4430617" lon="-0.0672433"><ele>56.2</ele><time>2026-05-02T06:35:59.403Z</time></trkpt><trkpt lat="51.4431267" lon="-0.0673133"><ele>55.6</ele><time>2026-05-02T06:36:02.407Z</time></trkpt><trkpt lat="51.443205" lon="-0.0674417"><ele>55.0</ele><time>2026-05-02T06:36:41.406Z</time></trkpt><trkpt lat="51.4432767" lon="-0.0675683"><ele>54.75</ele><time>2026-05-02T06:36:42.405Z</time></trkpt><trkpt lat="51.4433833" lon="-0.0677133"><ele>54.5</ele><time>2026-05-02T06:36:43.405Z</time></trkpt><trkpt lat="51.4435017" lon="-0.06784"><ele>54.25</ele><time>2026-05-02T06:36:44.406Z</time></trkpt><trkpt lat="51.4435917" lon="-0.0679517"><ele>54.0</ele><time>2026-05-02T06:36:45.405Z</time></trkpt><trkpt lat="51.44368" lon="-0.0680633"><ele>54.0</ele><time>2026-05-02T06:36:46.403Z</time></trkpt><trkpt lat="51.443775" lon="-0.0681817"><ele>54.0</ele><time>2026-05-02T06:36:47.403Z</time></trkpt><trkpt lat="51.4438817" lon="-0.06831"><ele>54.0</ele><time>2026-05-02T06:36:48.404Z</time></trkpt><trkpt lat="51.4439867" lon="-0.0684283"><ele>54.0</ele><time>2026-05-02T06:36:49.407Z</time></trkpt><trkpt lat="51.4440833" lon="-0.0685383"><ele>53.25</ele><time>2026-05-02T06:36:50.403Z</time></trkpt><trkpt lat="51.444175" lon="-0.0686533"><ele>52.5</ele><time>2026-05-02T06:36:51.408Z</time></trkpt><trkpt lat="51.444265" lon="-0.0687633"><ele>51.75</ele><time>2026-05-02T06:36:52.403Z</time></trkpt><trkpt lat="51.4443567" lon="-0.0688783"><ele>51.0</ele><time>2026-05-02T06:36:53.404Z</time></trkpt><trkpt lat="51.4444467" lon="-0.0690033"><ele>51.25</ele><time>2026-05-02T06:36:54.405Z</time></trkpt><trkpt lat="51.4445367" lon="-0.0691233"><ele>51.5</ele><time>2026-05-02T06:36:55.404Z</time></trkpt><trkpt lat="51.4446233" lon="-0.069245"><ele>51.75</ele><time>2026-05-02T06:36:56.404Z</time></trkpt><trkpt lat="51.4447167" lon="-0.0693733"><ele>52.0</ele><time>2026-05-02T06:36:57.403Z</time></trkpt><trkpt lat="51.4448" lon="-0.0695067"><ele>52.75</ele><time>2026-05-02T06:36:58.401Z</time></trkpt><trkpt lat="51.4448833" lon="-0.0696467"><ele>53.5</ele><time>2026-05-02T06:36:59.403Z</time></trkpt><trkpt lat="51.44496" lon="-0.0698017"><ele>54.25</ele><time>2026-05-02T06:37:00.403Z</time></trkpt><trkpt lat="51.44503" lon="-0.0699633"><ele>55.0</ele><time>2026-05-02T06:37:01.404Z</time></trkpt><trkpt lat="51.445095" lon="-0.0701267"><ele>55.25</ele><time>2026-05-02T06:37:02.403Z</time></trkpt><trkpt lat="51.445155" lon="-0.070295"><ele>55.5</ele><time>2026-05-02T06:37:03.403Z</time></trkpt><trkpt lat="51.44522" lon="-0.070455"><ele>55.75</ele><time>2026-05-02T06:37:04.404Z</time></trkpt><trkpt lat="51.4452867" lon="-0.0706183"><ele>56.0</ele><time>2026-05-02T06:37:05.404Z</time></trkpt><trkpt lat="51.445355" lon="-0.0707833"><ele>56.5</ele><time>2026-05-02T06:37:06.404Z</time></trkpt><trkpt lat="51.4454283" lon="-0.0709483"><ele>57.0</ele><time>2026-05-02T06:37:07.405Z</time></trkpt><trkpt lat="51.4455083" lon="-0.0711117"><ele>57.5</ele><time>2026-05-02T06:37:08.403Z</time></trkpt><trkpt lat="51.4455917" lon="-0.0712717"><ele>58.0</ele><time>2026-05-02T06:37:09.404Z</time></trkpt><trkpt lat="51.4456817" lon="-0.0714233"><ele>58.0</ele><time>2026-05-02T06:37:10.403Z</time></trkpt><trkpt lat="51.44578" lon="-0.0715567"><ele>58.0</ele><time>2026-05-02T06:37:11.403Z</time></trkpt><trkpt lat="51.445885" lon="-0.0716733"><ele>58.0</ele><time>2026-05-02T06:37:12.403Z</time></trkpt><trkpt lat="51.4460017" lon="-0.0717717"><ele>58.0</ele><time>2026-05-02T06:37:13.403Z</time></trkpt><trkpt lat="51.446125" lon="-0.0718467"><ele>57.25</ele><time>2026-05-02T06:37:14.406Z</time></trkpt><trkpt lat="51.44625" lon="-0.0719083"><ele>56.5</ele><time>2026-05-02T06:37:15.404Z</time></trkpt><trkpt lat="51.4463717" lon="-0.0719717"><ele>55.75</ele><time>2026-05-02T06:37:16.403Z</time></trkpt><trkpt lat="51.446495" lon="-0.0720383"><ele>55.0</ele><time>2026-05-02T06:37:17.403Z</time></trkpt><trkpt lat="51.4466217" lon="-0.0721083"><ele>55.0</ele><time>2026-05-02T06:37:18.408Z</time></trkpt><trkpt lat="51.44675" lon="-0.072185"><ele>55.0</ele><time>2026-05-02T06:37:19.404Z</time></trkpt><trkpt lat="51.4468767" lon="-0.072265"><ele>55.0</ele><time>2026-05-02T06:37:20.404Z</time></trkpt><trkpt lat="51.4470033" lon="-0.072345"><ele>55.0</ele><time>2026-05-02T06:37:21.403Z</time></trkpt><trkpt lat="51.4471283" lon="-0.0724333"><ele>54.5</ele><time>2026-05-02T06:37:22.403Z</time></trkpt><trkpt lat="51.4472533" lon="-0.07253"><ele>54.0</ele><time>2026-05-02T06:37:23.403Z</time></trkpt><trkpt lat="51.4473767" lon="-0.072625"><ele>53.5</ele><time>2026-05-02T06:37:24.403Z</time></trkpt><trkpt lat="51.4474983" lon="-0.0727267"><ele>53.0</ele><time>2026-05-02T06:37:25.403Z</time></trkpt><trkpt lat="51.4476167" lon="-0.0728333"><ele>53.0</ele><time>2026-05-02T06:37:26.404Z</time></trkpt><trkpt lat="51.4477267" lon="-0.0729417"><ele>53.0</ele><time>2026-05-02T06:37:27.403Z</time></trkpt><trkpt lat="51.4478317" lon="-0.0730467"><ele>53.0</ele><time>2026-05-02T06:37:28.403Z</time></trkpt><trkpt lat="51.4479317" lon="-0.0731483"><ele>53.0</ele><time>2026-05-02T06:37:29.403Z</time></trkpt><trkpt lat="51.4480333" lon="-0.07325"><ele>50.0</ele><time>2026-05-02T06:37:30.404Z</time></trkpt><trkpt lat="51.4488267" lon="-0.0742317"><ele>50.00000000000001</ele><time>2026-05-02T06:37:50.217Z</time></trkpt><trkpt lat="51.4489183" lon="-0.0742267"><ele>50.0</ele><time>2026-05-02T06:38:10.403Z</time></trkpt><trkpt lat="51.4489933" lon="-0.0742633"><ele>50.0</ele><time>2026-05-02T06:38:12.402Z</time></trkpt><trkpt lat="51.4490733" lon="-0.0742167"><ele>50.0</ele><time>2026-05-02T06:38:14.403Z</time></trkpt><trkpt lat="51.4491417" lon="-0.0740733"><ele>50.00000000000001</ele><time>2026-05-02T06:38:16.402Z</time></trkpt><trkpt lat="51.449165" lon="-0.07397"><ele>50.0</ele><time>2026-05-02T06:38:17.412Z</time></trkpt><trkpt lat="51.4491867" lon="-0.07386"><ele>50.00000000000001</ele><time>2026-05-02T06:38:18.411Z</time></trkpt><trkpt lat="51.4492033" lon="-0.0737433"><ele>50.0</ele><time>2026-05-02T06:38:19.402Z</time></trkpt><trkpt lat="51.4492217" lon="-0.07363"><ele>50.0</ele><time>2026-05-02T06:38:20.409Z</time></trkpt><trkpt lat="51.4492417" lon="-0.0735133"><ele>50.0</ele><time>2026-05-02T06:38:21.403Z</time></trkpt><trkpt lat="51.4492667" lon="-0.073395"><ele>50.00000000000001</ele><time>2026-05-02T06:38:22.402Z</time></trkpt><trkpt lat="51.4493017" lon="-0.0732783"><ele>50.0</ele><time>2026-05-02T06:38:23.402Z</time></trkpt><trkpt lat="51.4493533" lon="-0.0731683"><ele>50.0</ele><time>2026-05-02T06:38:24.402Z</time></trkpt><trkpt lat="51.449425" lon="-0.073065"><ele>50.0</ele><time>2026-05-02T06:38:25.403Z</time></trkpt><trkpt lat="51.4495067" lon="-0.072975"><ele>50.0</ele><time>2026-05-02T06:38:26.403Z</time></trkpt><trkpt lat="51.4496033" lon="-0.0729017"><ele>50.0</ele><time>2026-05-02T06:38:27.404Z</time></trkpt><trkpt lat="51.4497" lon="-0.07283"><ele>50.0</ele><time>2026-05-02T06:38:28.402Z</time></trkpt><trkpt lat="51.4497917" lon="-0.0727633"><ele>49.2</ele><time>2026-05-02T06:38:29.403Z</time></trkpt><trkpt lat="51.449885" lon="-0.0726967"><ele>48.4</ele><time>2026-05-02T06:38:30.402Z</time></trkpt><trkpt lat="51.4499767" lon="-0.0726217"><ele>47.599999999999994</ele><time>2026-05-02T06:38:31.403Z</time></trkpt><trkpt lat="51.450075" lon="-0.072545"><ele>46.8</ele><time>2026-05-02T06:38:32.404Z</time></trkpt><trkpt lat="51.45018" lon="-0.07246"><ele>46.0</ele><time>2026-05-02T06:38:33.403Z</time></trkpt><trkpt lat="51.4502783" lon="-0.0723883"><ele>46.0</ele><time>2026-05-02T06:38:34.402Z</time></trkpt><trkpt lat="51.4503783" lon="-0.0723183"><ele>46.0</ele><time>2026-05-02T06:38:35.404Z</time></trkpt><trkpt lat="51.4504733" lon="-0.07225"><ele>46.0</ele><time>2026-05-02T06:38:36.404Z</time></trkpt><trkpt lat="51.450565" lon="-0.0721817"><ele>46.0</ele><time>2026-05-02T06:38:37.403Z</time></trkpt><trkpt lat="51.4506533" lon="-0.07211"><ele>46.0</ele><time>2026-05-02T06:38:38.404Z</time></trkpt><trkpt lat="51.4507433" lon="-0.0720367"><ele>46.0</ele><time>2026-05-02T06:38:39.404Z</time></trkpt><trkpt lat="51.4508367" lon="-0.0719633"><ele>46.0</ele><time>2026-05-02T06:38:40.403Z</time></trkpt><trkpt lat="51.4509317" lon="-0.071895"><ele>46.0</ele><time>2026-05-02T06:38:41.402Z</time></trkpt><trkpt lat="51.45103" lon="-0.0718317"><ele>46.0</ele><time>2026-05-02T06:38:42.403Z</time></trkpt><trkpt lat="51.4511283" lon="-0.0717583"><ele>46.0</ele><time>2026-05-02T06:38:43.41Z</time></trkpt><trkpt lat="51.4512217" lon="-0.0716933"><ele>45.4</ele><time>2026-05-02T06:38:44.404Z</time></trkpt><trkpt lat="51.4513167" lon="-0.0716233"><ele>44.8</ele><time>2026-05-02T06:38:45.407Z</time></trkpt><trkpt lat="51.4514083" lon="-0.0715667"><ele>44.199999999999996</ele><time>2026-05-02T06:38:46.403Z</time></trkpt><trkpt lat="51.451495" lon="-0.0715133"><ele>43.599999999999994</ele><time>2026-05-02T06:38:47.403Z</time></trkpt><trkpt lat="51.45158" lon="-0.0714483"><ele>43.0</ele><time>2026-05-02T06:38:48.403Z</time></trkpt><trkpt lat="51.4516683" lon="-0.0713917"><ele>43.0</ele><time>2026-05-02T06:38:49.404Z</time></trkpt><trkpt lat="51.45176" lon="-0.071325"><ele>43.0</ele><time>2026-05-02T06:38:50.402Z</time></trkpt><trkpt lat="51.45186" lon="-0.07125"><ele>43.0</ele><time>2026-05-02T06:38:51.403Z</time></trkpt><trkpt lat="51.45196" lon="-0.0711783"><ele>43.0</ele><time>2026-05-02T06:38:52.402Z</time></trkpt><trkpt lat="51.4520567" lon="-0.071105"><ele>43.0</ele><time>2026-05-02T06:38:53.405Z</time></trkpt><trkpt lat="51.452155" lon="-0.0710367"><ele>42.4</ele><time>2026-05-02T06:38:54.404Z</time></trkpt><trkpt lat="51.452255" lon="-0.0709717"><ele>41.8</ele><time>2026-05-02T06:38:55.404Z</time></trkpt><trkpt lat="51.4523533" lon="-0.0709"><ele>41.2</ele><time>2026-05-02T06:38:56.403Z</time></trkpt><trkpt lat="51.4524517" lon="-0.0708333"><ele>40.6</ele><time>2026-05-02T06:38:57.406Z</time></trkpt><trkpt lat="51.4525467" lon="-0.070765"><ele>40.0</ele><time>2026-05-02T06:38:58.403Z</time></trkpt><trkpt lat="51.45264" lon="-0.0706967"><ele>40.0</ele><time>2026-05-02T06:38:59.402Z</time></trkpt><trkpt lat="51.4527317" lon="-0.0706317"><ele>40.0</ele><time>2026-05-02T06:39:00.404Z</time></trkpt><trkpt lat="51.4528267" lon="-0.070565"><ele>40.0</ele><time>2026-05-02T06:39:01.402Z</time></trkpt><trkpt lat="51.45292" lon="-0.070495"><ele>40.0</ele><time>2026-05-02T06:39:02.402Z</time></trkpt><trkpt lat="51.453005" lon="-0.070425"><ele>40.0</ele><time>2026-05-02T06:39:03.406Z</time></trkpt><trkpt lat="51.4530917" lon="-0.0703567"><ele>39.4</ele><time>2026-05-02T06:39:04.402Z</time></trkpt><trkpt lat="51.45318" lon="-0.0702867"><ele>38.8</ele><time>2026-05-02T06:39:05.402Z</time></trkpt><trkpt lat="51.45327" lon="-0.07022"><ele>38.2</ele><time>2026-05-02T06:39:06.403Z</time></trkpt><trkpt lat="51.45336" lon="-0.0701567"><ele>37.6</ele><time>2026-05-02T06:39:07.403Z</time></trkpt><trkpt lat="51.45345" lon="-0.0700967"><ele>37.0</ele><time>2026-05-02T06:39:08.403Z</time></trkpt><trkpt lat="51.4535317" lon="-0.07003"><ele>37.0</ele><time>2026-05-02T06:39:09.404Z</time></trkpt><trkpt lat="51.4536117" lon="-0.0699633"><ele>37.0</ele><time>2026-05-02T06:39:10.403Z</time></trkpt><trkpt lat="51.4536933" lon="-0.0698983"><ele>37.0</ele><time>2026-05-02T06:39:11.403Z</time></trkpt><trkpt lat="51.4537783" lon="-0.0698333"><ele>37.0</ele><time>2026-05-02T06:39:12.403Z</time></trkpt><trkpt lat="51.453865" lon="-0.069765"><ele>37.0</ele><time>2026-05-02T06:39:13.403Z</time></trkpt><trkpt lat="51.4539517" lon="-0.0696967"><ele>36.800000000000004</ele><time>2026-05-02T06:39:14.404Z</time></trkpt><trkpt lat="51.4540383" lon="-0.069635"><ele>36.6</ele><time>2026-05-02T06:39:15.402Z</time></trkpt><trkpt lat="51.454125" lon="-0.0695733"><ele>36.400000000000006</ele><time>2026-05-02T06:39:16.402Z</time></trkpt><trkpt lat="51.4542133" lon="-0.0695183"><ele>36.2</ele><time>2026-05-02T06:39:17.406Z</time></trkpt><trkpt lat="51.4543033" lon="-0.0694533"><ele>36.0</ele><time>2026-05-02T06:39:18.403Z</time></trkpt><trkpt lat="51.4544083" lon="-0.0694367"><ele>36.0</ele><time>2026-05-02T06:39:19.403Z</time></trkpt><trkpt lat="51.4544983" lon="-0.0693683"><ele>36.0</ele><time>2026-05-02T06:39:20.402Z</time></trkpt><trkpt lat="51.4545883" lon="-0.0693"><ele>36.0</ele><time>2026-05-02T06:39:21.402Z</time></trkpt><trkpt lat="51.4546783" lon="-0.0692317"><ele>36.0</ele><time>2026-05-02T06:39:22.402Z</time></trkpt><trkpt lat="51.4547733" lon="-0.0691667"><ele>36.0</ele><time>2026-05-02T06:39:23.405Z</time></trkpt><trkpt lat="51.4548717" lon="-0.0691"><ele>35.2</ele><time>2026-05-02T06:39:24.403Z</time></trkpt><trkpt lat="51.4549683" lon="-0.06903"><ele>34.400000000000006</ele><time>2026-05-02T06:39:25.402Z</time></trkpt><trkpt lat="51.4550633" lon="-0.0689567"><ele>33.6</ele><time>2026-05-02T06:39:26.403Z</time></trkpt><trkpt lat="51.45516" lon="-0.0688783"><ele>32.800000000000004</ele><time>2026-05-02T06:39:27.408Z</time></trkpt><trkpt lat="51.45526" lon="-0.0688017"><ele>32.0</ele><time>2026-05-02T06:39:28.402Z</time></trkpt><trkpt lat="51.4553567" lon="-0.0687233"><ele>32.0</ele><time>2026-05-02T06:39:29.402Z</time></trkpt><trkpt lat="51.4554533" lon="-0.0686567"><ele>32.0</ele><time>2026-05-02T06:39:30.402Z</time></trkpt><trkpt lat="51.4555417" lon="-0.0685933"><ele>32.0</ele><time>2026-05-02T06:39:31.402Z</time></trkpt><trkpt lat="51.4556317" lon="-0.0685317"><ele>32.0</ele><time>2026-05-02T06:39:32.404Z</time></trkpt><trkpt lat="51.45572" lon="-0.0684717"><ele>32.0</ele><time>2026-05-02T06:39:33.402Z</time></trkpt><trkpt lat="51.4558067" lon="-0.06841"><ele>31.6</ele><time>2026-05-02T06:39:34.402Z</time></trkpt><trkpt lat="51.4558983" lon="-0.0683517"><ele>31.200000000000003</ele><time>2026-05-02T06:39:35.403Z</time></trkpt><trkpt lat="51.4559867" lon="-0.068285"><ele>30.8</ele><time>2026-05-02T06:39:36.402Z</time></trkpt><trkpt lat="51.4560717" lon="-0.068215"><ele>30.4</ele><time>2026-05-02T06:39:37.402Z</time></trkpt><trkpt lat="51.4561567" lon="-0.0681517"><ele>30.0</ele><time>2026-05-02T06:39:38.403Z</time></trkpt><trkpt lat="51.4562383" lon="-0.068085"><ele>29.8</ele><time>2026-05-02T06:39:39.402Z</time></trkpt><trkpt lat="51.4563233" lon="-0.0680183"><ele>29.6</ele><time>2026-05-02T06:39:40.403Z</time></trkpt><trkpt lat="51.4564117" lon="-0.067955"><ele>29.4</ele><time>2026-05-02T06:39:41.402Z</time></trkpt><trkpt lat="51.4564967" lon="-0.0678883"><ele>29.2</ele><time>2026-05-02T06:39:42.403Z</time></trkpt><trkpt lat="51.4565817" lon="-0.0678267"><ele>29.0</ele><time>2026-05-02T06:39:43.403Z</time></trkpt><trkpt lat="51.4566633" lon="-0.0677617"><ele>29.0</ele><time>2026-05-02T06:39:44.403Z</time></trkpt><trkpt lat="51.4567467" lon="-0.0676983"><ele>29.0</ele><time>2026-05-02T06:39:45.402Z</time></trkpt><trkpt lat="51.45683" lon="-0.0676317"><ele>29.0</ele><time>2026-05-02T06:39:46.403Z</time></trkpt><trkpt lat="51.4569183" lon="-0.0675633"><ele>29.0</ele><time>2026-05-02T06:39:47.402Z</time></trkpt><trkpt lat="51.4570117" lon="-0.067495"><ele>29.0</ele><time>2026-05-02T06:39:48.403Z</time></trkpt><trkpt lat="51.4571217" lon="-0.067405"><ele>28.0</ele><time>2026-05-02T06:39:49.403Z</time></trkpt><trkpt lat="51.4572433" lon="-0.0673"><ele>27.0</ele><time>2026-05-02T06:39:50.403Z</time></trkpt><trkpt lat="51.4573817" lon="-0.0671867"><ele>26.0</ele><time>2026-05-02T06:39:51.402Z</time></trkpt><trkpt lat="51.45754" lon="-0.0670867"><ele>26.0</ele><time>2026-05-02T06:39:52.403Z</time></trkpt><trkpt lat="51.4577067" lon="-0.06698"><ele>26.0</ele><time>2026-05-02T06:39:53.406Z</time></trkpt><trkpt lat="51.457865" lon="-0.0668667"><ele>26.0</ele><time>2026-05-02T06:39:54.402Z</time></trkpt><trkpt lat="51.4580267" lon="-0.0667517"><ele>25.666666666666664</ele><time>2026-05-02T06:39:55.402Z</time></trkpt><trkpt lat="51.4581867" lon="-0.0666367"><ele>25.333333333333336</ele><time>2026-05-02T06:39:56.403Z</time></trkpt><trkpt lat="51.458345" lon="-0.0665233"><ele>25.0</ele><time>2026-05-02T06:39:57.405Z</time></trkpt><trkpt lat="51.4585" lon="-0.06642"><ele>25.0</ele><time>2026-05-02T06:39:58.402Z</time></trkpt><trkpt lat="51.45864" lon="-0.066325"><ele>25.0</ele><time>2026-05-02T06:39:59.403Z</time></trkpt><trkpt lat="51.4587633" lon="-0.0662467"><ele>25.0</ele><time>2026-05-02T06:40:00.405Z</time></trkpt><trkpt lat="51.4588683" lon="-0.066175"><ele>25.0</ele><time>2026-05-02T06:40:01.402Z</time></trkpt><trkpt lat="51.4589633" lon="-0.066115"><ele>24.6</ele><time>2026-05-02T06:40:02.404Z</time></trkpt><trkpt lat="51.4590483" lon="-0.06606"><ele>24.2</ele><time>2026-05-02T06:40:03.402Z</time></trkpt><trkpt lat="51.4591433" lon="-0.06602"><ele>23.799999999999997</ele><time>2026-05-02T06:40:04.402Z</time></trkpt><trkpt lat="51.4592583" lon="-0.0660167"><ele>23.4</ele><time>2026-05-02T06:40:05.403Z</time></trkpt><trkpt lat="51.459395" lon="-0.0660317"><ele>23.0</ele><time>2026-05-02T06:40:06.403Z</time></trkpt><trkpt lat="51.4595283" lon="-0.0660533"><ele>22.25</ele><time>2026-05-02T06:40:07.404Z</time></trkpt><trkpt lat="51.4596533" lon="-0.0660817"><ele>21.5</ele><time>2026-05-02T06:40:08.403Z</time></trkpt><trkpt lat="51.4597683" lon="-0.0661067"><ele>20.75</ele><time>2026-05-02T06:40:09.403Z</time></trkpt><trkpt lat="51.4598783" lon="-0.06613"><ele>20.0</ele><time>2026-05-02T06:40:10.405Z</time></trkpt><trkpt lat="51.459985" lon="-0.0661533"><ele>20.0</ele><time>2026-05-02T06:40:11.403Z</time></trkpt><trkpt lat="51.4600883" lon="-0.06617"><ele>20.0</ele><time>2026-05-02T06:40:12.403Z</time></trkpt><trkpt lat="51.460185" lon="-0.066185"><ele>20.0</ele><time>2026-05-02T06:40:13.404Z</time></trkpt><trkpt lat="51.46027" lon="-0.0662017"><ele>20.0</ele><time>2026-05-02T06:40:14.405Z</time></trkpt><trkpt lat="51.4603517" lon="-0.0662183"><ele>20.0</ele><time>2026-05-02T06:40:15.403Z</time></trkpt><trkpt lat="51.460435" lon="-0.0662317"><ele>20.333333333333336</ele><time>2026-05-02T06:40:16.403Z</time></trkpt><trkpt lat="51.460515" lon="-0.0662517"><ele>20.666666666666668</ele><time>2026-05-02T06:40:17.404Z</time></trkpt><trkpt lat="51.4605933" lon="-0.0662667"><ele>21.0</ele><time>2026-05-02T06:40:18.403Z</time></trkpt><trkpt lat="51.4606683" lon="-0.06628"><ele>21.333333333333332</ele><time>2026-05-02T06:40:19.402Z</time></trkpt><trkpt lat="51.4607433" lon="-0.0663"><ele>21.666666666666664</ele><time>2026-05-02T06:40:20.404Z</time></trkpt><trkpt lat="51.460825" lon="-0.06632"><ele>22.0</ele><time>2026-05-02T06:40:21.402Z</time></trkpt><trkpt lat="51.4609083" lon="-0.0663367"><ele>22.0</ele><time>2026-05-02T06:40:22.406Z</time></trkpt><trkpt lat="51.461" lon="-0.066355"><ele>22.0</ele><time>2026-05-02T06:40:23.405Z</time></trkpt><trkpt lat="51.4610983" lon="-0.0663733"><ele>22.0</ele><time>2026-05-02T06:40:24.404Z</time></trkpt><trkpt lat="51.46121" lon="-0.066385"><ele>22.0</ele><time>2026-05-02T06:40:25.402Z</time></trkpt><trkpt lat="51.4613217" lon="-0.06641"><ele>22.0</ele><time>2026-05-02T06:40:26.403Z</time></trkpt><trkpt lat="51.461425" lon="-0.0664383"><ele>21.166666666666664</ele><time>2026-05-02T06:40:27.403Z</time></trkpt><trkpt lat="51.46152" lon="-0.066475"><ele>20.333333333333332</ele><time>2026-05-02T06:40:28.402Z</time></trkpt><trkpt lat="51.4616033" lon="-0.066495"><ele>19.5</ele><time>2026-05-02T06:40:29.403Z</time></trkpt><trkpt lat="51.4616817" lon="-0.06651"><ele>18.666666666666668</ele><time>2026-05-02T06:40:30.403Z</time></trkpt><trkpt lat="51.461755" lon="-0.0665233"><ele>17.833333333333336</ele><time>2026-05-02T06:40:31.402Z</time></trkpt><trkpt lat="51.461825" lon="-0.0665417"><ele>17.0</ele><time>2026-05-02T06:40:32.402Z</time></trkpt><trkpt lat="51.4619" lon="-0.06656"><ele>16.999999999999996</ele><time>2026-05-02T06:40:33.404Z</time></trkpt><trkpt lat="51.4619767" lon="-0.0665833"><ele>17.0</ele><time>2026-05-02T06:40:34.403Z</time></trkpt><trkpt lat="51.4620517" lon="-0.066605"><ele>17.0</ele><time>2026-05-02T06:40:35.402Z</time></trkpt><trkpt lat="51.4621267" lon="-0.0666267"><ele>17.0</ele><time>2026-05-02T06:40:36.402Z</time></trkpt><trkpt lat="51.4622" lon="-0.0666417"><ele>17.0</ele><time>2026-05-02T06:40:37.402Z</time></trkpt><trkpt lat="51.46227" lon="-0.0666533"><ele>16.999999999999996</ele><time>2026-05-02T06:40:38.406Z</time></trkpt><trkpt lat="51.4623433" lon="-0.0666617"><ele>17.0</ele><time>2026-05-02T06:40:39.402Z</time></trkpt><trkpt lat="51.4624267" lon="-0.0666617"><ele>18.0</ele><time>2026-05-02T06:40:40.407Z</time></trkpt><trkpt lat="51.4625217" lon="-0.06665"><ele>19.0</ele><time>2026-05-02T06:40:41.403Z</time></trkpt><trkpt lat="51.4626167" lon="-0.0666417"><ele>20.0</ele><time>2026-05-02T06:40:42.405Z</time></trkpt><trkpt lat="51.462715" lon="-0.06663"><ele>21.0</ele><time>2026-05-02T06:40:43.403Z</time></trkpt><trkpt lat="51.46291" lon="-0.0665933"><ele>20.5</ele><time>2026-05-02T06:40:45.403Z</time></trkpt><trkpt lat="51.4630017" lon="-0.0665817"><ele>20.0</ele><time>2026-05-02T06:40:46.404Z</time></trkpt><trkpt lat="51.4630883" lon="-0.066565"><ele>19.5</ele><time>2026-05-02T06:40:47.404Z</time></trkpt><trkpt lat="51.46317" lon="-0.0665383"><ele>19.0</ele><time>2026-05-02T06:40:48.412Z</time></trkpt><trkpt lat="51.4632467" lon="-0.0665233"><ele>18.5</ele><time>2026-05-02T06:40:49.405Z</time></trkpt><trkpt lat="51.463325" lon="-0.06651"><ele>18.0</ele><time>2026-05-02T06:40:50.404Z</time></trkpt><trkpt lat="51.4634" lon="-0.0665"><ele>18.0</ele><time>2026-05-02T06:40:51.406Z</time></trkpt><trkpt lat="51.4634767" lon="-0.0665017"><ele>18.0</ele><time>2026-05-02T06:40:52.404Z</time></trkpt><trkpt lat="51.4635583" lon="-0.0665017"><ele>18.0</ele><time>2026-05-02T06:40:53.403Z</time></trkpt><trkpt lat="51.4636517" lon="-0.0665067"><ele>18.0</ele><time>2026-05-02T06:40:54.404Z</time></trkpt><trkpt lat="51.4637567" lon="-0.0665183"><ele>18.0</ele><time>2026-05-02T06:40:55.405Z</time></trkpt><trkpt lat="51.4638617" lon="-0.0665267"><ele>17.8</ele><time>2026-05-02T06:40:56.407Z</time></trkpt><trkpt lat="51.4639683" lon="-0.0665317"><ele>17.6</ele><time>2026-05-02T06:40:57.406Z</time></trkpt><trkpt lat="51.46407" lon="-0.0665383"><ele>17.4</ele><time>2026-05-02T06:40:58.403Z</time></trkpt><trkpt lat="51.4641617" lon="-0.0665417"><ele>17.2</ele><time>2026-05-02T06:40:59.405Z</time></trkpt><trkpt lat="51.4642517" lon="-0.0665433"><ele>17.0</ele><time>2026-05-02T06:41:00.405Z</time></trkpt><trkpt lat="51.464345" lon="-0.066545"><ele>17.0</ele><time>2026-05-02T06:41:01.405Z</time></trkpt><trkpt lat="51.4644383" lon="-0.0665483"><ele>17.0</ele><time>2026-05-02T06:41:02.406Z</time></trkpt><trkpt lat="51.4645267" lon="-0.0665567"><ele>17.0</ele><time>2026-05-02T06:41:03.404Z</time></trkpt><trkpt lat="51.464615" lon="-0.06656"><ele>17.0</ele><time>2026-05-02T06:41:04.403Z</time></trkpt><trkpt lat="51.4647067" lon="-0.0665583"><ele>17.0</ele><time>2026-05-02T06:41:05.403Z</time></trkpt><trkpt lat="51.4647967" lon="-0.0665533"><ele>16.6</ele><time>2026-05-02T06:41:06.405Z</time></trkpt><trkpt lat="51.4648917" lon="-0.06654"><ele>16.2</ele><time>2026-05-02T06:41:07.403Z</time></trkpt><trkpt lat="51.4649867" lon="-0.066525"><ele>15.8</ele><time>2026-05-02T06:41:08.404Z</time></trkpt><trkpt lat="51.4650767" lon="-0.0665067"><ele>15.4</ele><time>2026-05-02T06:41:09.405Z</time></trkpt><trkpt lat="51.4651667" lon="-0.0664883"><ele>15.0</ele><time>2026-05-02T06:41:10.403Z</time></trkpt><trkpt lat="51.4652517" lon="-0.0664667"><ele>15.0</ele><time>2026-05-02T06:41:11.404Z</time></trkpt><trkpt lat="51.465335" lon="-0.06645"><ele>15.0</ele><time>2026-05-02T06:41:12.404Z</time></trkpt><trkpt lat="51.4654167" lon="-0.0664367"><ele>15.0</ele><time>2026-05-02T06:41:13.405Z</time></trkpt><trkpt lat="51.4654983" lon="-0.0664217"><ele>15.0</ele><time>2026-05-02T06:41:14.405Z</time></trkpt><trkpt lat="51.465575" lon="-0.0664133"><ele>15.0</ele><time>2026-05-02T06:41:15.404Z</time></trkpt><trkpt lat="51.465655" lon="-0.0664067"><ele>15.0</ele><time>2026-05-02T06:41:16.403Z</time></trkpt><trkpt lat="51.4657383" lon="-0.0663967"><ele>14.833333333333334</ele><time>2026-05-02T06:41:17.404Z</time></trkpt><trkpt lat="51.4658183" lon="-0.0663933"><ele>14.666666666666668</ele><time>2026-05-02T06:41:18.404Z</time></trkpt><trkpt lat="51.4658983" lon="-0.0663767"><ele>14.5</ele><time>2026-05-02T06:41:19.402Z</time></trkpt><trkpt lat="51.46598" lon="-0.0663533"><ele>14.333333333333334</ele><time>2026-05-02T06:41:20.404Z</time></trkpt><trkpt lat="51.4660583" lon="-0.0663133"><ele>14.166666666666668</ele><time>2026-05-02T06:41:21.404Z</time></trkpt><trkpt lat="51.4661317" lon="-0.0662633"><ele>14.0</ele><time>2026-05-02T06:41:22.403Z</time></trkpt><trkpt lat="51.466205" lon="-0.0662067"><ele>14.333333333333334</ele><time>2026-05-02T06:41:23.402Z</time></trkpt><trkpt lat="51.4662817" lon="-0.06613"><ele>14.666666666666668</ele><time>2026-05-02T06:41:24.406Z</time></trkpt><trkpt lat="51.466365" lon="-0.0660733"><ele>15.0</ele><time>2026-05-02T06:41:25.406Z</time></trkpt><trkpt lat="51.466455" lon="-0.0660317"><ele>15.333333333333332</ele><time>2026-05-02T06:41:26.403Z</time></trkpt><trkpt lat="51.46654" lon="-0.0660067"><ele>15.666666666666666</ele><time>2026-05-02T06:41:27.402Z</time></trkpt><trkpt lat="51.4666117" lon="-0.0659783"><ele>16.0</ele><time>2026-05-02T06:41:28.402Z</time></trkpt><trkpt lat="51.4666733" lon="-0.0659483"><ele>16.0</ele><time>2026-05-02T06:41:29.404Z</time></trkpt><trkpt lat="51.4667833" lon="-0.0658983"><ele>16.0</ele><time>2026-05-02T06:41:31.403Z</time></trkpt><trkpt lat="51.4668783" lon="-0.0658083"><ele>16.0</ele><time>2026-05-02T06:41:33.402Z</time></trkpt><trkpt lat="51.46695" lon="-0.0656867"><ele>16.0</ele><time>2026-05-02T06:41:35.402Z</time></trkpt><trkpt lat="51.4669783" lon="-0.0655933"><ele>16.0</ele><time>2026-05-02T06:41:36.403Z</time></trkpt><trkpt lat="51.4670017" lon="-0.0654883"><ele>15.833333333333332</ele><time>2026-05-02T06:41:37.403Z</time></trkpt><trkpt lat="51.4670317" lon="-0.065385"><ele>15.666666666666666</ele><time>2026-05-02T06:41:38.403Z</time></trkpt><trkpt lat="51.4670783" lon="-0.0652833"><ele>15.5</ele><time>2026-05-02T06:41:39.406Z</time></trkpt><trkpt lat="51.467135" lon="-0.0652117"><ele>15.333333333333332</ele><time>2026-05-02T06:41:40.405Z</time></trkpt><trkpt lat="51.4672083" lon="-0.0651633"><ele>15.166666666666666</ele><time>2026-05-02T06:41:41.405Z</time></trkpt><trkpt lat="51.4672933" lon="-0.06512"><ele>15.0</ele><time>2026-05-02T06:41:42.404Z</time></trkpt><trkpt lat="51.467385" lon="-0.0650833"><ele>14.8</ele><time>2026-05-02T06:41:43.403Z</time></trkpt><trkpt lat="51.4674833" lon="-0.06505"><ele>14.6</ele><time>2026-05-02T06:41:44.404Z</time></trkpt><trkpt lat="51.4675883" lon="-0.0650167"><ele>14.399999999999999</ele><time>2026-05-02T06:41:45.403Z</time></trkpt><trkpt lat="51.4676833" lon="-0.0649633"><ele>14.2</ele><time>2026-05-02T06:41:46.402Z</time></trkpt><trkpt lat="51.4677733" lon="-0.0649283"><ele>14.0</ele><time>2026-05-02T06:41:47.403Z</time></trkpt><trkpt lat="51.467855" lon="-0.0648767"><ele>13.75</ele><time>2026-05-02T06:41:48.403Z</time></trkpt><trkpt lat="51.46795" lon="-0.0648367"><ele>13.5</ele><time>2026-05-02T06:41:49.404Z</time></trkpt><trkpt lat="51.46807" lon="-0.0648167"><ele>13.25</ele><time>2026-05-02T06:41:50.404Z</time></trkpt><trkpt lat="51.4682183" lon="-0.0648183"><ele>13.0</ele><time>2026-05-02T06:41:51.404Z</time></trkpt><trkpt lat="51.46839" lon="-0.0648667"><ele>13.0</ele><time>2026-05-02T06:41:52.403Z</time></trkpt><trkpt lat="51.468555" lon="-0.0649183"><ele>13.0</ele><time>2026-05-02T06:41:53.403Z</time></trkpt><trkpt lat="51.4687033" lon="-0.0649583"><ele>13.0</ele><time>2026-05-02T06:41:54.403Z</time></trkpt><trkpt lat="51.4688367" lon="-0.0649817"><ele>12.8</ele><time>2026-05-02T06:41:55.402Z</time></trkpt><trkpt lat="51.4689533" lon="-0.0650067"><ele>12.600000000000001</ele><time>2026-05-02T06:41:56.403Z</time></trkpt><trkpt lat="51.4690617" lon="-0.06503"><ele>12.399999999999999</ele><time>2026-05-02T06:41:57.403Z</time></trkpt><trkpt lat="51.4691533" lon="-0.0650483"><ele>12.2</ele><time>2026-05-02T06:41:58.404Z</time></trkpt><trkpt lat="51.46923" lon="-0.0650717"><ele>12.0</ele><time>2026-05-02T06:41:59.404Z</time></trkpt><trkpt lat="51.4692967" lon="-0.0650933"><ele>12.0</ele><time>2026-05-02T06:42:00.407Z</time></trkpt><trkpt lat="51.46936" lon="-0.0651133"><ele>12.0</ele><time>2026-05-02T06:42:01.402Z</time></trkpt><trkpt lat="51.469485" lon="-0.0651433"><ele>12.0</ele><time>2026-05-02T06:42:03.404Z</time></trkpt><trkpt lat="51.4696" lon="-0.0651533"><ele>12.0</ele><time>2026-05-02T06:42:05.403Z</time></trkpt><trkpt lat="51.4697067" lon="-0.0651233"><ele>12.0</ele><time>2026-05-02T06:42:07.404Z</time></trkpt><trkpt lat="51.469795" lon="-0.0650667"><ele>12.0</ele><time>2026-05-02T06:42:09.408Z</time></trkpt><trkpt lat="51.469865" lon="-0.064995"><ele>12.0</ele><time>2026-05-02T06:42:11.403Z</time></trkpt><trkpt lat="51.4699367" lon="-0.0648783"><ele>12.0</ele><time>2026-05-02T06:42:13.402Z</time></trkpt><trkpt lat="51.469995" lon="-0.064725"><ele>12.0</ele><time>2026-05-02T06:42:15.403Z</time></trkpt><trkpt lat="51.4700067" lon="-0.064625"><ele>12.0</ele><time>2026-05-02T06:42:16.403Z</time></trkpt><trkpt lat="51.470025" lon="-0.064435"><ele>12.0</ele><time>2026-05-02T06:42:18.404Z</time></trkpt><trkpt lat="51.47004" lon="-0.0642533"><ele>12.0</ele><time>2026-05-02T06:42:20.403Z</time></trkpt><trkpt lat="51.470055" lon="-0.0641117"><ele>12.0</ele><time>2026-05-02T06:42:22.403Z</time></trkpt><trkpt lat="51.4700633" lon="-0.0639933"><ele>12.0</ele><time>2026-05-02T06:42:24.403Z</time></trkpt><trkpt lat="51.47007" lon="-0.06389"><ele>12.0</ele><time>2026-05-02T06:42:26.406Z</time></trkpt><trkpt lat="51.4701117" lon="-0.0638"><ele>12.0</ele><time>2026-05-02T06:42:28.404Z</time></trkpt><trkpt lat="51.4701733" lon="-0.0637517"><ele>12.0</ele><time>2026-05-02T06:42:30.404Z</time></trkpt><trkpt lat="51.4702633" lon="-0.063755"><ele>12.0</ele><time>2026-05-02T06:42:32.403Z</time></trkpt><trkpt lat="51.4703917" lon="-0.0638017"><ele>12.0</ele><time>2026-05-02T06:42:34.405Z</time></trkpt><trkpt lat="51.4704783" lon="-0.0638467"><ele>12.0</ele><time>2026-05-02T06:42:35.404Z</time></trkpt><trkpt lat="51.4705733" lon="-0.0638983"><ele>12.0</ele><time>2026-05-02T06:42:36.406Z</time></trkpt><trkpt lat="51.4706517" lon="-0.06396"><ele>11.833333333333334</ele><time>2026-05-02T06:42:37.404Z</time></trkpt><trkpt lat="51.47074" lon="-0.0640167"><ele>11.666666666666666</ele><time>2026-05-02T06:42:38.406Z</time></trkpt><trkpt lat="51.470815" lon="-0.0640533"><ele>11.5</ele><time>2026-05-02T06:42:39.402Z</time></trkpt><trkpt lat="51.470885" lon="-0.0640917"><ele>11.333333333333332</ele><time>2026-05-02T06:42:40.406Z</time></trkpt><trkpt lat="51.4709517" lon="-0.0641383"><ele>11.166666666666666</ele><time>2026-05-02T06:42:41.404Z</time></trkpt><trkpt lat="51.4710117" lon="-0.0641767"><ele>11.0</ele><time>2026-05-02T06:42:42.403Z</time></trkpt><trkpt lat="51.4711133" lon="-0.064245"><ele>10.600000000000001</ele><time>2026-05-02T06:42:44.403Z</time></trkpt><trkpt lat="51.4712183" lon="-0.0642867"><ele>10.200000000000001</ele><time>2026-05-02T06:42:46.406Z</time></trkpt><trkpt lat="51.471285" lon="-0.0642917"><ele>9.8</ele><time>2026-05-02T06:42:47.402Z</time></trkpt><trkpt lat="51.4713567" lon="-0.0642967"><ele>9.4</ele><time>2026-05-02T06:42:48.404Z</time></trkpt><trkpt lat="51.471455" lon="-0.06429"><ele>9.0</ele><time>2026-05-02T06:42:49.403Z</time></trkpt><trkpt lat="51.4715667" lon="-0.0642783"><ele>8.333333333333334</ele><time>2026-05-02T06:42:50.404Z</time></trkpt><trkpt lat="51.47171" lon="-0.0642467"><ele>7.666666666666667</ele><time>2026-05-02T06:42:51.405Z</time></trkpt><trkpt lat="51.4718733" lon="-0.0641867"><ele>7.0</ele><time>2026-05-02T06:42:52.403Z</time></trkpt><trkpt lat="51.4720383" lon="-0.0641117"><ele>7.333333333333334</ele><time>2026-05-02T06:42:53.403Z</time></trkpt><trkpt lat="51.47221" lon="-0.0640333"><ele>7.666666666666666</ele><time>2026-05-02T06:42:54.403Z</time></trkpt><trkpt lat="51.4723833" lon="-0.0639767"><ele>8.0</ele><time>2026-05-02T06:42:55.403Z</time></trkpt><trkpt lat="51.472565" lon="-0.0639467"><ele>8.0</ele><time>2026-05-02T06:42:56.404Z</time></trkpt><trkpt lat="51.4727433" lon="-0.063935"><ele>8.0</ele><time>2026-05-02T06:42:57.404Z</time></trkpt><trkpt lat="51.4728933" lon="-0.063925"><ele>8.0</ele><time>2026-05-02T06:42:58.403Z</time></trkpt><trkpt lat="51.4730117" lon="-0.06391"><ele>8.0</ele><time>2026-05-02T06:42:59.404Z</time></trkpt><trkpt lat="51.4731217" lon="-0.0638917"><ele>8.200000000000001</ele><time>2026-05-02T06:43:00.404Z</time></trkpt><trkpt lat="51.4732333" lon="-0.0638767"><ele>8.4</ele><time>2026-05-02T06:43:01.403Z</time></trkpt><trkpt lat="51.47335" lon="-0.0638633"><ele>8.600000000000001</ele><time>2026-05-02T06:43:02.403Z</time></trkpt><trkpt lat="51.4734567" lon="-0.0638483"><ele>8.8</ele><time>2026-05-02T06:43:03.404Z</time></trkpt><trkpt lat="51.473545" lon="-0.0638333"><ele>9.0</ele><time>2026-05-02T06:43:04.403Z</time></trkpt><trkpt lat="51.4736183" lon="-0.0638333"><ele>9.0</ele><time>2026-05-02T06:43:05.406Z</time></trkpt><trkpt lat="51.4736967" lon="-0.0638333"><ele>9.0</ele><time>2026-05-02T06:43:06.405Z</time></trkpt><trkpt lat="51.47377" lon="-0.0638317"><ele>9.0</ele><time>2026-05-02T06:43:07.402Z</time></trkpt><trkpt lat="51.473835" lon="-0.063825"><ele>9.0</ele><time>2026-05-02T06:43:08.403Z</time></trkpt><trkpt lat="51.4739183" lon="-0.06381"><ele>9.0</ele><time>2026-05-02T06:43:10.406Z</time></trkpt><trkpt lat="51.47396" lon="-0.0639267"><ele>9.0</ele><time>2026-05-02T06:43:27.404Z</time></trkpt><trkpt lat="51.47398" lon="-0.0640283"><ele>9.333333333333334</ele><time>2026-05-02T06:43:28.404Z</time></trkpt><trkpt lat="51.4739933" lon="-0.0641583"><ele>9.666666666666666</ele><time>2026-05-02T06:43:29.411Z</time></trkpt><trkpt lat="51.473995" lon="-0.0642933"><ele>10.0</ele><time>2026-05-02T06:43:30.404Z</time></trkpt><trkpt lat="51.4739983" lon="-0.0644083"><ele>10.333333333333332</ele><time>2026-05-02T06:43:31.404Z</time></trkpt><trkpt lat="51.474035" lon="-0.0645433"><ele>10.666666666666666</ele><time>2026-05-02T06:43:33.404Z</time></trkpt><trkpt lat="51.4741483" lon="-0.06456"><ele>11.0</ele><time>2026-05-02T06:43:35.408Z</time></trkpt><trkpt lat="51.4742217" lon="-0.0645317"><ele>11.0</ele><time>2026-05-02T06:43:36.405Z</time></trkpt><trkpt lat="51.474315" lon="-0.0644483"><ele>11.0</ele><time>2026-05-02T06:43:37.402Z</time></trkpt><trkpt lat="51.4744267" lon="-0.06431"><ele>11.0</ele><time>2026-05-02T06:43:38.404Z</time></trkpt><trkpt lat="51.47458" lon="-0.06416"><ele>11.0</ele><time>2026-05-02T06:43:39.403Z</time></trkpt><trkpt lat="51.47472" lon="-0.06405"><ele>10.0</ele><time>2026-05-02T06:43:40.402Z</time></trkpt><trkpt lat="51.4748417" lon="-0.06394"><ele>9.0</ele><time>2026-05-02T06:43:41.405Z</time></trkpt><trkpt lat="51.47495" lon="-0.063855"><ele>8.0</ele><time>2026-05-02T06:43:42.404Z</time></trkpt><trkpt lat="51.4750517" lon="-0.063785"><ele>7.0</ele><time>2026-05-02T06:43:43.403Z</time></trkpt><trkpt lat="51.475155" lon="-0.0637333"><ele>7.0</ele><time>2026-05-02T06:43:44.409Z</time></trkpt><trkpt lat="51.4752583" lon="-0.0636883"><ele>6.999999999999999</ele><time>2026-05-02T06:43:45.405Z</time></trkpt><trkpt lat="51.475355" lon="-0.0636567"><ele>6.999999999999999</ele><time>2026-05-02T06:43:46.403Z</time></trkpt><trkpt lat="51.4754467" lon="-0.0636267"><ele>7.0</ele><time>2026-05-02T06:43:47.403Z</time></trkpt><trkpt lat="51.4755367" lon="-0.0635967"><ele>7.0</ele><time>2026-05-02T06:43:48.404Z</time></trkpt><trkpt lat="51.475625" lon="-0.06357"><ele>6.833333333333334</ele><time>2026-05-02T06:43:49.404Z</time></trkpt><trkpt lat="51.47571" lon="-0.063545"><ele>6.666666666666667</ele><time>2026-05-02T06:43:50.405Z</time></trkpt><trkpt lat="51.4757917" lon="-0.06352"><ele>6.5</ele><time>2026-05-02T06:43:51.405Z</time></trkpt><trkpt lat="51.4758683" lon="-0.063495"><ele>6.333333333333334</ele><time>2026-05-02T06:43:52.403Z</time></trkpt><trkpt lat="51.47594" lon="-0.063465"><ele>6.166666666666667</ele><time>2026-05-02T06:43:53.404Z</time></trkpt><trkpt lat="51.476005" lon="-0.06342"><ele>6.0</ele><time>2026-05-02T06:43:54.403Z</time></trkpt><trkpt lat="51.47606" lon="-0.0633617"><ele>6.0</ele><time>2026-05-02T06:43:55.403Z</time></trkpt><trkpt lat="51.4761067" lon="-0.0632933"><ele>6.0</ele><time>2026-05-02T06:43:56.403Z</time></trkpt><trkpt lat="51.4761933" lon="-0.06314"><ele>6.0</ele><time>2026-05-02T06:43:58.407Z</time></trkpt><trkpt lat="51.4762433" lon="-0.0630283"><ele>6.0</ele><time>2026-05-02T06:43:59.406Z</time></trkpt><trkpt lat="51.4762917" lon="-0.0629017"><ele>6.0</ele><time>2026-05-02T06:44:00.404Z</time></trkpt><trkpt lat="51.476335" lon="-0.06277"><ele>5.833333333333333</ele><time>2026-05-02T06:44:01.403Z</time></trkpt><trkpt lat="51.4763717" lon="-0.0626467"><ele>5.666666666666667</ele><time>2026-05-02T06:44:02.403Z</time></trkpt><trkpt lat="51.4764033" lon="-0.0625433"><ele>5.5</ele><time>2026-05-02T06:44:03.404Z</time></trkpt><trkpt lat="51.47643" lon="-0.0624467"><ele>5.333333333333334</ele><time>2026-05-02T06:44:04.404Z</time></trkpt><trkpt lat="51.4764533" lon="-0.06233"><ele>5.166666666666667</ele><time>2026-05-02T06:44:05.403Z</time></trkpt><trkpt lat="51.4764833" lon="-0.0621833"><ele>5.0</ele><time>2026-05-02T06:44:06.403Z</time></trkpt><trkpt lat="51.47652" lon="-0.0620033"><ele>5.0</ele><time>2026-05-02T06:44:07.404Z</time></trkpt><trkpt lat="51.4765483" lon="-0.0618033"><ele>5.0</ele><time>2026-05-02T06:44:08.406Z</time></trkpt><trkpt lat="51.4765667" lon="-0.0616017"><ele>5.0</ele><time>2026-05-02T06:44:09.404Z</time></trkpt><trkpt lat="51.47658" lon="-0.061415"><ele>5.0</ele><time>2026-05-02T06:44:10.404Z</time></trkpt><trkpt lat="51.4766" lon="-0.0612433"><ele>5.0</ele><time>2026-05-02T06:44:11.405Z</time></trkpt><trkpt lat="51.476625" lon="-0.0611033"><ele>5.0</ele><time>2026-05-02T06:44:12.405Z</time></trkpt><trkpt lat="51.47666" lon="-0.06098"><ele>5.0</ele><time>2026-05-02T06:44:13.406Z</time></trkpt><trkpt lat="51.4767033" lon="-0.06084"><ele>5.0</ele><time>2026-05-02T06:44:14.403Z</time></trkpt><trkpt lat="51.4767517" lon="-0.060675"><ele>5.0</ele><time>2026-05-02T06:44:15.402Z</time></trkpt><trkpt lat="51.4768083" lon="-0.0605"><ele>5.25</ele><time>2026-05-02T06:44:16.403Z</time></trkpt><trkpt lat="51.476925" lon="-0.0601733"><ele>5.5</ele><time>2026-05-02T06:44:18.402Z</time></trkpt><trkpt lat="51.4769733" lon="-0.0600367"><ele>5.75</ele><time>2026-05-02T06:44:19.402Z</time></trkpt><trkpt lat="51.4770133" lon="-0.0598967"><ele>6.0</ele><time>2026-05-02T06:44:20.402Z</time></trkpt><trkpt lat="51.4770433" lon="-0.0597617"><ele>6.166666666666667</ele><time>2026-05-02T06:44:21.402Z</time></trkpt><trkpt lat="51.477075" lon="-0.0596417"><ele>6.333333333333334</ele><time>2026-05-02T06:44:22.404Z</time></trkpt><trkpt lat="51.47711" lon="-0.0595267"><ele>6.5</ele><time>2026-05-02T06:44:23.403Z</time></trkpt><trkpt lat="51.47714" lon="-0.059415"><ele>6.666666666666667</ele><time>2026-05-02T06:44:24.402Z</time></trkpt><trkpt lat="51.47717" lon="-0.0593067"><ele>6.833333333333334</ele><time>2026-05-02T06:44:25.403Z</time></trkpt><trkpt lat="51.4772033" lon="-0.059195"><ele>7.0</ele><time>2026-05-02T06:44:26.406Z</time></trkpt><trkpt lat="51.4772333" lon="-0.0590817"><ele>6.6</ele><time>2026-05-02T06:44:27.402Z</time></trkpt><trkpt lat="51.4772633" lon="-0.0589833"><ele>6.199999999999999</ele><time>2026-05-02T06:44:28.403Z</time></trkpt><trkpt lat="51.4773083" lon="-0.05884"><ele>5.8</ele><time>2026-05-02T06:44:30.402Z</time></trkpt><trkpt lat="51.4773817" lon="-0.05873"><ele>5.4</ele><time>2026-05-02T06:44:32.404Z</time></trkpt><trkpt lat="51.4775" lon="-0.0586767"><ele>5.0</ele><time>2026-05-02T06:44:34.401Z</time></trkpt><trkpt lat="51.4775733" lon="-0.0586917"><ele>5.0</ele><time>2026-05-02T06:44:35.402Z</time></trkpt><trkpt lat="51.4776433" lon="-0.0587217"><ele>5.0</ele><time>2026-05-02T06:44:36.402Z</time></trkpt><trkpt lat="51.4777083" lon="-0.058755"><ele>5.0</ele><time>2026-05-02T06:44:37.403Z</time></trkpt><trkpt lat="51.4777717" lon="-0.0587833"><ele>5.0</ele><time>2026-05-02T06:44:38.405Z</time></trkpt><trkpt lat="51.4778417" lon="-0.058825"><ele>5.0</ele><time>2026-05-02T06:44:39.403Z</time></trkpt><trkpt lat="51.477915" lon="-0.0588733"><ele>5.0</ele><time>2026-05-02T06:44:40.402Z</time></trkpt><trkpt lat="51.4779967" lon="-0.058915"><ele>5.0</ele><time>2026-05-02T06:44:41.403Z</time></trkpt><trkpt lat="51.478075" lon="-0.0589533"><ele>5.0</ele><time>2026-05-02T06:44:42.404Z</time></trkpt><trkpt lat="51.4781417" lon="-0.0589883"><ele>5.0</ele><time>2026-05-02T06:44:43.404Z</time></trkpt><trkpt lat="51.4782217" lon="-0.059015"><ele>5.0</ele><time>2026-05-02T06:44:44.404Z</time></trkpt><trkpt lat="51.478305" lon="-0.05906"><ele>5.0</ele><time>2026-05-02T06:44:45.406Z</time></trkpt><trkpt lat="51.47841" lon="-0.0591333"><ele>5.0</ele><time>2026-05-02T06:44:46.406Z</time></trkpt><trkpt lat="51.4785333" lon="-0.059225"><ele>5.0</ele><time>2026-05-02T06:44:47.405Z</time></trkpt><trkpt lat="51.4786517" lon="-0.0593167"><ele>5.0</ele><time>2026-05-02T06:44:48.405Z</time></trkpt><trkpt lat="51.4787567" lon="-0.0593833"><ele>5.0</ele><time>2026-05-02T06:44:49.402Z</time></trkpt><trkpt lat="51.47885" lon="-0.0594317"><ele>5.0</ele><time>2026-05-02T06:44:50.409Z</time></trkpt><trkpt lat="51.4789533" lon="-0.0594683"><ele>5.0</ele><time>2026-05-02T06:44:51.403Z</time></trkpt><trkpt lat="51.4790667" lon="-0.0595233"><ele>5.25</ele><time>2026-05-02T06:44:52.403Z</time></trkpt><trkpt lat="51.4792" lon="-0.0595917"><ele>5.5</ele><time>2026-05-02T06:44:53.405Z</time></trkpt><trkpt lat="51.4793467" lon="-0.05967"><ele>5.75</ele><time>2026-05-02T06:44:54.404Z</time></trkpt><trkpt lat="51.47949" lon="-0.0597417"><ele>6.0</ele><time>2026-05-02T06:44:55.403Z</time></trkpt><trkpt lat="51.479625" lon="-0.05981"><ele>6.0</ele><time>2026-05-02T06:44:56.404Z</time></trkpt><trkpt lat="51.4797417" lon="-0.0598617"><ele>6.0</ele><time>2026-05-02T06:44:57.408Z</time></trkpt><trkpt lat="51.4798383" lon="-0.059905"><ele>6.0</ele><time>2026-05-02T06:44:58.404Z</time></trkpt><trkpt lat="51.4799117" lon="-0.0599467"><ele>6.0</ele><time>2026-05-02T06:44:59.405Z</time></trkpt><trkpt lat="51.4799883" lon="-0.0599883"><ele>6.0</ele><time>2026-05-02T06:45:00.403Z</time></trkpt><trkpt lat="51.48008" lon="-0.0600367"><ele>6.0</ele><time>2026-05-02T06:45:01.405Z</time></trkpt><trkpt lat="51.48018" lon="-0.060075"><ele>6.0</ele><time>2026-05-02T06:45:02.406Z</time></trkpt><trkpt lat="51.4802767" lon="-0.060105"><ele>6.0</ele><time>2026-05-02T06:45:03.407Z</time></trkpt><trkpt lat="51.4803667" lon="-0.0601233"><ele>6.0</ele><time>2026-05-02T06:45:04.404Z</time></trkpt><trkpt lat="51.48045" lon="-0.060135"><ele>6.0</ele><time>2026-05-02T06:45:05.403Z</time></trkpt><trkpt lat="51.480525" lon="-0.0601467"><ele>5.6</ele><time>2026-05-02T06:45:06.403Z</time></trkpt><trkpt lat="51.4805917" lon="-0.060155"><ele>5.199999999999999</ele><time>2026-05-02T06:45:07.403Z</time></trkpt><trkpt lat="51.480675" lon="-0.0601633"><ele>4.800000000000001</ele><time>2026-05-02T06:45:09.404Z</time></trkpt><trkpt lat="51.480785" lon="-0.0601967"><ele>4.4</ele><time>2026-05-02T06:45:35.405Z</time></trkpt><trkpt lat="51.4808917" lon="-0.0603033"><ele>4.0</ele><time>2026-05-02T06:45:37.408Z</time></trkpt><trkpt lat="51.48094" lon="-0.0604083"><ele>3.9999999999999996</ele><time>2026-05-02T06:45:38.405Z</time></trkpt><trkpt lat="51.4809917" lon="-0.0605217"><ele>4.0</ele><time>2026-05-02T06:45:39.402Z</time></trkpt><trkpt lat="51.48104" lon="-0.0606417"><ele>4.0</ele><time>2026-05-02T06:45:40.402Z</time></trkpt><trkpt lat="51.4810917" lon="-0.060755"><ele>4.0</ele><time>2026-05-02T06:45:41.402Z</time></trkpt><trkpt lat="51.4811467" lon="-0.0608583"><ele>3.9999999999999996</ele><time>2026-05-02T06:45:42.408Z</time></trkpt><trkpt lat="51.481205" lon="-0.0609517"><ele>4.0</ele><time>2026-05-02T06:45:43.402Z</time></trkpt><trkpt lat="51.4812667" lon="-0.061035"><ele>3.9999999999999996</ele><time>2026-05-02T06:45:44.408Z</time></trkpt><trkpt lat="51.4813283" lon="-0.0611133"><ele>4.0</ele><time>2026-05-02T06:45:45.406Z</time></trkpt><trkpt lat="51.4813867" lon="-0.0611833"><ele>4.0</ele><time>2026-05-02T06:45:46.405Z</time></trkpt><trkpt lat="51.481445" lon="-0.0612533"><ele>4.0</ele><time>2026-05-02T06:45:47.407Z</time></trkpt><trkpt lat="51.4815033" lon="-0.061325"><ele>3.9999999999999996</ele><time>2026-05-02T06:45:48.404Z</time></trkpt><trkpt lat="51.481565" lon="-0.0613983"><ele>4.0</ele><time>2026-05-02T06:45:49.404Z</time></trkpt><trkpt lat="51.481625" lon="-0.0614733"><ele>3.9999999999999996</ele><time>2026-05-02T06:45:50.403Z</time></trkpt><trkpt lat="51.4816867" lon="-0.06155"><ele>4.0</ele><time>2026-05-02T06:45:51.402Z</time></trkpt><trkpt lat="51.4817467" lon="-0.0616317"><ele>4.0</ele><time>2026-05-02T06:45:52.405Z</time></trkpt><trkpt lat="51.4818083" lon="-0.0617167"><ele>4.0</ele><time>2026-05-02T06:45:53.403Z</time></trkpt><trkpt lat="51.4818683" lon="-0.0618017"><ele>3.9999999999999996</ele><time>2026-05-02T06:45:54.407Z</time></trkpt><trkpt lat="51.4819283" lon="-0.0618933"><ele>4.0</ele><time>2026-05-02T06:45:55.405Z</time></trkpt><trkpt lat="51.4819867" lon="-0.061985"><ele>4.0</ele><time>2026-05-02T06:45:56.404Z</time></trkpt><trkpt lat="51.482045" lon="-0.062085"><ele>4.0</ele><time>2026-05-02T06:45:57.405Z</time></trkpt><trkpt lat="51.4821133" lon="-0.06218"><ele>4.0</ele><time>2026-05-02T06:45:58.404Z</time></trkpt><trkpt lat="51.482175" lon="-0.0622867"><ele>4.0</ele><time>2026-05-02T06:45:59.405Z</time></trkpt><trkpt lat="51.4822467" lon="-0.0624033"><ele>4.0</ele><time>2026-05-02T06:46:00.405Z</time></trkpt><trkpt lat="51.482315" lon="-0.0625233"><ele>4.2</ele><time>2026-05-02T06:46:01.403Z</time></trkpt><trkpt lat="51.4823883" lon="-0.0626433"><ele>4.4</ele><time>2026-05-02T06:46:02.403Z</time></trkpt><trkpt lat="51.4824533" lon="-0.062765"><ele>4.6</ele><time>2026-05-02T06:46:03.404Z</time></trkpt><trkpt lat="51.4825183" lon="-0.0628833"><ele>4.8</ele><time>2026-05-02T06:46:04.402Z</time></trkpt><trkpt lat="51.4825867" lon="-0.0630083"><ele>5.0</ele><time>2026-05-02T06:46:05.403Z</time></trkpt><trkpt lat="51.4826483" lon="-0.063135"><ele>5.0</ele><time>2026-05-02T06:46:06.402Z</time></trkpt><trkpt lat="51.4827133" lon="-0.0632567"><ele>5.0</ele><time>2026-05-02T06:46:07.403Z</time></trkpt><trkpt lat="51.482775" lon="-0.0633833"><ele>5.0</ele><time>2026-05-02T06:46:08.403Z</time></trkpt><trkpt lat="51.48283" lon="-0.0635133"><ele>5.0</ele><time>2026-05-02T06:46:09.405Z</time></trkpt><trkpt lat="51.4828867" lon="-0.06364"><ele>5.0</ele><time>2026-05-02T06:46:10.403Z</time></trkpt><trkpt lat="51.482945" lon="-0.0637717"><ele>5.0</ele><time>2026-05-02T06:46:11.403Z</time></trkpt><trkpt lat="51.4829983" lon="-0.0639033"><ele>5.0</ele><time>2026-05-02T06:46:12.402Z</time></trkpt><trkpt lat="51.483055" lon="-0.064035"><ele>5.0</ele><time>2026-05-02T06:46:13.406Z</time></trkpt><trkpt lat="51.4831117" lon="-0.0641617"><ele>5.0</ele><time>2026-05-02T06:46:14.404Z</time></trkpt><trkpt lat="51.483165" lon="-0.064285"><ele>5.0</ele><time>2026-05-02T06:46:15.405Z</time></trkpt><trkpt lat="51.4832133" lon="-0.0644117"><ele>5.0</ele><time>2026-05-02T06:46:16.403Z</time></trkpt><trkpt lat="51.4832567" lon="-0.064525"><ele>5.0</ele><time>2026-05-02T06:46:17.403Z</time></trkpt><trkpt lat="51.4832933" lon="-0.0646183"><ele>5.0</ele><time>2026-05-02T06:46:18.403Z</time></trkpt><trkpt lat="51.48333" lon="-0.064715"><ele>5.0</ele><time>2026-05-02T06:46:20.402Z</time></trkpt><trkpt lat="51.4833983" lon="-0.0648867"><ele>5.0</ele><time>2026-05-02T06:46:46.403Z</time></trkpt><trkpt lat="51.4834533" lon="-0.06501"><ele>5.0</ele><time>2026-05-02T06:46:47.406Z</time></trkpt><trkpt lat="51.4835233" lon="-0.0651733"><ele>5.0</ele><time>2026-05-02T06:46:48.405Z</time></trkpt><trkpt lat="51.4835983" lon="-0.06535"><ele>5.0</ele><time>2026-05-02T06:46:49.403Z</time></trkpt><trkpt lat="51.483675" lon="-0.0655183"><ele>5.0</ele><time>2026-05-02T06:46:50.403Z</time></trkpt><trkpt lat="51.483735" lon="-0.06566"><ele>5.0</ele><time>2026-05-02T06:46:51.404Z</time></trkpt><trkpt lat="51.4837867" lon="-0.065775"><ele>5.0</ele><time>2026-05-02T06:46:52.405Z</time></trkpt><trkpt lat="51.4838317" lon="-0.0658667"><ele>5.0</ele><time>2026-05-02T06:46:53.404Z</time></trkpt><trkpt lat="51.4838883" lon="-0.0659933"><ele>5.0</ele><time>2026-05-02T06:46:55.405Z</time></trkpt><trkpt lat="51.4839267" lon="-0.06608"><ele>5.0</ele><time>2026-05-02T06:47:19.405Z</time></trkpt><trkpt lat="51.4839733" lon="-0.0661833"><ele>5.0</ele><time>2026-05-02T06:47:22.404Z</time></trkpt><trkpt lat="51.48403" lon="-0.066285"><ele>5.0</ele><time>2026-05-02T06:47:40.404Z</time></trkpt><trkpt lat="51.4841233" lon="-0.066265"><ele>5.0</ele><time>2026-05-02T06:47:42.402Z</time></trkpt><trkpt lat="51.4842033" lon="-0.066225"><ele>5.0</ele><time>2026-05-02T06:47:43.402Z</time></trkpt><trkpt lat="51.48432" lon="-0.066165"><ele>5.0</ele><time>2026-05-02T06:47:44.403Z</time></trkpt><trkpt lat="51.4844617" lon="-0.0661017"><ele>5.0</ele><time>2026-05-02T06:47:45.403Z</time></trkpt><trkpt lat="51.4845783" lon="-0.066035"><ele>4.8</ele><time>2026-05-02T06:47:46.403Z</time></trkpt><trkpt lat="51.4846883" lon="-0.0659717"><ele>4.6</ele><time>2026-05-02T06:47:47.402Z</time></trkpt><trkpt lat="51.48479" lon="-0.06591"><ele>4.4</ele><time>2026-05-02T06:47:48.403Z</time></trkpt><trkpt lat="51.4848783" lon="-0.0658467"><ele>4.2</ele><time>2026-05-02T06:47:49.404Z</time></trkpt><trkpt lat="51.4849567" lon="-0.0657717"><ele>4.0</ele><time>2026-05-02T06:47:50.402Z</time></trkpt><trkpt lat="51.4850233" lon="-0.0656867"><ele>3.9999999999999996</ele><time>2026-05-02T06:47:51.402Z</time></trkpt><trkpt lat="51.4850767" lon="-0.0655767"><ele>4.0</ele><time>2026-05-02T06:47:52.404Z</time></trkpt><trkpt lat="51.4851333" lon="-0.0654633"><ele>4.0</ele><time>2026-05-02T06:47:53.403Z</time></trkpt><trkpt lat="51.4851833" lon="-0.0653367"><ele>4.0</ele><time>2026-05-02T06:47:54.404Z</time></trkpt><trkpt lat="51.48523" lon="-0.06521"><ele>3.9999999999999996</ele><time>2026-05-02T06:47:55.403Z</time></trkpt><trkpt lat="51.48527" lon="-0.0650967"><ele>4.0</ele><time>2026-05-02T06:47:56.404Z</time></trkpt><trkpt lat="51.485305" lon="-0.0650067"><ele>4.166666666666666</ele><time>2026-05-02T06:47:57.403Z</time></trkpt><trkpt lat="51.485375" lon="-0.0648517"><ele>4.333333333333333</ele><time>2026-05-02T06:47:59.402Z</time></trkpt><trkpt lat="51.4854167" lon="-0.0647683"><ele>4.5</ele><time>2026-05-02T06:48:00.404Z</time></trkpt><trkpt lat="51.4854617" lon="-0.064675"><ele>4.666666666666667</ele><time>2026-05-02T06:48:01.402Z</time></trkpt><trkpt lat="51.4855083" lon="-0.0645767"><ele>4.833333333333334</ele><time>2026-05-02T06:48:02.402Z</time></trkpt><trkpt lat="51.485555" lon="-0.06446"><ele>5.0</ele><time>2026-05-02T06:48:03.403Z</time></trkpt><trkpt lat="51.4856083" lon="-0.064345"><ele>4.833333333333334</ele><time>2026-05-02T06:48:04.402Z</time></trkpt><trkpt lat="51.48567" lon="-0.0642283"><ele>4.666666666666667</ele><time>2026-05-02T06:48:05.402Z</time></trkpt><trkpt lat="51.48573" lon="-0.0641183"><ele>4.5</ele><time>2026-05-02T06:48:06.402Z</time></trkpt><trkpt lat="51.4857833" lon="-0.0640133"><ele>4.333333333333333</ele><time>2026-05-02T06:48:07.402Z</time></trkpt><trkpt lat="51.4858367" lon="-0.063925"><ele>4.166666666666666</ele><time>2026-05-02T06:48:08.41Z</time></trkpt><trkpt lat="51.48589" lon="-0.06384"><ele>4.0</ele><time>2026-05-02T06:48:09.402Z</time></trkpt><trkpt lat="51.485945" lon="-0.0637517"><ele>4.0</ele><time>2026-05-02T06:48:10.402Z</time></trkpt><trkpt lat="51.4859983" lon="-0.0636733"><ele>4.0</ele><time>2026-05-02T06:48:11.402Z</time></trkpt><trkpt lat="51.4860433" lon="-0.0635933"><ele>4.0</ele><time>2026-05-02T06:48:12.403Z</time></trkpt><trkpt lat="51.4861267" lon="-0.0634583"><ele>4.0</ele><time>2026-05-02T06:48:14.404Z</time></trkpt><trkpt lat="51.486205" lon="-0.063305"><ele>4.0</ele><time>2026-05-02T06:48:16.402Z</time></trkpt><trkpt lat="51.486255" lon="-0.0632233"><ele>3.833333333333333</ele><time>2026-05-02T06:48:17.402Z</time></trkpt><trkpt lat="51.486315" lon="-0.0631283"><ele>3.6666666666666665</ele><time>2026-05-02T06:48:18.405Z</time></trkpt><trkpt lat="51.48637" lon="-0.0630467"><ele>3.5</ele><time>2026-05-02T06:48:19.403Z</time></trkpt><trkpt lat="51.4864217" lon="-0.0629817"><ele>3.333333333333333</ele><time>2026-05-02T06:48:20.402Z</time></trkpt><trkpt lat="51.4864667" lon="-0.062905"><ele>3.1666666666666665</ele><time>2026-05-02T06:48:21.402Z</time></trkpt><trkpt lat="51.4865217" lon="-0.062825"><ele>3.0</ele><time>2026-05-02T06:48:22.403Z</time></trkpt><trkpt lat="51.4865833" lon="-0.062725"><ele>3.0</ele><time>2026-05-02T06:48:23.403Z</time></trkpt><trkpt lat="51.486655" lon="-0.0626133"><ele>3.0</ele><time>2026-05-02T06:48:24.402Z</time></trkpt><trkpt lat="51.48674" lon="-0.0624917"><ele>3.0</ele><time>2026-05-02T06:48:25.402Z</time></trkpt><trkpt lat="51.486815" lon="-0.0623667"><ele>3.0</ele><time>2026-05-02T06:48:26.403Z</time></trkpt><trkpt lat="51.486885" lon="-0.0622533"><ele>3.0</ele><time>2026-05-02T06:48:27.402Z</time></trkpt><trkpt lat="51.4869567" lon="-0.0621367"><ele>3.0</ele><time>2026-05-02T06:48:28.405Z</time></trkpt><trkpt lat="51.4870333" lon="-0.0620017"><ele>3.0</ele><time>2026-05-02T06:48:29.402Z</time></trkpt><trkpt lat="51.487115" lon="-0.0618567"><ele>3.0</ele><time>2026-05-02T06:48:30.404Z</time></trkpt><trkpt lat="51.487195" lon="-0.0617067"><ele>3.0</ele><time>2026-05-02T06:48:31.403Z</time></trkpt><trkpt lat="51.4872717" lon="-0.0615533"><ele>3.0</ele><time>2026-05-02T06:48:32.403Z</time></trkpt><trkpt lat="51.4873333" lon="-0.0614133"><ele>3.0</ele><time>2026-05-02T06:48:33.403Z</time></trkpt><trkpt lat="51.4873817" lon="-0.06128"><ele>3.0</ele><time>2026-05-02T06:48:34.403Z</time></trkpt><trkpt lat="51.48742" lon="-0.0611433"><ele>3.0</ele><time>2026-05-02T06:48:35.402Z</time></trkpt><trkpt lat="51.487455" lon="-0.060995"><ele>3.0</ele><time>2026-05-02T06:48:36.402Z</time></trkpt><trkpt lat="51.48749" lon="-0.0608417"><ele>3.0</ele><time>2026-05-02T06:48:37.402Z</time></trkpt><trkpt lat="51.4875283" lon="-0.0606833"><ele>3.0</ele><time>2026-05-02T06:48:38.403Z</time></trkpt><trkpt lat="51.4875683" lon="-0.0605167"><ele>3.0</ele><time>2026-05-02T06:48:39.402Z</time></trkpt><trkpt lat="51.4876067" lon="-0.06036"><ele>3.0</ele><time>2026-05-02T06:48:40.402Z</time></trkpt><trkpt lat="51.4876467" lon="-0.0602083"><ele>3.0</ele><time>2026-05-02T06:48:41.403Z</time></trkpt><trkpt lat="51.4876833" lon="-0.0600567"><ele>3.2</ele><time>2026-05-02T06:48:42.402Z</time></trkpt><trkpt lat="51.4877167" lon="-0.0598983"><ele>3.4</ele><time>2026-05-02T06:48:43.403Z</time></trkpt><trkpt lat="51.4877517" lon="-0.0597333"><ele>3.6000000000000005</ele><time>2026-05-02T06:48:44.404Z</time></trkpt><trkpt lat="51.4877883" lon="-0.0595617"><ele>3.8000000000000003</ele><time>2026-05-02T06:48:45.403Z</time></trkpt><trkpt lat="51.4878267" lon="-0.059395"><ele>4.0</ele><time>2026-05-02T06:48:46.403Z</time></trkpt><trkpt lat="51.4878667" lon="-0.059235"><ele>3.75</ele><time>2026-05-02T06:48:47.402Z</time></trkpt><trkpt lat="51.48791" lon="-0.0590683"><ele>3.5</ele><time>2026-05-02T06:48:48.403Z</time></trkpt><trkpt lat="51.4879533" lon="-0.0588983"><ele>3.25</ele><time>2026-05-02T06:48:49.403Z</time></trkpt><trkpt lat="51.488" lon="-0.0587283"><ele>3.0</ele><time>2026-05-02T06:48:50.402Z</time></trkpt><trkpt lat="51.4880467" lon="-0.0585617"><ele>3.0</ele><time>2026-05-02T06:48:51.402Z</time></trkpt><trkpt lat="51.4881033" lon="-0.0584033"><ele>3.0</ele><time>2026-05-02T06:48:52.407Z</time></trkpt><trkpt lat="51.4881667" lon="-0.05826"><ele>3.0</ele><time>2026-05-02T06:48:53.402Z</time></trkpt><trkpt lat="51.4882433" lon="-0.05814"><ele>3.0</ele><time>2026-05-02T06:48:54.402Z</time></trkpt><trkpt lat="51.4883333" lon="-0.0580283"><ele>3.0</ele><time>2026-05-02T06:48:55.403Z</time></trkpt><trkpt lat="51.48843" lon="-0.05792"><ele>2.75</ele><time>2026-05-02T06:48:56.403Z</time></trkpt><trkpt lat="51.488535" lon="-0.0578217"><ele>2.5</ele><time>2026-05-02T06:48:57.402Z</time></trkpt><trkpt lat="51.48864" lon="-0.05773"><ele>2.25</ele><time>2026-05-02T06:48:58.403Z</time></trkpt><trkpt lat="51.4887417" lon="-0.057635"><ele>2.0</ele><time>2026-05-02T06:48:59.402Z</time></trkpt><trkpt lat="51.4888417" lon="-0.0575267"><ele>2.6</ele><time>2026-05-02T06:49:00.402Z</time></trkpt><trkpt lat="51.4889333" lon="-0.0574117"><ele>3.2</ele><time>2026-05-02T06:49:01.404Z</time></trkpt><trkpt lat="51.4890133" lon="-0.0573033"><ele>3.8</ele><time>2026-05-02T06:49:02.404Z</time></trkpt><trkpt lat="51.48908" lon="-0.0572217"><ele>4.4</ele><time>2026-05-02T06:49:03.403Z</time></trkpt><trkpt lat="51.4891267" lon="-0.0571483"><ele>5.0</ele><time>2026-05-02T06:49:04.404Z</time></trkpt><trkpt lat="51.489205" lon="-0.057025"><ele>5.0</ele><time>2026-05-02T06:49:06.403Z</time></trkpt><trkpt lat="51.4892783" lon="-0.0568933"><ele>5.0</ele><time>2026-05-02T06:49:08.403Z</time></trkpt><trkpt lat="51.4893233" lon="-0.0568083"><ele>5.0</ele><time>2026-05-02T06:49:09.403Z</time></trkpt><trkpt lat="51.4893733" lon="-0.0567217"><ele>5.0</ele><time>2026-05-02T06:49:10.402Z</time></trkpt><trkpt lat="51.4894267" lon="-0.056625"><ele>5.0</ele><time>2026-05-02T06:49:11.403Z</time></trkpt><trkpt lat="51.4894833" lon="-0.0565233"><ele>5.0</ele><time>2026-05-02T06:49:12.402Z</time></trkpt><trkpt lat="51.489545" lon="-0.0564083"><ele>4.8</ele><time>2026-05-02T06:49:13.403Z</time></trkpt><trkpt lat="51.4896083" lon="-0.0562883"><ele>4.6</ele><time>2026-05-02T06:49:14.402Z</time></trkpt><trkpt lat="51.4896733" lon="-0.0561633"><ele>4.4</ele><time>2026-05-02T06:49:15.405Z</time></trkpt><trkpt lat="51.4897367" lon="-0.0560267"><ele>4.2</ele><time>2026-05-02T06:49:16.402Z</time></trkpt><trkpt lat="51.4898017" lon="-0.0558933"><ele>4.0</ele><time>2026-05-02T06:49:17.402Z</time></trkpt><trkpt lat="51.4898617" lon="-0.0557583"><ele>4.0</ele><time>2026-05-02T06:49:18.403Z</time></trkpt><trkpt lat="51.4899217" lon="-0.0556333"><ele>4.0</ele><time>2026-05-02T06:49:19.402Z</time></trkpt><trkpt lat="51.4899817" lon="-0.05552"><ele>4.0</ele><time>2026-05-02T06:49:20.402Z</time></trkpt><trkpt lat="51.4900417" lon="-0.0554183"><ele>4.0</ele><time>2026-05-02T06:49:21.402Z</time></trkpt><trkpt lat="51.4901017" lon="-0.0553117"><ele>4.0</ele><time>2026-05-02T06:49:22.403Z</time></trkpt><trkpt lat="51.49016" lon="-0.0551983"><ele>4.0</ele><time>2026-05-02T06:49:23.403Z</time></trkpt><trkpt lat="51.4902167" lon="-0.055065"><ele>4.0</ele><time>2026-05-02T06:49:24.403Z</time></trkpt><trkpt lat="51.4902533" lon="-0.0549567"><ele>4.0</ele><time>2026-05-02T06:49:25.403Z</time></trkpt><trkpt lat="51.49034" lon="-0.0548517"><ele>4.0</ele><time>2026-05-02T06:49:26.403Z</time></trkpt><trkpt lat="51.4904083" lon="-0.0547617"><ele>4.0</ele><time>2026-05-02T06:49:27.403Z</time></trkpt><trkpt lat="51.490455" lon="-0.0546433"><ele>4.0</ele><time>2026-05-02T06:49:28.414Z</time></trkpt><trkpt lat="51.4905117" lon="-0.0545217"><ele>4.0</ele><time>2026-05-02T06:49:29.412Z</time></trkpt><trkpt lat="51.4905717" lon="-0.054375"><ele>4.0</ele><time>2026-05-02T06:49:30.403Z</time></trkpt><trkpt lat="51.4906267" lon="-0.0542333"><ele>4.0</ele><time>2026-05-02T06:49:31.405Z</time></trkpt><trkpt lat="51.4906717" lon="-0.054095"><ele>4.0</ele><time>2026-05-02T06:49:32.405Z</time></trkpt><trkpt lat="51.4907117" lon="-0.0539617"><ele>3.9999999999999996</ele><time>2026-05-02T06:49:33.404Z</time></trkpt><trkpt lat="51.4907433" lon="-0.0538467"><ele>4.0</ele><time>2026-05-02T06:49:34.405Z</time></trkpt><trkpt lat="51.4907683" lon="-0.05374"><ele>4.0</ele><time>2026-05-02T06:49:35.403Z</time></trkpt><trkpt lat="51.4907883" lon="-0.0536383"><ele>4.0</ele><time>2026-05-02T06:49:36.402Z</time></trkpt><trkpt lat="51.4908333" lon="-0.053445"><ele>3.9999999999999996</ele><time>2026-05-02T06:49:38.403Z</time></trkpt><trkpt lat="51.49086" lon="-0.0533233"><ele>4.0</ele><time>2026-05-02T06:49:39.403Z</time></trkpt><trkpt lat="51.490895" lon="-0.0531933"><ele>3.4000000000000004</ele><time>2026-05-02T06:49:40.402Z</time></trkpt><trkpt lat="51.49093" lon="-0.0530483"><ele>2.8000000000000003</ele><time>2026-05-02T06:49:41.403Z</time></trkpt><trkpt lat="51.4909683" lon="-0.0529"><ele>2.2</ele><time>2026-05-02T06:49:42.406Z</time></trkpt><trkpt lat="51.4910067" lon="-0.0527517"><ele>1.6</ele><time>2026-05-02T06:49:43.402Z</time></trkpt><trkpt lat="51.4910383" lon="-0.0525983"><ele>1.0</ele><time>2026-05-02T06:49:44.403Z</time></trkpt><trkpt lat="51.491065" lon="-0.0524633"><ele>1.3333333333333333</ele><time>2026-05-02T06:49:45.402Z</time></trkpt><trkpt lat="51.4910867" lon="-0.0523467"><ele>1.6666666666666665</ele><time>2026-05-02T06:49:46.406Z</time></trkpt><trkpt lat="51.49111" lon="-0.0522033"><ele>2.0</ele><time>2026-05-02T06:49:48.403Z</time></trkpt><trkpt lat="51.4911333" lon="-0.05206"><ele>2.3333333333333335</ele><time>2026-05-02T06:49:52.402Z</time></trkpt><trkpt lat="51.4912" lon="-0.05192"><ele>2.6666666666666665</ele><time>2026-05-02T06:49:54.403Z</time></trkpt><trkpt lat="51.4912517" lon="-0.051845"><ele>3.0</ele><time>2026-05-02T06:49:55.403Z</time></trkpt><trkpt lat="51.4912983" lon="-0.0517467"><ele>3.1666666666666665</ele><time>2026-05-02T06:49:56.403Z</time></trkpt><trkpt lat="51.491325" lon="-0.05163"><ele>3.333333333333333</ele><time>2026-05-02T06:49:57.402Z</time></trkpt><trkpt lat="51.4913417" lon="-0.0514967"><ele>3.5</ele><time>2026-05-02T06:49:58.404Z</time></trkpt><trkpt lat="51.4913683" lon="-0.0513683"><ele>3.6666666666666665</ele><time>2026-05-02T06:49:59.402Z</time></trkpt><trkpt lat="51.491405" lon="-0.05123"><ele>3.833333333333333</ele><time>2026-05-02T06:50:00.405Z</time></trkpt><trkpt lat="51.4914667" lon="-0.0511"><ele>4.0</ele><time>2026-05-02T06:50:01.402Z</time></trkpt><trkpt lat="51.49154" lon="-0.0509817"><ele>4.0</ele><time>2026-05-02T06:50:02.403Z</time></trkpt><trkpt lat="51.4916183" lon="-0.05087"><ele>4.0</ele><time>2026-05-02T06:50:03.402Z</time></trkpt><trkpt lat="51.491705" lon="-0.05076"><ele>4.0</ele><time>2026-05-02T06:50:04.403Z</time></trkpt><trkpt lat="51.4917933" lon="-0.0506433"><ele>4.0</ele><time>2026-05-02T06:50:05.404Z</time></trkpt><trkpt lat="51.4918917" lon="-0.0505267"><ele>3.75</ele><time>2026-05-02T06:50:06.405Z</time></trkpt><trkpt lat="51.4919867" lon="-0.0504033"><ele>3.5</ele><time>2026-05-02T06:50:07.403Z</time></trkpt><trkpt lat="51.4920783" lon="-0.0502767"><ele>3.25</ele><time>2026-05-02T06:50:08.404Z</time></trkpt><trkpt lat="51.492165" lon="-0.0501517"><ele>3.0</ele><time>2026-05-02T06:50:09.404Z</time></trkpt><trkpt lat="51.4922433" lon="-0.0500383"><ele>3.25</ele><time>2026-05-02T06:50:10.403Z</time></trkpt><trkpt lat="51.4923133" lon="-0.0499433"><ele>3.5</ele><time>2026-05-02T06:50:11.406Z</time></trkpt><trkpt lat="51.4923867" lon="-0.0498583"><ele>3.75</ele><time>2026-05-02T06:50:12.403Z</time></trkpt><trkpt lat="51.4924533" lon="-0.0497767"><ele>4.0</ele><time>2026-05-02T06:50:13.407Z</time></trkpt><trkpt lat="51.4944317" lon="-0.049635"><ele>4.25</ele><time>2026-05-02T06:50:52.453Z</time></trkpt><trkpt lat="51.4945467" lon="-0.0498917"><ele>4.5</ele><time>2026-05-02T06:50:55.402Z</time></trkpt><trkpt lat="51.4945933" lon="-0.0499867"><ele>4.75</ele><time>2026-05-02T06:50:56.401Z</time></trkpt><trkpt lat="51.4946367" lon="-0.0500683"><ele>5.0</ele><time>2026-05-02T06:50:57.402Z</time></trkpt><trkpt lat="51.4947017" lon="-0.0502233"><ele>5.0</ele><time>2026-05-02T06:50:59.402Z</time></trkpt><trkpt lat="51.4947633" lon="-0.050305"><ele>5.0</ele><time>2026-05-02T06:51:05.402Z</time></trkpt><trkpt lat="51.49482" lon="-0.0503733"><ele>5.0</ele><time>2026-05-02T06:51:07.403Z</time></trkpt><trkpt lat="51.4949017" lon="-0.0505167"><ele>5.0</ele><time>2026-05-02T06:51:09.402Z</time></trkpt><trkpt lat="51.4949617" lon="-0.0506017"><ele>5.0</ele><time>2026-05-02T06:51:10.402Z</time></trkpt><trkpt lat="51.4950367" lon="-0.0507"><ele>5.0</ele><time>2026-05-02T06:51:11.403Z</time></trkpt><trkpt lat="51.49511" lon="-0.0507967"><ele>5.0</ele><time>2026-05-02T06:51:12.402Z</time></trkpt><trkpt lat="51.4951817" lon="-0.0508883"><ele>5.0</ele><time>2026-05-02T06:51:13.402Z</time></trkpt><trkpt lat="51.4952633" lon="-0.05098"><ele>5.0</ele><time>2026-05-02T06:51:14.403Z</time></trkpt><trkpt lat="51.4953417" lon="-0.0510667"><ele>5.0</ele><time>2026-05-02T06:51:15.403Z</time></trkpt><trkpt lat="51.4954117" lon="-0.0511417"><ele>5.0</ele><time>2026-05-02T06:51:16.402Z</time></trkpt><trkpt lat="51.495475" lon="-0.05121"><ele>5.0</ele><time>2026-05-02T06:51:17.403Z</time></trkpt><trkpt lat="51.4955283" lon="-0.0512683"><ele>5.0</ele><time>2026-05-02T06:51:18.403Z</time></trkpt><trkpt lat="51.495605" lon="-0.0513617"><ele>5.0</ele><time>2026-05-02T06:51:20.409Z</time></trkpt><trkpt lat="51.495675" lon="-0.0514533"><ele>5.0</ele><time>2026-05-02T06:51:22.404Z</time></trkpt><trkpt lat="51.4957517" lon="-0.0515517"><ele>5.0</ele><time>2026-05-02T06:51:24.403Z</time></trkpt><trkpt lat="51.4958267" lon="-0.0516533"><ele>5.0</ele><time>2026-05-02T06:51:26.402Z</time></trkpt><trkpt lat="51.4959167" lon="-0.051775"><ele>5.142857142857142</ele><time>2026-05-02T06:51:28.402Z</time></trkpt><trkpt lat="51.4959667" lon="-0.051845"><ele>5.285714285714286</ele><time>2026-05-02T06:51:29.402Z</time></trkpt><trkpt lat="51.4960183" lon="-0.051915"><ele>5.428571428571429</ele><time>2026-05-02T06:51:30.402Z</time></trkpt><trkpt lat="51.49607" lon="-0.051985"><ele>5.571428571428571</ele><time>2026-05-02T06:51:31.402Z</time></trkpt><trkpt lat="51.4961233" lon="-0.05206"><ele>5.714285714285714</ele><time>2026-05-02T06:51:32.403Z</time></trkpt><trkpt lat="51.4961833" lon="-0.052135"><ele>5.857142857142857</ele><time>2026-05-02T06:51:33.403Z</time></trkpt><trkpt lat="51.4962417" lon="-0.0522117"><ele>6.0</ele><time>2026-05-02T06:51:34.402Z</time></trkpt><trkpt lat="51.4963117" lon="-0.0522917"><ele>6.0</ele><time>2026-05-02T06:51:35.403Z</time></trkpt><trkpt lat="51.4963767" lon="-0.05237"><ele>6.0</ele><time>2026-05-02T06:51:36.402Z</time></trkpt><trkpt lat="51.4964383" lon="-0.052445"><ele>6.0</ele><time>2026-05-02T06:51:37.403Z</time></trkpt><trkpt lat="51.4964983" lon="-0.0525183"><ele>6.0</ele><time>2026-05-02T06:51:38.403Z</time></trkpt><trkpt lat="51.4965583" lon="-0.05259"><ele>6.0</ele><time>2026-05-02T06:51:39.403Z</time></trkpt><trkpt lat="51.4966217" lon="-0.0526567"><ele>6.0</ele><time>2026-05-02T06:51:40.402Z</time></trkpt><trkpt lat="51.4966783" lon="-0.0527267"><ele>5.571428571428571</ele><time>2026-05-02T06:51:41.402Z</time></trkpt><trkpt lat="51.4967333" lon="-0.052795"><ele>5.142857142857142</ele><time>2026-05-02T06:51:42.403Z</time></trkpt><trkpt lat="51.4967933" lon="-0.0528633"><ele>4.7142857142857135</ele><time>2026-05-02T06:51:43.402Z</time></trkpt><trkpt lat="51.4968467" lon="-0.05294"><ele>4.285714285714286</ele><time>2026-05-02T06:51:44.404Z</time></trkpt><trkpt lat="51.4969" lon="-0.053015"><ele>3.8571428571428568</ele><time>2026-05-02T06:51:45.402Z</time></trkpt><trkpt lat="51.4969517" lon="-0.053085"><ele>3.4285714285714284</ele><time>2026-05-02T06:51:46.402Z</time></trkpt><trkpt lat="51.497" lon="-0.0531517"><ele>3.0</ele><time>2026-05-02T06:51:47.403Z</time></trkpt><trkpt lat="51.49708" lon="-0.0532617"><ele>3.666666666666667</ele><time>2026-05-02T06:51:49.403Z</time></trkpt><trkpt lat="51.4971267" lon="-0.0533417"><ele>4.333333333333334</ele><time>2026-05-02T06:51:51.404Z</time></trkpt><trkpt lat="51.497195" lon="-0.05348"><ele>5.0</ele><time>2026-05-02T06:51:53.402Z</time></trkpt><trkpt lat="51.4972483" lon="-0.0535683"><ele>5.666666666666667</ele><time>2026-05-02T06:51:54.402Z</time></trkpt><trkpt lat="51.4973117" lon="-0.0536583"><ele>6.333333333333334</ele><time>2026-05-02T06:51:55.402Z</time></trkpt><trkpt lat="51.4973817" lon="-0.053755"><ele>7.0</ele><time>2026-05-02T06:51:56.402Z</time></trkpt><trkpt lat="51.4974667" lon="-0.0538683"><ele>7.0</ele><time>2026-05-02T06:51:57.402Z</time></trkpt><trkpt lat="51.4975567" lon="-0.053995"><ele>7.0</ele><time>2026-05-02T06:51:58.403Z</time></trkpt><trkpt lat="51.4976533" lon="-0.054125"><ele>7.0</ele><time>2026-05-02T06:51:59.402Z</time></trkpt><trkpt lat="51.4977417" lon="-0.0542533"><ele>7.0</ele><time>2026-05-02T06:52:00.403Z</time></trkpt><trkpt lat="51.4978233" lon="-0.0543683"><ele>6.8</ele><time>2026-05-02T06:52:01.403Z</time></trkpt><trkpt lat="51.4979033" lon="-0.0544683"><ele>6.6</ele><time>2026-05-02T06:52:02.403Z</time></trkpt><trkpt lat="51.4979783" lon="-0.0545633"><ele>6.3999999999999995</ele><time>2026-05-02T06:52:03.402Z</time></trkpt><trkpt lat="51.49805" lon="-0.054655"><ele>6.199999999999999</ele><time>2026-05-02T06:52:04.402Z</time></trkpt><trkpt lat="51.4981217" lon="-0.0547483"><ele>6.0</ele><time>2026-05-02T06:52:05.402Z</time></trkpt><trkpt lat="51.4981967" lon="-0.0548433"><ele>5.6</ele><time>2026-05-02T06:52:06.404Z</time></trkpt><trkpt lat="51.498285" lon="-0.0549383"><ele>5.199999999999999</ele><time>2026-05-02T06:52:07.403Z</time></trkpt><trkpt lat="51.49837" lon="-0.05503"><ele>4.800000000000001</ele><time>2026-05-02T06:52:08.406Z</time></trkpt><trkpt lat="51.4984583" lon="-0.0551117"><ele>4.4</ele><time>2026-05-02T06:52:09.404Z</time></trkpt><trkpt lat="51.4985483" lon="-0.0551867"><ele>4.0</ele><time>2026-05-02T06:52:10.403Z</time></trkpt><trkpt lat="51.498635" lon="-0.05527"><ele>3.833333333333333</ele><time>2026-05-02T06:52:11.403Z</time></trkpt><trkpt lat="51.4987117" lon="-0.0553667"><ele>3.6666666666666665</ele><time>2026-05-02T06:52:12.402Z</time></trkpt><trkpt lat="51.498775" lon="-0.0554733"><ele>3.5</ele><time>2026-05-02T06:52:13.402Z</time></trkpt><trkpt lat="51.498835" lon="-0.0555717"><ele>3.333333333333333</ele><time>2026-05-02T06:52:14.406Z</time></trkpt><trkpt lat="51.4988967" lon="-0.0556417"><ele>3.1666666666666665</ele><time>2026-05-02T06:52:15.405Z</time></trkpt><trkpt lat="51.498965" lon="-0.05568"><ele>3.0</ele><time>2026-05-02T06:52:16.403Z</time></trkpt><trkpt lat="51.499035" lon="-0.0557067"><ele>3.0</ele><time>2026-05-02T06:52:17.402Z</time></trkpt><trkpt lat="51.4991067" lon="-0.055705"><ele>3.0</ele><time>2026-05-02T06:52:18.402Z</time></trkpt><trkpt lat="51.4991833" lon="-0.0556267"><ele>3.0</ele><time>2026-05-02T06:52:19.402Z</time></trkpt><trkpt lat="51.49924" lon="-0.0555633"><ele>3.0</ele><time>2026-05-02T06:52:20.403Z</time></trkpt><trkpt lat="51.4992917" lon="-0.0553883"><ele>3.0</ele><time>2026-05-02T06:52:22.404Z</time></trkpt><trkpt lat="51.4992667" lon="-0.0552183"><ele>3.0</ele><time>2026-05-02T06:52:23.403Z</time></trkpt><trkpt lat="51.4992417" lon="-0.0550733"><ele>3.0</ele><time>2026-05-02T06:52:24.403Z</time></trkpt><trkpt lat="51.4992317" lon="-0.0549517"><ele>3.0</ele><time>2026-05-02T06:52:25.404Z</time></trkpt><trkpt lat="51.4992217" lon="-0.0548"><ele>3.0</ele><time>2026-05-02T06:52:26.402Z</time></trkpt><trkpt lat="51.499225" lon="-0.0546717"><ele>3.0</ele><time>2026-05-02T06:52:27.403Z</time></trkpt><trkpt lat="51.49924" lon="-0.0545433"><ele>3.0</ele><time>2026-05-02T06:52:28.403Z</time></trkpt><trkpt lat="51.4992683" lon="-0.05442"><ele>3.0</ele><time>2026-05-02T06:52:29.403Z</time></trkpt><trkpt lat="51.4993083" lon="-0.0543133"><ele>3.0</ele><time>2026-05-02T06:52:30.402Z</time></trkpt><trkpt lat="51.4993483" lon="-0.0542167"><ele>3.0</ele><time>2026-05-02T06:52:31.402Z</time></trkpt><trkpt lat="51.49939" lon="-0.0541333"><ele>3.0</ele><time>2026-05-02T06:52:32.402Z</time></trkpt><trkpt lat="51.4994667" lon="-0.05398"><ele>3.0</ele><time>2026-05-02T06:52:34.402Z</time></trkpt><trkpt lat="51.4995083" lon="-0.0538983"><ele>3.0</ele><time>2026-05-02T06:52:35.402Z</time></trkpt><trkpt lat="51.4995533" lon="-0.0538217"><ele>3.1666666666666665</ele><time>2026-05-02T06:52:36.402Z</time></trkpt><trkpt lat="51.499625" lon="-0.0536767"><ele>3.333333333333333</ele><time>2026-05-02T06:52:38.404Z</time></trkpt><trkpt lat="51.499665" lon="-0.0535883"><ele>3.5</ele><time>2026-05-02T06:52:39.403Z</time></trkpt><trkpt lat="51.4997083" lon="-0.0534933"><ele>3.6666666666666665</ele><time>2026-05-02T06:52:40.402Z</time></trkpt><trkpt lat="51.499755" lon="-0.0533983"><ele>3.833333333333333</ele><time>2026-05-02T06:52:41.404Z</time></trkpt><trkpt lat="51.4997983" lon="-0.0533033"><ele>4.0</ele><time>2026-05-02T06:52:42.403Z</time></trkpt><trkpt lat="51.4998383" lon="-0.0532133"><ele>4.0</ele><time>2026-05-02T06:52:43.408Z</time></trkpt><trkpt lat="51.4998767" lon="-0.05313"><ele>3.9999999999999996</ele><time>2026-05-02T06:52:44.402Z</time></trkpt><trkpt lat="51.4999183" lon="-0.0530367"><ele>4.0</ele><time>2026-05-02T06:52:45.402Z</time></trkpt><trkpt lat="51.49996" lon="-0.0529517"><ele>4.0</ele><time>2026-05-02T06:52:46.402Z</time></trkpt><trkpt lat="51.500005" lon="-0.052875"><ele>3.9999999999999996</ele><time>2026-05-02T06:52:47.403Z</time></trkpt><trkpt lat="51.5000483" lon="-0.052795"><ele>4.0</ele><time>2026-05-02T06:52:48.402Z</time></trkpt><trkpt lat="51.50009" lon="-0.0527167"><ele>4.0</ele><time>2026-05-02T06:52:49.403Z</time></trkpt><trkpt lat="51.5001317" lon="-0.052635"><ele>3.9999999999999996</ele><time>2026-05-02T06:52:50.403Z</time></trkpt><trkpt lat="51.500175" lon="-0.05256"><ele>4.0</ele><time>2026-05-02T06:52:51.404Z</time></trkpt><trkpt lat="51.5002183" lon="-0.0524833"><ele>4.0</ele><time>2026-05-02T06:52:52.404Z</time></trkpt><trkpt lat="51.5003017" lon="-0.0523283"><ele>4.0</ele><time>2026-05-02T06:52:54.404Z</time></trkpt><trkpt lat="51.5003483" lon="-0.0522433"><ele>3.9999999999999996</ele><time>2026-05-02T06:52:55.402Z</time></trkpt><trkpt lat="51.500395" lon="-0.0521617"><ele>4.0</ele><time>2026-05-02T06:52:56.402Z</time></trkpt><trkpt lat="51.50044" lon="-0.052075"><ele>3.833333333333333</ele><time>2026-05-02T06:52:57.403Z</time></trkpt><trkpt lat="51.5004817" lon="-0.0519933"><ele>3.6666666666666665</ele><time>2026-05-02T06:52:58.403Z</time></trkpt><trkpt lat="51.5005283" lon="-0.0519183"><ele>3.5</ele><time>2026-05-02T06:52:59.404Z</time></trkpt><trkpt lat="51.5006067" lon="-0.051785"><ele>3.333333333333333</ele><time>2026-05-02T06:53:01.402Z</time></trkpt><trkpt lat="51.5006883" lon="-0.05165"><ele>3.1666666666666665</ele><time>2026-05-02T06:53:03.402Z</time></trkpt><trkpt lat="51.5007317" lon="-0.051575"><ele>3.0</ele><time>2026-05-02T06:53:04.401Z</time></trkpt><trkpt lat="51.5007783" lon="-0.0514967"><ele>3.0</ele><time>2026-05-02T06:53:05.403Z</time></trkpt><trkpt lat="51.500865" lon="-0.0513783"><ele>3.0</ele><time>2026-05-02T06:53:07.402Z</time></trkpt><trkpt lat="51.500955" lon="-0.0512417"><ele>3.0</ele><time>2026-05-02T06:53:09.403Z</time></trkpt><trkpt lat="51.501005" lon="-0.0511683"><ele>3.0</ele><time>2026-05-02T06:53:10.404Z</time></trkpt><trkpt lat="51.5010867" lon="-0.051045"><ele>3.0</ele><time>2026-05-02T06:53:12.403Z</time></trkpt><trkpt lat="51.5011667" lon="-0.05093"><ele>3.0</ele><time>2026-05-02T06:53:14.404Z</time></trkpt><trkpt lat="51.50124" lon="-0.0508233"><ele>3.0</ele><time>2026-05-02T06:53:16.403Z</time></trkpt><trkpt lat="51.50132" lon="-0.0507517"><ele>3.0</ele><time>2026-05-02T06:53:18.403Z</time></trkpt><trkpt lat="51.501405" lon="-0.05068"><ele>3.0</ele><time>2026-05-02T06:53:20.403Z</time></trkpt><trkpt lat="51.5107367" lon="-0.0411"><ele>4.75</ele><time>2026-05-02T06:55:56.403Z</time></trkpt><trkpt lat="51.510805" lon="-0.04082"><ele>6.5</ele><time>2026-05-02T06:55:58.403Z</time></trkpt><trkpt lat="51.5108567" lon="-0.04069"><ele>8.25</ele><time>2026-05-02T06:55:59.402Z</time></trkpt><trkpt lat="51.5109017" lon="-0.0405583"><ele>10.0</ele><time>2026-05-02T06:56:00.402Z</time></trkpt><trkpt lat="51.5109367" lon="-0.0404233"><ele>10.0</ele><time>2026-05-02T06:56:01.405Z</time></trkpt><trkpt lat="51.510975" lon="-0.0402933"><ele>10.0</ele><time>2026-05-02T06:56:02.403Z</time></trkpt><trkpt lat="51.511015" lon="-0.0401633"><ele>10.0</ele><time>2026-05-02T06:56:03.402Z</time></trkpt><trkpt lat="51.5110567" lon="-0.040045"><ele>10.0</ele><time>2026-05-02T06:56:04.402Z</time></trkpt><trkpt lat="51.5111017" lon="-0.0399383"><ele>10.0</ele><time>2026-05-02T06:56:05.402Z</time></trkpt><trkpt lat="51.5111533" lon="-0.0398317"><ele>10.0</ele><time>2026-05-02T06:56:06.404Z</time></trkpt><trkpt lat="51.5112117" lon="-0.0397267"><ele>10.2</ele><time>2026-05-02T06:56:07.402Z</time></trkpt><trkpt lat="51.5112717" lon="-0.0396267"><ele>10.4</ele><time>2026-05-02T06:56:08.403Z</time></trkpt><trkpt lat="51.5113383" lon="-0.0395317"><ele>10.600000000000001</ele><time>2026-05-02T06:56:09.402Z</time></trkpt><trkpt lat="51.511415" lon="-0.0394333"><ele>10.8</ele><time>2026-05-02T06:56:10.402Z</time></trkpt><trkpt lat="51.5114933" lon="-0.0393467"><ele>11.0</ele><time>2026-05-02T06:56:11.407Z</time></trkpt><trkpt lat="51.5115817" lon="-0.03929"><ele>11.0</ele><time>2026-05-02T06:56:12.405Z</time></trkpt><trkpt lat="51.511675" lon="-0.039245"><ele>11.0</ele><time>2026-05-02T06:56:13.402Z</time></trkpt><trkpt lat="51.511765" lon="-0.039205"><ele>11.0</ele><time>2026-05-02T06:56:14.403Z</time></trkpt><trkpt lat="51.511845" lon="-0.0391717"><ele>11.0</ele><time>2026-05-02T06:56:15.404Z</time></trkpt><trkpt lat="51.5119167" lon="-0.0391533"><ele>11.0</ele><time>2026-05-02T06:56:16.406Z</time></trkpt><trkpt lat="51.5120267" lon="-0.039155"><ele>11.166666666666666</ele><time>2026-05-02T06:56:18.403Z</time></trkpt><trkpt lat="51.51211" lon="-0.0392367"><ele>11.333333333333332</ele><time>2026-05-02T06:56:20.403Z</time></trkpt><trkpt lat="51.5121483" lon="-0.0394133"><ele>11.5</ele><time>2026-05-02T06:56:22.403Z</time></trkpt><trkpt lat="51.5121617" lon="-0.0395133"><ele>11.666666666666666</ele><time>2026-05-02T06:56:23.402Z</time></trkpt><trkpt lat="51.5121717" lon="-0.0396767"><ele>11.833333333333334</ele><time>2026-05-02T06:56:25.406Z</time></trkpt><trkpt lat="51.5121783" lon="-0.0397867"><ele>12.0</ele><time>2026-05-02T06:56:27.402Z</time></trkpt><trkpt lat="51.5121783" lon="-0.03991"><ele>12.5</ele><time>2026-05-02T06:56:31.405Z</time></trkpt><trkpt lat="51.5121833" lon="-0.0400433"><ele>13.0</ele><time>2026-05-02T06:56:35.406Z</time></trkpt><trkpt lat="51.5122083" lon="-0.04014"><ele>13.5</ele><time>2026-05-02T06:56:37.405Z</time></trkpt><trkpt lat="51.5122317" lon="-0.0402817"><ele>14.0</ele><time>2026-05-02T06:56:40.405Z</time></trkpt><trkpt lat="51.5122567" lon="-0.04039"><ele>14.5</ele><time>2026-05-02T06:56:42.406Z</time></trkpt><trkpt lat="51.51229" lon="-0.040555"><ele>15.0</ele><time>2026-05-02T06:56:44.403Z</time></trkpt><trkpt lat="51.512335" lon="-0.040735"><ele>14.857142857142858</ele><time>2026-05-02T06:56:46.402Z</time></trkpt><trkpt lat="51.512365" lon="-0.0408433"><ele>14.714285714285714</ele><time>2026-05-02T06:56:47.402Z</time></trkpt><trkpt lat="51.5123833" lon="-0.0409483"><ele>14.571428571428571</ele><time>2026-05-02T06:56:48.405Z</time></trkpt><trkpt lat="51.5124117" lon="-0.041085"><ele>14.428571428571429</ele><time>2026-05-02T06:56:49.402Z</time></trkpt><trkpt lat="51.5124433" lon="-0.0411967"><ele>14.285714285714285</ele><time>2026-05-02T06:56:50.405Z</time></trkpt><trkpt lat="51.51247" lon="-0.0413133"><ele>14.142857142857142</ele><time>2026-05-02T06:56:52.409Z</time></trkpt><trkpt lat="51.5124767" lon="-0.041415"><ele>14.0</ele><time>2026-05-02T06:56:54.406Z</time></trkpt><trkpt lat="51.5124117" lon="-0.04148"><ele>14.000000000000002</ele><time>2026-05-02T06:56:58.405Z</time></trkpt><trkpt lat="51.5123467" lon="-0.0415067"><ele>14.0</ele><time>2026-05-02T06:57:01.405Z</time></trkpt><trkpt lat="51.5122783" lon="-0.0415533"><ele>14.0</ele><time>2026-05-02T06:57:04.402Z</time></trkpt><trkpt lat="51.51221" lon="-0.0416"><ele>14.0</ele><time>2026-05-02T06:57:07.402Z</time></trkpt><trkpt lat="51.512145" lon="-0.041645"><ele>14.000000000000002</ele><time>2026-05-02T06:57:09.402Z</time></trkpt><trkpt lat="51.5120717" lon="-0.041685"><ele>14.0</ele><time>2026-05-02T06:57:10.407Z</time></trkpt><trkpt lat="51.5119917" lon="-0.0417383"><ele>12.799999999999999</ele><time>2026-05-02T06:57:11.405Z</time></trkpt><trkpt lat="51.5119017" lon="-0.0417983"><ele>11.599999999999998</ele><time>2026-05-02T06:57:12.406Z</time></trkpt><trkpt lat="51.5118033" lon="-0.0418683"><ele>10.4</ele><time>2026-05-02T06:57:13.402Z</time></trkpt><trkpt lat="51.51172" lon="-0.041935"><ele>9.2</ele><time>2026-05-02T06:57:14.405Z</time></trkpt><trkpt lat="51.511625" lon="-0.04199"><ele>8.0</ele><time>2026-05-02T06:57:15.404Z</time></trkpt><trkpt lat="51.5115417" lon="-0.0420333"><ele>8.0</ele><time>2026-05-02T06:57:16.403Z</time></trkpt><trkpt lat="51.51145" lon="-0.042065"><ele>8.0</ele><time>2026-05-02T06:57:17.402Z</time></trkpt><trkpt lat="51.5113533" lon="-0.042075"><ele>8.0</ele><time>2026-05-02T06:57:18.405Z</time></trkpt><trkpt lat="51.5112367" lon="-0.04207"><ele>8.0</ele><time>2026-05-02T06:57:19.402Z</time></trkpt><trkpt lat="51.5111283" lon="-0.0420533"><ele>8.0</ele><time>2026-05-02T06:57:20.404Z</time></trkpt><trkpt lat="51.5110233" lon="-0.0420417"><ele>8.600000000000001</ele><time>2026-05-02T06:57:21.406Z</time></trkpt><trkpt lat="51.5109233" lon="-0.042035"><ele>9.200000000000001</ele><time>2026-05-02T06:57:22.406Z</time></trkpt><trkpt lat="51.5108233" lon="-0.042035"><ele>9.8</ele><time>2026-05-02T06:57:23.404Z</time></trkpt><trkpt lat="51.5107467" lon="-0.0420117"><ele>10.4</ele><time>2026-05-02T06:57:24.405Z</time></trkpt><trkpt lat="51.510685" lon="-0.041975"><ele>11.0</ele><time>2026-05-02T06:57:25.403Z</time></trkpt><trkpt lat="51.51066" lon="-0.04178"><ele>11.0</ele><time>2026-05-02T06:57:27.406Z</time></trkpt><trkpt lat="51.51066" lon="-0.0416133"><ele>11.0</ele><time>2026-05-02T06:57:29.402Z</time></trkpt><trkpt lat="51.5106733" lon="-0.0414367"><ele>11.0</ele><time>2026-05-02T06:57:31.404Z</time></trkpt><trkpt lat="51.5106917" lon="-0.0412433"><ele>11.0</ele><time>2026-05-02T06:57:33.403Z</time></trkpt><trkpt lat="51.5107" lon="-0.0411367"><ele>11.0</ele><time>2026-05-02T06:57:34.403Z</time></trkpt><trkpt lat="51.5107133" lon="-0.0410283"><ele>11.0</ele><time>2026-05-02T06:57:35.403Z</time></trkpt><trkpt lat="51.5107283" lon="-0.040915"><ele>11.0</ele><time>2026-05-02T06:57:36.403Z</time></trkpt><trkpt lat="51.5107433" lon="-0.0407983"><ele>11.0</ele><time>2026-05-02T06:57:37.403Z</time></trkpt><trkpt lat="51.51076" lon="-0.0406783"><ele>11.0</ele><time>2026-05-02T06:57:38.402Z</time></trkpt><trkpt lat="51.5107783" lon="-0.040565"><ele>11.0</ele><time>2026-05-02T06:57:39.402Z</time></trkpt><trkpt lat="51.5107983" lon="-0.0404617"><ele>11.0</ele><time>2026-05-02T06:57:40.403Z</time></trkpt><trkpt lat="51.5108183" lon="-0.0403633"><ele>11.0</ele><time>2026-05-02T06:57:41.403Z</time></trkpt><trkpt lat="51.5108383" lon="-0.0402667"><ele>10.833333333333332</ele><time>2026-05-02T06:57:42.405Z</time></trkpt><trkpt lat="51.510855" lon="-0.0401617"><ele>10.666666666666666</ele><time>2026-05-02T06:57:43.403Z</time></trkpt><trkpt lat="51.510885" lon="-0.0399667"><ele>10.5</ele><time>2026-05-02T06:57:45.403Z</time></trkpt><trkpt lat="51.5109033" lon="-0.0398633"><ele>10.333333333333334</ele><time>2026-05-02T06:57:46.404Z</time></trkpt><trkpt lat="51.5109217" lon="-0.0397483"><ele>10.166666666666668</ele><time>2026-05-02T06:57:47.403Z</time></trkpt><trkpt lat="51.51094" lon="-0.0396233"><ele>10.0</ele><time>2026-05-02T06:57:48.404Z</time></trkpt><trkpt lat="51.5109583" lon="-0.0395133"><ele>10.0</ele><time>2026-05-02T06:57:49.403Z</time></trkpt><trkpt lat="51.510975" lon="-0.0394033"><ele>10.0</ele><time>2026-05-02T06:57:50.403Z</time></trkpt><trkpt lat="51.5109917" lon="-0.0392917"><ele>10.0</ele><time>2026-05-02T06:57:51.407Z</time></trkpt><trkpt lat="51.51101" lon="-0.0391817"><ele>10.0</ele><time>2026-05-02T06:57:52.404Z</time></trkpt><trkpt lat="51.5110267" lon="-0.0390733"><ele>10.0</ele><time>2026-05-02T06:57:53.402Z</time></trkpt><trkpt lat="51.5083883" lon="-0.0218067"><ele>10.0</ele><time>2026-05-02T07:00:08.402Z</time></trkpt><trkpt lat="51.5084" lon="-0.0216967"><ele>10.0</ele><time>2026-05-02T07:00:09.406Z</time></trkpt><trkpt lat="51.5083633" lon="-0.021535"><ele>10.0</ele><time>2026-05-02T07:00:10.403Z</time></trkpt><trkpt lat="51.5083383" lon="-0.021405"><ele>10.0</ele><time>2026-05-02T07:00:11.402Z</time></trkpt><trkpt lat="51.50831" lon="-0.02116"><ele>10.0</ele><time>2026-05-02T07:00:13.406Z</time></trkpt><trkpt lat="51.5082667" lon="-0.0209733"><ele>9.666666666666668</ele><time>2026-05-02T07:00:14.407Z</time></trkpt><trkpt lat="51.5082233" lon="-0.020795"><ele>9.333333333333334</ele><time>2026-05-02T07:00:15.402Z</time></trkpt><trkpt lat="51.508185" lon="-0.0206233"><ele>9.0</ele><time>2026-05-02T07:00:16.406Z</time></trkpt><trkpt lat="51.5080983" lon="-0.0202883"><ele>9.0</ele><time>2026-05-02T07:00:18.404Z</time></trkpt><trkpt lat="51.5080533" lon="-0.02013"><ele>9.0</ele><time>2026-05-02T07:00:19.402Z</time></trkpt><trkpt lat="51.508005" lon="-0.0199767"><ele>9.0</ele><time>2026-05-02T07:00:20.405Z</time></trkpt><trkpt lat="51.5079533" lon="-0.0198233"><ele>9.0</ele><time>2026-05-02T07:00:21.407Z</time></trkpt><trkpt lat="51.5079083" lon="-0.0196683"><ele>9.0</ele><time>2026-05-02T07:00:22.403Z</time></trkpt><trkpt lat="51.5078683" lon="-0.0195117"><ele>8.4</ele><time>2026-05-02T07:00:23.403Z</time></trkpt><trkpt lat="51.5078283" lon="-0.01935"><ele>7.800000000000001</ele><time>2026-05-02T07:00:24.404Z</time></trkpt><trkpt lat="51.5078017" lon="-0.019195"><ele>7.199999999999999</ele><time>2026-05-02T07:00:25.405Z</time></trkpt><trkpt lat="51.5077667" lon="-0.0190383"><ele>6.6</ele><time>2026-05-02T07:00:26.402Z</time></trkpt><trkpt lat="51.50773" lon="-0.01888"><ele>6.0</ele><time>2026-05-02T07:00:27.402Z</time></trkpt><trkpt lat="51.5076883" lon="-0.0187217"><ele>6.0</ele><time>2026-05-02T07:00:28.403Z</time></trkpt><trkpt lat="51.5076567" lon="-0.0185583"><ele>6.0</ele><time>2026-05-02T07:00:29.402Z</time></trkpt><trkpt lat="51.5076283" lon="-0.0183833"><ele>6.0</ele><time>2026-05-02T07:00:30.403Z</time></trkpt><trkpt lat="51.5075967" lon="-0.0182067"><ele>6.0</ele><time>2026-05-02T07:00:31.404Z</time></trkpt><trkpt lat="51.507565" lon="-0.01803"><ele>6.0</ele><time>2026-05-02T07:00:32.403Z</time></trkpt><trkpt lat="51.5075383" lon="-0.0178467"><ele>6.199999999999999</ele><time>2026-05-02T07:00:33.402Z</time></trkpt><trkpt lat="51.5075133" lon="-0.0176683"><ele>6.3999999999999995</ele><time>2026-05-02T07:00:34.402Z</time></trkpt><trkpt lat="51.5074883" lon="-0.0175"><ele>6.6</ele><time>2026-05-02T07:00:35.403Z</time></trkpt><trkpt lat="51.507465" lon="-0.0173317"><ele>6.8</ele><time>2026-05-02T07:00:36.402Z</time></trkpt><trkpt lat="51.507445" lon="-0.017165"><ele>7.0</ele><time>2026-05-02T07:00:37.405Z</time></trkpt><trkpt lat="51.50742" lon="-0.016995"><ele>7.0</ele><time>2026-05-02T07:00:38.402Z</time></trkpt><trkpt lat="51.5073983" lon="-0.016825"><ele>6.999999999999999</ele><time>2026-05-02T07:00:39.404Z</time></trkpt><trkpt lat="51.5073817" lon="-0.0166633"><ele>6.999999999999999</ele><time>2026-05-02T07:00:40.402Z</time></trkpt><trkpt lat="51.5073617" lon="-0.01649"><ele>7.0</ele><time>2026-05-02T07:00:41.402Z</time></trkpt><trkpt lat="51.5073417" lon="-0.0163183"><ele>7.0</ele><time>2026-05-02T07:00:42.403Z</time></trkpt><trkpt lat="51.5073217" lon="-0.0161467"><ele>6.8</ele><time>2026-05-02T07:00:43.402Z</time></trkpt><trkpt lat="51.507305" lon="-0.0159833"><ele>6.6</ele><time>2026-05-02T07:00:44.402Z</time></trkpt><trkpt lat="51.5072917" lon="-0.015825"><ele>6.3999999999999995</ele><time>2026-05-02T07:00:45.407Z</time></trkpt><trkpt lat="51.5072783" lon="-0.0156633"><ele>6.199999999999999</ele><time>2026-05-02T07:00:46.403Z</time></trkpt><trkpt lat="51.5072633" lon="-0.015495"><ele>6.0</ele><time>2026-05-02T07:00:47.406Z</time></trkpt><trkpt lat="51.5072467" lon="-0.01533"><ele>6.0</ele><time>2026-05-02T07:00:48.402Z</time></trkpt><trkpt lat="51.5072367" lon="-0.0151567"><ele>6.0</ele><time>2026-05-02T07:00:49.405Z</time></trkpt><trkpt lat="51.5072333" lon="-0.01498"><ele>6.0</ele><time>2026-05-02T07:00:50.404Z</time></trkpt><trkpt lat="51.5072333" lon="-0.0148"><ele>6.0</ele><time>2026-05-02T07:00:51.405Z</time></trkpt><trkpt lat="51.507235" lon="-0.0146167"><ele>6.0</ele><time>2026-05-02T07:00:52.402Z</time></trkpt><trkpt lat="51.507235" lon="-0.0144383"><ele>6.0</ele><time>2026-05-02T07:00:53.403Z</time></trkpt><trkpt lat="51.5072333" lon="-0.0142733"><ele>6.0</ele><time>2026-05-02T07:00:54.405Z</time></trkpt><trkpt lat="51.5072267" lon="-0.0141133"><ele>6.0</ele><time>2026-05-02T07:00:55.404Z</time></trkpt><trkpt lat="51.5072267" lon="-0.013955"><ele>6.0</ele><time>2026-05-02T07:00:56.404Z</time></trkpt><trkpt lat="51.5072267" lon="-0.0137967"><ele>6.0</ele><time>2026-05-02T07:00:57.405Z</time></trkpt><trkpt lat="51.5072317" lon="-0.0136383"><ele>6.0</ele><time>2026-05-02T07:00:58.403Z</time></trkpt><trkpt lat="51.5072367" lon="-0.0134817"><ele>6.0</ele><time>2026-05-02T07:00:59.404Z</time></trkpt><trkpt lat="51.5072433" lon="-0.013325"><ele>6.0</ele><time>2026-05-02T07:01:00.404Z</time></trkpt><trkpt lat="51.5072483" lon="-0.0131667"><ele>6.0</ele><time>2026-05-02T07:01:01.404Z</time></trkpt><trkpt lat="51.50725" lon="-0.0130133"><ele>6.0</ele><time>2026-05-02T07:01:02.405Z</time></trkpt><trkpt lat="51.5072483" lon="-0.0128583"><ele>5.8</ele><time>2026-05-02T07:01:03.403Z</time></trkpt><trkpt lat="51.507245" lon="-0.0127067"><ele>5.6</ele><time>2026-05-02T07:01:04.406Z</time></trkpt><trkpt lat="51.5072467" lon="-0.012555"><ele>5.4</ele><time>2026-05-02T07:01:05.406Z</time></trkpt><trkpt lat="51.5072517" lon="-0.0123933"><ele>5.2</ele><time>2026-05-02T07:01:06.406Z</time></trkpt><trkpt lat="51.5072633" lon="-0.01223"><ele>5.0</ele><time>2026-05-02T07:01:07.404Z</time></trkpt><trkpt lat="51.5072783" lon="-0.0120717"><ele>4.8</ele><time>2026-05-02T07:01:08.405Z</time></trkpt><trkpt lat="51.5072933" lon="-0.0119033"><ele>4.6</ele><time>2026-05-02T07:01:09.405Z</time></trkpt><trkpt lat="51.507305" lon="-0.0117483"><ele>4.4</ele><time>2026-05-02T07:01:10.403Z</time></trkpt><trkpt lat="51.50732" lon="-0.011585"><ele>4.2</ele><time>2026-05-02T07:01:11.405Z</time></trkpt><trkpt lat="51.5073367" lon="-0.011425"><ele>4.0</ele><time>2026-05-02T07:01:12.404Z</time></trkpt><trkpt lat="51.5073533" lon="-0.0112583"><ele>4.0</ele><time>2026-05-02T07:01:13.403Z</time></trkpt><trkpt lat="51.5073633" lon="-0.0110983"><ele>4.0</ele><time>2026-05-02T07:01:14.405Z</time></trkpt><trkpt lat="51.5073817" lon="-0.0109367"><ele>4.0</ele><time>2026-05-02T07:01:15.404Z</time></trkpt><trkpt lat="51.5074017" lon="-0.010785"><ele>4.0</ele><time>2026-05-02T07:01:16.405Z</time></trkpt><trkpt lat="51.50742" lon="-0.0106317"><ele>4.0</ele><time>2026-05-02T07:01:17.404Z</time></trkpt><trkpt lat="51.507435" lon="-0.010485"><ele>3.9999999999999996</ele><time>2026-05-02T07:01:18.404Z</time></trkpt><trkpt lat="51.5074467" lon="-0.0103367"><ele>4.0</ele><time>2026-05-02T07:01:19.404Z</time></trkpt><trkpt lat="51.5074567" lon="-0.0101933"><ele>4.0</ele><time>2026-05-02T07:01:20.406Z</time></trkpt><trkpt lat="51.507465" lon="-0.0100533"><ele>4.0</ele><time>2026-05-02T07:01:21.406Z</time></trkpt><trkpt lat="51.507475" lon="-0.0099283"><ele>3.9999999999999996</ele><time>2026-05-02T07:01:22.405Z</time></trkpt><trkpt lat="51.5074917" lon="-0.00979"><ele>4.0</ele><time>2026-05-02T07:01:23.403Z</time></trkpt><trkpt lat="51.5074967" lon="-0.0096567"><ele>4.2</ele><time>2026-05-02T07:01:24.403Z</time></trkpt><trkpt lat="51.5075017" lon="-0.0095183"><ele>4.4</ele><time>2026-05-02T07:01:25.404Z</time></trkpt><trkpt lat="51.5075183" lon="-0.0093767"><ele>4.6</ele><time>2026-05-02T07:01:26.404Z</time></trkpt><trkpt lat="51.5075333" lon="-0.0092233"><ele>4.8</ele><time>2026-05-02T07:01:27.404Z</time></trkpt><trkpt lat="51.5075483" lon="-0.00907"><ele>5.0</ele><time>2026-05-02T07:01:28.405Z</time></trkpt><trkpt lat="51.5075667" lon="-0.0089117"><ele>4.6</ele><time>2026-05-02T07:01:29.405Z</time></trkpt><trkpt lat="51.5075917" lon="-0.00875"><ele>4.2</ele><time>2026-05-02T07:01:30.406Z</time></trkpt><trkpt lat="51.50761" lon="-0.00859"><ele>3.8</ele><time>2026-05-02T07:01:31.404Z</time></trkpt><trkpt lat="51.5076333" lon="-0.00843"><ele>3.4</ele><time>2026-05-02T07:01:32.404Z</time></trkpt><trkpt lat="51.5076533" lon="-0.0082667"><ele>3.0</ele><time>2026-05-02T07:01:33.412Z</time></trkpt><trkpt lat="51.50767" lon="-0.0081067"><ele>3.0</ele><time>2026-05-02T07:01:34.405Z</time></trkpt><trkpt lat="51.5076833" lon="-0.0079417"><ele>3.0</ele><time>2026-05-02T07:01:35.407Z</time></trkpt><trkpt lat="51.5076967" lon="-0.0077733"><ele>3.0</ele><time>2026-05-02T07:01:36.399Z</time></trkpt><trkpt lat="51.5077133" lon="-0.0076"><ele>3.0</ele><time>2026-05-02T07:01:37.406Z</time></trkpt><trkpt lat="51.5077283" lon="-0.0074267"><ele>3.0</ele><time>2026-05-02T07:01:38.404Z</time></trkpt><trkpt lat="51.5077433" lon="-0.00726"><ele>3.2</ele><time>2026-05-02T07:01:39.405Z</time></trkpt><trkpt lat="51.5077583" lon="-0.0070883"><ele>3.4</ele><time>2026-05-02T07:01:40.404Z</time></trkpt><trkpt lat="51.50777" lon="-0.006915"><ele>3.6000000000000005</ele><time>2026-05-02T07:01:41.41Z</time></trkpt><trkpt lat="51.5077817" lon="-0.006745"><ele>3.8000000000000003</ele><time>2026-05-02T07:01:42.405Z</time></trkpt><trkpt lat="51.5077967" lon="-0.00658"><ele>4.0</ele><time>2026-05-02T07:01:43.407Z</time></trkpt><trkpt lat="51.5078133" lon="-0.0064167"><ele>4.2</ele><time>2026-05-02T07:01:44.403Z</time></trkpt><trkpt lat="51.50783" lon="-0.0062467"><ele>4.4</ele><time>2026-05-02T07:01:45.405Z</time></trkpt><trkpt lat="51.5078567" lon="-0.0060783"><ele>4.6</ele><time>2026-05-02T07:01:46.404Z</time></trkpt><trkpt lat="51.5078917" lon="-0.0059067"><ele>4.8</ele><time>2026-05-02T07:01:47.408Z</time></trkpt><trkpt lat="51.5079333" lon="-0.0057283"><ele>5.0</ele><time>2026-05-02T07:01:48.405Z</time></trkpt><trkpt lat="51.5079767" lon="-0.0055433"><ele>5.0</ele><time>2026-05-02T07:01:49.405Z</time></trkpt><trkpt lat="51.508025" lon="-0.0053617"><ele>5.0</ele><time>2026-05-02T07:01:50.404Z</time></trkpt><trkpt lat="51.50808" lon="-0.0051917"><ele>5.0</ele><time>2026-05-02T07:01:51.405Z</time></trkpt><trkpt lat="51.5081367" lon="-0.0050333"><ele>5.0</ele><time>2026-05-02T07:01:52.405Z</time></trkpt><trkpt lat="51.508195" lon="-0.0048867"><ele>5.6</ele><time>2026-05-02T07:01:53.405Z</time></trkpt><trkpt lat="51.5082567" lon="-0.00474"><ele>6.2</ele><time>2026-05-02T07:01:54.404Z</time></trkpt><trkpt lat="51.508325" lon="-0.0046"><ele>6.800000000000001</ele><time>2026-05-02T07:01:55.406Z</time></trkpt><trkpt lat="51.5084" lon="-0.00446"><ele>7.4</ele><time>2026-05-02T07:01:56.403Z</time></trkpt><trkpt lat="51.5084767" lon="-0.0043283"><ele>8.0</ele><time>2026-05-02T07:01:57.404Z</time></trkpt><trkpt lat="51.508555" lon="-0.0041983"><ele>7.25</ele><time>2026-05-02T07:01:58.407Z</time></trkpt><trkpt lat="51.508635" lon="-0.0040683"><ele>6.5</ele><time>2026-05-02T07:01:59.404Z</time></trkpt><trkpt lat="51.5087217" lon="-0.00394"><ele>5.75</ele><time>2026-05-02T07:02:00.404Z</time></trkpt><trkpt lat="51.508815" lon="-0.0038183"><ele>5.0</ele><time>2026-05-02T07:02:01.405Z</time></trkpt><trkpt lat="51.5089117" lon="-0.0037033"><ele>6.25</ele><time>2026-05-02T07:02:02.403Z</time></trkpt><trkpt lat="51.5090133" lon="-0.0035933"><ele>7.5</ele><time>2026-05-02T07:02:03.403Z</time></trkpt><trkpt lat="51.509115" lon="-0.00348"><ele>8.75</ele><time>2026-05-02T07:02:04.405Z</time></trkpt><trkpt lat="51.5092133" lon="-0.0033683"><ele>10.0</ele><time>2026-05-02T07:02:05.403Z</time></trkpt><trkpt lat="51.5093117" lon="-0.0032667"><ele>10.0</ele><time>2026-05-02T07:02:06.404Z</time></trkpt><trkpt lat="51.5094117" lon="-0.00316"><ele>10.0</ele><time>2026-05-02T07:02:07.407Z</time></trkpt><trkpt lat="51.509515" lon="-0.00305"><ele>10.0</ele><time>2026-05-02T07:02:08.405Z</time></trkpt><trkpt lat="51.509615" lon="-0.0029283"><ele>10.0</ele><time>2026-05-02T07:02:09.405Z</time></trkpt><trkpt lat="51.5097183" lon="-0.0027967"><ele>9.25</ele><time>2026-05-02T07:02:10.405Z</time></trkpt><trkpt lat="51.50982" lon="-0.0026617"><ele>8.5</ele><time>2026-05-02T07:02:11.405Z</time></trkpt><trkpt lat="51.5099183" lon="-0.0025233"><ele>7.75</ele><time>2026-05-02T07:02:12.404Z</time></trkpt><trkpt lat="51.5100183" lon="-0.00238"><ele>7.0</ele><time>2026-05-02T07:02:13.404Z</time></trkpt><trkpt lat="51.5101133" lon="-0.002225"><ele>7.0</ele><time>2026-05-02T07:02:14.403Z</time></trkpt><trkpt lat="51.510205" lon="-0.0020567"><ele>7.0</ele><time>2026-05-02T07:02:15.404Z</time></trkpt><trkpt lat="51.5102917" lon="-0.001875"><ele>7.0</ele><time>2026-05-02T07:02:16.405Z</time></trkpt><trkpt lat="51.5103767" lon="-0.0016883"><ele>7.0</ele><time>2026-05-02T07:02:17.403Z</time></trkpt><trkpt lat="51.5104583" lon="-0.0015067"><ele>6.75</ele><time>2026-05-02T07:02:18.405Z</time></trkpt><trkpt lat="51.5105417" lon="-0.00132"><ele>6.5</ele><time>2026-05-02T07:02:19.405Z</time></trkpt><trkpt lat="51.5106267" lon="-0.0011333"><ele>6.25</ele><time>2026-05-02T07:02:20.403Z</time></trkpt><trkpt lat="51.51071" lon="-9.25E-4"><ele>6.0</ele><time>2026-05-02T07:02:21.405Z</time></trkpt><trkpt lat="51.5107883" lon="-7.167E-4"><ele>6.0</ele><time>2026-05-02T07:02:22.404Z</time></trkpt><trkpt lat="51.51087" lon="-5.15E-4"><ele>6.0</ele><time>2026-05-02T07:02:23.404Z</time></trkpt><trkpt lat="51.5109533" lon="-3.167E-4"><ele>6.0</ele><time>2026-05-02T07:02:24.405Z</time></trkpt><trkpt lat="51.5110383" lon="-1.167E-4"><ele>6.0</ele><time>2026-05-02T07:02:25.406Z</time></trkpt><trkpt lat="51.5111217" lon="8.33E-5"><ele>6.0</ele><time>2026-05-02T07:02:26.403Z</time></trkpt><trkpt lat="51.511205" lon="2.833E-4"><ele>6.0</ele><time>2026-05-02T07:02:27.406Z</time></trkpt><trkpt lat="51.51321" lon="9.25E-4"><ele>5.5</ele><time>2026-05-02T07:02:47.403Z</time></trkpt><trkpt lat="51.51332" lon="0.0010567"><ele>5.0</ele><time>2026-05-02T07:02:48.404Z</time></trkpt><trkpt lat="51.5134433" lon="0.0011917"><ele>4.5</ele><time>2026-05-02T07:02:49.406Z</time></trkpt><trkpt lat="51.5135517" lon="0.00132"><ele>4.0</ele><time>2026-05-02T07:02:50.403Z</time></trkpt><trkpt lat="51.5136667" lon="0.00147"><ele>3.75</ele><time>2026-05-02T07:02:51.402Z</time></trkpt><trkpt lat="51.513775" lon="0.001605"><ele>3.5</ele><time>2026-05-02T07:02:52.406Z</time></trkpt><trkpt lat="51.51388" lon="0.00175"><ele>3.25</ele><time>2026-05-02T07:02:53.402Z</time></trkpt><trkpt lat="51.5139717" lon="0.0018883"><ele>3.0</ele><time>2026-05-02T07:02:54.405Z</time></trkpt><trkpt lat="51.514055" lon="0.00203"><ele>3.5</ele><time>2026-05-02T07:02:55.404Z</time></trkpt><trkpt lat="51.5141333" lon="0.002175"><ele>4.0</ele><time>2026-05-02T07:02:56.407Z</time></trkpt><trkpt lat="51.51421" lon="0.0023267"><ele>4.5</ele><time>2026-05-02T07:02:57.406Z</time></trkpt><trkpt lat="51.5142817" lon="0.0024883"><ele>5.0</ele><time>2026-05-02T07:02:58.406Z</time></trkpt><trkpt lat="51.5143517" lon="0.0026617"><ele>5.5</ele><time>2026-05-02T07:02:59.402Z</time></trkpt><trkpt lat="51.5144183" lon="0.002855"><ele>6.0</ele><time>2026-05-02T07:03:00.403Z</time></trkpt><trkpt lat="51.514475" lon="0.0030567"><ele>6.5</ele><time>2026-05-02T07:03:01.408Z</time></trkpt><trkpt lat="51.5145267" lon="0.00326"><ele>7.0</ele><time>2026-05-02T07:03:02.402Z</time></trkpt><trkpt lat="51.514575" lon="0.0034517"><ele>6.25</ele><time>2026-05-02T07:03:03.403Z</time></trkpt><trkpt lat="51.5146233" lon="0.0036433"><ele>5.5</ele><time>2026-05-02T07:03:04.403Z</time></trkpt><trkpt lat="51.514665" lon="0.003835"><ele>4.75</ele><time>2026-05-02T07:03:05.403Z</time></trkpt><trkpt lat="51.51471" lon="0.0040317"><ele>4.0</ele><time>2026-05-02T07:03:06.403Z</time></trkpt><trkpt lat="51.5147517" lon="0.0042267"><ele>4.0</ele><time>2026-05-02T07:03:07.403Z</time></trkpt><trkpt lat="51.5147933" lon="0.00442"><ele>4.0</ele><time>2026-05-02T07:03:08.403Z</time></trkpt><trkpt lat="51.5148367" lon="0.0046133"><ele>4.0</ele><time>2026-05-02T07:03:09.404Z</time></trkpt><trkpt lat="51.5148817" lon="0.0048083"><ele>4.0</ele><time>2026-05-02T07:03:10.404Z</time></trkpt><trkpt lat="51.514925" lon="0.0050017"><ele>4.75</ele><time>2026-05-02T07:03:11.404Z</time></trkpt><trkpt lat="51.5149683" lon="0.0051983"><ele>5.5</ele><time>2026-05-02T07:03:12.402Z</time></trkpt><trkpt lat="51.515015" lon="0.0054033"><ele>6.25</ele><time>2026-05-02T07:03:13.402Z</time></trkpt><trkpt lat="51.5150633" lon="0.00562"><ele>7.0</ele><time>2026-05-02T07:03:14.403Z</time></trkpt><trkpt lat="51.5151133" lon="0.0058433"><ele>7.0</ele><time>2026-05-02T07:03:15.404Z</time></trkpt><trkpt lat="51.5151633" lon="0.0060717"><ele>7.0</ele><time>2026-05-02T07:03:16.402Z</time></trkpt><trkpt lat="51.515215" lon="0.00631"><ele>7.0</ele><time>2026-05-02T07:03:17.403Z</time></trkpt><trkpt lat="51.5152633" lon="0.0065517"><ele>6.333333333333334</ele><time>2026-05-02T07:03:18.403Z</time></trkpt><trkpt lat="51.5153083" lon="0.0067917"><ele>5.666666666666667</ele><time>2026-05-02T07:03:19.404Z</time></trkpt><trkpt lat="51.5153533" lon="0.00703"><ele>5.0</ele><time>2026-05-02T07:03:20.403Z</time></trkpt><trkpt lat="51.5153983" lon="0.0072667"><ele>5.0</ele><time>2026-05-02T07:03:21.403Z</time></trkpt><trkpt lat="51.5154417" lon="0.0074867"><ele>5.0</ele><time>2026-05-02T07:03:22.402Z</time></trkpt><trkpt lat="51.5154833" lon="0.0077017"><ele>5.0</ele><time>2026-05-02T07:03:23.407Z</time></trkpt><trkpt lat="51.5155233" lon="0.0079133"><ele>5.0</ele><time>2026-05-02T07:03:24.405Z</time></trkpt><trkpt lat="51.5155617" lon="0.0081267"><ele>4.75</ele><time>2026-05-02T07:03:25.404Z</time></trkpt><trkpt lat="51.515605" lon="0.00834"><ele>4.5</ele><time>2026-05-02T07:03:26.403Z</time></trkpt><trkpt lat="51.5156517" lon="0.0085483"><ele>4.25</ele><time>2026-05-02T07:03:27.402Z</time></trkpt><trkpt lat="51.515695" lon="0.0087617"><ele>4.0</ele><time>2026-05-02T07:03:28.404Z</time></trkpt><trkpt lat="51.5157367" lon="0.00898"><ele>4.5</ele><time>2026-05-02T07:03:29.404Z</time></trkpt><trkpt lat="51.51578" lon="0.0091983"><ele>5.0</ele><time>2026-05-02T07:03:30.405Z</time></trkpt><trkpt lat="51.5158233" lon="0.0094233"><ele>5.5</ele><time>2026-05-02T07:03:31.403Z</time></trkpt><trkpt lat="51.515865" lon="0.00965"><ele>6.0</ele><time>2026-05-02T07:03:32.403Z</time></trkpt><trkpt lat="51.5159067" lon="0.009875"><ele>5.5</ele><time>2026-05-02T07:03:33.404Z</time></trkpt><trkpt lat="51.51595" lon="0.0100983"><ele>5.0</ele><time>2026-05-02T07:03:34.403Z</time></trkpt><trkpt lat="51.5159867" lon="0.0103233"><ele>4.5</ele><time>2026-05-02T07:03:35.403Z</time></trkpt><trkpt lat="51.5160283" lon="0.010545"><ele>4.0</ele><time>2026-05-02T07:03:36.403Z</time></trkpt><trkpt lat="51.51607" lon="0.01077"><ele>4.333333333333333</ele><time>2026-05-02T07:03:37.403Z</time></trkpt><trkpt lat="51.51611" lon="0.0110067"><ele>4.666666666666667</ele><time>2026-05-02T07:03:38.404Z</time></trkpt><trkpt lat="51.51615" lon="0.0112433"><ele>5.0</ele><time>2026-05-02T07:03:39.404Z</time></trkpt><trkpt lat="51.5161917" lon="0.0114717"><ele>5.0</ele><time>2026-05-02T07:03:40.402Z</time></trkpt><trkpt lat="51.5162333" lon="0.011705"><ele>5.0</ele><time>2026-05-02T07:03:41.404Z</time></trkpt><trkpt lat="51.516275" lon="0.0119383"><ele>5.0</ele><time>2026-05-02T07:03:42.405Z</time></trkpt><trkpt lat="51.5163167" lon="0.0121633"><ele>5.0</ele><time>2026-05-02T07:03:43.405Z</time></trkpt><trkpt lat="51.5163567" lon="0.012395"><ele>4.5</ele><time>2026-05-02T07:03:44.402Z</time></trkpt><trkpt lat="51.5163983" lon="0.0126267"><ele>4.0</ele><time>2026-05-02T07:03:45.402Z</time></trkpt><trkpt lat="51.5164433" lon="0.012855"><ele>3.5</ele><time>2026-05-02T07:03:46.402Z</time></trkpt><trkpt lat="51.5164883" lon="0.0130833"><ele>3.0</ele><time>2026-05-02T07:03:47.412Z</time></trkpt><trkpt lat="51.5165267" lon="0.013305"><ele>2.75</ele><time>2026-05-02T07:03:48.404Z</time></trkpt><trkpt lat="51.516565" lon="0.013525"><ele>2.5</ele><time>2026-05-02T07:03:49.406Z</time></trkpt><trkpt lat="51.5166" lon="0.0137383"><ele>2.25</ele><time>2026-05-02T07:03:50.405Z</time></trkpt><trkpt lat="51.51664" lon="0.0139367"><ele>2.0</ele><time>2026-05-02T07:03:51.402Z</time></trkpt><trkpt lat="51.516675" lon="0.01413"><ele>2.0</ele><time>2026-05-02T07:03:52.402Z</time></trkpt><trkpt lat="51.51671" lon="0.01433"><ele>2.0</ele><time>2026-05-02T07:03:53.403Z</time></trkpt><trkpt lat="51.51678" lon="0.0147067"><ele>2.0</ele><time>2026-05-02T07:03:55.403Z</time></trkpt><trkpt lat="51.516815" lon="0.01488"><ele>1.75</ele><time>2026-05-02T07:03:56.403Z</time></trkpt><trkpt lat="51.5168483" lon="0.01505"><ele>1.5</ele><time>2026-05-02T07:03:57.402Z</time></trkpt><trkpt lat="51.5168833" lon="0.01522"><ele>1.25</ele><time>2026-05-02T07:03:58.403Z</time></trkpt><trkpt lat="51.516915" lon="0.015395"><ele>1.0</ele><time>2026-05-02T07:03:59.403Z</time></trkpt><trkpt lat="51.5169467" lon="0.015575"><ele>1.0</ele><time>2026-05-02T07:04:00.402Z</time></trkpt><trkpt lat="51.5169783" lon="0.015765"><ele>1.0</ele><time>2026-05-02T07:04:01.402Z</time></trkpt><trkpt lat="51.5170117" lon="0.0159583"><ele>1.0</ele><time>2026-05-02T07:04:02.402Z</time></trkpt><trkpt lat="51.5170467" lon="0.0161583"><ele>1.0</ele><time>2026-05-02T07:04:03.402Z</time></trkpt><trkpt lat="51.5170767" lon="0.0163667"><ele>1.25</ele><time>2026-05-02T07:04:04.403Z</time></trkpt><trkpt lat="51.517105" lon="0.0165833"><ele>1.5</ele><time>2026-05-02T07:04:05.402Z</time></trkpt><trkpt lat="51.5171333" lon="0.0168117"><ele>1.75</ele><time>2026-05-02T07:04:06.403Z</time></trkpt><trkpt lat="51.5171583" lon="0.01705"><ele>2.0</ele><time>2026-05-02T07:04:07.402Z</time></trkpt><trkpt lat="51.5171833" lon="0.0172933"><ele>2.0</ele><time>2026-05-02T07:04:08.407Z</time></trkpt><trkpt lat="51.517205" lon="0.017545"><ele>2.0</ele><time>2026-05-02T07:04:09.403Z</time></trkpt><trkpt lat="51.517225" lon="0.0178017"><ele>2.0</ele><time>2026-05-02T07:04:10.403Z</time></trkpt><trkpt lat="51.51724" lon="0.018065"><ele>2.0</ele><time>2026-05-02T07:04:11.405Z</time></trkpt><trkpt lat="51.5172533" lon="0.0183383"><ele>2.0</ele><time>2026-05-02T07:04:12.405Z</time></trkpt><trkpt lat="51.51726" lon="0.0186117"><ele>2.0</ele><time>2026-05-02T07:04:13.407Z</time></trkpt><trkpt lat="51.5172667" lon="0.0188983"><ele>2.6666666666666665</ele><time>2026-05-02T07:04:14.403Z</time></trkpt><trkpt lat="51.5172733" lon="0.019195"><ele>3.333333333333333</ele><time>2026-05-02T07:04:15.406Z</time></trkpt><trkpt lat="51.5172767" lon="0.0194883"><ele>4.0</ele><time>2026-05-02T07:04:16.402Z</time></trkpt><trkpt lat="51.51728" lon="0.0197767"><ele>3.333333333333333</ele><time>2026-05-02T07:04:17.407Z</time></trkpt><trkpt lat="51.5172833" lon="0.0200683"><ele>2.6666666666666665</ele><time>2026-05-02T07:04:18.404Z</time></trkpt><trkpt lat="51.51729" lon="0.0203617"><ele>2.0</ele><time>2026-05-02T07:04:19.403Z</time></trkpt><trkpt lat="51.5172967" lon="0.0206583"><ele>1.6666666666666665</ele><time>2026-05-02T07:04:20.402Z</time></trkpt><trkpt lat="51.5173067" lon="0.0209533"><ele>1.3333333333333333</ele><time>2026-05-02T07:04:21.406Z</time></trkpt><trkpt lat="51.5173133" lon="0.0212517"><ele>1.0</ele><time>2026-05-02T07:04:22.403Z</time></trkpt><trkpt lat="51.5173217" lon="0.0215517"><ele>2.0</ele><time>2026-05-02T07:04:23.405Z</time></trkpt><trkpt lat="51.5173317" lon="0.0218483"><ele>3.0</ele><time>2026-05-02T07:04:24.404Z</time></trkpt><trkpt lat="51.51734" lon="0.0221467"><ele>4.0</ele><time>2026-05-02T07:04:25.403Z</time></trkpt><trkpt lat="51.51735" lon="0.0224483"><ele>4.333333333333333</ele><time>2026-05-02T07:04:26.403Z</time></trkpt><trkpt lat="51.5173583" lon="0.0227467"><ele>4.666666666666667</ele><time>2026-05-02T07:04:27.403Z</time></trkpt><trkpt lat="51.517365" lon="0.0230433"><ele>5.0</ele><time>2026-05-02T07:04:28.404Z</time></trkpt><trkpt lat="51.5173733" lon="0.0233383"><ele>4.333333333333334</ele><time>2026-05-02T07:04:29.405Z</time></trkpt><trkpt lat="51.5173767" lon="0.0236333"><ele>3.666666666666667</ele><time>2026-05-02T07:04:30.404Z</time></trkpt><trkpt lat="51.5173817" lon="0.0239233"><ele>3.0</ele><time>2026-05-02T07:04:31.405Z</time></trkpt><trkpt lat="51.5173867" lon="0.0242167"><ele>3.0</ele><time>2026-05-02T07:04:32.407Z</time></trkpt><trkpt lat="51.5173867" lon="0.0245117"><ele>3.0</ele><time>2026-05-02T07:04:33.403Z</time></trkpt><trkpt lat="51.5173817" lon="0.0248083"><ele>3.0</ele><time>2026-05-02T07:04:34.406Z</time></trkpt><trkpt lat="51.5173717" lon="0.0251067"><ele>3.0</ele><time>2026-05-02T07:04:35.403Z</time></trkpt><trkpt lat="51.5173617" lon="0.0254033"><ele>3.0</ele><time>2026-05-02T07:04:36.407Z</time></trkpt><trkpt lat="51.5173517" lon="0.0257"><ele>3.0</ele><time>2026-05-02T07:04:37.403Z</time></trkpt><trkpt lat="51.5173383" lon="0.0259933"><ele>3.0</ele><time>2026-05-02T07:04:38.405Z</time></trkpt><trkpt lat="51.5173183" lon="0.02629"><ele>3.0</ele><time>2026-05-02T07:04:39.405Z</time></trkpt><trkpt lat="51.5172933" lon="0.026585"><ele>3.0</ele><time>2026-05-02T07:04:40.403Z</time></trkpt><trkpt lat="51.5172633" lon="0.0268817"><ele>3.0</ele><time>2026-05-02T07:04:41.408Z</time></trkpt><trkpt lat="51.5172317" lon="0.0271767"><ele>3.0</ele><time>2026-05-02T07:04:42.406Z</time></trkpt><trkpt lat="51.5171983" lon="0.0274683"><ele>3.0</ele><time>2026-05-02T07:04:43.407Z</time></trkpt><trkpt lat="51.5171717" lon="0.027765"><ele>3.0</ele><time>2026-05-02T07:04:44.408Z</time></trkpt><trkpt lat="51.5171483" lon="0.0280567"><ele>3.0</ele><time>2026-05-02T07:04:45.404Z</time></trkpt><trkpt lat="51.51713" lon="0.0283467"><ele>3.0</ele><time>2026-05-02T07:04:46.406Z</time></trkpt><trkpt lat="51.5171117" lon="0.0286383"><ele>3.0</ele><time>2026-05-02T07:04:47.404Z</time></trkpt><trkpt lat="51.5170983" lon="0.0289367"><ele>3.0</ele><time>2026-05-02T07:04:48.403Z</time></trkpt><trkpt lat="51.5170883" lon="0.0292333"><ele>3.0</ele><time>2026-05-02T07:04:49.402Z</time></trkpt><trkpt lat="51.517085" lon="0.0295317"><ele>3.0</ele><time>2026-05-02T07:04:50.404Z</time></trkpt><trkpt lat="51.51709" lon="0.0298283"><ele>3.0</ele><time>2026-05-02T07:04:51.405Z</time></trkpt><trkpt lat="51.5170983" lon="0.03013"><ele>3.0</ele><time>2026-05-02T07:04:52.402Z</time></trkpt><trkpt lat="51.5171117" lon="0.0304317"><ele>2.6666666666666665</ele><time>2026-05-02T07:04:53.404Z</time></trkpt><trkpt lat="51.5171267" lon="0.0307333"><ele>2.333333333333333</ele><time>2026-05-02T07:04:54.404Z</time></trkpt><trkpt lat="51.517145" lon="0.0310367"><ele>2.0</ele><time>2026-05-02T07:04:55.403Z</time></trkpt><trkpt lat="51.517165" lon="0.031335"><ele>2.0</ele><time>2026-05-02T07:04:56.403Z</time></trkpt><trkpt lat="51.5171883" lon="0.0316317"><ele>2.0</ele><time>2026-05-02T07:04:57.403Z</time></trkpt><trkpt lat="51.5172133" lon="0.0319233"><ele>2.0</ele><time>2026-05-02T07:04:58.402Z</time></trkpt><trkpt lat="51.5172417" lon="0.0322117"><ele>2.6666666666666665</ele><time>2026-05-02T07:04:59.402Z</time></trkpt><trkpt lat="51.5172783" lon="0.0325"><ele>3.333333333333333</ele><time>2026-05-02T07:05:00.402Z</time></trkpt><trkpt lat="51.51731" lon="0.0327933"><ele>4.0</ele><time>2026-05-02T07:05:01.404Z</time></trkpt><trkpt lat="51.51734" lon="0.0330783"><ele>3.333333333333333</ele><time>2026-05-02T07:05:02.406Z</time></trkpt><trkpt lat="51.5173767" lon="0.0333617"><ele>2.6666666666666665</ele><time>2026-05-02T07:05:03.403Z</time></trkpt><trkpt lat="51.51742" lon="0.0336417"><ele>2.0</ele><time>2026-05-02T07:05:04.403Z</time></trkpt><trkpt lat="51.5174683" lon="0.0339133"><ele>2.0</ele><time>2026-05-02T07:05:05.407Z</time></trkpt><trkpt lat="51.51752" lon="0.0341883"><ele>2.0</ele><time>2026-05-02T07:05:06.402Z</time></trkpt><trkpt lat="51.5175733" lon="0.0344633"><ele>2.0</ele><time>2026-05-02T07:05:07.402Z</time></trkpt><trkpt lat="51.5176983" lon="0.0350217"><ele>2.0</ele><time>2026-05-02T07:05:09.403Z</time></trkpt><trkpt lat="51.517765" lon="0.0353017"><ele>2.0</ele><time>2026-05-02T07:05:10.402Z</time></trkpt><trkpt lat="51.5178367" lon="0.0355817"><ele>2.0</ele><time>2026-05-02T07:05:11.409Z</time></trkpt><trkpt lat="51.517915" lon="0.0358533"><ele>2.0</ele><time>2026-05-02T07:05:12.405Z</time></trkpt><trkpt lat="51.5179967" lon="0.0361183"><ele>2.0</ele><time>2026-05-02T07:05:13.406Z</time></trkpt><trkpt lat="51.5180833" lon="0.0363883"><ele>2.0</ele><time>2026-05-02T07:05:14.406Z</time></trkpt><trkpt lat="51.5181733" lon="0.03665"><ele>2.0</ele><time>2026-05-02T07:05:15.407Z</time></trkpt><trkpt lat="51.5182667" lon="0.03691"><ele>2.0</ele><time>2026-05-02T07:05:16.406Z</time></trkpt><trkpt lat="51.5183617" lon="0.037165"><ele>2.0</ele><time>2026-05-02T07:05:17.405Z</time></trkpt><trkpt lat="51.5184583" lon="0.037415"><ele>2.0</ele><time>2026-05-02T07:05:18.401Z</time></trkpt><trkpt lat="51.5185567" lon="0.0376617"><ele>2.0</ele><time>2026-05-02T07:05:19.405Z</time></trkpt><trkpt lat="51.5186567" lon="0.037895"><ele>2.0</ele><time>2026-05-02T07:05:20.409Z</time></trkpt><trkpt lat="51.5187533" lon="0.038115"><ele>1.6666666666666665</ele><time>2026-05-02T07:05:21.407Z</time></trkpt><trkpt lat="51.5188467" lon="0.0383283"><ele>1.3333333333333333</ele><time>2026-05-02T07:05:22.402Z</time></trkpt><trkpt lat="51.5189367" lon="0.03854"><ele>1.0</ele><time>2026-05-02T07:05:23.401Z</time></trkpt><trkpt lat="51.5190217" lon="0.0387533"><ele>1.0</ele><time>2026-05-02T07:05:24.404Z</time></trkpt><trkpt lat="51.5191033" lon="0.0389683"><ele>1.0</ele><time>2026-05-02T07:05:25.405Z</time></trkpt><trkpt lat="51.5191783" lon="0.0391817"><ele>1.0</ele><time>2026-05-02T07:05:26.405Z</time></trkpt><trkpt lat="51.5192533" lon="0.0393983"><ele>1.3333333333333333</ele><time>2026-05-02T07:05:27.406Z</time></trkpt><trkpt lat="51.519325" lon="0.039615"><ele>1.6666666666666665</ele><time>2026-05-02T07:05:28.402Z</time></trkpt><trkpt lat="51.5193967" lon="0.0398367"><ele>2.0</ele><time>2026-05-02T07:05:29.401Z</time></trkpt><trkpt lat="51.5194667" lon="0.0400717"><ele>2.0</ele><time>2026-05-02T07:05:30.403Z</time></trkpt><trkpt lat="51.5195383" lon="0.040325"><ele>2.0</ele><time>2026-05-02T07:05:31.401Z</time></trkpt><trkpt lat="51.5196083" lon="0.0405883"><ele>2.0</ele><time>2026-05-02T07:05:32.402Z</time></trkpt><trkpt lat="51.5196733" lon="0.0408467"><ele>2.0</ele><time>2026-05-02T07:05:33.402Z</time></trkpt><trkpt lat="51.519735" lon="0.0411"><ele>2.0</ele><time>2026-05-02T07:05:34.403Z</time></trkpt><trkpt lat="51.51979" lon="0.0413483"><ele>2.0</ele><time>2026-05-02T07:05:35.401Z</time></trkpt><trkpt lat="51.5198417" lon="0.0415983"><ele>1.3333333333333333</ele><time>2026-05-02T07:05:36.402Z</time></trkpt><trkpt lat="51.5198917" lon="0.0418567"><ele>0.6666666666666666</ele><time>2026-05-02T07:05:37.404Z</time></trkpt><trkpt lat="51.5199417" lon="0.0421217"><ele>0.0</ele><time>2026-05-02T07:05:38.406Z</time></trkpt><trkpt lat="51.5199867" lon="0.042395"><ele>0.6666666666666666</ele><time>2026-05-02T07:05:39.405Z</time></trkpt><trkpt lat="51.5200317" lon="0.042675"><ele>1.3333333333333333</ele><time>2026-05-02T07:05:40.405Z</time></trkpt><trkpt lat="51.5200733" lon="0.0429633"><ele>2.0</ele><time>2026-05-02T07:05:41.405Z</time></trkpt><trkpt lat="51.5201083" lon="0.0432517"><ele>2.333333333333333</ele><time>2026-05-02T07:05:42.405Z</time></trkpt><trkpt lat="51.5201383" lon="0.0435233"><ele>2.6666666666666665</ele><time>2026-05-02T07:05:43.406Z</time></trkpt><trkpt lat="51.520165" lon="0.0438017"><ele>3.0</ele><time>2026-05-02T07:05:44.406Z</time></trkpt><trkpt lat="51.5201883" lon="0.044085"><ele>2.6666666666666665</ele><time>2026-05-02T07:05:45.401Z</time></trkpt><trkpt lat="51.5202083" lon="0.0443667"><ele>2.333333333333333</ele><time>2026-05-02T07:05:46.402Z</time></trkpt><trkpt lat="51.52022" lon="0.0446533"><ele>2.0</ele><time>2026-05-02T07:05:47.405Z</time></trkpt><trkpt lat="51.52023" lon="0.04494"><ele>2.0</ele><time>2026-05-02T07:05:48.406Z</time></trkpt><trkpt lat="51.520235" lon="0.0452317"><ele>2.0</ele><time>2026-05-02T07:05:49.405Z</time></trkpt><trkpt lat="51.5202417" lon="0.0455283"><ele>2.0</ele><time>2026-05-02T07:05:50.405Z</time></trkpt><trkpt lat="51.5202383" lon="0.04582"><ele>2.0</ele><time>2026-05-02T07:05:51.401Z</time></trkpt><trkpt lat="51.52023" lon="0.0461167"><ele>2.0</ele><time>2026-05-02T07:05:52.405Z</time></trkpt><trkpt lat="51.52021" lon="0.046425"><ele>2.0</ele><time>2026-05-02T07:05:53.401Z</time></trkpt><trkpt lat="51.52019" lon="0.046725"><ele>2.6666666666666665</ele><time>2026-05-02T07:05:54.404Z</time></trkpt><trkpt lat="51.5201683" lon="0.0470117"><ele>3.333333333333333</ele><time>2026-05-02T07:05:55.405Z</time></trkpt><trkpt lat="51.5201483" lon="0.0472983"><ele>4.0</ele><time>2026-05-02T07:05:56.406Z</time></trkpt><trkpt lat="51.5201267" lon="0.04758"><ele>4.0</ele><time>2026-05-02T07:05:57.405Z</time></trkpt><trkpt lat="51.5201017" lon="0.0478517"><ele>4.0</ele><time>2026-05-02T07:05:58.406Z</time></trkpt><trkpt lat="51.520075" lon="0.0481217"><ele>4.0</ele><time>2026-05-02T07:05:59.402Z</time></trkpt><trkpt lat="51.520045" lon="0.0484"><ele>3.6666666666666665</ele><time>2026-05-02T07:06:00.405Z</time></trkpt><trkpt lat="51.5200183" lon="0.0486767"><ele>3.333333333333333</ele><time>2026-05-02T07:06:01.405Z</time></trkpt><trkpt lat="51.51999" lon="0.0489567"><ele>3.0</ele><time>2026-05-02T07:06:02.406Z</time></trkpt><trkpt lat="51.51996" lon="0.0492417"><ele>2.6666666666666665</ele><time>2026-05-02T07:06:03.402Z</time></trkpt><trkpt lat="51.519935" lon="0.0495317"><ele>2.333333333333333</ele><time>2026-05-02T07:06:04.404Z</time></trkpt><trkpt lat="51.519905" lon="0.04982"><ele>2.0</ele><time>2026-05-02T07:06:05.406Z</time></trkpt><trkpt lat="51.519875" lon="0.05011"><ele>1.6666666666666665</ele><time>2026-05-02T07:06:06.402Z</time></trkpt><trkpt lat="51.519845" lon="0.0503983"><ele>1.3333333333333333</ele><time>2026-05-02T07:06:07.403Z</time></trkpt><trkpt lat="51.5198167" lon="0.0506867"><ele>1.0</ele><time>2026-05-02T07:06:08.402Z</time></trkpt><trkpt lat="51.5197883" lon="0.0509733"><ele>1.6666666666666665</ele><time>2026-05-02T07:06:09.403Z</time></trkpt><trkpt lat="51.51976" lon="0.0512567"><ele>2.3333333333333335</ele><time>2026-05-02T07:06:10.405Z</time></trkpt><trkpt lat="51.519735" lon="0.0515417"><ele>3.0</ele><time>2026-05-02T07:06:11.403Z</time></trkpt><trkpt lat="51.5197083" lon="0.051825"><ele>3.0</ele><time>2026-05-02T07:06:12.405Z</time></trkpt><trkpt lat="51.519685" lon="0.0521117"><ele>3.0</ele><time>2026-05-02T07:06:13.405Z</time></trkpt><trkpt lat="51.51966" lon="0.0523967"><ele>3.0</ele><time>2026-05-02T07:06:14.403Z</time></trkpt><trkpt lat="51.5196383" lon="0.052685"><ele>3.333333333333333</ele><time>2026-05-02T07:06:15.41Z</time></trkpt><trkpt lat="51.5196167" lon="0.0529733"><ele>3.6666666666666665</ele><time>2026-05-02T07:06:16.404Z</time></trkpt><trkpt lat="51.5196017" lon="0.0532617"><ele>4.0</ele><time>2026-05-02T07:06:17.404Z</time></trkpt><trkpt lat="51.5195917" lon="0.0535517"><ele>4.0</ele><time>2026-05-02T07:06:18.404Z</time></trkpt><trkpt lat="51.519585" lon="0.05384"><ele>4.0</ele><time>2026-05-02T07:06:19.402Z</time></trkpt><trkpt lat="51.519585" lon="0.0541283"><ele>4.0</ele><time>2026-05-02T07:06:20.406Z</time></trkpt><trkpt lat="51.5195883" lon="0.0544167"><ele>4.0</ele><time>2026-05-02T07:06:21.404Z</time></trkpt><trkpt lat="51.5195967" lon="0.0546983"><ele>4.0</ele><time>2026-05-02T07:06:22.404Z</time></trkpt><trkpt lat="51.51961" lon="0.0549833"><ele>4.0</ele><time>2026-05-02T07:06:23.406Z</time></trkpt><trkpt lat="51.5196283" lon="0.05527"><ele>3.6666666666666665</ele><time>2026-05-02T07:06:24.404Z</time></trkpt><trkpt lat="51.5196483" lon="0.0555533"><ele>3.333333333333333</ele><time>2026-05-02T07:06:25.405Z</time></trkpt><trkpt lat="51.5196767" lon="0.0558317"><ele>3.0</ele><time>2026-05-02T07:06:26.406Z</time></trkpt><trkpt lat="51.5197033" lon="0.0561083"><ele>3.0</ele><time>2026-05-02T07:06:27.404Z</time></trkpt><trkpt lat="51.5197333" lon="0.0563817"><ele>3.0</ele><time>2026-05-02T07:06:28.406Z</time></trkpt><trkpt lat="51.519765" lon="0.056645"><ele>3.0</ele><time>2026-05-02T07:06:29.405Z</time></trkpt><trkpt lat="51.5198017" lon="0.0569117"><ele>3.0</ele><time>2026-05-02T07:06:30.405Z</time></trkpt><trkpt lat="51.5198417" lon="0.0571783"><ele>3.0</ele><time>2026-05-02T07:06:31.404Z</time></trkpt><trkpt lat="51.5198883" lon="0.057445"><ele>3.0</ele><time>2026-05-02T07:06:32.402Z</time></trkpt><trkpt lat="51.51994" lon="0.0577133"><ele>3.0</ele><time>2026-05-02T07:06:33.401Z</time></trkpt><trkpt lat="51.519995" lon="0.057985"><ele>3.0</ele><time>2026-05-02T07:06:34.402Z</time></trkpt><trkpt lat="51.5200533" lon="0.0582583"><ele>3.0</ele><time>2026-05-02T07:06:35.402Z</time></trkpt><trkpt lat="51.5201133" lon="0.0585367"><ele>3.0</ele><time>2026-05-02T07:06:36.402Z</time></trkpt><trkpt lat="51.52018" lon="0.05881"><ele>3.0</ele><time>2026-05-02T07:06:37.402Z</time></trkpt><trkpt lat="51.5202533" lon="0.059085"><ele>3.0</ele><time>2026-05-02T07:06:38.406Z</time></trkpt><trkpt lat="51.5203283" lon="0.05935"><ele>3.666666666666667</ele><time>2026-05-02T07:06:39.403Z</time></trkpt><trkpt lat="51.52041" lon="0.059615"><ele>4.333333333333334</ele><time>2026-05-02T07:06:40.406Z</time></trkpt><trkpt lat="51.5204933" lon="0.0598717"><ele>5.0</ele><time>2026-05-02T07:06:41.405Z</time></trkpt><trkpt lat="51.5205783" lon="0.0601217"><ele>5.0</ele><time>2026-05-02T07:06:42.404Z</time></trkpt><trkpt lat="51.52067" lon="0.0603617"><ele>5.0</ele><time>2026-05-02T07:06:43.405Z</time></trkpt><trkpt lat="51.5207633" lon="0.0605967"><ele>5.0</ele><time>2026-05-02T07:06:44.406Z</time></trkpt><trkpt lat="51.5208583" lon="0.0608383"><ele>5.0</ele><time>2026-05-02T07:06:45.403Z</time></trkpt><trkpt lat="51.5209567" lon="0.0610783"><ele>5.0</ele><time>2026-05-02T07:06:46.401Z</time></trkpt><trkpt lat="51.5210567" lon="0.0613167"><ele>5.0</ele><time>2026-05-02T07:06:47.402Z</time></trkpt><trkpt lat="51.52116" lon="0.06155"><ele>4.666666666666667</ele><time>2026-05-02T07:06:48.402Z</time></trkpt><trkpt lat="51.521265" lon="0.0617833"><ele>4.333333333333333</ele><time>2026-05-02T07:06:49.401Z</time></trkpt><trkpt lat="51.5213667" lon="0.062015"><ele>4.0</ele><time>2026-05-02T07:06:50.402Z</time></trkpt><trkpt lat="51.5214667" lon="0.0622533"><ele>3.6666666666666665</ele><time>2026-05-02T07:06:51.401Z</time></trkpt><trkpt lat="51.5215683" lon="0.0624833"><ele>3.333333333333333</ele><time>2026-05-02T07:06:52.401Z</time></trkpt><trkpt lat="51.521665" lon="0.0627183"><ele>3.0</ele><time>2026-05-02T07:06:53.405Z</time></trkpt><trkpt lat="51.5217567" lon="0.0629533"><ele>3.0</ele><time>2026-05-02T07:06:54.405Z</time></trkpt><trkpt lat="51.52185" lon="0.06319"><ele>3.0</ele><time>2026-05-02T07:06:55.405Z</time></trkpt><trkpt lat="51.5219467" lon="0.06342"><ele>3.0</ele><time>2026-05-02T07:06:56.405Z</time></trkpt><trkpt lat="51.52204" lon="0.0636583"><ele>2.6666666666666665</ele><time>2026-05-02T07:06:57.405Z</time></trkpt><trkpt lat="51.52213" lon="0.063895"><ele>2.333333333333333</ele><time>2026-05-02T07:06:58.404Z</time></trkpt><trkpt lat="51.5222183" lon="0.0641367"><ele>2.0</ele><time>2026-05-02T07:06:59.406Z</time></trkpt><trkpt lat="51.5223067" lon="0.0643817"><ele>1.6666666666666665</ele><time>2026-05-02T07:07:00.405Z</time></trkpt><trkpt lat="51.5223983" lon="0.0646217"><ele>1.3333333333333333</ele><time>2026-05-02T07:07:01.404Z</time></trkpt><trkpt lat="51.5224867" lon="0.0648667"><ele>1.0</ele><time>2026-05-02T07:07:02.405Z</time></trkpt><trkpt lat="51.5225767" lon="0.0651083"><ele>1.0</ele><time>2026-05-02T07:07:03.405Z</time></trkpt><trkpt lat="51.5226683" lon="0.06535"><ele>1.0</ele><time>2026-05-02T07:07:04.407Z</time></trkpt><trkpt lat="51.5227583" lon="0.06559"><ele>1.0</ele><time>2026-05-02T07:07:05.405Z</time></trkpt><trkpt lat="51.5228433" lon="0.0658333"><ele>1.6666666666666665</ele><time>2026-05-02T07:07:06.404Z</time></trkpt><trkpt lat="51.5229283" lon="0.0660767"><ele>2.3333333333333335</ele><time>2026-05-02T07:07:07.405Z</time></trkpt><trkpt lat="51.5230117" lon="0.0663183"><ele>3.0</ele><time>2026-05-02T07:07:08.401Z</time></trkpt><trkpt lat="51.5230967" lon="0.0665617"><ele>2.6666666666666665</ele><time>2026-05-02T07:07:09.405Z</time></trkpt><trkpt lat="51.52318" lon="0.0668083"><ele>2.333333333333333</ele><time>2026-05-02T07:07:10.404Z</time></trkpt><trkpt lat="51.523265" lon="0.0670567"><ele>2.0</ele><time>2026-05-02T07:07:11.405Z</time></trkpt><trkpt lat="51.52335" lon="0.0673017"><ele>2.0</ele><time>2026-05-02T07:07:12.405Z</time></trkpt><trkpt lat="51.5234367" lon="0.0675483"><ele>2.0</ele><time>2026-05-02T07:07:13.401Z</time></trkpt><trkpt lat="51.5235217" lon="0.0678"><ele>2.0</ele><time>2026-05-02T07:07:14.405Z</time></trkpt><trkpt lat="51.5236067" lon="0.0680467"><ele>2.0</ele><time>2026-05-02T07:07:15.406Z</time></trkpt><trkpt lat="51.5236883" lon="0.0682933"><ele>2.0</ele><time>2026-05-02T07:07:16.409Z</time></trkpt><trkpt lat="51.5237683" lon="0.06854"><ele>2.0</ele><time>2026-05-02T07:07:17.403Z</time></trkpt><trkpt lat="51.5238517" lon="0.0687833"><ele>2.0</ele><time>2026-05-02T07:07:18.405Z</time></trkpt><trkpt lat="51.5239333" lon="0.0690133"><ele>2.0</ele><time>2026-05-02T07:07:19.402Z</time></trkpt><trkpt lat="51.524015" lon="0.069235"><ele>2.0</ele><time>2026-05-02T07:07:20.401Z</time></trkpt><trkpt lat="51.524095" lon="0.0694433"><ele>2.0</ele><time>2026-05-02T07:07:21.401Z</time></trkpt><trkpt lat="51.5241783" lon="0.0696333"><ele>2.0</ele><time>2026-05-02T07:07:22.405Z</time></trkpt><trkpt lat="51.52425" lon="0.06982"><ele>2.0</ele><time>2026-05-02T07:07:23.406Z</time></trkpt><trkpt lat="51.52432" lon="0.069995"><ele>2.0</ele><time>2026-05-02T07:07:24.406Z</time></trkpt><trkpt lat="51.5243883" lon="0.0701583"><ele>2.0</ele><time>2026-05-02T07:07:25.404Z</time></trkpt><trkpt lat="51.52445" lon="0.0703133"><ele>2.0</ele><time>2026-05-02T07:07:26.405Z</time></trkpt><trkpt lat="51.5245033" lon="0.0704617"><ele>2.0</ele><time>2026-05-02T07:07:27.404Z</time></trkpt><trkpt lat="51.5245583" lon="0.0706017"><ele>2.0</ele><time>2026-05-02T07:07:28.407Z</time></trkpt><trkpt lat="51.5246183" lon="0.0707417"><ele>2.0</ele><time>2026-05-02T07:07:29.405Z</time></trkpt><trkpt lat="51.5246867" lon="0.0708833"><ele>1.75</ele><time>2026-05-02T07:07:30.405Z</time></trkpt><trkpt lat="51.5247617" lon="0.0710317"><ele>1.5</ele><time>2026-05-02T07:07:31.404Z</time></trkpt><trkpt lat="51.5248383" lon="0.0711917"><ele>1.25</ele><time>2026-05-02T07:07:32.406Z</time></trkpt><trkpt lat="51.5249183" lon="0.0713517"><ele>1.0</ele><time>2026-05-02T07:07:33.404Z</time></trkpt><trkpt lat="51.524995" lon="0.0715083"><ele>1.75</ele><time>2026-05-02T07:07:34.409Z</time></trkpt><trkpt lat="51.5250733" lon="0.0716583"><ele>2.5</ele><time>2026-05-02T07:07:35.405Z</time></trkpt><trkpt lat="51.525155" lon="0.0717917"><ele>3.25</ele><time>2026-05-02T07:07:36.404Z</time></trkpt><trkpt lat="51.52523" lon="0.071915"><ele>4.0</ele><time>2026-05-02T07:07:37.405Z</time></trkpt><trkpt lat="51.5253233" lon="0.07201"><ele>3.75</ele><time>2026-05-02T07:07:38.405Z</time></trkpt><trkpt lat="51.5254367" lon="0.07209"><ele>3.5</ele><time>2026-05-02T07:07:39.405Z</time></trkpt><trkpt lat="51.5255667" lon="0.0721583"><ele>3.25</ele><time>2026-05-02T07:07:40.406Z</time></trkpt><trkpt lat="51.5257017" lon="0.0722133"><ele>3.0</ele><time>2026-05-02T07:07:41.405Z</time></trkpt><trkpt lat="51.5258383" lon="0.0722633"><ele>3.0</ele><time>2026-05-02T07:07:42.405Z</time></trkpt><trkpt lat="51.5259767" lon="0.0723133"><ele>3.0</ele><time>2026-05-02T07:07:43.405Z</time></trkpt><trkpt lat="51.5261183" lon="0.0723517"><ele>3.0</ele><time>2026-05-02T07:07:44.405Z</time></trkpt><trkpt lat="51.5262633" lon="0.0723733"><ele>3.0</ele><time>2026-05-02T07:07:45.405Z</time></trkpt><trkpt lat="51.5264067" lon="0.0723833"><ele>4.0</ele><time>2026-05-02T07:07:46.406Z</time></trkpt><trkpt lat="51.5265517" lon="0.0723767"><ele>5.0</ele><time>2026-05-02T07:07:47.402Z</time></trkpt><trkpt lat="51.5266967" lon="0.0723617"><ele>6.0</ele><time>2026-05-02T07:07:48.404Z</time></trkpt><trkpt lat="51.5268417" lon="0.0723417"><ele>7.0</ele><time>2026-05-02T07:07:49.406Z</time></trkpt><trkpt lat="51.5269867" lon="0.0723233"><ele>7.333333333333334</ele><time>2026-05-02T07:07:50.404Z</time></trkpt><trkpt lat="51.5271367" lon="0.0723017"><ele>7.666666666666666</ele><time>2026-05-02T07:07:51.403Z</time></trkpt><trkpt lat="51.5272983" lon="0.0722817"><ele>8.0</ele><time>2026-05-02T07:07:52.402Z</time></trkpt><trkpt lat="51.5274733" lon="0.07227"><ele>8.0</ele><time>2026-05-02T07:07:53.404Z</time></trkpt><trkpt lat="51.5276567" lon="0.0722617"><ele>8.0</ele><time>2026-05-02T07:07:54.406Z</time></trkpt><trkpt lat="51.5278467" lon="0.0722617"><ele>8.0</ele><time>2026-05-02T07:07:55.404Z</time></trkpt><trkpt lat="51.52804" lon="0.0722667"><ele>7.666666666666666</ele><time>2026-05-02T07:07:56.402Z</time></trkpt><trkpt lat="51.5282333" lon="0.0722733"><ele>7.333333333333334</ele><time>2026-05-02T07:07:57.403Z</time></trkpt><trkpt lat="51.528425" lon="0.07228"><ele>7.0</ele><time>2026-05-02T07:07:58.405Z</time></trkpt><trkpt lat="51.528615" lon="0.0722867"><ele>6.333333333333334</ele><time>2026-05-02T07:07:59.405Z</time></trkpt><trkpt lat="51.528805" lon="0.0722917"><ele>5.666666666666667</ele><time>2026-05-02T07:08:00.404Z</time></trkpt><trkpt lat="51.5289883" lon="0.0722917"><ele>5.0</ele><time>2026-05-02T07:08:01.407Z</time></trkpt><trkpt lat="51.5291733" lon="0.0722917"><ele>5.0</ele><time>2026-05-02T07:08:02.405Z</time></trkpt><trkpt lat="51.5293617" lon="0.0722933"><ele>5.0</ele><time>2026-05-02T07:08:03.406Z</time></trkpt><trkpt lat="51.5295517" lon="0.0722983"><ele>5.0</ele><time>2026-05-02T07:08:04.405Z</time></trkpt><trkpt lat="51.5297417" lon="0.0723"><ele>5.0</ele><time>2026-05-02T07:08:05.406Z</time></trkpt><trkpt lat="51.5299317" lon="0.0723"><ele>5.0</ele><time>2026-05-02T07:08:06.405Z</time></trkpt><trkpt lat="51.5301217" lon="0.0722933"><ele>5.0</ele><time>2026-05-02T07:08:07.404Z</time></trkpt><trkpt lat="51.5303083" lon="0.07228"><ele>4.333333333333334</ele><time>2026-05-02T07:08:08.402Z</time></trkpt><trkpt lat="51.530495" lon="0.07226"><ele>3.666666666666667</ele><time>2026-05-02T07:08:09.406Z</time></trkpt><trkpt lat="51.53068" lon="0.072235"><ele>3.0</ele><time>2026-05-02T07:08:10.404Z</time></trkpt><trkpt lat="51.5308633" lon="0.0722067"><ele>3.0</ele><time>2026-05-02T07:08:11.407Z</time></trkpt><trkpt lat="51.531045" lon="0.0721717"><ele>3.0</ele><time>2026-05-02T07:08:12.402Z</time></trkpt><trkpt lat="51.5312317" lon="0.0721283"><ele>3.0</ele><time>2026-05-02T07:08:13.403Z</time></trkpt><trkpt lat="51.5314167" lon="0.072075"><ele>2.6666666666666665</ele><time>2026-05-02T07:08:14.407Z</time></trkpt><trkpt lat="51.5316" lon="0.0720183"><ele>2.333333333333333</ele><time>2026-05-02T07:08:15.402Z</time></trkpt><trkpt lat="51.5317833" lon="0.0719583"><ele>2.0</ele><time>2026-05-02T07:08:16.402Z</time></trkpt><trkpt lat="51.531965" lon="0.07189"><ele>2.333333333333333</ele><time>2026-05-02T07:08:17.401Z</time></trkpt><trkpt lat="51.5321467" lon="0.0718183"><ele>2.6666666666666665</ele><time>2026-05-02T07:08:18.402Z</time></trkpt><trkpt lat="51.5323283" lon="0.0717433"><ele>3.0</ele><time>2026-05-02T07:08:19.401Z</time></trkpt><trkpt lat="51.5325083" lon="0.0716633"><ele>3.0</ele><time>2026-05-02T07:08:20.401Z</time></trkpt><trkpt lat="51.5326833" lon="0.071585"><ele>3.0</ele><time>2026-05-02T07:08:21.401Z</time></trkpt><trkpt lat="51.53285" lon="0.0715067"><ele>3.0</ele><time>2026-05-02T07:08:22.403Z</time></trkpt><trkpt lat="51.53301" lon="0.071425"><ele>2.6666666666666665</ele><time>2026-05-02T07:08:23.405Z</time></trkpt><trkpt lat="51.5331683" lon="0.0713383"><ele>2.333333333333333</ele><time>2026-05-02T07:08:24.401Z</time></trkpt><trkpt lat="51.5333233" lon="0.071245"><ele>2.0</ele><time>2026-05-02T07:08:25.402Z</time></trkpt><trkpt lat="51.533475" lon="0.071145"><ele>2.0</ele><time>2026-05-02T07:08:26.402Z</time></trkpt><trkpt lat="51.5336317" lon="0.0710417"><ele>2.0</ele><time>2026-05-02T07:08:27.401Z</time></trkpt><trkpt lat="51.5337933" lon="0.0709333"><ele>2.0</ele><time>2026-05-02T07:08:28.402Z</time></trkpt><trkpt lat="51.5339533" lon="0.070825"><ele>1.0</ele><time>2026-05-02T07:08:29.403Z</time></trkpt><trkpt lat="51.5341067" lon="0.0707183"><ele>0.0</ele><time>2026-05-02T07:08:30.401Z</time></trkpt><trkpt lat="51.534265" lon="0.07062"><ele>-1.0</ele><time>2026-05-02T07:08:31.401Z</time></trkpt><trkpt lat="51.5344283" lon="0.0705217"><ele>0.33333333333333337</ele><time>2026-05-02T07:08:32.404Z</time></trkpt><trkpt lat="51.5345983" lon="0.0704233"><ele>1.6666666666666667</ele><time>2026-05-02T07:08:33.403Z</time></trkpt><trkpt lat="51.53476" lon="0.0703167"><ele>3.0</ele><time>2026-05-02T07:08:34.401Z</time></trkpt><trkpt lat="51.5349233" lon="0.0702067"><ele>3.0</ele><time>2026-05-02T07:08:35.402Z</time></trkpt><trkpt lat="51.5350883" lon="0.0700917"><ele>3.0</ele><time>2026-05-02T07:08:36.402Z</time></trkpt><trkpt lat="51.53526" lon="0.0699717"><ele>3.0</ele><time>2026-05-02T07:08:37.402Z</time></trkpt><trkpt lat="51.5354317" lon="0.0698517"><ele>2.6666666666666665</ele><time>2026-05-02T07:08:38.402Z</time></trkpt><trkpt lat="51.5356" lon="0.0697333"><ele>2.333333333333333</ele><time>2026-05-02T07:08:39.402Z</time></trkpt><trkpt lat="51.5357667" lon="0.069615"><ele>2.0</ele><time>2026-05-02T07:08:40.406Z</time></trkpt><trkpt lat="51.5359317" lon="0.0694967"><ele>2.0</ele><time>2026-05-02T07:08:41.401Z</time></trkpt><trkpt lat="51.5360983" lon="0.0693783"><ele>2.0</ele><time>2026-05-02T07:08:42.406Z</time></trkpt><trkpt lat="51.536265" lon="0.0692517"><ele>2.0</ele><time>2026-05-02T07:08:43.406Z</time></trkpt><trkpt lat="51.5364367" lon="0.0691217"><ele>1.6666666666666665</ele><time>2026-05-02T07:08:44.406Z</time></trkpt><trkpt lat="51.53661" lon="0.068995"><ele>1.3333333333333333</ele><time>2026-05-02T07:08:45.404Z</time></trkpt><trkpt lat="51.5367833" lon="0.0688633"><ele>1.0</ele><time>2026-05-02T07:08:46.405Z</time></trkpt><trkpt lat="51.53696" lon="0.0687217"><ele>2.0</ele><time>2026-05-02T07:08:47.404Z</time></trkpt><trkpt lat="51.5371333" lon="0.0685817"><ele>3.0</ele><time>2026-05-02T07:08:48.406Z</time></trkpt><trkpt lat="51.5373067" lon="0.0684433"><ele>4.0</ele><time>2026-05-02T07:08:49.405Z</time></trkpt><trkpt lat="51.537485" lon="0.0683033"><ele>3.333333333333333</ele><time>2026-05-02T07:08:50.405Z</time></trkpt><trkpt lat="51.5376633" lon="0.06816"><ele>2.6666666666666665</ele><time>2026-05-02T07:08:51.405Z</time></trkpt><trkpt lat="51.5378433" lon="0.0680167"><ele>2.0</ele><time>2026-05-02T07:08:52.405Z</time></trkpt><trkpt lat="51.5380217" lon="0.0678733"><ele>1.6666666666666665</ele><time>2026-05-02T07:08:53.405Z</time></trkpt><trkpt lat="51.5381983" lon="0.06773"><ele>1.3333333333333333</ele><time>2026-05-02T07:08:54.404Z</time></trkpt><trkpt lat="51.53837" lon="0.0675917"><ele>1.0</ele><time>2026-05-02T07:08:55.405Z</time></trkpt><trkpt lat="51.5385383" lon="0.067455"><ele>1.3333333333333333</ele><time>2026-05-02T07:08:56.405Z</time></trkpt><trkpt lat="51.5387017" lon="0.067315"><ele>1.6666666666666665</ele><time>2026-05-02T07:08:57.405Z</time></trkpt><trkpt lat="51.53887" lon="0.06718"><ele>2.0</ele><time>2026-05-02T07:08:58.406Z</time></trkpt><trkpt lat="51.53904" lon="0.0670567"><ele>2.0</ele><time>2026-05-02T07:08:59.401Z</time></trkpt><trkpt lat="51.5392133" lon="0.0669417"><ele>2.0</ele><time>2026-05-02T07:09:00.404Z</time></trkpt><trkpt lat="51.5395683" lon="0.0667383"><ele>2.0</ele><time>2026-05-02T07:09:02.406Z</time></trkpt><trkpt lat="51.5397483" lon="0.0666583"><ele>2.0</ele><time>2026-05-02T07:09:03.406Z</time></trkpt><trkpt lat="51.53993" lon="0.0665917"><ele>2.0</ele><time>2026-05-02T07:09:04.402Z</time></trkpt><trkpt lat="51.5401133" lon="0.06654"><ele>2.0</ele><time>2026-05-02T07:09:05.402Z</time></trkpt><trkpt lat="51.5402967" lon="0.066495"><ele>2.0</ele><time>2026-05-02T07:09:06.404Z</time></trkpt><trkpt lat="51.5404817" lon="0.0664617"><ele>2.0</ele><time>2026-05-02T07:09:07.402Z</time></trkpt><trkpt lat="51.5406667" lon="0.066445"><ele>3.666666666666667</ele><time>2026-05-02T07:09:08.402Z</time></trkpt><trkpt lat="51.5408533" lon="0.066445"><ele>5.333333333333334</ele><time>2026-05-02T07:09:09.401Z</time></trkpt><trkpt lat="51.54104" lon="0.0664517"><ele>7.0</ele><time>2026-05-02T07:09:10.404Z</time></trkpt><trkpt lat="51.541225" lon="0.0664683"><ele>7.666666666666667</ele><time>2026-05-02T07:09:11.402Z</time></trkpt><trkpt lat="51.541405" lon="0.0664917"><ele>8.333333333333334</ele><time>2026-05-02T07:09:12.402Z</time></trkpt><trkpt lat="51.5415833" lon="0.0665317"><ele>9.0</ele><time>2026-05-02T07:09:13.402Z</time></trkpt><trkpt lat="51.5417633" lon="0.0665833"><ele>8.333333333333334</ele><time>2026-05-02T07:09:14.406Z</time></trkpt><trkpt lat="51.5419433" lon="0.0666433"><ele>7.666666666666667</ele><time>2026-05-02T07:09:15.405Z</time></trkpt><trkpt lat="51.5421233" lon="0.0667183"><ele>7.0</ele><time>2026-05-02T07:09:16.401Z</time></trkpt><trkpt lat="51.5423033" lon="0.0668083"><ele>5.333333333333334</ele><time>2026-05-02T07:09:17.406Z</time></trkpt><trkpt lat="51.5424767" lon="0.066915"><ele>3.666666666666667</ele><time>2026-05-02T07:09:18.405Z</time></trkpt><trkpt lat="51.5426533" lon="0.0670317"><ele>2.0</ele><time>2026-05-02T07:09:19.405Z</time></trkpt><trkpt lat="51.5428267" lon="0.067155"><ele>2.6666666666666665</ele><time>2026-05-02T07:09:20.405Z</time></trkpt><trkpt lat="51.5429967" lon="0.0672783"><ele>3.333333333333333</ele><time>2026-05-02T07:09:21.404Z</time></trkpt><trkpt lat="51.5431667" lon="0.0674"><ele>4.0</ele><time>2026-05-02T07:09:22.404Z</time></trkpt><trkpt lat="51.5433383" lon="0.06752"><ele>4.333333333333333</ele><time>2026-05-02T07:09:23.405Z</time></trkpt><trkpt lat="51.5435133" lon="0.06764"><ele>4.666666666666667</ele><time>2026-05-02T07:09:24.406Z</time></trkpt><trkpt lat="51.5436917" lon="0.0677633"><ele>5.0</ele><time>2026-05-02T07:09:25.405Z</time></trkpt><trkpt lat="51.5438833" lon="0.0678783"><ele>5.666666666666667</ele><time>2026-05-02T07:09:26.406Z</time></trkpt><trkpt lat="51.544085" lon="0.0679883"><ele>6.333333333333334</ele><time>2026-05-02T07:09:27.405Z</time></trkpt><trkpt lat="51.5443017" lon="0.0680883"><ele>7.0</ele><time>2026-05-02T07:09:28.407Z</time></trkpt><trkpt lat="51.5445283" lon="0.068185"><ele>7.0</ele><time>2026-05-02T07:09:29.405Z</time></trkpt><trkpt lat="51.544755" lon="0.0682633"><ele>7.0</ele><time>2026-05-02T07:09:30.406Z</time></trkpt><trkpt lat="51.5449717" lon="0.0683267"><ele>7.0</ele><time>2026-05-02T07:09:31.406Z</time></trkpt><trkpt lat="51.5451833" lon="0.0683783"><ele>7.0</ele><time>2026-05-02T07:09:32.405Z</time></trkpt><trkpt lat="51.5453933" lon="0.06842"><ele>7.0</ele><time>2026-05-02T07:09:33.405Z</time></trkpt><trkpt lat="51.5455967" lon="0.068455"><ele>6.666666666666667</ele><time>2026-05-02T07:09:34.405Z</time></trkpt><trkpt lat="51.5457967" lon="0.0684783"><ele>6.333333333333334</ele><time>2026-05-02T07:09:35.405Z</time></trkpt><trkpt lat="51.545995" lon="0.068495"><ele>6.0</ele><time>2026-05-02T07:09:36.405Z</time></trkpt><trkpt lat="51.5461967" lon="0.0685067"><ele>6.0</ele><time>2026-05-02T07:09:37.404Z</time></trkpt><trkpt lat="51.5464017" lon="0.068505"><ele>6.0</ele><time>2026-05-02T07:09:38.406Z</time></trkpt><trkpt lat="51.546605" lon="0.0684917"><ele>6.0</ele><time>2026-05-02T07:09:39.404Z</time></trkpt><trkpt lat="51.546805" lon="0.06847"><ele>6.0</ele><time>2026-05-02T07:09:40.405Z</time></trkpt><trkpt lat="51.547" lon="0.068445"><ele>6.0</ele><time>2026-05-02T07:09:41.405Z</time></trkpt><trkpt lat="51.5471917" lon="0.0684183"><ele>6.0</ele><time>2026-05-02T07:09:42.409Z</time></trkpt><trkpt lat="51.5473833" lon="0.0683933"><ele>6.0</ele><time>2026-05-02T07:09:43.406Z</time></trkpt><trkpt lat="51.547575" lon="0.068365"><ele>6.0</ele><time>2026-05-02T07:09:44.405Z</time></trkpt><trkpt lat="51.5477667" lon="0.0683333"><ele>6.0</ele><time>2026-05-02T07:09:45.406Z</time></trkpt><trkpt lat="51.5479567" lon="0.0683033"><ele>6.0</ele><time>2026-05-02T07:09:46.404Z</time></trkpt><trkpt lat="51.5481467" lon="0.0682783"><ele>6.0</ele><time>2026-05-02T07:09:47.401Z</time></trkpt><trkpt lat="51.5483383" lon="0.06825"><ele>6.0</ele><time>2026-05-02T07:09:48.402Z</time></trkpt><trkpt lat="51.5485283" lon="0.0682183"><ele>5.0</ele><time>2026-05-02T07:09:49.402Z</time></trkpt><trkpt lat="51.5487183" lon="0.0681867"><ele>4.0</ele><time>2026-05-02T07:09:50.402Z</time></trkpt><trkpt lat="51.548905" lon="0.0681583"><ele>3.0</ele><time>2026-05-02T07:09:51.403Z</time></trkpt><trkpt lat="51.5490933" lon="0.0681317"><ele>3.0</ele><time>2026-05-02T07:09:52.401Z</time></trkpt><trkpt lat="51.5492817" lon="0.0681067"><ele>3.0</ele><time>2026-05-02T07:09:53.401Z</time></trkpt><trkpt lat="51.54947" lon="0.068075"><ele>3.0</ele><time>2026-05-02T07:09:54.404Z</time></trkpt><trkpt lat="51.54966" lon="0.0680417"><ele>3.666666666666667</ele><time>2026-05-02T07:09:55.405Z</time></trkpt><trkpt lat="51.54985" lon="0.0680117"><ele>4.333333333333334</ele><time>2026-05-02T07:09:56.406Z</time></trkpt><trkpt lat="51.5500383" lon="0.0679767"><ele>5.0</ele><time>2026-05-02T07:09:57.406Z</time></trkpt><trkpt lat="51.5502267" lon="0.0679483"><ele>4.666666666666667</ele><time>2026-05-02T07:09:58.405Z</time></trkpt><trkpt lat="51.5504167" lon="0.0679183"><ele>4.333333333333333</ele><time>2026-05-02T07:09:59.408Z</time></trkpt><trkpt lat="51.550605" lon="0.0678883"><ele>4.0</ele><time>2026-05-02T07:10:00.406Z</time></trkpt><trkpt lat="51.5507933" lon="0.067855"><ele>4.0</ele><time>2026-05-02T07:10:01.401Z</time></trkpt><trkpt lat="51.55098" lon="0.0678233"><ele>4.0</ele><time>2026-05-02T07:10:02.405Z</time></trkpt><trkpt lat="51.551165" lon="0.0677917"><ele>4.0</ele><time>2026-05-02T07:10:03.405Z</time></trkpt><trkpt lat="51.55135" lon="0.0677567"><ele>4.333333333333333</ele><time>2026-05-02T07:10:04.406Z</time></trkpt><trkpt lat="51.5515367" lon="0.0677233"><ele>4.666666666666667</ele><time>2026-05-02T07:10:05.405Z</time></trkpt><trkpt lat="51.551725" lon="0.0676883"><ele>5.0</ele><time>2026-05-02T07:10:06.401Z</time></trkpt><trkpt lat="51.5519117" lon="0.067655"><ele>4.666666666666667</ele><time>2026-05-02T07:10:07.401Z</time></trkpt><trkpt lat="51.5521" lon="0.0676183"><ele>4.333333333333333</ele><time>2026-05-02T07:10:08.406Z</time></trkpt><trkpt lat="51.5522883" lon="0.0675867"><ele>4.0</ele><time>2026-05-02T07:10:09.405Z</time></trkpt><trkpt lat="51.5524767" lon="0.0675483"><ele>4.0</ele><time>2026-05-02T07:10:10.405Z</time></trkpt><trkpt lat="51.5526633" lon="0.06751"><ele>4.0</ele><time>2026-05-02T07:10:11.407Z</time></trkpt><trkpt lat="51.5528483" lon="0.0674717"><ele>4.0</ele><time>2026-05-02T07:10:12.404Z</time></trkpt><trkpt lat="51.553035" lon="0.0674383"><ele>5.333333333333333</ele><time>2026-05-02T07:10:13.405Z</time></trkpt><trkpt lat="51.5532217" lon="0.0674017"><ele>6.666666666666666</ele><time>2026-05-02T07:10:14.405Z</time></trkpt><trkpt lat="51.5534067" lon="0.0673717"><ele>8.0</ele><time>2026-05-02T07:10:15.405Z</time></trkpt><trkpt lat="51.5535917" lon="0.06734"><ele>7.666666666666666</ele><time>2026-05-02T07:10:16.403Z</time></trkpt><trkpt lat="51.5537733" lon="0.0672983"><ele>7.333333333333334</ele><time>2026-05-02T07:10:17.401Z</time></trkpt><trkpt lat="51.5539567" lon="0.0672467"><ele>7.0</ele><time>2026-05-02T07:10:18.401Z</time></trkpt><trkpt lat="51.5541383" lon="0.0671867"><ele>7.0</ele><time>2026-05-02T07:10:19.401Z</time></trkpt><trkpt lat="51.5543167" lon="0.0671167"><ele>7.0</ele><time>2026-05-02T07:10:20.407Z</time></trkpt><trkpt lat="51.5544967" lon="0.067035"><ele>7.0</ele><time>2026-05-02T07:10:21.402Z</time></trkpt><trkpt lat="51.5546733" lon="0.0669417"><ele>7.0</ele><time>2026-05-02T07:10:22.402Z</time></trkpt><trkpt lat="51.5548483" lon="0.06684"><ele>7.0</ele><time>2026-05-02T07:10:23.403Z</time></trkpt><trkpt lat="51.5550217" lon="0.0667233"><ele>7.0</ele><time>2026-05-02T07:10:24.405Z</time></trkpt><trkpt lat="51.555195" lon="0.0666017"><ele>7.0</ele><time>2026-05-02T07:10:25.405Z</time></trkpt><trkpt lat="51.5553667" lon="0.0664683"><ele>7.0</ele><time>2026-05-02T07:10:26.406Z</time></trkpt><trkpt lat="51.555535" lon="0.066325"><ele>7.0</ele><time>2026-05-02T07:10:27.406Z</time></trkpt><trkpt lat="51.5556983" lon="0.0661717"><ele>7.333333333333334</ele><time>2026-05-02T07:10:28.401Z</time></trkpt><trkpt lat="51.5558633" lon="0.06601"><ele>7.666666666666666</ele><time>2026-05-02T07:10:29.404Z</time></trkpt><trkpt lat="51.5560183" lon="0.0658383"><ele>8.0</ele><time>2026-05-02T07:10:30.406Z</time></trkpt><trkpt lat="51.55617" lon="0.0656583"><ele>8.0</ele><time>2026-05-02T07:10:31.405Z</time></trkpt><trkpt lat="51.556315" lon="0.0654683"><ele>8.0</ele><time>2026-05-02T07:10:32.406Z</time></trkpt><trkpt lat="51.5564583" lon="0.06527"><ele>8.0</ele><time>2026-05-02T07:10:33.405Z</time></trkpt><trkpt lat="51.5566" lon="0.0650717"><ele>7.666666666666666</ele><time>2026-05-02T07:10:34.405Z</time></trkpt><trkpt lat="51.5567433" lon="0.0648733"><ele>7.333333333333334</ele><time>2026-05-02T07:10:35.405Z</time></trkpt><trkpt lat="51.55689" lon="0.0646767"><ele>7.0</ele><time>2026-05-02T07:10:36.406Z</time></trkpt><trkpt lat="51.5570317" lon="0.0644717"><ele>7.666666666666667</ele><time>2026-05-02T07:10:37.405Z</time></trkpt><trkpt lat="51.55717" lon="0.0642617"><ele>8.333333333333334</ele><time>2026-05-02T07:10:38.405Z</time></trkpt><trkpt lat="51.557305" lon="0.0640483"><ele>9.0</ele><time>2026-05-02T07:10:39.409Z</time></trkpt><trkpt lat="51.5574417" lon="0.06384"><ele>9.333333333333334</ele><time>2026-05-02T07:10:40.405Z</time></trkpt><trkpt lat="51.5575767" lon="0.0636283"><ele>9.666666666666668</ele><time>2026-05-02T07:10:41.406Z</time></trkpt><trkpt lat="51.5577117" lon="0.063415"><ele>10.0</ele><time>2026-05-02T07:10:42.404Z</time></trkpt><trkpt lat="51.55784" lon="0.0631967"><ele>8.0</ele><time>2026-05-02T07:10:43.406Z</time></trkpt><trkpt lat="51.5579667" lon="0.062975"><ele>6.0</ele><time>2026-05-02T07:10:44.405Z</time></trkpt><trkpt lat="51.5580933" lon="0.0627533"><ele>4.0</ele><time>2026-05-02T07:10:45.404Z</time></trkpt><trkpt lat="51.5582217" lon="0.0625233"><ele>5.0</ele><time>2026-05-02T07:10:46.405Z</time></trkpt><trkpt lat="51.5583517" lon="0.0622817"><ele>6.0</ele><time>2026-05-02T07:10:47.402Z</time></trkpt><trkpt lat="51.5584883" lon="0.0620267"><ele>7.0</ele><time>2026-05-02T07:10:48.402Z</time></trkpt><trkpt lat="51.5586333" lon="0.0617617"><ele>7.0</ele><time>2026-05-02T07:10:49.401Z</time></trkpt><trkpt lat="51.558775" lon="0.0615017"><ele>7.0</ele><time>2026-05-02T07:10:50.402Z</time></trkpt><trkpt lat="51.5589167" lon="0.0612367"><ele>7.0</ele><time>2026-05-02T07:10:51.401Z</time></trkpt><trkpt lat="51.5590683" lon="0.0609683"><ele>6.666666666666667</ele><time>2026-05-02T07:10:52.402Z</time></trkpt><trkpt lat="51.559225" lon="0.0607133"><ele>6.333333333333334</ele><time>2026-05-02T07:10:53.401Z</time></trkpt><trkpt lat="51.55938" lon="0.0604717"><ele>6.0</ele><time>2026-05-02T07:10:54.408Z</time></trkpt><trkpt lat="51.55953" lon="0.0602367"><ele>6.333333333333334</ele><time>2026-05-02T07:10:55.407Z</time></trkpt><trkpt lat="51.5596783" lon="0.0600133"><ele>6.666666666666667</ele><time>2026-05-02T07:10:56.409Z</time></trkpt><trkpt lat="51.5598283" lon="0.059805"><ele>7.0</ele><time>2026-05-02T07:10:57.405Z</time></trkpt><trkpt lat="51.559975" lon="0.059605"><ele>6.0</ele><time>2026-05-02T07:10:58.405Z</time></trkpt><trkpt lat="51.56012" lon="0.0594067"><ele>5.0</ele><time>2026-05-02T07:10:59.407Z</time></trkpt><trkpt lat="51.5602717" lon="0.0592067"><ele>4.0</ele><time>2026-05-02T07:11:00.405Z</time></trkpt><trkpt lat="51.560435" lon="0.0590067"><ele>4.0</ele><time>2026-05-02T07:11:01.404Z</time></trkpt><trkpt lat="51.560605" lon="0.05881"><ele>4.0</ele><time>2026-05-02T07:11:02.406Z</time></trkpt><trkpt lat="51.5607717" lon="0.0586233"><ele>4.0</ele><time>2026-05-02T07:11:03.404Z</time></trkpt><trkpt lat="51.5609383" lon="0.0584433"><ele>4.0</ele><time>2026-05-02T07:11:04.406Z</time></trkpt><trkpt lat="51.561105" lon="0.0582633"><ele>4.0</ele><time>2026-05-02T07:11:05.405Z</time></trkpt><trkpt lat="51.561275" lon="0.05809"><ele>4.0</ele><time>2026-05-02T07:11:06.408Z</time></trkpt><trkpt lat="51.5614467" lon="0.057925"><ele>4.0</ele><time>2026-05-02T07:11:07.405Z</time></trkpt><trkpt lat="51.5616167" lon="0.05776"><ele>4.0</ele><time>2026-05-02T07:11:08.405Z</time></trkpt><trkpt lat="51.5617817" lon="0.057595"><ele>4.0</ele><time>2026-05-02T07:11:09.405Z</time></trkpt><trkpt lat="51.5619433" lon="0.05743"><ele>4.333333333333333</ele><time>2026-05-02T07:11:10.406Z</time></trkpt><trkpt lat="51.562105" lon="0.05727"><ele>4.666666666666667</ele><time>2026-05-02T07:11:11.404Z</time></trkpt><trkpt lat="51.562265" lon="0.0571133"><ele>5.0</ele><time>2026-05-02T07:11:12.405Z</time></trkpt><trkpt lat="51.562425" lon="0.0569567"><ele>5.0</ele><time>2026-05-02T07:11:13.402Z</time></trkpt><trkpt lat="51.5625867" lon="0.0568033"><ele>5.0</ele><time>2026-05-02T07:11:14.405Z</time></trkpt><trkpt lat="51.56275" lon="0.0566533"><ele>5.0</ele><time>2026-05-02T07:11:15.404Z</time></trkpt><trkpt lat="51.5629117" lon="0.0564983"><ele>5.333333333333334</ele><time>2026-05-02T07:11:16.406Z</time></trkpt><trkpt lat="51.5630733" lon="0.0563433"><ele>5.666666666666667</ele><time>2026-05-02T07:11:17.402Z</time></trkpt><trkpt lat="51.5632367" lon="0.0561917"><ele>6.0</ele><time>2026-05-02T07:11:18.402Z</time></trkpt><trkpt lat="51.5634017" lon="0.0560417"><ele>6.0</ele><time>2026-05-02T07:11:19.407Z</time></trkpt><trkpt lat="51.563565" lon="0.05589"><ele>6.0</ele><time>2026-05-02T07:11:20.401Z</time></trkpt><trkpt lat="51.5637283" lon="0.0557383"><ele>6.0</ele><time>2026-05-02T07:11:21.401Z</time></trkpt><trkpt lat="51.5638917" lon="0.05559"><ele>5.666666666666667</ele><time>2026-05-02T07:11:22.401Z</time></trkpt><trkpt lat="51.564055" lon="0.05544"><ele>5.333333333333334</ele><time>2026-05-02T07:11:23.402Z</time></trkpt><trkpt lat="51.5642217" lon="0.0552933"><ele>5.0</ele><time>2026-05-02T07:11:24.409Z</time></trkpt><trkpt lat="51.5643867" lon="0.0551483"><ele>5.333333333333334</ele><time>2026-05-02T07:11:25.402Z</time></trkpt><trkpt lat="51.5645517" lon="0.0550017"><ele>5.666666666666667</ele><time>2026-05-02T07:11:26.406Z</time></trkpt><trkpt lat="51.5647167" lon="0.0548533"><ele>6.0</ele><time>2026-05-02T07:11:27.406Z</time></trkpt><trkpt lat="51.564885" lon="0.05471"><ele>6.0</ele><time>2026-05-02T07:11:28.406Z</time></trkpt><trkpt lat="51.56505" lon="0.0545667"><ele>6.0</ele><time>2026-05-02T07:11:29.404Z</time></trkpt><trkpt lat="51.5652133" lon="0.0544217"><ele>6.0</ele><time>2026-05-02T07:11:30.404Z</time></trkpt><trkpt lat="51.5653767" lon="0.054275"><ele>6.0</ele><time>2026-05-02T07:11:31.405Z</time></trkpt><trkpt lat="51.5655467" lon="0.0541267"><ele>6.0</ele><time>2026-05-02T07:11:32.403Z</time></trkpt><trkpt lat="51.5657267" lon="0.0539717"><ele>6.0</ele><time>2026-05-02T07:11:33.402Z</time></trkpt><trkpt lat="51.565915" lon="0.0538017"><ele>6.0</ele><time>2026-05-02T07:11:34.401Z</time></trkpt><trkpt lat="51.566115" lon="0.053615"><ele>6.0</ele><time>2026-05-02T07:11:35.402Z</time></trkpt><trkpt lat="51.5663117" lon="0.0534233"><ele>6.0</ele><time>2026-05-02T07:11:36.401Z</time></trkpt><trkpt lat="51.5665033" lon="0.0532433"><ele>6.0</ele><time>2026-05-02T07:11:37.405Z</time></trkpt><trkpt lat="51.5666883" lon="0.05308"><ele>6.0</ele><time>2026-05-02T07:11:38.406Z</time></trkpt><trkpt lat="51.5668667" lon="0.05293"><ele>6.333333333333334</ele><time>2026-05-02T07:11:39.401Z</time></trkpt><trkpt lat="51.5670367" lon="0.0527917"><ele>6.666666666666667</ele><time>2026-05-02T07:11:40.402Z</time></trkpt><trkpt lat="51.5672017" lon="0.05266"><ele>7.0</ele><time>2026-05-02T07:11:41.401Z</time></trkpt><trkpt lat="51.56736" lon="0.05253"><ele>7.333333333333334</ele><time>2026-05-02T07:11:42.401Z</time></trkpt><trkpt lat="51.5675217" lon="0.0523983"><ele>7.666666666666666</ele><time>2026-05-02T07:11:43.402Z</time></trkpt><trkpt lat="51.5676933" lon="0.052265"><ele>8.0</ele><time>2026-05-02T07:11:44.402Z</time></trkpt><trkpt lat="51.567865" lon="0.05213"><ele>8.0</ele><time>2026-05-02T07:11:45.402Z</time></trkpt><trkpt lat="51.568035" lon="0.051995"><ele>8.0</ele><time>2026-05-02T07:11:46.402Z</time></trkpt><trkpt lat="51.568205" lon="0.05186"><ele>8.0</ele><time>2026-05-02T07:11:47.402Z</time></trkpt><trkpt lat="51.5683717" lon="0.0517267"><ele>8.333333333333332</ele><time>2026-05-02T07:11:48.401Z</time></trkpt><trkpt lat="51.5685383" lon="0.0515933"><ele>8.666666666666666</ele><time>2026-05-02T07:11:49.404Z</time></trkpt><trkpt lat="51.5687067" lon="0.0514617"><ele>9.0</ele><time>2026-05-02T07:11:50.403Z</time></trkpt><trkpt lat="51.568875" lon="0.05133"><ele>9.0</ele><time>2026-05-02T07:11:51.402Z</time></trkpt><trkpt lat="51.5690433" lon="0.0511967"><ele>9.0</ele><time>2026-05-02T07:11:52.402Z</time></trkpt><trkpt lat="51.5692133" lon="0.0510633"><ele>9.0</ele><time>2026-05-02T07:11:53.401Z</time></trkpt><trkpt lat="51.5693833" lon="0.05093"><ele>8.666666666666666</ele><time>2026-05-02T07:11:54.405Z</time></trkpt><trkpt lat="51.569555" lon="0.0507933"><ele>8.333333333333332</ele><time>2026-05-02T07:11:55.402Z</time></trkpt><trkpt lat="51.5697283" lon="0.0506567"><ele>8.0</ele><time>2026-05-02T07:11:56.401Z</time></trkpt><trkpt lat="51.5698967" lon="0.0505117"><ele>8.0</ele><time>2026-05-02T07:11:57.403Z</time></trkpt><trkpt lat="51.5700617" lon="0.05036"><ele>8.0</ele><time>2026-05-02T07:11:58.405Z</time></trkpt><trkpt lat="51.5702267" lon="0.0502083"><ele>8.0</ele><time>2026-05-02T07:11:59.401Z</time></trkpt><trkpt lat="51.57039" lon="0.0500567"><ele>7.666666666666666</ele><time>2026-05-02T07:12:00.401Z</time></trkpt><trkpt lat="51.570555" lon="0.0499017"><ele>7.333333333333334</ele><time>2026-05-02T07:12:01.401Z</time></trkpt><trkpt lat="51.5707167" lon="0.049745"><ele>7.0</ele><time>2026-05-02T07:12:02.402Z</time></trkpt><trkpt lat="51.5708767" lon="0.049585"><ele>7.0</ele><time>2026-05-02T07:12:03.402Z</time></trkpt><trkpt lat="51.57104" lon="0.0494267"><ele>7.0</ele><time>2026-05-02T07:12:04.407Z</time></trkpt><trkpt lat="51.5712033" lon="0.049265"><ele>7.0</ele><time>2026-05-02T07:12:05.401Z</time></trkpt><trkpt lat="51.571365" lon="0.0490983"><ele>7.333333333333334</ele><time>2026-05-02T07:12:06.402Z</time></trkpt><trkpt lat="51.571525" lon="0.0489283"><ele>7.666666666666666</ele><time>2026-05-02T07:12:07.406Z</time></trkpt><trkpt lat="51.5716833" lon="0.0487533"><ele>8.0</ele><time>2026-05-02T07:12:08.401Z</time></trkpt><trkpt lat="51.5718383" lon="0.0485783"><ele>8.0</ele><time>2026-05-02T07:12:09.405Z</time></trkpt><trkpt lat="51.571995" lon="0.0484"><ele>8.0</ele><time>2026-05-02T07:12:10.409Z</time></trkpt><trkpt lat="51.5721483" lon="0.0482183"><ele>8.0</ele><time>2026-05-02T07:12:11.407Z</time></trkpt><trkpt lat="51.5723" lon="0.0480333"><ele>8.333333333333332</ele><time>2026-05-02T07:12:12.404Z</time></trkpt><trkpt lat="51.57245" lon="0.047845"><ele>8.666666666666666</ele><time>2026-05-02T07:12:13.405Z</time></trkpt><trkpt lat="51.5726" lon="0.0476583"><ele>9.0</ele><time>2026-05-02T07:12:14.401Z</time></trkpt><trkpt lat="51.5727467" lon="0.04747"><ele>8.0</ele><time>2026-05-02T07:12:15.406Z</time></trkpt><trkpt lat="51.5728917" lon="0.04728"><ele>7.0</ele><time>2026-05-02T07:12:16.406Z</time></trkpt><trkpt lat="51.5730383" lon="0.0470867"><ele>6.0</ele><time>2026-05-02T07:12:17.405Z</time></trkpt><trkpt lat="51.5731833" lon="0.0468917"><ele>6.0</ele><time>2026-05-02T07:12:18.405Z</time></trkpt><trkpt lat="51.5733283" lon="0.0466983"><ele>6.0</ele><time>2026-05-02T07:12:19.406Z</time></trkpt><trkpt lat="51.5734767" lon="0.0465117"><ele>6.0</ele><time>2026-05-02T07:12:20.402Z</time></trkpt><trkpt lat="51.57363" lon="0.0463283"><ele>6.666666666666666</ele><time>2026-05-02T07:12:21.405Z</time></trkpt><trkpt lat="51.5737833" lon="0.0461517"><ele>7.333333333333333</ele><time>2026-05-02T07:12:22.405Z</time></trkpt><trkpt lat="51.5739383" lon="0.0459767"><ele>8.0</ele><time>2026-05-02T07:12:23.405Z</time></trkpt><trkpt lat="51.574095" lon="0.0458083"><ele>8.0</ele><time>2026-05-02T07:12:24.405Z</time></trkpt><trkpt lat="51.5742517" lon="0.0456483"><ele>8.0</ele><time>2026-05-02T07:12:25.404Z</time></trkpt><trkpt lat="51.5744117" lon="0.0454883"><ele>8.0</ele><time>2026-05-02T07:12:26.405Z</time></trkpt><trkpt lat="51.5745733" lon="0.045335"><ele>8.333333333333332</ele><time>2026-05-02T07:12:27.404Z</time></trkpt><trkpt lat="51.57474" lon="0.0451817"><ele>8.666666666666666</ele><time>2026-05-02T07:12:28.404Z</time></trkpt><trkpt lat="51.574905" lon="0.045035"><ele>9.0</ele><time>2026-05-02T07:12:29.405Z</time></trkpt><trkpt lat="51.5750683" lon="0.04489"><ele>9.0</ele><time>2026-05-02T07:12:30.404Z</time></trkpt><trkpt lat="51.5752333" lon="0.0447483"><ele>9.0</ele><time>2026-05-02T07:12:31.406Z</time></trkpt><trkpt lat="51.5754017" lon="0.0446067"><ele>9.0</ele><time>2026-05-02T07:12:32.405Z</time></trkpt><trkpt lat="51.57557" lon="0.0444683"><ele>9.0</ele><time>2026-05-02T07:12:33.406Z</time></trkpt><trkpt lat="51.5757383" lon="0.0443267"><ele>9.0</ele><time>2026-05-02T07:12:34.404Z</time></trkpt><trkpt lat="51.5759083" lon="0.0441867"><ele>9.0</ele><time>2026-05-02T07:12:35.406Z</time></trkpt><trkpt lat="51.5760783" lon="0.044045"><ele>9.666666666666666</ele><time>2026-05-02T07:12:36.406Z</time></trkpt><trkpt lat="51.57625" lon="0.0439033"><ele>10.333333333333332</ele><time>2026-05-02T07:12:37.405Z</time></trkpt><trkpt lat="51.5764183" lon="0.043765"><ele>11.0</ele><time>2026-05-02T07:12:38.406Z</time></trkpt><trkpt lat="51.5765883" lon="0.0436283"><ele>11.0</ele><time>2026-05-02T07:12:39.404Z</time></trkpt><trkpt lat="51.5767567" lon="0.0434933"><ele>11.0</ele><time>2026-05-02T07:12:40.406Z</time></trkpt><trkpt lat="51.5769283" lon="0.04336"><ele>11.0</ele><time>2026-05-02T07:12:41.404Z</time></trkpt><trkpt lat="51.5771017" lon="0.0432267"><ele>11.0</ele><time>2026-05-02T07:12:42.406Z</time></trkpt><trkpt lat="51.577275" lon="0.0430967"><ele>11.0</ele><time>2026-05-02T07:12:43.412Z</time></trkpt><trkpt lat="51.5897433" lon="0.03639"><ele>12.0</ele><time>2026-05-02T07:14:01.565Z</time></trkpt><trkpt lat="51.5898667" lon="0.0364333"><ele>13.0</ele><time>2026-05-02T07:14:02.067Z</time></trkpt><trkpt lat="51.5900017" lon="0.0363983"><ele>14.0</ele><time>2026-05-02T07:14:02.902Z</time></trkpt><trkpt lat="51.590245" lon="0.0364183"><ele>14.0</ele><time>2026-05-02T07:14:04.406Z</time></trkpt><trkpt lat="51.590405" lon="0.0364383"><ele>14.0</ele><time>2026-05-02T07:14:05.402Z</time></trkpt><trkpt lat="51.5905633" lon="0.0364733"><ele>14.0</ele><time>2026-05-02T07:14:06.402Z</time></trkpt><trkpt lat="51.5907267" lon="0.03652"><ele>14.0</ele><time>2026-05-02T07:14:07.401Z</time></trkpt><trkpt lat="51.5908917" lon="0.0365783"><ele>14.0</ele><time>2026-05-02T07:14:08.402Z</time></trkpt><trkpt lat="51.591055" lon="0.03666"><ele>14.0</ele><time>2026-05-02T07:14:09.406Z</time></trkpt><trkpt lat="51.5912183" lon="0.03674"><ele>14.0</ele><time>2026-05-02T07:14:10.403Z</time></trkpt><trkpt lat="51.591375" lon="0.036835"><ele>14.0</ele><time>2026-05-02T07:14:11.402Z</time></trkpt><trkpt lat="51.5915233" lon="0.03696"><ele>14.0</ele><time>2026-05-02T07:14:12.402Z</time></trkpt><trkpt lat="51.5916717" lon="0.03708"><ele>14.0</ele><time>2026-05-02T07:14:13.402Z</time></trkpt><trkpt lat="51.5918183" lon="0.037195"><ele>14.0</ele><time>2026-05-02T07:14:14.402Z</time></trkpt><trkpt lat="51.5919683" lon="0.0373017"><ele>14.0</ele><time>2026-05-02T07:14:15.402Z</time></trkpt><trkpt lat="51.5921" lon="0.0374033"><ele>14.5</ele><time>2026-05-02T07:14:16.401Z</time></trkpt><trkpt lat="51.5922217" lon="0.037515"><ele>15.0</ele><time>2026-05-02T07:14:17.405Z</time></trkpt><trkpt lat="51.5923483" lon="0.0376267"><ele>15.5</ele><time>2026-05-02T07:14:18.403Z</time></trkpt><trkpt lat="51.5924917" lon="0.0377367"><ele>16.0</ele><time>2026-05-02T07:14:19.402Z</time></trkpt><trkpt lat="51.5926517" lon="0.0378517"><ele>16.0</ele><time>2026-05-02T07:14:20.402Z</time></trkpt><trkpt lat="51.5928217" lon="0.0379667"><ele>16.0</ele><time>2026-05-02T07:14:21.402Z</time></trkpt><trkpt lat="51.5929967" lon="0.0380933"><ele>16.0</ele><time>2026-05-02T07:14:22.405Z</time></trkpt><trkpt lat="51.5931817" lon="0.0382233"><ele>15.0</ele><time>2026-05-02T07:14:23.401Z</time></trkpt><trkpt lat="51.5933617" lon="0.0383433"><ele>14.0</ele><time>2026-05-02T07:14:24.401Z</time></trkpt><trkpt lat="51.5935383" lon="0.03845"><ele>13.0</ele><time>2026-05-02T07:14:25.402Z</time></trkpt><trkpt lat="51.5937133" lon="0.038545"><ele>13.0</ele><time>2026-05-02T07:14:26.401Z</time></trkpt><trkpt lat="51.59389" lon="0.0386367"><ele>13.0</ele><time>2026-05-02T07:14:27.401Z</time></trkpt><trkpt lat="51.59407" lon="0.0387283"><ele>13.0</ele><time>2026-05-02T07:14:28.401Z</time></trkpt><trkpt lat="51.5942567" lon="0.03882"><ele>13.0</ele><time>2026-05-02T07:14:29.404Z</time></trkpt><trkpt lat="51.5944517" lon="0.038915"><ele>13.0</ele><time>2026-05-02T07:14:30.402Z</time></trkpt><trkpt lat="51.594645" lon="0.0390133"><ele>13.0</ele><time>2026-05-02T07:14:31.402Z</time></trkpt><trkpt lat="51.5948333" lon="0.03912"><ele>12.666666666666666</ele><time>2026-05-02T07:14:32.402Z</time></trkpt><trkpt lat="51.595015" lon="0.039235"><ele>12.333333333333332</ele><time>2026-05-02T07:14:33.404Z</time></trkpt><trkpt lat="51.5951967" lon="0.0393567"><ele>12.0</ele><time>2026-05-02T07:14:34.402Z</time></trkpt><trkpt lat="51.595375" lon="0.039485"><ele>12.0</ele><time>2026-05-02T07:14:35.401Z</time></trkpt><trkpt lat="51.59555" lon="0.0396283"><ele>12.0</ele><time>2026-05-02T07:14:36.405Z</time></trkpt><trkpt lat="51.5957267" lon="0.0397733"><ele>12.0</ele><time>2026-05-02T07:14:37.405Z</time></trkpt><trkpt lat="51.5959" lon="0.0399267"><ele>12.666666666666668</ele><time>2026-05-02T07:14:38.402Z</time></trkpt><trkpt lat="51.5960683" lon="0.040085"><ele>13.333333333333334</ele><time>2026-05-02T07:14:39.401Z</time></trkpt><trkpt lat="51.5962367" lon="0.0402533"><ele>14.0</ele><time>2026-05-02T07:14:40.403Z</time></trkpt><trkpt lat="51.5964117" lon="0.0404283"><ele>14.0</ele><time>2026-05-02T07:14:41.403Z</time></trkpt><trkpt lat="51.596585" lon="0.040615"><ele>14.0</ele><time>2026-05-02T07:14:42.401Z</time></trkpt><trkpt lat="51.5967583" lon="0.0408083"><ele>14.0</ele><time>2026-05-02T07:14:43.401Z</time></trkpt><trkpt lat="51.5969233" lon="0.0410083"><ele>14.333333333333334</ele><time>2026-05-02T07:14:44.404Z</time></trkpt><trkpt lat="51.5970783" lon="0.0412083"><ele>14.666666666666668</ele><time>2026-05-02T07:14:45.402Z</time></trkpt><trkpt lat="51.597225" lon="0.0414133"><ele>15.0</ele><time>2026-05-02T07:14:46.402Z</time></trkpt><trkpt lat="51.5973667" lon="0.0416217"><ele>15.333333333333332</ele><time>2026-05-02T07:14:47.402Z</time></trkpt><trkpt lat="51.5975133" lon="0.0418267"><ele>15.666666666666666</ele><time>2026-05-02T07:14:48.401Z</time></trkpt><trkpt lat="51.5976567" lon="0.04204"><ele>16.0</ele><time>2026-05-02T07:14:49.401Z</time></trkpt><trkpt lat="51.5978" lon="0.0422533"><ele>15.333333333333332</ele><time>2026-05-02T07:14:50.401Z</time></trkpt><trkpt lat="51.5979367" lon="0.042475"><ele>14.666666666666668</ele><time>2026-05-02T07:14:51.402Z</time></trkpt><trkpt lat="51.59807" lon="0.0427017"><ele>14.0</ele><time>2026-05-02T07:14:52.401Z</time></trkpt><trkpt lat="51.5982033" lon="0.0429233"><ele>14.0</ele><time>2026-05-02T07:14:53.401Z</time></trkpt><trkpt lat="51.59833" lon="0.0431533"><ele>14.0</ele><time>2026-05-02T07:14:54.403Z</time></trkpt><trkpt lat="51.59846" lon="0.04338"><ele>14.0</ele><time>2026-05-02T07:14:55.402Z</time></trkpt><trkpt lat="51.5985883" lon="0.043605"><ele>14.333333333333334</ele><time>2026-05-02T07:14:56.404Z</time></trkpt><trkpt lat="51.5987133" lon="0.0438317"><ele>14.666666666666668</ele><time>2026-05-02T07:14:57.403Z</time></trkpt><trkpt lat="51.5988383" lon="0.04405"><ele>15.0</ele><time>2026-05-02T07:14:58.402Z</time></trkpt><trkpt lat="51.5989667" lon="0.0442717"><ele>15.333333333333332</ele><time>2026-05-02T07:14:59.406Z</time></trkpt><trkpt lat="51.599095" lon="0.0444983"><ele>15.666666666666666</ele><time>2026-05-02T07:15:00.403Z</time></trkpt><trkpt lat="51.59923" lon="0.0447233"><ele>16.0</ele><time>2026-05-02T07:15:01.403Z</time></trkpt><trkpt lat="51.5993683" lon="0.0449483"><ele>15.666666666666666</ele><time>2026-05-02T07:15:02.404Z</time></trkpt><trkpt lat="51.5995033" lon="0.045175"><ele>15.333333333333332</ele><time>2026-05-02T07:15:03.405Z</time></trkpt><trkpt lat="51.59964" lon="0.045395"><ele>15.0</ele><time>2026-05-02T07:15:04.41Z</time></trkpt><trkpt lat="51.5997783" lon="0.0456"><ele>15.0</ele><time>2026-05-02T07:15:05.406Z</time></trkpt><trkpt lat="51.5999217" lon="0.045795"><ele>15.0</ele><time>2026-05-02T07:15:06.406Z</time></trkpt><trkpt lat="51.6000633" lon="0.0459833"><ele>15.0</ele><time>2026-05-02T07:15:07.407Z</time></trkpt><trkpt lat="51.6002033" lon="0.0461683"><ele>14.666666666666668</ele><time>2026-05-02T07:15:08.406Z</time></trkpt><trkpt lat="51.6003467" lon="0.04635"><ele>14.333333333333334</ele><time>2026-05-02T07:15:09.407Z</time></trkpt><trkpt lat="51.6004883" lon="0.04653"><ele>14.0</ele><time>2026-05-02T07:15:10.407Z</time></trkpt><trkpt lat="51.60063" lon="0.0467067"><ele>13.666666666666668</ele><time>2026-05-02T07:15:11.407Z</time></trkpt><trkpt lat="51.600775" lon="0.046875"><ele>13.333333333333332</ele><time>2026-05-02T07:15:12.407Z</time></trkpt><trkpt lat="51.600925" lon="0.0470383"><ele>13.0</ele><time>2026-05-02T07:15:13.407Z</time></trkpt><trkpt lat="51.60108" lon="0.0471967"><ele>13.0</ele><time>2026-05-02T07:15:14.405Z</time></trkpt><trkpt lat="51.60124" lon="0.0473483"><ele>13.0</ele><time>2026-05-02T07:15:15.406Z</time></trkpt><trkpt lat="51.6014033" lon="0.047505"><ele>13.0</ele><time>2026-05-02T07:15:16.402Z</time></trkpt><trkpt lat="51.6015633" lon="0.047655"><ele>13.333333333333332</ele><time>2026-05-02T07:15:17.406Z</time></trkpt><trkpt lat="51.6017283" lon="0.0477933"><ele>13.666666666666668</ele><time>2026-05-02T07:15:18.402Z</time></trkpt><trkpt lat="51.6018967" lon="0.0479217"><ele>14.0</ele><time>2026-05-02T07:15:19.404Z</time></trkpt><trkpt lat="51.602065" lon="0.0480467"><ele>14.333333333333334</ele><time>2026-05-02T07:15:20.404Z</time></trkpt><trkpt lat="51.6022317" lon="0.0481683"><ele>14.666666666666668</ele><time>2026-05-02T07:15:21.403Z</time></trkpt><trkpt lat="51.6024" lon="0.04828"><ele>15.0</ele><time>2026-05-02T07:15:22.402Z</time></trkpt><trkpt lat="51.6025633" lon="0.0483967"><ele>15.0</ele><time>2026-05-02T07:15:23.402Z</time></trkpt><trkpt lat="51.6027267" lon="0.0485083"><ele>15.0</ele><time>2026-05-02T07:15:24.404Z</time></trkpt><trkpt lat="51.6028967" lon="0.0486133"><ele>15.0</ele><time>2026-05-02T07:15:25.402Z</time></trkpt><trkpt lat="51.60307" lon="0.0487067"><ele>14.333333333333332</ele><time>2026-05-02T07:15:26.404Z</time></trkpt><trkpt lat="51.6032433" lon="0.0487917"><ele>13.666666666666666</ele><time>2026-05-02T07:15:27.403Z</time></trkpt><trkpt lat="51.60342" lon="0.0488683"><ele>13.0</ele><time>2026-05-02T07:15:28.402Z</time></trkpt><trkpt lat="51.6035967" lon="0.0489367"><ele>13.333333333333332</ele><time>2026-05-02T07:15:29.406Z</time></trkpt><trkpt lat="51.6037733" lon="0.048995"><ele>13.666666666666668</ele><time>2026-05-02T07:15:30.406Z</time></trkpt><trkpt lat="51.6039517" lon="0.0490433"><ele>14.0</ele><time>2026-05-02T07:15:31.408Z</time></trkpt><trkpt lat="51.6041317" lon="0.0490733"><ele>14.0</ele><time>2026-05-02T07:15:32.406Z</time></trkpt><trkpt lat="51.60431" lon="0.0490883"><ele>14.0</ele><time>2026-05-02T07:15:33.402Z</time></trkpt><trkpt lat="51.60449" lon="0.0490983"><ele>14.0</ele><time>2026-05-02T07:15:34.406Z</time></trkpt><trkpt lat="51.6046683" lon="0.0490967"><ele>14.0</ele><time>2026-05-02T07:15:35.405Z</time></trkpt><trkpt lat="51.60485" lon="0.0490817"><ele>14.0</ele><time>2026-05-02T07:15:36.406Z</time></trkpt><trkpt lat="51.6050317" lon="0.0490533"><ele>14.0</ele><time>2026-05-02T07:15:37.403Z</time></trkpt><trkpt lat="51.6052133" lon="0.049015"><ele>14.333333333333334</ele><time>2026-05-02T07:15:38.405Z</time></trkpt><trkpt lat="51.605395" lon="0.048955"><ele>14.666666666666668</ele><time>2026-05-02T07:15:39.406Z</time></trkpt><trkpt lat="51.605575" lon="0.0488767"><ele>15.0</ele><time>2026-05-02T07:15:40.407Z</time></trkpt><trkpt lat="51.6057567" lon="0.0487867"><ele>15.0</ele><time>2026-05-02T07:15:41.406Z</time></trkpt><trkpt lat="51.6059367" lon="0.0486933"><ele>15.0</ele><time>2026-05-02T07:15:42.407Z</time></trkpt><trkpt lat="51.6061183" lon="0.0485983"><ele>15.0</ele><time>2026-05-02T07:15:43.407Z</time></trkpt><trkpt lat="51.6063033" lon="0.0485"><ele>14.666666666666668</ele><time>2026-05-02T07:15:44.406Z</time></trkpt><trkpt lat="51.6064933" lon="0.0484033"><ele>14.333333333333334</ele><time>2026-05-02T07:15:45.409Z</time></trkpt><trkpt lat="51.60669" lon="0.0483067"><ele>14.0</ele><time>2026-05-02T07:15:46.406Z</time></trkpt><trkpt lat="51.606895" lon="0.0482183"><ele>13.5</ele><time>2026-05-02T07:15:47.403Z</time></trkpt><trkpt lat="51.60711" lon="0.0481333"><ele>13.0</ele><time>2026-05-02T07:15:48.407Z</time></trkpt><trkpt lat="51.607335" lon="0.04806"><ele>13.0</ele><time>2026-05-02T07:15:49.403Z</time></trkpt><trkpt lat="51.6075733" lon="0.0480033"><ele>13.0</ele><time>2026-05-02T07:15:50.404Z</time></trkpt><trkpt lat="51.6078183" lon="0.047965"><ele>12.5</ele><time>2026-05-02T07:15:51.405Z</time></trkpt><trkpt lat="51.6080617" lon="0.0479433"><ele>12.0</ele><time>2026-05-02T07:15:52.404Z</time></trkpt><trkpt lat="51.60831" lon="0.0479383"><ele>12.0</ele><time>2026-05-02T07:15:53.404Z</time></trkpt><trkpt lat="51.6085567" lon="0.0479583"><ele>12.0</ele><time>2026-05-02T07:15:54.406Z</time></trkpt><trkpt lat="51.60881" lon="0.048"><ele>13.0</ele><time>2026-05-02T07:15:55.404Z</time></trkpt><trkpt lat="51.6090633" lon="0.0480717"><ele>14.0</ele><time>2026-05-02T07:15:56.409Z</time></trkpt><trkpt lat="51.6093267" lon="0.0481733"><ele>14.5</ele><time>2026-05-02T07:15:57.405Z</time></trkpt><trkpt lat="51.609585" lon="0.0483083"><ele>15.0</ele><time>2026-05-02T07:15:58.405Z</time></trkpt><trkpt lat="51.609835" lon="0.0484633"><ele>15.0</ele><time>2026-05-02T07:15:59.405Z</time></trkpt><trkpt lat="51.61007" lon="0.0486333"><ele>15.0</ele><time>2026-05-02T07:16:00.405Z</time></trkpt><trkpt lat="51.6102967" lon="0.0488233"><ele>14.5</ele><time>2026-05-02T07:16:01.406Z</time></trkpt><trkpt lat="51.610515" lon="0.0490383"><ele>14.0</ele><time>2026-05-02T07:16:02.407Z</time></trkpt><trkpt lat="51.610725" lon="0.0492717"><ele>14.0</ele><time>2026-05-02T07:16:03.405Z</time></trkpt><trkpt lat="51.6109233" lon="0.0495233"><ele>14.0</ele><time>2026-05-02T07:16:04.403Z</time></trkpt><trkpt lat="51.6111067" lon="0.0498033"><ele>14.0</ele><time>2026-05-02T07:16:05.405Z</time></trkpt><trkpt lat="51.6112833" lon="0.0500983"><ele>14.0</ele><time>2026-05-02T07:16:06.405Z</time></trkpt><trkpt lat="51.6114517" lon="0.0504117"><ele>14.0</ele><time>2026-05-02T07:16:07.408Z</time></trkpt><trkpt lat="51.6116133" lon="0.0507417"><ele>14.0</ele><time>2026-05-02T07:16:08.404Z</time></trkpt><trkpt lat="51.61177" lon="0.05107"><ele>14.0</ele><time>2026-05-02T07:16:09.406Z</time></trkpt><trkpt lat="51.61192" lon="0.0514083"><ele>14.0</ele><time>2026-05-02T07:16:10.407Z</time></trkpt><trkpt lat="51.6120683" lon="0.0517617"><ele>15.5</ele><time>2026-05-02T07:16:11.406Z</time></trkpt><trkpt lat="51.6122133" lon="0.0521167"><ele>17.0</ele><time>2026-05-02T07:16:12.406Z</time></trkpt><trkpt lat="51.6123567" lon="0.05247"><ele>17.5</ele><time>2026-05-02T07:16:13.406Z</time></trkpt><trkpt lat="51.6125017" lon="0.0528267"><ele>18.0</ele><time>2026-05-02T07:16:14.406Z</time></trkpt><trkpt lat="51.6126417" lon="0.0531933"><ele>17.5</ele><time>2026-05-02T07:16:15.406Z</time></trkpt><trkpt lat="51.6127833" lon="0.0535567"><ele>17.0</ele><time>2026-05-02T07:16:16.406Z</time></trkpt><trkpt lat="51.6129283" lon="0.0539233"><ele>18.0</ele><time>2026-05-02T07:16:17.403Z</time></trkpt><trkpt lat="51.613075" lon="0.0543017"><ele>19.0</ele><time>2026-05-02T07:16:18.402Z</time></trkpt><trkpt lat="51.61323" lon="0.0546883"><ele>19.0</ele><time>2026-05-02T07:16:19.402Z</time></trkpt><trkpt lat="51.6133917" lon="0.0550833"><ele>19.0</ele><time>2026-05-02T07:16:20.402Z</time></trkpt><trkpt lat="51.6135633" lon="0.05548"><ele>19.0</ele><time>2026-05-02T07:16:21.403Z</time></trkpt><trkpt lat="51.613735" lon="0.05587"><ele>19.0</ele><time>2026-05-02T07:16:22.403Z</time></trkpt><trkpt lat="51.613895" lon="0.0562533"><ele>19.0</ele><time>2026-05-02T07:16:23.402Z</time></trkpt><trkpt lat="51.6140467" lon="0.0566217"><ele>19.0</ele><time>2026-05-02T07:16:24.404Z</time></trkpt><trkpt lat="51.6141933" lon="0.0569783"><ele>19.0</ele><time>2026-05-02T07:16:25.403Z</time></trkpt><trkpt lat="51.6143383" lon="0.0573267"><ele>19.0</ele><time>2026-05-02T07:16:26.407Z</time></trkpt><trkpt lat="51.6144933" lon="0.05766"><ele>20.0</ele><time>2026-05-02T07:16:27.402Z</time></trkpt><trkpt lat="51.614655" lon="0.05798"><ele>21.0</ele><time>2026-05-02T07:16:28.403Z</time></trkpt><trkpt lat="51.6148217" lon="0.058295"><ele>21.0</ele><time>2026-05-02T07:16:29.403Z</time></trkpt><trkpt lat="51.6149917" lon="0.0586033"><ele>21.0</ele><time>2026-05-02T07:16:30.405Z</time></trkpt><trkpt lat="51.6151733" lon="0.0588983"><ele>21.0</ele><time>2026-05-02T07:16:31.406Z</time></trkpt><trkpt lat="51.6153617" lon="0.0591883"><ele>21.0</ele><time>2026-05-02T07:16:32.406Z</time></trkpt><trkpt lat="51.615555" lon="0.0594717"><ele>21.0</ele><time>2026-05-02T07:16:33.402Z</time></trkpt><trkpt lat="51.6157517" lon="0.0597533"><ele>21.0</ele><time>2026-05-02T07:16:34.403Z</time></trkpt><trkpt lat="51.6159517" lon="0.0600333"><ele>22.5</ele><time>2026-05-02T07:16:35.402Z</time></trkpt><trkpt lat="51.6161567" lon="0.0603017"><ele>24.0</ele><time>2026-05-02T07:16:36.402Z</time></trkpt><trkpt lat="51.6163667" lon="0.0605583"><ele>24.5</ele><time>2026-05-02T07:16:37.402Z</time></trkpt><trkpt lat="51.6165783" lon="0.0608133"><ele>25.0</ele><time>2026-05-02T07:16:38.405Z</time></trkpt><trkpt lat="51.6167967" lon="0.061055"><ele>24.5</ele><time>2026-05-02T07:16:39.405Z</time></trkpt><trkpt lat="51.6170167" lon="0.0612833"><ele>24.0</ele><time>2026-05-02T07:16:40.407Z</time></trkpt><trkpt lat="51.6172417" lon="0.0614983"><ele>24.0</ele><time>2026-05-02T07:16:41.407Z</time></trkpt><trkpt lat="51.617475" lon="0.0616967"><ele>24.0</ele><time>2026-05-02T07:16:42.403Z</time></trkpt><trkpt lat="51.6177067" lon="0.06189"><ele>23.5</ele><time>2026-05-02T07:16:43.403Z</time></trkpt><trkpt lat="51.617945" lon="0.0620783"><ele>23.0</ele><time>2026-05-02T07:16:44.405Z</time></trkpt><trkpt lat="51.618195" lon="0.0622683"><ele>23.0</ele><time>2026-05-02T07:16:45.406Z</time></trkpt><trkpt lat="51.6184533" lon="0.0624467"><ele>23.0</ele><time>2026-05-02T07:16:46.406Z</time></trkpt><trkpt lat="51.61871" lon="0.0626133"><ele>23.5</ele><time>2026-05-02T07:16:47.405Z</time></trkpt><trkpt lat="51.6189667" lon="0.0627667"><ele>24.0</ele><time>2026-05-02T07:16:48.403Z</time></trkpt><trkpt lat="51.6192233" lon="0.0628983"><ele>24.0</ele><time>2026-05-02T07:16:49.403Z</time></trkpt><trkpt lat="51.6194833" lon="0.0630183"><ele>24.0</ele><time>2026-05-02T07:16:50.405Z</time></trkpt><trkpt lat="51.6197533" lon="0.0631233"><ele>24.0</ele><time>2026-05-02T07:16:51.403Z</time></trkpt><trkpt lat="51.6200283" lon="0.0632183"><ele>24.0</ele><time>2026-05-02T07:16:52.403Z</time></trkpt><trkpt lat="51.6203083" lon="0.063305"><ele>24.5</ele><time>2026-05-02T07:16:53.402Z</time></trkpt><trkpt lat="51.6205883" lon="0.0633783"><ele>25.0</ele><time>2026-05-02T07:16:54.402Z</time></trkpt><trkpt lat="51.62087" lon="0.063445"><ele>24.5</ele><time>2026-05-02T07:16:55.402Z</time></trkpt><trkpt lat="51.621155" lon="0.0635017"><ele>24.0</ele><time>2026-05-02T07:16:56.402Z</time></trkpt><trkpt lat="51.6214433" lon="0.0635533"><ele>24.0</ele><time>2026-05-02T07:16:57.404Z</time></trkpt><trkpt lat="51.6217367" lon="0.063595"><ele>24.0</ele><time>2026-05-02T07:16:58.403Z</time></trkpt><trkpt lat="51.6220367" lon="0.0636383"><ele>25.0</ele><time>2026-05-02T07:16:59.402Z</time></trkpt><trkpt lat="51.62234" lon="0.0636833"><ele>26.0</ele><time>2026-05-02T07:17:00.403Z</time></trkpt><trkpt lat="51.6226383" lon="0.0637367"><ele>25.0</ele><time>2026-05-02T07:17:01.403Z</time></trkpt><trkpt lat="51.62293" lon="0.063795"><ele>24.0</ele><time>2026-05-02T07:17:02.404Z</time></trkpt><trkpt lat="51.6232183" lon="0.0638583"><ele>24.0</ele><time>2026-05-02T07:17:03.402Z</time></trkpt><trkpt lat="51.623505" lon="0.0639333"><ele>24.0</ele><time>2026-05-02T07:17:04.403Z</time></trkpt><trkpt lat="51.6237883" lon="0.0640217"><ele>23.0</ele><time>2026-05-02T07:17:05.403Z</time></trkpt><trkpt lat="51.6240667" lon="0.0641233"><ele>22.0</ele><time>2026-05-02T07:17:06.407Z</time></trkpt><trkpt lat="51.6243483" lon="0.0642283"><ele>23.5</ele><time>2026-05-02T07:17:07.406Z</time></trkpt><trkpt lat="51.6246333" lon="0.06434"><ele>25.0</ele><time>2026-05-02T07:17:08.403Z</time></trkpt><trkpt lat="51.6249183" lon="0.0644667"><ele>25.0</ele><time>2026-05-02T07:17:09.403Z</time></trkpt><trkpt lat="51.6252067" lon="0.0646083"><ele>25.0</ele><time>2026-05-02T07:17:10.402Z</time></trkpt><trkpt lat="51.6254867" lon="0.064765"><ele>25.0</ele><time>2026-05-02T07:17:11.404Z</time></trkpt><trkpt lat="51.6257617" lon="0.0649283"><ele>25.0</ele><time>2026-05-02T07:17:12.404Z</time></trkpt><trkpt lat="51.6260283" lon="0.065095"><ele>26.0</ele><time>2026-05-02T07:17:13.403Z</time></trkpt><trkpt lat="51.626285" lon="0.06526"><ele>27.0</ele><time>2026-05-02T07:17:14.407Z</time></trkpt><trkpt lat="51.6265283" lon="0.0654217"><ele>27.0</ele><time>2026-05-02T07:17:15.403Z</time></trkpt><trkpt lat="51.6267567" lon="0.065585"><ele>27.0</ele><time>2026-05-02T07:17:16.403Z</time></trkpt><trkpt lat="51.626975" lon="0.06575"><ele>26.5</ele><time>2026-05-02T07:17:17.403Z</time></trkpt><trkpt lat="51.6271883" lon="0.0659233"><ele>26.0</ele><time>2026-05-02T07:17:18.409Z</time></trkpt><trkpt lat="51.6274017" lon="0.0661017"><ele>26.0</ele><time>2026-05-02T07:17:19.405Z</time></trkpt><trkpt lat="51.627615" lon="0.0662883"><ele>26.0</ele><time>2026-05-02T07:17:20.404Z</time></trkpt><trkpt lat="51.62783" lon="0.0664817"><ele>27.5</ele><time>2026-05-02T07:17:21.403Z</time></trkpt><trkpt lat="51.6280467" lon="0.0666833"><ele>29.0</ele><time>2026-05-02T07:17:22.402Z</time></trkpt><trkpt lat="51.628265" lon="0.0668967"><ele>29.0</ele><time>2026-05-02T07:17:23.406Z</time></trkpt><trkpt lat="51.628475" lon="0.0671183"><ele>29.0</ele><time>2026-05-02T07:17:24.406Z</time></trkpt><trkpt lat="51.6286867" lon="0.0673417"><ele>26.5</ele><time>2026-05-02T07:17:25.406Z</time></trkpt><trkpt lat="51.628895" lon="0.0675717"><ele>24.0</ele><time>2026-05-02T07:17:26.405Z</time></trkpt><trkpt lat="51.6290967" lon="0.0678083"><ele>24.0</ele><time>2026-05-02T07:17:27.407Z</time></trkpt><trkpt lat="51.629295" lon="0.0680517"><ele>24.0</ele><time>2026-05-02T07:17:28.403Z</time></trkpt><trkpt lat="51.6294917" lon="0.0683"><ele>25.0</ele><time>2026-05-02T07:17:29.404Z</time></trkpt><trkpt lat="51.6296883" lon="0.0685633"><ele>26.0</ele><time>2026-05-02T07:17:30.402Z</time></trkpt><trkpt lat="51.629885" lon="0.0688417"><ele>27.0</ele><time>2026-05-02T07:17:31.407Z</time></trkpt><trkpt lat="51.63009" lon="0.0691183"><ele>28.0</ele><time>2026-05-02T07:17:32.403Z</time></trkpt><trkpt lat="51.6303" lon="0.0693867"><ele>27.0</ele><time>2026-05-02T07:17:33.403Z</time></trkpt><trkpt lat="51.63051" lon="0.0696533"><ele>26.0</ele><time>2026-05-02T07:17:34.404Z</time></trkpt><trkpt lat="51.6307233" lon="0.0699233"><ele>26.5</ele><time>2026-05-02T07:17:35.402Z</time></trkpt><trkpt lat="51.630935" lon="0.0701817"><ele>27.0</ele><time>2026-05-02T07:17:36.403Z</time></trkpt><trkpt lat="51.6311367" lon="0.0704383"><ele>28.5</ele><time>2026-05-02T07:17:37.402Z</time></trkpt><trkpt lat="51.6313367" lon="0.0706883"><ele>30.0</ele><time>2026-05-02T07:17:38.405Z</time></trkpt><trkpt lat="51.6315333" lon="0.0709483"><ele>31.0</ele><time>2026-05-02T07:17:39.402Z</time></trkpt><trkpt lat="51.63173" lon="0.0712117"><ele>32.0</ele><time>2026-05-02T07:17:40.402Z</time></trkpt><trkpt lat="51.6319333" lon="0.0714867"><ele>31.5</ele><time>2026-05-02T07:17:41.403Z</time></trkpt><trkpt lat="51.6321383" lon="0.0717717"><ele>31.0</ele><time>2026-05-02T07:17:42.403Z</time></trkpt><trkpt lat="51.6323433" lon="0.0720533"><ele>31.0</ele><time>2026-05-02T07:17:43.402Z</time></trkpt><trkpt lat="51.63255" lon="0.072345"><ele>31.0</ele><time>2026-05-02T07:17:44.403Z</time></trkpt><trkpt lat="51.63276" lon="0.0726533"><ele>30.0</ele><time>2026-05-02T07:17:45.406Z</time></trkpt><trkpt lat="51.63298" lon="0.07297"><ele>29.0</ele><time>2026-05-02T07:17:46.403Z</time></trkpt><trkpt lat="51.6332067" lon="0.0732833"><ele>29.0</ele><time>2026-05-02T07:17:47.403Z</time></trkpt><trkpt lat="51.6334333" lon="0.0735967"><ele>29.0</ele><time>2026-05-02T07:17:48.409Z</time></trkpt><trkpt lat="51.63366" lon="0.0739"><ele>28.5</ele><time>2026-05-02T07:17:49.402Z</time></trkpt><trkpt lat="51.633885" lon="0.0742017"><ele>28.0</ele><time>2026-05-02T07:17:50.404Z</time></trkpt><trkpt lat="51.63411" lon="0.0745067"><ele>28.0</ele><time>2026-05-02T07:17:51.404Z</time></trkpt><trkpt lat="51.634335" lon="0.0748167"><ele>28.0</ele><time>2026-05-02T07:17:52.402Z</time></trkpt><trkpt lat="51.6345683" lon="0.075135"><ele>27.0</ele><time>2026-05-02T07:17:53.402Z</time></trkpt><trkpt lat="51.6348083" lon="0.0754533"><ele>26.0</ele><time>2026-05-02T07:17:54.403Z</time></trkpt><trkpt lat="51.635045" lon="0.0757767"><ele>26.0</ele><time>2026-05-02T07:17:55.402Z</time></trkpt><trkpt lat="51.6352667" lon="0.0760883"><ele>26.0</ele><time>2026-05-02T07:17:56.406Z</time></trkpt><trkpt lat="51.63547" lon="0.0764017"><ele>26.0</ele><time>2026-05-02T07:17:57.407Z</time></trkpt><trkpt lat="51.6356667" lon="0.076705"><ele>26.0</ele><time>2026-05-02T07:17:58.402Z</time></trkpt><trkpt lat="51.6358633" lon="0.0769867"><ele>26.0</ele><time>2026-05-02T07:17:59.403Z</time></trkpt><trkpt lat="51.6360533" lon="0.0772667"><ele>26.0</ele><time>2026-05-02T07:18:00.403Z</time></trkpt><trkpt lat="51.6362383" lon="0.077545"><ele>26.5</ele><time>2026-05-02T07:18:01.402Z</time></trkpt><trkpt lat="51.63642" lon="0.0778233"><ele>27.0</ele><time>2026-05-02T07:18:02.405Z</time></trkpt><trkpt lat="51.636605" lon="0.0780983"><ele>26.5</ele><time>2026-05-02T07:18:03.402Z</time></trkpt><trkpt lat="51.6367933" lon="0.0783683"><ele>26.0</ele><time>2026-05-02T07:18:04.402Z</time></trkpt><trkpt lat="51.636985" lon="0.07864"><ele>26.0</ele><time>2026-05-02T07:18:05.402Z</time></trkpt><trkpt lat="51.6371767" lon="0.078915"><ele>26.0</ele><time>2026-05-02T07:18:06.404Z</time></trkpt><trkpt lat="51.6373683" lon="0.079195"><ele>25.5</ele><time>2026-05-02T07:18:07.403Z</time></trkpt><trkpt lat="51.63756" lon="0.07948"><ele>25.0</ele><time>2026-05-02T07:18:08.402Z</time></trkpt><trkpt lat="51.63775" lon="0.0797683"><ele>23.5</ele><time>2026-05-02T07:18:09.403Z</time></trkpt><trkpt lat="51.63794" lon="0.080065"><ele>22.0</ele><time>2026-05-02T07:18:10.403Z</time></trkpt><trkpt lat="51.6381367" lon="0.0803483"><ele>22.0</ele><time>2026-05-02T07:18:11.406Z</time></trkpt><trkpt lat="51.6383283" lon="0.0806383"><ele>22.0</ele><time>2026-05-02T07:18:12.406Z</time></trkpt><trkpt lat="51.6385183" lon="0.0809333"><ele>20.5</ele><time>2026-05-02T07:18:13.407Z</time></trkpt><trkpt lat="51.6387117" lon="0.0812267"><ele>19.0</ele><time>2026-05-02T07:18:14.403Z</time></trkpt><trkpt lat="51.638905" lon="0.08152"><ele>20.5</ele><time>2026-05-02T07:18:15.406Z</time></trkpt><trkpt lat="51.6390967" lon="0.0818117"><ele>22.0</ele><time>2026-05-02T07:18:16.406Z</time></trkpt><trkpt lat="51.6392867" lon="0.0821067"><ele>21.5</ele><time>2026-05-02T07:18:17.402Z</time></trkpt><trkpt lat="51.63948" lon="0.0824"><ele>21.0</ele><time>2026-05-02T07:18:18.407Z</time></trkpt><trkpt lat="51.6396667" lon="0.0827"><ele>21.0</ele><time>2026-05-02T07:18:19.406Z</time></trkpt><trkpt lat="51.6398583" lon="0.0830117"><ele>21.0</ele><time>2026-05-02T07:18:20.405Z</time></trkpt><trkpt lat="51.640055" lon="0.0833317"><ele>22.0</ele><time>2026-05-02T07:18:21.405Z</time></trkpt><trkpt lat="51.6402583" lon="0.08366"><ele>23.0</ele><time>2026-05-02T07:18:22.406Z</time></trkpt><trkpt lat="51.640465" lon="0.083995"><ele>23.0</ele><time>2026-05-02T07:18:23.406Z</time></trkpt><trkpt lat="51.640675" lon="0.084335"><ele>23.0</ele><time>2026-05-02T07:18:24.406Z</time></trkpt><trkpt lat="51.6408833" lon="0.08467"><ele>23.5</ele><time>2026-05-02T07:18:25.406Z</time></trkpt><trkpt lat="51.64109" lon="0.0850033"><ele>24.0</ele><time>2026-05-02T07:18:26.406Z</time></trkpt><trkpt lat="51.6413" lon="0.0853433"><ele>24.0</ele><time>2026-05-02T07:18:27.406Z</time></trkpt><trkpt lat="51.6415083" lon="0.0856933"><ele>24.0</ele><time>2026-05-02T07:18:28.406Z</time></trkpt><trkpt lat="51.641715" lon="0.0860417"><ele>24.0</ele><time>2026-05-02T07:18:29.406Z</time></trkpt><trkpt lat="51.641915" lon="0.0863917"><ele>24.0</ele><time>2026-05-02T07:18:30.406Z</time></trkpt><trkpt lat="51.642115" lon="0.0867417"><ele>23.5</ele><time>2026-05-02T07:18:31.408Z</time></trkpt><trkpt lat="51.6423167" lon="0.0870833"><ele>23.0</ele><time>2026-05-02T07:18:32.403Z</time></trkpt><trkpt lat="51.6425133" lon="0.0874217"><ele>23.0</ele><time>2026-05-02T07:18:33.403Z</time></trkpt><trkpt lat="51.6427167" lon="0.0877583"><ele>23.0</ele><time>2026-05-02T07:18:34.408Z</time></trkpt><trkpt lat="51.6429217" lon="0.08811"><ele>23.5</ele><time>2026-05-02T07:18:35.407Z</time></trkpt><trkpt lat="51.6431217" lon="0.0884633"><ele>24.0</ele><time>2026-05-02T07:18:36.405Z</time></trkpt><trkpt lat="51.64332" lon="0.088805"><ele>24.0</ele><time>2026-05-02T07:18:37.406Z</time></trkpt><trkpt lat="51.643515" lon="0.0891433"><ele>24.0</ele><time>2026-05-02T07:18:38.402Z</time></trkpt><trkpt lat="51.64371" lon="0.0894833"><ele>24.5</ele><time>2026-05-02T07:18:39.404Z</time></trkpt><trkpt lat="51.643905" lon="0.0898217"><ele>25.0</ele><time>2026-05-02T07:18:40.404Z</time></trkpt><trkpt lat="51.6440983" lon="0.0901633"><ele>25.0</ele><time>2026-05-02T07:18:41.404Z</time></trkpt><trkpt lat="51.6442917" lon="0.0905067"><ele>25.0</ele><time>2026-05-02T07:18:42.403Z</time></trkpt><trkpt lat="51.6444867" lon="0.09085"><ele>24.0</ele><time>2026-05-02T07:18:43.403Z</time></trkpt><trkpt lat="51.6446733" lon="0.0911933"><ele>23.0</ele><time>2026-05-02T07:18:44.406Z</time></trkpt><trkpt lat="51.6448633" lon="0.0915267"><ele>21.5</ele><time>2026-05-02T07:18:45.405Z</time></trkpt><trkpt lat="51.6450583" lon="0.0918583"><ele>20.0</ele><time>2026-05-02T07:18:46.405Z</time></trkpt><trkpt lat="51.6452617" lon="0.0921833"><ele>21.5</ele><time>2026-05-02T07:18:47.402Z</time></trkpt><trkpt lat="51.6454633" lon="0.092505"><ele>23.0</ele><time>2026-05-02T07:18:48.402Z</time></trkpt><trkpt lat="51.645665" lon="0.0928283"><ele>23.0</ele><time>2026-05-02T07:18:49.403Z</time></trkpt><trkpt lat="51.645865" lon="0.0931533"><ele>23.0</ele><time>2026-05-02T07:18:50.402Z</time></trkpt><trkpt lat="51.6460667" lon="0.093475"><ele>23.0</ele><time>2026-05-02T07:18:51.403Z</time></trkpt><trkpt lat="51.6462683" lon="0.093795"><ele>23.0</ele><time>2026-05-02T07:18:52.401Z</time></trkpt><trkpt lat="51.646475" lon="0.0941083"><ele>23.0</ele><time>2026-05-02T07:18:53.403Z</time></trkpt><trkpt lat="51.6466833" lon="0.094415"><ele>23.0</ele><time>2026-05-02T07:18:54.405Z</time></trkpt><trkpt lat="51.6468917" lon="0.0947183"><ele>23.5</ele><time>2026-05-02T07:18:55.405Z</time></trkpt><trkpt lat="51.6471017" lon="0.0950233"><ele>24.0</ele><time>2026-05-02T07:18:56.406Z</time></trkpt><trkpt lat="51.64731" lon="0.095325"><ele>24.0</ele><time>2026-05-02T07:18:57.405Z</time></trkpt><trkpt lat="51.647525" lon="0.095625"><ele>24.0</ele><time>2026-05-02T07:18:58.405Z</time></trkpt><trkpt lat="51.64774" lon="0.0959233"><ele>24.0</ele><time>2026-05-02T07:18:59.405Z</time></trkpt><trkpt lat="51.6479583" lon="0.096215"><ele>24.0</ele><time>2026-05-02T07:19:00.406Z</time></trkpt><trkpt lat="51.64818" lon="0.096505"><ele>23.5</ele><time>2026-05-02T07:19:01.406Z</time></trkpt><trkpt lat="51.6484017" lon="0.0967917"><ele>23.0</ele><time>2026-05-02T07:19:02.406Z</time></trkpt><trkpt lat="51.6486233" lon="0.0970733"><ele>22.5</ele><time>2026-05-02T07:19:03.406Z</time></trkpt><trkpt lat="51.6488483" lon="0.09735"><ele>22.0</ele><time>2026-05-02T07:19:04.405Z</time></trkpt><trkpt lat="51.6490717" lon="0.0976283"><ele>21.5</ele><time>2026-05-02T07:19:05.406Z</time></trkpt><trkpt lat="51.649295" lon="0.0979067"><ele>21.0</ele><time>2026-05-02T07:19:06.405Z</time></trkpt><trkpt lat="51.64952" lon="0.0981817"><ele>21.5</ele><time>2026-05-02T07:19:07.406Z</time></trkpt><trkpt lat="51.649745" lon="0.0984533"><ele>22.0</ele><time>2026-05-02T07:19:08.406Z</time></trkpt><trkpt lat="51.6499717" lon="0.098725"><ele>22.0</ele><time>2026-05-02T07:19:09.405Z</time></trkpt><trkpt lat="51.6501967" lon="0.0990017"><ele>22.0</ele><time>2026-05-02T07:19:10.405Z</time></trkpt><trkpt lat="51.6504217" lon="0.0992767"><ele>24.0</ele><time>2026-05-02T07:19:11.405Z</time></trkpt><trkpt lat="51.65065" lon="0.0995483"><ele>26.0</ele><time>2026-05-02T07:19:12.406Z</time></trkpt><trkpt lat="51.6508833" lon="0.0998133"><ele>26.0</ele><time>2026-05-02T07:19:13.406Z</time></trkpt><trkpt lat="51.65112" lon="0.1000717"><ele>26.0</ele><time>2026-05-02T07:19:14.407Z</time></trkpt><trkpt lat="51.6513567" lon="0.100325"><ele>26.0</ele><time>2026-05-02T07:19:15.406Z</time></trkpt><trkpt lat="51.6515917" lon="0.10058"><ele>26.0</ele><time>2026-05-02T07:19:16.405Z</time></trkpt><trkpt lat="51.6518267" lon="0.10084"><ele>26.0</ele><time>2026-05-02T07:19:17.403Z</time></trkpt><trkpt lat="51.6520567" lon="0.101105"><ele>26.0</ele><time>2026-05-02T07:19:18.403Z</time></trkpt><trkpt lat="51.6522867" lon="0.1013767"><ele>25.5</ele><time>2026-05-02T07:19:19.403Z</time></trkpt><trkpt lat="51.6525183" lon="0.10164"><ele>25.0</ele><time>2026-05-02T07:19:20.403Z</time></trkpt><trkpt lat="51.6527533" lon="0.1018983"><ele>27.5</ele><time>2026-05-02T07:19:21.403Z</time></trkpt><trkpt lat="51.6529883" lon="0.1021517"><ele>30.0</ele><time>2026-05-02T07:19:22.406Z</time></trkpt><trkpt lat="51.6532233" lon="0.102405"><ele>29.5</ele><time>2026-05-02T07:19:23.406Z</time></trkpt><trkpt lat="51.65346" lon="0.1026517"><ele>29.0</ele><time>2026-05-02T07:19:24.405Z</time></trkpt><trkpt lat="51.653695" lon="0.1029"><ele>29.0</ele><time>2026-05-02T07:19:25.406Z</time></trkpt><trkpt lat="51.6539317" lon="0.1031467"><ele>29.0</ele><time>2026-05-02T07:19:26.405Z</time></trkpt><trkpt lat="51.6541683" lon="0.1033933"><ele>28.5</ele><time>2026-05-02T07:19:27.405Z</time></trkpt><trkpt lat="51.654405" lon="0.1036417"><ele>28.0</ele><time>2026-05-02T07:19:28.407Z</time></trkpt><trkpt lat="51.654645" lon="0.10389"><ele>28.5</ele><time>2026-05-02T07:19:29.402Z</time></trkpt><trkpt lat="51.654885" lon="0.1041333"><ele>29.0</ele><time>2026-05-02T07:19:30.406Z</time></trkpt><trkpt lat="51.6551252" lon="0.1043762"><ele>31.0</ele><time>2026-05-02T07:19:31.406Z</time></trkpt><trkpt lat="51.6553654" lon="0.1046197"><ele>33.0</ele><time>2026-05-02T07:19:32.405Z</time></trkpt><trkpt lat="51.6556041" lon="0.1048618"><ele>32.5</ele><time>2026-05-02T07:19:33.405Z</time></trkpt><trkpt lat="51.6558424" lon="0.1051067"><ele>32.0</ele><time>2026-05-02T07:19:34.406Z</time></trkpt><trkpt lat="51.6560808" lon="0.1053545"><ele>32.0</ele><time>2026-05-02T07:19:35.407Z</time></trkpt><trkpt lat="51.6563174" lon="0.1056052"><ele>32.0</ele><time>2026-05-02T07:19:36.405Z</time></trkpt><trkpt lat="51.6565569" lon="0.1058516"><ele>32.0</ele><time>2026-05-02T07:19:37.406Z</time></trkpt><trkpt lat="51.6567983" lon="0.1060947"><ele>32.0</ele><time>2026-05-02T07:19:38.405Z</time></trkpt><trkpt lat="51.6570402" lon="0.1063312"><ele>33.0</ele><time>2026-05-02T07:19:39.406Z</time></trkpt><trkpt lat="51.657282" lon="0.1065688"><ele>34.0</ele><time>2026-05-02T07:19:40.406Z</time></trkpt><trkpt lat="51.6575214" lon="0.1068068"><ele>34.0</ele><time>2026-05-02T07:19:41.406Z</time></trkpt><trkpt lat="51.6577608" lon="0.1070447"><ele>34.0</ele><time>2026-05-02T07:19:42.402Z</time></trkpt><trkpt lat="51.6580024" lon="0.1072823"><ele>35.0</ele><time>2026-05-02T07:19:43.407Z</time></trkpt><trkpt lat="51.6582451" lon="0.1075193"><ele>36.0</ele><time>2026-05-02T07:19:44.406Z</time></trkpt><trkpt lat="51.6584869" lon="0.1077558"><ele>36.0</ele><time>2026-05-02T07:19:45.406Z</time></trkpt><trkpt lat="51.6587301" lon="0.1079976"><ele>36.0</ele><time>2026-05-02T07:19:46.406Z</time></trkpt><trkpt lat="51.6589715" lon="0.1082397"><ele>37.0</ele><time>2026-05-02T07:19:47.407Z</time></trkpt><trkpt lat="51.6592137" lon="0.1084775"><ele>38.0</ele><time>2026-05-02T07:19:48.403Z</time></trkpt><trkpt lat="51.6594548" lon="0.1087137"><ele>38.5</ele><time>2026-05-02T07:19:49.406Z</time></trkpt><trkpt lat="51.6596965" lon="0.1089469"><ele>39.0</ele><time>2026-05-02T07:19:50.405Z</time></trkpt><trkpt lat="51.659941" lon="0.1091794"><ele>39.0</ele><time>2026-05-02T07:19:51.405Z</time></trkpt><trkpt lat="51.660184" lon="0.1094103"><ele>39.0</ele><time>2026-05-02T07:19:52.405Z</time></trkpt><trkpt lat="51.6604262" lon="0.1096417"><ele>39.0</ele><time>2026-05-02T07:19:53.408Z</time></trkpt><trkpt lat="51.660668" lon="0.1098733"><ele>39.0</ele><time>2026-05-02T07:19:54.407Z</time></trkpt><trkpt lat="51.6609082" lon="0.1101025"><ele>41.5</ele><time>2026-05-02T07:19:55.406Z</time></trkpt><trkpt lat="51.6611506" lon="0.1103328"><ele>44.0</ele><time>2026-05-02T07:19:56.405Z</time></trkpt><trkpt lat="51.6613937" lon="0.1105675"><ele>45.5</ele><time>2026-05-02T07:19:57.407Z</time></trkpt><trkpt lat="51.6616373" lon="0.1108015"><ele>47.0</ele><time>2026-05-02T07:19:58.407Z</time></trkpt><trkpt lat="51.6618796" lon="0.111035"><ele>49.5</ele><time>2026-05-02T07:19:59.405Z</time></trkpt><trkpt lat="51.6621227" lon="0.1112695"><ele>52.0</ele><time>2026-05-02T07:20:00.406Z</time></trkpt><trkpt lat="51.6623646" lon="0.1115018"><ele>54.0</ele><time>2026-05-02T07:20:01.406Z</time></trkpt><trkpt lat="51.6626062" lon="0.1117329"><ele>56.0</ele><time>2026-05-02T07:20:02.403Z</time></trkpt><trkpt lat="51.6628521" lon="0.11196"><ele>57.0</ele><time>2026-05-02T07:20:03.404Z</time></trkpt><trkpt lat="51.6630988" lon="0.1121854"><ele>58.0</ele><time>2026-05-02T07:20:04.407Z</time></trkpt><trkpt lat="51.6633468" lon="0.1124117"><ele>58.5</ele><time>2026-05-02T07:20:05.406Z</time></trkpt><trkpt lat="51.6635939" lon="0.1126384"><ele>59.0</ele><time>2026-05-02T07:20:06.406Z</time></trkpt><trkpt lat="51.6638405" lon="0.1128666"><ele>60.5</ele><time>2026-05-02T07:20:07.407Z</time></trkpt><trkpt lat="51.6640843" lon="0.1130953"><ele>62.0</ele><time>2026-05-02T07:20:08.406Z</time></trkpt><trkpt lat="51.6643292" lon="0.1133216"><ele>63.0</ele><time>2026-05-02T07:20:09.405Z</time></trkpt><trkpt lat="51.6645742" lon="0.1135417"><ele>64.0</ele><time>2026-05-02T07:20:10.406Z</time></trkpt><trkpt lat="51.6648219" lon="0.1137592"><ele>64.0</ele><time>2026-05-02T07:20:11.405Z</time></trkpt><trkpt lat="51.6650743" lon="0.1139774"><ele>64.0</ele><time>2026-05-02T07:20:12.405Z</time></trkpt><trkpt lat="51.6653265" lon="0.1141959"><ele>63.0</ele><time>2026-05-02T07:20:13.407Z</time></trkpt><trkpt lat="51.6655784" lon="0.1144119"><ele>62.0</ele><time>2026-05-02T07:20:14.405Z</time></trkpt><trkpt lat="51.6658288" lon="0.114625"><ele>62.0</ele><time>2026-05-02T07:20:15.403Z</time></trkpt><trkpt lat="51.6660807" lon="0.1148363"><ele>62.0</ele><time>2026-05-02T07:20:16.403Z</time></trkpt><trkpt lat="51.6663322" lon="0.115046"><ele>63.0</ele><time>2026-05-02T07:20:17.403Z</time></trkpt><trkpt lat="51.6665854" lon="0.1152562"><ele>64.0</ele><time>2026-05-02T07:20:18.406Z</time></trkpt><trkpt lat="51.6668387" lon="0.1154632"><ele>65.0</ele><time>2026-05-02T07:20:19.406Z</time></trkpt><trkpt lat="51.6670934" lon="0.1156654"><ele>66.0</ele><time>2026-05-02T07:20:20.405Z</time></trkpt><trkpt lat="51.6673484" lon="0.1158649"><ele>66.0</ele><time>2026-05-02T07:20:21.405Z</time></trkpt><trkpt lat="51.667602" lon="0.1160584"><ele>66.0</ele><time>2026-05-02T07:20:22.406Z</time></trkpt><trkpt lat="51.6678509" lon="0.1162471"><ele>67.0</ele><time>2026-05-02T07:20:23.407Z</time></trkpt><trkpt lat="51.6680874" lon="0.1164285"><ele>68.0</ele><time>2026-05-02T07:20:24.405Z</time></trkpt><trkpt lat="51.6683216" lon="0.1166034"><ele>68.0</ele><time>2026-05-02T07:20:25.406Z</time></trkpt><trkpt lat="51.6685604" lon="0.1167707"><ele>68.0</ele><time>2026-05-02T07:20:26.405Z</time></trkpt><trkpt lat="51.6688022" lon="0.1169352"><ele>69.5</ele><time>2026-05-02T07:20:27.407Z</time></trkpt><trkpt lat="51.6690454" lon="0.1171002"><ele>71.0</ele><time>2026-05-02T07:20:28.406Z</time></trkpt><trkpt lat="51.6692861" lon="0.1172684"><ele>71.0</ele><time>2026-05-02T07:20:29.406Z</time></trkpt><trkpt lat="51.6695271" lon="0.1174368"><ele>71.0</ele><time>2026-05-02T07:20:30.406Z</time></trkpt><trkpt lat="51.6697698" lon="0.1176103"><ele>71.0</ele><time>2026-05-02T07:20:31.402Z</time></trkpt><trkpt lat="51.6700126" lon="0.1177897"><ele>71.0</ele><time>2026-05-02T07:20:32.407Z</time></trkpt><trkpt lat="51.6702539" lon="0.1179643"><ele>71.5</ele><time>2026-05-02T07:20:33.406Z</time></trkpt><trkpt lat="51.670497" lon="0.1181329"><ele>72.0</ele><time>2026-05-02T07:20:34.402Z</time></trkpt><trkpt lat="51.670738" lon="0.1183058"><ele>70.5</ele><time>2026-05-02T07:20:35.402Z</time></trkpt><trkpt lat="51.6709809" lon="0.1184734"><ele>69.0</ele><time>2026-05-02T07:20:36.407Z</time></trkpt><trkpt lat="51.6712221" lon="0.1186369"><ele>67.5</ele><time>2026-05-02T07:20:37.403Z</time></trkpt><trkpt lat="51.6714663" lon="0.1187944"><ele>66.0</ele><time>2026-05-02T07:20:38.402Z</time></trkpt><trkpt lat="51.67171" lon="0.1189557"><ele>64.0</ele><time>2026-05-02T07:20:39.403Z</time></trkpt><trkpt lat="51.671954" lon="0.1191198"><ele>62.0</ele><time>2026-05-02T07:20:40.404Z</time></trkpt><trkpt lat="51.6722006" lon="0.1192825"><ele>62.0</ele><time>2026-05-02T07:20:41.407Z</time></trkpt><trkpt lat="51.6724478" lon="0.1194415"><ele>62.0</ele><time>2026-05-02T07:20:42.406Z</time></trkpt><trkpt lat="51.6726988" lon="0.1196015"><ele>60.5</ele><time>2026-05-02T07:20:43.406Z</time></trkpt><trkpt lat="51.6729532" lon="0.1197572"><ele>59.0</ele><time>2026-05-02T07:20:44.406Z</time></trkpt><trkpt lat="51.67321" lon="0.1199107"><ele>57.0</ele><time>2026-05-02T07:20:45.405Z</time></trkpt><trkpt lat="51.673467" lon="0.1200663"><ele>55.0</ele><time>2026-05-02T07:20:46.403Z</time></trkpt><trkpt lat="51.6737268" lon="0.1202208"><ele>79.0</ele><time>2026-05-02T07:20:47.404Z</time></trkpt><trkpt lat="51.6959867" lon="0.139885"><ele>80.0</ele><time>2026-05-02T07:22:19.404Z</time></trkpt><trkpt lat="51.696255" lon="0.1399867"><ele>81.0</ele><time>2026-05-02T07:22:20.402Z</time></trkpt><trkpt lat="51.6965267" lon="0.1400883"><ele>81.0</ele><time>2026-05-02T07:22:21.403Z</time></trkpt><trkpt lat="51.6968" lon="0.14019"><ele>81.0</ele><time>2026-05-02T07:22:22.402Z</time></trkpt><trkpt lat="51.69707" lon="0.1402983"><ele>87.0</ele><time>2026-05-02T07:22:23.402Z</time></trkpt><trkpt lat="51.6973417" lon="0.1404133"><ele>93.0</ele><time>2026-05-02T07:22:24.404Z</time></trkpt><trkpt lat="51.6976133" lon="0.140535"><ele>94.5</ele><time>2026-05-02T07:22:25.402Z</time></trkpt><trkpt lat="51.6978883" lon="0.1406667"><ele>96.0</ele><time>2026-05-02T07:22:26.403Z</time></trkpt><trkpt lat="51.69816" lon="0.140805"><ele>96.0</ele><time>2026-05-02T07:22:27.402Z</time></trkpt><trkpt lat="51.6984283" lon="0.14095"><ele>96.0</ele><time>2026-05-02T07:22:28.403Z</time></trkpt><trkpt lat="51.698695" lon="0.1411133"><ele>95.5</ele><time>2026-05-02T07:22:29.402Z</time></trkpt><trkpt lat="51.6989583" lon="0.14128"><ele>95.0</ele><time>2026-05-02T07:22:30.402Z</time></trkpt><trkpt lat="51.6992217" lon="0.14146"><ele>98.5</ele><time>2026-05-02T07:22:31.403Z</time></trkpt><trkpt lat="51.699485" lon="0.1416333"><ele>102.0</ele><time>2026-05-02T07:22:32.403Z</time></trkpt><trkpt lat="51.6997483" lon="0.14181"><ele>102.0</ele><time>2026-05-02T07:22:33.402Z</time></trkpt><trkpt lat="51.70001" lon="0.1419933"><ele>102.0</ele><time>2026-05-02T07:22:34.402Z</time></trkpt><trkpt lat="51.70027" lon="0.1421867"><ele>105.5</ele><time>2026-05-02T07:22:35.402Z</time></trkpt><trkpt lat="51.7005283" lon="0.142385"><ele>109.0</ele><time>2026-05-02T07:22:36.402Z</time></trkpt><trkpt lat="51.700785" lon="0.14259"><ele>109.0</ele><time>2026-05-02T07:22:37.404Z</time></trkpt><trkpt lat="51.70104" lon="0.1428"><ele>109.0</ele><time>2026-05-02T07:22:38.406Z</time></trkpt><trkpt lat="51.7012967" lon="0.1430033"><ele>110.5</ele><time>2026-05-02T07:22:39.403Z</time></trkpt><trkpt lat="51.7015533" lon="0.1432067"><ele>112.0</ele><time>2026-05-02T07:22:40.401Z</time></trkpt><trkpt lat="51.7018117" lon="0.1434067"><ele>113.0</ele><time>2026-05-02T07:22:41.402Z</time></trkpt><trkpt lat="51.7020733" lon="0.14361"><ele>114.0</ele><time>2026-05-02T07:22:42.402Z</time></trkpt><trkpt lat="51.702335" lon="0.1438133"><ele>114.0</ele><time>2026-05-02T07:22:43.402Z</time></trkpt><trkpt lat="51.7025983" lon="0.1440117"><ele>114.0</ele><time>2026-05-02T07:22:44.402Z</time></trkpt><trkpt lat="51.7028633" lon="0.1442017"><ele>115.0</ele><time>2026-05-02T07:22:45.402Z</time></trkpt><trkpt lat="51.703129" lon="0.1443781"><ele>116.0</ele><time>2026-05-02T07:22:46.402Z</time></trkpt><trkpt lat="51.7033968" lon="0.144546"><ele>116.0</ele><time>2026-05-02T07:22:47.402Z</time></trkpt><trkpt lat="51.7036693" lon="0.1446989"><ele>116.0</ele><time>2026-05-02T07:22:48.402Z</time></trkpt><trkpt lat="51.7039433" lon="0.1448379"><ele>115.0</ele><time>2026-05-02T07:22:49.402Z</time></trkpt><trkpt lat="51.7042182" lon="0.1449724"><ele>114.0</ele><time>2026-05-02T07:22:50.403Z</time></trkpt><trkpt lat="51.7044947" lon="0.1451027"><ele>114.0</ele><time>2026-05-02T07:22:51.403Z</time></trkpt><trkpt lat="51.7047717" lon="0.14523"><ele>114.0</ele><time>2026-05-02T07:22:52.402Z</time></trkpt><trkpt lat="51.70505" lon="0.1453465"><ele>112.5</ele><time>2026-05-02T07:22:53.402Z</time></trkpt><trkpt lat="51.7053315" lon="0.1454506"><ele>111.0</ele><time>2026-05-02T07:22:54.404Z</time></trkpt><trkpt lat="51.7056119" lon="0.1455468"><ele>111.0</ele><time>2026-05-02T07:22:55.402Z</time></trkpt><trkpt lat="51.7058961" lon="0.145634"><ele>111.0</ele><time>2026-05-02T07:22:56.403Z</time></trkpt><trkpt lat="51.7061802" lon="0.145715"><ele>111.0</ele><time>2026-05-02T07:22:57.402Z</time></trkpt><trkpt lat="51.7064653" lon="0.1457848"><ele>111.0</ele><time>2026-05-02T07:22:58.403Z</time></trkpt><trkpt lat="51.7067545" lon="0.1458453"><ele>111.5</ele><time>2026-05-02T07:22:59.402Z</time></trkpt><trkpt lat="51.7070527" lon="0.1458967"><ele>112.0</ele><time>2026-05-02T07:23:00.402Z</time></trkpt><trkpt lat="51.7073579" lon="0.1459435"><ele>112.0</ele><time>2026-05-02T07:23:01.402Z</time></trkpt><trkpt lat="51.7076723" lon="0.1459776"><ele>112.0</ele><time>2026-05-02T07:23:02.404Z</time></trkpt><trkpt lat="51.7079967" lon="0.1460015"><ele>112.0</ele><time>2026-05-02T07:23:03.404Z</time></trkpt><trkpt lat="51.7083273" lon="0.1460141"><ele>112.0</ele><time>2026-05-02T07:23:04.402Z</time></trkpt><trkpt lat="51.7086644" lon="0.1460115"><ele>110.0</ele><time>2026-05-02T07:23:05.404Z</time></trkpt><trkpt lat="51.709007" lon="0.1459995"><ele>108.0</ele><time>2026-05-02T07:23:06.402Z</time></trkpt><trkpt lat="51.7093569" lon="0.1459766"><ele>107.5</ele><time>2026-05-02T07:23:07.403Z</time></trkpt><trkpt lat="51.7097149" lon="0.1459418"><ele>107.0</ele><time>2026-05-02T07:23:08.404Z</time></trkpt><trkpt lat="51.7100783" lon="0.1458884"><ele>106.0</ele><time>2026-05-02T07:23:09.403Z</time></trkpt><trkpt lat="51.7104461" lon="0.1458184"><ele>105.0</ele><time>2026-05-02T07:23:10.402Z</time></trkpt><trkpt lat="51.7108128" lon="0.1457329"><ele>103.5</ele><time>2026-05-02T07:23:11.404Z</time></trkpt><trkpt lat="51.7111757" lon="0.1456334"><ele>102.0</ele><time>2026-05-02T07:23:12.405Z</time></trkpt><trkpt lat="51.7115269" lon="0.1455274"><ele>102.0</ele><time>2026-05-02T07:23:13.402Z</time></trkpt><trkpt lat="51.7118651" lon="0.1454111"><ele>102.0</ele><time>2026-05-02T07:23:14.402Z</time></trkpt><trkpt lat="51.7121977" lon="0.145282"><ele>100.5</ele><time>2026-05-02T07:23:15.405Z</time></trkpt><trkpt lat="51.7125339" lon="0.145148"><ele>99.0</ele><time>2026-05-02T07:23:16.403Z</time></trkpt><trkpt lat="51.7128756" lon="0.1450028"><ele>97.5</ele><time>2026-05-02T07:23:17.403Z</time></trkpt><trkpt lat="51.7132186" lon="0.1448551"><ele>96.0</ele><time>2026-05-02T07:23:18.404Z</time></trkpt><trkpt lat="51.7135613" lon="0.1446992"><ele>96.0</ele><time>2026-05-02T07:23:19.403Z</time></trkpt><trkpt lat="51.7139006" lon="0.1445453"><ele>96.0</ele><time>2026-05-02T07:23:20.403Z</time></trkpt><trkpt lat="51.7142325" lon="0.1443932"><ele>94.5</ele><time>2026-05-02T07:23:21.403Z</time></trkpt><trkpt lat="51.7145522" lon="0.1442442"><ele>93.0</ele><time>2026-05-02T07:23:22.402Z</time></trkpt><trkpt lat="51.7148599" lon="0.1441065"><ele>92.5</ele><time>2026-05-02T07:23:23.403Z</time></trkpt><trkpt lat="51.7151554" lon="0.1439791"><ele>92.0</ele><time>2026-05-02T07:23:24.405Z</time></trkpt><trkpt lat="51.7154427" lon="0.1438641"><ele>91.0</ele><time>2026-05-02T07:23:25.402Z</time></trkpt><trkpt lat="51.7157199" lon="0.1437578"><ele>90.0</ele><time>2026-05-02T07:23:26.405Z</time></trkpt><trkpt lat="51.7159863" lon="0.1436594"><ele>89.0</ele><time>2026-05-02T07:23:27.402Z</time></trkpt><trkpt lat="51.7162465" lon="0.1435625"><ele>88.0</ele><time>2026-05-02T07:23:28.405Z</time></trkpt><trkpt lat="51.7165076" lon="0.1434666"><ele>88.0</ele><time>2026-05-02T07:23:29.406Z</time></trkpt><trkpt lat="51.7167687" lon="0.1433716"><ele>88.0</ele><time>2026-05-02T07:23:30.405Z</time></trkpt><trkpt lat="51.71703" lon="0.1432764"><ele>87.5</ele><time>2026-05-02T07:23:31.405Z</time></trkpt><trkpt lat="51.7172902" lon="0.1431808"><ele>87.0</ele><time>2026-05-02T07:23:32.406Z</time></trkpt><trkpt lat="51.7175519" lon="0.1430854"><ele>86.5</ele><time>2026-05-02T07:23:33.407Z</time></trkpt><trkpt lat="51.7178148" lon="0.1429916"><ele>86.0</ele><time>2026-05-02T07:23:34.405Z</time></trkpt><trkpt lat="51.7180781" lon="0.1429009"><ele>86.0</ele><time>2026-05-02T07:23:35.406Z</time></trkpt><trkpt lat="51.7183416" lon="0.1428122"><ele>86.0</ele><time>2026-05-02T07:23:36.407Z</time></trkpt><trkpt lat="51.7186062" lon="0.1427253"><ele>85.5</ele><time>2026-05-02T07:23:37.406Z</time></trkpt><trkpt lat="51.7188724" lon="0.1426386"><ele>85.0</ele><time>2026-05-02T07:23:38.405Z</time></trkpt><trkpt lat="51.7191378" lon="0.1425542"><ele>84.5</ele><time>2026-05-02T07:23:39.405Z</time></trkpt><trkpt lat="51.7194028" lon="0.1424737"><ele>84.0</ele><time>2026-05-02T07:23:40.402Z</time></trkpt><trkpt lat="51.7196681" lon="0.1423945"><ele>83.5</ele><time>2026-05-02T07:23:41.402Z</time></trkpt><trkpt lat="51.7199321" lon="0.1423139"><ele>83.0</ele><time>2026-05-02T07:23:42.406Z</time></trkpt><trkpt lat="51.7201942" lon="0.1422351"><ele>83.0</ele><time>2026-05-02T07:23:43.407Z</time></trkpt><trkpt lat="51.720458" lon="0.1421579"><ele>83.0</ele><time>2026-05-02T07:23:44.402Z</time></trkpt><trkpt lat="51.7207207" lon="0.1420815"><ele>83.0</ele><time>2026-05-02T07:23:45.405Z</time></trkpt><trkpt lat="51.7209838" lon="0.1420108"><ele>83.0</ele><time>2026-05-02T07:23:46.405Z</time></trkpt><trkpt lat="51.7212494" lon="0.1419398"><ele>82.5</ele><time>2026-05-02T07:23:47.403Z</time></trkpt><trkpt lat="51.7215161" lon="0.1418701"><ele>82.0</ele><time>2026-05-02T07:23:48.402Z</time></trkpt><trkpt lat="51.7217828" lon="0.141806"><ele>81.0</ele><time>2026-05-02T07:23:49.403Z</time></trkpt><trkpt lat="51.7220509" lon="0.1417405"><ele>80.0</ele><time>2026-05-02T07:23:50.402Z</time></trkpt><trkpt lat="51.7223179" lon="0.1416739"><ele>80.0</ele><time>2026-05-02T07:23:51.403Z</time></trkpt><trkpt lat="51.7225834" lon="0.1416051"><ele>80.0</ele><time>2026-05-02T07:23:52.402Z</time></trkpt><trkpt lat="51.7228497" lon="0.1415413"><ele>81.0</ele><time>2026-05-02T07:23:53.403Z</time></trkpt><trkpt lat="51.7231178" lon="0.1414797"><ele>82.0</ele><time>2026-05-02T07:23:54.402Z</time></trkpt><trkpt lat="51.7233861" lon="0.1414242"><ele>81.5</ele><time>2026-05-02T07:23:55.402Z</time></trkpt><trkpt lat="51.7236523" lon="0.1413695"><ele>81.0</ele><time>2026-05-02T07:23:56.407Z</time></trkpt><trkpt lat="51.7239182" lon="0.1413139"><ele>81.0</ele><time>2026-05-02T07:23:57.402Z</time></trkpt><trkpt lat="51.7241861" lon="0.1412516"><ele>81.0</ele><time>2026-05-02T07:23:58.403Z</time></trkpt><trkpt lat="51.724452" lon="0.1411918"><ele>79.5</ele><time>2026-05-02T07:23:59.403Z</time></trkpt><trkpt lat="51.7247185" lon="0.1411343"><ele>78.0</ele><time>2026-05-02T07:24:00.402Z</time></trkpt><trkpt lat="51.7249873" lon="0.1410718"><ele>78.0</ele><time>2026-05-02T07:24:01.402Z</time></trkpt><trkpt lat="51.7252589" lon="0.14101"><ele>78.0</ele><time>2026-05-02T07:24:02.403Z</time></trkpt><trkpt lat="51.7255393" lon="0.1409489"><ele>78.0</ele><time>2026-05-02T07:24:03.403Z</time></trkpt><trkpt lat="51.7258226" lon="0.1408908"><ele>78.0</ele><time>2026-05-02T07:24:04.408Z</time></trkpt><trkpt lat="51.7261052" lon="0.1408297"><ele>77.0</ele><time>2026-05-02T07:24:05.406Z</time></trkpt><trkpt lat="51.7263914" lon="0.1407566"><ele>76.0</ele><time>2026-05-02T07:24:06.405Z</time></trkpt><trkpt lat="51.7266774" lon="0.140679"><ele>74.0</ele><time>2026-05-02T07:24:07.409Z</time></trkpt><trkpt lat="51.7269622" lon="0.140599"><ele>72.0</ele><time>2026-05-02T07:24:08.406Z</time></trkpt><trkpt lat="51.727243" lon="0.1405163"><ele>72.0</ele><time>2026-05-02T07:24:09.405Z</time></trkpt><trkpt lat="51.7275139" lon="0.140436"><ele>72.0</ele><time>2026-05-02T07:24:10.406Z</time></trkpt><trkpt lat="51.727779" lon="0.1403564"><ele>73.0</ele><time>2026-05-02T07:24:11.409Z</time></trkpt><trkpt lat="51.7280414" lon="0.1402754"><ele>74.0</ele><time>2026-05-02T07:24:12.405Z</time></trkpt><trkpt lat="51.7283043" lon="0.140189"><ele>73.5</ele><time>2026-05-02T07:24:13.406Z</time></trkpt><trkpt lat="51.7285676" lon="0.1400979"><ele>73.0</ele><time>2026-05-02T07:24:14.41Z</time></trkpt><trkpt lat="51.7288328" lon="0.1400031"><ele>73.0</ele><time>2026-05-02T07:24:15.406Z</time></trkpt><trkpt lat="51.7290995" lon="0.1399127"><ele>73.0</ele><time>2026-05-02T07:24:16.405Z</time></trkpt><trkpt lat="51.7293677" lon="0.1398227"><ele>76.0</ele><time>2026-05-02T07:24:17.406Z</time></trkpt><trkpt lat="51.7299032" lon="0.1396215"><ele>76.0</ele><time>2026-05-02T07:24:19.406Z</time></trkpt><trkpt lat="51.7301703" lon="0.1395183"><ele>76.0</ele><time>2026-05-02T07:24:20.405Z</time></trkpt><trkpt lat="51.7304385" lon="0.1394149"><ele>77.0</ele><time>2026-05-02T07:24:21.405Z</time></trkpt><trkpt lat="51.7309817" lon="0.1392064"><ele>77.0</ele><time>2026-05-02T07:24:23.406Z</time></trkpt><trkpt lat="51.7312533" lon="0.1391"><ele>77.0</ele><time>2026-05-02T07:24:24.405Z</time></trkpt><trkpt lat="51.7315249" lon="0.1389906"><ele>79.0</ele><time>2026-05-02T07:24:25.41Z</time></trkpt><trkpt lat="51.7317933" lon="0.138881"><ele>81.0</ele><time>2026-05-02T07:24:26.406Z</time></trkpt><trkpt lat="51.7323319" lon="0.1386541"><ele>81.0</ele><time>2026-05-02T07:24:28.408Z</time></trkpt><trkpt lat="51.7326002" lon="0.1385403"><ele>81.0</ele><time>2026-05-02T07:24:29.407Z</time></trkpt><trkpt lat="51.7328698" lon="0.1384242"><ele>81.0</ele><time>2026-05-02T07:24:30.406Z</time></trkpt><trkpt lat="51.7331371" lon="0.1383024"><ele>81.0</ele><time>2026-05-02T07:24:31.409Z</time></trkpt><trkpt lat="51.7334043" lon="0.138178"><ele>82.5</ele><time>2026-05-02T07:24:32.405Z</time></trkpt><trkpt lat="51.7336703" lon="0.1380566"><ele>84.0</ele><time>2026-05-02T07:24:33.407Z</time></trkpt><trkpt lat="51.7339381" lon="0.1379365"><ele>84.0</ele><time>2026-05-02T07:24:34.406Z</time></trkpt><trkpt lat="51.734205" lon="0.1378164"><ele>84.0</ele><time>2026-05-02T07:24:35.405Z</time></trkpt><trkpt lat="51.7344728" lon="0.1376912"><ele>83.5</ele><time>2026-05-02T07:24:36.405Z</time></trkpt><trkpt lat="51.7347385" lon="0.1375673"><ele>83.0</ele><time>2026-05-02T07:24:37.406Z</time></trkpt><trkpt lat="51.7350049" lon="0.1374441"><ele>82.5</ele><time>2026-05-02T07:24:38.406Z</time></trkpt><trkpt lat="51.735277" lon="0.1373272"><ele>82.0</ele><time>2026-05-02T07:24:39.409Z</time></trkpt><trkpt lat="51.7355498" lon="0.1372211"><ele>82.0</ele><time>2026-05-02T07:24:40.405Z</time></trkpt><trkpt lat="51.7358236" lon="0.1371226"><ele>82.0</ele><time>2026-05-02T07:24:41.406Z</time></trkpt><trkpt lat="51.7360977" lon="0.1370314"><ele>83.0</ele><time>2026-05-02T07:24:42.406Z</time></trkpt><trkpt lat="51.7363717" lon="0.136948"><ele>84.0</ele><time>2026-05-02T07:24:43.407Z</time></trkpt><trkpt lat="51.7366465" lon="0.1368691"><ele>85.5</ele><time>2026-05-02T07:24:44.406Z</time></trkpt><trkpt lat="51.7369217" lon="0.1367986"><ele>87.0</ele><time>2026-05-02T07:24:45.406Z</time></trkpt><trkpt lat="51.7371968" lon="0.1367394"><ele>87.0</ele><time>2026-05-02T07:24:46.406Z</time></trkpt><trkpt lat="51.7374731" lon="0.1366906"><ele>87.0</ele><time>2026-05-02T07:24:47.405Z</time></trkpt><trkpt lat="51.7377499" lon="0.1366454"><ele>88.5</ele><time>2026-05-02T07:24:48.406Z</time></trkpt><trkpt lat="51.7380253" lon="0.1366007"><ele>90.0</ele><time>2026-05-02T07:24:49.405Z</time></trkpt><trkpt lat="51.7383004" lon="0.1365624"><ele>91.0</ele><time>2026-05-02T07:24:50.405Z</time></trkpt><trkpt lat="51.7385778" lon="0.1365409"><ele>92.0</ele><time>2026-05-02T07:24:51.406Z</time></trkpt><trkpt lat="51.7388563" lon="0.1365352"><ele>92.0</ele><time>2026-05-02T07:24:52.407Z</time></trkpt><trkpt lat="51.7391362" lon="0.1365399"><ele>92.0</ele><time>2026-05-02T07:24:53.406Z</time></trkpt><trkpt lat="51.7394152" lon="0.1365506"><ele>92.5</ele><time>2026-05-02T07:24:54.407Z</time></trkpt><trkpt lat="51.7396947" lon="0.1365703"><ele>93.0</ele><time>2026-05-02T07:24:55.403Z</time></trkpt><trkpt lat="51.7399738" lon="0.1366"><ele>94.0</ele><time>2026-05-02T07:24:56.406Z</time></trkpt><trkpt lat="51.7402532" lon="0.1366418"><ele>95.0</ele><time>2026-05-02T07:24:57.405Z</time></trkpt><trkpt lat="51.7405311" lon="0.1366908"><ele>95.0</ele><time>2026-05-02T07:24:58.403Z</time></trkpt><trkpt lat="51.7408083" lon="0.1367476"><ele>95.0</ele><time>2026-05-02T07:24:59.406Z</time></trkpt><trkpt lat="51.7410848" lon="0.1368125"><ele>96.5</ele><time>2026-05-02T07:25:00.405Z</time></trkpt><trkpt lat="51.741359" lon="0.1368823"><ele>98.0</ele><time>2026-05-02T07:25:01.406Z</time></trkpt><trkpt lat="51.7416333" lon="0.1369647"><ele>98.5</ele><time>2026-05-02T07:25:02.402Z</time></trkpt><trkpt lat="51.7419056" lon="0.137058"><ele>99.0</ele><time>2026-05-02T07:25:03.402Z</time></trkpt><trkpt lat="51.742176" lon="0.1371571"><ele>99.0</ele><time>2026-05-02T07:25:04.403Z</time></trkpt><trkpt lat="51.7424464" lon="0.1372607"><ele>99.0</ele><time>2026-05-02T07:25:05.406Z</time></trkpt><trkpt lat="51.7427146" lon="0.1373748"><ele>99.0</ele><time>2026-05-02T07:25:06.402Z</time></trkpt><trkpt lat="51.7429803" lon="0.137498"><ele>99.0</ele><time>2026-05-02T07:25:07.406Z</time></trkpt><trkpt lat="51.7432408" lon="0.1376345"><ele>99.0</ele><time>2026-05-02T07:25:08.402Z</time></trkpt><trkpt lat="51.743502" lon="0.1377823"><ele>99.0</ele><time>2026-05-02T07:25:09.406Z</time></trkpt><trkpt lat="51.7437643" lon="0.137934"><ele>99.0</ele><time>2026-05-02T07:25:10.407Z</time></trkpt><trkpt lat="51.7440258" lon="0.1380859"><ele>99.0</ele><time>2026-05-02T07:25:11.405Z</time></trkpt><trkpt lat="51.744287" lon="0.1382455"><ele>98.0</ele><time>2026-05-02T07:25:12.403Z</time></trkpt><trkpt lat="51.744544" lon="0.1384151"><ele>97.0</ele><time>2026-05-02T07:25:13.405Z</time></trkpt><trkpt lat="51.7447971" lon="0.1385964"><ele>97.0</ele><time>2026-05-02T07:25:14.402Z</time></trkpt><trkpt lat="51.7450484" lon="0.1387864"><ele>97.0</ele><time>2026-05-02T07:25:15.402Z</time></trkpt><trkpt lat="51.7452982" lon="0.138987"><ele>96.5</ele><time>2026-05-02T07:25:16.404Z</time></trkpt><trkpt lat="51.7455441" lon="0.1391964"><ele>96.0</ele><time>2026-05-02T07:25:17.402Z</time></trkpt><trkpt lat="51.74579" lon="0.139412"><ele>96.0</ele><time>2026-05-02T07:25:18.402Z</time></trkpt><trkpt lat="51.7460326" lon="0.1396319"><ele>96.0</ele><time>2026-05-02T07:25:19.407Z</time></trkpt><trkpt lat="51.7462731" lon="0.1398568"><ele>95.0</ele><time>2026-05-02T07:25:20.402Z</time></trkpt><trkpt lat="51.7465118" lon="0.140089"><ele>94.0</ele><time>2026-05-02T07:25:21.406Z</time></trkpt><trkpt lat="51.7467492" lon="0.1403236"><ele>95.0</ele><time>2026-05-02T07:25:22.402Z</time></trkpt><trkpt lat="51.7469842" lon="0.140559"><ele>96.0</ele><time>2026-05-02T07:25:23.406Z</time></trkpt><trkpt lat="51.7472211" lon="0.1407938"><ele>96.0</ele><time>2026-05-02T07:25:24.406Z</time></trkpt><trkpt lat="51.7474578" lon="0.1410261"><ele>96.0</ele><time>2026-05-02T07:25:25.405Z</time></trkpt><trkpt lat="51.7476959" lon="0.141256"><ele>97.0</ele><time>2026-05-02T07:25:26.403Z</time></trkpt><trkpt lat="51.7479371" lon="0.141484"><ele>98.0</ele><time>2026-05-02T07:25:27.406Z</time></trkpt><trkpt lat="51.7481782" lon="0.1417141"><ele>98.0</ele><time>2026-05-02T07:25:28.401Z</time></trkpt><trkpt lat="51.7484191" lon="0.1419447"><ele>98.0</ele><time>2026-05-02T07:25:29.405Z</time></trkpt><trkpt lat="51.7486591" lon="0.1421735"><ele>100.0</ele><time>2026-05-02T07:25:30.405Z</time></trkpt><trkpt lat="51.7488991" lon="0.1423994"><ele>102.0</ele><time>2026-05-02T07:25:31.406Z</time></trkpt><trkpt lat="51.749143" lon="0.1426205"><ele>102.5</ele><time>2026-05-02T07:25:32.405Z</time></trkpt><trkpt lat="51.7493881" lon="0.1428408"><ele>103.0</ele><time>2026-05-02T07:25:33.402Z</time></trkpt><trkpt lat="51.7496364" lon="0.1430521"><ele>102.0</ele><time>2026-05-02T07:25:34.406Z</time></trkpt><trkpt lat="51.7498868" lon="0.143252"><ele>101.0</ele><time>2026-05-02T07:25:35.405Z</time></trkpt><trkpt lat="51.7501396" lon="0.143447"><ele>103.5</ele><time>2026-05-02T07:25:36.403Z</time></trkpt><trkpt lat="51.7503934" lon="0.1436397"><ele>106.0</ele><time>2026-05-02T07:25:37.405Z</time></trkpt><trkpt lat="51.7506469" lon="0.1438323"><ele>106.0</ele><time>2026-05-02T07:25:38.406Z</time></trkpt><trkpt lat="51.750903" lon="0.1440194"><ele>106.0</ele><time>2026-05-02T07:25:39.406Z</time></trkpt><trkpt lat="51.7511597" lon="0.1442036"><ele>101.5</ele><time>2026-05-02T07:25:40.406Z</time></trkpt><trkpt lat="51.7514154" lon="0.1443813"><ele>97.0</ele><time>2026-05-02T07:25:41.405Z</time></trkpt><trkpt lat="51.7516735" lon="0.1445468"><ele>97.5</ele><time>2026-05-02T07:25:42.405Z</time></trkpt><trkpt lat="51.7519333" lon="0.144706"><ele>98.0</ele><time>2026-05-02T07:25:43.404Z</time></trkpt><trkpt lat="51.7521953" lon="0.1448591"><ele>98.0</ele><time>2026-05-02T07:25:44.406Z</time></trkpt><trkpt lat="51.7524597" lon="0.1450071"><ele>98.0</ele><time>2026-05-02T07:25:45.406Z</time></trkpt><trkpt lat="51.7527236" lon="0.1451522"><ele>98.0</ele><time>2026-05-02T07:25:46.406Z</time></trkpt><trkpt lat="51.7529883" lon="0.1452891"><ele>98.0</ele><time>2026-05-02T07:25:47.402Z</time></trkpt><trkpt lat="51.7532537" lon="0.1454203"><ele>98.0</ele><time>2026-05-02T07:25:48.402Z</time></trkpt><trkpt lat="51.7535203" lon="0.1455478"><ele>98.0</ele><time>2026-05-02T07:25:49.402Z</time></trkpt><trkpt lat="51.7537884" lon="0.1456727"><ele>97.5</ele><time>2026-05-02T07:25:50.402Z</time></trkpt><trkpt lat="51.7540583" lon="0.1457911"><ele>97.0</ele><time>2026-05-02T07:25:51.402Z</time></trkpt><trkpt lat="51.7543298" lon="0.1459043"><ele>97.5</ele><time>2026-05-02T07:25:52.403Z</time></trkpt><trkpt lat="51.7546016" lon="0.1460143"><ele>98.0</ele><time>2026-05-02T07:25:53.403Z</time></trkpt><trkpt lat="51.7548735" lon="0.1461234"><ele>98.0</ele><time>2026-05-02T07:25:54.405Z</time></trkpt><trkpt lat="51.7551448" lon="0.1462324"><ele>98.0</ele><time>2026-05-02T07:25:55.402Z</time></trkpt><trkpt lat="51.7554156" lon="0.1463375"><ele>98.5</ele><time>2026-05-02T07:25:56.402Z</time></trkpt><trkpt lat="51.7556885" lon="0.1464436"><ele>99.0</ele><time>2026-05-02T07:25:57.405Z</time></trkpt><trkpt lat="51.7559616" lon="0.1465464"><ele>98.5</ele><time>2026-05-02T07:25:58.406Z</time></trkpt><trkpt lat="51.7562335" lon="0.146647"><ele>98.0</ele><time>2026-05-02T07:25:59.405Z</time></trkpt><trkpt lat="51.7565041" lon="0.1467509"><ele>98.0</ele><time>2026-05-02T07:26:00.408Z</time></trkpt><trkpt lat="51.756775" lon="0.1468608"><ele>98.0</ele><time>2026-05-02T07:26:01.405Z</time></trkpt><trkpt lat="51.7570454" lon="0.1469745"><ele>97.5</ele><time>2026-05-02T07:26:02.405Z</time></trkpt><trkpt lat="51.757314" lon="0.1470908"><ele>97.0</ele><time>2026-05-02T07:26:03.405Z</time></trkpt><trkpt lat="51.7575809" lon="0.1472121"><ele>97.5</ele><time>2026-05-02T07:26:04.405Z</time></trkpt><trkpt lat="51.7578472" lon="0.1473403"><ele>98.0</ele><time>2026-05-02T07:26:05.402Z</time></trkpt><trkpt lat="51.7581117" lon="0.1474723"><ele>97.0</ele><time>2026-05-02T07:26:06.405Z</time></trkpt><trkpt lat="51.7583774" lon="0.1476033"><ele>96.0</ele><time>2026-05-02T07:26:07.404Z</time></trkpt><trkpt lat="51.7586401" lon="0.1477383"><ele>96.0</ele><time>2026-05-02T07:26:08.406Z</time></trkpt><trkpt lat="51.7589025" lon="0.1478769"><ele>96.0</ele><time>2026-05-02T07:26:09.403Z</time></trkpt><trkpt lat="51.759163" lon="0.1480222"><ele>96.0</ele><time>2026-05-02T07:26:10.401Z</time></trkpt><trkpt lat="51.7594241" lon="0.1481738"><ele>96.0</ele><time>2026-05-02T07:26:11.403Z</time></trkpt><trkpt lat="51.7596842" lon="0.1483275"><ele>96.0</ele><time>2026-05-02T07:26:12.405Z</time></trkpt><trkpt lat="51.7599435" lon="0.1484843"><ele>96.0</ele><time>2026-05-02T07:26:13.403Z</time></trkpt><trkpt lat="51.7602034" lon="0.1486427"><ele>95.5</ele><time>2026-05-02T07:26:14.403Z</time></trkpt><trkpt lat="51.7604621" lon="0.1488028"><ele>95.0</ele><time>2026-05-02T07:26:15.402Z</time></trkpt><trkpt lat="51.7607218" lon="0.1489678"><ele>95.5</ele><time>2026-05-02T07:26:16.403Z</time></trkpt><trkpt lat="51.7609805" lon="0.1491344"><ele>96.0</ele><time>2026-05-02T07:26:17.402Z</time></trkpt><trkpt lat="51.7612387" lon="0.1493039"><ele>96.5</ele><time>2026-05-02T07:26:18.402Z</time></trkpt><trkpt lat="51.7614958" lon="0.1494787"><ele>97.0</ele><time>2026-05-02T07:26:19.404Z</time></trkpt><trkpt lat="51.7617522" lon="0.1496571"><ele>97.0</ele><time>2026-05-02T07:26:20.403Z</time></trkpt><trkpt lat="51.7620073" lon="0.1498449"><ele>97.0</ele><time>2026-05-02T07:26:21.402Z</time></trkpt><trkpt lat="51.7622607" lon="0.1500356"><ele>97.0</ele><time>2026-05-02T07:26:22.402Z</time></trkpt><trkpt lat="51.762514" lon="0.1502295"><ele>97.0</ele><time>2026-05-02T07:26:23.402Z</time></trkpt><trkpt lat="51.7627658" lon="0.1504278"><ele>95.5</ele><time>2026-05-02T07:26:24.406Z</time></trkpt><trkpt lat="51.7630171" lon="0.1506281"><ele>94.0</ele><time>2026-05-02T07:26:25.405Z</time></trkpt><trkpt lat="51.7632697" lon="0.1508287"><ele>94.0</ele><time>2026-05-02T07:26:26.405Z</time></trkpt><trkpt lat="51.7635176" lon="0.1510343"><ele>94.0</ele><time>2026-05-02T07:26:27.405Z</time></trkpt><trkpt lat="51.7637652" lon="0.1512413"><ele>94.0</ele><time>2026-05-02T07:26:28.402Z</time></trkpt><trkpt lat="51.7640124" lon="0.1514555"><ele>94.0</ele><time>2026-05-02T07:26:29.405Z</time></trkpt><trkpt lat="51.7642629" lon="0.1516757"><ele>93.5</ele><time>2026-05-02T07:26:30.406Z</time></trkpt><trkpt lat="51.7645176" lon="0.1519122"><ele>93.0</ele><time>2026-05-02T07:26:31.405Z</time></trkpt><trkpt lat="51.7647729" lon="0.1521568"><ele>92.5</ele><time>2026-05-02T07:26:32.405Z</time></trkpt><trkpt lat="51.7650273" lon="0.1524143"><ele>92.0</ele><time>2026-05-02T07:26:33.407Z</time></trkpt><trkpt lat="51.7652825" lon="0.1526822"><ele>93.0</ele><time>2026-05-02T07:26:34.406Z</time></trkpt><trkpt lat="51.7655416" lon="0.1529447"><ele>94.0</ele><time>2026-05-02T07:26:35.405Z</time></trkpt><trkpt lat="51.7658032" lon="0.1531996"><ele>92.0</ele><time>2026-05-02T07:26:36.406Z</time></trkpt><trkpt lat="51.7660627" lon="0.1534617"><ele>90.0</ele><time>2026-05-02T07:26:37.405Z</time></trkpt><trkpt lat="51.7663168" lon="0.1537288"><ele>90.0</ele><time>2026-05-02T07:26:38.406Z</time></trkpt><trkpt lat="51.7665696" lon="0.1539992"><ele>90.0</ele><time>2026-05-02T07:26:39.407Z</time></trkpt><trkpt lat="51.7668234" lon="0.1542726"><ele>87.5</ele><time>2026-05-02T07:26:40.402Z</time></trkpt><trkpt lat="51.7670731" lon="0.1545552"><ele>85.0</ele><time>2026-05-02T07:26:41.406Z</time></trkpt><trkpt lat="51.767317" lon="0.1548422"><ele>85.0</ele><time>2026-05-02T07:26:42.405Z</time></trkpt><trkpt lat="51.7675573" lon="0.155135"><ele>85.0</ele><time>2026-05-02T07:26:43.406Z</time></trkpt><trkpt lat="51.7677966" lon="0.1554257"><ele>85.5</ele><time>2026-05-02T07:26:44.402Z</time></trkpt><trkpt lat="51.7680362" lon="0.1557137"><ele>86.0</ele><time>2026-05-02T07:26:45.403Z</time></trkpt><trkpt lat="51.7682758" lon="0.1559992"><ele>86.0</ele><time>2026-05-02T07:26:46.403Z</time></trkpt><trkpt lat="51.7685172" lon="0.1562852"><ele>86.0</ele><time>2026-05-02T07:26:47.402Z</time></trkpt><trkpt lat="51.7687622" lon="0.1565634"><ele>85.5</ele><time>2026-05-02T07:26:48.407Z</time></trkpt><trkpt lat="51.7690099" lon="0.1568414"><ele>85.0</ele><time>2026-05-02T07:26:49.402Z</time></trkpt><trkpt lat="51.7692668" lon="0.1571233"><ele>85.0</ele><time>2026-05-02T07:26:50.406Z</time></trkpt><trkpt lat="51.7695279" lon="0.1574114"><ele>85.0</ele><time>2026-05-02T07:26:51.402Z</time></trkpt><trkpt lat="51.769797" lon="0.1577034"><ele>85.0</ele><time>2026-05-02T07:26:52.406Z</time></trkpt><trkpt lat="51.7700691" lon="0.1579924"><ele>85.0</ele><time>2026-05-02T07:26:53.406Z</time></trkpt><trkpt lat="51.7703428" lon="0.1582744"><ele>83.0</ele><time>2026-05-02T07:26:54.406Z</time></trkpt><trkpt lat="51.7706137" lon="0.1585507"><ele>81.0</ele><time>2026-05-02T07:26:55.405Z</time></trkpt><trkpt lat="51.7708835" lon="0.15882"><ele>79.0</ele><time>2026-05-02T07:26:56.406Z</time></trkpt><trkpt lat="51.7711509" lon="0.1590919"><ele>77.0</ele><time>2026-05-02T07:26:57.405Z</time></trkpt><trkpt lat="51.7714185" lon="0.1593632"><ele>77.0</ele><time>2026-05-02T07:26:58.402Z</time></trkpt><trkpt lat="51.7716843" lon="0.1596328"><ele>77.0</ele><time>2026-05-02T07:26:59.403Z</time></trkpt><trkpt lat="51.7719525" lon="0.1598993"><ele>76.0</ele><time>2026-05-02T07:27:00.403Z</time></trkpt><trkpt lat="51.7722223" lon="0.1601604"><ele>75.0</ele><time>2026-05-02T07:27:01.402Z</time></trkpt><trkpt lat="51.7724923" lon="0.1604178"><ele>75.0</ele><time>2026-05-02T07:27:02.402Z</time></trkpt><trkpt lat="51.7727593" lon="0.1606701"><ele>75.0</ele><time>2026-05-02T07:27:03.402Z</time></trkpt><trkpt lat="51.773027" lon="0.1609201"><ele>75.0</ele><time>2026-05-02T07:27:04.402Z</time></trkpt><trkpt lat="51.7732968" lon="0.1611699"><ele>75.0</ele><time>2026-05-02T07:27:05.403Z</time></trkpt><trkpt lat="51.7735699" lon="0.1614166"><ele>75.0</ele><time>2026-05-02T07:27:06.403Z</time></trkpt><trkpt lat="51.7738437" lon="0.161664"><ele>75.0</ele><time>2026-05-02T07:27:07.403Z</time></trkpt><trkpt lat="51.7741173" lon="0.1619056"><ele>74.5</ele><time>2026-05-02T07:27:08.402Z</time></trkpt><trkpt lat="51.7743907" lon="0.1621455"><ele>74.0</ele><time>2026-05-02T07:27:09.402Z</time></trkpt><trkpt lat="51.7746653" lon="0.162379"><ele>75.0</ele><time>2026-05-02T07:27:10.404Z</time></trkpt><trkpt lat="51.7749371" lon="0.1626041"><ele>76.0</ele><time>2026-05-02T07:27:11.402Z</time></trkpt><trkpt lat="51.7752072" lon="0.162824"><ele>76.0</ele><time>2026-05-02T07:27:12.402Z</time></trkpt><trkpt lat="51.7754771" lon="0.1630411"><ele>76.0</ele><time>2026-05-02T07:27:13.403Z</time></trkpt><trkpt lat="51.7757442" lon="0.1632541"><ele>77.0</ele><time>2026-05-02T07:27:14.403Z</time></trkpt><trkpt lat="51.7760083" lon="0.1634594"><ele>78.0</ele><time>2026-05-02T07:27:15.407Z</time></trkpt><trkpt lat="51.7762697" lon="0.1636622"><ele>79.0</ele><time>2026-05-02T07:27:16.406Z</time></trkpt><trkpt lat="51.776525" lon="0.1638567"><ele>80.0</ele><time>2026-05-02T07:27:17.405Z</time></trkpt><trkpt lat="51.7767767" lon="0.164045"><ele>82.0</ele><time>2026-05-02T07:27:18.403Z</time></trkpt><trkpt lat="51.7770267" lon="0.1642333"><ele>84.0</ele><time>2026-05-02T07:27:19.403Z</time></trkpt><trkpt lat="51.7772783" lon="0.1644183"><ele>84.0</ele><time>2026-05-02T07:27:20.406Z</time></trkpt><trkpt lat="51.77753" lon="0.1646033"><ele>84.0</ele><time>2026-05-02T07:27:21.402Z</time></trkpt><trkpt lat="51.7777817" lon="0.16479"><ele>84.0</ele><time>2026-05-02T07:27:22.403Z</time></trkpt><trkpt lat="51.7780367" lon="0.1649767"><ele>84.0</ele><time>2026-05-02T07:27:23.403Z</time></trkpt><trkpt lat="51.7782967" lon="0.16516"><ele>84.5</ele><time>2026-05-02T07:27:24.402Z</time></trkpt><trkpt lat="51.7785583" lon="0.1653417"><ele>85.0</ele><time>2026-05-02T07:27:25.403Z</time></trkpt><trkpt lat="51.7788217" lon="0.165525"><ele>84.5</ele><time>2026-05-02T07:27:26.403Z</time></trkpt><trkpt lat="51.7790867" lon="0.165705"><ele>84.0</ele><time>2026-05-02T07:27:27.402Z</time></trkpt><trkpt lat="51.7793533" lon="0.1658783"><ele>83.5</ele><time>2026-05-02T07:27:28.403Z</time></trkpt><trkpt lat="51.7796183" lon="0.166045"><ele>83.0</ele><time>2026-05-02T07:27:29.402Z</time></trkpt><trkpt lat="51.7798833" lon="0.16621"><ele>83.0</ele><time>2026-05-02T07:27:30.403Z</time></trkpt><trkpt lat="51.7801467" lon="0.1663767"><ele>83.0</ele><time>2026-05-02T07:27:31.402Z</time></trkpt><trkpt lat="51.7804067" lon="0.1665467"><ele>82.5</ele><time>2026-05-02T07:27:32.404Z</time></trkpt><trkpt lat="51.7806667" lon="0.1667183"><ele>82.0</ele><time>2026-05-02T07:27:33.402Z</time></trkpt><trkpt lat="51.7809267" lon="0.1668883"><ele>82.5</ele><time>2026-05-02T07:27:34.403Z</time></trkpt><trkpt lat="51.7811883" lon="0.1670483"><ele>83.0</ele><time>2026-05-02T07:27:35.402Z</time></trkpt><trkpt lat="51.7814533" lon="0.1672017"><ele>83.0</ele><time>2026-05-02T07:27:36.404Z</time></trkpt><trkpt lat="51.7817183" lon="0.16735"><ele>83.0</ele><time>2026-05-02T07:27:37.402Z</time></trkpt><trkpt lat="51.7819833" lon="0.1674983"><ele>82.5</ele><time>2026-05-02T07:27:38.407Z</time></trkpt><trkpt lat="51.78225" lon="0.167645"><ele>82.0</ele><time>2026-05-02T07:27:39.403Z</time></trkpt><trkpt lat="51.78252" lon="0.16779"><ele>81.0</ele><time>2026-05-02T07:27:40.405Z</time></trkpt><trkpt lat="51.7827917" lon="0.1679383"><ele>80.0</ele><time>2026-05-02T07:27:41.406Z</time></trkpt><trkpt lat="51.7830683" lon="0.16808"><ele>80.0</ele><time>2026-05-02T07:27:42.403Z</time></trkpt><trkpt lat="51.7833517" lon="0.1682283"><ele>80.0</ele><time>2026-05-02T07:27:43.406Z</time></trkpt><trkpt lat="51.7836483" lon="0.168365"><ele>78.0</ele><time>2026-05-02T07:27:44.406Z</time></trkpt><trkpt lat="51.7839367" lon="0.1685017"><ele>76.0</ele><time>2026-05-02T07:27:45.405Z</time></trkpt><trkpt lat="51.7842233" lon="0.1686417"><ele>76.0</ele><time>2026-05-02T07:27:46.405Z</time></trkpt><trkpt lat="51.7845167" lon="0.16878"><ele>76.0</ele><time>2026-05-02T07:27:47.406Z</time></trkpt><trkpt lat="51.7848067" lon="0.1689133"><ele>75.5</ele><time>2026-05-02T07:27:48.403Z</time></trkpt><trkpt lat="51.7850883" lon="0.16904"><ele>75.0</ele><time>2026-05-02T07:27:49.403Z</time></trkpt><trkpt lat="51.78536" lon="0.1691633"><ele>75.0</ele><time>2026-05-02T07:27:50.404Z</time></trkpt><trkpt lat="51.7856283" lon="0.1692817"><ele>75.0</ele><time>2026-05-02T07:27:51.404Z</time></trkpt><trkpt lat="51.7858974" lon="0.1693944"><ele>75.5</ele><time>2026-05-02T07:27:52.404Z</time></trkpt><trkpt lat="51.7861688" lon="0.1695093"><ele>76.0</ele><time>2026-05-02T07:27:53.404Z</time></trkpt><trkpt lat="51.7864407" lon="0.1696221"><ele>76.0</ele><time>2026-05-02T07:27:54.405Z</time></trkpt><trkpt lat="51.7867123" lon="0.1697352"><ele>76.0</ele><time>2026-05-02T07:27:55.404Z</time></trkpt><trkpt lat="51.7869855" lon="0.1698524"><ele>75.0</ele><time>2026-05-02T07:27:56.404Z</time></trkpt><trkpt lat="51.7872565" lon="0.1699747"><ele>74.0</ele><time>2026-05-02T07:27:57.404Z</time></trkpt><trkpt lat="51.7875264" lon="0.1700978"><ele>73.0</ele><time>2026-05-02T07:27:58.405Z</time></trkpt><trkpt lat="51.7877965" lon="0.1702188"><ele>72.0</ele><time>2026-05-02T07:27:59.405Z</time></trkpt><trkpt lat="51.7880698" lon="0.1703412"><ele>72.0</ele><time>2026-05-02T07:28:00.405Z</time></trkpt><trkpt lat="51.7883399" lon="0.1704697"><ele>72.0</ele><time>2026-05-02T07:28:01.402Z</time></trkpt><trkpt lat="51.7886115" lon="0.1706055"><ele>70.0</ele><time>2026-05-02T07:28:02.407Z</time></trkpt><trkpt lat="51.7888825" lon="0.1707409"><ele>68.0</ele><time>2026-05-02T07:28:03.406Z</time></trkpt><trkpt lat="51.7891549" lon="0.1708737"><ele>66.5</ele><time>2026-05-02T07:28:04.405Z</time></trkpt><trkpt lat="51.7894265" lon="0.1710044"><ele>65.0</ele><time>2026-05-02T07:28:05.402Z</time></trkpt><trkpt lat="51.7896988" lon="0.1711363"><ele>65.0</ele><time>2026-05-02T07:28:06.405Z</time></trkpt><trkpt lat="51.7899687" lon="0.1712698"><ele>65.0</ele><time>2026-05-02T07:28:07.406Z</time></trkpt><trkpt lat="51.7902388" lon="0.1714092"><ele>63.0</ele><time>2026-05-02T07:28:08.405Z</time></trkpt><trkpt lat="51.7905084" lon="0.1715499"><ele>61.0</ele><time>2026-05-02T07:28:09.402Z</time></trkpt><trkpt lat="51.7907773" lon="0.1716868"><ele>59.0</ele><time>2026-05-02T07:28:10.402Z</time></trkpt><trkpt lat="51.7910461" lon="0.1718248"><ele>57.0</ele><time>2026-05-02T07:28:11.406Z</time></trkpt><trkpt lat="51.7913107" lon="0.1719644"><ele>57.0</ele><time>2026-05-02T07:28:12.406Z</time></trkpt><trkpt lat="51.7915772" lon="0.1721036"><ele>57.0</ele><time>2026-05-02T07:28:13.406Z</time></trkpt><trkpt lat="51.7918454" lon="0.1722449"><ele>57.0</ele><time>2026-05-02T07:28:14.41Z</time></trkpt><trkpt lat="51.792113" lon="0.1723885"><ele>57.0</ele><time>2026-05-02T07:28:15.405Z</time></trkpt><trkpt lat="51.7923828" lon="0.1725344"><ele>57.0</ele><time>2026-05-02T07:28:16.405Z</time></trkpt><trkpt lat="51.7926524" lon="0.1726813"><ele>57.0</ele><time>2026-05-02T07:28:17.41Z</time></trkpt><trkpt lat="51.7929198" lon="0.1728285"><ele>55.0</ele><time>2026-05-02T07:28:18.402Z</time></trkpt><trkpt lat="51.7931901" lon="0.1729747"><ele>53.0</ele><time>2026-05-02T07:28:19.404Z</time></trkpt><trkpt lat="51.7934599" lon="0.1731164"><ele>53.5</ele><time>2026-05-02T07:28:20.403Z</time></trkpt><trkpt lat="51.7937303" lon="0.1732551"><ele>54.0</ele><time>2026-05-02T07:28:21.402Z</time></trkpt><trkpt lat="51.7940002" lon="0.1733917"><ele>54.0</ele><time>2026-05-02T07:28:22.402Z</time></trkpt><trkpt lat="51.7942728" lon="0.1735219"><ele>54.0</ele><time>2026-05-02T07:28:23.403Z</time></trkpt><trkpt lat="51.7945422" lon="0.1736465"><ele>54.0</ele><time>2026-05-02T07:28:24.402Z</time></trkpt><trkpt lat="51.7948109" lon="0.1737649"><ele>54.0</ele><time>2026-05-02T07:28:25.406Z</time></trkpt><trkpt lat="51.7950803" lon="0.173883"><ele>54.5</ele><time>2026-05-02T07:28:26.403Z</time></trkpt><trkpt lat="51.7953518" lon="0.1740009"><ele>55.0</ele><time>2026-05-02T07:28:27.404Z</time></trkpt><trkpt lat="51.7956222" lon="0.1741156"><ele>56.0</ele><time>2026-05-02T07:28:28.402Z</time></trkpt><trkpt lat="51.7958952" lon="0.1742248"><ele>57.0</ele><time>2026-05-02T07:28:29.405Z</time></trkpt><trkpt lat="51.7961699" lon="0.1743285"><ele>58.0</ele><time>2026-05-02T07:28:30.408Z</time></trkpt><trkpt lat="51.7964457" lon="0.1744315"><ele>59.0</ele><time>2026-05-02T07:28:31.406Z</time></trkpt><trkpt lat="51.7967225" lon="0.1745371"><ele>60.5</ele><time>2026-05-02T07:28:32.405Z</time></trkpt><trkpt lat="51.7969978" lon="0.1746395"><ele>62.0</ele><time>2026-05-02T07:28:33.405Z</time></trkpt><trkpt lat="51.7972716" lon="0.1747346"><ele>62.0</ele><time>2026-05-02T07:28:34.406Z</time></trkpt><trkpt lat="51.7975466" lon="0.1748228"><ele>62.0</ele><time>2026-05-02T07:28:35.405Z</time></trkpt><trkpt lat="51.7978231" lon="0.1749059"><ele>64.0</ele><time>2026-05-02T07:28:36.405Z</time></trkpt><trkpt lat="51.7981011" lon="0.1749875"><ele>66.0</ele><time>2026-05-02T07:28:37.405Z</time></trkpt><trkpt lat="51.7983795" lon="0.1750678"><ele>69.0</ele><time>2026-05-02T07:28:38.405Z</time></trkpt><trkpt lat="51.7986579" lon="0.1751504"><ele>72.0</ele><time>2026-05-02T07:28:39.405Z</time></trkpt><trkpt lat="51.7989379" lon="0.1752294"><ele>72.0</ele><time>2026-05-02T07:28:40.405Z</time></trkpt><trkpt lat="51.7992194" lon="0.1753044"><ele>72.0</ele><time>2026-05-02T07:28:41.406Z</time></trkpt><trkpt lat="51.7994986" lon="0.1753762"><ele>73.5</ele><time>2026-05-02T07:28:42.406Z</time></trkpt><trkpt lat="51.7997784" lon="0.1754417"><ele>75.0</ele><time>2026-05-02T07:28:43.406Z</time></trkpt><trkpt lat="51.8000558" lon="0.1755037"><ele>75.5</ele><time>2026-05-02T07:28:44.405Z</time></trkpt><trkpt lat="51.8003338" lon="0.1755599"><ele>76.0</ele><time>2026-05-02T07:28:45.406Z</time></trkpt><trkpt lat="51.8006132" lon="0.1756101"><ele>76.0</ele><time>2026-05-02T07:28:46.406Z</time></trkpt><trkpt lat="51.8008943" lon="0.1756589"><ele>76.0</ele><time>2026-05-02T07:28:47.402Z</time></trkpt><trkpt lat="51.8011752" lon="0.1757037"><ele>76.0</ele><time>2026-05-02T07:28:48.403Z</time></trkpt><trkpt lat="51.801458" lon="0.1757456"><ele>76.0</ele><time>2026-05-02T07:28:49.403Z</time></trkpt><trkpt lat="51.8017414" lon="0.1757811"><ele>76.0</ele><time>2026-05-02T07:28:50.403Z</time></trkpt><trkpt lat="51.8020261" lon="0.1758129"><ele>76.0</ele><time>2026-05-02T07:28:51.403Z</time></trkpt><trkpt lat="51.8023086" lon="0.1758448"><ele>76.0</ele><time>2026-05-02T07:28:52.405Z</time></trkpt><trkpt lat="51.8025902" lon="0.1758778"><ele>76.0</ele><time>2026-05-02T07:28:53.403Z</time></trkpt><trkpt lat="51.8028733" lon="0.1759095"><ele>75.5</ele><time>2026-05-02T07:28:54.403Z</time></trkpt><trkpt lat="51.8031542" lon="0.1759398"><ele>75.0</ele><time>2026-05-02T07:28:55.403Z</time></trkpt><trkpt lat="51.8034371" lon="0.1759652"><ele>74.5</ele><time>2026-05-02T07:28:56.403Z</time></trkpt><trkpt lat="51.8037207" lon="0.1759869"><ele>74.0</ele><time>2026-05-02T07:28:57.407Z</time></trkpt><trkpt lat="51.8040035" lon="0.1760046"><ele>74.0</ele><time>2026-05-02T07:28:58.403Z</time></trkpt><trkpt lat="51.804287" lon="0.1760214"><ele>74.0</ele><time>2026-05-02T07:28:59.404Z</time></trkpt><trkpt lat="51.8045701" lon="0.1760428"><ele>72.5</ele><time>2026-05-02T07:29:00.404Z</time></trkpt><trkpt lat="51.8048519" lon="0.1760712"><ele>71.0</ele><time>2026-05-02T07:29:01.404Z</time></trkpt><trkpt lat="51.8051326" lon="0.1761124"><ele>71.5</ele><time>2026-05-02T07:29:02.406Z</time></trkpt><trkpt lat="51.8054123" lon="0.1761596"><ele>72.0</ele><time>2026-05-02T07:29:03.405Z</time></trkpt><trkpt lat="51.805691" lon="0.176214"><ele>72.0</ele><time>2026-05-02T07:29:04.405Z</time></trkpt><trkpt lat="51.805968" lon="0.1762822"><ele>72.0</ele><time>2026-05-02T07:29:05.406Z</time></trkpt><trkpt lat="51.8062472" lon="0.176359"><ele>71.0</ele><time>2026-05-02T07:29:06.407Z</time></trkpt><trkpt lat="51.8065256" lon="0.1764429"><ele>70.0</ele><time>2026-05-02T07:29:07.406Z</time></trkpt><trkpt lat="51.8068032" lon="0.1765343"><ele>68.0</ele><time>2026-05-02T07:29:08.405Z</time></trkpt><trkpt lat="51.8070803" lon="0.1766356"><ele>66.0</ele><time>2026-05-02T07:29:09.405Z</time></trkpt><trkpt lat="51.8073525" lon="0.1767465"><ele>66.0</ele><time>2026-05-02T07:29:10.406Z</time></trkpt><trkpt lat="51.8076222" lon="0.1768711"><ele>66.0</ele><time>2026-05-02T07:29:11.403Z</time></trkpt><trkpt lat="51.8078932" lon="0.1770023"><ele>66.5</ele><time>2026-05-02T07:29:12.404Z</time></trkpt><trkpt lat="51.8081619" lon="0.1771458"><ele>67.0</ele><time>2026-05-02T07:29:13.402Z</time></trkpt><trkpt lat="51.8084277" lon="0.1773004"><ele>69.0</ele><time>2026-05-02T07:29:14.406Z</time></trkpt><trkpt lat="51.8086918" lon="0.1774595"><ele>71.0</ele><time>2026-05-02T07:29:15.402Z</time></trkpt><trkpt lat="51.8089531" lon="0.1776224"><ele>71.0</ele><time>2026-05-02T07:29:16.403Z</time></trkpt><trkpt lat="51.8092128" lon="0.1777976"><ele>71.0</ele><time>2026-05-02T07:29:17.404Z</time></trkpt><trkpt lat="51.8094695" lon="0.177982"><ele>72.5</ele><time>2026-05-02T07:29:18.402Z</time></trkpt><trkpt lat="51.8097244" lon="0.1781739"><ele>74.0</ele><time>2026-05-02T07:29:19.404Z</time></trkpt><trkpt lat="51.8099771" lon="0.1783784"><ele>75.0</ele><time>2026-05-02T07:29:20.403Z</time></trkpt><trkpt lat="51.8102291" lon="0.178588"><ele>76.0</ele><time>2026-05-02T07:29:21.403Z</time></trkpt><trkpt lat="51.8104765" lon="0.1788054"><ele>75.0</ele><time>2026-05-02T07:29:22.402Z</time></trkpt><trkpt lat="51.8107192" lon="0.1790361"><ele>74.0</ele><time>2026-05-02T07:29:23.404Z</time></trkpt><trkpt lat="51.8109598" lon="0.1792768"><ele>74.5</ele><time>2026-05-02T07:29:24.406Z</time></trkpt><trkpt lat="51.8111992" lon="0.1795228"><ele>75.0</ele><time>2026-05-02T07:29:25.405Z</time></trkpt><trkpt lat="51.8114349" lon="0.1797768"><ele>75.0</ele><time>2026-05-02T07:29:26.406Z</time></trkpt><trkpt lat="51.8116664" lon="0.1800395"><ele>75.0</ele><time>2026-05-02T07:29:27.405Z</time></trkpt><trkpt lat="51.8118987" lon="0.1803051"><ele>74.5</ele><time>2026-05-02T07:29:28.405Z</time></trkpt><trkpt lat="51.8121318" lon="0.1805658"><ele>74.0</ele><time>2026-05-02T07:29:29.405Z</time></trkpt><trkpt lat="51.8123639" lon="0.1808239"><ele>74.0</ele><time>2026-05-02T07:29:30.405Z</time></trkpt><trkpt lat="51.8125971" lon="0.1810793"><ele>74.0</ele><time>2026-05-02T07:29:31.402Z</time></trkpt><trkpt lat="51.8128315" lon="0.1813297"><ele>74.0</ele><time>2026-05-02T07:29:32.406Z</time></trkpt><trkpt lat="51.8130678" lon="0.1815775"><ele>74.0</ele><time>2026-05-02T07:29:33.402Z</time></trkpt><trkpt lat="51.8133072" lon="0.1818225"><ele>74.0</ele><time>2026-05-02T07:29:34.406Z</time></trkpt><trkpt lat="51.8135471" lon="0.1820624"><ele>74.0</ele><time>2026-05-02T07:29:35.405Z</time></trkpt><trkpt lat="51.8137907" lon="0.1822896"><ele>75.0</ele><time>2026-05-02T07:29:36.406Z</time></trkpt><trkpt lat="51.8140381" lon="0.1825078"><ele>76.0</ele><time>2026-05-02T07:29:37.406Z</time></trkpt><trkpt lat="51.8142884" lon="0.1827148"><ele>75.0</ele><time>2026-05-02T07:29:38.406Z</time></trkpt><trkpt lat="51.814543" lon="0.1829128"><ele>74.0</ele><time>2026-05-02T07:29:39.407Z</time></trkpt><trkpt lat="51.8147995" lon="0.1831027"><ele>74.5</ele><time>2026-05-02T07:29:40.407Z</time></trkpt><trkpt lat="51.8150574" lon="0.1832867"><ele>75.0</ele><time>2026-05-02T07:29:41.406Z</time></trkpt><trkpt lat="51.8153164" lon="0.1834622"><ele>75.0</ele><time>2026-05-02T07:29:42.406Z</time></trkpt><trkpt lat="51.8155798" lon="0.1836254"><ele>75.0</ele><time>2026-05-02T07:29:43.406Z</time></trkpt><trkpt lat="51.8158451" lon="0.1837769"><ele>74.5</ele><time>2026-05-02T07:29:44.405Z</time></trkpt><trkpt lat="51.8161162" lon="0.1839153"><ele>74.0</ele><time>2026-05-02T07:29:45.405Z</time></trkpt><trkpt lat="51.8163869" lon="0.1840476"><ele>75.0</ele><time>2026-05-02T07:29:46.407Z</time></trkpt><trkpt lat="51.8166597" lon="0.1841724"><ele>76.0</ele><time>2026-05-02T07:29:47.404Z</time></trkpt><trkpt lat="51.8169323" lon="0.1842867"><ele>76.0</ele><time>2026-05-02T07:29:48.404Z</time></trkpt><trkpt lat="51.8172081" lon="0.1843889"><ele>76.0</ele><time>2026-05-02T07:29:49.404Z</time></trkpt><trkpt lat="51.8174855" lon="0.1844836"><ele>75.5</ele><time>2026-05-02T07:29:50.405Z</time></trkpt><trkpt lat="51.8177637" lon="0.1845635"><ele>75.0</ele><time>2026-05-02T07:29:51.406Z</time></trkpt><trkpt lat="51.8180433" lon="0.1846351"><ele>75.0</ele><time>2026-05-02T07:29:52.404Z</time></trkpt><trkpt lat="51.8183247" lon="0.1846974"><ele>75.0</ele><time>2026-05-02T07:29:53.404Z</time></trkpt><trkpt lat="51.818608" lon="0.1847523"><ele>74.5</ele><time>2026-05-02T07:29:54.405Z</time></trkpt><trkpt lat="51.818889" lon="0.1847979"><ele>74.0</ele><time>2026-05-02T07:29:55.406Z</time></trkpt><trkpt lat="51.8191706" lon="0.1848334"><ele>74.5</ele><time>2026-05-02T07:29:56.406Z</time></trkpt><trkpt lat="51.8194525" lon="0.1848548"><ele>75.0</ele><time>2026-05-02T07:29:57.406Z</time></trkpt><trkpt lat="51.8197363" lon="0.1848716"><ele>75.0</ele><time>2026-05-02T07:29:58.402Z</time></trkpt><trkpt lat="51.8200212" lon="0.1848893"><ele>75.0</ele><time>2026-05-02T07:29:59.402Z</time></trkpt><trkpt lat="51.8203071" lon="0.1849062"><ele>74.5</ele><time>2026-05-02T07:30:00.402Z</time></trkpt><trkpt lat="51.8205913" lon="0.1849277"><ele>74.0</ele><time>2026-05-02T07:30:01.403Z</time></trkpt><trkpt lat="51.8208736" lon="0.184956"><ele>75.5</ele><time>2026-05-02T07:30:02.404Z</time></trkpt><trkpt lat="51.8211565" lon="0.1849857"><ele>77.0</ele><time>2026-05-02T07:30:03.403Z</time></trkpt><trkpt lat="51.8214397" lon="0.1850192"><ele>77.0</ele><time>2026-05-02T07:30:04.403Z</time></trkpt><trkpt lat="51.821722" lon="0.1850618"><ele>77.0</ele><time>2026-05-02T07:30:05.404Z</time></trkpt><trkpt lat="51.8220007" lon="0.1851132"><ele>77.0</ele><time>2026-05-02T07:30:06.402Z</time></trkpt><trkpt lat="51.8222789" lon="0.1851751"><ele>77.0</ele><time>2026-05-02T07:30:07.403Z</time></trkpt><trkpt lat="51.8225561" lon="0.1852464"><ele>76.5</ele><time>2026-05-02T07:30:08.403Z</time></trkpt><trkpt lat="51.8228327" lon="0.185325"><ele>76.0</ele><time>2026-05-02T07:30:09.402Z</time></trkpt><trkpt lat="51.823109" lon="0.1854141"><ele>76.0</ele><time>2026-05-02T07:30:10.403Z</time></trkpt><trkpt lat="51.8233839" lon="0.1855164"><ele>76.0</ele><time>2026-05-02T07:30:11.402Z</time></trkpt><trkpt lat="51.8236561" lon="0.1856276"><ele>76.5</ele><time>2026-05-02T07:30:12.402Z</time></trkpt><trkpt lat="51.8239289" lon="0.1857474"><ele>77.0</ele><time>2026-05-02T07:30:13.404Z</time></trkpt><trkpt lat="51.8242009" lon="0.1858756"><ele>76.5</ele><time>2026-05-02T07:30:14.406Z</time></trkpt><trkpt lat="51.8244709" lon="0.1860108"><ele>76.0</ele><time>2026-05-02T07:30:15.403Z</time></trkpt><trkpt lat="51.8247394" lon="0.1861577"><ele>76.0</ele><time>2026-05-02T07:30:16.404Z</time></trkpt><trkpt lat="51.8250034" lon="0.1863181"><ele>76.0</ele><time>2026-05-02T07:30:17.403Z</time></trkpt><trkpt lat="51.8252646" lon="0.1864884"><ele>75.0</ele><time>2026-05-02T07:30:18.404Z</time></trkpt><trkpt lat="51.8255207" lon="0.1866644"><ele>74.0</ele><time>2026-05-02T07:30:19.403Z</time></trkpt><trkpt lat="51.8260331" lon="0.187038"><ele>73.5</ele><time>2026-05-02T07:30:21.404Z</time></trkpt><trkpt lat="51.8262877" lon="0.1872433"><ele>73.0</ele><time>2026-05-02T07:30:22.404Z</time></trkpt><trkpt lat="51.8265379" lon="0.1874605"><ele>73.0</ele><time>2026-05-02T07:30:23.405Z</time></trkpt><trkpt lat="51.8267855" lon="0.187683"><ele>73.0</ele><time>2026-05-02T07:30:24.405Z</time></trkpt><trkpt lat="51.8270292" lon="0.1879206"><ele>72.5</ele><time>2026-05-02T07:30:25.406Z</time></trkpt><trkpt lat="51.8272695" lon="0.1881631"><ele>72.0</ele><time>2026-05-02T07:30:26.406Z</time></trkpt><trkpt lat="51.8275091" lon="0.1884064"><ele>70.5</ele><time>2026-05-02T07:30:27.405Z</time></trkpt><trkpt lat="51.8277482" lon="0.188655"><ele>69.0</ele><time>2026-05-02T07:30:28.402Z</time></trkpt><trkpt lat="51.8279842" lon="0.1889092"><ele>69.5</ele><time>2026-05-02T07:30:29.404Z</time></trkpt><trkpt lat="51.828218" lon="0.1891643"><ele>70.0</ele><time>2026-05-02T07:30:30.402Z</time></trkpt><trkpt lat="51.8284509" lon="0.1894232"><ele>70.0</ele><time>2026-05-02T07:30:31.402Z</time></trkpt><trkpt lat="51.8286841" lon="0.1896805"><ele>70.0</ele><time>2026-05-02T07:30:32.402Z</time></trkpt><trkpt lat="51.8289208" lon="0.1899303"><ele>70.0</ele><time>2026-05-02T07:30:33.403Z</time></trkpt><trkpt lat="51.8291604" lon="0.1901746"><ele>70.0</ele><time>2026-05-02T07:30:34.402Z</time></trkpt><trkpt lat="51.8294013" lon="0.190414"><ele>70.5</ele><time>2026-05-02T07:30:35.403Z</time></trkpt><trkpt lat="51.8296418" lon="0.1906469"><ele>71.0</ele><time>2026-05-02T07:30:36.402Z</time></trkpt><trkpt lat="51.8298853" lon="0.190877"><ele>71.0</ele><time>2026-05-02T07:30:37.402Z</time></trkpt><trkpt lat="51.8301305" lon="0.1910993"><ele>71.0</ele><time>2026-05-02T07:30:38.402Z</time></trkpt><trkpt lat="51.8303799" lon="0.1913146"><ele>72.0</ele><time>2026-05-02T07:30:39.403Z</time></trkpt><trkpt lat="51.8306319" lon="0.1915206"><ele>73.0</ele><time>2026-05-02T07:30:40.405Z</time></trkpt><trkpt lat="51.8308871" lon="0.1917134"><ele>72.5</ele><time>2026-05-02T07:30:41.405Z</time></trkpt><trkpt lat="51.8311469" lon="0.1918921"><ele>72.0</ele><time>2026-05-02T07:30:42.406Z</time></trkpt><trkpt lat="51.8314082" lon="0.1920621"><ele>72.0</ele><time>2026-05-02T07:30:43.403Z</time></trkpt><trkpt lat="51.8316721" lon="0.1922253"><ele>72.0</ele><time>2026-05-02T07:30:44.405Z</time></trkpt><trkpt lat="51.8319397" lon="0.1923772"><ele>72.5</ele><time>2026-05-02T07:30:45.404Z</time></trkpt><trkpt lat="51.8322071" lon="0.1925229"><ele>73.0</ele><time>2026-05-02T07:30:46.405Z</time></trkpt><trkpt lat="51.8324781" lon="0.1926602"><ele>73.5</ele><time>2026-05-02T07:30:47.405Z</time></trkpt><trkpt lat="51.8327504" lon="0.1927866"><ele>74.0</ele><time>2026-05-02T07:30:48.406Z</time></trkpt><trkpt lat="51.8330234" lon="0.1928956"><ele>74.0</ele><time>2026-05-02T07:30:49.402Z</time></trkpt><trkpt lat="51.8332989" lon="0.1929894"><ele>74.0</ele><time>2026-05-02T07:30:50.405Z</time></trkpt><trkpt lat="51.8335767" lon="0.1930782"><ele>75.0</ele><time>2026-05-02T07:30:51.406Z</time></trkpt><trkpt lat="51.8338551" lon="0.1931651"><ele>76.0</ele><time>2026-05-02T07:30:52.405Z</time></trkpt><trkpt lat="51.8341334" lon="0.1932426"><ele>76.0</ele><time>2026-05-02T07:30:53.405Z</time></trkpt><trkpt lat="51.8344107" lon="0.1933064"><ele>76.0</ele><time>2026-05-02T07:30:54.405Z</time></trkpt><trkpt lat="51.8346917" lon="0.1933561"><ele>76.0</ele><time>2026-05-02T07:30:55.405Z</time></trkpt><trkpt lat="51.8349745" lon="0.1933946"><ele>76.0</ele><time>2026-05-02T07:30:56.403Z</time></trkpt><trkpt lat="51.8352584" lon="0.1934171"><ele>76.0</ele><time>2026-05-02T07:30:57.405Z</time></trkpt><trkpt lat="51.8355425" lon="0.193428"><ele>76.0</ele><time>2026-05-02T07:30:58.403Z</time></trkpt><trkpt lat="51.8358263" lon="0.1934308"><ele>75.5</ele><time>2026-05-02T07:30:59.402Z</time></trkpt><trkpt lat="51.8361096" lon="0.193428"><ele>75.0</ele><time>2026-05-02T07:31:00.403Z</time></trkpt><trkpt lat="51.8363943" lon="0.1934185"><ele>75.0</ele><time>2026-05-02T07:31:01.406Z</time></trkpt><trkpt lat="51.8366776" lon="0.1933964"><ele>75.0</ele><time>2026-05-02T07:31:02.405Z</time></trkpt><trkpt lat="51.8369618" lon="0.1933627"><ele>73.5</ele><time>2026-05-02T07:31:03.403Z</time></trkpt><trkpt lat="51.8372446" lon="0.1933173"><ele>72.0</ele><time>2026-05-02T07:31:04.402Z</time></trkpt><trkpt lat="51.8375239" lon="0.1932585"><ele>72.0</ele><time>2026-05-02T07:31:05.403Z</time></trkpt><trkpt lat="51.837801" lon="0.1931893"><ele>72.0</ele><time>2026-05-02T07:31:06.402Z</time></trkpt><trkpt lat="51.8380773" lon="0.1931125"><ele>71.5</ele><time>2026-05-02T07:31:07.403Z</time></trkpt><trkpt lat="51.8383522" lon="0.1930229"><ele>71.0</ele><time>2026-05-02T07:31:08.402Z</time></trkpt><trkpt lat="51.8386266" lon="0.1929216"><ele>71.0</ele><time>2026-05-02T07:31:09.402Z</time></trkpt><trkpt lat="51.8388996" lon="0.1928106"><ele>71.0</ele><time>2026-05-02T07:31:10.402Z</time></trkpt><trkpt lat="51.8391743" lon="0.1926918"><ele>72.5</ele><time>2026-05-02T07:31:11.402Z</time></trkpt><trkpt lat="51.8394481" lon="0.1925661"><ele>74.0</ele><time>2026-05-02T07:31:12.406Z</time></trkpt><trkpt lat="51.8397185" lon="0.1924318"><ele>73.5</ele><time>2026-05-02T07:31:13.406Z</time></trkpt><trkpt lat="51.8399857" lon="0.192289"><ele>73.0</ele><time>2026-05-02T07:31:14.405Z</time></trkpt><trkpt lat="51.8402509" lon="0.1921353"><ele>74.0</ele><time>2026-05-02T07:31:15.406Z</time></trkpt><trkpt lat="51.8405155" lon="0.1919667"><ele>75.0</ele><time>2026-05-02T07:31:16.406Z</time></trkpt><trkpt lat="51.8407769" lon="0.1917858"><ele>74.5</ele><time>2026-05-02T07:31:17.405Z</time></trkpt><trkpt lat="51.8410353" lon="0.1915972"><ele>74.0</ele><time>2026-05-02T07:31:18.405Z</time></trkpt><trkpt lat="51.8412887" lon="0.1913992"><ele>74.0</ele><time>2026-05-02T07:31:19.405Z</time></trkpt><trkpt lat="51.8415404" lon="0.1911904"><ele>74.0</ele><time>2026-05-02T07:31:20.405Z</time></trkpt><trkpt lat="51.8417888" lon="0.1909741"><ele>75.0</ele><time>2026-05-02T07:31:21.405Z</time></trkpt><trkpt lat="51.8420326" lon="0.1907509"><ele>76.0</ele><time>2026-05-02T07:31:22.406Z</time></trkpt><trkpt lat="51.8422725" lon="0.1905179"><ele>76.5</ele><time>2026-05-02T07:31:23.406Z</time></trkpt><trkpt lat="51.8425116" lon="0.1902767"><ele>77.0</ele><time>2026-05-02T07:31:24.406Z</time></trkpt><trkpt lat="51.8427469" lon="0.190026"><ele>76.0</ele><time>2026-05-02T07:31:25.406Z</time></trkpt><trkpt lat="51.8429744" lon="0.1897699"><ele>75.0</ele><time>2026-05-02T07:31:26.405Z</time></trkpt><trkpt lat="51.8431897" lon="0.189518"><ele>75.0</ele><time>2026-05-02T07:31:27.405Z</time></trkpt><trkpt lat="51.8434001" lon="0.1892665"><ele>75.0</ele><time>2026-05-02T07:31:28.403Z</time></trkpt><trkpt lat="51.8436113" lon="0.1890135"><ele>76.5</ele><time>2026-05-02T07:31:29.403Z</time></trkpt><trkpt lat="51.8438226" lon="0.1887615"><ele>78.0</ele><time>2026-05-02T07:31:30.404Z</time></trkpt><trkpt lat="51.8440358" lon="0.1885107"><ele>78.0</ele><time>2026-05-02T07:31:31.402Z</time></trkpt><trkpt lat="51.8442524" lon="0.1882602"><ele>78.0</ele><time>2026-05-02T07:31:32.406Z</time></trkpt><trkpt lat="51.8444702" lon="0.1880183"><ele>79.5</ele><time>2026-05-02T07:31:33.407Z</time></trkpt><trkpt lat="51.8446906" lon="0.1877827"><ele>81.0</ele><time>2026-05-02T07:31:34.405Z</time></trkpt><trkpt lat="51.8449096" lon="0.1875532"><ele>81.0</ele><time>2026-05-02T07:31:35.405Z</time></trkpt><trkpt lat="51.8451267" lon="0.1873357"><ele>81.0</ele><time>2026-05-02T07:31:36.405Z</time></trkpt><trkpt lat="51.8453484" lon="0.1871356"><ele>81.0</ele><time>2026-05-02T07:31:37.405Z</time></trkpt><trkpt lat="51.8455745" lon="0.1869414"><ele>81.0</ele><time>2026-05-02T07:31:38.406Z</time></trkpt><trkpt lat="51.845801" lon="0.186754"><ele>81.0</ele><time>2026-05-02T07:31:39.402Z</time></trkpt><trkpt lat="51.8460295" lon="0.1865702"><ele>81.0</ele><time>2026-05-02T07:31:40.403Z</time></trkpt><trkpt lat="51.8462668" lon="0.186387"><ele>81.5</ele><time>2026-05-02T07:31:41.406Z</time></trkpt><trkpt lat="51.8465113" lon="0.1862032"><ele>82.0</ele><time>2026-05-02T07:31:42.406Z</time></trkpt><trkpt lat="51.8467639" lon="0.1860282"><ele>81.0</ele><time>2026-05-02T07:31:43.405Z</time></trkpt><trkpt lat="51.8470212" lon="0.1858632"><ele>80.0</ele><time>2026-05-02T07:31:44.405Z</time></trkpt><trkpt lat="51.8472832" lon="0.1857072"><ele>81.0</ele><time>2026-05-02T07:31:45.405Z</time></trkpt><trkpt lat="51.8475526" lon="0.1855575"><ele>82.0</ele><time>2026-05-02T07:31:46.401Z</time></trkpt><trkpt lat="51.8478324" lon="0.1854149"><ele>82.0</ele><time>2026-05-02T07:31:47.404Z</time></trkpt><trkpt lat="51.8481207" lon="0.1852803"><ele>82.0</ele><time>2026-05-02T07:31:48.406Z</time></trkpt><trkpt lat="51.8484172" lon="0.1851544"><ele>82.5</ele><time>2026-05-02T07:31:49.405Z</time></trkpt><trkpt lat="51.8487207" lon="0.1850344"><ele>83.0</ele><time>2026-05-02T07:31:50.405Z</time></trkpt><trkpt lat="51.8490238" lon="0.1849224"><ele>82.5</ele><time>2026-05-02T07:31:51.405Z</time></trkpt><trkpt lat="51.8493199" lon="0.184824"><ele>82.0</ele><time>2026-05-02T07:31:52.402Z</time></trkpt><trkpt lat="51.8496081" lon="0.1847409"><ele>82.0</ele><time>2026-05-02T07:31:53.402Z</time></trkpt><trkpt lat="51.8498899" lon="0.1846716"><ele>82.0</ele><time>2026-05-02T07:31:54.406Z</time></trkpt><trkpt lat="51.8501643" lon="0.1846114"><ele>81.0</ele><time>2026-05-02T07:31:55.404Z</time></trkpt><trkpt lat="51.8504374" lon="0.1845627"><ele>80.0</ele><time>2026-05-02T07:31:56.405Z</time></trkpt><trkpt lat="51.8507138" lon="0.1845275"><ele>79.5</ele><time>2026-05-02T07:31:57.405Z</time></trkpt><trkpt lat="51.8509918" lon="0.1845033"><ele>79.0</ele><time>2026-05-02T07:31:58.402Z</time></trkpt><trkpt lat="51.8512748" lon="0.1844898"><ele>79.0</ele><time>2026-05-02T07:31:59.407Z</time></trkpt><trkpt lat="51.8515565" lon="0.1844865"><ele>79.0</ele><time>2026-05-02T07:32:00.403Z</time></trkpt><trkpt lat="51.8518385" lon="0.1844915"><ele>79.0</ele><time>2026-05-02T07:32:01.403Z</time></trkpt><trkpt lat="51.8521203" lon="0.1845036"><ele>79.0</ele><time>2026-05-02T07:32:02.404Z</time></trkpt><trkpt lat="51.8524021" lon="0.1845251"><ele>77.5</ele><time>2026-05-02T07:32:03.404Z</time></trkpt><trkpt lat="51.8526792" lon="0.184555"><ele>76.0</ele><time>2026-05-02T07:32:04.404Z</time></trkpt><trkpt lat="51.8529499" lon="0.1845904"><ele>76.0</ele><time>2026-05-02T07:32:05.404Z</time></trkpt><trkpt lat="51.8532165" lon="0.1846301"><ele>76.0</ele><time>2026-05-02T07:32:06.403Z</time></trkpt><trkpt lat="51.8534814" lon="0.1846795"><ele>73.5</ele><time>2026-05-02T07:32:07.404Z</time></trkpt><trkpt lat="51.8537458" lon="0.1847386"><ele>71.0</ele><time>2026-05-02T07:32:08.403Z</time></trkpt><trkpt lat="51.8540105" lon="0.184808"><ele>71.5</ele><time>2026-05-02T07:32:09.403Z</time></trkpt><trkpt lat="51.8542764" lon="0.1848887"><ele>72.0</ele><time>2026-05-02T07:32:10.402Z</time></trkpt><trkpt lat="51.8545453" lon="0.184978"><ele>70.5</ele><time>2026-05-02T07:32:11.406Z</time></trkpt><trkpt lat="51.8548133" lon="0.1850764"><ele>69.0</ele><time>2026-05-02T07:32:12.406Z</time></trkpt><trkpt lat="51.8550789" lon="0.1851941"><ele>68.0</ele><time>2026-05-02T07:32:13.403Z</time></trkpt><trkpt lat="51.8553408" lon="0.1853211"><ele>67.0</ele><time>2026-05-02T07:32:14.406Z</time></trkpt><trkpt lat="51.8556006" lon="0.1854499"><ele>67.0</ele><time>2026-05-02T07:32:15.405Z</time></trkpt><trkpt lat="51.8558577" lon="0.1855866"><ele>67.0</ele><time>2026-05-02T07:32:16.405Z</time></trkpt><trkpt lat="51.8561136" lon="0.1857354"><ele>68.5</ele><time>2026-05-02T07:32:17.403Z</time></trkpt><trkpt lat="51.8563647" lon="0.1858937"><ele>70.0</ele><time>2026-05-02T07:32:18.403Z</time></trkpt><trkpt lat="51.8566131" lon="0.1860604"><ele>68.5</ele><time>2026-05-02T07:32:19.405Z</time></trkpt><trkpt lat="51.8568608" lon="0.186235"><ele>67.0</ele><time>2026-05-02T07:32:20.405Z</time></trkpt><trkpt lat="51.8571118" lon="0.1864209"><ele>69.5</ele><time>2026-05-02T07:32:21.405Z</time></trkpt><trkpt lat="51.8573622" lon="0.186618"><ele>72.0</ele><time>2026-05-02T07:32:22.405Z</time></trkpt><trkpt lat="51.857614" lon="0.186823"><ele>70.5</ele><time>2026-05-02T07:32:23.406Z</time></trkpt><trkpt lat="51.8578602" lon="0.1870324"><ele>69.0</ele><time>2026-05-02T07:32:24.406Z</time></trkpt><trkpt lat="51.8581009" lon="0.187245"><ele>69.5</ele><time>2026-05-02T07:32:25.406Z</time></trkpt><trkpt lat="51.8583352" lon="0.187466"><ele>70.0</ele><time>2026-05-02T07:32:26.407Z</time></trkpt><trkpt lat="51.8585679" lon="0.1876965"><ele>70.0</ele><time>2026-05-02T07:32:27.407Z</time></trkpt><trkpt lat="51.8588026" lon="0.1879401"><ele>70.0</ele><time>2026-05-02T07:32:28.406Z</time></trkpt><trkpt lat="51.8590359" lon="0.1881884"><ele>72.0</ele><time>2026-05-02T07:32:29.403Z</time></trkpt><trkpt lat="51.8592618" lon="0.1884319"><ele>74.0</ele><time>2026-05-02T07:32:30.404Z</time></trkpt><trkpt lat="51.8594839" lon="0.188672"><ele>74.0</ele><time>2026-05-02T07:32:31.405Z</time></trkpt><trkpt lat="51.8597046" lon="0.1889091"><ele>74.0</ele><time>2026-05-02T07:32:32.405Z</time></trkpt><trkpt lat="51.8599281" lon="0.1891458"><ele>76.0</ele><time>2026-05-02T07:32:33.406Z</time></trkpt><trkpt lat="51.8601539" lon="0.1893835"><ele>78.0</ele><time>2026-05-02T07:32:34.403Z</time></trkpt><trkpt lat="51.8603829" lon="0.1896223"><ele>78.5</ele><time>2026-05-02T07:32:35.405Z</time></trkpt><trkpt lat="51.8606136" lon="0.1898595"><ele>79.0</ele><time>2026-05-02T07:32:36.405Z</time></trkpt><trkpt lat="51.8608454" lon="0.1900963"><ele>79.5</ele><time>2026-05-02T07:32:37.406Z</time></trkpt><trkpt lat="51.8610785" lon="0.1903289"><ele>80.0</ele><time>2026-05-02T07:32:38.404Z</time></trkpt><trkpt lat="51.8613113" lon="0.1905592"><ele>80.5</ele><time>2026-05-02T07:32:39.405Z</time></trkpt><trkpt lat="51.861543" lon="0.1907885"><ele>81.0</ele><time>2026-05-02T07:32:40.404Z</time></trkpt><trkpt lat="51.8617753" lon="0.1910228"><ele>82.0</ele><time>2026-05-02T07:32:41.408Z</time></trkpt><trkpt lat="51.8620083" lon="0.1912609"><ele>83.0</ele><time>2026-05-02T07:32:42.403Z</time></trkpt><trkpt lat="51.8622457" lon="0.1914964"><ele>83.0</ele><time>2026-05-02T07:32:43.402Z</time></trkpt><trkpt lat="51.8624857" lon="0.1917286"><ele>83.0</ele><time>2026-05-02T07:32:44.402Z</time></trkpt><trkpt lat="51.8627277" lon="0.1919544"><ele>81.5</ele><time>2026-05-02T07:32:45.403Z</time></trkpt><trkpt lat="51.862968" lon="0.192176"><ele>80.0</ele><time>2026-05-02T07:32:46.405Z</time></trkpt><trkpt lat="51.8632111" lon="0.192386"><ele>76.5</ele><time>2026-05-02T07:32:47.405Z</time></trkpt><trkpt lat="51.8634529" lon="0.1925935"><ele>73.0</ele><time>2026-05-02T07:32:48.402Z</time></trkpt><trkpt lat="51.8636956" lon="0.1927984"><ele>73.0</ele><time>2026-05-02T07:32:49.405Z</time></trkpt><trkpt lat="51.8639342" lon="0.1930015"><ele>73.0</ele><time>2026-05-02T07:32:50.407Z</time></trkpt><trkpt lat="51.8641705" lon="0.1932029"><ele>73.0</ele><time>2026-05-02T07:32:51.402Z</time></trkpt><trkpt lat="51.8644074" lon="0.1934047"><ele>73.0</ele><time>2026-05-02T07:32:52.403Z</time></trkpt><trkpt lat="51.8646455" lon="0.193609"><ele>73.0</ele><time>2026-05-02T07:32:53.404Z</time></trkpt><trkpt lat="51.8648836" lon="0.1938161"><ele>73.0</ele><time>2026-05-02T07:32:54.403Z</time></trkpt><trkpt lat="51.8651193" lon="0.1940175"><ele>75.5</ele><time>2026-05-02T07:32:55.402Z</time></trkpt><trkpt lat="51.8653546" lon="0.1942125"><ele>78.0</ele><time>2026-05-02T07:32:56.409Z</time></trkpt><trkpt lat="51.8655818" lon="0.1943947"><ele>78.0</ele><time>2026-05-02T07:32:57.403Z</time></trkpt><trkpt lat="51.8657965" lon="0.1945608"><ele>78.0</ele><time>2026-05-02T07:32:58.402Z</time></trkpt><trkpt lat="51.8659945" lon="0.1947065"><ele>78.33333333333333</ele><time>2026-05-02T07:32:59.402Z</time></trkpt><trkpt lat="51.8661794" lon="0.1948382"><ele>78.66666666666666</ele><time>2026-05-02T07:33:00.403Z</time></trkpt><trkpt lat="51.8663568" lon="0.1949579"><ele>79.0</ele><time>2026-05-02T07:33:01.403Z</time></trkpt><trkpt lat="51.8665323" lon="0.1950744"><ele>79.0</ele><time>2026-05-02T07:33:02.402Z</time></trkpt><trkpt lat="51.8667057" lon="0.1951931"><ele>79.0</ele><time>2026-05-02T07:33:03.405Z</time></trkpt><trkpt lat="51.8668811" lon="0.1953158"><ele>79.0</ele><time>2026-05-02T07:33:04.402Z</time></trkpt><trkpt lat="51.8670564" lon="0.1954423"><ele>79.0</ele><time>2026-05-02T07:33:05.403Z</time></trkpt><trkpt lat="51.867234" lon="0.1955684"><ele>79.0</ele><time>2026-05-02T07:33:06.405Z</time></trkpt><trkpt lat="51.867415" lon="0.195693"><ele>79.0</ele><time>2026-05-02T07:33:07.403Z</time></trkpt><trkpt lat="51.8675985" lon="0.1958174"><ele>80.66666666666666</ele><time>2026-05-02T07:33:08.404Z</time></trkpt><trkpt lat="51.8677822" lon="0.1959409"><ele>82.33333333333333</ele><time>2026-05-02T07:33:09.406Z</time></trkpt><trkpt lat="51.8679653" lon="0.1960679"><ele>84.0</ele><time>2026-05-02T07:33:10.402Z</time></trkpt><trkpt lat="51.8681487" lon="0.1961969"><ele>84.0</ele><time>2026-05-02T07:33:11.405Z</time></trkpt><trkpt lat="51.8683304" lon="0.1963266"><ele>84.0</ele><time>2026-05-02T07:33:12.402Z</time></trkpt><trkpt lat="51.8685123" lon="0.1964566"><ele>84.0</ele><time>2026-05-02T07:33:13.406Z</time></trkpt><trkpt lat="51.8686935" lon="0.1965841"><ele>84.0</ele><time>2026-05-02T07:33:14.405Z</time></trkpt><trkpt lat="51.8688722" lon="0.1967105"><ele>84.0</ele><time>2026-05-02T07:33:15.403Z</time></trkpt><trkpt lat="51.8690532" lon="0.1968369"><ele>84.0</ele><time>2026-05-02T07:33:16.403Z</time></trkpt><trkpt lat="51.8692307" lon="0.1969603"><ele>85.0</ele><time>2026-05-02T07:33:17.403Z</time></trkpt><trkpt lat="51.8694044" lon="0.1970814"><ele>86.0</ele><time>2026-05-02T07:33:18.404Z</time></trkpt><trkpt lat="51.8695767" lon="0.1972"><ele>87.0</ele><time>2026-05-02T07:33:19.404Z</time></trkpt><trkpt lat="51.8697383" lon="0.1973117"><ele>87.0</ele><time>2026-05-02T07:33:20.405Z</time></trkpt><trkpt lat="51.8698917" lon="0.197415"><ele>87.0</ele><time>2026-05-02T07:33:21.405Z</time></trkpt><trkpt lat="51.8700383" lon="0.1975083"><ele>87.0</ele><time>2026-05-02T07:33:22.404Z</time></trkpt><trkpt lat="51.8701817" lon="0.197595"><ele>87.0</ele><time>2026-05-02T07:33:23.403Z</time></trkpt><trkpt lat="51.8703217" lon="0.1976733"><ele>87.0</ele><time>2026-05-02T07:33:24.405Z</time></trkpt><trkpt lat="51.8704567" lon="0.1977433"><ele>87.0</ele><time>2026-05-02T07:33:25.406Z</time></trkpt><trkpt lat="51.8705867" lon="0.1978017"><ele>87.0</ele><time>2026-05-02T07:33:26.405Z</time></trkpt><trkpt lat="51.87071" lon="0.1978583"><ele>87.0</ele><time>2026-05-02T07:33:27.406Z</time></trkpt><trkpt lat="51.8708233" lon="0.1979017"><ele>87.0</ele><time>2026-05-02T07:33:28.402Z</time></trkpt><trkpt lat="51.8709267" lon="0.1979267"><ele>87.0</ele><time>2026-05-02T07:33:29.402Z</time></trkpt><trkpt lat="51.8710133" lon="0.1979317"><ele>87.0</ele><time>2026-05-02T07:33:30.405Z</time></trkpt><trkpt lat="51.8710767" lon="0.1979233"><ele>87.0</ele><time>2026-05-02T07:33:31.402Z</time></trkpt><trkpt lat="51.8712067" lon="0.1978583"><ele>86.6</ele><time>2026-05-02T07:34:02.405Z</time></trkpt><trkpt lat="51.871275" lon="0.19782"><ele>86.19999999999999</ele><time>2026-05-02T07:34:03.407Z</time></trkpt><trkpt lat="51.8713633" lon="0.1977667"><ele>85.8</ele><time>2026-05-02T07:34:04.406Z</time></trkpt><trkpt lat="51.8714483" lon="0.1976967"><ele>85.4</ele><time>2026-05-02T07:34:05.402Z</time></trkpt><trkpt lat="51.87153" lon="0.1975967"><ele>85.0</ele><time>2026-05-02T07:34:06.411Z</time></trkpt><trkpt lat="51.87159" lon="0.1974833"><ele>85.0</ele><time>2026-05-02T07:34:07.405Z</time></trkpt><trkpt lat="51.8716233" lon="0.1973583"><ele>85.0</ele><time>2026-05-02T07:34:08.405Z</time></trkpt><trkpt lat="51.8716417" lon="0.1972217"><ele>85.0</ele><time>2026-05-02T07:34:09.405Z</time></trkpt><trkpt lat="51.8716367" lon="0.197085"><ele>85.0</ele><time>2026-05-02T07:34:10.407Z</time></trkpt><trkpt lat="51.8716067" lon="0.1969617"><ele>85.0</ele><time>2026-05-02T07:34:11.406Z</time></trkpt><trkpt lat="51.871555" lon="0.1968433"><ele>85.0</ele><time>2026-05-02T07:34:12.405Z</time></trkpt><trkpt lat="51.871485" lon="0.19675"><ele>85.5</ele><time>2026-05-02T07:34:13.409Z</time></trkpt><trkpt lat="51.8713833" lon="0.196695"><ele>86.0</ele><time>2026-05-02T07:34:14.403Z</time></trkpt><trkpt lat="51.8712583" lon="0.19671"><ele>86.5</ele><time>2026-05-02T07:34:15.405Z</time></trkpt><trkpt lat="51.8711167" lon="0.19678"><ele>87.0</ele><time>2026-05-02T07:34:16.403Z</time></trkpt><trkpt lat="51.8709883" lon="0.196835"><ele>87.39999999999999</ele><time>2026-05-02T07:34:17.402Z</time></trkpt><trkpt lat="51.8708733" lon="0.1968867"><ele>87.8</ele><time>2026-05-02T07:34:18.402Z</time></trkpt><trkpt lat="51.870765" lon="0.1969333"><ele>88.2</ele><time>2026-05-02T07:34:19.402Z</time></trkpt><trkpt lat="51.870665" lon="0.1969633"><ele>88.6</ele><time>2026-05-02T07:34:20.403Z</time></trkpt><trkpt lat="51.8705667" lon="0.1969767"><ele>89.0</ele><time>2026-05-02T07:34:21.403Z</time></trkpt><trkpt lat="51.870465" lon="0.1969783"><ele>89.0</ele><time>2026-05-02T07:34:22.403Z</time></trkpt><trkpt lat="51.87036" lon="0.1969617"><ele>89.0</ele><time>2026-05-02T07:34:23.402Z</time></trkpt><trkpt lat="51.870255" lon="0.196925"><ele>89.0</ele><time>2026-05-02T07:34:24.402Z</time></trkpt><trkpt lat="51.8701533" lon="0.196875"><ele>89.0</ele><time>2026-05-02T07:34:25.407Z</time></trkpt><trkpt lat="51.8700467" lon="0.19681"><ele>89.0</ele><time>2026-05-02T07:34:26.403Z</time></trkpt><trkpt lat="51.8699467" lon="0.1967433"><ele>89.0</ele><time>2026-05-02T07:34:27.404Z</time></trkpt><trkpt lat="51.8698583" lon="0.1966617"><ele>89.0</ele><time>2026-05-02T07:34:28.407Z</time></trkpt><trkpt lat="51.86978" lon="0.1965733"><ele>89.0</ele><time>2026-05-02T07:34:29.402Z</time></trkpt><trkpt lat="51.869705" lon="0.1964783"><ele>89.0</ele><time>2026-05-02T07:34:30.403Z</time></trkpt><trkpt lat="51.8696417" lon="0.196385"><ele>89.0</ele><time>2026-05-02T07:34:31.402Z</time></trkpt><trkpt lat="51.86959" lon="0.1963033"><ele>89.0</ele><time>2026-05-02T07:34:32.402Z</time></trkpt><trkpt lat="51.8695433" lon="0.1962283"><ele>89.0</ele><time>2026-05-02T07:34:33.402Z</time></trkpt><trkpt lat="51.86948" lon="0.1961217"><ele>89.0</ele><time>2026-05-02T07:34:35.404Z</time></trkpt><trkpt lat="51.869435" lon="0.19601"><ele>89.0</ele><time>2026-05-02T07:34:37.403Z</time></trkpt><trkpt lat="51.8694083" lon="0.1959067"><ele>89.0</ele><time>2026-05-02T07:34:39.407Z</time></trkpt><trkpt lat="51.8693917" lon="0.1957617"><ele>89.0</ele><time>2026-05-02T07:34:41.405Z</time></trkpt><trkpt lat="51.8693867" lon="0.1956217"><ele>89.14285714285714</ele><time>2026-05-02T07:34:43.405Z</time></trkpt><trkpt lat="51.86938" lon="0.1955133"><ele>89.28571428571428</ele><time>2026-05-02T07:34:45.402Z</time></trkpt><trkpt lat="51.86939" lon="0.1953683"><ele>89.42857142857142</ele><time>2026-05-02T07:34:48.403Z</time></trkpt><trkpt lat="51.8693883" lon="0.1952467"><ele>89.57142857142857</ele><time>2026-05-02T07:34:50.403Z</time></trkpt><trkpt lat="51.8693833" lon="0.19513"><ele>89.71428571428572</ele><time>2026-05-02T07:34:52.406Z</time></trkpt><trkpt lat="51.8693783" lon="0.1950267"><ele>89.85714285714285</ele><time>2026-05-02T07:34:54.407Z</time></trkpt><trkpt lat="51.8694133" lon="0.1949267"><ele>90.0</ele><time>2026-05-02T07:34:57.402Z</time></trkpt><trkpt lat="51.869505" lon="0.1948867"><ele>90.0</ele><time>2026-05-02T07:35:00.403Z</time></trkpt><trkpt lat="51.8695667" lon="0.1948617"><ele>90.0</ele><time>2026-05-02T07:35:03.404Z</time></trkpt><trkpt lat="51.8695017" lon="0.19482"><ele>90.0</ele><time>2026-05-02T07:35:08.405Z</time></trkpt><trkpt lat="51.8694267" lon="0.1948417"><ele>90.0</ele><time>2026-05-02T07:35:11.403Z</time></trkpt><trkpt lat="51.8693983" lon="0.194985"><ele>90.0</ele><time>2026-05-02T07:35:14.402Z</time></trkpt><trkpt lat="51.8694133" lon="0.195135"><ele>90.0</ele><time>2026-05-02T07:35:16.405Z</time></trkpt><trkpt lat="51.8694183" lon="0.195265"><ele>90.0</ele><time>2026-05-02T07:35:18.404Z</time></trkpt><trkpt lat="51.8694017" lon="0.1953717"><ele>90.0</ele><time>2026-05-02T07:35:20.404Z</time></trkpt><trkpt lat="51.869395" lon="0.1955033"><ele>90.0</ele><time>2026-05-02T07:35:23.404Z</time></trkpt><trkpt lat="51.869385" lon="0.1956083"><ele>90.0</ele><time>2026-05-02T07:35:25.404Z</time></trkpt><trkpt lat="51.869325" lon="0.1956933"><ele>89.0</ele><time>2026-05-02T07:35:27.405Z</time></trkpt><trkpt lat="51.8692617" lon="0.195655"><ele>91.0</ele><time>2026-05-02T07:35:30.402Z</time></trkpt></trkseg><trkseg><trkpt lat="51.8711867" lon="0.19615"><ele>90.0</ele><time>2026-05-02T08:29:45.402Z</time></trkpt><trkpt lat="51.871255" lon="0.1961483"><ele>90.0</ele><time>2026-05-02T08:29:47.402Z</time></trkpt><trkpt lat="51.8713717" lon="0.1961333"><ele>90.0</ele><time>2026-05-02T08:29:49.403Z</time></trkpt><trkpt lat="51.8714383" lon="0.19613"><ele>90.0</ele><time>2026-05-02T08:29:50.403Z</time></trkpt><trkpt lat="51.87153" lon="0.1961217"><ele>90.0</ele><time>2026-05-02T08:29:52.401Z</time></trkpt><trkpt lat="51.8716033" lon="0.19613"><ele>90.0</ele><time>2026-05-02T08:29:54.402Z</time></trkpt><trkpt lat="51.871715" lon="0.1961167"><ele>89.33333333333333</ele><time>2026-05-02T08:29:56.403Z</time></trkpt><trkpt lat="51.871785" lon="0.1960967"><ele>88.66666666666667</ele><time>2026-05-02T08:29:57.402Z</time></trkpt><trkpt lat="51.8718517" lon="0.196075"><ele>88.0</ele><time>2026-05-02T08:29:58.402Z</time></trkpt><trkpt lat="51.871915" lon="0.1960533"><ele>87.33333333333334</ele><time>2026-05-02T08:29:59.403Z</time></trkpt><trkpt lat="51.8720283" lon="0.1960233"><ele>86.66666666666667</ele><time>2026-05-02T08:30:01.403Z</time></trkpt><trkpt lat="51.8721167" lon="0.1960233"><ele>86.0</ele><time>2026-05-02T08:30:03.402Z</time></trkpt><trkpt lat="51.8721867" lon="0.1960817"><ele>86.0</ele><time>2026-05-02T08:30:05.402Z</time></trkpt><trkpt lat="51.87221" lon="0.196245"><ele>86.0</ele><time>2026-05-02T08:30:07.403Z</time></trkpt><trkpt lat="51.8721733" lon="0.196435"><ele>86.0</ele><time>2026-05-02T08:30:09.402Z</time></trkpt><trkpt lat="51.8721283" lon="0.1965417"><ele>86.0</ele><time>2026-05-02T08:30:10.402Z</time></trkpt><trkpt lat="51.8720617" lon="0.1966483"><ele>86.0</ele><time>2026-05-02T08:30:11.403Z</time></trkpt><trkpt lat="51.8719733" lon="0.1967433"><ele>86.0</ele><time>2026-05-02T08:30:12.402Z</time></trkpt><trkpt lat="51.8719" lon="0.19684"><ele>86.0</ele><time>2026-05-02T08:30:13.403Z</time></trkpt><trkpt lat="51.8718433" lon="0.196955"><ele>86.0</ele><time>2026-05-02T08:30:14.402Z</time></trkpt><trkpt lat="51.871805" lon="0.19707"><ele>86.0</ele><time>2026-05-02T08:30:15.406Z</time></trkpt><trkpt lat="51.8717867" lon="0.1971783"><ele>86.0</ele><time>2026-05-02T08:30:16.405Z</time></trkpt><trkpt lat="51.8718" lon="0.1973533"><ele>86.0</ele><time>2026-05-02T08:30:18.405Z</time></trkpt><trkpt lat="51.8718233" lon="0.19745"><ele>86.0</ele><time>2026-05-02T08:30:20.402Z</time></trkpt><trkpt lat="51.87187" lon="0.1975233"><ele>86.0</ele><time>2026-05-02T08:31:05.402Z</time></trkpt><trkpt lat="51.87193" lon="0.1975933"><ele>86.0</ele><time>2026-05-02T08:31:06.403Z</time></trkpt><trkpt lat="51.872025" lon="0.19768"><ele>86.0</ele><time>2026-05-02T08:31:07.402Z</time></trkpt><trkpt lat="51.8721017" lon="0.197755"><ele>86.0</ele><time>2026-05-02T08:31:08.402Z</time></trkpt><trkpt lat="51.87218" lon="0.1978383"><ele>86.0</ele><time>2026-05-02T08:31:09.403Z</time></trkpt><trkpt lat="51.8722467" lon="0.1979083"><ele>86.0</ele><time>2026-05-02T08:31:10.402Z</time></trkpt><trkpt lat="51.8723017" lon="0.1979767"><ele>86.0</ele><time>2026-05-02T08:31:11.402Z</time></trkpt><trkpt lat="51.8723717" lon="0.198095"><ele>86.0</ele><time>2026-05-02T08:31:13.402Z</time></trkpt><trkpt lat="51.8724083" lon="0.198225"><ele>86.0</ele><time>2026-05-02T08:31:23.407Z</time></trkpt><trkpt lat="51.872445" lon="0.19834"><ele>86.0</ele><time>2026-05-02T08:31:24.403Z</time></trkpt><trkpt lat="51.8725117" lon="0.19858"><ele>86.0</ele><time>2026-05-02T08:31:25.403Z</time></trkpt><trkpt lat="51.8726017" lon="0.1988217"><ele>86.0</ele><time>2026-05-02T08:31:26.402Z</time></trkpt><trkpt lat="51.8727233" lon="0.1990683"><ele>86.0</ele><time>2026-05-02T08:31:27.402Z</time></trkpt><trkpt lat="51.8728667" lon="0.1992683"><ele>85.66666666666667</ele><time>2026-05-02T08:31:28.402Z</time></trkpt><trkpt lat="51.8730433" lon="0.1994683"><ele>85.33333333333333</ele><time>2026-05-02T08:31:29.402Z</time></trkpt><trkpt lat="51.8732133" lon="0.1996217"><ele>85.0</ele><time>2026-05-02T08:31:30.402Z</time></trkpt><trkpt lat="51.87337" lon="0.1997283"><ele>85.0</ele><time>2026-05-02T08:31:31.402Z</time></trkpt><trkpt lat="51.873525" lon="0.1998267"><ele>85.0</ele><time>2026-05-02T08:31:32.403Z</time></trkpt><trkpt lat="51.87368" lon="0.1999133"><ele>85.0</ele><time>2026-05-02T08:31:33.402Z</time></trkpt><trkpt lat="51.8738383" lon="0.1999883"><ele>85.0</ele><time>2026-05-02T08:31:34.403Z</time></trkpt><trkpt lat="51.873995" lon="0.2000617"><ele>85.0</ele><time>2026-05-02T08:31:35.408Z</time></trkpt><trkpt lat="51.8741517" lon="0.2001367"><ele>85.0</ele><time>2026-05-02T08:31:36.402Z</time></trkpt><trkpt lat="51.8743117" lon="0.2001967"><ele>84.0</ele><time>2026-05-02T08:31:37.405Z</time></trkpt><trkpt lat="51.8744683" lon="0.2002617"><ele>83.0</ele><time>2026-05-02T08:31:38.402Z</time></trkpt><trkpt lat="51.8746267" lon="0.20033"><ele>82.0</ele><time>2026-05-02T08:31:39.403Z</time></trkpt><trkpt lat="51.874785" lon="0.2004133"><ele>82.0</ele><time>2026-05-02T08:31:40.405Z</time></trkpt><trkpt lat="51.874945" lon="0.2005083"><ele>82.0</ele><time>2026-05-02T08:31:41.405Z</time></trkpt><trkpt lat="51.8751" lon="0.20062"><ele>82.0</ele><time>2026-05-02T08:31:42.405Z</time></trkpt><trkpt lat="51.87525" lon="0.2007417"><ele>82.66666666666666</ele><time>2026-05-02T08:31:43.405Z</time></trkpt><trkpt lat="51.8753967" lon="0.2008617"><ele>83.33333333333333</ele><time>2026-05-02T08:31:44.405Z</time></trkpt><trkpt lat="51.87554" lon="0.200995"><ele>84.0</ele><time>2026-05-02T08:31:45.402Z</time></trkpt><trkpt lat="51.875685" lon="0.20113"><ele>84.0</ele><time>2026-05-02T08:31:46.406Z</time></trkpt><trkpt lat="51.8758283" lon="0.2012717"><ele>84.0</ele><time>2026-05-02T08:31:47.405Z</time></trkpt><trkpt lat="51.8759733" lon="0.20141"><ele>84.0</ele><time>2026-05-02T08:31:48.405Z</time></trkpt><trkpt lat="51.8761183" lon="0.20155"><ele>83.0</ele><time>2026-05-02T08:31:49.406Z</time></trkpt><trkpt lat="51.8767933" lon="0.2019317"><ele>83.0</ele><time>2026-05-02T08:31:53.864Z</time></trkpt><trkpt lat="51.87719" lon="0.2022117"><ele>83.0</ele><time>2026-05-02T08:31:56.404Z</time></trkpt><trkpt lat="51.8773467" lon="0.2023517"><ele>84.0</ele><time>2026-05-02T08:31:57.404Z</time></trkpt><trkpt lat="51.8775133" lon="0.2024783"><ele>85.0</ele><time>2026-05-02T08:31:58.404Z</time></trkpt><trkpt lat="51.8776867" lon="0.20259"><ele>86.0</ele><time>2026-05-02T08:31:59.403Z</time></trkpt><trkpt lat="51.8778683" lon="0.2026967"><ele>86.33333333333334</ele><time>2026-05-02T08:32:00.404Z</time></trkpt><trkpt lat="51.878055" lon="0.2028017"><ele>86.66666666666667</ele><time>2026-05-02T08:32:01.404Z</time></trkpt><trkpt lat="51.87824" lon="0.202915"><ele>87.0</ele><time>2026-05-02T08:32:02.404Z</time></trkpt><trkpt lat="51.87842" lon="0.203015"><ele>87.33333333333333</ele><time>2026-05-02T08:32:03.404Z</time></trkpt><trkpt lat="51.8785967" lon="0.2031067"><ele>87.66666666666666</ele><time>2026-05-02T08:32:04.402Z</time></trkpt><trkpt lat="51.8787833" lon="0.2031967"><ele>88.0</ele><time>2026-05-02T08:32:05.403Z</time></trkpt><trkpt lat="51.87898" lon="0.2032883"><ele>88.5</ele><time>2026-05-02T08:32:06.403Z</time></trkpt><trkpt lat="51.87919" lon="0.2033933"><ele>89.0</ele><time>2026-05-02T08:32:07.403Z</time></trkpt><trkpt lat="51.8794167" lon="0.2035133"><ele>89.0</ele><time>2026-05-02T08:32:08.403Z</time></trkpt><trkpt lat="51.87965" lon="0.2036333"><ele>89.0</ele><time>2026-05-02T08:32:09.404Z</time></trkpt><trkpt lat="51.8798817" lon="0.2037433"><ele>88.5</ele><time>2026-05-02T08:32:10.403Z</time></trkpt><trkpt lat="51.8801117" lon="0.2038483"><ele>88.0</ele><time>2026-05-02T08:32:11.403Z</time></trkpt><trkpt lat="51.8803417" lon="0.2039483"><ele>88.5</ele><time>2026-05-02T08:32:12.403Z</time></trkpt><trkpt lat="51.8805733" lon="0.2040483"><ele>89.0</ele><time>2026-05-02T08:32:13.402Z</time></trkpt><trkpt lat="51.8808117" lon="0.2041467"><ele>89.5</ele><time>2026-05-02T08:32:14.403Z</time></trkpt><trkpt lat="51.881055" lon="0.20425"><ele>90.0</ele><time>2026-05-02T08:32:15.404Z</time></trkpt><trkpt lat="51.88131" lon="0.2043567"><ele>90.0</ele><time>2026-05-02T08:32:16.403Z</time></trkpt><trkpt lat="51.8815733" lon="0.2044667"><ele>90.0</ele><time>2026-05-02T08:32:17.403Z</time></trkpt><trkpt lat="51.881845" lon="0.2045783"><ele>89.5</ele><time>2026-05-02T08:32:18.403Z</time></trkpt><trkpt lat="51.882115" lon="0.20469"><ele>89.0</ele><time>2026-05-02T08:32:19.403Z</time></trkpt><trkpt lat="51.882385" lon="0.2047983"><ele>89.0</ele><time>2026-05-02T08:32:20.403Z</time></trkpt><trkpt lat="51.8826533" lon="0.204905"><ele>89.0</ele><time>2026-05-02T08:32:21.403Z</time></trkpt><trkpt lat="51.8829183" lon="0.205005"><ele>89.0</ele><time>2026-05-02T08:32:22.403Z</time></trkpt><trkpt lat="51.8831817" lon="0.205105"><ele>89.0</ele><time>2026-05-02T08:32:23.403Z</time></trkpt><trkpt lat="51.8834433" lon="0.2052067"><ele>88.0</ele><time>2026-05-02T08:32:24.403Z</time></trkpt><trkpt lat="51.883705" lon="0.20531"><ele>87.0</ele><time>2026-05-02T08:32:25.404Z</time></trkpt><trkpt lat="51.8839667" lon="0.2054133"><ele>87.0</ele><time>2026-05-02T08:32:26.405Z</time></trkpt><trkpt lat="51.88423" lon="0.2055217"><ele>87.0</ele><time>2026-05-02T08:32:27.403Z</time></trkpt><trkpt lat="51.8844967" lon="0.2056333"><ele>88.0</ele><time>2026-05-02T08:32:28.404Z</time></trkpt><trkpt lat="51.884765" lon="0.2057483"><ele>89.0</ele><time>2026-05-02T08:32:29.406Z</time></trkpt><trkpt lat="51.8850367" lon="0.2058633"><ele>89.5</ele><time>2026-05-02T08:32:30.403Z</time></trkpt><trkpt lat="51.8853117" lon="0.2059833"><ele>90.0</ele><time>2026-05-02T08:32:31.404Z</time></trkpt><trkpt lat="51.885585" lon="0.2061067"><ele>90.0</ele><time>2026-05-02T08:32:32.403Z</time></trkpt><trkpt lat="51.88586" lon="0.2062433"><ele>90.0</ele><time>2026-05-02T08:32:33.403Z</time></trkpt><trkpt lat="51.8861367" lon="0.2063867"><ele>90.5</ele><time>2026-05-02T08:32:34.402Z</time></trkpt><trkpt lat="51.886415" lon="0.2065367"><ele>91.0</ele><time>2026-05-02T08:32:35.403Z</time></trkpt><trkpt lat="51.8866917" lon="0.206695"><ele>91.0</ele><time>2026-05-02T08:32:36.404Z</time></trkpt><trkpt lat="51.8869667" lon="0.2068583"><ele>91.0</ele><time>2026-05-02T08:32:37.404Z</time></trkpt><trkpt lat="51.8872383" lon="0.2070367"><ele>91.0</ele><time>2026-05-02T08:32:38.403Z</time></trkpt><trkpt lat="51.8875067" lon="0.2072217"><ele>91.0</ele><time>2026-05-02T08:32:39.403Z</time></trkpt><trkpt lat="51.8877767" lon="0.2074067"><ele>92.0</ele><time>2026-05-02T08:32:40.402Z</time></trkpt><trkpt lat="51.8880433" lon="0.2075883"><ele>93.0</ele><time>2026-05-02T08:32:41.404Z</time></trkpt><trkpt lat="51.8883117" lon="0.2077733"><ele>93.0</ele><time>2026-05-02T08:32:42.403Z</time></trkpt><trkpt lat="51.8885767" lon="0.207965"><ele>93.0</ele><time>2026-05-02T08:32:43.404Z</time></trkpt><trkpt lat="51.88884" lon="0.20816"><ele>93.5</ele><time>2026-05-02T08:32:44.404Z</time></trkpt><trkpt lat="51.8891033" lon="0.20836"><ele>94.0</ele><time>2026-05-02T08:32:45.403Z</time></trkpt><trkpt lat="51.889365" lon="0.2085667"><ele>94.0</ele><time>2026-05-02T08:32:46.403Z</time></trkpt><trkpt lat="51.8896233" lon="0.2087783"><ele>94.0</ele><time>2026-05-02T08:32:47.403Z</time></trkpt><trkpt lat="51.8898817" lon="0.208995"><ele>95.0</ele><time>2026-05-02T08:32:48.403Z</time></trkpt><trkpt lat="51.89014" lon="0.20921"><ele>96.0</ele><time>2026-05-02T08:32:49.406Z</time></trkpt><trkpt lat="51.8903983" lon="0.2094333"><ele>96.0</ele><time>2026-05-02T08:32:50.403Z</time></trkpt><trkpt lat="51.89065" lon="0.209665"><ele>96.0</ele><time>2026-05-02T08:32:51.404Z</time></trkpt><trkpt lat="51.8909017" lon="0.2099"><ele>96.5</ele><time>2026-05-02T08:32:52.402Z</time></trkpt><trkpt lat="51.89115" lon="0.2101433"><ele>97.0</ele><time>2026-05-02T08:32:53.403Z</time></trkpt><trkpt lat="51.8913967" lon="0.21039"><ele>97.0</ele><time>2026-05-02T08:32:54.408Z</time></trkpt><trkpt lat="51.891645" lon="0.2106433"><ele>97.0</ele><time>2026-05-02T08:32:55.404Z</time></trkpt><trkpt lat="51.8918933" lon="0.2108967"><ele>97.5</ele><time>2026-05-02T08:32:56.404Z</time></trkpt><trkpt lat="51.8921383" lon="0.2111517"><ele>98.0</ele><time>2026-05-02T08:32:57.405Z</time></trkpt><trkpt lat="51.89238" lon="0.2114167"><ele>98.5</ele><time>2026-05-02T08:32:58.402Z</time></trkpt><trkpt lat="51.89262" lon="0.211685"><ele>99.0</ele><time>2026-05-02T08:32:59.402Z</time></trkpt><trkpt lat="51.8928583" lon="0.2119533"><ele>99.0</ele><time>2026-05-02T08:33:00.403Z</time></trkpt><trkpt lat="51.893095" lon="0.2122267"><ele>99.0</ele><time>2026-05-02T08:33:01.402Z</time></trkpt><trkpt lat="51.8933283" lon="0.212505"><ele>100.5</ele><time>2026-05-02T08:33:02.402Z</time></trkpt><trkpt lat="51.8935567" lon="0.2127917"><ele>102.0</ele><time>2026-05-02T08:33:03.406Z</time></trkpt><trkpt lat="51.8937867" lon="0.2130817"><ele>101.5</ele><time>2026-05-02T08:33:04.403Z</time></trkpt><trkpt lat="51.8940133" lon="0.2133817"><ele>101.0</ele><time>2026-05-02T08:33:05.405Z</time></trkpt><trkpt lat="51.89424" lon="0.2136817"><ele>101.0</ele><time>2026-05-02T08:33:06.402Z</time></trkpt><trkpt lat="51.8944667" lon="0.2139867"><ele>101.0</ele><time>2026-05-02T08:33:07.402Z</time></trkpt><trkpt lat="51.8946933" lon="0.21429"><ele>101.0</ele><time>2026-05-02T08:33:08.403Z</time></trkpt><trkpt lat="51.894915" lon="0.2146017"><ele>101.0</ele><time>2026-05-02T08:33:09.402Z</time></trkpt><trkpt lat="51.895135" lon="0.2149217"><ele>101.0</ele><time>2026-05-02T08:33:10.404Z</time></trkpt><trkpt lat="51.895355" lon="0.2152467"><ele>101.0</ele><time>2026-05-02T08:33:11.402Z</time></trkpt><trkpt lat="51.8955733" lon="0.2155733"><ele>101.0</ele><time>2026-05-02T08:33:12.405Z</time></trkpt><trkpt lat="51.89579" lon="0.2158883"><ele>101.0</ele><time>2026-05-02T08:33:13.403Z</time></trkpt><trkpt lat="51.8960067" lon="0.216205"><ele>100.0</ele><time>2026-05-02T08:33:14.403Z</time></trkpt><trkpt lat="51.8962217" lon="0.2165283"><ele>99.0</ele><time>2026-05-02T08:33:15.407Z</time></trkpt><trkpt lat="51.8964333" lon="0.2168567"><ele>99.0</ele><time>2026-05-02T08:33:16.405Z</time></trkpt><trkpt lat="51.89665" lon="0.2171817"><ele>99.0</ele><time>2026-05-02T08:33:17.406Z</time></trkpt><trkpt lat="51.8968683" lon="0.2175"><ele>98.0</ele><time>2026-05-02T08:33:18.405Z</time></trkpt><trkpt lat="51.89709" lon="0.2178133"><ele>97.0</ele><time>2026-05-02T08:33:19.405Z</time></trkpt><trkpt lat="51.8973133" lon="0.21812"><ele>97.0</ele><time>2026-05-02T08:33:20.405Z</time></trkpt><trkpt lat="51.897545" lon="0.2184133"><ele>97.0</ele><time>2026-05-02T08:33:21.405Z</time></trkpt><trkpt lat="51.8977783" lon="0.218695"><ele>94.5</ele><time>2026-05-02T08:33:22.406Z</time></trkpt><trkpt lat="51.8980133" lon="0.2189733"><ele>92.0</ele><time>2026-05-02T08:33:23.408Z</time></trkpt><trkpt lat="51.8982533" lon="0.21924"><ele>91.5</ele><time>2026-05-02T08:33:24.405Z</time></trkpt><trkpt lat="51.898495" lon="0.2194967"><ele>91.0</ele><time>2026-05-02T08:33:25.405Z</time></trkpt><trkpt lat="51.8987433" lon="0.2197467"><ele>88.0</ele><time>2026-05-02T08:33:26.406Z</time></trkpt><trkpt lat="51.8989917" lon="0.2199917"><ele>85.0</ele><time>2026-05-02T08:33:27.403Z</time></trkpt><trkpt lat="51.899245" lon="0.22023"><ele>84.5</ele><time>2026-05-02T08:33:28.407Z</time></trkpt><trkpt lat="51.8995" lon="0.220455"><ele>84.0</ele><time>2026-05-02T08:33:29.402Z</time></trkpt><trkpt lat="51.89976" lon="0.2206683"><ele>84.0</ele><time>2026-05-02T08:33:30.408Z</time></trkpt><trkpt lat="51.9000267" lon="0.2208667"><ele>84.0</ele><time>2026-05-02T08:33:31.408Z</time></trkpt><trkpt lat="51.9002933" lon="0.221045"><ele>83.5</ele><time>2026-05-02T08:33:32.405Z</time></trkpt><trkpt lat="51.9005533" lon="0.2212067"><ele>83.0</ele><time>2026-05-02T08:33:33.406Z</time></trkpt><trkpt lat="51.9008083" lon="0.2213567"><ele>89.0</ele><time>2026-05-02T08:33:34.405Z</time></trkpt><trkpt lat="51.9010617" lon="0.2215017"><ele>95.0</ele><time>2026-05-02T08:33:35.405Z</time></trkpt><trkpt lat="51.9013117" lon="0.2216417"><ele>95.0</ele><time>2026-05-02T08:33:36.405Z</time></trkpt><trkpt lat="51.90156" lon="0.22177"><ele>95.0</ele><time>2026-05-02T08:33:37.405Z</time></trkpt><trkpt lat="51.9018083" lon="0.2218983"><ele>96.5</ele><time>2026-05-02T08:33:38.406Z</time></trkpt><trkpt lat="51.9020533" lon="0.2220217"><ele>98.0</ele><time>2026-05-02T08:33:39.405Z</time></trkpt><trkpt lat="51.9023033" lon="0.2221433"><ele>98.0</ele><time>2026-05-02T08:33:40.408Z</time></trkpt><trkpt lat="51.9025533" lon="0.2222583"><ele>98.0</ele><time>2026-05-02T08:33:41.407Z</time></trkpt><trkpt lat="51.9027983" lon="0.22236"><ele>95.0</ele><time>2026-05-02T08:33:42.405Z</time></trkpt><trkpt lat="51.9030483" lon="0.2224517"><ele>92.0</ele><time>2026-05-02T08:33:43.405Z</time></trkpt><trkpt lat="51.9032983" lon="0.2225317"><ele>89.5</ele><time>2026-05-02T08:33:44.408Z</time></trkpt><trkpt lat="51.9035467" lon="0.2226033"><ele>87.0</ele><time>2026-05-02T08:33:45.405Z</time></trkpt><trkpt lat="51.903795" lon="0.22267"><ele>87.0</ele><time>2026-05-02T08:33:46.406Z</time></trkpt><trkpt lat="51.9040467" lon="0.2227183"><ele>87.0</ele><time>2026-05-02T08:33:47.405Z</time></trkpt><trkpt lat="51.9043" lon="0.22275"><ele>84.5</ele><time>2026-05-02T08:33:48.406Z</time></trkpt><trkpt lat="51.9045483" lon="0.2227833"><ele>82.0</ele><time>2026-05-02T08:33:49.41Z</time></trkpt><trkpt lat="51.9047917" lon="0.2228067"><ele>82.0</ele><time>2026-05-02T08:33:50.405Z</time></trkpt><trkpt lat="51.9050367" lon="0.2228283"><ele>82.0</ele><time>2026-05-02T08:33:51.406Z</time></trkpt><trkpt lat="51.9052783" lon="0.22284"><ele>81.5</ele><time>2026-05-02T08:33:52.406Z</time></trkpt><trkpt lat="51.90552" lon="0.2228433"><ele>81.0</ele><time>2026-05-02T08:33:53.406Z</time></trkpt><trkpt lat="51.90576" lon="0.222835"><ele>79.5</ele><time>2026-05-02T08:33:54.405Z</time></trkpt><trkpt lat="51.906" lon="0.2228167"><ele>78.0</ele><time>2026-05-02T08:33:55.405Z</time></trkpt><trkpt lat="51.9062417" lon="0.2227917"><ele>78.0</ele><time>2026-05-02T08:33:56.406Z</time></trkpt><trkpt lat="51.9064867" lon="0.2227633"><ele>78.0</ele><time>2026-05-02T08:33:57.405Z</time></trkpt><trkpt lat="51.906735" lon="0.2227267"><ele>79.5</ele><time>2026-05-02T08:33:58.402Z</time></trkpt><trkpt lat="51.9069917" lon="0.22268"><ele>81.0</ele><time>2026-05-02T08:33:59.405Z</time></trkpt><trkpt lat="51.9072567" lon="0.2226183"><ele>81.0</ele><time>2026-05-02T08:34:00.402Z</time></trkpt><trkpt lat="51.9075283" lon="0.2225517"><ele>81.0</ele><time>2026-05-02T08:34:01.405Z</time></trkpt><trkpt lat="51.907805" lon="0.2224683"><ele>82.0</ele><time>2026-05-02T08:34:02.402Z</time></trkpt><trkpt lat="51.9080883" lon="0.2223683"><ele>83.0</ele><time>2026-05-02T08:34:03.402Z</time></trkpt><trkpt lat="51.9083717" lon="0.2222433"><ele>86.0</ele><time>2026-05-02T08:34:04.402Z</time></trkpt><trkpt lat="51.9086533" lon="0.2221117"><ele>89.0</ele><time>2026-05-02T08:34:05.407Z</time></trkpt><trkpt lat="51.9089333" lon="0.2219783"><ele>89.0</ele><time>2026-05-02T08:34:06.402Z</time></trkpt><trkpt lat="51.9092083" lon="0.2218433"><ele>89.0</ele><time>2026-05-02T08:34:07.402Z</time></trkpt><trkpt lat="51.9094783" lon="0.2217017"><ele>90.0</ele><time>2026-05-02T08:34:08.402Z</time></trkpt><trkpt lat="51.9097433" lon="0.2215567"><ele>91.0</ele><time>2026-05-02T08:34:09.403Z</time></trkpt><trkpt lat="51.9100017" lon="0.22141"><ele>93.5</ele><time>2026-05-02T08:34:10.403Z</time></trkpt><trkpt lat="51.910255" lon="0.221265"><ele>96.0</ele><time>2026-05-02T08:34:11.402Z</time></trkpt><trkpt lat="51.9105083" lon="0.22112"><ele>96.0</ele><time>2026-05-02T08:34:12.402Z</time></trkpt><trkpt lat="51.9107617" lon="0.220975"><ele>96.0</ele><time>2026-05-02T08:34:13.403Z</time></trkpt><trkpt lat="51.9110167" lon="0.220835"><ele>96.5</ele><time>2026-05-02T08:34:14.402Z</time></trkpt><trkpt lat="51.91127" lon="0.2206933"><ele>97.0</ele><time>2026-05-02T08:34:15.403Z</time></trkpt><trkpt lat="51.911525" lon="0.2205533"><ele>98.5</ele><time>2026-05-02T08:34:16.403Z</time></trkpt><trkpt lat="51.91178" lon="0.220415"><ele>100.0</ele><time>2026-05-02T08:34:17.403Z</time></trkpt><trkpt lat="51.9120333" lon="0.2202833"><ele>100.0</ele><time>2026-05-02T08:34:18.406Z</time></trkpt><trkpt lat="51.912285" lon="0.22016"><ele>100.0</ele><time>2026-05-02T08:34:19.402Z</time></trkpt><trkpt lat="51.9125367" lon="0.2200417"><ele>100.0</ele><time>2026-05-02T08:34:20.402Z</time></trkpt><trkpt lat="51.9127883" lon="0.2199317"><ele>100.0</ele><time>2026-05-02T08:34:21.404Z</time></trkpt><trkpt lat="51.9130417" lon="0.2198267"><ele>101.0</ele><time>2026-05-02T08:34:22.406Z</time></trkpt><trkpt lat="51.9132967" lon="0.2197283"><ele>102.0</ele><time>2026-05-02T08:34:23.403Z</time></trkpt><trkpt lat="51.9135517" lon="0.2196383"><ele>102.5</ele><time>2026-05-02T08:34:24.403Z</time></trkpt><trkpt lat="51.9138067" lon="0.2195567"><ele>103.0</ele><time>2026-05-02T08:34:25.404Z</time></trkpt><trkpt lat="51.9140633" lon="0.21948"><ele>104.5</ele><time>2026-05-02T08:34:26.404Z</time></trkpt><trkpt lat="51.9143217" lon="0.219405"><ele>106.0</ele><time>2026-05-02T08:34:27.403Z</time></trkpt><trkpt lat="51.9145783" lon="0.2193417"><ele>106.0</ele><time>2026-05-02T08:34:28.407Z</time></trkpt><trkpt lat="51.9148383" lon="0.21928"><ele>106.0</ele><time>2026-05-02T08:34:29.406Z</time></trkpt><trkpt lat="51.9150967" lon="0.2192167"><ele>107.0</ele><time>2026-05-02T08:34:30.406Z</time></trkpt><trkpt lat="51.915355" lon="0.2191583"><ele>108.0</ele><time>2026-05-02T08:34:31.404Z</time></trkpt><trkpt lat="51.9156167" lon="0.2191117"><ele>108.0</ele><time>2026-05-02T08:34:32.402Z</time></trkpt><trkpt lat="51.9158767" lon="0.219075"><ele>108.0</ele><time>2026-05-02T08:34:33.403Z</time></trkpt><trkpt lat="51.9161367" lon="0.2190467"><ele>108.0</ele><time>2026-05-02T08:34:34.402Z</time></trkpt><trkpt lat="51.9163883" lon="0.219025"><ele>108.0</ele><time>2026-05-02T08:34:35.403Z</time></trkpt><trkpt lat="51.9166333" lon="0.2190117"><ele>107.5</ele><time>2026-05-02T08:34:36.403Z</time></trkpt><trkpt lat="51.916865" lon="0.219"><ele>107.0</ele><time>2026-05-02T08:34:37.404Z</time></trkpt><trkpt lat="51.91709" lon="0.2189933"><ele>107.0</ele><time>2026-05-02T08:34:38.406Z</time></trkpt><trkpt lat="51.917315" lon="0.21899"><ele>107.0</ele><time>2026-05-02T08:34:39.404Z</time></trkpt><trkpt lat="51.917545" lon="0.218995"><ele>108.0</ele><time>2026-05-02T08:34:40.407Z</time></trkpt><trkpt lat="51.9177767" lon="0.21901"><ele>109.0</ele><time>2026-05-02T08:34:41.406Z</time></trkpt><trkpt lat="51.9180183" lon="0.2190133"><ele>109.0</ele><time>2026-05-02T08:34:42.406Z</time></trkpt><trkpt lat="51.918265" lon="0.2190283"><ele>109.0</ele><time>2026-05-02T08:34:43.406Z</time></trkpt><trkpt lat="51.9185117" lon="0.2190483"><ele>104.0</ele><time>2026-05-02T08:34:44.407Z</time></trkpt><trkpt lat="51.9194983" lon="0.2191017"><ele>104.0</ele><time>2026-05-02T08:34:48.178Z</time></trkpt><trkpt lat="51.9198217" lon="0.219215"><ele>104.0</ele><time>2026-05-02T08:34:49.404Z</time></trkpt><trkpt lat="51.9200833" lon="0.2193017"><ele>102.5</ele><time>2026-05-02T08:34:50.403Z</time></trkpt><trkpt lat="51.92035" lon="0.2193883"><ele>101.0</ele><time>2026-05-02T08:34:51.403Z</time></trkpt><trkpt lat="51.9206233" lon="0.219485"><ele>98.5</ele><time>2026-05-02T08:34:52.404Z</time></trkpt><trkpt lat="51.92091" lon="0.219585"><ele>96.0</ele><time>2026-05-02T08:34:53.41Z</time></trkpt><trkpt lat="51.9212017" lon="0.21969"><ele>96.0</ele><time>2026-05-02T08:34:54.403Z</time></trkpt><trkpt lat="51.9214983" lon="0.2198"><ele>96.0</ele><time>2026-05-02T08:34:55.403Z</time></trkpt><trkpt lat="51.9217967" lon="0.2199183"><ele>96.0</ele><time>2026-05-02T08:34:56.402Z</time></trkpt><trkpt lat="51.9221" lon="0.22004"><ele>96.0</ele><time>2026-05-02T08:34:57.402Z</time></trkpt><trkpt lat="51.922405" lon="0.2201683"><ele>96.0</ele><time>2026-05-02T08:34:58.404Z</time></trkpt><trkpt lat="51.9227017" lon="0.2203033"><ele>96.0</ele><time>2026-05-02T08:34:59.402Z</time></trkpt><trkpt lat="51.92299" lon="0.2204467"><ele>96.0</ele><time>2026-05-02T08:35:00.405Z</time></trkpt><trkpt lat="51.9232683" lon="0.2205983"><ele>96.0</ele><time>2026-05-02T08:35:01.404Z</time></trkpt><trkpt lat="51.9235417" lon="0.2207567"><ele>94.0</ele><time>2026-05-02T08:35:02.403Z</time></trkpt><trkpt lat="51.9238083" lon="0.2209217"><ele>92.0</ele><time>2026-05-02T08:35:03.403Z</time></trkpt><trkpt lat="51.924075" lon="0.2210933"><ele>91.5</ele><time>2026-05-02T08:35:04.403Z</time></trkpt><trkpt lat="51.92434" lon="0.22127"><ele>91.0</ele><time>2026-05-02T08:35:05.403Z</time></trkpt><trkpt lat="51.924605" lon="0.22145"><ele>91.0</ele><time>2026-05-02T08:35:06.404Z</time></trkpt><trkpt lat="51.9248683" lon="0.2216367"><ele>91.0</ele><time>2026-05-02T08:35:07.402Z</time></trkpt><trkpt lat="51.9251283" lon="0.2218267"><ele>90.5</ele><time>2026-05-02T08:35:08.403Z</time></trkpt><trkpt lat="51.9253867" lon="0.2220217"><ele>90.0</ele><time>2026-05-02T08:35:09.402Z</time></trkpt><trkpt lat="51.9256433" lon="0.22222"><ele>90.5</ele><time>2026-05-02T08:35:10.403Z</time></trkpt><trkpt lat="51.9259" lon="0.2224183"><ele>91.0</ele><time>2026-05-02T08:35:11.404Z</time></trkpt><trkpt lat="51.92616" lon="0.222615"><ele>91.0</ele><time>2026-05-02T08:35:12.407Z</time></trkpt><trkpt lat="51.9264217" lon="0.22281"><ele>91.0</ele><time>2026-05-02T08:35:13.403Z</time></trkpt><trkpt lat="51.926685" lon="0.2229967"><ele>91.0</ele><time>2026-05-02T08:35:14.402Z</time></trkpt><trkpt lat="51.9269517" lon="0.2231783"><ele>91.0</ele><time>2026-05-02T08:35:15.402Z</time></trkpt><trkpt lat="51.9272183" lon="0.2233533"><ele>91.0</ele><time>2026-05-02T08:35:16.403Z</time></trkpt><trkpt lat="51.9274867" lon="0.2235133"><ele>91.0</ele><time>2026-05-02T08:35:17.407Z</time></trkpt><trkpt lat="51.9277567" lon="0.2236583"><ele>92.0</ele><time>2026-05-02T08:35:18.402Z</time></trkpt><trkpt lat="51.9280283" lon="0.223795"><ele>93.0</ele><time>2026-05-02T08:35:19.403Z</time></trkpt><trkpt lat="51.928305" lon="0.2239267"><ele>91.5</ele><time>2026-05-02T08:35:20.403Z</time></trkpt><trkpt lat="51.9285917" lon="0.2240583"><ele>90.0</ele><time>2026-05-02T08:35:21.404Z</time></trkpt><trkpt lat="51.928885" lon="0.2241817"><ele>90.0</ele><time>2026-05-02T08:35:22.402Z</time></trkpt><trkpt lat="51.9291867" lon="0.2242883"><ele>90.0</ele><time>2026-05-02T08:35:23.402Z</time></trkpt><trkpt lat="51.929495" lon="0.2243783"><ele>90.5</ele><time>2026-05-02T08:35:24.402Z</time></trkpt><trkpt lat="51.92981" lon="0.2244533"><ele>91.0</ele><time>2026-05-02T08:35:25.405Z</time></trkpt><trkpt lat="51.9301267" lon="0.2245067"><ele>92.0</ele><time>2026-05-02T08:35:26.402Z</time></trkpt><trkpt lat="51.9304383" lon="0.22453"><ele>93.0</ele><time>2026-05-02T08:35:27.402Z</time></trkpt><trkpt lat="51.930735" lon="0.2245417"><ele>92.5</ele><time>2026-05-02T08:35:28.407Z</time></trkpt><trkpt lat="51.931025" lon="0.2245617"><ele>92.0</ele><time>2026-05-02T08:35:29.402Z</time></trkpt><trkpt lat="51.9313067" lon="0.2245783"><ele>92.0</ele><time>2026-05-02T08:35:30.404Z</time></trkpt><trkpt lat="51.93159" lon="0.224585"><ele>92.0</ele><time>2026-05-02T08:35:31.403Z</time></trkpt><trkpt lat="51.93187" lon="0.2245767"><ele>93.0</ele><time>2026-05-02T08:35:32.402Z</time></trkpt><trkpt lat="51.93215" lon="0.2245617"><ele>94.0</ele><time>2026-05-02T08:35:33.402Z</time></trkpt><trkpt lat="51.9324283" lon="0.2245317"><ele>93.5</ele><time>2026-05-02T08:35:34.402Z</time></trkpt><trkpt lat="51.9327083" lon="0.2244883"><ele>93.0</ele><time>2026-05-02T08:35:35.403Z</time></trkpt><trkpt lat="51.93299" lon="0.2244283"><ele>93.0</ele><time>2026-05-02T08:35:36.402Z</time></trkpt><trkpt lat="51.9332667" lon="0.2243617"><ele>93.0</ele><time>2026-05-02T08:35:37.406Z</time></trkpt><trkpt lat="51.933545" lon="0.2242783"><ele>93.0</ele><time>2026-05-02T08:35:38.41Z</time></trkpt><trkpt lat="51.9338233" lon="0.22419"><ele>93.0</ele><time>2026-05-02T08:35:39.402Z</time></trkpt><trkpt lat="51.9341033" lon="0.22409"><ele>93.5</ele><time>2026-05-02T08:35:40.402Z</time></trkpt><trkpt lat="51.9343833" lon="0.2239833"><ele>94.0</ele><time>2026-05-02T08:35:41.402Z</time></trkpt><trkpt lat="51.9346649" lon="0.2238664"><ele>94.5</ele><time>2026-05-02T08:35:42.403Z</time></trkpt><trkpt lat="51.9349479" lon="0.2237341"><ele>95.0</ele><time>2026-05-02T08:35:43.402Z</time></trkpt><trkpt lat="51.9352319" lon="0.2235897"><ele>95.0</ele><time>2026-05-02T08:35:44.405Z</time></trkpt><trkpt lat="51.9355162" lon="0.2234259"><ele>95.0</ele><time>2026-05-02T08:35:45.404Z</time></trkpt><trkpt lat="51.935801" lon="0.2232478"><ele>95.5</ele><time>2026-05-02T08:35:46.402Z</time></trkpt><trkpt lat="51.9360845" lon="0.2230621"><ele>96.0</ele><time>2026-05-02T08:35:47.403Z</time></trkpt><trkpt lat="51.9363636" lon="0.222865"><ele>96.0</ele><time>2026-05-02T08:35:48.404Z</time></trkpt><trkpt lat="51.9366362" lon="0.2226572"><ele>96.0</ele><time>2026-05-02T08:35:49.402Z</time></trkpt><trkpt lat="51.9369016" lon="0.2224473"><ele>95.0</ele><time>2026-05-02T08:35:50.406Z</time></trkpt><trkpt lat="51.9371602" lon="0.2222299"><ele>94.0</ele><time>2026-05-02T08:35:51.406Z</time></trkpt><trkpt lat="51.9374205" lon="0.2219977"><ele>91.5</ele><time>2026-05-02T08:35:52.403Z</time></trkpt><trkpt lat="51.9376826" lon="0.2217501"><ele>89.0</ele><time>2026-05-02T08:35:53.405Z</time></trkpt><trkpt lat="51.9379456" lon="0.2214883"><ele>89.5</ele><time>2026-05-02T08:35:54.404Z</time></trkpt><trkpt lat="51.938208" lon="0.2212064"><ele>90.0</ele><time>2026-05-02T08:35:55.404Z</time></trkpt><trkpt lat="51.9384648" lon="0.2209207"><ele>88.0</ele><time>2026-05-02T08:35:56.405Z</time></trkpt><trkpt lat="51.9387133" lon="0.220631"><ele>86.0</ele><time>2026-05-02T08:35:57.404Z</time></trkpt><trkpt lat="51.9389516" lon="0.2203415"><ele>86.0</ele><time>2026-05-02T08:35:58.405Z</time></trkpt><trkpt lat="51.9391905" lon="0.2200563"><ele>86.0</ele><time>2026-05-02T08:35:59.401Z</time></trkpt><trkpt lat="51.9394334" lon="0.219776"><ele>85.0</ele><time>2026-05-02T08:36:00.402Z</time></trkpt><trkpt lat="51.939676" lon="0.2195022"><ele>84.0</ele><time>2026-05-02T08:36:01.405Z</time></trkpt><trkpt lat="51.9399226" lon="0.2192319"><ele>82.5</ele><time>2026-05-02T08:36:02.405Z</time></trkpt><trkpt lat="51.9401792" lon="0.2189649"><ele>81.0</ele><time>2026-05-02T08:36:03.404Z</time></trkpt><trkpt lat="51.9404387" lon="0.2187065"><ele>81.0</ele><time>2026-05-02T08:36:04.406Z</time></trkpt><trkpt lat="51.9407013" lon="0.2184654"><ele>81.0</ele><time>2026-05-02T08:36:05.405Z</time></trkpt><trkpt lat="51.9409714" lon="0.2182392"><ele>80.0</ele><time>2026-05-02T08:36:06.404Z</time></trkpt><trkpt lat="51.9412499" lon="0.2180217"><ele>79.0</ele><time>2026-05-02T08:36:07.405Z</time></trkpt><trkpt lat="51.941523" lon="0.2178109"><ele>78.0</ele><time>2026-05-02T08:36:08.406Z</time></trkpt><trkpt lat="51.9417896" lon="0.2176088"><ele>77.0</ele><time>2026-05-02T08:36:09.406Z</time></trkpt><trkpt lat="51.9559083" lon="0.2142833"><ele>76.0</ele><time>2026-05-02T08:37:00.407Z</time></trkpt><trkpt lat="51.9561483" lon="0.2141917"><ele>76.0</ele><time>2026-05-02T08:37:01.402Z</time></trkpt></trkseg><trkseg><trkpt lat="51.9782397" lon="0.2033001"><ele>74.0</ele><time>2026-05-02T08:38:31.405Z</time></trkpt><trkpt lat="51.9784351" lon="0.2029978"><ele>71.0</ele><time>2026-05-02T08:38:32.401Z</time></trkpt><trkpt lat="51.9786338" lon="0.2026983"><ele>71.0</ele><time>2026-05-02T08:38:33.401Z</time></trkpt><trkpt lat="51.9788372" lon="0.2024003"><ele>71.0</ele><time>2026-05-02T08:38:34.405Z</time></trkpt><trkpt lat="51.9790437" lon="0.2021097"><ele>68.5</ele><time>2026-05-02T08:38:35.404Z</time></trkpt><trkpt lat="51.9792509" lon="0.2018288"><ele>66.0</ele><time>2026-05-02T08:38:36.405Z</time></trkpt><trkpt lat="51.9794607" lon="0.201557"><ele>66.5</ele><time>2026-05-02T08:38:37.402Z</time></trkpt><trkpt lat="51.9796738" lon="0.2012904"><ele>67.0</ele><time>2026-05-02T08:38:38.402Z</time></trkpt><trkpt lat="51.9798874" lon="0.2010347"><ele>66.5</ele><time>2026-05-02T08:38:39.402Z</time></trkpt><trkpt lat="51.9801025" lon="0.2007882"><ele>66.0</ele><time>2026-05-02T08:38:40.403Z</time></trkpt><trkpt lat="51.9803192" lon="0.200552"><ele>66.0</ele><time>2026-05-02T08:38:41.402Z</time></trkpt><trkpt lat="51.9805362" lon="0.2003279"><ele>66.0</ele><time>2026-05-02T08:38:42.403Z</time></trkpt><trkpt lat="51.9807502" lon="0.2001158"><ele>66.5</ele><time>2026-05-02T08:38:43.401Z</time></trkpt><trkpt lat="51.980962" lon="0.1999171"><ele>67.0</ele><time>2026-05-02T08:38:44.404Z</time></trkpt><trkpt lat="51.9811689" lon="0.1997336"><ele>67.5</ele><time>2026-05-02T08:38:45.402Z</time></trkpt><trkpt lat="51.9813739" lon="0.1995522"><ele>68.0</ele><time>2026-05-02T08:38:46.401Z</time></trkpt><trkpt lat="51.9815801" lon="0.1993801"><ele>68.66666666666667</ele><time>2026-05-02T08:38:47.403Z</time></trkpt><trkpt lat="51.9817807" lon="0.199222"><ele>69.33333333333333</ele><time>2026-05-02T08:38:48.402Z</time></trkpt><trkpt lat="51.9819798" lon="0.1990775"><ele>70.0</ele><time>2026-05-02T08:38:49.402Z</time></trkpt><trkpt lat="51.982178" lon="0.1989352"><ele>70.33333333333333</ele><time>2026-05-02T08:38:50.402Z</time></trkpt><trkpt lat="51.9823795" lon="0.1987972"><ele>70.66666666666667</ele><time>2026-05-02T08:38:51.402Z</time></trkpt><trkpt lat="51.9825861" lon="0.1986648"><ele>71.0</ele><time>2026-05-02T08:38:52.402Z</time></trkpt><trkpt lat="51.9827933" lon="0.1985396"><ele>71.66666666666667</ele><time>2026-05-02T08:38:53.403Z</time></trkpt><trkpt lat="51.9829917" lon="0.1984183"><ele>72.33333333333333</ele><time>2026-05-02T08:38:54.402Z</time></trkpt><trkpt lat="51.983185" lon="0.198295"><ele>73.0</ele><time>2026-05-02T08:38:55.402Z</time></trkpt><trkpt lat="51.9833717" lon="0.1981817"><ele>74.0</ele><time>2026-05-02T08:38:56.403Z</time></trkpt><trkpt lat="51.9835533" lon="0.19808"><ele>75.0</ele><time>2026-05-02T08:38:57.403Z</time></trkpt><trkpt lat="51.9837333" lon="0.1979817"><ele>76.0</ele><time>2026-05-02T08:38:58.403Z</time></trkpt><trkpt lat="51.98391" lon="0.197895"><ele>76.0</ele><time>2026-05-02T08:38:59.406Z</time></trkpt><trkpt lat="51.984085" lon="0.19781"><ele>76.0</ele><time>2026-05-02T08:39:00.405Z</time></trkpt><trkpt lat="51.9842567" lon="0.19773"><ele>76.0</ele><time>2026-05-02T08:39:01.403Z</time></trkpt><trkpt lat="51.98443" lon="0.1976533"><ele>76.66666666666666</ele><time>2026-05-02T08:39:02.404Z</time></trkpt><trkpt lat="51.9846017" lon="0.1975767"><ele>77.33333333333333</ele><time>2026-05-02T08:39:03.402Z</time></trkpt><trkpt lat="51.984775" lon="0.1975017"><ele>78.0</ele><time>2026-05-02T08:39:04.403Z</time></trkpt><trkpt lat="51.9849517" lon="0.1974317"><ele>79.0</ele><time>2026-05-02T08:39:05.403Z</time></trkpt><trkpt lat="51.9851317" lon="0.1973633"><ele>80.0</ele><time>2026-05-02T08:39:06.404Z</time></trkpt><trkpt lat="51.9853167" lon="0.1972917"><ele>81.0</ele><time>2026-05-02T08:39:07.407Z</time></trkpt><trkpt lat="51.98551" lon="0.197215"><ele>82.0</ele><time>2026-05-02T08:39:08.403Z</time></trkpt><trkpt lat="51.9857083" lon="0.1971367"><ele>83.0</ele><time>2026-05-02T08:39:09.403Z</time></trkpt><trkpt lat="51.9859083" lon="0.1970583"><ele>84.0</ele><time>2026-05-02T08:39:10.402Z</time></trkpt><trkpt lat="51.98611" lon="0.1969783"><ele>84.0</ele><time>2026-05-02T08:39:11.402Z</time></trkpt><trkpt lat="51.9863117" lon="0.1969083"><ele>84.0</ele><time>2026-05-02T08:39:12.402Z</time></trkpt><trkpt lat="51.9865117" lon="0.196845"><ele>84.0</ele><time>2026-05-02T08:39:13.404Z</time></trkpt><trkpt lat="51.9867067" lon="0.1967817"><ele>83.33333333333333</ele><time>2026-05-02T08:39:14.403Z</time></trkpt><trkpt lat="51.986895" lon="0.1967183"><ele>82.66666666666666</ele><time>2026-05-02T08:39:15.403Z</time></trkpt><trkpt lat="51.98708" lon="0.1966517"><ele>82.0</ele><time>2026-05-02T08:39:16.402Z</time></trkpt><trkpt lat="51.9872617" lon="0.1965867"><ele>82.0</ele><time>2026-05-02T08:39:17.403Z</time></trkpt><trkpt lat="51.9874467" lon="0.1965233"><ele>82.0</ele><time>2026-05-02T08:39:18.402Z</time></trkpt><trkpt lat="51.9876383" lon="0.1964583"><ele>82.0</ele><time>2026-05-02T08:39:19.403Z</time></trkpt><trkpt lat="51.9878367" lon="0.196395"><ele>82.0</ele><time>2026-05-02T08:39:20.404Z</time></trkpt><trkpt lat="51.98804" lon="0.19633"><ele>82.0</ele><time>2026-05-02T08:39:21.403Z</time></trkpt><trkpt lat="51.9882467" lon="0.1962617"><ele>82.0</ele><time>2026-05-02T08:39:22.403Z</time></trkpt><trkpt lat="51.9884567" lon="0.1961983"><ele>82.0</ele><time>2026-05-02T08:39:23.404Z</time></trkpt><trkpt lat="51.9886667" lon="0.1961383"><ele>82.0</ele><time>2026-05-02T08:39:24.405Z</time></trkpt><trkpt lat="51.98888" lon="0.1960783"><ele>82.0</ele><time>2026-05-02T08:39:25.402Z</time></trkpt><trkpt lat="51.9890917" lon="0.1960183"><ele>83.0</ele><time>2026-05-02T08:39:26.403Z</time></trkpt><trkpt lat="51.9893033" lon="0.1959583"><ele>84.0</ele><time>2026-05-02T08:39:27.405Z</time></trkpt><trkpt lat="51.9895133" lon="0.1959"><ele>85.0</ele><time>2026-05-02T08:39:28.402Z</time></trkpt><trkpt lat="51.9897233" lon="0.195845"><ele>85.0</ele><time>2026-05-02T08:39:29.402Z</time></trkpt><trkpt lat="51.9899333" lon="0.1957933"><ele>85.0</ele><time>2026-05-02T08:39:30.404Z</time></trkpt><trkpt lat="51.990145" lon="0.19574"><ele>85.0</ele><time>2026-05-02T08:39:31.405Z</time></trkpt><trkpt lat="51.99036" lon="0.195685"><ele>86.66666666666666</ele><time>2026-05-02T08:39:32.404Z</time></trkpt><trkpt lat="51.9905717" lon="0.1956317"><ele>88.33333333333333</ele><time>2026-05-02T08:39:33.404Z</time></trkpt><trkpt lat="51.99079" lon="0.1955817"><ele>90.0</ele><time>2026-05-02T08:39:34.403Z</time></trkpt><trkpt lat="51.9910133" lon="0.1955267"><ele>92.5</ele><time>2026-05-02T08:39:35.404Z</time></trkpt><trkpt lat="51.991245" lon="0.1954767"><ele>95.0</ele><time>2026-05-02T08:39:36.403Z</time></trkpt><trkpt lat="51.991475" lon="0.19543"><ele>94.5</ele><time>2026-05-02T08:39:37.405Z</time></trkpt><trkpt lat="51.9916983" lon="0.1953817"><ele>94.0</ele><time>2026-05-02T08:39:38.406Z</time></trkpt><trkpt lat="51.9919217" lon="0.1953367"><ele>94.0</ele><time>2026-05-02T08:39:39.407Z</time></trkpt><trkpt lat="51.9921467" lon="0.1952967"><ele>94.0</ele><time>2026-05-02T08:39:40.404Z</time></trkpt><trkpt lat="51.9923717" lon="0.1952567"><ele>94.0</ele><time>2026-05-02T08:39:41.405Z</time></trkpt><trkpt lat="51.9925967" lon="0.1952133"><ele>94.0</ele><time>2026-05-02T08:39:42.405Z</time></trkpt><trkpt lat="51.9928233" lon="0.1951683"><ele>94.0</ele><time>2026-05-02T08:39:43.406Z</time></trkpt><trkpt lat="51.9930617" lon="0.1951283"><ele>94.0</ele><time>2026-05-02T08:39:44.405Z</time></trkpt><trkpt lat="51.9933083" lon="0.1950883"><ele>94.0</ele><time>2026-05-02T08:39:45.405Z</time></trkpt><trkpt lat="51.9935533" lon="0.195055"><ele>94.0</ele><time>2026-05-02T08:39:46.405Z</time></trkpt><trkpt lat="51.9938" lon="0.1950233"><ele>94.0</ele><time>2026-05-02T08:39:47.405Z</time></trkpt><trkpt lat="51.99405" lon="0.1949917"><ele>94.0</ele><time>2026-05-02T08:39:48.403Z</time></trkpt><trkpt lat="51.9943067" lon="0.1949617"><ele>93.0</ele><time>2026-05-02T08:39:49.401Z</time></trkpt><trkpt lat="51.9945667" lon="0.1949317"><ele>92.0</ele><time>2026-05-02T08:39:50.408Z</time></trkpt><trkpt lat="51.99483" lon="0.194905"><ele>90.0</ele><time>2026-05-02T08:39:51.404Z</time></trkpt><trkpt lat="51.9950933" lon="0.1948783"><ele>88.0</ele><time>2026-05-02T08:39:52.402Z</time></trkpt><trkpt lat="51.99536" lon="0.1948583"><ele>87.5</ele><time>2026-05-02T08:39:53.405Z</time></trkpt><trkpt lat="51.995625" lon="0.194835"><ele>87.0</ele><time>2026-05-02T08:39:54.404Z</time></trkpt><trkpt lat="51.99589" lon="0.1948117"><ele>83.5</ele><time>2026-05-02T08:39:55.401Z</time></trkpt><trkpt lat="51.9961567" lon="0.1947883"><ele>80.0</ele><time>2026-05-02T08:39:56.402Z</time></trkpt><trkpt lat="51.996425" lon="0.19477"><ele>77.0</ele><time>2026-05-02T08:39:57.402Z</time></trkpt><trkpt lat="51.996685" lon="0.1947583"><ele>74.0</ele><time>2026-05-02T08:39:58.402Z</time></trkpt><trkpt lat="51.9969417" lon="0.19475"><ele>74.0</ele><time>2026-05-02T08:39:59.406Z</time></trkpt><trkpt lat="51.9971983" lon="0.1947417"><ele>74.0</ele><time>2026-05-02T08:40:00.407Z</time></trkpt><trkpt lat="51.9974517" lon="0.1947417"><ele>72.0</ele><time>2026-05-02T08:40:01.405Z</time></trkpt><trkpt lat="51.9977017" lon="0.1947433"><ele>70.0</ele><time>2026-05-02T08:40:02.405Z</time></trkpt><trkpt lat="51.9979533" lon="0.1947417"><ele>70.0</ele><time>2026-05-02T08:40:03.405Z</time></trkpt><trkpt lat="51.9982067" lon="0.1947367"><ele>70.0</ele><time>2026-05-02T08:40:04.405Z</time></trkpt><trkpt lat="51.9984683" lon="0.1947333"><ele>70.0</ele><time>2026-05-02T08:40:05.406Z</time></trkpt><trkpt lat="51.9987367" lon="0.1947367"><ele>70.0</ele><time>2026-05-02T08:40:06.406Z</time></trkpt><trkpt lat="51.9990083" lon="0.194745"><ele>70.0</ele><time>2026-05-02T08:40:07.405Z</time></trkpt><trkpt lat="51.9992817" lon="0.1947517"><ele>70.0</ele><time>2026-05-02T08:40:08.406Z</time></trkpt><trkpt lat="51.99955" lon="0.19476"><ele>70.0</ele><time>2026-05-02T08:40:09.404Z</time></trkpt><trkpt lat="51.9998217" lon="0.194775"><ele>70.0</ele><time>2026-05-02T08:40:10.406Z</time></trkpt><trkpt lat="52.0000917" lon="0.1947917"><ele>70.0</ele><time>2026-05-02T08:40:11.406Z</time></trkpt><trkpt lat="52.0003583" lon="0.19481"><ele>70.0</ele><time>2026-05-02T08:40:12.405Z</time></trkpt><trkpt lat="52.0006183" lon="0.1948283"><ele>68.0</ele><time>2026-05-02T08:40:13.405Z</time></trkpt><trkpt lat="52.0008783" lon="0.1948533"><ele>66.0</ele><time>2026-05-02T08:40:14.405Z</time></trkpt><trkpt lat="52.0011417" lon="0.19488"><ele>66.0</ele><time>2026-05-02T08:40:15.406Z</time></trkpt><trkpt lat="52.0014117" lon="0.1949217"><ele>66.0</ele><time>2026-05-02T08:40:16.402Z</time></trkpt><trkpt lat="52.00169" lon="0.194965"><ele>65.0</ele><time>2026-05-02T08:40:17.405Z</time></trkpt><trkpt lat="52.0019717" lon="0.1950033"><ele>64.0</ele><time>2026-05-02T08:40:18.401Z</time></trkpt><trkpt lat="52.0022567" lon="0.195035"><ele>63.0</ele><time>2026-05-02T08:40:19.402Z</time></trkpt><trkpt lat="52.0025483" lon="0.1950733"><ele>62.0</ele><time>2026-05-02T08:40:20.402Z</time></trkpt><trkpt lat="52.0028383" lon="0.1951133"><ele>62.0</ele><time>2026-05-02T08:40:21.404Z</time></trkpt><trkpt lat="52.00312" lon="0.1951517"><ele>62.0</ele><time>2026-05-02T08:40:22.403Z</time></trkpt><trkpt lat="52.0033933" lon="0.1951917"><ele>61.5</ele><time>2026-05-02T08:40:23.403Z</time></trkpt><trkpt lat="52.0036683" lon="0.1952333"><ele>61.0</ele><time>2026-05-02T08:40:24.403Z</time></trkpt><trkpt lat="52.0039533" lon="0.1952683"><ele>60.0</ele><time>2026-05-02T08:40:25.403Z</time></trkpt><trkpt lat="52.0042483" lon="0.1953"><ele>59.0</ele><time>2026-05-02T08:40:26.403Z</time></trkpt><trkpt lat="52.0045467" lon="0.1953383"><ele>59.0</ele><time>2026-05-02T08:40:27.402Z</time></trkpt><trkpt lat="52.0048433" lon="0.1953833"><ele>59.0</ele><time>2026-05-02T08:40:28.402Z</time></trkpt><trkpt lat="52.0051383" lon="0.1954333"><ele>59.0</ele><time>2026-05-02T08:40:29.405Z</time></trkpt><trkpt lat="52.005435" lon="0.1954917"><ele>59.0</ele><time>2026-05-02T08:40:30.402Z</time></trkpt><trkpt lat="52.0057333" lon="0.1955617"><ele>61.5</ele><time>2026-05-02T08:40:31.405Z</time></trkpt><trkpt lat="52.00603" lon="0.1956333"><ele>64.0</ele><time>2026-05-02T08:40:32.401Z</time></trkpt><trkpt lat="52.0063233" lon="0.19571"><ele>64.0</ele><time>2026-05-02T08:40:33.402Z</time></trkpt><trkpt lat="52.00661" lon="0.1957833"><ele>64.0</ele><time>2026-05-02T08:40:34.404Z</time></trkpt><trkpt lat="52.0068933" lon="0.19586"><ele>66.5</ele><time>2026-05-02T08:40:35.401Z</time></trkpt><trkpt lat="52.0071733" lon="0.1959367"><ele>69.0</ele><time>2026-05-02T08:40:36.405Z</time></trkpt><trkpt lat="52.0074483" lon="0.1960167"><ele>72.0</ele><time>2026-05-02T08:40:37.404Z</time></trkpt><trkpt lat="52.0077183" lon="0.1960933"><ele>75.0</ele><time>2026-05-02T08:40:38.405Z</time></trkpt><trkpt lat="52.0079867" lon="0.1961683"><ele>75.0</ele><time>2026-05-02T08:40:39.407Z</time></trkpt><trkpt lat="52.0082533" lon="0.1962467"><ele>75.0</ele><time>2026-05-02T08:40:40.402Z</time></trkpt><trkpt lat="52.0085217" lon="0.1963283"><ele>79.0</ele><time>2026-05-02T08:40:41.405Z</time></trkpt><trkpt lat="52.0087917" lon="0.1964117"><ele>83.0</ele><time>2026-05-02T08:40:42.403Z</time></trkpt><trkpt lat="52.00906" lon="0.1965"><ele>85.0</ele><time>2026-05-02T08:40:43.401Z</time></trkpt><trkpt lat="52.0093267" lon="0.1965933"><ele>87.0</ele><time>2026-05-02T08:40:44.402Z</time></trkpt><trkpt lat="52.0095917" lon="0.1966833"><ele>87.0</ele><time>2026-05-02T08:40:45.406Z</time></trkpt><trkpt lat="52.0098583" lon="0.196765"><ele>87.0</ele><time>2026-05-02T08:40:46.405Z</time></trkpt><trkpt lat="52.010125" lon="0.1968567"><ele>89.0</ele><time>2026-05-02T08:40:47.405Z</time></trkpt><trkpt lat="52.0103917" lon="0.1969383"><ele>91.0</ele><time>2026-05-02T08:40:48.402Z</time></trkpt><trkpt lat="52.0106583" lon="0.1970167"><ele>92.0</ele><time>2026-05-02T08:40:49.402Z</time></trkpt><trkpt lat="52.0109317" lon="0.1971017"><ele>93.0</ele><time>2026-05-02T08:40:50.402Z</time></trkpt><trkpt lat="52.0112117" lon="0.19719"><ele>93.0</ele><time>2026-05-02T08:40:51.405Z</time></trkpt><trkpt lat="52.0114967" lon="0.1972667"><ele>93.0</ele><time>2026-05-02T08:40:52.401Z</time></trkpt><trkpt lat="52.0117867" lon="0.1973267"><ele>93.0</ele><time>2026-05-02T08:40:53.402Z</time></trkpt><trkpt lat="52.0120717" lon="0.1973767"><ele>93.0</ele><time>2026-05-02T08:40:54.402Z</time></trkpt><trkpt lat="52.01236" lon="0.1974133"><ele>93.0</ele><time>2026-05-02T08:40:55.401Z</time></trkpt><trkpt lat="52.0126483" lon="0.19744"><ele>93.0</ele><time>2026-05-02T08:40:56.402Z</time></trkpt><trkpt lat="52.01293" lon="0.1974717"><ele>93.0</ele><time>2026-05-02T08:40:57.401Z</time></trkpt><trkpt lat="52.0132" lon="0.1975017"><ele>93.0</ele><time>2026-05-02T08:40:58.402Z</time></trkpt><trkpt lat="52.0134683" lon="0.1975367"><ele>91.0</ele><time>2026-05-02T08:40:59.405Z</time></trkpt><trkpt lat="52.0137383" lon="0.19757"><ele>89.0</ele><time>2026-05-02T08:41:00.405Z</time></trkpt><trkpt lat="52.0140117" lon="0.1975917"><ele>86.0</ele><time>2026-05-02T08:41:01.401Z</time></trkpt><trkpt lat="52.0142833" lon="0.1976017"><ele>83.0</ele><time>2026-05-02T08:41:02.406Z</time></trkpt><trkpt lat="52.0145533" lon="0.1976033"><ele>83.0</ele><time>2026-05-02T08:41:03.406Z</time></trkpt><trkpt lat="52.0148217" lon="0.1975983"><ele>83.0</ele><time>2026-05-02T08:41:04.405Z</time></trkpt><trkpt lat="52.015085" lon="0.19759"><ele>83.5</ele><time>2026-05-02T08:41:05.406Z</time></trkpt><trkpt lat="52.0153517" lon="0.1975767"><ele>84.0</ele><time>2026-05-02T08:41:06.401Z</time></trkpt><trkpt lat="52.0156167" lon="0.197555"><ele>84.5</ele><time>2026-05-02T08:41:07.406Z</time></trkpt><trkpt lat="52.0158833" lon="0.1975367"><ele>85.0</ele><time>2026-05-02T08:41:08.403Z</time></trkpt><trkpt lat="52.0161533" lon="0.197515"><ele>85.0</ele><time>2026-05-02T08:41:09.405Z</time></trkpt><trkpt lat="52.0164283" lon="0.1974883"><ele>85.0</ele><time>2026-05-02T08:41:10.402Z</time></trkpt><trkpt lat="52.0167067" lon="0.1974583"><ele>84.5</ele><time>2026-05-02T08:41:11.41Z</time></trkpt><trkpt lat="52.0169833" lon="0.1974183"><ele>84.0</ele><time>2026-05-02T08:41:12.408Z</time></trkpt><trkpt lat="52.0172583" lon="0.1973717"><ele>82.5</ele><time>2026-05-02T08:41:13.406Z</time></trkpt><trkpt lat="52.0175283" lon="0.197315"><ele>81.0</ele><time>2026-05-02T08:41:14.405Z</time></trkpt><trkpt lat="52.0177967" lon="0.1972567"><ele>81.0</ele><time>2026-05-02T08:41:15.401Z</time></trkpt><trkpt lat="52.0180617" lon="0.197195"><ele>81.0</ele><time>2026-05-02T08:41:16.402Z</time></trkpt><trkpt lat="52.018325" lon="0.19713"><ele>79.0</ele><time>2026-05-02T08:41:17.402Z</time></trkpt><trkpt lat="52.018585" lon="0.1970567"><ele>77.0</ele><time>2026-05-02T08:41:18.401Z</time></trkpt><trkpt lat="52.018845" lon="0.1969817"><ele>77.0</ele><time>2026-05-02T08:41:19.403Z</time></trkpt><trkpt lat="52.0191033" lon="0.1969017"><ele>77.0</ele><time>2026-05-02T08:41:20.401Z</time></trkpt><trkpt lat="52.0193633" lon="0.1968167"><ele>75.5</ele><time>2026-05-02T08:41:21.404Z</time></trkpt><trkpt lat="52.0196233" lon="0.1967317"><ele>74.0</ele><time>2026-05-02T08:41:22.404Z</time></trkpt><trkpt lat="52.0198817" lon="0.1966417"><ele>74.5</ele><time>2026-05-02T08:41:23.404Z</time></trkpt><trkpt lat="52.0201383" lon="0.196545"><ele>75.0</ele><time>2026-05-02T08:41:24.403Z</time></trkpt><trkpt lat="52.0203917" lon="0.19645"><ele>74.5</ele><time>2026-05-02T08:41:25.401Z</time></trkpt><trkpt lat="52.0206467" lon="0.196345"><ele>74.0</ele><time>2026-05-02T08:41:26.402Z</time></trkpt><trkpt lat="52.0209017" lon="0.196235"><ele>74.0</ele><time>2026-05-02T08:41:27.403Z</time></trkpt><trkpt lat="52.02115" lon="0.1961183"><ele>74.0</ele><time>2026-05-02T08:41:28.401Z</time></trkpt><trkpt lat="52.0213917" lon="0.1960017"><ele>74.0</ele><time>2026-05-02T08:41:29.402Z</time></trkpt><trkpt lat="52.0216283" lon="0.1958883"><ele>74.0</ele><time>2026-05-02T08:41:30.402Z</time></trkpt><trkpt lat="52.02186" lon="0.1957767"><ele>73.5</ele><time>2026-05-02T08:41:31.402Z</time></trkpt><trkpt lat="52.022085" lon="0.1956617"><ele>73.0</ele><time>2026-05-02T08:41:32.402Z</time></trkpt><trkpt lat="52.0223067" lon="0.19554"><ele>72.0</ele><time>2026-05-02T08:41:33.401Z</time></trkpt><trkpt lat="52.0225283" lon="0.195415"><ele>71.0</ele><time>2026-05-02T08:41:34.403Z</time></trkpt><trkpt lat="52.0227567" lon="0.1952883"><ele>71.0</ele><time>2026-05-02T08:41:35.401Z</time></trkpt><trkpt lat="52.0229933" lon="0.19515"><ele>71.0</ele><time>2026-05-02T08:41:36.404Z</time></trkpt><trkpt lat="52.02323" lon="0.195005"><ele>71.5</ele><time>2026-05-02T08:41:37.403Z</time></trkpt><trkpt lat="52.023455" lon="0.1948567"><ele>72.0</ele><time>2026-05-02T08:41:38.404Z</time></trkpt><trkpt lat="52.02368" lon="0.1947067"><ele>72.0</ele><time>2026-05-02T08:41:39.401Z</time></trkpt><trkpt lat="52.0239033" lon="0.1945533"><ele>72.0</ele><time>2026-05-02T08:41:40.404Z</time></trkpt><trkpt lat="52.02413" lon="0.1943933"><ele>75.0</ele><time>2026-05-02T08:41:41.403Z</time></trkpt><trkpt lat="52.0243633" lon="0.1942283"><ele>78.0</ele><time>2026-05-02T08:41:42.403Z</time></trkpt><trkpt lat="52.024595" lon="0.19406"><ele>77.5</ele><time>2026-05-02T08:41:43.401Z</time></trkpt><trkpt lat="52.0248233" lon="0.1938917"><ele>77.0</ele><time>2026-05-02T08:41:44.403Z</time></trkpt><trkpt lat="52.025045" lon="0.1937217"><ele>79.5</ele><time>2026-05-02T08:41:45.403Z</time></trkpt><trkpt lat="52.0252733" lon="0.1935383"><ele>82.0</ele><time>2026-05-02T08:41:46.401Z</time></trkpt><trkpt lat="52.0255083" lon="0.1933533"><ele>82.0</ele><time>2026-05-02T08:41:47.403Z</time></trkpt><trkpt lat="52.0257483" lon="0.1931783"><ele>82.0</ele><time>2026-05-02T08:41:48.406Z</time></trkpt><trkpt lat="52.02599" lon="0.1930183"><ele>84.0</ele><time>2026-05-02T08:41:49.406Z</time></trkpt><trkpt lat="52.0262233" lon="0.19287"><ele>86.0</ele><time>2026-05-02T08:41:50.407Z</time></trkpt><trkpt lat="52.0264483" lon="0.1927217"><ele>88.5</ele><time>2026-05-02T08:41:51.403Z</time></trkpt><trkpt lat="52.0266683" lon="0.1925717"><ele>91.0</ele><time>2026-05-02T08:41:52.401Z</time></trkpt><trkpt lat="52.0268833" lon="0.19242"><ele>89.5</ele><time>2026-05-02T08:41:53.401Z</time></trkpt><trkpt lat="52.0270933" lon="0.1922733"><ele>88.0</ele><time>2026-05-02T08:41:54.405Z</time></trkpt><trkpt lat="52.0273033" lon="0.1921317"><ele>90.0</ele><time>2026-05-02T08:41:55.401Z</time></trkpt><trkpt lat="52.02752" lon="0.1919917"><ele>92.0</ele><time>2026-05-02T08:41:56.403Z</time></trkpt><trkpt lat="52.0277383" lon="0.1918567"><ele>92.0</ele><time>2026-05-02T08:41:57.402Z</time></trkpt><trkpt lat="52.0279583" lon="0.191725"><ele>92.0</ele><time>2026-05-02T08:41:58.401Z</time></trkpt><trkpt lat="52.028185" lon="0.1915933"><ele>94.5</ele><time>2026-05-02T08:41:59.401Z</time></trkpt><trkpt lat="52.028415" lon="0.1914667"><ele>97.0</ele><time>2026-05-02T08:42:00.403Z</time></trkpt><trkpt lat="52.028655" lon="0.1913433"><ele>97.0</ele><time>2026-05-02T08:42:01.402Z</time></trkpt><trkpt lat="52.0289" lon="0.191215"><ele>97.0</ele><time>2026-05-02T08:42:02.407Z</time></trkpt><trkpt lat="52.0291467" lon="0.1910833"><ele>98.0</ele><time>2026-05-02T08:42:03.403Z</time></trkpt><trkpt lat="52.029395" lon="0.1909583"><ele>99.0</ele><time>2026-05-02T08:42:04.403Z</time></trkpt><trkpt lat="52.0296467" lon="0.1908383"><ele>99.0</ele><time>2026-05-02T08:42:05.401Z</time></trkpt><trkpt lat="52.0298983" lon="0.19072"><ele>99.0</ele><time>2026-05-02T08:42:06.402Z</time></trkpt><trkpt lat="52.0301533" lon="0.19061"><ele>101.5</ele><time>2026-05-02T08:42:07.402Z</time></trkpt><trkpt lat="52.03041" lon="0.1905083"><ele>104.0</ele><time>2026-05-02T08:42:08.402Z</time></trkpt><trkpt lat="52.0306667" lon="0.1904067"><ele>103.0</ele><time>2026-05-02T08:42:09.402Z</time></trkpt><trkpt lat="52.0309283" lon="0.1902967"><ele>102.0</ele><time>2026-05-02T08:42:10.402Z</time></trkpt><trkpt lat="52.0311967" lon="0.1901783"><ele>102.0</ele><time>2026-05-02T08:42:11.402Z</time></trkpt><trkpt lat="52.03147" lon="0.1900683"><ele>102.0</ele><time>2026-05-02T08:42:12.403Z</time></trkpt><trkpt lat="52.0317467" lon="0.1899717"><ele>102.5</ele><time>2026-05-02T08:42:13.402Z</time></trkpt><trkpt lat="52.03202" lon="0.1898883"><ele>103.0</ele><time>2026-05-02T08:42:14.404Z</time></trkpt><trkpt lat="52.0322933" lon="0.18981"><ele>105.0</ele><time>2026-05-02T08:42:15.406Z</time></trkpt><trkpt lat="52.032565" lon="0.1897367"><ele>107.0</ele><time>2026-05-02T08:42:16.402Z</time></trkpt><trkpt lat="52.032835" lon="0.1896683"><ele>107.0</ele><time>2026-05-02T08:42:17.403Z</time></trkpt><trkpt lat="52.0331033" lon="0.1896033"><ele>107.0</ele><time>2026-05-02T08:42:18.403Z</time></trkpt><trkpt lat="52.0333733" lon="0.1895433"><ele>107.0</ele><time>2026-05-02T08:42:19.405Z</time></trkpt><trkpt lat="52.0336517" lon="0.189495"><ele>107.0</ele><time>2026-05-02T08:42:20.405Z</time></trkpt><trkpt lat="52.0339317" lon="0.189455"><ele>108.0</ele><time>2026-05-02T08:42:21.405Z</time></trkpt><trkpt lat="52.034215" lon="0.1894233"><ele>109.0</ele><time>2026-05-02T08:42:22.406Z</time></trkpt><trkpt lat="52.0345" lon="0.1893967"><ele>109.0</ele><time>2026-05-02T08:42:23.407Z</time></trkpt><trkpt lat="52.0347833" lon="0.1893733"><ele>109.0</ele><time>2026-05-02T08:42:24.401Z</time></trkpt><trkpt lat="52.03506" lon="0.1893483"><ele>109.0</ele><time>2026-05-02T08:42:25.401Z</time></trkpt><trkpt lat="52.035335" lon="0.1893233"><ele>109.0</ele><time>2026-05-02T08:42:26.403Z</time></trkpt><trkpt lat="52.0356117" lon="0.1893067"><ele>109.5</ele><time>2026-05-02T08:42:27.403Z</time></trkpt><trkpt lat="52.0358867" lon="0.189285"><ele>110.0</ele><time>2026-05-02T08:42:28.403Z</time></trkpt><trkpt lat="52.03616" lon="0.1892717"><ele>110.0</ele><time>2026-05-02T08:42:29.405Z</time></trkpt><trkpt lat="52.03644" lon="0.18926"><ele>110.0</ele><time>2026-05-02T08:42:30.402Z</time></trkpt><trkpt lat="52.0367233" lon="0.1892667"><ele>109.0</ele><time>2026-05-02T08:42:31.406Z</time></trkpt><trkpt lat="52.0370083" lon="0.1892767"><ele>108.0</ele><time>2026-05-02T08:42:32.402Z</time></trkpt><trkpt lat="52.037295" lon="0.18928"><ele>108.0</ele><time>2026-05-02T08:42:33.406Z</time></trkpt><trkpt lat="52.0375833" lon="0.189295"><ele>108.0</ele><time>2026-05-02T08:42:34.403Z</time></trkpt><trkpt lat="52.03787" lon="0.1893133"><ele>108.0</ele><time>2026-05-02T08:42:35.402Z</time></trkpt><trkpt lat="52.038155" lon="0.1893383"><ele>108.0</ele><time>2026-05-02T08:42:36.402Z</time></trkpt><trkpt lat="52.0384433" lon="0.189375"><ele>107.0</ele><time>2026-05-02T08:42:37.406Z</time></trkpt><trkpt lat="52.0387367" lon="0.18942"><ele>106.0</ele><time>2026-05-02T08:42:38.41Z</time></trkpt><trkpt lat="52.039035" lon="0.1894667"><ele>106.0</ele><time>2026-05-02T08:42:39.402Z</time></trkpt><trkpt lat="52.0393367" lon="0.18952"><ele>106.0</ele><time>2026-05-02T08:42:40.405Z</time></trkpt><trkpt lat="52.0396433" lon="0.1895817"><ele>106.0</ele><time>2026-05-02T08:42:41.402Z</time></trkpt><trkpt lat="52.03995" lon="0.1896533"><ele>106.0</ele><time>2026-05-02T08:42:42.403Z</time></trkpt><trkpt lat="52.040255" lon="0.1897317"><ele>105.5</ele><time>2026-05-02T08:42:43.402Z</time></trkpt><trkpt lat="52.040555" lon="0.1898067"><ele>105.0</ele><time>2026-05-02T08:42:44.406Z</time></trkpt><trkpt lat="52.0408533" lon="0.1898883"><ele>102.0</ele><time>2026-05-02T08:42:45.403Z</time></trkpt><trkpt lat="52.0411583" lon="0.1899783"><ele>99.0</ele><time>2026-05-02T08:42:46.403Z</time></trkpt><trkpt lat="52.0414683" lon="0.1900733"><ele>97.5</ele><time>2026-05-02T08:42:47.404Z</time></trkpt><trkpt lat="52.0417833" lon="0.1901767"><ele>96.0</ele><time>2026-05-02T08:42:48.403Z</time></trkpt><trkpt lat="52.0421" lon="0.1902933"><ele>96.0</ele><time>2026-05-02T08:42:49.406Z</time></trkpt><trkpt lat="52.042425" lon="0.1904283"><ele>96.0</ele><time>2026-05-02T08:42:50.405Z</time></trkpt><trkpt lat="52.042755" lon="0.1905633"><ele>95.0</ele><time>2026-05-02T08:42:51.406Z</time></trkpt><trkpt lat="52.043095" lon="0.1907067"><ele>94.0</ele><time>2026-05-02T08:42:52.405Z</time></trkpt><trkpt lat="52.0434383" lon="0.1908483"><ele>94.0</ele><time>2026-05-02T08:42:53.405Z</time></trkpt><trkpt lat="52.043785" lon="0.1909933"><ele>94.0</ele><time>2026-05-02T08:42:54.405Z</time></trkpt><trkpt lat="52.0441333" lon="0.1911383"><ele>94.0</ele><time>2026-05-02T08:42:55.405Z</time></trkpt><trkpt lat="52.0444833" lon="0.1912833"><ele>94.0</ele><time>2026-05-02T08:42:56.405Z</time></trkpt><trkpt lat="52.044835" lon="0.1914233"><ele>91.0</ele><time>2026-05-02T08:42:57.406Z</time></trkpt><trkpt lat="52.04519" lon="0.191555"><ele>88.0</ele><time>2026-05-02T08:42:58.406Z</time></trkpt><trkpt lat="52.0455467" lon="0.1916833"><ele>87.0</ele><time>2026-05-02T08:42:59.405Z</time></trkpt><trkpt lat="52.0459067" lon="0.1918"><ele>86.0</ele><time>2026-05-02T08:43:00.402Z</time></trkpt><trkpt lat="52.0462667" lon="0.1919017"><ele>84.5</ele><time>2026-05-02T08:43:01.401Z</time></trkpt><trkpt lat="52.04663" lon="0.19198"><ele>83.0</ele><time>2026-05-02T08:43:02.402Z</time></trkpt><trkpt lat="52.0469883" lon="0.1920467"><ele>83.0</ele><time>2026-05-02T08:43:03.402Z</time></trkpt><trkpt lat="52.04733" lon="0.192105"><ele>83.0</ele><time>2026-05-02T08:43:04.403Z</time></trkpt><trkpt lat="52.0476583" lon="0.1921633"><ele>82.0</ele><time>2026-05-02T08:43:05.408Z</time></trkpt><trkpt lat="52.0479767" lon="0.1922067"><ele>81.0</ele><time>2026-05-02T08:43:06.404Z</time></trkpt><trkpt lat="52.048295" lon="0.192245"><ele>79.0</ele><time>2026-05-02T08:43:07.405Z</time></trkpt><trkpt lat="52.048605" lon="0.1922783"><ele>77.0</ele><time>2026-05-02T08:43:08.403Z</time></trkpt><trkpt lat="52.0489117" lon="0.1923083"><ele>74.5</ele><time>2026-05-02T08:43:09.402Z</time></trkpt><trkpt lat="52.04922" lon="0.19233"><ele>72.0</ele><time>2026-05-02T08:43:10.401Z</time></trkpt><trkpt lat="52.049535" lon="0.1923467"><ele>71.0</ele><time>2026-05-02T08:43:11.405Z</time></trkpt><trkpt lat="52.0498533" lon="0.19236"><ele>70.0</ele><time>2026-05-02T08:43:12.406Z</time></trkpt><trkpt lat="52.05017" lon="0.1923733"><ele>67.5</ele><time>2026-05-02T08:43:13.406Z</time></trkpt><trkpt lat="52.0504883" lon="0.1923717"><ele>65.0</ele><time>2026-05-02T08:43:14.408Z</time></trkpt><trkpt lat="52.0508017" lon="0.1923533"><ele>62.0</ele><time>2026-05-02T08:43:15.406Z</time></trkpt><trkpt lat="52.0511133" lon="0.19232"><ele>59.0</ele><time>2026-05-02T08:43:16.405Z</time></trkpt><trkpt lat="52.051425" lon="0.19228"><ele>56.5</ele><time>2026-05-02T08:43:17.405Z</time></trkpt><trkpt lat="52.0517367" lon="0.19223"><ele>54.0</ele><time>2026-05-02T08:43:18.406Z</time></trkpt><trkpt lat="52.052045" lon="0.192175"><ele>54.0</ele><time>2026-05-02T08:43:19.404Z</time></trkpt><trkpt lat="52.0523567" lon="0.192115"><ele>54.0</ele><time>2026-05-02T08:43:20.406Z</time></trkpt><trkpt lat="52.0526667" lon="0.1920533"><ele>52.5</ele><time>2026-05-02T08:43:21.406Z</time></trkpt><trkpt lat="52.052975" lon="0.191985"><ele>51.0</ele><time>2026-05-02T08:43:22.405Z</time></trkpt><trkpt lat="52.0532833" lon="0.1919033"><ele>50.5</ele><time>2026-05-02T08:43:23.405Z</time></trkpt><trkpt lat="52.05359" lon="0.1918117"><ele>50.0</ele><time>2026-05-02T08:43:24.406Z</time></trkpt><trkpt lat="52.0538933" lon="0.1917067"><ele>49.5</ele><time>2026-05-02T08:43:25.404Z</time></trkpt><trkpt lat="52.054195" lon="0.1915933"><ele>49.0</ele><time>2026-05-02T08:43:26.405Z</time></trkpt><trkpt lat="52.05449" lon="0.191475"><ele>49.0</ele><time>2026-05-02T08:43:27.404Z</time></trkpt><trkpt lat="52.054785" lon="0.1913533"><ele>49.0</ele><time>2026-05-02T08:43:28.402Z</time></trkpt><trkpt lat="52.05508" lon="0.1912283"><ele>50.5</ele><time>2026-05-02T08:43:29.401Z</time></trkpt><trkpt lat="52.0553733" lon="0.1911"><ele>52.0</ele><time>2026-05-02T08:43:30.402Z</time></trkpt><trkpt lat="52.0556717" lon="0.1909617"><ele>53.0</ele><time>2026-05-02T08:43:31.405Z</time></trkpt><trkpt lat="52.0559717" lon="0.1908133"><ele>54.0</ele><time>2026-05-02T08:43:32.403Z</time></trkpt><trkpt lat="52.056275" lon="0.190655"><ele>55.0</ele><time>2026-05-02T08:43:33.405Z</time></trkpt><trkpt lat="52.05658" lon="0.19049"><ele>56.0</ele><time>2026-05-02T08:43:34.407Z</time></trkpt><trkpt lat="52.0568817" lon="0.1903217"><ele>56.5</ele><time>2026-05-02T08:43:35.405Z</time></trkpt><trkpt lat="52.05718" lon="0.1901467"><ele>57.0</ele><time>2026-05-02T08:43:36.402Z</time></trkpt><trkpt lat="52.0574717" lon="0.189965"><ele>57.5</ele><time>2026-05-02T08:43:37.402Z</time></trkpt><trkpt lat="52.0577567" lon="0.1897783"><ele>58.0</ele><time>2026-05-02T08:43:38.406Z</time></trkpt><trkpt lat="52.05804" lon="0.18958"><ele>56.0</ele><time>2026-05-02T08:43:39.406Z</time></trkpt><trkpt lat="52.0583217" lon="0.1893733"><ele>54.0</ele><time>2026-05-02T08:43:40.405Z</time></trkpt><trkpt lat="52.0586067" lon="0.1891533"><ele>54.0</ele><time>2026-05-02T08:43:41.406Z</time></trkpt><trkpt lat="52.0588833" lon="0.188925"><ele>54.0</ele><time>2026-05-02T08:43:42.405Z</time></trkpt><trkpt lat="52.0591617" lon="0.18868"><ele>52.0</ele><time>2026-05-02T08:43:43.405Z</time></trkpt><trkpt lat="52.0594283" lon="0.1884333"><ele>50.0</ele><time>2026-05-02T08:43:44.405Z</time></trkpt><trkpt lat="52.0596917" lon="0.1881733"><ele>50.0</ele><time>2026-05-02T08:43:45.406Z</time></trkpt><trkpt lat="52.0599483" lon="0.1879017"><ele>50.0</ele><time>2026-05-02T08:43:46.405Z</time></trkpt><trkpt lat="52.0602017" lon="0.18762"><ele>48.5</ele><time>2026-05-02T08:43:47.405Z</time></trkpt><trkpt lat="52.0604467" lon="0.1873333"><ele>47.0</ele><time>2026-05-02T08:43:48.406Z</time></trkpt><trkpt lat="52.060685" lon="0.1870383"><ele>47.0</ele><time>2026-05-02T08:43:49.406Z</time></trkpt><trkpt lat="52.0609183" lon="0.186725"><ele>47.0</ele><time>2026-05-02T08:43:50.406Z</time></trkpt><trkpt lat="52.061145" lon="0.1864033"><ele>47.0</ele><time>2026-05-02T08:43:51.405Z</time></trkpt><trkpt lat="52.0613667" lon="0.1860717"><ele>47.0</ele><time>2026-05-02T08:43:52.405Z</time></trkpt><trkpt lat="52.0615833" lon="0.1857367"><ele>47.0</ele><time>2026-05-02T08:43:53.401Z</time></trkpt><trkpt lat="52.0617983" lon="0.18539"><ele>47.0</ele><time>2026-05-02T08:43:54.405Z</time></trkpt><trkpt lat="52.0620033" lon="0.1850383"><ele>47.0</ele><time>2026-05-02T08:43:55.408Z</time></trkpt><trkpt lat="52.0622033" lon="0.1846783"><ele>47.0</ele><time>2026-05-02T08:43:56.405Z</time></trkpt><trkpt lat="52.0624017" lon="0.184305"><ele>47.0</ele><time>2026-05-02T08:43:57.405Z</time></trkpt><trkpt lat="52.062595" lon="0.1839183"><ele>47.0</ele><time>2026-05-02T08:43:58.406Z</time></trkpt><trkpt lat="52.062785" lon="0.1835167"><ele>46.5</ele><time>2026-05-02T08:43:59.405Z</time></trkpt><trkpt lat="52.0629667" lon="0.1831017"><ele>46.0</ele><time>2026-05-02T08:44:00.406Z</time></trkpt><trkpt lat="52.063145" lon="0.1826767"><ele>46.5</ele><time>2026-05-02T08:44:01.405Z</time></trkpt><trkpt lat="52.063315" lon="0.1822517"><ele>47.0</ele><time>2026-05-02T08:44:02.402Z</time></trkpt><trkpt lat="52.06347" lon="0.181825"><ele>47.5</ele><time>2026-05-02T08:44:03.407Z</time></trkpt><trkpt lat="52.0636167" lon="0.1813933"><ele>48.0</ele><time>2026-05-02T08:44:04.406Z</time></trkpt><trkpt lat="52.0637583" lon="0.1809533"><ele>49.5</ele><time>2026-05-02T08:44:05.406Z</time></trkpt><trkpt lat="52.063895" lon="0.180505"><ele>51.0</ele><time>2026-05-02T08:44:06.406Z</time></trkpt><trkpt lat="52.0640283" lon="0.1800417"><ele>50.5</ele><time>2026-05-02T08:44:07.406Z</time></trkpt><trkpt lat="52.0641533" lon="0.17957"><ele>50.0</ele><time>2026-05-02T08:44:08.405Z</time></trkpt><trkpt lat="52.06427" lon="0.17909"><ele>51.5</ele><time>2026-05-02T08:44:09.405Z</time></trkpt><trkpt lat="52.06438" lon="0.178615"><ele>53.0</ele><time>2026-05-02T08:44:10.402Z</time></trkpt><trkpt lat="52.0644817" lon="0.1781483"><ele>53.5</ele><time>2026-05-02T08:44:11.402Z</time></trkpt><trkpt lat="52.0645683" lon="0.1776867"><ele>54.0</ele><time>2026-05-02T08:44:12.407Z</time></trkpt><trkpt lat="52.06465" lon="0.1772233"><ele>55.0</ele><time>2026-05-02T08:44:13.404Z</time></trkpt><trkpt lat="52.0647333" lon="0.1767567"><ele>56.0</ele><time>2026-05-02T08:44:14.403Z</time></trkpt><trkpt lat="52.0648167" lon="0.17629"><ele>57.0</ele><time>2026-05-02T08:44:15.403Z</time></trkpt><trkpt lat="52.0649" lon="0.17582"><ele>58.0</ele><time>2026-05-02T08:44:16.405Z</time></trkpt><trkpt lat="52.0649867" lon="0.1753467"><ele>54.0</ele><time>2026-05-02T08:44:17.404Z</time></trkpt><trkpt lat="52.0650783" lon="0.1748733"><ele>50.0</ele><time>2026-05-02T08:44:18.403Z</time></trkpt><trkpt lat="52.0651783" lon="0.1743967"><ele>46.5</ele><time>2026-05-02T08:44:19.407Z</time></trkpt><trkpt lat="52.0652883" lon="0.17392"><ele>43.0</ele><time>2026-05-02T08:44:20.403Z</time></trkpt><trkpt lat="52.0654133" lon="0.1734483"><ele>42.0</ele><time>2026-05-02T08:44:21.406Z</time></trkpt><trkpt lat="52.0655467" lon="0.1729733"><ele>41.0</ele><time>2026-05-02T08:44:22.405Z</time></trkpt><trkpt lat="52.0656867" lon="0.1725017"><ele>40.5</ele><time>2026-05-02T08:44:23.405Z</time></trkpt><trkpt lat="52.0658367" lon="0.17203"><ele>40.0</ele><time>2026-05-02T08:44:24.406Z</time></trkpt><trkpt lat="52.0659983" lon="0.1715617"><ele>40.0</ele><time>2026-05-02T08:44:25.405Z</time></trkpt><trkpt lat="52.0661683" lon="0.171095"><ele>40.0</ele><time>2026-05-02T08:44:26.405Z</time></trkpt><trkpt lat="52.066345" lon="0.1706383"><ele>41.0</ele><time>2026-05-02T08:44:27.405Z</time></trkpt><trkpt lat="52.0665333" lon="0.17018"><ele>42.0</ele><time>2026-05-02T08:44:28.405Z</time></trkpt><trkpt lat="52.0667317" lon="0.1697267"><ele>42.0</ele><time>2026-05-02T08:44:29.403Z</time></trkpt><trkpt lat="52.06694" lon="0.1692833"><ele>42.0</ele><time>2026-05-02T08:44:30.402Z</time></trkpt><trkpt lat="52.06716" lon="0.1688433"><ele>42.0</ele><time>2026-05-02T08:44:31.405Z</time></trkpt><trkpt lat="52.067395" lon="0.1684083"><ele>42.0</ele><time>2026-05-02T08:44:32.406Z</time></trkpt><trkpt lat="52.0676367" lon="0.167985"><ele>42.0</ele><time>2026-05-02T08:44:33.406Z</time></trkpt><trkpt lat="52.0678783" lon="0.16757"><ele>42.0</ele><time>2026-05-02T08:44:34.405Z</time></trkpt><trkpt lat="52.0681233" lon="0.1671683"><ele>41.0</ele><time>2026-05-02T08:44:35.401Z</time></trkpt><trkpt lat="52.0683783" lon="0.1667867"><ele>40.0</ele><time>2026-05-02T08:44:36.402Z</time></trkpt><trkpt lat="52.06864" lon="0.1664267"><ele>39.5</ele><time>2026-05-02T08:44:37.402Z</time></trkpt><trkpt lat="52.06891" lon="0.1660767"><ele>39.0</ele><time>2026-05-02T08:44:38.403Z</time></trkpt><trkpt lat="52.06919" lon="0.1657433"><ele>39.0</ele><time>2026-05-02T08:44:39.403Z</time></trkpt><trkpt lat="52.069475" lon="0.16542"><ele>39.0</ele><time>2026-05-02T08:44:40.402Z</time></trkpt><trkpt lat="52.0697667" lon="0.1651133"><ele>40.5</ele><time>2026-05-02T08:44:41.405Z</time></trkpt><trkpt lat="52.0700667" lon="0.16482"><ele>42.0</ele><time>2026-05-02T08:44:42.403Z</time></trkpt><trkpt lat="52.07037" lon="0.1645433"><ele>42.0</ele><time>2026-05-02T08:44:43.403Z</time></trkpt><trkpt lat="52.07068" lon="0.16428"><ele>42.0</ele><time>2026-05-02T08:44:44.402Z</time></trkpt><trkpt lat="52.0709917" lon="0.1640267"><ele>43.5</ele><time>2026-05-02T08:44:45.402Z</time></trkpt><trkpt lat="52.0713017" lon="0.1637733"><ele>45.0</ele><time>2026-05-02T08:44:46.403Z</time></trkpt><trkpt lat="52.07161" lon="0.1635133"><ele>45.5</ele><time>2026-05-02T08:44:47.402Z</time></trkpt><trkpt lat="52.0719183" lon="0.1632483"><ele>46.0</ele><time>2026-05-02T08:44:48.403Z</time></trkpt><trkpt lat="52.0722283" lon="0.1629883"><ele>48.5</ele><time>2026-05-02T08:44:49.403Z</time></trkpt><trkpt lat="52.0725383" lon="0.1627267"><ele>51.0</ele><time>2026-05-02T08:44:50.402Z</time></trkpt><trkpt lat="52.0728517" lon="0.16247"><ele>52.0</ele><time>2026-05-02T08:44:51.402Z</time></trkpt><trkpt lat="52.0731683" lon="0.162215"><ele>53.0</ele><time>2026-05-02T08:44:52.407Z</time></trkpt><trkpt lat="52.073475" lon="0.161965"><ele>53.0</ele><time>2026-05-02T08:44:53.406Z</time></trkpt><trkpt lat="52.07377" lon="0.161725"><ele>53.0</ele><time>2026-05-02T08:44:54.403Z</time></trkpt><trkpt lat="52.0740583" lon="0.161495"><ele>53.5</ele><time>2026-05-02T08:44:55.404Z</time></trkpt><trkpt lat="52.0743383" lon="0.1612767"><ele>54.0</ele><time>2026-05-02T08:44:56.402Z</time></trkpt><trkpt lat="52.0746183" lon="0.1610617"><ele>54.0</ele><time>2026-05-02T08:44:57.402Z</time></trkpt><trkpt lat="52.07489" lon="0.16085"><ele>54.0</ele><time>2026-05-02T08:44:58.406Z</time></trkpt><trkpt lat="52.0751533" lon="0.1606417"><ele>53.0</ele><time>2026-05-02T08:44:59.406Z</time></trkpt><trkpt lat="52.075415" lon="0.16044"><ele>52.0</ele><time>2026-05-02T08:45:00.401Z</time></trkpt><trkpt lat="52.075675" lon="0.1602383"><ele>50.0</ele><time>2026-05-02T08:45:01.406Z</time></trkpt><trkpt lat="52.075935" lon="0.1600433"><ele>48.0</ele><time>2026-05-02T08:45:02.405Z</time></trkpt><trkpt lat="52.07619" lon="0.1598517"><ele>48.0</ele><time>2026-05-02T08:45:03.404Z</time></trkpt><trkpt lat="52.0764433" lon="0.1596533"><ele>48.0</ele><time>2026-05-02T08:45:04.406Z</time></trkpt><trkpt lat="52.0767017" lon="0.1594483"><ele>48.0</ele><time>2026-05-02T08:45:05.409Z</time></trkpt><trkpt lat="52.0769567" lon="0.15924"><ele>48.0</ele><time>2026-05-02T08:45:06.402Z</time></trkpt><trkpt lat="52.0772133" lon="0.15903"><ele>47.5</ele><time>2026-05-02T08:45:07.403Z</time></trkpt><trkpt lat="52.077475" lon="0.1588133"><ele>47.0</ele><time>2026-05-02T08:45:08.406Z</time></trkpt><trkpt lat="52.0777417" lon="0.1585967"><ele>47.0</ele><time>2026-05-02T08:45:09.406Z</time></trkpt><trkpt lat="52.0780167" lon="0.1583667"><ele>47.0</ele><time>2026-05-02T08:45:10.405Z</time></trkpt><trkpt lat="52.078295" lon="0.158135"><ele>47.0</ele><time>2026-05-02T08:45:11.406Z</time></trkpt><trkpt lat="52.0785767" lon="0.1578983"><ele>47.0</ele><time>2026-05-02T08:45:12.406Z</time></trkpt><trkpt lat="52.078865" lon="0.15765"><ele>47.5</ele><time>2026-05-02T08:45:13.405Z</time></trkpt><trkpt lat="52.0791567" lon="0.1573917"><ele>48.0</ele><time>2026-05-02T08:45:14.405Z</time></trkpt><trkpt lat="52.0794567" lon="0.15713"><ele>48.0</ele><time>2026-05-02T08:45:15.406Z</time></trkpt><trkpt lat="52.0797583" lon="0.15686"><ele>48.0</ele><time>2026-05-02T08:45:16.405Z</time></trkpt><trkpt lat="52.0800617" lon="0.156585"><ele>52.0</ele><time>2026-05-02T08:45:17.402Z</time></trkpt><trkpt lat="52.08037" lon="0.1563067"><ele>56.0</ele><time>2026-05-02T08:45:18.406Z</time></trkpt><trkpt lat="52.0809867" lon="0.1557383"><ele>55.5</ele><time>2026-05-02T08:45:20.406Z</time></trkpt><trkpt lat="52.081295" lon="0.155445"><ele>55.0</ele><time>2026-05-02T08:45:21.402Z</time></trkpt><trkpt lat="52.081605" lon="0.1551567"><ele>56.5</ele><time>2026-05-02T08:45:22.404Z</time></trkpt><trkpt lat="52.08192" lon="0.154865"><ele>58.0</ele><time>2026-05-02T08:45:23.405Z</time></trkpt><trkpt lat="52.0822367" lon="0.1545733"><ele>57.5</ele><time>2026-05-02T08:45:24.408Z</time></trkpt><trkpt lat="52.0825567" lon="0.1542717"><ele>57.0</ele><time>2026-05-02T08:45:25.405Z</time></trkpt><trkpt lat="52.0828767" lon="0.1539617"><ele>57.0</ele><time>2026-05-02T08:45:26.406Z</time></trkpt><trkpt lat="52.083195" lon="0.1536483"><ele>57.0</ele><time>2026-05-02T08:45:27.403Z</time></trkpt><trkpt lat="52.0835167" lon="0.15333"><ele>57.5</ele><time>2026-05-02T08:45:28.406Z</time></trkpt><trkpt lat="52.083835" lon="0.153015"><ele>58.0</ele><time>2026-05-02T08:45:29.406Z</time></trkpt><trkpt lat="52.0841517" lon="0.1526967"><ele>60.0</ele><time>2026-05-02T08:45:30.405Z</time></trkpt><trkpt lat="52.08447" lon="0.15237"><ele>62.0</ele><time>2026-05-02T08:45:31.406Z</time></trkpt><trkpt lat="52.084785" lon="0.152045"><ele>61.5</ele><time>2026-05-02T08:45:32.406Z</time></trkpt><trkpt lat="52.0850967" lon="0.151715"><ele>61.0</ele><time>2026-05-02T08:45:33.406Z</time></trkpt><trkpt lat="52.0854067" lon="0.151385"><ele>61.0</ele><time>2026-05-02T08:45:34.405Z</time></trkpt><trkpt lat="52.08572" lon="0.1510517"><ele>61.0</ele><time>2026-05-02T08:45:35.409Z</time></trkpt><trkpt lat="52.086035" lon="0.1507133"><ele>61.0</ele><time>2026-05-02T08:45:36.405Z</time></trkpt><trkpt lat="52.086345" lon="0.15037"><ele>61.0</ele><time>2026-05-02T08:45:37.403Z</time></trkpt><trkpt lat="52.0866567" lon="0.1500133"><ele>58.0</ele><time>2026-05-02T08:45:38.403Z</time></trkpt><trkpt lat="52.0869683" lon="0.1496483"><ele>55.0</ele><time>2026-05-02T08:45:39.405Z</time></trkpt><trkpt lat="52.0872783" lon="0.149285"><ele>53.0</ele><time>2026-05-02T08:45:40.405Z</time></trkpt><trkpt lat="52.0875867" lon="0.1489183"><ele>51.0</ele><time>2026-05-02T08:45:41.405Z</time></trkpt><trkpt lat="52.0878917" lon="0.1485467"><ele>50.5</ele><time>2026-05-02T08:45:42.402Z</time></trkpt><trkpt lat="52.0881917" lon="0.1481733"><ele>50.0</ele><time>2026-05-02T08:45:43.402Z</time></trkpt><trkpt lat="52.088485" lon="0.1478"><ele>48.0</ele><time>2026-05-02T08:45:44.403Z</time></trkpt><trkpt lat="52.0887767" lon="0.1474233"><ele>46.0</ele><time>2026-05-02T08:45:45.402Z</time></trkpt><trkpt lat="52.0890633" lon="0.14706"><ele>43.5</ele><time>2026-05-02T08:45:46.403Z</time></trkpt><trkpt lat="52.0893317" lon="0.1467083"><ele>41.0</ele><time>2026-05-02T08:45:47.402Z</time></trkpt><trkpt lat="52.0895983" lon="0.1463667"><ele>40.5</ele><time>2026-05-02T08:45:48.402Z</time></trkpt><trkpt lat="52.0898667" lon="0.14604"><ele>40.0</ele><time>2026-05-02T08:45:49.401Z</time></trkpt><trkpt lat="52.0901417" lon="0.1457183"><ele>39.5</ele><time>2026-05-02T08:45:50.404Z</time></trkpt><trkpt lat="52.090415" lon="0.1454033"><ele>39.0</ele><time>2026-05-02T08:45:51.403Z</time></trkpt><trkpt lat="52.0906917" lon="0.1451017"><ele>38.5</ele><time>2026-05-02T08:45:52.403Z</time></trkpt><trkpt lat="52.0909733" lon="0.1448083"><ele>38.0</ele><time>2026-05-02T08:45:53.403Z</time></trkpt><trkpt lat="52.0912567" lon="0.1445283"><ele>38.0</ele><time>2026-05-02T08:45:54.402Z</time></trkpt><trkpt lat="52.09154" lon="0.14426"><ele>38.0</ele><time>2026-05-02T08:45:55.403Z</time></trkpt><trkpt lat="52.0918217" lon="0.143995"><ele>37.5</ele><time>2026-05-02T08:45:56.403Z</time></trkpt><trkpt lat="52.0920983" lon="0.1437383"><ele>37.0</ele><time>2026-05-02T08:45:57.403Z</time></trkpt><trkpt lat="52.0923733" lon="0.1434917"><ele>36.5</ele><time>2026-05-02T08:45:58.402Z</time></trkpt><trkpt lat="52.0926433" lon="0.1432517"><ele>36.0</ele><time>2026-05-02T08:45:59.406Z</time></trkpt><trkpt lat="52.0929133" lon="0.1430117"><ele>36.0</ele><time>2026-05-02T08:46:00.406Z</time></trkpt><trkpt lat="52.0931867" lon="0.1427717"><ele>36.0</ele><time>2026-05-02T08:46:01.406Z</time></trkpt><trkpt lat="52.0934583" lon="0.1425333"><ele>35.0</ele><time>2026-05-02T08:46:02.414Z</time></trkpt><trkpt lat="52.0937233" lon="0.1422967"><ele>34.0</ele><time>2026-05-02T08:46:03.406Z</time></trkpt><trkpt lat="52.0939917" lon="0.1420583"><ele>33.0</ele><time>2026-05-02T08:46:04.405Z</time></trkpt><trkpt lat="52.09426" lon="0.141815"><ele>32.0</ele><time>2026-05-02T08:46:05.405Z</time></trkpt><trkpt lat="52.0945317" lon="0.1415717"><ele>32.0</ele><time>2026-05-02T08:46:06.405Z</time></trkpt><trkpt lat="52.0948033" lon="0.1413267"><ele>32.0</ele><time>2026-05-02T08:46:07.403Z</time></trkpt><trkpt lat="52.0950717" lon="0.1410883"><ele>32.0</ele><time>2026-05-02T08:46:08.404Z</time></trkpt><trkpt lat="52.0953367" lon="0.1408517"><ele>32.0</ele><time>2026-05-02T08:46:09.403Z</time></trkpt><trkpt lat="52.0956" lon="0.1406167"><ele>32.0</ele><time>2026-05-02T08:46:10.407Z</time></trkpt><trkpt lat="52.0958633" lon="0.140385"><ele>32.0</ele><time>2026-05-02T08:46:11.405Z</time></trkpt><trkpt lat="52.0961233" lon="0.1401583"><ele>32.0</ele><time>2026-05-02T08:46:12.405Z</time></trkpt><trkpt lat="52.096385" lon="0.1399283"><ele>32.0</ele><time>2026-05-02T08:46:13.407Z</time></trkpt><trkpt lat="52.0966483" lon="0.139695"><ele>31.5</ele><time>2026-05-02T08:46:14.409Z</time></trkpt><trkpt lat="52.09691" lon="0.1394617"><ele>31.0</ele><time>2026-05-02T08:46:15.407Z</time></trkpt><trkpt lat="52.0971733" lon="0.1392267"><ele>32.0</ele><time>2026-05-02T08:46:16.406Z</time></trkpt><trkpt lat="52.0974333" lon="0.138995"><ele>33.0</ele><time>2026-05-02T08:46:17.406Z</time></trkpt><trkpt lat="52.0976933" lon="0.1387617"><ele>33.0</ele><time>2026-05-02T08:46:18.402Z</time></trkpt><trkpt lat="52.0979533" lon="0.138525"><ele>33.0</ele><time>2026-05-02T08:46:19.405Z</time></trkpt><trkpt lat="52.0982183" lon="0.1382833"><ele>34.5</ele><time>2026-05-02T08:46:20.403Z</time></trkpt><trkpt lat="52.098485" lon="0.1380467"><ele>36.0</ele><time>2026-05-02T08:46:21.405Z</time></trkpt><trkpt lat="52.09875" lon="0.1378133"><ele>36.0</ele><time>2026-05-02T08:46:22.405Z</time></trkpt><trkpt lat="52.0990133" lon="0.137585"><ele>36.0</ele><time>2026-05-02T08:46:23.402Z</time></trkpt><trkpt lat="52.099275" lon="0.137345"><ele>33.0</ele><time>2026-05-02T08:46:24.402Z</time></trkpt><trkpt lat="52.0995383" lon="0.1371033"><ele>33.0</ele><time>2026-05-02T08:46:25.406Z</time></trkpt></trkseg><trkseg><trkpt lat="52.1317517" lon="0.1161883"><ele>18.0</ele><time>2026-05-02T08:48:21.405Z</time></trkpt><trkpt lat="52.132025" lon="0.1159567"><ele>18.0</ele><time>2026-05-02T08:48:22.403Z</time></trkpt><trkpt lat="52.1322983" lon="0.1157217"><ele>18.0</ele><time>2026-05-02T08:48:23.402Z</time></trkpt><trkpt lat="52.1325717" lon="0.115505"><ele>18.0</ele><time>2026-05-02T08:48:24.403Z</time></trkpt><trkpt lat="52.1328383" lon="0.11528"><ele>18.0</ele><time>2026-05-02T08:48:25.403Z</time></trkpt><trkpt lat="52.1331083" lon="0.1150583"><ele>18.0</ele><time>2026-05-02T08:48:26.402Z</time></trkpt><trkpt lat="52.1333767" lon="0.114835"><ele>18.5</ele><time>2026-05-02T08:48:27.402Z</time></trkpt><trkpt lat="52.133645" lon="0.1146083"><ele>19.0</ele><time>2026-05-02T08:48:28.402Z</time></trkpt><trkpt lat="52.1339133" lon="0.11438"><ele>18.5</ele><time>2026-05-02T08:48:29.402Z</time></trkpt><trkpt lat="52.134185" lon="0.114145"><ele>18.0</ele><time>2026-05-02T08:48:30.402Z</time></trkpt><trkpt lat="52.1347267" lon="0.113715"><ele>17.5</ele><time>2026-05-02T08:48:32.425Z</time></trkpt><trkpt lat="52.1351067" lon="0.113365"><ele>17.0</ele><time>2026-05-02T08:48:33.904Z</time></trkpt><trkpt lat="52.1403317" lon="0.1103083"><ele>16.0</ele><time>2026-05-02T08:48:52.403Z</time></trkpt><trkpt lat="52.1482767" lon="0.11035"><ele>16.0</ele><time>2026-05-02T08:49:19.166Z</time></trkpt><trkpt lat="52.1489883" lon="0.11046"><ele>15.5</ele><time>2026-05-02T08:49:21.405Z</time></trkpt><trkpt lat="52.1493033" lon="0.110485"><ele>15.0</ele><time>2026-05-02T08:49:22.403Z</time></trkpt><trkpt lat="52.1496233" lon="0.110485"><ele>14.5</ele><time>2026-05-02T08:49:23.403Z</time></trkpt><trkpt lat="52.149945" lon="0.110475"><ele>14.0</ele><time>2026-05-02T08:49:24.403Z</time></trkpt><trkpt lat="52.1502567" lon="0.1104683"><ele>14.0</ele><time>2026-05-02T08:49:25.403Z</time></trkpt><trkpt lat="52.1505683" lon="0.1104517"><ele>14.0</ele><time>2026-05-02T08:49:26.403Z</time></trkpt><trkpt lat="52.1508733" lon="0.11043"><ele>14.5</ele><time>2026-05-02T08:49:27.406Z</time></trkpt><trkpt lat="52.1511833" lon="0.1104017"><ele>15.0</ele><time>2026-05-02T08:49:28.404Z</time></trkpt><trkpt lat="52.1514933" lon="0.110355"><ele>15.0</ele><time>2026-05-02T08:49:29.404Z</time></trkpt><trkpt lat="52.1518017" lon="0.1102967"><ele>15.0</ele><time>2026-05-02T08:49:30.404Z</time></trkpt><trkpt lat="52.15211" lon="0.1102233"><ele>15.0</ele><time>2026-05-02T08:49:31.404Z</time></trkpt><trkpt lat="52.1524167" lon="0.110145"><ele>15.0</ele><time>2026-05-02T08:49:32.403Z</time></trkpt><trkpt lat="52.1527233" lon="0.1100533"><ele>15.0</ele><time>2026-05-02T08:49:33.404Z</time></trkpt><trkpt lat="52.1530317" lon="0.10995"><ele>15.0</ele><time>2026-05-02T08:49:34.404Z</time></trkpt><trkpt lat="52.1533367" lon="0.109835"><ele>15.5</ele><time>2026-05-02T08:49:35.404Z</time></trkpt><trkpt lat="52.1536367" lon="0.1097133"><ele>16.0</ele><time>2026-05-02T08:49:36.406Z</time></trkpt><trkpt lat="52.153935" lon="0.1095783"><ele>16.5</ele><time>2026-05-02T08:49:37.403Z</time></trkpt><trkpt lat="52.1542317" lon="0.1094283"><ele>17.0</ele><time>2026-05-02T08:49:38.403Z</time></trkpt><trkpt lat="52.1545267" lon="0.1092683"><ele>17.0</ele><time>2026-05-02T08:49:39.403Z</time></trkpt><trkpt lat="52.1548183" lon="0.1090983"><ele>17.0</ele><time>2026-05-02T08:49:40.403Z</time></trkpt><trkpt lat="52.15511" lon="0.1089167"><ele>16.5</ele><time>2026-05-02T08:49:41.404Z</time></trkpt><trkpt lat="52.1554" lon="0.108725"><ele>16.0</ele><time>2026-05-02T08:49:42.404Z</time></trkpt><trkpt lat="52.1556867" lon="0.1085333"><ele>15.5</ele><time>2026-05-02T08:49:43.404Z</time></trkpt><trkpt lat="52.1559717" lon="0.1083267"><ele>15.0</ele><time>2026-05-02T08:49:44.405Z</time></trkpt><trkpt lat="52.156255" lon="0.108115"><ele>14.5</ele><time>2026-05-02T08:49:45.404Z</time></trkpt><trkpt lat="52.1565317" lon="0.1078917"><ele>14.0</ele><time>2026-05-02T08:49:46.404Z</time></trkpt><trkpt lat="52.1568067" lon="0.1076533"><ele>15.5</ele><time>2026-05-02T08:49:47.404Z</time></trkpt><trkpt lat="52.15708" lon="0.1074033"><ele>17.0</ele><time>2026-05-02T08:49:48.404Z</time></trkpt><trkpt lat="52.15735" lon="0.1071467"><ele>16.5</ele><time>2026-05-02T08:49:49.405Z</time></trkpt><trkpt lat="52.1576167" lon="0.106885"><ele>16.0</ele><time>2026-05-02T08:49:50.404Z</time></trkpt><trkpt lat="52.15788" lon="0.1066167"><ele>17.0</ele><time>2026-05-02T08:49:51.403Z</time></trkpt><trkpt lat="52.15814" lon="0.1063367"><ele>18.0</ele><time>2026-05-02T08:49:52.405Z</time></trkpt><trkpt lat="52.158395" lon="0.1060433"><ele>19.0</ele><time>2026-05-02T08:49:53.404Z</time></trkpt><trkpt lat="52.1586467" lon="0.10574"><ele>20.0</ele><time>2026-05-02T08:49:54.405Z</time></trkpt><trkpt lat="52.158895" lon="0.1054217"><ele>19.0</ele><time>2026-05-02T08:49:55.403Z</time></trkpt><trkpt lat="52.1591417" lon="0.105105"><ele>18.0</ele><time>2026-05-02T08:49:56.403Z</time></trkpt><trkpt lat="52.1593833" lon="0.10478"><ele>18.0</ele><time>2026-05-02T08:49:57.403Z</time></trkpt><trkpt lat="52.1596217" lon="0.1044483"><ele>18.0</ele><time>2026-05-02T08:49:58.405Z</time></trkpt><trkpt lat="52.1598417" lon="0.1041217"><ele>18.5</ele><time>2026-05-02T08:49:59.403Z</time></trkpt><trkpt lat="52.1600467" lon="0.103805"><ele>19.0</ele><time>2026-05-02T08:50:00.405Z</time></trkpt><trkpt lat="52.1602317" lon="0.1035033"><ele>19.0</ele><time>2026-05-02T08:50:01.404Z</time></trkpt><trkpt lat="52.1604083" lon="0.1032167"><ele>19.0</ele><time>2026-05-02T08:50:02.403Z</time></trkpt><trkpt lat="52.1605717" lon="0.1029367"><ele>18.5</ele><time>2026-05-02T08:50:03.404Z</time></trkpt><trkpt lat="52.16073" lon="0.1026583"><ele>18.0</ele><time>2026-05-02T08:50:04.403Z</time></trkpt><trkpt lat="52.16088" lon="0.1023833"><ele>17.5</ele><time>2026-05-02T08:50:05.406Z</time></trkpt><trkpt lat="52.1610333" lon="0.1021"><ele>17.0</ele><time>2026-05-02T08:50:06.404Z</time></trkpt><trkpt lat="52.1611983" lon="0.1017983"><ele>18.0</ele><time>2026-05-02T08:50:07.403Z</time></trkpt><trkpt lat="52.1613717" lon="0.1014867"><ele>19.0</ele><time>2026-05-02T08:50:08.403Z</time></trkpt><trkpt lat="52.16155" lon="0.1011667"><ele>17.5</ele><time>2026-05-02T08:50:09.403Z</time></trkpt><trkpt lat="52.1617283" lon="0.1008433"><ele>16.0</ele><time>2026-05-02T08:50:10.405Z</time></trkpt><trkpt lat="52.16191" lon="0.1005117"><ele>16.0</ele><time>2026-05-02T08:50:11.405Z</time></trkpt><trkpt lat="52.162095" lon="0.1001767"><ele>16.0</ele><time>2026-05-02T08:50:12.405Z</time></trkpt><trkpt lat="52.1622817" lon="0.0998367"><ele>15.5</ele><time>2026-05-02T08:50:13.405Z</time></trkpt><trkpt lat="52.1624733" lon="0.09949"><ele>15.0</ele><time>2026-05-02T08:50:14.405Z</time></trkpt><trkpt lat="52.16266" lon="0.0991533"><ele>14.5</ele><time>2026-05-02T08:50:15.403Z</time></trkpt><trkpt lat="52.1628367" lon="0.0988317"><ele>14.0</ele><time>2026-05-02T08:50:16.404Z</time></trkpt><trkpt lat="52.1630117" lon="0.0985183"><ele>14.0</ele><time>2026-05-02T08:50:17.403Z</time></trkpt><trkpt lat="52.163185" lon="0.0982067"><ele>14.0</ele><time>2026-05-02T08:50:18.404Z</time></trkpt><trkpt lat="52.163355" lon="0.0978983"><ele>14.0</ele><time>2026-05-02T08:50:19.406Z</time></trkpt><trkpt lat="52.16352" lon="0.0975967"><ele>14.0</ele><time>2026-05-02T08:50:20.406Z</time></trkpt><trkpt lat="52.1636883" lon="0.097295"><ele>14.0</ele><time>2026-05-02T08:50:21.404Z</time></trkpt><trkpt lat="52.16386" lon="0.096995"><ele>14.0</ele><time>2026-05-02T08:50:22.404Z</time></trkpt><trkpt lat="52.1640333" lon="0.0966883"><ele>14.5</ele><time>2026-05-02T08:50:23.403Z</time></trkpt><trkpt lat="52.1642133" lon="0.09637"><ele>15.0</ele><time>2026-05-02T08:50:24.404Z</time></trkpt><trkpt lat="52.1643967" lon="0.096055"><ele>14.5</ele><time>2026-05-02T08:50:25.405Z</time></trkpt><trkpt lat="52.1645767" lon="0.095735"><ele>14.0</ele><time>2026-05-02T08:50:26.406Z</time></trkpt><trkpt lat="52.1647567" lon="0.0954283"><ele>14.0</ele><time>2026-05-02T08:50:27.405Z</time></trkpt><trkpt lat="52.164935" lon="0.0951217"><ele>14.0</ele><time>2026-05-02T08:50:28.405Z</time></trkpt><trkpt lat="52.1651133" lon="0.0948233"><ele>14.0</ele><time>2026-05-02T08:50:29.406Z</time></trkpt><trkpt lat="52.1652967" lon="0.0945233"><ele>14.0</ele><time>2026-05-02T08:50:30.406Z</time></trkpt><trkpt lat="52.1654783" lon="0.0942333"><ele>13.5</ele><time>2026-05-02T08:50:31.406Z</time></trkpt><trkpt lat="52.1656533" lon="0.0939533"><ele>13.0</ele><time>2026-05-02T08:50:32.406Z</time></trkpt><trkpt lat="52.1658233" lon="0.0936817"><ele>13.0</ele><time>2026-05-02T08:50:33.405Z</time></trkpt><trkpt lat="52.16599" lon="0.0934133"><ele>13.0</ele><time>2026-05-02T08:50:34.406Z</time></trkpt><trkpt lat="52.1661617" lon="0.093145"><ele>12.5</ele><time>2026-05-02T08:50:35.405Z</time></trkpt><trkpt lat="52.1663383" lon="0.0928733"><ele>12.0</ele><time>2026-05-02T08:50:36.405Z</time></trkpt><trkpt lat="52.1665183" lon="0.0926033"><ele>12.0</ele><time>2026-05-02T08:50:37.408Z</time></trkpt><trkpt lat="52.1666967" lon="0.0923267"><ele>12.0</ele><time>2026-05-02T08:50:38.406Z</time></trkpt><trkpt lat="52.1668783" lon="0.0920533"><ele>12.0</ele><time>2026-05-02T08:50:39.406Z</time></trkpt><trkpt lat="52.167065" lon="0.09177"><ele>12.0</ele><time>2026-05-02T08:50:40.406Z</time></trkpt><trkpt lat="52.1672533" lon="0.0914917"><ele>12.0</ele><time>2026-05-02T08:50:41.402Z</time></trkpt><trkpt lat="52.16744" lon="0.0912217"><ele>12.0</ele><time>2026-05-02T08:50:42.408Z</time></trkpt><trkpt lat="52.1676317" lon="0.09094"><ele>12.5</ele><time>2026-05-02T08:50:43.406Z</time></trkpt><trkpt lat="52.1678267" lon="0.0906617"><ele>13.0</ele><time>2026-05-02T08:50:44.402Z</time></trkpt><trkpt lat="52.168025" lon="0.090375"><ele>12.5</ele><time>2026-05-02T08:50:45.406Z</time></trkpt><trkpt lat="52.1682233" lon="0.09009"><ele>12.0</ele><time>2026-05-02T08:50:46.404Z</time></trkpt><trkpt lat="52.168435" lon="0.089805"><ele>12.0</ele><time>2026-05-02T08:50:47.404Z</time></trkpt><trkpt lat="52.16865" lon="0.0895183"><ele>12.0</ele><time>2026-05-02T08:50:48.403Z</time></trkpt><trkpt lat="52.168875" lon="0.0892167"><ele>12.5</ele><time>2026-05-02T08:50:49.404Z</time></trkpt><trkpt lat="52.1691067" lon="0.0889133"><ele>13.0</ele><time>2026-05-02T08:50:50.406Z</time></trkpt><trkpt lat="52.169345" lon="0.088605"><ele>13.0</ele><time>2026-05-02T08:50:51.406Z</time></trkpt><trkpt lat="52.1695867" lon="0.0883033"><ele>13.0</ele><time>2026-05-02T08:50:52.407Z</time></trkpt><trkpt lat="52.16983" lon="0.088"><ele>13.0</ele><time>2026-05-02T08:50:53.405Z</time></trkpt><trkpt lat="52.1700733" lon="0.0877033"><ele>13.0</ele><time>2026-05-02T08:50:54.406Z</time></trkpt><trkpt lat="52.170315" lon="0.0874067"><ele>13.0</ele><time>2026-05-02T08:50:55.405Z</time></trkpt><trkpt lat="52.1705567" lon="0.0871133"><ele>13.0</ele><time>2026-05-02T08:50:56.405Z</time></trkpt><trkpt lat="52.1707967" lon="0.0868267"><ele>13.0</ele><time>2026-05-02T08:50:57.406Z</time></trkpt><trkpt lat="52.1710383" lon="0.08654"><ele>13.0</ele><time>2026-05-02T08:50:58.406Z</time></trkpt><trkpt lat="52.1712817" lon="0.0862533"><ele>14.0</ele><time>2026-05-02T08:50:59.405Z</time></trkpt><trkpt lat="52.171525" lon="0.0859717"><ele>15.0</ele><time>2026-05-02T08:51:00.405Z</time></trkpt><trkpt lat="52.17177" lon="0.0856867"><ele>15.0</ele><time>2026-05-02T08:51:01.407Z</time></trkpt><trkpt lat="52.1720183" lon="0.0854067"><ele>15.0</ele><time>2026-05-02T08:51:02.407Z</time></trkpt><trkpt lat="52.1722717" lon="0.0851267"><ele>14.5</ele><time>2026-05-02T08:51:03.404Z</time></trkpt><trkpt lat="52.172525" lon="0.0848567"><ele>14.0</ele><time>2026-05-02T08:51:04.403Z</time></trkpt><trkpt lat="52.172785" lon="0.0845833"><ele>14.0</ele><time>2026-05-02T08:51:05.403Z</time></trkpt><trkpt lat="52.17304" lon="0.0843167"><ele>14.0</ele><time>2026-05-02T08:51:06.405Z</time></trkpt><trkpt lat="52.1732917" lon="0.08404"><ele>14.0</ele><time>2026-05-02T08:51:07.405Z</time></trkpt><trkpt lat="52.1735433" lon="0.0837633"><ele>14.0</ele><time>2026-05-02T08:51:08.404Z</time></trkpt><trkpt lat="52.1737933" lon="0.0834917"><ele>15.0</ele><time>2026-05-02T08:51:09.407Z</time></trkpt><trkpt lat="52.1740533" lon="0.0832267"><ele>16.0</ele><time>2026-05-02T08:51:10.405Z</time></trkpt><trkpt lat="52.1743167" lon="0.0829717"><ele>16.0</ele><time>2026-05-02T08:51:11.402Z</time></trkpt><trkpt lat="52.1745817" lon="0.0827217"><ele>16.0</ele><time>2026-05-02T08:51:12.403Z</time></trkpt><trkpt lat="52.1748433" lon="0.0824817"><ele>15.5</ele><time>2026-05-02T08:51:13.406Z</time></trkpt><trkpt lat="52.1751067" lon="0.082245"><ele>15.0</ele><time>2026-05-02T08:51:14.402Z</time></trkpt><trkpt lat="52.1753633" lon="0.0820217"><ele>15.0</ele><time>2026-05-02T08:51:15.403Z</time></trkpt><trkpt lat="52.17561" lon="0.0818033"><ele>15.0</ele><time>2026-05-02T08:51:16.404Z</time></trkpt><trkpt lat="52.1758433" lon="0.0815983"><ele>16.0</ele><time>2026-05-02T08:51:17.403Z</time></trkpt><trkpt lat="52.1760733" lon="0.0814"><ele>17.0</ele><time>2026-05-02T08:51:18.402Z</time></trkpt><trkpt lat="52.1762967" lon="0.0812117"><ele>17.0</ele><time>2026-05-02T08:51:19.403Z</time></trkpt><trkpt lat="52.1765167" lon="0.0810267"><ele>17.0</ele><time>2026-05-02T08:51:20.402Z</time></trkpt><trkpt lat="52.1767367" lon="0.0808417"><ele>18.5</ele><time>2026-05-02T08:51:21.402Z</time></trkpt><trkpt lat="52.176955" lon="0.0806567"><ele>20.0</ele><time>2026-05-02T08:51:22.403Z</time></trkpt><trkpt lat="52.1771817" lon="0.080475"><ele>19.0</ele><time>2026-05-02T08:51:23.408Z</time></trkpt><trkpt lat="52.177415" lon="0.0802967"><ele>18.0</ele><time>2026-05-02T08:51:24.402Z</time></trkpt><trkpt lat="52.1776483" lon="0.080125"><ele>18.0</ele><time>2026-05-02T08:51:25.402Z</time></trkpt><trkpt lat="52.1778783" lon="0.0799617"><ele>18.0</ele><time>2026-05-02T08:51:26.403Z</time></trkpt><trkpt lat="52.1780967" lon="0.0798"><ele>18.5</ele><time>2026-05-02T08:51:27.403Z</time></trkpt><trkpt lat="52.178305" lon="0.0796433"><ele>19.0</ele><time>2026-05-02T08:51:28.402Z</time></trkpt><trkpt lat="52.1785133" lon="0.07949"><ele>19.0</ele><time>2026-05-02T08:51:29.406Z</time></trkpt><trkpt lat="52.178725" lon="0.07934"><ele>19.0</ele><time>2026-05-02T08:51:30.406Z</time></trkpt><trkpt lat="52.17894" lon="0.079185"><ele>20.5</ele><time>2026-05-02T08:51:31.407Z</time></trkpt><trkpt lat="52.1791517" lon="0.07904"><ele>22.0</ele><time>2026-05-02T08:51:32.408Z</time></trkpt><trkpt lat="52.1793567" lon="0.0788967"><ele>22.0</ele><time>2026-05-02T08:51:33.405Z</time></trkpt><trkpt lat="52.17956" lon="0.0787567"><ele>22.0</ele><time>2026-05-02T08:51:34.402Z</time></trkpt><trkpt lat="52.1797633" lon="0.07862"><ele>22.0</ele><time>2026-05-02T08:51:35.403Z</time></trkpt><trkpt lat="52.179965" lon="0.0784883"><ele>22.0</ele><time>2026-05-02T08:51:36.402Z</time></trkpt><trkpt lat="52.180165" lon="0.0783633"><ele>22.0</ele><time>2026-05-02T08:51:37.402Z</time></trkpt><trkpt lat="52.180365" lon="0.0782417"><ele>22.0</ele><time>2026-05-02T08:51:38.403Z</time></trkpt><trkpt lat="52.18056" lon="0.0781183"><ele>22.0</ele><time>2026-05-02T08:51:39.402Z</time></trkpt><trkpt lat="52.1807583" lon="0.0779983"><ele>22.0</ele><time>2026-05-02T08:51:40.404Z</time></trkpt><trkpt lat="52.1809583" lon="0.07788"><ele>22.0</ele><time>2026-05-02T08:51:41.402Z</time></trkpt><trkpt lat="52.1811617" lon="0.0777567"><ele>22.0</ele><time>2026-05-02T08:51:42.403Z</time></trkpt><trkpt lat="52.1813667" lon="0.077635"><ele>22.0</ele><time>2026-05-02T08:51:43.404Z</time></trkpt><trkpt lat="52.181575" lon="0.07751"><ele>22.0</ele><time>2026-05-02T08:51:44.402Z</time></trkpt><trkpt lat="52.1817833" lon="0.07739"><ele>22.0</ele><time>2026-05-02T08:51:45.405Z</time></trkpt><trkpt lat="52.1819983" lon="0.0772717"><ele>22.0</ele><time>2026-05-02T08:51:46.403Z</time></trkpt><trkpt lat="52.18222" lon="0.0771533"><ele>21.5</ele><time>2026-05-02T08:51:47.402Z</time></trkpt><trkpt lat="52.1824417" lon="0.0770333"><ele>21.0</ele><time>2026-05-02T08:51:48.402Z</time></trkpt><trkpt lat="52.1826583" lon="0.07692"><ele>21.0</ele><time>2026-05-02T08:51:49.403Z</time></trkpt><trkpt lat="52.1828817" lon="0.0768067"><ele>21.0</ele><time>2026-05-02T08:51:50.403Z</time></trkpt><trkpt lat="52.1831083" lon="0.0766933"><ele>21.5</ele><time>2026-05-02T08:51:51.402Z</time></trkpt><trkpt lat="52.183335" lon="0.07658"><ele>22.0</ele><time>2026-05-02T08:51:52.403Z</time></trkpt><trkpt lat="52.18357" lon="0.07647"><ele>22.0</ele><time>2026-05-02T08:51:53.402Z</time></trkpt><trkpt lat="52.1838133" lon="0.0763617"><ele>22.0</ele><time>2026-05-02T08:51:54.404Z</time></trkpt><trkpt lat="52.1840667" lon="0.076255"><ele>21.5</ele><time>2026-05-02T08:51:55.403Z</time></trkpt><trkpt lat="52.18433" lon="0.0761417"><ele>21.0</ele><time>2026-05-02T08:51:56.404Z</time></trkpt><trkpt lat="52.18459" lon="0.0760217"><ele>21.0</ele><time>2026-05-02T08:51:57.403Z</time></trkpt><trkpt lat="52.184845" lon="0.0759033"><ele>21.0</ele><time>2026-05-02T08:51:58.406Z</time></trkpt><trkpt lat="52.1850983" lon="0.0758"><ele>21.5</ele><time>2026-05-02T08:51:59.406Z</time></trkpt><trkpt lat="52.1853567" lon="0.075705"><ele>22.0</ele><time>2026-05-02T08:52:00.406Z</time></trkpt><trkpt lat="52.1856233" lon="0.0756017"><ele>21.5</ele><time>2026-05-02T08:52:01.406Z</time></trkpt><trkpt lat="52.1858983" lon="0.07549"><ele>21.0</ele><time>2026-05-02T08:52:02.406Z</time></trkpt><trkpt lat="52.1861817" lon="0.07538"><ele>21.0</ele><time>2026-05-02T08:52:03.405Z</time></trkpt><trkpt lat="52.1864733" lon="0.0752883"><ele>21.0</ele><time>2026-05-02T08:52:04.405Z</time></trkpt><trkpt lat="52.186765" lon="0.0752017"><ele>20.5</ele><time>2026-05-02T08:52:05.408Z</time></trkpt><trkpt lat="52.1870517" lon="0.0751117"><ele>20.0</ele><time>2026-05-02T08:52:06.406Z</time></trkpt><trkpt lat="52.187335" lon="0.0750217"><ele>21.0</ele><time>2026-05-02T08:52:07.405Z</time></trkpt><trkpt lat="52.1876183" lon="0.074935"><ele>22.0</ele><time>2026-05-02T08:52:08.405Z</time></trkpt><trkpt lat="52.1878967" lon="0.0748533"><ele>22.5</ele><time>2026-05-02T08:52:09.405Z</time></trkpt><trkpt lat="52.1881783" lon="0.0747733"><ele>23.0</ele><time>2026-05-02T08:52:10.406Z</time></trkpt><trkpt lat="52.18847" lon="0.074695"><ele>23.0</ele><time>2026-05-02T08:52:11.406Z</time></trkpt><trkpt lat="52.188765" lon="0.0746117"><ele>23.0</ele><time>2026-05-02T08:52:12.405Z</time></trkpt><trkpt lat="52.18907" lon="0.0745417"><ele>22.0</ele><time>2026-05-02T08:52:13.404Z</time></trkpt><trkpt lat="52.1893817" lon="0.0744683"><ele>21.0</ele><time>2026-05-02T08:52:14.405Z</time></trkpt><trkpt lat="52.1897" lon="0.074385"><ele>20.0</ele><time>2026-05-02T08:52:15.405Z</time></trkpt><trkpt lat="52.1900283" lon="0.074295"><ele>19.0</ele><time>2026-05-02T08:52:16.406Z</time></trkpt><trkpt lat="52.1903617" lon="0.0742333"><ele>18.5</ele><time>2026-05-02T08:52:17.405Z</time></trkpt><trkpt lat="52.1906967" lon="0.074185"><ele>18.0</ele><time>2026-05-02T08:52:18.403Z</time></trkpt><trkpt lat="52.1910183" lon="0.074145"><ele>18.0</ele><time>2026-05-02T08:52:19.403Z</time></trkpt><trkpt lat="52.191325" lon="0.074115"><ele>18.0</ele><time>2026-05-02T08:52:20.402Z</time></trkpt><trkpt lat="52.1916267" lon="0.0740917"><ele>18.5</ele><time>2026-05-02T08:52:21.402Z</time></trkpt><trkpt lat="52.1919283" lon="0.07407"><ele>19.0</ele><time>2026-05-02T08:52:22.402Z</time></trkpt><trkpt lat="52.1922333" lon="0.0740533"><ele>17.5</ele><time>2026-05-02T08:52:23.404Z</time></trkpt><trkpt lat="52.1925433" lon="0.074045"><ele>16.0</ele><time>2026-05-02T08:52:24.402Z</time></trkpt><trkpt lat="52.1928583" lon="0.0740433"><ele>17.0</ele><time>2026-05-02T08:52:25.402Z</time></trkpt><trkpt lat="52.193175" lon="0.0740433"><ele>18.0</ele><time>2026-05-02T08:52:26.404Z</time></trkpt><trkpt lat="52.1934883" lon="0.0740467"><ele>18.0</ele><time>2026-05-02T08:52:27.402Z</time></trkpt><trkpt lat="52.1938017" lon="0.0740517"><ele>18.0</ele><time>2026-05-02T08:52:28.404Z</time></trkpt><trkpt lat="52.194115" lon="0.0740567"><ele>18.0</ele><time>2026-05-02T08:52:29.406Z</time></trkpt><trkpt lat="52.19442" lon="0.074085"><ele>18.0</ele><time>2026-05-02T08:52:30.406Z</time></trkpt><trkpt lat="52.1947133" lon="0.07412"><ele>18.0</ele><time>2026-05-02T08:52:31.406Z</time></trkpt><trkpt lat="52.194995" lon="0.074155"><ele>18.0</ele><time>2026-05-02T08:52:32.406Z</time></trkpt><trkpt lat="52.1952683" lon="0.0741867"><ele>18.0</ele><time>2026-05-02T08:52:33.403Z</time></trkpt><trkpt lat="52.1955317" lon="0.0742183"><ele>18.0</ele><time>2026-05-02T08:52:34.405Z</time></trkpt><trkpt lat="52.1957867" lon="0.0742533"><ele>18.0</ele><time>2026-05-02T08:52:35.403Z</time></trkpt><trkpt lat="52.1960367" lon="0.0742867"><ele>18.0</ele><time>2026-05-02T08:52:36.405Z</time></trkpt><trkpt lat="52.19628" lon="0.0743217"><ele>17.5</ele><time>2026-05-02T08:52:37.405Z</time></trkpt><trkpt lat="52.196515" lon="0.0743583"><ele>17.0</ele><time>2026-05-02T08:52:38.406Z</time></trkpt><trkpt lat="52.196745" lon="0.0744017"><ele>17.0</ele><time>2026-05-02T08:52:39.406Z</time></trkpt><trkpt lat="52.1969733" lon="0.0744433"><ele>17.0</ele><time>2026-05-02T08:52:40.403Z</time></trkpt><trkpt lat="52.1971983" lon="0.0744833"><ele>17.0</ele><time>2026-05-02T08:52:41.406Z</time></trkpt><trkpt lat="52.1974217" lon="0.0745267"><ele>17.0</ele><time>2026-05-02T08:52:42.406Z</time></trkpt><trkpt lat="52.197645" lon="0.0745783"><ele>17.0</ele><time>2026-05-02T08:52:43.406Z</time></trkpt><trkpt lat="52.1978717" lon="0.0746417"><ele>17.0</ele><time>2026-05-02T08:52:44.408Z</time></trkpt><trkpt lat="52.1980983" lon="0.0747033"><ele>16.5</ele><time>2026-05-02T08:52:45.405Z</time></trkpt><trkpt lat="52.198325" lon="0.0747483"><ele>16.0</ele><time>2026-05-02T08:52:46.405Z</time></trkpt><trkpt lat="52.19855" lon="0.0747883"><ele>16.0</ele><time>2026-05-02T08:52:47.403Z</time></trkpt><trkpt lat="52.1987783" lon="0.0748317"><ele>16.0</ele><time>2026-05-02T08:52:48.405Z</time></trkpt><trkpt lat="52.1990083" lon="0.0748783"><ele>16.5</ele><time>2026-05-02T08:52:49.402Z</time></trkpt><trkpt lat="52.1992367" lon="0.07493"><ele>17.0</ele><time>2026-05-02T08:52:50.402Z</time></trkpt><trkpt lat="52.199465" lon="0.0749817"><ele>17.0</ele><time>2026-05-02T08:52:51.403Z</time></trkpt><trkpt lat="52.19969" lon="0.07503"><ele>17.0</ele><time>2026-05-02T08:52:52.403Z</time></trkpt><trkpt lat="52.19991" lon="0.0750733"><ele>17.0</ele><time>2026-05-02T08:52:53.403Z</time></trkpt><trkpt lat="52.2001267" lon="0.07512"><ele>17.0</ele><time>2026-05-02T08:52:54.403Z</time></trkpt><trkpt lat="52.2003467" lon="0.075165"><ele>17.0</ele><time>2026-05-02T08:52:55.403Z</time></trkpt><trkpt lat="52.2005683" lon="0.0752167"><ele>17.0</ele><time>2026-05-02T08:52:56.402Z</time></trkpt><trkpt lat="52.2007917" lon="0.075265"><ele>17.0</ele><time>2026-05-02T08:52:57.402Z</time></trkpt><trkpt lat="52.2010167" lon="0.0753167"><ele>17.0</ele><time>2026-05-02T08:52:58.402Z</time></trkpt><trkpt lat="52.2012467" lon="0.0753767"><ele>17.0</ele><time>2026-05-02T08:52:59.405Z</time></trkpt><trkpt lat="52.20149" lon="0.0754367"><ele>17.0</ele><time>2026-05-02T08:53:00.405Z</time></trkpt><trkpt lat="52.2017383" lon="0.0754933"><ele>18.0</ele><time>2026-05-02T08:53:01.406Z</time></trkpt><trkpt lat="52.201985" lon="0.0755433"><ele>19.0</ele><time>2026-05-02T08:53:02.406Z</time></trkpt><trkpt lat="52.2022317" lon="0.0756"><ele>18.5</ele><time>2026-05-02T08:53:03.405Z</time></trkpt><trkpt lat="52.202485" lon="0.0756617"><ele>18.0</ele><time>2026-05-02T08:53:04.407Z</time></trkpt><trkpt lat="52.202735" lon="0.0757217"><ele>18.0</ele><time>2026-05-02T08:53:05.407Z</time></trkpt><trkpt lat="52.2029817" lon="0.075775"><ele>18.0</ele><time>2026-05-02T08:53:06.41Z</time></trkpt><trkpt lat="52.203225" lon="0.0758267"><ele>17.5</ele><time>2026-05-02T08:53:07.404Z</time></trkpt><trkpt lat="52.2034617" lon="0.0758717"><ele>17.0</ele><time>2026-05-02T08:53:08.407Z</time></trkpt><trkpt lat="52.2036883" lon="0.0759167"><ele>17.0</ele><time>2026-05-02T08:53:09.405Z</time></trkpt><trkpt lat="52.2039117" lon="0.075965"><ele>17.0</ele><time>2026-05-02T08:53:10.405Z</time></trkpt><trkpt lat="52.2041333" lon="0.0760133"><ele>17.0</ele><time>2026-05-02T08:53:11.406Z</time></trkpt><trkpt lat="52.2043533" lon="0.0760617"><ele>17.5</ele><time>2026-05-02T08:53:12.406Z</time></trkpt><trkpt lat="52.20458" lon="0.0761067"><ele>18.0</ele><time>2026-05-02T08:53:13.407Z</time></trkpt><trkpt lat="52.2048083" lon="0.0761483"><ele>17.5</ele><time>2026-05-02T08:53:14.407Z</time></trkpt><trkpt lat="52.20504" lon="0.0761917"><ele>17.0</ele><time>2026-05-02T08:53:15.407Z</time></trkpt><trkpt lat="52.2052717" lon="0.0762383"><ele>17.0</ele><time>2026-05-02T08:53:16.406Z</time></trkpt><trkpt lat="52.2055067" lon="0.076285"><ele>17.0</ele><time>2026-05-02T08:53:17.402Z</time></trkpt><trkpt lat="52.2057483" lon="0.0763333"><ele>17.5</ele><time>2026-05-02T08:53:18.402Z</time></trkpt><trkpt lat="52.2059883" lon="0.076385"><ele>18.0</ele><time>2026-05-02T08:53:19.402Z</time></trkpt><trkpt lat="52.20623" lon="0.0764367"><ele>18.0</ele><time>2026-05-02T08:53:20.404Z</time></trkpt><trkpt lat="52.2064633" lon="0.0764867"><ele>18.0</ele><time>2026-05-02T08:53:21.403Z</time></trkpt><trkpt lat="52.2066917" lon="0.076535"><ele>18.0</ele><time>2026-05-02T08:53:22.403Z</time></trkpt><trkpt lat="52.206915" lon="0.0765833"><ele>18.0</ele><time>2026-05-02T08:53:23.404Z</time></trkpt><trkpt lat="52.207135" lon="0.07663"><ele>18.0</ele><time>2026-05-02T08:53:24.404Z</time></trkpt><trkpt lat="52.207355" lon="0.0766733"><ele>19.333333333333332</ele><time>2026-05-02T08:53:25.402Z</time></trkpt><trkpt lat="52.2075767" lon="0.0767217"><ele>20.666666666666664</ele><time>2026-05-02T08:53:26.404Z</time></trkpt><trkpt lat="52.2078" lon="0.0767667"><ele>22.0</ele><time>2026-05-02T08:53:27.404Z</time></trkpt><trkpt lat="52.2080283" lon="0.076815"><ele>22.0</ele><time>2026-05-02T08:53:28.403Z</time></trkpt><trkpt lat="52.208265" lon="0.0768667"><ele>22.0</ele><time>2026-05-02T08:53:29.403Z</time></trkpt><trkpt lat="52.2085167" lon="0.0769217"><ele>22.0</ele><time>2026-05-02T08:53:30.402Z</time></trkpt><trkpt lat="52.2087683" lon="0.0769783"><ele>22.0</ele><time>2026-05-02T08:53:31.403Z</time></trkpt><trkpt lat="52.20901" lon="0.07704"><ele>21.5</ele><time>2026-05-02T08:53:32.406Z</time></trkpt><trkpt lat="52.2092433" lon="0.0770983"><ele>21.0</ele><time>2026-05-02T08:53:33.405Z</time></trkpt><trkpt lat="52.209475" lon="0.0771483"><ele>21.0</ele><time>2026-05-02T08:53:34.403Z</time></trkpt><trkpt lat="52.2097" lon="0.0772"><ele>21.0</ele><time>2026-05-02T08:53:35.404Z</time></trkpt><trkpt lat="52.20992" lon="0.07724"><ele>21.0</ele><time>2026-05-02T08:53:36.402Z</time></trkpt><trkpt lat="52.210135" lon="0.0772833"><ele>21.0</ele><time>2026-05-02T08:53:37.402Z</time></trkpt><trkpt lat="52.210345" lon="0.0773267"><ele>21.0</ele><time>2026-05-02T08:53:38.403Z</time></trkpt><trkpt lat="52.2105533" lon="0.0773717"><ele>21.0</ele><time>2026-05-02T08:53:39.402Z</time></trkpt><trkpt lat="52.21076" lon="0.0774233"><ele>21.666666666666668</ele><time>2026-05-02T08:53:40.402Z</time></trkpt><trkpt lat="52.21097" lon="0.0774717"><ele>22.333333333333336</ele><time>2026-05-02T08:53:41.403Z</time></trkpt><trkpt lat="52.2111817" lon="0.077515"><ele>23.0</ele><time>2026-05-02T08:53:42.403Z</time></trkpt><trkpt lat="52.211395" lon="0.07756"><ele>22.0</ele><time>2026-05-02T08:53:43.407Z</time></trkpt><trkpt lat="52.21161" lon="0.077605"><ele>21.0</ele><time>2026-05-02T08:53:44.402Z</time></trkpt><trkpt lat="52.211825" lon="0.0776517"><ele>20.0</ele><time>2026-05-02T08:53:45.402Z</time></trkpt><trkpt lat="52.212045" lon="0.0776967"><ele>20.0</ele><time>2026-05-02T08:53:46.402Z</time></trkpt><trkpt lat="52.2122733" lon="0.07774"><ele>20.0</ele><time>2026-05-02T08:53:47.403Z</time></trkpt><trkpt lat="52.2124983" lon="0.0777867"><ele>20.5</ele><time>2026-05-02T08:53:48.404Z</time></trkpt><trkpt lat="52.2127233" lon="0.0778367"><ele>21.0</ele><time>2026-05-02T08:53:49.402Z</time></trkpt><trkpt lat="52.2129483" lon="0.0778867"><ele>21.5</ele><time>2026-05-02T08:53:50.402Z</time></trkpt><trkpt lat="52.2131783" lon="0.0779317"><ele>22.0</ele><time>2026-05-02T08:53:51.403Z</time></trkpt><trkpt lat="52.213405" lon="0.07798"><ele>22.0</ele><time>2026-05-02T08:53:52.402Z</time></trkpt><trkpt lat="52.2136367" lon="0.0780283"><ele>22.0</ele><time>2026-05-02T08:53:53.403Z</time></trkpt><trkpt lat="52.213875" lon="0.0780817"><ele>23.5</ele><time>2026-05-02T08:53:54.402Z</time></trkpt><trkpt lat="52.2141217" lon="0.078135"><ele>25.0</ele><time>2026-05-02T08:53:55.41Z</time></trkpt><trkpt lat="52.214375" lon="0.0781933"><ele>25.0</ele><time>2026-05-02T08:53:56.403Z</time></trkpt><trkpt lat="52.2146283" lon="0.0782533"><ele>25.0</ele><time>2026-05-02T08:53:57.402Z</time></trkpt><trkpt lat="52.21488" lon="0.0783117"><ele>22.5</ele><time>2026-05-02T08:53:58.403Z</time></trkpt><trkpt lat="52.2151333" lon="0.0783667"><ele>20.0</ele><time>2026-05-02T08:53:59.402Z</time></trkpt><trkpt lat="52.215385" lon="0.0784133"><ele>20.0</ele><time>2026-05-02T08:54:00.402Z</time></trkpt><trkpt lat="52.21564" lon="0.0784583"><ele>20.0</ele><time>2026-05-02T08:54:01.403Z</time></trkpt><trkpt lat="52.2158983" lon="0.0784983"><ele>19.5</ele><time>2026-05-02T08:54:02.403Z</time></trkpt><trkpt lat="52.2161517" lon="0.0785433"><ele>19.0</ele><time>2026-05-02T08:54:03.402Z</time></trkpt><trkpt lat="52.2164033" lon="0.078585"><ele>18.5</ele><time>2026-05-02T08:54:04.403Z</time></trkpt><trkpt lat="52.2166567" lon="0.0786233"><ele>18.0</ele><time>2026-05-02T08:54:05.403Z</time></trkpt><trkpt lat="52.2169117" lon="0.0786567"><ele>18.0</ele><time>2026-05-02T08:54:06.403Z</time></trkpt><trkpt lat="52.2171683" lon="0.0786867"><ele>18.0</ele><time>2026-05-02T08:54:07.404Z</time></trkpt><trkpt lat="52.217425" lon="0.0787117"><ele>17.0</ele><time>2026-05-02T08:54:08.403Z</time></trkpt><trkpt lat="52.2176783" lon="0.0787317"><ele>16.0</ele><time>2026-05-02T08:54:09.403Z</time></trkpt><trkpt lat="52.2179283" lon="0.078735"><ele>15.5</ele><time>2026-05-02T08:54:10.407Z</time></trkpt><trkpt lat="52.2181717" lon="0.0787333"><ele>15.0</ele><time>2026-05-02T08:54:11.407Z</time></trkpt><trkpt lat="52.2184167" lon="0.0787283"><ele>15.0</ele><time>2026-05-02T08:54:12.403Z</time></trkpt><trkpt lat="52.218645" lon="0.078705"><ele>15.0</ele><time>2026-05-02T08:54:13.402Z</time></trkpt><trkpt lat="52.2188633" lon="0.0786767"><ele>15.0</ele><time>2026-05-02T08:54:14.405Z</time></trkpt><trkpt lat="52.2190733" lon="0.078645"><ele>14.666666666666668</ele><time>2026-05-02T08:54:15.406Z</time></trkpt><trkpt lat="52.2192667" lon="0.078625"><ele>14.333333333333334</ele><time>2026-05-02T08:54:16.405Z</time></trkpt><trkpt lat="52.2194483" lon="0.0786067"><ele>14.0</ele><time>2026-05-02T08:54:17.402Z</time></trkpt><trkpt lat="52.2196267" lon="0.0785733"><ele>14.0</ele><time>2026-05-02T08:54:18.406Z</time></trkpt><trkpt lat="52.2198067" lon="0.0785467"><ele>14.0</ele><time>2026-05-02T08:54:19.406Z</time></trkpt><trkpt lat="52.2200033" lon="0.078525"><ele>14.0</ele><time>2026-05-02T08:54:20.407Z</time></trkpt><trkpt lat="52.220205" lon="0.0784967"><ele>14.0</ele><time>2026-05-02T08:54:21.403Z</time></trkpt><trkpt lat="52.220405" lon="0.0784633"><ele>14.0</ele><time>2026-05-02T08:54:22.405Z</time></trkpt><trkpt lat="52.2206033" lon="0.07842"><ele>14.0</ele><time>2026-05-02T08:54:23.405Z</time></trkpt><trkpt lat="52.2208" lon="0.078375"><ele>14.0</ele><time>2026-05-02T08:54:24.406Z</time></trkpt><trkpt lat="52.2209967" lon="0.0783267"><ele>14.0</ele><time>2026-05-02T08:54:25.405Z</time></trkpt><trkpt lat="52.22119" lon="0.0782667"><ele>14.0</ele><time>2026-05-02T08:54:26.406Z</time></trkpt><trkpt lat="52.2213783" lon="0.078205"><ele>14.333333333333334</ele><time>2026-05-02T08:54:27.402Z</time></trkpt><trkpt lat="52.2215633" lon="0.0781433"><ele>14.666666666666668</ele><time>2026-05-02T08:54:28.404Z</time></trkpt><trkpt lat="52.22175" lon="0.078075"><ele>15.0</ele><time>2026-05-02T08:54:29.403Z</time></trkpt><trkpt lat="52.2219383" lon="0.0780033"><ele>15.0</ele><time>2026-05-02T08:54:30.402Z</time></trkpt><trkpt lat="52.2221283" lon="0.0779267"><ele>15.0</ele><time>2026-05-02T08:54:31.404Z</time></trkpt><trkpt lat="52.2223167" lon="0.0778533"><ele>15.0</ele><time>2026-05-02T08:54:32.402Z</time></trkpt><trkpt lat="52.2225067" lon="0.077775"><ele>15.0</ele><time>2026-05-02T08:54:33.403Z</time></trkpt><trkpt lat="52.2227" lon="0.0776883"><ele>15.0</ele><time>2026-05-02T08:54:34.402Z</time></trkpt><trkpt lat="52.222895" lon="0.0775967"><ele>15.0</ele><time>2026-05-02T08:54:35.402Z</time></trkpt><trkpt lat="52.223095" lon="0.0774983"><ele>14.666666666666668</ele><time>2026-05-02T08:54:36.402Z</time></trkpt><trkpt lat="52.2232983" lon="0.0773933"><ele>14.333333333333334</ele><time>2026-05-02T08:54:37.402Z</time></trkpt><trkpt lat="52.2235017" lon="0.0772817"><ele>14.0</ele><time>2026-05-02T08:54:38.403Z</time></trkpt><trkpt lat="52.223705" lon="0.0771633"><ele>14.0</ele><time>2026-05-02T08:54:39.402Z</time></trkpt><trkpt lat="52.2239017" lon="0.0770367"><ele>14.0</ele><time>2026-05-02T08:54:40.403Z</time></trkpt><trkpt lat="52.2240933" lon="0.0769083"><ele>14.0</ele><time>2026-05-02T08:54:41.403Z</time></trkpt><trkpt lat="52.2242767" lon="0.076785"><ele>14.333333333333334</ele><time>2026-05-02T08:54:42.402Z</time></trkpt><trkpt lat="52.2244533" lon="0.07667"><ele>14.666666666666668</ele><time>2026-05-02T08:54:43.404Z</time></trkpt><trkpt lat="52.2246217" lon="0.0765567"><ele>15.0</ele><time>2026-05-02T08:54:44.403Z</time></trkpt><trkpt lat="52.2247817" lon="0.0764467"><ele>15.0</ele><time>2026-05-02T08:54:45.405Z</time></trkpt><trkpt lat="52.2249383" lon="0.0763333"><ele>15.0</ele><time>2026-05-02T08:54:46.406Z</time></trkpt><trkpt lat="52.2250883" lon="0.0762217"><ele>15.0</ele><time>2026-05-02T08:54:47.406Z</time></trkpt><trkpt lat="52.2252333" lon="0.0761117"><ele>15.0</ele><time>2026-05-02T08:54:48.406Z</time></trkpt><trkpt lat="52.22537" lon="0.0760033"><ele>15.0</ele><time>2026-05-02T08:54:49.405Z</time></trkpt><trkpt lat="52.2255033" lon="0.0758933"><ele>15.0</ele><time>2026-05-02T08:54:50.406Z</time></trkpt><trkpt lat="52.2256383" lon="0.0757833"><ele>15.666666666666668</ele><time>2026-05-02T08:54:51.405Z</time></trkpt><trkpt lat="52.2257717" lon="0.0756733"><ele>16.333333333333336</ele><time>2026-05-02T08:54:52.406Z</time></trkpt><trkpt lat="52.2259033" lon="0.0755617"><ele>17.0</ele><time>2026-05-02T08:54:53.408Z</time></trkpt><trkpt lat="52.2260383" lon="0.0754483"><ele>17.0</ele><time>2026-05-02T08:54:54.407Z</time></trkpt><trkpt lat="52.2261733" lon="0.0753333"><ele>17.0</ele><time>2026-05-02T08:54:55.405Z</time></trkpt><trkpt lat="52.2263033" lon="0.0752167"><ele>17.0</ele><time>2026-05-02T08:54:56.407Z</time></trkpt><trkpt lat="52.2264333" lon="0.0750983"><ele>17.0</ele><time>2026-05-02T08:54:57.406Z</time></trkpt><trkpt lat="52.2265683" lon="0.074975"><ele>16.666666666666668</ele><time>2026-05-02T08:54:58.407Z</time></trkpt><trkpt lat="52.226705" lon="0.07485"><ele>16.333333333333332</ele><time>2026-05-02T08:54:59.407Z</time></trkpt><trkpt lat="52.2268383" lon="0.0747233"><ele>16.0</ele><time>2026-05-02T08:55:00.407Z</time></trkpt><trkpt lat="52.2269683" lon="0.0745983"><ele>16.0</ele><time>2026-05-02T08:55:01.406Z</time></trkpt><trkpt lat="52.2271" lon="0.0744667"><ele>16.0</ele><time>2026-05-02T08:55:02.41Z</time></trkpt><trkpt lat="52.2272333" lon="0.0743333"><ele>16.0</ele><time>2026-05-02T08:55:03.407Z</time></trkpt><trkpt lat="52.2273667" lon="0.074195"><ele>16.0</ele><time>2026-05-02T08:55:04.406Z</time></trkpt><trkpt lat="52.2275033" lon="0.0740533"><ele>16.0</ele><time>2026-05-02T08:55:05.405Z</time></trkpt><trkpt lat="52.2276417" lon="0.07391"><ele>16.0</ele><time>2026-05-02T08:55:06.407Z</time></trkpt><trkpt lat="52.2277783" lon="0.0737633"><ele>16.0</ele><time>2026-05-02T08:55:07.406Z</time></trkpt><trkpt lat="52.2279133" lon="0.0736183"><ele>16.0</ele><time>2026-05-02T08:55:08.41Z</time></trkpt><trkpt lat="52.2280517" lon="0.0734683"><ele>16.0</ele><time>2026-05-02T08:55:09.406Z</time></trkpt><trkpt lat="52.22819" lon="0.0733167"><ele>16.0</ele><time>2026-05-02T08:55:10.407Z</time></trkpt><trkpt lat="52.2283283" lon="0.073165"><ele>16.0</ele><time>2026-05-02T08:55:11.406Z</time></trkpt><trkpt lat="52.2284683" lon="0.0730133"><ele>16.0</ele><time>2026-05-02T08:55:12.406Z</time></trkpt><trkpt lat="52.22861" lon="0.07286"><ele>16.0</ele><time>2026-05-02T08:55:13.406Z</time></trkpt><trkpt lat="52.2287517" lon="0.072705"><ele>16.0</ele><time>2026-05-02T08:55:14.406Z</time></trkpt><trkpt lat="52.2288967" lon="0.0725483"><ele>16.0</ele><time>2026-05-02T08:55:15.406Z</time></trkpt><trkpt lat="52.22904" lon="0.0723967"><ele>17.333333333333332</ele><time>2026-05-02T08:55:16.406Z</time></trkpt><trkpt lat="52.2291867" lon="0.07224"><ele>18.666666666666668</ele><time>2026-05-02T08:55:17.407Z</time></trkpt><trkpt lat="52.2293333" lon="0.0720833"><ele>20.0</ele><time>2026-05-02T08:55:18.406Z</time></trkpt><trkpt lat="52.2294767" lon="0.07193"><ele>20.0</ele><time>2026-05-02T08:55:19.405Z</time></trkpt><trkpt lat="52.2296183" lon="0.07178"><ele>20.0</ele><time>2026-05-02T08:55:20.406Z</time></trkpt><trkpt lat="52.2297583" lon="0.0716317"><ele>20.0</ele><time>2026-05-02T08:55:21.408Z</time></trkpt><trkpt lat="52.2298967" lon="0.0714833"><ele>20.666666666666668</ele><time>2026-05-02T08:55:22.405Z</time></trkpt><trkpt lat="52.2300317" lon="0.0713367"><ele>21.333333333333332</ele><time>2026-05-02T08:55:23.405Z</time></trkpt><trkpt lat="52.230165" lon="0.071195"><ele>22.0</ele><time>2026-05-02T08:55:24.407Z</time></trkpt><trkpt lat="52.2302983" lon="0.0710517"><ele>22.0</ele><time>2026-05-02T08:55:25.406Z</time></trkpt><trkpt lat="52.2304317" lon="0.0709083"><ele>22.0</ele><time>2026-05-02T08:55:26.406Z</time></trkpt><trkpt lat="52.230565" lon="0.0707683"><ele>22.0</ele><time>2026-05-02T08:55:27.405Z</time></trkpt><trkpt lat="52.2306967" lon="0.07063"><ele>21.333333333333332</ele><time>2026-05-02T08:55:28.406Z</time></trkpt><trkpt lat="52.2308333" lon="0.07049"><ele>20.666666666666668</ele><time>2026-05-02T08:55:29.405Z</time></trkpt><trkpt lat="52.2309733" lon="0.0703383"><ele>20.0</ele><time>2026-05-02T08:55:30.406Z</time></trkpt><trkpt lat="52.2311083" lon="0.0701867"><ele>20.0</ele><time>2026-05-02T08:55:31.407Z</time></trkpt><trkpt lat="52.2312483" lon="0.07003"><ele>20.0</ele><time>2026-05-02T08:55:32.407Z</time></trkpt><trkpt lat="52.23139" lon="0.0698733"><ele>20.0</ele><time>2026-05-02T08:55:33.406Z</time></trkpt><trkpt lat="52.23153" lon="0.0697267"><ele>20.333333333333336</ele><time>2026-05-02T08:55:34.405Z</time></trkpt><trkpt lat="52.23167" lon="0.0695783"><ele>20.666666666666668</ele><time>2026-05-02T08:55:35.407Z</time></trkpt><trkpt lat="52.2318117" lon="0.0694317"><ele>21.0</ele><time>2026-05-02T08:55:36.406Z</time></trkpt><trkpt lat="52.2319567" lon="0.0692833"><ele>21.0</ele><time>2026-05-02T08:55:37.403Z</time></trkpt><trkpt lat="52.2321" lon="0.0691333"><ele>21.0</ele><time>2026-05-02T08:55:38.406Z</time></trkpt><trkpt lat="52.2322433" lon="0.0689867"><ele>21.0</ele><time>2026-05-02T08:55:39.406Z</time></trkpt><trkpt lat="52.2323883" lon="0.0688383"><ele>20.666666666666668</ele><time>2026-05-02T08:55:40.407Z</time></trkpt><trkpt lat="52.2325317" lon="0.0686883"><ele>20.333333333333336</ele><time>2026-05-02T08:55:41.406Z</time></trkpt><trkpt lat="52.2326767" lon="0.0685317"><ele>20.0</ele><time>2026-05-02T08:55:42.405Z</time></trkpt><trkpt lat="52.2328233" lon="0.0683717"><ele>19.333333333333336</ele><time>2026-05-02T08:55:43.404Z</time></trkpt><trkpt lat="52.2329683" lon="0.0682133"><ele>18.666666666666668</ele><time>2026-05-02T08:55:44.403Z</time></trkpt><trkpt lat="52.2331117" lon="0.0680517"><ele>18.0</ele><time>2026-05-02T08:55:45.405Z</time></trkpt><trkpt lat="52.233255" lon="0.067895"><ele>18.0</ele><time>2026-05-02T08:55:46.408Z</time></trkpt><trkpt lat="52.2334" lon="0.067735"><ele>18.0</ele><time>2026-05-02T08:55:47.407Z</time></trkpt><trkpt lat="52.2335467" lon="0.0675767"><ele>18.0</ele><time>2026-05-02T08:55:48.406Z</time></trkpt><trkpt lat="52.23369" lon="0.06742"><ele>17.666666666666668</ele><time>2026-05-02T08:55:49.405Z</time></trkpt><trkpt lat="52.2338383" lon="0.0672617"><ele>17.333333333333336</ele><time>2026-05-02T08:55:50.406Z</time></trkpt><trkpt lat="52.2339983" lon="0.06709"><ele>17.0</ele><time>2026-05-02T08:55:51.406Z</time></trkpt><trkpt lat="52.2341717" lon="0.066905"><ele>17.0</ele><time>2026-05-02T08:55:52.405Z</time></trkpt><trkpt lat="52.2343517" lon="0.0667067"><ele>17.0</ele><time>2026-05-02T08:55:53.405Z</time></trkpt><trkpt lat="52.234545" lon="0.066495"><ele>17.0</ele><time>2026-05-02T08:55:54.409Z</time></trkpt><trkpt lat="52.23475" lon="0.0662733"><ele>17.0</ele><time>2026-05-02T08:55:55.406Z</time></trkpt><trkpt lat="52.234955" lon="0.066055"><ele>18.0</ele><time>2026-05-02T08:55:56.406Z</time></trkpt><trkpt lat="52.2351533" lon="0.0658467"><ele>19.0</ele><time>2026-05-02T08:55:57.407Z</time></trkpt><trkpt lat="52.23534" lon="0.065645"><ele>19.0</ele><time>2026-05-02T08:55:58.405Z</time></trkpt><trkpt lat="52.235515" lon="0.0654567"><ele>19.0</ele><time>2026-05-02T08:55:59.405Z</time></trkpt><trkpt lat="52.2356867" lon="0.0652733"><ele>19.0</ele><time>2026-05-02T08:56:00.405Z</time></trkpt><trkpt lat="52.2358517" lon="0.0650917"><ele>19.333333333333332</ele><time>2026-05-02T08:56:01.405Z</time></trkpt><trkpt lat="52.2360133" lon="0.0649133"><ele>19.666666666666668</ele><time>2026-05-02T08:56:02.409Z</time></trkpt><trkpt lat="52.2361717" lon="0.0647367"><ele>20.0</ele><time>2026-05-02T08:56:03.406Z</time></trkpt><trkpt lat="52.23633" lon="0.0645617"><ele>19.666666666666668</ele><time>2026-05-02T08:56:04.402Z</time></trkpt><trkpt lat="52.2364867" lon="0.0643833"><ele>19.333333333333332</ele><time>2026-05-02T08:56:05.404Z</time></trkpt><trkpt lat="52.2366433" lon="0.0642033"><ele>19.0</ele><time>2026-05-02T08:56:06.405Z</time></trkpt><trkpt lat="52.236795" lon="0.064015"><ele>18.333333333333332</ele><time>2026-05-02T08:56:07.405Z</time></trkpt><trkpt lat="52.2369467" lon="0.0638217"><ele>17.666666666666668</ele><time>2026-05-02T08:56:08.406Z</time></trkpt><trkpt lat="52.237095" lon="0.063625"><ele>17.0</ele><time>2026-05-02T08:56:09.404Z</time></trkpt><trkpt lat="52.2372417" lon="0.0634367"><ele>17.333333333333336</ele><time>2026-05-02T08:56:10.404Z</time></trkpt><trkpt lat="52.2373817" lon="0.0632467"><ele>17.666666666666668</ele><time>2026-05-02T08:56:11.406Z</time></trkpt><trkpt lat="52.237515" lon="0.0630583"><ele>18.0</ele><time>2026-05-02T08:56:12.405Z</time></trkpt><trkpt lat="52.2376433" lon="0.06287"><ele>18.0</ele><time>2026-05-02T08:56:13.405Z</time></trkpt><trkpt lat="52.2377683" lon="0.0626833"><ele>18.0</ele><time>2026-05-02T08:56:14.406Z</time></trkpt><trkpt lat="52.2378867" lon="0.0625067"><ele>18.0</ele><time>2026-05-02T08:56:15.406Z</time></trkpt><trkpt lat="52.2380033" lon="0.0623317"><ele>18.0</ele><time>2026-05-02T08:56:16.402Z</time></trkpt><trkpt lat="52.2381167" lon="0.0621533"><ele>18.0</ele><time>2026-05-02T08:56:17.402Z</time></trkpt><trkpt lat="52.2382267" lon="0.061975"><ele>18.0</ele><time>2026-05-02T08:56:18.404Z</time></trkpt><trkpt lat="52.2383367" lon="0.061795"><ele>17.0</ele><time>2026-05-02T08:56:19.409Z</time></trkpt><trkpt lat="52.238445" lon="0.0616117"><ele>16.0</ele><time>2026-05-02T08:56:20.403Z</time></trkpt><trkpt lat="52.2385567" lon="0.0614217"><ele>15.0</ele><time>2026-05-02T08:56:21.404Z</time></trkpt><trkpt lat="52.2386667" lon="0.0612267"><ele>15.0</ele><time>2026-05-02T08:56:22.406Z</time></trkpt><trkpt lat="52.2387717" lon="0.0610383"><ele>15.0</ele><time>2026-05-02T08:56:23.406Z</time></trkpt><trkpt lat="52.238875" lon="0.0608583"><ele>15.0</ele><time>2026-05-02T08:56:24.405Z</time></trkpt><trkpt lat="52.2389783" lon="0.0606717"><ele>15.666666666666668</ele><time>2026-05-02T08:56:25.403Z</time></trkpt><trkpt lat="52.2390817" lon="0.0604883"><ele>16.333333333333336</ele><time>2026-05-02T08:56:26.409Z</time></trkpt><trkpt lat="52.2391817" lon="0.0603017"><ele>17.0</ele><time>2026-05-02T08:56:27.405Z</time></trkpt><trkpt lat="52.2392833" lon="0.0601133"><ele>16.666666666666668</ele><time>2026-05-02T08:56:28.406Z</time></trkpt><trkpt lat="52.2393867" lon="0.05992"><ele>16.333333333333332</ele><time>2026-05-02T08:56:29.406Z</time></trkpt><trkpt lat="52.23949" lon="0.0597233"><ele>16.0</ele><time>2026-05-02T08:56:30.406Z</time></trkpt><trkpt lat="52.2395917" lon="0.05953"><ele>16.0</ele><time>2026-05-02T08:56:31.405Z</time></trkpt><trkpt lat="52.239695" lon="0.0593367"><ele>16.0</ele><time>2026-05-02T08:56:32.407Z</time></trkpt><trkpt lat="52.2397983" lon="0.0591367"><ele>16.0</ele><time>2026-05-02T08:56:33.406Z</time></trkpt><trkpt lat="52.2399017" lon="0.058935"><ele>16.333333333333332</ele><time>2026-05-02T08:56:34.405Z</time></trkpt><trkpt lat="52.240005" lon="0.0587333"><ele>16.666666666666668</ele><time>2026-05-02T08:56:35.406Z</time></trkpt><trkpt lat="52.2401083" lon="0.058525"><ele>17.0</ele><time>2026-05-02T08:56:36.406Z</time></trkpt><trkpt lat="52.2402183" lon="0.0583083"><ele>16.666666666666668</ele><time>2026-05-02T08:56:37.405Z</time></trkpt><trkpt lat="52.2403333" lon="0.0580833"><ele>16.333333333333332</ele><time>2026-05-02T08:56:38.406Z</time></trkpt><trkpt lat="52.2404517" lon="0.057855"><ele>16.0</ele><time>2026-05-02T08:56:39.402Z</time></trkpt><trkpt lat="52.2405733" lon="0.0576233"><ele>16.333333333333332</ele><time>2026-05-02T08:56:40.406Z</time></trkpt><trkpt lat="52.2407017" lon="0.05737"><ele>16.666666666666668</ele><time>2026-05-02T08:56:41.407Z</time></trkpt><trkpt lat="52.24084" lon="0.0570983"><ele>17.0</ele><time>2026-05-02T08:56:42.406Z</time></trkpt><trkpt lat="52.24099" lon="0.0568117"><ele>16.5</ele><time>2026-05-02T08:56:43.406Z</time></trkpt><trkpt lat="52.2411483" lon="0.0565083"><ele>16.0</ele><time>2026-05-02T08:56:44.406Z</time></trkpt><trkpt lat="52.2413117" lon="0.0561883"><ele>16.5</ele><time>2026-05-02T08:56:45.407Z</time></trkpt><trkpt lat="52.24148" lon="0.05586"><ele>17.0</ele><time>2026-05-02T08:56:46.404Z</time></trkpt><trkpt lat="52.24165" lon="0.0555283"><ele>17.0</ele><time>2026-05-02T08:56:47.404Z</time></trkpt><trkpt lat="52.2418183" lon="0.0552033"><ele>17.0</ele><time>2026-05-02T08:56:48.406Z</time></trkpt><trkpt lat="52.2419833" lon="0.0548833"><ele>17.5</ele><time>2026-05-02T08:56:49.405Z</time></trkpt><trkpt lat="52.2421467" lon="0.05457"><ele>18.0</ele><time>2026-05-02T08:56:50.406Z</time></trkpt><trkpt lat="52.24231" lon="0.05426"><ele>18.0</ele><time>2026-05-02T08:56:51.404Z</time></trkpt><trkpt lat="52.2424767" lon="0.0539517"><ele>18.0</ele><time>2026-05-02T08:56:52.407Z</time></trkpt><trkpt lat="52.2426433" lon="0.053635"><ele>18.0</ele><time>2026-05-02T08:56:53.405Z</time></trkpt><trkpt lat="52.2428117" lon="0.053315"><ele>18.0</ele><time>2026-05-02T08:56:54.408Z</time></trkpt><trkpt lat="52.2429767" lon="0.0529983"><ele>19.0</ele><time>2026-05-02T08:56:55.406Z</time></trkpt><trkpt lat="52.24314" lon="0.052675"><ele>20.0</ele><time>2026-05-02T08:56:56.406Z</time></trkpt><trkpt lat="52.2433067" lon="0.05235"><ele>20.0</ele><time>2026-05-02T08:56:57.406Z</time></trkpt><trkpt lat="52.2434767" lon="0.05202"><ele>20.0</ele><time>2026-05-02T08:56:58.406Z</time></trkpt><trkpt lat="52.243645" lon="0.0516833"><ele>20.0</ele><time>2026-05-02T08:56:59.406Z</time></trkpt><trkpt lat="52.2438167" lon="0.0513417"><ele>20.0</ele><time>2026-05-02T08:57:00.407Z</time></trkpt><trkpt lat="52.243985" lon="0.051005"><ele>20.5</ele><time>2026-05-02T08:57:01.406Z</time></trkpt><trkpt lat="52.24415" lon="0.0506733"><ele>21.0</ele><time>2026-05-02T08:57:02.407Z</time></trkpt><trkpt lat="52.2443183" lon="0.050345"><ele>21.0</ele><time>2026-05-02T08:57:03.406Z</time></trkpt><trkpt lat="52.2444867" lon="0.0500167"><ele>21.0</ele><time>2026-05-02T08:57:04.405Z</time></trkpt><trkpt lat="52.2446567" lon="0.0496867"><ele>20.5</ele><time>2026-05-02T08:57:05.406Z</time></trkpt><trkpt lat="52.2448283" lon="0.0493567"><ele>20.0</ele><time>2026-05-02T08:57:06.406Z</time></trkpt><trkpt lat="52.2449967" lon="0.04903"><ele>20.0</ele><time>2026-05-02T08:57:07.405Z</time></trkpt><trkpt lat="52.245165" lon="0.0487"><ele>20.0</ele><time>2026-05-02T08:57:08.408Z</time></trkpt><trkpt lat="52.24533" lon="0.0483717"><ele>20.0</ele><time>2026-05-02T08:57:09.406Z</time></trkpt><trkpt lat="52.2454983" lon="0.04804"><ele>20.0</ele><time>2026-05-02T08:57:10.406Z</time></trkpt><trkpt lat="52.2456633" lon="0.04771"><ele>20.5</ele><time>2026-05-02T08:57:11.406Z</time></trkpt><trkpt lat="52.2458333" lon="0.0473767"><ele>21.0</ele><time>2026-05-02T08:57:12.405Z</time></trkpt><trkpt lat="52.2460033" lon="0.0470417"><ele>21.0</ele><time>2026-05-02T08:57:13.405Z</time></trkpt><trkpt lat="52.246175" lon="0.0467067"><ele>21.0</ele><time>2026-05-02T08:57:14.407Z</time></trkpt><trkpt lat="52.246345" lon="0.0463733"><ele>21.0</ele><time>2026-05-02T08:57:15.406Z</time></trkpt><trkpt lat="52.2465133" lon="0.0460467"><ele>21.0</ele><time>2026-05-02T08:57:16.407Z</time></trkpt><trkpt lat="52.2466833" lon="0.0457133"><ele>21.0</ele><time>2026-05-02T08:57:17.403Z</time></trkpt><trkpt lat="52.2468567" lon="0.0453817"><ele>21.0</ele><time>2026-05-02T08:57:18.407Z</time></trkpt><trkpt lat="52.24703" lon="0.045045"><ele>21.5</ele><time>2026-05-02T08:57:19.406Z</time></trkpt><trkpt lat="52.2471983" lon="0.0447067"><ele>22.0</ele><time>2026-05-02T08:57:20.407Z</time></trkpt><trkpt lat="52.2473617" lon="0.0443733"><ele>23.5</ele><time>2026-05-02T08:57:21.406Z</time></trkpt><trkpt lat="52.247525" lon="0.0440383"><ele>25.0</ele><time>2026-05-02T08:57:22.405Z</time></trkpt><trkpt lat="52.247695" lon="0.043705"><ele>25.0</ele><time>2026-05-02T08:57:23.406Z</time></trkpt><trkpt lat="52.247865" lon="0.04338"><ele>25.0</ele><time>2026-05-02T08:57:24.409Z</time></trkpt><trkpt lat="52.2480383" lon="0.0430583"><ele>24.5</ele><time>2026-05-02T08:57:25.405Z</time></trkpt><trkpt lat="52.24821" lon="0.042735"><ele>24.0</ele><time>2026-05-02T08:57:26.408Z</time></trkpt><trkpt lat="52.24838" lon="0.0424083"><ele>24.0</ele><time>2026-05-02T08:57:27.403Z</time></trkpt><trkpt lat="52.248545" lon="0.04208"><ele>24.0</ele><time>2026-05-02T08:57:28.406Z</time></trkpt><trkpt lat="52.24871" lon="0.0417517"><ele>23.0</ele><time>2026-05-02T08:57:29.407Z</time></trkpt><trkpt lat="52.2488767" lon="0.0414233"><ele>22.0</ele><time>2026-05-02T08:57:30.404Z</time></trkpt><trkpt lat="52.2490417" lon="0.04109"><ele>22.0</ele><time>2026-05-02T08:57:31.406Z</time></trkpt><trkpt lat="52.2492083" lon="0.0407533"><ele>22.0</ele><time>2026-05-02T08:57:32.409Z</time></trkpt><trkpt lat="52.249375" lon="0.0404133"><ele>22.0</ele><time>2026-05-02T08:57:33.401Z</time></trkpt><trkpt lat="52.24954" lon="0.0400717"><ele>22.0</ele><time>2026-05-02T08:57:34.406Z</time></trkpt><trkpt lat="52.2497033" lon="0.039725"><ele>21.0</ele><time>2026-05-02T08:57:35.401Z</time></trkpt><trkpt lat="52.2498667" lon="0.0393833"><ele>20.0</ele><time>2026-05-02T08:57:36.406Z</time></trkpt><trkpt lat="52.25003" lon="0.039045"><ele>20.0</ele><time>2026-05-02T08:57:37.405Z</time></trkpt><trkpt lat="52.2501967" lon="0.03871"><ele>20.0</ele><time>2026-05-02T08:57:38.404Z</time></trkpt><trkpt lat="52.2503633" lon="0.0383733"><ele>20.0</ele><time>2026-05-02T08:57:39.405Z</time></trkpt><trkpt lat="52.2505317" lon="0.0380367"><ele>20.0</ele><time>2026-05-02T08:57:40.404Z</time></trkpt><trkpt lat="52.2506967" lon="0.037695"><ele>21.0</ele><time>2026-05-02T08:57:41.405Z</time></trkpt><trkpt lat="52.2508617" lon="0.03735"><ele>22.0</ele><time>2026-05-02T08:57:42.403Z</time></trkpt><trkpt lat="52.2510283" lon="0.0370033"><ele>22.0</ele><time>2026-05-02T08:57:43.405Z</time></trkpt><trkpt lat="52.2511983" lon="0.0366517"><ele>22.0</ele><time>2026-05-02T08:57:44.405Z</time></trkpt><trkpt lat="52.2513717" lon="0.036295"><ele>22.0</ele><time>2026-05-02T08:57:45.405Z</time></trkpt><trkpt lat="52.2515433" lon="0.03594"><ele>22.0</ele><time>2026-05-02T08:57:46.405Z</time></trkpt><trkpt lat="52.2517133" lon="0.0355883"><ele>22.0</ele><time>2026-05-02T08:57:47.405Z</time></trkpt><trkpt lat="52.2518817" lon="0.0352383"><ele>22.0</ele><time>2026-05-02T08:57:48.406Z</time></trkpt><trkpt lat="52.25205" lon="0.03489"><ele>22.0</ele><time>2026-05-02T08:57:49.403Z</time></trkpt><trkpt lat="52.252215" lon="0.0345417"><ele>22.0</ele><time>2026-05-02T08:57:50.405Z</time></trkpt><trkpt lat="52.25238" lon="0.0341983"><ele>22.0</ele><time>2026-05-02T08:57:51.404Z</time></trkpt><trkpt lat="52.2525467" lon="0.0338567"><ele>22.0</ele><time>2026-05-02T08:57:52.405Z</time></trkpt><trkpt lat="52.2527167" lon="0.0335117"><ele>22.0</ele><time>2026-05-02T08:57:53.405Z</time></trkpt><trkpt lat="52.252885" lon="0.03317"><ele>22.0</ele><time>2026-05-02T08:57:54.406Z</time></trkpt><trkpt lat="52.253055" lon="0.0328283"><ele>21.5</ele><time>2026-05-02T08:57:55.404Z</time></trkpt><trkpt lat="52.2532217" lon="0.03248"><ele>21.0</ele><time>2026-05-02T08:57:56.405Z</time></trkpt><trkpt lat="52.253385" lon="0.03213"><ele>22.0</ele><time>2026-05-02T08:57:57.405Z</time></trkpt><trkpt lat="52.2535517" lon="0.0317817"><ele>23.0</ele><time>2026-05-02T08:57:58.405Z</time></trkpt><trkpt lat="52.253715" lon="0.0314367"><ele>23.5</ele><time>2026-05-02T08:57:59.404Z</time></trkpt><trkpt lat="52.2538817" lon="0.0310917"><ele>24.0</ele><time>2026-05-02T08:58:00.405Z</time></trkpt><trkpt lat="52.254045" lon="0.0307517"><ele>24.5</ele><time>2026-05-02T08:58:01.405Z</time></trkpt><trkpt lat="52.2542083" lon="0.030405"><ele>25.0</ele><time>2026-05-02T08:58:02.405Z</time></trkpt><trkpt lat="52.2543767" lon="0.0300533"><ele>25.0</ele><time>2026-05-02T08:58:03.405Z</time></trkpt><trkpt lat="52.2545433" lon="0.029705"><ele>25.0</ele><time>2026-05-02T08:58:04.404Z</time></trkpt><trkpt lat="52.2547083" lon="0.0293617"><ele>24.5</ele><time>2026-05-02T08:58:05.404Z</time></trkpt><trkpt lat="52.2548733" lon="0.02902"><ele>24.0</ele><time>2026-05-02T08:58:06.401Z</time></trkpt><trkpt lat="52.2550367" lon="0.0286817"><ele>24.0</ele><time>2026-05-02T08:58:07.401Z</time></trkpt><trkpt lat="52.2552017" lon="0.0283433"><ele>24.0</ele><time>2026-05-02T08:58:08.401Z</time></trkpt><trkpt lat="52.2553667" lon="0.0280033"><ele>24.0</ele><time>2026-05-02T08:58:09.404Z</time></trkpt><trkpt lat="52.2555317" lon="0.0276617"><ele>24.0</ele><time>2026-05-02T08:58:10.406Z</time></trkpt><trkpt lat="52.2556967" lon="0.027325"><ele>23.0</ele><time>2026-05-02T08:58:11.404Z</time></trkpt><trkpt lat="52.2558583" lon="0.0269867"><ele>22.0</ele><time>2026-05-02T08:58:12.404Z</time></trkpt><trkpt lat="52.25602" lon="0.0266467"><ele>22.5</ele><time>2026-05-02T08:58:13.404Z</time></trkpt><trkpt lat="52.2561833" lon="0.0263033"><ele>23.0</ele><time>2026-05-02T08:58:14.402Z</time></trkpt><trkpt lat="52.2563433" lon="0.0259633"><ele>23.5</ele><time>2026-05-02T08:58:15.403Z</time></trkpt><trkpt lat="52.2565" lon="0.025625"><ele>24.0</ele><time>2026-05-02T08:58:16.406Z</time></trkpt><trkpt lat="52.2566583" lon="0.0252867"><ele>24.0</ele><time>2026-05-02T08:58:17.401Z</time></trkpt><trkpt lat="52.25682" lon="0.024945"><ele>24.0</ele><time>2026-05-02T08:58:18.402Z</time></trkpt><trkpt lat="52.256985" lon="0.0246033"><ele>24.0</ele><time>2026-05-02T08:58:19.407Z</time></trkpt><trkpt lat="52.2571433" lon="0.02426"><ele>24.0</ele><time>2026-05-02T08:58:20.402Z</time></trkpt><trkpt lat="52.2573" lon="0.0239133"><ele>24.0</ele><time>2026-05-02T08:58:21.402Z</time></trkpt><trkpt lat="52.2574533" lon="0.023565"><ele>24.0</ele><time>2026-05-02T08:58:22.401Z</time></trkpt><trkpt lat="52.2576067" lon="0.0232217"><ele>23.5</ele><time>2026-05-02T08:58:23.402Z</time></trkpt><trkpt lat="52.25776" lon="0.0228783"><ele>23.0</ele><time>2026-05-02T08:58:24.402Z</time></trkpt><trkpt lat="52.2579133" lon="0.0225333"><ele>23.0</ele><time>2026-05-02T08:58:25.402Z</time></trkpt><trkpt lat="52.2580667" lon="0.0221867"><ele>23.0</ele><time>2026-05-02T08:58:26.403Z</time></trkpt><trkpt lat="52.2582233" lon="0.0218467"><ele>23.5</ele><time>2026-05-02T08:58:27.402Z</time></trkpt><trkpt lat="52.25838" lon="0.0215033"><ele>24.0</ele><time>2026-05-02T08:58:28.402Z</time></trkpt><trkpt lat="52.258535" lon="0.0211583"><ele>24.0</ele><time>2026-05-02T08:58:29.405Z</time></trkpt><trkpt lat="52.2586917" lon="0.0208117"><ele>24.0</ele><time>2026-05-02T08:58:30.403Z</time></trkpt><trkpt lat="52.2588433" lon="0.020465"><ele>24.0</ele><time>2026-05-02T08:58:31.405Z</time></trkpt><trkpt lat="52.258995" lon="0.020115"><ele>24.0</ele><time>2026-05-02T08:58:32.405Z</time></trkpt><trkpt lat="52.25915" lon="0.0197667"><ele>24.0</ele><time>2026-05-02T08:58:33.401Z</time></trkpt><trkpt lat="52.2593067" lon="0.0194133"><ele>24.0</ele><time>2026-05-02T08:58:34.406Z</time></trkpt><trkpt lat="52.2594617" lon="0.019055"><ele>24.0</ele><time>2026-05-02T08:58:35.405Z</time></trkpt><trkpt lat="52.25961" lon="0.018695"><ele>24.0</ele><time>2026-05-02T08:58:36.405Z</time></trkpt><trkpt lat="52.259755" lon="0.0183333"><ele>23.0</ele><time>2026-05-02T08:58:37.404Z</time></trkpt><trkpt lat="52.2598967" lon="0.0179667"><ele>22.0</ele><time>2026-05-02T08:58:38.405Z</time></trkpt><trkpt lat="52.2600367" lon="0.0175967"><ele>21.5</ele><time>2026-05-02T08:58:39.405Z</time></trkpt><trkpt lat="52.2601783" lon="0.0172233"><ele>21.0</ele><time>2026-05-02T08:58:40.406Z</time></trkpt><trkpt lat="52.2603167" lon="0.0168517"><ele>21.0</ele><time>2026-05-02T08:58:41.405Z</time></trkpt><trkpt lat="52.260455" lon="0.01648"><ele>21.0</ele><time>2026-05-02T08:58:42.404Z</time></trkpt><trkpt lat="52.2605917" lon="0.0161133"><ele>22.5</ele><time>2026-05-02T08:58:43.406Z</time></trkpt><trkpt lat="52.2607283" lon="0.0157433"><ele>24.0</ele><time>2026-05-02T08:58:44.408Z</time></trkpt><trkpt lat="52.2608667" lon="0.0153717"><ele>24.0</ele><time>2026-05-02T08:58:45.404Z</time></trkpt><trkpt lat="52.2610017" lon="0.015005"><ele>24.0</ele><time>2026-05-02T08:58:46.401Z</time></trkpt><trkpt lat="52.2611383" lon="0.0146367"><ele>24.0</ele><time>2026-05-02T08:58:47.405Z</time></trkpt><trkpt lat="52.2612717" lon="0.0142667"><ele>24.0</ele><time>2026-05-02T08:58:48.402Z</time></trkpt><trkpt lat="52.2614067" lon="0.0138983"><ele>22.5</ele><time>2026-05-02T08:58:49.401Z</time></trkpt><trkpt lat="52.26154" lon="0.01353"><ele>21.0</ele><time>2026-05-02T08:58:50.401Z</time></trkpt><trkpt lat="52.261675" lon="0.013165"><ele>20.5</ele><time>2026-05-02T08:58:51.402Z</time></trkpt><trkpt lat="52.2618133" lon="0.0127967"><ele>20.0</ele><time>2026-05-02T08:58:52.405Z</time></trkpt><trkpt lat="52.2619517" lon="0.0124433"><ele>19.5</ele><time>2026-05-02T08:58:53.402Z</time></trkpt><trkpt lat="52.262095" lon="0.0120917"><ele>19.0</ele><time>2026-05-02T08:58:54.401Z</time></trkpt><trkpt lat="52.262245" lon="0.01174"><ele>19.5</ele><time>2026-05-02T08:58:55.405Z</time></trkpt><trkpt lat="52.262395" lon="0.011385"><ele>20.0</ele><time>2026-05-02T08:58:56.405Z</time></trkpt><trkpt lat="52.262545" lon="0.011035"><ele>19.5</ele><time>2026-05-02T08:58:57.403Z</time></trkpt><trkpt lat="52.2626967" lon="0.0106883"><ele>19.0</ele><time>2026-05-02T08:58:58.402Z</time></trkpt><trkpt lat="52.2628517" lon="0.0103467"><ele>19.0</ele><time>2026-05-02T08:58:59.405Z</time></trkpt><trkpt lat="52.2630133" lon="0.0099983"><ele>19.0</ele><time>2026-05-02T08:59:00.405Z</time></trkpt><trkpt lat="52.2631717" lon="0.0096533"><ele>19.0</ele><time>2026-05-02T08:59:01.403Z</time></trkpt><trkpt lat="52.26333" lon="0.0093017"><ele>19.0</ele><time>2026-05-02T08:59:02.404Z</time></trkpt><trkpt lat="52.2634833" lon="0.0089517"><ele>19.0</ele><time>2026-05-02T08:59:03.403Z</time></trkpt><trkpt lat="52.263635" lon="0.0086017"><ele>19.0</ele><time>2026-05-02T08:59:04.404Z</time></trkpt><trkpt lat="52.2637867" lon="0.0082517"><ele>19.0</ele><time>2026-05-02T08:59:05.404Z</time></trkpt><trkpt lat="52.2639367" lon="0.0078967"><ele>19.0</ele><time>2026-05-02T08:59:06.407Z</time></trkpt><trkpt lat="52.264085" lon="0.0075417"><ele>18.5</ele><time>2026-05-02T08:59:07.403Z</time></trkpt><trkpt lat="52.2642367" lon="0.0071867"><ele>18.0</ele><time>2026-05-02T08:59:08.404Z</time></trkpt><trkpt lat="52.2643867" lon="0.0068283"><ele>18.0</ele><time>2026-05-02T08:59:09.402Z</time></trkpt><trkpt lat="52.2645417" lon="0.00647"><ele>18.0</ele><time>2026-05-02T08:59:10.403Z</time></trkpt><trkpt lat="52.2646967" lon="0.00612"><ele>17.5</ele><time>2026-05-02T08:59:11.406Z</time></trkpt><trkpt lat="52.264855" lon="0.0057683"><ele>17.0</ele><time>2026-05-02T08:59:12.405Z</time></trkpt><trkpt lat="52.2650083" lon="0.0054167"><ele>17.0</ele><time>2026-05-02T08:59:13.407Z</time></trkpt><trkpt lat="52.265165" lon="0.0050633"><ele>17.0</ele><time>2026-05-02T08:59:14.406Z</time></trkpt><trkpt lat="52.26532" lon="0.00471"><ele>16.5</ele><time>2026-05-02T08:59:15.406Z</time></trkpt><trkpt lat="52.2654733" lon="0.0043583"><ele>16.0</ele><time>2026-05-02T08:59:16.406Z</time></trkpt><trkpt lat="52.265625" lon="0.004005"><ele>16.0</ele><time>2026-05-02T08:59:17.405Z</time></trkpt><trkpt lat="52.2657767" lon="0.0036517"><ele>16.0</ele><time>2026-05-02T08:59:18.405Z</time></trkpt><trkpt lat="52.2659317" lon="0.0033033"><ele>16.0</ele><time>2026-05-02T08:59:19.406Z</time></trkpt><trkpt lat="52.2660833" lon="0.002955"><ele>16.0</ele><time>2026-05-02T08:59:20.406Z</time></trkpt><trkpt lat="52.26623" lon="0.0026133"><ele>16.0</ele><time>2026-05-02T08:59:21.405Z</time></trkpt><trkpt lat="52.26638" lon="0.00227"><ele>16.0</ele><time>2026-05-02T08:59:22.401Z</time></trkpt><trkpt lat="52.266535" lon="0.0019233"><ele>16.0</ele><time>2026-05-02T08:59:23.402Z</time></trkpt><trkpt lat="52.2666867" lon="0.0015767"><ele>16.0</ele><time>2026-05-02T08:59:24.406Z</time></trkpt><trkpt lat="52.2668383" lon="0.00123"><ele>16.0</ele><time>2026-05-02T08:59:25.406Z</time></trkpt><trkpt lat="52.266995" lon="8.75E-4"><ele>16.0</ele><time>2026-05-02T08:59:26.406Z</time></trkpt><trkpt lat="52.267145" lon="5.233E-4"><ele>16.0</ele><time>2026-05-02T08:59:27.405Z</time></trkpt><trkpt lat="52.2672983" lon="1.717E-4"><ele>16.0</ele><time>2026-05-02T08:59:28.401Z</time></trkpt><trkpt lat="52.2674533" lon="-1.817E-4"><ele>16.0</ele><time>2026-05-02T08:59:29.405Z</time></trkpt><trkpt lat="52.267605" lon="-5.35E-4"><ele>16.0</ele><time>2026-05-02T08:59:30.402Z</time></trkpt><trkpt lat="52.2677567" lon="-8.867E-4"><ele>16.0</ele><time>2026-05-02T08:59:31.405Z</time></trkpt><trkpt lat="52.2679133" lon="-0.0012383"><ele>16.0</ele><time>2026-05-02T08:59:32.403Z</time></trkpt><trkpt lat="52.26807" lon="-0.001595"><ele>16.0</ele><time>2026-05-02T08:59:33.401Z</time></trkpt><trkpt lat="52.2682233" lon="-0.0019467"><ele>16.0</ele><time>2026-05-02T08:59:34.405Z</time></trkpt><trkpt lat="52.2683767" lon="-0.0022967"><ele>15.5</ele><time>2026-05-02T08:59:35.406Z</time></trkpt><trkpt lat="52.26853" lon="-0.0026467"><ele>15.0</ele><time>2026-05-02T08:59:36.404Z</time></trkpt><trkpt lat="52.2686883" lon="-0.0029983"><ele>15.0</ele><time>2026-05-02T08:59:37.404Z</time></trkpt><trkpt lat="52.268845" lon="-0.0033467"><ele>15.0</ele><time>2026-05-02T08:59:38.406Z</time></trkpt><trkpt lat="52.269" lon="-0.003695"><ele>15.5</ele><time>2026-05-02T08:59:39.405Z</time></trkpt><trkpt lat="52.2691517" lon="-0.0040467"><ele>16.0</ele><time>2026-05-02T08:59:40.406Z</time></trkpt><trkpt lat="52.269305" lon="-0.0043967"><ele>16.0</ele><time>2026-05-02T08:59:41.406Z</time></trkpt><trkpt lat="52.269455" lon="-0.004745"><ele>16.0</ele><time>2026-05-02T08:59:42.406Z</time></trkpt><trkpt lat="52.2696067" lon="-0.0050933"><ele>16.0</ele><time>2026-05-02T08:59:43.406Z</time></trkpt><trkpt lat="52.2697567" lon="-0.0054367"><ele>16.0</ele><time>2026-05-02T08:59:44.406Z</time></trkpt><trkpt lat="52.26991" lon="-0.0057767"><ele>16.5</ele><time>2026-05-02T08:59:45.406Z</time></trkpt><trkpt lat="52.27006" lon="-0.006115"><ele>17.0</ele><time>2026-05-02T08:59:46.405Z</time></trkpt><trkpt lat="52.2702117" lon="-0.0064583"><ele>17.5</ele><time>2026-05-02T08:59:47.406Z</time></trkpt><trkpt lat="52.2703717" lon="-0.0068133"><ele>18.0</ele><time>2026-05-02T08:59:48.406Z</time></trkpt><trkpt lat="52.2705267" lon="-0.0071667"><ele>18.5</ele><time>2026-05-02T08:59:49.405Z</time></trkpt><trkpt lat="52.2706783" lon="-0.0075233"><ele>19.0</ele><time>2026-05-02T08:59:50.405Z</time></trkpt><trkpt lat="52.2708283" lon="-0.0078817"><ele>19.0</ele><time>2026-05-02T08:59:51.406Z</time></trkpt><trkpt lat="52.2709817" lon="-0.0082383"><ele>19.0</ele><time>2026-05-02T08:59:52.402Z</time></trkpt><trkpt lat="52.271135" lon="-0.0085917"><ele>18.5</ele><time>2026-05-02T08:59:53.402Z</time></trkpt><trkpt lat="52.2712917" lon="-0.0089417"><ele>18.0</ele><time>2026-05-02T08:59:54.405Z</time></trkpt><trkpt lat="52.271445" lon="-0.00929"><ele>17.5</ele><time>2026-05-02T08:59:55.403Z</time></trkpt><trkpt lat="52.2715983" lon="-0.0096367"><ele>17.0</ele><time>2026-05-02T08:59:56.406Z</time></trkpt><trkpt lat="52.271755" lon="-0.009985"><ele>17.0</ele><time>2026-05-02T08:59:57.401Z</time></trkpt><trkpt lat="52.2719083" lon="-0.0103367"><ele>17.0</ele><time>2026-05-02T08:59:58.405Z</time></trkpt><trkpt lat="52.2720633" lon="-0.0106883"><ele>17.5</ele><time>2026-05-02T08:59:59.402Z</time></trkpt><trkpt lat="52.27222" lon="-0.01105"><ele>18.0</ele><time>2026-05-02T09:00:00.402Z</time></trkpt><trkpt lat="52.27238" lon="-0.01142"><ele>18.5</ele><time>2026-05-02T09:00:01.402Z</time></trkpt><trkpt lat="52.2725417" lon="-0.0118"><ele>19.0</ele><time>2026-05-02T09:00:02.404Z</time></trkpt><trkpt lat="52.2727017" lon="-0.0121867"><ele>19.5</ele><time>2026-05-02T09:00:03.404Z</time></trkpt><trkpt lat="52.2728567" lon="-0.0125767"><ele>20.0</ele><time>2026-05-02T09:00:04.403Z</time></trkpt><trkpt lat="52.2730133" lon="-0.0129583"><ele>19.5</ele><time>2026-05-02T09:00:05.403Z</time></trkpt><trkpt lat="52.273175" lon="-0.0133283"><ele>19.0</ele><time>2026-05-02T09:00:06.406Z</time></trkpt><trkpt lat="52.2733367" lon="-0.0136933"><ele>19.0</ele><time>2026-05-02T09:00:07.403Z</time></trkpt><trkpt lat="52.273495" lon="-0.01405"><ele>19.0</ele><time>2026-05-02T09:00:08.405Z</time></trkpt><trkpt lat="52.273655" lon="-0.0144083"><ele>19.0</ele><time>2026-05-02T09:00:09.406Z</time></trkpt><trkpt lat="52.273815" lon="-0.0147583"><ele>19.0</ele><time>2026-05-02T09:00:10.406Z</time></trkpt><trkpt lat="52.2739783" lon="-0.015105"><ele>20.0</ele><time>2026-05-02T09:00:11.405Z</time></trkpt><trkpt lat="52.2741367" lon="-0.0154517"><ele>21.0</ele><time>2026-05-02T09:00:12.406Z</time></trkpt><trkpt lat="52.2742933" lon="-0.0158"><ele>20.5</ele><time>2026-05-02T09:00:13.405Z</time></trkpt><trkpt lat="52.27445" lon="-0.01615"><ele>20.0</ele><time>2026-05-02T09:00:14.403Z</time></trkpt><trkpt lat="52.2746067" lon="-0.0165"><ele>20.5</ele><time>2026-05-02T09:00:15.403Z</time></trkpt><trkpt lat="52.2747633" lon="-0.0168517"><ele>21.0</ele><time>2026-05-02T09:00:16.405Z</time></trkpt><trkpt lat="52.27492" lon="-0.017205"><ele>21.0</ele><time>2026-05-02T09:00:17.406Z</time></trkpt><trkpt lat="52.2750767" lon="-0.0175567"><ele>21.0</ele><time>2026-05-02T09:00:18.405Z</time></trkpt><trkpt lat="52.2752333" lon="-0.0179017"><ele>21.0</ele><time>2026-05-02T09:00:19.401Z</time></trkpt><trkpt lat="52.2753933" lon="-0.0182483"><ele>21.0</ele><time>2026-05-02T09:00:20.402Z</time></trkpt><trkpt lat="52.2755517" lon="-0.0185967"><ele>20.5</ele><time>2026-05-02T09:00:21.404Z</time></trkpt><trkpt lat="52.2757133" lon="-0.018945"><ele>20.0</ele><time>2026-05-02T09:00:22.404Z</time></trkpt><trkpt lat="52.275875" lon="-0.019295"><ele>20.0</ele><time>2026-05-02T09:00:23.406Z</time></trkpt><trkpt lat="52.2760317" lon="-0.0196417"><ele>20.0</ele><time>2026-05-02T09:00:24.406Z</time></trkpt><trkpt lat="52.2761883" lon="-0.01999"><ele>20.0</ele><time>2026-05-02T09:00:25.405Z</time></trkpt><trkpt lat="52.27634" lon="-0.02034"><ele>20.0</ele><time>2026-05-02T09:00:26.406Z</time></trkpt><trkpt lat="52.2764917" lon="-0.02069"><ele>20.5</ele><time>2026-05-02T09:00:27.405Z</time></trkpt><trkpt lat="52.2766433" lon="-0.0210467"><ele>21.0</ele><time>2026-05-02T09:00:28.406Z</time></trkpt><trkpt lat="52.2767917" lon="-0.0214033"><ele>21.5</ele><time>2026-05-02T09:00:29.403Z</time></trkpt><trkpt lat="52.27694" lon="-0.0217683"><ele>22.0</ele><time>2026-05-02T09:00:30.402Z</time></trkpt><trkpt lat="52.2770867" lon="-0.0221367"><ele>21.5</ele><time>2026-05-02T09:00:31.404Z</time></trkpt><trkpt lat="52.277235" lon="-0.0225"><ele>21.0</ele><time>2026-05-02T09:00:32.406Z</time></trkpt><trkpt lat="52.2773867" lon="-0.0228617"><ele>20.0</ele><time>2026-05-02T09:00:33.403Z</time></trkpt><trkpt lat="52.2775367" lon="-0.0232217"><ele>19.0</ele><time>2026-05-02T09:00:34.404Z</time></trkpt><trkpt lat="52.2776833" lon="-0.02358"><ele>19.0</ele><time>2026-05-02T09:00:35.405Z</time></trkpt><trkpt lat="52.2778333" lon="-0.0239417"><ele>19.0</ele><time>2026-05-02T09:00:36.406Z</time></trkpt><trkpt lat="52.2779833" lon="-0.0243033"><ele>18.0</ele><time>2026-05-02T09:00:37.408Z</time></trkpt><trkpt lat="52.27813" lon="-0.0246633"><ele>17.0</ele><time>2026-05-02T09:00:38.403Z</time></trkpt><trkpt lat="52.278275" lon="-0.0250233"><ele>16.0</ele><time>2026-05-02T09:00:39.403Z</time></trkpt><trkpt lat="52.2784217" lon="-0.0253817"><ele>15.0</ele><time>2026-05-02T09:00:40.402Z</time></trkpt><trkpt lat="52.2785667" lon="-0.0257367"><ele>15.5</ele><time>2026-05-02T09:00:41.406Z</time></trkpt><trkpt lat="52.2787133" lon="-0.026095"><ele>16.0</ele><time>2026-05-02T09:00:42.401Z</time></trkpt><trkpt lat="52.2788617" lon="-0.02646"><ele>16.5</ele><time>2026-05-02T09:00:43.406Z</time></trkpt><trkpt lat="52.2790083" lon="-0.0268233"><ele>17.0</ele><time>2026-05-02T09:00:44.406Z</time></trkpt><trkpt lat="52.2791567" lon="-0.027185"><ele>17.5</ele><time>2026-05-02T09:00:45.406Z</time></trkpt><trkpt lat="52.279305" lon="-0.0275433"><ele>18.0</ele><time>2026-05-02T09:00:46.405Z</time></trkpt><trkpt lat="52.27946" lon="-0.0278967"><ele>18.0</ele><time>2026-05-02T09:00:47.401Z</time></trkpt><trkpt lat="52.2796133" lon="-0.0282467"><ele>18.0</ele><time>2026-05-02T09:00:48.405Z</time></trkpt><trkpt lat="52.2797717" lon="-0.028595"><ele>18.0</ele><time>2026-05-02T09:00:49.401Z</time></trkpt><trkpt lat="52.2799283" lon="-0.02894"><ele>18.0</ele><time>2026-05-02T09:00:50.406Z</time></trkpt><trkpt lat="52.280085" lon="-0.0292883"><ele>18.0</ele><time>2026-05-02T09:00:51.405Z</time></trkpt><trkpt lat="52.28024" lon="-0.0296433"><ele>18.0</ele><time>2026-05-02T09:00:52.405Z</time></trkpt><trkpt lat="52.2804" lon="-0.0299983"><ele>17.5</ele><time>2026-05-02T09:00:53.406Z</time></trkpt><trkpt lat="52.28056" lon="-0.030345"><ele>17.0</ele><time>2026-05-02T09:00:54.402Z</time></trkpt><trkpt lat="52.28072" lon="-0.0306933"><ele>18.0</ele><time>2026-05-02T09:00:55.405Z</time></trkpt><trkpt lat="52.28088" lon="-0.0310417"><ele>19.0</ele><time>2026-05-02T09:00:56.405Z</time></trkpt><trkpt lat="52.281035" lon="-0.03139"><ele>19.0</ele><time>2026-05-02T09:00:57.401Z</time></trkpt><trkpt lat="52.2811917" lon="-0.03174"><ele>19.0</ele><time>2026-05-02T09:00:58.405Z</time></trkpt><trkpt lat="52.2813483" lon="-0.03209"><ele>17.5</ele><time>2026-05-02T09:00:59.406Z</time></trkpt><trkpt lat="52.2815067" lon="-0.03244"><ele>16.0</ele><time>2026-05-02T09:01:00.405Z</time></trkpt><trkpt lat="52.2816567" lon="-0.03279"><ele>16.0</ele><time>2026-05-02T09:01:01.401Z</time></trkpt><trkpt lat="52.2818033" lon="-0.033145"><ele>16.0</ele><time>2026-05-02T09:01:02.402Z</time></trkpt><trkpt lat="52.2819467" lon="-0.0335083"><ele>16.0</ele><time>2026-05-02T09:01:03.402Z</time></trkpt><trkpt lat="52.2820883" lon="-0.0338717"><ele>16.0</ele><time>2026-05-02T09:01:04.402Z</time></trkpt><trkpt lat="52.28223" lon="-0.034235"><ele>16.0</ele><time>2026-05-02T09:01:05.402Z</time></trkpt><trkpt lat="52.2823733" lon="-0.034605"><ele>16.0</ele><time>2026-05-02T09:01:06.406Z</time></trkpt><trkpt lat="52.282515" lon="-0.0349767"><ele>16.0</ele><time>2026-05-02T09:01:07.402Z</time></trkpt><trkpt lat="52.28265" lon="-0.0353517"><ele>16.0</ele><time>2026-05-02T09:01:08.406Z</time></trkpt><trkpt lat="52.28278" lon="-0.0357283"><ele>16.0</ele><time>2026-05-02T09:01:09.403Z</time></trkpt><trkpt lat="52.2829083" lon="-0.0361067"><ele>16.0</ele><time>2026-05-02T09:01:10.405Z</time></trkpt><trkpt lat="52.2830367" lon="-0.036485"><ele>15.5</ele><time>2026-05-02T09:01:11.404Z</time></trkpt><trkpt lat="52.2831667" lon="-0.0368683"><ele>15.0</ele><time>2026-05-02T09:01:12.404Z</time></trkpt><trkpt lat="52.2832917" lon="-0.03725"><ele>14.5</ele><time>2026-05-02T09:01:13.406Z</time></trkpt><trkpt lat="52.2834133" lon="-0.0376333"><ele>14.0</ele><time>2026-05-02T09:01:14.402Z</time></trkpt><trkpt lat="52.2835333" lon="-0.03802"><ele>13.5</ele><time>2026-05-02T09:01:15.404Z</time></trkpt><trkpt lat="52.28365" lon="-0.0384133"><ele>13.0</ele><time>2026-05-02T09:01:16.404Z</time></trkpt><trkpt lat="52.2837633" lon="-0.0388083"><ele>13.5</ele><time>2026-05-02T09:01:17.403Z</time></trkpt><trkpt lat="52.2838717" lon="-0.039205"><ele>14.0</ele><time>2026-05-02T09:01:18.404Z</time></trkpt><trkpt lat="52.2839733" lon="-0.0396017"><ele>13.0</ele><time>2026-05-02T09:01:19.403Z</time></trkpt><trkpt lat="52.284075" lon="-0.0400017"><ele>12.0</ele><time>2026-05-02T09:01:20.404Z</time></trkpt><trkpt lat="52.2841767" lon="-0.0404"><ele>12.0</ele><time>2026-05-02T09:01:21.403Z</time></trkpt><trkpt lat="52.2842767" lon="-0.0408"><ele>12.0</ele><time>2026-05-02T09:01:22.402Z</time></trkpt><trkpt lat="52.2843783" lon="-0.0412017"><ele>12.0</ele><time>2026-05-02T09:01:23.404Z</time></trkpt><trkpt lat="52.2844783" lon="-0.0416"><ele>12.0</ele><time>2026-05-02T09:01:24.404Z</time></trkpt><trkpt lat="52.284575" lon="-0.0420017"><ele>12.5</ele><time>2026-05-02T09:01:25.406Z</time></trkpt><trkpt lat="52.2846667" lon="-0.0424033"><ele>13.0</ele><time>2026-05-02T09:01:26.402Z</time></trkpt><trkpt lat="52.2847583" lon="-0.0428117"><ele>12.5</ele><time>2026-05-02T09:01:27.405Z</time></trkpt><trkpt lat="52.2848467" lon="-0.043225"><ele>12.0</ele><time>2026-05-02T09:01:28.402Z</time></trkpt><trkpt lat="52.2849333" lon="-0.0436417"><ele>12.0</ele><time>2026-05-02T09:01:29.403Z</time></trkpt><trkpt lat="52.2850183" lon="-0.04406"><ele>12.0</ele><time>2026-05-02T09:01:30.402Z</time></trkpt><trkpt lat="52.2851" lon="-0.044475"><ele>12.0</ele><time>2026-05-02T09:01:31.401Z</time></trkpt><trkpt lat="52.28518" lon="-0.0448883"><ele>12.0</ele><time>2026-05-02T09:01:32.403Z</time></trkpt><trkpt lat="52.2852567" lon="-0.0453017"><ele>12.0</ele><time>2026-05-02T09:01:33.405Z</time></trkpt><trkpt lat="52.2853317" lon="-0.0457167"><ele>12.0</ele><time>2026-05-02T09:01:34.403Z</time></trkpt><trkpt lat="52.2854033" lon="-0.04613"><ele>12.0</ele><time>2026-05-02T09:01:35.401Z</time></trkpt><trkpt lat="52.285475" lon="-0.0465467"><ele>12.0</ele><time>2026-05-02T09:01:36.402Z</time></trkpt><trkpt lat="52.2855467" lon="-0.046965"><ele>11.5</ele><time>2026-05-02T09:01:37.401Z</time></trkpt><trkpt lat="52.2856167" lon="-0.047385"><ele>11.0</ele><time>2026-05-02T09:01:38.404Z</time></trkpt><trkpt lat="52.2856867" lon="-0.0478017"><ele>11.0</ele><time>2026-05-02T09:01:39.403Z</time></trkpt><trkpt lat="52.2857583" lon="-0.0482183"><ele>11.0</ele><time>2026-05-02T09:01:40.402Z</time></trkpt><trkpt lat="52.2858283" lon="-0.0486367"><ele>11.0</ele><time>2026-05-02T09:01:41.406Z</time></trkpt><trkpt lat="52.2859017" lon="-0.049055"><ele>11.0</ele><time>2026-05-02T09:01:42.404Z</time></trkpt><trkpt lat="52.2859767" lon="-0.0494683"><ele>11.5</ele><time>2026-05-02T09:01:43.406Z</time></trkpt><trkpt lat="52.2860533" lon="-0.0498867"><ele>12.0</ele><time>2026-05-02T09:01:44.406Z</time></trkpt><trkpt lat="52.2861267" lon="-0.0503033"><ele>12.0</ele><time>2026-05-02T09:01:45.405Z</time></trkpt><trkpt lat="52.286195" lon="-0.0507233"><ele>12.0</ele><time>2026-05-02T09:01:46.406Z</time></trkpt><trkpt lat="52.2862633" lon="-0.05114"><ele>12.0</ele><time>2026-05-02T09:01:47.401Z</time></trkpt><trkpt lat="52.2863317" lon="-0.05156"><ele>12.0</ele><time>2026-05-02T09:01:48.406Z</time></trkpt><trkpt lat="52.2863983" lon="-0.0519817"><ele>12.0</ele><time>2026-05-02T09:01:49.405Z</time></trkpt><trkpt lat="52.2864667" lon="-0.0524033"><ele>12.0</ele><time>2026-05-02T09:01:50.402Z</time></trkpt><trkpt lat="52.2865333" lon="-0.05282"><ele>11.5</ele><time>2026-05-02T09:01:51.405Z</time></trkpt><trkpt lat="52.2866" lon="-0.0532383"><ele>11.0</ele><time>2026-05-02T09:01:52.406Z</time></trkpt><trkpt lat="52.2866633" lon="-0.0536517"><ele>11.0</ele><time>2026-05-02T09:01:53.406Z</time></trkpt><trkpt lat="52.2867283" lon="-0.05407"><ele>11.0</ele><time>2026-05-02T09:01:54.405Z</time></trkpt><trkpt lat="52.2867933" lon="-0.0544917"><ele>11.0</ele><time>2026-05-02T09:01:55.405Z</time></trkpt><trkpt lat="52.2868583" lon="-0.0549083"><ele>11.0</ele><time>2026-05-02T09:01:56.406Z</time></trkpt><trkpt lat="52.2869233" lon="-0.0553267"><ele>11.0</ele><time>2026-05-02T09:01:57.405Z</time></trkpt><trkpt lat="52.2869883" lon="-0.0557417"><ele>11.0</ele><time>2026-05-02T09:01:58.401Z</time></trkpt><trkpt lat="52.2870533" lon="-0.05616"><ele>11.5</ele><time>2026-05-02T09:01:59.403Z</time></trkpt><trkpt lat="52.287115" lon="-0.0565817"><ele>12.0</ele><time>2026-05-02T09:02:00.403Z</time></trkpt><trkpt lat="52.2871767" lon="-0.0570033"><ele>12.5</ele><time>2026-05-02T09:02:01.402Z</time></trkpt><trkpt lat="52.2872383" lon="-0.0574267"><ele>13.0</ele><time>2026-05-02T09:02:02.402Z</time></trkpt><trkpt lat="52.2873" lon="-0.0578483"><ele>14.5</ele><time>2026-05-02T09:02:03.402Z</time></trkpt><trkpt lat="52.2873633" lon="-0.0582717"><ele>16.0</ele><time>2026-05-02T09:02:04.402Z</time></trkpt><trkpt lat="52.287425" lon="-0.058695"><ele>15.5</ele><time>2026-05-02T09:02:05.401Z</time></trkpt><trkpt lat="52.2874833" lon="-0.05912"><ele>15.0</ele><time>2026-05-02T09:02:06.402Z</time></trkpt><trkpt lat="52.2875417" lon="-0.059545"><ele>14.5</ele><time>2026-05-02T09:02:07.402Z</time></trkpt><trkpt lat="52.2876" lon="-0.05997"><ele>14.0</ele><time>2026-05-02T09:02:08.402Z</time></trkpt><trkpt lat="52.2876567" lon="-0.0603917"><ele>13.5</ele><time>2026-05-02T09:02:09.401Z</time></trkpt><trkpt lat="52.2877133" lon="-0.060815"><ele>13.0</ele><time>2026-05-02T09:02:10.402Z</time></trkpt><trkpt lat="52.28777" lon="-0.0612367"><ele>12.5</ele><time>2026-05-02T09:02:11.402Z</time></trkpt><trkpt lat="52.2878283" lon="-0.0616567"><ele>12.0</ele><time>2026-05-02T09:02:12.405Z</time></trkpt><trkpt lat="52.2878867" lon="-0.0620767"><ele>12.0</ele><time>2026-05-02T09:02:13.406Z</time></trkpt><trkpt lat="52.287945" lon="-0.0625017"><ele>12.0</ele><time>2026-05-02T09:02:14.405Z</time></trkpt><trkpt lat="52.2880033" lon="-0.0629217"><ele>12.5</ele><time>2026-05-02T09:02:15.403Z</time></trkpt><trkpt lat="52.2880583" lon="-0.0633367"><ele>13.0</ele><time>2026-05-02T09:02:16.405Z</time></trkpt><trkpt lat="52.2881117" lon="-0.063745"><ele>12.5</ele><time>2026-05-02T09:02:17.406Z</time></trkpt><trkpt lat="52.28816" lon="-0.0641517"><ele>12.0</ele><time>2026-05-02T09:02:18.402Z</time></trkpt><trkpt lat="52.28821" lon="-0.064555"><ele>11.5</ele><time>2026-05-02T09:02:19.405Z</time></trkpt><trkpt lat="52.2882583" lon="-0.06496"><ele>11.0</ele><time>2026-05-02T09:02:20.406Z</time></trkpt><trkpt lat="52.2883083" lon="-0.0653633"><ele>11.0</ele><time>2026-05-02T09:02:21.403Z</time></trkpt><trkpt lat="52.2883583" lon="-0.06577"><ele>11.0</ele><time>2026-05-02T09:02:22.407Z</time></trkpt><trkpt lat="52.2884083" lon="-0.066175"><ele>11.0</ele><time>2026-05-02T09:02:23.406Z</time></trkpt><trkpt lat="52.288455" lon="-0.066585"><ele>11.0</ele><time>2026-05-02T09:02:24.405Z</time></trkpt><trkpt lat="52.2885033" lon="-0.0669983"><ele>11.0</ele><time>2026-05-02T09:02:25.407Z</time></trkpt><trkpt lat="52.2885517" lon="-0.0674133"><ele>11.0</ele><time>2026-05-02T09:02:26.405Z</time></trkpt><trkpt lat="52.2886" lon="-0.06782"><ele>11.0</ele><time>2026-05-02T09:02:27.406Z</time></trkpt><trkpt lat="52.2886483" lon="-0.0682317"><ele>11.0</ele><time>2026-05-02T09:02:28.405Z</time></trkpt><trkpt lat="52.288695" lon="-0.068645"><ele>11.5</ele><time>2026-05-02T09:02:29.405Z</time></trkpt><trkpt lat="52.28874" lon="-0.06906"><ele>12.0</ele><time>2026-05-02T09:02:30.406Z</time></trkpt><trkpt lat="52.288785" lon="-0.069475"><ele>12.0</ele><time>2026-05-02T09:02:31.406Z</time></trkpt><trkpt lat="52.2888283" lon="-0.0698817"><ele>12.0</ele><time>2026-05-02T09:02:32.402Z</time></trkpt><trkpt lat="52.2888733" lon="-0.0702867"><ele>11.5</ele><time>2026-05-02T09:02:33.401Z</time></trkpt><trkpt lat="52.2889167" lon="-0.0706833"><ele>11.0</ele><time>2026-05-02T09:02:34.402Z</time></trkpt><trkpt lat="52.28896" lon="-0.0710767"><ele>11.0</ele><time>2026-05-02T09:02:35.401Z</time></trkpt><trkpt lat="52.2890033" lon="-0.07147"><ele>11.0</ele><time>2026-05-02T09:02:36.402Z</time></trkpt><trkpt lat="52.2890467" lon="-0.07186"><ele>11.0</ele><time>2026-05-02T09:02:37.402Z</time></trkpt><trkpt lat="52.2890917" lon="-0.07225"><ele>11.0</ele><time>2026-05-02T09:02:38.402Z</time></trkpt><trkpt lat="52.2891367" lon="-0.072635"><ele>11.0</ele><time>2026-05-02T09:02:39.402Z</time></trkpt><trkpt lat="52.2891817" lon="-0.0730267"><ele>11.0</ele><time>2026-05-02T09:02:40.403Z</time></trkpt><trkpt lat="52.2892267" lon="-0.0734217"><ele>11.0</ele><time>2026-05-02T09:02:41.402Z</time></trkpt><trkpt lat="52.2892683" lon="-0.0738183"><ele>11.0</ele><time>2026-05-02T09:02:42.402Z</time></trkpt><trkpt lat="52.28931" lon="-0.0742133"><ele>11.0</ele><time>2026-05-02T09:02:43.408Z</time></trkpt><trkpt lat="52.2893517" lon="-0.0746083"><ele>11.0</ele><time>2026-05-02T09:02:44.405Z</time></trkpt><trkpt lat="52.2893917" lon="-0.075005"><ele>11.0</ele><time>2026-05-02T09:02:45.405Z</time></trkpt><trkpt lat="52.2894333" lon="-0.0754017"><ele>11.0</ele><time>2026-05-02T09:02:46.406Z</time></trkpt><trkpt lat="52.2894733" lon="-0.075795"><ele>11.0</ele><time>2026-05-02T09:02:47.406Z</time></trkpt><trkpt lat="52.2895117" lon="-0.0761867"><ele>11.0</ele><time>2026-05-02T09:02:48.404Z</time></trkpt><trkpt lat="52.28955" lon="-0.07658"><ele>11.0</ele><time>2026-05-02T09:02:49.405Z</time></trkpt><trkpt lat="52.2895933" lon="-0.0769733"><ele>11.0</ele><time>2026-05-02T09:02:50.405Z</time></trkpt><trkpt lat="52.2896367" lon="-0.07737"><ele>10.5</ele><time>2026-05-02T09:02:51.407Z</time></trkpt><trkpt lat="52.28968" lon="-0.0777633"><ele>10.0</ele><time>2026-05-02T09:02:52.401Z</time></trkpt><trkpt lat="52.289725" lon="-0.0781583"><ele>9.5</ele><time>2026-05-02T09:02:53.401Z</time></trkpt><trkpt lat="52.2897717" lon="-0.0785567"><ele>9.0</ele><time>2026-05-02T09:02:54.405Z</time></trkpt><trkpt lat="52.289815" lon="-0.078955"><ele>8.5</ele><time>2026-05-02T09:02:55.406Z</time></trkpt><trkpt lat="52.28986" lon="-0.0793567"><ele>8.0</ele><time>2026-05-02T09:02:56.402Z</time></trkpt><trkpt lat="52.2899" lon="-0.0797533"><ele>8.0</ele><time>2026-05-02T09:02:57.405Z</time></trkpt><trkpt lat="52.2899383" lon="-0.080145"><ele>8.0</ele><time>2026-05-02T09:02:58.404Z</time></trkpt><trkpt lat="52.2899783" lon="-0.0805383"><ele>8.0</ele><time>2026-05-02T09:02:59.404Z</time></trkpt><trkpt lat="52.290015" lon="-0.08093"><ele>8.0</ele><time>2026-05-02T09:03:00.405Z</time></trkpt><trkpt lat="52.290055" lon="-0.0813217"><ele>8.5</ele><time>2026-05-02T09:03:01.406Z</time></trkpt><trkpt lat="52.2900933" lon="-0.0817167"><ele>9.0</ele><time>2026-05-02T09:03:02.402Z</time></trkpt><trkpt lat="52.2901317" lon="-0.0821117"><ele>9.0</ele><time>2026-05-02T09:03:03.401Z</time></trkpt><trkpt lat="52.290165" lon="-0.0825033"><ele>9.0</ele><time>2026-05-02T09:03:04.402Z</time></trkpt><trkpt lat="52.2902017" lon="-0.082895"><ele>9.0</ele><time>2026-05-02T09:03:05.403Z</time></trkpt><trkpt lat="52.290235" lon="-0.0832883"><ele>9.0</ele><time>2026-05-02T09:03:06.403Z</time></trkpt><trkpt lat="52.2902717" lon="-0.08368"><ele>9.0</ele><time>2026-05-02T09:03:07.403Z</time></trkpt><trkpt lat="52.29031" lon="-0.0840733"><ele>9.0</ele><time>2026-05-02T09:03:08.402Z</time></trkpt><trkpt lat="52.2903467" lon="-0.0844667"><ele>9.0</ele><time>2026-05-02T09:03:09.403Z</time></trkpt><trkpt lat="52.2903833" lon="-0.0848617"><ele>9.0</ele><time>2026-05-02T09:03:10.406Z</time></trkpt><trkpt lat="52.2904217" lon="-0.085255"><ele>8.5</ele><time>2026-05-02T09:03:11.403Z</time></trkpt><trkpt lat="52.29046" lon="-0.08565"><ele>8.0</ele><time>2026-05-02T09:03:12.406Z</time></trkpt><trkpt lat="52.2904983" lon="-0.0860483"><ele>8.0</ele><time>2026-05-02T09:03:13.401Z</time></trkpt><trkpt lat="52.2905383" lon="-0.0864433"><ele>8.0</ele><time>2026-05-02T09:03:14.402Z</time></trkpt><trkpt lat="52.29058" lon="-0.08684"><ele>9.0</ele><time>2026-05-02T09:03:15.404Z</time></trkpt><trkpt lat="52.29062" lon="-0.0872367"><ele>10.0</ele><time>2026-05-02T09:03:16.401Z</time></trkpt><trkpt lat="52.29066" lon="-0.0876317"><ele>10.0</ele><time>2026-05-02T09:03:17.409Z</time></trkpt><trkpt lat="52.2907" lon="-0.0880233"><ele>10.0</ele><time>2026-05-02T09:03:18.403Z</time></trkpt><trkpt lat="52.29074" lon="-0.0884117"><ele>9.5</ele><time>2026-05-02T09:03:19.403Z</time></trkpt><trkpt lat="52.2907817" lon="-0.0888067"><ele>9.0</ele><time>2026-05-02T09:03:20.404Z</time></trkpt><trkpt lat="52.290825" lon="-0.0892017"><ele>9.0</ele><time>2026-05-02T09:03:21.403Z</time></trkpt><trkpt lat="52.290865" lon="-0.089605"><ele>9.0</ele><time>2026-05-02T09:03:22.404Z</time></trkpt><trkpt lat="52.2909033" lon="-0.0900167"><ele>9.0</ele><time>2026-05-02T09:03:23.405Z</time></trkpt><trkpt lat="52.29094" lon="-0.09044"><ele>9.0</ele><time>2026-05-02T09:03:24.404Z</time></trkpt><trkpt lat="52.2909783" lon="-0.0908683"><ele>9.0</ele><time>2026-05-02T09:03:25.406Z</time></trkpt><trkpt lat="52.291015" lon="-0.0913017"><ele>9.0</ele><time>2026-05-02T09:03:26.403Z</time></trkpt><trkpt lat="52.2910567" lon="-0.0917333"><ele>9.0</ele><time>2026-05-02T09:03:27.405Z</time></trkpt><trkpt lat="52.2911" lon="-0.092165"><ele>9.0</ele><time>2026-05-02T09:03:28.403Z</time></trkpt><trkpt lat="52.2911433" lon="-0.0925967"><ele>9.0</ele><time>2026-05-02T09:03:29.405Z</time></trkpt><trkpt lat="52.2911833" lon="-0.09303"><ele>9.0</ele><time>2026-05-02T09:03:30.405Z</time></trkpt><trkpt lat="52.2912217" lon="-0.09346"><ele>9.5</ele><time>2026-05-02T09:03:31.403Z</time></trkpt><trkpt lat="52.2912583" lon="-0.0938883"><ele>10.0</ele><time>2026-05-02T09:03:32.405Z</time></trkpt><trkpt lat="52.2912983" lon="-0.0943167"><ele>10.0</ele><time>2026-05-02T09:03:33.406Z</time></trkpt><trkpt lat="52.2913383" lon="-0.0947433"><ele>10.0</ele><time>2026-05-02T09:03:34.405Z</time></trkpt><trkpt lat="52.291375" lon="-0.09517"><ele>9.5</ele><time>2026-05-02T09:03:35.402Z</time></trkpt><trkpt lat="52.29141" lon="-0.0956017"><ele>9.0</ele><time>2026-05-02T09:03:36.405Z</time></trkpt><trkpt lat="52.2914483" lon="-0.0960333"><ele>9.0</ele><time>2026-05-02T09:03:37.404Z</time></trkpt><trkpt lat="52.291485" lon="-0.0964583"><ele>9.0</ele><time>2026-05-02T09:03:38.406Z</time></trkpt><trkpt lat="52.2915217" lon="-0.0968883"><ele>9.5</ele><time>2026-05-02T09:03:39.406Z</time></trkpt><trkpt lat="52.2915567" lon="-0.0973167"><ele>10.0</ele><time>2026-05-02T09:03:40.405Z</time></trkpt><trkpt lat="52.2915933" lon="-0.0977483"><ele>10.0</ele><time>2026-05-02T09:03:41.403Z</time></trkpt><trkpt lat="52.2916283" lon="-0.098175"><ele>10.0</ele><time>2026-05-02T09:03:42.402Z</time></trkpt><trkpt lat="52.291665" lon="-0.0986033"><ele>10.0</ele><time>2026-05-02T09:03:43.406Z</time></trkpt><trkpt lat="52.2917033" lon="-0.09903"><ele>10.0</ele><time>2026-05-02T09:03:44.403Z</time></trkpt><trkpt lat="52.291745" lon="-0.0994567"><ele>10.0</ele><time>2026-05-02T09:03:45.405Z</time></trkpt><trkpt lat="52.291785" lon="-0.0998867"><ele>10.0</ele><time>2026-05-02T09:03:46.402Z</time></trkpt><trkpt lat="52.2918183" lon="-0.1003133"><ele>10.0</ele><time>2026-05-02T09:03:47.405Z</time></trkpt><trkpt lat="52.2918517" lon="-0.1007433"><ele>10.0</ele><time>2026-05-02T09:03:48.402Z</time></trkpt><trkpt lat="52.2918833" lon="-0.10117"><ele>10.5</ele><time>2026-05-02T09:03:49.402Z</time></trkpt><trkpt lat="52.2919183" lon="-0.101605"><ele>11.0</ele><time>2026-05-02T09:03:50.403Z</time></trkpt><trkpt lat="52.291955" lon="-0.1020267"><ele>10.5</ele><time>2026-05-02T09:03:51.402Z</time></trkpt><trkpt lat="52.2919833" lon="-0.1024417"><ele>10.0</ele><time>2026-05-02T09:03:52.402Z</time></trkpt><trkpt lat="52.2920183" lon="-0.1028683"><ele>10.0</ele><time>2026-05-02T09:03:53.402Z</time></trkpt><trkpt lat="52.29206" lon="-0.1032933"><ele>10.0</ele><time>2026-05-02T09:03:54.403Z</time></trkpt><trkpt lat="52.2920983" lon="-0.10372"><ele>9.5</ele><time>2026-05-02T09:03:55.402Z</time></trkpt><trkpt lat="52.292135" lon="-0.104145"><ele>9.0</ele><time>2026-05-02T09:03:56.402Z</time></trkpt><trkpt lat="52.2921683" lon="-0.1045733"><ele>9.0</ele><time>2026-05-02T09:03:57.402Z</time></trkpt><trkpt lat="52.2922017" lon="-0.1050083"><ele>9.0</ele><time>2026-05-02T09:03:58.402Z</time></trkpt><trkpt lat="52.2922333" lon="-0.105445"><ele>9.0</ele><time>2026-05-02T09:03:59.406Z</time></trkpt><trkpt lat="52.2922633" lon="-0.1058817"><ele>9.0</ele><time>2026-05-02T09:04:00.406Z</time></trkpt><trkpt lat="52.2922933" lon="-0.1063167"><ele>9.0</ele><time>2026-05-02T09:04:01.405Z</time></trkpt><trkpt lat="52.2923233" lon="-0.1067533"><ele>9.0</ele><time>2026-05-02T09:04:02.404Z</time></trkpt><trkpt lat="52.2923517" lon="-0.10719"><ele>9.0</ele><time>2026-05-02T09:04:03.402Z</time></trkpt><trkpt lat="52.29238" lon="-0.107625"><ele>9.0</ele><time>2026-05-02T09:04:04.402Z</time></trkpt><trkpt lat="52.292405" lon="-0.1080567"><ele>9.5</ele><time>2026-05-02T09:04:05.403Z</time></trkpt><trkpt lat="52.2924283" lon="-0.1084883"><ele>10.0</ele><time>2026-05-02T09:04:06.403Z</time></trkpt><trkpt lat="52.29245" lon="-0.1089167"><ele>10.0</ele><time>2026-05-02T09:04:07.402Z</time></trkpt><trkpt lat="52.29247" lon="-0.1093483"><ele>10.0</ele><time>2026-05-02T09:04:08.403Z</time></trkpt><trkpt lat="52.29249" lon="-0.10978"><ele>10.5</ele><time>2026-05-02T09:04:09.403Z</time></trkpt><trkpt lat="52.2925083" lon="-0.1102083"><ele>11.0</ele><time>2026-05-02T09:04:10.401Z</time></trkpt><trkpt lat="52.29253" lon="-0.11064"><ele>11.5</ele><time>2026-05-02T09:04:11.402Z</time></trkpt><trkpt lat="52.2925483" lon="-0.1110717"><ele>12.0</ele><time>2026-05-02T09:04:12.404Z</time></trkpt><trkpt lat="52.2925617" lon="-0.1114983"><ele>11.5</ele><time>2026-05-02T09:04:13.402Z</time></trkpt><trkpt lat="52.2925767" lon="-0.1119283"><ele>11.0</ele><time>2026-05-02T09:04:14.409Z</time></trkpt><trkpt lat="52.2925933" lon="-0.1123633"><ele>11.0</ele><time>2026-05-02T09:04:15.403Z</time></trkpt><trkpt lat="52.2926083" lon="-0.1127933"><ele>11.0</ele><time>2026-05-02T09:04:16.402Z</time></trkpt><trkpt lat="52.2926233" lon="-0.11322"><ele>11.0</ele><time>2026-05-02T09:04:17.402Z</time></trkpt><trkpt lat="52.29264" lon="-0.11365"><ele>11.0</ele><time>2026-05-02T09:04:18.402Z</time></trkpt><trkpt lat="52.2926583" lon="-0.1140783"><ele>11.0</ele><time>2026-05-02T09:04:19.403Z</time></trkpt><trkpt lat="52.29268" lon="-0.1145183"><ele>11.0</ele><time>2026-05-02T09:04:20.404Z</time></trkpt><trkpt lat="52.2926967" lon="-0.1149483"><ele>11.5</ele><time>2026-05-02T09:04:21.403Z</time></trkpt><trkpt lat="52.2927117" lon="-0.115385"><ele>12.0</ele><time>2026-05-02T09:04:22.403Z</time></trkpt><trkpt lat="52.2927217" lon="-0.115815"><ele>12.0</ele><time>2026-05-02T09:04:23.402Z</time></trkpt><trkpt lat="52.2927283" lon="-0.11624"><ele>12.0</ele><time>2026-05-02T09:04:24.402Z</time></trkpt><trkpt lat="52.292735" lon="-0.11667"><ele>12.0</ele><time>2026-05-02T09:04:25.403Z</time></trkpt><trkpt lat="52.2927433" lon="-0.1171"><ele>12.0</ele><time>2026-05-02T09:04:26.406Z</time></trkpt><trkpt lat="52.2927483" lon="-0.1175317"><ele>12.0</ele><time>2026-05-02T09:04:27.402Z</time></trkpt><trkpt lat="52.2927533" lon="-0.1179667"><ele>12.0</ele><time>2026-05-02T09:04:28.402Z</time></trkpt><trkpt lat="52.2927567" lon="-0.1184"><ele>12.0</ele><time>2026-05-02T09:04:29.406Z</time></trkpt><trkpt lat="52.2927617" lon="-0.118835"><ele>12.0</ele><time>2026-05-02T09:04:30.403Z</time></trkpt><trkpt lat="52.292765" lon="-0.11927"><ele>12.0</ele><time>2026-05-02T09:04:31.402Z</time></trkpt><trkpt lat="52.2927683" lon="-0.119705"><ele>12.0</ele><time>2026-05-02T09:04:32.403Z</time></trkpt><trkpt lat="52.2927683" lon="-0.12014"><ele>12.5</ele><time>2026-05-02T09:04:33.403Z</time></trkpt><trkpt lat="52.2927667" lon="-0.12058"><ele>13.0</ele><time>2026-05-02T09:04:34.402Z</time></trkpt><trkpt lat="52.2927667" lon="-0.1210117"><ele>13.5</ele><time>2026-05-02T09:04:35.406Z</time></trkpt><trkpt lat="52.2927717" lon="-0.1214483"><ele>14.0</ele><time>2026-05-02T09:04:36.405Z</time></trkpt><trkpt lat="52.2927717" lon="-0.121875"><ele>14.0</ele><time>2026-05-02T09:04:37.405Z</time></trkpt><trkpt lat="52.2927717" lon="-0.1223"><ele>14.0</ele><time>2026-05-02T09:04:38.402Z</time></trkpt><trkpt lat="52.2927717" lon="-0.12273"><ele>14.0</ele><time>2026-05-02T09:04:39.403Z</time></trkpt><trkpt lat="52.29277" lon="-0.1231617"><ele>14.0</ele><time>2026-05-02T09:04:40.402Z</time></trkpt><trkpt lat="52.2927633" lon="-0.1235917"><ele>14.0</ele><time>2026-05-02T09:04:41.405Z</time></trkpt><trkpt lat="52.292755" lon="-0.1240217"><ele>14.0</ele><time>2026-05-02T09:04:42.406Z</time></trkpt><trkpt lat="52.2927483" lon="-0.1244517"><ele>14.5</ele><time>2026-05-02T09:04:43.406Z</time></trkpt><trkpt lat="52.2927383" lon="-0.1248783"><ele>15.0</ele><time>2026-05-02T09:04:44.406Z</time></trkpt><trkpt lat="52.29273" lon="-0.12531"><ele>15.5</ele><time>2026-05-02T09:04:45.406Z</time></trkpt><trkpt lat="52.2927217" lon="-0.1257417"><ele>16.0</ele><time>2026-05-02T09:04:46.404Z</time></trkpt><trkpt lat="52.2927117" lon="-0.1261733"><ele>16.0</ele><time>2026-05-02T09:04:47.403Z</time></trkpt><trkpt lat="52.2927083" lon="-0.1266117"><ele>16.0</ele><time>2026-05-02T09:04:48.404Z</time></trkpt><trkpt lat="52.2926983" lon="-0.1270467"><ele>15.5</ele><time>2026-05-02T09:04:49.404Z</time></trkpt><trkpt lat="52.2926833" lon="-0.12748"><ele>15.0</ele><time>2026-05-02T09:04:50.404Z</time></trkpt><trkpt lat="52.2926683" lon="-0.12791"><ele>15.5</ele><time>2026-05-02T09:04:51.406Z</time></trkpt><trkpt lat="52.292655" lon="-0.1283433"><ele>16.0</ele><time>2026-05-02T09:04:52.405Z</time></trkpt><trkpt lat="52.2926433" lon="-0.1287767"><ele>16.5</ele><time>2026-05-02T09:04:53.403Z</time></trkpt><trkpt lat="52.2926317" lon="-0.1292117"><ele>17.0</ele><time>2026-05-02T09:04:54.404Z</time></trkpt><trkpt lat="52.29262" lon="-0.129645"><ele>17.5</ele><time>2026-05-02T09:04:55.404Z</time></trkpt><trkpt lat="52.2926017" lon="-0.130075"><ele>18.0</ele><time>2026-05-02T09:04:56.403Z</time></trkpt><trkpt lat="52.2925833" lon="-0.130505"><ele>17.5</ele><time>2026-05-02T09:04:57.403Z</time></trkpt><trkpt lat="52.2925633" lon="-0.130935"><ele>17.0</ele><time>2026-05-02T09:04:58.402Z</time></trkpt><trkpt lat="52.2925467" lon="-0.1313667"><ele>17.0</ele><time>2026-05-02T09:04:59.404Z</time></trkpt><trkpt lat="52.2925283" lon="-0.131795"><ele>17.0</ele><time>2026-05-02T09:05:00.406Z</time></trkpt><trkpt lat="52.2925067" lon="-0.132225"><ele>17.0</ele><time>2026-05-02T09:05:01.403Z</time></trkpt><trkpt lat="52.292485" lon="-0.1326567"><ele>17.0</ele><time>2026-05-02T09:05:02.405Z</time></trkpt><trkpt lat="52.292465" lon="-0.1330883"><ele>17.5</ele><time>2026-05-02T09:05:03.406Z</time></trkpt><trkpt lat="52.2924417" lon="-0.1335217"><ele>18.0</ele><time>2026-05-02T09:05:04.406Z</time></trkpt><trkpt lat="52.292415" lon="-0.133955"><ele>18.5</ele><time>2026-05-02T09:05:05.407Z</time></trkpt><trkpt lat="52.29239" lon="-0.1343883"><ele>19.0</ele><time>2026-05-02T09:05:06.405Z</time></trkpt><trkpt lat="52.2923717" lon="-0.13482"><ele>19.0</ele><time>2026-05-02T09:05:07.403Z</time></trkpt><trkpt lat="52.2923533" lon="-0.1352517"><ele>19.0</ele><time>2026-05-02T09:05:08.403Z</time></trkpt><trkpt lat="52.2923367" lon="-0.1356917"><ele>19.0</ele><time>2026-05-02T09:05:09.402Z</time></trkpt><trkpt lat="52.292325" lon="-0.1361383"><ele>19.0</ele><time>2026-05-02T09:05:10.404Z</time></trkpt><trkpt lat="52.2923133" lon="-0.13659"><ele>19.0</ele><time>2026-05-02T09:05:11.406Z</time></trkpt><trkpt lat="52.2922983" lon="-0.13705"><ele>19.0</ele><time>2026-05-02T09:05:12.405Z</time></trkpt><trkpt lat="52.2922867" lon="-0.137515"><ele>19.5</ele><time>2026-05-02T09:05:13.405Z</time></trkpt><trkpt lat="52.29228" lon="-0.1379833"><ele>20.0</ele><time>2026-05-02T09:05:14.405Z</time></trkpt><trkpt lat="52.2922783" lon="-0.138455"><ele>20.5</ele><time>2026-05-02T09:05:15.406Z</time></trkpt><trkpt lat="52.2922767" lon="-0.13893"><ele>21.0</ele><time>2026-05-02T09:05:16.403Z</time></trkpt><trkpt lat="52.292275" lon="-0.1394017"><ele>21.5</ele><time>2026-05-02T09:05:17.402Z</time></trkpt><trkpt lat="52.2922717" lon="-0.13987"><ele>22.0</ele><time>2026-05-02T09:05:18.402Z</time></trkpt><trkpt lat="52.2922667" lon="-0.1403367"><ele>23.0</ele><time>2026-05-02T09:05:19.402Z</time></trkpt><trkpt lat="52.2922633" lon="-0.1408017"><ele>24.0</ele><time>2026-05-02T09:05:20.403Z</time></trkpt><trkpt lat="52.2922617" lon="-0.1412667"><ele>24.0</ele><time>2026-05-02T09:05:21.402Z</time></trkpt><trkpt lat="52.2922617" lon="-0.1417333"><ele>24.0</ele><time>2026-05-02T09:05:22.402Z</time></trkpt><trkpt lat="52.2922617" lon="-0.1421967"><ele>25.0</ele><time>2026-05-02T09:05:23.403Z</time></trkpt><trkpt lat="52.2922667" lon="-0.1426633"><ele>26.0</ele><time>2026-05-02T09:05:24.405Z</time></trkpt><trkpt lat="52.29227" lon="-0.1431267"><ele>27.0</ele><time>2026-05-02T09:05:25.406Z</time></trkpt><trkpt lat="52.292275" lon="-0.14359"><ele>28.0</ele><time>2026-05-02T09:05:26.405Z</time></trkpt><trkpt lat="52.2922817" lon="-0.1440567"><ele>28.5</ele><time>2026-05-02T09:05:27.406Z</time></trkpt><trkpt lat="52.29229" lon="-0.1445233"><ele>29.0</ele><time>2026-05-02T09:05:28.405Z</time></trkpt><trkpt lat="52.2922967" lon="-0.1449867"><ele>29.0</ele><time>2026-05-02T09:05:29.405Z</time></trkpt><trkpt lat="52.292305" lon="-0.145445"><ele>29.0</ele><time>2026-05-02T09:05:30.403Z</time></trkpt><trkpt lat="52.2923133" lon="-0.1459083"><ele>30.0</ele><time>2026-05-02T09:05:31.404Z</time></trkpt><trkpt lat="52.2923217" lon="-0.1463717"><ele>31.0</ele><time>2026-05-02T09:05:32.404Z</time></trkpt><trkpt lat="52.2923317" lon="-0.1468367"><ele>32.5</ele><time>2026-05-02T09:05:33.404Z</time></trkpt><trkpt lat="52.292345" lon="-0.1473033"><ele>34.0</ele><time>2026-05-02T09:05:34.405Z</time></trkpt><trkpt lat="52.2923633" lon="-0.1477717"><ele>34.0</ele><time>2026-05-02T09:05:35.404Z</time></trkpt><trkpt lat="52.29238" lon="-0.1482383"><ele>34.0</ele><time>2026-05-02T09:05:36.402Z</time></trkpt><trkpt lat="52.2924" lon="-0.1487083"><ele>33.5</ele><time>2026-05-02T09:05:37.405Z</time></trkpt><trkpt lat="52.2924233" lon="-0.149185"><ele>33.0</ele><time>2026-05-02T09:05:38.404Z</time></trkpt><trkpt lat="52.292445" lon="-0.1496517"><ele>33.5</ele><time>2026-05-02T09:05:39.404Z</time></trkpt><trkpt lat="52.2924683" lon="-0.1501167"><ele>34.0</ele><time>2026-05-02T09:05:40.405Z</time></trkpt><trkpt lat="52.2924917" lon="-0.1505783"><ele>34.0</ele><time>2026-05-02T09:05:41.406Z</time></trkpt><trkpt lat="52.2925192" lon="-0.151036"><ele>34.0</ele><time>2026-05-02T09:05:42.405Z</time></trkpt><trkpt lat="52.2925505" lon="-0.1514933"><ele>34.5</ele><time>2026-05-02T09:05:43.402Z</time></trkpt><trkpt lat="52.2925835" lon="-0.1519543"><ele>35.0</ele><time>2026-05-02T09:05:44.403Z</time></trkpt><trkpt lat="52.2926179" lon="-0.1524169"><ele>36.0</ele><time>2026-05-02T09:05:45.404Z</time></trkpt><trkpt lat="52.2926527" lon="-0.1528781"><ele>37.0</ele><time>2026-05-02T09:05:46.405Z</time></trkpt><trkpt lat="52.2926902" lon="-0.1533387"><ele>37.5</ele><time>2026-05-02T09:05:47.402Z</time></trkpt><trkpt lat="52.2927294" lon="-0.1538031"><ele>38.0</ele><time>2026-05-02T09:05:48.403Z</time></trkpt><trkpt lat="52.2927646" lon="-0.1542694"><ele>38.0</ele><time>2026-05-02T09:05:49.403Z</time></trkpt><trkpt lat="52.2927961" lon="-0.1547338"><ele>38.0</ele><time>2026-05-02T09:05:50.403Z</time></trkpt><trkpt lat="52.2928276" lon="-0.1551977"><ele>38.0</ele><time>2026-05-02T09:05:51.403Z</time></trkpt><trkpt lat="52.2928592" lon="-0.1556594"><ele>38.0</ele><time>2026-05-02T09:05:52.404Z</time></trkpt><trkpt lat="52.2928943" lon="-0.1561166"><ele>39.0</ele><time>2026-05-02T09:05:53.404Z</time></trkpt><trkpt lat="52.2929329" lon="-0.1565683"><ele>40.0</ele><time>2026-05-02T09:05:54.403Z</time></trkpt><trkpt lat="52.2929726" lon="-0.1570083"><ele>40.5</ele><time>2026-05-02T09:05:55.404Z</time></trkpt><trkpt lat="52.2930122" lon="-0.1574341"><ele>41.0</ele><time>2026-05-02T09:05:56.405Z</time></trkpt><trkpt lat="52.2930507" lon="-0.1578487"><ele>41.5</ele><time>2026-05-02T09:05:57.404Z</time></trkpt><trkpt lat="52.2930878" lon="-0.158258"><ele>42.0</ele><time>2026-05-02T09:05:58.405Z</time></trkpt><trkpt lat="52.2931245" lon="-0.1586649"><ele>41.0</ele><time>2026-05-02T09:05:59.404Z</time></trkpt><trkpt lat="52.2931622" lon="-0.1590697"><ele>40.0</ele><time>2026-05-02T09:06:00.405Z</time></trkpt><trkpt lat="52.2932014" lon="-0.1594712"><ele>41.0</ele><time>2026-05-02T09:06:01.404Z</time></trkpt><trkpt lat="52.2932412" lon="-0.1598738"><ele>42.0</ele><time>2026-05-02T09:06:02.404Z</time></trkpt><trkpt lat="52.2932824" lon="-0.1602826"><ele>42.0</ele><time>2026-05-02T09:06:03.403Z</time></trkpt><trkpt lat="52.293326" lon="-0.1606938"><ele>42.0</ele><time>2026-05-02T09:06:04.403Z</time></trkpt><trkpt lat="52.2933661" lon="-0.1611026"><ele>42.0</ele><time>2026-05-02T09:06:05.403Z</time></trkpt><trkpt lat="52.2934042" lon="-0.1615177"><ele>42.0</ele><time>2026-05-02T09:06:06.405Z</time></trkpt><trkpt lat="52.29344" lon="-0.161933"><ele>42.0</ele><time>2026-05-02T09:06:07.403Z</time></trkpt><trkpt lat="52.2934776" lon="-0.1623509"><ele>42.0</ele><time>2026-05-02T09:06:08.404Z</time></trkpt><trkpt lat="52.2935171" lon="-0.1627693"><ele>42.0</ele><time>2026-05-02T09:06:09.404Z</time></trkpt><trkpt lat="52.2935617" lon="-0.1631858"><ele>42.0</ele><time>2026-05-02T09:06:10.403Z</time></trkpt><trkpt lat="52.2936077" lon="-0.163601"><ele>41.5</ele><time>2026-05-02T09:06:11.405Z</time></trkpt><trkpt lat="52.2936544" lon="-0.1640171"><ele>41.0</ele><time>2026-05-02T09:06:12.404Z</time></trkpt><trkpt lat="52.2937047" lon="-0.1644336"><ele>40.5</ele><time>2026-05-02T09:06:13.404Z</time></trkpt><trkpt lat="52.2937569" lon="-0.1648476"><ele>40.0</ele><time>2026-05-02T09:06:14.403Z</time></trkpt><trkpt lat="52.2938103" lon="-0.1652621"><ele>40.0</ele><time>2026-05-02T09:06:15.405Z</time></trkpt><trkpt lat="52.2938664" lon="-0.165682"><ele>40.0</ele><time>2026-05-02T09:06:16.404Z</time></trkpt><trkpt lat="52.293921" lon="-0.1660995"><ele>40.0</ele><time>2026-05-02T09:06:17.403Z</time></trkpt><trkpt lat="52.2939774" lon="-0.1665142"><ele>40.0</ele><time>2026-05-02T09:06:18.406Z</time></trkpt><trkpt lat="52.2940313" lon="-0.1669288"><ele>40.0</ele><time>2026-05-02T09:06:19.405Z</time></trkpt><trkpt lat="52.2940845" lon="-0.1673448"><ele>40.0</ele><time>2026-05-02T09:06:20.403Z</time></trkpt><trkpt lat="52.2941364" lon="-0.1677602"><ele>40.5</ele><time>2026-05-02T09:06:21.404Z</time></trkpt><trkpt lat="52.2941918" lon="-0.1681792"><ele>41.0</ele><time>2026-05-02T09:06:22.407Z</time></trkpt><trkpt lat="52.2942521" lon="-0.1685993"><ele>41.0</ele><time>2026-05-02T09:06:23.404Z</time></trkpt><trkpt lat="52.2943076" lon="-0.1690144"><ele>41.0</ele><time>2026-05-02T09:06:24.405Z</time></trkpt><trkpt lat="52.2943659" lon="-0.1694355"><ele>41.0</ele><time>2026-05-02T09:06:25.404Z</time></trkpt><trkpt lat="52.2944248" lon="-0.1698511"><ele>41.0</ele><time>2026-05-02T09:06:26.406Z</time></trkpt><trkpt lat="52.2944846" lon="-0.170265"><ele>40.0</ele><time>2026-05-02T09:06:27.406Z</time></trkpt><trkpt lat="52.2945445" lon="-0.1706763"><ele>39.0</ele><time>2026-05-02T09:06:28.401Z</time></trkpt><trkpt lat="52.2946033" lon="-0.1710888"><ele>38.5</ele><time>2026-05-02T09:06:29.406Z</time></trkpt><trkpt lat="52.2946642" lon="-0.1714991"><ele>38.0</ele><time>2026-05-02T09:06:30.406Z</time></trkpt><trkpt lat="52.2947244" lon="-0.1719087"><ele>39.0</ele><time>2026-05-02T09:06:31.403Z</time></trkpt><trkpt lat="52.2947861" lon="-0.1723201"><ele>40.0</ele><time>2026-05-02T09:06:32.403Z</time></trkpt><trkpt lat="52.2948496" lon="-0.172731"><ele>40.5</ele><time>2026-05-02T09:06:33.407Z</time></trkpt><trkpt lat="52.2949143" lon="-0.1731417"><ele>41.0</ele><time>2026-05-02T09:06:34.405Z</time></trkpt><trkpt lat="52.294978" lon="-0.1735504"><ele>41.0</ele><time>2026-05-02T09:06:35.403Z</time></trkpt><trkpt lat="52.2950427" lon="-0.1739614"><ele>41.0</ele><time>2026-05-02T09:06:36.406Z</time></trkpt><trkpt lat="52.2951064" lon="-0.1743714"><ele>41.5</ele><time>2026-05-02T09:06:37.406Z</time></trkpt><trkpt lat="52.2951727" lon="-0.1747841"><ele>42.0</ele><time>2026-05-02T09:06:38.408Z</time></trkpt><trkpt lat="52.2952409" lon="-0.1751966"><ele>43.0</ele><time>2026-05-02T09:06:39.407Z</time></trkpt><trkpt lat="52.2953122" lon="-0.1756082"><ele>44.0</ele><time>2026-05-02T09:06:40.406Z</time></trkpt><trkpt lat="52.2953828" lon="-0.1760164"><ele>44.0</ele><time>2026-05-02T09:06:41.406Z</time></trkpt><trkpt lat="52.2954538" lon="-0.1764256"><ele>44.0</ele><time>2026-05-02T09:06:42.405Z</time></trkpt><trkpt lat="52.2955226" lon="-0.1768311"><ele>43.5</ele><time>2026-05-02T09:06:43.403Z</time></trkpt><trkpt lat="52.2955924" lon="-0.1772382"><ele>43.0</ele><time>2026-05-02T09:06:44.405Z</time></trkpt><trkpt lat="52.2956622" lon="-0.177643"><ele>43.0</ele><time>2026-05-02T09:06:45.402Z</time></trkpt><trkpt lat="52.2957323" lon="-0.1780511"><ele>43.0</ele><time>2026-05-02T09:06:46.402Z</time></trkpt><trkpt lat="52.2958012" lon="-0.1784609"><ele>43.0</ele><time>2026-05-02T09:06:47.402Z</time></trkpt><trkpt lat="52.295871" lon="-0.1788699"><ele>43.0</ele><time>2026-05-02T09:06:48.402Z</time></trkpt><trkpt lat="52.2959433" lon="-0.1792834"><ele>42.5</ele><time>2026-05-02T09:06:49.402Z</time></trkpt><trkpt lat="52.2960164" lon="-0.1796982"><ele>42.0</ele><time>2026-05-02T09:06:50.403Z</time></trkpt><trkpt lat="52.2960908" lon="-0.1801131"><ele>42.0</ele><time>2026-05-02T09:06:51.402Z</time></trkpt><trkpt lat="52.2961645" lon="-0.1805257"><ele>42.0</ele><time>2026-05-02T09:06:52.402Z</time></trkpt><trkpt lat="52.2962379" lon="-0.1809377"><ele>42.0</ele><time>2026-05-02T09:06:53.404Z</time></trkpt><trkpt lat="52.2963076" lon="-0.1813478"><ele>42.0</ele><time>2026-05-02T09:06:54.403Z</time></trkpt><trkpt lat="52.2963763" lon="-0.1817591"><ele>40.5</ele><time>2026-05-02T09:06:55.402Z</time></trkpt><trkpt lat="52.2964436" lon="-0.1821697"><ele>39.0</ele><time>2026-05-02T09:06:56.403Z</time></trkpt><trkpt lat="52.2965101" lon="-0.1825842"><ele>39.0</ele><time>2026-05-02T09:06:57.409Z</time></trkpt><trkpt lat="52.2965774" lon="-0.1830099"><ele>39.0</ele><time>2026-05-02T09:06:58.403Z</time></trkpt><trkpt lat="52.2966496" lon="-0.1834456"><ele>39.0</ele><time>2026-05-02T09:06:59.407Z</time></trkpt><trkpt lat="52.2967187" lon="-0.1838725"><ele>39.0</ele><time>2026-05-02T09:07:00.404Z</time></trkpt><trkpt lat="52.2967871" lon="-0.184295"><ele>39.0</ele><time>2026-05-02T09:07:01.404Z</time></trkpt><trkpt lat="52.2968527" lon="-0.1847118"><ele>39.0</ele><time>2026-05-02T09:07:02.404Z</time></trkpt><trkpt lat="52.2969189" lon="-0.1851238"><ele>39.0</ele><time>2026-05-02T09:07:03.403Z</time></trkpt><trkpt lat="52.2969857" lon="-0.1855441"><ele>39.0</ele><time>2026-05-02T09:07:04.405Z</time></trkpt><trkpt lat="52.2970525" lon="-0.18598"><ele>38.5</ele><time>2026-05-02T09:07:05.404Z</time></trkpt><trkpt lat="52.2971207" lon="-0.1864329"><ele>38.0</ele><time>2026-05-02T09:07:06.405Z</time></trkpt><trkpt lat="52.2971937" lon="-0.186892"><ele>38.0</ele><time>2026-05-02T09:07:07.404Z</time></trkpt><trkpt lat="52.2972644" lon="-0.1873428"><ele>38.0</ele><time>2026-05-02T09:07:08.405Z</time></trkpt><trkpt lat="52.2973342" lon="-0.1877784"><ele>39.0</ele><time>2026-05-02T09:07:09.404Z</time></trkpt><trkpt lat="52.2974013" lon="-0.1881997"><ele>40.0</ele><time>2026-05-02T09:07:10.404Z</time></trkpt><trkpt lat="52.2974663" lon="-0.1886109"><ele>40.0</ele><time>2026-05-02T09:07:11.404Z</time></trkpt><trkpt lat="52.2975296" lon="-0.1890209"><ele>40.0</ele><time>2026-05-02T09:07:12.403Z</time></trkpt><trkpt lat="52.2975935" lon="-0.1894315"><ele>40.0</ele><time>2026-05-02T09:07:13.405Z</time></trkpt><trkpt lat="52.2976589" lon="-0.1898388"><ele>40.0</ele><time>2026-05-02T09:07:14.404Z</time></trkpt><trkpt lat="52.297724" lon="-0.1902466"><ele>39.5</ele><time>2026-05-02T09:07:15.404Z</time></trkpt><trkpt lat="52.2977877" lon="-0.1906604"><ele>39.0</ele><time>2026-05-02T09:07:16.405Z</time></trkpt><trkpt lat="52.2978468" lon="-0.191084"><ele>38.0</ele><time>2026-05-02T09:07:17.403Z</time></trkpt><trkpt lat="52.2979044" lon="-0.1915157"><ele>37.0</ele><time>2026-05-02T09:07:18.407Z</time></trkpt><trkpt lat="52.2979602" lon="-0.1919477"><ele>37.5</ele><time>2026-05-02T09:07:19.405Z</time></trkpt><trkpt lat="52.298014" lon="-0.1923772"><ele>38.0</ele><time>2026-05-02T09:07:20.405Z</time></trkpt><trkpt lat="52.2980675" lon="-0.1928057"><ele>38.0</ele><time>2026-05-02T09:07:21.405Z</time></trkpt><trkpt lat="52.2981207" lon="-0.1932269"><ele>38.0</ele><time>2026-05-02T09:07:22.406Z</time></trkpt><trkpt lat="52.2981733" lon="-0.1936417"><ele>37.0</ele><time>2026-05-02T09:07:23.405Z</time></trkpt><trkpt lat="52.2982233" lon="-0.1940583"><ele>36.0</ele><time>2026-05-02T09:07:24.405Z</time></trkpt><trkpt lat="52.2982733" lon="-0.1944767"><ele>35.0</ele><time>2026-05-02T09:07:25.405Z</time></trkpt><trkpt lat="52.29832" lon="-0.1949017"><ele>34.0</ele><time>2026-05-02T09:07:26.406Z</time></trkpt><trkpt lat="52.298365" lon="-0.195335"><ele>33.0</ele><time>2026-05-02T09:07:27.406Z</time></trkpt><trkpt lat="52.2984117" lon="-0.19577"><ele>32.0</ele><time>2026-05-02T09:07:28.406Z</time></trkpt><trkpt lat="52.29846" lon="-0.1962067"><ele>31.5</ele><time>2026-05-02T09:07:29.406Z</time></trkpt><trkpt lat="52.29851" lon="-0.1966467"><ele>31.0</ele><time>2026-05-02T09:07:30.405Z</time></trkpt><trkpt lat="52.2985617" lon="-0.1970933"><ele>30.0</ele><time>2026-05-02T09:07:31.405Z</time></trkpt><trkpt lat="52.2986167" lon="-0.197545"><ele>29.0</ele><time>2026-05-02T09:07:32.406Z</time></trkpt><trkpt lat="52.29867" lon="-0.19801"><ele>28.0</ele><time>2026-05-02T09:07:33.405Z</time></trkpt><trkpt lat="52.29872" lon="-0.198475"><ele>27.0</ele><time>2026-05-02T09:07:34.405Z</time></trkpt><trkpt lat="52.298765" lon="-0.1989267"><ele>26.5</ele><time>2026-05-02T09:07:35.405Z</time></trkpt><trkpt lat="52.2988033" lon="-0.1993633"><ele>26.0</ele><time>2026-05-02T09:07:36.405Z</time></trkpt><trkpt lat="52.298835" lon="-0.1997933"><ele>25.0</ele><time>2026-05-02T09:07:37.405Z</time></trkpt><trkpt lat="52.2988617" lon="-0.20022"><ele>24.0</ele><time>2026-05-02T09:07:38.405Z</time></trkpt><trkpt lat="52.29889" lon="-0.20065"><ele>24.0</ele><time>2026-05-02T09:07:39.405Z</time></trkpt><trkpt lat="52.2989183" lon="-0.20108"><ele>24.0</ele><time>2026-05-02T09:07:40.405Z</time></trkpt><trkpt lat="52.2989467" lon="-0.2015067"><ele>23.0</ele><time>2026-05-02T09:07:41.406Z</time></trkpt><trkpt lat="52.2989767" lon="-0.201935"><ele>22.0</ele><time>2026-05-02T09:07:42.403Z</time></trkpt><trkpt lat="52.2990033" lon="-0.2023583"><ele>21.0</ele><time>2026-05-02T09:07:43.405Z</time></trkpt><trkpt lat="52.2990317" lon="-0.2027883"><ele>20.0</ele><time>2026-05-02T09:07:44.409Z</time></trkpt><trkpt lat="52.2990617" lon="-0.20322"><ele>20.0</ele><time>2026-05-02T09:07:45.403Z</time></trkpt><trkpt lat="52.29909" lon="-0.2036533"><ele>20.0</ele><time>2026-05-02T09:07:46.405Z</time></trkpt><trkpt lat="52.2991217" lon="-0.2040883"><ele>19.0</ele><time>2026-05-02T09:07:47.406Z</time></trkpt><trkpt lat="52.2991533" lon="-0.2045267"><ele>18.0</ele><time>2026-05-02T09:07:48.406Z</time></trkpt><trkpt lat="52.2991817" lon="-0.2049783"><ele>17.5</ele><time>2026-05-02T09:07:49.405Z</time></trkpt><trkpt lat="52.2992117" lon="-0.2054367"><ele>17.0</ele><time>2026-05-02T09:07:50.406Z</time></trkpt><trkpt lat="52.2992367" lon="-0.205905"><ele>16.5</ele><time>2026-05-02T09:07:51.405Z</time></trkpt><trkpt lat="52.2992533" lon="-0.2063717"><ele>16.0</ele><time>2026-05-02T09:07:52.405Z</time></trkpt><trkpt lat="52.2992683" lon="-0.2068333"><ele>15.5</ele><time>2026-05-02T09:07:53.406Z</time></trkpt><trkpt lat="52.29928" lon="-0.207285"><ele>15.0</ele><time>2026-05-02T09:07:54.403Z</time></trkpt><trkpt lat="52.2992933" lon="-0.2077383"><ele>14.5</ele><time>2026-05-02T09:07:55.406Z</time></trkpt><trkpt lat="52.2993033" lon="-0.20819"><ele>14.0</ele><time>2026-05-02T09:07:56.405Z</time></trkpt><trkpt lat="52.2993133" lon="-0.20864"><ele>14.0</ele><time>2026-05-02T09:07:57.405Z</time></trkpt><trkpt lat="52.2993233" lon="-0.209085"><ele>14.0</ele><time>2026-05-02T09:07:58.406Z</time></trkpt><trkpt lat="52.2993317" lon="-0.2095283"><ele>13.5</ele><time>2026-05-02T09:07:59.406Z</time></trkpt><trkpt lat="52.29934" lon="-0.2099783"><ele>13.0</ele><time>2026-05-02T09:08:00.402Z</time></trkpt><trkpt lat="52.2993483" lon="-0.2104317"><ele>12.5</ele><time>2026-05-02T09:08:01.406Z</time></trkpt><trkpt lat="52.29935" lon="-0.2108917"><ele>12.0</ele><time>2026-05-02T09:08:02.403Z</time></trkpt><trkpt lat="52.2993467" lon="-0.2113617"><ele>12.0</ele><time>2026-05-02T09:08:03.405Z</time></trkpt><trkpt lat="52.2993433" lon="-0.2118333"><ele>12.0</ele><time>2026-05-02T09:08:04.405Z</time></trkpt><trkpt lat="52.2993467" lon="-0.2123067"><ele>12.0</ele><time>2026-05-02T09:08:05.408Z</time></trkpt><trkpt lat="52.2993633" lon="-0.2127817"><ele>12.0</ele><time>2026-05-02T09:08:06.405Z</time></trkpt><trkpt lat="52.2993833" lon="-0.213255"><ele>12.0</ele><time>2026-05-02T09:08:07.406Z</time></trkpt><trkpt lat="52.299405" lon="-0.2137183"><ele>12.0</ele><time>2026-05-02T09:08:08.403Z</time></trkpt><trkpt lat="52.299425" lon="-0.214165"><ele>12.0</ele><time>2026-05-02T09:08:09.405Z</time></trkpt><trkpt lat="52.2994483" lon="-0.2146067"><ele>12.0</ele><time>2026-05-02T09:08:10.405Z</time></trkpt><trkpt lat="52.29947" lon="-0.2150583"><ele>12.0</ele><time>2026-05-02T09:08:11.406Z</time></trkpt><trkpt lat="52.2994983" lon="-0.2155183"><ele>12.0</ele><time>2026-05-02T09:08:12.405Z</time></trkpt><trkpt lat="52.299525" lon="-0.215985"><ele>12.0</ele><time>2026-05-02T09:08:13.406Z</time></trkpt><trkpt lat="52.2995583" lon="-0.2164567"><ele>12.0</ele><time>2026-05-02T09:08:14.403Z</time></trkpt><trkpt lat="52.2995933" lon="-0.21693"><ele>12.0</ele><time>2026-05-02T09:08:15.405Z</time></trkpt><trkpt lat="52.29963" lon="-0.217405"><ele>12.0</ele><time>2026-05-02T09:08:16.408Z</time></trkpt><trkpt lat="52.2996683" lon="-0.2178817"><ele>12.0</ele><time>2026-05-02T09:08:17.405Z</time></trkpt><trkpt lat="52.2997083" lon="-0.2183633"><ele>12.0</ele><time>2026-05-02T09:08:18.405Z</time></trkpt><trkpt lat="52.2997533" lon="-0.21884"><ele>11.5</ele><time>2026-05-02T09:08:19.404Z</time></trkpt><trkpt lat="52.2997967" lon="-0.2193"><ele>11.0</ele><time>2026-05-02T09:08:20.402Z</time></trkpt><trkpt lat="52.299845" lon="-0.2197533"><ele>10.5</ele><time>2026-05-02T09:08:21.405Z</time></trkpt><trkpt lat="52.299895" lon="-0.2201967"><ele>10.0</ele><time>2026-05-02T09:08:22.405Z</time></trkpt><trkpt lat="52.2999467" lon="-0.2206417"><ele>11.0</ele><time>2026-05-02T09:08:23.404Z</time></trkpt><trkpt lat="52.2999967" lon="-0.2210767"><ele>12.0</ele><time>2026-05-02T09:08:24.405Z</time></trkpt><trkpt lat="52.30005" lon="-0.22151"><ele>12.0</ele><time>2026-05-02T09:08:25.405Z</time></trkpt><trkpt lat="52.3001033" lon="-0.22194"><ele>12.0</ele><time>2026-05-02T09:08:26.405Z</time></trkpt><trkpt lat="52.3001583" lon="-0.2223683"><ele>11.5</ele><time>2026-05-02T09:08:27.406Z</time></trkpt><trkpt lat="52.3002167" lon="-0.2228"><ele>11.0</ele><time>2026-05-02T09:08:28.406Z</time></trkpt><trkpt lat="52.3002767" lon="-0.223235"><ele>11.0</ele><time>2026-05-02T09:08:29.405Z</time></trkpt><trkpt lat="52.3003417" lon="-0.223675"><ele>11.0</ele><time>2026-05-02T09:08:30.406Z</time></trkpt><trkpt lat="52.30041" lon="-0.2241083"><ele>11.0</ele><time>2026-05-02T09:08:31.406Z</time></trkpt><trkpt lat="52.30048" lon="-0.2245333"><ele>11.0</ele><time>2026-05-02T09:08:32.402Z</time></trkpt><trkpt lat="52.300555" lon="-0.2249567"><ele>13.0</ele><time>2026-05-02T09:08:33.405Z</time></trkpt><trkpt lat="52.3006383" lon="-0.225375"><ele>15.0</ele><time>2026-05-02T09:08:34.405Z</time></trkpt><trkpt lat="52.3007283" lon="-0.2257883"><ele>15.0</ele><time>2026-05-02T09:08:35.403Z</time></trkpt><trkpt lat="52.3008167" lon="-0.2261983"><ele>15.0</ele><time>2026-05-02T09:08:36.402Z</time></trkpt><trkpt lat="52.3009083" lon="-0.2266017"><ele>15.5</ele><time>2026-05-02T09:08:37.402Z</time></trkpt><trkpt lat="52.3010067" lon="-0.2270017"><ele>16.0</ele><time>2026-05-02T09:08:38.405Z</time></trkpt><trkpt lat="52.30111" lon="-0.2273983"><ele>16.0</ele><time>2026-05-02T09:08:39.403Z</time></trkpt><trkpt lat="52.3012167" lon="-0.2277817"><ele>16.0</ele><time>2026-05-02T09:08:40.405Z</time></trkpt><trkpt lat="52.3013233" lon="-0.228145"><ele>15.5</ele><time>2026-05-02T09:08:41.405Z</time></trkpt><trkpt lat="52.30143" lon="-0.2284917"><ele>15.0</ele><time>2026-05-02T09:08:42.402Z</time></trkpt><trkpt lat="52.3015367" lon="-0.22883"><ele>15.5</ele><time>2026-05-02T09:08:43.403Z</time></trkpt><trkpt lat="52.3016483" lon="-0.2291717"><ele>16.0</ele><time>2026-05-02T09:08:44.402Z</time></trkpt><trkpt lat="52.30177" lon="-0.2295167"><ele>16.5</ele><time>2026-05-02T09:08:45.406Z</time></trkpt><trkpt lat="52.3018967" lon="-0.2298667"><ele>17.0</ele><time>2026-05-02T09:08:46.403Z</time></trkpt><trkpt lat="52.302025" lon="-0.2302117"><ele>17.0</ele><time>2026-05-02T09:08:47.404Z</time></trkpt><trkpt lat="52.3021567" lon="-0.2305567"><ele>17.0</ele><time>2026-05-02T09:08:48.404Z</time></trkpt><trkpt lat="52.3022917" lon="-0.23089"><ele>16.5</ele><time>2026-05-02T09:08:49.403Z</time></trkpt><trkpt lat="52.3024333" lon="-0.2312217"><ele>16.0</ele><time>2026-05-02T09:08:50.404Z</time></trkpt><trkpt lat="52.3025817" lon="-0.2315583"><ele>15.0</ele><time>2026-05-02T09:08:51.403Z</time></trkpt><trkpt lat="52.3027383" lon="-0.231895"><ele>14.0</ele><time>2026-05-02T09:08:52.404Z</time></trkpt><trkpt lat="52.3028983" lon="-0.2322317"><ele>14.5</ele><time>2026-05-02T09:08:53.404Z</time></trkpt><trkpt lat="52.303065" lon="-0.232565"><ele>15.0</ele><time>2026-05-02T09:08:54.404Z</time></trkpt><trkpt lat="52.3032383" lon="-0.232895"><ele>16.5</ele><time>2026-05-02T09:08:55.404Z</time></trkpt><trkpt lat="52.3034133" lon="-0.2332233"><ele>18.0</ele><time>2026-05-02T09:08:56.404Z</time></trkpt><trkpt lat="52.3035883" lon="-0.2335533"><ele>18.0</ele><time>2026-05-02T09:08:57.404Z</time></trkpt><trkpt lat="52.3037633" lon="-0.2338833"><ele>18.0</ele><time>2026-05-02T09:08:58.403Z</time></trkpt><trkpt lat="52.3039383" lon="-0.2342183"><ele>18.0</ele><time>2026-05-02T09:08:59.406Z</time></trkpt><trkpt lat="52.3041133" lon="-0.2345567"><ele>18.0</ele><time>2026-05-02T09:09:00.405Z</time></trkpt><trkpt lat="52.3042867" lon="-0.2348967"><ele>18.0</ele><time>2026-05-02T09:09:01.405Z</time></trkpt><trkpt lat="52.304455" lon="-0.23523"><ele>18.0</ele><time>2026-05-02T09:09:02.407Z</time></trkpt><trkpt lat="52.3046217" lon="-0.2355717"><ele>18.0</ele><time>2026-05-02T09:09:03.406Z</time></trkpt><trkpt lat="52.3047883" lon="-0.235905"><ele>18.0</ele><time>2026-05-02T09:09:04.402Z</time></trkpt><trkpt lat="52.3049533" lon="-0.2362317"><ele>18.0</ele><time>2026-05-02T09:09:05.405Z</time></trkpt><trkpt lat="52.30512" lon="-0.2365567"><ele>18.0</ele><time>2026-05-02T09:09:06.402Z</time></trkpt><trkpt lat="52.3052917" lon="-0.2368833"><ele>18.0</ele><time>2026-05-02T09:09:07.403Z</time></trkpt><trkpt lat="52.305465" lon="-0.237215"><ele>18.0</ele><time>2026-05-02T09:09:08.405Z</time></trkpt><trkpt lat="52.3056367" lon="-0.2375433"><ele>17.5</ele><time>2026-05-02T09:09:09.402Z</time></trkpt><trkpt lat="52.3058067" lon="-0.237865"><ele>17.0</ele><time>2026-05-02T09:09:10.403Z</time></trkpt><trkpt lat="52.3059733" lon="-0.23818"><ele>17.0</ele><time>2026-05-02T09:09:11.403Z</time></trkpt><trkpt lat="52.3061383" lon="-0.2384867"><ele>17.0</ele><time>2026-05-02T09:09:12.405Z</time></trkpt><trkpt lat="52.3063017" lon="-0.2387833"><ele>16.0</ele><time>2026-05-02T09:09:13.404Z</time></trkpt><trkpt lat="52.3064633" lon="-0.2390733"><ele>15.0</ele><time>2026-05-02T09:09:14.404Z</time></trkpt><trkpt lat="52.3066317" lon="-0.239355"><ele>15.0</ele><time>2026-05-02T09:09:15.404Z</time></trkpt><trkpt lat="52.3068033" lon="-0.2396283"><ele>15.0</ele><time>2026-05-02T09:09:16.403Z</time></trkpt><trkpt lat="52.3069767" lon="-0.239895"><ele>15.0</ele><time>2026-05-02T09:09:17.404Z</time></trkpt><trkpt lat="52.3071517" lon="-0.240155"><ele>15.0</ele><time>2026-05-02T09:09:18.404Z</time></trkpt><trkpt lat="52.3073217" lon="-0.2404167"><ele>15.5</ele><time>2026-05-02T09:09:19.406Z</time></trkpt><trkpt lat="52.30749" lon="-0.240685"><ele>16.0</ele><time>2026-05-02T09:09:20.404Z</time></trkpt><trkpt lat="52.3076567" lon="-0.240955"><ele>16.0</ele><time>2026-05-02T09:09:21.404Z</time></trkpt><trkpt lat="52.3078217" lon="-0.2412317"><ele>16.0</ele><time>2026-05-02T09:09:22.405Z</time></trkpt><trkpt lat="52.30799" lon="-0.2415217"><ele>16.0</ele><time>2026-05-02T09:09:23.404Z</time></trkpt><trkpt lat="52.3081567" lon="-0.2418233"><ele>16.0</ele><time>2026-05-02T09:09:24.403Z</time></trkpt><trkpt lat="52.30832" lon="-0.2421267"><ele>16.0</ele><time>2026-05-02T09:09:25.403Z</time></trkpt><trkpt lat="52.3084817" lon="-0.2424283"><ele>16.0</ele><time>2026-05-02T09:09:26.404Z</time></trkpt><trkpt lat="52.308645" lon="-0.2427267"><ele>16.0</ele><time>2026-05-02T09:09:27.406Z</time></trkpt><trkpt lat="52.3088167" lon="-0.2430183"><ele>16.0</ele><time>2026-05-02T09:09:28.403Z</time></trkpt><trkpt lat="52.3089983" lon="-0.2433067"><ele>16.5</ele><time>2026-05-02T09:09:29.404Z</time></trkpt><trkpt lat="52.3091867" lon="-0.2435833"><ele>17.0</ele><time>2026-05-02T09:09:30.404Z</time></trkpt><trkpt lat="52.3093883" lon="-0.2438533"><ele>17.0</ele><time>2026-05-02T09:09:31.406Z</time></trkpt><trkpt lat="52.30961" lon="-0.2441017"><ele>17.0</ele><time>2026-05-02T09:09:32.406Z</time></trkpt><trkpt lat="52.3098433" lon="-0.24433"><ele>17.0</ele><time>2026-05-02T09:09:33.403Z</time></trkpt><trkpt lat="52.3100883" lon="-0.2445217"><ele>17.0</ele><time>2026-05-02T09:09:34.405Z</time></trkpt><trkpt lat="52.31035" lon="-0.244685"><ele>16.5</ele><time>2026-05-02T09:09:35.403Z</time></trkpt><trkpt lat="52.3106217" lon="-0.2448067"><ele>16.0</ele><time>2026-05-02T09:09:36.406Z</time></trkpt><trkpt lat="52.3108983" lon="-0.24488"><ele>16.0</ele><time>2026-05-02T09:09:37.407Z</time></trkpt><trkpt lat="52.311185" lon="-0.2449283"><ele>16.0</ele><time>2026-05-02T09:09:38.403Z</time></trkpt><trkpt lat="52.311475" lon="-0.2449517"><ele>16.5</ele><time>2026-05-02T09:09:39.405Z</time></trkpt><trkpt lat="52.3117567" lon="-0.2449283"><ele>17.0</ele><time>2026-05-02T09:09:40.404Z</time></trkpt><trkpt lat="52.312035" lon="-0.2448717"><ele>16.5</ele><time>2026-05-02T09:09:41.403Z</time></trkpt><trkpt lat="52.3123067" lon="-0.2448033"><ele>16.0</ele><time>2026-05-02T09:09:42.404Z</time></trkpt><trkpt lat="52.3125767" lon="-0.24473"><ele>16.0</ele><time>2026-05-02T09:09:43.404Z</time></trkpt><trkpt lat="52.31285" lon="-0.2446583"><ele>16.0</ele><time>2026-05-02T09:09:44.409Z</time></trkpt><trkpt lat="52.3131283" lon="-0.2446"><ele>16.5</ele><time>2026-05-02T09:09:45.404Z</time></trkpt><trkpt lat="52.3134083" lon="-0.244565"><ele>17.0</ele><time>2026-05-02T09:09:46.407Z</time></trkpt><trkpt lat="52.3136917" lon="-0.2445583"><ele>16.5</ele><time>2026-05-02T09:09:47.403Z</time></trkpt><trkpt lat="52.3139783" lon="-0.2445783"><ele>16.0</ele><time>2026-05-02T09:09:48.403Z</time></trkpt><trkpt lat="52.3142633" lon="-0.2446217"><ele>16.0</ele><time>2026-05-02T09:09:49.403Z</time></trkpt><trkpt lat="52.3145467" lon="-0.2446733"><ele>16.0</ele><time>2026-05-02T09:09:50.403Z</time></trkpt><trkpt lat="52.3148217" lon="-0.2447233"><ele>16.0</ele><time>2026-05-02T09:09:51.403Z</time></trkpt><trkpt lat="52.315095" lon="-0.244775"><ele>16.0</ele><time>2026-05-02T09:09:52.402Z</time></trkpt><trkpt lat="52.3153683" lon="-0.2448167"><ele>15.5</ele><time>2026-05-02T09:09:53.403Z</time></trkpt><trkpt lat="52.31565" lon="-0.2448533"><ele>15.0</ele><time>2026-05-02T09:09:54.405Z</time></trkpt><trkpt lat="52.31593" lon="-0.2449"><ele>15.0</ele><time>2026-05-02T09:09:55.402Z</time></trkpt><trkpt lat="52.3162067" lon="-0.24496"><ele>15.0</ele><time>2026-05-02T09:09:56.404Z</time></trkpt><trkpt lat="52.3164817" lon="-0.2450283"><ele>15.0</ele><time>2026-05-02T09:09:57.405Z</time></trkpt><trkpt lat="52.316755" lon="-0.2451033"><ele>15.0</ele><time>2026-05-02T09:09:58.403Z</time></trkpt><trkpt lat="52.3170283" lon="-0.2451817"><ele>15.0</ele><time>2026-05-02T09:09:59.405Z</time></trkpt><trkpt lat="52.31731" lon="-0.24526"><ele>15.0</ele><time>2026-05-02T09:10:00.404Z</time></trkpt><trkpt lat="52.3176" lon="-0.24533"><ele>15.0</ele><time>2026-05-02T09:10:01.405Z</time></trkpt><trkpt lat="52.3178917" lon="-0.2454033"><ele>15.0</ele><time>2026-05-02T09:10:02.403Z</time></trkpt><trkpt lat="52.318185" lon="-0.2454867"><ele>14.5</ele><time>2026-05-02T09:10:03.404Z</time></trkpt><trkpt lat="52.3184767" lon="-0.2455733"><ele>14.0</ele><time>2026-05-02T09:10:04.404Z</time></trkpt><trkpt lat="52.318765" lon="-0.245665"><ele>14.0</ele><time>2026-05-02T09:10:05.405Z</time></trkpt><trkpt lat="52.3190467" lon="-0.245775"><ele>14.0</ele><time>2026-05-02T09:10:06.403Z</time></trkpt><trkpt lat="52.319325" lon="-0.245895"><ele>14.0</ele><time>2026-05-02T09:10:07.403Z</time></trkpt><trkpt lat="52.3196" lon="-0.2460217"><ele>14.0</ele><time>2026-05-02T09:10:08.404Z</time></trkpt><trkpt lat="52.3198733" lon="-0.2461467"><ele>14.0</ele><time>2026-05-02T09:10:09.404Z</time></trkpt><trkpt lat="52.3201417" lon="-0.2462683"><ele>14.0</ele><time>2026-05-02T09:10:10.404Z</time></trkpt><trkpt lat="52.3204117" lon="-0.2463933"><ele>13.5</ele><time>2026-05-02T09:10:11.404Z</time></trkpt><trkpt lat="52.3206733" lon="-0.2465217"><ele>13.0</ele><time>2026-05-02T09:10:12.403Z</time></trkpt><trkpt lat="52.320935" lon="-0.2466533"><ele>13.0</ele><time>2026-05-02T09:10:13.407Z</time></trkpt><trkpt lat="52.3211967" lon="-0.2467883"><ele>13.0</ele><time>2026-05-02T09:10:14.403Z</time></trkpt><trkpt lat="52.3214583" lon="-0.2469267"><ele>12.5</ele><time>2026-05-02T09:10:15.407Z</time></trkpt><trkpt lat="52.321715" lon="-0.2470633"><ele>12.0</ele><time>2026-05-02T09:10:16.403Z</time></trkpt><trkpt lat="52.3219717" lon="-0.2471967"><ele>12.0</ele><time>2026-05-02T09:10:17.403Z</time></trkpt><trkpt lat="52.322235" lon="-0.24732"><ele>12.0</ele><time>2026-05-02T09:10:18.404Z</time></trkpt><trkpt lat="52.3225083" lon="-0.2474267"><ele>12.0</ele><time>2026-05-02T09:10:19.404Z</time></trkpt><trkpt lat="52.32279" lon="-0.2475133"><ele>12.0</ele><time>2026-05-02T09:10:20.404Z</time></trkpt><trkpt lat="52.3230717" lon="-0.2475967"><ele>11.5</ele><time>2026-05-02T09:10:21.403Z</time></trkpt><trkpt lat="52.3233567" lon="-0.247685"><ele>11.0</ele><time>2026-05-02T09:10:22.404Z</time></trkpt><trkpt lat="52.3236383" lon="-0.2477767"><ele>11.0</ele><time>2026-05-02T09:10:23.403Z</time></trkpt><trkpt lat="52.3239167" lon="-0.247865"><ele>11.0</ele><time>2026-05-02T09:10:24.404Z</time></trkpt><trkpt lat="52.32419" lon="-0.2479533"><ele>11.0</ele><time>2026-05-02T09:10:25.403Z</time></trkpt><trkpt lat="52.324455" lon="-0.2480367"><ele>11.0</ele><time>2026-05-02T09:10:26.405Z</time></trkpt><trkpt lat="52.3247167" lon="-0.2481067"><ele>12.0</ele><time>2026-05-02T09:10:27.407Z</time></trkpt><trkpt lat="52.32498" lon="-0.2481617"><ele>13.0</ele><time>2026-05-02T09:10:28.402Z</time></trkpt><trkpt lat="52.3252467" lon="-0.24821"><ele>13.0</ele><time>2026-05-02T09:10:29.402Z</time></trkpt><trkpt lat="52.3255117" lon="-0.2482433"><ele>13.0</ele><time>2026-05-02T09:10:30.403Z</time></trkpt><trkpt lat="52.3257767" lon="-0.24827"><ele>12.5</ele><time>2026-05-02T09:10:31.401Z</time></trkpt><trkpt lat="52.32604" lon="-0.2482933"><ele>12.0</ele><time>2026-05-02T09:10:32.404Z</time></trkpt><trkpt lat="52.3263083" lon="-0.2483083"><ele>12.5</ele><time>2026-05-02T09:10:33.406Z</time></trkpt><trkpt lat="52.3265767" lon="-0.2483167"><ele>13.0</ele><time>2026-05-02T09:10:34.403Z</time></trkpt><trkpt lat="52.3268483" lon="-0.2483183"><ele>13.0</ele><time>2026-05-02T09:10:35.407Z</time></trkpt><trkpt lat="52.3271183" lon="-0.2483167"><ele>13.0</ele><time>2026-05-02T09:10:36.403Z</time></trkpt><trkpt lat="52.3273867" lon="-0.24831"><ele>13.0</ele><time>2026-05-02T09:10:37.404Z</time></trkpt><trkpt lat="52.32765" lon="-0.2483033"><ele>13.0</ele><time>2026-05-02T09:10:38.403Z</time></trkpt><trkpt lat="52.32792" lon="-0.2482867"><ele>13.0</ele><time>2026-05-02T09:10:39.404Z</time></trkpt><trkpt lat="52.3281767" lon="-0.2482533"><ele>13.0</ele><time>2026-05-02T09:10:40.403Z</time></trkpt><trkpt lat="52.3284383" lon="-0.2482183"><ele>13.0</ele><time>2026-05-02T09:10:41.403Z</time></trkpt><trkpt lat="52.328705" lon="-0.2481833"><ele>13.0</ele><time>2026-05-02T09:10:42.404Z</time></trkpt><trkpt lat="52.32897" lon="-0.248145"><ele>13.5</ele><time>2026-05-02T09:10:43.403Z</time></trkpt><trkpt lat="52.3292367" lon="-0.2481083"><ele>14.0</ele><time>2026-05-02T09:10:44.403Z</time></trkpt><trkpt lat="52.3295033" lon="-0.2480767"><ele>14.5</ele><time>2026-05-02T09:10:45.404Z</time></trkpt><trkpt lat="52.3297717" lon="-0.2480483"><ele>15.0</ele><time>2026-05-02T09:10:46.404Z</time></trkpt><trkpt lat="52.3300383" lon="-0.2480317"><ele>15.0</ele><time>2026-05-02T09:10:47.405Z</time></trkpt><trkpt lat="52.3303033" lon="-0.248035"><ele>15.0</ele><time>2026-05-02T09:10:48.404Z</time></trkpt><trkpt lat="52.3305683" lon="-0.2480667"><ele>15.5</ele><time>2026-05-02T09:10:49.405Z</time></trkpt><trkpt lat="52.3308333" lon="-0.2481083"><ele>16.0</ele><time>2026-05-02T09:10:50.404Z</time></trkpt><trkpt lat="52.3311" lon="-0.2481567"><ele>16.0</ele><time>2026-05-02T09:10:51.405Z</time></trkpt><trkpt lat="52.3313633" lon="-0.2482133"><ele>16.0</ele><time>2026-05-02T09:10:52.403Z</time></trkpt><trkpt lat="52.331625" lon="-0.2482767"><ele>16.0</ele><time>2026-05-02T09:10:53.403Z</time></trkpt><trkpt lat="52.331885" lon="-0.248345"><ele>16.0</ele><time>2026-05-02T09:10:54.403Z</time></trkpt><trkpt lat="52.3321483" lon="-0.2484167"><ele>17.5</ele><time>2026-05-02T09:10:55.406Z</time></trkpt><trkpt lat="52.3324133" lon="-0.2485"><ele>19.0</ele><time>2026-05-02T09:10:56.405Z</time></trkpt><trkpt lat="52.3326733" lon="-0.2485967"><ele>19.0</ele><time>2026-05-02T09:10:57.405Z</time></trkpt><trkpt lat="52.3329317" lon="-0.2486967"><ele>19.0</ele><time>2026-05-02T09:10:58.405Z</time></trkpt><trkpt lat="52.3331933" lon="-0.2487967"><ele>18.0</ele><time>2026-05-02T09:10:59.405Z</time></trkpt><trkpt lat="52.3334517" lon="-0.2489017"><ele>17.0</ele><time>2026-05-02T09:11:00.405Z</time></trkpt><trkpt lat="52.33371" lon="-0.24901"><ele>17.0</ele><time>2026-05-02T09:11:01.406Z</time></trkpt><trkpt lat="52.3339667" lon="-0.2491217"><ele>17.0</ele><time>2026-05-02T09:11:02.403Z</time></trkpt><trkpt lat="52.334225" lon="-0.249235"><ele>17.0</ele><time>2026-05-02T09:11:03.405Z</time></trkpt><trkpt lat="52.3344833" lon="-0.2493467"><ele>17.0</ele><time>2026-05-02T09:11:04.407Z</time></trkpt><trkpt lat="52.3347417" lon="-0.2494517"><ele>17.0</ele><time>2026-05-02T09:11:05.407Z</time></trkpt><trkpt lat="52.3350017" lon="-0.2495533"><ele>17.0</ele><time>2026-05-02T09:11:06.402Z</time></trkpt><trkpt lat="52.3352633" lon="-0.2496483"><ele>17.0</ele><time>2026-05-02T09:11:07.405Z</time></trkpt><trkpt lat="52.3355267" lon="-0.249735"><ele>17.0</ele><time>2026-05-02T09:11:08.402Z</time></trkpt><trkpt lat="52.33579" lon="-0.2498217"><ele>16.0</ele><time>2026-05-02T09:11:09.406Z</time></trkpt><trkpt lat="52.3360517" lon="-0.2499067"><ele>15.0</ele><time>2026-05-02T09:11:10.402Z</time></trkpt><trkpt lat="52.3363167" lon="-0.2499883"><ele>14.5</ele><time>2026-05-02T09:11:11.403Z</time></trkpt><trkpt lat="52.33658" lon="-0.2500717"><ele>14.0</ele><time>2026-05-02T09:11:12.402Z</time></trkpt><trkpt lat="52.3368433" lon="-0.2501567"><ele>14.0</ele><time>2026-05-02T09:11:13.403Z</time></trkpt><trkpt lat="52.3371067" lon="-0.2502433"><ele>14.0</ele><time>2026-05-02T09:11:14.403Z</time></trkpt><trkpt lat="52.3373683" lon="-0.2503233"><ele>13.5</ele><time>2026-05-02T09:11:15.403Z</time></trkpt><trkpt lat="52.33763" lon="-0.2504033"><ele>13.0</ele><time>2026-05-02T09:11:16.402Z</time></trkpt><trkpt lat="52.3378917" lon="-0.2504783"><ele>13.5</ele><time>2026-05-02T09:11:17.403Z</time></trkpt><trkpt lat="52.3381533" lon="-0.2505517"><ele>14.0</ele><time>2026-05-02T09:11:18.402Z</time></trkpt><trkpt lat="52.3384183" lon="-0.250625"><ele>14.0</ele><time>2026-05-02T09:11:19.402Z</time></trkpt><trkpt lat="52.3386833" lon="-0.250695"><ele>14.0</ele><time>2026-05-02T09:11:20.402Z</time></trkpt><trkpt lat="52.33895" lon="-0.2507567"><ele>13.5</ele><time>2026-05-02T09:11:21.402Z</time></trkpt><trkpt lat="52.3392133" lon="-0.2508183"><ele>13.0</ele><time>2026-05-02T09:11:22.403Z</time></trkpt><trkpt lat="52.3394783" lon="-0.2508767"><ele>13.5</ele><time>2026-05-02T09:11:23.403Z</time></trkpt><trkpt lat="52.33974" lon="-0.2509317"><ele>14.0</ele><time>2026-05-02T09:11:24.402Z</time></trkpt><trkpt lat="52.3400067" lon="-0.2509867"><ele>14.0</ele><time>2026-05-02T09:11:25.406Z</time></trkpt><trkpt lat="52.3402717" lon="-0.2510383"><ele>14.0</ele><time>2026-05-02T09:11:26.403Z</time></trkpt><trkpt lat="52.3405367" lon="-0.2510917"><ele>14.0</ele><time>2026-05-02T09:11:27.403Z</time></trkpt><trkpt lat="52.3408017" lon="-0.25114"><ele>14.0</ele><time>2026-05-02T09:11:28.402Z</time></trkpt><trkpt lat="52.3410667" lon="-0.251185"><ele>14.0</ele><time>2026-05-02T09:11:29.405Z</time></trkpt><trkpt lat="52.3413333" lon="-0.25123"><ele>14.0</ele><time>2026-05-02T09:11:30.403Z</time></trkpt><trkpt lat="52.3416" lon="-0.2512733"><ele>14.5</ele><time>2026-05-02T09:11:31.403Z</time></trkpt><trkpt lat="52.341865" lon="-0.2513117"><ele>15.0</ele><time>2026-05-02T09:11:32.402Z</time></trkpt><trkpt lat="52.34213" lon="-0.251345"><ele>15.0</ele><time>2026-05-02T09:11:33.406Z</time></trkpt><trkpt lat="52.3423983" lon="-0.2513767"><ele>15.0</ele><time>2026-05-02T09:11:34.403Z</time></trkpt><trkpt lat="52.3426633" lon="-0.2514067"><ele>15.0</ele><time>2026-05-02T09:11:35.403Z</time></trkpt><trkpt lat="52.3429283" lon="-0.2514333"><ele>15.0</ele><time>2026-05-02T09:11:36.403Z</time></trkpt><trkpt lat="52.3431983" lon="-0.251455"><ele>14.5</ele><time>2026-05-02T09:11:37.406Z</time></trkpt><trkpt lat="52.3434667" lon="-0.251475"><ele>14.0</ele><time>2026-05-02T09:11:38.404Z</time></trkpt><trkpt lat="52.343735" lon="-0.251495"><ele>14.5</ele><time>2026-05-02T09:11:39.402Z</time></trkpt><trkpt lat="52.3440017" lon="-0.2515167"><ele>15.0</ele><time>2026-05-02T09:11:40.405Z</time></trkpt><trkpt lat="52.34427" lon="-0.2515317"><ele>15.0</ele><time>2026-05-02T09:11:41.402Z</time></trkpt><trkpt lat="52.344535" lon="-0.2515433"><ele>15.0</ele><time>2026-05-02T09:11:42.403Z</time></trkpt><trkpt lat="52.3448017" lon="-0.251555"><ele>16.5</ele><time>2026-05-02T09:11:43.402Z</time></trkpt><trkpt lat="52.3450667" lon="-0.2515617"><ele>18.0</ele><time>2026-05-02T09:11:44.403Z</time></trkpt><trkpt lat="52.3453367" lon="-0.2515683"><ele>17.5</ele><time>2026-05-02T09:11:45.403Z</time></trkpt><trkpt lat="52.3456067" lon="-0.2515767"><ele>17.0</ele><time>2026-05-02T09:11:46.401Z</time></trkpt><trkpt lat="52.3458733" lon="-0.2515817"><ele>17.0</ele><time>2026-05-02T09:11:47.402Z</time></trkpt><trkpt lat="52.34614" lon="-0.2515867"><ele>17.0</ele><time>2026-05-02T09:11:48.403Z</time></trkpt><trkpt lat="52.3464067" lon="-0.2515967"><ele>17.5</ele><time>2026-05-02T09:11:49.403Z</time></trkpt><trkpt lat="52.346675" lon="-0.25161"><ele>18.0</ele><time>2026-05-02T09:11:50.404Z</time></trkpt><trkpt lat="52.346945" lon="-0.25162"><ele>18.0</ele><time>2026-05-02T09:11:51.403Z</time></trkpt><trkpt lat="52.34721" lon="-0.251625"><ele>18.0</ele><time>2026-05-02T09:11:52.403Z</time></trkpt><trkpt lat="52.3474767" lon="-0.2516283"><ele>18.0</ele><time>2026-05-02T09:11:53.403Z</time></trkpt><trkpt lat="52.3477417" lon="-0.2516317"><ele>18.0</ele><time>2026-05-02T09:11:54.403Z</time></trkpt><trkpt lat="52.3480067" lon="-0.2516333"><ele>17.0</ele><time>2026-05-02T09:11:55.402Z</time></trkpt><trkpt lat="52.3482733" lon="-0.2516433"><ele>16.0</ele><time>2026-05-02T09:11:56.403Z</time></trkpt><trkpt lat="52.3485383" lon="-0.2516567"><ele>16.0</ele><time>2026-05-02T09:11:57.402Z</time></trkpt><trkpt lat="52.3488067" lon="-0.251665"><ele>16.0</ele><time>2026-05-02T09:11:58.403Z</time></trkpt><trkpt lat="52.3490733" lon="-0.2516733"><ele>16.0</ele><time>2026-05-02T09:11:59.403Z</time></trkpt><trkpt lat="52.3493433" lon="-0.2516833"><ele>16.0</ele><time>2026-05-02T09:12:00.406Z</time></trkpt><trkpt lat="52.3496117" lon="-0.2516917"><ele>16.0</ele><time>2026-05-02T09:12:01.402Z</time></trkpt><trkpt lat="52.34988" lon="-0.2516967"><ele>16.0</ele><time>2026-05-02T09:12:02.403Z</time></trkpt><trkpt lat="52.35015" lon="-0.2517017"><ele>16.0</ele><time>2026-05-02T09:12:03.404Z</time></trkpt><trkpt lat="52.350415" lon="-0.2517067"><ele>16.0</ele><time>2026-05-02T09:12:04.403Z</time></trkpt><trkpt lat="52.3506783" lon="-0.2517167"><ele>16.5</ele><time>2026-05-02T09:12:05.402Z</time></trkpt><trkpt lat="52.350945" lon="-0.2517433"><ele>17.0</ele><time>2026-05-02T09:12:06.405Z</time></trkpt><trkpt lat="52.3512117" lon="-0.251775"><ele>16.5</ele><time>2026-05-02T09:12:07.404Z</time></trkpt><trkpt lat="52.3514783" lon="-0.25181"><ele>16.0</ele><time>2026-05-02T09:12:08.404Z</time></trkpt><trkpt lat="52.3517433" lon="-0.251845"><ele>16.0</ele><time>2026-05-02T09:12:09.403Z</time></trkpt><trkpt lat="52.3520083" lon="-0.251885"><ele>16.0</ele><time>2026-05-02T09:12:10.402Z</time></trkpt><trkpt lat="52.352275" lon="-0.2519317"><ele>16.5</ele><time>2026-05-02T09:12:11.403Z</time></trkpt><trkpt lat="52.3525433" lon="-0.2519833"><ele>17.0</ele><time>2026-05-02T09:12:12.404Z</time></trkpt><trkpt lat="52.3528083" lon="-0.2520467"><ele>18.0</ele><time>2026-05-02T09:12:13.402Z</time></trkpt><trkpt lat="52.35307" lon="-0.2521183"><ele>19.0</ele><time>2026-05-02T09:12:14.403Z</time></trkpt><trkpt lat="52.3533333" lon="-0.25219"><ele>19.0</ele><time>2026-05-02T09:12:15.406Z</time></trkpt><trkpt lat="52.3536017" lon="-0.2522617"><ele>19.0</ele><time>2026-05-02T09:12:16.402Z</time></trkpt><trkpt lat="52.3538733" lon="-0.2523367"><ele>18.0</ele><time>2026-05-02T09:12:17.403Z</time></trkpt><trkpt lat="52.3541433" lon="-0.2524167"><ele>17.0</ele><time>2026-05-02T09:12:18.403Z</time></trkpt><trkpt lat="52.3544133" lon="-0.252495"><ele>17.0</ele><time>2026-05-02T09:12:19.404Z</time></trkpt><trkpt lat="52.3546833" lon="-0.2525833"><ele>17.0</ele><time>2026-05-02T09:12:20.403Z</time></trkpt><trkpt lat="52.3549533" lon="-0.2526767"><ele>17.0</ele><time>2026-05-02T09:12:21.404Z</time></trkpt><trkpt lat="52.3552267" lon="-0.2527767"><ele>17.0</ele><time>2026-05-02T09:12:22.403Z</time></trkpt><trkpt lat="52.3555" lon="-0.2528817"><ele>17.0</ele><time>2026-05-02T09:12:23.403Z</time></trkpt><trkpt lat="52.35577" lon="-0.25299"><ele>17.0</ele><time>2026-05-02T09:12:24.404Z</time></trkpt><trkpt lat="52.3560417" lon="-0.2531033"><ele>17.0</ele><time>2026-05-02T09:12:25.405Z</time></trkpt><trkpt lat="52.3563083" lon="-0.253215"><ele>17.0</ele><time>2026-05-02T09:12:26.403Z</time></trkpt><trkpt lat="52.356575" lon="-0.253335"><ele>17.5</ele><time>2026-05-02T09:12:27.405Z</time></trkpt><trkpt lat="52.3568417" lon="-0.25345"><ele>18.0</ele><time>2026-05-02T09:12:28.404Z</time></trkpt><trkpt lat="52.3571117" lon="-0.2535617"><ele>19.0</ele><time>2026-05-02T09:12:29.403Z</time></trkpt><trkpt lat="52.35738" lon="-0.2536683"><ele>20.0</ele><time>2026-05-02T09:12:30.403Z</time></trkpt><trkpt lat="52.3576483" lon="-0.253775"><ele>20.0</ele><time>2026-05-02T09:12:31.405Z</time></trkpt><trkpt lat="52.357915" lon="-0.253885"><ele>20.0</ele><time>2026-05-02T09:12:32.405Z</time></trkpt><trkpt lat="52.358185" lon="-0.2539983"><ele>19.5</ele><time>2026-05-02T09:12:33.404Z</time></trkpt><trkpt lat="52.358455" lon="-0.25411"><ele>19.0</ele><time>2026-05-02T09:12:34.404Z</time></trkpt><trkpt lat="52.3587233" lon="-0.25422"><ele>20.0</ele><time>2026-05-02T09:12:35.405Z</time></trkpt><trkpt lat="52.358995" lon="-0.2543367"><ele>21.0</ele><time>2026-05-02T09:12:36.405Z</time></trkpt><trkpt lat="52.359265" lon="-0.2544583"><ele>21.0</ele><time>2026-05-02T09:12:37.403Z</time></trkpt><trkpt lat="52.3595333" lon="-0.2545817"><ele>21.0</ele><time>2026-05-02T09:12:38.404Z</time></trkpt><trkpt lat="52.3598" lon="-0.2547033"><ele>22.5</ele><time>2026-05-02T09:12:39.41Z</time></trkpt><trkpt lat="52.3600683" lon="-0.2548233"><ele>24.0</ele><time>2026-05-02T09:12:40.404Z</time></trkpt><trkpt lat="52.3603383" lon="-0.2549367"><ele>24.0</ele><time>2026-05-02T09:12:41.403Z</time></trkpt><trkpt lat="52.3606083" lon="-0.255045"><ele>24.0</ele><time>2026-05-02T09:12:42.404Z</time></trkpt><trkpt lat="52.3608833" lon="-0.2551483"><ele>24.0</ele><time>2026-05-02T09:12:43.404Z</time></trkpt><trkpt lat="52.3611583" lon="-0.2552417"><ele>24.0</ele><time>2026-05-02T09:12:44.404Z</time></trkpt><trkpt lat="52.3614333" lon="-0.2553267"><ele>24.5</ele><time>2026-05-02T09:12:45.407Z</time></trkpt><trkpt lat="52.3617117" lon="-0.2553983"><ele>25.0</ele><time>2026-05-02T09:12:46.405Z</time></trkpt><trkpt lat="52.36199" lon="-0.2554633"><ele>24.5</ele><time>2026-05-02T09:12:47.405Z</time></trkpt><trkpt lat="52.3622683" lon="-0.255505"><ele>24.0</ele><time>2026-05-02T09:12:48.405Z</time></trkpt><trkpt lat="52.36255" lon="-0.2555367"><ele>24.0</ele><time>2026-05-02T09:12:49.404Z</time></trkpt><trkpt lat="52.362835" lon="-0.2555533"><ele>24.0</ele><time>2026-05-02T09:12:50.404Z</time></trkpt><trkpt lat="52.3631167" lon="-0.2555533"><ele>22.5</ele><time>2026-05-02T09:12:51.404Z</time></trkpt><trkpt lat="52.3634" lon="-0.25554"><ele>21.0</ele><time>2026-05-02T09:12:52.404Z</time></trkpt><trkpt lat="52.3636817" lon="-0.2555167"><ele>20.5</ele><time>2026-05-02T09:12:53.403Z</time></trkpt><trkpt lat="52.3639633" lon="-0.25548"><ele>20.0</ele><time>2026-05-02T09:12:54.405Z</time></trkpt><trkpt lat="52.3642467" lon="-0.25544"><ele>20.0</ele><time>2026-05-02T09:12:55.404Z</time></trkpt><trkpt lat="52.3645267" lon="-0.2553867"><ele>20.0</ele><time>2026-05-02T09:12:56.404Z</time></trkpt><trkpt lat="52.364805" lon="-0.255315"><ele>20.0</ele><time>2026-05-02T09:12:57.404Z</time></trkpt><trkpt lat="52.3650817" lon="-0.255225"><ele>20.0</ele><time>2026-05-02T09:12:58.406Z</time></trkpt><trkpt lat="52.36536" lon="-0.255125"><ele>20.0</ele><time>2026-05-02T09:12:59.403Z</time></trkpt><trkpt lat="52.365645" lon="-0.2550133"><ele>20.0</ele><time>2026-05-02T09:13:00.406Z</time></trkpt><trkpt lat="52.36593" lon="-0.254895"><ele>20.0</ele><time>2026-05-02T09:13:01.403Z</time></trkpt><trkpt lat="52.3662167" lon="-0.2547783"><ele>20.0</ele><time>2026-05-02T09:13:02.404Z</time></trkpt><trkpt lat="52.3665117" lon="-0.2546567"><ele>21.0</ele><time>2026-05-02T09:13:03.404Z</time></trkpt><trkpt lat="52.3668083" lon="-0.2545376"><ele>22.0</ele><time>2026-05-02T09:13:04.403Z</time></trkpt><trkpt lat="52.3671067" lon="-0.2544064"><ele>23.0</ele><time>2026-05-02T09:13:05.403Z</time></trkpt><trkpt lat="52.3674013" lon="-0.2542736"><ele>24.0</ele><time>2026-05-02T09:13:06.404Z</time></trkpt><trkpt lat="52.3676961" lon="-0.2541427"><ele>24.0</ele><time>2026-05-02T09:13:07.406Z</time></trkpt><trkpt lat="52.3679834" lon="-0.2540165"><ele>24.0</ele><time>2026-05-02T09:13:08.403Z</time></trkpt><trkpt lat="52.3682623" lon="-0.2538946"><ele>25.5</ele><time>2026-05-02T09:13:09.406Z</time></trkpt><trkpt lat="52.3685368" lon="-0.2537769"><ele>27.0</ele><time>2026-05-02T09:13:10.406Z</time></trkpt><trkpt lat="52.3688166" lon="-0.2536623"><ele>26.5</ele><time>2026-05-02T09:13:11.406Z</time></trkpt><trkpt lat="52.3690974" lon="-0.2535503"><ele>26.0</ele><time>2026-05-02T09:13:12.405Z</time></trkpt><trkpt lat="52.3693742" lon="-0.2534404"><ele>26.0</ele><time>2026-05-02T09:13:13.405Z</time></trkpt><trkpt lat="52.3696472" lon="-0.2533335"><ele>26.0</ele><time>2026-05-02T09:13:14.403Z</time></trkpt><trkpt lat="52.3699247" lon="-0.2532345"><ele>26.0</ele><time>2026-05-02T09:13:15.405Z</time></trkpt><trkpt lat="52.3702058" lon="-0.2531452"><ele>26.0</ele><time>2026-05-02T09:13:16.405Z</time></trkpt><trkpt lat="52.3704894" lon="-0.253068"><ele>27.5</ele><time>2026-05-02T09:13:17.403Z</time></trkpt><trkpt lat="52.3707717" lon="-0.2529983"><ele>29.0</ele><time>2026-05-02T09:13:18.405Z</time></trkpt><trkpt lat="52.3710569" lon="-0.252937"><ele>29.0</ele><time>2026-05-02T09:13:19.403Z</time></trkpt><trkpt lat="52.3713516" lon="-0.2528877"><ele>29.0</ele><time>2026-05-02T09:13:20.402Z</time></trkpt><trkpt lat="52.371656" lon="-0.2528497"><ele>30.0</ele><time>2026-05-02T09:13:21.403Z</time></trkpt><trkpt lat="52.3719652" lon="-0.2528264"><ele>31.0</ele><time>2026-05-02T09:13:22.403Z</time></trkpt><trkpt lat="52.3722791" lon="-0.2528117"><ele>31.0</ele><time>2026-05-02T09:13:23.402Z</time></trkpt><trkpt lat="52.3725925" lon="-0.2528153"><ele>31.0</ele><time>2026-05-02T09:13:24.403Z</time></trkpt><trkpt lat="52.3729005" lon="-0.2528447"><ele>31.5</ele><time>2026-05-02T09:13:25.403Z</time></trkpt><trkpt lat="52.373196" lon="-0.2528923"><ele>32.0</ele><time>2026-05-02T09:13:26.403Z</time></trkpt><trkpt lat="52.3734826" lon="-0.2529536"><ele>32.0</ele><time>2026-05-02T09:13:27.403Z</time></trkpt><trkpt lat="52.3737678" lon="-0.2530293"><ele>32.0</ele><time>2026-05-02T09:13:28.406Z</time></trkpt><trkpt lat="52.3740539" lon="-0.253127"><ele>34.0</ele><time>2026-05-02T09:13:29.405Z</time></trkpt><trkpt lat="52.374342" lon="-0.2532434"><ele>36.0</ele><time>2026-05-02T09:13:30.405Z</time></trkpt><trkpt lat="52.3746302" lon="-0.2533721"><ele>37.5</ele><time>2026-05-02T09:13:31.406Z</time></trkpt><trkpt lat="52.3749194" lon="-0.2535021"><ele>39.0</ele><time>2026-05-02T09:13:32.406Z</time></trkpt><trkpt lat="52.3752025" lon="-0.2536319"><ele>39.0</ele><time>2026-05-02T09:13:33.405Z</time></trkpt><trkpt lat="52.3754768" lon="-0.253767"><ele>39.0</ele><time>2026-05-02T09:13:34.405Z</time></trkpt><trkpt lat="52.3757487" lon="-0.2539149"><ele>40.0</ele><time>2026-05-02T09:13:35.406Z</time></trkpt><trkpt lat="52.3760241" lon="-0.254067"><ele>41.0</ele><time>2026-05-02T09:13:36.406Z</time></trkpt><trkpt lat="52.3763012" lon="-0.254225"><ele>42.5</ele><time>2026-05-02T09:13:37.407Z</time></trkpt><trkpt lat="52.3765808" lon="-0.2543828"><ele>44.0</ele><time>2026-05-02T09:13:38.406Z</time></trkpt><trkpt lat="52.3768624" lon="-0.2545368"><ele>44.0</ele><time>2026-05-02T09:13:39.406Z</time></trkpt><trkpt lat="52.3771416" lon="-0.2546913"><ele>44.0</ele><time>2026-05-02T09:13:40.403Z</time></trkpt><trkpt lat="52.3774203" lon="-0.2548449"><ele>45.0</ele><time>2026-05-02T09:13:41.406Z</time></trkpt><trkpt lat="52.3776972" lon="-0.2549964"><ele>46.0</ele><time>2026-05-02T09:13:42.405Z</time></trkpt><trkpt lat="52.3779748" lon="-0.2551374"><ele>47.0</ele><time>2026-05-02T09:13:43.406Z</time></trkpt><trkpt lat="52.3782488" lon="-0.2552719"><ele>48.0</ele><time>2026-05-02T09:13:44.406Z</time></trkpt><trkpt lat="52.3785234" lon="-0.2554046"><ele>48.0</ele><time>2026-05-02T09:13:45.406Z</time></trkpt><trkpt lat="52.3787984" lon="-0.2555306"><ele>48.0</ele><time>2026-05-02T09:13:46.406Z</time></trkpt><trkpt lat="52.3790757" lon="-0.2556554"><ele>49.0</ele><time>2026-05-02T09:13:47.402Z</time></trkpt><trkpt lat="52.3793517" lon="-0.2557792"><ele>50.0</ele><time>2026-05-02T09:13:48.406Z</time></trkpt><trkpt lat="52.3796338" lon="-0.2559065"><ele>50.5</ele><time>2026-05-02T09:13:49.407Z</time></trkpt><trkpt lat="52.3799217" lon="-0.256031"><ele>51.0</ele><time>2026-05-02T09:13:50.407Z</time></trkpt><trkpt lat="52.3802182" lon="-0.2561488"><ele>51.0</ele><time>2026-05-02T09:13:51.406Z</time></trkpt><trkpt lat="52.3805231" lon="-0.2562653"><ele>51.0</ele><time>2026-05-02T09:13:52.406Z</time></trkpt><trkpt lat="52.3808348" lon="-0.2563845"><ele>51.0</ele><time>2026-05-02T09:13:53.406Z</time></trkpt><trkpt lat="52.3811545" lon="-0.2565061"><ele>51.0</ele><time>2026-05-02T09:13:54.405Z</time></trkpt><trkpt lat="52.3814799" lon="-0.2566304"><ele>51.5</ele><time>2026-05-02T09:13:55.406Z</time></trkpt><trkpt lat="52.3818115" lon="-0.2567494"><ele>52.0</ele><time>2026-05-02T09:13:56.405Z</time></trkpt><trkpt lat="52.3821509" lon="-0.2568694"><ele>52.0</ele><time>2026-05-02T09:13:57.405Z</time></trkpt><trkpt lat="52.382496" lon="-0.256988"><ele>52.0</ele><time>2026-05-02T09:13:58.406Z</time></trkpt><trkpt lat="52.3828464" lon="-0.2571041"><ele>52.0</ele><time>2026-05-02T09:13:59.406Z</time></trkpt><trkpt lat="52.3832044" lon="-0.2572215"><ele>52.0</ele><time>2026-05-02T09:14:00.407Z</time></trkpt><trkpt lat="52.3835653" lon="-0.2573332"><ele>52.5</ele><time>2026-05-02T09:14:01.408Z</time></trkpt><trkpt lat="52.3839311" lon="-0.2574436"><ele>53.0</ele><time>2026-05-02T09:14:02.402Z</time></trkpt><trkpt lat="52.3843017" lon="-0.2575569"><ele>53.0</ele><time>2026-05-02T09:14:03.407Z</time></trkpt><trkpt lat="52.3846764" lon="-0.257677"><ele>53.0</ele><time>2026-05-02T09:14:04.406Z</time></trkpt><trkpt lat="52.3850525" lon="-0.2578012"><ele>53.0</ele><time>2026-05-02T09:14:05.407Z</time></trkpt><trkpt lat="52.3854338" lon="-0.2579243"><ele>53.0</ele><time>2026-05-02T09:14:06.406Z</time></trkpt><trkpt lat="52.3858172" lon="-0.2580456"><ele>52.0</ele><time>2026-05-02T09:14:07.402Z</time></trkpt><trkpt lat="52.3862032" lon="-0.2581674"><ele>51.0</ele><time>2026-05-02T09:14:08.407Z</time></trkpt><trkpt lat="52.386592" lon="-0.2582889"><ele>50.5</ele><time>2026-05-02T09:14:09.402Z</time></trkpt><trkpt lat="52.3869816" lon="-0.2584121"><ele>50.0</ele><time>2026-05-02T09:14:10.404Z</time></trkpt><trkpt lat="52.3873719" lon="-0.2585295"><ele>49.0</ele><time>2026-05-02T09:14:11.405Z</time></trkpt><trkpt lat="52.3877645" lon="-0.2586488"><ele>48.0</ele><time>2026-05-02T09:14:12.406Z</time></trkpt><trkpt lat="52.3881601" lon="-0.258773"><ele>49.0</ele><time>2026-05-02T09:14:13.402Z</time></trkpt><trkpt lat="52.3885546" lon="-0.258906"><ele>50.0</ele><time>2026-05-02T09:14:14.402Z</time></trkpt><trkpt lat="52.3889377" lon="-0.2590421"><ele>50.0</ele><time>2026-05-02T09:14:15.406Z</time></trkpt><trkpt lat="52.3893059" lon="-0.2591803"><ele>50.0</ele><time>2026-05-02T09:14:16.405Z</time></trkpt><trkpt lat="52.3896665" lon="-0.2593076"><ele>50.0</ele><time>2026-05-02T09:14:17.406Z</time></trkpt><trkpt lat="52.3900206" lon="-0.2594251"><ele>50.0</ele><time>2026-05-02T09:14:18.406Z</time></trkpt><trkpt lat="52.390369" lon="-0.2595387"><ele>49.5</ele><time>2026-05-02T09:14:19.406Z</time></trkpt><trkpt lat="52.3907162" lon="-0.2596493"><ele>49.0</ele><time>2026-05-02T09:14:20.407Z</time></trkpt><trkpt lat="52.3910622" lon="-0.2597572"><ele>49.0</ele><time>2026-05-02T09:14:21.402Z</time></trkpt><trkpt lat="52.3914103" lon="-0.2598669"><ele>49.0</ele><time>2026-05-02T09:14:22.405Z</time></trkpt><trkpt lat="52.391759" lon="-0.2599803"><ele>49.0</ele><time>2026-05-02T09:14:23.403Z</time></trkpt><trkpt lat="52.392109" lon="-0.2600917"><ele>49.0</ele><time>2026-05-02T09:14:24.402Z</time></trkpt><trkpt lat="52.3924556" lon="-0.2602035"><ele>49.5</ele><time>2026-05-02T09:14:25.405Z</time></trkpt><trkpt lat="52.3927977" lon="-0.2603105"><ele>50.0</ele><time>2026-05-02T09:14:26.402Z</time></trkpt><trkpt lat="52.3931422" lon="-0.2604184"><ele>50.0</ele><time>2026-05-02T09:14:27.407Z</time></trkpt><trkpt lat="52.3934842" lon="-0.2605261"><ele>50.0</ele><time>2026-05-02T09:14:28.406Z</time></trkpt><trkpt lat="52.3938283" lon="-0.2606316"><ele>49.5</ele><time>2026-05-02T09:14:29.406Z</time></trkpt><trkpt lat="52.3941731" lon="-0.2607391"><ele>49.0</ele><time>2026-05-02T09:14:30.405Z</time></trkpt><trkpt lat="52.394521" lon="-0.2608402"><ele>49.0</ele><time>2026-05-02T09:14:31.409Z</time></trkpt><trkpt lat="52.3948649" lon="-0.2609359"><ele>49.0</ele><time>2026-05-02T09:14:32.406Z</time></trkpt><trkpt lat="52.3952127" lon="-0.2610231"><ele>49.0</ele><time>2026-05-02T09:14:33.407Z</time></trkpt><trkpt lat="52.3955629" lon="-0.2611121"><ele>49.0</ele><time>2026-05-02T09:14:34.406Z</time></trkpt><trkpt lat="52.3959136" lon="-0.261216"><ele>49.0</ele><time>2026-05-02T09:14:35.407Z</time></trkpt><trkpt lat="52.3962694" lon="-0.2613242"><ele>49.0</ele><time>2026-05-02T09:14:36.405Z</time></trkpt><trkpt lat="52.3966309" lon="-0.2614359"><ele>48.0</ele><time>2026-05-02T09:14:37.405Z</time></trkpt><trkpt lat="52.3969973" lon="-0.2615469"><ele>47.0</ele><time>2026-05-02T09:14:38.406Z</time></trkpt><trkpt lat="52.3973701" lon="-0.2616564"><ele>47.0</ele><time>2026-05-02T09:14:39.406Z</time></trkpt><trkpt lat="52.3977484" lon="-0.2617644"><ele>47.0</ele><time>2026-05-02T09:14:40.405Z</time></trkpt><trkpt lat="52.3981333" lon="-0.2618739"><ele>46.5</ele><time>2026-05-02T09:14:41.405Z</time></trkpt><trkpt lat="52.3985219" lon="-0.2619848"><ele>46.0</ele><time>2026-05-02T09:14:42.407Z</time></trkpt><trkpt lat="52.3989107" lon="-0.262104"><ele>45.5</ele><time>2026-05-02T09:14:43.406Z</time></trkpt><trkpt lat="52.399295" lon="-0.2622272"><ele>45.0</ele><time>2026-05-02T09:14:44.405Z</time></trkpt><trkpt lat="52.3996733" lon="-0.26235"><ele>45.0</ele><time>2026-05-02T09:14:45.402Z</time></trkpt><trkpt lat="52.400045" lon="-0.26247"><ele>45.0</ele><time>2026-05-02T09:14:46.407Z</time></trkpt><trkpt lat="52.400415" lon="-0.2625883"><ele>43.0</ele><time>2026-05-02T09:14:47.403Z</time></trkpt><trkpt lat="52.40079" lon="-0.2627017"><ele>41.0</ele><time>2026-05-02T09:14:48.412Z</time></trkpt><trkpt lat="52.4011633" lon="-0.2628117"><ele>41.5</ele><time>2026-05-02T09:14:49.408Z</time></trkpt><trkpt lat="52.4015317" lon="-0.2629183"><ele>42.0</ele><time>2026-05-02T09:14:50.405Z</time></trkpt><trkpt lat="52.4018983" lon="-0.263025"><ele>42.5</ele><time>2026-05-02T09:14:51.405Z</time></trkpt><trkpt lat="52.4022617" lon="-0.2631317"><ele>43.0</ele><time>2026-05-02T09:14:52.406Z</time></trkpt><trkpt lat="52.4026267" lon="-0.263235"><ele>43.0</ele><time>2026-05-02T09:14:53.405Z</time></trkpt><trkpt lat="52.402995" lon="-0.2633417"><ele>43.0</ele><time>2026-05-02T09:14:54.407Z</time></trkpt><trkpt lat="52.40337" lon="-0.26345"><ele>40.0</ele><time>2026-05-02T09:14:55.407Z</time></trkpt><trkpt lat="52.4037433" lon="-0.2635633"><ele>37.0</ele><time>2026-05-02T09:14:56.406Z</time></trkpt><trkpt lat="52.4041183" lon="-0.263675"><ele>35.5</ele><time>2026-05-02T09:14:57.405Z</time></trkpt><trkpt lat="52.40449" lon="-0.2637883"><ele>34.0</ele><time>2026-05-02T09:14:58.408Z</time></trkpt><trkpt lat="52.4048617" lon="-0.2638967"><ele>31.0</ele><time>2026-05-02T09:14:59.405Z</time></trkpt><trkpt lat="52.405235" lon="-0.2640017"><ele>28.0</ele><time>2026-05-02T09:15:00.406Z</time></trkpt><trkpt lat="52.4056083" lon="-0.2641067"><ele>27.0</ele><time>2026-05-02T09:15:01.406Z</time></trkpt><trkpt lat="52.405985" lon="-0.264215"><ele>26.0</ele><time>2026-05-02T09:15:02.407Z</time></trkpt><trkpt lat="52.4063583" lon="-0.2643283"><ele>26.0</ele><time>2026-05-02T09:15:03.405Z</time></trkpt><trkpt lat="52.406725" lon="-0.2644417"><ele>26.0</ele><time>2026-05-02T09:15:04.406Z</time></trkpt><trkpt lat="52.4070933" lon="-0.26455"><ele>25.0</ele><time>2026-05-02T09:15:05.406Z</time></trkpt><trkpt lat="52.4074583" lon="-0.2646583"><ele>24.0</ele><time>2026-05-02T09:15:06.406Z</time></trkpt><trkpt lat="52.4078217" lon="-0.2647633"><ele>23.5</ele><time>2026-05-02T09:15:07.402Z</time></trkpt><trkpt lat="52.408185" lon="-0.2648683"><ele>23.0</ele><time>2026-05-02T09:15:08.407Z</time></trkpt><trkpt lat="52.4085467" lon="-0.2649733"><ele>23.0</ele><time>2026-05-02T09:15:09.403Z</time></trkpt><trkpt lat="52.4089067" lon="-0.2650817"><ele>23.0</ele><time>2026-05-02T09:15:10.402Z</time></trkpt><trkpt lat="52.4092633" lon="-0.2651917"><ele>23.0</ele><time>2026-05-02T09:15:11.403Z</time></trkpt><trkpt lat="52.4096233" lon="-0.265305"><ele>23.0</ele><time>2026-05-02T09:15:12.402Z</time></trkpt><trkpt lat="52.40999" lon="-0.2654133"><ele>21.5</ele><time>2026-05-02T09:15:13.405Z</time></trkpt><trkpt lat="52.41036" lon="-0.2655183"><ele>20.0</ele><time>2026-05-02T09:15:14.404Z</time></trkpt><trkpt lat="52.410735" lon="-0.2656283"><ele>20.0</ele><time>2026-05-02T09:15:15.402Z</time></trkpt><trkpt lat="52.411105" lon="-0.26574"><ele>20.0</ele><time>2026-05-02T09:15:16.402Z</time></trkpt><trkpt lat="52.4114717" lon="-0.26585"><ele>19.5</ele><time>2026-05-02T09:15:17.403Z</time></trkpt><trkpt lat="52.411835" lon="-0.2659517"><ele>19.0</ele><time>2026-05-02T09:15:18.405Z</time></trkpt><trkpt lat="52.4121983" lon="-0.2660533"><ele>19.0</ele><time>2026-05-02T09:15:19.402Z</time></trkpt><trkpt lat="52.4125617" lon="-0.26616"><ele>19.0</ele><time>2026-05-02T09:15:20.403Z</time></trkpt><trkpt lat="52.412925" lon="-0.2662633"><ele>19.0</ele><time>2026-05-02T09:15:21.403Z</time></trkpt><trkpt lat="52.41329" lon="-0.26637"><ele>19.0</ele><time>2026-05-02T09:15:22.403Z</time></trkpt><trkpt lat="52.4136533" lon="-0.266475"><ele>18.5</ele><time>2026-05-02T09:15:23.403Z</time></trkpt><trkpt lat="52.414015" lon="-0.26658"><ele>18.0</ele><time>2026-05-02T09:15:24.404Z</time></trkpt><trkpt lat="52.4143767" lon="-0.266685"><ele>17.0</ele><time>2026-05-02T09:15:25.402Z</time></trkpt><trkpt lat="52.4147367" lon="-0.26679"><ele>16.0</ele><time>2026-05-02T09:15:26.403Z</time></trkpt><trkpt lat="52.4150917" lon="-0.2668917"><ele>16.0</ele><time>2026-05-02T09:15:27.402Z</time></trkpt><trkpt lat="52.415445" lon="-0.26699"><ele>16.0</ele><time>2026-05-02T09:15:28.403Z</time></trkpt><trkpt lat="52.4157933" lon="-0.26709"><ele>15.5</ele><time>2026-05-02T09:15:29.403Z</time></trkpt><trkpt lat="52.41614" lon="-0.2671933"><ele>15.0</ele><time>2026-05-02T09:15:30.403Z</time></trkpt><trkpt lat="52.4164817" lon="-0.2673"><ele>15.0</ele><time>2026-05-02T09:15:31.403Z</time></trkpt><trkpt lat="52.416825" lon="-0.2674083"><ele>15.0</ele><time>2026-05-02T09:15:32.403Z</time></trkpt><trkpt lat="52.41717" lon="-0.267515"><ele>16.0</ele><time>2026-05-02T09:15:33.402Z</time></trkpt><trkpt lat="52.4175133" lon="-0.2676167"><ele>17.0</ele><time>2026-05-02T09:15:34.402Z</time></trkpt><trkpt lat="52.4178567" lon="-0.2677117"><ele>16.0</ele><time>2026-05-02T09:15:35.403Z</time></trkpt><trkpt lat="52.4182" lon="-0.2678017"><ele>15.0</ele><time>2026-05-02T09:15:36.402Z</time></trkpt><trkpt lat="52.4185433" lon="-0.26789"><ele>14.5</ele><time>2026-05-02T09:15:37.403Z</time></trkpt><trkpt lat="52.4188883" lon="-0.2679717"><ele>14.0</ele><time>2026-05-02T09:15:38.404Z</time></trkpt><trkpt lat="52.4192317" lon="-0.2680417"><ele>14.0</ele><time>2026-05-02T09:15:39.405Z</time></trkpt><trkpt lat="52.4195767" lon="-0.2681117"><ele>14.0</ele><time>2026-05-02T09:15:40.403Z</time></trkpt><trkpt lat="52.4199233" lon="-0.2681733"><ele>13.5</ele><time>2026-05-02T09:15:41.406Z</time></trkpt><trkpt lat="52.4202667" lon="-0.2682333"><ele>13.0</ele><time>2026-05-02T09:15:42.403Z</time></trkpt><trkpt lat="52.4206067" lon="-0.2682933"><ele>12.5</ele><time>2026-05-02T09:15:43.405Z</time></trkpt><trkpt lat="52.4209433" lon="-0.2683533"><ele>12.0</ele><time>2026-05-02T09:15:44.404Z</time></trkpt><trkpt lat="52.421275" lon="-0.2684083"><ele>12.5</ele><time>2026-05-02T09:15:45.407Z</time></trkpt><trkpt lat="52.4216033" lon="-0.2684533"><ele>13.0</ele><time>2026-05-02T09:15:46.403Z</time></trkpt><trkpt lat="52.4219333" lon="-0.2684967"><ele>13.0</ele><time>2026-05-02T09:15:47.406Z</time></trkpt><trkpt lat="52.4222633" lon="-0.2685367"><ele>13.0</ele><time>2026-05-02T09:15:48.402Z</time></trkpt><trkpt lat="52.4225917" lon="-0.2685833"><ele>13.0</ele><time>2026-05-02T09:15:49.402Z</time></trkpt><trkpt lat="52.4229217" lon="-0.2686367"><ele>13.0</ele><time>2026-05-02T09:15:50.402Z</time></trkpt><trkpt lat="52.4232517" lon="-0.2686867"><ele>13.5</ele><time>2026-05-02T09:15:51.403Z</time></trkpt><trkpt lat="52.4235817" lon="-0.2687367"><ele>14.0</ele><time>2026-05-02T09:15:52.402Z</time></trkpt><trkpt lat="52.42391" lon="-0.2687917"><ele>14.0</ele><time>2026-05-02T09:15:53.403Z</time></trkpt><trkpt lat="52.4242217" lon="-0.2688517"><ele>14.0</ele><time>2026-05-02T09:15:54.403Z</time></trkpt><trkpt lat="52.4245167" lon="-0.268915"><ele>13.5</ele><time>2026-05-02T09:15:55.402Z</time></trkpt><trkpt lat="52.4247933" lon="-0.26898"><ele>13.0</ele><time>2026-05-02T09:15:56.403Z</time></trkpt><trkpt lat="52.4250617" lon="-0.2690433"><ele>13.0</ele><time>2026-05-02T09:15:57.403Z</time></trkpt><trkpt lat="52.42532" lon="-0.2691"><ele>13.0</ele><time>2026-05-02T09:15:58.403Z</time></trkpt><trkpt lat="52.4255783" lon="-0.26916"><ele>14.0</ele><time>2026-05-02T09:15:59.403Z</time></trkpt><trkpt lat="52.4258367" lon="-0.269225"><ele>15.0</ele><time>2026-05-02T09:16:00.406Z</time></trkpt><trkpt lat="52.4260917" lon="-0.26929"><ele>16.0</ele><time>2026-05-02T09:16:01.406Z</time></trkpt><trkpt lat="52.4263433" lon="-0.2693583"><ele>17.0</ele><time>2026-05-02T09:16:02.406Z</time></trkpt><trkpt lat="52.4265967" lon="-0.2694267"><ele>17.0</ele><time>2026-05-02T09:16:03.405Z</time></trkpt><trkpt lat="52.4268467" lon="-0.2694983"><ele>17.0</ele><time>2026-05-02T09:16:04.406Z</time></trkpt><trkpt lat="52.427095" lon="-0.269575"><ele>15.0</ele><time>2026-05-02T09:16:05.407Z</time></trkpt><trkpt lat="52.427345" lon="-0.2696517"><ele>13.0</ele><time>2026-05-02T09:16:06.406Z</time></trkpt><trkpt lat="52.4276017" lon="-0.269725"><ele>13.0</ele><time>2026-05-02T09:16:07.408Z</time></trkpt><trkpt lat="52.42786" lon="-0.2698017"><ele>13.0</ele><time>2026-05-02T09:16:08.404Z</time></trkpt><trkpt lat="52.42812" lon="-0.2698783"><ele>12.5</ele><time>2026-05-02T09:16:09.405Z</time></trkpt><trkpt lat="52.4283833" lon="-0.2699633"><ele>12.0</ele><time>2026-05-02T09:16:10.407Z</time></trkpt><trkpt lat="52.4286467" lon="-0.2700533"><ele>12.5</ele><time>2026-05-02T09:16:11.404Z</time></trkpt><trkpt lat="52.4289067" lon="-0.2701383"><ele>13.0</ele><time>2026-05-02T09:16:12.409Z</time></trkpt><trkpt lat="52.4291667" lon="-0.2702283"><ele>13.0</ele><time>2026-05-02T09:16:13.405Z</time></trkpt><trkpt lat="52.4294233" lon="-0.27032"><ele>13.0</ele><time>2026-05-02T09:16:14.402Z</time></trkpt><trkpt lat="52.42968" lon="-0.2704083"><ele>11.0</ele><time>2026-05-02T09:16:15.404Z</time></trkpt><trkpt lat="52.4299367" lon="-0.2704983"><ele>9.0</ele><time>2026-05-02T09:16:16.403Z</time></trkpt><trkpt lat="52.4301917" lon="-0.2705933"><ele>9.0</ele><time>2026-05-02T09:16:17.402Z</time></trkpt><trkpt lat="52.4304467" lon="-0.2706867"><ele>9.0</ele><time>2026-05-02T09:16:18.404Z</time></trkpt><trkpt lat="52.430705" lon="-0.27078"><ele>9.0</ele><time>2026-05-02T09:16:19.403Z</time></trkpt><trkpt lat="52.4309583" lon="-0.270875"><ele>9.0</ele><time>2026-05-02T09:16:20.402Z</time></trkpt><trkpt lat="52.4312133" lon="-0.2709717"><ele>9.0</ele><time>2026-05-02T09:16:21.402Z</time></trkpt><trkpt lat="52.4314683" lon="-0.27107"><ele>9.0</ele><time>2026-05-02T09:16:22.403Z</time></trkpt><trkpt lat="52.4317233" lon="-0.2711667"><ele>9.0</ele><time>2026-05-02T09:16:23.403Z</time></trkpt><trkpt lat="52.43198" lon="-0.2712583"><ele>9.0</ele><time>2026-05-02T09:16:24.404Z</time></trkpt><trkpt lat="52.4322367" lon="-0.2713483"><ele>9.0</ele><time>2026-05-02T09:16:25.403Z</time></trkpt><trkpt lat="52.432495" lon="-0.27144"><ele>9.0</ele><time>2026-05-02T09:16:26.406Z</time></trkpt><trkpt lat="52.4327517" lon="-0.2715333"><ele>8.5</ele><time>2026-05-02T09:16:27.403Z</time></trkpt><trkpt lat="52.43301" lon="-0.2716283"><ele>8.0</ele><time>2026-05-02T09:16:28.402Z</time></trkpt><trkpt lat="52.4332683" lon="-0.2717217"><ele>8.0</ele><time>2026-05-02T09:16:29.402Z</time></trkpt><trkpt lat="52.4335233" lon="-0.271815"><ele>8.0</ele><time>2026-05-02T09:16:30.403Z</time></trkpt><trkpt lat="52.43378" lon="-0.2719067"><ele>7.0</ele><time>2026-05-02T09:16:31.403Z</time></trkpt><trkpt lat="52.43404" lon="-0.272"><ele>6.0</ele><time>2026-05-02T09:16:32.403Z</time></trkpt><trkpt lat="52.4342983" lon="-0.2720967"><ele>6.0</ele><time>2026-05-02T09:16:33.405Z</time></trkpt><trkpt lat="52.434555" lon="-0.2721933"><ele>6.0</ele><time>2026-05-02T09:16:34.407Z</time></trkpt><trkpt lat="52.43481" lon="-0.2722933"><ele>7.5</ele><time>2026-05-02T09:16:35.405Z</time></trkpt><trkpt lat="52.4350667" lon="-0.2723883"><ele>9.0</ele><time>2026-05-02T09:16:36.403Z</time></trkpt><trkpt lat="52.4353233" lon="-0.272485"><ele>9.0</ele><time>2026-05-02T09:16:37.404Z</time></trkpt><trkpt lat="52.435585" lon="-0.2725833"><ele>9.0</ele><time>2026-05-02T09:16:38.408Z</time></trkpt><trkpt lat="52.4358433" lon="-0.2726767"><ele>9.0</ele><time>2026-05-02T09:16:39.403Z</time></trkpt><trkpt lat="52.4361017" lon="-0.2727683"><ele>9.0</ele><time>2026-05-02T09:16:40.407Z</time></trkpt><trkpt lat="52.43636" lon="-0.2728617"><ele>9.0</ele><time>2026-05-02T09:16:41.407Z</time></trkpt><trkpt lat="52.4366167" lon="-0.2729517"><ele>9.0</ele><time>2026-05-02T09:16:42.405Z</time></trkpt><trkpt lat="52.4368733" lon="-0.2730417"><ele>10.0</ele><time>2026-05-02T09:16:43.402Z</time></trkpt><trkpt lat="52.4371333" lon="-0.27313"><ele>11.0</ele><time>2026-05-02T09:16:44.402Z</time></trkpt><trkpt lat="52.43739" lon="-0.2732233"><ele>11.0</ele><time>2026-05-02T09:16:45.404Z</time></trkpt><trkpt lat="52.4376467" lon="-0.2733183"><ele>11.0</ele><time>2026-05-02T09:16:46.405Z</time></trkpt><trkpt lat="52.437905" lon="-0.27341"><ele>11.5</ele><time>2026-05-02T09:16:47.403Z</time></trkpt><trkpt lat="52.4381617" lon="-0.2734967"><ele>12.0</ele><time>2026-05-02T09:16:48.403Z</time></trkpt><trkpt lat="52.4384217" lon="-0.273585"><ele>12.0</ele><time>2026-05-02T09:16:49.403Z</time></trkpt><trkpt lat="52.438675" lon="-0.273675"><ele>12.0</ele><time>2026-05-02T09:16:50.402Z</time></trkpt><trkpt lat="52.4389317" lon="-0.2737683"><ele>12.0</ele><time>2026-05-02T09:16:51.403Z</time></trkpt><trkpt lat="52.4391917" lon="-0.2738617"><ele>12.0</ele><time>2026-05-02T09:16:52.403Z</time></trkpt><trkpt lat="52.43945" lon="-0.27396"><ele>12.0</ele><time>2026-05-02T09:16:53.403Z</time></trkpt><trkpt lat="52.4397083" lon="-0.27406"><ele>12.0</ele><time>2026-05-02T09:16:54.402Z</time></trkpt><trkpt lat="52.4399617" lon="-0.2741533"><ele>12.0</ele><time>2026-05-02T09:16:55.405Z</time></trkpt><trkpt lat="52.4402167" lon="-0.274245"><ele>12.0</ele><time>2026-05-02T09:16:56.403Z</time></trkpt><trkpt lat="52.4404733" lon="-0.27434"><ele>12.5</ele><time>2026-05-02T09:16:57.404Z</time></trkpt><trkpt lat="52.44073" lon="-0.27443"><ele>13.0</ele><time>2026-05-02T09:16:58.403Z</time></trkpt><trkpt lat="52.44099" lon="-0.274525"><ele>13.0</ele><time>2026-05-02T09:16:59.406Z</time></trkpt><trkpt lat="52.4412483" lon="-0.27462"><ele>13.0</ele><time>2026-05-02T09:17:00.406Z</time></trkpt><trkpt lat="52.4415083" lon="-0.2747167"><ele>12.5</ele><time>2026-05-02T09:17:01.405Z</time></trkpt><trkpt lat="52.4417667" lon="-0.2748117"><ele>12.0</ele><time>2026-05-02T09:17:02.402Z</time></trkpt><trkpt lat="52.4420267" lon="-0.2749017"><ele>12.5</ele><time>2026-05-02T09:17:03.402Z</time></trkpt><trkpt lat="52.4422833" lon="-0.2749917"><ele>13.0</ele><time>2026-05-02T09:17:04.402Z</time></trkpt><trkpt lat="52.4425433" lon="-0.2750817"><ele>13.0</ele><time>2026-05-02T09:17:05.403Z</time></trkpt><trkpt lat="52.4428033" lon="-0.275175"><ele>13.0</ele><time>2026-05-02T09:17:06.402Z</time></trkpt><trkpt lat="52.4430683" lon="-0.27527"><ele>12.5</ele><time>2026-05-02T09:17:07.403Z</time></trkpt><trkpt lat="52.443335" lon="-0.275365"><ele>12.0</ele><time>2026-05-02T09:17:08.406Z</time></trkpt><trkpt lat="52.4435983" lon="-0.2754617"><ele>11.5</ele><time>2026-05-02T09:17:09.402Z</time></trkpt><trkpt lat="52.4438667" lon="-0.2755717"><ele>11.0</ele><time>2026-05-02T09:17:10.407Z</time></trkpt><trkpt lat="52.4441317" lon="-0.2756883"><ele>11.0</ele><time>2026-05-02T09:17:11.404Z</time></trkpt><trkpt lat="52.444395" lon="-0.2757983"><ele>11.0</ele><time>2026-05-02T09:17:12.403Z</time></trkpt><trkpt lat="52.444655" lon="-0.275905"><ele>11.0</ele><time>2026-05-02T09:17:13.402Z</time></trkpt><trkpt lat="52.44491" lon="-0.2760183"><ele>11.0</ele><time>2026-05-02T09:17:14.402Z</time></trkpt><trkpt lat="52.44517" lon="-0.276135"><ele>11.0</ele><time>2026-05-02T09:17:15.403Z</time></trkpt><trkpt lat="52.4454333" lon="-0.2762567"><ele>11.0</ele><time>2026-05-02T09:17:16.407Z</time></trkpt><trkpt lat="52.4456967" lon="-0.2763783"><ele>10.0</ele><time>2026-05-02T09:17:17.402Z</time></trkpt><trkpt lat="52.44596" lon="-0.2765"><ele>9.0</ele><time>2026-05-02T09:17:18.404Z</time></trkpt><trkpt lat="52.44622" lon="-0.2766217"><ele>10.0</ele><time>2026-05-02T09:17:19.402Z</time></trkpt><trkpt lat="52.4464783" lon="-0.2767433"><ele>11.0</ele><time>2026-05-02T09:17:20.402Z</time></trkpt><trkpt lat="52.446735" lon="-0.2768667"><ele>11.0</ele><time>2026-05-02T09:17:21.402Z</time></trkpt><trkpt lat="52.4469867" lon="-0.2769983"><ele>11.0</ele><time>2026-05-02T09:17:22.403Z</time></trkpt><trkpt lat="52.4472367" lon="-0.2771233"><ele>11.0</ele><time>2026-05-02T09:17:23.403Z</time></trkpt><trkpt lat="52.44749" lon="-0.277245"><ele>11.0</ele><time>2026-05-02T09:17:24.403Z</time></trkpt><trkpt lat="52.4477467" lon="-0.27736"><ele>10.5</ele><time>2026-05-02T09:17:25.403Z</time></trkpt><trkpt lat="52.448" lon="-0.277475"><ele>10.0</ele><time>2026-05-02T09:17:26.404Z</time></trkpt><trkpt lat="52.4482567" lon="-0.2775833"><ele>10.0</ele><time>2026-05-02T09:17:27.402Z</time></trkpt><trkpt lat="52.4485133" lon="-0.2776933"><ele>10.0</ele><time>2026-05-02T09:17:28.403Z</time></trkpt><trkpt lat="52.4487733" lon="-0.2778033"><ele>9.0</ele><time>2026-05-02T09:17:29.403Z</time></trkpt><trkpt lat="52.449035" lon="-0.277915"><ele>8.0</ele><time>2026-05-02T09:17:30.403Z</time></trkpt><trkpt lat="52.4492967" lon="-0.27802"><ele>8.5</ele><time>2026-05-02T09:17:31.409Z</time></trkpt><trkpt lat="52.44956" lon="-0.27812"><ele>9.0</ele><time>2026-05-02T09:17:32.405Z</time></trkpt><trkpt lat="52.4498217" lon="-0.2782183"><ele>9.0</ele><time>2026-05-02T09:17:33.404Z</time></trkpt><trkpt lat="52.450085" lon="-0.2783083"><ele>9.0</ele><time>2026-05-02T09:17:34.404Z</time></trkpt><trkpt lat="52.450355" lon="-0.2784017"><ele>8.5</ele><time>2026-05-02T09:17:35.407Z</time></trkpt><trkpt lat="52.4506333" lon="-0.278495"><ele>8.0</ele><time>2026-05-02T09:17:36.405Z</time></trkpt><trkpt lat="52.45092" lon="-0.2785917"><ele>8.0</ele><time>2026-05-02T09:17:37.404Z</time></trkpt><trkpt lat="52.4512133" lon="-0.278685"><ele>8.0</ele><time>2026-05-02T09:17:38.403Z</time></trkpt><trkpt lat="52.4515133" lon="-0.278775"><ele>10.0</ele><time>2026-05-02T09:17:39.403Z</time></trkpt><trkpt lat="52.4518167" lon="-0.278865"><ele>12.0</ele><time>2026-05-02T09:17:40.404Z</time></trkpt><trkpt lat="52.452125" lon="-0.2789567"><ele>12.0</ele><time>2026-05-02T09:17:41.404Z</time></trkpt><trkpt lat="52.4524383" lon="-0.2790517"><ele>12.0</ele><time>2026-05-02T09:17:42.404Z</time></trkpt><trkpt lat="52.4527533" lon="-0.2791417"><ele>12.5</ele><time>2026-05-02T09:17:43.405Z</time></trkpt><trkpt lat="52.453065" lon="-0.2792283"><ele>13.0</ele><time>2026-05-02T09:17:44.403Z</time></trkpt><trkpt lat="52.453365" lon="-0.2793083"><ele>13.0</ele><time>2026-05-02T09:17:45.405Z</time></trkpt><trkpt lat="52.4536633" lon="-0.27939"><ele>13.0</ele><time>2026-05-02T09:17:46.405Z</time></trkpt><trkpt lat="52.4539633" lon="-0.27947"><ele>13.5</ele><time>2026-05-02T09:17:47.405Z</time></trkpt><trkpt lat="52.4542617" lon="-0.27955"><ele>14.0</ele><time>2026-05-02T09:17:48.404Z</time></trkpt><trkpt lat="52.4545517" lon="-0.279635"><ele>14.5</ele><time>2026-05-02T09:17:49.403Z</time></trkpt><trkpt lat="52.45484" lon="-0.2797183"><ele>15.0</ele><time>2026-05-02T09:17:50.405Z</time></trkpt><trkpt lat="52.4551283" lon="-0.2798"><ele>15.5</ele><time>2026-05-02T09:17:51.406Z</time></trkpt><trkpt lat="52.4554217" lon="-0.279885"><ele>16.0</ele><time>2026-05-02T09:17:52.406Z</time></trkpt><trkpt lat="52.4557133" lon="-0.27997"><ele>16.0</ele><time>2026-05-02T09:17:53.406Z</time></trkpt><trkpt lat="52.456005" lon="-0.280055"><ele>16.0</ele><time>2026-05-02T09:17:54.404Z</time></trkpt><trkpt lat="52.4562967" lon="-0.28014"><ele>16.5</ele><time>2026-05-02T09:17:55.403Z</time></trkpt><trkpt lat="52.4565867" lon="-0.280225"><ele>17.0</ele><time>2026-05-02T09:17:56.405Z</time></trkpt><trkpt lat="52.4568683" lon="-0.280315"><ele>16.5</ele><time>2026-05-02T09:17:57.404Z</time></trkpt><trkpt lat="52.4571517" lon="-0.2804"><ele>16.0</ele><time>2026-05-02T09:17:58.405Z</time></trkpt><trkpt lat="52.45743" lon="-0.2804817"><ele>16.0</ele><time>2026-05-02T09:17:59.405Z</time></trkpt><trkpt lat="52.45771" lon="-0.2805617"><ele>16.0</ele><time>2026-05-02T09:18:00.405Z</time></trkpt><trkpt lat="52.4579917" lon="-0.2806433"><ele>15.5</ele><time>2026-05-02T09:18:01.405Z</time></trkpt><trkpt lat="52.45827" lon="-0.280725"><ele>15.0</ele><time>2026-05-02T09:18:02.404Z</time></trkpt><trkpt lat="52.4585483" lon="-0.2808033"><ele>14.5</ele><time>2026-05-02T09:18:03.404Z</time></trkpt><trkpt lat="52.4588283" lon="-0.280885"><ele>14.0</ele><time>2026-05-02T09:18:04.406Z</time></trkpt><trkpt lat="52.4591067" lon="-0.2809667"><ele>14.0</ele><time>2026-05-02T09:18:05.406Z</time></trkpt><trkpt lat="52.45938" lon="-0.2810467"><ele>14.0</ele><time>2026-05-02T09:18:06.402Z</time></trkpt><trkpt lat="52.459655" lon="-0.2811183"><ele>14.0</ele><time>2026-05-02T09:18:07.405Z</time></trkpt><trkpt lat="52.4599383" lon="-0.2811817"><ele>14.0</ele><time>2026-05-02T09:18:08.402Z</time></trkpt><trkpt lat="52.4602267" lon="-0.28124"><ele>13.0</ele><time>2026-05-02T09:18:09.409Z</time></trkpt><trkpt lat="52.4605183" lon="-0.2812983"><ele>12.0</ele><time>2026-05-02T09:18:10.404Z</time></trkpt><trkpt lat="52.4608033" lon="-0.2813717"><ele>12.0</ele><time>2026-05-02T09:18:11.403Z</time></trkpt><trkpt lat="52.46109" lon="-0.28145"><ele>12.0</ele><time>2026-05-02T09:18:12.404Z</time></trkpt><trkpt lat="52.46137" lon="-0.2815233"><ele>13.0</ele><time>2026-05-02T09:18:13.402Z</time></trkpt><trkpt lat="52.461645" lon="-0.28159"><ele>14.0</ele><time>2026-05-02T09:18:14.403Z</time></trkpt><trkpt lat="52.4619183" lon="-0.2816533"><ele>13.5</ele><time>2026-05-02T09:18:15.403Z</time></trkpt><trkpt lat="52.4621917" lon="-0.2817217"><ele>13.0</ele><time>2026-05-02T09:18:16.404Z</time></trkpt><trkpt lat="52.4624633" lon="-0.2817867"><ele>13.0</ele><time>2026-05-02T09:18:17.402Z</time></trkpt><trkpt lat="52.4627367" lon="-0.2818483"><ele>13.0</ele><time>2026-05-02T09:18:18.404Z</time></trkpt><trkpt lat="52.46301" lon="-0.28191"><ele>14.0</ele><time>2026-05-02T09:18:19.402Z</time></trkpt><trkpt lat="52.4632817" lon="-0.2819733"><ele>15.0</ele><time>2026-05-02T09:18:20.403Z</time></trkpt><trkpt lat="52.4635567" lon="-0.2820417"><ele>15.5</ele><time>2026-05-02T09:18:21.407Z</time></trkpt><trkpt lat="52.4638367" lon="-0.2821167"><ele>16.0</ele><time>2026-05-02T09:18:22.402Z</time></trkpt><trkpt lat="52.4641183" lon="-0.2821933"><ele>16.0</ele><time>2026-05-02T09:18:23.402Z</time></trkpt><trkpt lat="52.464405" lon="-0.2822767"><ele>16.0</ele><time>2026-05-02T09:18:24.404Z</time></trkpt><trkpt lat="52.4646983" lon="-0.282365"><ele>15.5</ele><time>2026-05-02T09:18:25.402Z</time></trkpt><trkpt lat="52.4650033" lon="-0.282465"><ele>15.0</ele><time>2026-05-02T09:18:26.404Z</time></trkpt><trkpt lat="52.4653117" lon="-0.282565"><ele>15.0</ele><time>2026-05-02T09:18:27.406Z</time></trkpt><trkpt lat="52.46563" lon="-0.28266"><ele>15.0</ele><time>2026-05-02T09:18:28.402Z</time></trkpt><trkpt lat="52.4659583" lon="-0.2827517"><ele>15.5</ele><time>2026-05-02T09:18:29.404Z</time></trkpt><trkpt lat="52.4662917" lon="-0.2828483"><ele>16.0</ele><time>2026-05-02T09:18:30.403Z</time></trkpt><trkpt lat="52.466635" lon="-0.28295"><ele>16.0</ele><time>2026-05-02T09:18:31.403Z</time></trkpt><trkpt lat="52.4669883" lon="-0.2830617"><ele>16.0</ele><time>2026-05-02T09:18:32.406Z</time></trkpt><trkpt lat="52.467345" lon="-0.283175"><ele>16.0</ele><time>2026-05-02T09:18:33.402Z</time></trkpt><trkpt lat="52.467705" lon="-0.2832933"><ele>16.0</ele><time>2026-05-02T09:18:34.402Z</time></trkpt><trkpt lat="52.4680717" lon="-0.28341"><ele>16.0</ele><time>2026-05-02T09:18:35.404Z</time></trkpt><trkpt lat="52.4684433" lon="-0.2835267"><ele>16.0</ele><time>2026-05-02T09:18:36.404Z</time></trkpt><trkpt lat="52.4688217" lon="-0.2836483"><ele>16.0</ele><time>2026-05-02T09:18:37.403Z</time></trkpt><trkpt lat="52.469205" lon="-0.2837767"><ele>16.0</ele><time>2026-05-02T09:18:38.403Z</time></trkpt><trkpt lat="52.4695917" lon="-0.2839083"><ele>15.5</ele><time>2026-05-02T09:18:39.403Z</time></trkpt><trkpt lat="52.4699817" lon="-0.28404"><ele>15.0</ele><time>2026-05-02T09:18:40.406Z</time></trkpt><trkpt lat="52.4703733" lon="-0.2841767"><ele>15.0</ele><time>2026-05-02T09:18:41.403Z</time></trkpt><trkpt lat="52.4707683" lon="-0.2843117"><ele>15.0</ele><time>2026-05-02T09:18:42.404Z</time></trkpt><trkpt lat="52.4711617" lon="-0.2844467"><ele>15.5</ele><time>2026-05-02T09:18:43.405Z</time></trkpt><trkpt lat="52.4715583" lon="-0.284583"><ele>16.0</ele><time>2026-05-02T09:18:44.406Z</time></trkpt><trkpt lat="52.4719547" lon="-0.2847192"><ele>16.0</ele><time>2026-05-02T09:18:45.404Z</time></trkpt><trkpt lat="52.4723519" lon="-0.2848587"><ele>16.0</ele><time>2026-05-02T09:18:46.401Z</time></trkpt><trkpt lat="52.4727526" lon="-0.285005"><ele>17.5</ele><time>2026-05-02T09:18:47.402Z</time></trkpt><trkpt lat="52.4731561" lon="-0.2851523"><ele>19.0</ele><time>2026-05-02T09:18:48.403Z</time></trkpt><trkpt lat="52.4735625" lon="-0.2852996"><ele>18.0</ele><time>2026-05-02T09:18:49.401Z</time></trkpt><trkpt lat="52.4739695" lon="-0.2854517"><ele>17.0</ele><time>2026-05-02T09:18:50.402Z</time></trkpt><trkpt lat="52.4743766" lon="-0.2856054"><ele>17.0</ele><time>2026-05-02T09:18:51.405Z</time></trkpt><trkpt lat="52.4747822" lon="-0.2857496"><ele>17.0</ele><time>2026-05-02T09:18:52.402Z</time></trkpt><trkpt lat="52.4751889" lon="-0.2858901"><ele>18.0</ele><time>2026-05-02T09:18:53.403Z</time></trkpt><trkpt lat="52.4755942" lon="-0.2860382"><ele>19.0</ele><time>2026-05-02T09:18:54.403Z</time></trkpt><trkpt lat="52.4760011" lon="-0.2861793"><ele>18.5</ele><time>2026-05-02T09:18:55.403Z</time></trkpt><trkpt lat="52.4764086" lon="-0.286316"><ele>18.0</ele><time>2026-05-02T09:18:56.404Z</time></trkpt><trkpt lat="52.4768154" lon="-0.286449"><ele>18.5</ele><time>2026-05-02T09:18:57.403Z</time></trkpt><trkpt lat="52.4772234" lon="-0.2865731"><ele>19.0</ele><time>2026-05-02T09:18:58.402Z</time></trkpt><trkpt lat="52.4776264" lon="-0.2866879"><ele>20.0</ele><time>2026-05-02T09:18:59.402Z</time></trkpt><trkpt lat="52.4780092" lon="-0.2867817"><ele>21.0</ele><time>2026-05-02T09:19:00.404Z</time></trkpt><trkpt lat="52.4783645" lon="-0.2868537"><ele>21.0</ele><time>2026-05-02T09:19:01.402Z</time></trkpt><trkpt lat="52.4786992" lon="-0.2869087"><ele>21.0</ele><time>2026-05-02T09:19:02.402Z</time></trkpt><trkpt lat="52.4790204" lon="-0.2869453"><ele>20.5</ele><time>2026-05-02T09:19:03.403Z</time></trkpt><trkpt lat="52.4793398" lon="-0.2869579"><ele>20.0</ele><time>2026-05-02T09:19:04.403Z</time></trkpt><trkpt lat="52.4796645" lon="-0.2869509"><ele>21.0</ele><time>2026-05-02T09:19:05.404Z</time></trkpt><trkpt lat="52.4799961" lon="-0.2869306"><ele>22.0</ele><time>2026-05-02T09:19:06.402Z</time></trkpt><trkpt lat="52.4803315" lon="-0.2869002"><ele>20.0</ele><time>2026-05-02T09:19:07.402Z</time></trkpt><trkpt lat="52.4806695" lon="-0.2868613"><ele>18.0</ele><time>2026-05-02T09:19:08.403Z</time></trkpt><trkpt lat="52.4810095" lon="-0.2868116"><ele>19.0</ele><time>2026-05-02T09:19:09.404Z</time></trkpt><trkpt lat="52.4813486" lon="-0.2867483"><ele>20.0</ele><time>2026-05-02T09:19:10.403Z</time></trkpt><trkpt lat="52.4816874" lon="-0.2866736"><ele>20.0</ele><time>2026-05-02T09:19:11.402Z</time></trkpt><trkpt lat="52.482022" lon="-0.2865841"><ele>20.0</ele><time>2026-05-02T09:19:12.402Z</time></trkpt><trkpt lat="52.4823561" lon="-0.2864839"><ele>20.0</ele><time>2026-05-02T09:19:13.403Z</time></trkpt><trkpt lat="52.4826956" lon="-0.2863716"><ele>20.0</ele><time>2026-05-02T09:19:14.404Z</time></trkpt><trkpt lat="52.4830392" lon="-0.2862604"><ele>20.5</ele><time>2026-05-02T09:19:15.403Z</time></trkpt><trkpt lat="52.4833908" lon="-0.2861487"><ele>21.0</ele><time>2026-05-02T09:19:16.402Z</time></trkpt><trkpt lat="52.48375" lon="-0.286025"><ele>20.5</ele><time>2026-05-02T09:19:17.402Z</time></trkpt><trkpt lat="52.4841117" lon="-0.2859017"><ele>20.0</ele><time>2026-05-02T09:19:18.404Z</time></trkpt><trkpt lat="52.4844733" lon="-0.28577"><ele>19.0</ele><time>2026-05-02T09:19:19.404Z</time></trkpt><trkpt lat="52.4848283" lon="-0.28564"><ele>18.0</ele><time>2026-05-02T09:19:20.402Z</time></trkpt><trkpt lat="52.4851717" lon="-0.28552"><ele>18.0</ele><time>2026-05-02T09:19:21.404Z</time></trkpt><trkpt lat="52.4855083" lon="-0.2854067"><ele>18.0</ele><time>2026-05-02T09:19:22.404Z</time></trkpt><trkpt lat="52.4858417" lon="-0.2853033"><ele>18.0</ele><time>2026-05-02T09:19:23.404Z</time></trkpt><trkpt lat="52.4861733" lon="-0.2852083"><ele>18.0</ele><time>2026-05-02T09:19:24.402Z</time></trkpt><trkpt lat="52.4865033" lon="-0.2851233"><ele>18.0</ele><time>2026-05-02T09:19:25.402Z</time></trkpt><trkpt lat="52.4868317" lon="-0.2850533"><ele>18.0</ele><time>2026-05-02T09:19:26.402Z</time></trkpt><trkpt lat="52.48716" lon="-0.2850017"><ele>18.0</ele><time>2026-05-02T09:19:27.404Z</time></trkpt><trkpt lat="52.4874883" lon="-0.2849667"><ele>18.0</ele><time>2026-05-02T09:19:28.404Z</time></trkpt><trkpt lat="52.4878133" lon="-0.2849483"><ele>17.5</ele><time>2026-05-02T09:19:29.403Z</time></trkpt><trkpt lat="52.4881367" lon="-0.2849433"><ele>17.0</ele><time>2026-05-02T09:19:30.403Z</time></trkpt><trkpt lat="52.4884633" lon="-0.28495"><ele>15.5</ele><time>2026-05-02T09:19:31.403Z</time></trkpt><trkpt lat="52.4887933" lon="-0.2849633"><ele>14.0</ele><time>2026-05-02T09:19:32.403Z</time></trkpt><trkpt lat="52.4891233" lon="-0.2849867"><ele>14.0</ele><time>2026-05-02T09:19:33.403Z</time></trkpt><trkpt lat="52.4894517" lon="-0.285025"><ele>14.0</ele><time>2026-05-02T09:19:34.402Z</time></trkpt><trkpt lat="52.48978" lon="-0.2850817"><ele>14.0</ele><time>2026-05-02T09:19:35.405Z</time></trkpt><trkpt lat="52.4901067" lon="-0.28515"><ele>14.0</ele><time>2026-05-02T09:19:36.402Z</time></trkpt><trkpt lat="52.4904383" lon="-0.2852367"><ele>14.0</ele><time>2026-05-02T09:19:37.403Z</time></trkpt><trkpt lat="52.49077" lon="-0.285335"><ele>14.0</ele><time>2026-05-02T09:19:38.404Z</time></trkpt><trkpt lat="52.491105" lon="-0.2854417"><ele>13.0</ele><time>2026-05-02T09:19:39.404Z</time></trkpt><trkpt lat="52.491435" lon="-0.285565"><ele>12.0</ele><time>2026-05-02T09:19:40.402Z</time></trkpt><trkpt lat="52.49176" lon="-0.2856983"><ele>12.0</ele><time>2026-05-02T09:19:41.406Z</time></trkpt><trkpt lat="52.4920833" lon="-0.28585"><ele>12.0</ele><time>2026-05-02T09:19:42.403Z</time></trkpt><trkpt lat="52.4924083" lon="-0.2860117"><ele>11.5</ele><time>2026-05-02T09:19:43.403Z</time></trkpt><trkpt lat="52.4927283" lon="-0.2861933"><ele>11.0</ele><time>2026-05-02T09:19:44.403Z</time></trkpt><trkpt lat="52.49305" lon="-0.2863917"><ele>12.5</ele><time>2026-05-02T09:19:45.404Z</time></trkpt><trkpt lat="52.4933733" lon="-0.2866133"><ele>14.0</ele><time>2026-05-02T09:19:46.402Z</time></trkpt><trkpt lat="52.4936967" lon="-0.286855"><ele>14.5</ele><time>2026-05-02T09:19:47.404Z</time></trkpt><trkpt lat="52.4940267" lon="-0.2871117"><ele>15.0</ele><time>2026-05-02T09:19:48.404Z</time></trkpt><trkpt lat="52.4943567" lon="-0.2873833"><ele>16.5</ele><time>2026-05-02T09:19:49.403Z</time></trkpt><trkpt lat="52.4946817" lon="-0.2876667"><ele>18.0</ele><time>2026-05-02T09:19:50.404Z</time></trkpt><trkpt lat="52.4950117" lon="-0.287965"><ele>17.5</ele><time>2026-05-02T09:19:51.406Z</time></trkpt><trkpt lat="52.4953383" lon="-0.2882633"><ele>17.0</ele><time>2026-05-02T09:19:52.402Z</time></trkpt><trkpt lat="52.4956533" lon="-0.2885583"><ele>17.0</ele><time>2026-05-02T09:19:53.402Z</time></trkpt><trkpt lat="52.49595" lon="-0.2888517"><ele>17.0</ele><time>2026-05-02T09:19:54.403Z</time></trkpt><trkpt lat="52.4962467" lon="-0.289135"><ele>16.5</ele><time>2026-05-02T09:19:55.404Z</time></trkpt><trkpt lat="52.4965417" lon="-0.2894133"><ele>16.0</ele><time>2026-05-02T09:19:56.403Z</time></trkpt><trkpt lat="52.4968317" lon="-0.28969"><ele>17.0</ele><time>2026-05-02T09:19:57.404Z</time></trkpt><trkpt lat="52.4971167" lon="-0.2899617"><ele>18.0</ele><time>2026-05-02T09:19:58.404Z</time></trkpt><trkpt lat="52.4973967" lon="-0.2902233"><ele>18.0</ele><time>2026-05-02T09:19:59.403Z</time></trkpt><trkpt lat="52.4976783" lon="-0.2904867"><ele>18.0</ele><time>2026-05-02T09:20:00.403Z</time></trkpt><trkpt lat="52.4979567" lon="-0.2907467"><ele>18.5</ele><time>2026-05-02T09:20:01.402Z</time></trkpt><trkpt lat="52.4982367" lon="-0.2910117"><ele>19.0</ele><time>2026-05-02T09:20:02.404Z</time></trkpt><trkpt lat="52.4985183" lon="-0.29127"><ele>18.5</ele><time>2026-05-02T09:20:03.403Z</time></trkpt><trkpt lat="52.4988033" lon="-0.2915233"><ele>18.0</ele><time>2026-05-02T09:20:04.403Z</time></trkpt><trkpt lat="52.49909" lon="-0.2917717"><ele>18.0</ele><time>2026-05-02T09:20:05.402Z</time></trkpt><trkpt lat="52.4993817" lon="-0.29201"><ele>18.0</ele><time>2026-05-02T09:20:06.404Z</time></trkpt><trkpt lat="52.4996783" lon="-0.29224"><ele>19.0</ele><time>2026-05-02T09:20:07.403Z</time></trkpt><trkpt lat="52.49998" lon="-0.2924667"><ele>20.0</ele><time>2026-05-02T09:20:08.404Z</time></trkpt><trkpt lat="52.5002917" lon="-0.292675"><ele>21.5</ele><time>2026-05-02T09:20:09.404Z</time></trkpt><trkpt lat="52.5006117" lon="-0.292865"><ele>23.0</ele><time>2026-05-02T09:20:10.403Z</time></trkpt><trkpt lat="52.5009333" lon="-0.2930433"><ele>24.5</ele><time>2026-05-02T09:20:11.405Z</time></trkpt><trkpt lat="52.5012533" lon="-0.2932067"><ele>26.0</ele><time>2026-05-02T09:20:12.403Z</time></trkpt><trkpt lat="52.5015683" lon="-0.2933717"><ele>26.0</ele><time>2026-05-02T09:20:13.403Z</time></trkpt><trkpt lat="52.50189" lon="-0.293535"><ele>26.0</ele><time>2026-05-02T09:20:14.403Z</time></trkpt><trkpt lat="52.5022183" lon="-0.2937017"><ele>26.0</ele><time>2026-05-02T09:20:15.403Z</time></trkpt><trkpt lat="52.502545" lon="-0.2938367"><ele>26.0</ele><time>2026-05-02T09:20:16.402Z</time></trkpt><trkpt lat="52.5028717" lon="-0.29396"><ele>26.5</ele><time>2026-05-02T09:20:17.403Z</time></trkpt><trkpt lat="52.503195" lon="-0.2940633"><ele>27.0</ele><time>2026-05-02T09:20:18.402Z</time></trkpt><trkpt lat="52.50352" lon="-0.2941533"><ele>27.0</ele><time>2026-05-02T09:20:19.402Z</time></trkpt><trkpt lat="52.5038433" lon="-0.29423"><ele>27.0</ele><time>2026-05-02T09:20:20.405Z</time></trkpt><trkpt lat="52.5041683" lon="-0.2942833"><ele>27.0</ele><time>2026-05-02T09:20:21.403Z</time></trkpt><trkpt lat="52.5044933" lon="-0.2943233"><ele>27.0</ele><time>2026-05-02T09:20:22.403Z</time></trkpt><trkpt lat="52.5048133" lon="-0.2943533"><ele>26.5</ele><time>2026-05-02T09:20:23.403Z</time></trkpt><trkpt lat="52.5051367" lon="-0.2943617"><ele>26.0</ele><time>2026-05-02T09:20:24.404Z</time></trkpt><trkpt lat="52.5054617" lon="-0.294355"><ele>25.5</ele><time>2026-05-02T09:20:25.404Z</time></trkpt><trkpt lat="52.505795" lon="-0.2943483"><ele>25.0</ele><time>2026-05-02T09:20:26.402Z</time></trkpt><trkpt lat="52.5061233" lon="-0.2943533"><ele>27.5</ele><time>2026-05-02T09:20:27.403Z</time></trkpt><trkpt lat="52.5064467" lon="-0.2943567"><ele>30.0</ele><time>2026-05-02T09:20:28.403Z</time></trkpt><trkpt lat="52.5067617" lon="-0.29436"><ele>30.0</ele><time>2026-05-02T09:20:29.403Z</time></trkpt><trkpt lat="52.5070717" lon="-0.29436"><ele>30.0</ele><time>2026-05-02T09:20:30.402Z</time></trkpt><trkpt lat="52.5073817" lon="-0.29437"><ele>30.5</ele><time>2026-05-02T09:20:31.403Z</time></trkpt><trkpt lat="52.5076933" lon="-0.2943867"><ele>31.0</ele><time>2026-05-02T09:20:32.404Z</time></trkpt><trkpt lat="52.5080083" lon="-0.2944117"><ele>29.5</ele><time>2026-05-02T09:20:33.403Z</time></trkpt><trkpt lat="52.5083233" lon="-0.2944533"><ele>28.0</ele><time>2026-05-02T09:20:34.406Z</time></trkpt><trkpt lat="52.50864" lon="-0.294505"><ele>28.5</ele><time>2026-05-02T09:20:35.402Z</time></trkpt><trkpt lat="52.5089583" lon="-0.29458"><ele>29.0</ele><time>2026-05-02T09:20:36.404Z</time></trkpt><trkpt lat="52.5092767" lon="-0.2946683"><ele>28.0</ele><time>2026-05-02T09:20:37.403Z</time></trkpt><trkpt lat="52.509595" lon="-0.2947633"><ele>27.0</ele><time>2026-05-02T09:20:38.404Z</time></trkpt><trkpt lat="52.5099083" lon="-0.2948633"><ele>27.0</ele><time>2026-05-02T09:20:39.404Z</time></trkpt><trkpt lat="52.5102183" lon="-0.2949733"><ele>27.0</ele><time>2026-05-02T09:20:40.404Z</time></trkpt><trkpt lat="52.5105267" lon="-0.295095"><ele>27.0</ele><time>2026-05-02T09:20:41.404Z</time></trkpt><trkpt lat="52.51082" lon="-0.2952383"><ele>27.0</ele><time>2026-05-02T09:20:42.403Z</time></trkpt><trkpt lat="52.5111117" lon="-0.2953917"><ele>26.5</ele><time>2026-05-02T09:20:43.403Z</time></trkpt><trkpt lat="52.5114" lon="-0.2955533"><ele>26.0</ele><time>2026-05-02T09:20:44.402Z</time></trkpt><trkpt lat="52.5116867" lon="-0.2957217"><ele>26.0</ele><time>2026-05-02T09:20:45.403Z</time></trkpt><trkpt lat="52.5119717" lon="-0.2959"><ele>26.0</ele><time>2026-05-02T09:20:46.404Z</time></trkpt><trkpt lat="52.5122533" lon="-0.2960917"><ele>26.0</ele><time>2026-05-02T09:20:47.404Z</time></trkpt><trkpt lat="52.5125267" lon="-0.2962933"><ele>26.0</ele><time>2026-05-02T09:20:48.404Z</time></trkpt><trkpt lat="52.5127933" lon="-0.2965"><ele>24.5</ele><time>2026-05-02T09:20:49.405Z</time></trkpt><trkpt lat="52.513055" lon="-0.296715"><ele>23.0</ele><time>2026-05-02T09:20:50.403Z</time></trkpt><trkpt lat="52.5133167" lon="-0.296945"><ele>23.0</ele><time>2026-05-02T09:20:51.402Z</time></trkpt><trkpt lat="52.513575" lon="-0.2971833"><ele>23.0</ele><time>2026-05-02T09:20:52.403Z</time></trkpt><trkpt lat="52.513835" lon="-0.2974333"><ele>22.5</ele><time>2026-05-02T09:20:53.403Z</time></trkpt><trkpt lat="52.51409" lon="-0.297695"><ele>22.0</ele><time>2026-05-02T09:20:54.402Z</time></trkpt><trkpt lat="52.5143417" lon="-0.297955"><ele>23.5</ele><time>2026-05-02T09:20:55.402Z</time></trkpt><trkpt lat="52.51459" lon="-0.29822"><ele>25.0</ele><time>2026-05-02T09:20:56.402Z</time></trkpt><trkpt lat="52.5148383" lon="-0.298485"><ele>25.0</ele><time>2026-05-02T09:20:57.402Z</time></trkpt><trkpt lat="52.5150833" lon="-0.2987533"><ele>25.0</ele><time>2026-05-02T09:20:58.403Z</time></trkpt><trkpt lat="52.5153267" lon="-0.2990283"><ele>25.5</ele><time>2026-05-02T09:20:59.403Z</time></trkpt><trkpt lat="52.5155717" lon="-0.2993017"><ele>26.0</ele><time>2026-05-02T09:21:00.403Z</time></trkpt><trkpt lat="52.5158167" lon="-0.299575"><ele>25.5</ele><time>2026-05-02T09:21:01.402Z</time></trkpt><trkpt lat="52.51606" lon="-0.2998517"><ele>25.0</ele><time>2026-05-02T09:21:02.402Z</time></trkpt><trkpt lat="52.5163033" lon="-0.3001217"><ele>25.0</ele><time>2026-05-02T09:21:03.404Z</time></trkpt><trkpt lat="52.516545" lon="-0.3003933"><ele>25.0</ele><time>2026-05-02T09:21:04.403Z</time></trkpt><trkpt lat="52.51679" lon="-0.300665"><ele>25.0</ele><time>2026-05-02T09:21:05.403Z</time></trkpt><trkpt lat="52.5170417" lon="-0.3009367"><ele>25.0</ele><time>2026-05-02T09:21:06.403Z</time></trkpt><trkpt lat="52.5172967" lon="-0.3012183"><ele>25.5</ele><time>2026-05-02T09:21:07.402Z</time></trkpt><trkpt lat="52.5175533" lon="-0.3015033"><ele>26.0</ele><time>2026-05-02T09:21:08.402Z</time></trkpt><trkpt lat="52.5178083" lon="-0.3017933"><ele>25.0</ele><time>2026-05-02T09:21:09.403Z</time></trkpt><trkpt lat="52.518065" lon="-0.30208"><ele>24.0</ele><time>2026-05-02T09:21:10.405Z</time></trkpt><trkpt lat="52.51832" lon="-0.30237"><ele>24.0</ele><time>2026-05-02T09:21:11.401Z</time></trkpt><trkpt lat="52.518575" lon="-0.3026567"><ele>24.0</ele><time>2026-05-02T09:21:12.405Z</time></trkpt><trkpt lat="52.5188317" lon="-0.3029483"><ele>23.0</ele><time>2026-05-02T09:21:13.406Z</time></trkpt><trkpt lat="52.51909" lon="-0.303235"><ele>22.0</ele><time>2026-05-02T09:21:14.405Z</time></trkpt><trkpt lat="52.51934" lon="-0.3035217"><ele>22.5</ele><time>2026-05-02T09:21:15.406Z</time></trkpt><trkpt lat="52.5195867" lon="-0.3038067"><ele>23.0</ele><time>2026-05-02T09:21:16.406Z</time></trkpt><trkpt lat="52.5198367" lon="-0.3040917"><ele>23.0</ele><time>2026-05-02T09:21:17.406Z</time></trkpt><trkpt lat="52.520085" lon="-0.3043767"><ele>23.0</ele><time>2026-05-02T09:21:18.402Z</time></trkpt><trkpt lat="52.5203367" lon="-0.3046617"><ele>24.0</ele><time>2026-05-02T09:21:19.403Z</time></trkpt><trkpt lat="52.5205917" lon="-0.3049467"><ele>25.0</ele><time>2026-05-02T09:21:20.404Z</time></trkpt><trkpt lat="52.520845" lon="-0.30523"><ele>25.0</ele><time>2026-05-02T09:21:21.402Z</time></trkpt><trkpt lat="52.521095" lon="-0.305505"><ele>25.0</ele><time>2026-05-02T09:21:22.404Z</time></trkpt><trkpt lat="52.5213467" lon="-0.3057767"><ele>27.0</ele><time>2026-05-02T09:21:23.403Z</time></trkpt><trkpt lat="52.5215933" lon="-0.30605"><ele>29.0</ele><time>2026-05-02T09:21:24.405Z</time></trkpt><trkpt lat="52.5218417" lon="-0.3063233"><ele>27.0</ele><time>2026-05-02T09:21:25.403Z</time></trkpt><trkpt lat="52.522095" lon="-0.3065983"><ele>25.0</ele><time>2026-05-02T09:21:26.401Z</time></trkpt><trkpt lat="52.5223517" lon="-0.3068767"><ele>25.0</ele><time>2026-05-02T09:21:27.405Z</time></trkpt><trkpt lat="52.52261" lon="-0.3071533"><ele>25.0</ele><time>2026-05-02T09:21:28.402Z</time></trkpt><trkpt lat="52.5228683" lon="-0.3074283"><ele>24.5</ele><time>2026-05-02T09:21:29.403Z</time></trkpt><trkpt lat="52.523125" lon="-0.3077017"><ele>24.0</ele><time>2026-05-02T09:21:30.403Z</time></trkpt><trkpt lat="52.5233817" lon="-0.3079717"><ele>24.0</ele><time>2026-05-02T09:21:31.403Z</time></trkpt><trkpt lat="52.5236433" lon="-0.308245"><ele>24.0</ele><time>2026-05-02T09:21:32.405Z</time></trkpt><trkpt lat="52.5239033" lon="-0.308515"><ele>24.0</ele><time>2026-05-02T09:21:33.401Z</time></trkpt><trkpt lat="52.5241617" lon="-0.3087833"><ele>24.0</ele><time>2026-05-02T09:21:34.402Z</time></trkpt><trkpt lat="52.5244217" lon="-0.3090567"><ele>24.5</ele><time>2026-05-02T09:21:35.405Z</time></trkpt><trkpt lat="52.5246883" lon="-0.3093367"><ele>25.0</ele><time>2026-05-02T09:21:36.401Z</time></trkpt><trkpt lat="52.5249567" lon="-0.3096183"><ele>25.5</ele><time>2026-05-02T09:21:37.403Z</time></trkpt><trkpt lat="52.525235" lon="-0.3099017"><ele>26.0</ele><time>2026-05-02T09:21:38.404Z</time></trkpt><trkpt lat="52.525515" lon="-0.3101883"><ele>26.0</ele><time>2026-05-02T09:21:39.403Z</time></trkpt><trkpt lat="52.5258033" lon="-0.31048"><ele>26.0</ele><time>2026-05-02T09:21:40.404Z</time></trkpt><trkpt lat="52.526095" lon="-0.310775"><ele>26.0</ele><time>2026-05-02T09:21:41.404Z</time></trkpt><trkpt lat="52.52639" lon="-0.3110733"><ele>26.0</ele><time>2026-05-02T09:21:42.403Z</time></trkpt><trkpt lat="52.5266883" lon="-0.311375"><ele>27.0</ele><time>2026-05-02T09:21:43.403Z</time></trkpt><trkpt lat="52.5269867" lon="-0.3116783"><ele>28.0</ele><time>2026-05-02T09:21:44.403Z</time></trkpt><trkpt lat="52.5272883" lon="-0.3119867"><ele>28.0</ele><time>2026-05-02T09:21:45.404Z</time></trkpt><trkpt lat="52.52759" lon="-0.312295"><ele>28.0</ele><time>2026-05-02T09:21:46.403Z</time></trkpt><trkpt lat="52.52789" lon="-0.3126033"><ele>27.5</ele><time>2026-05-02T09:21:47.404Z</time></trkpt><trkpt lat="52.528195" lon="-0.3129183"><ele>27.0</ele><time>2026-05-02T09:21:48.403Z</time></trkpt><trkpt lat="52.5284983" lon="-0.3132367"><ele>26.0</ele><time>2026-05-02T09:21:49.403Z</time></trkpt><trkpt lat="52.5288017" lon="-0.3135617"><ele>25.0</ele><time>2026-05-02T09:21:50.402Z</time></trkpt><trkpt lat="52.5291083" lon="-0.31389"><ele>25.5</ele><time>2026-05-02T09:21:51.403Z</time></trkpt><trkpt lat="52.5294167" lon="-0.3142283"><ele>26.0</ele><time>2026-05-02T09:21:52.407Z</time></trkpt><trkpt lat="52.529725" lon="-0.314565"><ele>25.5</ele><time>2026-05-02T09:21:53.403Z</time></trkpt><trkpt lat="52.5300317" lon="-0.3148983"><ele>25.0</ele><time>2026-05-02T09:21:54.403Z</time></trkpt><trkpt lat="52.5303383" lon="-0.3152317"><ele>24.0</ele><time>2026-05-02T09:21:55.403Z</time></trkpt><trkpt lat="52.5306417" lon="-0.3155583"><ele>23.0</ele><time>2026-05-02T09:21:56.405Z</time></trkpt><trkpt lat="52.530945" lon="-0.3158933"><ele>23.0</ele><time>2026-05-02T09:21:57.403Z</time></trkpt><trkpt lat="52.5312517" lon="-0.316225"><ele>23.0</ele><time>2026-05-02T09:21:58.403Z</time></trkpt><trkpt lat="52.5315583" lon="-0.3165533"><ele>23.0</ele><time>2026-05-02T09:21:59.402Z</time></trkpt><trkpt lat="52.5318617" lon="-0.3168933"><ele>23.0</ele><time>2026-05-02T09:22:00.405Z</time></trkpt><trkpt lat="52.5321667" lon="-0.31724"><ele>22.5</ele><time>2026-05-02T09:22:01.403Z</time></trkpt><trkpt lat="52.5324667" lon="-0.3175817"><ele>22.0</ele><time>2026-05-02T09:22:02.402Z</time></trkpt><trkpt lat="52.53276" lon="-0.3179083"><ele>23.5</ele><time>2026-05-02T09:22:03.403Z</time></trkpt><trkpt lat="52.533045" lon="-0.3182283"><ele>25.0</ele><time>2026-05-02T09:22:04.402Z</time></trkpt><trkpt lat="52.5333317" lon="-0.31855"><ele>25.0</ele><time>2026-05-02T09:22:05.402Z</time></trkpt><trkpt lat="52.5336217" lon="-0.318875"><ele>25.0</ele><time>2026-05-02T09:22:06.403Z</time></trkpt><trkpt lat="52.5339167" lon="-0.319205"><ele>25.0</ele><time>2026-05-02T09:22:07.404Z</time></trkpt><trkpt lat="52.5342083" lon="-0.31954"><ele>25.0</ele><time>2026-05-02T09:22:08.402Z</time></trkpt><trkpt lat="52.5345" lon="-0.3198717"><ele>24.0</ele><time>2026-05-02T09:22:09.403Z</time></trkpt><trkpt lat="52.53478" lon="-0.3201933"><ele>23.0</ele><time>2026-05-02T09:22:10.405Z</time></trkpt><trkpt lat="52.5350517" lon="-0.3205033"><ele>22.5</ele><time>2026-05-02T09:22:11.403Z</time></trkpt><trkpt lat="52.5353167" lon="-0.3208067"><ele>22.0</ele><time>2026-05-02T09:22:12.403Z</time></trkpt><trkpt lat="52.53558" lon="-0.321105"><ele>21.5</ele><time>2026-05-02T09:22:13.402Z</time></trkpt><trkpt lat="52.5358417" lon="-0.3214067"><ele>21.0</ele><time>2026-05-02T09:22:14.402Z</time></trkpt><trkpt lat="52.5361083" lon="-0.3217033"><ele>21.5</ele><time>2026-05-02T09:22:15.403Z</time></trkpt><trkpt lat="52.53637" lon="-0.3219883"><ele>22.0</ele><time>2026-05-02T09:22:16.403Z</time></trkpt><trkpt lat="52.536625" lon="-0.3222617"><ele>22.0</ele><time>2026-05-02T09:22:17.403Z</time></trkpt><trkpt lat="52.53687" lon="-0.3225317"><ele>22.0</ele><time>2026-05-02T09:22:18.405Z</time></trkpt><trkpt lat="52.53711" lon="-0.3227833"><ele>22.5</ele><time>2026-05-02T09:22:19.402Z</time></trkpt><trkpt lat="52.5373367" lon="-0.3230217"><ele>23.0</ele><time>2026-05-02T09:22:20.403Z</time></trkpt><trkpt lat="52.5375517" lon="-0.3232633"><ele>24.5</ele><time>2026-05-02T09:22:21.403Z</time></trkpt><trkpt lat="52.537755" lon="-0.3234933"><ele>26.0</ele><time>2026-05-02T09:22:22.404Z</time></trkpt><trkpt lat="52.53795" lon="-0.323725"><ele>26.5</ele><time>2026-05-02T09:22:23.404Z</time></trkpt><trkpt lat="52.5381467" lon="-0.3239617"><ele>27.0</ele><time>2026-05-02T09:22:24.403Z</time></trkpt><trkpt lat="52.5383483" lon="-0.3242017"><ele>27.0</ele><time>2026-05-02T09:22:25.402Z</time></trkpt><trkpt lat="52.53856" lon="-0.3244383"><ele>27.0</ele><time>2026-05-02T09:22:26.406Z</time></trkpt><trkpt lat="52.5387817" lon="-0.3246767"><ele>26.5</ele><time>2026-05-02T09:22:27.404Z</time></trkpt><trkpt lat="52.53901" lon="-0.3249133"><ele>26.0</ele><time>2026-05-02T09:22:28.403Z</time></trkpt><trkpt lat="52.539245" lon="-0.3251483"><ele>26.0</ele><time>2026-05-02T09:22:29.402Z</time></trkpt><trkpt lat="52.53949" lon="-0.32538"><ele>26.0</ele><time>2026-05-02T09:22:30.402Z</time></trkpt><trkpt lat="52.539735" lon="-0.3256167"><ele>25.0</ele><time>2026-05-02T09:22:31.404Z</time></trkpt><trkpt lat="52.53998" lon="-0.3258667"><ele>24.0</ele><time>2026-05-02T09:22:32.403Z</time></trkpt><trkpt lat="52.5402233" lon="-0.326135"><ele>24.0</ele><time>2026-05-02T09:22:33.402Z</time></trkpt><trkpt lat="52.5404617" lon="-0.3264183"><ele>24.0</ele><time>2026-05-02T09:22:34.402Z</time></trkpt><trkpt lat="52.54069" lon="-0.3267167"><ele>24.0</ele><time>2026-05-02T09:22:35.403Z</time></trkpt><trkpt lat="52.5409117" lon="-0.32703"><ele>24.0</ele><time>2026-05-02T09:22:36.403Z</time></trkpt><trkpt lat="52.5411333" lon="-0.32735"><ele>24.5</ele><time>2026-05-02T09:22:37.402Z</time></trkpt><trkpt lat="52.541355" lon="-0.3276683"><ele>25.0</ele><time>2026-05-02T09:22:38.404Z</time></trkpt><trkpt lat="52.5415767" lon="-0.3279867"><ele>25.0</ele><time>2026-05-02T09:22:39.402Z</time></trkpt><trkpt lat="52.541795" lon="-0.3283033"><ele>25.0</ele><time>2026-05-02T09:22:40.403Z</time></trkpt><trkpt lat="52.5420183" lon="-0.3286083"><ele>25.0</ele><time>2026-05-02T09:22:41.402Z</time></trkpt><trkpt lat="52.5422517" lon="-0.3288883"><ele>25.0</ele><time>2026-05-02T09:22:42.405Z</time></trkpt><trkpt lat="52.54249" lon="-0.3291483"><ele>25.0</ele><time>2026-05-02T09:22:43.403Z</time></trkpt><trkpt lat="52.5427333" lon="-0.329395"><ele>25.0</ele><time>2026-05-02T09:22:44.403Z</time></trkpt><trkpt lat="52.5429817" lon="-0.3296267"><ele>23.5</ele><time>2026-05-02T09:22:45.403Z</time></trkpt><trkpt lat="52.5432283" lon="-0.3298533"><ele>22.0</ele><time>2026-05-02T09:22:46.403Z</time></trkpt><trkpt lat="52.543475" lon="-0.3300833"><ele>22.0</ele><time>2026-05-02T09:22:47.405Z</time></trkpt><trkpt lat="52.5437233" lon="-0.3303117"><ele>22.0</ele><time>2026-05-02T09:22:48.407Z</time></trkpt><trkpt lat="52.5439733" lon="-0.3305433"><ele>21.5</ele><time>2026-05-02T09:22:49.403Z</time></trkpt><trkpt lat="52.5442217" lon="-0.3307783"><ele>21.0</ele><time>2026-05-02T09:22:50.403Z</time></trkpt><trkpt lat="52.544475" lon="-0.3310133"><ele>20.5</ele><time>2026-05-02T09:22:51.404Z</time></trkpt><trkpt lat="52.5447267" lon="-0.3312567"><ele>20.0</ele><time>2026-05-02T09:22:52.402Z</time></trkpt><trkpt lat="52.544975" lon="-0.33151"><ele>20.0</ele><time>2026-05-02T09:22:53.408Z</time></trkpt><trkpt lat="52.545215" lon="-0.3317817"><ele>20.0</ele><time>2026-05-02T09:22:54.403Z</time></trkpt><trkpt lat="52.5454467" lon="-0.3320717"><ele>21.5</ele><time>2026-05-02T09:22:55.405Z</time></trkpt><trkpt lat="52.545675" lon="-0.3323583"><ele>23.0</ele><time>2026-05-02T09:22:56.405Z</time></trkpt><trkpt lat="52.545895" lon="-0.3326333"><ele>23.0</ele><time>2026-05-02T09:22:57.403Z</time></trkpt><trkpt lat="52.546115" lon="-0.3328967"><ele>23.0</ele><time>2026-05-02T09:22:58.403Z</time></trkpt><trkpt lat="52.546335" lon="-0.3331583"><ele>22.5</ele><time>2026-05-02T09:22:59.403Z</time></trkpt><trkpt lat="52.5465667" lon="-0.333415"><ele>22.0</ele><time>2026-05-02T09:23:00.403Z</time></trkpt><trkpt lat="52.5468" lon="-0.3336733"><ele>21.5</ele><time>2026-05-02T09:23:01.405Z</time></trkpt><trkpt lat="52.547035" lon="-0.3339383"><ele>21.0</ele><time>2026-05-02T09:23:02.402Z</time></trkpt><trkpt lat="52.5472683" lon="-0.3342017"><ele>22.0</ele><time>2026-05-02T09:23:03.404Z</time></trkpt><trkpt lat="52.547505" lon="-0.3344633"><ele>23.0</ele><time>2026-05-02T09:23:04.403Z</time></trkpt><trkpt lat="52.5477433" lon="-0.3347217"><ele>21.5</ele><time>2026-05-02T09:23:05.402Z</time></trkpt><trkpt lat="52.5479817" lon="-0.3349833"><ele>20.0</ele><time>2026-05-02T09:23:06.403Z</time></trkpt><trkpt lat="52.5482233" lon="-0.3352483"><ele>20.0</ele><time>2026-05-02T09:23:07.403Z</time></trkpt><trkpt lat="52.5484667" lon="-0.3355183"><ele>20.0</ele><time>2026-05-02T09:23:08.402Z</time></trkpt><trkpt lat="52.5487183" lon="-0.335795"><ele>21.5</ele><time>2026-05-02T09:23:09.402Z</time></trkpt><trkpt lat="52.54897" lon="-0.33608"><ele>23.0</ele><time>2026-05-02T09:23:10.403Z</time></trkpt><trkpt lat="52.549215" lon="-0.3363667"><ele>22.0</ele><time>2026-05-02T09:23:11.403Z</time></trkpt><trkpt lat="52.5494583" lon="-0.336655"><ele>21.0</ele><time>2026-05-02T09:23:12.403Z</time></trkpt><trkpt lat="52.5496983" lon="-0.3369367"><ele>18.5</ele><time>2026-05-02T09:23:13.403Z</time></trkpt><trkpt lat="52.549935" lon="-0.337225"><ele>16.0</ele><time>2026-05-02T09:23:14.403Z</time></trkpt><trkpt lat="52.5501683" lon="-0.3375033"><ele>13.5</ele><time>2026-05-02T09:23:15.403Z</time></trkpt><trkpt lat="52.5503967" lon="-0.3377667"><ele>11.0</ele><time>2026-05-02T09:23:16.402Z</time></trkpt><trkpt lat="52.5506133" lon="-0.33802"><ele>11.5</ele><time>2026-05-02T09:23:17.404Z</time></trkpt><trkpt lat="52.5508283" lon="-0.3382717"><ele>12.0</ele><time>2026-05-02T09:23:18.403Z</time></trkpt><trkpt lat="52.5510517" lon="-0.3385333"><ele>11.5</ele><time>2026-05-02T09:23:19.403Z</time></trkpt><trkpt lat="52.55128" lon="-0.3387983"><ele>11.0</ele><time>2026-05-02T09:23:20.403Z</time></trkpt><trkpt lat="52.5515067" lon="-0.33907"><ele>10.5</ele><time>2026-05-02T09:23:21.406Z</time></trkpt><trkpt lat="52.5517367" lon="-0.3393383"><ele>10.0</ele><time>2026-05-02T09:23:22.403Z</time></trkpt><trkpt lat="52.551965" lon="-0.3396067"><ele>10.5</ele><time>2026-05-02T09:23:23.403Z</time></trkpt><trkpt lat="52.5521933" lon="-0.339875"><ele>11.0</ele><time>2026-05-02T09:23:24.403Z</time></trkpt><trkpt lat="52.5524217" lon="-0.3401367"><ele>11.0</ele><time>2026-05-02T09:23:25.404Z</time></trkpt><trkpt lat="52.5526467" lon="-0.3404017"><ele>11.0</ele><time>2026-05-02T09:23:26.404Z</time></trkpt><trkpt lat="52.552865" lon="-0.3406783"><ele>11.5</ele><time>2026-05-02T09:23:27.406Z</time></trkpt><trkpt lat="52.55308" lon="-0.3409667"><ele>12.0</ele><time>2026-05-02T09:23:28.405Z</time></trkpt><trkpt lat="52.5532883" lon="-0.3412683"><ele>11.0</ele><time>2026-05-02T09:23:29.405Z</time></trkpt><trkpt lat="52.5534917" lon="-0.3415817"><ele>10.0</ele><time>2026-05-02T09:23:30.402Z</time></trkpt><trkpt lat="52.5536883" lon="-0.3418967"><ele>10.0</ele><time>2026-05-02T09:23:31.405Z</time></trkpt><trkpt lat="52.55388" lon="-0.3422167"><ele>10.0</ele><time>2026-05-02T09:23:32.409Z</time></trkpt><trkpt lat="52.5540667" lon="-0.3425467"><ele>10.0</ele><time>2026-05-02T09:23:33.405Z</time></trkpt><trkpt lat="52.5542433" lon="-0.3428883"><ele>10.0</ele><time>2026-05-02T09:23:34.405Z</time></trkpt><trkpt lat="52.5544133" lon="-0.3432367"><ele>10.5</ele><time>2026-05-02T09:23:35.405Z</time></trkpt><trkpt lat="52.5545767" lon="-0.343595"><ele>11.0</ele><time>2026-05-02T09:23:36.406Z</time></trkpt><trkpt lat="52.5547317" lon="-0.3439733"><ele>11.0</ele><time>2026-05-02T09:23:37.405Z</time></trkpt><trkpt lat="52.5548783" lon="-0.3443567"><ele>11.0</ele><time>2026-05-02T09:23:38.403Z</time></trkpt><trkpt lat="52.5550217" lon="-0.3447333"><ele>10.5</ele><time>2026-05-02T09:23:39.403Z</time></trkpt><trkpt lat="52.5551617" lon="-0.345105"><ele>10.0</ele><time>2026-05-02T09:23:40.403Z</time></trkpt><trkpt lat="52.5552917" lon="-0.3454767"><ele>11.0</ele><time>2026-05-02T09:23:41.401Z</time></trkpt><trkpt lat="52.5554167" lon="-0.3458533"><ele>12.0</ele><time>2026-05-02T09:23:42.404Z</time></trkpt><trkpt lat="52.5555367" lon="-0.3462433"><ele>12.5</ele><time>2026-05-02T09:23:43.403Z</time></trkpt><trkpt lat="52.5556483" lon="-0.346635"><ele>13.0</ele><time>2026-05-02T09:23:44.405Z</time></trkpt><trkpt lat="52.5557567" lon="-0.34703"><ele>12.0</ele><time>2026-05-02T09:23:45.402Z</time></trkpt><trkpt lat="52.555865" lon="-0.347425"><ele>11.0</ele><time>2026-05-02T09:23:46.406Z</time></trkpt><trkpt lat="52.5559767" lon="-0.347815"><ele>10.5</ele><time>2026-05-02T09:23:47.407Z</time></trkpt><trkpt lat="52.5560883" lon="-0.3482067"><ele>10.0</ele><time>2026-05-02T09:23:48.405Z</time></trkpt><trkpt lat="52.5562" lon="-0.3486033"><ele>11.0</ele><time>2026-05-02T09:23:49.406Z</time></trkpt><trkpt lat="52.5563133" lon="-0.3490067"><ele>12.0</ele><time>2026-05-02T09:23:50.406Z</time></trkpt><trkpt lat="52.5564267" lon="-0.3494083"><ele>11.5</ele><time>2026-05-02T09:23:51.405Z</time></trkpt><trkpt lat="52.5565417" lon="-0.3498117"><ele>11.0</ele><time>2026-05-02T09:23:52.405Z</time></trkpt><trkpt lat="52.5566583" lon="-0.3502217"><ele>11.0</ele><time>2026-05-02T09:23:53.405Z</time></trkpt><trkpt lat="52.5567767" lon="-0.35062"><ele>11.0</ele><time>2026-05-02T09:23:54.405Z</time></trkpt><trkpt lat="52.556895" lon="-0.35102"><ele>11.5</ele><time>2026-05-02T09:23:55.405Z</time></trkpt><trkpt lat="52.5570133" lon="-0.3514217"><ele>12.0</ele><time>2026-05-02T09:23:56.405Z</time></trkpt><trkpt lat="52.5571317" lon="-0.3518217"><ele>12.0</ele><time>2026-05-02T09:23:57.405Z</time></trkpt><trkpt lat="52.5572467" lon="-0.352225"><ele>12.0</ele><time>2026-05-02T09:23:58.406Z</time></trkpt><trkpt lat="52.5573617" lon="-0.35263"><ele>12.0</ele><time>2026-05-02T09:23:59.406Z</time></trkpt><trkpt lat="52.5574767" lon="-0.3530383"><ele>12.0</ele><time>2026-05-02T09:24:00.407Z</time></trkpt><trkpt lat="52.557595" lon="-0.35345"><ele>12.0</ele><time>2026-05-02T09:24:01.405Z</time></trkpt><trkpt lat="52.5577117" lon="-0.3538617"><ele>12.0</ele><time>2026-05-02T09:24:02.407Z</time></trkpt><trkpt lat="52.5578267" lon="-0.3542733"><ele>11.5</ele><time>2026-05-02T09:24:03.406Z</time></trkpt><trkpt lat="52.55794" lon="-0.354685"><ele>11.0</ele><time>2026-05-02T09:24:04.407Z</time></trkpt><trkpt lat="52.5580533" lon="-0.3550983"><ele>11.0</ele><time>2026-05-02T09:24:05.406Z</time></trkpt><trkpt lat="52.5581667" lon="-0.35551"><ele>11.0</ele><time>2026-05-02T09:24:06.406Z</time></trkpt><trkpt lat="52.558285" lon="-0.355915"><ele>11.5</ele><time>2026-05-02T09:24:07.405Z</time></trkpt><trkpt lat="52.558415" lon="-0.35631"><ele>12.0</ele><time>2026-05-02T09:24:08.406Z</time></trkpt><trkpt lat="52.5585517" lon="-0.35669"><ele>13.0</ele><time>2026-05-02T09:24:09.402Z</time></trkpt><trkpt lat="52.5586933" lon="-0.3570617"><ele>14.0</ele><time>2026-05-02T09:24:10.403Z</time></trkpt><trkpt lat="52.558835" lon="-0.3574183"><ele>15.0</ele><time>2026-05-02T09:24:11.402Z</time></trkpt><trkpt lat="52.558975" lon="-0.3577733"><ele>16.0</ele><time>2026-05-02T09:24:12.405Z</time></trkpt><trkpt lat="52.5591117" lon="-0.3581267"><ele>16.0</ele><time>2026-05-02T09:24:13.401Z</time></trkpt><trkpt lat="52.55924" lon="-0.3584883"><ele>16.0</ele><time>2026-05-02T09:24:14.403Z</time></trkpt><trkpt lat="52.5593583" lon="-0.3588583"><ele>16.0</ele><time>2026-05-02T09:24:15.406Z</time></trkpt><trkpt lat="52.5594717" lon="-0.3592383"><ele>16.0</ele><time>2026-05-02T09:24:16.405Z</time></trkpt><trkpt lat="52.55958" lon="-0.3596317"><ele>16.5</ele><time>2026-05-02T09:24:17.405Z</time></trkpt><trkpt lat="52.5596817" lon="-0.3600233"><ele>17.0</ele><time>2026-05-02T09:24:18.402Z</time></trkpt><trkpt lat="52.5597817" lon="-0.3604217"><ele>15.5</ele><time>2026-05-02T09:24:19.405Z</time></trkpt><trkpt lat="52.5598733" lon="-0.3608267"><ele>14.0</ele><time>2026-05-02T09:24:20.406Z</time></trkpt><trkpt lat="52.55995" lon="-0.3612333"><ele>13.0</ele><time>2026-05-02T09:24:21.406Z</time></trkpt><trkpt lat="52.5600183" lon="-0.3616383"><ele>12.0</ele><time>2026-05-02T09:24:22.404Z</time></trkpt><trkpt lat="52.5600817" lon="-0.36205"><ele>12.0</ele><time>2026-05-02T09:24:23.405Z</time></trkpt><trkpt lat="52.5601333" lon="-0.3624617"><ele>12.0</ele><time>2026-05-02T09:24:24.405Z</time></trkpt><trkpt lat="52.56018" lon="-0.3628717"><ele>12.0</ele><time>2026-05-02T09:24:25.404Z</time></trkpt><trkpt lat="52.5602217" lon="-0.36328"><ele>12.0</ele><time>2026-05-02T09:24:26.405Z</time></trkpt><trkpt lat="52.5602567" lon="-0.3636983"><ele>13.0</ele><time>2026-05-02T09:24:27.405Z</time></trkpt><trkpt lat="52.56029" lon="-0.36412"><ele>14.0</ele><time>2026-05-02T09:24:28.402Z</time></trkpt><trkpt lat="52.560315" lon="-0.36455"><ele>14.5</ele><time>2026-05-02T09:24:29.402Z</time></trkpt><trkpt lat="52.5603267" lon="-0.364985"><ele>15.0</ele><time>2026-05-02T09:24:30.403Z</time></trkpt><trkpt lat="52.5603233" lon="-0.3654233"><ele>16.0</ele><time>2026-05-02T09:24:31.405Z</time></trkpt><trkpt lat="52.5603167" lon="-0.36584"><ele>17.0</ele><time>2026-05-02T09:24:32.405Z</time></trkpt><trkpt lat="52.560305" lon="-0.3662417"><ele>18.0</ele><time>2026-05-02T09:24:33.409Z</time></trkpt><trkpt lat="52.5602883" lon="-0.36664"><ele>19.0</ele><time>2026-05-02T09:24:34.402Z</time></trkpt><trkpt lat="52.5602717" lon="-0.3670383"><ele>19.0</ele><time>2026-05-02T09:24:35.402Z</time></trkpt><trkpt lat="52.5602567" lon="-0.3674433"><ele>19.0</ele><time>2026-05-02T09:24:36.402Z</time></trkpt><trkpt lat="52.5602417" lon="-0.3678567"><ele>20.5</ele><time>2026-05-02T09:24:37.403Z</time></trkpt><trkpt lat="52.5602283" lon="-0.3682733"><ele>22.0</ele><time>2026-05-02T09:24:38.405Z</time></trkpt><trkpt lat="52.56022" lon="-0.36869"><ele>22.5</ele><time>2026-05-02T09:24:39.408Z</time></trkpt><trkpt lat="52.5602183" lon="-0.3691067"><ele>23.0</ele><time>2026-05-02T09:24:40.405Z</time></trkpt><trkpt lat="52.560225" lon="-0.36952"><ele>23.5</ele><time>2026-05-02T09:24:41.405Z</time></trkpt><trkpt lat="52.5602467" lon="-0.3699367"><ele>24.0</ele><time>2026-05-02T09:24:42.407Z</time></trkpt><trkpt lat="52.5602767" lon="-0.3703467"><ele>24.5</ele><time>2026-05-02T09:24:43.403Z</time></trkpt><trkpt lat="52.5603133" lon="-0.37076"><ele>25.0</ele><time>2026-05-02T09:24:44.403Z</time></trkpt><trkpt lat="52.5603583" lon="-0.371165"><ele>25.5</ele><time>2026-05-02T09:24:45.404Z</time></trkpt><trkpt lat="52.560415" lon="-0.371555"><ele>26.0</ele><time>2026-05-02T09:24:46.407Z</time></trkpt><trkpt lat="52.56048" lon="-0.3719183"><ele>22.0</ele><time>2026-05-02T09:24:47.403Z</time></trkpt><trkpt lat="52.566035" lon="-0.387665"><ele>24.0</ele><time>2026-05-02T09:25:31.143Z</time></trkpt><trkpt lat="52.56616" lon="-0.388515"><ele>22.0</ele><time>2026-05-02T09:25:34.382Z</time></trkpt><trkpt lat="52.5664117" lon="-0.3891967"><ele>22.0</ele><time>2026-05-02T09:25:36.388Z</time></trkpt><trkpt lat="52.5665367" lon="-0.3896083"><ele>22.0</ele><time>2026-05-02T09:25:37.383Z</time></trkpt><trkpt lat="52.5666617" lon="-0.3900117"><ele>22.5</ele><time>2026-05-02T09:25:38.402Z</time></trkpt><trkpt lat="52.5667783" lon="-0.3903917"><ele>23.0</ele><time>2026-05-02T09:25:39.402Z</time></trkpt><trkpt lat="52.5668967" lon="-0.390775"><ele>23.0</ele><time>2026-05-02T09:25:40.402Z</time></trkpt><trkpt lat="52.5670167" lon="-0.3911467"><ele>23.0</ele><time>2026-05-02T09:25:41.403Z</time></trkpt><trkpt lat="52.5671433" lon="-0.3915133"><ele>21.5</ele><time>2026-05-02T09:25:42.403Z</time></trkpt><trkpt lat="52.5672767" lon="-0.391875"><ele>20.0</ele><time>2026-05-02T09:25:43.402Z</time></trkpt><trkpt lat="52.5674183" lon="-0.3922233"><ele>20.0</ele><time>2026-05-02T09:25:44.403Z</time></trkpt><trkpt lat="52.5675783" lon="-0.3925667"><ele>20.0</ele><time>2026-05-02T09:25:45.402Z</time></trkpt><trkpt lat="52.5677383" lon="-0.3928983"><ele>21.0</ele><time>2026-05-02T09:25:46.403Z</time></trkpt><trkpt lat="52.5679067" lon="-0.3932283"><ele>22.0</ele><time>2026-05-02T09:25:47.402Z</time></trkpt><trkpt lat="52.5680883" lon="-0.39354"><ele>22.5</ele><time>2026-05-02T09:25:48.405Z</time></trkpt><trkpt lat="52.568285" lon="-0.393845"><ele>23.0</ele><time>2026-05-02T09:25:49.402Z</time></trkpt><trkpt lat="52.568495" lon="-0.3941467"><ele>22.5</ele><time>2026-05-02T09:25:50.404Z</time></trkpt><trkpt lat="52.5687217" lon="-0.3944483"><ele>22.0</ele><time>2026-05-02T09:25:51.404Z</time></trkpt><trkpt lat="52.568955" lon="-0.3947433"><ele>22.0</ele><time>2026-05-02T09:25:52.402Z</time></trkpt><trkpt lat="52.5691917" lon="-0.3950283"><ele>22.0</ele><time>2026-05-02T09:25:53.404Z</time></trkpt><trkpt lat="52.5694283" lon="-0.3953117"><ele>22.5</ele><time>2026-05-02T09:25:54.404Z</time></trkpt><trkpt lat="52.56966" lon="-0.3955933"><ele>23.0</ele><time>2026-05-02T09:25:55.403Z</time></trkpt><trkpt lat="52.56989" lon="-0.3958767"><ele>23.0</ele><time>2026-05-02T09:25:56.405Z</time></trkpt><trkpt lat="52.57012" lon="-0.3961633"><ele>23.0</ele><time>2026-05-02T09:25:57.402Z</time></trkpt><trkpt lat="52.5703483" lon="-0.3964467"><ele>24.5</ele><time>2026-05-02T09:25:58.403Z</time></trkpt><trkpt lat="52.570575" lon="-0.3967217"><ele>26.0</ele><time>2026-05-02T09:25:59.406Z</time></trkpt><trkpt lat="52.5708017" lon="-0.3969967"><ele>25.5</ele><time>2026-05-02T09:26:00.404Z</time></trkpt><trkpt lat="52.5710183" lon="-0.397265"><ele>25.0</ele><time>2026-05-02T09:26:01.402Z</time></trkpt><trkpt lat="52.5712317" lon="-0.397525"><ele>25.0</ele><time>2026-05-02T09:26:02.402Z</time></trkpt><trkpt lat="52.5714383" lon="-0.39778"><ele>25.0</ele><time>2026-05-02T09:26:03.402Z</time></trkpt><trkpt lat="52.57164" lon="-0.3980283"><ele>25.0</ele><time>2026-05-02T09:26:04.401Z</time></trkpt><trkpt lat="52.5718333" lon="-0.398265"><ele>25.0</ele><time>2026-05-02T09:26:05.403Z</time></trkpt><trkpt lat="52.5720217" lon="-0.398485"><ele>24.0</ele><time>2026-05-02T09:26:06.402Z</time></trkpt><trkpt lat="52.5722017" lon="-0.398705"><ele>23.0</ele><time>2026-05-02T09:26:07.403Z</time></trkpt><trkpt lat="52.5723817" lon="-0.39892"><ele>22.0</ele><time>2026-05-02T09:26:08.402Z</time></trkpt><trkpt lat="52.5725583" lon="-0.3991367"><ele>22.0</ele><time>2026-05-02T09:26:09.403Z</time></trkpt><trkpt lat="52.572735" lon="-0.3993733"><ele>22.0</ele><time>2026-05-02T09:26:10.402Z</time></trkpt><trkpt lat="52.5729117" lon="-0.39961"><ele>23.0</ele><time>2026-05-02T09:26:11.403Z</time></trkpt><trkpt lat="52.5730933" lon="-0.3998467"><ele>24.0</ele><time>2026-05-02T09:26:12.403Z</time></trkpt><trkpt lat="52.5732767" lon="-0.4000867"><ele>24.0</ele><time>2026-05-02T09:26:13.401Z</time></trkpt><trkpt lat="52.573465" lon="-0.40034"><ele>24.0</ele><time>2026-05-02T09:26:14.402Z</time></trkpt><trkpt lat="52.5736433" lon="-0.400595"><ele>23.5</ele><time>2026-05-02T09:26:15.402Z</time></trkpt><trkpt lat="52.5738133" lon="-0.400865"><ele>23.0</ele><time>2026-05-02T09:26:16.401Z</time></trkpt><trkpt lat="52.5739783" lon="-0.40114"><ele>22.5</ele><time>2026-05-02T09:26:17.402Z</time></trkpt><trkpt lat="52.5741433" lon="-0.40143"><ele>22.0</ele><time>2026-05-02T09:26:18.403Z</time></trkpt><trkpt lat="52.5743033" lon="-0.4017233"><ele>22.0</ele><time>2026-05-02T09:26:19.402Z</time></trkpt><trkpt lat="52.57446" lon="-0.40203"><ele>22.0</ele><time>2026-05-02T09:26:20.402Z</time></trkpt><trkpt lat="52.5746117" lon="-0.4023383"><ele>22.5</ele><time>2026-05-02T09:26:21.403Z</time></trkpt><trkpt lat="52.5747567" lon="-0.4026517"><ele>23.0</ele><time>2026-05-02T09:26:22.402Z</time></trkpt><trkpt lat="52.574895" lon="-0.4029683"><ele>23.0</ele><time>2026-05-02T09:26:23.403Z</time></trkpt><trkpt lat="52.575025" lon="-0.403295"><ele>23.0</ele><time>2026-05-02T09:26:24.402Z</time></trkpt><trkpt lat="52.5751483" lon="-0.4036383"><ele>23.0</ele><time>2026-05-02T09:26:25.403Z</time></trkpt><trkpt lat="52.5752633" lon="-0.4039917"><ele>23.0</ele><time>2026-05-02T09:26:26.402Z</time></trkpt><trkpt lat="52.57538" lon="-0.4043517"><ele>23.0</ele><time>2026-05-02T09:26:27.403Z</time></trkpt><trkpt lat="52.5754933" lon="-0.404715"><ele>23.0</ele><time>2026-05-02T09:26:28.402Z</time></trkpt><trkpt lat="52.5756067" lon="-0.4050717"><ele>23.0</ele><time>2026-05-02T09:26:29.402Z</time></trkpt><trkpt lat="52.5757217" lon="-0.405415"><ele>23.0</ele><time>2026-05-02T09:26:30.403Z</time></trkpt><trkpt lat="52.57584" lon="-0.4057483"><ele>23.5</ele><time>2026-05-02T09:26:31.403Z</time></trkpt><trkpt lat="52.57596" lon="-0.4060833"><ele>24.0</ele><time>2026-05-02T09:26:32.402Z</time></trkpt><trkpt lat="52.5760883" lon="-0.40642"><ele>23.0</ele><time>2026-05-02T09:26:33.402Z</time></trkpt><trkpt lat="52.5762267" lon="-0.40676"><ele>22.0</ele><time>2026-05-02T09:26:34.402Z</time></trkpt><trkpt lat="52.5763667" lon="-0.4071"><ele>22.0</ele><time>2026-05-02T09:26:35.402Z</time></trkpt><trkpt lat="52.5765083" lon="-0.40744"><ele>22.0</ele><time>2026-05-02T09:26:36.405Z</time></trkpt><trkpt lat="52.5766517" lon="-0.407785"><ele>22.0</ele><time>2026-05-02T09:26:37.405Z</time></trkpt><trkpt lat="52.5767933" lon="-0.40813"><ele>22.0</ele><time>2026-05-02T09:26:38.406Z</time></trkpt><trkpt lat="52.5769333" lon="-0.4084667"><ele>20.0</ele><time>2026-05-02T09:26:39.402Z</time></trkpt><trkpt lat="52.577075" lon="-0.40879"><ele>18.0</ele><time>2026-05-02T09:26:40.406Z</time></trkpt><trkpt lat="52.5772183" lon="-0.409105"><ele>18.0</ele><time>2026-05-02T09:26:41.406Z</time></trkpt><trkpt lat="52.5773683" lon="-0.4094183"><ele>18.0</ele><time>2026-05-02T09:26:42.403Z</time></trkpt><trkpt lat="52.5775267" lon="-0.409725"><ele>17.0</ele><time>2026-05-02T09:26:43.403Z</time></trkpt><trkpt lat="52.5776983" lon="-0.4100233"><ele>16.0</ele><time>2026-05-02T09:26:44.404Z</time></trkpt><trkpt lat="52.5778833" lon="-0.4103067"><ele>14.5</ele><time>2026-05-02T09:26:45.402Z</time></trkpt><trkpt lat="52.5780767" lon="-0.41058"><ele>13.0</ele><time>2026-05-02T09:26:46.403Z</time></trkpt><trkpt lat="52.57828" lon="-0.4108417"><ele>13.0</ele><time>2026-05-02T09:26:47.403Z</time></trkpt><trkpt lat="52.5784967" lon="-0.411095"><ele>13.0</ele><time>2026-05-02T09:26:48.404Z</time></trkpt><trkpt lat="52.5787183" lon="-0.411335"><ele>13.5</ele><time>2026-05-02T09:26:49.406Z</time></trkpt><trkpt lat="52.5789467" lon="-0.4115583"><ele>14.0</ele><time>2026-05-02T09:26:50.403Z</time></trkpt><trkpt lat="52.579185" lon="-0.4117583"><ele>14.0</ele><time>2026-05-02T09:26:51.403Z</time></trkpt><trkpt lat="52.579425" lon="-0.4119367"><ele>14.0</ele><time>2026-05-02T09:26:52.403Z</time></trkpt><trkpt lat="52.5796667" lon="-0.4120967"><ele>15.0</ele><time>2026-05-02T09:26:53.404Z</time></trkpt><trkpt lat="52.5799133" lon="-0.412245"><ele>16.0</ele><time>2026-05-02T09:26:54.404Z</time></trkpt><trkpt lat="52.580165" lon="-0.4123767"><ele>17.5</ele><time>2026-05-02T09:26:55.403Z</time></trkpt><trkpt lat="52.58042" lon="-0.4124967"><ele>19.0</ele><time>2026-05-02T09:26:56.403Z</time></trkpt><trkpt lat="52.5806733" lon="-0.4126117"><ele>19.0</ele><time>2026-05-02T09:26:57.403Z</time></trkpt><trkpt lat="52.5809283" lon="-0.4127183"><ele>19.0</ele><time>2026-05-02T09:26:58.403Z</time></trkpt><trkpt lat="52.5811817" lon="-0.4128267"><ele>18.5</ele><time>2026-05-02T09:26:59.404Z</time></trkpt><trkpt lat="52.58144" lon="-0.4129283"><ele>18.0</ele><time>2026-05-02T09:27:00.403Z</time></trkpt><trkpt lat="52.5816983" lon="-0.41303"><ele>18.0</ele><time>2026-05-02T09:27:01.403Z</time></trkpt><trkpt lat="52.581955" lon="-0.4131333"><ele>18.0</ele><time>2026-05-02T09:27:02.404Z</time></trkpt><trkpt lat="52.5822133" lon="-0.4132433"><ele>20.5</ele><time>2026-05-02T09:27:03.404Z</time></trkpt><trkpt lat="52.5824717" lon="-0.4133517"><ele>23.0</ele><time>2026-05-02T09:27:04.403Z</time></trkpt><trkpt lat="52.5827267" lon="-0.4134567"><ele>25.5</ele><time>2026-05-02T09:27:05.403Z</time></trkpt><trkpt lat="52.5829817" lon="-0.4135633"><ele>28.0</ele><time>2026-05-02T09:27:06.403Z</time></trkpt><trkpt lat="52.5832367" lon="-0.4136683"><ele>28.0</ele><time>2026-05-02T09:27:07.404Z</time></trkpt><trkpt lat="52.5834917" lon="-0.4137767"><ele>28.0</ele><time>2026-05-02T09:27:08.403Z</time></trkpt><trkpt lat="52.583745" lon="-0.4138917"><ele>32.5</ele><time>2026-05-02T09:27:09.403Z</time></trkpt><trkpt lat="52.5840017" lon="-0.4140083"><ele>37.0</ele><time>2026-05-02T09:27:10.403Z</time></trkpt><trkpt lat="52.5842583" lon="-0.4141217"><ele>37.0</ele><time>2026-05-02T09:27:11.403Z</time></trkpt><trkpt lat="52.584515" lon="-0.414235"><ele>37.0</ele><time>2026-05-02T09:27:12.403Z</time></trkpt><trkpt lat="52.5847683" lon="-0.4143467"><ele>37.0</ele><time>2026-05-02T09:27:13.402Z</time></trkpt><trkpt lat="52.58502" lon="-0.4144583"><ele>37.0</ele><time>2026-05-02T09:27:14.403Z</time></trkpt><trkpt lat="52.58527" lon="-0.414565"><ele>36.5</ele><time>2026-05-02T09:27:15.403Z</time></trkpt><trkpt lat="52.5855133" lon="-0.4146583"><ele>36.0</ele><time>2026-05-02T09:27:16.403Z</time></trkpt><trkpt lat="52.5857483" lon="-0.4147483"><ele>36.0</ele><time>2026-05-02T09:27:17.404Z</time></trkpt><trkpt lat="52.5859783" lon="-0.4148417"><ele>36.0</ele><time>2026-05-02T09:27:18.404Z</time></trkpt><trkpt lat="52.5861983" lon="-0.4149333"><ele>35.333333333333336</ele><time>2026-05-02T09:27:19.407Z</time></trkpt><trkpt lat="52.5864117" lon="-0.4150283"><ele>34.66666666666667</ele><time>2026-05-02T09:27:20.404Z</time></trkpt><trkpt lat="52.5866283" lon="-0.415125"><ele>34.0</ele><time>2026-05-02T09:27:21.404Z</time></trkpt><trkpt lat="52.58685" lon="-0.415225"><ele>32.5</ele><time>2026-05-02T09:27:22.403Z</time></trkpt><trkpt lat="52.587075" lon="-0.4153233"><ele>31.0</ele><time>2026-05-02T09:27:23.404Z</time></trkpt><trkpt lat="52.5873017" lon="-0.415425"><ele>31.0</ele><time>2026-05-02T09:27:24.403Z</time></trkpt><trkpt lat="52.5875367" lon="-0.4155317"><ele>31.0</ele><time>2026-05-02T09:27:25.403Z</time></trkpt><trkpt lat="52.5877717" lon="-0.415635"><ele>27.5</ele><time>2026-05-02T09:27:26.404Z</time></trkpt><trkpt lat="52.5880167" lon="-0.4157383"><ele>24.0</ele><time>2026-05-02T09:27:27.404Z</time></trkpt><trkpt lat="52.5882667" lon="-0.415845"><ele>24.0</ele><time>2026-05-02T09:27:28.402Z</time></trkpt><trkpt lat="52.588515" lon="-0.415955"><ele>24.0</ele><time>2026-05-02T09:27:29.403Z</time></trkpt><trkpt lat="52.5887667" lon="-0.41606"><ele>25.5</ele><time>2026-05-02T09:27:30.404Z</time></trkpt><trkpt lat="52.5890183" lon="-0.4161717"><ele>27.0</ele><time>2026-05-02T09:27:31.403Z</time></trkpt><trkpt lat="52.5892717" lon="-0.4162867"><ele>30.5</ele><time>2026-05-02T09:27:32.403Z</time></trkpt><trkpt lat="52.589525" lon="-0.41641"><ele>34.0</ele><time>2026-05-02T09:27:33.404Z</time></trkpt><trkpt lat="52.589775" lon="-0.4165417"><ele>34.0</ele><time>2026-05-02T09:27:34.403Z</time></trkpt><trkpt lat="52.5900267" lon="-0.4166783"><ele>34.0</ele><time>2026-05-02T09:27:35.404Z</time></trkpt><trkpt lat="52.5902817" lon="-0.41681"><ele>36.5</ele><time>2026-05-02T09:27:36.404Z</time></trkpt><trkpt lat="52.590535" lon="-0.4169367"><ele>39.0</ele><time>2026-05-02T09:27:37.403Z</time></trkpt><trkpt lat="52.590785" lon="-0.4170683"><ele>39.5</ele><time>2026-05-02T09:27:38.404Z</time></trkpt><trkpt lat="52.5910383" lon="-0.417205"><ele>40.0</ele><time>2026-05-02T09:27:39.403Z</time></trkpt><trkpt lat="52.59129" lon="-0.4173433"><ele>40.0</ele><time>2026-05-02T09:27:40.403Z</time></trkpt><trkpt lat="52.5915367" lon="-0.417475"><ele>40.0</ele><time>2026-05-02T09:27:41.403Z</time></trkpt><trkpt lat="52.591785" lon="-0.4176067"><ele>40.5</ele><time>2026-05-02T09:27:42.403Z</time></trkpt><trkpt lat="52.5920367" lon="-0.4177383"><ele>41.0</ele><time>2026-05-02T09:27:43.404Z</time></trkpt><trkpt lat="52.5922917" lon="-0.41787"><ele>39.0</ele><time>2026-05-02T09:27:44.404Z</time></trkpt><trkpt lat="52.5925467" lon="-0.4180033"><ele>37.0</ele><time>2026-05-02T09:27:45.403Z</time></trkpt><trkpt lat="52.592805" lon="-0.418135"><ele>39.0</ele><time>2026-05-02T09:27:46.407Z</time></trkpt><trkpt lat="52.59306" lon="-0.418265"><ele>41.0</ele><time>2026-05-02T09:27:47.403Z</time></trkpt><trkpt lat="52.5933133" lon="-0.418395"><ele>41.0</ele><time>2026-05-02T09:27:48.403Z</time></trkpt><trkpt lat="52.593565" lon="-0.41853"><ele>41.0</ele><time>2026-05-02T09:27:49.404Z</time></trkpt><trkpt lat="52.5938183" lon="-0.4186667"><ele>40.5</ele><time>2026-05-02T09:27:50.404Z</time></trkpt><trkpt lat="52.59407" lon="-0.418805"><ele>40.0</ele><time>2026-05-02T09:27:51.404Z</time></trkpt><trkpt lat="52.5943217" lon="-0.4189417"><ele>41.0</ele><time>2026-05-02T09:27:52.406Z</time></trkpt><trkpt lat="52.5945733" lon="-0.4190733"><ele>42.0</ele><time>2026-05-02T09:27:53.403Z</time></trkpt><trkpt lat="52.594825" lon="-0.4192067"><ele>42.0</ele><time>2026-05-02T09:27:54.403Z</time></trkpt><trkpt lat="52.5950767" lon="-0.4193383"><ele>42.0</ele><time>2026-05-02T09:27:55.403Z</time></trkpt><trkpt lat="52.59533" lon="-0.4194733"><ele>42.0</ele><time>2026-05-02T09:27:56.404Z</time></trkpt><trkpt lat="52.5955833" lon="-0.41961"><ele>42.0</ele><time>2026-05-02T09:27:57.404Z</time></trkpt><trkpt lat="52.5958367" lon="-0.4197483"><ele>42.0</ele><time>2026-05-02T09:27:58.404Z</time></trkpt><trkpt lat="52.59609" lon="-0.419885"><ele>42.0</ele><time>2026-05-02T09:27:59.403Z</time></trkpt><trkpt lat="52.596345" lon="-0.4200233"><ele>43.0</ele><time>2026-05-02T09:28:00.403Z</time></trkpt><trkpt lat="52.5965967" lon="-0.4201617"><ele>44.0</ele><time>2026-05-02T09:28:01.405Z</time></trkpt><trkpt lat="52.5968467" lon="-0.4203"><ele>44.5</ele><time>2026-05-02T09:28:02.404Z</time></trkpt><trkpt lat="52.5970983" lon="-0.4204367"><ele>45.0</ele><time>2026-05-02T09:28:03.404Z</time></trkpt><trkpt lat="52.5973517" lon="-0.420575"><ele>45.0</ele><time>2026-05-02T09:28:04.402Z</time></trkpt><trkpt lat="52.5976017" lon="-0.420715"><ele>45.0</ele><time>2026-05-02T09:28:05.404Z</time></trkpt><trkpt lat="52.59785" lon="-0.4208633"><ele>46.0</ele><time>2026-05-02T09:28:06.405Z</time></trkpt><trkpt lat="52.598095" lon="-0.4210267"><ele>47.0</ele><time>2026-05-02T09:28:07.405Z</time></trkpt><trkpt lat="52.5983383" lon="-0.4211983"><ele>46.0</ele><time>2026-05-02T09:28:08.402Z</time></trkpt><trkpt lat="52.59858" lon="-0.421375"><ele>45.0</ele><time>2026-05-02T09:28:09.403Z</time></trkpt><trkpt lat="52.5988167" lon="-0.4215583"><ele>45.0</ele><time>2026-05-02T09:28:10.403Z</time></trkpt><trkpt lat="52.5990517" lon="-0.421755"><ele>45.0</ele><time>2026-05-02T09:28:11.406Z</time></trkpt><trkpt lat="52.599285" lon="-0.42196"><ele>46.0</ele><time>2026-05-02T09:28:12.402Z</time></trkpt><trkpt lat="52.5995167" lon="-0.4221733"><ele>47.0</ele><time>2026-05-02T09:28:13.406Z</time></trkpt><trkpt lat="52.5997417" lon="-0.4223933"><ele>68.0</ele><time>2026-05-02T09:28:14.403Z</time></trkpt><trkpt lat="52.6162567" lon="-0.4475283"><ele>68.0</ele><time>2026-05-02T09:29:44.398Z</time></trkpt><trkpt lat="52.6164433" lon="-0.4479183"><ele>68.0</ele><time>2026-05-02T09:29:45.66Z</time></trkpt><trkpt lat="52.616625" lon="-0.448265"><ele>68.0</ele><time>2026-05-02T09:29:46.979Z</time></trkpt><trkpt lat="52.6169133" lon="-0.44883"><ele>68.0</ele><time>2026-05-02T09:29:48.403Z</time></trkpt><trkpt lat="52.6170733" lon="-0.4491433"><ele>68.0</ele><time>2026-05-02T09:29:49.402Z</time></trkpt><trkpt lat="52.6172283" lon="-0.4494383"><ele>68.0</ele><time>2026-05-02T09:29:50.402Z</time></trkpt><trkpt lat="52.6173867" lon="-0.449735"><ele>67.5</ele><time>2026-05-02T09:29:51.403Z</time></trkpt><trkpt lat="52.6175517" lon="-0.4500333"><ele>67.0</ele><time>2026-05-02T09:29:52.402Z</time></trkpt><trkpt lat="52.6177233" lon="-0.450325"><ele>67.5</ele><time>2026-05-02T09:29:53.403Z</time></trkpt><trkpt lat="52.6178967" lon="-0.4506067"><ele>68.0</ele><time>2026-05-02T09:29:54.402Z</time></trkpt><trkpt lat="52.6180767" lon="-0.4508883"><ele>68.0</ele><time>2026-05-02T09:29:55.403Z</time></trkpt><trkpt lat="52.6182617" lon="-0.4511633"><ele>68.0</ele><time>2026-05-02T09:29:56.404Z</time></trkpt><trkpt lat="52.6184467" lon="-0.4514317"><ele>68.0</ele><time>2026-05-02T09:29:57.403Z</time></trkpt><trkpt lat="52.6186367" lon="-0.4517017"><ele>68.0</ele><time>2026-05-02T09:29:58.402Z</time></trkpt><trkpt lat="52.6188283" lon="-0.45197"><ele>69.0</ele><time>2026-05-02T09:29:59.402Z</time></trkpt><trkpt lat="52.6190233" lon="-0.4522417"><ele>70.0</ele><time>2026-05-02T09:30:00.401Z</time></trkpt><trkpt lat="52.61922" lon="-0.4525133"><ele>70.0</ele><time>2026-05-02T09:30:01.402Z</time></trkpt><trkpt lat="52.6194167" lon="-0.4527833"><ele>70.0</ele><time>2026-05-02T09:30:02.403Z</time></trkpt><trkpt lat="52.619615" lon="-0.4530533"><ele>69.5</ele><time>2026-05-02T09:30:03.402Z</time></trkpt><trkpt lat="52.6198117" lon="-0.4533283"><ele>69.0</ele><time>2026-05-02T09:30:04.401Z</time></trkpt><trkpt lat="52.6200017" lon="-0.4536017"><ele>69.0</ele><time>2026-05-02T09:30:05.402Z</time></trkpt><trkpt lat="52.6201867" lon="-0.4538717"><ele>69.0</ele><time>2026-05-02T09:30:06.403Z</time></trkpt><trkpt lat="52.6203667" lon="-0.45414"><ele>69.0</ele><time>2026-05-02T09:30:07.403Z</time></trkpt><trkpt lat="52.6205417" lon="-0.4544117"><ele>69.0</ele><time>2026-05-02T09:30:08.402Z</time></trkpt><trkpt lat="52.6207167" lon="-0.4546883"><ele>68.5</ele><time>2026-05-02T09:30:09.403Z</time></trkpt><trkpt lat="52.6208917" lon="-0.45497"><ele>68.0</ele><time>2026-05-02T09:30:10.401Z</time></trkpt><trkpt lat="52.62106" lon="-0.4552617"><ele>68.0</ele><time>2026-05-02T09:30:11.402Z</time></trkpt><trkpt lat="52.6212217" lon="-0.4555633"><ele>68.0</ele><time>2026-05-02T09:30:12.403Z</time></trkpt><trkpt lat="52.62138" lon="-0.45587"><ele>68.0</ele><time>2026-05-02T09:30:13.401Z</time></trkpt><trkpt lat="52.6215417" lon="-0.4561917"><ele>68.0</ele><time>2026-05-02T09:30:14.402Z</time></trkpt><trkpt lat="52.6217033" lon="-0.4565167"><ele>68.0</ele><time>2026-05-02T09:30:15.402Z</time></trkpt><trkpt lat="52.6218583" lon="-0.4568467"><ele>68.0</ele><time>2026-05-02T09:30:16.402Z</time></trkpt><trkpt lat="52.6220133" lon="-0.4571783"><ele>69.5</ele><time>2026-05-02T09:30:17.403Z</time></trkpt><trkpt lat="52.6221733" lon="-0.45751"><ele>71.0</ele><time>2026-05-02T09:30:18.406Z</time></trkpt><trkpt lat="52.6223333" lon="-0.4578433"><ele>72.0</ele><time>2026-05-02T09:30:19.402Z</time></trkpt><trkpt lat="52.622495" lon="-0.4581767"><ele>73.0</ele><time>2026-05-02T09:30:20.403Z</time></trkpt><trkpt lat="52.6226583" lon="-0.4585033"><ele>76.5</ele><time>2026-05-02T09:30:21.403Z</time></trkpt><trkpt lat="52.622825" lon="-0.458825"><ele>80.0</ele><time>2026-05-02T09:30:22.405Z</time></trkpt><trkpt lat="52.6229933" lon="-0.4591433"><ele>80.0</ele><time>2026-05-02T09:30:23.403Z</time></trkpt><trkpt lat="52.6231683" lon="-0.4594617"><ele>80.0</ele><time>2026-05-02T09:30:24.402Z</time></trkpt><trkpt lat="52.6233417" lon="-0.4597733"><ele>79.0</ele><time>2026-05-02T09:30:25.401Z</time></trkpt><trkpt lat="52.6235233" lon="-0.4600817"><ele>78.0</ele><time>2026-05-02T09:30:26.406Z</time></trkpt><trkpt lat="52.623705" lon="-0.4603883"><ele>78.0</ele><time>2026-05-02T09:30:27.402Z</time></trkpt><trkpt lat="52.6238867" lon="-0.4606917"><ele>78.0</ele><time>2026-05-02T09:30:28.402Z</time></trkpt><trkpt lat="52.62407" lon="-0.460995"><ele>77.5</ele><time>2026-05-02T09:30:29.402Z</time></trkpt><trkpt lat="52.624255" lon="-0.4612983"><ele>77.0</ele><time>2026-05-02T09:30:30.403Z</time></trkpt><trkpt lat="52.6244417" lon="-0.4615967"><ele>78.0</ele><time>2026-05-02T09:30:31.403Z</time></trkpt><trkpt lat="52.6246267" lon="-0.4618917"><ele>79.0</ele><time>2026-05-02T09:30:32.403Z</time></trkpt><trkpt lat="52.624815" lon="-0.4621883"><ele>79.0</ele><time>2026-05-02T09:30:33.403Z</time></trkpt><trkpt lat="52.6250017" lon="-0.4624833"><ele>79.0</ele><time>2026-05-02T09:30:34.402Z</time></trkpt><trkpt lat="52.6251867" lon="-0.4627817"><ele>80.0</ele><time>2026-05-02T09:30:35.402Z</time></trkpt><trkpt lat="52.62537" lon="-0.4630817"><ele>81.0</ele><time>2026-05-02T09:30:36.402Z</time></trkpt><trkpt lat="52.6255517" lon="-0.4633833"><ele>81.0</ele><time>2026-05-02T09:30:37.403Z</time></trkpt><trkpt lat="52.6257333" lon="-0.4636883"><ele>81.0</ele><time>2026-05-02T09:30:38.402Z</time></trkpt><trkpt lat="52.6259117" lon="-0.4639917"><ele>80.5</ele><time>2026-05-02T09:30:39.403Z</time></trkpt><trkpt lat="52.6260867" lon="-0.4643033"><ele>80.0</ele><time>2026-05-02T09:30:40.403Z</time></trkpt><trkpt lat="52.6262583" lon="-0.4646167"><ele>81.0</ele><time>2026-05-02T09:30:41.403Z</time></trkpt><trkpt lat="52.62643" lon="-0.4649317"><ele>82.0</ele><time>2026-05-02T09:30:42.402Z</time></trkpt><trkpt lat="52.6266033" lon="-0.4652483"><ele>81.5</ele><time>2026-05-02T09:30:43.402Z</time></trkpt><trkpt lat="52.626775" lon="-0.46556"><ele>81.0</ele><time>2026-05-02T09:30:44.402Z</time></trkpt><trkpt lat="52.626945" lon="-0.4658767"><ele>82.0</ele><time>2026-05-02T09:30:45.402Z</time></trkpt><trkpt lat="52.627115" lon="-0.4662"><ele>83.0</ele><time>2026-05-02T09:30:46.402Z</time></trkpt><trkpt lat="52.6272783" lon="-0.4665267"><ele>83.0</ele><time>2026-05-02T09:30:47.402Z</time></trkpt><trkpt lat="52.6274417" lon="-0.46686"><ele>83.0</ele><time>2026-05-02T09:30:48.402Z</time></trkpt><trkpt lat="52.627605" lon="-0.4671917"><ele>83.0</ele><time>2026-05-02T09:30:49.402Z</time></trkpt><trkpt lat="52.62777" lon="-0.467525"><ele>83.0</ele><time>2026-05-02T09:30:50.402Z</time></trkpt><trkpt lat="52.62794" lon="-0.4678517"><ele>82.5</ele><time>2026-05-02T09:30:51.402Z</time></trkpt><trkpt lat="52.628115" lon="-0.4681683"><ele>82.0</ele><time>2026-05-02T09:30:52.402Z</time></trkpt><trkpt lat="52.6282933" lon="-0.4684733"><ele>82.0</ele><time>2026-05-02T09:30:53.404Z</time></trkpt><trkpt lat="52.628475" lon="-0.46877"><ele>82.0</ele><time>2026-05-02T09:30:54.403Z</time></trkpt><trkpt lat="52.6286617" lon="-0.469065"><ele>81.5</ele><time>2026-05-02T09:30:55.402Z</time></trkpt><trkpt lat="52.62885" lon="-0.4693533"><ele>81.0</ele><time>2026-05-02T09:30:56.403Z</time></trkpt><trkpt lat="52.62904" lon="-0.4696367"><ele>81.0</ele><time>2026-05-02T09:30:57.402Z</time></trkpt><trkpt lat="52.6292333" lon="-0.469915"><ele>81.0</ele><time>2026-05-02T09:30:58.403Z</time></trkpt><trkpt lat="52.62943" lon="-0.4701933"><ele>81.0</ele><time>2026-05-02T09:30:59.402Z</time></trkpt><trkpt lat="52.62963" lon="-0.4704717"><ele>81.0</ele><time>2026-05-02T09:31:00.402Z</time></trkpt><trkpt lat="52.6298317" lon="-0.4707417"><ele>81.0</ele><time>2026-05-02T09:31:01.402Z</time></trkpt><trkpt lat="52.6300283" lon="-0.4710083"><ele>81.0</ele><time>2026-05-02T09:31:02.403Z</time></trkpt><trkpt lat="52.6302283" lon="-0.4712783"><ele>81.5</ele><time>2026-05-02T09:31:03.402Z</time></trkpt><trkpt lat="52.6304283" lon="-0.4715533"><ele>82.0</ele><time>2026-05-02T09:31:04.403Z</time></trkpt><trkpt lat="52.6306283" lon="-0.4718317"><ele>83.0</ele><time>2026-05-02T09:31:05.402Z</time></trkpt><trkpt lat="52.6308283" lon="-0.47211"><ele>84.0</ele><time>2026-05-02T09:31:06.403Z</time></trkpt><trkpt lat="52.6310233" lon="-0.4723833"><ele>83.0</ele><time>2026-05-02T09:31:07.402Z</time></trkpt><trkpt lat="52.631225" lon="-0.47266"><ele>82.0</ele><time>2026-05-02T09:31:08.403Z</time></trkpt><trkpt lat="52.6314267" lon="-0.4729367"><ele>82.0</ele><time>2026-05-02T09:31:09.403Z</time></trkpt><trkpt lat="52.6316333" lon="-0.473225"><ele>82.0</ele><time>2026-05-02T09:31:10.402Z</time></trkpt><trkpt lat="52.63185" lon="-0.4735217"><ele>82.0</ele><time>2026-05-02T09:31:11.403Z</time></trkpt><trkpt lat="52.6320717" lon="-0.4738283"><ele>82.0</ele><time>2026-05-02T09:31:12.402Z</time></trkpt><trkpt lat="52.6323" lon="-0.474145"><ele>82.0</ele><time>2026-05-02T09:31:13.403Z</time></trkpt><trkpt lat="52.63253" lon="-0.47447"><ele>82.0</ele><time>2026-05-02T09:31:14.402Z</time></trkpt><trkpt lat="52.6327633" lon="-0.4747983"><ele>81.5</ele><time>2026-05-02T09:31:15.402Z</time></trkpt><trkpt lat="52.632995" lon="-0.4751183"><ele>81.0</ele><time>2026-05-02T09:31:16.403Z</time></trkpt><trkpt lat="52.6332267" lon="-0.47544"><ele>81.0</ele><time>2026-05-02T09:31:17.403Z</time></trkpt><trkpt lat="52.6334583" lon="-0.4757583"><ele>81.0</ele><time>2026-05-02T09:31:18.402Z</time></trkpt><trkpt lat="52.6336883" lon="-0.4760767"><ele>78.5</ele><time>2026-05-02T09:31:19.402Z</time></trkpt><trkpt lat="52.633915" lon="-0.4763933"><ele>76.0</ele><time>2026-05-02T09:31:20.402Z</time></trkpt><trkpt lat="52.6341417" lon="-0.4767067"><ele>76.0</ele><time>2026-05-02T09:31:21.402Z</time></trkpt><trkpt lat="52.6343617" lon="-0.47702"><ele>76.0</ele><time>2026-05-02T09:31:22.402Z</time></trkpt><trkpt lat="52.63458" lon="-0.4773267"><ele>75.5</ele><time>2026-05-02T09:31:23.402Z</time></trkpt><trkpt lat="52.634795" lon="-0.4776317"><ele>75.0</ele><time>2026-05-02T09:31:24.406Z</time></trkpt><trkpt lat="52.6350083" lon="-0.4779367"><ele>75.0</ele><time>2026-05-02T09:31:25.402Z</time></trkpt><trkpt lat="52.6352183" lon="-0.478245"><ele>75.0</ele><time>2026-05-02T09:31:26.402Z</time></trkpt><trkpt lat="52.6354283" lon="-0.4785633"><ele>74.5</ele><time>2026-05-02T09:31:27.403Z</time></trkpt><trkpt lat="52.6356367" lon="-0.4788883"><ele>74.0</ele><time>2026-05-02T09:31:28.402Z</time></trkpt><trkpt lat="52.6358417" lon="-0.479235"><ele>74.0</ele><time>2026-05-02T09:31:29.402Z</time></trkpt><trkpt lat="52.636045" lon="-0.4796117"><ele>74.0</ele><time>2026-05-02T09:31:30.402Z</time></trkpt><trkpt lat="52.6362417" lon="-0.4799933"><ele>72.5</ele><time>2026-05-02T09:31:31.402Z</time></trkpt><trkpt lat="52.6364217" lon="-0.4803833"><ele>71.0</ele><time>2026-05-02T09:31:32.403Z</time></trkpt><trkpt lat="52.63659" lon="-0.4807867"><ele>70.0</ele><time>2026-05-02T09:31:33.402Z</time></trkpt><trkpt lat="52.63675" lon="-0.4811783"><ele>69.0</ele><time>2026-05-02T09:31:34.405Z</time></trkpt><trkpt lat="52.6368983" lon="-0.4815833"><ele>65.5</ele><time>2026-05-02T09:31:35.402Z</time></trkpt><trkpt lat="52.6370383" lon="-0.481995"><ele>62.0</ele><time>2026-05-02T09:31:36.402Z</time></trkpt><trkpt lat="52.6371767" lon="-0.4824167"><ele>61.0</ele><time>2026-05-02T09:31:37.403Z</time></trkpt><trkpt lat="52.6373117" lon="-0.4828433"><ele>60.0</ele><time>2026-05-02T09:31:38.402Z</time></trkpt><trkpt lat="52.6374283" lon="-0.4832783"><ele>59.5</ele><time>2026-05-02T09:31:39.403Z</time></trkpt><trkpt lat="52.637535" lon="-0.4837183"><ele>59.0</ele><time>2026-05-02T09:31:40.402Z</time></trkpt><trkpt lat="52.6376283" lon="-0.4841633"><ele>58.0</ele><time>2026-05-02T09:31:41.402Z</time></trkpt><trkpt lat="52.6377167" lon="-0.4846067"><ele>57.0</ele><time>2026-05-02T09:31:42.407Z</time></trkpt><trkpt lat="52.63779" lon="-0.4850483"><ele>55.0</ele><time>2026-05-02T09:31:43.403Z</time></trkpt><trkpt lat="52.637855" lon="-0.48549"><ele>53.0</ele><time>2026-05-02T09:31:44.402Z</time></trkpt><trkpt lat="52.6379183" lon="-0.4859283"><ele>52.0</ele><time>2026-05-02T09:31:45.403Z</time></trkpt><trkpt lat="52.6379783" lon="-0.4863633"><ele>51.0</ele><time>2026-05-02T09:31:46.405Z</time></trkpt><trkpt lat="52.6380433" lon="-0.4868017"><ele>51.0</ele><time>2026-05-02T09:31:47.402Z</time></trkpt><trkpt lat="52.6381183" lon="-0.4872633"><ele>51.0</ele><time>2026-05-02T09:31:48.402Z</time></trkpt><trkpt lat="52.6381917" lon="-0.4877267"><ele>50.0</ele><time>2026-05-02T09:31:49.402Z</time></trkpt><trkpt lat="52.63826" lon="-0.488185"><ele>49.0</ele><time>2026-05-02T09:31:50.402Z</time></trkpt><trkpt lat="52.6383183" lon="-0.4886333"><ele>48.0</ele><time>2026-05-02T09:31:51.402Z</time></trkpt><trkpt lat="52.638375" lon="-0.4890667"><ele>47.0</ele><time>2026-05-02T09:31:52.402Z</time></trkpt><trkpt lat="52.6384317" lon="-0.489485"><ele>46.0</ele><time>2026-05-02T09:31:53.402Z</time></trkpt><trkpt lat="52.6384917" lon="-0.4898967"><ele>45.0</ele><time>2026-05-02T09:31:54.407Z</time></trkpt><trkpt lat="52.6385533" lon="-0.4903067"><ele>44.5</ele><time>2026-05-02T09:31:55.403Z</time></trkpt><trkpt lat="52.638625" lon="-0.4907133"><ele>44.0</ele><time>2026-05-02T09:31:56.403Z</time></trkpt><trkpt lat="52.6387033" lon="-0.4911217"><ele>39.0</ele><time>2026-05-02T09:31:57.402Z</time></trkpt><trkpt lat="52.6387817" lon="-0.49153"><ele>34.0</ele><time>2026-05-02T09:31:58.402Z</time></trkpt><trkpt lat="52.6388667" lon="-0.491935"><ele>34.0</ele><time>2026-05-02T09:31:59.402Z</time></trkpt><trkpt lat="52.6389583" lon="-0.4923333"><ele>34.0</ele><time>2026-05-02T09:32:00.402Z</time></trkpt><trkpt lat="52.6390583" lon="-0.4927283"><ele>34.0</ele><time>2026-05-02T09:32:01.403Z</time></trkpt><trkpt lat="52.639165" lon="-0.493115"><ele>34.0</ele><time>2026-05-02T09:32:02.402Z</time></trkpt><trkpt lat="52.63928" lon="-0.4934967"><ele>33.0</ele><time>2026-05-02T09:32:03.402Z</time></trkpt><trkpt lat="52.6394033" lon="-0.4938733"><ele>32.0</ele><time>2026-05-02T09:32:04.402Z</time></trkpt><trkpt lat="52.6395283" lon="-0.4942433"><ele>31.0</ele><time>2026-05-02T09:32:05.402Z</time></trkpt><trkpt lat="52.6396633" lon="-0.4946083"><ele>30.0</ele><time>2026-05-02T09:32:06.402Z</time></trkpt><trkpt lat="52.6398017" lon="-0.494965"><ele>30.0</ele><time>2026-05-02T09:32:07.403Z</time></trkpt><trkpt lat="52.6399467" lon="-0.4953117"><ele>30.0</ele><time>2026-05-02T09:32:08.402Z</time></trkpt><trkpt lat="52.6401033" lon="-0.495655"><ele>30.0</ele><time>2026-05-02T09:32:09.403Z</time></trkpt><trkpt lat="52.6402683" lon="-0.4959917"><ele>30.0</ele><time>2026-05-02T09:32:10.403Z</time></trkpt><trkpt lat="52.640435" lon="-0.4963133"><ele>29.0</ele><time>2026-05-02T09:32:11.402Z</time></trkpt><trkpt lat="52.6406083" lon="-0.496625"><ele>28.0</ele><time>2026-05-02T09:32:12.402Z</time></trkpt><trkpt lat="52.6407817" lon="-0.4969333"><ele>28.0</ele><time>2026-05-02T09:32:13.402Z</time></trkpt><trkpt lat="52.640955" lon="-0.49724"><ele>28.0</ele><time>2026-05-02T09:32:14.405Z</time></trkpt><trkpt lat="52.64113" lon="-0.4975433"><ele>27.5</ele><time>2026-05-02T09:32:15.401Z</time></trkpt><trkpt lat="52.6413067" lon="-0.49785"><ele>27.0</ele><time>2026-05-02T09:32:16.403Z</time></trkpt><trkpt lat="52.6414883" lon="-0.4981517"><ele>27.5</ele><time>2026-05-02T09:32:17.402Z</time></trkpt><trkpt lat="52.64167" lon="-0.498455"><ele>28.0</ele><time>2026-05-02T09:32:18.403Z</time></trkpt><trkpt lat="52.641855" lon="-0.49876"><ele>29.0</ele><time>2026-05-02T09:32:19.403Z</time></trkpt><trkpt lat="52.6420433" lon="-0.49906"><ele>30.0</ele><time>2026-05-02T09:32:20.402Z</time></trkpt><trkpt lat="52.6422333" lon="-0.499355"><ele>29.5</ele><time>2026-05-02T09:32:21.402Z</time></trkpt><trkpt lat="52.6424217" lon="-0.49965"><ele>29.0</ele><time>2026-05-02T09:32:22.402Z</time></trkpt><trkpt lat="52.6426083" lon="-0.4999467"><ele>29.0</ele><time>2026-05-02T09:32:23.402Z</time></trkpt><trkpt lat="52.642795" lon="-0.5002417"><ele>29.0</ele><time>2026-05-02T09:32:24.403Z</time></trkpt><trkpt lat="52.6429833" lon="-0.500535"><ele>30.5</ele><time>2026-05-02T09:32:25.405Z</time></trkpt><trkpt lat="52.6431717" lon="-0.5008217"><ele>32.0</ele><time>2026-05-02T09:32:26.403Z</time></trkpt><trkpt lat="52.6433567" lon="-0.5011"><ele>31.5</ele><time>2026-05-02T09:32:27.403Z</time></trkpt><trkpt lat="52.643535" lon="-0.5013617"><ele>31.0</ele><time>2026-05-02T09:32:28.402Z</time></trkpt><trkpt lat="52.6437083" lon="-0.5016033"><ele>32.66666666666667</ele><time>2026-05-02T09:32:29.401Z</time></trkpt><trkpt lat="52.643875" lon="-0.501835"><ele>34.333333333333336</ele><time>2026-05-02T09:32:30.402Z</time></trkpt><trkpt lat="52.6440383" lon="-0.5020667"><ele>36.0</ele><time>2026-05-02T09:32:31.403Z</time></trkpt><trkpt lat="52.6442" lon="-0.5022967"><ele>36.0</ele><time>2026-05-02T09:32:32.403Z</time></trkpt><trkpt lat="52.6443633" lon="-0.5025283"><ele>36.0</ele><time>2026-05-02T09:32:33.402Z</time></trkpt><trkpt lat="52.64453" lon="-0.5027567"><ele>36.0</ele><time>2026-05-02T09:32:34.403Z</time></trkpt><trkpt lat="52.6446967" lon="-0.502985"><ele>37.333333333333336</ele><time>2026-05-02T09:32:35.404Z</time></trkpt><trkpt lat="52.64486" lon="-0.503205"><ele>38.66666666666667</ele><time>2026-05-02T09:32:36.402Z</time></trkpt><trkpt lat="52.6450233" lon="-0.503425"><ele>40.0</ele><time>2026-05-02T09:32:37.402Z</time></trkpt><trkpt lat="52.64519" lon="-0.5036433"><ele>41.333333333333336</ele><time>2026-05-02T09:32:38.402Z</time></trkpt><trkpt lat="52.6453583" lon="-0.503855"><ele>42.666666666666664</ele><time>2026-05-02T09:32:39.404Z</time></trkpt><trkpt lat="52.6455267" lon="-0.5040683"><ele>44.0</ele><time>2026-05-02T09:32:40.403Z</time></trkpt><trkpt lat="52.6456917" lon="-0.5042817"><ele>44.0</ele><time>2026-05-02T09:32:41.403Z</time></trkpt><trkpt lat="52.6458633" lon="-0.5044983"><ele>44.0</ele><time>2026-05-02T09:32:42.402Z</time></trkpt><trkpt lat="52.6460383" lon="-0.5047167"><ele>44.0</ele><time>2026-05-02T09:32:43.402Z</time></trkpt><trkpt lat="52.64622" lon="-0.50494"><ele>46.5</ele><time>2026-05-02T09:32:44.407Z</time></trkpt><trkpt lat="52.64641" lon="-0.5051767"><ele>49.0</ele><time>2026-05-02T09:32:45.403Z</time></trkpt><trkpt lat="52.64661" lon="-0.50542"><ele>49.5</ele><time>2026-05-02T09:32:46.402Z</time></trkpt><trkpt lat="52.6468067" lon="-0.50567"><ele>50.0</ele><time>2026-05-02T09:32:47.402Z</time></trkpt><trkpt lat="52.647005" lon="-0.505905"><ele>50.0</ele><time>2026-05-02T09:32:48.403Z</time></trkpt><trkpt lat="52.6472" lon="-0.5061333"><ele>50.0</ele><time>2026-05-02T09:32:49.402Z</time></trkpt><trkpt lat="52.6473917" lon="-0.5063483"><ele>50.0</ele><time>2026-05-02T09:32:50.402Z</time></trkpt><trkpt lat="52.64758" lon="-0.5065617"><ele>50.0</ele><time>2026-05-02T09:32:51.403Z</time></trkpt><trkpt lat="52.6477683" lon="-0.5067733"><ele>52.5</ele><time>2026-05-02T09:32:52.402Z</time></trkpt><trkpt lat="52.6479617" lon="-0.5069817"><ele>55.0</ele><time>2026-05-02T09:32:53.403Z</time></trkpt><trkpt lat="52.64816" lon="-0.5071783"><ele>55.33333333333333</ele><time>2026-05-02T09:32:54.402Z</time></trkpt><trkpt lat="52.648345" lon="-0.5073767"><ele>55.66666666666667</ele><time>2026-05-02T09:32:55.403Z</time></trkpt><trkpt lat="52.6485233" lon="-0.507565"><ele>56.0</ele><time>2026-05-02T09:32:56.402Z</time></trkpt><trkpt lat="52.6486883" lon="-0.507745"><ele>57.333333333333336</ele><time>2026-05-02T09:32:57.402Z</time></trkpt><trkpt lat="52.6488433" lon="-0.5079183"><ele>58.66666666666667</ele><time>2026-05-02T09:32:58.401Z</time></trkpt><trkpt lat="52.6490083" lon="-0.50809"><ele>60.0</ele><time>2026-05-02T09:32:59.402Z</time></trkpt><trkpt lat="52.6491783" lon="-0.5082583"><ele>60.0</ele><time>2026-05-02T09:33:00.402Z</time></trkpt><trkpt lat="52.64935" lon="-0.5084317"><ele>60.0</ele><time>2026-05-02T09:33:01.403Z</time></trkpt><trkpt lat="52.64953" lon="-0.5086083"><ele>60.0</ele><time>2026-05-02T09:33:02.402Z</time></trkpt><trkpt lat="52.649715" lon="-0.5087883"><ele>61.33333333333333</ele><time>2026-05-02T09:33:03.402Z</time></trkpt><trkpt lat="52.6499083" lon="-0.5089733"><ele>62.666666666666664</ele><time>2026-05-02T09:33:04.402Z</time></trkpt><trkpt lat="52.6501033" lon="-0.5091567"><ele>64.0</ele><time>2026-05-02T09:33:05.402Z</time></trkpt><trkpt lat="52.6503033" lon="-0.5093433"><ele>64.5</ele><time>2026-05-02T09:33:06.403Z</time></trkpt><trkpt lat="52.650505" lon="-0.509535"><ele>65.0</ele><time>2026-05-02T09:33:07.402Z</time></trkpt><trkpt lat="52.650715" lon="-0.509725"><ele>65.0</ele><time>2026-05-02T09:33:08.402Z</time></trkpt><trkpt lat="52.65093" lon="-0.5099117"><ele>65.0</ele><time>2026-05-02T09:33:09.406Z</time></trkpt><trkpt lat="52.65115" lon="-0.5100983"><ele>65.0</ele><time>2026-05-02T09:33:10.402Z</time></trkpt><trkpt lat="52.6513717" lon="-0.5102917"><ele>65.0</ele><time>2026-05-02T09:33:11.403Z</time></trkpt><trkpt lat="52.6515933" lon="-0.5104833"><ele>65.0</ele><time>2026-05-02T09:33:12.404Z</time></trkpt><trkpt lat="52.651815" lon="-0.51068"><ele>65.0</ele><time>2026-05-02T09:33:13.404Z</time></trkpt><trkpt lat="52.6520417" lon="-0.5108767"><ele>65.0</ele><time>2026-05-02T09:33:14.405Z</time></trkpt><trkpt lat="52.6522767" lon="-0.5110717"><ele>65.0</ele><time>2026-05-02T09:33:15.403Z</time></trkpt><trkpt lat="52.6525167" lon="-0.51126"><ele>64.5</ele><time>2026-05-02T09:33:16.403Z</time></trkpt><trkpt lat="52.6527583" lon="-0.5114517"><ele>64.0</ele><time>2026-05-02T09:33:17.402Z</time></trkpt><trkpt lat="52.6530067" lon="-0.511645"><ele>64.0</ele><time>2026-05-02T09:33:18.402Z</time></trkpt><trkpt lat="52.6532617" lon="-0.51184"><ele>64.0</ele><time>2026-05-02T09:33:19.402Z</time></trkpt><trkpt lat="52.653515" lon="-0.5120333"><ele>66.0</ele><time>2026-05-02T09:33:20.403Z</time></trkpt><trkpt lat="52.65377" lon="-0.5122283"><ele>68.0</ele><time>2026-05-02T09:33:21.404Z</time></trkpt><trkpt lat="52.6540183" lon="-0.5124233"><ele>68.0</ele><time>2026-05-02T09:33:22.403Z</time></trkpt><trkpt lat="52.6542583" lon="-0.5126117"><ele>68.0</ele><time>2026-05-02T09:33:23.402Z</time></trkpt><trkpt lat="52.6544917" lon="-0.5127883"><ele>70.0</ele><time>2026-05-02T09:33:24.402Z</time></trkpt><trkpt lat="52.6547233" lon="-0.51296"><ele>72.0</ele><time>2026-05-02T09:33:25.402Z</time></trkpt><trkpt lat="52.65496" lon="-0.513135"><ele>72.0</ele><time>2026-05-02T09:33:26.403Z</time></trkpt><trkpt lat="52.655195" lon="-0.513315"><ele>72.0</ele><time>2026-05-02T09:33:27.402Z</time></trkpt><trkpt lat="52.6554367" lon="-0.5135083"><ele>72.0</ele><time>2026-05-02T09:33:28.402Z</time></trkpt><trkpt lat="52.65568" lon="-0.5136967"><ele>72.0</ele><time>2026-05-02T09:33:29.402Z</time></trkpt><trkpt lat="52.6559217" lon="-0.5138833"><ele>72.0</ele><time>2026-05-02T09:33:30.402Z</time></trkpt><trkpt lat="52.656165" lon="-0.514075"><ele>72.0</ele><time>2026-05-02T09:33:31.402Z</time></trkpt><trkpt lat="52.6564067" lon="-0.5142767"><ele>72.0</ele><time>2026-05-02T09:33:32.402Z</time></trkpt><trkpt lat="52.6566533" lon="-0.5144817"><ele>72.0</ele><time>2026-05-02T09:33:33.402Z</time></trkpt><trkpt lat="52.6569033" lon="-0.514705"><ele>73.0</ele><time>2026-05-02T09:33:34.402Z</time></trkpt><trkpt lat="52.6571483" lon="-0.5149283"><ele>74.0</ele><time>2026-05-02T09:33:35.402Z</time></trkpt><trkpt lat="52.6573917" lon="-0.51516"><ele>74.0</ele><time>2026-05-02T09:33:36.402Z</time></trkpt><trkpt lat="52.65764" lon="-0.5154"><ele>74.0</ele><time>2026-05-02T09:33:37.402Z</time></trkpt><trkpt lat="52.6578917" lon="-0.5156467"><ele>73.5</ele><time>2026-05-02T09:33:38.404Z</time></trkpt><trkpt lat="52.6581417" lon="-0.515895"><ele>73.0</ele><time>2026-05-02T09:33:39.402Z</time></trkpt><trkpt lat="52.658385" lon="-0.516145"><ele>73.5</ele><time>2026-05-02T09:33:40.402Z</time></trkpt><trkpt lat="52.6586267" lon="-0.5164067"><ele>74.0</ele><time>2026-05-02T09:33:41.404Z</time></trkpt><trkpt lat="52.658865" lon="-0.5166717"><ele>74.0</ele><time>2026-05-02T09:33:42.403Z</time></trkpt><trkpt lat="52.6591" lon="-0.5169367"><ele>74.0</ele><time>2026-05-02T09:33:43.402Z</time></trkpt><trkpt lat="52.6593267" lon="-0.5172033"><ele>72.5</ele><time>2026-05-02T09:33:44.402Z</time></trkpt><trkpt lat="52.6595533" lon="-0.5174717"><ele>71.0</ele><time>2026-05-02T09:33:45.402Z</time></trkpt><trkpt lat="52.65978" lon="-0.5177517"><ele>70.0</ele><time>2026-05-02T09:33:46.402Z</time></trkpt><trkpt lat="52.6600067" lon="-0.51804"><ele>69.0</ele><time>2026-05-02T09:33:47.404Z</time></trkpt><trkpt lat="52.660235" lon="-0.5183317"><ele>69.0</ele><time>2026-05-02T09:33:48.402Z</time></trkpt><trkpt lat="52.6604667" lon="-0.5186233"><ele>69.0</ele><time>2026-05-02T09:33:49.402Z</time></trkpt><trkpt lat="52.6606983" lon="-0.5189133"><ele>68.0</ele><time>2026-05-02T09:33:50.404Z</time></trkpt><trkpt lat="52.6609367" lon="-0.519205"><ele>67.0</ele><time>2026-05-02T09:33:51.402Z</time></trkpt><trkpt lat="52.6611733" lon="-0.5194983"><ele>64.0</ele><time>2026-05-02T09:33:52.402Z</time></trkpt><trkpt lat="52.6614017" lon="-0.5197817"><ele>61.0</ele><time>2026-05-02T09:33:53.402Z</time></trkpt><trkpt lat="52.66162" lon="-0.5200517"><ele>61.0</ele><time>2026-05-02T09:33:54.402Z</time></trkpt><trkpt lat="52.6618333" lon="-0.5203117"><ele>61.0</ele><time>2026-05-02T09:33:55.402Z</time></trkpt><trkpt lat="52.6620483" lon="-0.52057"><ele>61.0</ele><time>2026-05-02T09:33:56.402Z</time></trkpt><trkpt lat="52.662265" lon="-0.5208283"><ele>61.0</ele><time>2026-05-02T09:33:57.402Z</time></trkpt><trkpt lat="52.66249" lon="-0.5210883"><ele>60.5</ele><time>2026-05-02T09:33:58.402Z</time></trkpt><trkpt lat="52.6627183" lon="-0.5213483"><ele>60.0</ele><time>2026-05-02T09:33:59.402Z</time></trkpt><trkpt lat="52.662955" lon="-0.5216067"><ele>60.0</ele><time>2026-05-02T09:34:00.402Z</time></trkpt><trkpt lat="52.6631967" lon="-0.5218583"><ele>60.0</ele><time>2026-05-02T09:34:01.402Z</time></trkpt><trkpt lat="52.6634417" lon="-0.5221083"><ele>58.0</ele><time>2026-05-02T09:34:02.402Z</time></trkpt><trkpt lat="52.6636833" lon="-0.522355"><ele>56.0</ele><time>2026-05-02T09:34:03.402Z</time></trkpt><trkpt lat="52.6639267" lon="-0.5226"><ele>56.0</ele><time>2026-05-02T09:34:04.404Z</time></trkpt><trkpt lat="52.6641717" lon="-0.5228417"><ele>56.0</ele><time>2026-05-02T09:34:05.402Z</time></trkpt><trkpt lat="52.6644183" lon="-0.523075"><ele>53.0</ele><time>2026-05-02T09:34:06.403Z</time></trkpt><trkpt lat="52.6646683" lon="-0.5233067"><ele>50.0</ele><time>2026-05-02T09:34:07.402Z</time></trkpt><trkpt lat="52.6649233" lon="-0.52354"><ele>49.5</ele><time>2026-05-02T09:34:08.402Z</time></trkpt><trkpt lat="52.6651833" lon="-0.52377"><ele>49.0</ele><time>2026-05-02T09:34:09.402Z</time></trkpt><trkpt lat="52.6654433" lon="-0.5239983"><ele>49.0</ele><time>2026-05-02T09:34:10.402Z</time></trkpt><trkpt lat="52.6657067" lon="-0.524225"><ele>49.0</ele><time>2026-05-02T09:34:11.402Z</time></trkpt><trkpt lat="52.6659733" lon="-0.524445"><ele>47.5</ele><time>2026-05-02T09:34:12.402Z</time></trkpt><trkpt lat="52.66624" lon="-0.524655"><ele>46.0</ele><time>2026-05-02T09:34:13.402Z</time></trkpt><trkpt lat="52.6665067" lon="-0.52486"><ele>46.0</ele><time>2026-05-02T09:34:14.402Z</time></trkpt><trkpt lat="52.6667817" lon="-0.525065"><ele>46.0</ele><time>2026-05-02T09:34:15.402Z</time></trkpt><trkpt lat="52.66706" lon="-0.5252717"><ele>46.5</ele><time>2026-05-02T09:34:16.402Z</time></trkpt><trkpt lat="52.6673433" lon="-0.525475"><ele>47.0</ele><time>2026-05-02T09:34:17.403Z</time></trkpt><trkpt lat="52.6676233" lon="-0.5256733"><ele>46.5</ele><time>2026-05-02T09:34:18.403Z</time></trkpt><trkpt lat="52.667905" lon="-0.52587"><ele>46.0</ele><time>2026-05-02T09:34:19.402Z</time></trkpt><trkpt lat="52.668185" lon="-0.5260617"><ele>46.0</ele><time>2026-05-02T09:34:20.402Z</time></trkpt><trkpt lat="52.668465" lon="-0.526255"><ele>46.0</ele><time>2026-05-02T09:34:21.402Z</time></trkpt><trkpt lat="52.66874" lon="-0.5264433"><ele>46.0</ele><time>2026-05-02T09:34:22.402Z</time></trkpt><trkpt lat="52.669015" lon="-0.5266317"><ele>46.0</ele><time>2026-05-02T09:34:23.402Z</time></trkpt><trkpt lat="52.6692867" lon="-0.5268217"><ele>44.5</ele><time>2026-05-02T09:34:24.403Z</time></trkpt><trkpt lat="52.6695533" lon="-0.52701"><ele>43.0</ele><time>2026-05-02T09:34:25.403Z</time></trkpt><trkpt lat="52.66982" lon="-0.5271983"><ele>43.0</ele><time>2026-05-02T09:34:26.402Z</time></trkpt><trkpt lat="52.6700817" lon="-0.5273917"><ele>43.0</ele><time>2026-05-02T09:34:27.403Z</time></trkpt><trkpt lat="52.67034" lon="-0.5275967"><ele>43.0</ele><time>2026-05-02T09:34:28.402Z</time></trkpt><trkpt lat="52.670595" lon="-0.5278167"><ele>43.0</ele><time>2026-05-02T09:34:29.403Z</time></trkpt><trkpt lat="52.6708517" lon="-0.52804"><ele>43.5</ele><time>2026-05-02T09:34:30.403Z</time></trkpt><trkpt lat="52.6711033" lon="-0.5282683"><ele>44.0</ele><time>2026-05-02T09:34:31.402Z</time></trkpt><trkpt lat="52.6713417" lon="-0.5285033"><ele>46.0</ele><time>2026-05-02T09:34:32.403Z</time></trkpt><trkpt lat="52.671575" lon="-0.52874"><ele>48.0</ele><time>2026-05-02T09:34:33.402Z</time></trkpt><trkpt lat="52.6718017" lon="-0.5289833"><ele>49.0</ele><time>2026-05-02T09:34:34.402Z</time></trkpt><trkpt lat="52.6720283" lon="-0.529225"><ele>50.0</ele><time>2026-05-02T09:34:35.403Z</time></trkpt><trkpt lat="52.67225" lon="-0.5294683"><ele>50.5</ele><time>2026-05-02T09:34:36.403Z</time></trkpt><trkpt lat="52.6724667" lon="-0.52972"><ele>51.0</ele><time>2026-05-02T09:34:37.402Z</time></trkpt><trkpt lat="52.67268" lon="-0.529985"><ele>53.5</ele><time>2026-05-02T09:34:38.402Z</time></trkpt><trkpt lat="52.6728817" lon="-0.5302567"><ele>56.0</ele><time>2026-05-02T09:34:39.402Z</time></trkpt><trkpt lat="52.6730817" lon="-0.5305267"><ele>56.0</ele><time>2026-05-02T09:34:40.402Z</time></trkpt><trkpt lat="52.6732717" lon="-0.5307967"><ele>56.0</ele><time>2026-05-02T09:34:41.402Z</time></trkpt><trkpt lat="52.6734533" lon="-0.5310717"><ele>58.0</ele><time>2026-05-02T09:34:42.403Z</time></trkpt><trkpt lat="52.6736267" lon="-0.53135"><ele>60.0</ele><time>2026-05-02T09:34:43.403Z</time></trkpt><trkpt lat="52.6738017" lon="-0.5316317"><ele>60.0</ele><time>2026-05-02T09:34:44.402Z</time></trkpt><trkpt lat="52.6739733" lon="-0.5319217"><ele>60.0</ele><time>2026-05-02T09:34:45.403Z</time></trkpt><trkpt lat="52.67414" lon="-0.5322167"><ele>59.5</ele><time>2026-05-02T09:34:46.403Z</time></trkpt><trkpt lat="52.674305" lon="-0.532515"><ele>59.0</ele><time>2026-05-02T09:34:47.402Z</time></trkpt><trkpt lat="52.6744667" lon="-0.5328117"><ele>60.5</ele><time>2026-05-02T09:34:48.402Z</time></trkpt><trkpt lat="52.67463" lon="-0.533105"><ele>62.0</ele><time>2026-05-02T09:34:49.403Z</time></trkpt><trkpt lat="52.6747933" lon="-0.5333983"><ele>62.0</ele><time>2026-05-02T09:34:50.403Z</time></trkpt><trkpt lat="52.6749633" lon="-0.5336933"><ele>62.0</ele><time>2026-05-02T09:34:51.403Z</time></trkpt><trkpt lat="52.675135" lon="-0.5339917"><ele>63.5</ele><time>2026-05-02T09:34:52.403Z</time></trkpt><trkpt lat="52.6753067" lon="-0.5342917"><ele>65.0</ele><time>2026-05-02T09:34:53.405Z</time></trkpt><trkpt lat="52.6754717" lon="-0.5345883"><ele>65.0</ele><time>2026-05-02T09:34:54.402Z</time></trkpt><trkpt lat="52.6756283" lon="-0.5348783"><ele>65.0</ele><time>2026-05-02T09:34:55.403Z</time></trkpt><trkpt lat="52.6757833" lon="-0.5351617"><ele>66.0</ele><time>2026-05-02T09:34:56.404Z</time></trkpt><trkpt lat="52.6759367" lon="-0.5354433"><ele>67.0</ele><time>2026-05-02T09:34:57.403Z</time></trkpt><trkpt lat="52.6760917" lon="-0.53572"><ele>67.5</ele><time>2026-05-02T09:34:58.402Z</time></trkpt><trkpt lat="52.67625" lon="-0.5359983"><ele>68.0</ele><time>2026-05-02T09:34:59.402Z</time></trkpt><trkpt lat="52.676405" lon="-0.5362783"><ele>68.0</ele><time>2026-05-02T09:35:00.402Z</time></trkpt><trkpt lat="52.6765633" lon="-0.5365567"><ele>68.0</ele><time>2026-05-02T09:35:01.403Z</time></trkpt><trkpt lat="52.6767217" lon="-0.5368367"><ele>67.5</ele><time>2026-05-02T09:35:02.402Z</time></trkpt><trkpt lat="52.676885" lon="-0.53712"><ele>67.0</ele><time>2026-05-02T09:35:03.402Z</time></trkpt><trkpt lat="52.6770467" lon="-0.5374117"><ele>68.5</ele><time>2026-05-02T09:35:04.403Z</time></trkpt><trkpt lat="52.67721" lon="-0.537705"><ele>70.0</ele><time>2026-05-02T09:35:05.403Z</time></trkpt><trkpt lat="52.677375" lon="-0.5380017"><ele>70.5</ele><time>2026-05-02T09:35:06.402Z</time></trkpt><trkpt lat="52.6775433" lon="-0.5382983"><ele>71.0</ele><time>2026-05-02T09:35:07.402Z</time></trkpt><trkpt lat="52.67771" lon="-0.5385933"><ele>71.0</ele><time>2026-05-02T09:35:08.402Z</time></trkpt><trkpt lat="52.67788" lon="-0.5388883"><ele>71.0</ele><time>2026-05-02T09:35:09.403Z</time></trkpt><trkpt lat="52.6780483" lon="-0.5391833"><ele>71.0</ele><time>2026-05-02T09:35:10.403Z</time></trkpt><trkpt lat="52.6782183" lon="-0.5394817"><ele>71.0</ele><time>2026-05-02T09:35:11.407Z</time></trkpt><trkpt lat="52.6783883" lon="-0.5397783"><ele>71.0</ele><time>2026-05-02T09:35:12.403Z</time></trkpt><trkpt lat="52.6785517" lon="-0.5400683"><ele>71.0</ele><time>2026-05-02T09:35:13.402Z</time></trkpt><trkpt lat="52.6787083" lon="-0.5403467"><ele>71.5</ele><time>2026-05-02T09:35:14.403Z</time></trkpt><trkpt lat="52.6788617" lon="-0.5406217"><ele>72.0</ele><time>2026-05-02T09:35:15.402Z</time></trkpt><trkpt lat="52.6790167" lon="-0.54089"><ele>72.0</ele><time>2026-05-02T09:35:16.402Z</time></trkpt><trkpt lat="52.67917" lon="-0.54115"><ele>72.0</ele><time>2026-05-02T09:35:17.403Z</time></trkpt><trkpt lat="52.67932" lon="-0.54141"><ele>72.0</ele><time>2026-05-02T09:35:18.403Z</time></trkpt><trkpt lat="52.67947" lon="-0.5416717"><ele>71.66666666666667</ele><time>2026-05-02T09:35:19.403Z</time></trkpt><trkpt lat="52.67962" lon="-0.54193"><ele>71.33333333333334</ele><time>2026-05-02T09:35:20.405Z</time></trkpt><trkpt lat="52.6797683" lon="-0.5421783"><ele>71.0</ele><time>2026-05-02T09:35:21.403Z</time></trkpt><trkpt lat="52.6799183" lon="-0.54243"><ele>71.0</ele><time>2026-05-02T09:35:22.403Z</time></trkpt><trkpt lat="52.6800717" lon="-0.5426967"><ele>71.0</ele><time>2026-05-02T09:35:23.402Z</time></trkpt><trkpt lat="52.680225" lon="-0.54298"><ele>70.5</ele><time>2026-05-02T09:35:24.402Z</time></trkpt><trkpt lat="52.6803767" lon="-0.5432633"><ele>70.0</ele><time>2026-05-02T09:35:25.403Z</time></trkpt><trkpt lat="52.6805333" lon="-0.5435417"><ele>70.0</ele><time>2026-05-02T09:35:26.402Z</time></trkpt><trkpt lat="52.6806883" lon="-0.5438083"><ele>70.0</ele><time>2026-05-02T09:35:27.402Z</time></trkpt><trkpt lat="52.6808417" lon="-0.5440683"><ele>70.0</ele><time>2026-05-02T09:35:28.402Z</time></trkpt><trkpt lat="52.6809933" lon="-0.5443267"><ele>71.0</ele><time>2026-05-02T09:35:29.402Z</time></trkpt><trkpt lat="52.6811417" lon="-0.5445833"><ele>72.0</ele><time>2026-05-02T09:35:30.402Z</time></trkpt><trkpt lat="52.6812917" lon="-0.54484"><ele>73.0</ele><time>2026-05-02T09:35:31.402Z</time></trkpt><trkpt lat="52.6814417" lon="-0.5450967"><ele>73.0</ele><time>2026-05-02T09:35:32.403Z</time></trkpt><trkpt lat="52.6815917" lon="-0.5453567"><ele>73.0</ele><time>2026-05-02T09:35:33.403Z</time></trkpt><trkpt lat="52.68174" lon="-0.5456167"><ele>73.0</ele><time>2026-05-02T09:35:34.402Z</time></trkpt><trkpt lat="52.681885" lon="-0.5458717"><ele>73.0</ele><time>2026-05-02T09:35:35.406Z</time></trkpt><trkpt lat="52.6820283" lon="-0.5461233"><ele>73.0</ele><time>2026-05-02T09:35:36.403Z</time></trkpt><trkpt lat="52.6821717" lon="-0.5463767"><ele>73.0</ele><time>2026-05-02T09:35:37.402Z</time></trkpt><trkpt lat="52.682315" lon="-0.5466283"><ele>73.0</ele><time>2026-05-02T09:35:38.402Z</time></trkpt><trkpt lat="52.682465" lon="-0.5468817"><ele>73.0</ele><time>2026-05-02T09:35:39.403Z</time></trkpt><trkpt lat="52.6826183" lon="-0.547145"><ele>73.0</ele><time>2026-05-02T09:35:40.402Z</time></trkpt><trkpt lat="52.6827767" lon="-0.547405"><ele>73.0</ele><time>2026-05-02T09:35:41.403Z</time></trkpt><trkpt lat="52.6829317" lon="-0.5476667"><ele>73.0</ele><time>2026-05-02T09:35:42.403Z</time></trkpt><trkpt lat="52.6830817" lon="-0.5479233"><ele>73.0</ele><time>2026-05-02T09:35:43.402Z</time></trkpt><trkpt lat="52.6832283" lon="-0.5481783"><ele>73.33333333333333</ele><time>2026-05-02T09:35:44.403Z</time></trkpt><trkpt lat="52.6833717" lon="-0.5484283"><ele>73.66666666666667</ele><time>2026-05-02T09:35:45.402Z</time></trkpt><trkpt lat="52.6835133" lon="-0.5486767"><ele>74.0</ele><time>2026-05-02T09:35:46.402Z</time></trkpt><trkpt lat="52.683655" lon="-0.5489233"><ele>74.0</ele><time>2026-05-02T09:35:47.402Z</time></trkpt><trkpt lat="52.6838017" lon="-0.54917"><ele>74.0</ele><time>2026-05-02T09:35:48.402Z</time></trkpt><trkpt lat="52.6839583" lon="-0.5494267"><ele>74.0</ele><time>2026-05-02T09:35:49.403Z</time></trkpt><trkpt lat="52.6841217" lon="-0.5496917"><ele>74.5</ele><time>2026-05-02T09:35:50.403Z</time></trkpt><trkpt lat="52.6842883" lon="-0.5499633"><ele>75.0</ele><time>2026-05-02T09:35:51.403Z</time></trkpt><trkpt lat="52.6844567" lon="-0.5502417"><ele>74.0</ele><time>2026-05-02T09:35:52.403Z</time></trkpt><trkpt lat="52.6846217" lon="-0.5505267"><ele>73.0</ele><time>2026-05-02T09:35:53.404Z</time></trkpt><trkpt lat="52.684785" lon="-0.550815"><ele>73.0</ele><time>2026-05-02T09:35:54.403Z</time></trkpt><trkpt lat="52.68495" lon="-0.5511017"><ele>73.0</ele><time>2026-05-02T09:35:55.402Z</time></trkpt><trkpt lat="52.685115" lon="-0.5513883"><ele>72.0</ele><time>2026-05-02T09:35:56.408Z</time></trkpt><trkpt lat="52.6852767" lon="-0.55167"><ele>71.0</ele><time>2026-05-02T09:35:57.407Z</time></trkpt><trkpt lat="52.685435" lon="-0.5519483"><ele>72.0</ele><time>2026-05-02T09:35:58.403Z</time></trkpt><trkpt lat="52.685595" lon="-0.5522233"><ele>73.0</ele><time>2026-05-02T09:35:59.404Z</time></trkpt><trkpt lat="52.6857517" lon="-0.5524983"><ele>73.0</ele><time>2026-05-02T09:36:00.404Z</time></trkpt><trkpt lat="52.68591" lon="-0.5527767"><ele>73.0</ele><time>2026-05-02T09:36:01.404Z</time></trkpt><trkpt lat="52.686075" lon="-0.5530567"><ele>73.5</ele><time>2026-05-02T09:36:02.405Z</time></trkpt><trkpt lat="52.686245" lon="-0.5533433"><ele>74.0</ele><time>2026-05-02T09:36:03.406Z</time></trkpt><trkpt lat="52.6864167" lon="-0.5536317"><ele>74.5</ele><time>2026-05-02T09:36:04.406Z</time></trkpt><trkpt lat="52.6865867" lon="-0.5539167"><ele>75.0</ele><time>2026-05-02T09:36:05.402Z</time></trkpt><trkpt lat="52.6867583" lon="-0.554205"><ele>75.0</ele><time>2026-05-02T09:36:06.405Z</time></trkpt><trkpt lat="52.6869333" lon="-0.5544983"><ele>75.0</ele><time>2026-05-02T09:36:07.403Z</time></trkpt><trkpt lat="52.6871083" lon="-0.5547933"><ele>75.0</ele><time>2026-05-02T09:36:08.406Z</time></trkpt><trkpt lat="52.6872783" lon="-0.5550867"><ele>75.0</ele><time>2026-05-02T09:36:09.406Z</time></trkpt><trkpt lat="52.687445" lon="-0.5553767"><ele>75.0</ele><time>2026-05-02T09:36:10.407Z</time></trkpt><trkpt lat="52.6876067" lon="-0.5556617"><ele>75.0</ele><time>2026-05-02T09:36:11.405Z</time></trkpt><trkpt lat="52.6877617" lon="-0.5559367"><ele>76.0</ele><time>2026-05-02T09:36:12.407Z</time></trkpt><trkpt lat="52.687915" lon="-0.5562067"><ele>77.0</ele><time>2026-05-02T09:36:13.402Z</time></trkpt><trkpt lat="52.68807" lon="-0.55647"><ele>78.0</ele><time>2026-05-02T09:36:14.406Z</time></trkpt><trkpt lat="52.68823" lon="-0.5567417"><ele>78.0</ele><time>2026-05-02T09:36:15.406Z</time></trkpt><trkpt lat="52.6883967" lon="-0.55703"><ele>78.0</ele><time>2026-05-02T09:36:16.407Z</time></trkpt><trkpt lat="52.6885667" lon="-0.5573283"><ele>79.0</ele><time>2026-05-02T09:36:17.407Z</time></trkpt><trkpt lat="52.6887433" lon="-0.55763"><ele>80.0</ele><time>2026-05-02T09:36:18.407Z</time></trkpt><trkpt lat="52.6889233" lon="-0.557935"><ele>80.5</ele><time>2026-05-02T09:36:19.406Z</time></trkpt><trkpt lat="52.6891067" lon="-0.5582483"><ele>81.0</ele><time>2026-05-02T09:36:20.402Z</time></trkpt><trkpt lat="52.6892883" lon="-0.5585617"><ele>83.0</ele><time>2026-05-02T09:36:21.407Z</time></trkpt><trkpt lat="52.6894717" lon="-0.5588717"><ele>85.0</ele><time>2026-05-02T09:36:22.406Z</time></trkpt><trkpt lat="52.6896517" lon="-0.5591867"><ele>85.0</ele><time>2026-05-02T09:36:23.402Z</time></trkpt><trkpt lat="52.6898333" lon="-0.55951"><ele>85.0</ele><time>2026-05-02T09:36:24.402Z</time></trkpt><trkpt lat="52.6900133" lon="-0.5598317"><ele>85.0</ele><time>2026-05-02T09:36:25.407Z</time></trkpt><trkpt lat="52.690195" lon="-0.5601483"><ele>85.0</ele><time>2026-05-02T09:36:26.403Z</time></trkpt><trkpt lat="52.6903717" lon="-0.5604533"><ele>85.5</ele><time>2026-05-02T09:36:27.403Z</time></trkpt><trkpt lat="52.6905433" lon="-0.5607533"><ele>86.0</ele><time>2026-05-02T09:36:28.402Z</time></trkpt><trkpt lat="52.6907217" lon="-0.5610533"><ele>87.5</ele><time>2026-05-02T09:36:29.402Z</time></trkpt><trkpt lat="52.6908917" lon="-0.5613533"><ele>89.0</ele><time>2026-05-02T09:36:30.403Z</time></trkpt><trkpt lat="52.691075" lon="-0.5616667"><ele>89.5</ele><time>2026-05-02T09:36:31.403Z</time></trkpt><trkpt lat="52.6912633" lon="-0.5619867"><ele>90.0</ele><time>2026-05-02T09:36:32.402Z</time></trkpt><trkpt lat="52.6914517" lon="-0.562305"><ele>90.0</ele><time>2026-05-02T09:36:33.403Z</time></trkpt><trkpt lat="52.691635" lon="-0.562615"><ele>90.0</ele><time>2026-05-02T09:36:34.403Z</time></trkpt><trkpt lat="52.6918217" lon="-0.5629317"><ele>92.0</ele><time>2026-05-02T09:36:35.405Z</time></trkpt><trkpt lat="52.69201" lon="-0.563255"><ele>94.0</ele><time>2026-05-02T09:36:36.402Z</time></trkpt><trkpt lat="52.692195" lon="-0.5635767"><ele>95.0</ele><time>2026-05-02T09:36:37.403Z</time></trkpt><trkpt lat="52.692385" lon="-0.5639017"><ele>96.0</ele><time>2026-05-02T09:36:38.403Z</time></trkpt><trkpt lat="52.692575" lon="-0.56423"><ele>95.0</ele><time>2026-05-02T09:36:39.403Z</time></trkpt><trkpt lat="52.6927683" lon="-0.5645633"><ele>94.0</ele><time>2026-05-02T09:36:40.403Z</time></trkpt><trkpt lat="52.6929617" lon="-0.564895"><ele>94.0</ele><time>2026-05-02T09:36:41.404Z</time></trkpt><trkpt lat="52.6931517" lon="-0.5652217"><ele>94.0</ele><time>2026-05-02T09:36:42.402Z</time></trkpt><trkpt lat="52.69334" lon="-0.565545"><ele>92.0</ele><time>2026-05-02T09:36:43.403Z</time></trkpt><trkpt lat="52.6935267" lon="-0.5658683"><ele>90.0</ele><time>2026-05-02T09:36:44.403Z</time></trkpt><trkpt lat="52.6937133" lon="-0.5661883"><ele>90.5</ele><time>2026-05-02T09:36:45.403Z</time></trkpt><trkpt lat="52.6939017" lon="-0.56651"><ele>91.0</ele><time>2026-05-02T09:36:46.402Z</time></trkpt><trkpt lat="52.694085" lon="-0.5668283"><ele>91.0</ele><time>2026-05-02T09:36:47.403Z</time></trkpt><trkpt lat="52.69427" lon="-0.567145"><ele>91.0</ele><time>2026-05-02T09:36:48.402Z</time></trkpt><trkpt lat="52.69446" lon="-0.5674633"><ele>91.0</ele><time>2026-05-02T09:36:49.402Z</time></trkpt><trkpt lat="52.6946483" lon="-0.5677783"><ele>91.0</ele><time>2026-05-02T09:36:50.403Z</time></trkpt><trkpt lat="52.6948383" lon="-0.5680933"><ele>91.0</ele><time>2026-05-02T09:36:51.403Z</time></trkpt><trkpt lat="52.6950233" lon="-0.5684017"><ele>91.0</ele><time>2026-05-02T09:36:52.403Z</time></trkpt><trkpt lat="52.6952033" lon="-0.568705"><ele>92.0</ele><time>2026-05-02T09:36:53.403Z</time></trkpt><trkpt lat="52.6953817" lon="-0.5690167"><ele>93.0</ele><time>2026-05-02T09:36:54.403Z</time></trkpt><trkpt lat="52.6955667" lon="-0.5693267"><ele>92.0</ele><time>2026-05-02T09:36:55.402Z</time></trkpt><trkpt lat="52.6957533" lon="-0.5696417"><ele>91.0</ele><time>2026-05-02T09:36:56.403Z</time></trkpt><trkpt lat="52.6959417" lon="-0.56996"><ele>92.0</ele><time>2026-05-02T09:36:57.403Z</time></trkpt><trkpt lat="52.6961333" lon="-0.5702783"><ele>93.0</ele><time>2026-05-02T09:36:58.402Z</time></trkpt><trkpt lat="52.696325" lon="-0.5705933"><ele>93.0</ele><time>2026-05-02T09:36:59.402Z</time></trkpt><trkpt lat="52.69652" lon="-0.5709117"><ele>93.0</ele><time>2026-05-02T09:37:00.405Z</time></trkpt><trkpt lat="52.6967133" lon="-0.5712317"><ele>93.5</ele><time>2026-05-02T09:37:01.403Z</time></trkpt><trkpt lat="52.69691" lon="-0.57156"><ele>94.0</ele><time>2026-05-02T09:37:02.402Z</time></trkpt><trkpt lat="52.697105" lon="-0.5718917"><ele>95.5</ele><time>2026-05-02T09:37:03.403Z</time></trkpt><trkpt lat="52.6973" lon="-0.5722317"><ele>97.0</ele><time>2026-05-02T09:37:04.402Z</time></trkpt><trkpt lat="52.6974983" lon="-0.57257"><ele>97.0</ele><time>2026-05-02T09:37:05.408Z</time></trkpt><trkpt lat="52.700975" lon="-0.578505"><ele>98.0</ele><time>2026-05-02T09:37:21.814Z</time></trkpt><trkpt lat="52.7013117" lon="-0.57902"><ele>98.0</ele><time>2026-05-02T09:37:23.405Z</time></trkpt><trkpt lat="52.7015183" lon="-0.5793517"><ele>98.0</ele><time>2026-05-02T09:37:24.41Z</time></trkpt><trkpt lat="52.7017217" lon="-0.579685"><ele>97.5</ele><time>2026-05-02T09:37:25.402Z</time></trkpt><trkpt lat="52.7019117" lon="-0.5800317"><ele>97.0</ele><time>2026-05-02T09:37:26.402Z</time></trkpt><trkpt lat="52.7021033" lon="-0.58038"><ele>98.5</ele><time>2026-05-02T09:37:27.403Z</time></trkpt><trkpt lat="52.7022933" lon="-0.5807233"><ele>100.0</ele><time>2026-05-02T09:37:28.402Z</time></trkpt><trkpt lat="52.7024833" lon="-0.5810533"><ele>100.0</ele><time>2026-05-02T09:37:29.403Z</time></trkpt><trkpt lat="52.70267" lon="-0.5813717"><ele>100.0</ele><time>2026-05-02T09:37:30.402Z</time></trkpt><trkpt lat="52.7028533" lon="-0.5816867"><ele>100.0</ele><time>2026-05-02T09:37:31.402Z</time></trkpt><trkpt lat="52.703035" lon="-0.582"><ele>100.0</ele><time>2026-05-02T09:37:32.404Z</time></trkpt><trkpt lat="52.703215" lon="-0.5823133"><ele>100.5</ele><time>2026-05-02T09:37:33.402Z</time></trkpt><trkpt lat="52.7033933" lon="-0.5826233"><ele>101.0</ele><time>2026-05-02T09:37:34.403Z</time></trkpt><trkpt lat="52.70357" lon="-0.5829267"><ele>101.0</ele><time>2026-05-02T09:37:35.402Z</time></trkpt><trkpt lat="52.7037433" lon="-0.58323"><ele>101.0</ele><time>2026-05-02T09:37:36.402Z</time></trkpt><trkpt lat="52.7039167" lon="-0.5835333"><ele>102.0</ele><time>2026-05-02T09:37:37.402Z</time></trkpt><trkpt lat="52.70409" lon="-0.5838317"><ele>103.0</ele><time>2026-05-02T09:37:38.403Z</time></trkpt><trkpt lat="52.704265" lon="-0.58413"><ele>103.0</ele><time>2026-05-02T09:37:39.403Z</time></trkpt><trkpt lat="52.704445" lon="-0.584425"><ele>103.0</ele><time>2026-05-02T09:37:40.406Z</time></trkpt><trkpt lat="52.7046233" lon="-0.584725"><ele>103.0</ele><time>2026-05-02T09:37:41.403Z</time></trkpt><trkpt lat="52.7048033" lon="-0.5850217"><ele>103.0</ele><time>2026-05-02T09:37:42.402Z</time></trkpt><trkpt lat="52.7049833" lon="-0.585325"><ele>103.0</ele><time>2026-05-02T09:37:43.402Z</time></trkpt><trkpt lat="52.7051617" lon="-0.5856367"><ele>103.0</ele><time>2026-05-02T09:37:44.402Z</time></trkpt><trkpt lat="52.70534" lon="-0.5859483"><ele>103.5</ele><time>2026-05-02T09:37:45.403Z</time></trkpt><trkpt lat="52.7055217" lon="-0.58626"><ele>104.0</ele><time>2026-05-02T09:37:46.403Z</time></trkpt><trkpt lat="52.705705" lon="-0.5865717"><ele>104.0</ele><time>2026-05-02T09:37:47.403Z</time></trkpt><trkpt lat="52.7058917" lon="-0.5868783"><ele>104.0</ele><time>2026-05-02T09:37:48.402Z</time></trkpt><trkpt lat="52.7060783" lon="-0.58719"><ele>106.0</ele><time>2026-05-02T09:37:49.402Z</time></trkpt><trkpt lat="52.7062633" lon="-0.587505"><ele>108.0</ele><time>2026-05-02T09:37:50.402Z</time></trkpt><trkpt lat="52.7064483" lon="-0.5878183"><ele>108.5</ele><time>2026-05-02T09:37:51.403Z</time></trkpt><trkpt lat="52.706635" lon="-0.5881283"><ele>109.0</ele><time>2026-05-02T09:37:52.402Z</time></trkpt><trkpt lat="52.7068233" lon="-0.5884333"><ele>107.5</ele><time>2026-05-02T09:37:53.402Z</time></trkpt><trkpt lat="52.70702" lon="-0.58873"><ele>106.0</ele><time>2026-05-02T09:37:54.404Z</time></trkpt><trkpt lat="52.7072217" lon="-0.5890183"><ele>106.0</ele><time>2026-05-02T09:37:55.403Z</time></trkpt><trkpt lat="52.70743" lon="-0.5892967"><ele>106.0</ele><time>2026-05-02T09:37:56.404Z</time></trkpt><trkpt lat="52.7076417" lon="-0.58956"><ele>107.0</ele><time>2026-05-02T09:37:57.403Z</time></trkpt><trkpt lat="52.7078583" lon="-0.5898117"><ele>108.0</ele><time>2026-05-02T09:37:58.402Z</time></trkpt><trkpt lat="52.7080783" lon="-0.5900467"><ele>108.0</ele><time>2026-05-02T09:37:59.403Z</time></trkpt><trkpt lat="52.7083033" lon="-0.5902717"><ele>108.0</ele><time>2026-05-02T09:38:00.402Z</time></trkpt><trkpt lat="52.7085317" lon="-0.5904867"><ele>106.5</ele><time>2026-05-02T09:38:01.402Z</time></trkpt><trkpt lat="52.7087583" lon="-0.59069"><ele>105.0</ele><time>2026-05-02T09:38:02.404Z</time></trkpt><trkpt lat="52.7089867" lon="-0.5908783"><ele>105.0</ele><time>2026-05-02T09:38:03.402Z</time></trkpt><trkpt lat="52.7092283" lon="-0.591055"><ele>105.0</ele><time>2026-05-02T09:38:04.402Z</time></trkpt><trkpt lat="52.7094733" lon="-0.59122"><ele>104.0</ele><time>2026-05-02T09:38:05.402Z</time></trkpt><trkpt lat="52.7097183" lon="-0.5913717"><ele>103.0</ele><time>2026-05-02T09:38:06.403Z</time></trkpt><trkpt lat="52.7099683" lon="-0.59151"><ele>103.0</ele><time>2026-05-02T09:38:07.402Z</time></trkpt><trkpt lat="52.7102183" lon="-0.59164"><ele>103.0</ele><time>2026-05-02T09:38:08.402Z</time></trkpt><trkpt lat="52.710475" lon="-0.5917583"><ele>103.5</ele><time>2026-05-02T09:38:09.403Z</time></trkpt><trkpt lat="52.7107333" lon="-0.591865"><ele>104.0</ele><time>2026-05-02T09:38:10.404Z</time></trkpt><trkpt lat="52.7109933" lon="-0.5919633"><ele>103.5</ele><time>2026-05-02T09:38:11.403Z</time></trkpt><trkpt lat="52.7112533" lon="-0.5920567"><ele>103.0</ele><time>2026-05-02T09:38:12.402Z</time></trkpt><trkpt lat="52.711515" lon="-0.5921517"><ele>103.0</ele><time>2026-05-02T09:38:13.404Z</time></trkpt><trkpt lat="52.7117767" lon="-0.59225"><ele>103.0</ele><time>2026-05-02T09:38:14.402Z</time></trkpt><trkpt lat="52.7120367" lon="-0.5923533"><ele>103.0</ele><time>2026-05-02T09:38:15.402Z</time></trkpt><trkpt lat="52.7122983" lon="-0.5924617"><ele>103.0</ele><time>2026-05-02T09:38:16.403Z</time></trkpt><trkpt lat="52.7125567" lon="-0.59257"><ele>102.0</ele><time>2026-05-02T09:38:17.403Z</time></trkpt><trkpt lat="52.7128167" lon="-0.5926817"><ele>101.0</ele><time>2026-05-02T09:38:18.402Z</time></trkpt><trkpt lat="52.7130733" lon="-0.5927867"><ele>100.5</ele><time>2026-05-02T09:38:19.403Z</time></trkpt><trkpt lat="52.7133317" lon="-0.59289"><ele>100.0</ele><time>2026-05-02T09:38:20.402Z</time></trkpt><trkpt lat="52.7135867" lon="-0.5929917"><ele>100.0</ele><time>2026-05-02T09:38:21.402Z</time></trkpt><trkpt lat="52.713845" lon="-0.5930917"><ele>100.0</ele><time>2026-05-02T09:38:22.403Z</time></trkpt><trkpt lat="52.7141017" lon="-0.5931867"><ele>100.0</ele><time>2026-05-02T09:38:23.403Z</time></trkpt><trkpt lat="52.71436" lon="-0.5932817"><ele>100.0</ele><time>2026-05-02T09:38:24.403Z</time></trkpt><trkpt lat="52.7146183" lon="-0.5933767"><ele>101.0</ele><time>2026-05-02T09:38:25.402Z</time></trkpt><trkpt lat="52.7148767" lon="-0.5934717"><ele>102.0</ele><time>2026-05-02T09:38:26.402Z</time></trkpt><trkpt lat="52.715135" lon="-0.5935683"><ele>103.0</ele><time>2026-05-02T09:38:27.403Z</time></trkpt><trkpt lat="52.715395" lon="-0.5936633"><ele>104.0</ele><time>2026-05-02T09:38:28.404Z</time></trkpt><trkpt lat="52.7156533" lon="-0.59376"><ele>105.0</ele><time>2026-05-02T09:38:29.403Z</time></trkpt><trkpt lat="52.7159167" lon="-0.5938517"><ele>106.0</ele><time>2026-05-02T09:38:30.403Z</time></trkpt><trkpt lat="52.716175" lon="-0.593945"><ele>106.0</ele><time>2026-05-02T09:38:31.403Z</time></trkpt><trkpt lat="52.7164333" lon="-0.594035"><ele>106.0</ele><time>2026-05-02T09:38:32.402Z</time></trkpt><trkpt lat="52.71669" lon="-0.5941283"><ele>107.5</ele><time>2026-05-02T09:38:33.406Z</time></trkpt><trkpt lat="52.71695" lon="-0.594225"><ele>109.0</ele><time>2026-05-02T09:38:34.404Z</time></trkpt><trkpt lat="52.717205" lon="-0.5943217"><ele>109.0</ele><time>2026-05-02T09:38:35.403Z</time></trkpt><trkpt lat="52.7174617" lon="-0.59441"><ele>109.0</ele><time>2026-05-02T09:38:36.403Z</time></trkpt><trkpt lat="52.7177183" lon="-0.59449"><ele>109.5</ele><time>2026-05-02T09:38:37.402Z</time></trkpt><trkpt lat="52.7179767" lon="-0.5945767"><ele>110.0</ele><time>2026-05-02T09:38:38.405Z</time></trkpt><trkpt lat="52.7182367" lon="-0.5946583"><ele>110.0</ele><time>2026-05-02T09:38:39.404Z</time></trkpt><trkpt lat="52.7184967" lon="-0.594745"><ele>110.0</ele><time>2026-05-02T09:38:40.403Z</time></trkpt><trkpt lat="52.7187583" lon="-0.59483"><ele>111.0</ele><time>2026-05-02T09:38:41.402Z</time></trkpt><trkpt lat="52.7190217" lon="-0.594915"><ele>112.0</ele><time>2026-05-02T09:38:42.403Z</time></trkpt><trkpt lat="52.7192833" lon="-0.5949983"><ele>113.5</ele><time>2026-05-02T09:38:43.402Z</time></trkpt><trkpt lat="52.7195417" lon="-0.5950833"><ele>115.0</ele><time>2026-05-02T09:38:44.403Z</time></trkpt><trkpt lat="52.7198017" lon="-0.5951683"><ele>115.0</ele><time>2026-05-02T09:38:45.402Z</time></trkpt><trkpt lat="52.7200633" lon="-0.5952483"><ele>115.0</ele><time>2026-05-02T09:38:46.402Z</time></trkpt><trkpt lat="52.7203217" lon="-0.5953283"><ele>115.0</ele><time>2026-05-02T09:38:47.402Z</time></trkpt><trkpt lat="52.7205767" lon="-0.59541"><ele>115.0</ele><time>2026-05-02T09:38:48.403Z</time></trkpt><trkpt lat="52.720835" lon="-0.5954917"><ele>116.0</ele><time>2026-05-02T09:38:49.402Z</time></trkpt><trkpt lat="52.7210933" lon="-0.595575"><ele>117.0</ele><time>2026-05-02T09:38:50.406Z</time></trkpt><trkpt lat="52.7213517" lon="-0.5956617"><ele>117.0</ele><time>2026-05-02T09:38:51.402Z</time></trkpt><trkpt lat="52.7216083" lon="-0.5957517"><ele>117.0</ele><time>2026-05-02T09:38:52.403Z</time></trkpt><trkpt lat="52.7218683" lon="-0.595845"><ele>117.0</ele><time>2026-05-02T09:38:53.406Z</time></trkpt><trkpt lat="52.7221267" lon="-0.5959383"><ele>117.0</ele><time>2026-05-02T09:38:54.402Z</time></trkpt><trkpt lat="52.7223867" lon="-0.596035"><ele>117.0</ele><time>2026-05-02T09:38:55.403Z</time></trkpt><trkpt lat="52.722645" lon="-0.5961317"><ele>117.0</ele><time>2026-05-02T09:38:56.402Z</time></trkpt><trkpt lat="52.7229033" lon="-0.5962283"><ele>116.5</ele><time>2026-05-02T09:38:57.402Z</time></trkpt><trkpt lat="52.7231617" lon="-0.5963217"><ele>116.0</ele><time>2026-05-02T09:38:58.404Z</time></trkpt><trkpt lat="52.723425" lon="-0.5964167"><ele>116.0</ele><time>2026-05-02T09:38:59.402Z</time></trkpt><trkpt lat="52.7236867" lon="-0.5965083"><ele>116.0</ele><time>2026-05-02T09:39:00.402Z</time></trkpt><trkpt lat="52.723945" lon="-0.5965933"><ele>116.0</ele><time>2026-05-02T09:39:01.402Z</time></trkpt><trkpt lat="52.7242033" lon="-0.5966783"><ele>116.0</ele><time>2026-05-02T09:39:02.402Z</time></trkpt><trkpt lat="52.72446" lon="-0.5967633"><ele>114.5</ele><time>2026-05-02T09:39:03.402Z</time></trkpt><trkpt lat="52.72472" lon="-0.59685"><ele>113.0</ele><time>2026-05-02T09:39:04.402Z</time></trkpt><trkpt lat="52.72498" lon="-0.5969383"><ele>114.5</ele><time>2026-05-02T09:39:05.403Z</time></trkpt><trkpt lat="52.7252417" lon="-0.5970233"><ele>116.0</ele><time>2026-05-02T09:39:06.404Z</time></trkpt><trkpt lat="52.7255033" lon="-0.5971117"><ele>116.0</ele><time>2026-05-02T09:39:07.403Z</time></trkpt><trkpt lat="52.7257633" lon="-0.5972"><ele>116.0</ele><time>2026-05-02T09:39:08.402Z</time></trkpt><trkpt lat="52.7260233" lon="-0.5972883"><ele>114.5</ele><time>2026-05-02T09:39:09.402Z</time></trkpt><trkpt lat="52.72628" lon="-0.59738"><ele>113.0</ele><time>2026-05-02T09:39:10.402Z</time></trkpt><trkpt lat="52.7265333" lon="-0.597475"><ele>113.0</ele><time>2026-05-02T09:39:11.403Z</time></trkpt><trkpt lat="52.7267867" lon="-0.597575"><ele>113.0</ele><time>2026-05-02T09:39:12.403Z</time></trkpt><trkpt lat="52.7270417" lon="-0.5976733"><ele>114.0</ele><time>2026-05-02T09:39:13.403Z</time></trkpt><trkpt lat="52.7273017" lon="-0.5977667"><ele>115.0</ele><time>2026-05-02T09:39:14.403Z</time></trkpt><trkpt lat="52.72756" lon="-0.59786"><ele>116.0</ele><time>2026-05-02T09:39:15.403Z</time></trkpt><trkpt lat="52.7278217" lon="-0.5979533"><ele>117.0</ele><time>2026-05-02T09:39:16.402Z</time></trkpt><trkpt lat="52.7280783" lon="-0.5980517"><ele>117.0</ele><time>2026-05-02T09:39:17.402Z</time></trkpt><trkpt lat="52.72834" lon="-0.5981467"><ele>117.0</ele><time>2026-05-02T09:39:18.403Z</time></trkpt><trkpt lat="52.7285967" lon="-0.59824"><ele>116.5</ele><time>2026-05-02T09:39:19.402Z</time></trkpt><trkpt lat="52.728855" lon="-0.59834"><ele>116.0</ele><time>2026-05-02T09:39:20.403Z</time></trkpt><trkpt lat="52.7291133" lon="-0.598445"><ele>116.0</ele><time>2026-05-02T09:39:21.402Z</time></trkpt><trkpt lat="52.7293717" lon="-0.5985517"><ele>116.0</ele><time>2026-05-02T09:39:22.402Z</time></trkpt><trkpt lat="52.7296333" lon="-0.59865"><ele>116.0</ele><time>2026-05-02T09:39:23.402Z</time></trkpt><trkpt lat="52.729895" lon="-0.59875"><ele>116.0</ele><time>2026-05-02T09:39:24.403Z</time></trkpt><trkpt lat="52.7301517" lon="-0.5988517"><ele>116.5</ele><time>2026-05-02T09:39:25.403Z</time></trkpt><trkpt lat="52.73041" lon="-0.598955"><ele>117.0</ele><time>2026-05-02T09:39:26.406Z</time></trkpt><trkpt lat="52.7306667" lon="-0.59906"><ele>117.0</ele><time>2026-05-02T09:39:27.402Z</time></trkpt><trkpt lat="52.730925" lon="-0.599155"><ele>117.0</ele><time>2026-05-02T09:39:28.402Z</time></trkpt><trkpt lat="52.7311817" lon="-0.599255"><ele>116.5</ele><time>2026-05-02T09:39:29.402Z</time></trkpt><trkpt lat="52.73144" lon="-0.599355"><ele>116.0</ele><time>2026-05-02T09:39:30.404Z</time></trkpt><trkpt lat="52.7316967" lon="-0.5994533"><ele>115.0</ele><time>2026-05-02T09:39:31.403Z</time></trkpt><trkpt lat="52.7319517" lon="-0.59955"><ele>114.0</ele><time>2026-05-02T09:39:32.403Z</time></trkpt><trkpt lat="52.73221" lon="-0.599645"><ele>114.0</ele><time>2026-05-02T09:39:33.403Z</time></trkpt><trkpt lat="52.73247" lon="-0.599735"><ele>114.0</ele><time>2026-05-02T09:39:34.403Z</time></trkpt><trkpt lat="52.7327333" lon="-0.5998233"><ele>113.0</ele><time>2026-05-02T09:39:35.402Z</time></trkpt><trkpt lat="52.7329983" lon="-0.59991"><ele>112.0</ele><time>2026-05-02T09:39:36.402Z</time></trkpt><trkpt lat="52.7332583" lon="-0.599995"><ele>112.0</ele><time>2026-05-02T09:39:37.403Z</time></trkpt><trkpt lat="52.7335183" lon="-0.6000817"><ele>112.0</ele><time>2026-05-02T09:39:38.402Z</time></trkpt><trkpt lat="52.7337783" lon="-0.6001717"><ele>110.0</ele><time>2026-05-02T09:39:39.404Z</time></trkpt><trkpt lat="52.734035" lon="-0.600255"><ele>108.0</ele><time>2026-05-02T09:39:40.403Z</time></trkpt><trkpt lat="52.7342917" lon="-0.6003383"><ele>108.5</ele><time>2026-05-02T09:39:41.402Z</time></trkpt><trkpt lat="52.73455" lon="-0.6004217"><ele>109.0</ele><time>2026-05-02T09:39:42.403Z</time></trkpt><trkpt lat="52.7348083" lon="-0.6005"><ele>109.0</ele><time>2026-05-02T09:39:43.403Z</time></trkpt><trkpt lat="52.735065" lon="-0.6005733"><ele>109.0</ele><time>2026-05-02T09:39:44.408Z</time></trkpt><trkpt lat="52.7353217" lon="-0.6006567"><ele>109.5</ele><time>2026-05-02T09:39:45.406Z</time></trkpt><trkpt lat="52.7355833" lon="-0.6007433"><ele>110.0</ele><time>2026-05-02T09:39:46.402Z</time></trkpt><trkpt lat="52.7358433" lon="-0.6008217"><ele>110.5</ele><time>2026-05-02T09:39:47.403Z</time></trkpt><trkpt lat="52.7361017" lon="-0.6008983"><ele>111.0</ele><time>2026-05-02T09:39:48.406Z</time></trkpt><trkpt lat="52.7363633" lon="-0.6009833"><ele>111.0</ele><time>2026-05-02T09:39:49.402Z</time></trkpt><trkpt lat="52.7366217" lon="-0.6010717"><ele>111.0</ele><time>2026-05-02T09:39:50.402Z</time></trkpt><trkpt lat="52.7368817" lon="-0.6011583"><ele>111.5</ele><time>2026-05-02T09:39:51.402Z</time></trkpt><trkpt lat="52.7371417" lon="-0.6012417"><ele>112.0</ele><time>2026-05-02T09:39:52.402Z</time></trkpt><trkpt lat="52.7374017" lon="-0.6013267"><ele>112.0</ele><time>2026-05-02T09:39:53.402Z</time></trkpt><trkpt lat="52.7376633" lon="-0.6014067"><ele>112.0</ele><time>2026-05-02T09:39:54.402Z</time></trkpt><trkpt lat="52.7379217" lon="-0.6014883"><ele>111.0</ele><time>2026-05-02T09:39:55.403Z</time></trkpt><trkpt lat="52.7381817" lon="-0.6015717"><ele>110.0</ele><time>2026-05-02T09:39:56.402Z</time></trkpt><trkpt lat="52.7384417" lon="-0.6016567"><ele>111.5</ele><time>2026-05-02T09:39:57.402Z</time></trkpt><trkpt lat="52.7387017" lon="-0.6017417"><ele>113.0</ele><time>2026-05-02T09:39:58.404Z</time></trkpt><trkpt lat="52.7389583" lon="-0.60183"><ele>113.0</ele><time>2026-05-02T09:39:59.403Z</time></trkpt><trkpt lat="52.7392183" lon="-0.6019217"><ele>113.0</ele><time>2026-05-02T09:40:00.402Z</time></trkpt><trkpt lat="52.7394767" lon="-0.60201"><ele>114.0</ele><time>2026-05-02T09:40:01.402Z</time></trkpt><trkpt lat="52.7397333" lon="-0.602095"><ele>115.0</ele><time>2026-05-02T09:40:02.402Z</time></trkpt><trkpt lat="52.7399917" lon="-0.6021783"><ele>116.0</ele><time>2026-05-02T09:40:03.403Z</time></trkpt><trkpt lat="52.7402517" lon="-0.6022617"><ele>117.0</ele><time>2026-05-02T09:40:04.402Z</time></trkpt><trkpt lat="52.74051" lon="-0.6023433"><ele>117.0</ele><time>2026-05-02T09:40:05.403Z</time></trkpt><trkpt lat="52.7407683" lon="-0.6024283"><ele>117.0</ele><time>2026-05-02T09:40:06.404Z</time></trkpt><trkpt lat="52.7410283" lon="-0.6025133"><ele>118.0</ele><time>2026-05-02T09:40:07.407Z</time></trkpt><trkpt lat="52.7412917" lon="-0.6026"><ele>119.0</ele><time>2026-05-02T09:40:08.402Z</time></trkpt><trkpt lat="52.7415517" lon="-0.6026867"><ele>119.0</ele><time>2026-05-02T09:40:09.402Z</time></trkpt><trkpt lat="52.7418117" lon="-0.6027767"><ele>119.0</ele><time>2026-05-02T09:40:10.402Z</time></trkpt><trkpt lat="52.7420683" lon="-0.6028617"><ele>120.0</ele><time>2026-05-02T09:40:11.404Z</time></trkpt><trkpt lat="52.7423283" lon="-0.6029483"><ele>121.0</ele><time>2026-05-02T09:40:12.406Z</time></trkpt><trkpt lat="52.7425867" lon="-0.603035"><ele>119.5</ele><time>2026-05-02T09:40:13.402Z</time></trkpt><trkpt lat="52.7428467" lon="-0.60312"><ele>118.0</ele><time>2026-05-02T09:40:14.402Z</time></trkpt><trkpt lat="52.7431083" lon="-0.6032067"><ele>118.0</ele><time>2026-05-02T09:40:15.406Z</time></trkpt><trkpt lat="52.7433717" lon="-0.6032967"><ele>118.0</ele><time>2026-05-02T09:40:16.406Z</time></trkpt><trkpt lat="52.7436333" lon="-0.60339"><ele>117.0</ele><time>2026-05-02T09:40:17.403Z</time></trkpt><trkpt lat="52.7438933" lon="-0.6034817"><ele>116.0</ele><time>2026-05-02T09:40:18.402Z</time></trkpt><trkpt lat="52.7441533" lon="-0.6035717"><ele>115.0</ele><time>2026-05-02T09:40:19.402Z</time></trkpt><trkpt lat="52.7444133" lon="-0.6036617"><ele>114.0</ele><time>2026-05-02T09:40:20.402Z</time></trkpt><trkpt lat="52.7446733" lon="-0.6037483"><ele>114.0</ele><time>2026-05-02T09:40:21.403Z</time></trkpt><trkpt lat="52.7449317" lon="-0.6038317"><ele>114.0</ele><time>2026-05-02T09:40:22.402Z</time></trkpt><trkpt lat="52.74519" lon="-0.6039133"><ele>114.0</ele><time>2026-05-02T09:40:23.404Z</time></trkpt><trkpt lat="52.74545" lon="-0.603995"><ele>114.0</ele><time>2026-05-02T09:40:24.402Z</time></trkpt><trkpt lat="52.745705" lon="-0.6040817"><ele>114.0</ele><time>2026-05-02T09:40:25.403Z</time></trkpt><trkpt lat="52.745965" lon="-0.6041683"><ele>114.0</ele><time>2026-05-02T09:40:26.402Z</time></trkpt><trkpt lat="52.7462233" lon="-0.604255"><ele>115.5</ele><time>2026-05-02T09:40:27.402Z</time></trkpt><trkpt lat="52.7464817" lon="-0.6043433"><ele>117.0</ele><time>2026-05-02T09:40:28.403Z</time></trkpt><trkpt lat="52.7467383" lon="-0.60443"><ele>119.0</ele><time>2026-05-02T09:40:29.402Z</time></trkpt><trkpt lat="52.7469933" lon="-0.6045183"><ele>121.0</ele><time>2026-05-02T09:40:30.405Z</time></trkpt><trkpt lat="52.7472483" lon="-0.6046033"><ele>121.0</ele><time>2026-05-02T09:40:31.407Z</time></trkpt><trkpt lat="52.7475067" lon="-0.6046867"><ele>121.0</ele><time>2026-05-02T09:40:32.402Z</time></trkpt><trkpt lat="52.7477667" lon="-0.6047733"><ele>122.0</ele><time>2026-05-02T09:40:33.402Z</time></trkpt><trkpt lat="52.7480267" lon="-0.6048633"><ele>123.0</ele><time>2026-05-02T09:40:34.407Z</time></trkpt><trkpt lat="52.7482867" lon="-0.6049533"><ele>123.0</ele><time>2026-05-02T09:40:35.403Z</time></trkpt><trkpt lat="52.7485417" lon="-0.605045"><ele>123.0</ele><time>2026-05-02T09:40:36.402Z</time></trkpt><trkpt lat="52.7488" lon="-0.6051367"><ele>123.5</ele><time>2026-05-02T09:40:37.402Z</time></trkpt><trkpt lat="52.74906" lon="-0.6052267"><ele>124.0</ele><time>2026-05-02T09:40:38.402Z</time></trkpt><trkpt lat="52.7493167" lon="-0.6053233"><ele>124.0</ele><time>2026-05-02T09:40:39.402Z</time></trkpt><trkpt lat="52.7495733" lon="-0.6054217"><ele>124.0</ele><time>2026-05-02T09:40:40.406Z</time></trkpt><trkpt lat="52.7498317" lon="-0.605525"><ele>124.0</ele><time>2026-05-02T09:40:41.402Z</time></trkpt><trkpt lat="52.75009" lon="-0.6056317"><ele>124.0</ele><time>2026-05-02T09:40:42.405Z</time></trkpt><trkpt lat="52.7503483" lon="-0.60574"><ele>125.0</ele><time>2026-05-02T09:40:43.402Z</time></trkpt><trkpt lat="52.7506067" lon="-0.60585"><ele>126.0</ele><time>2026-05-02T09:40:44.402Z</time></trkpt><trkpt lat="52.7508667" lon="-0.6059617"><ele>125.5</ele><time>2026-05-02T09:40:45.402Z</time></trkpt><trkpt lat="52.7511233" lon="-0.6060767"><ele>125.0</ele><time>2026-05-02T09:40:46.404Z</time></trkpt><trkpt lat="52.7513817" lon="-0.6061917"><ele>125.0</ele><time>2026-05-02T09:40:47.402Z</time></trkpt><trkpt lat="52.7516383" lon="-0.6063083"><ele>125.0</ele><time>2026-05-02T09:40:48.403Z</time></trkpt><trkpt lat="52.7518933" lon="-0.6064233"><ele>124.5</ele><time>2026-05-02T09:40:49.402Z</time></trkpt><trkpt lat="52.7521517" lon="-0.6065367"><ele>124.0</ele><time>2026-05-02T09:40:50.402Z</time></trkpt><trkpt lat="52.7524083" lon="-0.60665"><ele>124.0</ele><time>2026-05-02T09:40:51.404Z</time></trkpt><trkpt lat="52.7526617" lon="-0.60676"><ele>124.0</ele><time>2026-05-02T09:40:52.402Z</time></trkpt><trkpt lat="52.7529183" lon="-0.6068717"><ele>124.0</ele><time>2026-05-02T09:40:53.402Z</time></trkpt><trkpt lat="52.753175" lon="-0.6069867"><ele>124.0</ele><time>2026-05-02T09:40:54.405Z</time></trkpt><trkpt lat="52.7534283" lon="-0.6071033"><ele>124.0</ele><time>2026-05-02T09:40:55.403Z</time></trkpt><trkpt lat="52.753685" lon="-0.6072183"><ele>124.0</ele><time>2026-05-02T09:40:56.402Z</time></trkpt><trkpt lat="52.7539417" lon="-0.60733"><ele>124.0</ele><time>2026-05-02T09:40:57.405Z</time></trkpt><trkpt lat="52.754195" lon="-0.60744"><ele>124.0</ele><time>2026-05-02T09:40:58.402Z</time></trkpt><trkpt lat="52.75445" lon="-0.6075533"><ele>124.0</ele><time>2026-05-02T09:40:59.402Z</time></trkpt><trkpt lat="52.7547067" lon="-0.6076667"><ele>124.0</ele><time>2026-05-02T09:41:00.402Z</time></trkpt><trkpt lat="52.754965" lon="-0.6077833"><ele>124.0</ele><time>2026-05-02T09:41:01.403Z</time></trkpt><trkpt lat="52.7552333" lon="-0.607905"><ele>124.0</ele><time>2026-05-02T09:41:02.403Z</time></trkpt><trkpt lat="52.7555083" lon="-0.6080283"><ele>124.0</ele><time>2026-05-02T09:41:03.403Z</time></trkpt><trkpt lat="52.75579" lon="-0.6081533"><ele>124.0</ele><time>2026-05-02T09:41:04.402Z</time></trkpt><trkpt lat="52.756085" lon="-0.6082783"><ele>124.5</ele><time>2026-05-02T09:41:05.403Z</time></trkpt><trkpt lat="52.75638" lon="-0.608405"><ele>125.0</ele><time>2026-05-02T09:41:06.402Z</time></trkpt><trkpt lat="52.7566717" lon="-0.608535"><ele>124.5</ele><time>2026-05-02T09:41:07.402Z</time></trkpt><trkpt lat="52.75696" lon="-0.6086667"><ele>124.0</ele><time>2026-05-02T09:41:08.403Z</time></trkpt><trkpt lat="52.7572367" lon="-0.6087933"><ele>124.0</ele><time>2026-05-02T09:41:09.407Z</time></trkpt><trkpt lat="52.7575067" lon="-0.6089167"><ele>124.0</ele><time>2026-05-02T09:41:10.403Z</time></trkpt><trkpt lat="52.75778" lon="-0.6090367"><ele>123.5</ele><time>2026-05-02T09:41:11.406Z</time></trkpt><trkpt lat="52.7580533" lon="-0.6091567"><ele>123.0</ele><time>2026-05-02T09:41:12.403Z</time></trkpt><trkpt lat="52.7583333" lon="-0.6092783"><ele>122.0</ele><time>2026-05-02T09:41:13.403Z</time></trkpt><trkpt lat="52.7586183" lon="-0.6093983"><ele>121.0</ele><time>2026-05-02T09:41:14.403Z</time></trkpt><trkpt lat="52.7588983" lon="-0.609515"><ele>121.0</ele><time>2026-05-02T09:41:15.403Z</time></trkpt><trkpt lat="52.7591717" lon="-0.609625"><ele>121.0</ele><time>2026-05-02T09:41:16.403Z</time></trkpt><trkpt lat="52.75944" lon="-0.60973"><ele>120.5</ele><time>2026-05-02T09:41:17.402Z</time></trkpt><trkpt lat="52.7597033" lon="-0.609825"><ele>120.0</ele><time>2026-05-02T09:41:18.402Z</time></trkpt><trkpt lat="52.75997" lon="-0.6099117"><ele>119.5</ele><time>2026-05-02T09:41:19.402Z</time></trkpt><trkpt lat="52.7602383" lon="-0.6099933"><ele>119.0</ele><time>2026-05-02T09:41:20.403Z</time></trkpt><trkpt lat="52.7605167" lon="-0.6100767"><ele>119.0</ele><time>2026-05-02T09:41:21.403Z</time></trkpt><trkpt lat="52.7608" lon="-0.61016"><ele>119.0</ele><time>2026-05-02T09:41:22.402Z</time></trkpt><trkpt lat="52.7610883" lon="-0.610245"><ele>120.0</ele><time>2026-05-02T09:41:23.403Z</time></trkpt><trkpt lat="52.7613833" lon="-0.6103283"><ele>121.0</ele><time>2026-05-02T09:41:24.403Z</time></trkpt><trkpt lat="52.7616817" lon="-0.610405"><ele>121.0</ele><time>2026-05-02T09:41:25.402Z</time></trkpt><trkpt lat="52.76198" lon="-0.610485"><ele>121.0</ele><time>2026-05-02T09:41:26.402Z</time></trkpt><trkpt lat="52.762275" lon="-0.6105633"><ele>121.0</ele><time>2026-05-02T09:41:27.402Z</time></trkpt><trkpt lat="52.7625667" lon="-0.610635"><ele>121.0</ele><time>2026-05-02T09:41:28.402Z</time></trkpt><trkpt lat="52.7628583" lon="-0.6107"><ele>121.5</ele><time>2026-05-02T09:41:29.402Z</time></trkpt><trkpt lat="52.76315" lon="-0.6107567"><ele>122.0</ele><time>2026-05-02T09:41:30.403Z</time></trkpt><trkpt lat="52.7634417" lon="-0.61081"><ele>122.0</ele><time>2026-05-02T09:41:31.402Z</time></trkpt><trkpt lat="52.7637317" lon="-0.6108583"><ele>122.0</ele><time>2026-05-02T09:41:32.403Z</time></trkpt><trkpt lat="52.7640183" lon="-0.6109033"><ele>122.0</ele><time>2026-05-02T09:41:33.402Z</time></trkpt><trkpt lat="52.7643017" lon="-0.6109433"><ele>122.0</ele><time>2026-05-02T09:41:34.406Z</time></trkpt><trkpt lat="52.7645817" lon="-0.610985"><ele>122.0</ele><time>2026-05-02T09:41:35.403Z</time></trkpt><trkpt lat="52.764855" lon="-0.6110267"><ele>122.0</ele><time>2026-05-02T09:41:36.404Z</time></trkpt><trkpt lat="52.7651233" lon="-0.6110683"><ele>122.5</ele><time>2026-05-02T09:41:37.402Z</time></trkpt><trkpt lat="52.765389" lon="-0.6111142"><ele>123.0</ele><time>2026-05-02T09:41:38.403Z</time></trkpt><trkpt lat="52.7656555" lon="-0.6111635"><ele>123.0</ele><time>2026-05-02T09:41:39.403Z</time></trkpt><trkpt lat="52.7659309" lon="-0.6112151"><ele>123.0</ele><time>2026-05-02T09:41:40.402Z</time></trkpt><trkpt lat="52.7662167" lon="-0.6112673"><ele>123.0</ele><time>2026-05-02T09:41:41.402Z</time></trkpt><trkpt lat="52.7665131" lon="-0.6113235"><ele>123.0</ele><time>2026-05-02T09:41:42.403Z</time></trkpt><trkpt lat="52.7668138" lon="-0.6113802"><ele>123.0</ele><time>2026-05-02T09:41:43.402Z</time></trkpt><trkpt lat="52.7671067" lon="-0.6114156"><ele>123.0</ele><time>2026-05-02T09:41:44.402Z</time></trkpt><trkpt lat="52.767389" lon="-0.6114297"><ele>123.0</ele><time>2026-05-02T09:41:45.402Z</time></trkpt><trkpt lat="52.7676639" lon="-0.61144"><ele>123.0</ele><time>2026-05-02T09:41:46.403Z</time></trkpt><trkpt lat="52.7679391" lon="-0.611447"><ele>122.5</ele><time>2026-05-02T09:41:47.402Z</time></trkpt><trkpt lat="52.7682138" lon="-0.6114507"><ele>122.0</ele><time>2026-05-02T09:41:48.403Z</time></trkpt><trkpt lat="52.7684886" lon="-0.6114516"><ele>121.5</ele><time>2026-05-02T09:41:49.402Z</time></trkpt><trkpt lat="52.7687638" lon="-0.6114542"><ele>121.0</ele><time>2026-05-02T09:41:50.403Z</time></trkpt><trkpt lat="52.7690372" lon="-0.6114547"><ele>121.0</ele><time>2026-05-02T09:41:51.403Z</time></trkpt><trkpt lat="52.7693132" lon="-0.6114519"><ele>121.0</ele><time>2026-05-02T09:41:52.402Z</time></trkpt><trkpt lat="52.7695942" lon="-0.611453"><ele>121.0</ele><time>2026-05-02T09:41:53.402Z</time></trkpt><trkpt lat="52.7698783" lon="-0.6114557"><ele>121.0</ele><time>2026-05-02T09:41:54.403Z</time></trkpt><trkpt lat="52.7701643" lon="-0.611459"><ele>120.5</ele><time>2026-05-02T09:41:55.403Z</time></trkpt><trkpt lat="52.7704512" lon="-0.6114623"><ele>120.0</ele><time>2026-05-02T09:41:56.402Z</time></trkpt><trkpt lat="52.7707382" lon="-0.6114645"><ele>120.0</ele><time>2026-05-02T09:41:57.405Z</time></trkpt><trkpt lat="52.7710225" lon="-0.6114651"><ele>120.0</ele><time>2026-05-02T09:41:58.403Z</time></trkpt><trkpt lat="52.7713049" lon="-0.6114653"><ele>119.0</ele><time>2026-05-02T09:41:59.404Z</time></trkpt><trkpt lat="52.7715915" lon="-0.6114689"><ele>118.0</ele><time>2026-05-02T09:42:00.402Z</time></trkpt><trkpt lat="52.7718794" lon="-0.6114697"><ele>117.0</ele><time>2026-05-02T09:42:01.403Z</time></trkpt><trkpt lat="52.7721699" lon="-0.6114655"><ele>116.0</ele><time>2026-05-02T09:42:02.402Z</time></trkpt><trkpt lat="52.7724613" lon="-0.6114618"><ele>115.5</ele><time>2026-05-02T09:42:03.402Z</time></trkpt><trkpt lat="52.7727534" lon="-0.6114594"><ele>115.0</ele><time>2026-05-02T09:42:04.404Z</time></trkpt><trkpt lat="52.7730446" lon="-0.6114575"><ele>115.0</ele><time>2026-05-02T09:42:05.402Z</time></trkpt><trkpt lat="52.7733361" lon="-0.6114546"><ele>115.0</ele><time>2026-05-02T09:42:06.404Z</time></trkpt><trkpt lat="52.7736249" lon="-0.6114526"><ele>114.0</ele><time>2026-05-02T09:42:07.402Z</time></trkpt><trkpt lat="52.7739081" lon="-0.611452"><ele>113.0</ele><time>2026-05-02T09:42:08.404Z</time></trkpt><trkpt lat="52.7741873" lon="-0.6114497"><ele>113.0</ele><time>2026-05-02T09:42:09.402Z</time></trkpt><trkpt lat="52.7744607" lon="-0.6114496"><ele>113.0</ele><time>2026-05-02T09:42:10.403Z</time></trkpt><trkpt lat="52.7747333" lon="-0.61144"><ele>113.0</ele><time>2026-05-02T09:42:11.402Z</time></trkpt><trkpt lat="52.775005" lon="-0.6114333"><ele>113.0</ele><time>2026-05-02T09:42:12.402Z</time></trkpt><trkpt lat="52.77528" lon="-0.6114217"><ele>113.0</ele><time>2026-05-02T09:42:13.404Z</time></trkpt><trkpt lat="52.7755567" lon="-0.611405"><ele>113.0</ele><time>2026-05-02T09:42:14.402Z</time></trkpt><trkpt lat="52.775835" lon="-0.6113833"><ele>113.5</ele><time>2026-05-02T09:42:15.403Z</time></trkpt><trkpt lat="52.7761183" lon="-0.611365"><ele>114.0</ele><time>2026-05-02T09:42:16.403Z</time></trkpt><trkpt lat="52.7763983" lon="-0.611345"><ele>114.0</ele><time>2026-05-02T09:42:17.404Z</time></trkpt><trkpt lat="52.77668" lon="-0.6113233"><ele>114.0</ele><time>2026-05-02T09:42:18.403Z</time></trkpt><trkpt lat="52.7769633" lon="-0.6113033"><ele>115.5</ele><time>2026-05-02T09:42:19.404Z</time></trkpt><trkpt lat="52.7772483" lon="-0.6112867"><ele>117.0</ele><time>2026-05-02T09:42:20.403Z</time></trkpt><trkpt lat="52.7775283" lon="-0.6112717"><ele>117.5</ele><time>2026-05-02T09:42:21.402Z</time></trkpt><trkpt lat="52.7778083" lon="-0.6112583"><ele>118.0</ele><time>2026-05-02T09:42:22.404Z</time></trkpt><trkpt lat="52.7780917" lon="-0.6112467"><ele>118.0</ele><time>2026-05-02T09:42:23.402Z</time></trkpt><trkpt lat="52.778375" lon="-0.6112367"><ele>118.0</ele><time>2026-05-02T09:42:24.404Z</time></trkpt><trkpt lat="52.7786567" lon="-0.6112267"><ele>118.0</ele><time>2026-05-02T09:42:25.402Z</time></trkpt><trkpt lat="52.77894" lon="-0.6112217"><ele>118.0</ele><time>2026-05-02T09:42:26.402Z</time></trkpt><trkpt lat="52.7792233" lon="-0.6112167"><ele>118.0</ele><time>2026-05-02T09:42:27.402Z</time></trkpt><trkpt lat="52.7795117" lon="-0.6112117"><ele>118.0</ele><time>2026-05-02T09:42:28.403Z</time></trkpt><trkpt lat="52.7797967" lon="-0.6112"><ele>118.0</ele><time>2026-05-02T09:42:29.404Z</time></trkpt><trkpt lat="52.780085" lon="-0.6111867"><ele>118.0</ele><time>2026-05-02T09:42:30.402Z</time></trkpt><trkpt lat="52.78037" lon="-0.61117"><ele>118.0</ele><time>2026-05-02T09:42:31.406Z</time></trkpt><trkpt lat="52.7806517" lon="-0.6111533"><ele>118.0</ele><time>2026-05-02T09:42:32.404Z</time></trkpt><trkpt lat="52.780935" lon="-0.6111383"><ele>117.5</ele><time>2026-05-02T09:42:33.404Z</time></trkpt><trkpt lat="52.78122" lon="-0.6111233"><ele>117.0</ele><time>2026-05-02T09:42:34.402Z</time></trkpt><trkpt lat="52.781505" lon="-0.61111"><ele>117.0</ele><time>2026-05-02T09:42:35.403Z</time></trkpt><trkpt lat="52.781785" lon="-0.6110983"><ele>117.0</ele><time>2026-05-02T09:42:36.404Z</time></trkpt><trkpt lat="52.7820683" lon="-0.611085"><ele>118.0</ele><time>2026-05-02T09:42:37.402Z</time></trkpt><trkpt lat="52.78235" lon="-0.6110767"><ele>119.0</ele><time>2026-05-02T09:42:38.403Z</time></trkpt><trkpt lat="52.7826317" lon="-0.6110683"><ele>119.5</ele><time>2026-05-02T09:42:39.402Z</time></trkpt><trkpt lat="52.7829133" lon="-0.6110633"><ele>120.0</ele><time>2026-05-02T09:42:40.402Z</time></trkpt><trkpt lat="52.7832017" lon="-0.6110533"><ele>120.0</ele><time>2026-05-02T09:42:41.402Z</time></trkpt><trkpt lat="52.7834917" lon="-0.61104"><ele>120.0</ele><time>2026-05-02T09:42:42.403Z</time></trkpt><trkpt lat="52.7837833" lon="-0.611025"><ele>121.5</ele><time>2026-05-02T09:42:43.403Z</time></trkpt><trkpt lat="52.7840733" lon="-0.6110117"><ele>123.0</ele><time>2026-05-02T09:42:44.403Z</time></trkpt><trkpt lat="52.7843567" lon="-0.611"><ele>123.0</ele><time>2026-05-02T09:42:45.402Z</time></trkpt><trkpt lat="52.7846433" lon="-0.6109883"><ele>123.0</ele><time>2026-05-02T09:42:46.402Z</time></trkpt><trkpt lat="52.7849317" lon="-0.610975"><ele>123.0</ele><time>2026-05-02T09:42:47.403Z</time></trkpt><trkpt lat="52.7852183" lon="-0.610965"><ele>123.0</ele><time>2026-05-02T09:42:48.402Z</time></trkpt><trkpt lat="52.7855033" lon="-0.6109533"><ele>123.0</ele><time>2026-05-02T09:42:49.402Z</time></trkpt><trkpt lat="52.7857867" lon="-0.61094"><ele>123.0</ele><time>2026-05-02T09:42:50.403Z</time></trkpt><trkpt lat="52.78607" lon="-0.610925"><ele>122.5</ele><time>2026-05-02T09:42:51.402Z</time></trkpt><trkpt lat="52.7863517" lon="-0.6109083"><ele>122.0</ele><time>2026-05-02T09:42:52.402Z</time></trkpt><trkpt lat="52.786635" lon="-0.610895"><ele>122.5</ele><time>2026-05-02T09:42:53.402Z</time></trkpt><trkpt lat="52.7869083" lon="-0.6108833"><ele>123.0</ele><time>2026-05-02T09:42:54.402Z</time></trkpt><trkpt lat="52.78718" lon="-0.6108733"><ele>123.0</ele><time>2026-05-02T09:42:55.403Z</time></trkpt><trkpt lat="52.78745" lon="-0.6108633"><ele>123.0</ele><time>2026-05-02T09:42:56.403Z</time></trkpt><trkpt lat="52.7877217" lon="-0.6108533"><ele>122.0</ele><time>2026-05-02T09:42:57.403Z</time></trkpt><trkpt lat="52.78799" lon="-0.61085"><ele>121.0</ele><time>2026-05-02T09:42:58.402Z</time></trkpt><trkpt lat="52.7882517" lon="-0.6108433"><ele>120.0</ele><time>2026-05-02T09:42:59.402Z</time></trkpt><trkpt lat="52.7885117" lon="-0.6108317"><ele>119.0</ele><time>2026-05-02T09:43:00.403Z</time></trkpt><trkpt lat="52.788775" lon="-0.6108233"><ele>119.0</ele><time>2026-05-02T09:43:01.403Z</time></trkpt><trkpt lat="52.78904" lon="-0.6108133"><ele>119.0</ele><time>2026-05-02T09:43:02.405Z</time></trkpt><trkpt lat="52.789305" lon="-0.610805"><ele>117.0</ele><time>2026-05-02T09:43:03.403Z</time></trkpt><trkpt lat="52.78957" lon="-0.6107933"><ele>115.0</ele><time>2026-05-02T09:43:04.404Z</time></trkpt><trkpt lat="52.7898333" lon="-0.61078"><ele>115.0</ele><time>2026-05-02T09:43:05.404Z</time></trkpt><trkpt lat="52.7900967" lon="-0.610765"><ele>115.0</ele><time>2026-05-02T09:43:06.403Z</time></trkpt><trkpt lat="52.790355" lon="-0.61075"><ele>113.0</ele><time>2026-05-02T09:43:07.402Z</time></trkpt><trkpt lat="52.7906183" lon="-0.6107367"><ele>111.0</ele><time>2026-05-02T09:43:08.402Z</time></trkpt><trkpt lat="52.7908817" lon="-0.6107267"><ele>110.0</ele><time>2026-05-02T09:43:09.403Z</time></trkpt><trkpt lat="52.7911467" lon="-0.6107183"><ele>109.0</ele><time>2026-05-02T09:43:10.402Z</time></trkpt><trkpt lat="52.7914083" lon="-0.6107117"><ele>109.0</ele><time>2026-05-02T09:43:11.402Z</time></trkpt><trkpt lat="52.7916717" lon="-0.6107133"><ele>109.0</ele><time>2026-05-02T09:43:12.403Z</time></trkpt><trkpt lat="52.7919333" lon="-0.6107183"><ele>108.5</ele><time>2026-05-02T09:43:13.403Z</time></trkpt><trkpt lat="52.7921917" lon="-0.6107233"><ele>108.0</ele><time>2026-05-02T09:43:14.402Z</time></trkpt><trkpt lat="52.7924483" lon="-0.610725"><ele>110.0</ele><time>2026-05-02T09:43:15.405Z</time></trkpt><trkpt lat="52.792705" lon="-0.6107283"><ele>112.0</ele><time>2026-05-02T09:43:16.403Z</time></trkpt><trkpt lat="52.7929583" lon="-0.6107367"><ele>112.0</ele><time>2026-05-02T09:43:17.402Z</time></trkpt><trkpt lat="52.793215" lon="-0.61074"><ele>112.0</ele><time>2026-05-02T09:43:18.402Z</time></trkpt><trkpt lat="52.79347" lon="-0.6107417"><ele>112.0</ele><time>2026-05-02T09:43:19.403Z</time></trkpt><trkpt lat="52.793725" lon="-0.61074"><ele>112.0</ele><time>2026-05-02T09:43:20.403Z</time></trkpt><trkpt lat="52.7939817" lon="-0.6107367"><ele>112.0</ele><time>2026-05-02T09:43:21.402Z</time></trkpt><trkpt lat="52.7942417" lon="-0.6107383"><ele>112.0</ele><time>2026-05-02T09:43:22.403Z</time></trkpt><trkpt lat="52.794505" lon="-0.6107417"><ele>112.0</ele><time>2026-05-02T09:43:23.402Z</time></trkpt><trkpt lat="52.7947717" lon="-0.6107483"><ele>112.0</ele><time>2026-05-02T09:43:24.405Z</time></trkpt><trkpt lat="52.7950367" lon="-0.6107567"><ele>111.5</ele><time>2026-05-02T09:43:25.402Z</time></trkpt><trkpt lat="52.7953017" lon="-0.6107633"><ele>111.0</ele><time>2026-05-02T09:43:26.403Z</time></trkpt><trkpt lat="52.7955633" lon="-0.6107683"><ele>111.0</ele><time>2026-05-02T09:43:27.406Z</time></trkpt><trkpt lat="52.795825" lon="-0.61077"><ele>111.0</ele><time>2026-05-02T09:43:28.403Z</time></trkpt><trkpt lat="52.7960833" lon="-0.6107683"><ele>113.5</ele><time>2026-05-02T09:43:29.403Z</time></trkpt><trkpt lat="52.7963417" lon="-0.6107667"><ele>116.0</ele><time>2026-05-02T09:43:30.404Z</time></trkpt><trkpt lat="52.7966033" lon="-0.610765"><ele>117.0</ele><time>2026-05-02T09:43:31.403Z</time></trkpt><trkpt lat="52.7968667" lon="-0.6107683"><ele>118.0</ele><time>2026-05-02T09:43:32.403Z</time></trkpt><trkpt lat="52.797135" lon="-0.6107783"><ele>118.0</ele><time>2026-05-02T09:43:33.405Z</time></trkpt><trkpt lat="52.7974017" lon="-0.6107867"><ele>118.0</ele><time>2026-05-02T09:43:34.403Z</time></trkpt><trkpt lat="52.7976633" lon="-0.6107867"><ele>117.5</ele><time>2026-05-02T09:43:35.403Z</time></trkpt><trkpt lat="52.797925" lon="-0.610785"><ele>117.0</ele><time>2026-05-02T09:43:36.403Z</time></trkpt><trkpt lat="52.7981933" lon="-0.6107833"><ele>117.0</ele><time>2026-05-02T09:43:37.402Z</time></trkpt><trkpt lat="52.79846" lon="-0.610785"><ele>117.0</ele><time>2026-05-02T09:43:38.403Z</time></trkpt><trkpt lat="52.798725" lon="-0.610785"><ele>117.5</ele><time>2026-05-02T09:43:39.402Z</time></trkpt><trkpt lat="52.7989917" lon="-0.6107883"><ele>118.0</ele><time>2026-05-02T09:43:40.403Z</time></trkpt><trkpt lat="52.799265" lon="-0.6107933"><ele>116.0</ele><time>2026-05-02T09:43:41.407Z</time></trkpt><trkpt lat="52.79954" lon="-0.610795"><ele>114.0</ele><time>2026-05-02T09:43:42.406Z</time></trkpt><trkpt lat="52.7998083" lon="-0.610795"><ele>114.0</ele><time>2026-05-02T09:43:43.402Z</time></trkpt><trkpt lat="52.800075" lon="-0.6107983"><ele>114.0</ele><time>2026-05-02T09:43:44.408Z</time></trkpt><trkpt lat="52.800345" lon="-0.6108033"><ele>114.0</ele><time>2026-05-02T09:43:45.406Z</time></trkpt><trkpt lat="52.8006183" lon="-0.6108067"><ele>114.0</ele><time>2026-05-02T09:43:46.401Z</time></trkpt><trkpt lat="52.8008917" lon="-0.6108067"><ele>115.0</ele><time>2026-05-02T09:43:47.401Z</time></trkpt><trkpt lat="52.801165" lon="-0.610805"><ele>116.0</ele><time>2026-05-02T09:43:48.403Z</time></trkpt><trkpt lat="52.801435" lon="-0.6107983"><ele>116.0</ele><time>2026-05-02T09:43:49.401Z</time></trkpt><trkpt lat="52.8017167" lon="-0.61079"><ele>116.0</ele><time>2026-05-02T09:43:50.403Z</time></trkpt><trkpt lat="52.801995" lon="-0.6107917"><ele>118.0</ele><time>2026-05-02T09:43:51.406Z</time></trkpt><trkpt lat="52.802265" lon="-0.6108083"><ele>120.0</ele><time>2026-05-02T09:43:52.404Z</time></trkpt><trkpt lat="52.8025283" lon="-0.610835"><ele>120.0</ele><time>2026-05-02T09:43:53.402Z</time></trkpt><trkpt lat="52.8027867" lon="-0.6108833"><ele>120.0</ele><time>2026-05-02T09:43:54.402Z</time></trkpt><trkpt lat="52.80305" lon="-0.6109467"><ele>120.0</ele><time>2026-05-02T09:43:55.406Z</time></trkpt><trkpt lat="52.803315" lon="-0.611025"><ele>120.0</ele><time>2026-05-02T09:43:56.403Z</time></trkpt><trkpt lat="52.80358" lon="-0.6111117"><ele>119.5</ele><time>2026-05-02T09:43:57.405Z</time></trkpt><trkpt lat="52.8038367" lon="-0.6112067"><ele>119.0</ele><time>2026-05-02T09:43:58.405Z</time></trkpt><trkpt lat="52.8040933" lon="-0.61131"><ele>118.5</ele><time>2026-05-02T09:43:59.401Z</time></trkpt><trkpt lat="52.804345" lon="-0.611425"><ele>118.0</ele><time>2026-05-02T09:44:00.406Z</time></trkpt><trkpt lat="52.8045967" lon="-0.6115483"><ele>108.0</ele><time>2026-05-02T09:44:01.406Z</time></trkpt><trkpt lat="52.8203483" lon="-0.6254583"><ele>108.0</ele><time>2026-05-02T09:45:13.401Z</time></trkpt><trkpt lat="52.8206833" lon="-0.626005"><ele>108.0</ele><time>2026-05-02T09:45:15.903Z</time></trkpt><trkpt lat="52.821175" lon="-0.6262883"><ele>108.0</ele><time>2026-05-02T09:45:17.405Z</time></trkpt><trkpt lat="52.821525" lon="-0.6264433"><ele>108.0</ele><time>2026-05-02T09:45:18.405Z</time></trkpt><trkpt lat="52.82179" lon="-0.6266383"><ele>107.5</ele><time>2026-05-02T09:45:19.404Z</time></trkpt><trkpt lat="52.8220833" lon="-0.62683"><ele>107.0</ele><time>2026-05-02T09:45:20.41Z</time></trkpt><trkpt lat="52.8223317" lon="-0.6270533"><ele>105.0</ele><time>2026-05-02T09:45:21.402Z</time></trkpt><trkpt lat="52.822585" lon="-0.6272467"><ele>103.0</ele><time>2026-05-02T09:45:22.403Z</time></trkpt><trkpt lat="52.8228417" lon="-0.6274833"><ele>102.0</ele><time>2026-05-02T09:45:23.402Z</time></trkpt><trkpt lat="52.8231017" lon="-0.6277"><ele>101.0</ele><time>2026-05-02T09:45:24.403Z</time></trkpt><trkpt lat="52.8233617" lon="-0.627915"><ele>100.0</ele><time>2026-05-02T09:45:25.403Z</time></trkpt><trkpt lat="52.8236167" lon="-0.6281283"><ele>99.0</ele><time>2026-05-02T09:45:26.402Z</time></trkpt><trkpt lat="52.8238717" lon="-0.6283367"><ele>99.0</ele><time>2026-05-02T09:45:27.404Z</time></trkpt><trkpt lat="52.8241233" lon="-0.6285467"><ele>99.0</ele><time>2026-05-02T09:45:28.403Z</time></trkpt><trkpt lat="52.8243767" lon="-0.6287583"><ele>99.0</ele><time>2026-05-02T09:45:29.403Z</time></trkpt><trkpt lat="52.82463" lon="-0.6289767"><ele>99.0</ele><time>2026-05-02T09:45:30.402Z</time></trkpt><trkpt lat="52.8248867" lon="-0.6291883"><ele>99.0</ele><time>2026-05-02T09:45:31.402Z</time></trkpt><trkpt lat="52.8251383" lon="-0.6294017"><ele>99.0</ele><time>2026-05-02T09:45:32.402Z</time></trkpt><trkpt lat="52.8253933" lon="-0.629605"><ele>102.0</ele><time>2026-05-02T09:45:33.405Z</time></trkpt><trkpt lat="52.82565" lon="-0.62981"><ele>105.0</ele><time>2026-05-02T09:45:34.403Z</time></trkpt><trkpt lat="52.8259067" lon="-0.630015"><ele>105.5</ele><time>2026-05-02T09:45:35.404Z</time></trkpt><trkpt lat="52.8261633" lon="-0.6302183"><ele>106.0</ele><time>2026-05-02T09:45:36.403Z</time></trkpt><trkpt lat="52.8264233" lon="-0.6304117"><ele>106.0</ele><time>2026-05-02T09:45:37.403Z</time></trkpt><trkpt lat="52.8266883" lon="-0.630585"><ele>106.0</ele><time>2026-05-02T09:45:38.404Z</time></trkpt><trkpt lat="52.8269567" lon="-0.63075"><ele>106.0</ele><time>2026-05-02T09:45:39.404Z</time></trkpt><trkpt lat="52.8272267" lon="-0.6308967"><ele>106.0</ele><time>2026-05-02T09:45:40.404Z</time></trkpt><trkpt lat="52.8274983" lon="-0.6310283"><ele>107.0</ele><time>2026-05-02T09:45:41.404Z</time></trkpt><trkpt lat="52.82777" lon="-0.6311367"><ele>108.0</ele><time>2026-05-02T09:45:42.403Z</time></trkpt><trkpt lat="52.82804" lon="-0.6312317"><ele>108.5</ele><time>2026-05-02T09:45:43.403Z</time></trkpt><trkpt lat="52.8283083" lon="-0.6313167"><ele>109.0</ele><time>2026-05-02T09:45:44.402Z</time></trkpt><trkpt lat="52.8285783" lon="-0.6313867"><ele>109.0</ele><time>2026-05-02T09:45:45.403Z</time></trkpt><trkpt lat="52.828845" lon="-0.63144"><ele>109.0</ele><time>2026-05-02T09:45:46.406Z</time></trkpt><trkpt lat="52.8291133" lon="-0.6314767"><ele>108.5</ele><time>2026-05-02T09:45:47.403Z</time></trkpt><trkpt lat="52.82938" lon="-0.6315033"><ele>108.0</ele><time>2026-05-02T09:45:48.402Z</time></trkpt><trkpt lat="52.82965" lon="-0.6315117"><ele>108.0</ele><time>2026-05-02T09:45:49.404Z</time></trkpt><trkpt lat="52.829925" lon="-0.6315067"><ele>108.0</ele><time>2026-05-02T09:45:50.404Z</time></trkpt><trkpt lat="52.8302033" lon="-0.6314883"><ele>109.0</ele><time>2026-05-02T09:45:51.403Z</time></trkpt><trkpt lat="52.8304833" lon="-0.631455"><ele>110.0</ele><time>2026-05-02T09:45:52.403Z</time></trkpt><trkpt lat="52.830765" lon="-0.631405"><ele>110.0</ele><time>2026-05-02T09:45:53.403Z</time></trkpt><trkpt lat="52.8310467" lon="-0.63134"><ele>110.0</ele><time>2026-05-02T09:45:54.406Z</time></trkpt><trkpt lat="52.8313267" lon="-0.6312617"><ele>110.0</ele><time>2026-05-02T09:45:55.403Z</time></trkpt><trkpt lat="52.831605" lon="-0.6311733"><ele>110.0</ele><time>2026-05-02T09:45:56.402Z</time></trkpt><trkpt lat="52.83188" lon="-0.63108"><ele>106.0</ele><time>2026-05-02T09:45:57.403Z</time></trkpt><trkpt lat="52.8321567" lon="-0.6309967"><ele>102.0</ele><time>2026-05-02T09:45:58.403Z</time></trkpt><trkpt lat="52.8324267" lon="-0.630915"><ele>100.0</ele><time>2026-05-02T09:45:59.403Z</time></trkpt><trkpt lat="52.8326917" lon="-0.6308267"><ele>98.0</ele><time>2026-05-02T09:46:00.403Z</time></trkpt><trkpt lat="52.8329583" lon="-0.6307367"><ele>98.0</ele><time>2026-05-02T09:46:01.403Z</time></trkpt><trkpt lat="52.8332283" lon="-0.6306467"><ele>98.0</ele><time>2026-05-02T09:46:02.403Z</time></trkpt><trkpt lat="52.8334983" lon="-0.6305517"><ele>97.0</ele><time>2026-05-02T09:46:03.403Z</time></trkpt><trkpt lat="52.8337633" lon="-0.63046"><ele>96.0</ele><time>2026-05-02T09:46:04.403Z</time></trkpt><trkpt lat="52.83403" lon="-0.6303717"><ele>96.0</ele><time>2026-05-02T09:46:05.402Z</time></trkpt><trkpt lat="52.83429" lon="-0.6302817"><ele>96.0</ele><time>2026-05-02T09:46:06.403Z</time></trkpt><trkpt lat="52.83455" lon="-0.6301883"><ele>97.0</ele><time>2026-05-02T09:46:07.404Z</time></trkpt><trkpt lat="52.8348117" lon="-0.630105"><ele>98.0</ele><time>2026-05-02T09:46:08.403Z</time></trkpt><trkpt lat="52.8350733" lon="-0.6300217"><ele>101.5</ele><time>2026-05-02T09:46:09.402Z</time></trkpt><trkpt lat="52.835335" lon="-0.6299333"><ele>105.0</ele><time>2026-05-02T09:46:10.404Z</time></trkpt><trkpt lat="52.8356" lon="-0.6298483"><ele>105.0</ele><time>2026-05-02T09:46:11.404Z</time></trkpt><trkpt lat="52.8358683" lon="-0.6297667"><ele>105.0</ele><time>2026-05-02T09:46:12.405Z</time></trkpt><trkpt lat="52.836135" lon="-0.6296817"><ele>106.0</ele><time>2026-05-02T09:46:13.405Z</time></trkpt><trkpt lat="52.8364" lon="-0.6295967"><ele>107.0</ele><time>2026-05-02T09:46:14.403Z</time></trkpt><trkpt lat="52.8366667" lon="-0.6295083"><ele>102.0</ele><time>2026-05-02T09:46:15.402Z</time></trkpt><trkpt lat="52.8369367" lon="-0.62943"><ele>97.0</ele><time>2026-05-02T09:46:16.405Z</time></trkpt><trkpt lat="52.8372067" lon="-0.62937"><ele>97.0</ele><time>2026-05-02T09:46:17.402Z</time></trkpt><trkpt lat="52.837475" lon="-0.6293067"><ele>97.0</ele><time>2026-05-02T09:46:18.403Z</time></trkpt><trkpt lat="52.8377417" lon="-0.6292533"><ele>96.5</ele><time>2026-05-02T09:46:19.401Z</time></trkpt><trkpt lat="52.83801" lon="-0.6292033"><ele>96.0</ele><time>2026-05-02T09:46:20.403Z</time></trkpt><trkpt lat="52.8382833" lon="-0.6291567"><ele>97.5</ele><time>2026-05-02T09:46:21.403Z</time></trkpt><trkpt lat="52.83856" lon="-0.6291233"><ele>99.0</ele><time>2026-05-02T09:46:22.401Z</time></trkpt><trkpt lat="52.838835" lon="-0.6290917"><ele>99.0</ele><time>2026-05-02T09:46:23.401Z</time></trkpt><trkpt lat="52.8391167" lon="-0.6290667"><ele>99.0</ele><time>2026-05-02T09:46:24.401Z</time></trkpt><trkpt lat="52.8394" lon="-0.6290467"><ele>99.0</ele><time>2026-05-02T09:46:25.401Z</time></trkpt><trkpt lat="52.8396817" lon="-0.6290283"><ele>99.0</ele><time>2026-05-02T09:46:26.402Z</time></trkpt><trkpt lat="52.839965" lon="-0.6290083"><ele>99.0</ele><time>2026-05-02T09:46:27.402Z</time></trkpt><trkpt lat="52.840245" lon="-0.6289933"><ele>99.0</ele><time>2026-05-02T09:46:28.402Z</time></trkpt><trkpt lat="52.840525" lon="-0.6289767"><ele>99.0</ele><time>2026-05-02T09:46:29.402Z</time></trkpt><trkpt lat="52.8408017" lon="-0.6289567"><ele>99.0</ele><time>2026-05-02T09:46:30.403Z</time></trkpt><trkpt lat="52.84108" lon="-0.6289383"><ele>101.5</ele><time>2026-05-02T09:46:31.402Z</time></trkpt><trkpt lat="52.8413517" lon="-0.62892"><ele>104.0</ele><time>2026-05-02T09:46:32.403Z</time></trkpt><trkpt lat="52.8416233" lon="-0.6288967"><ele>107.0</ele><time>2026-05-02T09:46:33.401Z</time></trkpt><trkpt lat="52.8418917" lon="-0.6288683"><ele>110.0</ele><time>2026-05-02T09:46:34.401Z</time></trkpt><trkpt lat="52.8421617" lon="-0.6288483"><ele>110.0</ele><time>2026-05-02T09:46:35.402Z</time></trkpt><trkpt lat="52.8424317" lon="-0.628825"><ele>110.0</ele><time>2026-05-02T09:46:36.403Z</time></trkpt><trkpt lat="52.8426983" lon="-0.6287967"><ele>113.5</ele><time>2026-05-02T09:46:37.401Z</time></trkpt><trkpt lat="52.8429633" lon="-0.628765"><ele>117.0</ele><time>2026-05-02T09:46:38.403Z</time></trkpt><trkpt lat="52.843225" lon="-0.6287283"><ele>118.0</ele><time>2026-05-02T09:46:39.402Z</time></trkpt><trkpt lat="52.8434867" lon="-0.6286867"><ele>119.0</ele><time>2026-05-02T09:46:40.401Z</time></trkpt><trkpt lat="52.8437483" lon="-0.62865"><ele>114.5</ele><time>2026-05-02T09:46:41.404Z</time></trkpt><trkpt lat="52.84401" lon="-0.628615"><ele>110.0</ele><time>2026-05-02T09:46:42.402Z</time></trkpt><trkpt lat="52.84427" lon="-0.62858"><ele>108.5</ele><time>2026-05-02T09:46:43.404Z</time></trkpt><trkpt lat="52.8445333" lon="-0.628535"><ele>107.0</ele><time>2026-05-02T09:46:44.402Z</time></trkpt><trkpt lat="52.8447967" lon="-0.6284867"><ele>107.0</ele><time>2026-05-02T09:46:45.402Z</time></trkpt><trkpt lat="52.8450617" lon="-0.62844"><ele>107.0</ele><time>2026-05-02T09:46:46.401Z</time></trkpt><trkpt lat="52.8453233" lon="-0.6283883"><ele>107.0</ele><time>2026-05-02T09:46:47.402Z</time></trkpt><trkpt lat="52.8455833" lon="-0.628335"><ele>107.0</ele><time>2026-05-02T09:46:48.402Z</time></trkpt><trkpt lat="52.8458417" lon="-0.62827"><ele>109.5</ele><time>2026-05-02T09:46:49.401Z</time></trkpt><trkpt lat="52.8461" lon="-0.6282017"><ele>112.0</ele><time>2026-05-02T09:46:50.401Z</time></trkpt><trkpt lat="52.84636" lon="-0.6281317"><ele>112.0</ele><time>2026-05-02T09:46:51.402Z</time></trkpt><trkpt lat="52.8466133" lon="-0.6280633"><ele>112.0</ele><time>2026-05-02T09:46:52.405Z</time></trkpt><trkpt lat="52.8468583" lon="-0.627995"><ele>111.5</ele><time>2026-05-02T09:46:53.401Z</time></trkpt><trkpt lat="52.8470967" lon="-0.62793"><ele>111.0</ele><time>2026-05-02T09:46:54.404Z</time></trkpt><trkpt lat="52.84733" lon="-0.62786"><ele>109.0</ele><time>2026-05-02T09:46:55.405Z</time></trkpt><trkpt lat="52.8475583" lon="-0.62779"><ele>107.0</ele><time>2026-05-02T09:46:56.403Z</time></trkpt><trkpt lat="52.8477833" lon="-0.6277183"><ele>107.0</ele><time>2026-05-02T09:46:57.402Z</time></trkpt><trkpt lat="52.8480083" lon="-0.627645"><ele>107.0</ele><time>2026-05-02T09:46:58.401Z</time></trkpt><trkpt lat="52.8482333" lon="-0.6275667"><ele>107.0</ele><time>2026-05-02T09:46:59.402Z</time></trkpt><trkpt lat="52.8484583" lon="-0.6274917"><ele>107.0</ele><time>2026-05-02T09:47:00.402Z</time></trkpt><trkpt lat="52.848685" lon="-0.627415"><ele>106.0</ele><time>2026-05-02T09:47:01.402Z</time></trkpt><trkpt lat="52.84891" lon="-0.627345"><ele>105.0</ele><time>2026-05-02T09:47:02.403Z</time></trkpt><trkpt lat="52.8491367" lon="-0.6272817"><ele>102.0</ele><time>2026-05-02T09:47:03.404Z</time></trkpt><trkpt lat="52.849365" lon="-0.6272183"><ele>99.0</ele><time>2026-05-02T09:47:04.401Z</time></trkpt><trkpt lat="52.8495917" lon="-0.627155"><ele>99.0</ele><time>2026-05-02T09:47:05.402Z</time></trkpt><trkpt lat="52.8498167" lon="-0.6270867"><ele>99.0</ele><time>2026-05-02T09:47:06.404Z</time></trkpt><trkpt lat="52.8500433" lon="-0.6270317"><ele>96.0</ele><time>2026-05-02T09:47:07.402Z</time></trkpt><trkpt lat="52.8502717" lon="-0.6269917"><ele>93.0</ele><time>2026-05-02T09:47:08.406Z</time></trkpt><trkpt lat="52.8505" lon="-0.6269583"><ele>93.0</ele><time>2026-05-02T09:47:09.405Z</time></trkpt><trkpt lat="52.8507383" lon="-0.626935"><ele>93.0</ele><time>2026-05-02T09:47:10.405Z</time></trkpt><trkpt lat="52.8509783" lon="-0.6269133"><ele>93.0</ele><time>2026-05-02T09:47:11.402Z</time></trkpt><trkpt lat="52.8512217" lon="-0.626905"><ele>93.0</ele><time>2026-05-02T09:47:12.402Z</time></trkpt><trkpt lat="52.8514617" lon="-0.6269183"><ele>93.0</ele><time>2026-05-02T09:47:13.402Z</time></trkpt><trkpt lat="52.8516983" lon="-0.62695"><ele>93.0</ele><time>2026-05-02T09:47:14.402Z</time></trkpt><trkpt lat="52.8519283" lon="-0.6269883"><ele>91.5</ele><time>2026-05-02T09:47:15.402Z</time></trkpt><trkpt lat="52.85216" lon="-0.627045"><ele>90.0</ele><time>2026-05-02T09:47:16.402Z</time></trkpt><trkpt lat="52.8523933" lon="-0.6271083"><ele>90.5</ele><time>2026-05-02T09:47:17.402Z</time></trkpt><trkpt lat="52.8526317" lon="-0.6271867"><ele>91.0</ele><time>2026-05-02T09:47:18.403Z</time></trkpt><trkpt lat="52.8528717" lon="-0.6272783"><ele>91.0</ele><time>2026-05-02T09:47:19.402Z</time></trkpt><trkpt lat="52.85311" lon="-0.6273717"><ele>91.0</ele><time>2026-05-02T09:47:20.401Z</time></trkpt><trkpt lat="52.8533517" lon="-0.62747"><ele>91.0</ele><time>2026-05-02T09:47:21.402Z</time></trkpt><trkpt lat="52.8535933" lon="-0.6275817"><ele>91.0</ele><time>2026-05-02T09:47:22.402Z</time></trkpt><trkpt lat="52.8538383" lon="-0.6276983"><ele>88.5</ele><time>2026-05-02T09:47:23.402Z</time></trkpt><trkpt lat="52.8540933" lon="-0.6278233"><ele>86.0</ele><time>2026-05-02T09:47:24.402Z</time></trkpt><trkpt lat="52.8543583" lon="-0.62795"><ele>85.5</ele><time>2026-05-02T09:47:25.401Z</time></trkpt><trkpt lat="52.8546333" lon="-0.628065"><ele>85.0</ele><time>2026-05-02T09:47:26.401Z</time></trkpt><trkpt lat="52.8549083" lon="-0.62818"><ele>82.5</ele><time>2026-05-02T09:47:27.403Z</time></trkpt><trkpt lat="52.8551783" lon="-0.628285"><ele>80.0</ele><time>2026-05-02T09:47:28.402Z</time></trkpt><trkpt lat="52.8554417" lon="-0.6283833"><ele>80.0</ele><time>2026-05-02T09:47:29.402Z</time></trkpt><trkpt lat="52.8557" lon="-0.6284683"><ele>80.0</ele><time>2026-05-02T09:47:30.403Z</time></trkpt><trkpt lat="52.8559583" lon="-0.62855"><ele>79.0</ele><time>2026-05-02T09:47:31.402Z</time></trkpt><trkpt lat="52.85622" lon="-0.628625"><ele>78.0</ele><time>2026-05-02T09:47:32.405Z</time></trkpt><trkpt lat="52.8564783" lon="-0.62869"><ele>77.5</ele><time>2026-05-02T09:47:33.403Z</time></trkpt><trkpt lat="52.85674" lon="-0.628745"><ele>77.0</ele><time>2026-05-02T09:47:34.401Z</time></trkpt><trkpt lat="52.8570033" lon="-0.6288"><ele>78.5</ele><time>2026-05-02T09:47:35.403Z</time></trkpt><trkpt lat="52.8572667" lon="-0.62885"><ele>80.0</ele><time>2026-05-02T09:47:36.402Z</time></trkpt><trkpt lat="52.8575317" lon="-0.6289033"><ele>79.5</ele><time>2026-05-02T09:47:37.401Z</time></trkpt><trkpt lat="52.8577983" lon="-0.6289567"><ele>79.0</ele><time>2026-05-02T09:47:38.402Z</time></trkpt><trkpt lat="52.858065" lon="-0.6290083"><ele>79.0</ele><time>2026-05-02T09:47:39.401Z</time></trkpt><trkpt lat="52.8583267" lon="-0.6290583"><ele>79.0</ele><time>2026-05-02T09:47:40.401Z</time></trkpt><trkpt lat="52.858585" lon="-0.6291133"><ele>80.5</ele><time>2026-05-02T09:47:41.404Z</time></trkpt><trkpt lat="52.8588467" lon="-0.629165"><ele>82.0</ele><time>2026-05-02T09:47:42.403Z</time></trkpt><trkpt lat="52.85911" lon="-0.6292133"><ele>81.5</ele><time>2026-05-02T09:47:43.401Z</time></trkpt><trkpt lat="52.8593717" lon="-0.6292617"><ele>81.0</ele><time>2026-05-02T09:47:44.403Z</time></trkpt><trkpt lat="52.8596383" lon="-0.6293033"><ele>81.0</ele><time>2026-05-02T09:47:45.401Z</time></trkpt><trkpt lat="52.8599" lon="-0.6293433"><ele>81.0</ele><time>2026-05-02T09:47:46.403Z</time></trkpt><trkpt lat="52.8601683" lon="-0.6293783"><ele>82.0</ele><time>2026-05-02T09:47:47.401Z</time></trkpt><trkpt lat="52.860435" lon="-0.6294017"><ele>83.0</ele><time>2026-05-02T09:47:48.401Z</time></trkpt><trkpt lat="52.8607" lon="-0.629425"><ele>84.5</ele><time>2026-05-02T09:47:49.401Z</time></trkpt><trkpt lat="52.860965" lon="-0.629455"><ele>86.0</ele><time>2026-05-02T09:47:50.406Z</time></trkpt><trkpt lat="52.8612317" lon="-0.6294833"><ele>87.0</ele><time>2026-05-02T09:47:51.403Z</time></trkpt><trkpt lat="52.8614983" lon="-0.629515"><ele>88.0</ele><time>2026-05-02T09:47:52.402Z</time></trkpt><trkpt lat="52.8617633" lon="-0.62954"><ele>88.5</ele><time>2026-05-02T09:47:53.401Z</time></trkpt><trkpt lat="52.86203" lon="-0.6295567"><ele>89.0</ele><time>2026-05-02T09:47:54.401Z</time></trkpt><trkpt lat="52.8623" lon="-0.62957"><ele>89.0</ele><time>2026-05-02T09:47:55.402Z</time></trkpt><trkpt lat="52.8625683" lon="-0.6295867"><ele>89.0</ele><time>2026-05-02T09:47:56.404Z</time></trkpt><trkpt lat="52.8628383" lon="-0.6296017"><ele>88.0</ele><time>2026-05-02T09:47:57.401Z</time></trkpt><trkpt lat="52.8631117" lon="-0.6296367"><ele>87.0</ele><time>2026-05-02T09:47:58.401Z</time></trkpt><trkpt lat="52.863385" lon="-0.6296533"><ele>86.5</ele><time>2026-05-02T09:47:59.401Z</time></trkpt><trkpt lat="52.8636533" lon="-0.6296633"><ele>86.0</ele><time>2026-05-02T09:48:00.403Z</time></trkpt><trkpt lat="52.8639233" lon="-0.629675"><ele>86.0</ele><time>2026-05-02T09:48:01.403Z</time></trkpt><trkpt lat="52.8641917" lon="-0.6296883"><ele>86.0</ele><time>2026-05-02T09:48:02.402Z</time></trkpt><trkpt lat="52.8644583" lon="-0.6297017"><ele>85.5</ele><time>2026-05-02T09:48:03.404Z</time></trkpt><trkpt lat="52.8647267" lon="-0.629725"><ele>85.0</ele><time>2026-05-02T09:48:04.402Z</time></trkpt><trkpt lat="52.864995" lon="-0.6297467"><ele>86.5</ele><time>2026-05-02T09:48:05.401Z</time></trkpt><trkpt lat="52.8652583" lon="-0.62977"><ele>88.0</ele><time>2026-05-02T09:48:06.402Z</time></trkpt><trkpt lat="52.8655217" lon="-0.6297917"><ele>88.0</ele><time>2026-05-02T09:48:07.402Z</time></trkpt><trkpt lat="52.8657817" lon="-0.6298067"><ele>88.0</ele><time>2026-05-02T09:48:08.402Z</time></trkpt><trkpt lat="52.866045" lon="-0.6298133"><ele>89.5</ele><time>2026-05-02T09:48:09.403Z</time></trkpt><trkpt lat="52.8663083" lon="-0.6298217"><ele>91.0</ele><time>2026-05-02T09:48:10.405Z</time></trkpt><trkpt lat="52.8665733" lon="-0.6298383"><ele>93.5</ele><time>2026-05-02T09:48:11.402Z</time></trkpt><trkpt lat="52.8668417" lon="-0.629865"><ele>96.0</ele><time>2026-05-02T09:48:12.403Z</time></trkpt><trkpt lat="52.867105" lon="-0.62989"><ele>96.0</ele><time>2026-05-02T09:48:13.401Z</time></trkpt><trkpt lat="52.8673717" lon="-0.6299183"><ele>96.0</ele><time>2026-05-02T09:48:14.403Z</time></trkpt><trkpt lat="52.8676367" lon="-0.6299417"><ele>96.0</ele><time>2026-05-02T09:48:15.402Z</time></trkpt><trkpt lat="52.867905" lon="-0.6299683"><ele>96.0</ele><time>2026-05-02T09:48:16.402Z</time></trkpt><trkpt lat="52.8681717" lon="-0.6299967"><ele>96.0</ele><time>2026-05-02T09:48:17.406Z</time></trkpt><trkpt lat="52.8684383" lon="-0.6300217"><ele>96.0</ele><time>2026-05-02T09:48:18.401Z</time></trkpt><trkpt lat="52.868705" lon="-0.6300483"><ele>96.0</ele><time>2026-05-02T09:48:19.401Z</time></trkpt><trkpt lat="52.8689683" lon="-0.63007"><ele>96.0</ele><time>2026-05-02T09:48:20.401Z</time></trkpt><trkpt lat="52.8692317" lon="-0.630095"><ele>96.5</ele><time>2026-05-02T09:48:21.401Z</time></trkpt><trkpt lat="52.8694983" lon="-0.6301283"><ele>97.0</ele><time>2026-05-02T09:48:22.401Z</time></trkpt><trkpt lat="52.869765" lon="-0.6301667"><ele>97.0</ele><time>2026-05-02T09:48:23.403Z</time></trkpt><trkpt lat="52.8700317" lon="-0.630215"><ele>97.0</ele><time>2026-05-02T09:48:24.403Z</time></trkpt><trkpt lat="52.8702967" lon="-0.630265"><ele>98.5</ele><time>2026-05-02T09:48:25.402Z</time></trkpt><trkpt lat="52.8705633" lon="-0.63032"><ele>100.0</ele><time>2026-05-02T09:48:26.403Z</time></trkpt><trkpt lat="52.87083" lon="-0.630385"><ele>99.0</ele><time>2026-05-02T09:48:27.403Z</time></trkpt><trkpt lat="52.871095" lon="-0.6304583"><ele>98.0</ele><time>2026-05-02T09:48:28.401Z</time></trkpt><trkpt lat="52.8713583" lon="-0.6305367"><ele>98.0</ele><time>2026-05-02T09:48:29.401Z</time></trkpt><trkpt lat="52.8716217" lon="-0.6306217"><ele>98.0</ele><time>2026-05-02T09:48:30.402Z</time></trkpt><trkpt lat="52.8718833" lon="-0.6307117"><ele>98.5</ele><time>2026-05-02T09:48:31.402Z</time></trkpt><trkpt lat="52.8721417" lon="-0.6308033"><ele>99.0</ele><time>2026-05-02T09:48:32.402Z</time></trkpt><trkpt lat="52.8723917" lon="-0.6308967"><ele>99.5</ele><time>2026-05-02T09:48:33.403Z</time></trkpt><trkpt lat="52.8726333" lon="-0.6309917"><ele>100.0</ele><time>2026-05-02T09:48:34.403Z</time></trkpt><trkpt lat="52.8728583" lon="-0.6310883"><ele>100.33333333333334</ele><time>2026-05-02T09:48:35.402Z</time></trkpt><trkpt lat="52.8730767" lon="-0.631185"><ele>100.66666666666666</ele><time>2026-05-02T09:48:36.406Z</time></trkpt><trkpt lat="52.8732917" lon="-0.6312817"><ele>101.0</ele><time>2026-05-02T09:48:37.401Z</time></trkpt><trkpt lat="52.8735083" lon="-0.631385"><ele>97.5</ele><time>2026-05-02T09:48:38.402Z</time></trkpt><trkpt lat="52.8737267" lon="-0.6314983"><ele>94.0</ele><time>2026-05-02T09:48:39.403Z</time></trkpt><trkpt lat="52.8739517" lon="-0.6316183"><ele>94.0</ele><time>2026-05-02T09:48:40.403Z</time></trkpt><trkpt lat="52.8741733" lon="-0.6317433"><ele>94.0</ele><time>2026-05-02T09:48:41.409Z</time></trkpt><trkpt lat="52.8743967" lon="-0.63187"><ele>93.5</ele><time>2026-05-02T09:48:42.402Z</time></trkpt><trkpt lat="52.874625" lon="-0.6320033"><ele>93.0</ele><time>2026-05-02T09:48:43.403Z</time></trkpt><trkpt lat="52.8748567" lon="-0.6321417"><ele>93.0</ele><time>2026-05-02T09:48:44.403Z</time></trkpt><trkpt lat="52.8750933" lon="-0.6322867"><ele>93.0</ele><time>2026-05-02T09:48:45.403Z</time></trkpt><trkpt lat="52.8753383" lon="-0.6324333"><ele>90.0</ele><time>2026-05-02T09:48:46.403Z</time></trkpt><trkpt lat="52.87559" lon="-0.632585"><ele>87.0</ele><time>2026-05-02T09:48:47.403Z</time></trkpt><trkpt lat="52.8758433" lon="-0.6327317"><ele>87.0</ele><time>2026-05-02T09:48:48.403Z</time></trkpt><trkpt lat="52.8761" lon="-0.6328767"><ele>87.0</ele><time>2026-05-02T09:48:49.402Z</time></trkpt><trkpt lat="52.8763567" lon="-0.63302"><ele>87.0</ele><time>2026-05-02T09:48:50.402Z</time></trkpt><trkpt lat="52.87661" lon="-0.6331683"><ele>87.0</ele><time>2026-05-02T09:48:51.402Z</time></trkpt><trkpt lat="52.87686" lon="-0.6333183"><ele>87.0</ele><time>2026-05-02T09:48:52.403Z</time></trkpt><trkpt lat="52.877105" lon="-0.63347"><ele>87.0</ele><time>2026-05-02T09:48:53.402Z</time></trkpt><trkpt lat="52.8773483" lon="-0.6336233"><ele>87.5</ele><time>2026-05-02T09:48:54.405Z</time></trkpt><trkpt lat="52.8775933" lon="-0.63378"><ele>88.0</ele><time>2026-05-02T09:48:55.402Z</time></trkpt><trkpt lat="52.8778333" lon="-0.63394"><ele>88.5</ele><time>2026-05-02T09:48:56.408Z</time></trkpt><trkpt lat="52.8780783" lon="-0.6341083"><ele>89.0</ele><time>2026-05-02T09:48:57.403Z</time></trkpt><trkpt lat="52.8783267" lon="-0.6342767"><ele>88.5</ele><time>2026-05-02T09:48:58.402Z</time></trkpt><trkpt lat="52.8785733" lon="-0.6344533"><ele>88.0</ele><time>2026-05-02T09:48:59.402Z</time></trkpt><trkpt lat="52.8788183" lon="-0.634635"><ele>88.5</ele><time>2026-05-02T09:49:00.402Z</time></trkpt><trkpt lat="52.8790667" lon="-0.634815"><ele>89.0</ele><time>2026-05-02T09:49:01.403Z</time></trkpt><trkpt lat="52.87932" lon="-0.6349983"><ele>89.0</ele><time>2026-05-02T09:49:02.402Z</time></trkpt><trkpt lat="52.87957" lon="-0.6351867"><ele>89.0</ele><time>2026-05-02T09:49:03.408Z</time></trkpt><trkpt lat="52.879815" lon="-0.6353833"><ele>90.0</ele><time>2026-05-02T09:49:04.404Z</time></trkpt><trkpt lat="52.8800517" lon="-0.63556"><ele>91.0</ele><time>2026-05-02T09:49:05.402Z</time></trkpt><trkpt lat="52.8802933" lon="-0.6357517"><ele>91.0</ele><time>2026-05-02T09:49:06.403Z</time></trkpt><trkpt lat="52.88053" lon="-0.63594"><ele>91.0</ele><time>2026-05-02T09:49:07.404Z</time></trkpt><trkpt lat="52.8807683" lon="-0.63612"><ele>91.0</ele><time>2026-05-02T09:49:08.404Z</time></trkpt><trkpt lat="52.8810067" lon="-0.636315"><ele>91.0</ele><time>2026-05-02T09:49:09.403Z</time></trkpt><trkpt lat="52.88124" lon="-0.6365117"><ele>91.0</ele><time>2026-05-02T09:49:10.402Z</time></trkpt><trkpt lat="52.8814683" lon="-0.6367033"><ele>91.0</ele><time>2026-05-02T09:49:11.403Z</time></trkpt><trkpt lat="52.8817" lon="-0.6369083"><ele>92.5</ele><time>2026-05-02T09:49:12.403Z</time></trkpt><trkpt lat="52.881935" lon="-0.6371183"><ele>94.0</ele><time>2026-05-02T09:49:13.403Z</time></trkpt><trkpt lat="52.8821617" lon="-0.637335"><ele>94.0</ele><time>2026-05-02T09:49:14.405Z</time></trkpt><trkpt lat="52.8823917" lon="-0.6375567"><ele>94.0</ele><time>2026-05-02T09:49:15.404Z</time></trkpt><trkpt lat="52.8826167" lon="-0.6377817"><ele>96.0</ele><time>2026-05-02T09:49:16.406Z</time></trkpt><trkpt lat="52.8828433" lon="-0.63801"><ele>98.0</ele><time>2026-05-02T09:49:17.401Z</time></trkpt><trkpt lat="52.8830717" lon="-0.63824"><ele>98.0</ele><time>2026-05-02T09:49:18.401Z</time></trkpt><trkpt lat="52.8832983" lon="-0.638475"><ele>98.0</ele><time>2026-05-02T09:49:19.401Z</time></trkpt><trkpt lat="52.8835167" lon="-0.638715"><ele>101.0</ele><time>2026-05-02T09:49:20.401Z</time></trkpt><trkpt lat="52.8837367" lon="-0.638955"><ele>104.0</ele><time>2026-05-02T09:49:21.402Z</time></trkpt><trkpt lat="52.8839567" lon="-0.6391983"><ele>104.0</ele><time>2026-05-02T09:49:22.402Z</time></trkpt><trkpt lat="52.8841733" lon="-0.6394417"><ele>104.0</ele><time>2026-05-02T09:49:23.406Z</time></trkpt><trkpt lat="52.88439" lon="-0.6396883"><ele>105.5</ele><time>2026-05-02T09:49:24.402Z</time></trkpt><trkpt lat="52.884605" lon="-0.6399383"><ele>107.0</ele><time>2026-05-02T09:49:25.403Z</time></trkpt><trkpt lat="52.88482" lon="-0.640195"><ele>106.5</ele><time>2026-05-02T09:49:26.403Z</time></trkpt><trkpt lat="52.88503" lon="-0.6404567"><ele>106.0</ele><time>2026-05-02T09:49:27.405Z</time></trkpt><trkpt lat="52.8852467" lon="-0.6407217"><ele>106.0</ele><time>2026-05-02T09:49:28.401Z</time></trkpt><trkpt lat="52.8854633" lon="-0.6409967"><ele>106.0</ele><time>2026-05-02T09:49:29.401Z</time></trkpt><trkpt lat="52.8856817" lon="-0.6412717"><ele>108.5</ele><time>2026-05-02T09:49:30.403Z</time></trkpt><trkpt lat="52.885895" lon="-0.641545"><ele>111.0</ele><time>2026-05-02T09:49:31.402Z</time></trkpt><trkpt lat="52.8861067" lon="-0.6418133"><ele>112.5</ele><time>2026-05-02T09:49:32.404Z</time></trkpt><trkpt lat="52.886315" lon="-0.642075"><ele>114.0</ele><time>2026-05-02T09:49:33.403Z</time></trkpt><trkpt lat="52.88652" lon="-0.642335"><ele>114.0</ele><time>2026-05-02T09:49:34.403Z</time></trkpt><trkpt lat="52.886725" lon="-0.642595"><ele>114.0</ele><time>2026-05-02T09:49:35.405Z</time></trkpt><trkpt lat="52.8869267" lon="-0.64286"><ele>115.0</ele><time>2026-05-02T09:49:36.401Z</time></trkpt><trkpt lat="52.8871367" lon="-0.643125"><ele>116.0</ele><time>2026-05-02T09:49:37.407Z</time></trkpt><trkpt lat="52.88735" lon="-0.6433917"><ele>117.0</ele><time>2026-05-02T09:49:38.406Z</time></trkpt><trkpt lat="52.887565" lon="-0.6436583"><ele>118.0</ele><time>2026-05-02T09:49:39.405Z</time></trkpt><trkpt lat="52.887775" lon="-0.6439267"><ele>119.0</ele><time>2026-05-02T09:49:40.402Z</time></trkpt><trkpt lat="52.887985" lon="-0.6441967"><ele>120.0</ele><time>2026-05-02T09:49:41.402Z</time></trkpt><trkpt lat="52.8881933" lon="-0.6444667"><ele>120.0</ele><time>2026-05-02T09:49:42.403Z</time></trkpt><trkpt lat="52.8884" lon="-0.6447383"><ele>120.0</ele><time>2026-05-02T09:49:43.403Z</time></trkpt><trkpt lat="52.8886083" lon="-0.64501"><ele>121.0</ele><time>2026-05-02T09:49:44.403Z</time></trkpt><trkpt lat="52.8888183" lon="-0.6452783"><ele>122.0</ele><time>2026-05-02T09:49:45.401Z</time></trkpt><trkpt lat="52.8890267" lon="-0.6455333"><ele>122.0</ele><time>2026-05-02T09:49:46.401Z</time></trkpt><trkpt lat="52.8892317" lon="-0.6457767"><ele>122.0</ele><time>2026-05-02T09:49:47.405Z</time></trkpt><trkpt lat="52.8894367" lon="-0.6460233"><ele>121.0</ele><time>2026-05-02T09:49:48.401Z</time></trkpt><trkpt lat="52.8896417" lon="-0.6462783"><ele>120.0</ele><time>2026-05-02T09:49:49.406Z</time></trkpt><trkpt lat="52.8898483" lon="-0.64654"><ele>120.0</ele><time>2026-05-02T09:49:50.404Z</time></trkpt><trkpt lat="52.8900583" lon="-0.6468067"><ele>120.0</ele><time>2026-05-02T09:49:51.403Z</time></trkpt><trkpt lat="52.8902733" lon="-0.6470783"><ele>119.5</ele><time>2026-05-02T09:49:52.402Z</time></trkpt><trkpt lat="52.890495" lon="-0.647355"><ele>119.0</ele><time>2026-05-02T09:49:53.405Z</time></trkpt><trkpt lat="52.8907183" lon="-0.647635"><ele>120.0</ele><time>2026-05-02T09:49:54.403Z</time></trkpt><trkpt lat="52.8909367" lon="-0.647925"><ele>121.0</ele><time>2026-05-02T09:49:55.406Z</time></trkpt><trkpt lat="52.8911533" lon="-0.6482317"><ele>121.0</ele><time>2026-05-02T09:49:56.403Z</time></trkpt><trkpt lat="52.8913717" lon="-0.648545"><ele>121.0</ele><time>2026-05-02T09:49:57.403Z</time></trkpt><trkpt lat="52.8915967" lon="-0.648855"><ele>120.5</ele><time>2026-05-02T09:49:58.402Z</time></trkpt><trkpt lat="52.89183" lon="-0.6491617"><ele>120.0</ele><time>2026-05-02T09:49:59.401Z</time></trkpt><trkpt lat="52.8920667" lon="-0.649465"><ele>119.5</ele><time>2026-05-02T09:50:00.402Z</time></trkpt><trkpt lat="52.8923067" lon="-0.6497717"><ele>119.0</ele><time>2026-05-02T09:50:01.402Z</time></trkpt><trkpt lat="52.8925483" lon="-0.6500833"><ele>117.5</ele><time>2026-05-02T09:50:02.403Z</time></trkpt><trkpt lat="52.8927867" lon="-0.6503917"><ele>116.0</ele><time>2026-05-02T09:50:03.403Z</time></trkpt><trkpt lat="52.8930217" lon="-0.6506983"><ele>116.0</ele><time>2026-05-02T09:50:04.403Z</time></trkpt><trkpt lat="52.893255" lon="-0.6510167"><ele>116.0</ele><time>2026-05-02T09:50:05.403Z</time></trkpt><trkpt lat="52.8934817" lon="-0.6513533"><ele>113.5</ele><time>2026-05-02T09:50:06.402Z</time></trkpt><trkpt lat="52.8937033" lon="-0.6517033"><ele>111.0</ele><time>2026-05-02T09:50:07.402Z</time></trkpt><trkpt lat="52.8939217" lon="-0.6520683"><ele>109.0</ele><time>2026-05-02T09:50:08.406Z</time></trkpt><trkpt lat="52.8941283" lon="-0.6524433"><ele>107.0</ele><time>2026-05-02T09:50:09.403Z</time></trkpt><trkpt lat="52.894315" lon="-0.6528233"><ele>102.5</ele><time>2026-05-02T09:50:10.401Z</time></trkpt><trkpt lat="52.894485" lon="-0.65321"><ele>98.0</ele><time>2026-05-02T09:50:11.402Z</time></trkpt><trkpt lat="52.8946467" lon="-0.6536083"><ele>98.0</ele><time>2026-05-02T09:50:12.403Z</time></trkpt><trkpt lat="52.8948083" lon="-0.6540067"><ele>98.0</ele><time>2026-05-02T09:50:13.401Z</time></trkpt><trkpt lat="52.8949533" lon="-0.6544083"><ele>93.0</ele><time>2026-05-02T09:50:14.404Z</time></trkpt><trkpt lat="52.895095" lon="-0.654815"><ele>88.0</ele><time>2026-05-02T09:50:15.407Z</time></trkpt><trkpt lat="52.89522" lon="-0.65522"><ele>88.5</ele><time>2026-05-02T09:50:16.404Z</time></trkpt><trkpt lat="52.8953367" lon="-0.6556233"><ele>89.0</ele><time>2026-05-02T09:50:17.405Z</time></trkpt><trkpt lat="52.8954483" lon="-0.656025"><ele>88.5</ele><time>2026-05-02T09:50:18.403Z</time></trkpt><trkpt lat="52.89555" lon="-0.6564283"><ele>88.0</ele><time>2026-05-02T09:50:19.401Z</time></trkpt><trkpt lat="52.8956383" lon="-0.6568283"><ele>87.0</ele><time>2026-05-02T09:50:20.402Z</time></trkpt><trkpt lat="52.8957233" lon="-0.65723"><ele>86.0</ele><time>2026-05-02T09:50:21.403Z</time></trkpt><trkpt lat="52.8957983" lon="-0.65763"><ele>86.5</ele><time>2026-05-02T09:50:22.402Z</time></trkpt><trkpt lat="52.8958817" lon="-0.65803"><ele>87.0</ele><time>2026-05-02T09:50:23.405Z</time></trkpt><trkpt lat="52.8959717" lon="-0.6584317"><ele>81.5</ele><time>2026-05-02T09:50:24.406Z</time></trkpt><trkpt lat="52.8960617" lon="-0.6588333"><ele>76.0</ele><time>2026-05-02T09:50:25.402Z</time></trkpt><trkpt lat="52.896145" lon="-0.6592367"><ele>76.5</ele><time>2026-05-02T09:50:26.401Z</time></trkpt><trkpt lat="52.8962267" lon="-0.659635"><ele>77.0</ele><time>2026-05-02T09:50:27.401Z</time></trkpt><trkpt lat="52.8963183" lon="-0.6600317"><ele>77.5</ele><time>2026-05-02T09:50:28.406Z</time></trkpt><trkpt lat="52.8964083" lon="-0.6604283"><ele>78.0</ele><time>2026-05-02T09:50:29.403Z</time></trkpt><trkpt lat="52.8964983" lon="-0.6608217"><ele>77.5</ele><time>2026-05-02T09:50:30.405Z</time></trkpt><trkpt lat="52.89659" lon="-0.6612133"><ele>77.0</ele><time>2026-05-02T09:50:31.403Z</time></trkpt><trkpt lat="52.8966867" lon="-0.6616017"><ele>74.5</ele><time>2026-05-02T09:50:32.403Z</time></trkpt><trkpt lat="52.8967933" lon="-0.661985"><ele>72.0</ele><time>2026-05-02T09:50:33.403Z</time></trkpt><trkpt lat="52.896905" lon="-0.6623617"><ele>72.0</ele><time>2026-05-02T09:50:34.403Z</time></trkpt><trkpt lat="52.8970267" lon="-0.6627367"><ele>72.0</ele><time>2026-05-02T09:50:35.406Z</time></trkpt><trkpt lat="52.897155" lon="-0.6631083"><ele>72.5</ele><time>2026-05-02T09:50:36.401Z</time></trkpt><trkpt lat="52.8972883" lon="-0.663475"><ele>73.0</ele><time>2026-05-02T09:50:37.405Z</time></trkpt><trkpt lat="52.897425" lon="-0.663835"><ele>73.0</ele><time>2026-05-02T09:50:38.402Z</time></trkpt><trkpt lat="52.8975683" lon="-0.664185"><ele>73.0</ele><time>2026-05-02T09:50:39.406Z</time></trkpt><trkpt lat="52.897715" lon="-0.664535"><ele>73.0</ele><time>2026-05-02T09:50:40.405Z</time></trkpt><trkpt lat="52.8978617" lon="-0.664875"><ele>73.0</ele><time>2026-05-02T09:50:41.405Z</time></trkpt><trkpt lat="52.8980167" lon="-0.6652067"><ele>72.0</ele><time>2026-05-02T09:50:42.405Z</time></trkpt><trkpt lat="52.8981817" lon="-0.6655317"><ele>71.0</ele><time>2026-05-02T09:50:43.403Z</time></trkpt><trkpt lat="52.89835" lon="-0.6658517"><ele>71.0</ele><time>2026-05-02T09:50:44.405Z</time></trkpt><trkpt lat="52.898525" lon="-0.66616"><ele>71.0</ele><time>2026-05-02T09:50:45.405Z</time></trkpt><trkpt lat="52.8987067" lon="-0.6664617"><ele>71.0</ele><time>2026-05-02T09:50:46.406Z</time></trkpt><trkpt lat="52.8988967" lon="-0.6667583"><ele>71.0</ele><time>2026-05-02T09:50:47.407Z</time></trkpt><trkpt lat="52.899095" lon="-0.6670517"><ele>72.0</ele><time>2026-05-02T09:50:48.405Z</time></trkpt><trkpt lat="52.8993083" lon="-0.667345"><ele>73.0</ele><time>2026-05-02T09:50:49.407Z</time></trkpt><trkpt lat="52.89953" lon="-0.667635"><ele>72.0</ele><time>2026-05-02T09:50:50.402Z</time></trkpt><trkpt lat="52.8997517" lon="-0.6679133"><ele>71.0</ele><time>2026-05-02T09:50:51.403Z</time></trkpt><trkpt lat="52.8999767" lon="-0.668185"><ele>72.0</ele><time>2026-05-02T09:50:52.407Z</time></trkpt><trkpt lat="52.900205" lon="-0.6684533"><ele>73.0</ele><time>2026-05-02T09:50:53.404Z</time></trkpt><trkpt lat="52.9004483" lon="-0.668715"><ele>73.0</ele><time>2026-05-02T09:50:54.404Z</time></trkpt><trkpt lat="52.9007033" lon="-0.6689683"><ele>73.0</ele><time>2026-05-02T09:50:55.404Z</time></trkpt><trkpt lat="52.90097" lon="-0.6692117"><ele>73.5</ele><time>2026-05-02T09:50:56.404Z</time></trkpt><trkpt lat="52.9012433" lon="-0.6694483"><ele>74.0</ele><time>2026-05-02T09:50:57.404Z</time></trkpt><trkpt lat="52.9015183" lon="-0.6696733"><ele>75.0</ele><time>2026-05-02T09:50:58.403Z</time></trkpt><trkpt lat="52.901795" lon="-0.66989"><ele>76.0</ele><time>2026-05-02T09:50:59.403Z</time></trkpt><trkpt lat="52.9020717" lon="-0.670105"><ele>76.5</ele><time>2026-05-02T09:51:00.403Z</time></trkpt><trkpt lat="52.9023467" lon="-0.670325"><ele>77.0</ele><time>2026-05-02T09:51:01.404Z</time></trkpt><trkpt lat="52.9026167" lon="-0.670555"><ele>78.0</ele><time>2026-05-02T09:51:02.405Z</time></trkpt><trkpt lat="52.902885" lon="-0.6707833"><ele>79.0</ele><time>2026-05-02T09:51:03.405Z</time></trkpt><trkpt lat="52.903145" lon="-0.6709833"><ele>79.0</ele><time>2026-05-02T09:51:04.402Z</time></trkpt><trkpt lat="52.9033933" lon="-0.6711667"><ele>79.0</ele><time>2026-05-02T09:51:05.403Z</time></trkpt><trkpt lat="52.90363" lon="-0.6713417"><ele>79.0</ele><time>2026-05-02T09:51:06.403Z</time></trkpt><trkpt lat="52.90386" lon="-0.67151"><ele>79.0</ele><time>2026-05-02T09:51:07.403Z</time></trkpt><trkpt lat="52.90409" lon="-0.671685"><ele>79.5</ele><time>2026-05-02T09:51:08.408Z</time></trkpt><trkpt lat="52.9043217" lon="-0.671865"><ele>80.0</ele><time>2026-05-02T09:51:09.403Z</time></trkpt><trkpt lat="52.9045583" lon="-0.6720483"><ele>80.0</ele><time>2026-05-02T09:51:10.403Z</time></trkpt><trkpt lat="52.904795" lon="-0.6722333"><ele>80.0</ele><time>2026-05-02T09:51:11.403Z</time></trkpt><trkpt lat="52.9050283" lon="-0.6724167"><ele>80.5</ele><time>2026-05-02T09:51:12.403Z</time></trkpt><trkpt lat="52.9052617" lon="-0.6725933"><ele>81.0</ele><time>2026-05-02T09:51:13.405Z</time></trkpt><trkpt lat="52.9054933" lon="-0.6727667"><ele>81.5</ele><time>2026-05-02T09:51:14.404Z</time></trkpt><trkpt lat="52.9057283" lon="-0.6729417"><ele>82.0</ele><time>2026-05-02T09:51:15.403Z</time></trkpt><trkpt lat="52.9059617" lon="-0.673115"><ele>83.0</ele><time>2026-05-02T09:51:16.402Z</time></trkpt><trkpt lat="52.906195" lon="-0.67329"><ele>84.0</ele><time>2026-05-02T09:51:17.403Z</time></trkpt><trkpt lat="52.9064267" lon="-0.673465"><ele>83.5</ele><time>2026-05-02T09:51:18.404Z</time></trkpt><trkpt lat="52.9066583" lon="-0.6736383"><ele>83.0</ele><time>2026-05-02T09:51:19.403Z</time></trkpt><trkpt lat="52.9068867" lon="-0.673815"><ele>83.0</ele><time>2026-05-02T09:51:20.403Z</time></trkpt><trkpt lat="52.907115" lon="-0.6739917"><ele>83.0</ele><time>2026-05-02T09:51:21.403Z</time></trkpt><trkpt lat="52.9073433" lon="-0.674165"><ele>83.0</ele><time>2026-05-02T09:51:22.402Z</time></trkpt><trkpt lat="52.9075667" lon="-0.674335"><ele>83.0</ele><time>2026-05-02T09:51:23.403Z</time></trkpt><trkpt lat="52.90779" lon="-0.6745"><ele>84.5</ele><time>2026-05-02T09:51:24.404Z</time></trkpt><trkpt lat="52.9080133" lon="-0.6746667"><ele>86.0</ele><time>2026-05-02T09:51:25.403Z</time></trkpt><trkpt lat="52.908235" lon="-0.67484"><ele>86.0</ele><time>2026-05-02T09:51:26.403Z</time></trkpt><trkpt lat="52.908455" lon="-0.675015"><ele>86.0</ele><time>2026-05-02T09:51:27.404Z</time></trkpt><trkpt lat="52.9086767" lon="-0.6751883"><ele>85.5</ele><time>2026-05-02T09:51:28.404Z</time></trkpt><trkpt lat="52.9089017" lon="-0.6753567"><ele>85.0</ele><time>2026-05-02T09:51:29.404Z</time></trkpt><trkpt lat="52.909125" lon="-0.675525"><ele>84.5</ele><time>2026-05-02T09:51:30.404Z</time></trkpt><trkpt lat="52.90935" lon="-0.6756867"><ele>84.0</ele><time>2026-05-02T09:51:31.405Z</time></trkpt><trkpt lat="52.909585" lon="-0.67586"><ele>84.0</ele><time>2026-05-02T09:51:32.405Z</time></trkpt><trkpt lat="52.9098233" lon="-0.6760383"><ele>84.0</ele><time>2026-05-02T09:51:33.403Z</time></trkpt><trkpt lat="52.9100683" lon="-0.6762217"><ele>82.0</ele><time>2026-05-02T09:51:34.403Z</time></trkpt><trkpt lat="52.9103167" lon="-0.676405"><ele>80.0</ele><time>2026-05-02T09:51:35.404Z</time></trkpt><trkpt lat="52.9105667" lon="-0.6765883"><ele>80.0</ele><time>2026-05-02T09:51:36.405Z</time></trkpt><trkpt lat="52.9108167" lon="-0.6767733"><ele>80.0</ele><time>2026-05-02T09:51:37.404Z</time></trkpt><trkpt lat="52.9110633" lon="-0.6769567"><ele>82.5</ele><time>2026-05-02T09:51:38.405Z</time></trkpt><trkpt lat="52.9113133" lon="-0.67714"><ele>85.0</ele><time>2026-05-02T09:51:39.404Z</time></trkpt><trkpt lat="52.9115617" lon="-0.6773217"><ele>86.0</ele><time>2026-05-02T09:51:40.402Z</time></trkpt><trkpt lat="52.9118117" lon="-0.6775067"><ele>87.0</ele><time>2026-05-02T09:51:41.406Z</time></trkpt><trkpt lat="52.91206" lon="-0.67769"><ele>87.0</ele><time>2026-05-02T09:51:42.402Z</time></trkpt><trkpt lat="52.91231" lon="-0.6778683"><ele>87.0</ele><time>2026-05-02T09:51:43.406Z</time></trkpt><trkpt lat="52.9125617" lon="-0.6780433"><ele>88.5</ele><time>2026-05-02T09:51:44.402Z</time></trkpt><trkpt lat="52.9128117" lon="-0.6782117"><ele>90.0</ele><time>2026-05-02T09:51:45.405Z</time></trkpt><trkpt lat="52.9130617" lon="-0.67838"><ele>90.0</ele><time>2026-05-02T09:51:46.404Z</time></trkpt><trkpt lat="52.9133133" lon="-0.6785467"><ele>90.0</ele><time>2026-05-02T09:51:47.404Z</time></trkpt><trkpt lat="52.9135667" lon="-0.6787083"><ele>90.0</ele><time>2026-05-02T09:51:48.403Z</time></trkpt><trkpt lat="52.91382" lon="-0.6788633"><ele>90.0</ele><time>2026-05-02T09:51:49.404Z</time></trkpt><trkpt lat="52.9140767" lon="-0.6790167"><ele>88.5</ele><time>2026-05-02T09:51:50.403Z</time></trkpt><trkpt lat="52.9143367" lon="-0.6791583"><ele>87.0</ele><time>2026-05-02T09:51:51.404Z</time></trkpt><trkpt lat="52.9145933" lon="-0.6792983"><ele>87.0</ele><time>2026-05-02T09:51:52.402Z</time></trkpt><trkpt lat="52.9148533" lon="-0.6794333"><ele>87.0</ele><time>2026-05-02T09:51:53.404Z</time></trkpt><trkpt lat="52.9151117" lon="-0.679565"><ele>86.0</ele><time>2026-05-02T09:51:54.403Z</time></trkpt><trkpt lat="52.9153733" lon="-0.6796933"><ele>85.0</ele><time>2026-05-02T09:51:55.404Z</time></trkpt><trkpt lat="52.9156333" lon="-0.6798167"><ele>85.0</ele><time>2026-05-02T09:51:56.408Z</time></trkpt><trkpt lat="52.9158933" lon="-0.67994"><ele>85.0</ele><time>2026-05-02T09:51:57.404Z</time></trkpt><trkpt lat="52.9161517" lon="-0.6800633"><ele>86.0</ele><time>2026-05-02T09:51:58.403Z</time></trkpt><trkpt lat="52.91641" lon="-0.6801833"><ele>87.0</ele><time>2026-05-02T09:51:59.402Z</time></trkpt><trkpt lat="52.91667" lon="-0.6802967"><ele>87.0</ele><time>2026-05-02T09:52:00.404Z</time></trkpt><trkpt lat="52.9169317" lon="-0.6804067"><ele>87.0</ele><time>2026-05-02T09:52:01.405Z</time></trkpt><trkpt lat="52.917195" lon="-0.680515"><ele>87.0</ele><time>2026-05-02T09:52:02.403Z</time></trkpt><trkpt lat="52.9174567" lon="-0.6806133"><ele>87.0</ele><time>2026-05-02T09:52:03.403Z</time></trkpt><trkpt lat="52.91772" lon="-0.6807083"><ele>87.5</ele><time>2026-05-02T09:52:04.402Z</time></trkpt><trkpt lat="52.917985" lon="-0.6808033"><ele>88.0</ele><time>2026-05-02T09:52:05.403Z</time></trkpt><trkpt lat="52.9182517" lon="-0.6809017"><ele>89.5</ele><time>2026-05-02T09:52:06.403Z</time></trkpt><trkpt lat="52.91852" lon="-0.6809967"><ele>91.0</ele><time>2026-05-02T09:52:07.403Z</time></trkpt><trkpt lat="52.9187867" lon="-0.6810833"><ele>92.0</ele><time>2026-05-02T09:52:08.403Z</time></trkpt><trkpt lat="52.9190467" lon="-0.6811583"><ele>93.0</ele><time>2026-05-02T09:52:09.403Z</time></trkpt><trkpt lat="52.9193133" lon="-0.6812217"><ele>94.5</ele><time>2026-05-02T09:52:10.403Z</time></trkpt><trkpt lat="52.9195783" lon="-0.681285"><ele>96.0</ele><time>2026-05-02T09:52:11.405Z</time></trkpt><trkpt lat="52.919845" lon="-0.6813517"><ele>95.0</ele><time>2026-05-02T09:52:12.404Z</time></trkpt><trkpt lat="52.9201133" lon="-0.6814217"><ele>94.0</ele><time>2026-05-02T09:52:13.403Z</time></trkpt><trkpt lat="52.9203817" lon="-0.6814933"><ele>94.0</ele><time>2026-05-02T09:52:14.403Z</time></trkpt><trkpt lat="52.9206483" lon="-0.681565"><ele>94.0</ele><time>2026-05-02T09:52:15.404Z</time></trkpt><trkpt lat="52.9209133" lon="-0.681635"><ele>95.0</ele><time>2026-05-02T09:52:16.403Z</time></trkpt><trkpt lat="52.9211817" lon="-0.681705"><ele>96.0</ele><time>2026-05-02T09:52:17.403Z</time></trkpt><trkpt lat="52.9214483" lon="-0.6817717"><ele>96.0</ele><time>2026-05-02T09:52:18.403Z</time></trkpt><trkpt lat="52.9217183" lon="-0.6818383"><ele>96.0</ele><time>2026-05-02T09:52:19.403Z</time></trkpt><trkpt lat="52.9219883" lon="-0.6819117"><ele>97.0</ele><time>2026-05-02T09:52:20.405Z</time></trkpt><trkpt lat="52.9222567" lon="-0.6819883"><ele>98.0</ele><time>2026-05-02T09:52:21.403Z</time></trkpt><trkpt lat="52.9225233" lon="-0.6820633"><ele>96.5</ele><time>2026-05-02T09:52:22.403Z</time></trkpt><trkpt lat="52.9227933" lon="-0.6821283"><ele>95.0</ele><time>2026-05-02T09:52:23.405Z</time></trkpt><trkpt lat="52.923065" lon="-0.6821933"><ele>95.0</ele><time>2026-05-02T09:52:24.403Z</time></trkpt><trkpt lat="52.9233383" lon="-0.682255"><ele>95.0</ele><time>2026-05-02T09:52:25.404Z</time></trkpt><trkpt lat="52.9236117" lon="-0.6823183"><ele>92.0</ele><time>2026-05-02T09:52:26.403Z</time></trkpt><trkpt lat="52.9238817" lon="-0.6823833"><ele>89.0</ele><time>2026-05-02T09:52:27.403Z</time></trkpt><trkpt lat="52.9241533" lon="-0.68245"><ele>87.5</ele><time>2026-05-02T09:52:28.402Z</time></trkpt><trkpt lat="52.9244217" lon="-0.6825133"><ele>86.0</ele><time>2026-05-02T09:52:29.403Z</time></trkpt><trkpt lat="52.9246883" lon="-0.6825767"><ele>86.0</ele><time>2026-05-02T09:52:30.403Z</time></trkpt><trkpt lat="52.924955" lon="-0.6826433"><ele>86.0</ele><time>2026-05-02T09:52:31.402Z</time></trkpt><trkpt lat="52.9252267" lon="-0.6827067"><ele>82.0</ele><time>2026-05-02T09:52:32.404Z</time></trkpt><trkpt lat="52.925495" lon="-0.6827667"><ele>78.0</ele><time>2026-05-02T09:52:33.403Z</time></trkpt><trkpt lat="52.9257583" lon="-0.6828283"><ele>76.5</ele><time>2026-05-02T09:52:34.402Z</time></trkpt><trkpt lat="52.9260267" lon="-0.6828967"><ele>75.0</ele><time>2026-05-02T09:52:35.404Z</time></trkpt><trkpt lat="52.9263" lon="-0.6829617"><ele>75.0</ele><time>2026-05-02T09:52:36.403Z</time></trkpt><trkpt lat="52.92657" lon="-0.6830233"><ele>75.0</ele><time>2026-05-02T09:52:37.403Z</time></trkpt><trkpt lat="52.926835" lon="-0.6830817"><ele>74.5</ele><time>2026-05-02T09:52:38.404Z</time></trkpt><trkpt lat="52.9271" lon="-0.6831383"><ele>74.0</ele><time>2026-05-02T09:52:39.403Z</time></trkpt><trkpt lat="52.9273567" lon="-0.6831967"><ele>71.5</ele><time>2026-05-02T09:52:40.404Z</time></trkpt><trkpt lat="52.927605" lon="-0.6832583"><ele>69.0</ele><time>2026-05-02T09:52:41.404Z</time></trkpt><trkpt lat="52.9278433" lon="-0.683315"><ele>69.0</ele><time>2026-05-02T09:52:42.406Z</time></trkpt><trkpt lat="52.9280733" lon="-0.683365"><ele>69.0</ele><time>2026-05-02T09:52:43.403Z</time></trkpt><trkpt lat="52.928295" lon="-0.6834117"><ele>69.0</ele><time>2026-05-02T09:52:44.405Z</time></trkpt><trkpt lat="52.9285083" lon="-0.6834617"><ele>69.0</ele><time>2026-05-02T09:52:45.401Z</time></trkpt><trkpt lat="52.9287233" lon="-0.683515"><ele>69.0</ele><time>2026-05-02T09:52:46.405Z</time></trkpt><trkpt lat="52.9289367" lon="-0.6835683"><ele>67.66666666666667</ele><time>2026-05-02T09:52:47.402Z</time></trkpt><trkpt lat="52.929155" lon="-0.683625"><ele>66.33333333333334</ele><time>2026-05-02T09:52:48.403Z</time></trkpt><trkpt lat="52.9293783" lon="-0.6836833"><ele>65.0</ele><time>2026-05-02T09:52:49.402Z</time></trkpt><trkpt lat="52.929605" lon="-0.683745"><ele>64.0</ele><time>2026-05-02T09:52:50.403Z</time></trkpt><trkpt lat="52.92984" lon="-0.6838067"><ele>63.0</ele><time>2026-05-02T09:52:51.406Z</time></trkpt><trkpt lat="52.9300783" lon="-0.6838617"><ele>62.5</ele><time>2026-05-02T09:52:52.401Z</time></trkpt><trkpt lat="52.930325" lon="-0.6839167"><ele>62.0</ele><time>2026-05-02T09:52:53.402Z</time></trkpt><trkpt lat="52.9305683" lon="-0.6839767"><ele>62.0</ele><time>2026-05-02T09:52:54.403Z</time></trkpt><trkpt lat="52.9307983" lon="-0.684035"><ele>62.0</ele><time>2026-05-02T09:52:55.402Z</time></trkpt><trkpt lat="52.9310183" lon="-0.6840867"><ele>62.0</ele><time>2026-05-02T09:52:56.403Z</time></trkpt><trkpt lat="52.9312333" lon="-0.684135"><ele>62.0</ele><time>2026-05-02T09:52:57.404Z</time></trkpt><trkpt lat="52.9314467" lon="-0.6841817"><ele>62.0</ele><time>2026-05-02T09:52:58.402Z</time></trkpt><trkpt lat="52.9316583" lon="-0.684225"><ele>63.66666666666667</ele><time>2026-05-02T09:52:59.402Z</time></trkpt><trkpt lat="52.9318683" lon="-0.68427"><ele>65.33333333333333</ele><time>2026-05-02T09:53:00.406Z</time></trkpt><trkpt lat="52.9320783" lon="-0.6843217"><ele>67.0</ele><time>2026-05-02T09:53:01.402Z</time></trkpt><trkpt lat="52.9322867" lon="-0.6843817"><ele>65.66666666666666</ele><time>2026-05-02T09:53:02.401Z</time></trkpt><trkpt lat="52.9325" lon="-0.6844417"><ele>64.33333333333333</ele><time>2026-05-02T09:53:03.402Z</time></trkpt><trkpt lat="52.9327183" lon="-0.6844933"><ele>63.0</ele><time>2026-05-02T09:53:04.403Z</time></trkpt><trkpt lat="52.9329417" lon="-0.6845417"><ele>62.5</ele><time>2026-05-02T09:53:05.402Z</time></trkpt><trkpt lat="52.93317" lon="-0.6845917"><ele>62.0</ele><time>2026-05-02T09:53:06.402Z</time></trkpt><trkpt lat="52.933395" lon="-0.68464"><ele>63.0</ele><time>2026-05-02T09:53:07.402Z</time></trkpt><trkpt lat="52.9336167" lon="-0.68469"><ele>64.0</ele><time>2026-05-02T09:53:08.405Z</time></trkpt><trkpt lat="52.9338317" lon="-0.6847417"><ele>65.0</ele><time>2026-05-02T09:53:09.41Z</time></trkpt><trkpt lat="52.9340383" lon="-0.6847917"><ele>65.66666666666667</ele><time>2026-05-02T09:53:10.402Z</time></trkpt><trkpt lat="52.93424" lon="-0.68484"><ele>66.33333333333333</ele><time>2026-05-02T09:53:11.403Z</time></trkpt><trkpt lat="52.9344383" lon="-0.6848883"><ele>67.0</ele><time>2026-05-02T09:53:12.402Z</time></trkpt><trkpt lat="52.9346367" lon="-0.6849317"><ele>67.0</ele><time>2026-05-02T09:53:13.402Z</time></trkpt><trkpt lat="52.9348417" lon="-0.6849733"><ele>67.0</ele><time>2026-05-02T09:53:14.403Z</time></trkpt><trkpt lat="52.935055" lon="-0.6850117"><ele>67.0</ele><time>2026-05-02T09:53:15.402Z</time></trkpt><trkpt lat="52.9352667" lon="-0.6850533"><ele>66.0</ele><time>2026-05-02T09:53:16.402Z</time></trkpt><trkpt lat="52.935465" lon="-0.685095"><ele>65.0</ele><time>2026-05-02T09:53:17.405Z</time></trkpt><trkpt lat="52.93566" lon="-0.6851333"><ele>64.0</ele><time>2026-05-02T09:53:18.403Z</time></trkpt><trkpt lat="52.9358633" lon="-0.6851717"><ele>63.666666666666664</ele><time>2026-05-02T09:53:19.402Z</time></trkpt><trkpt lat="52.9360817" lon="-0.6852067"><ele>63.33333333333333</ele><time>2026-05-02T09:53:20.403Z</time></trkpt><trkpt lat="52.9363083" lon="-0.68523"><ele>63.0</ele><time>2026-05-02T09:53:21.403Z</time></trkpt><trkpt lat="52.9365367" lon="-0.685255"><ele>59.5</ele><time>2026-05-02T09:53:22.403Z</time></trkpt><trkpt lat="52.9367733" lon="-0.68527"><ele>56.0</ele><time>2026-05-02T09:53:23.402Z</time></trkpt><trkpt lat="52.9370133" lon="-0.6852783"><ele>56.0</ele><time>2026-05-02T09:53:24.403Z</time></trkpt><trkpt lat="52.9372483" lon="-0.685285"><ele>56.0</ele><time>2026-05-02T09:53:25.402Z</time></trkpt><trkpt lat="52.9374733" lon="-0.68528"><ele>56.0</ele><time>2026-05-02T09:53:26.403Z</time></trkpt><trkpt lat="52.9376883" lon="-0.6852667"><ele>56.0</ele><time>2026-05-02T09:53:27.403Z</time></trkpt><trkpt lat="52.937895" lon="-0.6852483"><ele>56.0</ele><time>2026-05-02T09:53:28.403Z</time></trkpt><trkpt lat="52.9380967" lon="-0.6852333"><ele>56.0</ele><time>2026-05-02T09:53:29.403Z</time></trkpt><trkpt lat="52.9383083" lon="-0.6852183"><ele>56.0</ele><time>2026-05-02T09:53:30.402Z</time></trkpt><trkpt lat="52.9385283" lon="-0.6852"><ele>56.0</ele><time>2026-05-02T09:53:31.402Z</time></trkpt><trkpt lat="52.9387567" lon="-0.68517"><ele>55.5</ele><time>2026-05-02T09:53:32.402Z</time></trkpt><trkpt lat="52.9389933" lon="-0.68513"><ele>55.0</ele><time>2026-05-02T09:53:33.402Z</time></trkpt><trkpt lat="52.9392383" lon="-0.6850917"><ele>54.0</ele><time>2026-05-02T09:53:34.402Z</time></trkpt><trkpt lat="52.93948" lon="-0.6850517"><ele>53.0</ele><time>2026-05-02T09:53:35.403Z</time></trkpt><trkpt lat="52.9397133" lon="-0.6850117"><ele>53.0</ele><time>2026-05-02T09:53:36.403Z</time></trkpt><trkpt lat="52.939935" lon="-0.6849733"><ele>53.0</ele><time>2026-05-02T09:53:37.405Z</time></trkpt><trkpt lat="52.940145" lon="-0.6849467"><ele>53.0</ele><time>2026-05-02T09:53:38.403Z</time></trkpt><trkpt lat="52.9403483" lon="-0.6849167"><ele>51.66666666666667</ele><time>2026-05-02T09:53:39.403Z</time></trkpt><trkpt lat="52.940545" lon="-0.684885"><ele>50.33333333333333</ele><time>2026-05-02T09:53:40.402Z</time></trkpt><trkpt lat="52.9407333" lon="-0.68485"><ele>49.0</ele><time>2026-05-02T09:53:41.404Z</time></trkpt><trkpt lat="52.9409167" lon="-0.6848117"><ele>48.0</ele><time>2026-05-02T09:53:42.403Z</time></trkpt><trkpt lat="52.9411083" lon="-0.6847667"><ele>47.0</ele><time>2026-05-02T09:53:43.402Z</time></trkpt><trkpt lat="52.9413117" lon="-0.6847067"><ele>46.0</ele><time>2026-05-02T09:53:44.406Z</time></trkpt><trkpt lat="52.9415333" lon="-0.6846383"><ele>46.0</ele><time>2026-05-02T09:53:45.403Z</time></trkpt><trkpt lat="52.9417683" lon="-0.6845633"><ele>46.0</ele><time>2026-05-02T09:53:46.402Z</time></trkpt><trkpt lat="52.9420133" lon="-0.68448"><ele>45.5</ele><time>2026-05-02T09:53:47.403Z</time></trkpt><trkpt lat="52.9422517" lon="-0.6843867"><ele>45.0</ele><time>2026-05-02T09:53:48.406Z</time></trkpt><trkpt lat="52.9424717" lon="-0.6842967"><ele>44.666666666666664</ele><time>2026-05-02T09:53:49.407Z</time></trkpt><trkpt lat="52.94268" lon="-0.68421"><ele>44.33333333333333</ele><time>2026-05-02T09:53:50.403Z</time></trkpt><trkpt lat="52.942885" lon="-0.6841233"><ele>44.0</ele><time>2026-05-02T09:53:51.402Z</time></trkpt><trkpt lat="52.9430883" lon="-0.6840283"><ele>44.0</ele><time>2026-05-02T09:53:52.402Z</time></trkpt><trkpt lat="52.9432883" lon="-0.6839333"><ele>44.0</ele><time>2026-05-02T09:53:53.402Z</time></trkpt><trkpt lat="52.94349" lon="-0.683835"><ele>44.0</ele><time>2026-05-02T09:53:54.403Z</time></trkpt><trkpt lat="52.9436883" lon="-0.6837317"><ele>43.666666666666664</ele><time>2026-05-02T09:53:55.402Z</time></trkpt><trkpt lat="52.9438783" lon="-0.683635"><ele>43.333333333333336</ele><time>2026-05-02T09:53:56.402Z</time></trkpt><trkpt lat="52.94406" lon="-0.6835583"><ele>43.0</ele><time>2026-05-02T09:53:57.405Z</time></trkpt><trkpt lat="52.9442367" lon="-0.6834883"><ele>42.66666666666667</ele><time>2026-05-02T09:53:58.403Z</time></trkpt><trkpt lat="52.94441" lon="-0.6834233"><ele>42.333333333333336</ele><time>2026-05-02T09:53:59.403Z</time></trkpt><trkpt lat="52.9445817" lon="-0.683365"><ele>42.0</ele><time>2026-05-02T09:54:00.405Z</time></trkpt><trkpt lat="52.9447583" lon="-0.683305"><ele>42.0</ele><time>2026-05-02T09:54:01.402Z</time></trkpt><trkpt lat="52.9449467" lon="-0.68324"><ele>42.0</ele><time>2026-05-02T09:54:02.403Z</time></trkpt><trkpt lat="52.945145" lon="-0.683175"><ele>42.0</ele><time>2026-05-02T09:54:03.403Z</time></trkpt><trkpt lat="52.9453533" lon="-0.6831117"><ele>43.0</ele><time>2026-05-02T09:54:04.405Z</time></trkpt><trkpt lat="52.9455717" lon="-0.683055"><ele>44.0</ele><time>2026-05-02T09:54:05.403Z</time></trkpt><trkpt lat="52.9457983" lon="-0.6829933"><ele>43.0</ele><time>2026-05-02T09:54:06.404Z</time></trkpt><trkpt lat="52.9460367" lon="-0.6829367"><ele>42.0</ele><time>2026-05-02T09:54:07.403Z</time></trkpt><trkpt lat="52.9462867" lon="-0.682885"><ele>42.0</ele><time>2026-05-02T09:54:08.407Z</time></trkpt><trkpt lat="52.9465417" lon="-0.68284"><ele>42.0</ele><time>2026-05-02T09:54:09.404Z</time></trkpt><trkpt lat="52.94679" lon="-0.6828"><ele>42.0</ele><time>2026-05-02T09:54:10.403Z</time></trkpt><trkpt lat="52.94703" lon="-0.68277"><ele>42.0</ele><time>2026-05-02T09:54:11.405Z</time></trkpt><trkpt lat="52.9472683" lon="-0.6827367"><ele>42.0</ele><time>2026-05-02T09:54:12.405Z</time></trkpt><trkpt lat="52.947505" lon="-0.6827167"><ele>42.0</ele><time>2026-05-02T09:54:13.405Z</time></trkpt><trkpt lat="52.9477433" lon="-0.6827017"><ele>40.5</ele><time>2026-05-02T09:54:14.402Z</time></trkpt><trkpt lat="52.9479833" lon="-0.682685"><ele>39.0</ele><time>2026-05-02T09:54:15.402Z</time></trkpt><trkpt lat="52.9482233" lon="-0.6826617"><ele>40.0</ele><time>2026-05-02T09:54:16.402Z</time></trkpt><trkpt lat="52.9484633" lon="-0.6826433"><ele>41.0</ele><time>2026-05-02T09:54:17.406Z</time></trkpt><trkpt lat="52.9487033" lon="-0.6826267"><ele>41.0</ele><time>2026-05-02T09:54:18.403Z</time></trkpt><trkpt lat="52.948945" lon="-0.6826083"><ele>41.0</ele><time>2026-05-02T09:54:19.406Z</time></trkpt><trkpt lat="52.949185" lon="-0.6825917"><ele>40.0</ele><time>2026-05-02T09:54:20.405Z</time></trkpt><trkpt lat="52.9494283" lon="-0.682575"><ele>39.0</ele><time>2026-05-02T09:54:21.405Z</time></trkpt><trkpt lat="52.9496667" lon="-0.6825633"><ele>39.0</ele><time>2026-05-02T09:54:22.402Z</time></trkpt><trkpt lat="52.94991" lon="-0.6825533"><ele>39.0</ele><time>2026-05-02T09:54:23.405Z</time></trkpt><trkpt lat="52.9501583" lon="-0.6825467"><ele>38.5</ele><time>2026-05-02T09:54:24.406Z</time></trkpt><trkpt lat="52.9504117" lon="-0.6825417"><ele>38.0</ele><time>2026-05-02T09:54:25.402Z</time></trkpt><trkpt lat="52.95067" lon="-0.6825433"><ele>37.5</ele><time>2026-05-02T09:54:26.403Z</time></trkpt><trkpt lat="52.950935" lon="-0.682555"><ele>37.0</ele><time>2026-05-02T09:54:27.403Z</time></trkpt><trkpt lat="52.9512117" lon="-0.68257"><ele>37.0</ele><time>2026-05-02T09:54:28.404Z</time></trkpt><trkpt lat="52.95149" lon="-0.6825967"><ele>37.0</ele><time>2026-05-02T09:54:29.403Z</time></trkpt><trkpt lat="52.9517633" lon="-0.68264"><ele>37.0</ele><time>2026-05-02T09:54:30.402Z</time></trkpt><trkpt lat="52.9520383" lon="-0.68269"><ele>37.0</ele><time>2026-05-02T09:54:31.402Z</time></trkpt><trkpt lat="52.9523083" lon="-0.68275"><ele>36.5</ele><time>2026-05-02T09:54:32.402Z</time></trkpt><trkpt lat="52.9525717" lon="-0.6828267"><ele>36.0</ele><time>2026-05-02T09:54:33.403Z</time></trkpt><trkpt lat="52.952835" lon="-0.6829167"><ele>36.0</ele><time>2026-05-02T09:54:34.402Z</time></trkpt><trkpt lat="52.953095" lon="-0.6830217"><ele>36.0</ele><time>2026-05-02T09:54:35.402Z</time></trkpt><trkpt lat="52.953355" lon="-0.6831383"><ele>36.0</ele><time>2026-05-02T09:54:36.403Z</time></trkpt><trkpt lat="52.9536167" lon="-0.68327"><ele>36.0</ele><time>2026-05-02T09:54:37.403Z</time></trkpt><trkpt lat="52.9538833" lon="-0.683415"><ele>36.0</ele><time>2026-05-02T09:54:38.402Z</time></trkpt><trkpt lat="52.954145" lon="-0.68357"><ele>36.0</ele><time>2026-05-02T09:54:39.402Z</time></trkpt><trkpt lat="52.9543983" lon="-0.68373"><ele>36.0</ele><time>2026-05-02T09:54:40.403Z</time></trkpt><trkpt lat="52.9546367" lon="-0.683895"><ele>36.0</ele><time>2026-05-02T09:54:41.402Z</time></trkpt><trkpt lat="52.9548717" lon="-0.6840533"><ele>36.0</ele><time>2026-05-02T09:54:42.402Z</time></trkpt><trkpt lat="52.9551017" lon="-0.684225"><ele>36.0</ele><time>2026-05-02T09:54:43.406Z</time></trkpt><trkpt lat="52.95533" lon="-0.68441"><ele>35.5</ele><time>2026-05-02T09:54:44.405Z</time></trkpt><trkpt lat="52.955555" lon="-0.6846117"><ele>35.0</ele><time>2026-05-02T09:54:45.407Z</time></trkpt><trkpt lat="52.9557783" lon="-0.6848233"><ele>35.0</ele><time>2026-05-02T09:54:46.403Z</time></trkpt><trkpt lat="52.9560033" lon="-0.685035"><ele>35.0</ele><time>2026-05-02T09:54:47.402Z</time></trkpt><trkpt lat="52.9562233" lon="-0.6852567"><ele>34.5</ele><time>2026-05-02T09:54:48.406Z</time></trkpt><trkpt lat="52.9564467" lon="-0.68548"><ele>34.0</ele><time>2026-05-02T09:54:49.406Z</time></trkpt><trkpt lat="52.9566733" lon="-0.6857033"><ele>34.0</ele><time>2026-05-02T09:54:50.406Z</time></trkpt><trkpt lat="52.9569" lon="-0.6859333"><ele>34.0</ele><time>2026-05-02T09:54:51.405Z</time></trkpt><trkpt lat="52.9571267" lon="-0.6861633"><ele>34.0</ele><time>2026-05-02T09:54:52.405Z</time></trkpt><trkpt lat="52.957355" lon="-0.6863967"><ele>34.0</ele><time>2026-05-02T09:54:53.406Z</time></trkpt><trkpt lat="52.957585" lon="-0.6866283"><ele>34.0</ele><time>2026-05-02T09:54:54.406Z</time></trkpt><trkpt lat="52.9578133" lon="-0.6868583"><ele>34.0</ele><time>2026-05-02T09:54:55.406Z</time></trkpt><trkpt lat="52.9580433" lon="-0.68709"><ele>34.0</ele><time>2026-05-02T09:54:56.405Z</time></trkpt><trkpt lat="52.9582733" lon="-0.68732"><ele>34.0</ele><time>2026-05-02T09:54:57.405Z</time></trkpt><trkpt lat="52.9585017" lon="-0.6875483"><ele>33.5</ele><time>2026-05-02T09:54:58.406Z</time></trkpt><trkpt lat="52.95873" lon="-0.6877767"><ele>33.0</ele><time>2026-05-02T09:54:59.405Z</time></trkpt><trkpt lat="52.9589583" lon="-0.6880083"><ele>33.0</ele><time>2026-05-02T09:55:00.404Z</time></trkpt><trkpt lat="52.9591867" lon="-0.6882383"><ele>33.0</ele><time>2026-05-02T09:55:01.403Z</time></trkpt><trkpt lat="52.959415" lon="-0.6884667"><ele>33.0</ele><time>2026-05-02T09:55:02.405Z</time></trkpt><trkpt lat="52.959645" lon="-0.688695"><ele>33.0</ele><time>2026-05-02T09:55:03.405Z</time></trkpt><trkpt lat="52.9598767" lon="-0.688925"><ele>32.5</ele><time>2026-05-02T09:55:04.405Z</time></trkpt><trkpt lat="52.9601067" lon="-0.6891533"><ele>32.0</ele><time>2026-05-02T09:55:05.405Z</time></trkpt><trkpt lat="52.9603333" lon="-0.6893833"><ele>32.0</ele><time>2026-05-02T09:55:06.402Z</time></trkpt><trkpt lat="52.960565" lon="-0.689615"><ele>32.0</ele><time>2026-05-02T09:55:07.405Z</time></trkpt><trkpt lat="52.960795" lon="-0.6898467"><ele>32.0</ele><time>2026-05-02T09:55:08.404Z</time></trkpt><trkpt lat="52.961025" lon="-0.6900767"><ele>32.0</ele><time>2026-05-02T09:55:09.405Z</time></trkpt><trkpt lat="52.961255" lon="-0.6903033"><ele>32.0</ele><time>2026-05-02T09:55:10.405Z</time></trkpt><trkpt lat="52.961485" lon="-0.69053"><ele>32.0</ele><time>2026-05-02T09:55:11.406Z</time></trkpt><trkpt lat="52.9617133" lon="-0.6907617"><ele>32.0</ele><time>2026-05-02T09:55:12.402Z</time></trkpt><trkpt lat="52.9619333" lon="-0.6910083"><ele>32.0</ele><time>2026-05-02T09:55:13.405Z</time></trkpt><trkpt lat="52.96215" lon="-0.691265"><ele>32.5</ele><time>2026-05-02T09:55:14.405Z</time></trkpt><trkpt lat="52.9623583" lon="-0.6915417"><ele>33.0</ele><time>2026-05-02T09:55:15.403Z</time></trkpt><trkpt lat="52.9625633" lon="-0.6918283"><ele>33.5</ele><time>2026-05-02T09:55:16.404Z</time></trkpt><trkpt lat="52.962765" lon="-0.692125"><ele>34.0</ele><time>2026-05-02T09:55:17.407Z</time></trkpt><trkpt lat="52.9629633" lon="-0.6924267"><ele>34.0</ele><time>2026-05-02T09:55:18.402Z</time></trkpt><trkpt lat="52.9631567" lon="-0.692735"><ele>34.0</ele><time>2026-05-02T09:55:19.406Z</time></trkpt><trkpt lat="52.96334" lon="-0.693055"><ele>34.0</ele><time>2026-05-02T09:55:20.406Z</time></trkpt><trkpt lat="52.96351" lon="-0.6933933"><ele>34.0</ele><time>2026-05-02T09:55:21.405Z</time></trkpt><trkpt lat="52.9636733" lon="-0.69374"><ele>33.5</ele><time>2026-05-02T09:55:22.405Z</time></trkpt><trkpt lat="52.96383" lon="-0.6940917"><ele>33.0</ele><time>2026-05-02T09:55:23.406Z</time></trkpt><trkpt lat="52.9639833" lon="-0.69445"><ele>32.5</ele><time>2026-05-02T09:55:24.406Z</time></trkpt><trkpt lat="52.96413" lon="-0.694815"><ele>32.0</ele><time>2026-05-02T09:55:25.405Z</time></trkpt><trkpt lat="52.9642767" lon="-0.6951867"><ele>32.0</ele><time>2026-05-02T09:55:26.404Z</time></trkpt><trkpt lat="52.9644233" lon="-0.69556"><ele>32.0</ele><time>2026-05-02T09:55:27.403Z</time></trkpt><trkpt lat="52.9645717" lon="-0.695935"><ele>32.0</ele><time>2026-05-02T09:55:28.402Z</time></trkpt><trkpt lat="52.96472" lon="-0.6963083"><ele>32.0</ele><time>2026-05-02T09:55:29.402Z</time></trkpt><trkpt lat="52.9648683" lon="-0.6966817"><ele>32.0</ele><time>2026-05-02T09:55:30.402Z</time></trkpt><trkpt lat="52.9650117" lon="-0.6970533"><ele>32.0</ele><time>2026-05-02T09:55:31.409Z</time></trkpt><trkpt lat="52.9651567" lon="-0.697425"><ele>32.0</ele><time>2026-05-02T09:55:32.406Z</time></trkpt><trkpt lat="52.9653033" lon="-0.6977967"><ele>32.0</ele><time>2026-05-02T09:55:33.406Z</time></trkpt><trkpt lat="52.9654517" lon="-0.698165"><ele>32.0</ele><time>2026-05-02T09:55:34.406Z</time></trkpt><trkpt lat="52.9655967" lon="-0.69854"><ele>32.0</ele><time>2026-05-02T09:55:35.406Z</time></trkpt><trkpt lat="52.96574" lon="-0.698915"><ele>32.0</ele><time>2026-05-02T09:55:36.405Z</time></trkpt><trkpt lat="52.9658867" lon="-0.6992833"><ele>32.0</ele><time>2026-05-02T09:55:37.405Z</time></trkpt><trkpt lat="52.9660333" lon="-0.6996517"><ele>32.0</ele><time>2026-05-02T09:55:38.406Z</time></trkpt><trkpt lat="52.9661783" lon="-0.7000267"><ele>32.0</ele><time>2026-05-02T09:55:39.402Z</time></trkpt><trkpt lat="52.9663267" lon="-0.7004"><ele>32.0</ele><time>2026-05-02T09:55:40.403Z</time></trkpt><trkpt lat="52.9664717" lon="-0.7007733"><ele>32.0</ele><time>2026-05-02T09:55:41.406Z</time></trkpt><trkpt lat="52.9666183" lon="-0.701145"><ele>31.5</ele><time>2026-05-02T09:55:42.405Z</time></trkpt><trkpt lat="52.9667633" lon="-0.7015217"><ele>31.0</ele><time>2026-05-02T09:55:43.405Z</time></trkpt><trkpt lat="52.966905" lon="-0.7019"><ele>31.5</ele><time>2026-05-02T09:55:44.407Z</time></trkpt><trkpt lat="52.9670483" lon="-0.70227"><ele>32.0</ele><time>2026-05-02T09:55:45.406Z</time></trkpt><trkpt lat="52.9671917" lon="-0.70264"><ele>32.5</ele><time>2026-05-02T09:55:46.405Z</time></trkpt><trkpt lat="52.9673367" lon="-0.70301"><ele>33.0</ele><time>2026-05-02T09:55:47.405Z</time></trkpt><trkpt lat="52.9674833" lon="-0.7033783"><ele>32.5</ele><time>2026-05-02T09:55:48.407Z</time></trkpt><trkpt lat="52.9676283" lon="-0.7037467"><ele>32.0</ele><time>2026-05-02T09:55:49.405Z</time></trkpt><trkpt lat="52.9677667" lon="-0.7041267"><ele>32.5</ele><time>2026-05-02T09:55:50.405Z</time></trkpt><trkpt lat="52.9679" lon="-0.70451"><ele>33.0</ele><time>2026-05-02T09:55:51.406Z</time></trkpt><trkpt lat="52.9680333" lon="-0.704895"><ele>32.0</ele><time>2026-05-02T09:55:52.405Z</time></trkpt><trkpt lat="52.9681583" lon="-0.7052883"><ele>31.0</ele><time>2026-05-02T09:55:53.406Z</time></trkpt><trkpt lat="52.9682817" lon="-0.7056833"><ele>30.5</ele><time>2026-05-02T09:55:54.405Z</time></trkpt><trkpt lat="52.9684" lon="-0.7060783"><ele>30.0</ele><time>2026-05-02T09:55:55.406Z</time></trkpt><trkpt lat="52.968515" lon="-0.706485"><ele>30.0</ele><time>2026-05-02T09:55:56.405Z</time></trkpt><trkpt lat="52.968625" lon="-0.7068883"><ele>30.0</ele><time>2026-05-02T09:55:57.403Z</time></trkpt><trkpt lat="52.968735" lon="-0.7072933"><ele>30.5</ele><time>2026-05-02T09:55:58.402Z</time></trkpt><trkpt lat="52.968845" lon="-0.7076983"><ele>31.0</ele><time>2026-05-02T09:55:59.409Z</time></trkpt><trkpt lat="52.968955" lon="-0.7081033"><ele>31.5</ele><time>2026-05-02T09:56:00.405Z</time></trkpt><trkpt lat="52.969065" lon="-0.7085033"><ele>32.0</ele><time>2026-05-02T09:56:01.406Z</time></trkpt><trkpt lat="52.9691717" lon="-0.708905"><ele>32.0</ele><time>2026-05-02T09:56:02.405Z</time></trkpt><trkpt lat="52.9692767" lon="-0.7093083"><ele>32.0</ele><time>2026-05-02T09:56:03.405Z</time></trkpt><trkpt lat="52.9693817" lon="-0.7097133"><ele>32.0</ele><time>2026-05-02T09:56:04.407Z</time></trkpt><trkpt lat="52.9694867" lon="-0.7101133"><ele>32.0</ele><time>2026-05-02T09:56:05.405Z</time></trkpt><trkpt lat="52.9695933" lon="-0.71052"><ele>33.0</ele><time>2026-05-02T09:56:06.406Z</time></trkpt><trkpt lat="52.9697083" lon="-0.7109317"><ele>34.0</ele><time>2026-05-02T09:56:07.403Z</time></trkpt><trkpt lat="52.9698317" lon="-0.711355"><ele>33.5</ele><time>2026-05-02T09:56:08.404Z</time></trkpt><trkpt lat="52.969955" lon="-0.7117967"><ele>33.0</ele><time>2026-05-02T09:56:09.405Z</time></trkpt><trkpt lat="52.9700733" lon="-0.7122583"><ele>33.0</ele><time>2026-05-02T09:56:10.405Z</time></trkpt><trkpt lat="52.9701983" lon="-0.7127333"><ele>33.0</ele><time>2026-05-02T09:56:11.405Z</time></trkpt><trkpt lat="52.9703217" lon="-0.713215"><ele>31.0</ele><time>2026-05-02T09:56:12.406Z</time></trkpt><trkpt lat="52.9704483" lon="-0.7137033"><ele>29.0</ele><time>2026-05-02T09:56:13.403Z</time></trkpt><trkpt lat="52.9705733" lon="-0.714195"><ele>30.0</ele><time>2026-05-02T09:56:14.405Z</time></trkpt><trkpt lat="52.9707033" lon="-0.7146867"><ele>31.0</ele><time>2026-05-02T09:56:15.405Z</time></trkpt><trkpt lat="52.9708317" lon="-0.7151817"><ele>33.0</ele><time>2026-05-02T09:56:16.408Z</time></trkpt><trkpt lat="52.9709483" lon="-0.7156783"><ele>35.0</ele><time>2026-05-02T09:56:17.406Z</time></trkpt><trkpt lat="52.9710517" lon="-0.7161783"><ele>35.0</ele><time>2026-05-02T09:56:18.406Z</time></trkpt><trkpt lat="52.9711383" lon="-0.71668"><ele>35.0</ele><time>2026-05-02T09:56:19.405Z</time></trkpt><trkpt lat="52.9712117" lon="-0.7171817"><ele>35.0</ele><time>2026-05-02T09:56:20.405Z</time></trkpt><trkpt lat="52.971265" lon="-0.71769"><ele>35.0</ele><time>2026-05-02T09:56:21.406Z</time></trkpt><trkpt lat="52.9713083" lon="-0.7182"><ele>37.0</ele><time>2026-05-02T09:56:22.405Z</time></trkpt><trkpt lat="52.97135" lon="-0.7187083"><ele>39.0</ele><time>2026-05-02T09:56:23.405Z</time></trkpt><trkpt lat="52.971395" lon="-0.719225"><ele>39.5</ele><time>2026-05-02T09:56:24.406Z</time></trkpt><trkpt lat="52.9714483" lon="-0.7197483"><ele>40.0</ele><time>2026-05-02T09:56:25.406Z</time></trkpt><trkpt lat="52.9715083" lon="-0.7202717"><ele>40.0</ele><time>2026-05-02T09:56:26.405Z</time></trkpt><trkpt lat="52.9715817" lon="-0.7207933"><ele>40.0</ele><time>2026-05-02T09:56:27.402Z</time></trkpt><trkpt lat="52.9716717" lon="-0.7213067"><ele>40.0</ele><time>2026-05-02T09:56:28.402Z</time></trkpt><trkpt lat="52.97178" lon="-0.7218117"><ele>40.0</ele><time>2026-05-02T09:56:29.402Z</time></trkpt><trkpt lat="52.9719133" lon="-0.7223117"><ele>40.0</ele><time>2026-05-02T09:56:30.402Z</time></trkpt><trkpt lat="52.9720567" lon="-0.7228"><ele>40.0</ele><time>2026-05-02T09:56:31.405Z</time></trkpt><trkpt lat="52.9722167" lon="-0.7232917"><ele>40.0</ele><time>2026-05-02T09:56:32.406Z</time></trkpt><trkpt lat="52.9723733" lon="-0.7237883"><ele>40.0</ele><time>2026-05-02T09:56:33.405Z</time></trkpt><trkpt lat="52.9725283" lon="-0.7242933"><ele>39.5</ele><time>2026-05-02T09:56:34.405Z</time></trkpt><trkpt lat="52.9726867" lon="-0.7248017"><ele>39.0</ele><time>2026-05-02T09:56:35.402Z</time></trkpt><trkpt lat="52.972845" lon="-0.7253033"><ele>37.0</ele><time>2026-05-02T09:56:36.403Z</time></trkpt><trkpt lat="52.9729967" lon="-0.7257917"><ele>35.0</ele><time>2026-05-02T09:56:37.406Z</time></trkpt><trkpt lat="52.9731417" lon="-0.7262583"><ele>33.5</ele><time>2026-05-02T09:56:38.405Z</time></trkpt><trkpt lat="52.973285" lon="-0.7267"><ele>32.0</ele><time>2026-05-02T09:56:39.407Z</time></trkpt><trkpt lat="52.9734283" lon="-0.72713"><ele>31.0</ele><time>2026-05-02T09:56:40.405Z</time></trkpt><trkpt lat="52.9735717" lon="-0.7275517"><ele>30.0</ele><time>2026-05-02T09:56:41.405Z</time></trkpt><trkpt lat="52.9737133" lon="-0.727975"><ele>30.0</ele><time>2026-05-02T09:56:42.405Z</time></trkpt><trkpt lat="52.973855" lon="-0.7284"><ele>30.0</ele><time>2026-05-02T09:56:43.405Z</time></trkpt><trkpt lat="52.9739933" lon="-0.72883"><ele>30.0</ele><time>2026-05-02T09:56:44.405Z</time></trkpt><trkpt lat="52.9741317" lon="-0.7292583"><ele>30.0</ele><time>2026-05-02T09:56:45.406Z</time></trkpt><trkpt lat="52.9742717" lon="-0.72968"><ele>29.5</ele><time>2026-05-02T09:56:46.406Z</time></trkpt><trkpt lat="52.974415" lon="-0.7300967"><ele>29.0</ele><time>2026-05-02T09:56:47.405Z</time></trkpt><trkpt lat="52.9745567" lon="-0.730515"><ele>28.5</ele><time>2026-05-02T09:56:48.405Z</time></trkpt><trkpt lat="52.9746983" lon="-0.7309383"><ele>28.0</ele><time>2026-05-02T09:56:49.405Z</time></trkpt><trkpt lat="52.9748383" lon="-0.7313617"><ele>27.5</ele><time>2026-05-02T09:56:50.404Z</time></trkpt><trkpt lat="52.97498" lon="-0.73178"><ele>27.0</ele><time>2026-05-02T09:56:51.402Z</time></trkpt><trkpt lat="52.9751167" lon="-0.7321967"><ele>26.5</ele><time>2026-05-02T09:56:52.406Z</time></trkpt><trkpt lat="52.9752533" lon="-0.732615"><ele>26.0</ele><time>2026-05-02T09:56:53.406Z</time></trkpt><trkpt lat="52.9753833" lon="-0.7330317"><ele>25.5</ele><time>2026-05-02T09:56:54.405Z</time></trkpt><trkpt lat="52.9755167" lon="-0.7334483"><ele>25.0</ele><time>2026-05-02T09:56:55.405Z</time></trkpt><trkpt lat="52.9756483" lon="-0.7338583"><ele>25.0</ele><time>2026-05-02T09:56:56.402Z</time></trkpt><trkpt lat="52.97578" lon="-0.734265"><ele>25.0</ele><time>2026-05-02T09:56:57.403Z</time></trkpt><trkpt lat="52.9759133" lon="-0.7346667"><ele>26.0</ele><time>2026-05-02T09:56:58.402Z</time></trkpt><trkpt lat="52.9760467" lon="-0.7350667"><ele>27.0</ele><time>2026-05-02T09:56:59.403Z</time></trkpt><trkpt lat="52.976175" lon="-0.7354667"><ele>27.0</ele><time>2026-05-02T09:57:00.403Z</time></trkpt><trkpt lat="52.9763083" lon="-0.7358683"><ele>27.0</ele><time>2026-05-02T09:57:01.403Z</time></trkpt><trkpt lat="52.9764417" lon="-0.736265"><ele>26.5</ele><time>2026-05-02T09:57:02.402Z</time></trkpt><trkpt lat="52.97657" lon="-0.7366633"><ele>26.0</ele><time>2026-05-02T09:57:03.402Z</time></trkpt><trkpt lat="52.9766967" lon="-0.7370617"><ele>25.5</ele><time>2026-05-02T09:57:04.403Z</time></trkpt><trkpt lat="52.9768233" lon="-0.7374567"><ele>25.0</ele><time>2026-05-02T09:57:05.403Z</time></trkpt><trkpt lat="52.9769483" lon="-0.737845"><ele>25.0</ele><time>2026-05-02T09:57:06.404Z</time></trkpt><trkpt lat="52.9770733" lon="-0.7382317"><ele>25.0</ele><time>2026-05-02T09:57:07.402Z</time></trkpt><trkpt lat="52.9771967" lon="-0.73862"><ele>25.0</ele><time>2026-05-02T09:57:08.402Z</time></trkpt><trkpt lat="52.9773217" lon="-0.7390067"><ele>25.0</ele><time>2026-05-02T09:57:09.402Z</time></trkpt><trkpt lat="52.977445" lon="-0.739395"><ele>25.5</ele><time>2026-05-02T09:57:10.403Z</time></trkpt><trkpt lat="52.9775717" lon="-0.7397817"><ele>26.0</ele><time>2026-05-02T09:57:11.402Z</time></trkpt><trkpt lat="52.9777017" lon="-0.74017"><ele>25.5</ele><time>2026-05-02T09:57:12.403Z</time></trkpt><trkpt lat="52.97783" lon="-0.7405567"><ele>25.0</ele><time>2026-05-02T09:57:13.402Z</time></trkpt><trkpt lat="52.9779583" lon="-0.7409467"><ele>25.0</ele><time>2026-05-02T09:57:14.402Z</time></trkpt><trkpt lat="52.9780867" lon="-0.7413367"><ele>25.0</ele><time>2026-05-02T09:57:15.407Z</time></trkpt><trkpt lat="52.978215" lon="-0.7417333"><ele>24.5</ele><time>2026-05-02T09:57:16.406Z</time></trkpt><trkpt lat="52.978345" lon="-0.7421317"><ele>24.0</ele><time>2026-05-02T09:57:17.406Z</time></trkpt><trkpt lat="52.9784733" lon="-0.7425267"><ele>23.0</ele><time>2026-05-02T09:57:18.403Z</time></trkpt><trkpt lat="52.978605" lon="-0.7429217"><ele>22.0</ele><time>2026-05-02T09:57:19.404Z</time></trkpt><trkpt lat="52.978735" lon="-0.7433167"><ele>22.0</ele><time>2026-05-02T09:57:20.409Z</time></trkpt><trkpt lat="52.9788667" lon="-0.7437167"><ele>22.0</ele><time>2026-05-02T09:57:21.403Z</time></trkpt><trkpt lat="52.9789983" lon="-0.7441117"><ele>23.0</ele><time>2026-05-02T09:57:22.403Z</time></trkpt><trkpt lat="52.9791283" lon="-0.7445083"><ele>24.0</ele><time>2026-05-02T09:57:23.406Z</time></trkpt><trkpt lat="52.9792567" lon="-0.744905"><ele>24.0</ele><time>2026-05-02T09:57:24.407Z</time></trkpt><trkpt lat="52.979385" lon="-0.7452967"><ele>24.0</ele><time>2026-05-02T09:57:25.402Z</time></trkpt><trkpt lat="52.979515" lon="-0.7456833"><ele>24.5</ele><time>2026-05-02T09:57:26.402Z</time></trkpt><trkpt lat="52.9796417" lon="-0.746065"><ele>25.0</ele><time>2026-05-02T09:57:27.407Z</time></trkpt><trkpt lat="52.9797767" lon="-0.7464483"><ele>25.0</ele><time>2026-05-02T09:57:28.407Z</time></trkpt><trkpt lat="52.9799183" lon="-0.7468267"><ele>25.0</ele><time>2026-05-02T09:57:29.406Z</time></trkpt><trkpt lat="52.9800583" lon="-0.7472083"><ele>25.0</ele><time>2026-05-02T09:57:30.405Z</time></trkpt><trkpt lat="52.9802" lon="-0.747585"><ele>25.0</ele><time>2026-05-02T09:57:31.405Z</time></trkpt><trkpt lat="52.9803433" lon="-0.7479617"><ele>25.0</ele><time>2026-05-02T09:57:32.406Z</time></trkpt><trkpt lat="52.9804917" lon="-0.74834"><ele>25.0</ele><time>2026-05-02T09:57:33.406Z</time></trkpt><trkpt lat="52.9806433" lon="-0.7487133"><ele>26.0</ele><time>2026-05-02T09:57:34.402Z</time></trkpt><trkpt lat="52.9807967" lon="-0.74908"><ele>27.0</ele><time>2026-05-02T09:57:35.406Z</time></trkpt><trkpt lat="52.9809483" lon="-0.749445"><ele>27.0</ele><time>2026-05-02T09:57:36.402Z</time></trkpt><trkpt lat="52.9811083" lon="-0.7498117"><ele>27.0</ele><time>2026-05-02T09:57:37.406Z</time></trkpt><trkpt lat="52.9812683" lon="-0.7501817"><ele>26.5</ele><time>2026-05-02T09:57:38.408Z</time></trkpt><trkpt lat="52.9814283" lon="-0.7505467"><ele>26.0</ele><time>2026-05-02T09:57:39.405Z</time></trkpt><trkpt lat="52.9815867" lon="-0.750915"><ele>25.0</ele><time>2026-05-02T09:57:40.406Z</time></trkpt><trkpt lat="52.9817517" lon="-0.7512817"><ele>24.0</ele><time>2026-05-02T09:57:41.405Z</time></trkpt><trkpt lat="52.9819233" lon="-0.751645"><ele>23.0</ele><time>2026-05-02T09:57:42.407Z</time></trkpt><trkpt lat="52.9820967" lon="-0.7520017"><ele>22.0</ele><time>2026-05-02T09:57:43.406Z</time></trkpt><trkpt lat="52.9822717" lon="-0.752355"><ele>23.0</ele><time>2026-05-02T09:57:44.407Z</time></trkpt><trkpt lat="52.9824483" lon="-0.7527133"><ele>24.0</ele><time>2026-05-02T09:57:45.406Z</time></trkpt><trkpt lat="52.9826317" lon="-0.7530783"><ele>24.0</ele><time>2026-05-02T09:57:46.403Z</time></trkpt><trkpt lat="52.98282" lon="-0.7534483"><ele>24.0</ele><time>2026-05-02T09:57:47.403Z</time></trkpt><trkpt lat="52.98302" lon="-0.753825"><ele>24.5</ele><time>2026-05-02T09:57:48.403Z</time></trkpt><trkpt lat="52.9832217" lon="-0.7542067"><ele>25.0</ele><time>2026-05-02T09:57:49.405Z</time></trkpt><trkpt lat="52.9834217" lon="-0.754585"><ele>25.0</ele><time>2026-05-02T09:57:50.403Z</time></trkpt><trkpt lat="52.9836167" lon="-0.7549467"><ele>25.0</ele><time>2026-05-02T09:57:51.405Z</time></trkpt><trkpt lat="52.9838133" lon="-0.7552917"><ele>25.0</ele><time>2026-05-02T09:57:52.404Z</time></trkpt><trkpt lat="52.9840117" lon="-0.7556283"><ele>25.0</ele><time>2026-05-02T09:57:53.405Z</time></trkpt><trkpt lat="52.984215" lon="-0.755955"><ele>26.0</ele><time>2026-05-02T09:57:54.405Z</time></trkpt><trkpt lat="52.9844217" lon="-0.75628"><ele>27.0</ele><time>2026-05-02T09:57:55.406Z</time></trkpt><trkpt lat="52.98463" lon="-0.7566033"><ele>27.0</ele><time>2026-05-02T09:57:56.402Z</time></trkpt><trkpt lat="52.9848433" lon="-0.75693"><ele>27.0</ele><time>2026-05-02T09:57:57.406Z</time></trkpt><trkpt lat="52.98506" lon="-0.7572533"><ele>27.0</ele><time>2026-05-02T09:57:58.407Z</time></trkpt><trkpt lat="52.9852783" lon="-0.7575717"><ele>27.0</ele><time>2026-05-02T09:57:59.402Z</time></trkpt><trkpt lat="52.9855" lon="-0.757885"><ele>27.0</ele><time>2026-05-02T09:58:00.402Z</time></trkpt><trkpt lat="52.9857233" lon="-0.7582"><ele>27.0</ele><time>2026-05-02T09:58:01.402Z</time></trkpt><trkpt lat="52.9859483" lon="-0.7585083"><ele>28.0</ele><time>2026-05-02T09:58:02.402Z</time></trkpt><trkpt lat="52.9861717" lon="-0.7588067"><ele>29.0</ele><time>2026-05-02T09:58:03.406Z</time></trkpt><trkpt lat="52.9863983" lon="-0.7591017"><ele>29.5</ele><time>2026-05-02T09:58:04.403Z</time></trkpt><trkpt lat="52.9866283" lon="-0.7593967"><ele>30.0</ele><time>2026-05-02T09:58:05.404Z</time></trkpt><trkpt lat="52.98686" lon="-0.75969"><ele>31.0</ele><time>2026-05-02T09:58:06.403Z</time></trkpt><trkpt lat="52.987095" lon="-0.7599833"><ele>32.0</ele><time>2026-05-02T09:58:07.402Z</time></trkpt><trkpt lat="52.9873283" lon="-0.7602667"><ele>31.5</ele><time>2026-05-02T09:58:08.402Z</time></trkpt><trkpt lat="52.9875683" lon="-0.7605467"><ele>31.0</ele><time>2026-05-02T09:58:09.402Z</time></trkpt><trkpt lat="52.98781" lon="-0.760825"><ele>31.5</ele><time>2026-05-02T09:58:10.402Z</time></trkpt><trkpt lat="52.9880517" lon="-0.7610983"><ele>32.0</ele><time>2026-05-02T09:58:11.402Z</time></trkpt><trkpt lat="52.988295" lon="-0.7613683"><ele>32.0</ele><time>2026-05-02T09:58:12.404Z</time></trkpt><trkpt lat="52.98854" lon="-0.761635"><ele>32.0</ele><time>2026-05-02T09:58:13.402Z</time></trkpt><trkpt lat="52.9887867" lon="-0.7618933"><ele>32.5</ele><time>2026-05-02T09:58:14.402Z</time></trkpt><trkpt lat="52.98904" lon="-0.7621517"><ele>33.0</ele><time>2026-05-02T09:58:15.402Z</time></trkpt><trkpt lat="52.9892917" lon="-0.7624017"><ele>33.0</ele><time>2026-05-02T09:58:16.403Z</time></trkpt><trkpt lat="52.9895483" lon="-0.7626433"><ele>33.0</ele><time>2026-05-02T09:58:17.403Z</time></trkpt><trkpt lat="52.9898117" lon="-0.7628683"><ele>33.5</ele><time>2026-05-02T09:58:18.403Z</time></trkpt><trkpt lat="52.9900767" lon="-0.76308"><ele>34.0</ele><time>2026-05-02T09:58:19.402Z</time></trkpt><trkpt lat="52.9903433" lon="-0.7632783"><ele>34.0</ele><time>2026-05-02T09:58:20.402Z</time></trkpt><trkpt lat="52.9906117" lon="-0.76346"><ele>34.0</ele><time>2026-05-02T09:58:21.403Z</time></trkpt><trkpt lat="52.9908833" lon="-0.76363"><ele>32.5</ele><time>2026-05-02T09:58:22.402Z</time></trkpt><trkpt lat="52.9911617" lon="-0.763785"><ele>31.0</ele><time>2026-05-02T09:58:23.403Z</time></trkpt><trkpt lat="52.99144" lon="-0.7639233"><ele>30.5</ele><time>2026-05-02T09:58:24.403Z</time></trkpt><trkpt lat="52.9917233" lon="-0.7640383"><ele>30.0</ele><time>2026-05-02T09:58:25.404Z</time></trkpt><trkpt lat="52.9920083" lon="-0.7641417"><ele>30.0</ele><time>2026-05-02T09:58:26.403Z</time></trkpt><trkpt lat="52.992295" lon="-0.7642383"><ele>30.0</ele><time>2026-05-02T09:58:27.402Z</time></trkpt><trkpt lat="52.9925833" lon="-0.7643167"><ele>28.5</ele><time>2026-05-02T09:58:28.402Z</time></trkpt><trkpt lat="52.99287" lon="-0.7643767"><ele>27.0</ele><time>2026-05-02T09:58:29.402Z</time></trkpt><trkpt lat="52.9931583" lon="-0.7644133"><ele>26.0</ele><time>2026-05-02T09:58:30.402Z</time></trkpt><trkpt lat="52.9934433" lon="-0.7644417"><ele>25.0</ele><time>2026-05-02T09:58:31.403Z</time></trkpt><trkpt lat="52.9937233" lon="-0.7644583"><ele>25.0</ele><time>2026-05-02T09:58:32.403Z</time></trkpt><trkpt lat="52.9939983" lon="-0.7644583"><ele>25.0</ele><time>2026-05-02T09:58:33.403Z</time></trkpt><trkpt lat="52.994275" lon="-0.764435"><ele>24.5</ele><time>2026-05-02T09:58:34.406Z</time></trkpt><trkpt lat="52.9945517" lon="-0.7644033"><ele>24.0</ele><time>2026-05-02T09:58:35.402Z</time></trkpt><trkpt lat="52.9948267" lon="-0.7643617"><ele>22.5</ele><time>2026-05-02T09:58:36.404Z</time></trkpt><trkpt lat="52.9951017" lon="-0.7643"><ele>21.0</ele><time>2026-05-02T09:58:37.402Z</time></trkpt><trkpt lat="52.9953767" lon="-0.7642283"><ele>21.0</ele><time>2026-05-02T09:58:38.402Z</time></trkpt><trkpt lat="52.99565" lon="-0.76415"><ele>21.0</ele><time>2026-05-02T09:58:39.406Z</time></trkpt><trkpt lat="52.9959233" lon="-0.7640683"><ele>20.0</ele><time>2026-05-02T09:58:40.403Z</time></trkpt><trkpt lat="52.996195" lon="-0.763985"><ele>19.0</ele><time>2026-05-02T09:58:41.404Z</time></trkpt><trkpt lat="52.9964667" lon="-0.7638967"><ele>18.0</ele><time>2026-05-02T09:58:42.404Z</time></trkpt><trkpt lat="52.996735" lon="-0.763805"><ele>17.0</ele><time>2026-05-02T09:58:43.403Z</time></trkpt><trkpt lat="52.997" lon="-0.7637117"><ele>17.0</ele><time>2026-05-02T09:58:44.405Z</time></trkpt><trkpt lat="52.9972617" lon="-0.76362"><ele>17.0</ele><time>2026-05-02T09:58:45.404Z</time></trkpt><trkpt lat="52.997525" lon="-0.7635283"><ele>19.0</ele><time>2026-05-02T09:58:46.404Z</time></trkpt><trkpt lat="52.99779" lon="-0.76344"><ele>21.0</ele><time>2026-05-02T09:58:47.405Z</time></trkpt><trkpt lat="52.99806" lon="-0.7633533"><ele>21.0</ele><time>2026-05-02T09:58:48.403Z</time></trkpt><trkpt lat="52.9983333" lon="-0.763265"><ele>21.0</ele><time>2026-05-02T09:58:49.404Z</time></trkpt><trkpt lat="52.9986117" lon="-0.763175"><ele>20.5</ele><time>2026-05-02T09:58:50.403Z</time></trkpt><trkpt lat="52.99889" lon="-0.76308"><ele>20.0</ele><time>2026-05-02T09:58:51.404Z</time></trkpt><trkpt lat="52.99917" lon="-0.7629833"><ele>19.0</ele><time>2026-05-02T09:58:52.403Z</time></trkpt><trkpt lat="52.9994517" lon="-0.76289"><ele>18.0</ele><time>2026-05-02T09:58:53.404Z</time></trkpt><trkpt lat="52.9997367" lon="-0.7628"><ele>18.0</ele><time>2026-05-02T09:58:54.403Z</time></trkpt><trkpt lat="53.0000283" lon="-0.7627133"><ele>18.0</ele><time>2026-05-02T09:58:55.403Z</time></trkpt><trkpt lat="53.00032" lon="-0.7626417"><ele>19.0</ele><time>2026-05-02T09:58:56.403Z</time></trkpt><trkpt lat="53.0006117" lon="-0.7625917"><ele>20.0</ele><time>2026-05-02T09:58:57.403Z</time></trkpt><trkpt lat="53.000905" lon="-0.7625583"><ele>20.5</ele><time>2026-05-02T09:58:58.404Z</time></trkpt><trkpt lat="53.0011967" lon="-0.7625333"><ele>21.0</ele><time>2026-05-02T09:58:59.403Z</time></trkpt><trkpt lat="53.00148" lon="-0.7625"><ele>21.0</ele><time>2026-05-02T09:59:00.403Z</time></trkpt><trkpt lat="53.00176" lon="-0.762465"><ele>21.0</ele><time>2026-05-02T09:59:01.403Z</time></trkpt><trkpt lat="53.0020333" lon="-0.762435"><ele>21.0</ele><time>2026-05-02T09:59:02.403Z</time></trkpt><trkpt lat="53.0023083" lon="-0.76241"><ele>21.0</ele><time>2026-05-02T09:59:03.403Z</time></trkpt><trkpt lat="53.0025833" lon="-0.7623983"><ele>21.0</ele><time>2026-05-02T09:59:04.404Z</time></trkpt><trkpt lat="53.0028617" lon="-0.762395"><ele>21.0</ele><time>2026-05-02T09:59:05.403Z</time></trkpt><trkpt lat="53.00314" lon="-0.7624033"><ele>20.5</ele><time>2026-05-02T09:59:06.403Z</time></trkpt><trkpt lat="53.0034217" lon="-0.7624167"><ele>20.0</ele><time>2026-05-02T09:59:07.403Z</time></trkpt><trkpt lat="53.003705" lon="-0.7624433"><ele>20.0</ele><time>2026-05-02T09:59:08.403Z</time></trkpt><trkpt lat="53.0039883" lon="-0.7624783"><ele>20.0</ele><time>2026-05-02T09:59:09.406Z</time></trkpt><trkpt lat="53.00427" lon="-0.7625167"><ele>19.5</ele><time>2026-05-02T09:59:10.403Z</time></trkpt><trkpt lat="53.0045483" lon="-0.76256"><ele>19.0</ele><time>2026-05-02T09:59:11.403Z</time></trkpt><trkpt lat="53.0048267" lon="-0.76261"><ele>19.5</ele><time>2026-05-02T09:59:12.406Z</time></trkpt><trkpt lat="53.0051017" lon="-0.7626633"><ele>20.0</ele><time>2026-05-02T09:59:13.403Z</time></trkpt><trkpt lat="53.005375" lon="-0.7627233"><ele>20.0</ele><time>2026-05-02T09:59:14.404Z</time></trkpt><trkpt lat="53.0056517" lon="-0.7627933"><ele>20.0</ele><time>2026-05-02T09:59:15.406Z</time></trkpt><trkpt lat="53.0059267" lon="-0.76287"><ele>20.0</ele><time>2026-05-02T09:59:16.402Z</time></trkpt><trkpt lat="53.0061983" lon="-0.7629433"><ele>20.0</ele><time>2026-05-02T09:59:17.403Z</time></trkpt><trkpt lat="53.0064667" lon="-0.7630133"><ele>20.0</ele><time>2026-05-02T09:59:18.403Z</time></trkpt><trkpt lat="53.00673" lon="-0.7630767"><ele>20.0</ele><time>2026-05-02T09:59:19.402Z</time></trkpt><trkpt lat="53.0069917" lon="-0.7631417"><ele>20.0</ele><time>2026-05-02T09:59:20.404Z</time></trkpt><trkpt lat="53.007255" lon="-0.7632083"><ele>20.0</ele><time>2026-05-02T09:59:21.403Z</time></trkpt><trkpt lat="53.00752" lon="-0.7632733"><ele>20.5</ele><time>2026-05-02T09:59:22.404Z</time></trkpt><trkpt lat="53.007785" lon="-0.7633417"><ele>21.0</ele><time>2026-05-02T09:59:23.403Z</time></trkpt><trkpt lat="53.0080433" lon="-0.7634083"><ele>21.0</ele><time>2026-05-02T09:59:24.405Z</time></trkpt><trkpt lat="53.0082967" lon="-0.7634717"><ele>21.0</ele><time>2026-05-02T09:59:25.402Z</time></trkpt><trkpt lat="53.0085483" lon="-0.7635333"><ele>20.0</ele><time>2026-05-02T09:59:26.404Z</time></trkpt><trkpt lat="53.0088017" lon="-0.7635933"><ele>19.0</ele><time>2026-05-02T09:59:27.402Z</time></trkpt><trkpt lat="53.00906" lon="-0.7636533"><ele>19.0</ele><time>2026-05-02T09:59:28.403Z</time></trkpt><trkpt lat="53.00932" lon="-0.76371"><ele>19.0</ele><time>2026-05-02T09:59:29.406Z</time></trkpt><trkpt lat="53.0095783" lon="-0.763765"><ele>19.0</ele><time>2026-05-02T09:59:30.407Z</time></trkpt><trkpt lat="53.0098317" lon="-0.76382"><ele>19.0</ele><time>2026-05-02T09:59:31.402Z</time></trkpt><trkpt lat="53.0100817" lon="-0.7638667"><ele>18.5</ele><time>2026-05-02T09:59:32.404Z</time></trkpt><trkpt lat="53.0103333" lon="-0.7639017"><ele>18.0</ele><time>2026-05-02T09:59:33.402Z</time></trkpt><trkpt lat="53.010585" lon="-0.763935"><ele>19.0</ele><time>2026-05-02T09:59:34.403Z</time></trkpt><trkpt lat="53.0108383" lon="-0.76397"><ele>20.0</ele><time>2026-05-02T09:59:35.402Z</time></trkpt><trkpt lat="53.0110933" lon="-0.7640117"><ele>20.0</ele><time>2026-05-02T09:59:36.402Z</time></trkpt><trkpt lat="53.011355" lon="-0.7640533"><ele>20.0</ele><time>2026-05-02T09:59:37.409Z</time></trkpt><trkpt lat="53.0116217" lon="-0.764095"><ele>20.0</ele><time>2026-05-02T09:59:38.405Z</time></trkpt><trkpt lat="53.0118883" lon="-0.7641317"><ele>20.0</ele><time>2026-05-02T09:59:39.405Z</time></trkpt><trkpt lat="53.0121567" lon="-0.76417"><ele>20.0</ele><time>2026-05-02T09:59:40.403Z</time></trkpt><trkpt lat="53.012425" lon="-0.7642067"><ele>20.0</ele><time>2026-05-02T09:59:41.404Z</time></trkpt><trkpt lat="53.0126967" lon="-0.7642417"><ele>20.0</ele><time>2026-05-02T09:59:42.404Z</time></trkpt><trkpt lat="53.012965" lon="-0.7642783"><ele>20.0</ele><time>2026-05-02T09:59:43.403Z</time></trkpt><trkpt lat="53.0132317" lon="-0.7643217"><ele>21.0</ele><time>2026-05-02T09:59:44.405Z</time></trkpt><trkpt lat="53.0134967" lon="-0.76437"><ele>22.0</ele><time>2026-05-02T09:59:45.409Z</time></trkpt><trkpt lat="53.0137583" lon="-0.7644283"><ele>22.0</ele><time>2026-05-02T09:59:46.405Z</time></trkpt><trkpt lat="53.0140217" lon="-0.7644967"><ele>22.0</ele><time>2026-05-02T09:59:47.403Z</time></trkpt><trkpt lat="53.0142883" lon="-0.7645717"><ele>21.5</ele><time>2026-05-02T09:59:48.405Z</time></trkpt><trkpt lat="53.0145517" lon="-0.7646517"><ele>21.0</ele><time>2026-05-02T09:59:49.403Z</time></trkpt><trkpt lat="53.014815" lon="-0.764735"><ele>20.0</ele><time>2026-05-02T09:59:50.405Z</time></trkpt><trkpt lat="53.0150783" lon="-0.76483"><ele>19.0</ele><time>2026-05-02T09:59:51.406Z</time></trkpt><trkpt lat="53.0153417" lon="-0.7649333"><ele>19.0</ele><time>2026-05-02T09:59:52.402Z</time></trkpt><trkpt lat="53.0156017" lon="-0.7650467"><ele>19.0</ele><time>2026-05-02T09:59:53.405Z</time></trkpt><trkpt lat="53.015865" lon="-0.7651617"><ele>19.0</ele><time>2026-05-02T09:59:54.406Z</time></trkpt><trkpt lat="53.0161267" lon="-0.7652767"><ele>19.0</ele><time>2026-05-02T09:59:55.404Z</time></trkpt><trkpt lat="53.016385" lon="-0.7653933"><ele>19.0</ele><time>2026-05-02T09:59:56.404Z</time></trkpt><trkpt lat="53.01664" lon="-0.76551"><ele>19.0</ele><time>2026-05-02T09:59:57.403Z</time></trkpt><trkpt lat="53.016895" lon="-0.7656283"><ele>18.5</ele><time>2026-05-02T09:59:58.406Z</time></trkpt><trkpt lat="53.0171483" lon="-0.7657467"><ele>18.0</ele><time>2026-05-02T09:59:59.403Z</time></trkpt><trkpt lat="53.0174033" lon="-0.765865"><ele>18.0</ele><time>2026-05-02T10:00:00.402Z</time></trkpt><trkpt lat="53.0176583" lon="-0.7659833"><ele>18.0</ele><time>2026-05-02T10:00:01.403Z</time></trkpt><trkpt lat="53.0179167" lon="-0.7661"><ele>18.0</ele><time>2026-05-02T10:00:02.406Z</time></trkpt><trkpt lat="53.0181767" lon="-0.7662183"><ele>18.0</ele><time>2026-05-02T10:00:03.407Z</time></trkpt><trkpt lat="53.0184367" lon="-0.7663333"><ele>18.5</ele><time>2026-05-02T10:00:04.406Z</time></trkpt><trkpt lat="53.0186967" lon="-0.76644"><ele>19.0</ele><time>2026-05-02T10:00:05.406Z</time></trkpt><trkpt lat="53.0189533" lon="-0.7665433"><ele>19.5</ele><time>2026-05-02T10:00:06.407Z</time></trkpt><trkpt lat="53.0192133" lon="-0.76664"><ele>20.0</ele><time>2026-05-02T10:00:07.407Z</time></trkpt><trkpt lat="53.0194733" lon="-0.766735"><ele>20.0</ele><time>2026-05-02T10:00:08.403Z</time></trkpt><trkpt lat="53.0197367" lon="-0.76682"><ele>20.0</ele><time>2026-05-02T10:00:09.402Z</time></trkpt><trkpt lat="53.0199967" lon="-0.7669067"><ele>19.0</ele><time>2026-05-02T10:00:10.406Z</time></trkpt><trkpt lat="53.0202567" lon="-0.7670033"><ele>18.0</ele><time>2026-05-02T10:00:11.403Z</time></trkpt><trkpt lat="53.020515" lon="-0.767105"><ele>18.0</ele><time>2026-05-02T10:00:12.403Z</time></trkpt><trkpt lat="53.0207733" lon="-0.7672033"><ele>18.0</ele><time>2026-05-02T10:00:13.404Z</time></trkpt><trkpt lat="53.021035" lon="-0.7672933"><ele>17.5</ele><time>2026-05-02T10:00:14.406Z</time></trkpt><trkpt lat="53.021295" lon="-0.7673817"><ele>17.0</ele><time>2026-05-02T10:00:15.406Z</time></trkpt><trkpt lat="53.0215533" lon="-0.76748"><ele>18.0</ele><time>2026-05-02T10:00:16.406Z</time></trkpt><trkpt lat="53.021815" lon="-0.767575"><ele>19.0</ele><time>2026-05-02T10:00:17.406Z</time></trkpt><trkpt lat="53.0220783" lon="-0.767665"><ele>19.0</ele><time>2026-05-02T10:00:18.405Z</time></trkpt><trkpt lat="53.0223417" lon="-0.7677533"><ele>19.0</ele><time>2026-05-02T10:00:19.406Z</time></trkpt><trkpt lat="53.0226033" lon="-0.7678433"><ele>18.0</ele><time>2026-05-02T10:00:20.401Z</time></trkpt><trkpt lat="53.0228683" lon="-0.7679367"><ele>17.0</ele><time>2026-05-02T10:00:21.405Z</time></trkpt><trkpt lat="53.02313" lon="-0.7680333"><ele>17.0</ele><time>2026-05-02T10:00:22.405Z</time></trkpt><trkpt lat="53.0233883" lon="-0.7681267"><ele>17.0</ele><time>2026-05-02T10:00:23.405Z</time></trkpt><trkpt lat="53.0236483" lon="-0.7682217"><ele>17.0</ele><time>2026-05-02T10:00:24.401Z</time></trkpt><trkpt lat="53.0239117" lon="-0.7683167"><ele>17.0</ele><time>2026-05-02T10:00:25.401Z</time></trkpt><trkpt lat="53.0241767" lon="-0.7684117"><ele>17.5</ele><time>2026-05-02T10:00:26.401Z</time></trkpt><trkpt lat="53.0244417" lon="-0.768505"><ele>18.0</ele><time>2026-05-02T10:00:27.403Z</time></trkpt><trkpt lat="53.024705" lon="-0.7685983"><ele>18.5</ele><time>2026-05-02T10:00:28.402Z</time></trkpt><trkpt lat="53.0249717" lon="-0.76869"><ele>19.0</ele><time>2026-05-02T10:00:29.401Z</time></trkpt><trkpt lat="53.0252317" lon="-0.7687817"><ele>18.0</ele><time>2026-05-02T10:00:30.402Z</time></trkpt><trkpt lat="53.0254933" lon="-0.7688733"><ele>17.0</ele><time>2026-05-02T10:00:31.404Z</time></trkpt><trkpt lat="53.0257567" lon="-0.768965"><ele>17.5</ele><time>2026-05-02T10:00:32.402Z</time></trkpt><trkpt lat="53.026015" lon="-0.7690567"><ele>18.0</ele><time>2026-05-02T10:00:33.402Z</time></trkpt><trkpt lat="53.0262717" lon="-0.76915"><ele>18.0</ele><time>2026-05-02T10:00:34.404Z</time></trkpt><trkpt lat="53.0265317" lon="-0.7692417"><ele>18.0</ele><time>2026-05-02T10:00:35.401Z</time></trkpt><trkpt lat="53.0267917" lon="-0.76933"><ele>18.5</ele><time>2026-05-02T10:00:36.405Z</time></trkpt><trkpt lat="53.02705" lon="-0.7694167"><ele>19.0</ele><time>2026-05-02T10:00:37.405Z</time></trkpt><trkpt lat="53.02731" lon="-0.769505"><ele>18.5</ele><time>2026-05-02T10:00:38.402Z</time></trkpt><trkpt lat="53.02757" lon="-0.7695967"><ele>18.0</ele><time>2026-05-02T10:00:39.401Z</time></trkpt><trkpt lat="53.0278333" lon="-0.7696917"><ele>18.0</ele><time>2026-05-02T10:00:40.405Z</time></trkpt><trkpt lat="53.0280967" lon="-0.7697883"><ele>18.0</ele><time>2026-05-02T10:00:41.401Z</time></trkpt><trkpt lat="53.02836" lon="-0.7698833"><ele>18.0</ele><time>2026-05-02T10:00:42.402Z</time></trkpt><trkpt lat="53.0286217" lon="-0.7699767"><ele>18.0</ele><time>2026-05-02T10:00:43.402Z</time></trkpt><trkpt lat="53.0288817" lon="-0.77007"><ele>17.5</ele><time>2026-05-02T10:00:44.402Z</time></trkpt><trkpt lat="53.0291433" lon="-0.7701633"><ele>17.0</ele><time>2026-05-02T10:00:45.403Z</time></trkpt><trkpt lat="53.0294033" lon="-0.7702633"><ele>17.0</ele><time>2026-05-02T10:00:46.401Z</time></trkpt><trkpt lat="53.0296617" lon="-0.77037"><ele>17.0</ele><time>2026-05-02T10:00:47.402Z</time></trkpt><trkpt lat="53.02992" lon="-0.7704833"><ele>18.0</ele><time>2026-05-02T10:00:48.404Z</time></trkpt><trkpt lat="53.0301783" lon="-0.7706"><ele>19.0</ele><time>2026-05-02T10:00:49.403Z</time></trkpt><trkpt lat="53.0304333" lon="-0.7707217"><ele>19.0</ele><time>2026-05-02T10:00:50.406Z</time></trkpt><trkpt lat="53.0306917" lon="-0.7708467"><ele>19.0</ele><time>2026-05-02T10:00:51.406Z</time></trkpt><trkpt lat="53.0309517" lon="-0.7709733"><ele>19.5</ele><time>2026-05-02T10:00:52.401Z</time></trkpt><trkpt lat="53.0312067" lon="-0.771105"><ele>20.0</ele><time>2026-05-02T10:00:53.401Z</time></trkpt><trkpt lat="53.0314633" lon="-0.7712417"><ele>20.5</ele><time>2026-05-02T10:00:54.406Z</time></trkpt><trkpt lat="53.0317133" lon="-0.7713867"><ele>21.0</ele><time>2026-05-02T10:00:55.405Z</time></trkpt><trkpt lat="53.0319667" lon="-0.7715333"><ele>21.0</ele><time>2026-05-02T10:00:56.405Z</time></trkpt><trkpt lat="53.0322217" lon="-0.7716833"><ele>21.0</ele><time>2026-05-02T10:00:57.406Z</time></trkpt><trkpt lat="53.03247" lon="-0.7718367"><ele>21.0</ele><time>2026-05-02T10:00:58.401Z</time></trkpt><trkpt lat="53.03272" lon="-0.7719933"><ele>21.0</ele><time>2026-05-02T10:00:59.403Z</time></trkpt><trkpt lat="53.0329667" lon="-0.772155"><ele>21.0</ele><time>2026-05-02T10:01:00.402Z</time></trkpt><trkpt lat="53.0332133" lon="-0.7723183"><ele>21.0</ele><time>2026-05-02T10:01:01.405Z</time></trkpt><trkpt lat="53.0334583" lon="-0.77249"><ele>20.0</ele><time>2026-05-02T10:01:02.402Z</time></trkpt><trkpt lat="53.0337033" lon="-0.77267"><ele>19.0</ele><time>2026-05-02T10:01:03.402Z</time></trkpt><trkpt lat="53.0339483" lon="-0.7728533"><ele>20.5</ele><time>2026-05-02T10:01:04.401Z</time></trkpt><trkpt lat="53.0341917" lon="-0.77304"><ele>22.0</ele><time>2026-05-02T10:01:05.402Z</time></trkpt><trkpt lat="53.034435" lon="-0.773225"><ele>22.0</ele><time>2026-05-02T10:01:06.405Z</time></trkpt><trkpt lat="53.0346783" lon="-0.773405"><ele>22.0</ele><time>2026-05-02T10:01:07.405Z</time></trkpt><trkpt lat="53.0349183" lon="-0.773585"><ele>22.0</ele><time>2026-05-02T10:01:08.405Z</time></trkpt><trkpt lat="53.03516" lon="-0.7737683"><ele>22.0</ele><time>2026-05-02T10:01:09.405Z</time></trkpt><trkpt lat="53.0354017" lon="-0.7739517"><ele>22.0</ele><time>2026-05-02T10:01:10.401Z</time></trkpt><trkpt lat="53.035645" lon="-0.774135"><ele>22.0</ele><time>2026-05-02T10:01:11.403Z</time></trkpt><trkpt lat="53.0358883" lon="-0.7743217"><ele>21.5</ele><time>2026-05-02T10:01:12.406Z</time></trkpt><trkpt lat="53.03613" lon="-0.774505"><ele>21.0</ele><time>2026-05-02T10:01:13.402Z</time></trkpt><trkpt lat="53.036375" lon="-0.7746883"><ele>21.0</ele><time>2026-05-02T10:01:14.406Z</time></trkpt><trkpt lat="53.0366183" lon="-0.7748767"><ele>21.0</ele><time>2026-05-02T10:01:15.403Z</time></trkpt><trkpt lat="53.036865" lon="-0.77506"><ele>22.0</ele><time>2026-05-02T10:01:16.401Z</time></trkpt><trkpt lat="53.0371083" lon="-0.77524"><ele>23.0</ele><time>2026-05-02T10:01:17.401Z</time></trkpt><trkpt lat="53.0373517" lon="-0.77542"><ele>22.0</ele><time>2026-05-02T10:01:18.405Z</time></trkpt><trkpt lat="53.0375967" lon="-0.775605"><ele>21.0</ele><time>2026-05-02T10:01:19.403Z</time></trkpt><trkpt lat="53.0378433" lon="-0.77579"><ele>21.0</ele><time>2026-05-02T10:01:20.402Z</time></trkpt><trkpt lat="53.0380867" lon="-0.7759783"><ele>21.0</ele><time>2026-05-02T10:01:21.403Z</time></trkpt><trkpt lat="53.0383317" lon="-0.7761633"><ele>21.0</ele><time>2026-05-02T10:01:22.403Z</time></trkpt><trkpt lat="53.0385767" lon="-0.7763483"><ele>21.0</ele><time>2026-05-02T10:01:23.403Z</time></trkpt><trkpt lat="53.0388217" lon="-0.77653"><ele>21.0</ele><time>2026-05-02T10:01:24.403Z</time></trkpt><trkpt lat="53.039065" lon="-0.7767133"><ele>21.0</ele><time>2026-05-02T10:01:25.403Z</time></trkpt></trkseg><trkseg><trkpt lat="53.0738783" lon="-0.769115"><ele>34.0</ele><time>2026-05-02T10:03:44.408Z</time></trkpt><trkpt lat="53.07414" lon="-0.76923"><ele>34.0</ele><time>2026-05-02T10:03:45.406Z</time></trkpt><trkpt lat="53.0744" lon="-0.7693483"><ele>34.5</ele><time>2026-05-02T10:03:46.407Z</time></trkpt><trkpt lat="53.0746583" lon="-0.7694683"><ele>35.0</ele><time>2026-05-02T10:03:47.404Z</time></trkpt><trkpt lat="53.0749133" lon="-0.7695933"><ele>35.0</ele><time>2026-05-02T10:03:48.403Z</time></trkpt><trkpt lat="53.0751683" lon="-0.7697167"><ele>35.0</ele><time>2026-05-02T10:03:49.404Z</time></trkpt><trkpt lat="53.0754217" lon="-0.76984"><ele>35.0</ele><time>2026-05-02T10:03:50.403Z</time></trkpt><trkpt lat="53.07568" lon="-0.7699683"><ele>35.0</ele><time>2026-05-02T10:03:51.403Z</time></trkpt><trkpt lat="53.0759367" lon="-0.7701017"><ele>34.5</ele><time>2026-05-02T10:03:52.402Z</time></trkpt><trkpt lat="53.076195" lon="-0.7702367"><ele>34.0</ele><time>2026-05-02T10:03:53.403Z</time></trkpt><trkpt lat="53.0764533" lon="-0.7703683"><ele>35.0</ele><time>2026-05-02T10:03:54.403Z</time></trkpt><trkpt lat="53.0767117" lon="-0.7704983"><ele>36.0</ele><time>2026-05-02T10:03:55.402Z</time></trkpt><trkpt lat="53.076965" lon="-0.77063"><ele>36.0</ele><time>2026-05-02T10:03:56.405Z</time></trkpt><trkpt lat="53.0772233" lon="-0.770765"><ele>36.0</ele><time>2026-05-02T10:03:57.402Z</time></trkpt><trkpt lat="53.0774733" lon="-0.77091"><ele>36.5</ele><time>2026-05-02T10:03:58.402Z</time></trkpt><trkpt lat="53.077725" lon="-0.7710533"><ele>37.0</ele><time>2026-05-02T10:03:59.402Z</time></trkpt><trkpt lat="53.0779717" lon="-0.7712067"><ele>37.0</ele><time>2026-05-02T10:04:00.405Z</time></trkpt><trkpt lat="53.07822" lon="-0.7713617"><ele>37.0</ele><time>2026-05-02T10:04:01.403Z</time></trkpt><trkpt lat="53.0784683" lon="-0.7715233"><ele>37.5</ele><time>2026-05-02T10:04:02.404Z</time></trkpt><trkpt lat="53.0787117" lon="-0.77168"><ele>38.0</ele><time>2026-05-02T10:04:03.404Z</time></trkpt><trkpt lat="53.07896" lon="-0.7718333"><ele>38.0</ele><time>2026-05-02T10:04:04.404Z</time></trkpt><trkpt lat="53.0792133" lon="-0.77199"><ele>38.0</ele><time>2026-05-02T10:04:05.409Z</time></trkpt><trkpt lat="53.0794667" lon="-0.77215"><ele>38.0</ele><time>2026-05-02T10:04:06.408Z</time></trkpt><trkpt lat="53.079715" lon="-0.7723133"><ele>38.0</ele><time>2026-05-02T10:04:07.402Z</time></trkpt><trkpt lat="53.079955" lon="-0.7724867"><ele>38.0</ele><time>2026-05-02T10:04:08.403Z</time></trkpt><trkpt lat="53.0802" lon="-0.7726617"><ele>38.0</ele><time>2026-05-02T10:04:09.403Z</time></trkpt><trkpt lat="53.0804417" lon="-0.7728433"><ele>38.5</ele><time>2026-05-02T10:04:10.402Z</time></trkpt><trkpt lat="53.0806817" lon="-0.77303"><ele>39.0</ele><time>2026-05-02T10:04:11.402Z</time></trkpt><trkpt lat="53.0809217" lon="-0.7732133"><ele>39.0</ele><time>2026-05-02T10:04:12.402Z</time></trkpt><trkpt lat="53.08116" lon="-0.7734"><ele>39.0</ele><time>2026-05-02T10:04:13.402Z</time></trkpt><trkpt lat="53.0814" lon="-0.7735867"><ele>39.0</ele><time>2026-05-02T10:04:14.403Z</time></trkpt><trkpt lat="53.081645" lon="-0.7737733"><ele>39.0</ele><time>2026-05-02T10:04:15.402Z</time></trkpt><trkpt lat="53.0818867" lon="-0.77397"><ele>39.0</ele><time>2026-05-02T10:04:16.402Z</time></trkpt><trkpt lat="53.0821217" lon="-0.7741767"><ele>39.0</ele><time>2026-05-02T10:04:17.404Z</time></trkpt><trkpt lat="53.0823533" lon="-0.7743883"><ele>39.0</ele><time>2026-05-02T10:04:18.404Z</time></trkpt><trkpt lat="53.0825883" lon="-0.7746033"><ele>39.0</ele><time>2026-05-02T10:04:19.402Z</time></trkpt><trkpt lat="53.0828217" lon="-0.7748183"><ele>39.0</ele><time>2026-05-02T10:04:20.405Z</time></trkpt><trkpt lat="53.0830583" lon="-0.7750317"><ele>39.0</ele><time>2026-05-02T10:04:21.401Z</time></trkpt><trkpt lat="53.0832933" lon="-0.7752433"><ele>37.0</ele><time>2026-05-02T10:04:22.401Z</time></trkpt><trkpt lat="53.0835333" lon="-0.7754533"><ele>35.0</ele><time>2026-05-02T10:04:23.403Z</time></trkpt><trkpt lat="53.0837667" lon="-0.7756683"><ele>35.0</ele><time>2026-05-02T10:04:24.403Z</time></trkpt><trkpt lat="53.0840017" lon="-0.7758867"><ele>35.0</ele><time>2026-05-02T10:04:25.403Z</time></trkpt><trkpt lat="53.0842367" lon="-0.7761067"><ele>32.5</ele><time>2026-05-02T10:04:26.403Z</time></trkpt><trkpt lat="53.08447" lon="-0.7763333"><ele>30.0</ele><time>2026-05-02T10:04:27.403Z</time></trkpt><trkpt lat="53.0847" lon="-0.776565"><ele>29.0</ele><time>2026-05-02T10:04:28.403Z</time></trkpt><trkpt lat="53.08493" lon="-0.7768"><ele>28.0</ele><time>2026-05-02T10:04:29.402Z</time></trkpt><trkpt lat="53.085155" lon="-0.7770367"><ele>26.0</ele><time>2026-05-02T10:04:30.402Z</time></trkpt><trkpt lat="53.08538" lon="-0.7772733"><ele>24.0</ele><time>2026-05-02T10:04:31.402Z</time></trkpt><trkpt lat="53.085605" lon="-0.7775133"><ele>22.5</ele><time>2026-05-02T10:04:32.402Z</time></trkpt><trkpt lat="53.08583" lon="-0.77776"><ele>21.0</ele><time>2026-05-02T10:04:33.402Z</time></trkpt><trkpt lat="53.0860533" lon="-0.7780117"><ele>21.0</ele><time>2026-05-02T10:04:34.403Z</time></trkpt><trkpt lat="53.086275" lon="-0.7782617"><ele>21.0</ele><time>2026-05-02T10:04:35.402Z</time></trkpt><trkpt lat="53.0864967" lon="-0.77851"><ele>20.0</ele><time>2026-05-02T10:04:36.403Z</time></trkpt><trkpt lat="53.0867167" lon="-0.7787533"><ele>19.0</ele><time>2026-05-02T10:04:37.403Z</time></trkpt><trkpt lat="53.08694" lon="-0.778995"><ele>19.0</ele><time>2026-05-02T10:04:38.404Z</time></trkpt><trkpt lat="53.0871633" lon="-0.7792367"><ele>19.0</ele><time>2026-05-02T10:04:39.402Z</time></trkpt><trkpt lat="53.0873867" lon="-0.779485"><ele>18.5</ele><time>2026-05-02T10:04:40.405Z</time></trkpt><trkpt lat="53.08761" lon="-0.779735"><ele>18.0</ele><time>2026-05-02T10:04:41.406Z</time></trkpt><trkpt lat="53.08783" lon="-0.77998"><ele>17.0</ele><time>2026-05-02T10:04:42.404Z</time></trkpt><trkpt lat="53.0880533" lon="-0.7802217"><ele>16.0</ele><time>2026-05-02T10:04:43.405Z</time></trkpt><trkpt lat="53.0882767" lon="-0.780465"><ele>15.5</ele><time>2026-05-02T10:04:44.406Z</time></trkpt><trkpt lat="53.0884983" lon="-0.7807083"><ele>15.0</ele><time>2026-05-02T10:04:45.402Z</time></trkpt><trkpt lat="53.0887183" lon="-0.780955"><ele>15.5</ele><time>2026-05-02T10:04:46.405Z</time></trkpt><trkpt lat="53.08894" lon="-0.7812067"><ele>16.0</ele><time>2026-05-02T10:04:47.402Z</time></trkpt><trkpt lat="53.0891617" lon="-0.7814583"><ele>16.0</ele><time>2026-05-02T10:04:48.403Z</time></trkpt><trkpt lat="53.0893817" lon="-0.78171"><ele>16.0</ele><time>2026-05-02T10:04:49.403Z</time></trkpt><trkpt lat="53.0896017" lon="-0.7819617"><ele>16.0</ele><time>2026-05-02T10:04:50.404Z</time></trkpt><trkpt lat="53.089825" lon="-0.78221"><ele>16.0</ele><time>2026-05-02T10:04:51.405Z</time></trkpt><trkpt lat="53.0900483" lon="-0.7824533"><ele>16.0</ele><time>2026-05-02T10:04:52.403Z</time></trkpt><trkpt lat="53.090275" lon="-0.7826983"><ele>16.0</ele><time>2026-05-02T10:04:53.403Z</time></trkpt><trkpt lat="53.0904983" lon="-0.7829467"><ele>16.0</ele><time>2026-05-02T10:04:54.403Z</time></trkpt><trkpt lat="53.0907217" lon="-0.7831983"><ele>16.0</ele><time>2026-05-02T10:04:55.402Z</time></trkpt><trkpt lat="53.090945" lon="-0.7834467"><ele>15.5</ele><time>2026-05-02T10:04:56.402Z</time></trkpt><trkpt lat="53.0911683" lon="-0.7836933"><ele>15.0</ele><time>2026-05-02T10:04:57.403Z</time></trkpt><trkpt lat="53.0913883" lon="-0.78394"><ele>15.5</ele><time>2026-05-02T10:04:58.402Z</time></trkpt><trkpt lat="53.0916083" lon="-0.78419"><ele>16.0</ele><time>2026-05-02T10:04:59.403Z</time></trkpt><trkpt lat="53.09183" lon="-0.7844383"><ele>16.0</ele><time>2026-05-02T10:05:00.402Z</time></trkpt><trkpt lat="53.0920517" lon="-0.7846833"><ele>16.0</ele><time>2026-05-02T10:05:01.402Z</time></trkpt><trkpt lat="53.092275" lon="-0.7849283"><ele>16.0</ele><time>2026-05-02T10:05:02.402Z</time></trkpt><trkpt lat="53.0924967" lon="-0.7851733"><ele>16.0</ele><time>2026-05-02T10:05:03.402Z</time></trkpt><trkpt lat="53.09272" lon="-0.78542"><ele>15.5</ele><time>2026-05-02T10:05:04.402Z</time></trkpt><trkpt lat="53.0929433" lon="-0.785665"><ele>15.0</ele><time>2026-05-02T10:05:05.402Z</time></trkpt><trkpt lat="53.0931633" lon="-0.785915"><ele>15.5</ele><time>2026-05-02T10:05:06.406Z</time></trkpt><trkpt lat="53.0933867" lon="-0.786165"><ele>16.0</ele><time>2026-05-02T10:05:07.408Z</time></trkpt><trkpt lat="53.0936083" lon="-0.7864133"><ele>16.0</ele><time>2026-05-02T10:05:08.409Z</time></trkpt><trkpt lat="53.0938317" lon="-0.7866617"><ele>16.0</ele><time>2026-05-02T10:05:09.403Z</time></trkpt><trkpt lat="53.094065" lon="-0.78691"><ele>15.0</ele><time>2026-05-02T10:05:10.403Z</time></trkpt><trkpt lat="53.09431" lon="-0.7871583"><ele>14.0</ele><time>2026-05-02T10:05:11.403Z</time></trkpt><trkpt lat="53.09456" lon="-0.7874233"><ele>14.0</ele><time>2026-05-02T10:05:12.404Z</time></trkpt><trkpt lat="53.0948117" lon="-0.7876983"><ele>14.0</ele><time>2026-05-02T10:05:13.404Z</time></trkpt><trkpt lat="53.0950733" lon="-0.7879783"><ele>12.5</ele><time>2026-05-02T10:05:14.403Z</time></trkpt><trkpt lat="53.095335" lon="-0.7882617"><ele>11.0</ele><time>2026-05-02T10:05:15.403Z</time></trkpt><trkpt lat="53.095595" lon="-0.788545"><ele>12.0</ele><time>2026-05-02T10:05:16.403Z</time></trkpt><trkpt lat="53.0958533" lon="-0.78883"><ele>13.0</ele><time>2026-05-02T10:05:17.403Z</time></trkpt><trkpt lat="53.09611" lon="-0.7891183"><ele>12.5</ele><time>2026-05-02T10:05:18.405Z</time></trkpt><trkpt lat="53.096365" lon="-0.789405"><ele>12.0</ele><time>2026-05-02T10:05:19.405Z</time></trkpt><trkpt lat="53.09661" lon="-0.7896867"><ele>12.5</ele><time>2026-05-02T10:05:20.403Z</time></trkpt><trkpt lat="53.0968467" lon="-0.78996"><ele>13.0</ele><time>2026-05-02T10:05:21.403Z</time></trkpt><trkpt lat="53.0970767" lon="-0.790235"><ele>13.0</ele><time>2026-05-02T10:05:22.404Z</time></trkpt><trkpt lat="53.0973" lon="-0.7905133"><ele>13.0</ele><time>2026-05-02T10:05:23.407Z</time></trkpt><trkpt lat="53.09751" lon="-0.7907983"><ele>12.0</ele><time>2026-05-02T10:05:24.406Z</time></trkpt><trkpt lat="53.0977217" lon="-0.7910917"><ele>11.0</ele><time>2026-05-02T10:05:25.402Z</time></trkpt><trkpt lat="53.0979383" lon="-0.7913917"><ele>11.0</ele><time>2026-05-02T10:05:26.409Z</time></trkpt><trkpt lat="53.0981567" lon="-0.7917067"><ele>11.0</ele><time>2026-05-02T10:05:27.403Z</time></trkpt><trkpt lat="53.0983733" lon="-0.79204"><ele>11.0</ele><time>2026-05-02T10:05:28.403Z</time></trkpt><trkpt lat="53.0985867" lon="-0.79239"><ele>11.0</ele><time>2026-05-02T10:05:29.402Z</time></trkpt><trkpt lat="53.0988083" lon="-0.7927533"><ele>11.0</ele><time>2026-05-02T10:05:30.405Z</time></trkpt><trkpt lat="53.09903" lon="-0.7931267"><ele>11.0</ele><time>2026-05-02T10:05:31.405Z</time></trkpt><trkpt lat="53.099255" lon="-0.79351"><ele>11.5</ele><time>2026-05-02T10:05:32.403Z</time></trkpt><trkpt lat="53.099475" lon="-0.7939067"><ele>12.0</ele><time>2026-05-02T10:05:33.402Z</time></trkpt><trkpt lat="53.0996867" lon="-0.7943133"><ele>11.5</ele><time>2026-05-02T10:05:34.402Z</time></trkpt><trkpt lat="53.099895" lon="-0.7947217"><ele>11.0</ele><time>2026-05-02T10:05:35.403Z</time></trkpt><trkpt lat="53.1000967" lon="-0.7951333"><ele>12.0</ele><time>2026-05-02T10:05:36.404Z</time></trkpt><trkpt lat="53.1002967" lon="-0.7955533"><ele>13.0</ele><time>2026-05-02T10:05:37.402Z</time></trkpt><trkpt lat="53.1004917" lon="-0.7959817"><ele>13.0</ele><time>2026-05-02T10:05:38.405Z</time></trkpt><trkpt lat="53.1006867" lon="-0.7964233"><ele>13.0</ele><time>2026-05-02T10:05:39.403Z</time></trkpt><trkpt lat="53.1008833" lon="-0.796875"><ele>13.0</ele><time>2026-05-02T10:05:40.402Z</time></trkpt><trkpt lat="53.1010817" lon="-0.79732"><ele>13.0</ele><time>2026-05-02T10:05:41.403Z</time></trkpt><trkpt lat="53.101275" lon="-0.7977533"><ele>13.0</ele><time>2026-05-02T10:05:42.402Z</time></trkpt><trkpt lat="53.10147" lon="-0.7981883"><ele>13.0</ele><time>2026-05-02T10:05:43.402Z</time></trkpt><trkpt lat="53.1016683" lon="-0.7986283"><ele>13.0</ele><time>2026-05-02T10:05:44.406Z</time></trkpt><trkpt lat="53.10187" lon="-0.7990733"><ele>13.0</ele><time>2026-05-02T10:05:45.407Z</time></trkpt><trkpt lat="53.1020683" lon="-0.799515"><ele>12.5</ele><time>2026-05-02T10:05:46.403Z</time></trkpt><trkpt lat="53.1022633" lon="-0.7999483"><ele>12.0</ele><time>2026-05-02T10:05:47.402Z</time></trkpt><trkpt lat="53.10245" lon="-0.8003717"><ele>11.5</ele><time>2026-05-02T10:05:48.403Z</time></trkpt><trkpt lat="53.10263" lon="-0.8007733"><ele>11.0</ele><time>2026-05-02T10:05:49.402Z</time></trkpt><trkpt lat="53.1028033" lon="-0.8011617"><ele>10.5</ele><time>2026-05-02T10:05:50.403Z</time></trkpt><trkpt lat="53.1029733" lon="-0.8015417"><ele>10.0</ele><time>2026-05-02T10:05:51.403Z</time></trkpt><trkpt lat="53.1031417" lon="-0.80192"><ele>10.5</ele><time>2026-05-02T10:05:52.402Z</time></trkpt><trkpt lat="53.103315" lon="-0.8022983"><ele>11.0</ele><time>2026-05-02T10:05:53.403Z</time></trkpt><trkpt lat="53.1034833" lon="-0.802685"><ele>11.0</ele><time>2026-05-02T10:05:54.405Z</time></trkpt><trkpt lat="53.10365" lon="-0.80308"><ele>11.0</ele><time>2026-05-02T10:05:55.407Z</time></trkpt><trkpt lat="53.1038183" lon="-0.8034833"><ele>11.0</ele><time>2026-05-02T10:05:56.403Z</time></trkpt><trkpt lat="53.1039883" lon="-0.8038883"><ele>11.0</ele><time>2026-05-02T10:05:57.405Z</time></trkpt><trkpt lat="53.10416" lon="-0.8042783"><ele>10.5</ele><time>2026-05-02T10:05:58.402Z</time></trkpt><trkpt lat="53.1043283" lon="-0.8046567"><ele>10.0</ele><time>2026-05-02T10:05:59.403Z</time></trkpt><trkpt lat="53.1044981" lon="-0.8050267"><ele>10.0</ele><time>2026-05-02T10:06:00.402Z</time></trkpt><trkpt lat="53.1046711" lon="-0.8053863"><ele>10.0</ele><time>2026-05-02T10:06:01.402Z</time></trkpt><trkpt lat="53.1048474" lon="-0.8057409"><ele>11.5</ele><time>2026-05-02T10:06:02.402Z</time></trkpt><trkpt lat="53.1050241" lon="-0.8060905"><ele>13.0</ele><time>2026-05-02T10:06:03.404Z</time></trkpt><trkpt lat="53.1052038" lon="-0.8064338"><ele>13.0</ele><time>2026-05-02T10:06:04.402Z</time></trkpt><trkpt lat="53.1053873" lon="-0.8067747"><ele>13.0</ele><time>2026-05-02T10:06:05.402Z</time></trkpt><trkpt lat="53.1055755" lon="-0.8071126"><ele>13.0</ele><time>2026-05-02T10:06:06.403Z</time></trkpt><trkpt lat="53.1057685" lon="-0.8074474"><ele>13.0</ele><time>2026-05-02T10:06:07.403Z</time></trkpt><trkpt lat="53.1059652" lon="-0.8077836"><ele>13.0</ele><time>2026-05-02T10:06:08.407Z</time></trkpt><trkpt lat="53.1061653" lon="-0.8081154"><ele>13.0</ele><time>2026-05-02T10:06:09.408Z</time></trkpt><trkpt lat="53.1063697" lon="-0.8084415"><ele>13.0</ele><time>2026-05-02T10:06:10.405Z</time></trkpt><trkpt lat="53.1065781" lon="-0.808762"><ele>13.0</ele><time>2026-05-02T10:06:11.406Z</time></trkpt><trkpt lat="53.1067912" lon="-0.8090751"><ele>12.0</ele><time>2026-05-02T10:06:12.408Z</time></trkpt><trkpt lat="53.1070035" lon="-0.8093805"><ele>11.0</ele><time>2026-05-02T10:06:13.406Z</time></trkpt><trkpt lat="53.1072173" lon="-0.8096813"><ele>11.0</ele><time>2026-05-02T10:06:14.402Z</time></trkpt><trkpt lat="53.1074338" lon="-0.8099818"><ele>11.0</ele><time>2026-05-02T10:06:15.407Z</time></trkpt><trkpt lat="53.1076536" lon="-0.810278"><ele>11.0</ele><time>2026-05-02T10:06:16.407Z</time></trkpt><trkpt lat="53.1078743" lon="-0.8105692"><ele>11.0</ele><time>2026-05-02T10:06:17.403Z</time></trkpt><trkpt lat="53.1080985" lon="-0.8108575"><ele>10.5</ele><time>2026-05-02T10:06:18.406Z</time></trkpt><trkpt lat="53.1083252" lon="-0.8111376"><ele>10.0</ele><time>2026-05-02T10:06:19.407Z</time></trkpt><trkpt lat="53.1085546" lon="-0.8114096"><ele>10.0</ele><time>2026-05-02T10:06:20.405Z</time></trkpt><trkpt lat="53.1087837" lon="-0.8116788"><ele>10.0</ele><time>2026-05-02T10:06:21.408Z</time></trkpt><trkpt lat="53.109017" lon="-0.8119424"><ele>11.0</ele><time>2026-05-02T10:06:22.407Z</time></trkpt><trkpt lat="53.1092551" lon="-0.8121985"><ele>12.0</ele><time>2026-05-02T10:06:23.406Z</time></trkpt><trkpt lat="53.1094977" lon="-0.8124471"><ele>12.0</ele><time>2026-05-02T10:06:24.406Z</time></trkpt><trkpt lat="53.1097416" lon="-0.8126901"><ele>12.0</ele><time>2026-05-02T10:06:25.402Z</time></trkpt><trkpt lat="53.109987" lon="-0.812929"><ele>12.0</ele><time>2026-05-02T10:06:26.404Z</time></trkpt><trkpt lat="53.1102354" lon="-0.8131617"><ele>12.0</ele><time>2026-05-02T10:06:27.407Z</time></trkpt><trkpt lat="53.1104842" lon="-0.8133822"><ele>11.5</ele><time>2026-05-02T10:06:28.405Z</time></trkpt><trkpt lat="53.1107317" lon="-0.8135962"><ele>11.0</ele><time>2026-05-02T10:06:29.405Z</time></trkpt><trkpt lat="53.1109809" lon="-0.8138103"><ele>11.0</ele><time>2026-05-02T10:06:30.403Z</time></trkpt><trkpt lat="53.1112326" lon="-0.8140174"><ele>11.0</ele><time>2026-05-02T10:06:31.406Z</time></trkpt><trkpt lat="53.1114881" lon="-0.8142148"><ele>11.0</ele><time>2026-05-02T10:06:32.404Z</time></trkpt><trkpt lat="53.111748" lon="-0.8144016"><ele>11.0</ele><time>2026-05-02T10:06:33.403Z</time></trkpt><trkpt lat="53.1120104" lon="-0.8145751"><ele>11.0</ele><time>2026-05-02T10:06:34.403Z</time></trkpt><trkpt lat="53.1122751" lon="-0.81474"><ele>11.0</ele><time>2026-05-02T10:06:35.403Z</time></trkpt><trkpt lat="53.1125419" lon="-0.8149007"><ele>10.5</ele><time>2026-05-02T10:06:36.403Z</time></trkpt><trkpt lat="53.1128098" lon="-0.8150602"><ele>10.0</ele><time>2026-05-02T10:06:37.409Z</time></trkpt><trkpt lat="53.1130771" lon="-0.8152086"><ele>10.0</ele><time>2026-05-02T10:06:38.402Z</time></trkpt><trkpt lat="53.1133466" lon="-0.8153469"><ele>10.0</ele><time>2026-05-02T10:06:39.407Z</time></trkpt><trkpt lat="53.1136168" lon="-0.8154769"><ele>10.0</ele><time>2026-05-02T10:06:40.406Z</time></trkpt><trkpt lat="53.1138857" lon="-0.8155952"><ele>10.0</ele><time>2026-05-02T10:06:41.403Z</time></trkpt><trkpt lat="53.114157" lon="-0.8157016"><ele>10.0</ele><time>2026-05-02T10:06:42.405Z</time></trkpt><trkpt lat="53.1144286" lon="-0.8157977"><ele>10.0</ele><time>2026-05-02T10:06:43.403Z</time></trkpt><trkpt lat="53.1147051" lon="-0.815892"><ele>10.5</ele><time>2026-05-02T10:06:44.41Z</time></trkpt><trkpt lat="53.114984" lon="-0.8159786"><ele>11.0</ele><time>2026-05-02T10:06:45.411Z</time></trkpt><trkpt lat="53.1152639" lon="-0.8160532"><ele>11.0</ele><time>2026-05-02T10:06:46.403Z</time></trkpt><trkpt lat="53.1155462" lon="-0.8161157"><ele>11.0</ele><time>2026-05-02T10:06:47.403Z</time></trkpt><trkpt lat="53.1158272" lon="-0.8161691"><ele>11.0</ele><time>2026-05-02T10:06:48.405Z</time></trkpt><trkpt lat="53.1161077" lon="-0.8162154"><ele>11.0</ele><time>2026-05-02T10:06:49.406Z</time></trkpt><trkpt lat="53.1163892" lon="-0.8162536"><ele>11.0</ele><time>2026-05-02T10:06:50.405Z</time></trkpt><trkpt lat="53.1166706" lon="-0.8162824"><ele>11.0</ele><time>2026-05-02T10:06:51.402Z</time></trkpt><trkpt lat="53.1169524" lon="-0.8163037"><ele>11.0</ele><time>2026-05-02T10:06:52.403Z</time></trkpt><trkpt lat="53.1172337" lon="-0.8163181"><ele>11.0</ele><time>2026-05-02T10:06:53.402Z</time></trkpt><trkpt lat="53.1175139" lon="-0.8163257"><ele>11.5</ele><time>2026-05-02T10:06:54.404Z</time></trkpt><trkpt lat="53.1177951" lon="-0.8163244"><ele>12.0</ele><time>2026-05-02T10:06:55.403Z</time></trkpt><trkpt lat="53.118077" lon="-0.8163195"><ele>13.5</ele><time>2026-05-02T10:06:56.406Z</time></trkpt><trkpt lat="53.1183594" lon="-0.8163187"><ele>15.0</ele><time>2026-05-02T10:06:57.402Z</time></trkpt><trkpt lat="53.1186435" lon="-0.8163151"><ele>15.0</ele><time>2026-05-02T10:06:58.402Z</time></trkpt><trkpt lat="53.1189244" lon="-0.8163152"><ele>15.0</ele><time>2026-05-02T10:06:59.402Z</time></trkpt><trkpt lat="53.1192071" lon="-0.8163187"><ele>16.0</ele><time>2026-05-02T10:07:00.407Z</time></trkpt><trkpt lat="53.1194895" lon="-0.816321"><ele>17.0</ele><time>2026-05-02T10:07:01.402Z</time></trkpt><trkpt lat="53.1197744" lon="-0.8163229"><ele>16.0</ele><time>2026-05-02T10:07:02.402Z</time></trkpt><trkpt lat="53.1200622" lon="-0.8163258"><ele>15.0</ele><time>2026-05-02T10:07:03.403Z</time></trkpt><trkpt lat="53.1203503" lon="-0.8163265"><ele>15.0</ele><time>2026-05-02T10:07:04.402Z</time></trkpt><trkpt lat="53.1206353" lon="-0.8163211"><ele>15.0</ele><time>2026-05-02T10:07:05.403Z</time></trkpt><trkpt lat="53.1209217" lon="-0.8163147"><ele>16.0</ele><time>2026-05-02T10:07:06.402Z</time></trkpt><trkpt lat="53.1212069" lon="-0.8163115"><ele>17.0</ele><time>2026-05-02T10:07:07.402Z</time></trkpt><trkpt lat="53.1214897" lon="-0.8163083"><ele>16.5</ele><time>2026-05-02T10:07:08.405Z</time></trkpt><trkpt lat="53.1217724" lon="-0.816312"><ele>16.0</ele><time>2026-05-02T10:07:09.404Z</time></trkpt><trkpt lat="53.1220565" lon="-0.8163131"><ele>16.0</ele><time>2026-05-02T10:07:10.402Z</time></trkpt><trkpt lat="53.1223428" lon="-0.8163064"><ele>16.0</ele><time>2026-05-02T10:07:11.402Z</time></trkpt><trkpt lat="53.1226282" lon="-0.8162892"><ele>14.5</ele><time>2026-05-02T10:07:12.402Z</time></trkpt><trkpt lat="53.1229138" lon="-0.8162624"><ele>13.0</ele><time>2026-05-02T10:07:13.405Z</time></trkpt><trkpt lat="53.1231975" lon="-0.8162195"><ele>13.0</ele><time>2026-05-02T10:07:14.406Z</time></trkpt><trkpt lat="53.1234782" lon="-0.8161598"><ele>13.0</ele><time>2026-05-02T10:07:15.403Z</time></trkpt><trkpt lat="53.1237487" lon="-0.8160873"><ele>13.0</ele><time>2026-05-02T10:07:16.403Z</time></trkpt><trkpt lat="53.1240061" lon="-0.8160074"><ele>13.0</ele><time>2026-05-02T10:07:17.403Z</time></trkpt><trkpt lat="53.1242507" lon="-0.8159168"><ele>13.0</ele><time>2026-05-02T10:07:18.402Z</time></trkpt><trkpt lat="53.1244869" lon="-0.8158165"><ele>13.0</ele><time>2026-05-02T10:07:19.404Z</time></trkpt><trkpt lat="53.1247218" lon="-0.815707"><ele>13.0</ele><time>2026-05-02T10:07:20.407Z</time></trkpt><trkpt lat="53.1249542" lon="-0.8155865"><ele>13.0</ele><time>2026-05-02T10:07:21.407Z</time></trkpt><trkpt lat="53.1251875" lon="-0.8154519"><ele>13.0</ele><time>2026-05-02T10:07:22.403Z</time></trkpt><trkpt lat="53.1254235" lon="-0.8153019"><ele>13.0</ele><time>2026-05-02T10:07:23.402Z</time></trkpt><trkpt lat="53.1256583" lon="-0.8151381"><ele>13.0</ele><time>2026-05-02T10:07:24.407Z</time></trkpt><trkpt lat="53.125894" lon="-0.81496"><ele>13.0</ele><time>2026-05-02T10:07:25.407Z</time></trkpt><trkpt lat="53.1261307" lon="-0.8147766"><ele>13.0</ele><time>2026-05-02T10:07:26.406Z</time></trkpt><trkpt lat="53.1263639" lon="-0.8145929"><ele>13.0</ele><time>2026-05-02T10:07:27.407Z</time></trkpt><trkpt lat="53.1265955" lon="-0.8144098"><ele>14.0</ele><time>2026-05-02T10:07:28.402Z</time></trkpt><trkpt lat="53.1268299" lon="-0.8142321"><ele>15.0</ele><time>2026-05-02T10:07:29.402Z</time></trkpt><trkpt lat="53.1270672" lon="-0.814056"><ele>15.0</ele><time>2026-05-02T10:07:30.407Z</time></trkpt><trkpt lat="53.1273035" lon="-0.8138803"><ele>15.0</ele><time>2026-05-02T10:07:31.403Z</time></trkpt><trkpt lat="53.1275402" lon="-0.813698"><ele>15.0</ele><time>2026-05-02T10:07:32.402Z</time></trkpt><trkpt lat="53.1277786" lon="-0.8135118"><ele>15.0</ele><time>2026-05-02T10:07:33.403Z</time></trkpt><trkpt lat="53.1280212" lon="-0.8133155"><ele>13.0</ele><time>2026-05-02T10:07:34.402Z</time></trkpt><trkpt lat="53.1282622" lon="-0.8131153"><ele>11.0</ele><time>2026-05-02T10:07:35.407Z</time></trkpt><trkpt lat="53.1285006" lon="-0.8129156"><ele>11.0</ele><time>2026-05-02T10:07:36.402Z</time></trkpt><trkpt lat="53.1287417" lon="-0.8127145"><ele>11.0</ele><time>2026-05-02T10:07:37.402Z</time></trkpt><trkpt lat="53.1289851" lon="-0.8125179"><ele>11.5</ele><time>2026-05-02T10:07:38.403Z</time></trkpt><trkpt lat="53.1292324" lon="-0.8123283"><ele>12.0</ele><time>2026-05-02T10:07:39.402Z</time></trkpt><trkpt lat="53.1294868" lon="-0.8121359"><ele>12.0</ele><time>2026-05-02T10:07:40.403Z</time></trkpt><trkpt lat="53.1297446" lon="-0.8119378"><ele>12.0</ele><time>2026-05-02T10:07:41.405Z</time></trkpt><trkpt lat="53.1299988" lon="-0.8117404"><ele>11.5</ele><time>2026-05-02T10:07:42.406Z</time></trkpt><trkpt lat="53.1302519" lon="-0.8115446"><ele>11.0</ele><time>2026-05-02T10:07:43.407Z</time></trkpt><trkpt lat="53.1305024" lon="-0.8113525"><ele>10.5</ele><time>2026-05-02T10:07:44.405Z</time></trkpt><trkpt lat="53.1307507" lon="-0.8111577"><ele>10.0</ele><time>2026-05-02T10:07:45.404Z</time></trkpt><trkpt lat="53.1309975" lon="-0.8109668"><ele>10.0</ele><time>2026-05-02T10:07:46.406Z</time></trkpt><trkpt lat="53.1312402" lon="-0.8107804"><ele>10.0</ele><time>2026-05-02T10:07:47.406Z</time></trkpt><trkpt lat="53.1314844" lon="-0.8105967"><ele>9.5</ele><time>2026-05-02T10:07:48.407Z</time></trkpt><trkpt lat="53.1317305" lon="-0.8104133"><ele>9.0</ele><time>2026-05-02T10:07:49.407Z</time></trkpt><trkpt lat="53.1319801" lon="-0.8102299"><ele>9.0</ele><time>2026-05-02T10:07:50.406Z</time></trkpt><trkpt lat="53.1322305" lon="-0.8100421"><ele>9.0</ele><time>2026-05-02T10:07:51.406Z</time></trkpt><trkpt lat="53.1324819" lon="-0.809853"><ele>9.5</ele><time>2026-05-02T10:07:52.406Z</time></trkpt><trkpt lat="53.1327365" lon="-0.8096641"><ele>10.0</ele><time>2026-05-02T10:07:53.405Z</time></trkpt><trkpt lat="53.1329974" lon="-0.8094861"><ele>10.0</ele><time>2026-05-02T10:07:54.407Z</time></trkpt><trkpt lat="53.1332601" lon="-0.809324"><ele>10.0</ele><time>2026-05-02T10:07:55.407Z</time></trkpt><trkpt lat="53.1335234" lon="-0.8091725"><ele>10.0</ele><time>2026-05-02T10:07:56.405Z</time></trkpt><trkpt lat="53.1337868" lon="-0.8090301"><ele>10.0</ele><time>2026-05-02T10:07:57.406Z</time></trkpt><trkpt lat="53.1340472" lon="-0.8088932"><ele>10.0</ele><time>2026-05-02T10:07:58.402Z</time></trkpt><trkpt lat="53.1343075" lon="-0.808762"><ele>10.0</ele><time>2026-05-02T10:07:59.403Z</time></trkpt><trkpt lat="53.1345663" lon="-0.8086387"><ele>10.0</ele><time>2026-05-02T10:08:00.402Z</time></trkpt><trkpt lat="53.1348246" lon="-0.8085195"><ele>10.0</ele><time>2026-05-02T10:08:01.402Z</time></trkpt><trkpt lat="53.1350827" lon="-0.8084053"><ele>10.0</ele><time>2026-05-02T10:08:02.405Z</time></trkpt><trkpt lat="53.1353378" lon="-0.8082935"><ele>10.0</ele><time>2026-05-02T10:08:03.403Z</time></trkpt><trkpt lat="53.1355956" lon="-0.8081781"><ele>10.0</ele><time>2026-05-02T10:08:04.406Z</time></trkpt><trkpt lat="53.135855" lon="-0.8080607"><ele>10.0</ele><time>2026-05-02T10:08:05.403Z</time></trkpt><trkpt lat="53.1361229" lon="-0.8079434"><ele>10.0</ele><time>2026-05-02T10:08:06.406Z</time></trkpt><trkpt lat="53.136397" lon="-0.8078219"><ele>10.0</ele><time>2026-05-02T10:08:07.407Z</time></trkpt><trkpt lat="53.1366724" lon="-0.8076943"><ele>10.0</ele><time>2026-05-02T10:08:08.406Z</time></trkpt><trkpt lat="53.1369521" lon="-0.8075654"><ele>10.0</ele><time>2026-05-02T10:08:09.403Z</time></trkpt><trkpt lat="53.1372412" lon="-0.8074323"><ele>10.5</ele><time>2026-05-02T10:08:10.402Z</time></trkpt><trkpt lat="53.1375334" lon="-0.8072972"><ele>11.0</ele><time>2026-05-02T10:08:11.402Z</time></trkpt><trkpt lat="53.1378225" lon="-0.8071679"><ele>11.0</ele><time>2026-05-02T10:08:12.407Z</time></trkpt><trkpt lat="53.1381063" lon="-0.8070405"><ele>11.0</ele><time>2026-05-02T10:08:13.405Z</time></trkpt><trkpt lat="53.1383839" lon="-0.8069116"><ele>10.5</ele><time>2026-05-02T10:08:14.404Z</time></trkpt><trkpt lat="53.138655" lon="-0.8067867"><ele>10.0</ele><time>2026-05-02T10:08:15.406Z</time></trkpt><trkpt lat="53.1389283" lon="-0.8066717"><ele>10.5</ele><time>2026-05-02T10:08:16.406Z</time></trkpt><trkpt lat="53.1392033" lon="-0.8065533"><ele>11.0</ele><time>2026-05-02T10:08:17.406Z</time></trkpt><trkpt lat="53.1394783" lon="-0.8064183"><ele>11.0</ele><time>2026-05-02T10:08:18.407Z</time></trkpt><trkpt lat="53.13975" lon="-0.8062717"><ele>11.0</ele><time>2026-05-02T10:08:19.405Z</time></trkpt><trkpt lat="53.1400183" lon="-0.8061183"><ele>10.0</ele><time>2026-05-02T10:08:20.407Z</time></trkpt><trkpt lat="53.1402817" lon="-0.8059667"><ele>9.0</ele><time>2026-05-02T10:08:21.406Z</time></trkpt><trkpt lat="53.1405433" lon="-0.8058117"><ele>9.5</ele><time>2026-05-02T10:08:22.405Z</time></trkpt><trkpt lat="53.1408067" lon="-0.8056533"><ele>10.0</ele><time>2026-05-02T10:08:23.406Z</time></trkpt><trkpt lat="53.14107" lon="-0.8054917"><ele>10.0</ele><time>2026-05-02T10:08:24.406Z</time></trkpt><trkpt lat="53.1413267" lon="-0.8053317"><ele>10.0</ele><time>2026-05-02T10:08:25.406Z</time></trkpt><trkpt lat="53.1415833" lon="-0.8051683"><ele>9.5</ele><time>2026-05-02T10:08:26.406Z</time></trkpt><trkpt lat="53.14184" lon="-0.805005"><ele>9.0</ele><time>2026-05-02T10:08:27.406Z</time></trkpt><trkpt lat="53.1420967" lon="-0.804845"><ele>9.0</ele><time>2026-05-02T10:08:28.403Z</time></trkpt><trkpt lat="53.1423483" lon="-0.8046917"><ele>9.0</ele><time>2026-05-02T10:08:29.402Z</time></trkpt><trkpt lat="53.1425967" lon="-0.8045433"><ele>9.0</ele><time>2026-05-02T10:08:30.403Z</time></trkpt><trkpt lat="53.1428483" lon="-0.8043983"><ele>9.0</ele><time>2026-05-02T10:08:31.403Z</time></trkpt><trkpt lat="53.143105" lon="-0.8042667"><ele>9.0</ele><time>2026-05-02T10:08:32.403Z</time></trkpt><trkpt lat="53.1433617" lon="-0.804155"><ele>9.0</ele><time>2026-05-02T10:08:33.402Z</time></trkpt><trkpt lat="53.143625" lon="-0.80406"><ele>9.0</ele><time>2026-05-02T10:08:34.402Z</time></trkpt><trkpt lat="53.1438917" lon="-0.80398"><ele>9.0</ele><time>2026-05-02T10:08:35.402Z</time></trkpt><trkpt lat="53.1441633" lon="-0.8039067"><ele>9.5</ele><time>2026-05-02T10:08:36.404Z</time></trkpt><trkpt lat="53.1444367" lon="-0.80384"><ele>10.0</ele><time>2026-05-02T10:08:37.402Z</time></trkpt><trkpt lat="53.1447133" lon="-0.80379"><ele>11.0</ele><time>2026-05-02T10:08:38.408Z</time></trkpt><trkpt lat="53.1449933" lon="-0.80375"><ele>12.0</ele><time>2026-05-02T10:08:39.402Z</time></trkpt><trkpt lat="53.145275" lon="-0.80373"><ele>12.0</ele><time>2026-05-02T10:08:40.402Z</time></trkpt><trkpt lat="53.1455583" lon="-0.8037267"><ele>12.0</ele><time>2026-05-02T10:08:41.402Z</time></trkpt><trkpt lat="53.14584" lon="-0.8037417"><ele>11.0</ele><time>2026-05-02T10:08:42.406Z</time></trkpt><trkpt lat="53.14612" lon="-0.80377"><ele>10.0</ele><time>2026-05-02T10:08:43.406Z</time></trkpt><trkpt lat="53.1464" lon="-0.8038083"><ele>10.5</ele><time>2026-05-02T10:08:44.406Z</time></trkpt><trkpt lat="53.1466783" lon="-0.803865"><ele>11.0</ele><time>2026-05-02T10:08:45.406Z</time></trkpt><trkpt lat="53.146955" lon="-0.80394"><ele>11.0</ele><time>2026-05-02T10:08:46.403Z</time></trkpt><trkpt lat="53.1472267" lon="-0.804035"><ele>11.0</ele><time>2026-05-02T10:08:47.406Z</time></trkpt><trkpt lat="53.1475" lon="-0.804145"><ele>10.5</ele><time>2026-05-02T10:08:48.406Z</time></trkpt><trkpt lat="53.1477717" lon="-0.8042583"><ele>10.0</ele><time>2026-05-02T10:08:49.407Z</time></trkpt><trkpt lat="53.1480422" lon="-0.8043775"><ele>10.0</ele><time>2026-05-02T10:08:50.403Z</time></trkpt><trkpt lat="53.1483125" lon="-0.8045079"><ele>10.0</ele><time>2026-05-02T10:08:51.406Z</time></trkpt><trkpt lat="53.1485834" lon="-0.8046391"><ele>10.0</ele><time>2026-05-02T10:08:52.406Z</time></trkpt><trkpt lat="53.1488549" lon="-0.8047606"><ele>10.0</ele><time>2026-05-02T10:08:53.405Z</time></trkpt><trkpt lat="53.1491249" lon="-0.8048788"><ele>11.0</ele><time>2026-05-02T10:08:54.409Z</time></trkpt><trkpt lat="53.1493939" lon="-0.8049942"><ele>12.0</ele><time>2026-05-02T10:08:55.403Z</time></trkpt><trkpt lat="53.1496655" lon="-0.8051084"><ele>10.5</ele><time>2026-05-02T10:08:56.406Z</time></trkpt><trkpt lat="53.1499411" lon="-0.8052158"><ele>9.0</ele><time>2026-05-02T10:08:57.41Z</time></trkpt><trkpt lat="53.1502161" lon="-0.8053077"><ele>9.0</ele><time>2026-05-02T10:08:58.406Z</time></trkpt><trkpt lat="53.1504941" lon="-0.8053869"><ele>9.0</ele><time>2026-05-02T10:08:59.405Z</time></trkpt><trkpt lat="53.1507756" lon="-0.8054498"><ele>9.5</ele><time>2026-05-02T10:09:00.407Z</time></trkpt><trkpt lat="53.1510542" lon="-0.8054984"><ele>10.0</ele><time>2026-05-02T10:09:01.406Z</time></trkpt><trkpt lat="53.1513352" lon="-0.8055391"><ele>10.0</ele><time>2026-05-02T10:09:02.407Z</time></trkpt><trkpt lat="53.1516143" lon="-0.8055708"><ele>10.0</ele><time>2026-05-02T10:09:03.406Z</time></trkpt><trkpt lat="53.1518937" lon="-0.8055898"><ele>10.0</ele><time>2026-05-02T10:09:04.405Z</time></trkpt><trkpt lat="53.1521732" lon="-0.8056018"><ele>10.0</ele><time>2026-05-02T10:09:05.402Z</time></trkpt><trkpt lat="53.1524535" lon="-0.8056011"><ele>10.0</ele><time>2026-05-02T10:09:06.402Z</time></trkpt><trkpt lat="53.1527324" lon="-0.8055913"><ele>10.0</ele><time>2026-05-02T10:09:07.402Z</time></trkpt><trkpt lat="53.1530122" lon="-0.8055753"><ele>11.0</ele><time>2026-05-02T10:09:08.403Z</time></trkpt><trkpt lat="53.1532934" lon="-0.8055543"><ele>12.0</ele><time>2026-05-02T10:09:09.404Z</time></trkpt><trkpt lat="53.1535753" lon="-0.8055347"><ele>12.0</ele><time>2026-05-02T10:09:10.402Z</time></trkpt><trkpt lat="53.1538561" lon="-0.8055149"><ele>12.0</ele><time>2026-05-02T10:09:11.403Z</time></trkpt><trkpt lat="53.1541368" lon="-0.8054949"><ele>11.0</ele><time>2026-05-02T10:09:12.41Z</time></trkpt><trkpt lat="53.1544195" lon="-0.8054715"><ele>10.0</ele><time>2026-05-02T10:09:13.405Z</time></trkpt><trkpt lat="53.1547003" lon="-0.8054504"><ele>10.0</ele><time>2026-05-02T10:09:14.404Z</time></trkpt><trkpt lat="53.1549783" lon="-0.8054411"><ele>10.0</ele><time>2026-05-02T10:09:15.405Z</time></trkpt><trkpt lat="53.155254" lon="-0.8054566"><ele>10.0</ele><time>2026-05-02T10:09:16.406Z</time></trkpt><trkpt lat="53.1555325" lon="-0.805493"><ele>10.0</ele><time>2026-05-02T10:09:17.407Z</time></trkpt><trkpt lat="53.1558122" lon="-0.8055463"><ele>9.5</ele><time>2026-05-02T10:09:18.408Z</time></trkpt><trkpt lat="53.1560929" lon="-0.8056174"><ele>9.0</ele><time>2026-05-02T10:09:19.403Z</time></trkpt><trkpt lat="53.1563737" lon="-0.8057023"><ele>9.5</ele><time>2026-05-02T10:09:20.403Z</time></trkpt><trkpt lat="53.1566523" lon="-0.8058038"><ele>10.0</ele><time>2026-05-02T10:09:21.403Z</time></trkpt><trkpt lat="53.1569292" lon="-0.8059195"><ele>10.0</ele><time>2026-05-02T10:09:22.402Z</time></trkpt><trkpt lat="53.1572023" lon="-0.806038"><ele>10.0</ele><time>2026-05-02T10:09:23.402Z</time></trkpt><trkpt lat="53.1574722" lon="-0.8061538"><ele>10.5</ele><time>2026-05-02T10:09:24.402Z</time></trkpt><trkpt lat="53.1577419" lon="-0.8062713"><ele>11.0</ele><time>2026-05-02T10:09:25.402Z</time></trkpt><trkpt lat="53.1580112" lon="-0.8063922"><ele>10.5</ele><time>2026-05-02T10:09:26.406Z</time></trkpt><trkpt lat="53.1582803" lon="-0.8065137"><ele>10.0</ele><time>2026-05-02T10:09:27.402Z</time></trkpt><trkpt lat="53.1585502" lon="-0.8066354"><ele>10.0</ele><time>2026-05-02T10:09:28.403Z</time></trkpt><trkpt lat="53.1588188" lon="-0.8067558"><ele>10.0</ele><time>2026-05-02T10:09:29.403Z</time></trkpt><trkpt lat="53.1590857" lon="-0.8068807"><ele>10.0</ele><time>2026-05-02T10:09:30.402Z</time></trkpt><trkpt lat="53.1593518" lon="-0.8070099"><ele>10.0</ele><time>2026-05-02T10:09:31.403Z</time></trkpt><trkpt lat="53.1596178" lon="-0.8071398"><ele>9.5</ele><time>2026-05-02T10:09:32.402Z</time></trkpt><trkpt lat="53.1598879" lon="-0.8072651"><ele>9.0</ele><time>2026-05-02T10:09:33.403Z</time></trkpt><trkpt lat="53.1601595" lon="-0.8073892"><ele>9.0</ele><time>2026-05-02T10:09:34.403Z</time></trkpt><trkpt lat="53.1604325" lon="-0.8075103"><ele>9.0</ele><time>2026-05-02T10:09:35.402Z</time></trkpt><trkpt lat="53.1607096" lon="-0.8076267"><ele>9.5</ele><time>2026-05-02T10:09:36.403Z</time></trkpt><trkpt lat="53.1609864" lon="-0.8077458"><ele>10.0</ele><time>2026-05-02T10:09:37.402Z</time></trkpt><trkpt lat="53.1612611" lon="-0.8078615"><ele>9.5</ele><time>2026-05-02T10:09:38.405Z</time></trkpt><trkpt lat="53.161533" lon="-0.8079786"><ele>9.0</ele><time>2026-05-02T10:09:39.402Z</time></trkpt><trkpt lat="53.1618039" lon="-0.8080978"><ele>9.0</ele><time>2026-05-02T10:09:40.402Z</time></trkpt><trkpt lat="53.1620743" lon="-0.8082181"><ele>9.0</ele><time>2026-05-02T10:09:41.405Z</time></trkpt><trkpt lat="53.1623415" lon="-0.808342"><ele>9.5</ele><time>2026-05-02T10:09:42.404Z</time></trkpt><trkpt lat="53.1626108" lon="-0.8084644"><ele>10.0</ele><time>2026-05-02T10:09:43.403Z</time></trkpt><trkpt lat="53.1628795" lon="-0.8085835"><ele>10.0</ele><time>2026-05-02T10:09:44.404Z</time></trkpt><trkpt lat="53.1631479" lon="-0.8087107"><ele>10.0</ele><time>2026-05-02T10:09:45.406Z</time></trkpt><trkpt lat="53.1634122" lon="-0.808841"><ele>10.5</ele><time>2026-05-02T10:09:46.402Z</time></trkpt><trkpt lat="53.1636807" lon="-0.8089688"><ele>11.0</ele><time>2026-05-02T10:09:47.404Z</time></trkpt><trkpt lat="53.1639469" lon="-0.809096"><ele>10.5</ele><time>2026-05-02T10:09:48.407Z</time></trkpt><trkpt lat="53.1642141" lon="-0.8092215"><ele>10.0</ele><time>2026-05-02T10:09:49.403Z</time></trkpt><trkpt lat="53.1644839" lon="-0.8093458"><ele>10.0</ele><time>2026-05-02T10:09:50.405Z</time></trkpt><trkpt lat="53.1647522" lon="-0.8094692"><ele>10.0</ele><time>2026-05-02T10:09:51.403Z</time></trkpt><trkpt lat="53.1650205" lon="-0.8095938"><ele>9.5</ele><time>2026-05-02T10:09:52.403Z</time></trkpt><trkpt lat="53.1652884" lon="-0.8097171"><ele>9.0</ele><time>2026-05-02T10:09:53.403Z</time></trkpt><trkpt lat="53.165558" lon="-0.8098396"><ele>9.0</ele><time>2026-05-02T10:09:54.403Z</time></trkpt><trkpt lat="53.1658292" lon="-0.8099649"><ele>9.0</ele><time>2026-05-02T10:09:55.404Z</time></trkpt><trkpt lat="53.1661011" lon="-0.8100903"><ele>9.5</ele><time>2026-05-02T10:09:56.402Z</time></trkpt><trkpt lat="53.1663721" lon="-0.8102152"><ele>10.0</ele><time>2026-05-02T10:09:57.403Z</time></trkpt><trkpt lat="53.1666441" lon="-0.8103372"><ele>10.0</ele><time>2026-05-02T10:09:58.406Z</time></trkpt><trkpt lat="53.166918" lon="-0.8104626"><ele>10.0</ele><time>2026-05-02T10:09:59.403Z</time></trkpt><trkpt lat="53.1671972" lon="-0.8105982"><ele>10.5</ele><time>2026-05-02T10:10:00.402Z</time></trkpt><trkpt lat="53.167477" lon="-0.8107325"><ele>11.0</ele><time>2026-05-02T10:10:01.403Z</time></trkpt><trkpt lat="53.1677512" lon="-0.8108618"><ele>11.0</ele><time>2026-05-02T10:10:02.403Z</time></trkpt><trkpt lat="53.168024" lon="-0.8109927"><ele>11.0</ele><time>2026-05-02T10:10:03.404Z</time></trkpt><trkpt lat="53.1682971" lon="-0.8111218"><ele>12.0</ele><time>2026-05-02T10:10:04.402Z</time></trkpt><trkpt lat="53.1685688" lon="-0.8112468"><ele>13.0</ele><time>2026-05-02T10:10:05.402Z</time></trkpt><trkpt lat="53.1688376" lon="-0.811367"><ele>14.0</ele><time>2026-05-02T10:10:06.403Z</time></trkpt><trkpt lat="53.1691079" lon="-0.8114843"><ele>15.0</ele><time>2026-05-02T10:10:07.402Z</time></trkpt><trkpt lat="53.1693759" lon="-0.8116096"><ele>15.0</ele><time>2026-05-02T10:10:08.403Z</time></trkpt><trkpt lat="53.1696427" lon="-0.8117383"><ele>15.0</ele><time>2026-05-02T10:10:09.403Z</time></trkpt><trkpt lat="53.1699092" lon="-0.8118606"><ele>13.5</ele><time>2026-05-02T10:10:10.402Z</time></trkpt><trkpt lat="53.1701773" lon="-0.8119807"><ele>12.0</ele><time>2026-05-02T10:10:11.403Z</time></trkpt><trkpt lat="53.1704479" lon="-0.8120982"><ele>12.5</ele><time>2026-05-02T10:10:12.402Z</time></trkpt><trkpt lat="53.1707182" lon="-0.8122188"><ele>13.0</ele><time>2026-05-02T10:10:13.402Z</time></trkpt><trkpt lat="53.1709907" lon="-0.8123435"><ele>13.0</ele><time>2026-05-02T10:10:14.403Z</time></trkpt><trkpt lat="53.1712629" lon="-0.8124638"><ele>13.0</ele><time>2026-05-02T10:10:15.402Z</time></trkpt><trkpt lat="53.1715362" lon="-0.8125808"><ele>12.0</ele><time>2026-05-02T10:10:16.403Z</time></trkpt><trkpt lat="53.1718108" lon="-0.8126986"><ele>11.0</ele><time>2026-05-02T10:10:17.403Z</time></trkpt><trkpt lat="53.1720809" lon="-0.8128192"><ele>11.0</ele><time>2026-05-02T10:10:18.403Z</time></trkpt><trkpt lat="53.1723477" lon="-0.8129432"><ele>11.0</ele><time>2026-05-02T10:10:19.402Z</time></trkpt><trkpt lat="53.1726167" lon="-0.8130648"><ele>11.5</ele><time>2026-05-02T10:10:20.404Z</time></trkpt><trkpt lat="53.1728863" lon="-0.8131864"><ele>12.0</ele><time>2026-05-02T10:10:21.403Z</time></trkpt><trkpt lat="53.1731577" lon="-0.8133133"><ele>11.5</ele><time>2026-05-02T10:10:22.403Z</time></trkpt><trkpt lat="53.173427" lon="-0.8134508"><ele>11.0</ele><time>2026-05-02T10:10:23.404Z</time></trkpt><trkpt lat="53.1736908" lon="-0.8136044"><ele>11.0</ele><time>2026-05-02T10:10:24.402Z</time></trkpt><trkpt lat="53.1739549" lon="-0.8137694"><ele>11.0</ele><time>2026-05-02T10:10:25.402Z</time></trkpt><trkpt lat="53.1742153" lon="-0.8139488"><ele>11.0</ele><time>2026-05-02T10:10:26.403Z</time></trkpt><trkpt lat="53.1744683" lon="-0.8141448"><ele>11.0</ele><time>2026-05-02T10:10:27.402Z</time></trkpt><trkpt lat="53.1747176" lon="-0.8143564"><ele>11.5</ele><time>2026-05-02T10:10:28.403Z</time></trkpt><trkpt lat="53.1749665" lon="-0.8145766"><ele>12.0</ele><time>2026-05-02T10:10:29.402Z</time></trkpt><trkpt lat="53.1752137" lon="-0.8148065"><ele>12.0</ele><time>2026-05-02T10:10:30.405Z</time></trkpt><trkpt lat="53.1754591" lon="-0.8150407"><ele>12.0</ele><time>2026-05-02T10:10:31.404Z</time></trkpt><trkpt lat="53.1757003" lon="-0.8152796"><ele>13.5</ele><time>2026-05-02T10:10:32.406Z</time></trkpt><trkpt lat="53.1759352" lon="-0.8155266"><ele>15.0</ele><time>2026-05-02T10:10:33.406Z</time></trkpt><trkpt lat="53.1761697" lon="-0.8157734"><ele>15.0</ele><time>2026-05-02T10:10:34.402Z</time></trkpt><trkpt lat="53.1764083" lon="-0.8160212"><ele>15.0</ele><time>2026-05-02T10:10:35.405Z</time></trkpt><trkpt lat="53.1766451" lon="-0.8162671"><ele>15.0</ele><time>2026-05-02T10:10:36.406Z</time></trkpt><trkpt lat="53.1768859" lon="-0.816509"><ele>15.0</ele><time>2026-05-02T10:10:37.407Z</time></trkpt><trkpt lat="53.1771303" lon="-0.8167487"><ele>15.0</ele><time>2026-05-02T10:10:38.406Z</time></trkpt><trkpt lat="53.1773729" lon="-0.8169914"><ele>16.0</ele><time>2026-05-02T10:10:39.407Z</time></trkpt></trkseg><trkseg><trkpt lat="53.1892115" lon="-0.8325611"><ele>20.5</ele><time>2026-05-02T10:11:33.407Z</time></trkpt><trkpt lat="53.189406" lon="-0.8328937"><ele>21.0</ele><time>2026-05-02T10:11:34.403Z</time></trkpt><trkpt lat="53.189793" lon="-0.8335722"><ele>22.0</ele><time>2026-05-02T10:11:36.406Z</time></trkpt><trkpt lat="53.1899802" lon="-0.8339199"><ele>23.0</ele><time>2026-05-02T10:11:37.402Z</time></trkpt><trkpt lat="53.1901674" lon="-0.8342697"><ele>24.0</ele><time>2026-05-02T10:11:38.403Z</time></trkpt><trkpt lat="53.1903551" lon="-0.8346187"><ele>25.0</ele><time>2026-05-02T10:11:39.401Z</time></trkpt><trkpt lat="53.1905435" lon="-0.8349659"><ele>25.5</ele><time>2026-05-02T10:11:40.403Z</time></trkpt><trkpt lat="53.1907304" lon="-0.8353135"><ele>26.0</ele><time>2026-05-02T10:11:41.406Z</time></trkpt><trkpt lat="53.190916" lon="-0.8356617"><ele>26.0</ele><time>2026-05-02T10:11:42.406Z</time></trkpt><trkpt lat="53.1910998" lon="-0.8360117"><ele>26.0</ele><time>2026-05-02T10:11:43.405Z</time></trkpt><trkpt lat="53.1912838" lon="-0.8363625"><ele>26.0</ele><time>2026-05-02T10:11:44.407Z</time></trkpt><trkpt lat="53.1914657" lon="-0.8367161"><ele>26.0</ele><time>2026-05-02T10:11:45.403Z</time></trkpt><trkpt lat="53.1916464" lon="-0.837072"><ele>25.5</ele><time>2026-05-02T10:11:46.405Z</time></trkpt><trkpt lat="53.1918282" lon="-0.8374276"><ele>25.0</ele><time>2026-05-02T10:11:47.405Z</time></trkpt><trkpt lat="53.1920094" lon="-0.8377849"><ele>25.0</ele><time>2026-05-02T10:11:48.405Z</time></trkpt><trkpt lat="53.1921879" lon="-0.8381448"><ele>25.0</ele><time>2026-05-02T10:11:49.406Z</time></trkpt><trkpt lat="53.1923643" lon="-0.8385048"><ele>23.5</ele><time>2026-05-02T10:11:50.406Z</time></trkpt><trkpt lat="53.1925331" lon="-0.8388731"><ele>22.0</ele><time>2026-05-02T10:11:51.406Z</time></trkpt><trkpt lat="53.1926984" lon="-0.8392457"><ele>22.5</ele><time>2026-05-02T10:11:52.406Z</time></trkpt><trkpt lat="53.1928665" lon="-0.839616"><ele>23.0</ele><time>2026-05-02T10:11:53.405Z</time></trkpt><trkpt lat="53.1930385" lon="-0.8399877"><ele>21.5</ele><time>2026-05-02T10:11:54.405Z</time></trkpt><trkpt lat="53.1932093" lon="-0.8403585"><ele>20.0</ele><time>2026-05-02T10:11:55.407Z</time></trkpt><trkpt lat="53.1933806" lon="-0.8407319"><ele>20.0</ele><time>2026-05-02T10:11:56.406Z</time></trkpt><trkpt lat="53.1935523" lon="-0.8411057"><ele>20.0</ele><time>2026-05-02T10:11:57.406Z</time></trkpt><trkpt lat="53.1937217" lon="-0.8414768"><ele>20.0</ele><time>2026-05-02T10:11:58.406Z</time></trkpt><trkpt lat="53.1938876" lon="-0.8418461"><ele>20.0</ele><time>2026-05-02T10:11:59.405Z</time></trkpt><trkpt lat="53.1940575" lon="-0.8422149"><ele>20.5</ele><time>2026-05-02T10:12:00.406Z</time></trkpt><trkpt lat="53.1942289" lon="-0.8425874"><ele>21.0</ele><time>2026-05-02T10:12:01.406Z</time></trkpt><trkpt lat="53.194402" lon="-0.8429613"><ele>21.0</ele><time>2026-05-02T10:12:02.405Z</time></trkpt><trkpt lat="53.1945726" lon="-0.8433331"><ele>21.0</ele><time>2026-05-02T10:12:03.405Z</time></trkpt><trkpt lat="53.1947441" lon="-0.8437049"><ele>21.5</ele><time>2026-05-02T10:12:04.405Z</time></trkpt><trkpt lat="53.1949144" lon="-0.8440736"><ele>22.0</ele><time>2026-05-02T10:12:05.405Z</time></trkpt><trkpt lat="53.1950867" lon="-0.8444415"><ele>22.0</ele><time>2026-05-02T10:12:06.405Z</time></trkpt><trkpt lat="53.1952566" lon="-0.8448119"><ele>22.0</ele><time>2026-05-02T10:12:07.406Z</time></trkpt><trkpt lat="53.1954241" lon="-0.8451848"><ele>22.0</ele><time>2026-05-02T10:12:08.405Z</time></trkpt><trkpt lat="53.1955913" lon="-0.8455565"><ele>22.0</ele><time>2026-05-02T10:12:09.405Z</time></trkpt><trkpt lat="53.1957599" lon="-0.8459256"><ele>23.0</ele><time>2026-05-02T10:12:10.406Z</time></trkpt><trkpt lat="53.1959294" lon="-0.8462949"><ele>24.0</ele><time>2026-05-02T10:12:11.405Z</time></trkpt><trkpt lat="53.1960996" lon="-0.8466654"><ele>23.5</ele><time>2026-05-02T10:12:12.406Z</time></trkpt><trkpt lat="53.1962692" lon="-0.8470386"><ele>23.0</ele><time>2026-05-02T10:12:13.406Z</time></trkpt><trkpt lat="53.1964387" lon="-0.8474148"><ele>24.5</ele><time>2026-05-02T10:12:14.405Z</time></trkpt><trkpt lat="53.1966107" lon="-0.8477868"><ele>26.0</ele><time>2026-05-02T10:12:15.406Z</time></trkpt><trkpt lat="53.1967834" lon="-0.8481537"><ele>26.5</ele><time>2026-05-02T10:12:16.406Z</time></trkpt><trkpt lat="53.1969556" lon="-0.8485253"><ele>27.0</ele><time>2026-05-02T10:12:17.406Z</time></trkpt><trkpt lat="53.1971263" lon="-0.8488966"><ele>27.0</ele><time>2026-05-02T10:12:18.406Z</time></trkpt><trkpt lat="53.1972976" lon="-0.8492667"><ele>27.0</ele><time>2026-05-02T10:12:19.405Z</time></trkpt><trkpt lat="53.1974724" lon="-0.8496323"><ele>27.0</ele><time>2026-05-02T10:12:20.405Z</time></trkpt><trkpt lat="53.1976485" lon="-0.8499967"><ele>27.0</ele><time>2026-05-02T10:12:21.405Z</time></trkpt><trkpt lat="53.1978238" lon="-0.8503623"><ele>28.0</ele><time>2026-05-02T10:12:22.405Z</time></trkpt><trkpt lat="53.1979946" lon="-0.8507339"><ele>29.0</ele><time>2026-05-02T10:12:23.405Z</time></trkpt><trkpt lat="53.1981645" lon="-0.8511047"><ele>29.5</ele><time>2026-05-02T10:12:24.405Z</time></trkpt><trkpt lat="53.1983391" lon="-0.8514736"><ele>30.0</ele><time>2026-05-02T10:12:25.406Z</time></trkpt><trkpt lat="53.1985163" lon="-0.8518374"><ele>30.5</ele><time>2026-05-02T10:12:26.405Z</time></trkpt><trkpt lat="53.1986943" lon="-0.852199"><ele>31.0</ele><time>2026-05-02T10:12:27.407Z</time></trkpt><trkpt lat="53.1988736" lon="-0.8525619"><ele>30.0</ele><time>2026-05-02T10:12:28.405Z</time></trkpt><trkpt lat="53.1990537" lon="-0.8529246"><ele>29.0</ele><time>2026-05-02T10:12:29.406Z</time></trkpt><trkpt lat="53.1992341" lon="-0.8532831"><ele>29.0</ele><time>2026-05-02T10:12:30.405Z</time></trkpt><trkpt lat="53.1994124" lon="-0.8536404"><ele>29.0</ele><time>2026-05-02T10:12:31.405Z</time></trkpt><trkpt lat="53.1995895" lon="-0.8539961"><ele>29.0</ele><time>2026-05-02T10:12:32.405Z</time></trkpt><trkpt lat="53.1997701" lon="-0.8543517"><ele>29.0</ele><time>2026-05-02T10:12:33.406Z</time></trkpt><trkpt lat="53.1999512" lon="-0.8547035"><ele>26.0</ele><time>2026-05-02T10:12:34.406Z</time></trkpt><trkpt lat="53.2001363" lon="-0.8550549"><ele>23.0</ele><time>2026-05-02T10:12:35.406Z</time></trkpt><trkpt lat="53.200321" lon="-0.8554043"><ele>22.5</ele><time>2026-05-02T10:12:36.405Z</time></trkpt><trkpt lat="53.2005041" lon="-0.8557564"><ele>22.0</ele><time>2026-05-02T10:12:37.406Z</time></trkpt><trkpt lat="53.2006898" lon="-0.8561072"><ele>21.0</ele><time>2026-05-02T10:12:38.405Z</time></trkpt><trkpt lat="53.2008773" lon="-0.8564579"><ele>20.0</ele><time>2026-05-02T10:12:39.408Z</time></trkpt><trkpt lat="53.201064" lon="-0.8568096"><ele>19.5</ele><time>2026-05-02T10:12:40.405Z</time></trkpt><trkpt lat="53.2012521" lon="-0.8571607"><ele>19.0</ele><time>2026-05-02T10:12:41.406Z</time></trkpt><trkpt lat="53.201441" lon="-0.8575061"><ele>20.0</ele><time>2026-05-02T10:12:42.401Z</time></trkpt><trkpt lat="53.2016306" lon="-0.8578508"><ele>21.0</ele><time>2026-05-02T10:12:43.405Z</time></trkpt><trkpt lat="53.201817" lon="-0.8581972"><ele>21.0</ele><time>2026-05-02T10:12:44.405Z</time></trkpt><trkpt lat="53.2020037" lon="-0.858544"><ele>21.0</ele><time>2026-05-02T10:12:45.406Z</time></trkpt><trkpt lat="53.2021926" lon="-0.8588885"><ele>23.0</ele><time>2026-05-02T10:12:46.405Z</time></trkpt><trkpt lat="53.2023813" lon="-0.8592334"><ele>25.0</ele><time>2026-05-02T10:12:47.406Z</time></trkpt><trkpt lat="53.2025685" lon="-0.8595785"><ele>25.5</ele><time>2026-05-02T10:12:48.406Z</time></trkpt><trkpt lat="53.2027555" lon="-0.8599231"><ele>26.0</ele><time>2026-05-02T10:12:49.405Z</time></trkpt><trkpt lat="53.2029479" lon="-0.8602635"><ele>26.0</ele><time>2026-05-02T10:12:50.407Z</time></trkpt><trkpt lat="53.2031432" lon="-0.8606001"><ele>26.0</ele><time>2026-05-02T10:12:51.407Z</time></trkpt><trkpt lat="53.2033385" lon="-0.8609363"><ele>27.5</ele><time>2026-05-02T10:12:52.405Z</time></trkpt><trkpt lat="53.2035334" lon="-0.8612693"><ele>29.0</ele><time>2026-05-02T10:12:53.405Z</time></trkpt><trkpt lat="53.2037293" lon="-0.8616032"><ele>30.0</ele><time>2026-05-02T10:12:54.406Z</time></trkpt><trkpt lat="53.2039227" lon="-0.8619417"><ele>31.0</ele><time>2026-05-02T10:12:55.406Z</time></trkpt><trkpt lat="53.2041183" lon="-0.8622774"><ele>31.5</ele><time>2026-05-02T10:12:56.402Z</time></trkpt><trkpt lat="53.2043167" lon="-0.8626131"><ele>32.0</ele><time>2026-05-02T10:12:57.401Z</time></trkpt><trkpt lat="53.2045144" lon="-0.8629467"><ele>32.5</ele><time>2026-05-02T10:12:58.402Z</time></trkpt><trkpt lat="53.2047146" lon="-0.8632782"><ele>33.0</ele><time>2026-05-02T10:12:59.403Z</time></trkpt><trkpt lat="53.2049157" lon="-0.863608"><ele>34.0</ele><time>2026-05-02T10:13:00.402Z</time></trkpt><trkpt lat="53.2051186" lon="-0.8639358"><ele>35.0</ele><time>2026-05-02T10:13:01.402Z</time></trkpt><trkpt lat="53.2053193" lon="-0.8642645"><ele>36.0</ele><time>2026-05-02T10:13:02.404Z</time></trkpt><trkpt lat="53.2055162" lon="-0.8645956"><ele>37.0</ele><time>2026-05-02T10:13:03.402Z</time></trkpt><trkpt lat="53.2057119" lon="-0.8649259"><ele>35.5</ele><time>2026-05-02T10:13:04.401Z</time></trkpt><trkpt lat="53.2059056" lon="-0.8652454"><ele>34.0</ele><time>2026-05-02T10:13:05.401Z</time></trkpt><trkpt lat="53.2060952" lon="-0.8655499"><ele>34.0</ele><time>2026-05-02T10:13:06.402Z</time></trkpt><trkpt lat="53.2062835" lon="-0.8658472"><ele>34.0</ele><time>2026-05-02T10:13:07.401Z</time></trkpt><trkpt lat="53.2064687" lon="-0.8661451"><ele>34.0</ele><time>2026-05-02T10:13:08.403Z</time></trkpt><trkpt lat="53.2066568" lon="-0.8664477"><ele>34.0</ele><time>2026-05-02T10:13:09.403Z</time></trkpt><trkpt lat="53.2068515" lon="-0.8667503"><ele>36.5</ele><time>2026-05-02T10:13:10.402Z</time></trkpt><trkpt lat="53.2070479" lon="-0.8670562"><ele>39.0</ele><time>2026-05-02T10:13:11.402Z</time></trkpt><trkpt lat="53.2072456" lon="-0.8673633"><ele>38.0</ele><time>2026-05-02T10:13:12.402Z</time></trkpt><trkpt lat="53.2074442" lon="-0.867667"><ele>37.0</ele><time>2026-05-02T10:13:13.401Z</time></trkpt><trkpt lat="53.2076429" lon="-0.8679716"><ele>37.0</ele><time>2026-05-02T10:13:14.403Z</time></trkpt><trkpt lat="53.2078365" lon="-0.8682743"><ele>37.0</ele><time>2026-05-02T10:13:15.403Z</time></trkpt><trkpt lat="53.2080334" lon="-0.868581"><ele>34.5</ele><time>2026-05-02T10:13:16.41Z</time></trkpt><trkpt lat="53.2082337" lon="-0.8688813"><ele>32.0</ele><time>2026-05-02T10:13:17.403Z</time></trkpt><trkpt lat="53.208436" lon="-0.8691781"><ele>32.0</ele><time>2026-05-02T10:13:18.403Z</time></trkpt><trkpt lat="53.2086355" lon="-0.8694783"><ele>32.0</ele><time>2026-05-02T10:13:19.402Z</time></trkpt><trkpt lat="53.2088335" lon="-0.8697818"><ele>33.0</ele><time>2026-05-02T10:13:20.404Z</time></trkpt><trkpt lat="53.2090285" lon="-0.8700794"><ele>34.0</ele><time>2026-05-02T10:13:21.403Z</time></trkpt><trkpt lat="53.2092273" lon="-0.8703756"><ele>35.0</ele><time>2026-05-02T10:13:22.404Z</time></trkpt><trkpt lat="53.2094286" lon="-0.8706728"><ele>36.0</ele><time>2026-05-02T10:13:23.403Z</time></trkpt><trkpt lat="53.2096333" lon="-0.870967"><ele>37.0</ele><time>2026-05-02T10:13:24.403Z</time></trkpt><trkpt lat="53.2098413" lon="-0.8712547"><ele>38.0</ele><time>2026-05-02T10:13:25.402Z</time></trkpt><trkpt lat="53.2100474" lon="-0.8715422"><ele>37.5</ele><time>2026-05-02T10:13:26.402Z</time></trkpt><trkpt lat="53.2102512" lon="-0.8718302"><ele>37.0</ele><time>2026-05-02T10:13:27.403Z</time></trkpt><trkpt lat="53.2104533" lon="-0.8721171"><ele>37.0</ele><time>2026-05-02T10:13:28.402Z</time></trkpt><trkpt lat="53.2106549" lon="-0.8724024"><ele>37.0</ele><time>2026-05-02T10:13:29.402Z</time></trkpt><trkpt lat="53.2108589" lon="-0.872685"><ele>36.5</ele><time>2026-05-02T10:13:30.403Z</time></trkpt><trkpt lat="53.2110582" lon="-0.8729613"><ele>36.0</ele><time>2026-05-02T10:13:31.406Z</time></trkpt><trkpt lat="53.2112502" lon="-0.873229"><ele>33.0</ele><time>2026-05-02T10:13:32.402Z</time></trkpt><trkpt lat="53.2144807" lon="-0.8775111"><ele>32.0</ele><time>2026-05-02T10:13:49.406Z</time></trkpt><trkpt lat="53.2150158" lon="-0.8781772"><ele>32.0</ele><time>2026-05-02T10:13:52.405Z</time></trkpt><trkpt lat="53.2152021" lon="-0.8783968"><ele>32.0</ele><time>2026-05-02T10:13:53.405Z</time></trkpt><trkpt lat="53.2154033" lon="-0.8786223"><ele>32.5</ele><time>2026-05-02T10:13:54.404Z</time></trkpt><trkpt lat="53.2156167" lon="-0.8788667"><ele>33.0</ele><time>2026-05-02T10:13:55.404Z</time></trkpt><trkpt lat="53.21583" lon="-0.8791183"><ele>32.0</ele><time>2026-05-02T10:13:56.402Z</time></trkpt><trkpt lat="53.2160383" lon="-0.87937"><ele>31.0</ele><time>2026-05-02T10:13:57.405Z</time></trkpt><trkpt lat="53.2162433" lon="-0.8796167"><ele>31.0</ele><time>2026-05-02T10:13:58.406Z</time></trkpt><trkpt lat="53.21645" lon="-0.8798683"><ele>31.0</ele><time>2026-05-02T10:13:59.406Z</time></trkpt><trkpt lat="53.2166617" lon="-0.880125"><ele>31.0</ele><time>2026-05-02T10:14:00.408Z</time></trkpt><trkpt lat="53.21688" lon="-0.8803833"><ele>31.0</ele><time>2026-05-02T10:14:01.408Z</time></trkpt><trkpt lat="53.2171033" lon="-0.880645"><ele>31.5</ele><time>2026-05-02T10:14:02.402Z</time></trkpt><trkpt lat="53.217325" lon="-0.8809083"><ele>32.0</ele><time>2026-05-02T10:14:03.402Z</time></trkpt><trkpt lat="53.2175467" lon="-0.8811683"><ele>32.0</ele><time>2026-05-02T10:14:04.405Z</time></trkpt><trkpt lat="53.2177683" lon="-0.881425"><ele>32.0</ele><time>2026-05-02T10:14:05.406Z</time></trkpt><trkpt lat="53.2179867" lon="-0.881675"><ele>32.0</ele><time>2026-05-02T10:14:06.406Z</time></trkpt><trkpt lat="53.2182033" lon="-0.8819183"><ele>32.0</ele><time>2026-05-02T10:14:07.402Z</time></trkpt><trkpt lat="53.2184167" lon="-0.8821583"><ele>32.0</ele><time>2026-05-02T10:14:08.407Z</time></trkpt><trkpt lat="53.21863" lon="-0.8823967"><ele>32.0</ele><time>2026-05-02T10:14:09.401Z</time></trkpt><trkpt lat="53.2188483" lon="-0.8826383"><ele>34.5</ele><time>2026-05-02T10:14:10.401Z</time></trkpt><trkpt lat="53.2190667" lon="-0.8828833"><ele>37.0</ele><time>2026-05-02T10:14:11.405Z</time></trkpt><trkpt lat="53.2192883" lon="-0.8831333"><ele>37.0</ele><time>2026-05-02T10:14:12.407Z</time></trkpt><trkpt lat="53.219515" lon="-0.8833867"><ele>37.0</ele><time>2026-05-02T10:14:13.406Z</time></trkpt><trkpt lat="53.21975" lon="-0.8836467"><ele>37.0</ele><time>2026-05-02T10:14:14.405Z</time></trkpt><trkpt lat="53.2199917" lon="-0.8839067"><ele>37.0</ele><time>2026-05-02T10:14:15.406Z</time></trkpt><trkpt lat="53.220475" lon="-0.8844267"><ele>36.0</ele><time>2026-05-02T10:14:17.407Z</time></trkpt><trkpt lat="53.2207183" lon="-0.8846783"><ele>35.0</ele><time>2026-05-02T10:14:18.406Z</time></trkpt><trkpt lat="53.2209567" lon="-0.8849267"><ele>36.0</ele><time>2026-05-02T10:14:19.407Z</time></trkpt><trkpt lat="53.2211917" lon="-0.8851683"><ele>37.0</ele><time>2026-05-02T10:14:20.413Z</time></trkpt><trkpt lat="53.2214183" lon="-0.8854067"><ele>36.0</ele><time>2026-05-02T10:14:21.403Z</time></trkpt><trkpt lat="53.22164" lon="-0.8856417"><ele>35.0</ele><time>2026-05-02T10:14:22.406Z</time></trkpt><trkpt lat="53.2218583" lon="-0.8858733"><ele>35.0</ele><time>2026-05-02T10:14:23.406Z</time></trkpt><trkpt lat="53.2220767" lon="-0.8861033"><ele>35.0</ele><time>2026-05-02T10:14:24.406Z</time></trkpt><trkpt lat="53.2223" lon="-0.88634"><ele>35.0</ele><time>2026-05-02T10:14:25.406Z</time></trkpt><trkpt lat="53.2225317" lon="-0.8865883"><ele>35.0</ele><time>2026-05-02T10:14:26.407Z</time></trkpt><trkpt lat="53.2227733" lon="-0.8868417"><ele>34.0</ele><time>2026-05-02T10:14:27.406Z</time></trkpt><trkpt lat="53.22302" lon="-0.887095"><ele>33.0</ele><time>2026-05-02T10:14:28.405Z</time></trkpt><trkpt lat="53.223275" lon="-0.8873517"><ele>32.0</ele><time>2026-05-02T10:14:29.403Z</time></trkpt><trkpt lat="53.2235333" lon="-0.8876167"><ele>31.0</ele><time>2026-05-02T10:14:30.403Z</time></trkpt><trkpt lat="53.2237867" lon="-0.8878867"><ele>32.5</ele><time>2026-05-02T10:14:31.402Z</time></trkpt><trkpt lat="53.2240383" lon="-0.8881517"><ele>34.0</ele><time>2026-05-02T10:14:32.406Z</time></trkpt><trkpt lat="53.22429" lon="-0.8884083"><ele>33.5</ele><time>2026-05-02T10:14:33.406Z</time></trkpt><trkpt lat="53.224535" lon="-0.888665"><ele>33.0</ele><time>2026-05-02T10:14:34.407Z</time></trkpt><trkpt lat="53.2247783" lon="-0.88892"><ele>35.5</ele><time>2026-05-02T10:14:35.405Z</time></trkpt><trkpt lat="53.2250183" lon="-0.8891667"><ele>38.0</ele><time>2026-05-02T10:14:36.406Z</time></trkpt><trkpt lat="53.225255" lon="-0.88941"><ele>38.5</ele><time>2026-05-02T10:14:37.406Z</time></trkpt><trkpt lat="53.2254917" lon="-0.889655"><ele>39.0</ele><time>2026-05-02T10:14:38.402Z</time></trkpt><trkpt lat="53.2257267" lon="-0.8898983"><ele>42.0</ele><time>2026-05-02T10:14:39.405Z</time></trkpt><trkpt lat="53.2259617" lon="-0.890145"><ele>45.0</ele><time>2026-05-02T10:14:40.408Z</time></trkpt><trkpt lat="53.2262" lon="-0.89039"><ele>45.0</ele><time>2026-05-02T10:14:41.403Z</time></trkpt><trkpt lat="53.2264383" lon="-0.8906333"><ele>45.0</ele><time>2026-05-02T10:14:42.404Z</time></trkpt><trkpt lat="53.22667" lon="-0.890875"><ele>45.0</ele><time>2026-05-02T10:14:43.406Z</time></trkpt><trkpt lat="53.2269" lon="-0.8911133"><ele>45.0</ele><time>2026-05-02T10:14:44.406Z</time></trkpt><trkpt lat="53.22713" lon="-0.8913533"><ele>46.0</ele><time>2026-05-02T10:14:45.406Z</time></trkpt><trkpt lat="53.2273617" lon="-0.891595"><ele>47.0</ele><time>2026-05-02T10:14:46.405Z</time></trkpt><trkpt lat="53.227595" lon="-0.8918383"><ele>47.5</ele><time>2026-05-02T10:14:47.405Z</time></trkpt><trkpt lat="53.2278317" lon="-0.8920833"><ele>48.0</ele><time>2026-05-02T10:14:48.406Z</time></trkpt><trkpt lat="53.228075" lon="-0.8923367"><ele>50.5</ele><time>2026-05-02T10:14:49.402Z</time></trkpt><trkpt lat="53.2283217" lon="-0.8925967"><ele>53.0</ele><time>2026-05-02T10:14:50.405Z</time></trkpt><trkpt lat="53.228575" lon="-0.8928583"><ele>53.0</ele><time>2026-05-02T10:14:51.405Z</time></trkpt><trkpt lat="53.228835" lon="-0.893125"><ele>53.0</ele><time>2026-05-02T10:14:52.402Z</time></trkpt><trkpt lat="53.2290983" lon="-0.8933967"><ele>54.5</ele><time>2026-05-02T10:14:53.403Z</time></trkpt><trkpt lat="53.2293667" lon="-0.893675"><ele>56.0</ele><time>2026-05-02T10:14:54.403Z</time></trkpt><trkpt lat="53.229635" lon="-0.8939533"><ele>55.5</ele><time>2026-05-02T10:14:55.403Z</time></trkpt><trkpt lat="53.2299067" lon="-0.894235"><ele>55.0</ele><time>2026-05-02T10:14:56.404Z</time></trkpt><trkpt lat="53.2301783" lon="-0.8945167"><ele>55.0</ele><time>2026-05-02T10:14:57.402Z</time></trkpt><trkpt lat="53.23046" lon="-0.8947933"><ele>55.0</ele><time>2026-05-02T10:14:58.406Z</time></trkpt><trkpt lat="53.2307417" lon="-0.8950633"><ele>56.0</ele><time>2026-05-02T10:14:59.405Z</time></trkpt><trkpt lat="53.231015" lon="-0.8953217"><ele>57.0</ele><time>2026-05-02T10:15:00.402Z</time></trkpt><trkpt lat="53.23128" lon="-0.895565"><ele>57.0</ele><time>2026-05-02T10:15:01.401Z</time></trkpt><trkpt lat="53.2315367" lon="-0.895805"><ele>57.0</ele><time>2026-05-02T10:15:02.403Z</time></trkpt><trkpt lat="53.2317883" lon="-0.8960433"><ele>57.0</ele><time>2026-05-02T10:15:03.402Z</time></trkpt><trkpt lat="53.2320467" lon="-0.8962667"><ele>57.0</ele><time>2026-05-02T10:15:04.405Z</time></trkpt><trkpt lat="53.2323083" lon="-0.8964833"><ele>55.5</ele><time>2026-05-02T10:15:05.402Z</time></trkpt><trkpt lat="53.2325717" lon="-0.8967"><ele>54.0</ele><time>2026-05-02T10:15:06.404Z</time></trkpt><trkpt lat="53.23284" lon="-0.8969133"><ele>54.0</ele><time>2026-05-02T10:15:07.405Z</time></trkpt><trkpt lat="53.233115" lon="-0.8971233"><ele>54.0</ele><time>2026-05-02T10:15:08.403Z</time></trkpt><trkpt lat="53.23339" lon="-0.89734"><ele>52.0</ele><time>2026-05-02T10:15:09.403Z</time></trkpt><trkpt lat="53.23367" lon="-0.8975533"><ele>50.0</ele><time>2026-05-02T10:15:10.405Z</time></trkpt><trkpt lat="53.2339617" lon="-0.89776"><ele>48.5</ele><time>2026-05-02T10:15:11.405Z</time></trkpt><trkpt lat="53.234255" lon="-0.8979617"><ele>47.0</ele><time>2026-05-02T10:15:12.402Z</time></trkpt><trkpt lat="53.2345417" lon="-0.8981567"><ele>48.0</ele><time>2026-05-02T10:15:13.401Z</time></trkpt><trkpt lat="53.2348333" lon="-0.898345"><ele>49.0</ele><time>2026-05-02T10:15:14.403Z</time></trkpt><trkpt lat="53.235125" lon="-0.8985317"><ele>49.0</ele><time>2026-05-02T10:15:15.402Z</time></trkpt><trkpt lat="53.2354167" lon="-0.8987167"><ele>49.0</ele><time>2026-05-02T10:15:16.401Z</time></trkpt><trkpt lat="53.2357067" lon="-0.8988933"><ele>52.0</ele><time>2026-05-02T10:15:17.402Z</time></trkpt><trkpt lat="53.2359967" lon="-0.899065"><ele>55.0</ele><time>2026-05-02T10:15:18.404Z</time></trkpt><trkpt lat="53.2362817" lon="-0.899235"><ele>57.5</ele><time>2026-05-02T10:15:19.403Z</time></trkpt><trkpt lat="53.2365617" lon="-0.899405"><ele>60.0</ele><time>2026-05-02T10:15:20.403Z</time></trkpt><trkpt lat="53.2368417" lon="-0.8995683"><ele>60.0</ele><time>2026-05-02T10:15:21.403Z</time></trkpt><trkpt lat="53.237125" lon="-0.8997283"><ele>60.0</ele><time>2026-05-02T10:15:22.401Z</time></trkpt><trkpt lat="53.23741" lon="-0.8998717"><ele>61.0</ele><time>2026-05-02T10:15:23.402Z</time></trkpt><trkpt lat="53.237695" lon="-0.9000117"><ele>62.0</ele><time>2026-05-02T10:15:24.403Z</time></trkpt><trkpt lat="53.2379767" lon="-0.9001517"><ele>62.5</ele><time>2026-05-02T10:15:25.403Z</time></trkpt><trkpt lat="53.238255" lon="-0.900285"><ele>63.0</ele><time>2026-05-02T10:15:26.402Z</time></trkpt><trkpt lat="53.2385333" lon="-0.90042"><ele>63.0</ele><time>2026-05-02T10:15:27.402Z</time></trkpt><trkpt lat="53.2388033" lon="-0.900545"><ele>63.0</ele><time>2026-05-02T10:15:28.402Z</time></trkpt><trkpt lat="53.239075" lon="-0.9006683"><ele>62.0</ele><time>2026-05-02T10:15:29.404Z</time></trkpt><trkpt lat="53.239345" lon="-0.900785"><ele>61.0</ele><time>2026-05-02T10:15:30.402Z</time></trkpt><trkpt lat="53.2396167" lon="-0.9008983"><ele>61.0</ele><time>2026-05-02T10:15:31.403Z</time></trkpt><trkpt lat="53.23989" lon="-0.9010033"><ele>61.0</ele><time>2026-05-02T10:15:32.404Z</time></trkpt><trkpt lat="53.2401583" lon="-0.9011033"><ele>61.0</ele><time>2026-05-02T10:15:33.402Z</time></trkpt><trkpt lat="53.2404217" lon="-0.9012067"><ele>61.0</ele><time>2026-05-02T10:15:34.402Z</time></trkpt><trkpt lat="53.24069" lon="-0.9013283"><ele>59.0</ele><time>2026-05-02T10:15:35.402Z</time></trkpt><trkpt lat="53.240955" lon="-0.9014383"><ele>57.0</ele><time>2026-05-02T10:15:36.403Z</time></trkpt><trkpt lat="53.2412183" lon="-0.9015517"><ele>55.5</ele><time>2026-05-02T10:15:37.405Z</time></trkpt><trkpt lat="53.2414783" lon="-0.9016633"><ele>54.0</ele><time>2026-05-02T10:15:38.402Z</time></trkpt><trkpt lat="53.2417383" lon="-0.9017783"><ele>54.0</ele><time>2026-05-02T10:15:39.402Z</time></trkpt><trkpt lat="53.2419983" lon="-0.9019017"><ele>54.0</ele><time>2026-05-02T10:15:40.401Z</time></trkpt><trkpt lat="53.2422583" lon="-0.902025"><ele>55.5</ele><time>2026-05-02T10:15:41.402Z</time></trkpt><trkpt lat="53.2425117" lon="-0.9021683"><ele>57.0</ele><time>2026-05-02T10:15:42.406Z</time></trkpt><trkpt lat="53.242765" lon="-0.9023233"><ele>57.0</ele><time>2026-05-02T10:15:43.405Z</time></trkpt><trkpt lat="53.2430183" lon="-0.9024783"><ele>57.0</ele><time>2026-05-02T10:15:44.403Z</time></trkpt><trkpt lat="53.2432717" lon="-0.9026383"><ele>58.5</ele><time>2026-05-02T10:15:45.403Z</time></trkpt><trkpt lat="53.2435233" lon="-0.9028067"><ele>60.0</ele><time>2026-05-02T10:15:46.406Z</time></trkpt><trkpt lat="53.243775" lon="-0.9029783"><ele>60.5</ele><time>2026-05-02T10:15:47.405Z</time></trkpt><trkpt lat="53.2440283" lon="-0.9031533"><ele>61.0</ele><time>2026-05-02T10:15:48.402Z</time></trkpt><trkpt lat="53.2442767" lon="-0.9033367"><ele>62.0</ele><time>2026-05-02T10:15:49.403Z</time></trkpt><trkpt lat="53.24452" lon="-0.9035283"><ele>63.0</ele><time>2026-05-02T10:15:50.403Z</time></trkpt><trkpt lat="53.244765" lon="-0.9037217"><ele>63.5</ele><time>2026-05-02T10:15:51.403Z</time></trkpt><trkpt lat="53.2450067" lon="-0.9039217"><ele>64.0</ele><time>2026-05-02T10:15:52.401Z</time></trkpt><trkpt lat="53.2452467" lon="-0.90413"><ele>65.0</ele><time>2026-05-02T10:15:53.402Z</time></trkpt><trkpt lat="53.245485" lon="-0.9043467"><ele>66.0</ele><time>2026-05-02T10:15:54.402Z</time></trkpt><trkpt lat="53.2457183" lon="-0.9045717"><ele>66.5</ele><time>2026-05-02T10:15:55.403Z</time></trkpt><trkpt lat="53.2459517" lon="-0.9048033"><ele>67.0</ele><time>2026-05-02T10:15:56.403Z</time></trkpt><trkpt lat="53.2461833" lon="-0.9050383"><ele>67.0</ele><time>2026-05-02T10:15:57.405Z</time></trkpt><trkpt lat="53.2464133" lon="-0.9052767"><ele>67.0</ele><time>2026-05-02T10:15:58.404Z</time></trkpt><trkpt lat="53.246645" lon="-0.90552"><ele>67.0</ele><time>2026-05-02T10:15:59.403Z</time></trkpt><trkpt lat="53.2468683" lon="-0.9057717"><ele>67.0</ele><time>2026-05-02T10:16:00.406Z</time></trkpt><trkpt lat="53.2470967" lon="-0.9060217"><ele>67.0</ele><time>2026-05-02T10:16:01.402Z</time></trkpt><trkpt lat="53.2473233" lon="-0.9062733"><ele>67.0</ele><time>2026-05-02T10:16:02.403Z</time></trkpt><trkpt lat="53.2475567" lon="-0.9065333"><ele>67.5</ele><time>2026-05-02T10:16:03.402Z</time></trkpt><trkpt lat="53.24778" lon="-0.9068017"><ele>68.0</ele><time>2026-05-02T10:16:04.403Z</time></trkpt><trkpt lat="53.2479967" lon="-0.9070783"><ele>24.0</ele><time>2026-05-02T10:16:05.404Z</time></trkpt><trkpt lat="53.2567867" lon="-0.928795"><ele>23.0</ele><time>2026-05-02T10:17:04.403Z</time></trkpt><trkpt lat="53.257045" lon="-0.9295717"><ele>23.0</ele><time>2026-05-02T10:17:06.403Z</time></trkpt><trkpt lat="53.25718" lon="-0.9299583"><ele>23.0</ele><time>2026-05-02T10:17:07.402Z</time></trkpt><trkpt lat="53.2573267" lon="-0.9303517"><ele>23.5</ele><time>2026-05-02T10:17:08.404Z</time></trkpt><trkpt lat="53.25748" lon="-0.930755"><ele>24.0</ele><time>2026-05-02T10:17:09.408Z</time></trkpt><trkpt lat="53.257635" lon="-0.9311683"><ele>23.0</ele><time>2026-05-02T10:17:10.405Z</time></trkpt><trkpt lat="53.2577833" lon="-0.931585"><ele>22.0</ele><time>2026-05-02T10:17:11.405Z</time></trkpt><trkpt lat="53.257935" lon="-0.9320067"><ele>22.0</ele><time>2026-05-02T10:17:12.405Z</time></trkpt><trkpt lat="53.25809" lon="-0.9324283"><ele>22.0</ele><time>2026-05-02T10:17:13.403Z</time></trkpt><trkpt lat="53.2582483" lon="-0.9328517"><ele>22.0</ele><time>2026-05-02T10:17:14.404Z</time></trkpt><trkpt lat="53.2584083" lon="-0.9332767"><ele>22.0</ele><time>2026-05-02T10:17:15.406Z</time></trkpt><trkpt lat="53.2585717" lon="-0.9337017"><ele>22.5</ele><time>2026-05-02T10:17:16.405Z</time></trkpt><trkpt lat="53.2587367" lon="-0.9341267"><ele>23.0</ele><time>2026-05-02T10:17:17.402Z</time></trkpt><trkpt lat="53.2589033" lon="-0.9345417"><ele>24.0</ele><time>2026-05-02T10:17:18.402Z</time></trkpt><trkpt lat="53.2590667" lon="-0.9349383"><ele>25.0</ele><time>2026-05-02T10:17:19.403Z</time></trkpt><trkpt lat="53.259225" lon="-0.93532"><ele>25.0</ele><time>2026-05-02T10:17:20.405Z</time></trkpt><trkpt lat="53.2593833" lon="-0.9356917"><ele>25.0</ele><time>2026-05-02T10:17:21.403Z</time></trkpt><trkpt lat="53.2595417" lon="-0.93606"><ele>25.0</ele><time>2026-05-02T10:17:22.403Z</time></trkpt><trkpt lat="53.259705" lon="-0.9364217"><ele>25.0</ele><time>2026-05-02T10:17:23.404Z</time></trkpt><trkpt lat="53.2598717" lon="-0.9367783"><ele>25.0</ele><time>2026-05-02T10:17:24.407Z</time></trkpt><trkpt lat="53.2600367" lon="-0.93714"><ele>25.0</ele><time>2026-05-02T10:17:25.406Z</time></trkpt><trkpt lat="53.2602017" lon="-0.9375"><ele>25.0</ele><time>2026-05-02T10:17:26.403Z</time></trkpt><trkpt lat="53.260375" lon="-0.937855"><ele>25.0</ele><time>2026-05-02T10:17:27.403Z</time></trkpt><trkpt lat="53.2605483" lon="-0.9382033"><ele>24.5</ele><time>2026-05-02T10:17:28.406Z</time></trkpt><trkpt lat="53.2607233" lon="-0.9385483"><ele>24.0</ele><time>2026-05-02T10:17:29.409Z</time></trkpt><trkpt lat="53.2609017" lon="-0.9388917"><ele>24.5</ele><time>2026-05-02T10:17:30.405Z</time></trkpt><trkpt lat="53.2610783" lon="-0.9392283"><ele>25.0</ele><time>2026-05-02T10:17:31.403Z</time></trkpt><trkpt lat="53.2612533" lon="-0.9395583"><ele>25.0</ele><time>2026-05-02T10:17:32.405Z</time></trkpt><trkpt lat="53.2614217" lon="-0.9398867"><ele>25.0</ele><time>2026-05-02T10:17:33.406Z</time></trkpt><trkpt lat="53.2615867" lon="-0.9402167"><ele>23.5</ele><time>2026-05-02T10:17:34.405Z</time></trkpt><trkpt lat="53.2617567" lon="-0.9405467"><ele>22.0</ele><time>2026-05-02T10:17:35.405Z</time></trkpt><trkpt lat="53.26193" lon="-0.9408767"><ele>22.0</ele><time>2026-05-02T10:17:36.405Z</time></trkpt><trkpt lat="53.26211" lon="-0.9412033"><ele>22.0</ele><time>2026-05-02T10:17:37.405Z</time></trkpt><trkpt lat="53.2622917" lon="-0.9415267"><ele>22.0</ele><time>2026-05-02T10:17:38.402Z</time></trkpt><trkpt lat="53.2624817" lon="-0.94184"><ele>22.0</ele><time>2026-05-02T10:17:39.405Z</time></trkpt><trkpt lat="53.2626717" lon="-0.94214"><ele>22.0</ele><time>2026-05-02T10:17:40.406Z</time></trkpt><trkpt lat="53.2628567" lon="-0.9424283"><ele>22.0</ele><time>2026-05-02T10:17:41.406Z</time></trkpt><trkpt lat="53.2630233" lon="-0.9427033"><ele>21.666666666666664</ele><time>2026-05-02T10:17:42.406Z</time></trkpt><trkpt lat="53.2631883" lon="-0.9429633"><ele>21.333333333333332</ele><time>2026-05-02T10:17:43.405Z</time></trkpt><trkpt lat="53.2633483" lon="-0.94321"><ele>21.0</ele><time>2026-05-02T10:17:44.411Z</time></trkpt><trkpt lat="53.26351" lon="-0.94345"><ele>21.333333333333332</ele><time>2026-05-02T10:17:45.402Z</time></trkpt><trkpt lat="53.2636733" lon="-0.9436833"><ele>21.666666666666664</ele><time>2026-05-02T10:17:46.405Z</time></trkpt><trkpt lat="53.2638333" lon="-0.94392"><ele>22.0</ele><time>2026-05-02T10:17:47.403Z</time></trkpt><trkpt lat="53.2639967" lon="-0.94415"><ele>21.666666666666664</ele><time>2026-05-02T10:17:48.402Z</time></trkpt><trkpt lat="53.2641567" lon="-0.9443783"><ele>21.333333333333332</ele><time>2026-05-02T10:17:49.402Z</time></trkpt><trkpt lat="53.2643167" lon="-0.9446017"><ele>21.0</ele><time>2026-05-02T10:17:50.403Z</time></trkpt><trkpt lat="53.264475" lon="-0.9448233"><ele>21.0</ele><time>2026-05-02T10:17:51.403Z</time></trkpt><trkpt lat="53.2646333" lon="-0.9450433"><ele>21.0</ele><time>2026-05-02T10:17:52.403Z</time></trkpt><trkpt lat="53.2647933" lon="-0.945255"><ele>21.0</ele><time>2026-05-02T10:17:53.405Z</time></trkpt><trkpt lat="53.264955" lon="-0.9454667"><ele>21.0</ele><time>2026-05-02T10:17:54.405Z</time></trkpt><trkpt lat="53.2651133" lon="-0.94567"><ele>21.0</ele><time>2026-05-02T10:17:55.406Z</time></trkpt><trkpt lat="53.2652667" lon="-0.9458683"><ele>21.0</ele><time>2026-05-02T10:17:56.405Z</time></trkpt><trkpt lat="53.26542" lon="-0.9460633"><ele>20.666666666666668</ele><time>2026-05-02T10:17:57.407Z</time></trkpt><trkpt lat="53.2655733" lon="-0.9462617"><ele>20.333333333333336</ele><time>2026-05-02T10:17:58.406Z</time></trkpt><trkpt lat="53.2657317" lon="-0.9464633"><ele>20.0</ele><time>2026-05-02T10:17:59.405Z</time></trkpt><trkpt lat="53.265895" lon="-0.94666"><ele>20.333333333333336</ele><time>2026-05-02T10:18:00.407Z</time></trkpt><trkpt lat="53.2660567" lon="-0.9468533"><ele>20.666666666666668</ele><time>2026-05-02T10:18:01.407Z</time></trkpt><trkpt lat="53.2662183" lon="-0.9470467"><ele>21.0</ele><time>2026-05-02T10:18:02.404Z</time></trkpt><trkpt lat="53.2663783" lon="-0.9472383"><ele>20.666666666666668</ele><time>2026-05-02T10:18:03.403Z</time></trkpt><trkpt lat="53.266535" lon="-0.9474283"><ele>20.333333333333336</ele><time>2026-05-02T10:18:04.405Z</time></trkpt><trkpt lat="53.2666883" lon="-0.9476167"><ele>20.0</ele><time>2026-05-02T10:18:05.403Z</time></trkpt><trkpt lat="53.2668383" lon="-0.9478017"><ele>19.666666666666668</ele><time>2026-05-02T10:18:06.405Z</time></trkpt><trkpt lat="53.2669817" lon="-0.94798"><ele>19.333333333333332</ele><time>2026-05-02T10:18:07.406Z</time></trkpt><trkpt lat="53.2671183" lon="-0.9481533"><ele>19.0</ele><time>2026-05-02T10:18:08.402Z</time></trkpt><trkpt lat="53.26725" lon="-0.948325"><ele>18.666666666666664</ele><time>2026-05-02T10:18:09.402Z</time></trkpt><trkpt lat="53.2673783" lon="-0.9485017"><ele>18.333333333333332</ele><time>2026-05-02T10:18:10.404Z</time></trkpt><trkpt lat="53.2675033" lon="-0.9486867"><ele>18.0</ele><time>2026-05-02T10:18:11.406Z</time></trkpt><trkpt lat="53.2676283" lon="-0.9488833"><ele>18.0</ele><time>2026-05-02T10:18:12.402Z</time></trkpt><trkpt lat="53.2677517" lon="-0.949085"><ele>18.0</ele><time>2026-05-02T10:18:13.402Z</time></trkpt><trkpt lat="53.26787" lon="-0.9492867"><ele>18.0</ele><time>2026-05-02T10:18:14.405Z</time></trkpt><trkpt lat="53.2679817" lon="-0.9494867"><ele>18.0</ele><time>2026-05-02T10:18:15.405Z</time></trkpt><trkpt lat="53.2680933" lon="-0.94969"><ele>18.0</ele><time>2026-05-02T10:18:16.406Z</time></trkpt><trkpt lat="53.2682017" lon="-0.9499017"><ele>18.0</ele><time>2026-05-02T10:18:17.406Z</time></trkpt><trkpt lat="53.2683083" lon="-0.9501217"><ele>18.333333333333332</ele><time>2026-05-02T10:18:18.406Z</time></trkpt><trkpt lat="53.26842" lon="-0.9503517"><ele>18.666666666666664</ele><time>2026-05-02T10:18:19.405Z</time></trkpt><trkpt lat="53.26853" lon="-0.9505967"><ele>19.0</ele><time>2026-05-02T10:18:20.408Z</time></trkpt><trkpt lat="53.2686433" lon="-0.95085"><ele>19.0</ele><time>2026-05-02T10:18:21.405Z</time></trkpt><trkpt lat="53.2687517" lon="-0.95111"><ele>19.0</ele><time>2026-05-02T10:18:22.406Z</time></trkpt><trkpt lat="53.2688567" lon="-0.9513783"><ele>19.0</ele><time>2026-05-02T10:18:23.402Z</time></trkpt><trkpt lat="53.2689567" lon="-0.951655"><ele>19.666666666666664</ele><time>2026-05-02T10:18:24.405Z</time></trkpt><trkpt lat="53.269055" lon="-0.951935"><ele>20.333333333333332</ele><time>2026-05-02T10:18:25.407Z</time></trkpt><trkpt lat="53.2691517" lon="-0.9522217"><ele>21.0</ele><time>2026-05-02T10:18:26.406Z</time></trkpt><trkpt lat="53.2692417" lon="-0.95251"><ele>21.333333333333332</ele><time>2026-05-02T10:18:27.405Z</time></trkpt><trkpt lat="53.2693283" lon="-0.9528"><ele>21.666666666666664</ele><time>2026-05-02T10:18:28.407Z</time></trkpt><trkpt lat="53.269405" lon="-0.9530883"><ele>22.0</ele><time>2026-05-02T10:18:29.405Z</time></trkpt><trkpt lat="53.26948" lon="-0.9533783"><ele>22.333333333333332</ele><time>2026-05-02T10:18:30.408Z</time></trkpt><trkpt lat="53.26955" lon="-0.9536717"><ele>22.666666666666668</ele><time>2026-05-02T10:18:31.405Z</time></trkpt><trkpt lat="53.2696133" lon="-0.95397"><ele>23.0</ele><time>2026-05-02T10:18:32.405Z</time></trkpt><trkpt lat="53.2696767" lon="-0.95427"><ele>23.0</ele><time>2026-05-02T10:18:33.408Z</time></trkpt><trkpt lat="53.2697317" lon="-0.95457"><ele>23.0</ele><time>2026-05-02T10:18:34.402Z</time></trkpt><trkpt lat="53.2697833" lon="-0.954865"><ele>23.0</ele><time>2026-05-02T10:18:35.406Z</time></trkpt><trkpt lat="53.2698267" lon="-0.9551533"><ele>23.0</ele><time>2026-05-02T10:18:36.403Z</time></trkpt><trkpt lat="53.269865" lon="-0.955435"><ele>23.0</ele><time>2026-05-02T10:18:37.402Z</time></trkpt><trkpt lat="53.2698933" lon="-0.955715"><ele>23.0</ele><time>2026-05-02T10:18:38.402Z</time></trkpt><trkpt lat="53.269925" lon="-0.9559883"><ele>23.333333333333336</ele><time>2026-05-02T10:18:39.402Z</time></trkpt><trkpt lat="53.269965" lon="-0.9562583"><ele>23.666666666666668</ele><time>2026-05-02T10:18:40.403Z</time></trkpt><trkpt lat="53.27001" lon="-0.9565367"><ele>24.0</ele><time>2026-05-02T10:18:41.402Z</time></trkpt><trkpt lat="53.270065" lon="-0.9568233"><ele>24.333333333333336</ele><time>2026-05-02T10:18:42.404Z</time></trkpt><trkpt lat="53.27013" lon="-0.95712"><ele>24.666666666666668</ele><time>2026-05-02T10:18:43.405Z</time></trkpt><trkpt lat="53.2702033" lon="-0.9574283"><ele>25.0</ele><time>2026-05-02T10:18:44.406Z</time></trkpt><trkpt lat="53.2702867" lon="-0.95775"><ele>25.333333333333336</ele><time>2026-05-02T10:18:45.405Z</time></trkpt><trkpt lat="53.2703817" lon="-0.9580717"><ele>25.666666666666664</ele><time>2026-05-02T10:18:46.406Z</time></trkpt><trkpt lat="53.2704767" lon="-0.9583783"><ele>26.0</ele><time>2026-05-02T10:18:47.405Z</time></trkpt><trkpt lat="53.2705733" lon="-0.9586783"><ele>27.0</ele><time>2026-05-02T10:18:48.406Z</time></trkpt><trkpt lat="53.27068" lon="-0.9589767"><ele>28.0</ele><time>2026-05-02T10:18:49.405Z</time></trkpt><trkpt lat="53.2707883" lon="-0.959255"><ele>29.0</ele><time>2026-05-02T10:18:50.406Z</time></trkpt><trkpt lat="53.2708967" lon="-0.95951"><ele>29.0</ele><time>2026-05-02T10:18:51.406Z</time></trkpt><trkpt lat="53.2710033" lon="-0.95975"><ele>29.0</ele><time>2026-05-02T10:18:52.405Z</time></trkpt><trkpt lat="53.2711083" lon="-0.9599867"><ele>29.0</ele><time>2026-05-02T10:18:53.405Z</time></trkpt><trkpt lat="53.2712133" lon="-0.9602233"><ele>29.0</ele><time>2026-05-02T10:18:54.406Z</time></trkpt><trkpt lat="53.271315" lon="-0.960455"><ele>29.0</ele><time>2026-05-02T10:18:55.405Z</time></trkpt><trkpt lat="53.27141" lon="-0.9606783"><ele>29.0</ele><time>2026-05-02T10:18:56.407Z</time></trkpt><trkpt lat="53.2715033" lon="-0.9608967"><ele>29.666666666666664</ele><time>2026-05-02T10:18:57.403Z</time></trkpt><trkpt lat="53.271595" lon="-0.9611083"><ele>30.333333333333336</ele><time>2026-05-02T10:18:58.405Z</time></trkpt><trkpt lat="53.27168" lon="-0.9613133"><ele>31.0</ele><time>2026-05-02T10:18:59.408Z</time></trkpt><trkpt lat="53.2717633" lon="-0.9615167"><ele>31.0</ele><time>2026-05-02T10:19:00.406Z</time></trkpt><trkpt lat="53.2718417" lon="-0.9617233"><ele>31.0</ele><time>2026-05-02T10:19:01.405Z</time></trkpt><trkpt lat="53.2719167" lon="-0.961935"><ele>31.0</ele><time>2026-05-02T10:19:02.407Z</time></trkpt><trkpt lat="53.2719867" lon="-0.962155"><ele>31.0</ele><time>2026-05-02T10:19:03.405Z</time></trkpt><trkpt lat="53.2720533" lon="-0.96238"><ele>30.666666666666668</ele><time>2026-05-02T10:19:04.403Z</time></trkpt><trkpt lat="53.272125" lon="-0.9626067"><ele>30.333333333333336</ele><time>2026-05-02T10:19:05.406Z</time></trkpt><trkpt lat="53.27219" lon="-0.9628367"><ele>30.0</ele><time>2026-05-02T10:19:06.403Z</time></trkpt><trkpt lat="53.27225" lon="-0.96307"><ele>30.333333333333336</ele><time>2026-05-02T10:19:07.404Z</time></trkpt><trkpt lat="53.2723083" lon="-0.96331"><ele>30.666666666666668</ele><time>2026-05-02T10:19:08.404Z</time></trkpt><trkpt lat="53.27236" lon="-0.9635567"><ele>31.0</ele><time>2026-05-02T10:19:09.402Z</time></trkpt><trkpt lat="53.2724183" lon="-0.963805"><ele>31.0</ele><time>2026-05-02T10:19:10.402Z</time></trkpt><trkpt lat="53.2724717" lon="-0.964055"><ele>31.0</ele><time>2026-05-02T10:19:11.402Z</time></trkpt><trkpt lat="53.272525" lon="-0.964315"><ele>31.0</ele><time>2026-05-02T10:19:12.408Z</time></trkpt><trkpt lat="53.2725817" lon="-0.9645867"><ele>30.666666666666668</ele><time>2026-05-02T10:19:13.405Z</time></trkpt><trkpt lat="53.2726383" lon="-0.964865"><ele>30.333333333333336</ele><time>2026-05-02T10:19:14.406Z</time></trkpt><trkpt lat="53.2726933" lon="-0.9651467"><ele>30.0</ele><time>2026-05-02T10:19:15.405Z</time></trkpt><trkpt lat="53.2727517" lon="-0.9654283"><ele>30.0</ele><time>2026-05-02T10:19:16.406Z</time></trkpt><trkpt lat="53.2728083" lon="-0.9657033"><ele>30.0</ele><time>2026-05-02T10:19:17.405Z</time></trkpt><trkpt lat="53.272865" lon="-0.96597"><ele>30.0</ele><time>2026-05-02T10:19:18.405Z</time></trkpt><trkpt lat="53.27292" lon="-0.9662317"><ele>30.0</ele><time>2026-05-02T10:19:19.406Z</time></trkpt><trkpt lat="53.2729717" lon="-0.9664867"><ele>30.0</ele><time>2026-05-02T10:19:20.407Z</time></trkpt><trkpt lat="53.2730267" lon="-0.9667467"><ele>30.0</ele><time>2026-05-02T10:19:21.406Z</time></trkpt><trkpt lat="53.2730817" lon="-0.967025"><ele>30.0</ele><time>2026-05-02T10:19:22.402Z</time></trkpt><trkpt lat="53.2731417" lon="-0.9673117"><ele>30.0</ele><time>2026-05-02T10:19:23.405Z</time></trkpt><trkpt lat="53.2731967" lon="-0.9676"><ele>30.0</ele><time>2026-05-02T10:19:24.402Z</time></trkpt><trkpt lat="53.27325" lon="-0.9678783"><ele>30.0</ele><time>2026-05-02T10:19:25.405Z</time></trkpt><trkpt lat="53.2733083" lon="-0.9681517"><ele>30.0</ele><time>2026-05-02T10:19:26.406Z</time></trkpt><trkpt lat="53.273365" lon="-0.9684233"><ele>30.0</ele><time>2026-05-02T10:19:27.406Z</time></trkpt><trkpt lat="53.2734217" lon="-0.9686967"><ele>30.333333333333336</ele><time>2026-05-02T10:19:28.406Z</time></trkpt><trkpt lat="53.2734767" lon="-0.968975"><ele>30.666666666666668</ele><time>2026-05-02T10:19:29.403Z</time></trkpt><trkpt lat="53.2735233" lon="-0.9692567"><ele>31.0</ele><time>2026-05-02T10:19:30.403Z</time></trkpt><trkpt lat="53.2735683" lon="-0.9695483"><ele>31.666666666666668</ele><time>2026-05-02T10:19:31.402Z</time></trkpt><trkpt lat="53.273605" lon="-0.96985"><ele>32.333333333333336</ele><time>2026-05-02T10:19:32.403Z</time></trkpt><trkpt lat="53.2736383" lon="-0.9701517"><ele>33.0</ele><time>2026-05-02T10:19:33.402Z</time></trkpt><trkpt lat="53.2736667" lon="-0.9704517"><ele>33.0</ele><time>2026-05-02T10:19:34.404Z</time></trkpt><trkpt lat="53.2736933" lon="-0.9707467"><ele>33.0</ele><time>2026-05-02T10:19:35.402Z</time></trkpt><trkpt lat="53.2737183" lon="-0.971045"><ele>33.0</ele><time>2026-05-02T10:19:36.402Z</time></trkpt><trkpt lat="53.2737367" lon="-0.97135"><ele>33.0</ele><time>2026-05-02T10:19:37.402Z</time></trkpt><trkpt lat="53.273755" lon="-0.9716667"><ele>33.0</ele><time>2026-05-02T10:19:38.402Z</time></trkpt><trkpt lat="53.2737733" lon="-0.9719883"><ele>33.0</ele><time>2026-05-02T10:19:39.402Z</time></trkpt><trkpt lat="53.273795" lon="-0.9723067"><ele>33.333333333333336</ele><time>2026-05-02T10:19:40.402Z</time></trkpt><trkpt lat="53.273815" lon="-0.97262"><ele>33.66666666666667</ele><time>2026-05-02T10:19:41.403Z</time></trkpt><trkpt lat="53.2738333" lon="-0.97294"><ele>34.0</ele><time>2026-05-02T10:19:42.403Z</time></trkpt><trkpt lat="53.273865" lon="-0.973265"><ele>33.66666666666667</ele><time>2026-05-02T10:19:43.403Z</time></trkpt><trkpt lat="53.2739" lon="-0.9736017"><ele>33.333333333333336</ele><time>2026-05-02T10:19:44.403Z</time></trkpt><trkpt lat="53.2739417" lon="-0.9739433"><ele>33.0</ele><time>2026-05-02T10:19:45.402Z</time></trkpt><trkpt lat="53.27399" lon="-0.9742833"><ele>33.0</ele><time>2026-05-02T10:19:46.402Z</time></trkpt><trkpt lat="53.2740433" lon="-0.9746117"><ele>33.0</ele><time>2026-05-02T10:19:47.402Z</time></trkpt><trkpt lat="53.2740933" lon="-0.9749283"><ele>33.0</ele><time>2026-05-02T10:19:48.407Z</time></trkpt><trkpt lat="53.27416" lon="-0.975245"><ele>33.0</ele><time>2026-05-02T10:19:49.406Z</time></trkpt><trkpt lat="53.2742317" lon="-0.9755483"><ele>33.0</ele><time>2026-05-02T10:19:50.405Z</time></trkpt><trkpt lat="53.2743083" lon="-0.975845"><ele>33.0</ele><time>2026-05-02T10:19:51.402Z</time></trkpt><trkpt lat="53.2743917" lon="-0.9761317"><ele>33.0</ele><time>2026-05-02T10:19:52.407Z</time></trkpt><trkpt lat="53.2744883" lon="-0.976415"><ele>33.0</ele><time>2026-05-02T10:19:53.405Z</time></trkpt><trkpt lat="53.2745967" lon="-0.9767067"><ele>33.0</ele><time>2026-05-02T10:19:54.405Z</time></trkpt><trkpt lat="53.27471" lon="-0.9770017"><ele>33.333333333333336</ele><time>2026-05-02T10:19:55.406Z</time></trkpt><trkpt lat="53.2748233" lon="-0.9773"><ele>33.66666666666667</ele><time>2026-05-02T10:19:56.406Z</time></trkpt><trkpt lat="53.2749417" lon="-0.97761"><ele>34.0</ele><time>2026-05-02T10:19:57.406Z</time></trkpt><trkpt lat="53.2750683" lon="-0.9779183"><ele>34.333333333333336</ele><time>2026-05-02T10:19:58.406Z</time></trkpt><trkpt lat="53.2751983" lon="-0.9782033"><ele>34.666666666666664</ele><time>2026-05-02T10:19:59.406Z</time></trkpt><trkpt lat="53.2753383" lon="-0.97847"><ele>35.0</ele><time>2026-05-02T10:20:00.406Z</time></trkpt><trkpt lat="53.2754833" lon="-0.978725"><ele>35.0</ele><time>2026-05-02T10:20:01.405Z</time></trkpt><trkpt lat="53.27563" lon="-0.9789667"><ele>35.0</ele><time>2026-05-02T10:20:02.403Z</time></trkpt><trkpt lat="53.2757833" lon="-0.9791967"><ele>35.0</ele><time>2026-05-02T10:20:03.406Z</time></trkpt><trkpt lat="53.275935" lon="-0.97941"><ele>35.666666666666664</ele><time>2026-05-02T10:20:04.406Z</time></trkpt><trkpt lat="53.2760867" lon="-0.9796117"><ele>36.333333333333336</ele><time>2026-05-02T10:20:05.406Z</time></trkpt><trkpt lat="53.27624" lon="-0.979805"><ele>37.0</ele><time>2026-05-02T10:20:06.406Z</time></trkpt><trkpt lat="53.2763917" lon="-0.97999"><ele>37.333333333333336</ele><time>2026-05-02T10:20:07.403Z</time></trkpt><trkpt lat="53.27655" lon="-0.9801683"><ele>37.666666666666664</ele><time>2026-05-02T10:20:08.402Z</time></trkpt><trkpt lat="53.276715" lon="-0.9803367"><ele>38.0</ele><time>2026-05-02T10:20:09.405Z</time></trkpt><trkpt lat="53.2768833" lon="-0.9805067"><ele>38.0</ele><time>2026-05-02T10:20:10.405Z</time></trkpt><trkpt lat="53.2770467" lon="-0.9806767"><ele>38.0</ele><time>2026-05-02T10:20:11.402Z</time></trkpt><trkpt lat="53.2772133" lon="-0.9808483"><ele>38.0</ele><time>2026-05-02T10:20:12.406Z</time></trkpt><trkpt lat="53.2773817" lon="-0.9810267"><ele>39.33333333333333</ele><time>2026-05-02T10:20:13.403Z</time></trkpt><trkpt lat="53.2775433" lon="-0.981215"><ele>40.666666666666664</ele><time>2026-05-02T10:20:14.404Z</time></trkpt><trkpt lat="53.2777033" lon="-0.9814117"><ele>42.0</ele><time>2026-05-02T10:20:15.403Z</time></trkpt><trkpt lat="53.277865" lon="-0.9816117"><ele>41.666666666666664</ele><time>2026-05-02T10:20:16.403Z</time></trkpt><trkpt lat="53.278025" lon="-0.9818133"><ele>41.33333333333333</ele><time>2026-05-02T10:20:17.407Z</time></trkpt><trkpt lat="53.2781767" lon="-0.9820217"><ele>41.0</ele><time>2026-05-02T10:20:18.402Z</time></trkpt><trkpt lat="53.278325" lon="-0.982235"><ele>41.0</ele><time>2026-05-02T10:20:19.407Z</time></trkpt><trkpt lat="53.278465" lon="-0.98245"><ele>41.0</ele><time>2026-05-02T10:20:20.406Z</time></trkpt><trkpt lat="53.2785967" lon="-0.9826717"><ele>41.0</ele><time>2026-05-02T10:20:21.404Z</time></trkpt><trkpt lat="53.2787233" lon="-0.9829"><ele>41.33333333333333</ele><time>2026-05-02T10:20:22.403Z</time></trkpt><trkpt lat="53.2788467" lon="-0.9831267"><ele>41.666666666666664</ele><time>2026-05-02T10:20:23.403Z</time></trkpt><trkpt lat="53.2789667" lon="-0.98335"><ele>42.0</ele><time>2026-05-02T10:20:24.405Z</time></trkpt><trkpt lat="53.2790817" lon="-0.983575"><ele>42.0</ele><time>2026-05-02T10:20:25.403Z</time></trkpt><trkpt lat="53.2791917" lon="-0.983805"><ele>42.0</ele><time>2026-05-02T10:20:26.404Z</time></trkpt><trkpt lat="53.2793017" lon="-0.984035"><ele>42.0</ele><time>2026-05-02T10:20:27.406Z</time></trkpt><trkpt lat="53.2794133" lon="-0.9842733"><ele>43.333333333333336</ele><time>2026-05-02T10:20:28.402Z</time></trkpt><trkpt lat="53.279525" lon="-0.9845217"><ele>44.66666666666667</ele><time>2026-05-02T10:20:29.405Z</time></trkpt><trkpt lat="53.27964" lon="-0.9847783"><ele>46.0</ele><time>2026-05-02T10:20:30.404Z</time></trkpt><trkpt lat="53.27976" lon="-0.9850417"><ele>46.0</ele><time>2026-05-02T10:20:31.406Z</time></trkpt><trkpt lat="53.2798783" lon="-0.9853033"><ele>46.0</ele><time>2026-05-02T10:20:32.409Z</time></trkpt><trkpt lat="53.2799917" lon="-0.9855567"><ele>46.0</ele><time>2026-05-02T10:20:33.407Z</time></trkpt><trkpt lat="53.2801033" lon="-0.98581"><ele>46.66666666666667</ele><time>2026-05-02T10:20:34.405Z</time></trkpt><trkpt lat="53.2802133" lon="-0.9860583"><ele>47.333333333333336</ele><time>2026-05-02T10:20:35.405Z</time></trkpt><trkpt lat="53.2803183" lon="-0.9863017"><ele>48.0</ele><time>2026-05-02T10:20:36.406Z</time></trkpt><trkpt lat="53.2804233" lon="-0.9865383"><ele>47.666666666666664</ele><time>2026-05-02T10:20:37.405Z</time></trkpt><trkpt lat="53.2805333" lon="-0.9867783"><ele>47.33333333333333</ele><time>2026-05-02T10:20:38.406Z</time></trkpt><trkpt lat="53.2806467" lon="-0.9870217"><ele>47.0</ele><time>2026-05-02T10:20:39.408Z</time></trkpt><trkpt lat="53.2807617" lon="-0.9872683"><ele>48.0</ele><time>2026-05-02T10:20:40.406Z</time></trkpt><trkpt lat="53.2808783" lon="-0.9875183"><ele>49.0</ele><time>2026-05-02T10:20:41.406Z</time></trkpt><trkpt lat="53.2809967" lon="-0.9877717"><ele>50.0</ele><time>2026-05-02T10:20:42.402Z</time></trkpt><trkpt lat="53.2811167" lon="-0.98803"><ele>50.0</ele><time>2026-05-02T10:20:43.406Z</time></trkpt><trkpt lat="53.281235" lon="-0.9882933"><ele>50.0</ele><time>2026-05-02T10:20:44.407Z</time></trkpt><trkpt lat="53.2813533" lon="-0.98856"><ele>50.0</ele><time>2026-05-02T10:20:45.403Z</time></trkpt><trkpt lat="53.281475" lon="-0.9888233"><ele>50.0</ele><time>2026-05-02T10:20:46.406Z</time></trkpt><trkpt lat="53.2815967" lon="-0.98908"><ele>50.0</ele><time>2026-05-02T10:20:47.407Z</time></trkpt><trkpt lat="53.28171" lon="-0.9893267"><ele>50.0</ele><time>2026-05-02T10:20:48.404Z</time></trkpt><trkpt lat="53.2818217" lon="-0.98957"><ele>50.0</ele><time>2026-05-02T10:20:49.403Z</time></trkpt><trkpt lat="53.28193" lon="-0.9898067"><ele>50.0</ele><time>2026-05-02T10:20:50.402Z</time></trkpt><trkpt lat="53.2820283" lon="-0.99005"><ele>50.0</ele><time>2026-05-02T10:20:51.406Z</time></trkpt><trkpt lat="53.2821367" lon="-0.9902917"><ele>49.0</ele><time>2026-05-02T10:20:52.407Z</time></trkpt><trkpt lat="53.2822483" lon="-0.990535"><ele>48.0</ele><time>2026-05-02T10:20:53.405Z</time></trkpt><trkpt lat="53.28236" lon="-0.9907833"><ele>47.0</ele><time>2026-05-02T10:20:54.406Z</time></trkpt><trkpt lat="53.28248" lon="-0.991045"><ele>45.0</ele><time>2026-05-02T10:20:55.407Z</time></trkpt><trkpt lat="53.28261" lon="-0.9913283"><ele>43.0</ele><time>2026-05-02T10:20:56.406Z</time></trkpt><trkpt lat="53.2827483" lon="-0.9916267"><ele>41.0</ele><time>2026-05-02T10:20:57.406Z</time></trkpt><trkpt lat="53.2828917" lon="-0.9919367"><ele>41.0</ele><time>2026-05-02T10:20:58.411Z</time></trkpt><trkpt lat="53.28304" lon="-0.992255"><ele>41.0</ele><time>2026-05-02T10:20:59.405Z</time></trkpt><trkpt lat="53.28319" lon="-0.9925783"><ele>41.0</ele><time>2026-05-02T10:21:00.403Z</time></trkpt><trkpt lat="53.2833417" lon="-0.9929117"><ele>41.0</ele><time>2026-05-02T10:21:01.406Z</time></trkpt><trkpt lat="53.283495" lon="-0.99325"><ele>41.0</ele><time>2026-05-02T10:21:02.405Z</time></trkpt><trkpt lat="53.2836533" lon="-0.993595"><ele>41.0</ele><time>2026-05-02T10:21:03.405Z</time></trkpt><trkpt lat="53.2838133" lon="-0.9939483"><ele>40.5</ele><time>2026-05-02T10:21:04.407Z</time></trkpt><trkpt lat="53.28397" lon="-0.9943133"><ele>40.0</ele><time>2026-05-02T10:21:05.406Z</time></trkpt><trkpt lat="53.284115" lon="-0.9946833"><ele>40.0</ele><time>2026-05-02T10:21:06.406Z</time></trkpt><trkpt lat="53.2842467" lon="-0.9950533"><ele>40.0</ele><time>2026-05-02T10:21:07.406Z</time></trkpt><trkpt lat="53.2843733" lon="-0.9954317"><ele>40.0</ele><time>2026-05-02T10:21:08.405Z</time></trkpt><trkpt lat="53.2844917" lon="-0.9958133"><ele>40.0</ele><time>2026-05-02T10:21:09.407Z</time></trkpt><trkpt lat="53.284605" lon="-0.9962"><ele>40.0</ele><time>2026-05-02T10:21:10.407Z</time></trkpt><trkpt lat="53.2847133" lon="-0.9965883"><ele>40.0</ele><time>2026-05-02T10:21:11.406Z</time></trkpt><trkpt lat="53.2848183" lon="-0.9969867"><ele>39.5</ele><time>2026-05-02T10:21:12.404Z</time></trkpt><trkpt lat="53.2849233" lon="-0.9973917"><ele>39.0</ele><time>2026-05-02T10:21:13.407Z</time></trkpt><trkpt lat="53.2850283" lon="-0.9978017"><ele>39.0</ele><time>2026-05-02T10:21:14.406Z</time></trkpt><trkpt lat="53.2851333" lon="-0.99821"><ele>39.0</ele><time>2026-05-02T10:21:15.404Z</time></trkpt><trkpt lat="53.2852383" lon="-0.9986233"><ele>39.0</ele><time>2026-05-02T10:21:16.406Z</time></trkpt><trkpt lat="53.2853433" lon="-0.999035"><ele>39.0</ele><time>2026-05-02T10:21:17.406Z</time></trkpt><trkpt lat="53.28545" lon="-0.9994483"><ele>39.0</ele><time>2026-05-02T10:21:18.407Z</time></trkpt><trkpt lat="53.2855533" lon="-0.9998617"><ele>39.0</ele><time>2026-05-02T10:21:19.406Z</time></trkpt><trkpt lat="53.2856567" lon="-1.0002717"><ele>39.0</ele><time>2026-05-02T10:21:20.405Z</time></trkpt><trkpt lat="53.2857583" lon="-1.00068"><ele>39.0</ele><time>2026-05-02T10:21:21.406Z</time></trkpt><trkpt lat="53.2858617" lon="-1.0010867"><ele>38.5</ele><time>2026-05-02T10:21:22.407Z</time></trkpt><trkpt lat="53.2859667" lon="-1.001495"><ele>38.0</ele><time>2026-05-02T10:21:23.407Z</time></trkpt><trkpt lat="53.2860717" lon="-1.0019033"><ele>39.0</ele><time>2026-05-02T10:21:24.407Z</time></trkpt><trkpt lat="53.286175" lon="-1.0023117"><ele>40.0</ele><time>2026-05-02T10:21:25.406Z</time></trkpt><trkpt lat="53.2862783" lon="-1.0027217"><ele>40.0</ele><time>2026-05-02T10:21:26.409Z</time></trkpt><trkpt lat="53.2863817" lon="-1.00313"><ele>40.0</ele><time>2026-05-02T10:21:27.406Z</time></trkpt><trkpt lat="53.286485" lon="-1.0035383"><ele>40.5</ele><time>2026-05-02T10:21:28.407Z</time></trkpt><trkpt lat="53.2865867" lon="-1.003945"><ele>41.0</ele><time>2026-05-02T10:21:29.407Z</time></trkpt><trkpt lat="53.2866867" lon="-1.0043533"><ele>42.0</ele><time>2026-05-02T10:21:30.406Z</time></trkpt><trkpt lat="53.2867867" lon="-1.0047617"><ele>43.0</ele><time>2026-05-02T10:21:31.407Z</time></trkpt><trkpt lat="53.28689" lon="-1.0051717"><ele>44.5</ele><time>2026-05-02T10:21:32.405Z</time></trkpt><trkpt lat="53.2869917" lon="-1.0055733"><ele>46.0</ele><time>2026-05-02T10:21:33.415Z</time></trkpt><trkpt lat="53.2870883" lon="-1.0059617"><ele>45.5</ele><time>2026-05-02T10:21:34.402Z</time></trkpt><trkpt lat="53.287185" lon="-1.0063483"><ele>45.0</ele><time>2026-05-02T10:21:35.407Z</time></trkpt><trkpt lat="53.2872833" lon="-1.006735"><ele>45.0</ele><time>2026-05-02T10:21:36.407Z</time></trkpt><trkpt lat="53.2873783" lon="-1.00712"><ele>45.0</ele><time>2026-05-02T10:21:37.407Z</time></trkpt><trkpt lat="53.2874767" lon="-1.0075117"><ele>45.5</ele><time>2026-05-02T10:21:38.41Z</time></trkpt><trkpt lat="53.2875733" lon="-1.00791"><ele>46.0</ele><time>2026-05-02T10:21:39.405Z</time></trkpt><trkpt lat="53.2876683" lon="-1.00831"><ele>46.5</ele><time>2026-05-02T10:21:40.406Z</time></trkpt><trkpt lat="53.2877633" lon="-1.008705"><ele>47.0</ele><time>2026-05-02T10:21:41.406Z</time></trkpt><trkpt lat="53.287855" lon="-1.0091067"><ele>47.0</ele><time>2026-05-02T10:21:42.404Z</time></trkpt><trkpt lat="53.287945" lon="-1.0095167"><ele>47.0</ele><time>2026-05-02T10:21:43.402Z</time></trkpt><trkpt lat="53.2880333" lon="-1.009925"><ele>46.5</ele><time>2026-05-02T10:21:44.403Z</time></trkpt><trkpt lat="53.2881217" lon="-1.010315"><ele>46.0</ele><time>2026-05-02T10:21:45.403Z</time></trkpt><trkpt lat="53.2882083" lon="-1.0106733"><ele>46.66666666666667</ele><time>2026-05-02T10:21:46.402Z</time></trkpt><trkpt lat="53.2882933" lon="-1.0110167"><ele>47.333333333333336</ele><time>2026-05-02T10:21:47.403Z</time></trkpt><trkpt lat="53.288375" lon="-1.0113617"><ele>48.0</ele><time>2026-05-02T10:21:48.404Z</time></trkpt><trkpt lat="53.2884533" lon="-1.0117133"><ele>48.5</ele><time>2026-05-02T10:21:49.403Z</time></trkpt><trkpt lat="53.2885317" lon="-1.0120683"><ele>49.0</ele><time>2026-05-02T10:21:50.402Z</time></trkpt><trkpt lat="53.2886167" lon="-1.0124333"><ele>49.0</ele><time>2026-05-02T10:21:51.402Z</time></trkpt><trkpt lat="53.288705" lon="-1.0128083"><ele>49.0</ele><time>2026-05-02T10:21:52.403Z</time></trkpt><trkpt lat="53.2887983" lon="-1.01318"><ele>49.0</ele><time>2026-05-02T10:21:53.403Z</time></trkpt><trkpt lat="53.28889" lon="-1.013545"><ele>49.0</ele><time>2026-05-02T10:21:54.403Z</time></trkpt><trkpt lat="53.288975" lon="-1.01391"><ele>48.5</ele><time>2026-05-02T10:21:55.407Z</time></trkpt><trkpt lat="53.2890567" lon="-1.014275"><ele>48.0</ele><time>2026-05-02T10:21:56.408Z</time></trkpt><trkpt lat="53.2891383" lon="-1.01464"><ele>48.5</ele><time>2026-05-02T10:21:57.406Z</time></trkpt><trkpt lat="53.2892233" lon="-1.0150083"><ele>49.0</ele><time>2026-05-02T10:21:58.403Z</time></trkpt><trkpt lat="53.2893083" lon="-1.0153783"><ele>49.0</ele><time>2026-05-02T10:21:59.404Z</time></trkpt><trkpt lat="53.289395" lon="-1.01576"><ele>49.0</ele><time>2026-05-02T10:22:00.405Z</time></trkpt><trkpt lat="53.2894833" lon="-1.016155"><ele>49.5</ele><time>2026-05-02T10:22:01.404Z</time></trkpt><trkpt lat="53.2895733" lon="-1.016555"><ele>50.0</ele><time>2026-05-02T10:22:02.403Z</time></trkpt><trkpt lat="53.2896633" lon="-1.0169567"><ele>50.0</ele><time>2026-05-02T10:22:03.403Z</time></trkpt><trkpt lat="53.289755" lon="-1.0173517"><ele>50.0</ele><time>2026-05-02T10:22:04.403Z</time></trkpt><trkpt lat="53.2898417" lon="-1.01774"><ele>49.5</ele><time>2026-05-02T10:22:05.402Z</time></trkpt><trkpt lat="53.2899283" lon="-1.0181217"><ele>49.0</ele><time>2026-05-02T10:22:06.404Z</time></trkpt><trkpt lat="53.2900133" lon="-1.0184983"><ele>49.0</ele><time>2026-05-02T10:22:07.404Z</time></trkpt><trkpt lat="53.290095" lon="-1.01887"><ele>49.0</ele><time>2026-05-02T10:22:08.403Z</time></trkpt><trkpt lat="53.290175" lon="-1.0192383"><ele>49.5</ele><time>2026-05-02T10:22:09.403Z</time></trkpt><trkpt lat="53.2902567" lon="-1.0196033"><ele>50.0</ele><time>2026-05-02T10:22:10.402Z</time></trkpt><trkpt lat="53.2903417" lon="-1.0199633"><ele>50.5</ele><time>2026-05-02T10:22:11.405Z</time></trkpt><trkpt lat="53.2904283" lon="-1.02032"><ele>51.0</ele><time>2026-05-02T10:22:12.403Z</time></trkpt><trkpt lat="53.290515" lon="-1.020675"><ele>49.0</ele><time>2026-05-02T10:22:13.402Z</time></trkpt><trkpt lat="53.290605" lon="-1.0210333"><ele>47.0</ele><time>2026-05-02T10:22:14.402Z</time></trkpt><trkpt lat="53.290705" lon="-1.0213983"><ele>49.0</ele><time>2026-05-02T10:22:15.403Z</time></trkpt><trkpt lat="53.2908117" lon="-1.0217733"><ele>51.0</ele><time>2026-05-02T10:22:16.403Z</time></trkpt><trkpt lat="53.2909267" lon="-1.0221617"><ele>52.0</ele><time>2026-05-02T10:22:17.403Z</time></trkpt><trkpt lat="53.2910517" lon="-1.0225633"><ele>53.0</ele><time>2026-05-02T10:22:18.402Z</time></trkpt><trkpt lat="53.29119" lon="-1.0229683"><ele>52.0</ele><time>2026-05-02T10:22:19.406Z</time></trkpt><trkpt lat="53.2913383" lon="-1.0233683"><ele>51.0</ele><time>2026-05-02T10:22:20.405Z</time></trkpt><trkpt lat="53.2914983" lon="-1.02376"><ele>51.0</ele><time>2026-05-02T10:22:21.403Z</time></trkpt><trkpt lat="53.2916633" lon="-1.0241433"><ele>51.0</ele><time>2026-05-02T10:22:22.403Z</time></trkpt><trkpt lat="53.291835" lon="-1.024515"><ele>52.5</ele><time>2026-05-02T10:22:23.402Z</time></trkpt><trkpt lat="53.2920117" lon="-1.0248717"><ele>54.0</ele><time>2026-05-02T10:22:24.404Z</time></trkpt><trkpt lat="53.2921917" lon="-1.0252167"><ele>52.0</ele><time>2026-05-02T10:22:25.403Z</time></trkpt><trkpt lat="53.2923767" lon="-1.02555"><ele>50.0</ele><time>2026-05-02T10:22:26.405Z</time></trkpt><trkpt lat="53.292565" lon="-1.025875"><ele>50.0</ele><time>2026-05-02T10:22:27.403Z</time></trkpt><trkpt lat="53.2927583" lon="-1.02619"><ele>50.0</ele><time>2026-05-02T10:22:28.402Z</time></trkpt><trkpt lat="53.2929633" lon="-1.0264867"><ele>49.5</ele><time>2026-05-02T10:22:29.402Z</time></trkpt><trkpt lat="53.293175" lon="-1.0267733"><ele>49.0</ele><time>2026-05-02T10:22:30.404Z</time></trkpt><trkpt lat="53.2933883" lon="-1.0270517"><ele>49.0</ele><time>2026-05-02T10:22:31.405Z</time></trkpt><trkpt lat="53.293605" lon="-1.0273233"><ele>49.0</ele><time>2026-05-02T10:22:32.406Z</time></trkpt><trkpt lat="53.2938267" lon="-1.027585"><ele>48.0</ele><time>2026-05-02T10:22:33.406Z</time></trkpt><trkpt lat="53.294055" lon="-1.0278317"><ele>47.0</ele><time>2026-05-02T10:22:34.406Z</time></trkpt><trkpt lat="53.2942883" lon="-1.02807"><ele>47.0</ele><time>2026-05-02T10:22:35.405Z</time></trkpt><trkpt lat="53.294525" lon="-1.0282983"><ele>47.0</ele><time>2026-05-02T10:22:36.403Z</time></trkpt><trkpt lat="53.294765" lon="-1.0285167"><ele>46.5</ele><time>2026-05-02T10:22:37.406Z</time></trkpt><trkpt lat="53.2950083" lon="-1.0287217"><ele>46.0</ele><time>2026-05-02T10:22:38.406Z</time></trkpt><trkpt lat="53.2952517" lon="-1.0289217"><ele>46.0</ele><time>2026-05-02T10:22:39.406Z</time></trkpt><trkpt lat="53.2954983" lon="-1.0291133"><ele>46.0</ele><time>2026-05-02T10:22:40.406Z</time></trkpt><trkpt lat="53.2957417" lon="-1.0293033"><ele>45.5</ele><time>2026-05-02T10:22:41.406Z</time></trkpt><trkpt lat="53.295985" lon="-1.0294983"><ele>45.0</ele><time>2026-05-02T10:22:42.406Z</time></trkpt><trkpt lat="53.2962283" lon="-1.0296967"><ele>45.0</ele><time>2026-05-02T10:22:43.403Z</time></trkpt><trkpt lat="53.29647" lon="-1.0298983"><ele>45.0</ele><time>2026-05-02T10:22:44.405Z</time></trkpt><trkpt lat="53.2967133" lon="-1.0300983"><ele>45.0</ele><time>2026-05-02T10:22:45.403Z</time></trkpt><trkpt lat="53.2969533" lon="-1.030295"><ele>45.0</ele><time>2026-05-02T10:22:46.403Z</time></trkpt><trkpt lat="53.2971933" lon="-1.0304833"><ele>44.0</ele><time>2026-05-02T10:22:47.407Z</time></trkpt><trkpt lat="53.29744" lon="-1.0306583"><ele>43.0</ele><time>2026-05-02T10:22:48.402Z</time></trkpt><trkpt lat="53.2976917" lon="-1.0308233"><ele>43.0</ele><time>2026-05-02T10:22:49.402Z</time></trkpt><trkpt lat="53.2979467" lon="-1.03098"><ele>43.0</ele><time>2026-05-02T10:22:50.405Z</time></trkpt><trkpt lat="53.2982017" lon="-1.0311267"><ele>43.0</ele><time>2026-05-02T10:22:51.403Z</time></trkpt><trkpt lat="53.29846" lon="-1.03126"><ele>43.0</ele><time>2026-05-02T10:22:52.402Z</time></trkpt><trkpt lat="53.2987233" lon="-1.0313733"><ele>44.0</ele><time>2026-05-02T10:22:53.407Z</time></trkpt><trkpt lat="53.2989917" lon="-1.0314583"><ele>45.0</ele><time>2026-05-02T10:22:54.406Z</time></trkpt><trkpt lat="53.2992567" lon="-1.03154"><ele>45.0</ele><time>2026-05-02T10:22:55.408Z</time></trkpt><trkpt lat="53.2995217" lon="-1.03162"><ele>45.0</ele><time>2026-05-02T10:22:56.402Z</time></trkpt><trkpt lat="53.299785" lon="-1.031695"><ele>46.5</ele><time>2026-05-02T10:22:57.407Z</time></trkpt><trkpt lat="53.3000517" lon="-1.0317583"><ele>48.0</ele><time>2026-05-02T10:22:58.406Z</time></trkpt><trkpt lat="53.30032" lon="-1.031815"><ele>47.5</ele><time>2026-05-02T10:22:59.406Z</time></trkpt><trkpt lat="53.3005917" lon="-1.0318567"><ele>47.0</ele><time>2026-05-02T10:23:00.405Z</time></trkpt><trkpt lat="53.30086" lon="-1.0318883"><ele>47.0</ele><time>2026-05-02T10:23:01.406Z</time></trkpt><trkpt lat="53.3011333" lon="-1.0319033"><ele>47.0</ele><time>2026-05-02T10:23:02.406Z</time></trkpt><trkpt lat="53.3014083" lon="-1.0318983"><ele>46.5</ele><time>2026-05-02T10:23:03.407Z</time></trkpt><trkpt lat="53.3016783" lon="-1.0318833"><ele>46.0</ele><time>2026-05-02T10:23:04.406Z</time></trkpt><trkpt lat="53.3019483" lon="-1.03186"><ele>46.0</ele><time>2026-05-02T10:23:05.406Z</time></trkpt><trkpt lat="53.3022183" lon="-1.0318233"><ele>46.0</ele><time>2026-05-02T10:23:06.403Z</time></trkpt><trkpt lat="53.3024917" lon="-1.0317733"><ele>45.5</ele><time>2026-05-02T10:23:07.406Z</time></trkpt><trkpt lat="53.3027667" lon="-1.03171"><ele>45.0</ele><time>2026-05-02T10:23:08.405Z</time></trkpt><trkpt lat="53.3030383" lon="-1.0316483"><ele>45.0</ele><time>2026-05-02T10:23:09.404Z</time></trkpt><trkpt lat="53.30331" lon="-1.0315883"><ele>45.0</ele><time>2026-05-02T10:23:10.403Z</time></trkpt><trkpt lat="53.30358" lon="-1.0315267"><ele>45.0</ele><time>2026-05-02T10:23:11.404Z</time></trkpt><trkpt lat="53.30385" lon="-1.0314533"><ele>45.0</ele><time>2026-05-02T10:23:12.404Z</time></trkpt><trkpt lat="53.30412" lon="-1.03137"><ele>44.0</ele><time>2026-05-02T10:23:13.405Z</time></trkpt><trkpt lat="53.3043883" lon="-1.0312833"><ele>43.0</ele><time>2026-05-02T10:23:14.403Z</time></trkpt><trkpt lat="53.3046583" lon="-1.031195"><ele>42.5</ele><time>2026-05-02T10:23:15.403Z</time></trkpt><trkpt lat="53.304925" lon="-1.0311033"><ele>42.0</ele><time>2026-05-02T10:23:16.404Z</time></trkpt><trkpt lat="53.3051917" lon="-1.03101"><ele>42.0</ele><time>2026-05-02T10:23:17.403Z</time></trkpt><trkpt lat="53.305455" lon="-1.0309167"><ele>42.0</ele><time>2026-05-02T10:23:18.405Z</time></trkpt><trkpt lat="53.30572" lon="-1.0308217"><ele>42.0</ele><time>2026-05-02T10:23:19.405Z</time></trkpt><trkpt lat="53.3059833" lon="-1.0307267"><ele>42.0</ele><time>2026-05-02T10:23:20.405Z</time></trkpt><trkpt lat="53.3062483" lon="-1.0306317"><ele>42.5</ele><time>2026-05-02T10:23:21.403Z</time></trkpt><trkpt lat="53.3065117" lon="-1.0305467"><ele>43.0</ele><time>2026-05-02T10:23:22.403Z</time></trkpt><trkpt lat="53.30678" lon="-1.0304667"><ele>43.0</ele><time>2026-05-02T10:23:23.403Z</time></trkpt><trkpt lat="53.30705" lon="-1.0303917"><ele>43.0</ele><time>2026-05-02T10:23:24.403Z</time></trkpt><trkpt lat="53.3073183" lon="-1.0303217"><ele>42.5</ele><time>2026-05-02T10:23:25.403Z</time></trkpt><trkpt lat="53.3075867" lon="-1.0302533"><ele>42.0</ele><time>2026-05-02T10:23:26.403Z</time></trkpt><trkpt lat="53.3078533" lon="-1.030195"><ele>42.5</ele><time>2026-05-02T10:23:27.407Z</time></trkpt><trkpt lat="53.308125" lon="-1.0301433"><ele>43.0</ele><time>2026-05-02T10:23:28.407Z</time></trkpt><trkpt lat="53.3084" lon="-1.0300967"><ele>43.0</ele><time>2026-05-02T10:23:29.407Z</time></trkpt><trkpt lat="53.3086783" lon="-1.0300517"><ele>43.0</ele><time>2026-05-02T10:23:30.403Z</time></trkpt><trkpt lat="53.3089617" lon="-1.03001"><ele>45.0</ele><time>2026-05-02T10:23:31.402Z</time></trkpt><trkpt lat="53.309255" lon="-1.02997"><ele>47.0</ele><time>2026-05-02T10:23:32.404Z</time></trkpt><trkpt lat="53.3095567" lon="-1.029935"><ele>45.5</ele><time>2026-05-02T10:23:33.406Z</time></trkpt><trkpt lat="53.3098583" lon="-1.0299117"><ele>44.0</ele><time>2026-05-02T10:23:34.408Z</time></trkpt><trkpt lat="53.3101533" lon="-1.0298917"><ele>44.0</ele><time>2026-05-02T10:23:35.402Z</time></trkpt><trkpt lat="53.3104417" lon="-1.029865"><ele>44.0</ele><time>2026-05-02T10:23:36.403Z</time></trkpt><trkpt lat="53.31073" lon="-1.02983"><ele>43.0</ele><time>2026-05-02T10:23:37.403Z</time></trkpt><trkpt lat="53.3110217" lon="-1.0297867"><ele>42.0</ele><time>2026-05-02T10:23:38.403Z</time></trkpt><trkpt lat="53.3113167" lon="-1.02974"><ele>40.5</ele><time>2026-05-02T10:23:39.402Z</time></trkpt><trkpt lat="53.3116133" lon="-1.0296883"><ele>39.0</ele><time>2026-05-02T10:23:40.403Z</time></trkpt><trkpt lat="53.311915" lon="-1.0296317"><ele>39.0</ele><time>2026-05-02T10:23:41.402Z</time></trkpt><trkpt lat="53.3122183" lon="-1.0295683"><ele>39.0</ele><time>2026-05-02T10:23:42.402Z</time></trkpt><trkpt lat="53.3125267" lon="-1.029505"><ele>39.0</ele><time>2026-05-02T10:23:43.405Z</time></trkpt><trkpt lat="53.3128317" lon="-1.0294383"><ele>39.0</ele><time>2026-05-02T10:23:44.402Z</time></trkpt><trkpt lat="53.31313" lon="-1.0293767"><ele>39.0</ele><time>2026-05-02T10:23:45.403Z</time></trkpt><trkpt lat="53.3134283" lon="-1.0293133"><ele>39.0</ele><time>2026-05-02T10:23:46.403Z</time></trkpt><trkpt lat="53.3137283" lon="-1.0292517"><ele>38.5</ele><time>2026-05-02T10:23:47.403Z</time></trkpt><trkpt lat="53.3140317" lon="-1.0291867"><ele>38.0</ele><time>2026-05-02T10:23:48.402Z</time></trkpt><trkpt lat="53.3143267" lon="-1.0291217"><ele>38.0</ele><time>2026-05-02T10:23:49.402Z</time></trkpt><trkpt lat="53.3146183" lon="-1.0290517"><ele>38.0</ele><time>2026-05-02T10:23:50.402Z</time></trkpt><trkpt lat="53.3149067" lon="-1.0289833"><ele>38.0</ele><time>2026-05-02T10:23:51.403Z</time></trkpt><trkpt lat="53.3152" lon="-1.0289167"><ele>38.0</ele><time>2026-05-02T10:23:52.402Z</time></trkpt><trkpt lat="53.3154933" lon="-1.0288583"><ele>38.5</ele><time>2026-05-02T10:23:53.403Z</time></trkpt><trkpt lat="53.3157883" lon="-1.0288"><ele>39.0</ele><time>2026-05-02T10:23:54.403Z</time></trkpt><trkpt lat="53.3160833" lon="-1.0287417"><ele>39.0</ele><time>2026-05-02T10:23:55.403Z</time></trkpt><trkpt lat="53.31638" lon="-1.0286833"><ele>39.0</ele><time>2026-05-02T10:23:56.403Z</time></trkpt><trkpt lat="53.3166817" lon="-1.0286233"><ele>39.0</ele><time>2026-05-02T10:23:57.402Z</time></trkpt><trkpt lat="53.3169933" lon="-1.0285533"><ele>39.0</ele><time>2026-05-02T10:23:58.402Z</time></trkpt><trkpt lat="53.3173167" lon="-1.02847"><ele>38.5</ele><time>2026-05-02T10:23:59.404Z</time></trkpt><trkpt lat="53.3176383" lon="-1.0283833"><ele>38.0</ele><time>2026-05-02T10:24:00.402Z</time></trkpt><trkpt lat="53.3179433" lon="-1.0283067"><ele>37.0</ele><time>2026-05-02T10:24:01.402Z</time></trkpt><trkpt lat="53.3182383" lon="-1.0282433"><ele>36.0</ele><time>2026-05-02T10:24:02.402Z</time></trkpt><trkpt lat="53.31852" lon="-1.0281883"><ele>36.0</ele><time>2026-05-02T10:24:03.402Z</time></trkpt><trkpt lat="53.318795" lon="-1.0281367"><ele>36.0</ele><time>2026-05-02T10:24:04.402Z</time></trkpt><trkpt lat="53.3190667" lon="-1.028085"><ele>34.0</ele><time>2026-05-02T10:24:05.402Z</time></trkpt><trkpt lat="53.3193383" lon="-1.02803"><ele>32.0</ele><time>2026-05-02T10:24:06.404Z</time></trkpt><trkpt lat="53.3196117" lon="-1.0279783"><ele>30.5</ele><time>2026-05-02T10:24:07.411Z</time></trkpt><trkpt lat="53.3198833" lon="-1.0279333"><ele>29.0</ele><time>2026-05-02T10:24:08.404Z</time></trkpt><trkpt lat="53.32015" lon="-1.0278983"><ele>29.0</ele><time>2026-05-02T10:24:09.403Z</time></trkpt><trkpt lat="53.3204167" lon="-1.02787"><ele>29.0</ele><time>2026-05-02T10:24:10.403Z</time></trkpt><trkpt lat="53.3206867" lon="-1.02784"><ele>28.5</ele><time>2026-05-02T10:24:11.405Z</time></trkpt><trkpt lat="53.3209567" lon="-1.0278083"><ele>28.0</ele><time>2026-05-02T10:24:12.405Z</time></trkpt><trkpt lat="53.3212317" lon="-1.0277767"><ele>27.5</ele><time>2026-05-02T10:24:13.405Z</time></trkpt><trkpt lat="53.32151" lon="-1.027745"><ele>27.0</ele><time>2026-05-02T10:24:14.402Z</time></trkpt><trkpt lat="53.3217917" lon="-1.0277217"><ele>27.0</ele><time>2026-05-02T10:24:15.405Z</time></trkpt><trkpt lat="53.3220733" lon="-1.0277067"><ele>27.0</ele><time>2026-05-02T10:24:16.405Z</time></trkpt><trkpt lat="53.3223517" lon="-1.0276967"><ele>26.5</ele><time>2026-05-02T10:24:17.406Z</time></trkpt><trkpt lat="53.322625" lon="-1.0276917"><ele>26.0</ele><time>2026-05-02T10:24:18.403Z</time></trkpt><trkpt lat="53.3229" lon="-1.0276783"><ele>27.0</ele><time>2026-05-02T10:24:19.405Z</time></trkpt><trkpt lat="53.3231717" lon="-1.0276683"><ele>28.0</ele><time>2026-05-02T10:24:20.402Z</time></trkpt><trkpt lat="53.323445" lon="-1.0276683"><ele>28.0</ele><time>2026-05-02T10:24:21.402Z</time></trkpt><trkpt lat="53.3237183" lon="-1.0276617"><ele>28.0</ele><time>2026-05-02T10:24:22.402Z</time></trkpt><trkpt lat="53.32399" lon="-1.0276533"><ele>29.0</ele><time>2026-05-02T10:24:23.402Z</time></trkpt><trkpt lat="53.3242617" lon="-1.0276433"><ele>30.0</ele><time>2026-05-02T10:24:24.403Z</time></trkpt><trkpt lat="53.32454" lon="-1.027635"><ele>29.5</ele><time>2026-05-02T10:24:25.402Z</time></trkpt><trkpt lat="53.32482" lon="-1.0276267"><ele>29.0</ele><time>2026-05-02T10:24:26.403Z</time></trkpt><trkpt lat="53.3250967" lon="-1.027615"><ele>29.0</ele><time>2026-05-02T10:24:27.402Z</time></trkpt><trkpt lat="53.3253717" lon="-1.0276"><ele>29.0</ele><time>2026-05-02T10:24:28.402Z</time></trkpt><trkpt lat="53.3256417" lon="-1.0275867"><ele>28.5</ele><time>2026-05-02T10:24:29.402Z</time></trkpt><trkpt lat="53.3259083" lon="-1.0275733"><ele>28.0</ele><time>2026-05-02T10:24:30.403Z</time></trkpt><trkpt lat="53.3261717" lon="-1.02756"><ele>28.0</ele><time>2026-05-02T10:24:31.403Z</time></trkpt><trkpt lat="53.3264367" lon="-1.0275467"><ele>28.0</ele><time>2026-05-02T10:24:32.406Z</time></trkpt><trkpt lat="53.326705" lon="-1.0275333"><ele>28.0</ele><time>2026-05-02T10:24:33.403Z</time></trkpt><trkpt lat="53.32697" lon="-1.0275183"><ele>28.0</ele><time>2026-05-02T10:24:34.403Z</time></trkpt><trkpt lat="53.3272367" lon="-1.0275067"><ele>27.0</ele><time>2026-05-02T10:24:35.404Z</time></trkpt><trkpt lat="53.327505" lon="-1.0275067"><ele>26.0</ele><time>2026-05-02T10:24:36.403Z</time></trkpt><trkpt lat="53.3277717" lon="-1.0275133"><ele>26.0</ele><time>2026-05-02T10:24:37.403Z</time></trkpt><trkpt lat="53.32804" lon="-1.0275217"><ele>26.0</ele><time>2026-05-02T10:24:38.404Z</time></trkpt><trkpt lat="53.3283067" lon="-1.0275333"><ele>26.5</ele><time>2026-05-02T10:24:39.402Z</time></trkpt><trkpt lat="53.32858" lon="-1.0275533"><ele>27.0</ele><time>2026-05-02T10:24:40.407Z</time></trkpt><trkpt lat="53.3288567" lon="-1.02758"><ele>27.0</ele><time>2026-05-02T10:24:41.403Z</time></trkpt><trkpt lat="53.3291417" lon="-1.027605"><ele>27.0</ele><time>2026-05-02T10:24:42.41Z</time></trkpt><trkpt lat="53.3294333" lon="-1.0276333"><ele>27.0</ele><time>2026-05-02T10:24:43.402Z</time></trkpt><trkpt lat="53.3297267" lon="-1.0276667"><ele>27.0</ele><time>2026-05-02T10:24:44.404Z</time></trkpt><trkpt lat="53.3300167" lon="-1.0277067"><ele>27.0</ele><time>2026-05-02T10:24:45.409Z</time></trkpt><trkpt lat="53.3303017" lon="-1.0277533"><ele>27.0</ele><time>2026-05-02T10:24:46.407Z</time></trkpt><trkpt lat="53.3305817" lon="-1.0277983"><ele>27.0</ele><time>2026-05-02T10:24:47.405Z</time></trkpt><trkpt lat="53.3308617" lon="-1.027835"><ele>27.0</ele><time>2026-05-02T10:24:48.402Z</time></trkpt><trkpt lat="53.3311383" lon="-1.0278683"><ele>27.5</ele><time>2026-05-02T10:24:49.406Z</time></trkpt><trkpt lat="53.33141" lon="-1.027905"><ele>28.0</ele><time>2026-05-02T10:24:50.407Z</time></trkpt><trkpt lat="53.33168" lon="-1.0279417"><ele>28.0</ele><time>2026-05-02T10:24:51.407Z</time></trkpt><trkpt lat="53.33195" lon="-1.02798"><ele>28.0</ele><time>2026-05-02T10:24:52.406Z</time></trkpt><trkpt lat="53.3322167" lon="-1.0280133"><ele>30.0</ele><time>2026-05-02T10:24:53.407Z</time></trkpt><trkpt lat="53.3324817" lon="-1.02805"><ele>32.0</ele><time>2026-05-02T10:24:54.408Z</time></trkpt><trkpt lat="53.3327467" lon="-1.0280867"><ele>32.0</ele><time>2026-05-02T10:24:55.409Z</time></trkpt><trkpt lat="53.3330133" lon="-1.0281233"><ele>32.0</ele><time>2026-05-02T10:24:56.406Z</time></trkpt><trkpt lat="53.3332817" lon="-1.0281567"><ele>34.0</ele><time>2026-05-02T10:24:57.406Z</time></trkpt><trkpt lat="53.3335483" lon="-1.028195"><ele>36.0</ele><time>2026-05-02T10:24:58.403Z</time></trkpt><trkpt lat="53.333815" lon="-1.0282317"><ele>34.5</ele><time>2026-05-02T10:24:59.402Z</time></trkpt><trkpt lat="53.334085" lon="-1.0282733"><ele>33.0</ele><time>2026-05-02T10:25:00.406Z</time></trkpt><trkpt lat="53.3343567" lon="-1.0283183"><ele>32.0</ele><time>2026-05-02T10:25:01.406Z</time></trkpt><trkpt lat="53.3346283" lon="-1.028365"><ele>31.0</ele><time>2026-05-02T10:25:02.404Z</time></trkpt><trkpt lat="53.3348983" lon="-1.0284033"><ele>30.0</ele><time>2026-05-02T10:25:03.403Z</time></trkpt><trkpt lat="53.3351683" lon="-1.028445"><ele>29.0</ele><time>2026-05-02T10:25:04.403Z</time></trkpt><trkpt lat="53.3354417" lon="-1.0284867"><ele>30.0</ele><time>2026-05-02T10:25:05.406Z</time></trkpt><trkpt lat="53.3357167" lon="-1.0285317"><ele>31.0</ele><time>2026-05-02T10:25:06.403Z</time></trkpt><trkpt lat="53.3359917" lon="-1.028575"><ele>31.0</ele><time>2026-05-02T10:25:07.406Z</time></trkpt><trkpt lat="53.33627" lon="-1.0286217"><ele>31.0</ele><time>2026-05-02T10:25:08.406Z</time></trkpt><trkpt lat="53.3365483" lon="-1.0286667"><ele>30.0</ele><time>2026-05-02T10:25:09.406Z</time></trkpt><trkpt lat="53.3368267" lon="-1.0287083"><ele>29.0</ele><time>2026-05-02T10:25:10.404Z</time></trkpt><trkpt lat="53.3370933" lon="-1.0287483"><ele>27.0</ele><time>2026-05-02T10:25:11.407Z</time></trkpt><trkpt lat="53.3373567" lon="-1.02879"><ele>25.0</ele><time>2026-05-02T10:25:12.402Z</time></trkpt><trkpt lat="53.3376267" lon="-1.02883"><ele>25.0</ele><time>2026-05-02T10:25:13.403Z</time></trkpt><trkpt lat="53.3379017" lon="-1.0288683"><ele>25.0</ele><time>2026-05-02T10:25:14.402Z</time></trkpt><trkpt lat="53.3381767" lon="-1.0289083"><ele>25.5</ele><time>2026-05-02T10:25:15.403Z</time></trkpt><trkpt lat="53.3384583" lon="-1.028955"><ele>26.0</ele><time>2026-05-02T10:25:16.406Z</time></trkpt><trkpt lat="53.33874" lon="-1.0290083"><ele>24.5</ele><time>2026-05-02T10:25:17.407Z</time></trkpt><trkpt lat="53.3390267" lon="-1.02907"><ele>23.0</ele><time>2026-05-02T10:25:18.406Z</time></trkpt><trkpt lat="53.3393117" lon="-1.0291367"><ele>22.5</ele><time>2026-05-02T10:25:19.402Z</time></trkpt><trkpt lat="53.3395983" lon="-1.029205"><ele>22.0</ele><time>2026-05-02T10:25:20.402Z</time></trkpt><trkpt lat="53.3398833" lon="-1.0292767"><ele>22.0</ele><time>2026-05-02T10:25:21.403Z</time></trkpt><trkpt lat="53.3401633" lon="-1.0293483"><ele>22.0</ele><time>2026-05-02T10:25:22.402Z</time></trkpt><trkpt lat="53.34044" lon="-1.0294233"><ele>22.5</ele><time>2026-05-02T10:25:23.406Z</time></trkpt><trkpt lat="53.3407133" lon="-1.0295017"><ele>23.0</ele><time>2026-05-02T10:25:24.406Z</time></trkpt><trkpt lat="53.3409867" lon="-1.0295817"><ele>23.0</ele><time>2026-05-02T10:25:25.407Z</time></trkpt><trkpt lat="53.3412567" lon="-1.029665"><ele>23.0</ele><time>2026-05-02T10:25:26.402Z</time></trkpt><trkpt lat="53.34153" lon="-1.0297533"><ele>23.5</ele><time>2026-05-02T10:25:27.406Z</time></trkpt><trkpt lat="53.3418" lon="-1.0298433"><ele>24.0</ele><time>2026-05-02T10:25:28.402Z</time></trkpt><trkpt lat="53.3420683" lon="-1.0299367"><ele>25.0</ele><time>2026-05-02T10:25:29.402Z</time></trkpt><trkpt lat="53.3423367" lon="-1.030035"><ele>26.0</ele><time>2026-05-02T10:25:30.403Z</time></trkpt><trkpt lat="53.3426033" lon="-1.030135"><ele>26.0</ele><time>2026-05-02T10:25:31.403Z</time></trkpt><trkpt lat="53.342865" lon="-1.0302333"><ele>26.0</ele><time>2026-05-02T10:25:32.404Z</time></trkpt><trkpt lat="53.3431283" lon="-1.0303317"><ele>26.5</ele><time>2026-05-02T10:25:33.404Z</time></trkpt><trkpt lat="53.3433883" lon="-1.0304333"><ele>27.0</ele><time>2026-05-02T10:25:34.403Z</time></trkpt><trkpt lat="53.3436467" lon="-1.0305367"><ele>28.5</ele><time>2026-05-02T10:25:35.407Z</time></trkpt><trkpt lat="53.3439017" lon="-1.0306383"><ele>30.0</ele><time>2026-05-02T10:25:36.406Z</time></trkpt><trkpt lat="53.3441533" lon="-1.030745"><ele>28.0</ele><time>2026-05-02T10:25:37.406Z</time></trkpt><trkpt lat="53.3444067" lon="-1.03085"><ele>26.0</ele><time>2026-05-02T10:25:38.402Z</time></trkpt><trkpt lat="53.34466" lon="-1.0309533"><ele>26.0</ele><time>2026-05-02T10:25:39.403Z</time></trkpt><trkpt lat="53.3449133" lon="-1.03106"><ele>26.0</ele><time>2026-05-02T10:25:40.402Z</time></trkpt><trkpt lat="53.345165" lon="-1.0311683"><ele>26.0</ele><time>2026-05-02T10:25:41.402Z</time></trkpt><trkpt lat="53.3454117" lon="-1.0312817"><ele>26.0</ele><time>2026-05-02T10:25:42.405Z</time></trkpt><trkpt lat="53.345655" lon="-1.0314017"><ele>26.0</ele><time>2026-05-02T10:25:43.407Z</time></trkpt><trkpt lat="53.3459033" lon="-1.03153"><ele>26.0</ele><time>2026-05-02T10:25:44.41Z</time></trkpt><trkpt lat="53.3461533" lon="-1.0316683"><ele>25.0</ele><time>2026-05-02T10:25:45.403Z</time></trkpt><trkpt lat="53.34641" lon="-1.0318133"><ele>24.0</ele><time>2026-05-02T10:25:46.403Z</time></trkpt><trkpt lat="53.3466683" lon="-1.03197"><ele>24.0</ele><time>2026-05-02T10:25:47.402Z</time></trkpt><trkpt lat="53.3469333" lon="-1.032135"><ele>24.0</ele><time>2026-05-02T10:25:48.405Z</time></trkpt><trkpt lat="53.3471983" lon="-1.0323"><ele>24.0</ele><time>2026-05-02T10:25:49.403Z</time></trkpt><trkpt lat="53.347455" lon="-1.032465"><ele>24.0</ele><time>2026-05-02T10:25:50.403Z</time></trkpt><trkpt lat="53.3477067" lon="-1.03264"><ele>24.0</ele><time>2026-05-02T10:25:51.406Z</time></trkpt><trkpt lat="53.3479567" lon="-1.03282"><ele>24.0</ele><time>2026-05-02T10:25:52.402Z</time></trkpt><trkpt lat="53.348205" lon="-1.0330033"><ele>25.5</ele><time>2026-05-02T10:25:53.404Z</time></trkpt><trkpt lat="53.348445" lon="-1.0331917"><ele>27.0</ele><time>2026-05-02T10:25:54.402Z</time></trkpt><trkpt lat="53.3486833" lon="-1.0333817"><ele>29.0</ele><time>2026-05-02T10:25:55.403Z</time></trkpt><trkpt lat="53.3489167" lon="-1.0335733"><ele>31.0</ele><time>2026-05-02T10:25:56.403Z</time></trkpt><trkpt lat="53.3491517" lon="-1.0337667"><ele>31.0</ele><time>2026-05-02T10:25:57.401Z</time></trkpt><trkpt lat="53.3493867" lon="-1.033965"><ele>31.0</ele><time>2026-05-02T10:25:58.401Z</time></trkpt><trkpt lat="53.3496167" lon="-1.0341683"><ele>31.5</ele><time>2026-05-02T10:25:59.402Z</time></trkpt><trkpt lat="53.3498433" lon="-1.034375"><ele>32.0</ele><time>2026-05-02T10:26:00.402Z</time></trkpt><trkpt lat="53.3500667" lon="-1.0345833"><ele>32.0</ele><time>2026-05-02T10:26:01.403Z</time></trkpt><trkpt lat="53.3502867" lon="-1.0348017"><ele>32.0</ele><time>2026-05-02T10:26:02.402Z</time></trkpt><trkpt lat="53.3505083" lon="-1.0350233"><ele>32.5</ele><time>2026-05-02T10:26:03.402Z</time></trkpt><trkpt lat="53.3507317" lon="-1.035255"><ele>33.0</ele><time>2026-05-02T10:26:04.403Z</time></trkpt><trkpt lat="53.35096" lon="-1.0354917"><ele>33.0</ele><time>2026-05-02T10:26:05.402Z</time></trkpt><trkpt lat="53.3511883" lon="-1.0357367"><ele>33.0</ele><time>2026-05-02T10:26:06.402Z</time></trkpt><trkpt lat="53.3514233" lon="-1.0359883"><ele>32.5</ele><time>2026-05-02T10:26:07.406Z</time></trkpt><trkpt lat="53.3516617" lon="-1.036235"><ele>32.0</ele><time>2026-05-02T10:26:08.407Z</time></trkpt><trkpt lat="53.3518983" lon="-1.0364783"><ele>32.5</ele><time>2026-05-02T10:26:09.405Z</time></trkpt><trkpt lat="53.3521333" lon="-1.0367183"><ele>33.0</ele><time>2026-05-02T10:26:10.406Z</time></trkpt><trkpt lat="53.3523683" lon="-1.0369633"><ele>33.5</ele><time>2026-05-02T10:26:11.402Z</time></trkpt><trkpt lat="53.3526017" lon="-1.037215"><ele>34.0</ele><time>2026-05-02T10:26:12.404Z</time></trkpt><trkpt lat="53.3528383" lon="-1.03747"><ele>34.5</ele><time>2026-05-02T10:26:13.402Z</time></trkpt><trkpt lat="53.3530733" lon="-1.0377233"><ele>35.0</ele><time>2026-05-02T10:26:14.406Z</time></trkpt><trkpt lat="53.3533067" lon="-1.0379783"><ele>35.0</ele><time>2026-05-02T10:26:15.401Z</time></trkpt><trkpt lat="53.353535" lon="-1.038235"><ele>35.0</ele><time>2026-05-02T10:26:16.401Z</time></trkpt><trkpt lat="53.3537533" lon="-1.0384867"><ele>37.0</ele><time>2026-05-02T10:26:17.405Z</time></trkpt><trkpt lat="53.3539733" lon="-1.0387333"><ele>39.0</ele><time>2026-05-02T10:26:18.402Z</time></trkpt><trkpt lat="53.3541933" lon="-1.0389783"><ele>39.5</ele><time>2026-05-02T10:26:19.405Z</time></trkpt><trkpt lat="53.35441" lon="-1.0392283"><ele>40.0</ele><time>2026-05-02T10:26:20.401Z</time></trkpt><trkpt lat="53.3546267" lon="-1.0394817"><ele>39.5</ele><time>2026-05-02T10:26:21.402Z</time></trkpt><trkpt lat="53.3548383" lon="-1.0397367"><ele>39.0</ele><time>2026-05-02T10:26:22.406Z</time></trkpt><trkpt lat="53.35505" lon="-1.0399917"><ele>39.0</ele><time>2026-05-02T10:26:23.402Z</time></trkpt><trkpt lat="53.3552617" lon="-1.04025"><ele>39.0</ele><time>2026-05-02T10:26:24.404Z</time></trkpt><trkpt lat="53.3554717" lon="-1.04051"><ele>39.0</ele><time>2026-05-02T10:26:25.405Z</time></trkpt><trkpt lat="53.3556833" lon="-1.0407683"><ele>39.0</ele><time>2026-05-02T10:26:26.406Z</time></trkpt><trkpt lat="53.355905" lon="-1.0410283"><ele>39.5</ele><time>2026-05-02T10:26:27.405Z</time></trkpt><trkpt lat="53.3561267" lon="-1.0412883"><ele>40.0</ele><time>2026-05-02T10:26:28.405Z</time></trkpt><trkpt lat="53.3563467" lon="-1.0415567"><ele>40.5</ele><time>2026-05-02T10:26:29.405Z</time></trkpt><trkpt lat="53.356565" lon="-1.0418367"><ele>41.0</ele><time>2026-05-02T10:26:30.402Z</time></trkpt><trkpt lat="53.3567883" lon="-1.0421283"><ele>41.0</ele><time>2026-05-02T10:26:31.405Z</time></trkpt><trkpt lat="53.3570133" lon="-1.04243"><ele>41.0</ele><time>2026-05-02T10:26:32.403Z</time></trkpt><trkpt lat="53.3572367" lon="-1.042745"><ele>40.5</ele><time>2026-05-02T10:26:33.406Z</time></trkpt><trkpt lat="53.357465" lon="-1.0430667"><ele>40.0</ele><time>2026-05-02T10:26:34.406Z</time></trkpt><trkpt lat="53.35769" lon="-1.043385"><ele>39.0</ele><time>2026-05-02T10:26:35.405Z</time></trkpt><trkpt lat="53.3579083" lon="-1.043695"><ele>38.0</ele><time>2026-05-02T10:26:36.406Z</time></trkpt><trkpt lat="53.3581217" lon="-1.0440067"><ele>39.5</ele><time>2026-05-02T10:26:37.406Z</time></trkpt><trkpt lat="53.3583383" lon="-1.04432"><ele>41.0</ele><time>2026-05-02T10:26:38.405Z</time></trkpt><trkpt lat="53.3585533" lon="-1.0446317"><ele>41.0</ele><time>2026-05-02T10:26:39.407Z</time></trkpt><trkpt lat="53.3587633" lon="-1.0449467"><ele>41.0</ele><time>2026-05-02T10:26:40.404Z</time></trkpt><trkpt lat="53.35897" lon="-1.0452633"><ele>39.5</ele><time>2026-05-02T10:26:41.405Z</time></trkpt><trkpt lat="53.3591767" lon="-1.0455783"><ele>38.0</ele><time>2026-05-02T10:26:42.405Z</time></trkpt><trkpt lat="53.3593867" lon="-1.0458883"><ele>38.0</ele><time>2026-05-02T10:26:43.406Z</time></trkpt><trkpt lat="53.359595" lon="-1.046195"><ele>38.0</ele><time>2026-05-02T10:26:44.403Z</time></trkpt><trkpt lat="53.3598017" lon="-1.0465033"><ele>37.5</ele><time>2026-05-02T10:26:45.402Z</time></trkpt><trkpt lat="53.3600067" lon="-1.0468167"><ele>37.0</ele><time>2026-05-02T10:26:46.401Z</time></trkpt><trkpt lat="53.3602117" lon="-1.047125"><ele>37.0</ele><time>2026-05-02T10:26:47.402Z</time></trkpt><trkpt lat="53.36042" lon="-1.04743"><ele>37.0</ele><time>2026-05-02T10:26:48.406Z</time></trkpt><trkpt lat="53.3606333" lon="-1.0477267"><ele>37.0</ele><time>2026-05-02T10:26:49.402Z</time></trkpt><trkpt lat="53.360855" lon="-1.048015"><ele>37.0</ele><time>2026-05-02T10:26:50.402Z</time></trkpt><trkpt lat="53.361085" lon="-1.0482917"><ele>37.0</ele><time>2026-05-02T10:26:51.403Z</time></trkpt><trkpt lat="53.3613267" lon="-1.0485683"><ele>37.0</ele><time>2026-05-02T10:26:52.406Z</time></trkpt><trkpt lat="53.3615683" lon="-1.04884"><ele>37.0</ele><time>2026-05-02T10:26:53.403Z</time></trkpt><trkpt lat="53.3618067" lon="-1.0490967"><ele>37.0</ele><time>2026-05-02T10:26:54.402Z</time></trkpt><trkpt lat="53.3620467" lon="-1.0493517"><ele>36.0</ele><time>2026-05-02T10:26:55.405Z</time></trkpt><trkpt lat="53.3622833" lon="-1.0496033"><ele>35.0</ele><time>2026-05-02T10:26:56.405Z</time></trkpt><trkpt lat="53.3625217" lon="-1.0498533"><ele>35.5</ele><time>2026-05-02T10:26:57.405Z</time></trkpt><trkpt lat="53.362755" lon="-1.0501"><ele>36.0</ele><time>2026-05-02T10:26:58.409Z</time></trkpt><trkpt lat="53.3629883" lon="-1.0503433"><ele>35.5</ele><time>2026-05-02T10:26:59.403Z</time></trkpt><trkpt lat="53.3632217" lon="-1.0505917"><ele>35.0</ele><time>2026-05-02T10:27:00.401Z</time></trkpt><trkpt lat="53.3634533" lon="-1.0508433"><ele>35.5</ele><time>2026-05-02T10:27:01.401Z</time></trkpt><trkpt lat="53.3636883" lon="-1.0510933"><ele>36.0</ele><time>2026-05-02T10:27:02.405Z</time></trkpt><trkpt lat="53.3639267" lon="-1.05135"><ele>36.0</ele><time>2026-05-02T10:27:03.403Z</time></trkpt><trkpt lat="53.3641583" lon="-1.0516083"><ele>36.0</ele><time>2026-05-02T10:27:04.406Z</time></trkpt><trkpt lat="53.3643967" lon="-1.0518667"><ele>35.5</ele><time>2026-05-02T10:27:05.405Z</time></trkpt><trkpt lat="53.3646283" lon="-1.0521217"><ele>35.0</ele><time>2026-05-02T10:27:06.406Z</time></trkpt><trkpt lat="53.3648583" lon="-1.0523717"><ele>34.5</ele><time>2026-05-02T10:27:07.406Z</time></trkpt><trkpt lat="53.3650867" lon="-1.0526183"><ele>34.0</ele><time>2026-05-02T10:27:08.405Z</time></trkpt><trkpt lat="53.36531" lon="-1.0528533"><ele>34.0</ele><time>2026-05-02T10:27:09.405Z</time></trkpt><trkpt lat="53.3655333" lon="-1.053085"><ele>34.0</ele><time>2026-05-02T10:27:10.402Z</time></trkpt><trkpt lat="53.3657617" lon="-1.0533167"><ele>34.0</ele><time>2026-05-02T10:27:11.408Z</time></trkpt><trkpt lat="53.3659933" lon="-1.05354"><ele>34.0</ele><time>2026-05-02T10:27:12.405Z</time></trkpt><trkpt lat="53.36623" lon="-1.0537533"><ele>34.0</ele><time>2026-05-02T10:27:13.401Z</time></trkpt><trkpt lat="53.366475" lon="-1.0539517"><ele>34.0</ele><time>2026-05-02T10:27:14.405Z</time></trkpt><trkpt lat="53.3667283" lon="-1.05414"><ele>34.0</ele><time>2026-05-02T10:27:15.401Z</time></trkpt><trkpt lat="53.366985" lon="-1.0543167"><ele>34.0</ele><time>2026-05-02T10:27:16.405Z</time></trkpt><trkpt lat="53.3672483" lon="-1.0544783"><ele>33.5</ele><time>2026-05-02T10:27:17.402Z</time></trkpt><trkpt lat="53.3675183" lon="-1.0546267"><ele>33.0</ele><time>2026-05-02T10:27:18.402Z</time></trkpt><trkpt lat="53.367795" lon="-1.0547617"><ele>32.5</ele><time>2026-05-02T10:27:19.403Z</time></trkpt><trkpt lat="53.3680783" lon="-1.05488"><ele>32.0</ele><time>2026-05-02T10:27:20.403Z</time></trkpt><trkpt lat="53.3683617" lon="-1.0549817"><ele>32.0</ele><time>2026-05-02T10:27:21.405Z</time></trkpt><trkpt lat="53.3686467" lon="-1.0550617"><ele>32.0</ele><time>2026-05-02T10:27:22.402Z</time></trkpt><trkpt lat="53.3689333" lon="-1.055125"><ele>32.0</ele><time>2026-05-02T10:27:23.401Z</time></trkpt><trkpt lat="53.36922" lon="-1.0551783"><ele>32.0</ele><time>2026-05-02T10:27:24.404Z</time></trkpt><trkpt lat="53.3695117" lon="-1.0552167"><ele>31.0</ele><time>2026-05-02T10:27:25.401Z</time></trkpt><trkpt lat="53.3698017" lon="-1.0552367"><ele>30.0</ele><time>2026-05-02T10:27:26.403Z</time></trkpt><trkpt lat="53.3700917" lon="-1.05523"><ele>30.0</ele><time>2026-05-02T10:27:27.402Z</time></trkpt><trkpt lat="53.3703867" lon="-1.0551933"><ele>30.0</ele><time>2026-05-02T10:27:28.402Z</time></trkpt><trkpt lat="53.3706867" lon="-1.0551283"><ele>29.5</ele><time>2026-05-02T10:27:29.402Z</time></trkpt><trkpt lat="53.3709817" lon="-1.0550583"><ele>29.0</ele><time>2026-05-02T10:27:30.402Z</time></trkpt><trkpt lat="53.3712733" lon="-1.0549817"><ele>28.0</ele><time>2026-05-02T10:27:31.405Z</time></trkpt><trkpt lat="53.3715633" lon="-1.0548967"><ele>27.0</ele><time>2026-05-02T10:27:32.405Z</time></trkpt><trkpt lat="53.37185" lon="-1.0548117"><ele>27.0</ele><time>2026-05-02T10:27:33.405Z</time></trkpt><trkpt lat="53.3721333" lon="-1.0547267"><ele>27.0</ele><time>2026-05-02T10:27:34.405Z</time></trkpt><trkpt lat="53.372415" lon="-1.05464"><ele>24.5</ele><time>2026-05-02T10:27:35.402Z</time></trkpt><trkpt lat="53.37269" lon="-1.05456"><ele>22.0</ele><time>2026-05-02T10:27:36.406Z</time></trkpt><trkpt lat="53.3729683" lon="-1.05448"><ele>21.5</ele><time>2026-05-02T10:27:37.406Z</time></trkpt><trkpt lat="53.3732483" lon="-1.0544"><ele>21.0</ele><time>2026-05-02T10:27:38.406Z</time></trkpt><trkpt lat="53.3735317" lon="-1.054315"><ele>21.0</ele><time>2026-05-02T10:27:39.406Z</time></trkpt><trkpt lat="53.3738217" lon="-1.0542267"><ele>21.0</ele><time>2026-05-02T10:27:40.408Z</time></trkpt><trkpt lat="53.3741183" lon="-1.0541367"><ele>19.0</ele><time>2026-05-02T10:27:41.406Z</time></trkpt><trkpt lat="53.374415" lon="-1.0540533"><ele>17.0</ele><time>2026-05-02T10:27:42.408Z</time></trkpt><trkpt lat="53.3747167" lon="-1.0539833"><ele>17.0</ele><time>2026-05-02T10:27:43.405Z</time></trkpt><trkpt lat="53.375015" lon="-1.0539267"><ele>17.0</ele><time>2026-05-02T10:27:44.407Z</time></trkpt><trkpt lat="53.375305" lon="-1.0538767"><ele>16.0</ele><time>2026-05-02T10:27:45.401Z</time></trkpt><trkpt lat="53.3755883" lon="-1.0538317"><ele>15.0</ele><time>2026-05-02T10:27:46.401Z</time></trkpt><trkpt lat="53.3758683" lon="-1.0538017"><ele>15.0</ele><time>2026-05-02T10:27:47.405Z</time></trkpt><trkpt lat="53.3761483" lon="-1.0537783"><ele>15.0</ele><time>2026-05-02T10:27:48.402Z</time></trkpt><trkpt lat="53.3764267" lon="-1.0537667"><ele>15.5</ele><time>2026-05-02T10:27:49.403Z</time></trkpt><trkpt lat="53.3767033" lon="-1.0537633"><ele>16.0</ele><time>2026-05-02T10:27:50.402Z</time></trkpt><trkpt lat="53.3769817" lon="-1.053765"><ele>14.5</ele><time>2026-05-02T10:27:51.412Z</time></trkpt><trkpt lat="53.37726" lon="-1.0537717"><ele>13.0</ele><time>2026-05-02T10:27:52.402Z</time></trkpt><trkpt lat="53.3775367" lon="-1.053795"><ele>13.0</ele><time>2026-05-02T10:27:53.402Z</time></trkpt><trkpt lat="53.3778083" lon="-1.0538283"><ele>13.0</ele><time>2026-05-02T10:27:54.402Z</time></trkpt><trkpt lat="53.37808" lon="-1.05387"><ele>14.0</ele><time>2026-05-02T10:27:55.402Z</time></trkpt><trkpt lat="53.3783467" lon="-1.0539167"><ele>15.0</ele><time>2026-05-02T10:27:56.405Z</time></trkpt><trkpt lat="53.3786117" lon="-1.0539683"><ele>15.0</ele><time>2026-05-02T10:27:57.401Z</time></trkpt><trkpt lat="53.3788733" lon="-1.0540317"><ele>15.0</ele><time>2026-05-02T10:27:58.401Z</time></trkpt><trkpt lat="53.37913" lon="-1.054105"><ele>16.0</ele><time>2026-05-02T10:27:59.405Z</time></trkpt><trkpt lat="53.379385" lon="-1.05419"><ele>17.0</ele><time>2026-05-02T10:28:00.405Z</time></trkpt><trkpt lat="53.37964" lon="-1.0542867"><ele>17.0</ele><time>2026-05-02T10:28:01.406Z</time></trkpt><trkpt lat="53.3799017" lon="-1.0543917"><ele>17.0</ele><time>2026-05-02T10:28:02.402Z</time></trkpt><trkpt lat="53.38017" lon="-1.0545033"><ele>17.0</ele><time>2026-05-02T10:28:03.406Z</time></trkpt><trkpt lat="53.3804433" lon="-1.054625"><ele>17.0</ele><time>2026-05-02T10:28:04.405Z</time></trkpt><trkpt lat="53.38071" lon="-1.0547567"><ele>18.5</ele><time>2026-05-02T10:28:05.405Z</time></trkpt><trkpt lat="53.380965" lon="-1.0548933"><ele>20.0</ele><time>2026-05-02T10:28:06.401Z</time></trkpt><trkpt lat="53.3812117" lon="-1.0550333"><ele>21.0</ele><time>2026-05-02T10:28:07.402Z</time></trkpt><trkpt lat="53.381455" lon="-1.05518"><ele>22.0</ele><time>2026-05-02T10:28:08.406Z</time></trkpt><trkpt lat="53.3816983" lon="-1.0553367"><ele>22.0</ele><time>2026-05-02T10:28:09.405Z</time></trkpt><trkpt lat="53.3819433" lon="-1.0555017"><ele>22.0</ele><time>2026-05-02T10:28:10.405Z</time></trkpt><trkpt lat="53.382185" lon="-1.055675"><ele>23.0</ele><time>2026-05-02T10:28:11.404Z</time></trkpt><trkpt lat="53.3824233" lon="-1.055855"><ele>24.0</ele><time>2026-05-02T10:28:12.405Z</time></trkpt><trkpt lat="53.382655" lon="-1.0560417"><ele>24.0</ele><time>2026-05-02T10:28:13.41Z</time></trkpt><trkpt lat="53.3828817" lon="-1.05623"><ele>24.0</ele><time>2026-05-02T10:28:14.405Z</time></trkpt><trkpt lat="53.3831017" lon="-1.0564217"><ele>24.5</ele><time>2026-05-02T10:28:15.406Z</time></trkpt><trkpt lat="53.3833133" lon="-1.0566167"><ele>25.0</ele><time>2026-05-02T10:28:16.406Z</time></trkpt><trkpt lat="53.38352" lon="-1.0568133"><ele>27.0</ele><time>2026-05-02T10:28:17.406Z</time></trkpt><trkpt lat="53.3837233" lon="-1.0570133"><ele>29.0</ele><time>2026-05-02T10:28:18.401Z</time></trkpt><trkpt lat="53.3839233" lon="-1.0572167"><ele>29.0</ele><time>2026-05-02T10:28:19.406Z</time></trkpt><trkpt lat="53.3841183" lon="-1.0574317"><ele>29.0</ele><time>2026-05-02T10:28:20.402Z</time></trkpt><trkpt lat="53.3843167" lon="-1.0576617"><ele>29.5</ele><time>2026-05-02T10:28:21.402Z</time></trkpt><trkpt lat="53.3845183" lon="-1.0579083"><ele>30.0</ele><time>2026-05-02T10:28:22.402Z</time></trkpt><trkpt lat="53.3847233" lon="-1.0581733"><ele>28.5</ele><time>2026-05-02T10:28:23.402Z</time></trkpt><trkpt lat="53.3849267" lon="-1.0584567"><ele>27.0</ele><time>2026-05-02T10:28:24.402Z</time></trkpt><trkpt lat="53.3851283" lon="-1.058755"><ele>27.0</ele><time>2026-05-02T10:28:25.402Z</time></trkpt><trkpt lat="53.3853317" lon="-1.05906"><ele>27.0</ele><time>2026-05-02T10:28:26.404Z</time></trkpt><trkpt lat="53.3855317" lon="-1.0593683"><ele>28.5</ele><time>2026-05-02T10:28:27.401Z</time></trkpt><trkpt lat="53.3857283" lon="-1.0596767"><ele>30.0</ele><time>2026-05-02T10:28:28.402Z</time></trkpt><trkpt lat="53.3859183" lon="-1.0599817"><ele>30.0</ele><time>2026-05-02T10:28:29.401Z</time></trkpt><trkpt lat="53.3860967" lon="-1.0602817"><ele>30.0</ele><time>2026-05-02T10:28:30.406Z</time></trkpt><trkpt lat="53.3862717" lon="-1.0605783"><ele>29.0</ele><time>2026-05-02T10:28:31.402Z</time></trkpt><trkpt lat="53.3864483" lon="-1.0608883"><ele>28.0</ele><time>2026-05-02T10:28:32.403Z</time></trkpt><trkpt lat="53.3866283" lon="-1.06121"><ele>28.0</ele><time>2026-05-02T10:28:33.405Z</time></trkpt><trkpt lat="53.3868133" lon="-1.06154"><ele>28.0</ele><time>2026-05-02T10:28:34.402Z</time></trkpt><trkpt lat="53.3869967" lon="-1.0618767"><ele>27.0</ele><time>2026-05-02T10:28:35.405Z</time></trkpt><trkpt lat="53.3871783" lon="-1.0622167"><ele>26.0</ele><time>2026-05-02T10:28:36.405Z</time></trkpt><trkpt lat="53.38736" lon="-1.062555"><ele>25.5</ele><time>2026-05-02T10:28:37.407Z</time></trkpt><trkpt lat="53.38754" lon="-1.062895"><ele>25.0</ele><time>2026-05-02T10:28:38.405Z</time></trkpt><trkpt lat="53.3877217" lon="-1.0632417"><ele>25.5</ele><time>2026-05-02T10:28:39.406Z</time></trkpt><trkpt lat="53.3879" lon="-1.0635933"><ele>26.0</ele><time>2026-05-02T10:28:40.405Z</time></trkpt><trkpt lat="53.3880767" lon="-1.0639417"><ele>24.5</ele><time>2026-05-02T10:28:41.406Z</time></trkpt><trkpt lat="53.388255" lon="-1.0642867"><ele>23.0</ele><time>2026-05-02T10:28:42.401Z</time></trkpt><trkpt lat="53.388435" lon="-1.0646217"><ele>23.0</ele><time>2026-05-02T10:28:43.405Z</time></trkpt><trkpt lat="53.3886133" lon="-1.06495"><ele>23.0</ele><time>2026-05-02T10:28:44.406Z</time></trkpt><trkpt lat="53.3887917" lon="-1.0652667"><ele>22.5</ele><time>2026-05-02T10:28:45.405Z</time></trkpt><trkpt lat="53.3889683" lon="-1.06558"><ele>22.0</ele><time>2026-05-02T10:28:46.405Z</time></trkpt><trkpt lat="53.3891433" lon="-1.0658933"><ele>22.0</ele><time>2026-05-02T10:28:47.403Z</time></trkpt><trkpt lat="53.3893217" lon="-1.066205"><ele>22.0</ele><time>2026-05-02T10:28:48.402Z</time></trkpt><trkpt lat="53.3895017" lon="-1.066515"><ele>21.0</ele><time>2026-05-02T10:28:49.402Z</time></trkpt><trkpt lat="53.3896833" lon="-1.0668233"><ele>20.0</ele><time>2026-05-02T10:28:50.402Z</time></trkpt><trkpt lat="53.389865" lon="-1.0671267"><ele>20.0</ele><time>2026-05-02T10:28:51.402Z</time></trkpt><trkpt lat="53.3900467" lon="-1.0674267"><ele>20.0</ele><time>2026-05-02T10:28:52.401Z</time></trkpt><trkpt lat="53.39023" lon="-1.0677217"><ele>20.0</ele><time>2026-05-02T10:28:53.403Z</time></trkpt><trkpt lat="53.390415" lon="-1.0680167"><ele>20.0</ele><time>2026-05-02T10:28:54.404Z</time></trkpt><trkpt lat="53.3906017" lon="-1.0683117"><ele>20.0</ele><time>2026-05-02T10:28:55.406Z</time></trkpt><trkpt lat="53.3907883" lon="-1.0686033"><ele>20.0</ele><time>2026-05-02T10:28:56.403Z</time></trkpt><trkpt lat="53.3909733" lon="-1.0688933"><ele>20.5</ele><time>2026-05-02T10:28:57.402Z</time></trkpt><trkpt lat="53.3911633" lon="-1.0691817"><ele>21.0</ele><time>2026-05-02T10:28:58.404Z</time></trkpt><trkpt lat="53.3913567" lon="-1.0694667"><ele>19.5</ele><time>2026-05-02T10:28:59.402Z</time></trkpt><trkpt lat="53.39155" lon="-1.0697467"><ele>18.0</ele><time>2026-05-02T10:29:00.408Z</time></trkpt><trkpt lat="53.3917433" lon="-1.070025"><ele>17.5</ele><time>2026-05-02T10:29:01.402Z</time></trkpt><trkpt lat="53.3919383" lon="-1.0702983"><ele>17.0</ele><time>2026-05-02T10:29:02.402Z</time></trkpt><trkpt lat="53.3921317" lon="-1.0705683"><ele>16.5</ele><time>2026-05-02T10:29:03.406Z</time></trkpt><trkpt lat="53.39233" lon="-1.0708317"><ele>16.0</ele><time>2026-05-02T10:29:04.406Z</time></trkpt><trkpt lat="53.39253" lon="-1.0711017"><ele>16.0</ele><time>2026-05-02T10:29:05.406Z</time></trkpt><trkpt lat="53.39274" lon="-1.071375"><ele>16.0</ele><time>2026-05-02T10:29:06.405Z</time></trkpt><trkpt lat="53.3929533" lon="-1.071645"><ele>14.5</ele><time>2026-05-02T10:29:07.406Z</time></trkpt><trkpt lat="53.3931717" lon="-1.07192"><ele>13.0</ele><time>2026-05-02T10:29:08.406Z</time></trkpt><trkpt lat="53.393395" lon="-1.0721983"><ele>13.0</ele><time>2026-05-02T10:29:09.406Z</time></trkpt><trkpt lat="53.3936267" lon="-1.0724783"><ele>13.0</ele><time>2026-05-02T10:29:10.406Z</time></trkpt><trkpt lat="53.3938617" lon="-1.072755"><ele>13.0</ele><time>2026-05-02T10:29:11.403Z</time></trkpt><trkpt lat="53.3940917" lon="-1.07303"><ele>13.0</ele><time>2026-05-02T10:29:12.405Z</time></trkpt><trkpt lat="53.3943267" lon="-1.0733033"><ele>13.0</ele><time>2026-05-02T10:29:13.402Z</time></trkpt><trkpt lat="53.394565" lon="-1.073575"><ele>13.0</ele><time>2026-05-02T10:29:14.406Z</time></trkpt><trkpt lat="53.3948083" lon="-1.073845"><ele>16.0</ele><time>2026-05-02T10:29:15.402Z</time></trkpt><trkpt lat="53.3950517" lon="-1.0741083"><ele>19.0</ele><time>2026-05-02T10:29:16.402Z</time></trkpt><trkpt lat="53.3952983" lon="-1.074365"><ele>17.5</ele><time>2026-05-02T10:29:17.402Z</time></trkpt><trkpt lat="53.3955433" lon="-1.074615"><ele>16.0</ele><time>2026-05-02T10:29:18.402Z</time></trkpt><trkpt lat="53.3957817" lon="-1.0748633"><ele>16.0</ele><time>2026-05-02T10:29:19.402Z</time></trkpt><trkpt lat="53.396015" lon="-1.0751"><ele>16.0</ele><time>2026-05-02T10:29:20.403Z</time></trkpt><trkpt lat="53.3962483" lon="-1.0753267"><ele>15.0</ele><time>2026-05-02T10:29:21.402Z</time></trkpt><trkpt lat="53.396485" lon="-1.0755517"><ele>14.0</ele><time>2026-05-02T10:29:22.402Z</time></trkpt><trkpt lat="53.396725" lon="-1.0757717"><ele>14.0</ele><time>2026-05-02T10:29:23.402Z</time></trkpt><trkpt lat="53.39696" lon="-1.07599"><ele>14.0</ele><time>2026-05-02T10:29:24.404Z</time></trkpt><trkpt lat="53.3971967" lon="-1.0761983"><ele>14.0</ele><time>2026-05-02T10:29:25.405Z</time></trkpt><trkpt lat="53.39744" lon="-1.07641"><ele>14.0</ele><time>2026-05-02T10:29:26.407Z</time></trkpt><trkpt lat="53.3976817" lon="-1.0766167"><ele>14.5</ele><time>2026-05-02T10:29:27.404Z</time></trkpt><trkpt lat="53.3979283" lon="-1.0768133"><ele>15.0</ele><time>2026-05-02T10:29:28.404Z</time></trkpt><trkpt lat="53.398175" lon="-1.07701"><ele>15.0</ele><time>2026-05-02T10:29:29.405Z</time></trkpt><trkpt lat="53.398425" lon="-1.07721"><ele>15.0</ele><time>2026-05-02T10:29:30.401Z</time></trkpt><trkpt lat="53.3986767" lon="-1.077405"><ele>14.5</ele><time>2026-05-02T10:29:31.405Z</time></trkpt><trkpt lat="53.3989333" lon="-1.077595"><ele>14.0</ele><time>2026-05-02T10:29:32.405Z</time></trkpt><trkpt lat="53.3991883" lon="-1.0777783"><ele>14.0</ele><time>2026-05-02T10:29:33.405Z</time></trkpt><trkpt lat="53.3994433" lon="-1.07796"><ele>14.0</ele><time>2026-05-02T10:29:34.401Z</time></trkpt><trkpt lat="53.3997017" lon="-1.0781383"><ele>14.5</ele><time>2026-05-02T10:29:35.405Z</time></trkpt><trkpt lat="53.39996" lon="-1.0783117"><ele>15.0</ele><time>2026-05-02T10:29:36.402Z</time></trkpt><trkpt lat="53.4002183" lon="-1.0784783"><ele>15.0</ele><time>2026-05-02T10:29:37.402Z</time></trkpt><trkpt lat="53.4004767" lon="-1.07864"><ele>15.0</ele><time>2026-05-02T10:29:38.403Z</time></trkpt><trkpt lat="53.4007333" lon="-1.0787967"><ele>15.0</ele><time>2026-05-02T10:29:39.405Z</time></trkpt><trkpt lat="53.4009917" lon="-1.0789517"><ele>15.0</ele><time>2026-05-02T10:29:40.407Z</time></trkpt><trkpt lat="53.40125" lon="-1.0791"><ele>15.5</ele><time>2026-05-02T10:29:41.403Z</time></trkpt><trkpt lat="53.4015067" lon="-1.079245"><ele>16.0</ele><time>2026-05-02T10:29:42.402Z</time></trkpt><trkpt lat="53.401755" lon="-1.0793883"><ele>16.0</ele><time>2026-05-02T10:29:43.403Z</time></trkpt><trkpt lat="53.4020017" lon="-1.0795283"><ele>16.0</ele><time>2026-05-02T10:29:44.407Z</time></trkpt><trkpt lat="53.4022467" lon="-1.079665"><ele>17.0</ele><time>2026-05-02T10:29:45.402Z</time></trkpt><trkpt lat="53.4024883" lon="-1.0797917"><ele>18.0</ele><time>2026-05-02T10:29:46.401Z</time></trkpt><trkpt lat="53.40273" lon="-1.079915"><ele>17.5</ele><time>2026-05-02T10:29:47.405Z</time></trkpt><trkpt lat="53.402975" lon="-1.08003"><ele>17.0</ele><time>2026-05-02T10:29:48.405Z</time></trkpt><trkpt lat="53.40322" lon="-1.080135"><ele>17.0</ele><time>2026-05-02T10:29:49.405Z</time></trkpt><trkpt lat="53.4034633" lon="-1.0802317"><ele>17.0</ele><time>2026-05-02T10:29:50.402Z</time></trkpt><trkpt lat="53.4036983" lon="-1.080325"><ele>18.0</ele><time>2026-05-02T10:29:51.404Z</time></trkpt><trkpt lat="53.4039317" lon="-1.08042"><ele>19.0</ele><time>2026-05-02T10:29:52.402Z</time></trkpt><trkpt lat="53.4041717" lon="-1.0805133"><ele>19.0</ele><time>2026-05-02T10:29:53.403Z</time></trkpt><trkpt lat="53.40442" lon="-1.080605"><ele>19.0</ele><time>2026-05-02T10:29:54.402Z</time></trkpt><trkpt lat="53.4046783" lon="-1.0806983"><ele>22.0</ele><time>2026-05-02T10:29:55.403Z</time></trkpt><trkpt lat="53.4049433" lon="-1.080795"><ele>25.0</ele><time>2026-05-02T10:29:56.402Z</time></trkpt><trkpt lat="53.4052117" lon="-1.0808967"><ele>25.0</ele><time>2026-05-02T10:29:57.401Z</time></trkpt><trkpt lat="53.4054833" lon="-1.08099"><ele>25.0</ele><time>2026-05-02T10:29:58.402Z</time></trkpt><trkpt lat="53.405755" lon="-1.081075"><ele>26.5</ele><time>2026-05-02T10:29:59.403Z</time></trkpt><trkpt lat="53.406025" lon="-1.0811517"><ele>28.0</ele><time>2026-05-02T10:30:00.402Z</time></trkpt><trkpt lat="53.4062883" lon="-1.081225"><ele>28.5</ele><time>2026-05-02T10:30:01.403Z</time></trkpt><trkpt lat="53.4065467" lon="-1.0812933"><ele>29.0</ele><time>2026-05-02T10:30:02.402Z</time></trkpt><trkpt lat="53.4068033" lon="-1.081355"><ele>29.0</ele><time>2026-05-02T10:30:03.402Z</time></trkpt><trkpt lat="53.407055" lon="-1.081415"><ele>29.0</ele><time>2026-05-02T10:30:04.402Z</time></trkpt><trkpt lat="53.4073017" lon="-1.0814767"><ele>29.0</ele><time>2026-05-02T10:30:05.402Z</time></trkpt><trkpt lat="53.40755" lon="-1.0815383"><ele>29.0</ele><time>2026-05-02T10:30:06.403Z</time></trkpt><trkpt lat="53.4077983" lon="-1.0816"><ele>28.5</ele><time>2026-05-02T10:30:07.403Z</time></trkpt><trkpt lat="53.4080467" lon="-1.0816617"><ele>28.0</ele><time>2026-05-02T10:30:08.402Z</time></trkpt><trkpt lat="53.4082967" lon="-1.081725"><ele>28.0</ele><time>2026-05-02T10:30:09.402Z</time></trkpt><trkpt lat="53.4085433" lon="-1.0817917"><ele>28.0</ele><time>2026-05-02T10:30:10.402Z</time></trkpt><trkpt lat="53.4087933" lon="-1.0818583"><ele>27.5</ele><time>2026-05-02T10:30:11.405Z</time></trkpt><trkpt lat="53.4090433" lon="-1.0819267"><ele>27.0</ele><time>2026-05-02T10:30:12.401Z</time></trkpt><trkpt lat="53.4092883" lon="-1.0819983"><ele>27.0</ele><time>2026-05-02T10:30:13.401Z</time></trkpt><trkpt lat="53.4095317" lon="-1.08208"><ele>27.0</ele><time>2026-05-02T10:30:14.402Z</time></trkpt><trkpt lat="53.409775" lon="-1.0821667"><ele>26.5</ele><time>2026-05-02T10:30:15.404Z</time></trkpt><trkpt lat="53.4100217" lon="-1.082255"><ele>26.0</ele><time>2026-05-02T10:30:16.411Z</time></trkpt><trkpt lat="53.4102667" lon="-1.0823417"><ele>24.5</ele><time>2026-05-02T10:30:17.405Z</time></trkpt><trkpt lat="53.41051" lon="-1.082435"><ele>23.0</ele><time>2026-05-02T10:30:18.407Z</time></trkpt><trkpt lat="53.4186517" lon="-1.0878983"><ele>15.0</ele><time>2026-05-02T10:30:52.401Z</time></trkpt><trkpt lat="53.4201233" lon="-1.08944"><ele>15.0</ele><time>2026-05-02T10:30:58.903Z</time></trkpt><trkpt lat="53.4204567" lon="-1.08978"><ele>15.0</ele><time>2026-05-02T10:31:00.402Z</time></trkpt><trkpt lat="53.4206633" lon="-1.089995"><ele>14.0</ele><time>2026-05-02T10:31:01.402Z</time></trkpt><trkpt lat="53.420865" lon="-1.0902183"><ele>13.0</ele><time>2026-05-02T10:31:02.402Z</time></trkpt><trkpt lat="53.42109" lon="-1.0904433"><ele>13.0</ele><time>2026-05-02T10:31:03.402Z</time></trkpt><trkpt lat="53.421315" lon="-1.090665"><ele>13.0</ele><time>2026-05-02T10:31:04.402Z</time></trkpt><trkpt lat="53.4215517" lon="-1.0908817"><ele>12.5</ele><time>2026-05-02T10:31:05.403Z</time></trkpt><trkpt lat="53.42179" lon="-1.09109"><ele>12.0</ele><time>2026-05-02T10:31:06.402Z</time></trkpt><trkpt lat="53.4220317" lon="-1.0912933"><ele>12.0</ele><time>2026-05-02T10:31:07.409Z</time></trkpt><trkpt lat="53.4222733" lon="-1.091485"><ele>12.0</ele><time>2026-05-02T10:31:08.404Z</time></trkpt><trkpt lat="53.4225183" lon="-1.0916733"><ele>12.5</ele><time>2026-05-02T10:31:09.403Z</time></trkpt><trkpt lat="53.4227617" lon="-1.0918533"><ele>13.0</ele><time>2026-05-02T10:31:10.402Z</time></trkpt><trkpt lat="53.4230083" lon="-1.0920283"><ele>12.0</ele><time>2026-05-02T10:31:11.402Z</time></trkpt><trkpt lat="53.4232567" lon="-1.0921917"><ele>11.0</ele><time>2026-05-02T10:31:12.403Z</time></trkpt><trkpt lat="53.4235083" lon="-1.092345"><ele>11.0</ele><time>2026-05-02T10:31:13.404Z</time></trkpt><trkpt lat="53.4237617" lon="-1.09249"><ele>11.0</ele><time>2026-05-02T10:31:14.402Z</time></trkpt><trkpt lat="53.4240167" lon="-1.09263"><ele>11.0</ele><time>2026-05-02T10:31:15.403Z</time></trkpt><trkpt lat="53.4242717" lon="-1.092765"><ele>11.0</ele><time>2026-05-02T10:31:16.402Z</time></trkpt><trkpt lat="53.4245267" lon="-1.0928917"><ele>11.0</ele><time>2026-05-02T10:31:17.404Z</time></trkpt><trkpt lat="53.4247833" lon="-1.0930133"><ele>11.0</ele><time>2026-05-02T10:31:18.402Z</time></trkpt><trkpt lat="53.42504" lon="-1.0931267"><ele>11.0</ele><time>2026-05-02T10:31:19.402Z</time></trkpt><trkpt lat="53.4252967" lon="-1.0932317"><ele>11.0</ele><time>2026-05-02T10:31:20.406Z</time></trkpt><trkpt lat="53.4255533" lon="-1.0933267"><ele>11.0</ele><time>2026-05-02T10:31:21.403Z</time></trkpt><trkpt lat="53.4258083" lon="-1.0934167"><ele>11.0</ele><time>2026-05-02T10:31:22.402Z</time></trkpt><trkpt lat="53.4260667" lon="-1.0935033"><ele>11.0</ele><time>2026-05-02T10:31:23.403Z</time></trkpt><trkpt lat="53.426325" lon="-1.093585"><ele>11.0</ele><time>2026-05-02T10:31:24.402Z</time></trkpt><trkpt lat="53.4265867" lon="-1.0936567"><ele>11.0</ele><time>2026-05-02T10:31:25.402Z</time></trkpt><trkpt lat="53.4268517" lon="-1.0937217"><ele>11.0</ele><time>2026-05-02T10:31:26.403Z</time></trkpt><trkpt lat="53.427115" lon="-1.0937867"><ele>11.0</ele><time>2026-05-02T10:31:27.404Z</time></trkpt><trkpt lat="53.4273833" lon="-1.0938533"><ele>11.0</ele><time>2026-05-02T10:31:28.403Z</time></trkpt><trkpt lat="53.4276517" lon="-1.0939217"><ele>11.0</ele><time>2026-05-02T10:31:29.404Z</time></trkpt><trkpt lat="53.4279233" lon="-1.0939883"><ele>11.0</ele><time>2026-05-02T10:31:30.403Z</time></trkpt><trkpt lat="53.4281983" lon="-1.0940567"><ele>11.0</ele><time>2026-05-02T10:31:31.402Z</time></trkpt><trkpt lat="53.428475" lon="-1.094125"><ele>11.0</ele><time>2026-05-02T10:31:32.402Z</time></trkpt><trkpt lat="53.428755" lon="-1.0941933"><ele>11.0</ele><time>2026-05-02T10:31:33.402Z</time></trkpt><trkpt lat="53.429035" lon="-1.0942633"><ele>11.0</ele><time>2026-05-02T10:31:34.402Z</time></trkpt><trkpt lat="53.4293133" lon="-1.0943317"><ele>11.0</ele><time>2026-05-02T10:31:35.402Z</time></trkpt><trkpt lat="53.4295767" lon="-1.0943983"><ele>11.0</ele><time>2026-05-02T10:31:36.404Z</time></trkpt><trkpt lat="53.4298283" lon="-1.0944617"><ele>11.5</ele><time>2026-05-02T10:31:37.402Z</time></trkpt><trkpt lat="53.4300717" lon="-1.0945183"><ele>12.0</ele><time>2026-05-02T10:31:38.402Z</time></trkpt><trkpt lat="53.4302983" lon="-1.0945733"><ele>13.5</ele><time>2026-05-02T10:31:39.402Z</time></trkpt><trkpt lat="53.4305233" lon="-1.09463"><ele>15.0</ele><time>2026-05-02T10:31:40.402Z</time></trkpt><trkpt lat="53.4307467" lon="-1.09469"><ele>15.0</ele><time>2026-05-02T10:31:41.403Z</time></trkpt><trkpt lat="53.4309733" lon="-1.0947533"><ele>15.0</ele><time>2026-05-02T10:31:42.402Z</time></trkpt><trkpt lat="53.4312017" lon="-1.0948183"><ele>14.0</ele><time>2026-05-02T10:31:43.403Z</time></trkpt><trkpt lat="53.4314367" lon="-1.0948833"><ele>13.0</ele><time>2026-05-02T10:31:44.402Z</time></trkpt><trkpt lat="53.431675" lon="-1.0949533"><ele>13.0</ele><time>2026-05-02T10:31:45.403Z</time></trkpt><trkpt lat="53.4319133" lon="-1.095045"><ele>13.0</ele><time>2026-05-02T10:31:46.402Z</time></trkpt><trkpt lat="53.4321533" lon="-1.09516"><ele>14.5</ele><time>2026-05-02T10:31:47.407Z</time></trkpt><trkpt lat="53.4323967" lon="-1.0952883"><ele>16.0</ele><time>2026-05-02T10:31:48.402Z</time></trkpt><trkpt lat="53.43264" lon="-1.09543"><ele>16.0</ele><time>2026-05-02T10:31:49.402Z</time></trkpt><trkpt lat="53.4328883" lon="-1.0955817"><ele>16.0</ele><time>2026-05-02T10:31:50.402Z</time></trkpt><trkpt lat="53.433135" lon="-1.0957467"><ele>16.0</ele><time>2026-05-02T10:31:51.403Z</time></trkpt><trkpt lat="53.43338" lon="-1.0959317"><ele>16.0</ele><time>2026-05-02T10:31:52.403Z</time></trkpt><trkpt lat="53.4336183" lon="-1.0961417"><ele>14.5</ele><time>2026-05-02T10:31:53.401Z</time></trkpt><trkpt lat="53.433855" lon="-1.09636"><ele>13.0</ele><time>2026-05-02T10:31:54.404Z</time></trkpt><trkpt lat="53.4340883" lon="-1.0965833"><ele>14.5</ele><time>2026-05-02T10:31:55.406Z</time></trkpt><trkpt lat="53.4343183" lon="-1.0968183"><ele>16.0</ele><time>2026-05-02T10:31:56.402Z</time></trkpt><trkpt lat="53.4345467" lon="-1.0970633"><ele>16.0</ele><time>2026-05-02T10:31:57.402Z</time></trkpt><trkpt lat="53.43477" lon="-1.0973133"><ele>16.0</ele><time>2026-05-02T10:31:58.403Z</time></trkpt><trkpt lat="53.434995" lon="-1.0975633"><ele>16.0</ele><time>2026-05-02T10:31:59.402Z</time></trkpt><trkpt lat="53.4352167" lon="-1.0978133"><ele>16.0</ele><time>2026-05-02T10:32:00.403Z</time></trkpt><trkpt lat="53.4354383" lon="-1.0980617"><ele>15.0</ele><time>2026-05-02T10:32:01.404Z</time></trkpt><trkpt lat="53.4356617" lon="-1.09831"><ele>14.0</ele><time>2026-05-02T10:32:02.403Z</time></trkpt><trkpt lat="53.4358833" lon="-1.0985583"><ele>14.0</ele><time>2026-05-02T10:32:03.404Z</time></trkpt><trkpt lat="53.4361067" lon="-1.0988017"><ele>14.0</ele><time>2026-05-02T10:32:04.405Z</time></trkpt><trkpt lat="53.4363333" lon="-1.0990433"><ele>14.5</ele><time>2026-05-02T10:32:05.406Z</time></trkpt><trkpt lat="53.4365567" lon="-1.0992817"><ele>15.0</ele><time>2026-05-02T10:32:06.403Z</time></trkpt><trkpt lat="53.4367833" lon="-1.0995167"><ele>15.0</ele><time>2026-05-02T10:32:07.406Z</time></trkpt><trkpt lat="53.4370133" lon="-1.0997417"><ele>15.0</ele><time>2026-05-02T10:32:08.402Z</time></trkpt><trkpt lat="53.4372467" lon="-1.09996"><ele>15.5</ele><time>2026-05-02T10:32:09.404Z</time></trkpt><trkpt lat="53.43748" lon="-1.1001733"><ele>16.0</ele><time>2026-05-02T10:32:10.402Z</time></trkpt><trkpt lat="53.4377133" lon="-1.1003817"><ele>16.0</ele><time>2026-05-02T10:32:11.402Z</time></trkpt><trkpt lat="53.4379467" lon="-1.10058"><ele>16.0</ele><time>2026-05-02T10:32:12.403Z</time></trkpt><trkpt lat="53.438185" lon="-1.10077"><ele>16.5</ele><time>2026-05-02T10:32:13.403Z</time></trkpt><trkpt lat="53.43843" lon="-1.10095"><ele>17.0</ele><time>2026-05-02T10:32:14.402Z</time></trkpt><trkpt lat="53.4386783" lon="-1.10112"><ele>16.0</ele><time>2026-05-02T10:32:15.405Z</time></trkpt><trkpt lat="53.438925" lon="-1.1012817"><ele>15.0</ele><time>2026-05-02T10:32:16.405Z</time></trkpt><trkpt lat="53.4391733" lon="-1.1014433"><ele>15.5</ele><time>2026-05-02T10:32:17.402Z</time></trkpt><trkpt lat="53.439425" lon="-1.1016017"><ele>16.0</ele><time>2026-05-02T10:32:18.402Z</time></trkpt><trkpt lat="53.4396767" lon="-1.101755"><ele>16.0</ele><time>2026-05-02T10:32:19.402Z</time></trkpt><trkpt lat="53.4399233" lon="-1.1019083"><ele>16.0</ele><time>2026-05-02T10:32:20.405Z</time></trkpt><trkpt lat="53.4401683" lon="-1.1020667"><ele>16.0</ele><time>2026-05-02T10:32:21.402Z</time></trkpt><trkpt lat="53.440415" lon="-1.1022267"><ele>16.0</ele><time>2026-05-02T10:32:22.406Z</time></trkpt><trkpt lat="53.4406617" lon="-1.1023867"><ele>16.0</ele><time>2026-05-02T10:32:23.403Z</time></trkpt><trkpt lat="53.4409083" lon="-1.102545"><ele>16.0</ele><time>2026-05-02T10:32:24.402Z</time></trkpt><trkpt lat="53.4411583" lon="-1.1027083"><ele>16.0</ele><time>2026-05-02T10:32:25.402Z</time></trkpt><trkpt lat="53.4414067" lon="-1.102875"><ele>16.0</ele><time>2026-05-02T10:32:26.402Z</time></trkpt><trkpt lat="53.4416533" lon="-1.1030467"><ele>16.0</ele><time>2026-05-02T10:32:27.403Z</time></trkpt><trkpt lat="53.4418967" lon="-1.103225"><ele>16.0</ele><time>2026-05-02T10:32:28.401Z</time></trkpt><trkpt lat="53.4421367" lon="-1.1034117"><ele>16.5</ele><time>2026-05-02T10:32:29.403Z</time></trkpt><trkpt lat="53.442375" lon="-1.103605"><ele>17.0</ele><time>2026-05-02T10:32:30.411Z</time></trkpt><trkpt lat="53.442615" lon="-1.1038067"><ele>17.0</ele><time>2026-05-02T10:32:31.404Z</time></trkpt><trkpt lat="53.4428483" lon="-1.1040167"><ele>17.0</ele><time>2026-05-02T10:32:32.406Z</time></trkpt><trkpt lat="53.4430817" lon="-1.1042267"><ele>16.5</ele><time>2026-05-02T10:32:33.402Z</time></trkpt><trkpt lat="53.443315" lon="-1.1044417"><ele>16.0</ele><time>2026-05-02T10:32:34.403Z</time></trkpt><trkpt lat="53.44355" lon="-1.104665"><ele>16.0</ele><time>2026-05-02T10:32:35.403Z</time></trkpt><trkpt lat="53.44378" lon="-1.1048933"><ele>16.0</ele><time>2026-05-02T10:32:36.402Z</time></trkpt><trkpt lat="53.4440067" lon="-1.1051267"><ele>16.5</ele><time>2026-05-02T10:32:37.404Z</time></trkpt><trkpt lat="53.4442367" lon="-1.1053567"><ele>17.0</ele><time>2026-05-02T10:32:38.406Z</time></trkpt><trkpt lat="53.4444683" lon="-1.1055867"><ele>15.5</ele><time>2026-05-02T10:32:39.402Z</time></trkpt><trkpt lat="53.4447033" lon="-1.1058133"><ele>14.0</ele><time>2026-05-02T10:32:40.406Z</time></trkpt><trkpt lat="53.4449383" lon="-1.1060367"><ele>14.0</ele><time>2026-05-02T10:32:41.402Z</time></trkpt><trkpt lat="53.4451683" lon="-1.1062617"><ele>14.0</ele><time>2026-05-02T10:32:42.405Z</time></trkpt><trkpt lat="53.4454017" lon="-1.1064833"><ele>13.0</ele><time>2026-05-02T10:32:43.405Z</time></trkpt><trkpt lat="53.4456333" lon="-1.106705"><ele>12.0</ele><time>2026-05-02T10:32:44.406Z</time></trkpt><trkpt lat="53.4458667" lon="-1.1069267"><ele>12.0</ele><time>2026-05-02T10:32:45.406Z</time></trkpt><trkpt lat="53.4460983" lon="-1.1071483"><ele>12.0</ele><time>2026-05-02T10:32:46.407Z</time></trkpt><trkpt lat="53.44633" lon="-1.1073733"><ele>11.0</ele><time>2026-05-02T10:32:47.406Z</time></trkpt><trkpt lat="53.44656" lon="-1.1075983"><ele>10.0</ele><time>2026-05-02T10:32:48.408Z</time></trkpt><trkpt lat="53.44679" lon="-1.10782"><ele>10.0</ele><time>2026-05-02T10:32:49.406Z</time></trkpt><trkpt lat="53.4470183" lon="-1.108045"><ele>10.0</ele><time>2026-05-02T10:32:50.407Z</time></trkpt><trkpt lat="53.4472467" lon="-1.1082683"><ele>11.5</ele><time>2026-05-02T10:32:51.405Z</time></trkpt><trkpt lat="53.4474767" lon="-1.1084917"><ele>13.0</ele><time>2026-05-02T10:32:52.405Z</time></trkpt><trkpt lat="53.447705" lon="-1.108715"><ele>13.0</ele><time>2026-05-02T10:32:53.405Z</time></trkpt><trkpt lat="53.4479333" lon="-1.10894"><ele>13.0</ele><time>2026-05-02T10:32:54.407Z</time></trkpt><trkpt lat="53.4481633" lon="-1.1091617"><ele>15.0</ele><time>2026-05-02T10:32:55.41Z</time></trkpt><trkpt lat="53.4483933" lon="-1.1093867"><ele>17.0</ele><time>2026-05-02T10:32:56.403Z</time></trkpt><trkpt lat="53.4486233" lon="-1.1096183"><ele>17.5</ele><time>2026-05-02T10:32:57.407Z</time></trkpt><trkpt lat="53.4488517" lon="-1.1098517"><ele>18.0</ele><time>2026-05-02T10:32:58.405Z</time></trkpt><trkpt lat="53.4490833" lon="-1.1100817"><ele>18.5</ele><time>2026-05-02T10:32:59.405Z</time></trkpt><trkpt lat="53.44931" lon="-1.110305"><ele>19.0</ele><time>2026-05-02T10:33:00.406Z</time></trkpt><trkpt lat="53.4495383" lon="-1.1105267"><ele>20.0</ele><time>2026-05-02T10:33:01.406Z</time></trkpt><trkpt lat="53.4497633" lon="-1.1107483"><ele>21.0</ele><time>2026-05-02T10:33:02.407Z</time></trkpt><trkpt lat="53.4499933" lon="-1.1109683"><ele>21.0</ele><time>2026-05-02T10:33:03.401Z</time></trkpt><trkpt lat="53.4502233" lon="-1.1111883"><ele>21.0</ele><time>2026-05-02T10:33:04.403Z</time></trkpt><trkpt lat="53.4504517" lon="-1.1114133"><ele>20.5</ele><time>2026-05-02T10:33:05.403Z</time></trkpt><trkpt lat="53.4506817" lon="-1.1116417"><ele>20.0</ele><time>2026-05-02T10:33:06.408Z</time></trkpt><trkpt lat="53.45091" lon="-1.111875"><ele>20.0</ele><time>2026-05-02T10:33:07.411Z</time></trkpt><trkpt lat="53.4511333" lon="-1.1121117"><ele>20.0</ele><time>2026-05-02T10:33:08.404Z</time></trkpt><trkpt lat="53.4513583" lon="-1.11235"><ele>19.5</ele><time>2026-05-02T10:33:09.405Z</time></trkpt><trkpt lat="53.45158" lon="-1.112595"><ele>19.0</ele><time>2026-05-02T10:33:10.405Z</time></trkpt><trkpt lat="53.4517983" lon="-1.112845"><ele>19.0</ele><time>2026-05-02T10:33:11.406Z</time></trkpt><trkpt lat="53.4520183" lon="-1.1131"><ele>19.0</ele><time>2026-05-02T10:33:12.409Z</time></trkpt><trkpt lat="53.452235" lon="-1.1133567"><ele>18.5</ele><time>2026-05-02T10:33:13.41Z</time></trkpt><trkpt lat="53.45245" lon="-1.11362"><ele>18.0</ele><time>2026-05-02T10:33:14.406Z</time></trkpt><trkpt lat="53.4526617" lon="-1.1138833"><ele>18.0</ele><time>2026-05-02T10:33:15.405Z</time></trkpt><trkpt lat="53.45287" lon="-1.1141533"><ele>18.0</ele><time>2026-05-02T10:33:16.402Z</time></trkpt><trkpt lat="53.4530783" lon="-1.1144283"><ele>18.0</ele><time>2026-05-02T10:33:17.403Z</time></trkpt><trkpt lat="53.4532833" lon="-1.11471"><ele>18.0</ele><time>2026-05-02T10:33:18.405Z</time></trkpt><trkpt lat="53.453485" lon="-1.1149967"><ele>18.5</ele><time>2026-05-02T10:33:19.404Z</time></trkpt><trkpt lat="53.45369" lon="-1.1152833"><ele>19.0</ele><time>2026-05-02T10:33:20.406Z</time></trkpt><trkpt lat="53.4538917" lon="-1.1155733"><ele>19.5</ele><time>2026-05-02T10:33:21.407Z</time></trkpt><trkpt lat="53.45409" lon="-1.1158733"><ele>20.0</ele><time>2026-05-02T10:33:22.406Z</time></trkpt><trkpt lat="53.454285" lon="-1.1161783"><ele>20.0</ele><time>2026-05-02T10:33:23.408Z</time></trkpt><trkpt lat="53.45448" lon="-1.116485"><ele>20.0</ele><time>2026-05-02T10:33:24.406Z</time></trkpt><trkpt lat="53.4546717" lon="-1.1167917"><ele>20.0</ele><time>2026-05-02T10:33:25.406Z</time></trkpt><trkpt lat="53.4548617" lon="-1.1171033"><ele>20.0</ele><time>2026-05-02T10:33:26.407Z</time></trkpt><trkpt lat="53.4550517" lon="-1.1174267"><ele>20.0</ele><time>2026-05-02T10:33:27.407Z</time></trkpt><trkpt lat="53.4552383" lon="-1.1177583"><ele>20.0</ele><time>2026-05-02T10:33:28.403Z</time></trkpt><trkpt lat="53.4554233" lon="-1.1180983"><ele>21.5</ele><time>2026-05-02T10:33:29.403Z</time></trkpt><trkpt lat="53.45561" lon="-1.1184483"><ele>23.0</ele><time>2026-05-02T10:33:30.402Z</time></trkpt><trkpt lat="53.455795" lon="-1.1188067"><ele>23.0</ele><time>2026-05-02T10:33:31.403Z</time></trkpt><trkpt lat="53.4559783" lon="-1.1191733"><ele>23.0</ele><time>2026-05-02T10:33:32.402Z</time></trkpt><trkpt lat="53.456155" lon="-1.119545"><ele>22.5</ele><time>2026-05-02T10:33:33.403Z</time></trkpt><trkpt lat="53.4563317" lon="-1.1199233"><ele>22.0</ele><time>2026-05-02T10:33:34.403Z</time></trkpt><trkpt lat="53.4565067" lon="-1.1203"><ele>22.0</ele><time>2026-05-02T10:33:35.402Z</time></trkpt><trkpt lat="53.4566817" lon="-1.12067"><ele>22.0</ele><time>2026-05-02T10:33:36.402Z</time></trkpt><trkpt lat="53.4568567" lon="-1.1210333"><ele>22.5</ele><time>2026-05-02T10:33:37.403Z</time></trkpt><trkpt lat="53.457035" lon="-1.1213883"><ele>23.0</ele><time>2026-05-02T10:33:38.406Z</time></trkpt><trkpt lat="53.45722" lon="-1.121735"><ele>23.5</ele><time>2026-05-02T10:33:39.406Z</time></trkpt><trkpt lat="53.457405" lon="-1.1220717"><ele>24.0</ele><time>2026-05-02T10:33:40.406Z</time></trkpt><trkpt lat="53.4575883" lon="-1.12239"><ele>25.0</ele><time>2026-05-02T10:33:41.405Z</time></trkpt><trkpt lat="53.457765" lon="-1.1226983"><ele>26.0</ele><time>2026-05-02T10:33:42.405Z</time></trkpt><trkpt lat="53.45795" lon="-1.1230083"><ele>27.5</ele><time>2026-05-02T10:33:43.405Z</time></trkpt><trkpt lat="53.4581383" lon="-1.123315"><ele>29.0</ele><time>2026-05-02T10:33:44.405Z</time></trkpt><trkpt lat="53.4583167" lon="-1.1236133"><ele>29.0</ele><time>2026-05-02T10:33:45.406Z</time></trkpt><trkpt lat="53.4584917" lon="-1.123895"><ele>29.0</ele><time>2026-05-02T10:33:46.405Z</time></trkpt><trkpt lat="53.4586733" lon="-1.124175"><ele>29.5</ele><time>2026-05-02T10:33:47.404Z</time></trkpt><trkpt lat="53.4588633" lon="-1.1244533"><ele>30.0</ele><time>2026-05-02T10:33:48.402Z</time></trkpt><trkpt lat="53.4590583" lon="-1.1247317"><ele>31.5</ele><time>2026-05-02T10:33:49.405Z</time></trkpt><trkpt lat="53.45926" lon="-1.1250067"><ele>33.0</ele><time>2026-05-02T10:33:50.406Z</time></trkpt><trkpt lat="53.45946" lon="-1.1252783"><ele>33.0</ele><time>2026-05-02T10:33:51.406Z</time></trkpt><trkpt lat="53.4596633" lon="-1.1255517"><ele>33.0</ele><time>2026-05-02T10:33:52.405Z</time></trkpt><trkpt lat="53.459875" lon="-1.125825"><ele>33.5</ele><time>2026-05-02T10:33:53.405Z</time></trkpt><trkpt lat="53.460095" lon="-1.126095"><ele>34.0</ele><time>2026-05-02T10:33:54.405Z</time></trkpt><trkpt lat="53.4603167" lon="-1.126365"><ele>34.5</ele><time>2026-05-02T10:33:55.405Z</time></trkpt><trkpt lat="53.46054" lon="-1.1266317"><ele>35.0</ele><time>2026-05-02T10:33:56.403Z</time></trkpt><trkpt lat="53.4607683" lon="-1.1268967"><ele>35.0</ele><time>2026-05-02T10:33:57.403Z</time></trkpt><trkpt lat="53.4610033" lon="-1.1271633"><ele>35.0</ele><time>2026-05-02T10:33:58.406Z</time></trkpt><trkpt lat="53.46124" lon="-1.1274283"><ele>35.5</ele><time>2026-05-02T10:33:59.402Z</time></trkpt><trkpt lat="53.4614817" lon="-1.1276883"><ele>36.0</ele><time>2026-05-02T10:34:00.405Z</time></trkpt><trkpt lat="53.461735" lon="-1.127945"><ele>36.0</ele><time>2026-05-02T10:34:01.405Z</time></trkpt><trkpt lat="53.4619967" lon="-1.128205"><ele>36.0</ele><time>2026-05-02T10:34:02.402Z</time></trkpt><trkpt lat="53.4622617" lon="-1.12846"><ele>36.0</ele><time>2026-05-02T10:34:03.402Z</time></trkpt><trkpt lat="53.4625267" lon="-1.12871"><ele>36.0</ele><time>2026-05-02T10:34:04.403Z</time></trkpt><trkpt lat="53.4627917" lon="-1.1289633"><ele>36.0</ele><time>2026-05-02T10:34:05.403Z</time></trkpt><trkpt lat="53.463055" lon="-1.129215"><ele>36.0</ele><time>2026-05-02T10:34:06.402Z</time></trkpt><trkpt lat="53.4633167" lon="-1.1294617"><ele>36.0</ele><time>2026-05-02T10:34:07.403Z</time></trkpt><trkpt lat="53.463575" lon="-1.1297117"><ele>36.0</ele><time>2026-05-02T10:34:08.403Z</time></trkpt><trkpt lat="53.4638333" lon="-1.1299667"><ele>36.5</ele><time>2026-05-02T10:34:09.403Z</time></trkpt><trkpt lat="53.4640833" lon="-1.1302233"><ele>37.0</ele><time>2026-05-02T10:34:10.402Z</time></trkpt><trkpt lat="53.4643317" lon="-1.1304817"><ele>37.0</ele><time>2026-05-02T10:34:11.403Z</time></trkpt><trkpt lat="53.4645817" lon="-1.1307433"><ele>37.0</ele><time>2026-05-02T10:34:12.407Z</time></trkpt><trkpt lat="53.4648333" lon="-1.1310067"><ele>36.0</ele><time>2026-05-02T10:34:13.405Z</time></trkpt><trkpt lat="53.4650833" lon="-1.1312767"><ele>35.0</ele><time>2026-05-02T10:34:14.404Z</time></trkpt><trkpt lat="53.4653317" lon="-1.1315533"><ele>34.5</ele><time>2026-05-02T10:34:15.407Z</time></trkpt><trkpt lat="53.4655733" lon="-1.131835"><ele>34.0</ele><time>2026-05-02T10:34:16.406Z</time></trkpt><trkpt lat="53.4658117" lon="-1.13212"><ele>34.5</ele><time>2026-05-02T10:34:17.408Z</time></trkpt><trkpt lat="53.46605" lon="-1.1324033"><ele>35.0</ele><time>2026-05-02T10:34:18.402Z</time></trkpt><trkpt lat="53.4662867" lon="-1.1326883"><ele>35.5</ele><time>2026-05-02T10:34:19.402Z</time></trkpt><trkpt lat="53.4665217" lon="-1.132975"><ele>36.0</ele><time>2026-05-02T10:34:20.403Z</time></trkpt><trkpt lat="53.4667533" lon="-1.1332633"><ele>36.0</ele><time>2026-05-02T10:34:21.402Z</time></trkpt><trkpt lat="53.4669883" lon="-1.1335567"><ele>36.0</ele><time>2026-05-02T10:34:22.403Z</time></trkpt><trkpt lat="53.4672217" lon="-1.1338583"><ele>36.0</ele><time>2026-05-02T10:34:23.403Z</time></trkpt><trkpt lat="53.467455" lon="-1.1341667"><ele>36.0</ele><time>2026-05-02T10:34:24.402Z</time></trkpt><trkpt lat="53.467685" lon="-1.1344817"><ele>36.0</ele><time>2026-05-02T10:34:25.403Z</time></trkpt><trkpt lat="53.46791" lon="-1.1347983"><ele>36.0</ele><time>2026-05-02T10:34:26.405Z</time></trkpt><trkpt lat="53.468125" lon="-1.1351167"><ele>36.0</ele><time>2026-05-02T10:34:27.406Z</time></trkpt><trkpt lat="53.468335" lon="-1.1354317"><ele>36.0</ele><time>2026-05-02T10:34:28.403Z</time></trkpt><trkpt lat="53.4685467" lon="-1.1357467"><ele>36.0</ele><time>2026-05-02T10:34:29.402Z</time></trkpt><trkpt lat="53.46876" lon="-1.13606"><ele>36.0</ele><time>2026-05-02T10:34:30.403Z</time></trkpt><trkpt lat="53.4689667" lon="-1.1363767"><ele>33.5</ele><time>2026-05-02T10:34:31.402Z</time></trkpt><trkpt lat="53.4691733" lon="-1.1366983"><ele>31.0</ele><time>2026-05-02T10:34:32.403Z</time></trkpt><trkpt lat="53.4693817" lon="-1.1370233"><ele>31.0</ele><time>2026-05-02T10:34:33.402Z</time></trkpt><trkpt lat="53.46959" lon="-1.1373517"><ele>31.0</ele><time>2026-05-02T10:34:34.402Z</time></trkpt><trkpt lat="53.4698" lon="-1.13768"><ele>29.0</ele><time>2026-05-02T10:34:35.405Z</time></trkpt><trkpt lat="53.4700133" lon="-1.1380067"><ele>27.0</ele><time>2026-05-02T10:34:36.402Z</time></trkpt><trkpt lat="53.470225" lon="-1.13833"><ele>27.0</ele><time>2026-05-02T10:34:37.402Z</time></trkpt><trkpt lat="53.47044" lon="-1.1386483"><ele>27.0</ele><time>2026-05-02T10:34:38.406Z</time></trkpt><trkpt lat="53.4706633" lon="-1.138965"><ele>27.0</ele><time>2026-05-02T10:34:39.402Z</time></trkpt><trkpt lat="53.4708867" lon="-1.139275"><ele>27.0</ele><time>2026-05-02T10:34:40.402Z</time></trkpt><trkpt lat="53.4711083" lon="-1.1395833"><ele>25.5</ele><time>2026-05-02T10:34:41.404Z</time></trkpt><trkpt lat="53.4713333" lon="-1.1398867"><ele>24.0</ele><time>2026-05-02T10:34:42.403Z</time></trkpt><trkpt lat="53.471555" lon="-1.1401883"><ele>24.0</ele><time>2026-05-02T10:34:43.403Z</time></trkpt><trkpt lat="53.4717783" lon="-1.140485"><ele>24.0</ele><time>2026-05-02T10:34:44.403Z</time></trkpt><trkpt lat="53.472005" lon="-1.1407817"><ele>24.0</ele><time>2026-05-02T10:34:45.406Z</time></trkpt><trkpt lat="53.4722367" lon="-1.141075"><ele>24.0</ele><time>2026-05-02T10:34:46.402Z</time></trkpt><trkpt lat="53.47247" lon="-1.1413633"><ele>25.5</ele><time>2026-05-02T10:34:47.402Z</time></trkpt><trkpt lat="53.4727033" lon="-1.14165"><ele>27.0</ele><time>2026-05-02T10:34:48.403Z</time></trkpt><trkpt lat="53.4729333" lon="-1.14193"><ele>26.5</ele><time>2026-05-02T10:34:49.402Z</time></trkpt><trkpt lat="53.4731658" lon="-1.1422131"><ele>26.0</ele><time>2026-05-02T10:34:50.404Z</time></trkpt><trkpt lat="53.4733987" lon="-1.1424927"><ele>26.0</ele><time>2026-05-02T10:34:51.402Z</time></trkpt><trkpt lat="53.4736322" lon="-1.1427668"><ele>26.0</ele><time>2026-05-02T10:34:52.402Z</time></trkpt><trkpt lat="53.4738667" lon="-1.1430352"><ele>24.5</ele><time>2026-05-02T10:34:53.402Z</time></trkpt><trkpt lat="53.474104" lon="-1.1432981"><ele>23.0</ele><time>2026-05-02T10:34:54.403Z</time></trkpt><trkpt lat="53.4743428" lon="-1.1435564"><ele>23.0</ele><time>2026-05-02T10:34:55.407Z</time></trkpt><trkpt lat="53.4745824" lon="-1.1438101"><ele>23.0</ele><time>2026-05-02T10:34:56.402Z</time></trkpt><trkpt lat="53.4748218" lon="-1.1440608"><ele>22.0</ele><time>2026-05-02T10:34:57.403Z</time></trkpt><trkpt lat="53.475066" lon="-1.1443021"><ele>21.0</ele><time>2026-05-02T10:34:58.403Z</time></trkpt><trkpt lat="53.4753066" lon="-1.1445359"><ele>20.0</ele><time>2026-05-02T10:34:59.403Z</time></trkpt><trkpt lat="53.4755468" lon="-1.1447674"><ele>19.0</ele><time>2026-05-02T10:35:00.403Z</time></trkpt><trkpt lat="53.475788" lon="-1.1449952"><ele>19.0</ele><time>2026-05-02T10:35:01.407Z</time></trkpt><trkpt lat="53.4760278" lon="-1.1452215"><ele>19.0</ele><time>2026-05-02T10:35:02.403Z</time></trkpt><trkpt lat="53.4762667" lon="-1.1454467"><ele>19.0</ele><time>2026-05-02T10:35:03.403Z</time></trkpt><trkpt lat="53.4765069" lon="-1.1456729"><ele>19.0</ele><time>2026-05-02T10:35:04.402Z</time></trkpt><trkpt lat="53.4767456" lon="-1.1459029"><ele>19.5</ele><time>2026-05-02T10:35:05.402Z</time></trkpt><trkpt lat="53.476987" lon="-1.1461331"><ele>20.0</ele><time>2026-05-02T10:35:06.405Z</time></trkpt><trkpt lat="53.47723" lon="-1.1463674"><ele>21.5</ele><time>2026-05-02T10:35:07.406Z</time></trkpt><trkpt lat="53.4774706" lon="-1.146598"><ele>23.0</ele><time>2026-05-02T10:35:08.404Z</time></trkpt><trkpt lat="53.4777094" lon="-1.1468295"><ele>22.5</ele><time>2026-05-02T10:35:09.406Z</time></trkpt><trkpt lat="53.4779485" lon="-1.1470562"><ele>22.0</ele><time>2026-05-02T10:35:10.402Z</time></trkpt><trkpt lat="53.4781909" lon="-1.1472869"><ele>23.0</ele><time>2026-05-02T10:35:11.402Z</time></trkpt><trkpt lat="53.4784293" lon="-1.1475234"><ele>24.0</ele><time>2026-05-02T10:35:12.402Z</time></trkpt><trkpt lat="53.4786678" lon="-1.1477621"><ele>22.5</ele><time>2026-05-02T10:35:13.403Z</time></trkpt><trkpt lat="53.4789027" lon="-1.1479981"><ele>21.0</ele><time>2026-05-02T10:35:14.402Z</time></trkpt><trkpt lat="53.4791352" lon="-1.1482334"><ele>20.5</ele><time>2026-05-02T10:35:15.402Z</time></trkpt><trkpt lat="53.4793721" lon="-1.1484613"><ele>20.0</ele><time>2026-05-02T10:35:16.404Z</time></trkpt><trkpt lat="53.4796152" lon="-1.1486917"><ele>20.0</ele><time>2026-05-02T10:35:17.403Z</time></trkpt><trkpt lat="53.4798565" lon="-1.1489218"><ele>20.0</ele><time>2026-05-02T10:35:18.403Z</time></trkpt><trkpt lat="53.4800958" lon="-1.1491506"><ele>21.5</ele><time>2026-05-02T10:35:19.404Z</time></trkpt><trkpt lat="53.4803316" lon="-1.149383"><ele>23.0</ele><time>2026-05-02T10:35:20.402Z</time></trkpt><trkpt lat="53.4805636" lon="-1.1496194"><ele>23.5</ele><time>2026-05-02T10:35:21.402Z</time></trkpt><trkpt lat="53.4807868" lon="-1.1498371"><ele>24.0</ele><time>2026-05-02T10:35:22.406Z</time></trkpt><trkpt lat="53.4809888" lon="-1.1500219"><ele>23.333333333333332</ele><time>2026-05-02T10:35:23.403Z</time></trkpt><trkpt lat="53.4811795" lon="-1.1501937"><ele>22.666666666666664</ele><time>2026-05-02T10:35:24.405Z</time></trkpt><trkpt lat="53.4813608" lon="-1.1503539"><ele>22.0</ele><time>2026-05-02T10:35:25.403Z</time></trkpt><trkpt lat="53.4815353" lon="-1.1505075"><ele>21.666666666666664</ele><time>2026-05-02T10:35:26.403Z</time></trkpt><trkpt lat="53.4817026" lon="-1.1506538"><ele>21.333333333333332</ele><time>2026-05-02T10:35:27.403Z</time></trkpt><trkpt lat="53.4818614" lon="-1.1507934"><ele>21.0</ele><time>2026-05-02T10:35:28.403Z</time></trkpt><trkpt lat="53.4820153" lon="-1.150931"><ele>20.333333333333332</ele><time>2026-05-02T10:35:29.402Z</time></trkpt><trkpt lat="53.4821602" lon="-1.1510687"><ele>19.666666666666664</ele><time>2026-05-02T10:35:30.403Z</time></trkpt><trkpt lat="53.4822956" lon="-1.1512062"><ele>19.0</ele><time>2026-05-02T10:35:31.407Z</time></trkpt><trkpt lat="53.4824263" lon="-1.1513397"><ele>19.0</ele><time>2026-05-02T10:35:32.404Z</time></trkpt><trkpt lat="53.482553" lon="-1.1514684"><ele>19.0</ele><time>2026-05-02T10:35:33.403Z</time></trkpt><trkpt lat="53.4826806" lon="-1.1515935"><ele>19.0</ele><time>2026-05-02T10:35:34.403Z</time></trkpt><trkpt lat="53.4828126" lon="-1.151714"><ele>19.0</ele><time>2026-05-02T10:35:35.405Z</time></trkpt><trkpt lat="53.482943" lon="-1.1518347"><ele>18.75</ele><time>2026-05-02T10:35:36.403Z</time></trkpt><trkpt lat="53.483069" lon="-1.1519535"><ele>18.5</ele><time>2026-05-02T10:35:37.402Z</time></trkpt><trkpt lat="53.4831926" lon="-1.1520714"><ele>18.25</ele><time>2026-05-02T10:35:38.403Z</time></trkpt><trkpt lat="53.4833169" lon="-1.1521933"><ele>18.0</ele><time>2026-05-02T10:35:39.403Z</time></trkpt><trkpt lat="53.4834416" lon="-1.1523144"><ele>18.25</ele><time>2026-05-02T10:35:40.402Z</time></trkpt><trkpt lat="53.4835652" lon="-1.1524397"><ele>18.5</ele><time>2026-05-02T10:35:41.406Z</time></trkpt><trkpt lat="53.4836851" lon="-1.1525642"><ele>18.75</ele><time>2026-05-02T10:35:42.403Z</time></trkpt><trkpt lat="53.4837965" lon="-1.1526834"><ele>19.0</ele><time>2026-05-02T10:35:43.402Z</time></trkpt><trkpt lat="53.4838991" lon="-1.1527922"><ele>19.0</ele><time>2026-05-02T10:35:44.406Z</time></trkpt><trkpt lat="53.483997" lon="-1.1528995"><ele>19.0</ele><time>2026-05-02T10:35:45.402Z</time></trkpt><trkpt lat="53.484095" lon="-1.1530048"><ele>19.0</ele><time>2026-05-02T10:35:46.406Z</time></trkpt><trkpt lat="53.4841971" lon="-1.1531123"><ele>19.0</ele><time>2026-05-02T10:35:47.405Z</time></trkpt><trkpt lat="53.4843014" lon="-1.1532233"><ele>19.0</ele><time>2026-05-02T10:35:48.402Z</time></trkpt><trkpt lat="53.4844079" lon="-1.1533428"><ele>19.0</ele><time>2026-05-02T10:35:49.405Z</time></trkpt><trkpt lat="53.4845186" lon="-1.153468"><ele>19.0</ele><time>2026-05-02T10:35:50.402Z</time></trkpt><trkpt lat="53.4846296" lon="-1.1535955"><ele>19.0</ele><time>2026-05-02T10:35:51.405Z</time></trkpt><trkpt lat="53.4847427" lon="-1.1537211"><ele>19.0</ele><time>2026-05-02T10:35:52.407Z</time></trkpt><trkpt lat="53.4848552" lon="-1.1538486"><ele>19.0</ele><time>2026-05-02T10:35:53.406Z</time></trkpt><trkpt lat="53.4849653" lon="-1.1539824"><ele>19.0</ele><time>2026-05-02T10:35:54.405Z</time></trkpt><trkpt lat="53.4850722" lon="-1.1541146"><ele>19.0</ele><time>2026-05-02T10:35:55.402Z</time></trkpt><trkpt lat="53.4851827" lon="-1.1542463"><ele>19.0</ele><time>2026-05-02T10:35:56.411Z</time></trkpt><trkpt lat="53.4853" lon="-1.154385"><ele>19.0</ele><time>2026-05-02T10:35:57.405Z</time></trkpt><trkpt lat="53.4854183" lon="-1.1545283"><ele>19.0</ele><time>2026-05-02T10:35:58.402Z</time></trkpt><trkpt lat="53.4855383" lon="-1.154675"><ele>19.0</ele><time>2026-05-02T10:35:59.402Z</time></trkpt><trkpt lat="53.4856567" lon="-1.1548133"><ele>18.75</ele><time>2026-05-02T10:36:00.405Z</time></trkpt><trkpt lat="53.4857667" lon="-1.1549367"><ele>18.5</ele><time>2026-05-02T10:36:01.407Z</time></trkpt><trkpt lat="53.4858717" lon="-1.1550567"><ele>18.25</ele><time>2026-05-02T10:36:02.403Z</time></trkpt><trkpt lat="53.4859733" lon="-1.1551817"><ele>18.0</ele><time>2026-05-02T10:36:03.402Z</time></trkpt><trkpt lat="53.4860717" lon="-1.1553217"><ele>18.0</ele><time>2026-05-02T10:36:04.409Z</time></trkpt><trkpt lat="53.4861717" lon="-1.1554783"><ele>18.0</ele><time>2026-05-02T10:36:05.403Z</time></trkpt><trkpt lat="53.4862783" lon="-1.1556383"><ele>18.0</ele><time>2026-05-02T10:36:06.402Z</time></trkpt><trkpt lat="53.4863883" lon="-1.1557967"><ele>18.0</ele><time>2026-05-02T10:36:07.402Z</time></trkpt><trkpt lat="53.4864933" lon="-1.1559467"><ele>18.0</ele><time>2026-05-02T10:36:08.402Z</time></trkpt><trkpt lat="53.4866067" lon="-1.1560967"><ele>18.0</ele><time>2026-05-02T10:36:09.403Z</time></trkpt><trkpt lat="53.4867217" lon="-1.1562483"><ele>18.0</ele><time>2026-05-02T10:36:10.402Z</time></trkpt><trkpt lat="53.4868333" lon="-1.1564"><ele>18.0</ele><time>2026-05-02T10:36:11.402Z</time></trkpt><trkpt lat="53.4869467" lon="-1.1565517"><ele>17.666666666666668</ele><time>2026-05-02T10:36:12.402Z</time></trkpt><trkpt lat="53.48706" lon="-1.1567067"><ele>17.333333333333336</ele><time>2026-05-02T10:36:13.402Z</time></trkpt><trkpt lat="53.4871833" lon="-1.1568683"><ele>17.0</ele><time>2026-05-02T10:36:14.403Z</time></trkpt><trkpt lat="53.4873067" lon="-1.1570383"><ele>17.0</ele><time>2026-05-02T10:36:15.402Z</time></trkpt><trkpt lat="53.4874333" lon="-1.1572133"><ele>17.0</ele><time>2026-05-02T10:36:16.402Z</time></trkpt><trkpt lat="53.4875633" lon="-1.1573967"><ele>17.0</ele><time>2026-05-02T10:36:17.402Z</time></trkpt><trkpt lat="53.487695" lon="-1.157585"><ele>17.0</ele><time>2026-05-02T10:36:18.404Z</time></trkpt><trkpt lat="53.4878283" lon="-1.1577733"><ele>17.0</ele><time>2026-05-02T10:36:19.403Z</time></trkpt><trkpt lat="53.4879683" lon="-1.157965"><ele>17.0</ele><time>2026-05-02T10:36:20.402Z</time></trkpt><trkpt lat="53.4881117" lon="-1.1581617"><ele>16.0</ele><time>2026-05-02T10:36:21.403Z</time></trkpt><trkpt lat="53.48825" lon="-1.1583567"><ele>15.0</ele><time>2026-05-02T10:36:22.406Z</time></trkpt><trkpt lat="53.488395" lon="-1.1585533"><ele>14.0</ele><time>2026-05-02T10:36:23.406Z</time></trkpt><trkpt lat="53.4885417" lon="-1.15874"><ele>14.0</ele><time>2026-05-02T10:36:24.406Z</time></trkpt><trkpt lat="53.4886817" lon="-1.15892"><ele>14.0</ele><time>2026-05-02T10:36:25.407Z</time></trkpt><trkpt lat="53.4888183" lon="-1.1591017"><ele>14.0</ele><time>2026-05-02T10:36:26.407Z</time></trkpt><trkpt lat="53.4889467" lon="-1.1592767"><ele>15.0</ele><time>2026-05-02T10:36:27.407Z</time></trkpt><trkpt lat="53.48908" lon="-1.159455"><ele>16.0</ele><time>2026-05-02T10:36:28.406Z</time></trkpt><trkpt lat="53.4892167" lon="-1.15964"><ele>17.0</ele><time>2026-05-02T10:36:29.405Z</time></trkpt><trkpt lat="53.4893617" lon="-1.1598383"><ele>16.666666666666668</ele><time>2026-05-02T10:36:30.406Z</time></trkpt><trkpt lat="53.4895133" lon="-1.1600467"><ele>16.333333333333332</ele><time>2026-05-02T10:36:31.402Z</time></trkpt><trkpt lat="53.4896633" lon="-1.1602567"><ele>16.0</ele><time>2026-05-02T10:36:32.403Z</time></trkpt><trkpt lat="53.4898133" lon="-1.1604617"><ele>17.0</ele><time>2026-05-02T10:36:33.405Z</time></trkpt><trkpt lat="53.4899583" lon="-1.1606683"><ele>18.0</ele><time>2026-05-02T10:36:34.403Z</time></trkpt><trkpt lat="53.4901017" lon="-1.1608767"><ele>19.0</ele><time>2026-05-02T10:36:35.402Z</time></trkpt><trkpt lat="53.4902467" lon="-1.161085"><ele>19.0</ele><time>2026-05-02T10:36:36.405Z</time></trkpt><trkpt lat="53.4903933" lon="-1.1612917"><ele>19.0</ele><time>2026-05-02T10:36:37.403Z</time></trkpt><trkpt lat="53.4905383" lon="-1.1614983"><ele>19.0</ele><time>2026-05-02T10:36:38.406Z</time></trkpt><trkpt lat="53.4906867" lon="-1.1617067"><ele>19.0</ele><time>2026-05-02T10:36:39.404Z</time></trkpt><trkpt lat="53.4908383" lon="-1.1619167"><ele>19.0</ele><time>2026-05-02T10:36:40.402Z</time></trkpt><trkpt lat="53.4909917" lon="-1.1621267"><ele>19.0</ele><time>2026-05-02T10:36:41.402Z</time></trkpt><trkpt lat="53.4911433" lon="-1.1623367"><ele>19.333333333333332</ele><time>2026-05-02T10:36:42.402Z</time></trkpt><trkpt lat="53.4912967" lon="-1.1625467"><ele>19.666666666666668</ele><time>2026-05-02T10:36:43.403Z</time></trkpt><trkpt lat="53.4914467" lon="-1.1627533"><ele>20.0</ele><time>2026-05-02T10:36:44.402Z</time></trkpt><trkpt lat="53.4915967" lon="-1.1629617"><ele>20.0</ele><time>2026-05-02T10:36:45.403Z</time></trkpt><trkpt lat="53.4917383" lon="-1.1631683"><ele>20.0</ele><time>2026-05-02T10:36:46.403Z</time></trkpt><trkpt lat="53.4918783" lon="-1.1633783"><ele>20.0</ele><time>2026-05-02T10:36:47.404Z</time></trkpt><trkpt lat="53.492015" lon="-1.1635867"><ele>20.0</ele><time>2026-05-02T10:36:48.403Z</time></trkpt><trkpt lat="53.4921517" lon="-1.1638"><ele>20.0</ele><time>2026-05-02T10:36:49.403Z</time></trkpt><trkpt lat="53.4922883" lon="-1.1640083"><ele>20.0</ele><time>2026-05-02T10:36:50.404Z</time></trkpt><trkpt lat="53.492425" lon="-1.1642183"><ele>20.0</ele><time>2026-05-02T10:36:51.403Z</time></trkpt><trkpt lat="53.492555" lon="-1.1644317"><ele>20.0</ele><time>2026-05-02T10:36:52.406Z</time></trkpt><trkpt lat="53.492685" lon="-1.164645"><ele>20.0</ele><time>2026-05-02T10:36:53.402Z</time></trkpt><trkpt lat="53.4928133" lon="-1.16486"><ele>20.666666666666668</ele><time>2026-05-02T10:36:54.403Z</time></trkpt><trkpt lat="53.4929433" lon="-1.165075"><ele>21.333333333333332</ele><time>2026-05-02T10:36:55.403Z</time></trkpt><trkpt lat="53.4930667" lon="-1.16529"><ele>22.0</ele><time>2026-05-02T10:36:56.407Z</time></trkpt><trkpt lat="53.49319" lon="-1.16551"><ele>21.0</ele><time>2026-05-02T10:36:57.404Z</time></trkpt><trkpt lat="53.4933117" lon="-1.1657367"><ele>20.0</ele><time>2026-05-02T10:36:58.405Z</time></trkpt><trkpt lat="53.493435" lon="-1.1659683"><ele>19.0</ele><time>2026-05-02T10:36:59.405Z</time></trkpt><trkpt lat="53.493555" lon="-1.1662033"><ele>19.0</ele><time>2026-05-02T10:37:00.406Z</time></trkpt><trkpt lat="53.493675" lon="-1.1664417"><ele>19.0</ele><time>2026-05-02T10:37:01.405Z</time></trkpt><trkpt lat="53.4937967" lon="-1.1666833"><ele>19.0</ele><time>2026-05-02T10:37:02.403Z</time></trkpt><trkpt lat="53.4939167" lon="-1.1669317"><ele>19.333333333333332</ele><time>2026-05-02T10:37:03.403Z</time></trkpt><trkpt lat="53.4940317" lon="-1.1671833"><ele>19.666666666666668</ele><time>2026-05-02T10:37:04.405Z</time></trkpt><trkpt lat="53.4941483" lon="-1.16744"><ele>20.0</ele><time>2026-05-02T10:37:05.406Z</time></trkpt><trkpt lat="53.4942667" lon="-1.1677"><ele>20.666666666666668</ele><time>2026-05-02T10:37:06.405Z</time></trkpt><trkpt lat="53.494385" lon="-1.16796"><ele>21.333333333333332</ele><time>2026-05-02T10:37:07.403Z</time></trkpt><trkpt lat="53.49451" lon="-1.1682217"><ele>22.0</ele><time>2026-05-02T10:37:08.402Z</time></trkpt><trkpt lat="53.49464" lon="-1.16848"><ele>22.333333333333332</ele><time>2026-05-02T10:37:09.405Z</time></trkpt><trkpt lat="53.4947717" lon="-1.16874"><ele>22.666666666666668</ele><time>2026-05-02T10:37:10.406Z</time></trkpt><trkpt lat="53.4949083" lon="-1.169"><ele>23.0</ele><time>2026-05-02T10:37:11.41Z</time></trkpt><trkpt lat="53.495045" lon="-1.1692583"><ele>23.0</ele><time>2026-05-02T10:37:12.406Z</time></trkpt><trkpt lat="53.495185" lon="-1.16951"><ele>23.0</ele><time>2026-05-02T10:37:13.405Z</time></trkpt><trkpt lat="53.49533" lon="-1.16975"><ele>23.0</ele><time>2026-05-02T10:37:14.405Z</time></trkpt><trkpt lat="53.4954767" lon="-1.169985"><ele>24.0</ele><time>2026-05-02T10:37:15.406Z</time></trkpt><trkpt lat="53.4956233" lon="-1.1702133"><ele>25.0</ele><time>2026-05-02T10:37:16.405Z</time></trkpt><trkpt lat="53.49577" lon="-1.170435"><ele>26.0</ele><time>2026-05-02T10:37:17.406Z</time></trkpt><trkpt lat="53.495915" lon="-1.17065"><ele>25.666666666666664</ele><time>2026-05-02T10:37:18.405Z</time></trkpt><trkpt lat="53.4960583" lon="-1.17086"><ele>25.333333333333336</ele><time>2026-05-02T10:37:19.406Z</time></trkpt><trkpt lat="53.4962067" lon="-1.1710667"><ele>25.0</ele><time>2026-05-02T10:37:20.405Z</time></trkpt><trkpt lat="53.4963533" lon="-1.1712767"><ele>25.666666666666668</ele><time>2026-05-02T10:37:21.404Z</time></trkpt><trkpt lat="53.4964983" lon="-1.1714867"><ele>26.333333333333336</ele><time>2026-05-02T10:37:22.409Z</time></trkpt><trkpt lat="53.496645" lon="-1.1716883"><ele>27.0</ele><time>2026-05-02T10:37:23.403Z</time></trkpt><trkpt lat="53.4967933" lon="-1.17188"><ele>27.0</ele><time>2026-05-02T10:37:24.406Z</time></trkpt><trkpt lat="53.4969433" lon="-1.1720617"><ele>27.0</ele><time>2026-05-02T10:37:25.413Z</time></trkpt><trkpt lat="53.4970967" lon="-1.1722383"><ele>27.0</ele><time>2026-05-02T10:37:26.402Z</time></trkpt><trkpt lat="53.4972517" lon="-1.172415"><ele>27.0</ele><time>2026-05-02T10:37:27.402Z</time></trkpt><trkpt lat="53.4974067" lon="-1.1725933"><ele>27.0</ele><time>2026-05-02T10:37:28.402Z</time></trkpt><trkpt lat="53.4975583" lon="-1.172775"><ele>27.0</ele><time>2026-05-02T10:37:29.406Z</time></trkpt><trkpt lat="53.49771" lon="-1.1729583"><ele>27.0</ele><time>2026-05-02T10:37:30.402Z</time></trkpt><trkpt lat="53.4978667" lon="-1.173135"><ele>27.0</ele><time>2026-05-02T10:37:31.408Z</time></trkpt><trkpt lat="53.498025" lon="-1.1733067"><ele>27.0</ele><time>2026-05-02T10:37:32.403Z</time></trkpt><trkpt lat="53.4981883" lon="-1.173475"><ele>27.666666666666664</ele><time>2026-05-02T10:37:33.402Z</time></trkpt><trkpt lat="53.498355" lon="-1.1736283"><ele>28.333333333333332</ele><time>2026-05-02T10:37:34.402Z</time></trkpt><trkpt lat="53.4985367" lon="-1.1737667"><ele>29.0</ele><time>2026-05-02T10:37:35.403Z</time></trkpt><trkpt lat="53.4987017" lon="-1.1738917"><ele>30.333333333333332</ele><time>2026-05-02T10:37:36.403Z</time></trkpt><trkpt lat="53.49886" lon="-1.1739983"><ele>31.666666666666664</ele><time>2026-05-02T10:37:37.402Z</time></trkpt><trkpt lat="53.4990067" lon="-1.1741067"><ele>33.0</ele><time>2026-05-02T10:37:38.403Z</time></trkpt><trkpt lat="53.4991533" lon="-1.1742183"><ele>33.0</ele><time>2026-05-02T10:37:39.402Z</time></trkpt><trkpt lat="53.4993067" lon="-1.1743283"><ele>33.0</ele><time>2026-05-02T10:37:40.403Z</time></trkpt><trkpt lat="53.499445" lon="-1.174435"><ele>33.0</ele><time>2026-05-02T10:37:41.403Z</time></trkpt><trkpt lat="53.499575" lon="-1.1745333"><ele>33.75</ele><time>2026-05-02T10:37:42.403Z</time></trkpt><trkpt lat="53.4996967" lon="-1.17462"><ele>34.5</ele><time>2026-05-02T10:37:43.402Z</time></trkpt><trkpt lat="53.4998117" lon="-1.1746933"><ele>35.25</ele><time>2026-05-02T10:37:44.402Z</time></trkpt><trkpt lat="53.499915" lon="-1.1747617"><ele>36.0</ele><time>2026-05-02T10:37:45.407Z</time></trkpt><trkpt lat="53.5000083" lon="-1.17483"><ele>36.333333333333336</ele><time>2026-05-02T10:37:46.405Z</time></trkpt><trkpt lat="53.500095" lon="-1.1749"><ele>36.666666666666664</ele><time>2026-05-02T10:37:47.402Z</time></trkpt><trkpt lat="53.5001783" lon="-1.1749667"><ele>37.0</ele><time>2026-05-02T10:37:48.403Z</time></trkpt><trkpt lat="53.50025" lon="-1.1750267"><ele>37.33333333333333</ele><time>2026-05-02T10:37:49.403Z</time></trkpt><trkpt lat="53.5003083" lon="-1.1750833"><ele>37.666666666666664</ele><time>2026-05-02T10:37:50.405Z</time></trkpt><trkpt lat="53.5003733" lon="-1.1752317"><ele>38.0</ele><time>2026-05-02T10:37:52.407Z</time></trkpt><trkpt lat="53.5004433" lon="-1.1754167"><ele>38.0</ele><time>2026-05-02T10:37:54.406Z</time></trkpt><trkpt lat="53.5004867" lon="-1.1755217"><ele>38.0</ele><time>2026-05-02T10:37:55.406Z</time></trkpt><trkpt lat="53.5005267" lon="-1.1756117"><ele>38.0</ele><time>2026-05-02T10:37:56.407Z</time></trkpt><trkpt lat="53.500605" lon="-1.1757133"><ele>38.0</ele><time>2026-05-02T10:37:58.406Z</time></trkpt><trkpt lat="53.5006983" lon="-1.1757033"><ele>38.0</ele><time>2026-05-02T10:38:21.407Z</time></trkpt><trkpt lat="53.500815" lon="-1.1756067"><ele>38.0</ele><time>2026-05-02T10:38:23.404Z</time></trkpt><trkpt lat="53.50087" lon="-1.1755133"><ele>38.0</ele><time>2026-05-02T10:38:24.403Z</time></trkpt><trkpt lat="53.5009183" lon="-1.17537"><ele>38.0</ele><time>2026-05-02T10:38:25.406Z</time></trkpt><trkpt lat="53.500945" lon="-1.175225"><ele>38.0</ele><time>2026-05-02T10:38:26.405Z</time></trkpt><trkpt lat="53.500955" lon="-1.17509"><ele>38.0</ele><time>2026-05-02T10:38:27.402Z</time></trkpt><trkpt lat="53.5009517" lon="-1.1749567"><ele>38.0</ele><time>2026-05-02T10:38:28.403Z</time></trkpt><trkpt lat="53.5009467" lon="-1.1748417"><ele>37.83333333333333</ele><time>2026-05-02T10:38:29.405Z</time></trkpt><trkpt lat="53.50094" lon="-1.1746817"><ele>37.666666666666664</ele><time>2026-05-02T10:38:31.402Z</time></trkpt><trkpt lat="53.5009217" lon="-1.1745217"><ele>37.5</ele><time>2026-05-02T10:38:46.408Z</time></trkpt><trkpt lat="53.5009133" lon="-1.1744017"><ele>37.333333333333336</ele><time>2026-05-02T10:38:47.406Z</time></trkpt><trkpt lat="53.500895" lon="-1.1742617"><ele>37.16666666666667</ele><time>2026-05-02T10:38:48.402Z</time></trkpt><trkpt lat="53.5008567" lon="-1.1741133"><ele>37.0</ele><time>2026-05-02T10:38:49.407Z</time></trkpt><trkpt lat="53.5008" lon="-1.1739683"><ele>37.5</ele><time>2026-05-02T10:38:50.407Z</time></trkpt><trkpt lat="53.5007383" lon="-1.1738433"><ele>38.0</ele><time>2026-05-02T10:38:51.407Z</time></trkpt><trkpt lat="53.5006683" lon="-1.17371"><ele>38.5</ele><time>2026-05-02T10:38:52.406Z</time></trkpt><trkpt lat="53.5005983" lon="-1.1735383"><ele>39.0</ele><time>2026-05-02T10:38:53.407Z</time></trkpt><trkpt lat="53.5005383" lon="-1.1733233"><ele>39.0</ele><time>2026-05-02T10:38:54.403Z</time></trkpt><trkpt lat="53.50049" lon="-1.1731067"><ele>39.0</ele><time>2026-05-02T10:38:55.406Z</time></trkpt><trkpt lat="53.500455" lon="-1.172925"><ele>39.0</ele><time>2026-05-02T10:38:56.407Z</time></trkpt><trkpt lat="53.500425" lon="-1.1727667"><ele>39.0</ele><time>2026-05-02T10:38:57.405Z</time></trkpt><trkpt lat="53.5003983" lon="-1.17261"><ele>39.0</ele><time>2026-05-02T10:38:58.409Z</time></trkpt><trkpt lat="53.5003683" lon="-1.17245"><ele>38.8</ele><time>2026-05-02T10:38:59.407Z</time></trkpt><trkpt lat="53.500335" lon="-1.1722883"><ele>38.599999999999994</ele><time>2026-05-02T10:39:00.411Z</time></trkpt><trkpt lat="53.5003033" lon="-1.1721317"><ele>38.4</ele><time>2026-05-02T10:39:01.407Z</time></trkpt><trkpt lat="53.50027" lon="-1.1719633"><ele>38.199999999999996</ele><time>2026-05-02T10:39:02.408Z</time></trkpt><trkpt lat="53.500235" lon="-1.171775"><ele>38.0</ele><time>2026-05-02T10:39:03.407Z</time></trkpt><trkpt lat="53.5002017" lon="-1.171575"><ele>37.75</ele><time>2026-05-02T10:39:04.406Z</time></trkpt><trkpt lat="53.5001633" lon="-1.1713717"><ele>37.5</ele><time>2026-05-02T10:39:05.405Z</time></trkpt><trkpt lat="53.50013" lon="-1.17117"><ele>37.25</ele><time>2026-05-02T10:39:06.406Z</time></trkpt><trkpt lat="53.5000983" lon="-1.1709667"><ele>37.0</ele><time>2026-05-02T10:39:07.403Z</time></trkpt><trkpt lat="53.5000717" lon="-1.1707717"><ele>37.0</ele><time>2026-05-02T10:39:08.407Z</time></trkpt><trkpt lat="53.50005" lon="-1.1705867"><ele>37.0</ele><time>2026-05-02T10:39:09.406Z</time></trkpt><trkpt lat="53.5000383" lon="-1.1704033"><ele>37.0</ele><time>2026-05-02T10:39:10.406Z</time></trkpt><trkpt lat="53.5000367" lon="-1.1702167"><ele>37.0</ele><time>2026-05-02T10:39:11.408Z</time></trkpt><trkpt lat="53.5000433" lon="-1.170025"><ele>37.0</ele><time>2026-05-02T10:39:12.41Z</time></trkpt><trkpt lat="53.5000633" lon="-1.169835"><ele>36.75</ele><time>2026-05-02T10:39:13.402Z</time></trkpt><trkpt lat="53.5000933" lon="-1.1696483"><ele>36.5</ele><time>2026-05-02T10:39:14.404Z</time></trkpt><trkpt lat="53.5001333" lon="-1.1694633"><ele>36.25</ele><time>2026-05-02T10:39:15.404Z</time></trkpt><trkpt lat="53.5001833" lon="-1.1692767"><ele>36.0</ele><time>2026-05-02T10:39:16.403Z</time></trkpt><trkpt lat="53.5002383" lon="-1.169095"><ele>35.75</ele><time>2026-05-02T10:39:17.403Z</time></trkpt><trkpt lat="53.5002933" lon="-1.168915"><ele>35.5</ele><time>2026-05-02T10:39:18.406Z</time></trkpt><trkpt lat="53.5003467" lon="-1.1687333"><ele>35.25</ele><time>2026-05-02T10:39:19.403Z</time></trkpt><trkpt lat="53.500405" lon="-1.1685467"><ele>35.0</ele><time>2026-05-02T10:39:20.403Z</time></trkpt><trkpt lat="53.5004633" lon="-1.1683567"><ele>34.5</ele><time>2026-05-02T10:39:21.402Z</time></trkpt><trkpt lat="53.5005233" lon="-1.1681617"><ele>34.0</ele><time>2026-05-02T10:39:22.402Z</time></trkpt><trkpt lat="53.5005817" lon="-1.1679633"><ele>33.5</ele><time>2026-05-02T10:39:23.403Z</time></trkpt><trkpt lat="53.5006433" lon="-1.1677617"><ele>33.0</ele><time>2026-05-02T10:39:24.406Z</time></trkpt><trkpt lat="53.5007083" lon="-1.1675533"><ele>32.75</ele><time>2026-05-02T10:39:25.403Z</time></trkpt><trkpt lat="53.500775" lon="-1.1673383"><ele>32.5</ele><time>2026-05-02T10:39:26.406Z</time></trkpt><trkpt lat="53.5008417" lon="-1.167125"><ele>32.25</ele><time>2026-05-02T10:39:27.404Z</time></trkpt><trkpt lat="53.5009117" lon="-1.1669183"><ele>32.0</ele><time>2026-05-02T10:39:28.405Z</time></trkpt><trkpt lat="53.5009767" lon="-1.16672"><ele>32.0</ele><time>2026-05-02T10:39:29.405Z</time></trkpt><trkpt lat="53.5010367" lon="-1.1665333"><ele>32.0</ele><time>2026-05-02T10:39:30.407Z</time></trkpt><trkpt lat="53.501095" lon="-1.1663583"><ele>32.0</ele><time>2026-05-02T10:39:31.407Z</time></trkpt><trkpt lat="53.501155" lon="-1.1661883"><ele>32.0</ele><time>2026-05-02T10:39:32.402Z</time></trkpt><trkpt lat="53.5012133" lon="-1.1660133"><ele>32.0</ele><time>2026-05-02T10:39:33.404Z</time></trkpt><trkpt lat="53.5012717" lon="-1.1658333"><ele>32.0</ele><time>2026-05-02T10:39:34.402Z</time></trkpt><trkpt lat="53.50133" lon="-1.165645"><ele>32.0</ele><time>2026-05-02T10:39:35.402Z</time></trkpt><trkpt lat="53.5013933" lon="-1.1654483"><ele>32.0</ele><time>2026-05-02T10:39:36.403Z</time></trkpt><trkpt lat="53.50146" lon="-1.1652483"><ele>32.0</ele><time>2026-05-02T10:39:37.402Z</time></trkpt><trkpt lat="53.5015317" lon="-1.1650483"><ele>32.0</ele><time>2026-05-02T10:39:38.402Z</time></trkpt><trkpt lat="53.5016033" lon="-1.1648433"><ele>32.0</ele><time>2026-05-02T10:39:39.402Z</time></trkpt><trkpt lat="53.5016783" lon="-1.1646367"><ele>32.0</ele><time>2026-05-02T10:39:40.403Z</time></trkpt><trkpt lat="53.5017633" lon="-1.1644383"><ele>32.0</ele><time>2026-05-02T10:39:41.404Z</time></trkpt><trkpt lat="53.5018483" lon="-1.1642367"><ele>32.0</ele><time>2026-05-02T10:39:42.403Z</time></trkpt><trkpt lat="53.50193" lon="-1.1640367"><ele>32.0</ele><time>2026-05-02T10:39:43.403Z</time></trkpt><trkpt lat="53.5020033" lon="-1.1638417"><ele>32.0</ele><time>2026-05-02T10:39:44.403Z</time></trkpt><trkpt lat="53.5020767" lon="-1.1636733"><ele>32.2</ele><time>2026-05-02T10:39:45.403Z</time></trkpt><trkpt lat="53.5021433" lon="-1.1635133"><ele>32.400000000000006</ele><time>2026-05-02T10:39:46.404Z</time></trkpt><trkpt lat="53.502205" lon="-1.1633633"><ele>32.599999999999994</ele><time>2026-05-02T10:39:47.402Z</time></trkpt><trkpt lat="53.5022633" lon="-1.163225"><ele>32.8</ele><time>2026-05-02T10:39:48.403Z</time></trkpt><trkpt lat="53.5023183" lon="-1.1631"><ele>33.0</ele><time>2026-05-02T10:39:49.403Z</time></trkpt><trkpt lat="53.5023717" lon="-1.16299"><ele>33.0</ele><time>2026-05-02T10:39:50.406Z</time></trkpt><trkpt lat="53.5024167" lon="-1.16289"><ele>33.0</ele><time>2026-05-02T10:39:51.403Z</time></trkpt><trkpt lat="53.5024567" lon="-1.1628033"><ele>33.0</ele><time>2026-05-02T10:39:52.403Z</time></trkpt><trkpt lat="53.5025217" lon="-1.16266"><ele>33.0</ele><time>2026-05-02T10:39:54.402Z</time></trkpt><trkpt lat="53.502565" lon="-1.162555"><ele>33.0</ele><time>2026-05-02T10:40:35.402Z</time></trkpt><trkpt lat="53.5024967" lon="-1.1625433"><ele>33.0</ele><time>2026-05-02T10:40:38.407Z</time></trkpt><trkpt lat="53.5024017" lon="-1.162695"><ele>33.0</ele><time>2026-05-02T10:40:40.41Z</time></trkpt><trkpt lat="53.5023233" lon="-1.162855"><ele>33.0</ele><time>2026-05-02T10:40:41.406Z</time></trkpt><trkpt lat="53.5022217" lon="-1.1630817"><ele>33.0</ele><time>2026-05-02T10:40:42.402Z</time></trkpt><trkpt lat="53.5021367" lon="-1.1632567"><ele>33.0</ele><time>2026-05-02T10:40:43.405Z</time></trkpt><trkpt lat="53.50205" lon="-1.16344"><ele>32.75</ele><time>2026-05-02T10:40:44.404Z</time></trkpt><trkpt lat="53.50197" lon="-1.16362"><ele>32.5</ele><time>2026-05-02T10:40:45.403Z</time></trkpt><trkpt lat="53.5018983" lon="-1.1637883"><ele>32.25</ele><time>2026-05-02T10:40:46.403Z</time></trkpt><trkpt lat="53.5018233" lon="-1.1639683"><ele>32.0</ele><time>2026-05-02T10:40:47.402Z</time></trkpt><trkpt lat="53.50175" lon="-1.164165"><ele>32.0</ele><time>2026-05-02T10:40:48.402Z</time></trkpt><trkpt lat="53.5016667" lon="-1.1643733"><ele>32.0</ele><time>2026-05-02T10:40:49.402Z</time></trkpt><trkpt lat="53.5015817" lon="-1.16458"><ele>32.0</ele><time>2026-05-02T10:40:50.403Z</time></trkpt><trkpt lat="53.5014983" lon="-1.1647783"><ele>32.0</ele><time>2026-05-02T10:40:51.403Z</time></trkpt><trkpt lat="53.5014233" lon="-1.164985"><ele>32.0</ele><time>2026-05-02T10:40:52.404Z</time></trkpt><trkpt lat="53.501355" lon="-1.165185"><ele>32.0</ele><time>2026-05-02T10:40:53.403Z</time></trkpt><trkpt lat="53.50129" lon="-1.16538"><ele>32.0</ele><time>2026-05-02T10:40:54.403Z</time></trkpt><trkpt lat="53.501225" lon="-1.1655683"><ele>32.0</ele><time>2026-05-02T10:40:55.403Z</time></trkpt><trkpt lat="53.50118" lon="-1.1657533"><ele>32.0</ele><time>2026-05-02T10:40:56.403Z</time></trkpt><trkpt lat="53.5011283" lon="-1.16593"><ele>32.0</ele><time>2026-05-02T10:40:57.403Z</time></trkpt><trkpt lat="53.5010717" lon="-1.1660917"><ele>32.0</ele><time>2026-05-02T10:40:58.403Z</time></trkpt><trkpt lat="53.501015" lon="-1.1662717"><ele>32.0</ele><time>2026-05-02T10:40:59.403Z</time></trkpt><trkpt lat="53.5009583" lon="-1.1664667"><ele>32.0</ele><time>2026-05-02T10:41:00.403Z</time></trkpt><trkpt lat="53.50089" lon="-1.1666833"><ele>32.0</ele><time>2026-05-02T10:41:01.403Z</time></trkpt><trkpt lat="53.5008167" lon="-1.1669167"><ele>32.0</ele><time>2026-05-02T10:41:02.406Z</time></trkpt><trkpt lat="53.5007383" lon="-1.167155"><ele>32.33333333333333</ele><time>2026-05-02T10:41:03.406Z</time></trkpt><trkpt lat="53.5006633" lon="-1.1673883"><ele>32.666666666666664</ele><time>2026-05-02T10:41:04.405Z</time></trkpt><trkpt lat="53.50059" lon="-1.16762"><ele>33.0</ele><time>2026-05-02T10:41:05.403Z</time></trkpt><trkpt lat="53.5005183" lon="-1.1678467"><ele>33.0</ele><time>2026-05-02T10:41:06.403Z</time></trkpt><trkpt lat="53.5004483" lon="-1.1680733"><ele>33.0</ele><time>2026-05-02T10:41:07.405Z</time></trkpt><trkpt lat="53.50038" lon="-1.16829"><ele>33.0</ele><time>2026-05-02T10:41:08.405Z</time></trkpt><trkpt lat="53.5003117" lon="-1.168495"><ele>33.0</ele><time>2026-05-02T10:41:09.404Z</time></trkpt><trkpt lat="53.5002417" lon="-1.1687033"><ele>33.25</ele><time>2026-05-02T10:41:10.404Z</time></trkpt><trkpt lat="53.5001733" lon="-1.1689083"><ele>33.5</ele><time>2026-05-02T10:41:11.406Z</time></trkpt><trkpt lat="53.500105" lon="-1.1691183"><ele>33.75</ele><time>2026-05-02T10:41:12.404Z</time></trkpt><trkpt lat="53.50004" lon="-1.1693267"><ele>34.0</ele><time>2026-05-02T10:41:13.403Z</time></trkpt><trkpt lat="53.499985" lon="-1.1695417"><ele>34.5</ele><time>2026-05-02T10:41:14.405Z</time></trkpt><trkpt lat="53.4999467" lon="-1.1697467"><ele>35.0</ele><time>2026-05-02T10:41:15.405Z</time></trkpt><trkpt lat="53.49992" lon="-1.16995"><ele>35.5</ele><time>2026-05-02T10:41:16.402Z</time></trkpt><trkpt lat="53.499905" lon="-1.1701433"><ele>36.0</ele><time>2026-05-02T10:41:17.403Z</time></trkpt><trkpt lat="53.499905" lon="-1.170335"><ele>37.0</ele><time>2026-05-02T10:41:18.402Z</time></trkpt><trkpt lat="53.4999167" lon="-1.1705133"><ele>37.0</ele><time>2026-05-02T10:41:19.404Z</time></trkpt><trkpt lat="53.4999317" lon="-1.1706583"><ele>37.0</ele><time>2026-05-02T10:41:20.406Z</time></trkpt><trkpt lat="53.4999367" lon="-1.1707683"><ele>37.0</ele><time>2026-05-02T10:41:21.406Z</time></trkpt><trkpt lat="53.49991" lon="-1.1709417"><ele>37.0</ele><time>2026-05-02T10:41:23.406Z</time></trkpt><trkpt lat="53.4998867" lon="-1.1710467"><ele>37.0</ele><time>2026-05-02T10:41:25.406Z</time></trkpt></trkseg><trkseg><trkpt lat="53.4998067" lon="-1.1711217"><ele>37.0</ele><time>2026-05-02T11:20:37.405Z</time></trkpt><trkpt lat="53.499755" lon="-1.1712"><ele>37.0</ele><time>2026-05-02T11:21:16.405Z</time></trkpt><trkpt lat="53.4997133" lon="-1.17112"><ele>37.0</ele><time>2026-05-02T11:21:27.405Z</time></trkpt><trkpt lat="53.4997633" lon="-1.17121"><ele>37.0</ele><time>2026-05-02T11:22:17.402Z</time></trkpt><trkpt lat="53.500045" lon="-1.1713967"><ele>37.0</ele><time>2026-05-02T11:28:09.41Z</time></trkpt><trkpt lat="53.50011" lon="-1.1714917"><ele>37.0</ele><time>2026-05-02T11:28:54.402Z</time></trkpt><trkpt lat="53.50013" lon="-1.1716183"><ele>37.0</ele><time>2026-05-02T11:28:55.403Z</time></trkpt><trkpt lat="53.50015" lon="-1.1717783"><ele>37.0</ele><time>2026-05-02T11:28:56.402Z</time></trkpt><trkpt lat="53.500185" lon="-1.171985"><ele>37.0</ele><time>2026-05-02T11:28:57.402Z</time></trkpt><trkpt lat="53.5002517" lon="-1.1723467"><ele>37.66666666666667</ele><time>2026-05-02T11:28:59.403Z</time></trkpt><trkpt lat="53.5002817" lon="-1.172515"><ele>38.333333333333336</ele><time>2026-05-02T11:29:00.406Z</time></trkpt><trkpt lat="53.5003317" lon="-1.1727783"><ele>39.0</ele><time>2026-05-02T11:29:02.407Z</time></trkpt><trkpt lat="53.500385" lon="-1.17308"><ele>39.0</ele><time>2026-05-02T11:29:05.406Z</time></trkpt><trkpt lat="53.5004233" lon="-1.1732867"><ele>39.0</ele><time>2026-05-02T11:29:07.417Z</time></trkpt><trkpt lat="53.5004483" lon="-1.1734333"><ele>39.0</ele><time>2026-05-02T11:29:08.405Z</time></trkpt><trkpt lat="53.50047" lon="-1.1737333"><ele>39.0</ele><time>2026-05-02T11:29:10.402Z</time></trkpt><trkpt lat="53.5004133" lon="-1.1740567"><ele>38.75</ele><time>2026-05-02T11:29:12.407Z</time></trkpt><trkpt lat="53.50037" lon="-1.1742133"><ele>38.5</ele><time>2026-05-02T11:29:13.403Z</time></trkpt><trkpt lat="53.5003483" lon="-1.1743767"><ele>38.25</ele><time>2026-05-02T11:29:14.402Z</time></trkpt><trkpt lat="53.5003633" lon="-1.17477"><ele>38.0</ele><time>2026-05-02T11:29:16.403Z</time></trkpt><trkpt lat="53.50038" lon="-1.1749783"><ele>38.0</ele><time>2026-05-02T11:29:17.405Z</time></trkpt><trkpt lat="53.5004433" lon="-1.175335"><ele>38.0</ele><time>2026-05-02T11:29:19.405Z</time></trkpt><trkpt lat="53.500485" lon="-1.1754783"><ele>38.0</ele><time>2026-05-02T11:29:20.404Z</time></trkpt><trkpt lat="53.500525" lon="-1.1756"><ele>38.0</ele><time>2026-05-02T11:29:21.403Z</time></trkpt><trkpt lat="53.5005633" lon="-1.1756967"><ele>38.0</ele><time>2026-05-02T11:29:22.405Z</time></trkpt><trkpt lat="53.5006467" lon="-1.17578"><ele>38.0</ele><time>2026-05-02T11:29:24.404Z</time></trkpt><trkpt lat="53.50071" lon="-1.1757083"><ele>38.0</ele><time>2026-05-02T11:29:42.405Z</time></trkpt><trkpt lat="53.500775" lon="-1.175685"><ele>38.0</ele><time>2026-05-02T11:29:43.405Z</time></trkpt><trkpt lat="53.5009733" lon="-1.1755733"><ele>38.0</ele><time>2026-05-02T11:29:45.403Z</time></trkpt><trkpt lat="53.5010983" lon="-1.1755617"><ele>39.0</ele><time>2026-05-02T11:29:46.402Z</time></trkpt><trkpt lat="53.5012517" lon="-1.1756133"><ele>40.0</ele><time>2026-05-02T11:29:47.402Z</time></trkpt><trkpt lat="53.501635" lon="-1.1757733"><ele>40.5</ele><time>2026-05-02T11:29:49.403Z</time></trkpt><trkpt lat="53.5018133" lon="-1.1758533"><ele>41.0</ele><time>2026-05-02T11:29:50.409Z</time></trkpt><trkpt lat="53.5021233" lon="-1.17599"><ele>41.5</ele><time>2026-05-02T11:29:52.403Z</time></trkpt><trkpt lat="53.5024233" lon="-1.1761083"><ele>42.0</ele><time>2026-05-02T11:29:54.403Z</time></trkpt><trkpt lat="53.502565" lon="-1.1761783"><ele>42.0</ele><time>2026-05-02T11:29:55.403Z</time></trkpt><trkpt lat="53.5027033" lon="-1.1762483"><ele>42.0</ele><time>2026-05-02T11:29:56.403Z</time></trkpt><trkpt lat="53.5028517" lon="-1.1763383"><ele>42.0</ele><time>2026-05-02T11:29:57.403Z</time></trkpt><trkpt lat="53.50301" lon="-1.1764467"><ele>43.0</ele><time>2026-05-02T11:29:58.402Z</time></trkpt><trkpt lat="53.5031817" lon="-1.176565"><ele>44.0</ele><time>2026-05-02T11:29:59.403Z</time></trkpt><trkpt lat="53.5033767" lon="-1.1766883"><ele>45.0</ele><time>2026-05-02T11:30:00.402Z</time></trkpt><trkpt lat="53.503585" lon="-1.1768083"><ele>43.5</ele><time>2026-05-02T11:30:01.402Z</time></trkpt><trkpt lat="53.5038017" lon="-1.17692"><ele>42.0</ele><time>2026-05-02T11:30:02.403Z</time></trkpt><trkpt lat="53.504025" lon="-1.1770183"><ele>42.0</ele><time>2026-05-02T11:30:03.402Z</time></trkpt><trkpt lat="53.5042517" lon="-1.1771067"><ele>42.0</ele><time>2026-05-02T11:30:04.401Z</time></trkpt><trkpt lat="53.5044717" lon="-1.1771883"><ele>42.0</ele><time>2026-05-02T11:30:05.408Z</time></trkpt><trkpt lat="53.5046917" lon="-1.1772533"><ele>42.0</ele><time>2026-05-02T11:30:06.404Z</time></trkpt><trkpt lat="53.50491" lon="-1.1773117"><ele>42.0</ele><time>2026-05-02T11:30:07.403Z</time></trkpt><trkpt lat="53.5051383" lon="-1.1773633"><ele>42.0</ele><time>2026-05-02T11:30:08.402Z</time></trkpt><trkpt lat="53.5053733" lon="-1.17741"><ele>42.0</ele><time>2026-05-02T11:30:09.402Z</time></trkpt><trkpt lat="53.50562" lon="-1.17744"><ele>41.0</ele><time>2026-05-02T11:30:10.402Z</time></trkpt><trkpt lat="53.5058733" lon="-1.17746"><ele>40.0</ele><time>2026-05-02T11:30:11.402Z</time></trkpt><trkpt lat="53.5061283" lon="-1.17747"><ele>40.0</ele><time>2026-05-02T11:30:12.402Z</time></trkpt><trkpt lat="53.5063933" lon="-1.177465"><ele>40.0</ele><time>2026-05-02T11:30:13.404Z</time></trkpt><trkpt lat="53.506665" lon="-1.177445"><ele>40.0</ele><time>2026-05-02T11:30:14.406Z</time></trkpt><trkpt lat="53.5069433" lon="-1.1774083"><ele>40.0</ele><time>2026-05-02T11:30:15.403Z</time></trkpt><trkpt lat="53.5072217" lon="-1.17736"><ele>34.5</ele><time>2026-05-02T11:30:16.403Z</time></trkpt><trkpt lat="53.5074933" lon="-1.1772917"><ele>29.0</ele><time>2026-05-02T11:30:17.402Z</time></trkpt><trkpt lat="53.50776" lon="-1.1772167"><ele>21.5</ele><time>2026-05-02T11:30:18.403Z</time></trkpt><trkpt lat="53.50803" lon="-1.17713"><ele>14.0</ele><time>2026-05-02T11:30:19.406Z</time></trkpt><trkpt lat="53.5082933" lon="-1.17703"><ele>14.0</ele><time>2026-05-02T11:30:20.402Z</time></trkpt><trkpt lat="53.5085533" lon="-1.17693"><ele>14.0</ele><time>2026-05-02T11:30:21.402Z</time></trkpt><trkpt lat="53.5088117" lon="-1.1768217"><ele>13.0</ele><time>2026-05-02T11:30:22.403Z</time></trkpt><trkpt lat="53.50907" lon="-1.1767167"><ele>12.0</ele><time>2026-05-02T11:30:23.402Z</time></trkpt><trkpt lat="53.5093317" lon="-1.17661"><ele>20.5</ele><time>2026-05-02T11:30:24.403Z</time></trkpt><trkpt lat="53.5095917" lon="-1.1765017"><ele>29.0</ele><time>2026-05-02T11:30:25.402Z</time></trkpt><trkpt lat="53.5098533" lon="-1.176395"><ele>29.0</ele><time>2026-05-02T11:30:26.403Z</time></trkpt><trkpt lat="53.510115" lon="-1.1762867"><ele>29.0</ele><time>2026-05-02T11:30:27.402Z</time></trkpt><trkpt lat="53.5103767" lon="-1.1761733"><ele>30.5</ele><time>2026-05-02T11:30:28.403Z</time></trkpt><trkpt lat="53.5106383" lon="-1.17606"><ele>32.0</ele><time>2026-05-02T11:30:29.404Z</time></trkpt><trkpt lat="53.5108983" lon="-1.1759467"><ele>32.0</ele><time>2026-05-02T11:30:30.403Z</time></trkpt><trkpt lat="53.5111583" lon="-1.1758333"><ele>32.0</ele><time>2026-05-02T11:30:31.404Z</time></trkpt><trkpt lat="53.5114167" lon="-1.175715"><ele>33.0</ele><time>2026-05-02T11:30:32.408Z</time></trkpt><trkpt lat="53.5116783" lon="-1.1756067"><ele>34.0</ele><time>2026-05-02T11:30:33.404Z</time></trkpt><trkpt lat="53.51194" lon="-1.1754917"><ele>34.5</ele><time>2026-05-02T11:30:34.403Z</time></trkpt><trkpt lat="53.5122" lon="-1.175385"><ele>35.0</ele><time>2026-05-02T11:30:35.403Z</time></trkpt><trkpt lat="53.5124617" lon="-1.17528"><ele>35.0</ele><time>2026-05-02T11:30:36.404Z</time></trkpt><trkpt lat="53.512725" lon="-1.175175"><ele>35.0</ele><time>2026-05-02T11:30:37.403Z</time></trkpt><trkpt lat="53.5129933" lon="-1.1750733"><ele>35.5</ele><time>2026-05-02T11:30:38.402Z</time></trkpt><trkpt lat="53.5132567" lon="-1.1749833"><ele>36.0</ele><time>2026-05-02T11:30:39.403Z</time></trkpt><trkpt lat="53.5135217" lon="-1.174885"><ele>37.0</ele><time>2026-05-02T11:30:40.408Z</time></trkpt><trkpt lat="53.513785" lon="-1.1748017"><ele>38.0</ele><time>2026-05-02T11:30:41.403Z</time></trkpt><trkpt lat="53.5140483" lon="-1.1747367"><ele>38.0</ele><time>2026-05-02T11:30:42.404Z</time></trkpt><trkpt lat="53.514315" lon="-1.1746917"><ele>38.0</ele><time>2026-05-02T11:30:43.403Z</time></trkpt><trkpt lat="53.5145833" lon="-1.1746583"><ele>36.5</ele><time>2026-05-02T11:30:44.403Z</time></trkpt><trkpt lat="53.5148543" lon="-1.174638"><ele>35.0</ele><time>2026-05-02T11:30:45.403Z</time></trkpt><trkpt lat="53.5151273" lon="-1.17463"><ele>35.0</ele><time>2026-05-02T11:30:46.402Z</time></trkpt><trkpt lat="53.5154" lon="-1.1746366"><ele>35.0</ele><time>2026-05-02T11:30:47.405Z</time></trkpt><trkpt lat="53.5156695" lon="-1.1746614"><ele>32.5</ele><time>2026-05-02T11:30:48.402Z</time></trkpt><trkpt lat="53.5159349" lon="-1.1747065"><ele>30.0</ele><time>2026-05-02T11:30:49.404Z</time></trkpt><trkpt lat="53.5162022" lon="-1.1747575"><ele>30.0</ele><time>2026-05-02T11:30:50.403Z</time></trkpt><trkpt lat="53.5164678" lon="-1.1748165"><ele>30.0</ele><time>2026-05-02T11:30:51.403Z</time></trkpt><trkpt lat="53.5167331" lon="-1.174887"><ele>30.0</ele><time>2026-05-02T11:30:52.406Z</time></trkpt><trkpt lat="53.5169961" lon="-1.1749753"><ele>30.0</ele><time>2026-05-02T11:30:53.405Z</time></trkpt><trkpt lat="53.5172563" lon="-1.1750756"><ele>30.0</ele><time>2026-05-02T11:30:54.403Z</time></trkpt><trkpt lat="53.5175144" lon="-1.1751868"><ele>30.0</ele><time>2026-05-02T11:30:55.404Z</time></trkpt><trkpt lat="53.5177711" lon="-1.1753117"><ele>31.5</ele><time>2026-05-02T11:30:56.404Z</time></trkpt><trkpt lat="53.5180284" lon="-1.1754515"><ele>33.0</ele><time>2026-05-02T11:30:57.405Z</time></trkpt><trkpt lat="53.5182847" lon="-1.1756051"><ele>33.5</ele><time>2026-05-02T11:30:58.404Z</time></trkpt><trkpt lat="53.5185399" lon="-1.1757698"><ele>34.0</ele><time>2026-05-02T11:30:59.404Z</time></trkpt><trkpt lat="53.5187906" lon="-1.1759518"><ele>34.0</ele><time>2026-05-02T11:31:00.403Z</time></trkpt><trkpt lat="53.5190377" lon="-1.1761485"><ele>34.0</ele><time>2026-05-02T11:31:01.407Z</time></trkpt><trkpt lat="53.51928" lon="-1.1763615"><ele>34.5</ele><time>2026-05-02T11:31:02.405Z</time></trkpt><trkpt lat="53.519516" lon="-1.1765861"><ele>35.0</ele><time>2026-05-02T11:31:03.407Z</time></trkpt><trkpt lat="53.519746" lon="-1.1768179"><ele>35.0</ele><time>2026-05-02T11:31:04.407Z</time></trkpt><trkpt lat="53.519972" lon="-1.1770562"><ele>35.0</ele><time>2026-05-02T11:31:05.41Z</time></trkpt><trkpt lat="53.520192" lon="-1.1773094"><ele>33.5</ele><time>2026-05-02T11:31:06.405Z</time></trkpt><trkpt lat="53.5204074" lon="-1.1775782"><ele>32.0</ele><time>2026-05-02T11:31:07.405Z</time></trkpt><trkpt lat="53.5206136" lon="-1.1778644"><ele>32.0</ele><time>2026-05-02T11:31:08.411Z</time></trkpt><trkpt lat="53.5208196" lon="-1.1781541"><ele>32.0</ele><time>2026-05-02T11:31:09.409Z</time></trkpt><trkpt lat="53.5210241" lon="-1.1784483"><ele>32.0</ele><time>2026-05-02T11:31:10.405Z</time></trkpt><trkpt lat="53.521228" lon="-1.1787474"><ele>32.0</ele><time>2026-05-02T11:31:11.402Z</time></trkpt><trkpt lat="53.52143" lon="-1.1790506"><ele>30.5</ele><time>2026-05-02T11:31:12.406Z</time></trkpt><trkpt lat="53.5216336" lon="-1.1793506"><ele>29.0</ele><time>2026-05-02T11:31:13.404Z</time></trkpt><trkpt lat="53.5218391" lon="-1.1796505"><ele>28.5</ele><time>2026-05-02T11:31:14.403Z</time></trkpt><trkpt lat="53.5220427" lon="-1.179951"><ele>28.0</ele><time>2026-05-02T11:31:15.405Z</time></trkpt><trkpt lat="53.5222477" lon="-1.1802466"><ele>28.0</ele><time>2026-05-02T11:31:16.405Z</time></trkpt><trkpt lat="53.522453" lon="-1.1805383"><ele>28.0</ele><time>2026-05-02T11:31:17.409Z</time></trkpt><trkpt lat="53.5226614" lon="-1.1808256"><ele>28.5</ele><time>2026-05-02T11:31:18.406Z</time></trkpt><trkpt lat="53.5228735" lon="-1.1811086"><ele>29.0</ele><time>2026-05-02T11:31:19.404Z</time></trkpt><trkpt lat="53.5230868" lon="-1.1813904"><ele>32.0</ele><time>2026-05-02T11:31:20.406Z</time></trkpt><trkpt lat="53.5232989" lon="-1.1816726"><ele>35.0</ele><time>2026-05-02T11:31:21.402Z</time></trkpt><trkpt lat="53.5235166" lon="-1.18195"><ele>34.5</ele><time>2026-05-02T11:31:22.405Z</time></trkpt><trkpt lat="53.5237388" lon="-1.1822239"><ele>34.0</ele><time>2026-05-02T11:31:23.403Z</time></trkpt><trkpt lat="53.5239635" lon="-1.1825015"><ele>36.5</ele><time>2026-05-02T11:31:24.404Z</time></trkpt><trkpt lat="53.5241888" lon="-1.1827784"><ele>39.0</ele><time>2026-05-02T11:31:25.402Z</time></trkpt><trkpt lat="53.5244151" lon="-1.1830523"><ele>41.0</ele><time>2026-05-02T11:31:26.404Z</time></trkpt><trkpt lat="53.5246429" lon="-1.1833225"><ele>43.0</ele><time>2026-05-02T11:31:27.403Z</time></trkpt><trkpt lat="53.5248732" lon="-1.1835899"><ele>43.0</ele><time>2026-05-02T11:31:28.405Z</time></trkpt><trkpt lat="53.5251063" lon="-1.1838517"><ele>43.0</ele><time>2026-05-02T11:31:29.41Z</time></trkpt><trkpt lat="53.5253381" lon="-1.1841102"><ele>44.0</ele><time>2026-05-02T11:31:30.405Z</time></trkpt><trkpt lat="53.52557" lon="-1.184365"><ele>45.0</ele><time>2026-05-02T11:31:31.405Z</time></trkpt><trkpt lat="53.5258033" lon="-1.1846183"><ele>46.0</ele><time>2026-05-02T11:31:32.402Z</time></trkpt><trkpt lat="53.5260417" lon="-1.1848683"><ele>47.0</ele><time>2026-05-02T11:31:33.406Z</time></trkpt><trkpt lat="53.526275" lon="-1.1851217"><ele>47.0</ele><time>2026-05-02T11:31:34.402Z</time></trkpt><trkpt lat="53.5265083" lon="-1.185385"><ele>47.0</ele><time>2026-05-02T11:31:35.403Z</time></trkpt><trkpt lat="53.52674" lon="-1.1856483"><ele>47.5</ele><time>2026-05-02T11:31:36.404Z</time></trkpt><trkpt lat="53.52697" lon="-1.1859133"><ele>48.0</ele><time>2026-05-02T11:31:37.405Z</time></trkpt><trkpt lat="53.5272" lon="-1.1861817"><ele>48.0</ele><time>2026-05-02T11:31:38.406Z</time></trkpt><trkpt lat="53.5274267" lon="-1.186455"><ele>48.0</ele><time>2026-05-02T11:31:39.402Z</time></trkpt><trkpt lat="53.5276517" lon="-1.186735"><ele>48.0</ele><time>2026-05-02T11:31:40.402Z</time></trkpt><trkpt lat="53.5278717" lon="-1.1870233"><ele>48.0</ele><time>2026-05-02T11:31:41.403Z</time></trkpt><trkpt lat="53.5280917" lon="-1.187315"><ele>46.5</ele><time>2026-05-02T11:31:42.406Z</time></trkpt><trkpt lat="53.5283117" lon="-1.187605"><ele>45.0</ele><time>2026-05-02T11:31:43.412Z</time></trkpt><trkpt lat="53.52853" lon="-1.18789"><ele>45.5</ele><time>2026-05-02T11:31:44.403Z</time></trkpt><trkpt lat="53.528745" lon="-1.1881783"><ele>46.0</ele><time>2026-05-02T11:31:45.406Z</time></trkpt><trkpt lat="53.5289617" lon="-1.18847"><ele>46.0</ele><time>2026-05-02T11:31:46.405Z</time></trkpt><trkpt lat="53.52918" lon="-1.1887633"><ele>46.0</ele><time>2026-05-02T11:31:47.402Z</time></trkpt><trkpt lat="53.5293983" lon="-1.18906"><ele>47.0</ele><time>2026-05-02T11:31:48.403Z</time></trkpt><trkpt lat="53.5296133" lon="-1.1893617"><ele>48.0</ele><time>2026-05-02T11:31:49.405Z</time></trkpt><trkpt lat="53.5298267" lon="-1.189665"><ele>47.0</ele><time>2026-05-02T11:31:50.411Z</time></trkpt><trkpt lat="53.53004" lon="-1.18997"><ele>46.0</ele><time>2026-05-02T11:31:51.407Z</time></trkpt><trkpt lat="53.53025" lon="-1.1902783"><ele>47.0</ele><time>2026-05-02T11:31:52.402Z</time></trkpt><trkpt lat="53.5304567" lon="-1.1905933"><ele>48.0</ele><time>2026-05-02T11:31:53.404Z</time></trkpt><trkpt lat="53.5306617" lon="-1.19091"><ele>48.0</ele><time>2026-05-02T11:31:54.405Z</time></trkpt><trkpt lat="53.5308667" lon="-1.1912267"><ele>48.0</ele><time>2026-05-02T11:31:55.423Z</time></trkpt><trkpt lat="53.53107" lon="-1.191545"><ele>47.5</ele><time>2026-05-02T11:31:56.406Z</time></trkpt><trkpt lat="53.531275" lon="-1.191865"><ele>47.0</ele><time>2026-05-02T11:31:57.406Z</time></trkpt><trkpt lat="53.5314817" lon="-1.1921833"><ele>47.0</ele><time>2026-05-02T11:31:58.403Z</time></trkpt><trkpt lat="53.53169" lon="-1.1925"><ele>47.0</ele><time>2026-05-02T11:31:59.404Z</time></trkpt><trkpt lat="53.5318983" lon="-1.1928167"><ele>47.0</ele><time>2026-05-02T11:32:00.407Z</time></trkpt><trkpt lat="53.5321017" lon="-1.193135"><ele>47.0</ele><time>2026-05-02T11:32:01.405Z</time></trkpt><trkpt lat="53.532305" lon="-1.1934567"><ele>47.0</ele><time>2026-05-02T11:32:02.403Z</time></trkpt><trkpt lat="53.5325083" lon="-1.1937783"><ele>47.0</ele><time>2026-05-02T11:32:03.404Z</time></trkpt><trkpt lat="53.5327083" lon="-1.1940967"><ele>49.0</ele><time>2026-05-02T11:32:04.404Z</time></trkpt><trkpt lat="53.5329117" lon="-1.1944167"><ele>51.0</ele><time>2026-05-02T11:32:05.405Z</time></trkpt><trkpt lat="53.5331183" lon="-1.1947333"><ele>50.5</ele><time>2026-05-02T11:32:06.406Z</time></trkpt><trkpt lat="53.5333267" lon="-1.1950483"><ele>50.0</ele><time>2026-05-02T11:32:07.403Z</time></trkpt><trkpt lat="53.5335333" lon="-1.1953633"><ele>52.5</ele><time>2026-05-02T11:32:08.404Z</time></trkpt><trkpt lat="53.5337383" lon="-1.1956783"><ele>55.0</ele><time>2026-05-02T11:32:09.406Z</time></trkpt><trkpt lat="53.533945" lon="-1.1959967"><ele>55.0</ele><time>2026-05-02T11:32:10.405Z</time></trkpt><trkpt lat="53.5341483" lon="-1.19632"><ele>55.0</ele><time>2026-05-02T11:32:11.408Z</time></trkpt><trkpt lat="53.534355" lon="-1.1966417"><ele>55.0</ele><time>2026-05-02T11:32:12.409Z</time></trkpt><trkpt lat="53.534765" lon="-1.197285"><ele>54.5</ele><time>2026-05-02T11:32:14.407Z</time></trkpt><trkpt lat="53.53497" lon="-1.1976033"><ele>54.0</ele><time>2026-05-02T11:32:15.405Z</time></trkpt><trkpt lat="53.5351733" lon="-1.19792"><ele>53.5</ele><time>2026-05-02T11:32:16.406Z</time></trkpt><trkpt lat="53.5353767" lon="-1.198235"><ele>53.0</ele><time>2026-05-02T11:32:17.405Z</time></trkpt><trkpt lat="53.5355833" lon="-1.1985517"><ele>54.0</ele><time>2026-05-02T11:32:18.406Z</time></trkpt><trkpt lat="53.5357867" lon="-1.1988683"><ele>55.0</ele><time>2026-05-02T11:32:19.406Z</time></trkpt><trkpt lat="53.5359933" lon="-1.1991833"><ele>55.5</ele><time>2026-05-02T11:32:20.409Z</time></trkpt><trkpt lat="53.5362" lon="-1.1995017"><ele>56.0</ele><time>2026-05-02T11:32:21.405Z</time></trkpt><trkpt lat="53.5364033" lon="-1.1998217"><ele>56.0</ele><time>2026-05-02T11:32:22.407Z</time></trkpt><trkpt lat="53.53661" lon="-1.20014"><ele>56.0</ele><time>2026-05-02T11:32:23.405Z</time></trkpt><trkpt lat="53.53682" lon="-1.2004533"><ele>56.5</ele><time>2026-05-02T11:32:24.405Z</time></trkpt><trkpt lat="53.5370267" lon="-1.20077"><ele>57.0</ele><time>2026-05-02T11:32:25.407Z</time></trkpt><trkpt lat="53.5372317" lon="-1.2010883"><ele>57.0</ele><time>2026-05-02T11:32:26.406Z</time></trkpt><trkpt lat="53.5374367" lon="-1.201405"><ele>57.0</ele><time>2026-05-02T11:32:27.405Z</time></trkpt><trkpt lat="53.5376433" lon="-1.2017217"><ele>57.0</ele><time>2026-05-02T11:32:28.402Z</time></trkpt><trkpt lat="53.5378517" lon="-1.2020383"><ele>57.0</ele><time>2026-05-02T11:32:29.402Z</time></trkpt><trkpt lat="53.53806" lon="-1.2023517"><ele>57.0</ele><time>2026-05-02T11:32:30.402Z</time></trkpt><trkpt lat="53.5382733" lon="-1.2026583"><ele>57.0</ele><time>2026-05-02T11:32:31.403Z</time></trkpt><trkpt lat="53.5384883" lon="-1.2029517"><ele>57.5</ele><time>2026-05-02T11:32:32.404Z</time></trkpt><trkpt lat="53.5387083" lon="-1.2032367"><ele>58.0</ele><time>2026-05-02T11:32:33.404Z</time></trkpt><trkpt lat="53.5389333" lon="-1.2035183"><ele>57.0</ele><time>2026-05-02T11:32:34.403Z</time></trkpt><trkpt lat="53.5391583" lon="-1.2037983"><ele>56.0</ele><time>2026-05-02T11:32:35.404Z</time></trkpt><trkpt lat="53.5393833" lon="-1.2040783"><ele>55.0</ele><time>2026-05-02T11:32:36.408Z</time></trkpt><trkpt lat="53.53961" lon="-1.204355"><ele>54.0</ele><time>2026-05-02T11:32:37.406Z</time></trkpt><trkpt lat="53.53984" lon="-1.2046233"><ele>52.0</ele><time>2026-05-02T11:32:38.404Z</time></trkpt><trkpt lat="53.5400717" lon="-1.204885"><ele>50.0</ele><time>2026-05-02T11:32:39.403Z</time></trkpt><trkpt lat="53.5403067" lon="-1.20514"><ele>50.0</ele><time>2026-05-02T11:32:40.404Z</time></trkpt><trkpt lat="53.54054" lon="-1.2053867"><ele>50.0</ele><time>2026-05-02T11:32:41.406Z</time></trkpt><trkpt lat="53.5407767" lon="-1.205625"><ele>49.0</ele><time>2026-05-02T11:32:42.409Z</time></trkpt><trkpt lat="53.54102" lon="-1.205855"><ele>48.0</ele><time>2026-05-02T11:32:43.409Z</time></trkpt><trkpt lat="53.5412633" lon="-1.206085"><ele>44.0</ele><time>2026-05-02T11:32:44.409Z</time></trkpt><trkpt lat="53.5417533" lon="-1.2065383"><ele>44.0</ele><time>2026-05-02T11:32:46.406Z</time></trkpt><trkpt lat="53.5420033" lon="-1.20675"><ele>44.0</ele><time>2026-05-02T11:32:47.405Z</time></trkpt><trkpt lat="53.542255" lon="-1.206955"><ele>43.5</ele><time>2026-05-02T11:32:48.405Z</time></trkpt><trkpt lat="53.5425067" lon="-1.2071567"><ele>43.0</ele><time>2026-05-02T11:32:49.409Z</time></trkpt><trkpt lat="53.5427583" lon="-1.20735"><ele>41.0</ele><time>2026-05-02T11:32:50.407Z</time></trkpt><trkpt lat="53.5430117" lon="-1.2075417"><ele>39.0</ele><time>2026-05-02T11:32:51.411Z</time></trkpt><trkpt lat="53.5432667" lon="-1.2077317"><ele>39.0</ele><time>2026-05-02T11:32:52.405Z</time></trkpt><trkpt lat="53.54352" lon="-1.2079267"><ele>39.0</ele><time>2026-05-02T11:32:53.406Z</time></trkpt><trkpt lat="53.5437717" lon="-1.2081233"><ele>39.0</ele><time>2026-05-02T11:32:54.406Z</time></trkpt><trkpt lat="53.544025" lon="-1.2083217"><ele>39.0</ele><time>2026-05-02T11:32:55.405Z</time></trkpt><trkpt lat="53.5442767" lon="-1.2085217"><ele>39.0</ele><time>2026-05-02T11:32:56.406Z</time></trkpt><trkpt lat="53.5445267" lon="-1.20872"><ele>39.0</ele><time>2026-05-02T11:32:57.406Z</time></trkpt><trkpt lat="53.54478" lon="-1.2089167"><ele>39.5</ele><time>2026-05-02T11:32:58.402Z</time></trkpt><trkpt lat="53.545035" lon="-1.2091133"><ele>40.0</ele><time>2026-05-02T11:32:59.405Z</time></trkpt><trkpt lat="53.5452867" lon="-1.2093117"><ele>41.5</ele><time>2026-05-02T11:33:00.405Z</time></trkpt><trkpt lat="53.54554" lon="-1.2095083"><ele>43.0</ele><time>2026-05-02T11:33:01.405Z</time></trkpt><trkpt lat="53.545795" lon="-1.2097033"><ele>44.0</ele><time>2026-05-02T11:33:02.407Z</time></trkpt><trkpt lat="53.5463083" lon="-1.21009"><ele>44.0</ele><time>2026-05-02T11:33:04.405Z</time></trkpt><trkpt lat="53.5468233" lon="-1.2104767"><ele>43.0</ele><time>2026-05-02T11:33:06.406Z</time></trkpt><trkpt lat="53.5470817" lon="-1.2106733"><ele>42.0</ele><time>2026-05-02T11:33:07.406Z</time></trkpt><trkpt lat="53.54734" lon="-1.21087"><ele>42.0</ele><time>2026-05-02T11:33:08.409Z</time></trkpt><trkpt lat="53.5475933" lon="-1.21106"><ele>42.0</ele><time>2026-05-02T11:33:09.405Z</time></trkpt><trkpt lat="53.5480767" lon="-1.211425"><ele>33.0</ele><time>2026-05-02T11:33:11.404Z</time></trkpt><trkpt lat="53.5490083" lon="-1.2121417"><ele>33.0</ele><time>2026-05-02T11:33:15.402Z</time></trkpt><trkpt lat="53.5499617" lon="-1.21286"><ele>31.0</ele><time>2026-05-02T11:33:19.407Z</time></trkpt><trkpt lat="53.55139" lon="-1.213925"><ele>32.0</ele><time>2026-05-02T11:33:25.404Z</time></trkpt><trkpt lat="53.5523733" lon="-1.21456"><ele>33.0</ele><time>2026-05-02T11:33:29.406Z</time></trkpt><trkpt lat="53.553815" lon="-1.215285"><ele>37.0</ele><time>2026-05-02T11:33:34.403Z</time></trkpt><trkpt lat="53.5556033" lon="-1.215975"><ele>37.0</ele><time>2026-05-02T11:33:40.404Z</time></trkpt><trkpt lat="53.5568717" lon="-1.2162767"><ele>34.0</ele><time>2026-05-02T11:33:44.407Z</time></trkpt><trkpt lat="53.5584933" lon="-1.21647"><ele>29.0</ele><time>2026-05-02T11:33:49.403Z</time></trkpt><trkpt lat="53.55916" lon="-1.2165"><ele>33.0</ele><time>2026-05-02T11:33:51.403Z</time></trkpt><trkpt lat="53.56151" lon="-1.21697"><ele>39.0</ele><time>2026-05-02T11:33:58.403Z</time></trkpt><trkpt lat="53.562155" lon="-1.217175"><ele>45.0</ele><time>2026-05-02T11:34:00.403Z</time></trkpt><trkpt lat="53.56429" lon="-1.2180333"><ele>51.0</ele><time>2026-05-02T11:34:07.41Z</time></trkpt><trkpt lat="53.5655367" lon="-1.2185783"><ele>51.0</ele><time>2026-05-02T11:34:11.404Z</time></trkpt><trkpt lat="53.5664433" lon="-1.2188517"><ele>50.0</ele><time>2026-05-02T11:34:14.407Z</time></trkpt><trkpt lat="53.5679567" lon="-1.2190133"><ele>49.0</ele><time>2026-05-02T11:34:19.402Z</time></trkpt><trkpt lat="53.5685683" lon="-1.2189833"><ele>48.0</ele><time>2026-05-02T11:34:21.404Z</time></trkpt><trkpt lat="53.5694833" lon="-1.2187967"><ele>48.5</ele><time>2026-05-02T11:34:24.404Z</time></trkpt><trkpt lat="53.5697833" lon="-1.218705"><ele>49.0</ele><time>2026-05-02T11:34:25.405Z</time></trkpt><trkpt lat="53.57066" lon="-1.2183983"><ele>46.0</ele><time>2026-05-02T11:34:28.402Z</time></trkpt><trkpt lat="53.5714533" lon="-1.2180117"><ele>45.0</ele><time>2026-05-02T11:34:31.409Z</time></trkpt><trkpt lat="53.5721783" lon="-1.2175483"><ele>47.0</ele><time>2026-05-02T11:34:34.405Z</time></trkpt><trkpt lat="53.57262" lon="-1.2172133"><ele>46.0</ele><time>2026-05-02T11:34:36.402Z</time></trkpt><trkpt lat="53.5732467" lon="-1.2166767"><ele>43.0</ele><time>2026-05-02T11:34:39.402Z</time></trkpt><trkpt lat="53.5738467" lon="-1.2160833"><ele>43.0</ele><time>2026-05-02T11:34:42.404Z</time></trkpt><trkpt lat="53.5744533" lon="-1.215435"><ele>41.0</ele><time>2026-05-02T11:34:45.405Z</time></trkpt><trkpt lat="53.5748717" lon="-1.21502"><ele>38.0</ele><time>2026-05-02T11:34:47.406Z</time></trkpt><trkpt lat="53.5759733" lon="-1.2140583"><ele>35.0</ele><time>2026-05-02T11:34:52.403Z</time></trkpt><trkpt lat="53.57694" lon="-1.2133533"><ele>32.0</ele><time>2026-05-02T11:34:56.407Z</time></trkpt><trkpt lat="53.5774333" lon="-1.213025"><ele>31.0</ele><time>2026-05-02T11:34:58.404Z</time></trkpt><trkpt lat="53.5784433" lon="-1.2124467"><ele>26.0</ele><time>2026-05-02T11:35:02.403Z</time></trkpt><trkpt lat="53.5792217" lon="-1.212025"><ele>24.0</ele><time>2026-05-02T11:35:05.405Z</time></trkpt><trkpt lat="53.580295" lon="-1.21165"><ele>17.0</ele><time>2026-05-02T11:35:09.404Z</time></trkpt><trkpt lat="53.5813883" lon="-1.211565"><ele>14.0</ele><time>2026-05-02T11:35:13.402Z</time></trkpt><trkpt lat="53.583045" lon="-1.21191"><ele>14.0</ele><time>2026-05-02T11:35:19.402Z</time></trkpt><trkpt lat="53.58439" lon="-1.2124933"><ele>19.0</ele><time>2026-05-02T11:35:24.407Z</time></trkpt><trkpt lat="53.5860067" lon="-1.2131783"><ele>28.0</ele><time>2026-05-02T11:35:30.406Z</time></trkpt><trkpt lat="53.587545" lon="-1.2138433"><ele>33.0</ele><time>2026-05-02T11:35:36.41Z</time></trkpt><trkpt lat="53.5887333" lon="-1.2143333"><ele>34.0</ele><time>2026-05-02T11:35:41.406Z</time></trkpt><trkpt lat="53.589975" lon="-1.2148533"><ele>35.0</ele><time>2026-05-02T11:35:46.402Z</time></trkpt><trkpt lat="53.5923883" lon="-1.215845"><ele>38.0</ele><time>2026-05-02T11:35:56.403Z</time></trkpt><trkpt lat="53.593895" lon="-1.2164917"><ele>36.0</ele><time>2026-05-02T11:36:02.402Z</time></trkpt><trkpt lat="53.5951983" lon="-1.216765"><ele>34.0</ele><time>2026-05-02T11:36:07.404Z</time></trkpt><trkpt lat="53.5980783" lon="-1.21717"><ele>33.0</ele><time>2026-05-02T11:36:18.403Z</time></trkpt><trkpt lat="53.6000967" lon="-1.2180717"><ele>31.0</ele><time>2026-05-02T11:36:26.408Z</time></trkpt><trkpt lat="53.6022733" lon="-1.219695"><ele>31.0</ele><time>2026-05-02T11:36:35.406Z</time></trkpt><trkpt lat="53.603475" lon="-1.22053"><ele>32.0</ele><time>2026-05-02T11:36:40.402Z</time></trkpt><trkpt lat="53.6039733" lon="-1.2207783"><ele>36.0</ele><time>2026-05-02T11:36:42.407Z</time></trkpt><trkpt lat="53.605235" lon="-1.221305"><ele>37.0</ele><time>2026-05-02T11:36:47.406Z</time></trkpt><trkpt lat="53.6060033" lon="-1.221625"><ele>40.5</ele><time>2026-05-02T11:36:50.407Z</time></trkpt><trkpt lat="53.6062583" lon="-1.221735"><ele>44.0</ele><time>2026-05-02T11:36:51.406Z</time></trkpt><trkpt lat="53.6065117" lon="-1.2218517"><ele>44.0</ele><time>2026-05-02T11:36:52.406Z</time></trkpt><trkpt lat="53.60676" lon="-1.2219683"><ele>44.0</ele><time>2026-05-02T11:36:53.405Z</time></trkpt><trkpt lat="53.6070083" lon="-1.2220817"><ele>46.5</ele><time>2026-05-02T11:36:54.402Z</time></trkpt><trkpt lat="53.6072583" lon="-1.2221917"><ele>49.0</ele><time>2026-05-02T11:36:55.404Z</time></trkpt><trkpt lat="53.60751" lon="-1.2223033"><ele>49.0</ele><time>2026-05-02T11:36:56.406Z</time></trkpt><trkpt lat="53.6077633" lon="-1.2224183"><ele>49.0</ele><time>2026-05-02T11:36:57.403Z</time></trkpt><trkpt lat="53.6080167" lon="-1.222545"><ele>50.0</ele><time>2026-05-02T11:36:58.403Z</time></trkpt><trkpt lat="53.60827" lon="-1.222685"><ele>51.0</ele><time>2026-05-02T11:36:59.405Z</time></trkpt><trkpt lat="53.608515" lon="-1.2228383"><ele>51.0</ele><time>2026-05-02T11:37:00.402Z</time></trkpt><trkpt lat="53.608755" lon="-1.222995"><ele>51.0</ele><time>2026-05-02T11:37:01.402Z</time></trkpt><trkpt lat="53.60898" lon="-1.2231517"><ele>51.0</ele><time>2026-05-02T11:37:02.403Z</time></trkpt><trkpt lat="53.6092017" lon="-1.223305"><ele>51.0</ele><time>2026-05-02T11:37:03.403Z</time></trkpt><trkpt lat="53.6094133" lon="-1.22346"><ele>54.0</ele><time>2026-05-02T11:37:04.403Z</time></trkpt><trkpt lat="53.609615" lon="-1.2236167"><ele>57.0</ele><time>2026-05-02T11:37:05.403Z</time></trkpt><trkpt lat="53.60981" lon="-1.2237717"><ele>60.0</ele><time>2026-05-02T11:37:06.402Z</time></trkpt><trkpt lat="53.6099983" lon="-1.2239217"><ele>59.33333333333333</ele><time>2026-05-02T11:37:07.403Z</time></trkpt><trkpt lat="53.6101817" lon="-1.2240633"><ele>58.666666666666664</ele><time>2026-05-02T11:37:08.403Z</time></trkpt><trkpt lat="53.610365" lon="-1.2242017"><ele>58.0</ele><time>2026-05-02T11:37:09.403Z</time></trkpt><trkpt lat="53.610545" lon="-1.2243383"><ele>59.33333333333333</ele><time>2026-05-02T11:37:10.403Z</time></trkpt><trkpt lat="53.61073" lon="-1.22447"><ele>60.66666666666667</ele><time>2026-05-02T11:37:11.403Z</time></trkpt><trkpt lat="53.6109183" lon="-1.2246017"><ele>62.0</ele><time>2026-05-02T11:37:12.404Z</time></trkpt><trkpt lat="53.6111033" lon="-1.2247367"><ele>62.333333333333336</ele><time>2026-05-02T11:37:13.403Z</time></trkpt><trkpt lat="53.6112833" lon="-1.224875"><ele>62.66666666666667</ele><time>2026-05-02T11:37:14.404Z</time></trkpt><trkpt lat="53.6114583" lon="-1.2250117"><ele>63.0</ele><time>2026-05-02T11:37:15.405Z</time></trkpt><trkpt lat="53.61163" lon="-1.2251483"><ele>63.0</ele><time>2026-05-02T11:37:16.403Z</time></trkpt><trkpt lat="53.611805" lon="-1.2252833"><ele>63.0</ele><time>2026-05-02T11:37:17.406Z</time></trkpt><trkpt lat="53.6119817" lon="-1.225415"><ele>63.0</ele><time>2026-05-02T11:37:18.402Z</time></trkpt><trkpt lat="53.6121633" lon="-1.2255467"><ele>63.66666666666667</ele><time>2026-05-02T11:37:19.404Z</time></trkpt><trkpt lat="53.61234" lon="-1.2256833"><ele>64.33333333333334</ele><time>2026-05-02T11:37:20.406Z</time></trkpt><trkpt lat="53.612515" lon="-1.2258217"><ele>65.0</ele><time>2026-05-02T11:37:21.406Z</time></trkpt><trkpt lat="53.612685" lon="-1.2259567"><ele>65.66666666666667</ele><time>2026-05-02T11:37:22.404Z</time></trkpt><trkpt lat="53.6128517" lon="-1.226095"><ele>66.33333333333333</ele><time>2026-05-02T11:37:23.406Z</time></trkpt><trkpt lat="53.61302" lon="-1.2262283"><ele>67.0</ele><time>2026-05-02T11:37:24.404Z</time></trkpt><trkpt lat="53.61319" lon="-1.22636"><ele>66.66666666666666</ele><time>2026-05-02T11:37:25.405Z</time></trkpt><trkpt lat="53.6133617" lon="-1.2264917"><ele>66.33333333333333</ele><time>2026-05-02T11:37:26.407Z</time></trkpt><trkpt lat="53.613535" lon="-1.2266267"><ele>66.0</ele><time>2026-05-02T11:37:27.406Z</time></trkpt><trkpt lat="53.6137167" lon="-1.2267667"><ele>67.0</ele><time>2026-05-02T11:37:28.405Z</time></trkpt><trkpt lat="53.6139017" lon="-1.2269117"><ele>68.0</ele><time>2026-05-02T11:37:29.405Z</time></trkpt><trkpt lat="53.61409" lon="-1.2270567"><ele>69.0</ele><time>2026-05-02T11:37:30.405Z</time></trkpt><trkpt lat="53.6142767" lon="-1.2272017"><ele>68.66666666666667</ele><time>2026-05-02T11:37:31.406Z</time></trkpt><trkpt lat="53.6144583" lon="-1.22735"><ele>68.33333333333334</ele><time>2026-05-02T11:37:32.407Z</time></trkpt><trkpt lat="53.6146417" lon="-1.2274933"><ele>68.0</ele><time>2026-05-02T11:37:33.405Z</time></trkpt><trkpt lat="53.614825" lon="-1.2276417"><ele>69.0</ele><time>2026-05-02T11:37:34.406Z</time></trkpt><trkpt lat="53.6150083" lon="-1.2277933"><ele>70.0</ele><time>2026-05-02T11:37:35.405Z</time></trkpt><trkpt lat="53.6151883" lon="-1.2279567"><ele>71.0</ele><time>2026-05-02T11:37:36.405Z</time></trkpt><trkpt lat="53.6153683" lon="-1.2281333"><ele>71.66666666666667</ele><time>2026-05-02T11:37:37.405Z</time></trkpt><trkpt lat="53.6155517" lon="-1.228325"><ele>72.33333333333333</ele><time>2026-05-02T11:37:38.406Z</time></trkpt><trkpt lat="53.6157417" lon="-1.2285267"><ele>73.0</ele><time>2026-05-02T11:37:39.402Z</time></trkpt><trkpt lat="53.6159383" lon="-1.2287367"><ele>73.0</ele><time>2026-05-02T11:37:40.405Z</time></trkpt><trkpt lat="53.6161433" lon="-1.2289517"><ele>73.0</ele><time>2026-05-02T11:37:41.405Z</time></trkpt><trkpt lat="53.6163467" lon="-1.22917"><ele>72.5</ele><time>2026-05-02T11:37:42.406Z</time></trkpt><trkpt lat="53.6165467" lon="-1.2293867"><ele>72.0</ele><time>2026-05-02T11:37:43.404Z</time></trkpt><trkpt lat="53.6167433" lon="-1.2296017"><ele>72.5</ele><time>2026-05-02T11:37:44.407Z</time></trkpt><trkpt lat="53.6169433" lon="-1.2298167"><ele>73.0</ele><time>2026-05-02T11:37:45.405Z</time></trkpt><trkpt lat="53.6171417" lon="-1.2300317"><ele>73.0</ele><time>2026-05-02T11:37:46.406Z</time></trkpt><trkpt lat="53.617345" lon="-1.230245"><ele>73.0</ele><time>2026-05-02T11:37:47.405Z</time></trkpt><trkpt lat="53.6175433" lon="-1.2304617"><ele>73.0</ele><time>2026-05-02T11:37:48.405Z</time></trkpt><trkpt lat="53.617745" lon="-1.2306767"><ele>73.0</ele><time>2026-05-02T11:37:49.405Z</time></trkpt><trkpt lat="53.6179467" lon="-1.2308883"><ele>74.5</ele><time>2026-05-02T11:37:50.402Z</time></trkpt><trkpt lat="53.6181567" lon="-1.2310983"><ele>76.0</ele><time>2026-05-02T11:37:51.406Z</time></trkpt><trkpt lat="53.6183633" lon="-1.2313017"><ele>75.5</ele><time>2026-05-02T11:37:52.405Z</time></trkpt><trkpt lat="53.6185667" lon="-1.2315017"><ele>75.0</ele><time>2026-05-02T11:37:53.404Z</time></trkpt><trkpt lat="53.6187817" lon="-1.2316883"><ele>71.0</ele><time>2026-05-02T11:37:54.401Z</time></trkpt><trkpt lat="53.6190017" lon="-1.2318717"><ele>67.0</ele><time>2026-05-02T11:37:55.401Z</time></trkpt><trkpt lat="53.6192267" lon="-1.2320467"><ele>67.0</ele><time>2026-05-02T11:37:56.405Z</time></trkpt><trkpt lat="53.6194533" lon="-1.2322217"><ele>67.0</ele><time>2026-05-02T11:37:57.406Z</time></trkpt><trkpt lat="53.6196817" lon="-1.2324017"><ele>62.5</ele><time>2026-05-02T11:37:58.402Z</time></trkpt><trkpt lat="53.61991" lon="-1.2325833"><ele>58.0</ele><time>2026-05-02T11:37:59.406Z</time></trkpt><trkpt lat="53.6201417" lon="-1.2327633"><ele>57.5</ele><time>2026-05-02T11:38:00.404Z</time></trkpt><trkpt lat="53.6203683" lon="-1.2329467"><ele>57.0</ele><time>2026-05-02T11:38:01.406Z</time></trkpt><trkpt lat="53.6206" lon="-1.23313"><ele>57.0</ele><time>2026-05-02T11:38:02.406Z</time></trkpt><trkpt lat="53.620835" lon="-1.2333117"><ele>57.0</ele><time>2026-05-02T11:38:03.406Z</time></trkpt><trkpt lat="53.6241" lon="-1.2359"><ele>56.66666666666667</ele><time>2026-05-02T11:38:16.846Z</time></trkpt><trkpt lat="53.624165" lon="-1.2360117"><ele>56.333333333333336</ele><time>2026-05-02T11:38:17.345Z</time></trkpt><trkpt lat="53.6242817" lon="-1.2361367"><ele>56.0</ele><time>2026-05-02T11:38:17.903Z</time></trkpt><trkpt lat="53.6246267" lon="-1.2364617"><ele>57.0</ele><time>2026-05-02T11:38:19.402Z</time></trkpt><trkpt lat="53.625085" lon="-1.236895"><ele>57.0</ele><time>2026-05-02T11:38:21.404Z</time></trkpt><trkpt lat="53.62531" lon="-1.2371117"><ele>57.0</ele><time>2026-05-02T11:38:22.405Z</time></trkpt><trkpt lat="53.6255383" lon="-1.2373167"><ele>56.5</ele><time>2026-05-02T11:38:23.403Z</time></trkpt><trkpt lat="53.6257667" lon="-1.2375183"><ele>56.0</ele><time>2026-05-02T11:38:24.403Z</time></trkpt><trkpt lat="53.6259917" lon="-1.2377183"><ele>55.5</ele><time>2026-05-02T11:38:25.403Z</time></trkpt><trkpt lat="53.6262167" lon="-1.2379067"><ele>55.0</ele><time>2026-05-02T11:38:26.404Z</time></trkpt><trkpt lat="53.626435" lon="-1.2380833"><ele>55.0</ele><time>2026-05-02T11:38:27.405Z</time></trkpt><trkpt lat="53.6266417" lon="-1.2382517"><ele>55.0</ele><time>2026-05-02T11:38:28.402Z</time></trkpt><trkpt lat="53.6268417" lon="-1.238415"><ele>54.0</ele><time>2026-05-02T11:38:29.402Z</time></trkpt><trkpt lat="53.62704" lon="-1.238575"><ele>53.0</ele><time>2026-05-02T11:38:30.404Z</time></trkpt><trkpt lat="53.6272383" lon="-1.23873"><ele>52.0</ele><time>2026-05-02T11:38:31.403Z</time></trkpt><trkpt lat="53.6274417" lon="-1.2388817"><ele>52.0</ele><time>2026-05-02T11:38:32.404Z</time></trkpt><trkpt lat="53.6276517" lon="-1.2390383"><ele>52.0</ele><time>2026-05-02T11:38:33.404Z</time></trkpt><trkpt lat="53.6278717" lon="-1.2392017"><ele>50.5</ele><time>2026-05-02T11:38:34.403Z</time></trkpt><trkpt lat="53.6280983" lon="-1.23937"><ele>49.0</ele><time>2026-05-02T11:38:35.403Z</time></trkpt><trkpt lat="53.6283283" lon="-1.23954"><ele>49.0</ele><time>2026-05-02T11:38:36.402Z</time></trkpt><trkpt lat="53.6285667" lon="-1.2397067"><ele>49.0</ele><time>2026-05-02T11:38:37.404Z</time></trkpt><trkpt lat="53.62881" lon="-1.239875"><ele>51.5</ele><time>2026-05-02T11:38:38.402Z</time></trkpt><trkpt lat="53.6290633" lon="-1.2400367"><ele>54.0</ele><time>2026-05-02T11:38:39.402Z</time></trkpt><trkpt lat="53.6293167" lon="-1.2401933"><ele>56.5</ele><time>2026-05-02T11:38:40.403Z</time></trkpt><trkpt lat="53.6295717" lon="-1.2403433"><ele>59.0</ele><time>2026-05-02T11:38:41.403Z</time></trkpt><trkpt lat="53.6298233" lon="-1.2404867"><ele>59.0</ele><time>2026-05-02T11:38:42.402Z</time></trkpt><trkpt lat="53.6300683" lon="-1.2406217"><ele>59.0</ele><time>2026-05-02T11:38:43.405Z</time></trkpt><trkpt lat="53.6303133" lon="-1.2407517"><ele>63.5</ele><time>2026-05-02T11:38:44.404Z</time></trkpt><trkpt lat="53.630565" lon="-1.240885"><ele>68.0</ele><time>2026-05-02T11:38:45.405Z</time></trkpt><trkpt lat="53.6308233" lon="-1.241025"><ele>68.0</ele><time>2026-05-02T11:38:46.403Z</time></trkpt><trkpt lat="53.63109" lon="-1.2411683"><ele>68.0</ele><time>2026-05-02T11:38:47.403Z</time></trkpt><trkpt lat="53.6313617" lon="-1.2413183"><ele>69.0</ele><time>2026-05-02T11:38:48.403Z</time></trkpt><trkpt lat="53.63163" lon="-1.2414833"><ele>70.0</ele><time>2026-05-02T11:38:49.404Z</time></trkpt><trkpt lat="53.631885" lon="-1.2416767"><ele>70.0</ele><time>2026-05-02T11:38:50.405Z</time></trkpt><trkpt lat="53.6321333" lon="-1.2418783"><ele>70.0</ele><time>2026-05-02T11:38:51.405Z</time></trkpt><trkpt lat="53.63237" lon="-1.2420867"><ele>70.0</ele><time>2026-05-02T11:38:52.402Z</time></trkpt><trkpt lat="53.6326017" lon="-1.2422967"><ele>70.0</ele><time>2026-05-02T11:38:53.404Z</time></trkpt><trkpt lat="53.6328317" lon="-1.2425167"><ele>70.5</ele><time>2026-05-02T11:38:54.404Z</time></trkpt><trkpt lat="53.6330583" lon="-1.2427517"><ele>71.0</ele><time>2026-05-02T11:38:55.402Z</time></trkpt><trkpt lat="53.6332817" lon="-1.2430017"><ele>72.0</ele><time>2026-05-02T11:38:56.404Z</time></trkpt><trkpt lat="53.6334983" lon="-1.243265"><ele>73.0</ele><time>2026-05-02T11:38:57.404Z</time></trkpt><trkpt lat="53.6337083" lon="-1.2435383"><ele>71.5</ele><time>2026-05-02T11:38:58.404Z</time></trkpt><trkpt lat="53.63391" lon="-1.243815"><ele>70.0</ele><time>2026-05-02T11:38:59.404Z</time></trkpt><trkpt lat="53.634105" lon="-1.2440983"><ele>70.0</ele><time>2026-05-02T11:39:00.404Z</time></trkpt><trkpt lat="53.6342983" lon="-1.2443833"><ele>70.0</ele><time>2026-05-02T11:39:01.404Z</time></trkpt><trkpt lat="53.6344883" lon="-1.24467"><ele>69.0</ele><time>2026-05-02T11:39:02.404Z</time></trkpt><trkpt lat="53.6346765" lon="-1.24495"><ele>68.0</ele><time>2026-05-02T11:39:03.404Z</time></trkpt><trkpt lat="53.6348616" lon="-1.2452254"><ele>68.0</ele><time>2026-05-02T11:39:04.405Z</time></trkpt><trkpt lat="53.6350516" lon="-1.2455029"><ele>68.0</ele><time>2026-05-02T11:39:05.404Z</time></trkpt><trkpt lat="53.6352494" lon="-1.2457818"><ele>66.0</ele><time>2026-05-02T11:39:06.405Z</time></trkpt><trkpt lat="53.6354481" lon="-1.2460646"><ele>64.0</ele><time>2026-05-02T11:39:07.403Z</time></trkpt><trkpt lat="53.6356453" lon="-1.2463534"><ele>65.5</ele><time>2026-05-02T11:39:08.403Z</time></trkpt><trkpt lat="53.6358418" lon="-1.2466421"><ele>67.0</ele><time>2026-05-02T11:39:09.405Z</time></trkpt><trkpt lat="53.6360353" lon="-1.246934"><ele>66.0</ele><time>2026-05-02T11:39:10.404Z</time></trkpt><trkpt lat="53.6362283" lon="-1.2472244"><ele>65.0</ele><time>2026-05-02T11:39:11.403Z</time></trkpt><trkpt lat="53.6364181" lon="-1.2475145"><ele>65.0</ele><time>2026-05-02T11:39:12.404Z</time></trkpt><trkpt lat="53.6366124" lon="-1.2478033"><ele>65.0</ele><time>2026-05-02T11:39:13.402Z</time></trkpt><trkpt lat="53.6368119" lon="-1.2481005"><ele>64.0</ele><time>2026-05-02T11:39:14.404Z</time></trkpt><trkpt lat="53.6370174" lon="-1.2484026"><ele>63.0</ele><time>2026-05-02T11:39:15.404Z</time></trkpt><trkpt lat="53.6372216" lon="-1.2486974"><ele>63.0</ele><time>2026-05-02T11:39:16.403Z</time></trkpt><trkpt lat="53.6374243" lon="-1.2489914"><ele>63.0</ele><time>2026-05-02T11:39:17.404Z</time></trkpt><trkpt lat="53.6376257" lon="-1.2492853"><ele>62.5</ele><time>2026-05-02T11:39:18.404Z</time></trkpt><trkpt lat="53.6378274" lon="-1.2495812"><ele>62.0</ele><time>2026-05-02T11:39:19.405Z</time></trkpt><trkpt lat="53.6380267" lon="-1.249879"><ele>62.0</ele><time>2026-05-02T11:39:20.405Z</time></trkpt><trkpt lat="53.638226" lon="-1.2501701"><ele>62.0</ele><time>2026-05-02T11:39:21.404Z</time></trkpt><trkpt lat="53.6384233" lon="-1.2504561"><ele>62.0</ele><time>2026-05-02T11:39:22.404Z</time></trkpt><trkpt lat="53.6386166" lon="-1.2507447"><ele>62.0</ele><time>2026-05-02T11:39:23.404Z</time></trkpt><trkpt lat="53.6388087" lon="-1.2510358"><ele>61.5</ele><time>2026-05-02T11:39:24.404Z</time></trkpt><trkpt lat="53.6389994" lon="-1.2513274"><ele>61.0</ele><time>2026-05-02T11:39:25.402Z</time></trkpt><trkpt lat="53.6391908" lon="-1.2516142"><ele>61.0</ele><time>2026-05-02T11:39:26.404Z</time></trkpt><trkpt lat="53.6393826" lon="-1.2518963"><ele>61.0</ele><time>2026-05-02T11:39:27.404Z</time></trkpt><trkpt lat="53.6395744" lon="-1.2521778"><ele>61.0</ele><time>2026-05-02T11:39:28.403Z</time></trkpt><trkpt lat="53.6397692" lon="-1.2524535"><ele>61.0</ele><time>2026-05-02T11:39:29.404Z</time></trkpt><trkpt lat="53.6399681" lon="-1.2527276"><ele>61.0</ele><time>2026-05-02T11:39:30.405Z</time></trkpt><trkpt lat="53.6401708" lon="-1.2529912"><ele>61.0</ele><time>2026-05-02T11:39:31.404Z</time></trkpt><trkpt lat="53.6403774" lon="-1.2532413"><ele>61.0</ele><time>2026-05-02T11:39:32.406Z</time></trkpt><trkpt lat="53.6405904" lon="-1.2534796"><ele>61.0</ele><time>2026-05-02T11:39:33.406Z</time></trkpt><trkpt lat="53.6408085" lon="-1.2537059"><ele>61.0</ele><time>2026-05-02T11:39:34.405Z</time></trkpt><trkpt lat="53.6410307" lon="-1.253921"><ele>61.0</ele><time>2026-05-02T11:39:35.405Z</time></trkpt><trkpt lat="53.6412572" lon="-1.2541257"><ele>61.0</ele><time>2026-05-02T11:39:36.405Z</time></trkpt><trkpt lat="53.6414885" lon="-1.2543166"><ele>61.0</ele><time>2026-05-02T11:39:37.406Z</time></trkpt><trkpt lat="53.6417196" lon="-1.2544964"><ele>61.0</ele><time>2026-05-02T11:39:38.406Z</time></trkpt><trkpt lat="53.6419484" lon="-1.2546685"><ele>61.0</ele><time>2026-05-02T11:39:39.404Z</time></trkpt><trkpt lat="53.6421785" lon="-1.2548305"><ele>62.5</ele><time>2026-05-02T11:39:40.405Z</time></trkpt><trkpt lat="53.6424101" lon="-1.2549765"><ele>64.0</ele><time>2026-05-02T11:39:41.405Z</time></trkpt><trkpt lat="53.6426446" lon="-1.2551085"><ele>63.5</ele><time>2026-05-02T11:39:42.405Z</time></trkpt><trkpt lat="53.6428851" lon="-1.2552335"><ele>63.0</ele><time>2026-05-02T11:39:43.405Z</time></trkpt><trkpt lat="53.6431286" lon="-1.2553516"><ele>63.0</ele><time>2026-05-02T11:39:44.407Z</time></trkpt><trkpt lat="53.6433737" lon="-1.2554576"><ele>63.0</ele><time>2026-05-02T11:39:45.405Z</time></trkpt><trkpt lat="53.6436196" lon="-1.2555523"><ele>62.0</ele><time>2026-05-02T11:39:46.405Z</time></trkpt><trkpt lat="53.6438677" lon="-1.2556364"><ele>61.0</ele><time>2026-05-02T11:39:47.405Z</time></trkpt><trkpt lat="53.6441163" lon="-1.2557051"><ele>61.0</ele><time>2026-05-02T11:39:48.403Z</time></trkpt><trkpt lat="53.6443663" lon="-1.255764"><ele>61.0</ele><time>2026-05-02T11:39:49.404Z</time></trkpt><trkpt lat="53.6446178" lon="-1.2558127"><ele>60.5</ele><time>2026-05-02T11:39:50.405Z</time></trkpt><trkpt lat="53.6448695" lon="-1.2558489"><ele>60.0</ele><time>2026-05-02T11:39:51.403Z</time></trkpt><trkpt lat="53.6451214" lon="-1.2558737"><ele>59.5</ele><time>2026-05-02T11:39:52.403Z</time></trkpt><trkpt lat="53.6453732" lon="-1.2558835"><ele>59.0</ele><time>2026-05-02T11:39:53.403Z</time></trkpt><trkpt lat="53.6456265" lon="-1.2558826"><ele>59.0</ele><time>2026-05-02T11:39:54.402Z</time></trkpt><trkpt lat="53.6458799" lon="-1.2558738"><ele>59.0</ele><time>2026-05-02T11:39:55.403Z</time></trkpt><trkpt lat="53.6461335" lon="-1.255856"><ele>58.5</ele><time>2026-05-02T11:39:56.404Z</time></trkpt><trkpt lat="53.6463854" lon="-1.2558333"><ele>58.0</ele><time>2026-05-02T11:39:57.403Z</time></trkpt><trkpt lat="53.6466362" lon="-1.2558034"><ele>58.0</ele><time>2026-05-02T11:39:58.405Z</time></trkpt><trkpt lat="53.6468928" lon="-1.255758"><ele>58.0</ele><time>2026-05-02T11:39:59.403Z</time></trkpt><trkpt lat="53.6471599" lon="-1.2557086"><ele>55.5</ele><time>2026-05-02T11:40:00.403Z</time></trkpt><trkpt lat="53.647432" lon="-1.2556586"><ele>53.0</ele><time>2026-05-02T11:40:01.41Z</time></trkpt><trkpt lat="53.6477061" lon="-1.2556144"><ele>47.5</ele><time>2026-05-02T11:40:02.403Z</time></trkpt><trkpt lat="53.6479861" lon="-1.2555728"><ele>42.0</ele><time>2026-05-02T11:40:03.403Z</time></trkpt><trkpt lat="53.6482702" lon="-1.2555318"><ele>42.0</ele><time>2026-05-02T11:40:04.405Z</time></trkpt><trkpt lat="53.6485573" lon="-1.2554867"><ele>42.0</ele><time>2026-05-02T11:40:05.41Z</time></trkpt><trkpt lat="53.6488439" lon="-1.2554402"><ele>39.5</ele><time>2026-05-02T11:40:06.406Z</time></trkpt><trkpt lat="53.6491298" lon="-1.2553923"><ele>37.0</ele><time>2026-05-02T11:40:07.406Z</time></trkpt><trkpt lat="53.6494148" lon="-1.2553416"><ele>44.0</ele><time>2026-05-02T11:40:08.405Z</time></trkpt><trkpt lat="53.6496998" lon="-1.2552967"><ele>51.0</ele><time>2026-05-02T11:40:09.405Z</time></trkpt><trkpt lat="53.6499888" lon="-1.2552657"><ele>51.0</ele><time>2026-05-02T11:40:10.407Z</time></trkpt><trkpt lat="53.6502811" lon="-1.2552579"><ele>51.0</ele><time>2026-05-02T11:40:11.403Z</time></trkpt><trkpt lat="53.6505792" lon="-1.2552738"><ele>53.0</ele><time>2026-05-02T11:40:12.406Z</time></trkpt><trkpt lat="53.6508792" lon="-1.255316"><ele>55.0</ele><time>2026-05-02T11:40:13.405Z</time></trkpt><trkpt lat="53.6511799" lon="-1.2553863"><ele>55.5</ele><time>2026-05-02T11:40:14.404Z</time></trkpt><trkpt lat="53.6514788" lon="-1.2554953"><ele>56.0</ele><time>2026-05-02T11:40:15.405Z</time></trkpt><trkpt lat="53.6517688" lon="-1.2556524"><ele>58.0</ele><time>2026-05-02T11:40:16.405Z</time></trkpt><trkpt lat="53.6520429" lon="-1.2558372"><ele>60.0</ele><time>2026-05-02T11:40:17.405Z</time></trkpt><trkpt lat="53.6523038" lon="-1.2560331"><ele>60.0</ele><time>2026-05-02T11:40:18.402Z</time></trkpt><trkpt lat="53.6525537" lon="-1.2562355"><ele>60.0</ele><time>2026-05-02T11:40:19.402Z</time></trkpt><trkpt lat="53.6527937" lon="-1.2564467"><ele>62.5</ele><time>2026-05-02T11:40:20.402Z</time></trkpt><trkpt lat="53.6530232" lon="-1.256672"><ele>65.0</ele><time>2026-05-02T11:40:21.403Z</time></trkpt><trkpt lat="53.653243" lon="-1.2569107"><ele>65.0</ele><time>2026-05-02T11:40:22.405Z</time></trkpt><trkpt lat="53.6534515" lon="-1.2571593"><ele>65.0</ele><time>2026-05-02T11:40:23.403Z</time></trkpt><trkpt lat="53.6536525" lon="-1.2574218"><ele>67.0</ele><time>2026-05-02T11:40:24.403Z</time></trkpt><trkpt lat="53.6538446" lon="-1.2576994"><ele>69.0</ele><time>2026-05-02T11:40:25.403Z</time></trkpt><trkpt lat="53.6540277" lon="-1.2579913"><ele>68.5</ele><time>2026-05-02T11:40:26.403Z</time></trkpt><trkpt lat="53.6542041" lon="-1.2582951"><ele>68.0</ele><time>2026-05-02T11:40:27.402Z</time></trkpt><trkpt lat="53.6543766" lon="-1.2586098"><ele>67.5</ele><time>2026-05-02T11:40:28.403Z</time></trkpt><trkpt lat="53.6545502" lon="-1.2589326"><ele>67.0</ele><time>2026-05-02T11:40:29.406Z</time></trkpt><trkpt lat="53.6547247" lon="-1.2592585"><ele>67.0</ele><time>2026-05-02T11:40:30.402Z</time></trkpt><trkpt lat="53.6549029" lon="-1.2595853"><ele>67.0</ele><time>2026-05-02T11:40:31.405Z</time></trkpt><trkpt lat="53.6550819" lon="-1.259912"><ele>67.5</ele><time>2026-05-02T11:40:32.405Z</time></trkpt><trkpt lat="53.6552607" lon="-1.2602398"><ele>68.0</ele><time>2026-05-02T11:40:33.404Z</time></trkpt><trkpt lat="53.6554381" lon="-1.2605682"><ele>67.0</ele><time>2026-05-02T11:40:34.405Z</time></trkpt><trkpt lat="53.6556159" lon="-1.2608955"><ele>66.0</ele><time>2026-05-02T11:40:35.406Z</time></trkpt><trkpt lat="53.6557924" lon="-1.2612243"><ele>65.0</ele><time>2026-05-02T11:40:36.405Z</time></trkpt><trkpt lat="53.655969" lon="-1.2615544"><ele>64.0</ele><time>2026-05-02T11:40:37.408Z</time></trkpt><trkpt lat="53.6561452" lon="-1.2618827"><ele>63.5</ele><time>2026-05-02T11:40:38.407Z</time></trkpt><trkpt lat="53.6563227" lon="-1.2622039"><ele>63.0</ele><time>2026-05-02T11:40:39.405Z</time></trkpt><trkpt lat="53.6564996" lon="-1.2625236"><ele>63.0</ele><time>2026-05-02T11:40:40.405Z</time></trkpt><trkpt lat="53.6566747" lon="-1.2628435"><ele>63.0</ele><time>2026-05-02T11:40:41.406Z</time></trkpt><trkpt lat="53.6568482" lon="-1.2631644"><ele>63.0</ele><time>2026-05-02T11:40:42.405Z</time></trkpt><trkpt lat="53.6570242" lon="-1.263482"><ele>63.0</ele><time>2026-05-02T11:40:43.406Z</time></trkpt><trkpt lat="53.6572036" lon="-1.2637951"><ele>63.5</ele><time>2026-05-02T11:40:44.407Z</time></trkpt><trkpt lat="53.6573866" lon="-1.2641023"><ele>64.0</ele><time>2026-05-02T11:40:45.404Z</time></trkpt><trkpt lat="53.657576" lon="-1.2644048"><ele>64.0</ele><time>2026-05-02T11:40:46.41Z</time></trkpt><trkpt lat="53.6577689" lon="-1.2646958"><ele>64.0</ele><time>2026-05-02T11:40:47.406Z</time></trkpt><trkpt lat="53.6579701" lon="-1.2649718"><ele>63.5</ele><time>2026-05-02T11:40:48.405Z</time></trkpt><trkpt lat="53.6581773" lon="-1.265232"><ele>63.0</ele><time>2026-05-02T11:40:49.404Z</time></trkpt><trkpt lat="53.658391" lon="-1.2654731"><ele>64.0</ele><time>2026-05-02T11:40:50.405Z</time></trkpt><trkpt lat="53.6586135" lon="-1.2656932"><ele>65.0</ele><time>2026-05-02T11:40:51.405Z</time></trkpt><trkpt lat="53.6588449" lon="-1.2658917"><ele>62.0</ele><time>2026-05-02T11:40:52.402Z</time></trkpt><trkpt lat="53.6590797" lon="-1.2660744"><ele>59.0</ele><time>2026-05-02T11:40:53.405Z</time></trkpt><trkpt lat="53.6593185" lon="-1.2662382"><ele>58.5</ele><time>2026-05-02T11:40:54.409Z</time></trkpt><trkpt lat="53.6595625" lon="-1.266383"><ele>58.0</ele><time>2026-05-02T11:40:55.407Z</time></trkpt><trkpt lat="53.6598096" lon="-1.2665048"><ele>57.5</ele><time>2026-05-02T11:40:56.404Z</time></trkpt><trkpt lat="53.6600582" lon="-1.2666026"><ele>57.0</ele><time>2026-05-02T11:40:57.404Z</time></trkpt><trkpt lat="53.6603015" lon="-1.2666792"><ele>57.0</ele><time>2026-05-02T11:40:58.404Z</time></trkpt><trkpt lat="53.6605402" lon="-1.2667262"><ele>57.0</ele><time>2026-05-02T11:40:59.406Z</time></trkpt><trkpt lat="53.6607743" lon="-1.2667485"><ele>57.0</ele><time>2026-05-02T11:41:00.409Z</time></trkpt><trkpt lat="53.661003" lon="-1.266752"><ele>57.0</ele><time>2026-05-02T11:41:01.407Z</time></trkpt><trkpt lat="53.661237" lon="-1.266734"><ele>57.0</ele><time>2026-05-02T11:41:02.407Z</time></trkpt><trkpt lat="53.6614844" lon="-1.2666984"><ele>57.0</ele><time>2026-05-02T11:41:03.402Z</time></trkpt><trkpt lat="53.6617437" lon="-1.2666579"><ele>57.5</ele><time>2026-05-02T11:41:04.403Z</time></trkpt><trkpt lat="53.6620173" lon="-1.2666165"><ele>58.0</ele><time>2026-05-02T11:41:05.402Z</time></trkpt><trkpt lat="53.6623005" lon="-1.2665754"><ele>58.0</ele><time>2026-05-02T11:41:06.403Z</time></trkpt><trkpt lat="53.6625857" lon="-1.2665347"><ele>58.0</ele><time>2026-05-02T11:41:07.403Z</time></trkpt><trkpt lat="53.662873" lon="-1.266494"><ele>56.0</ele><time>2026-05-02T11:41:08.402Z</time></trkpt><trkpt lat="53.6631592" lon="-1.2664596"><ele>54.0</ele><time>2026-05-02T11:41:09.405Z</time></trkpt><trkpt lat="53.6634443" lon="-1.2664275"><ele>53.5</ele><time>2026-05-02T11:41:10.403Z</time></trkpt><trkpt lat="53.6637251" lon="-1.2663959"><ele>53.0</ele><time>2026-05-02T11:41:11.403Z</time></trkpt><trkpt lat="53.6640025" lon="-1.2663599"><ele>53.0</ele><time>2026-05-02T11:41:12.406Z</time></trkpt><trkpt lat="53.6642771" lon="-1.2663194"><ele>53.0</ele><time>2026-05-02T11:41:13.402Z</time></trkpt><trkpt lat="53.6645551" lon="-1.2662789"><ele>51.5</ele><time>2026-05-02T11:41:14.405Z</time></trkpt><trkpt lat="53.6648345" lon="-1.2662396"><ele>50.0</ele><time>2026-05-02T11:41:15.405Z</time></trkpt><trkpt lat="53.6651145" lon="-1.2661951"><ele>49.0</ele><time>2026-05-02T11:41:16.403Z</time></trkpt><trkpt lat="53.6653938" lon="-1.2661459"><ele>48.0</ele><time>2026-05-02T11:41:17.405Z</time></trkpt><trkpt lat="53.6656696" lon="-1.2660915"><ele>48.0</ele><time>2026-05-02T11:41:18.402Z</time></trkpt><trkpt lat="53.6659378" lon="-1.2660152"><ele>48.0</ele><time>2026-05-02T11:41:19.404Z</time></trkpt><trkpt lat="53.6662034" lon="-1.2658986"><ele>48.0</ele><time>2026-05-02T11:41:20.403Z</time></trkpt><trkpt lat="53.6664662" lon="-1.2657451"><ele>48.0</ele><time>2026-05-02T11:41:21.402Z</time></trkpt><trkpt lat="53.6667246" lon="-1.2655609"><ele>49.0</ele><time>2026-05-02T11:41:22.402Z</time></trkpt><trkpt lat="53.6669764" lon="-1.2653582"><ele>50.0</ele><time>2026-05-02T11:41:23.403Z</time></trkpt><trkpt lat="53.6672243" lon="-1.2651476"><ele>50.0</ele><time>2026-05-02T11:41:24.406Z</time></trkpt><trkpt lat="53.6674679" lon="-1.2649285"><ele>50.0</ele><time>2026-05-02T11:41:25.407Z</time></trkpt><trkpt lat="53.667705" lon="-1.2647028"><ele>50.5</ele><time>2026-05-02T11:41:26.406Z</time></trkpt><trkpt lat="53.6679411" lon="-1.2644697"><ele>51.0</ele><time>2026-05-02T11:41:27.406Z</time></trkpt><trkpt lat="53.6681743" lon="-1.2642321"><ele>51.0</ele><time>2026-05-02T11:41:28.402Z</time></trkpt><trkpt lat="53.6684074" lon="-1.2639891"><ele>51.0</ele><time>2026-05-02T11:41:29.403Z</time></trkpt><trkpt lat="53.6686375" lon="-1.2637429"><ele>49.5</ele><time>2026-05-02T11:41:30.403Z</time></trkpt><trkpt lat="53.6688658" lon="-1.2634989"><ele>48.0</ele><time>2026-05-02T11:41:31.402Z</time></trkpt><trkpt lat="53.6690975" lon="-1.2632558"><ele>48.5</ele><time>2026-05-02T11:41:32.403Z</time></trkpt><trkpt lat="53.6693349" lon="-1.2630176"><ele>49.0</ele><time>2026-05-02T11:41:33.402Z</time></trkpt><trkpt lat="53.6695777" lon="-1.2627818"><ele>49.5</ele><time>2026-05-02T11:41:34.403Z</time></trkpt><trkpt lat="53.6698258" lon="-1.2625553"><ele>50.0</ele><time>2026-05-02T11:41:35.403Z</time></trkpt><trkpt lat="53.6700781" lon="-1.2623444"><ele>49.0</ele><time>2026-05-02T11:41:36.405Z</time></trkpt><trkpt lat="53.6703348" lon="-1.2621537"><ele>48.0</ele><time>2026-05-02T11:41:37.406Z</time></trkpt><trkpt lat="53.6705967" lon="-1.2619807"><ele>48.0</ele><time>2026-05-02T11:41:38.407Z</time></trkpt><trkpt lat="53.6708646" lon="-1.2618271"><ele>48.0</ele><time>2026-05-02T11:41:39.405Z</time></trkpt><trkpt lat="53.6711393" lon="-1.2616931"><ele>45.5</ele><time>2026-05-02T11:41:40.405Z</time></trkpt><trkpt lat="53.6714167" lon="-1.2615737"><ele>43.0</ele><time>2026-05-02T11:41:41.406Z</time></trkpt><trkpt lat="53.6716928" lon="-1.2614757"><ele>41.5</ele><time>2026-05-02T11:41:42.405Z</time></trkpt><trkpt lat="53.6719723" lon="-1.2613987"><ele>40.0</ele><time>2026-05-02T11:41:43.405Z</time></trkpt><trkpt lat="53.6722554" lon="-1.2613442"><ele>40.0</ele><time>2026-05-02T11:41:44.406Z</time></trkpt><trkpt lat="53.672541" lon="-1.2613078"><ele>40.0</ele><time>2026-05-02T11:41:45.405Z</time></trkpt><trkpt lat="53.6728264" lon="-1.2612968"><ele>39.5</ele><time>2026-05-02T11:41:46.405Z</time></trkpt><trkpt lat="53.673111" lon="-1.2612974"><ele>39.0</ele><time>2026-05-02T11:41:47.404Z</time></trkpt><trkpt lat="53.6733963" lon="-1.2613052"><ele>40.0</ele><time>2026-05-02T11:41:48.407Z</time></trkpt><trkpt lat="53.6736814" lon="-1.2613192"><ele>41.0</ele><time>2026-05-02T11:41:49.406Z</time></trkpt><trkpt lat="53.6739661" lon="-1.2613306"><ele>41.0</ele><time>2026-05-02T11:41:50.406Z</time></trkpt><trkpt lat="53.6742497" lon="-1.2613449"><ele>41.0</ele><time>2026-05-02T11:41:51.405Z</time></trkpt><trkpt lat="53.674534" lon="-1.2613629"><ele>43.0</ele><time>2026-05-02T11:41:52.402Z</time></trkpt><trkpt lat="53.6748183" lon="-1.2613799"><ele>45.0</ele><time>2026-05-02T11:41:53.41Z</time></trkpt><trkpt lat="53.6751008" lon="-1.2613911"><ele>46.5</ele><time>2026-05-02T11:41:54.402Z</time></trkpt><trkpt lat="53.6753849" lon="-1.261405"><ele>48.0</ele><time>2026-05-02T11:41:55.406Z</time></trkpt><trkpt lat="53.6756666" lon="-1.2614225"><ele>48.0</ele><time>2026-05-02T11:41:56.402Z</time></trkpt><trkpt lat="53.6759526" lon="-1.2614392"><ele>48.0</ele><time>2026-05-02T11:41:57.403Z</time></trkpt><trkpt lat="53.6762407" lon="-1.2614551"><ele>49.5</ele><time>2026-05-02T11:41:58.401Z</time></trkpt><trkpt lat="53.6765296" lon="-1.2614674"><ele>51.0</ele><time>2026-05-02T11:41:59.406Z</time></trkpt><trkpt lat="53.6768183" lon="-1.2614778"><ele>50.0</ele><time>2026-05-02T11:42:00.406Z</time></trkpt><trkpt lat="53.6771069" lon="-1.261487"><ele>49.0</ele><time>2026-05-02T11:42:01.405Z</time></trkpt><trkpt lat="53.6773955" lon="-1.2615047"><ele>49.0</ele><time>2026-05-02T11:42:02.409Z</time></trkpt><trkpt lat="53.6776763" lon="-1.2615277"><ele>49.0</ele><time>2026-05-02T11:42:03.403Z</time></trkpt><trkpt lat="53.6779481" lon="-1.2615541"><ele>49.0</ele><time>2026-05-02T11:42:04.406Z</time></trkpt><trkpt lat="53.6782081" lon="-1.2615883"><ele>49.0</ele><time>2026-05-02T11:42:05.404Z</time></trkpt><trkpt lat="53.6784589" lon="-1.261637"><ele>50.0</ele><time>2026-05-02T11:42:06.409Z</time></trkpt><trkpt lat="53.6787082" lon="-1.2616998"><ele>51.0</ele><time>2026-05-02T11:42:07.406Z</time></trkpt><trkpt lat="53.6789605" lon="-1.2617689"><ele>51.0</ele><time>2026-05-02T11:42:08.407Z</time></trkpt><trkpt lat="53.6792108" lon="-1.2618437"><ele>51.0</ele><time>2026-05-02T11:42:09.402Z</time></trkpt><trkpt lat="53.6794632" lon="-1.2619231"><ele>49.0</ele><time>2026-05-02T11:42:10.403Z</time></trkpt><trkpt lat="53.6797165" lon="-1.2620101"><ele>47.0</ele><time>2026-05-02T11:42:11.405Z</time></trkpt><trkpt lat="53.6799691" lon="-1.2621127"><ele>47.0</ele><time>2026-05-02T11:42:12.405Z</time></trkpt><trkpt lat="53.6802246" lon="-1.2622296"><ele>47.0</ele><time>2026-05-02T11:42:13.405Z</time></trkpt><trkpt lat="53.6804791" lon="-1.2623593"><ele>46.0</ele><time>2026-05-02T11:42:14.406Z</time></trkpt><trkpt lat="53.6807312" lon="-1.2624965"><ele>45.0</ele><time>2026-05-02T11:42:15.406Z</time></trkpt><trkpt lat="53.6809749" lon="-1.2626491"><ele>43.5</ele><time>2026-05-02T11:42:16.405Z</time></trkpt><trkpt lat="53.6812156" lon="-1.2628108"><ele>42.0</ele><time>2026-05-02T11:42:17.411Z</time></trkpt><trkpt lat="53.6814525" lon="-1.2629816"><ele>43.0</ele><time>2026-05-02T11:42:18.405Z</time></trkpt><trkpt lat="53.6816886" lon="-1.263155"><ele>44.0</ele><time>2026-05-02T11:42:19.405Z</time></trkpt><trkpt lat="53.6819276" lon="-1.2633312"><ele>43.5</ele><time>2026-05-02T11:42:20.406Z</time></trkpt><trkpt lat="53.6821651" lon="-1.2635209"><ele>43.0</ele><time>2026-05-02T11:42:21.405Z</time></trkpt><trkpt lat="53.6824005" lon="-1.263727"><ele>43.0</ele><time>2026-05-02T11:42:22.411Z</time></trkpt><trkpt lat="53.6826347" lon="-1.2639497"><ele>43.0</ele><time>2026-05-02T11:42:23.405Z</time></trkpt><trkpt lat="53.6828683" lon="-1.26419"><ele>43.0</ele><time>2026-05-02T11:42:24.405Z</time></trkpt><trkpt lat="53.6831" lon="-1.2644405"><ele>43.0</ele><time>2026-05-02T11:42:25.406Z</time></trkpt><trkpt lat="53.6833281" lon="-1.2646909"><ele>43.0</ele><time>2026-05-02T11:42:26.402Z</time></trkpt><trkpt lat="53.6835513" lon="-1.2649498"><ele>43.0</ele><time>2026-05-02T11:42:27.406Z</time></trkpt><trkpt lat="53.6837756" lon="-1.2652188"><ele>43.0</ele><time>2026-05-02T11:42:28.406Z</time></trkpt><trkpt lat="53.6840018" lon="-1.2655001"><ele>43.0</ele><time>2026-05-02T11:42:29.407Z</time></trkpt><trkpt lat="53.6842282" lon="-1.2657878"><ele>42.5</ele><time>2026-05-02T11:42:30.406Z</time></trkpt><trkpt lat="53.6844529" lon="-1.2660785"><ele>42.0</ele><time>2026-05-02T11:42:31.405Z</time></trkpt><trkpt lat="53.6846737" lon="-1.2663674"><ele>42.0</ele><time>2026-05-02T11:42:32.408Z</time></trkpt><trkpt lat="53.6848931" lon="-1.2666527"><ele>42.0</ele><time>2026-05-02T11:42:33.406Z</time></trkpt><trkpt lat="53.6851121" lon="-1.2669375"><ele>42.0</ele><time>2026-05-02T11:42:34.406Z</time></trkpt><trkpt lat="53.6853329" lon="-1.2672177"><ele>42.0</ele><time>2026-05-02T11:42:35.403Z</time></trkpt><trkpt lat="53.6855559" lon="-1.2674941"><ele>43.0</ele><time>2026-05-02T11:42:36.403Z</time></trkpt><trkpt lat="53.6857831" lon="-1.2677653"><ele>44.0</ele><time>2026-05-02T11:42:37.404Z</time></trkpt><trkpt lat="53.6860067" lon="-1.2680384"><ele>44.0</ele><time>2026-05-02T11:42:38.411Z</time></trkpt><trkpt lat="53.6862335" lon="-1.2683062"><ele>44.0</ele><time>2026-05-02T11:42:39.406Z</time></trkpt><trkpt lat="53.6864651" lon="-1.2685741"><ele>44.0</ele><time>2026-05-02T11:42:40.406Z</time></trkpt><trkpt lat="53.6866998" lon="-1.2688409"><ele>44.0</ele><time>2026-05-02T11:42:41.405Z</time></trkpt><trkpt lat="53.6869353" lon="-1.2691084"><ele>44.0</ele><time>2026-05-02T11:42:42.405Z</time></trkpt><trkpt lat="53.6871735" lon="-1.2693746"><ele>44.0</ele><time>2026-05-02T11:42:43.405Z</time></trkpt><trkpt lat="53.6874111" lon="-1.2696388"><ele>44.5</ele><time>2026-05-02T11:42:44.406Z</time></trkpt><trkpt lat="53.6876464" lon="-1.2699006"><ele>45.0</ele><time>2026-05-02T11:42:45.405Z</time></trkpt><trkpt lat="53.6878802" lon="-1.2701577"><ele>45.5</ele><time>2026-05-02T11:42:46.405Z</time></trkpt><trkpt lat="53.6881176" lon="-1.2704051"><ele>46.0</ele><time>2026-05-02T11:42:47.405Z</time></trkpt><trkpt lat="53.688365" lon="-1.2706409"><ele>46.5</ele><time>2026-05-02T11:42:48.405Z</time></trkpt><trkpt lat="53.6886252" lon="-1.2708793"><ele>47.0</ele><time>2026-05-02T11:42:49.405Z</time></trkpt><trkpt lat="53.6888923" lon="-1.2711297"><ele>47.0</ele><time>2026-05-02T11:42:50.406Z</time></trkpt><trkpt lat="53.6891658" lon="-1.2713903"><ele>47.0</ele><time>2026-05-02T11:42:51.406Z</time></trkpt><trkpt lat="53.6894458" lon="-1.2716582"><ele>46.5</ele><time>2026-05-02T11:42:52.406Z</time></trkpt><trkpt lat="53.6897266" lon="-1.2719205"><ele>46.0</ele><time>2026-05-02T11:42:53.406Z</time></trkpt><trkpt lat="53.6900055" lon="-1.2721718"><ele>46.5</ele><time>2026-05-02T11:42:54.406Z</time></trkpt><trkpt lat="53.690284" lon="-1.2724175"><ele>47.0</ele><time>2026-05-02T11:42:55.405Z</time></trkpt><trkpt lat="53.6905627" lon="-1.2726575"><ele>47.0</ele><time>2026-05-02T11:42:56.407Z</time></trkpt><trkpt lat="53.6908435" lon="-1.2728929"><ele>47.0</ele><time>2026-05-02T11:42:57.405Z</time></trkpt><trkpt lat="53.6911301" lon="-1.2731245"><ele>48.0</ele><time>2026-05-02T11:42:58.409Z</time></trkpt><trkpt lat="53.6914168" lon="-1.2733479"><ele>49.0</ele><time>2026-05-02T11:42:59.405Z</time></trkpt><trkpt lat="53.6917024" lon="-1.2735585"><ele>49.0</ele><time>2026-05-02T11:43:00.405Z</time></trkpt><trkpt lat="53.6919906" lon="-1.2737597"><ele>49.0</ele><time>2026-05-02T11:43:01.406Z</time></trkpt><trkpt lat="53.6922882" lon="-1.2739539"><ele>49.0</ele><time>2026-05-02T11:43:02.407Z</time></trkpt><trkpt lat="53.6925998" lon="-1.2741389"><ele>49.0</ele><time>2026-05-02T11:43:03.405Z</time></trkpt><trkpt lat="53.6929214" lon="-1.2743207"><ele>48.5</ele><time>2026-05-02T11:43:04.406Z</time></trkpt><trkpt lat="53.6932514" lon="-1.2744997"><ele>48.0</ele><time>2026-05-02T11:43:05.405Z</time></trkpt><trkpt lat="53.6935852" lon="-1.2746693"><ele>45.5</ele><time>2026-05-02T11:43:06.405Z</time></trkpt><trkpt lat="53.6939119" lon="-1.274824"><ele>43.0</ele><time>2026-05-02T11:43:07.402Z</time></trkpt><trkpt lat="53.6942269" lon="-1.2749633"><ele>42.5</ele><time>2026-05-02T11:43:08.406Z</time></trkpt><trkpt lat="53.694528" lon="-1.2750817"><ele>42.0</ele><time>2026-05-02T11:43:09.402Z</time></trkpt><trkpt lat="53.6948247" lon="-1.275184"><ele>42.0</ele><time>2026-05-02T11:43:10.405Z</time></trkpt><trkpt lat="53.695121" lon="-1.2752842"><ele>42.0</ele><time>2026-05-02T11:43:11.407Z</time></trkpt><trkpt lat="53.6954189" lon="-1.2753727"><ele>42.5</ele><time>2026-05-02T11:43:12.405Z</time></trkpt><trkpt lat="53.6957061" lon="-1.275451"><ele>43.0</ele><time>2026-05-02T11:43:13.406Z</time></trkpt><trkpt lat="53.6959876" lon="-1.2755141"><ele>42.5</ele><time>2026-05-02T11:43:14.407Z</time></trkpt><trkpt lat="53.6962653" lon="-1.2755672"><ele>42.0</ele><time>2026-05-02T11:43:15.406Z</time></trkpt><trkpt lat="53.6965469" lon="-1.2756132"><ele>41.0</ele><time>2026-05-02T11:43:16.402Z</time></trkpt><trkpt lat="53.696832" lon="-1.2756529"><ele>40.0</ele><time>2026-05-02T11:43:17.405Z</time></trkpt><trkpt lat="53.6971195" lon="-1.2756857"><ele>37.5</ele><time>2026-05-02T11:43:18.403Z</time></trkpt><trkpt lat="53.6974114" lon="-1.2757171"><ele>35.0</ele><time>2026-05-02T11:43:19.406Z</time></trkpt><trkpt lat="53.697702" lon="-1.2757416"><ele>36.0</ele><time>2026-05-02T11:43:20.402Z</time></trkpt><trkpt lat="53.697994" lon="-1.2757625"><ele>37.0</ele><time>2026-05-02T11:43:21.403Z</time></trkpt><trkpt lat="53.6982861" lon="-1.2757825"><ele>37.0</ele><time>2026-05-02T11:43:22.409Z</time></trkpt><trkpt lat="53.6985732" lon="-1.2758023"><ele>37.0</ele><time>2026-05-02T11:43:23.403Z</time></trkpt><trkpt lat="53.6988568" lon="-1.2758235"><ele>35.5</ele><time>2026-05-02T11:43:24.405Z</time></trkpt><trkpt lat="53.6991347" lon="-1.2758474"><ele>34.0</ele><time>2026-05-02T11:43:25.403Z</time></trkpt><trkpt lat="53.6994147" lon="-1.2758822"><ele>33.0</ele><time>2026-05-02T11:43:26.403Z</time></trkpt><trkpt lat="53.6996895" lon="-1.275929"><ele>32.0</ele><time>2026-05-02T11:43:27.403Z</time></trkpt><trkpt lat="53.6999619" lon="-1.2759986"><ele>32.0</ele><time>2026-05-02T11:43:28.401Z</time></trkpt><trkpt lat="53.7002303" lon="-1.2760751"><ele>32.0</ele><time>2026-05-02T11:43:29.402Z</time></trkpt><trkpt lat="53.7004979" lon="-1.2761556"><ele>27.5</ele><time>2026-05-02T11:43:30.403Z</time></trkpt><trkpt lat="53.7007657" lon="-1.2762381"><ele>23.0</ele><time>2026-05-02T11:43:31.403Z</time></trkpt><trkpt lat="53.7010362" lon="-1.2763193"><ele>20.5</ele><time>2026-05-02T11:43:32.403Z</time></trkpt><trkpt lat="53.7013088" lon="-1.2764001"><ele>18.0</ele><time>2026-05-02T11:43:33.402Z</time></trkpt><trkpt lat="53.7015821" lon="-1.2764894"><ele>18.0</ele><time>2026-05-02T11:43:34.405Z</time></trkpt><trkpt lat="53.7018551" lon="-1.2765913"><ele>18.0</ele><time>2026-05-02T11:43:35.407Z</time></trkpt><trkpt lat="53.702127" lon="-1.2767027"><ele>19.0</ele><time>2026-05-02T11:43:36.403Z</time></trkpt><trkpt lat="53.7023967" lon="-1.2768203"><ele>20.0</ele><time>2026-05-02T11:43:37.405Z</time></trkpt><trkpt lat="53.7026661" lon="-1.276945"><ele>21.5</ele><time>2026-05-02T11:43:38.403Z</time></trkpt><trkpt lat="53.7029352" lon="-1.2770731"><ele>23.0</ele><time>2026-05-02T11:43:39.402Z</time></trkpt><trkpt lat="53.7032034" lon="-1.2772058"><ele>24.0</ele><time>2026-05-02T11:43:40.402Z</time></trkpt><trkpt lat="53.7034696" lon="-1.277345"><ele>25.0</ele><time>2026-05-02T11:43:41.408Z</time></trkpt><trkpt lat="53.7037339" lon="-1.2774927"><ele>26.0</ele><time>2026-05-02T11:43:42.405Z</time></trkpt><trkpt lat="53.703998" lon="-1.2776535"><ele>27.0</ele><time>2026-05-02T11:43:43.406Z</time></trkpt><trkpt lat="53.7042602" lon="-1.2778224"><ele>27.5</ele><time>2026-05-02T11:43:44.408Z</time></trkpt><trkpt lat="53.7045197" lon="-1.2779974"><ele>28.0</ele><time>2026-05-02T11:43:45.405Z</time></trkpt><trkpt lat="53.7047792" lon="-1.2781782"><ele>28.0</ele><time>2026-05-02T11:43:46.406Z</time></trkpt><trkpt lat="53.7050373" lon="-1.2783661"><ele>28.0</ele><time>2026-05-02T11:43:47.406Z</time></trkpt><trkpt lat="53.7052923" lon="-1.2785608"><ele>29.5</ele><time>2026-05-02T11:43:48.405Z</time></trkpt><trkpt lat="53.705547" lon="-1.278764"><ele>31.0</ele><time>2026-05-02T11:43:49.406Z</time></trkpt><trkpt lat="53.7058029" lon="-1.2789725"><ele>31.5</ele><time>2026-05-02T11:43:50.406Z</time></trkpt><trkpt lat="53.7060536" lon="-1.279186"><ele>32.0</ele><time>2026-05-02T11:43:51.405Z</time></trkpt><trkpt lat="53.7063023" lon="-1.2794017"><ele>33.5</ele><time>2026-05-02T11:43:52.407Z</time></trkpt><trkpt lat="53.7065492" lon="-1.2796265"><ele>35.0</ele><time>2026-05-02T11:43:53.408Z</time></trkpt><trkpt lat="53.7067907" lon="-1.2798631"><ele>34.5</ele><time>2026-05-02T11:43:54.405Z</time></trkpt><trkpt lat="53.7070331" lon="-1.2801069"><ele>34.0</ele><time>2026-05-02T11:43:55.406Z</time></trkpt><trkpt lat="53.7072767" lon="-1.280355"><ele>34.5</ele><time>2026-05-02T11:43:56.407Z</time></trkpt><trkpt lat="53.7075157" lon="-1.2806085"><ele>35.0</ele><time>2026-05-02T11:43:57.406Z</time></trkpt><trkpt lat="53.707751" lon="-1.2808659"><ele>33.0</ele><time>2026-05-02T11:43:58.405Z</time></trkpt><trkpt lat="53.7079846" lon="-1.2811242"><ele>31.0</ele><time>2026-05-02T11:43:59.405Z</time></trkpt><trkpt lat="53.7082169" lon="-1.2813876"><ele>31.5</ele><time>2026-05-02T11:44:00.405Z</time></trkpt><trkpt lat="53.7084459" lon="-1.2816606"><ele>32.0</ele><time>2026-05-02T11:44:01.405Z</time></trkpt><trkpt lat="53.7086676" lon="-1.2819425"><ele>29.5</ele><time>2026-05-02T11:44:02.407Z</time></trkpt><trkpt lat="53.7088881" lon="-1.2822293"><ele>27.0</ele><time>2026-05-02T11:44:03.405Z</time></trkpt><trkpt lat="53.709106" lon="-1.2825218"><ele>27.0</ele><time>2026-05-02T11:44:04.407Z</time></trkpt><trkpt lat="53.7093243" lon="-1.2828255"><ele>27.0</ele><time>2026-05-02T11:44:05.405Z</time></trkpt><trkpt lat="53.7095447" lon="-1.2831371"><ele>26.0</ele><time>2026-05-02T11:44:06.405Z</time></trkpt><trkpt lat="53.7097621" lon="-1.2834535"><ele>25.0</ele><time>2026-05-02T11:44:07.407Z</time></trkpt><trkpt lat="53.7099776" lon="-1.283772"><ele>25.0</ele><time>2026-05-02T11:44:08.407Z</time></trkpt><trkpt lat="53.7101968" lon="-1.2840802"><ele>25.0</ele><time>2026-05-02T11:44:09.406Z</time></trkpt><trkpt lat="53.7104193" lon="-1.2843781"><ele>25.0</ele><time>2026-05-02T11:44:10.405Z</time></trkpt><trkpt lat="53.7106396" lon="-1.2846666"><ele>25.0</ele><time>2026-05-02T11:44:11.405Z</time></trkpt><trkpt lat="53.7108635" lon="-1.2849477"><ele>25.5</ele><time>2026-05-02T11:44:12.405Z</time></trkpt><trkpt lat="53.7110902" lon="-1.2852265"><ele>26.0</ele><time>2026-05-02T11:44:13.406Z</time></trkpt><trkpt lat="53.711318" lon="-1.2855006"><ele>26.5</ele><time>2026-05-02T11:44:14.407Z</time></trkpt><trkpt lat="53.7115477" lon="-1.2857659"><ele>27.0</ele><time>2026-05-02T11:44:15.406Z</time></trkpt><trkpt lat="53.7117802" lon="-1.2860228"><ele>27.0</ele><time>2026-05-02T11:44:16.406Z</time></trkpt><trkpt lat="53.7120136" lon="-1.2862818"><ele>27.0</ele><time>2026-05-02T11:44:17.405Z</time></trkpt><trkpt lat="53.7122495" lon="-1.2865416"><ele>27.5</ele><time>2026-05-02T11:44:18.406Z</time></trkpt><trkpt lat="53.7124869" lon="-1.2867976"><ele>28.0</ele><time>2026-05-02T11:44:19.406Z</time></trkpt><trkpt lat="53.7127274" lon="-1.2870432"><ele>27.5</ele><time>2026-05-02T11:44:20.406Z</time></trkpt><trkpt lat="53.7129684" lon="-1.2872814"><ele>27.0</ele><time>2026-05-02T11:44:21.406Z</time></trkpt><trkpt lat="53.7132142" lon="-1.2875106"><ele>27.0</ele><time>2026-05-02T11:44:22.406Z</time></trkpt><trkpt lat="53.7134653" lon="-1.2877253"><ele>27.0</ele><time>2026-05-02T11:44:23.405Z</time></trkpt><trkpt lat="53.7137196" lon="-1.2879271"><ele>26.5</ele><time>2026-05-02T11:44:24.406Z</time></trkpt><trkpt lat="53.7139747" lon="-1.2881201"><ele>26.0</ele><time>2026-05-02T11:44:25.405Z</time></trkpt><trkpt lat="53.7142318" lon="-1.2883043"><ele>26.0</ele><time>2026-05-02T11:44:26.407Z</time></trkpt><trkpt lat="53.7144922" lon="-1.2884818"><ele>26.0</ele><time>2026-05-02T11:44:27.406Z</time></trkpt><trkpt lat="53.714757" lon="-1.2886473"><ele>26.0</ele><time>2026-05-02T11:44:28.405Z</time></trkpt><trkpt lat="53.7150218" lon="-1.2887965"><ele>26.0</ele><time>2026-05-02T11:44:29.405Z</time></trkpt><trkpt lat="53.715288" lon="-1.2889335"><ele>23.5</ele><time>2026-05-02T11:44:30.403Z</time></trkpt><trkpt lat="53.7155587" lon="-1.2890616"><ele>21.0</ele><time>2026-05-02T11:44:31.403Z</time></trkpt><trkpt lat="53.715832" lon="-1.28918"><ele>18.0</ele><time>2026-05-02T11:44:32.403Z</time></trkpt><trkpt lat="53.7161088" lon="-1.2892897"><ele>15.0</ele><time>2026-05-02T11:44:33.406Z</time></trkpt><trkpt lat="53.7163845" lon="-1.2893876"><ele>15.0</ele><time>2026-05-02T11:44:34.405Z</time></trkpt><trkpt lat="53.7166624" lon="-1.2894728"><ele>15.0</ele><time>2026-05-02T11:44:35.405Z</time></trkpt><trkpt lat="53.7169424" lon="-1.2895452"><ele>14.5</ele><time>2026-05-02T11:44:36.402Z</time></trkpt><trkpt lat="53.7172247" lon="-1.2896086"><ele>14.0</ele><time>2026-05-02T11:44:37.405Z</time></trkpt><trkpt lat="53.7175105" lon="-1.2896555"><ele>14.5</ele><time>2026-05-02T11:44:38.409Z</time></trkpt><trkpt lat="53.7178013" lon="-1.2896902"><ele>15.0</ele><time>2026-05-02T11:44:39.407Z</time></trkpt><trkpt lat="53.7180948" lon="-1.2897156"><ele>15.0</ele><time>2026-05-02T11:44:40.405Z</time></trkpt><trkpt lat="53.7183901" lon="-1.2897278"><ele>15.0</ele><time>2026-05-02T11:44:41.406Z</time></trkpt><trkpt lat="53.718684" lon="-1.2897242"><ele>17.0</ele><time>2026-05-02T11:44:42.404Z</time></trkpt><trkpt lat="53.7189792" lon="-1.2897123"><ele>19.0</ele><time>2026-05-02T11:44:43.405Z</time></trkpt><trkpt lat="53.7192758" lon="-1.2896944"><ele>19.0</ele><time>2026-05-02T11:44:44.406Z</time></trkpt><trkpt lat="53.7195714" lon="-1.2896772"><ele>19.0</ele><time>2026-05-02T11:44:45.406Z</time></trkpt><trkpt lat="53.7198678" lon="-1.2896615"><ele>19.0</ele><time>2026-05-02T11:44:46.405Z</time></trkpt><trkpt lat="53.7201645" lon="-1.2896486"><ele>19.0</ele><time>2026-05-02T11:44:47.402Z</time></trkpt><trkpt lat="53.7204637" lon="-1.2896388"><ele>20.0</ele><time>2026-05-02T11:44:48.408Z</time></trkpt><trkpt lat="53.7207624" lon="-1.2896266"><ele>21.0</ele><time>2026-05-02T11:44:49.405Z</time></trkpt><trkpt lat="53.7210602" lon="-1.2896102"><ele>21.5</ele><time>2026-05-02T11:44:50.403Z</time></trkpt><trkpt lat="53.721354" lon="-1.289597"><ele>22.0</ele><time>2026-05-02T11:44:51.405Z</time></trkpt><trkpt lat="53.721647" lon="-1.2895838"><ele>23.0</ele><time>2026-05-02T11:44:52.406Z</time></trkpt><trkpt lat="53.7219415" lon="-1.2895716"><ele>24.0</ele><time>2026-05-02T11:44:53.405Z</time></trkpt><trkpt lat="53.7222368" lon="-1.2895586"><ele>24.0</ele><time>2026-05-02T11:44:54.405Z</time></trkpt><trkpt lat="53.7225354" lon="-1.2895418"><ele>24.0</ele><time>2026-05-02T11:44:55.403Z</time></trkpt><trkpt lat="53.7228389" lon="-1.2895155"><ele>25.5</ele><time>2026-05-02T11:44:56.403Z</time></trkpt><trkpt lat="53.7231483" lon="-1.2894807"><ele>27.0</ele><time>2026-05-02T11:44:57.402Z</time></trkpt><trkpt lat="53.7234584" lon="-1.2894512"><ele>24.0</ele><time>2026-05-02T11:44:58.406Z</time></trkpt><trkpt lat="53.723761" lon="-1.2894344"><ele>21.0</ele><time>2026-05-02T11:44:59.402Z</time></trkpt><trkpt lat="53.7240563" lon="-1.289424"><ele>21.0</ele><time>2026-05-02T11:45:00.406Z</time></trkpt><trkpt lat="53.7243514" lon="-1.2894139"><ele>21.0</ele><time>2026-05-02T11:45:01.404Z</time></trkpt><trkpt lat="53.7246527" lon="-1.2893976"><ele>20.0</ele><time>2026-05-02T11:45:02.406Z</time></trkpt><trkpt lat="53.7249544" lon="-1.2893871"><ele>19.0</ele><time>2026-05-02T11:45:03.403Z</time></trkpt><trkpt lat="53.7252535" lon="-1.2893749"><ele>16.5</ele><time>2026-05-02T11:45:04.405Z</time></trkpt><trkpt lat="53.7255503" lon="-1.2893631"><ele>14.0</ele><time>2026-05-02T11:45:05.406Z</time></trkpt><trkpt lat="53.7258465" lon="-1.2893514"><ele>14.0</ele><time>2026-05-02T11:45:06.403Z</time></trkpt><trkpt lat="53.7261434" lon="-1.2893397"><ele>14.0</ele><time>2026-05-02T11:45:07.403Z</time></trkpt><trkpt lat="53.7264387" lon="-1.2893257"><ele>14.0</ele><time>2026-05-02T11:45:08.404Z</time></trkpt><trkpt lat="53.7267348" lon="-1.2893098"><ele>14.0</ele><time>2026-05-02T11:45:09.402Z</time></trkpt><trkpt lat="53.7270314" lon="-1.2892922"><ele>13.0</ele><time>2026-05-02T11:45:10.402Z</time></trkpt><trkpt lat="53.7273295" lon="-1.2892798"><ele>12.0</ele><time>2026-05-02T11:45:11.403Z</time></trkpt><trkpt lat="53.7276295" lon="-1.2892681"><ele>13.0</ele><time>2026-05-02T11:45:12.402Z</time></trkpt><trkpt lat="53.7279325" lon="-1.2892552"><ele>14.0</ele><time>2026-05-02T11:45:13.403Z</time></trkpt><trkpt lat="53.7282404" lon="-1.2892397"><ele>14.0</ele><time>2026-05-02T11:45:14.403Z</time></trkpt><trkpt lat="53.7285534" lon="-1.289221"><ele>14.0</ele><time>2026-05-02T11:45:15.403Z</time></trkpt><trkpt lat="53.7288697" lon="-1.2891931"><ele>15.5</ele><time>2026-05-02T11:45:16.402Z</time></trkpt><trkpt lat="53.7291827" lon="-1.2891578"><ele>17.0</ele><time>2026-05-02T11:45:17.402Z</time></trkpt><trkpt lat="53.7294894" lon="-1.2891116"><ele>17.0</ele><time>2026-05-02T11:45:18.402Z</time></trkpt><trkpt lat="53.7297896" lon="-1.2890539"><ele>17.0</ele><time>2026-05-02T11:45:19.403Z</time></trkpt><trkpt lat="53.7300854" lon="-1.2889745"><ele>17.0</ele><time>2026-05-02T11:45:20.403Z</time></trkpt><trkpt lat="53.7303784" lon="-1.2888745"><ele>17.0</ele><time>2026-05-02T11:45:21.403Z</time></trkpt><trkpt lat="53.7306741" lon="-1.2887495"><ele>17.0</ele><time>2026-05-02T11:45:22.406Z</time></trkpt><trkpt lat="53.7309714" lon="-1.2886012"><ele>17.0</ele><time>2026-05-02T11:45:23.402Z</time></trkpt><trkpt lat="53.7312692" lon="-1.2884405"><ele>17.0</ele><time>2026-05-02T11:45:24.402Z</time></trkpt><trkpt lat="53.7315663" lon="-1.2882771"><ele>17.0</ele><time>2026-05-02T11:45:25.403Z</time></trkpt><trkpt lat="53.7318581" lon="-1.2881091"><ele>16.5</ele><time>2026-05-02T11:45:26.402Z</time></trkpt><trkpt lat="53.7321486" lon="-1.2879311"><ele>16.0</ele><time>2026-05-02T11:45:27.405Z</time></trkpt><trkpt lat="53.7324382" lon="-1.2877409"><ele>17.0</ele><time>2026-05-02T11:45:28.403Z</time></trkpt><trkpt lat="53.7327251" lon="-1.2875368"><ele>18.0</ele><time>2026-05-02T11:45:29.403Z</time></trkpt><trkpt lat="53.7330039" lon="-1.287318"><ele>19.0</ele><time>2026-05-02T11:45:30.407Z</time></trkpt><trkpt lat="53.7332743" lon="-1.287085"><ele>20.0</ele><time>2026-05-02T11:45:31.408Z</time></trkpt><trkpt lat="53.7335426" lon="-1.2868426"><ele>19.0</ele><time>2026-05-02T11:45:32.407Z</time></trkpt><trkpt lat="53.7338073" lon="-1.2865871"><ele>18.0</ele><time>2026-05-02T11:45:33.405Z</time></trkpt><trkpt lat="53.7340673" lon="-1.2863226"><ele>17.5</ele><time>2026-05-02T11:45:34.405Z</time></trkpt><trkpt lat="53.7343235" lon="-1.2860495"><ele>17.0</ele><time>2026-05-02T11:45:35.403Z</time></trkpt><trkpt lat="53.7345733" lon="-1.2857659"><ele>18.5</ele><time>2026-05-02T11:45:36.408Z</time></trkpt><trkpt lat="53.7348119" lon="-1.2854756"><ele>20.0</ele><time>2026-05-02T11:45:37.41Z</time></trkpt><trkpt lat="53.7350448" lon="-1.2851766"><ele>23.5</ele><time>2026-05-02T11:45:38.407Z</time></trkpt><trkpt lat="53.7352725" lon="-1.2848688"><ele>27.0</ele><time>2026-05-02T11:45:39.405Z</time></trkpt><trkpt lat="53.7354948" lon="-1.2845494"><ele>27.5</ele><time>2026-05-02T11:45:40.407Z</time></trkpt><trkpt lat="53.7357121" lon="-1.2842221"><ele>28.0</ele><time>2026-05-02T11:45:41.405Z</time></trkpt><trkpt lat="53.7359281" lon="-1.2838817"><ele>27.5</ele><time>2026-05-02T11:45:42.405Z</time></trkpt><trkpt lat="53.736139" lon="-1.2835322"><ele>27.0</ele><time>2026-05-02T11:45:43.405Z</time></trkpt><trkpt lat="53.7363512" lon="-1.2831733"><ele>27.0</ele><time>2026-05-02T11:45:44.409Z</time></trkpt><trkpt lat="53.7365624" lon="-1.282811"><ele>27.0</ele><time>2026-05-02T11:45:45.406Z</time></trkpt><trkpt lat="53.7367726" lon="-1.2824498"><ele>27.5</ele><time>2026-05-02T11:45:46.405Z</time></trkpt><trkpt lat="53.7369798" lon="-1.2820887"><ele>28.0</ele><time>2026-05-02T11:45:47.403Z</time></trkpt><trkpt lat="53.737188" lon="-1.2817268"><ele>28.5</ele><time>2026-05-02T11:45:48.407Z</time></trkpt><trkpt lat="53.7373944" lon="-1.2813638"><ele>29.0</ele><time>2026-05-02T11:45:49.406Z</time></trkpt><trkpt lat="53.7376008" lon="-1.2810027"><ele>29.5</ele><time>2026-05-02T11:45:50.408Z</time></trkpt><trkpt lat="53.7378085" lon="-1.2806484"><ele>30.0</ele><time>2026-05-02T11:45:51.405Z</time></trkpt><trkpt lat="53.7380169" lon="-1.2802912"><ele>30.0</ele><time>2026-05-02T11:45:52.406Z</time></trkpt><trkpt lat="53.7382267" lon="-1.2799294"><ele>30.0</ele><time>2026-05-02T11:45:53.406Z</time></trkpt><trkpt lat="53.7384398" lon="-1.2795695"><ele>33.0</ele><time>2026-05-02T11:45:54.405Z</time></trkpt><trkpt lat="53.7386577" lon="-1.279208"><ele>36.0</ele><time>2026-05-02T11:45:55.406Z</time></trkpt><trkpt lat="53.7388806" lon="-1.2788485"><ele>36.0</ele><time>2026-05-02T11:45:56.407Z</time></trkpt><trkpt lat="53.7391056" lon="-1.2784974"><ele>36.0</ele><time>2026-05-02T11:45:57.403Z</time></trkpt><trkpt lat="53.739337" lon="-1.2781579"><ele>33.0</ele><time>2026-05-02T11:45:58.406Z</time></trkpt><trkpt lat="53.7395736" lon="-1.2778265"><ele>30.0</ele><time>2026-05-02T11:45:59.406Z</time></trkpt><trkpt lat="53.7398181" lon="-1.2774995"><ele>28.5</ele><time>2026-05-02T11:46:00.406Z</time></trkpt><trkpt lat="53.7400704" lon="-1.2771782"><ele>27.0</ele><time>2026-05-02T11:46:01.406Z</time></trkpt><trkpt lat="53.7403329" lon="-1.2768605"><ele>26.0</ele><time>2026-05-02T11:46:02.404Z</time></trkpt><trkpt lat="53.740602" lon="-1.276547"><ele>25.0</ele><time>2026-05-02T11:46:03.402Z</time></trkpt><trkpt lat="53.7408788" lon="-1.2762418"><ele>24.0</ele><time>2026-05-02T11:46:04.402Z</time></trkpt><trkpt lat="53.7411618" lon="-1.2759512"><ele>23.0</ele><time>2026-05-02T11:46:05.403Z</time></trkpt><trkpt lat="53.7414487" lon="-1.2756838"><ele>22.0</ele><time>2026-05-02T11:46:06.402Z</time></trkpt><trkpt lat="53.7417364" lon="-1.2754376"><ele>21.0</ele><time>2026-05-02T11:46:07.406Z</time></trkpt><trkpt lat="53.7420314" lon="-1.2752084"><ele>20.5</ele><time>2026-05-02T11:46:08.406Z</time></trkpt><trkpt lat="53.7423354" lon="-1.2749883"><ele>20.0</ele><time>2026-05-02T11:46:09.405Z</time></trkpt><trkpt lat="53.7426499" lon="-1.2747698"><ele>19.5</ele><time>2026-05-02T11:46:10.402Z</time></trkpt><trkpt lat="53.7429717" lon="-1.2745602"><ele>19.0</ele><time>2026-05-02T11:46:11.403Z</time></trkpt><trkpt lat="53.7432987" lon="-1.2743773"><ele>19.5</ele><time>2026-05-02T11:46:12.403Z</time></trkpt><trkpt lat="53.7436264" lon="-1.2742268"><ele>20.0</ele><time>2026-05-02T11:46:13.403Z</time></trkpt><trkpt lat="53.7439527" lon="-1.2741014"><ele>20.0</ele><time>2026-05-02T11:46:14.403Z</time></trkpt><trkpt lat="53.7442782" lon="-1.2739906"><ele>20.0</ele><time>2026-05-02T11:46:15.403Z</time></trkpt><trkpt lat="53.7446006" lon="-1.2738865"><ele>20.0</ele><time>2026-05-02T11:46:16.402Z</time></trkpt><trkpt lat="53.7449208" lon="-1.2737947"><ele>20.0</ele><time>2026-05-02T11:46:17.403Z</time></trkpt><trkpt lat="53.7452407" lon="-1.2737187"><ele>20.5</ele><time>2026-05-02T11:46:18.404Z</time></trkpt><trkpt lat="53.7455554" lon="-1.2736625"><ele>21.0</ele><time>2026-05-02T11:46:19.402Z</time></trkpt><trkpt lat="53.7458657" lon="-1.2736247"><ele>21.5</ele><time>2026-05-02T11:46:20.404Z</time></trkpt><trkpt lat="53.7461693" lon="-1.2735983"><ele>22.0</ele><time>2026-05-02T11:46:21.403Z</time></trkpt><trkpt lat="53.7464616" lon="-1.2735822"><ele>22.0</ele><time>2026-05-02T11:46:22.403Z</time></trkpt><trkpt lat="53.7467437" lon="-1.2735773"><ele>22.0</ele><time>2026-05-02T11:46:23.402Z</time></trkpt><trkpt lat="53.74702" lon="-1.2735933"><ele>22.5</ele><time>2026-05-02T11:46:24.407Z</time></trkpt><trkpt lat="53.7472983" lon="-1.2736183"><ele>23.0</ele><time>2026-05-02T11:46:25.405Z</time></trkpt><trkpt lat="53.7475717" lon="-1.2736517"><ele>24.0</ele><time>2026-05-02T11:46:26.404Z</time></trkpt><trkpt lat="53.747845" lon="-1.2736917"><ele>25.0</ele><time>2026-05-02T11:46:27.405Z</time></trkpt><trkpt lat="53.7481133" lon="-1.27374"><ele>25.0</ele><time>2026-05-02T11:46:28.405Z</time></trkpt><trkpt lat="53.74837" lon="-1.2737967"><ele>25.0</ele><time>2026-05-02T11:46:29.406Z</time></trkpt><trkpt lat="53.7486167" lon="-1.2738583"><ele>25.0</ele><time>2026-05-02T11:46:30.404Z</time></trkpt><trkpt lat="53.7488567" lon="-1.2739233"><ele>25.0</ele><time>2026-05-02T11:46:31.406Z</time></trkpt><trkpt lat="53.74909" lon="-1.2739917"><ele>26.5</ele><time>2026-05-02T11:46:32.407Z</time></trkpt><trkpt lat="53.7493217" lon="-1.2740617"><ele>28.0</ele><time>2026-05-02T11:46:33.406Z</time></trkpt><trkpt lat="53.7495533" lon="-1.2741433"><ele>28.5</ele><time>2026-05-02T11:46:34.407Z</time></trkpt><trkpt lat="53.7497917" lon="-1.274225"><ele>29.0</ele><time>2026-05-02T11:46:35.404Z</time></trkpt><trkpt lat="53.750035" lon="-1.2743167"><ele>29.5</ele><time>2026-05-02T11:46:36.405Z</time></trkpt><trkpt lat="53.7502867" lon="-1.2744183"><ele>30.0</ele><time>2026-05-02T11:46:37.405Z</time></trkpt><trkpt lat="53.750545" lon="-1.27453"><ele>30.0</ele><time>2026-05-02T11:46:38.41Z</time></trkpt><trkpt lat="53.750805" lon="-1.27464"><ele>30.0</ele><time>2026-05-02T11:46:39.405Z</time></trkpt><trkpt lat="53.7510667" lon="-1.2747533"><ele>30.0</ele><time>2026-05-02T11:46:40.406Z</time></trkpt><trkpt lat="53.75133" lon="-1.2748617"><ele>30.0</ele><time>2026-05-02T11:46:41.402Z</time></trkpt><trkpt lat="53.7515967" lon="-1.2749783"><ele>30.0</ele><time>2026-05-02T11:46:42.404Z</time></trkpt><trkpt lat="53.7518683" lon="-1.275095"><ele>30.0</ele><time>2026-05-02T11:46:43.402Z</time></trkpt><trkpt lat="53.7521383" lon="-1.2752133"><ele>32.0</ele><time>2026-05-02T11:46:44.408Z</time></trkpt><trkpt lat="53.7524" lon="-1.2753333"><ele>34.0</ele><time>2026-05-02T11:46:45.406Z</time></trkpt><trkpt lat="53.7526583" lon="-1.2754533"><ele>35.0</ele><time>2026-05-02T11:46:46.403Z</time></trkpt><trkpt lat="53.7529133" lon="-1.275575"><ele>36.0</ele><time>2026-05-02T11:46:47.403Z</time></trkpt><trkpt lat="53.753165" lon="-1.2756967"><ele>36.5</ele><time>2026-05-02T11:46:48.403Z</time></trkpt><trkpt lat="53.7534167" lon="-1.2758217"><ele>37.0</ele><time>2026-05-02T11:46:49.403Z</time></trkpt><trkpt lat="53.7536717" lon="-1.27595"><ele>38.5</ele><time>2026-05-02T11:46:50.403Z</time></trkpt><trkpt lat="53.7539267" lon="-1.276085"><ele>40.0</ele><time>2026-05-02T11:46:51.403Z</time></trkpt><trkpt lat="53.75418" lon="-1.27622"><ele>41.5</ele><time>2026-05-02T11:46:52.406Z</time></trkpt><trkpt lat="53.75443" lon="-1.2763583"><ele>43.0</ele><time>2026-05-02T11:46:53.405Z</time></trkpt><trkpt lat="53.7546783" lon="-1.2764983"><ele>44.5</ele><time>2026-05-02T11:46:54.406Z</time></trkpt><trkpt lat="53.754935" lon="-1.2766467"><ele>46.0</ele><time>2026-05-02T11:46:55.402Z</time></trkpt><trkpt lat="53.7551967" lon="-1.2767967"><ele>46.5</ele><time>2026-05-02T11:46:56.406Z</time></trkpt><trkpt lat="53.7554667" lon="-1.2769517"><ele>47.0</ele><time>2026-05-02T11:46:57.406Z</time></trkpt><trkpt lat="53.7557367" lon="-1.2771083"><ele>47.5</ele><time>2026-05-02T11:46:58.406Z</time></trkpt><trkpt lat="53.7560017" lon="-1.27727"><ele>48.0</ele><time>2026-05-02T11:46:59.402Z</time></trkpt><trkpt lat="53.7562667" lon="-1.2774367"><ele>48.0</ele><time>2026-05-02T11:47:00.409Z</time></trkpt><trkpt lat="53.7565367" lon="-1.2776083"><ele>48.0</ele><time>2026-05-02T11:47:01.407Z</time></trkpt><trkpt lat="53.75681" lon="-1.2777817"><ele>48.5</ele><time>2026-05-02T11:47:02.407Z</time></trkpt><trkpt lat="53.7570833" lon="-1.2779567"><ele>49.0</ele><time>2026-05-02T11:47:03.404Z</time></trkpt><trkpt lat="53.7573583" lon="-1.278135"><ele>49.0</ele><time>2026-05-02T11:47:04.403Z</time></trkpt><trkpt lat="53.7576283" lon="-1.2783117"><ele>49.0</ele><time>2026-05-02T11:47:05.405Z</time></trkpt><trkpt lat="53.757895" lon="-1.278495"><ele>49.5</ele><time>2026-05-02T11:47:06.405Z</time></trkpt><trkpt lat="53.7581583" lon="-1.2786833"><ele>50.0</ele><time>2026-05-02T11:47:07.406Z</time></trkpt><trkpt lat="53.75842" lon="-1.2788733"><ele>50.0</ele><time>2026-05-02T11:47:08.403Z</time></trkpt><trkpt lat="53.758675" lon="-1.2790633"><ele>50.0</ele><time>2026-05-02T11:47:09.405Z</time></trkpt><trkpt lat="53.7589317" lon="-1.2792567"><ele>50.0</ele><time>2026-05-02T11:47:10.406Z</time></trkpt><trkpt lat="53.759185" lon="-1.2794517"><ele>50.0</ele><time>2026-05-02T11:47:11.406Z</time></trkpt><trkpt lat="53.759435" lon="-1.2796483"><ele>49.0</ele><time>2026-05-02T11:47:12.403Z</time></trkpt><trkpt lat="53.759685" lon="-1.2798467"><ele>48.0</ele><time>2026-05-02T11:47:13.405Z</time></trkpt><trkpt lat="53.7599317" lon="-1.2800483"><ele>48.0</ele><time>2026-05-02T11:47:14.408Z</time></trkpt><trkpt lat="53.76018" lon="-1.2802467"><ele>48.0</ele><time>2026-05-02T11:47:15.407Z</time></trkpt><trkpt lat="53.760435" lon="-1.2804433"><ele>48.5</ele><time>2026-05-02T11:47:16.406Z</time></trkpt><trkpt lat="53.76069" lon="-1.2806317"><ele>49.0</ele><time>2026-05-02T11:47:17.407Z</time></trkpt><trkpt lat="53.7609583" lon="-1.2808117"><ele>50.0</ele><time>2026-05-02T11:47:18.405Z</time></trkpt><trkpt lat="53.7612367" lon="-1.2809917"><ele>51.0</ele><time>2026-05-02T11:47:19.406Z</time></trkpt><trkpt lat="53.7615117" lon="-1.2811933"><ele>51.0</ele><time>2026-05-02T11:47:20.408Z</time></trkpt><trkpt lat="53.7617833" lon="-1.2814"><ele>51.0</ele><time>2026-05-02T11:47:21.406Z</time></trkpt><trkpt lat="53.7620483" lon="-1.2816133"><ele>51.5</ele><time>2026-05-02T11:47:22.406Z</time></trkpt><trkpt lat="53.76231" lon="-1.2818217"><ele>52.0</ele><time>2026-05-02T11:47:23.405Z</time></trkpt><trkpt lat="53.762575" lon="-1.2820283"><ele>52.5</ele><time>2026-05-02T11:47:24.406Z</time></trkpt><trkpt lat="53.76284" lon="-1.28224"><ele>53.0</ele><time>2026-05-02T11:47:25.405Z</time></trkpt><trkpt lat="53.7631083" lon="-1.28245"><ele>53.0</ele><time>2026-05-02T11:47:26.406Z</time></trkpt><trkpt lat="53.763375" lon="-1.2826617"><ele>53.0</ele><time>2026-05-02T11:47:27.405Z</time></trkpt><trkpt lat="53.7636417" lon="-1.282875"><ele>53.5</ele><time>2026-05-02T11:47:28.402Z</time></trkpt><trkpt lat="53.7639133" lon="-1.2830817"><ele>54.0</ele><time>2026-05-02T11:47:29.405Z</time></trkpt><trkpt lat="53.7641833" lon="-1.28329"><ele>53.5</ele><time>2026-05-02T11:47:30.405Z</time></trkpt><trkpt lat="53.7644583" lon="-1.2835067"><ele>53.0</ele><time>2026-05-02T11:47:31.407Z</time></trkpt><trkpt lat="53.7647367" lon="-1.283725"><ele>53.0</ele><time>2026-05-02T11:47:32.405Z</time></trkpt><trkpt lat="53.765015" lon="-1.2839483"><ele>53.0</ele><time>2026-05-02T11:47:33.405Z</time></trkpt><trkpt lat="53.765295" lon="-1.2841717"><ele>51.5</ele><time>2026-05-02T11:47:34.406Z</time></trkpt><trkpt lat="53.765575" lon="-1.2843867"><ele>50.0</ele><time>2026-05-02T11:47:35.405Z</time></trkpt><trkpt lat="53.7658533" lon="-1.284605"><ele>49.0</ele><time>2026-05-02T11:47:36.405Z</time></trkpt><trkpt lat="53.76613" lon="-1.2848233"><ele>48.0</ele><time>2026-05-02T11:47:37.405Z</time></trkpt><trkpt lat="53.7664117" lon="-1.2850417"><ele>48.0</ele><time>2026-05-02T11:47:38.408Z</time></trkpt><trkpt lat="53.7667017" lon="-1.28527"><ele>48.0</ele><time>2026-05-02T11:47:39.406Z</time></trkpt><trkpt lat="53.766995" lon="-1.2855083"><ele>47.5</ele><time>2026-05-02T11:47:40.405Z</time></trkpt><trkpt lat="53.7672917" lon="-1.285755"><ele>47.0</ele><time>2026-05-02T11:47:41.405Z</time></trkpt><trkpt lat="53.7676" lon="-1.2860017"><ele>47.5</ele><time>2026-05-02T11:47:42.405Z</time></trkpt><trkpt lat="53.7679117" lon="-1.2862417"><ele>48.0</ele><time>2026-05-02T11:47:43.406Z</time></trkpt><trkpt lat="53.7682133" lon="-1.286475"><ele>48.5</ele><time>2026-05-02T11:47:44.407Z</time></trkpt><trkpt lat="53.7685067" lon="-1.286705"><ele>49.0</ele><time>2026-05-02T11:47:45.406Z</time></trkpt><trkpt lat="53.7687933" lon="-1.28693"><ele>49.0</ele><time>2026-05-02T11:47:46.405Z</time></trkpt><trkpt lat="53.7690767" lon="-1.287155"><ele>49.0</ele><time>2026-05-02T11:47:47.403Z</time></trkpt><trkpt lat="53.7693583" lon="-1.2873783"><ele>48.5</ele><time>2026-05-02T11:47:48.404Z</time></trkpt><trkpt lat="53.7696383" lon="-1.2876017"><ele>48.0</ele><time>2026-05-02T11:47:49.402Z</time></trkpt><trkpt lat="53.7699133" lon="-1.287825"><ele>48.0</ele><time>2026-05-02T11:47:50.411Z</time></trkpt><trkpt lat="53.770185" lon="-1.2880483"><ele>48.0</ele><time>2026-05-02T11:47:51.406Z</time></trkpt><trkpt lat="53.7704467" lon="-1.2882717"><ele>48.5</ele><time>2026-05-02T11:47:52.406Z</time></trkpt><trkpt lat="53.77071" lon="-1.2885"><ele>49.0</ele><time>2026-05-02T11:47:53.407Z</time></trkpt><trkpt lat="53.7709717" lon="-1.28873"><ele>48.5</ele><time>2026-05-02T11:47:54.405Z</time></trkpt><trkpt lat="53.7712217" lon="-1.28895"><ele>48.0</ele><time>2026-05-02T11:47:55.406Z</time></trkpt><trkpt lat="53.7714667" lon="-1.28917"><ele>48.0</ele><time>2026-05-02T11:47:56.407Z</time></trkpt><trkpt lat="53.7717067" lon="-1.2893933"><ele>48.0</ele><time>2026-05-02T11:47:57.405Z</time></trkpt><trkpt lat="53.7719433" lon="-1.28963"><ele>48.0</ele><time>2026-05-02T11:47:58.402Z</time></trkpt><trkpt lat="53.7721783" lon="-1.2898733"><ele>48.0</ele><time>2026-05-02T11:47:59.406Z</time></trkpt><trkpt lat="53.7724083" lon="-1.2901183"><ele>48.0</ele><time>2026-05-02T11:48:00.406Z</time></trkpt><trkpt lat="53.7726367" lon="-1.290365"><ele>48.0</ele><time>2026-05-02T11:48:01.406Z</time></trkpt><trkpt lat="53.7728617" lon="-1.29062"><ele>48.0</ele><time>2026-05-02T11:48:02.408Z</time></trkpt><trkpt lat="53.7730833" lon="-1.2908833"><ele>48.0</ele><time>2026-05-02T11:48:03.405Z</time></trkpt><trkpt lat="53.773305" lon="-1.291155"><ele>49.0</ele><time>2026-05-02T11:48:04.405Z</time></trkpt><trkpt lat="53.7735283" lon="-1.291435"><ele>50.0</ele><time>2026-05-02T11:48:05.405Z</time></trkpt><trkpt lat="53.7737467" lon="-1.2917267"><ele>50.0</ele><time>2026-05-02T11:48:06.406Z</time></trkpt><trkpt lat="53.773965" lon="-1.2920283"><ele>50.0</ele><time>2026-05-02T11:48:07.406Z</time></trkpt><trkpt lat="53.7741817" lon="-1.2923333"><ele>48.5</ele><time>2026-05-02T11:48:08.409Z</time></trkpt><trkpt lat="53.7743917" lon="-1.2926467"><ele>47.0</ele><time>2026-05-02T11:48:09.406Z</time></trkpt><trkpt lat="53.7746017" lon="-1.29296"><ele>48.0</ele><time>2026-05-02T11:48:10.406Z</time></trkpt><trkpt lat="53.7748117" lon="-1.2932733"><ele>49.0</ele><time>2026-05-02T11:48:11.406Z</time></trkpt><trkpt lat="53.775015" lon="-1.2935967"><ele>49.0</ele><time>2026-05-02T11:48:12.407Z</time></trkpt><trkpt lat="53.775215" lon="-1.293925"><ele>49.0</ele><time>2026-05-02T11:48:13.406Z</time></trkpt><trkpt lat="53.7754133" lon="-1.2942583"><ele>49.0</ele><time>2026-05-02T11:48:14.406Z</time></trkpt><trkpt lat="53.775605" lon="-1.2946"><ele>49.0</ele><time>2026-05-02T11:48:15.405Z</time></trkpt><trkpt lat="53.7757933" lon="-1.294945"><ele>50.0</ele><time>2026-05-02T11:48:16.405Z</time></trkpt><trkpt lat="53.7759767" lon="-1.2952983"><ele>51.0</ele><time>2026-05-02T11:48:17.405Z</time></trkpt><trkpt lat="53.7761583" lon="-1.2956567"><ele>51.0</ele><time>2026-05-02T11:48:18.406Z</time></trkpt><trkpt lat="53.776335" lon="-1.2960217"><ele>51.0</ele><time>2026-05-02T11:48:19.405Z</time></trkpt><trkpt lat="53.77651" lon="-1.2963883"><ele>51.5</ele><time>2026-05-02T11:48:20.407Z</time></trkpt><trkpt lat="53.776685" lon="-1.2967583"><ele>52.0</ele><time>2026-05-02T11:48:21.406Z</time></trkpt><trkpt lat="53.7768533" lon="-1.297135"><ele>51.0</ele><time>2026-05-02T11:48:22.406Z</time></trkpt><trkpt lat="53.7770167" lon="-1.29752"><ele>50.0</ele><time>2026-05-02T11:48:23.405Z</time></trkpt><trkpt lat="53.7771717" lon="-1.2979117"><ele>50.5</ele><time>2026-05-02T11:48:24.405Z</time></trkpt><trkpt lat="53.7773217" lon="-1.2983083"><ele>51.0</ele><time>2026-05-02T11:48:25.408Z</time></trkpt><trkpt lat="53.77747" lon="-1.29871"><ele>51.5</ele><time>2026-05-02T11:48:26.407Z</time></trkpt><trkpt lat="53.7776117" lon="-1.299115"><ele>52.0</ele><time>2026-05-02T11:48:27.402Z</time></trkpt><trkpt lat="53.7777567" lon="-1.2995183"><ele>52.5</ele><time>2026-05-02T11:48:28.406Z</time></trkpt><trkpt lat="53.7778967" lon="-1.2999217"><ele>53.0</ele><time>2026-05-02T11:48:29.405Z</time></trkpt><trkpt lat="53.7780333" lon="-1.30033"><ele>53.5</ele><time>2026-05-02T11:48:30.403Z</time></trkpt><trkpt lat="53.7781667" lon="-1.3007417"><ele>54.0</ele><time>2026-05-02T11:48:31.406Z</time></trkpt><trkpt lat="53.7782917" lon="-1.3011567"><ele>55.0</ele><time>2026-05-02T11:48:32.406Z</time></trkpt><trkpt lat="53.7784133" lon="-1.3015783"><ele>56.0</ele><time>2026-05-02T11:48:33.406Z</time></trkpt><trkpt lat="53.7785333" lon="-1.3020033"><ele>57.0</ele><time>2026-05-02T11:48:34.405Z</time></trkpt><trkpt lat="53.7786467" lon="-1.3024317"><ele>58.0</ele><time>2026-05-02T11:48:35.406Z</time></trkpt><trkpt lat="53.7787567" lon="-1.30287"><ele>59.0</ele><time>2026-05-02T11:48:36.406Z</time></trkpt><trkpt lat="53.7788617" lon="-1.3033067"><ele>60.0</ele><time>2026-05-02T11:48:37.405Z</time></trkpt><trkpt lat="53.7789667" lon="-1.3037483"><ele>61.5</ele><time>2026-05-02T11:48:38.408Z</time></trkpt><trkpt lat="53.7790633" lon="-1.30419"><ele>63.0</ele><time>2026-05-02T11:48:39.406Z</time></trkpt><trkpt lat="53.7791583" lon="-1.304635"><ele>64.0</ele><time>2026-05-02T11:48:40.406Z</time></trkpt><trkpt lat="53.779248" lon="-1.3050823"><ele>65.0</ele><time>2026-05-02T11:48:41.407Z</time></trkpt><trkpt lat="53.779331" lon="-1.3055303"><ele>66.0</ele><time>2026-05-02T11:48:42.406Z</time></trkpt><trkpt lat="53.779408" lon="-1.3059817"><ele>67.0</ele><time>2026-05-02T11:48:43.409Z</time></trkpt><trkpt lat="53.7794811" lon="-1.3064335"><ele>68.5</ele><time>2026-05-02T11:48:44.408Z</time></trkpt><trkpt lat="53.7795497" lon="-1.3068918"><ele>70.0</ele><time>2026-05-02T11:48:45.411Z</time></trkpt><trkpt lat="53.7796142" lon="-1.3073469"><ele>70.5</ele><time>2026-05-02T11:48:46.406Z</time></trkpt><trkpt lat="53.7796768" lon="-1.3078068"><ele>71.0</ele><time>2026-05-02T11:48:47.405Z</time></trkpt><trkpt lat="53.7797339" lon="-1.3082716"><ele>72.0</ele><time>2026-05-02T11:48:48.405Z</time></trkpt><trkpt lat="53.7797881" lon="-1.3087378"><ele>73.0</ele><time>2026-05-02T11:48:49.406Z</time></trkpt><trkpt lat="53.7798393" lon="-1.3092058"><ele>74.0</ele><time>2026-05-02T11:48:50.407Z</time></trkpt><trkpt lat="53.779887" lon="-1.3096715"><ele>75.0</ele><time>2026-05-02T11:48:51.407Z</time></trkpt><trkpt lat="53.7799327" lon="-1.3101349"><ele>75.0</ele><time>2026-05-02T11:48:52.406Z</time></trkpt><trkpt lat="53.7799788" lon="-1.3105968"><ele>75.0</ele><time>2026-05-02T11:48:53.405Z</time></trkpt><trkpt lat="53.7800266" lon="-1.3110601"><ele>75.0</ele><time>2026-05-02T11:48:54.406Z</time></trkpt><trkpt lat="53.7800797" lon="-1.3115255"><ele>75.0</ele><time>2026-05-02T11:48:55.406Z</time></trkpt><trkpt lat="53.780139" lon="-1.3119881"><ele>76.0</ele><time>2026-05-02T11:48:56.408Z</time></trkpt><trkpt lat="53.7802027" lon="-1.3124495"><ele>77.0</ele><time>2026-05-02T11:48:57.405Z</time></trkpt><trkpt lat="53.7802748" lon="-1.312907"><ele>77.0</ele><time>2026-05-02T11:48:58.407Z</time></trkpt><trkpt lat="53.7803563" lon="-1.3133566"><ele>77.0</ele><time>2026-05-02T11:48:59.406Z</time></trkpt><trkpt lat="53.78045" lon="-1.3137989"><ele>76.5</ele><time>2026-05-02T11:49:00.405Z</time></trkpt><trkpt lat="53.7805555" lon="-1.3142368"><ele>76.0</ele><time>2026-05-02T11:49:01.405Z</time></trkpt><trkpt lat="53.7806693" lon="-1.3146701"><ele>76.0</ele><time>2026-05-02T11:49:02.408Z</time></trkpt><trkpt lat="53.7807914" lon="-1.3150991"><ele>76.0</ele><time>2026-05-02T11:49:03.405Z</time></trkpt><trkpt lat="53.7809218" lon="-1.3155213"><ele>79.0</ele><time>2026-05-02T11:49:04.406Z</time></trkpt><trkpt lat="53.7810627" lon="-1.3159319"><ele>82.0</ele><time>2026-05-02T11:49:05.402Z</time></trkpt><trkpt lat="53.7812135" lon="-1.3163283"><ele>81.0</ele><time>2026-05-02T11:49:06.403Z</time></trkpt><trkpt lat="53.7813708" lon="-1.3167165"><ele>80.0</ele><time>2026-05-02T11:49:07.406Z</time></trkpt><trkpt lat="53.7815328" lon="-1.3170992"><ele>79.0</ele><time>2026-05-02T11:49:08.408Z</time></trkpt><trkpt lat="53.7817025" lon="-1.3174737"><ele>78.0</ele><time>2026-05-02T11:49:09.407Z</time></trkpt><trkpt lat="53.7818817" lon="-1.3178349"><ele>79.0</ele><time>2026-05-02T11:49:10.406Z</time></trkpt><trkpt lat="53.7820751" lon="-1.3181779"><ele>80.0</ele><time>2026-05-02T11:49:11.406Z</time></trkpt><trkpt lat="53.7822808" lon="-1.3185045"><ele>80.0</ele><time>2026-05-02T11:49:12.402Z</time></trkpt><trkpt lat="53.78249" lon="-1.31882"><ele>80.0</ele><time>2026-05-02T11:49:13.405Z</time></trkpt><trkpt lat="53.7827041" lon="-1.3191256"><ele>78.0</ele><time>2026-05-02T11:49:14.407Z</time></trkpt><trkpt lat="53.7829245" lon="-1.3194203"><ele>76.0</ele><time>2026-05-02T11:49:15.411Z</time></trkpt><trkpt lat="53.7831456" lon="-1.3197002"><ele>74.5</ele><time>2026-05-02T11:49:16.408Z</time></trkpt><trkpt lat="53.7833703" lon="-1.3199686"><ele>73.0</ele><time>2026-05-02T11:49:17.407Z</time></trkpt><trkpt lat="53.7836047" lon="-1.3202243"><ele>73.0</ele><time>2026-05-02T11:49:18.405Z</time></trkpt><trkpt lat="53.7838429" lon="-1.3204684"><ele>73.0</ele><time>2026-05-02T11:49:19.407Z</time></trkpt><trkpt lat="53.7840863" lon="-1.3207014"><ele>72.0</ele><time>2026-05-02T11:49:20.406Z</time></trkpt><trkpt lat="53.7843345" lon="-1.3209181"><ele>71.0</ele><time>2026-05-02T11:49:21.405Z</time></trkpt><trkpt lat="53.7845884" lon="-1.3211192"><ele>69.5</ele><time>2026-05-02T11:49:22.405Z</time></trkpt><trkpt lat="53.7848453" lon="-1.3213071"><ele>68.0</ele><time>2026-05-02T11:49:23.405Z</time></trkpt><trkpt lat="53.785104" lon="-1.321479"><ele>68.0</ele><time>2026-05-02T11:49:24.406Z</time></trkpt><trkpt lat="53.7853672" lon="-1.3216308"><ele>68.0</ele><time>2026-05-02T11:49:25.405Z</time></trkpt><trkpt lat="53.7856364" lon="-1.3217622"><ele>68.0</ele><time>2026-05-02T11:49:26.406Z</time></trkpt><trkpt lat="53.7859069" lon="-1.3218732"><ele>68.0</ele><time>2026-05-02T11:49:27.405Z</time></trkpt><trkpt lat="53.7861774" lon="-1.3219664"><ele>69.0</ele><time>2026-05-02T11:49:28.401Z</time></trkpt><trkpt lat="53.786451" lon="-1.3220497"><ele>70.0</ele><time>2026-05-02T11:49:29.402Z</time></trkpt><trkpt lat="53.7867258" lon="-1.3221142"><ele>69.0</ele><time>2026-05-02T11:49:30.402Z</time></trkpt><trkpt lat="53.7870051" lon="-1.3221571"><ele>68.0</ele><time>2026-05-02T11:49:31.402Z</time></trkpt><trkpt lat="53.7872855" lon="-1.3221896"><ele>68.0</ele><time>2026-05-02T11:49:32.403Z</time></trkpt><trkpt lat="53.7875681" lon="-1.3222187"><ele>68.0</ele><time>2026-05-02T11:49:33.403Z</time></trkpt><trkpt lat="53.7878493" lon="-1.3222414"><ele>66.0</ele><time>2026-05-02T11:49:34.401Z</time></trkpt><trkpt lat="53.788131" lon="-1.3222563"><ele>64.0</ele><time>2026-05-02T11:49:35.402Z</time></trkpt><trkpt lat="53.7884134" lon="-1.3222641"><ele>64.0</ele><time>2026-05-02T11:49:36.406Z</time></trkpt><trkpt lat="53.7886945" lon="-1.3222663"><ele>64.0</ele><time>2026-05-02T11:49:37.402Z</time></trkpt><trkpt lat="53.7889761" lon="-1.3222681"><ele>64.0</ele><time>2026-05-02T11:49:38.403Z</time></trkpt><trkpt lat="53.7892593" lon="-1.3222709"><ele>64.0</ele><time>2026-05-02T11:49:39.402Z</time></trkpt><trkpt lat="53.7895426" lon="-1.3222729"><ele>64.0</ele><time>2026-05-02T11:49:40.401Z</time></trkpt><trkpt lat="53.7898261" lon="-1.3222722"><ele>64.0</ele><time>2026-05-02T11:49:41.402Z</time></trkpt><trkpt lat="53.7901083" lon="-1.3222699"><ele>64.5</ele><time>2026-05-02T11:49:42.402Z</time></trkpt><trkpt lat="53.7903885" lon="-1.3222711"><ele>65.0</ele><time>2026-05-02T11:49:43.403Z</time></trkpt><trkpt lat="53.7906698" lon="-1.322273"><ele>65.0</ele><time>2026-05-02T11:49:44.403Z</time></trkpt><trkpt lat="53.7909502" lon="-1.3222733"><ele>65.0</ele><time>2026-05-02T11:49:45.402Z</time></trkpt><trkpt lat="53.7912288" lon="-1.3222701"><ele>64.5</ele><time>2026-05-02T11:49:46.402Z</time></trkpt><trkpt lat="53.7915082" lon="-1.322268"><ele>64.0</ele><time>2026-05-02T11:49:47.401Z</time></trkpt><trkpt lat="53.7917885" lon="-1.3222718"><ele>62.0</ele><time>2026-05-02T11:49:48.403Z</time></trkpt><trkpt lat="53.7920685" lon="-1.3222802"><ele>60.0</ele><time>2026-05-02T11:49:49.403Z</time></trkpt><trkpt lat="53.7923486" lon="-1.3222932"><ele>60.0</ele><time>2026-05-02T11:49:50.406Z</time></trkpt><trkpt lat="53.7926294" lon="-1.3223076"><ele>60.0</ele><time>2026-05-02T11:49:51.402Z</time></trkpt><trkpt lat="53.7929125" lon="-1.3223238"><ele>55.5</ele><time>2026-05-02T11:49:52.402Z</time></trkpt><trkpt lat="53.7931964" lon="-1.3223484"><ele>51.0</ele><time>2026-05-02T11:49:53.408Z</time></trkpt><trkpt lat="53.7934834" lon="-1.3223867"><ele>50.5</ele><time>2026-05-02T11:49:54.402Z</time></trkpt><trkpt lat="53.7937745" lon="-1.3224451"><ele>50.0</ele><time>2026-05-02T11:49:55.402Z</time></trkpt><trkpt lat="53.7940625" lon="-1.3225298"><ele>54.0</ele><time>2026-05-02T11:49:56.404Z</time></trkpt><trkpt lat="53.7943398" lon="-1.3226332"><ele>58.0</ele><time>2026-05-02T11:49:57.402Z</time></trkpt><trkpt lat="53.7946103" lon="-1.3227437"><ele>58.0</ele><time>2026-05-02T11:49:58.404Z</time></trkpt><trkpt lat="53.7948759" lon="-1.3228648"><ele>58.0</ele><time>2026-05-02T11:49:59.402Z</time></trkpt><trkpt lat="53.7951419" lon="-1.322997"><ele>59.0</ele><time>2026-05-02T11:50:00.402Z</time></trkpt><trkpt lat="53.7953992" lon="-1.3231538"><ele>60.0</ele><time>2026-05-02T11:50:01.401Z</time></trkpt><trkpt lat="53.795651" lon="-1.3233408"><ele>60.0</ele><time>2026-05-02T11:50:02.403Z</time></trkpt><trkpt lat="53.7958967" lon="-1.3235526"><ele>60.0</ele><time>2026-05-02T11:50:03.405Z</time></trkpt><trkpt lat="53.7961387" lon="-1.3237862"><ele>62.0</ele><time>2026-05-02T11:50:04.404Z</time></trkpt><trkpt lat="53.7963752" lon="-1.3240325"><ele>64.0</ele><time>2026-05-02T11:50:05.405Z</time></trkpt><trkpt lat="53.7966101" lon="-1.3242899"><ele>64.5</ele><time>2026-05-02T11:50:06.405Z</time></trkpt><trkpt lat="53.7968386" lon="-1.3245624"><ele>65.0</ele><time>2026-05-02T11:50:07.404Z</time></trkpt><trkpt lat="53.7970604" lon="-1.3248594"><ele>65.0</ele><time>2026-05-02T11:50:08.407Z</time></trkpt><trkpt lat="53.7972777" lon="-1.3251804"><ele>65.0</ele><time>2026-05-02T11:50:09.404Z</time></trkpt><trkpt lat="53.7974922" lon="-1.3255262"><ele>65.0</ele><time>2026-05-02T11:50:10.405Z</time></trkpt><trkpt lat="53.797701" lon="-1.3258923"><ele>65.0</ele><time>2026-05-02T11:50:11.405Z</time></trkpt><trkpt lat="53.7979041" lon="-1.3262731"><ele>64.0</ele><time>2026-05-02T11:50:12.404Z</time></trkpt><trkpt lat="53.7980964" lon="-1.3266768"><ele>63.0</ele><time>2026-05-02T11:50:13.405Z</time></trkpt><trkpt lat="53.7982797" lon="-1.3271003"><ele>63.0</ele><time>2026-05-02T11:50:14.402Z</time></trkpt><trkpt lat="53.7984527" lon="-1.3275455"><ele>63.0</ele><time>2026-05-02T11:50:15.404Z</time></trkpt><trkpt lat="53.7986168" lon="-1.3280038"><ele>62.0</ele><time>2026-05-02T11:50:16.404Z</time></trkpt><trkpt lat="53.7987692" lon="-1.3284648"><ele>61.0</ele><time>2026-05-02T11:50:17.405Z</time></trkpt><trkpt lat="53.7989089" lon="-1.3289235"><ele>60.0</ele><time>2026-05-02T11:50:18.405Z</time></trkpt><trkpt lat="53.7990461" lon="-1.3293758"><ele>59.0</ele><time>2026-05-02T11:50:19.409Z</time></trkpt><trkpt lat="53.7991784" lon="-1.3298117"><ele>58.0</ele><time>2026-05-02T11:50:20.405Z</time></trkpt><trkpt lat="53.7993062" lon="-1.3302477"><ele>57.0</ele><time>2026-05-02T11:50:21.405Z</time></trkpt><trkpt lat="53.7994354" lon="-1.3306917"><ele>59.5</ele><time>2026-05-02T11:50:22.405Z</time></trkpt><trkpt lat="53.799569" lon="-1.3311348"><ele>62.0</ele><time>2026-05-02T11:50:23.405Z</time></trkpt><trkpt lat="53.7997103" lon="-1.3315658"><ele>62.0</ele><time>2026-05-02T11:50:24.405Z</time></trkpt><trkpt lat="53.7998601" lon="-1.3319859"><ele>62.0</ele><time>2026-05-02T11:50:25.405Z</time></trkpt><trkpt lat="53.8000192" lon="-1.3323947"><ele>64.0</ele><time>2026-05-02T11:50:26.405Z</time></trkpt><trkpt lat="53.8001825" lon="-1.3327946"><ele>66.0</ele><time>2026-05-02T11:50:27.404Z</time></trkpt><trkpt lat="53.8003511" lon="-1.3331841"><ele>66.0</ele><time>2026-05-02T11:50:28.404Z</time></trkpt><trkpt lat="53.8005241" lon="-1.3335616"><ele>66.0</ele><time>2026-05-02T11:50:29.405Z</time></trkpt><trkpt lat="53.8007039" lon="-1.3339257"><ele>66.5</ele><time>2026-05-02T11:50:30.405Z</time></trkpt><trkpt lat="53.8008868" lon="-1.334284"><ele>67.0</ele><time>2026-05-02T11:50:31.405Z</time></trkpt><trkpt lat="53.8010738" lon="-1.3346336"><ele>68.5</ele><time>2026-05-02T11:50:32.406Z</time></trkpt><trkpt lat="53.8012703" lon="-1.3349698"><ele>70.0</ele><time>2026-05-02T11:50:33.404Z</time></trkpt><trkpt lat="53.8014751" lon="-1.3352931"><ele>69.5</ele><time>2026-05-02T11:50:34.402Z</time></trkpt><trkpt lat="53.8016893" lon="-1.3356031"><ele>69.0</ele><time>2026-05-02T11:50:35.404Z</time></trkpt><trkpt lat="53.8019107" lon="-1.3359015"><ele>70.5</ele><time>2026-05-02T11:50:36.405Z</time></trkpt><trkpt lat="53.8021323" lon="-1.3361929"><ele>72.0</ele><time>2026-05-02T11:50:37.405Z</time></trkpt><trkpt lat="53.8023574" lon="-1.3364762"><ele>72.0</ele><time>2026-05-02T11:50:38.406Z</time></trkpt><trkpt lat="53.8025836" lon="-1.3367499"><ele>72.0</ele><time>2026-05-02T11:50:39.405Z</time></trkpt><trkpt lat="53.8028105" lon="-1.3370159"><ele>73.0</ele><time>2026-05-02T11:50:40.406Z</time></trkpt><trkpt lat="53.8030383" lon="-1.3372781"><ele>74.0</ele><time>2026-05-02T11:50:41.415Z</time></trkpt><trkpt lat="53.8032669" lon="-1.3375343"><ele>73.5</ele><time>2026-05-02T11:50:42.404Z</time></trkpt><trkpt lat="53.8035002" lon="-1.3377897"><ele>73.0</ele><time>2026-05-02T11:50:43.405Z</time></trkpt><trkpt lat="53.8037367" lon="-1.3380348"><ele>75.0</ele><time>2026-05-02T11:50:44.407Z</time></trkpt><trkpt lat="53.8039807" lon="-1.3382676"><ele>77.0</ele><time>2026-05-02T11:50:45.405Z</time></trkpt><trkpt lat="53.804231" lon="-1.3384892"><ele>77.5</ele><time>2026-05-02T11:50:46.405Z</time></trkpt><trkpt lat="53.804485" lon="-1.3387009"><ele>78.0</ele><time>2026-05-02T11:50:47.402Z</time></trkpt><trkpt lat="53.8047399" lon="-1.3389037"><ele>79.0</ele><time>2026-05-02T11:50:48.406Z</time></trkpt><trkpt lat="53.8049985" lon="-1.3390956"><ele>80.0</ele><time>2026-05-02T11:50:49.402Z</time></trkpt><trkpt lat="53.8052551" lon="-1.3392825"><ele>81.0</ele><time>2026-05-02T11:50:50.406Z</time></trkpt><trkpt lat="53.8055113" lon="-1.3394651"><ele>82.0</ele><time>2026-05-02T11:50:51.405Z</time></trkpt><trkpt lat="53.8057663" lon="-1.3396378"><ele>84.0</ele><time>2026-05-02T11:50:52.401Z</time></trkpt><trkpt lat="53.8060189" lon="-1.3398"><ele>86.0</ele><time>2026-05-02T11:50:53.403Z</time></trkpt><trkpt lat="53.8062758" lon="-1.3399532"><ele>86.0</ele><time>2026-05-02T11:50:54.406Z</time></trkpt><trkpt lat="53.8065364" lon="-1.3400966"><ele>86.0</ele><time>2026-05-02T11:50:55.405Z</time></trkpt><trkpt lat="53.8068003" lon="-1.3402348"><ele>86.5</ele><time>2026-05-02T11:50:56.405Z</time></trkpt><trkpt lat="53.8070617" lon="-1.3403716"><ele>87.0</ele><time>2026-05-02T11:50:57.404Z</time></trkpt><trkpt lat="53.8073271" lon="-1.3405059"><ele>87.5</ele><time>2026-05-02T11:50:58.404Z</time></trkpt><trkpt lat="53.8075916" lon="-1.340634"><ele>88.0</ele><time>2026-05-02T11:50:59.404Z</time></trkpt><trkpt lat="53.8078499" lon="-1.3407557"><ele>89.0</ele><time>2026-05-02T11:51:00.405Z</time></trkpt><trkpt lat="53.8081007" lon="-1.3408678"><ele>90.0</ele><time>2026-05-02T11:51:01.403Z</time></trkpt><trkpt lat="53.8083421" lon="-1.3409696"><ele>88.5</ele><time>2026-05-02T11:51:02.407Z</time></trkpt><trkpt lat="53.8085771" lon="-1.3410711"><ele>87.0</ele><time>2026-05-02T11:51:03.404Z</time></trkpt><trkpt lat="53.8088106" lon="-1.3411675"><ele>87.0</ele><time>2026-05-02T11:51:04.404Z</time></trkpt><trkpt lat="53.8090324" lon="-1.3412564"><ele>87.0</ele><time>2026-05-02T11:51:05.403Z</time></trkpt><trkpt lat="53.8092489" lon="-1.3413365"><ele>85.66666666666667</ele><time>2026-05-02T11:51:06.407Z</time></trkpt><trkpt lat="53.8094598" lon="-1.3414131"><ele>84.33333333333334</ele><time>2026-05-02T11:51:07.406Z</time></trkpt><trkpt lat="53.8096707" lon="-1.3414896"><ele>83.0</ele><time>2026-05-02T11:51:08.405Z</time></trkpt><trkpt lat="53.8098819" lon="-1.3415652"><ele>83.0</ele><time>2026-05-02T11:51:09.405Z</time></trkpt><trkpt lat="53.8100892" lon="-1.3416374"><ele>83.0</ele><time>2026-05-02T11:51:10.411Z</time></trkpt><trkpt lat="53.810296" lon="-1.3417058"><ele>83.0</ele><time>2026-05-02T11:51:11.403Z</time></trkpt><trkpt lat="53.8105073" lon="-1.3417703"><ele>83.0</ele><time>2026-05-02T11:51:12.403Z</time></trkpt><trkpt lat="53.8107184" lon="-1.3418328"><ele>83.0</ele><time>2026-05-02T11:51:13.403Z</time></trkpt><trkpt lat="53.8109265" lon="-1.3419005"><ele>83.0</ele><time>2026-05-02T11:51:14.403Z</time></trkpt><trkpt lat="53.8111372" lon="-1.3419662"><ele>82.0</ele><time>2026-05-02T11:51:15.402Z</time></trkpt><trkpt lat="53.8113517" lon="-1.3420292"><ele>81.0</ele><time>2026-05-02T11:51:16.403Z</time></trkpt><trkpt lat="53.8115635" lon="-1.3420862"><ele>80.0</ele><time>2026-05-02T11:51:17.405Z</time></trkpt><trkpt lat="53.81177" lon="-1.3421305"><ele>79.66666666666667</ele><time>2026-05-02T11:51:18.403Z</time></trkpt><trkpt lat="53.811971" lon="-1.3421717"><ele>79.33333333333333</ele><time>2026-05-02T11:51:19.404Z</time></trkpt><trkpt lat="53.8121689" lon="-1.3422078"><ele>79.0</ele><time>2026-05-02T11:51:20.406Z</time></trkpt><trkpt lat="53.812362" lon="-1.3422399"><ele>78.33333333333333</ele><time>2026-05-02T11:51:21.405Z</time></trkpt><trkpt lat="53.8125543" lon="-1.3422679"><ele>77.66666666666667</ele><time>2026-05-02T11:51:22.405Z</time></trkpt><trkpt lat="53.8127482" lon="-1.3422851"><ele>77.0</ele><time>2026-05-02T11:51:23.403Z</time></trkpt><trkpt lat="53.8129449" lon="-1.3422907"><ele>77.0</ele><time>2026-05-02T11:51:24.408Z</time></trkpt><trkpt lat="53.8131415" lon="-1.3422893"><ele>77.0</ele><time>2026-05-02T11:51:25.405Z</time></trkpt><trkpt lat="53.8133399" lon="-1.3422814"><ele>77.0</ele><time>2026-05-02T11:51:26.404Z</time></trkpt><trkpt lat="53.8135397" lon="-1.3422679"><ele>77.33333333333334</ele><time>2026-05-02T11:51:27.404Z</time></trkpt><trkpt lat="53.8137417" lon="-1.3422503"><ele>77.66666666666667</ele><time>2026-05-02T11:51:28.403Z</time></trkpt><trkpt lat="53.8139492" lon="-1.3422228"><ele>78.0</ele><time>2026-05-02T11:51:29.405Z</time></trkpt><trkpt lat="53.8141569" lon="-1.3421897"><ele>76.33333333333333</ele><time>2026-05-02T11:51:30.405Z</time></trkpt><trkpt lat="53.8143664" lon="-1.3421528"><ele>74.66666666666666</ele><time>2026-05-02T11:51:31.404Z</time></trkpt><trkpt lat="53.8145777" lon="-1.3421143"><ele>73.0</ele><time>2026-05-02T11:51:32.402Z</time></trkpt><trkpt lat="53.8147911" lon="-1.3420672"><ele>73.0</ele><time>2026-05-02T11:51:33.405Z</time></trkpt><trkpt lat="53.8150083" lon="-1.3420047"><ele>73.0</ele><time>2026-05-02T11:51:34.403Z</time></trkpt><trkpt lat="53.8152266" lon="-1.3419312"><ele>73.0</ele><time>2026-05-02T11:51:35.402Z</time></trkpt><trkpt lat="53.8154481" lon="-1.3418463"><ele>73.0</ele><time>2026-05-02T11:51:36.402Z</time></trkpt><trkpt lat="53.8156733" lon="-1.3417502"><ele>73.0</ele><time>2026-05-02T11:51:37.404Z</time></trkpt><trkpt lat="53.8159016" lon="-1.3416466"><ele>72.5</ele><time>2026-05-02T11:51:38.403Z</time></trkpt><trkpt lat="53.8161281" lon="-1.3415386"><ele>72.0</ele><time>2026-05-02T11:51:39.405Z</time></trkpt><trkpt lat="53.8163524" lon="-1.3414262"><ele>71.5</ele><time>2026-05-02T11:51:40.406Z</time></trkpt><trkpt lat="53.8165772" lon="-1.3413117"><ele>71.0</ele><time>2026-05-02T11:51:41.403Z</time></trkpt><trkpt lat="53.8168017" lon="-1.3411963"><ele>70.33333333333334</ele><time>2026-05-02T11:51:42.406Z</time></trkpt><trkpt lat="53.8170181" lon="-1.3410828"><ele>69.66666666666667</ele><time>2026-05-02T11:51:43.406Z</time></trkpt><trkpt lat="53.8172258" lon="-1.3409762"><ele>69.0</ele><time>2026-05-02T11:51:44.406Z</time></trkpt><trkpt lat="53.8174262" lon="-1.3408712"><ele>69.0</ele><time>2026-05-02T11:51:45.405Z</time></trkpt><trkpt lat="53.8176224" lon="-1.3407633"><ele>69.0</ele><time>2026-05-02T11:51:46.404Z</time></trkpt><trkpt lat="53.8178122" lon="-1.3406586"><ele>69.0</ele><time>2026-05-02T11:51:47.402Z</time></trkpt><trkpt lat="53.8179973" lon="-1.3405556"><ele>68.66666666666667</ele><time>2026-05-02T11:51:48.403Z</time></trkpt><trkpt lat="53.8181772" lon="-1.3404602"><ele>68.33333333333334</ele><time>2026-05-02T11:51:49.404Z</time></trkpt><trkpt lat="53.818355" lon="-1.3403725"><ele>68.0</ele><time>2026-05-02T11:51:50.403Z</time></trkpt><trkpt lat="53.8185343" lon="-1.3402864"><ele>66.0</ele><time>2026-05-02T11:51:51.403Z</time></trkpt><trkpt lat="53.818717" lon="-1.3401939"><ele>64.0</ele><time>2026-05-02T11:51:52.402Z</time></trkpt><trkpt lat="53.8189017" lon="-1.340095"><ele>62.0</ele><time>2026-05-02T11:51:53.403Z</time></trkpt><trkpt lat="53.8190891" lon="-1.3399968"><ele>62.0</ele><time>2026-05-02T11:51:54.403Z</time></trkpt><trkpt lat="53.8192735" lon="-1.3399028"><ele>62.0</ele><time>2026-05-02T11:51:55.402Z</time></trkpt><trkpt lat="53.8194551" lon="-1.3398197"><ele>62.0</ele><time>2026-05-02T11:51:56.404Z</time></trkpt><trkpt lat="53.8196311" lon="-1.3397436"><ele>61.0</ele><time>2026-05-02T11:51:57.402Z</time></trkpt><trkpt lat="53.8198014" lon="-1.3396741"><ele>60.0</ele><time>2026-05-02T11:51:58.402Z</time></trkpt><trkpt lat="53.8199663" lon="-1.339609"><ele>59.0</ele><time>2026-05-02T11:51:59.402Z</time></trkpt><trkpt lat="53.8201251" lon="-1.3395498"><ele>59.333333333333336</ele><time>2026-05-02T11:52:00.402Z</time></trkpt><trkpt lat="53.8202839" lon="-1.3394935"><ele>59.66666666666667</ele><time>2026-05-02T11:52:01.402Z</time></trkpt><trkpt lat="53.8204407" lon="-1.3394362"><ele>60.0</ele><time>2026-05-02T11:52:02.402Z</time></trkpt><trkpt lat="53.8205985" lon="-1.3393798"><ele>60.0</ele><time>2026-05-02T11:52:03.403Z</time></trkpt><trkpt lat="53.8207634" lon="-1.3393235"><ele>60.0</ele><time>2026-05-02T11:52:04.403Z</time></trkpt><trkpt lat="53.8209357" lon="-1.3392655"><ele>60.0</ele><time>2026-05-02T11:52:05.402Z</time></trkpt><trkpt lat="53.8211107" lon="-1.3392099"><ele>59.0</ele><time>2026-05-02T11:52:06.402Z</time></trkpt><trkpt lat="53.8212849" lon="-1.339157"><ele>58.0</ele><time>2026-05-02T11:52:07.403Z</time></trkpt><trkpt lat="53.8214625" lon="-1.3391085"><ele>57.0</ele><time>2026-05-02T11:52:08.402Z</time></trkpt><trkpt lat="53.8216369" lon="-1.3390649"><ele>57.0</ele><time>2026-05-02T11:52:09.402Z</time></trkpt><trkpt lat="53.8218067" lon="-1.3390256"><ele>57.0</ele><time>2026-05-02T11:52:10.402Z</time></trkpt><trkpt lat="53.8219681" lon="-1.3389902"><ele>57.0</ele><time>2026-05-02T11:52:11.403Z</time></trkpt><trkpt lat="53.8221215" lon="-1.3389605"><ele>56.0</ele><time>2026-05-02T11:52:12.402Z</time></trkpt><trkpt lat="53.8222698" lon="-1.3389385"><ele>55.0</ele><time>2026-05-02T11:52:13.403Z</time></trkpt><trkpt lat="53.822424" lon="-1.3389149"><ele>54.0</ele><time>2026-05-02T11:52:14.403Z</time></trkpt><trkpt lat="53.8225848" lon="-1.3388903"><ele>55.66666666666667</ele><time>2026-05-02T11:52:15.403Z</time></trkpt><trkpt lat="53.8227538" lon="-1.3388678"><ele>57.333333333333336</ele><time>2026-05-02T11:52:16.403Z</time></trkpt><trkpt lat="53.8229271" lon="-1.338843"><ele>59.0</ele><time>2026-05-02T11:52:17.404Z</time></trkpt><trkpt lat="53.8231012" lon="-1.3388233"><ele>59.0</ele><time>2026-05-02T11:52:18.402Z</time></trkpt><trkpt lat="53.8232752" lon="-1.3388067"><ele>59.0</ele><time>2026-05-02T11:52:19.407Z</time></trkpt><trkpt lat="53.8234483" lon="-1.3387903"><ele>59.0</ele><time>2026-05-02T11:52:20.403Z</time></trkpt><trkpt lat="53.8236287" lon="-1.3387749"><ele>59.333333333333336</ele><time>2026-05-02T11:52:21.404Z</time></trkpt><trkpt lat="53.8238134" lon="-1.3387587"><ele>59.66666666666667</ele><time>2026-05-02T11:52:22.402Z</time></trkpt><trkpt lat="53.8240057" lon="-1.3387415"><ele>60.0</ele><time>2026-05-02T11:52:23.402Z</time></trkpt><trkpt lat="53.8242029" lon="-1.3387202"><ele>59.0</ele><time>2026-05-02T11:52:24.404Z</time></trkpt><trkpt lat="53.8244047" lon="-1.3386959"><ele>58.0</ele><time>2026-05-02T11:52:25.406Z</time></trkpt><trkpt lat="53.824608" lon="-1.3386719"><ele>57.0</ele><time>2026-05-02T11:52:26.403Z</time></trkpt><trkpt lat="53.8248163" lon="-1.3386452"><ele>57.0</ele><time>2026-05-02T11:52:27.403Z</time></trkpt><trkpt lat="53.8250283" lon="-1.3386243"><ele>57.0</ele><time>2026-05-02T11:52:28.402Z</time></trkpt><trkpt lat="53.8252432" lon="-1.3386037"><ele>57.0</ele><time>2026-05-02T11:52:29.402Z</time></trkpt><trkpt lat="53.8254589" lon="-1.3385828"><ele>57.0</ele><time>2026-05-02T11:52:30.403Z</time></trkpt><trkpt lat="53.8256744" lon="-1.3385637"><ele>57.0</ele><time>2026-05-02T11:52:31.402Z</time></trkpt><trkpt lat="53.8258922" lon="-1.3385462"><ele>57.0</ele><time>2026-05-02T11:52:32.402Z</time></trkpt><trkpt lat="53.8261106" lon="-1.3385309"><ele>57.0</ele><time>2026-05-02T11:52:33.402Z</time></trkpt><trkpt lat="53.8263275" lon="-1.3385146"><ele>57.0</ele><time>2026-05-02T11:52:34.403Z</time></trkpt><trkpt lat="53.826543" lon="-1.3385018"><ele>57.0</ele><time>2026-05-02T11:52:35.403Z</time></trkpt><trkpt lat="53.826758" lon="-1.3384885"><ele>57.66666666666667</ele><time>2026-05-02T11:52:36.402Z</time></trkpt><trkpt lat="53.8269756" lon="-1.338474"><ele>58.333333333333336</ele><time>2026-05-02T11:52:37.403Z</time></trkpt><trkpt lat="53.8271882" lon="-1.338458"><ele>59.0</ele><time>2026-05-02T11:52:38.402Z</time></trkpt><trkpt lat="53.8273942" lon="-1.338444"><ele>59.0</ele><time>2026-05-02T11:52:39.403Z</time></trkpt><trkpt lat="53.8275917" lon="-1.3384294"><ele>59.0</ele><time>2026-05-02T11:52:40.402Z</time></trkpt><trkpt lat="53.8277817" lon="-1.3384158"><ele>59.0</ele><time>2026-05-02T11:52:41.403Z</time></trkpt><trkpt lat="53.8279638" lon="-1.3384026"><ele>57.66666666666667</ele><time>2026-05-02T11:52:42.403Z</time></trkpt><trkpt lat="53.8281391" lon="-1.3383905"><ele>56.33333333333333</ele><time>2026-05-02T11:52:43.402Z</time></trkpt><trkpt lat="53.8283105" lon="-1.3383774"><ele>55.0</ele><time>2026-05-02T11:52:44.403Z</time></trkpt><trkpt lat="53.8284797" lon="-1.3383635"><ele>54.0</ele><time>2026-05-02T11:52:45.403Z</time></trkpt><trkpt lat="53.8286437" lon="-1.3383532"><ele>53.0</ele><time>2026-05-02T11:52:46.402Z</time></trkpt><trkpt lat="53.828804" lon="-1.3383421"><ele>52.0</ele><time>2026-05-02T11:52:47.405Z</time></trkpt><trkpt lat="53.8289631" lon="-1.3383307"><ele>52.0</ele><time>2026-05-02T11:52:48.403Z</time></trkpt><trkpt lat="53.8291213" lon="-1.3383191"><ele>52.0</ele><time>2026-05-02T11:52:49.403Z</time></trkpt><trkpt lat="53.829275" lon="-1.3383089"><ele>52.0</ele><time>2026-05-02T11:52:50.402Z</time></trkpt><trkpt lat="53.8294265" lon="-1.3383023"><ele>51.0</ele><time>2026-05-02T11:52:51.403Z</time></trkpt><trkpt lat="53.8295724" lon="-1.3382995"><ele>50.0</ele><time>2026-05-02T11:52:52.402Z</time></trkpt><trkpt lat="53.8297166" lon="-1.338297"><ele>49.0</ele><time>2026-05-02T11:52:53.402Z</time></trkpt><trkpt lat="53.8298595" lon="-1.3382883"><ele>48.0</ele><time>2026-05-02T11:52:54.402Z</time></trkpt><trkpt lat="53.8300085" lon="-1.338279"><ele>47.333333333333336</ele><time>2026-05-02T11:52:55.402Z</time></trkpt><trkpt lat="53.8301728" lon="-1.338269"><ele>46.66666666666667</ele><time>2026-05-02T11:52:56.402Z</time></trkpt><trkpt lat="53.8303503" lon="-1.3382569"><ele>46.0</ele><time>2026-05-02T11:52:57.404Z</time></trkpt><trkpt lat="53.830534" lon="-1.3382459"><ele>46.0</ele><time>2026-05-02T11:52:58.402Z</time></trkpt><trkpt lat="53.8307202" lon="-1.3382417"><ele>46.0</ele><time>2026-05-02T11:52:59.406Z</time></trkpt><trkpt lat="53.8309112" lon="-1.3382439"><ele>46.0</ele><time>2026-05-02T11:53:00.402Z</time></trkpt><trkpt lat="53.8311012" lon="-1.3382473"><ele>45.0</ele><time>2026-05-02T11:53:01.408Z</time></trkpt><trkpt lat="53.8312868" lon="-1.3382549"><ele>44.0</ele><time>2026-05-02T11:53:02.402Z</time></trkpt><trkpt lat="53.8314723" lon="-1.3382728"><ele>43.0</ele><time>2026-05-02T11:53:03.406Z</time></trkpt><trkpt lat="53.8316596" lon="-1.3382981"><ele>42.333333333333336</ele><time>2026-05-02T11:53:04.402Z</time></trkpt><trkpt lat="53.8318455" lon="-1.3383222"><ele>41.666666666666664</ele><time>2026-05-02T11:53:05.403Z</time></trkpt><trkpt lat="53.8320282" lon="-1.338343"><ele>41.0</ele><time>2026-05-02T11:53:06.402Z</time></trkpt><trkpt lat="53.8322004" lon="-1.3383673"><ele>41.0</ele><time>2026-05-02T11:53:07.402Z</time></trkpt><trkpt lat="53.8323654" lon="-1.3383922"><ele>41.0</ele><time>2026-05-02T11:53:08.402Z</time></trkpt><trkpt lat="53.8325288" lon="-1.338419"><ele>41.0</ele><time>2026-05-02T11:53:09.402Z</time></trkpt><trkpt lat="53.8326885" lon="-1.3384473"><ele>40.33333333333333</ele><time>2026-05-02T11:53:10.404Z</time></trkpt><trkpt lat="53.8328448" lon="-1.3384786"><ele>39.666666666666664</ele><time>2026-05-02T11:53:11.403Z</time></trkpt><trkpt lat="53.8330017" lon="-1.3385083"><ele>39.0</ele><time>2026-05-02T11:53:12.403Z</time></trkpt><trkpt lat="53.833165" lon="-1.3385367"><ele>39.0</ele><time>2026-05-02T11:53:13.403Z</time></trkpt><trkpt lat="53.833325" lon="-1.3385683"><ele>39.0</ele><time>2026-05-02T11:53:14.405Z</time></trkpt><trkpt lat="53.8334833" lon="-1.3386033"><ele>39.0</ele><time>2026-05-02T11:53:15.403Z</time></trkpt><trkpt lat="53.8336417" lon="-1.3386367"><ele>38.666666666666664</ele><time>2026-05-02T11:53:16.402Z</time></trkpt><trkpt lat="53.8338017" lon="-1.3386733"><ele>38.33333333333333</ele><time>2026-05-02T11:53:17.403Z</time></trkpt><trkpt lat="53.8339667" lon="-1.33871"><ele>38.0</ele><time>2026-05-02T11:53:18.404Z</time></trkpt><trkpt lat="53.8341333" lon="-1.3387467"><ele>38.0</ele><time>2026-05-02T11:53:19.404Z</time></trkpt><trkpt lat="53.8343" lon="-1.3387817"><ele>38.0</ele><time>2026-05-02T11:53:20.402Z</time></trkpt><trkpt lat="53.8344717" lon="-1.3388167"><ele>38.0</ele><time>2026-05-02T11:53:21.402Z</time></trkpt><trkpt lat="53.834645" lon="-1.3388517"><ele>39.666666666666664</ele><time>2026-05-02T11:53:22.401Z</time></trkpt><trkpt lat="53.8348183" lon="-1.3388883"><ele>41.333333333333336</ele><time>2026-05-02T11:53:23.403Z</time></trkpt><trkpt lat="53.83499" lon="-1.3389233"><ele>43.0</ele><time>2026-05-02T11:53:24.402Z</time></trkpt><trkpt lat="53.8351617" lon="-1.33896"><ele>44.66666666666667</ele><time>2026-05-02T11:53:25.403Z</time></trkpt><trkpt lat="53.8353283" lon="-1.3389917"><ele>46.333333333333336</ele><time>2026-05-02T11:53:26.403Z</time></trkpt><trkpt lat="53.835495" lon="-1.339025"><ele>48.0</ele><time>2026-05-02T11:53:27.402Z</time></trkpt><trkpt lat="53.8356617" lon="-1.3390517"><ele>48.0</ele><time>2026-05-02T11:53:28.402Z</time></trkpt><trkpt lat="53.8358267" lon="-1.3390817"><ele>48.0</ele><time>2026-05-02T11:53:29.404Z</time></trkpt><trkpt lat="53.8359883" lon="-1.3391133"><ele>48.0</ele><time>2026-05-02T11:53:30.402Z</time></trkpt><trkpt lat="53.836145" lon="-1.339145"><ele>48.33333333333333</ele><time>2026-05-02T11:53:31.405Z</time></trkpt><trkpt lat="53.8363017" lon="-1.3391767"><ele>48.666666666666664</ele><time>2026-05-02T11:53:32.402Z</time></trkpt><trkpt lat="53.836455" lon="-1.339205"><ele>49.0</ele><time>2026-05-02T11:53:33.403Z</time></trkpt><trkpt lat="53.8366083" lon="-1.339235"><ele>49.0</ele><time>2026-05-02T11:53:34.403Z</time></trkpt><trkpt lat="53.836765" lon="-1.33927"><ele>49.0</ele><time>2026-05-02T11:53:35.405Z</time></trkpt><trkpt lat="53.8369183" lon="-1.3393083"><ele>49.0</ele><time>2026-05-02T11:53:36.404Z</time></trkpt><trkpt lat="53.8370783" lon="-1.3393417"><ele>50.33333333333333</ele><time>2026-05-02T11:53:37.406Z</time></trkpt><trkpt lat="53.837235" lon="-1.3393833"><ele>51.66666666666667</ele><time>2026-05-02T11:53:38.403Z</time></trkpt><trkpt lat="53.8373933" lon="-1.3394317"><ele>53.0</ele><time>2026-05-02T11:53:39.406Z</time></trkpt><trkpt lat="53.8375567" lon="-1.33948"><ele>54.66666666666667</ele><time>2026-05-02T11:53:40.403Z</time></trkpt><trkpt lat="53.83772" lon="-1.3395333"><ele>56.33333333333333</ele><time>2026-05-02T11:53:41.405Z</time></trkpt><trkpt lat="53.8378817" lon="-1.33959"><ele>58.0</ele><time>2026-05-02T11:53:42.403Z</time></trkpt><trkpt lat="53.8380483" lon="-1.3396467"><ele>58.0</ele><time>2026-05-02T11:53:43.403Z</time></trkpt><trkpt lat="53.8382217" lon="-1.3397133"><ele>58.0</ele><time>2026-05-02T11:53:44.403Z</time></trkpt><trkpt lat="53.8384017" lon="-1.33979"><ele>58.0</ele><time>2026-05-02T11:53:45.402Z</time></trkpt><trkpt lat="53.838585" lon="-1.3398717"><ele>60.0</ele><time>2026-05-02T11:53:46.402Z</time></trkpt><trkpt lat="53.8387667" lon="-1.3399517"><ele>62.0</ele><time>2026-05-02T11:53:47.406Z</time></trkpt><trkpt lat="53.83894" lon="-1.34003"><ele>64.0</ele><time>2026-05-02T11:53:48.402Z</time></trkpt><trkpt lat="53.8391067" lon="-1.3401067"><ele>64.0</ele><time>2026-05-02T11:53:49.409Z</time></trkpt><trkpt lat="53.8392683" lon="-1.3401817"><ele>64.0</ele><time>2026-05-02T11:53:50.402Z</time></trkpt><trkpt lat="53.8394283" lon="-1.3402617"><ele>64.0</ele><time>2026-05-02T11:53:51.402Z</time></trkpt><trkpt lat="53.8395867" lon="-1.34034"><ele>64.0</ele><time>2026-05-02T11:53:52.403Z</time></trkpt><trkpt lat="53.8397417" lon="-1.3404217"><ele>64.0</ele><time>2026-05-02T11:53:53.405Z</time></trkpt><trkpt lat="53.8398983" lon="-1.3405"><ele>64.0</ele><time>2026-05-02T11:53:54.402Z</time></trkpt><trkpt lat="53.840055" lon="-1.340585"><ele>64.66666666666666</ele><time>2026-05-02T11:53:55.403Z</time></trkpt><trkpt lat="53.8402117" lon="-1.3406717"><ele>65.33333333333333</ele><time>2026-05-02T11:53:56.409Z</time></trkpt><trkpt lat="53.8403667" lon="-1.34076"><ele>66.0</ele><time>2026-05-02T11:53:57.404Z</time></trkpt><trkpt lat="53.8405267" lon="-1.3408533"><ele>66.0</ele><time>2026-05-02T11:53:58.403Z</time></trkpt><trkpt lat="53.8406883" lon="-1.3409533"><ele>66.0</ele><time>2026-05-02T11:53:59.406Z</time></trkpt><trkpt lat="53.8408517" lon="-1.34106"><ele>66.0</ele><time>2026-05-02T11:54:00.405Z</time></trkpt><trkpt lat="53.8410083" lon="-1.34116"><ele>66.33333333333333</ele><time>2026-05-02T11:54:01.405Z</time></trkpt><trkpt lat="53.8411633" lon="-1.3412583"><ele>66.66666666666666</ele><time>2026-05-02T11:54:02.406Z</time></trkpt><trkpt lat="53.8413233" lon="-1.34136"><ele>67.0</ele><time>2026-05-02T11:54:03.406Z</time></trkpt><trkpt lat="53.8414883" lon="-1.3414667"><ele>67.0</ele><time>2026-05-02T11:54:04.406Z</time></trkpt><trkpt lat="53.8416567" lon="-1.3415767"><ele>67.0</ele><time>2026-05-02T11:54:05.406Z</time></trkpt><trkpt lat="53.84183" lon="-1.3416817"><ele>67.0</ele><time>2026-05-02T11:54:06.405Z</time></trkpt><trkpt lat="53.8420033" lon="-1.3417883"><ele>68.0</ele><time>2026-05-02T11:54:07.407Z</time></trkpt><trkpt lat="53.842175" lon="-1.3418917"><ele>69.0</ele><time>2026-05-02T11:54:08.402Z</time></trkpt><trkpt lat="53.84234" lon="-1.341985"><ele>70.0</ele><time>2026-05-02T11:54:09.406Z</time></trkpt><trkpt lat="53.8424967" lon="-1.3420717"><ele>70.66666666666666</ele><time>2026-05-02T11:54:10.406Z</time></trkpt><trkpt lat="53.8426517" lon="-1.3421583"><ele>71.33333333333333</ele><time>2026-05-02T11:54:11.407Z</time></trkpt><trkpt lat="53.8428117" lon="-1.3422383"><ele>72.0</ele><time>2026-05-02T11:54:12.402Z</time></trkpt><trkpt lat="53.84298" lon="-1.3423167"><ele>72.0</ele><time>2026-05-02T11:54:13.404Z</time></trkpt><trkpt lat="53.8431583" lon="-1.3423917"><ele>72.0</ele><time>2026-05-02T11:54:14.403Z</time></trkpt><trkpt lat="53.843345" lon="-1.3424633"><ele>72.0</ele><time>2026-05-02T11:54:15.402Z</time></trkpt><trkpt lat="53.8435333" lon="-1.3425317"><ele>73.0</ele><time>2026-05-02T11:54:16.406Z</time></trkpt><trkpt lat="53.843725" lon="-1.3426"><ele>74.0</ele><time>2026-05-02T11:54:17.403Z</time></trkpt><trkpt lat="53.8439183" lon="-1.3426717"><ele>75.0</ele><time>2026-05-02T11:54:18.405Z</time></trkpt><trkpt lat="53.8441117" lon="-1.3427333"><ele>76.33333333333333</ele><time>2026-05-02T11:54:19.403Z</time></trkpt><trkpt lat="53.8443083" lon="-1.3427833"><ele>77.66666666666666</ele><time>2026-05-02T11:54:20.406Z</time></trkpt><trkpt lat="53.8445017" lon="-1.3428328"><ele>79.0</ele><time>2026-05-02T11:54:21.405Z</time></trkpt><trkpt lat="53.8446936" lon="-1.3428718"><ele>79.0</ele><time>2026-05-02T11:54:22.405Z</time></trkpt><trkpt lat="53.8448834" lon="-1.3429059"><ele>79.0</ele><time>2026-05-02T11:54:23.405Z</time></trkpt><trkpt lat="53.8450744" lon="-1.3429394"><ele>79.0</ele><time>2026-05-02T11:54:24.406Z</time></trkpt><trkpt lat="53.8452663" lon="-1.3429689"><ele>79.0</ele><time>2026-05-02T11:54:25.405Z</time></trkpt><trkpt lat="53.8454593" lon="-1.3429963"><ele>79.0</ele><time>2026-05-02T11:54:26.402Z</time></trkpt><trkpt lat="53.8456543" lon="-1.3430193"><ele>79.0</ele><time>2026-05-02T11:54:27.405Z</time></trkpt><trkpt lat="53.8458482" lon="-1.3430373"><ele>78.33333333333333</ele><time>2026-05-02T11:54:28.405Z</time></trkpt><trkpt lat="53.8460423" lon="-1.3430528"><ele>77.66666666666667</ele><time>2026-05-02T11:54:29.403Z</time></trkpt><trkpt lat="53.8462403" lon="-1.3430705"><ele>77.0</ele><time>2026-05-02T11:54:30.405Z</time></trkpt><trkpt lat="53.8464434" lon="-1.3430848"><ele>77.0</ele><time>2026-05-02T11:54:31.402Z</time></trkpt><trkpt lat="53.8466536" lon="-1.3430999"><ele>77.0</ele><time>2026-05-02T11:54:32.402Z</time></trkpt><trkpt lat="53.8468617" lon="-1.3431113"><ele>77.0</ele><time>2026-05-02T11:54:33.403Z</time></trkpt><trkpt lat="53.8470652" lon="-1.3431226"><ele>77.66666666666667</ele><time>2026-05-02T11:54:34.406Z</time></trkpt><trkpt lat="53.8472673" lon="-1.3431385"><ele>78.33333333333333</ele><time>2026-05-02T11:54:35.402Z</time></trkpt><trkpt lat="53.8474748" lon="-1.3431506"><ele>79.0</ele><time>2026-05-02T11:54:36.403Z</time></trkpt><trkpt lat="53.8476833" lon="-1.3431672"><ele>79.33333333333333</ele><time>2026-05-02T11:54:37.403Z</time></trkpt><trkpt lat="53.8478919" lon="-1.3431891"><ele>79.66666666666667</ele><time>2026-05-02T11:54:38.402Z</time></trkpt><trkpt lat="53.8481028" lon="-1.3432186"><ele>80.0</ele><time>2026-05-02T11:54:39.403Z</time></trkpt><trkpt lat="53.8483156" lon="-1.3432529"><ele>80.66666666666667</ele><time>2026-05-02T11:54:40.402Z</time></trkpt><trkpt lat="53.8485315" lon="-1.3432919"><ele>81.33333333333333</ele><time>2026-05-02T11:54:41.406Z</time></trkpt><trkpt lat="53.848748" lon="-1.3433372"><ele>82.0</ele><time>2026-05-02T11:54:42.401Z</time></trkpt><trkpt lat="53.8489695" lon="-1.3433901"><ele>82.0</ele><time>2026-05-02T11:54:43.403Z</time></trkpt><trkpt lat="53.8491963" lon="-1.3434536"><ele>82.0</ele><time>2026-05-02T11:54:44.403Z</time></trkpt><trkpt lat="53.8494347" lon="-1.3435245"><ele>82.0</ele><time>2026-05-02T11:54:45.403Z</time></trkpt><trkpt lat="53.8496784" lon="-1.3436069"><ele>82.0</ele><time>2026-05-02T11:54:46.403Z</time></trkpt><trkpt lat="53.8499253" lon="-1.3436926"><ele>81.5</ele><time>2026-05-02T11:54:47.402Z</time></trkpt><trkpt lat="53.8501731" lon="-1.3437909"><ele>81.0</ele><time>2026-05-02T11:54:48.404Z</time></trkpt><trkpt lat="53.8504189" lon="-1.3438922"><ele>79.5</ele><time>2026-05-02T11:54:49.403Z</time></trkpt><trkpt lat="53.850665" lon="-1.3439957"><ele>78.0</ele><time>2026-05-02T11:54:50.402Z</time></trkpt><trkpt lat="53.8509111" lon="-1.3441067"><ele>77.5</ele><time>2026-05-02T11:54:51.403Z</time></trkpt><trkpt lat="53.85116" lon="-1.3442286"><ele>77.0</ele><time>2026-05-02T11:54:52.403Z</time></trkpt><trkpt lat="53.8514129" lon="-1.3443638"><ele>77.0</ele><time>2026-05-02T11:54:53.405Z</time></trkpt><trkpt lat="53.8516708" lon="-1.3445162"><ele>77.0</ele><time>2026-05-02T11:54:54.406Z</time></trkpt><trkpt lat="53.851926" lon="-1.3446722"><ele>76.5</ele><time>2026-05-02T11:54:55.402Z</time></trkpt><trkpt lat="53.8521773" lon="-1.3448312"><ele>76.0</ele><time>2026-05-02T11:54:56.402Z</time></trkpt><trkpt lat="53.8524299" lon="-1.3449882"><ele>76.0</ele><time>2026-05-02T11:54:57.402Z</time></trkpt><trkpt lat="53.8526824" lon="-1.3451419"><ele>76.0</ele><time>2026-05-02T11:54:58.405Z</time></trkpt><trkpt lat="53.8529317" lon="-1.345295"><ele>76.0</ele><time>2026-05-02T11:54:59.407Z</time></trkpt><trkpt lat="53.8531825" lon="-1.3454455"><ele>76.0</ele><time>2026-05-02T11:55:00.406Z</time></trkpt><trkpt lat="53.8534325" lon="-1.3455979"><ele>75.0</ele><time>2026-05-02T11:55:01.402Z</time></trkpt><trkpt lat="53.853684" lon="-1.3457483"><ele>74.0</ele><time>2026-05-02T11:55:02.407Z</time></trkpt><trkpt lat="53.8539379" lon="-1.3458904"><ele>74.0</ele><time>2026-05-02T11:55:03.405Z</time></trkpt><trkpt lat="53.8541927" lon="-1.346021"><ele>74.0</ele><time>2026-05-02T11:55:04.403Z</time></trkpt><trkpt lat="53.8544506" lon="-1.3461397"><ele>74.0</ele><time>2026-05-02T11:55:05.402Z</time></trkpt><trkpt lat="53.8547066" lon="-1.3462524"><ele>74.0</ele><time>2026-05-02T11:55:06.404Z</time></trkpt><trkpt lat="53.8549598" lon="-1.3463606"><ele>75.0</ele><time>2026-05-02T11:55:07.403Z</time></trkpt><trkpt lat="53.855207" lon="-1.346456"><ele>76.0</ele><time>2026-05-02T11:55:08.406Z</time></trkpt><trkpt lat="53.8554473" lon="-1.3465342"><ele>76.0</ele><time>2026-05-02T11:55:09.41Z</time></trkpt><trkpt lat="53.855675" lon="-1.3466001"><ele>76.0</ele><time>2026-05-02T11:55:10.406Z</time></trkpt><trkpt lat="53.8559008" lon="-1.3466564"><ele>75.0</ele><time>2026-05-02T11:55:11.406Z</time></trkpt><trkpt lat="53.8561336" lon="-1.3467003"><ele>74.0</ele><time>2026-05-02T11:55:12.406Z</time></trkpt><trkpt lat="53.8563723" lon="-1.3467433"><ele>74.0</ele><time>2026-05-02T11:55:13.405Z</time></trkpt><trkpt lat="53.8566156" lon="-1.346781"><ele>74.0</ele><time>2026-05-02T11:55:14.403Z</time></trkpt><trkpt lat="53.8568613" lon="-1.346811"><ele>73.0</ele><time>2026-05-02T11:55:15.403Z</time></trkpt><trkpt lat="53.8571025" lon="-1.3468317"><ele>72.0</ele><time>2026-05-02T11:55:16.402Z</time></trkpt><trkpt lat="53.8573381" lon="-1.3468425"><ele>72.0</ele><time>2026-05-02T11:55:17.402Z</time></trkpt><trkpt lat="53.8575779" lon="-1.3468423"><ele>72.0</ele><time>2026-05-02T11:55:18.406Z</time></trkpt><trkpt lat="53.8578273" lon="-1.3468379"><ele>71.0</ele><time>2026-05-02T11:55:19.403Z</time></trkpt><trkpt lat="53.8580844" lon="-1.3468262"><ele>70.0</ele><time>2026-05-02T11:55:20.402Z</time></trkpt><trkpt lat="53.8583409" lon="-1.3468062"><ele>69.5</ele><time>2026-05-02T11:55:21.402Z</time></trkpt><trkpt lat="53.8585963" lon="-1.3467731"><ele>69.0</ele><time>2026-05-02T11:55:22.402Z</time></trkpt><trkpt lat="53.8588488" lon="-1.3467355"><ele>69.0</ele><time>2026-05-02T11:55:23.403Z</time></trkpt><trkpt lat="53.8591019" lon="-1.3466969"><ele>69.0</ele><time>2026-05-02T11:55:24.403Z</time></trkpt><trkpt lat="53.8593554" lon="-1.3466578"><ele>69.0</ele><time>2026-05-02T11:55:25.406Z</time></trkpt><trkpt lat="53.8596085" lon="-1.3466146"><ele>69.0</ele><time>2026-05-02T11:55:26.406Z</time></trkpt><trkpt lat="53.8598615" lon="-1.3465693"><ele>69.0</ele><time>2026-05-02T11:55:27.402Z</time></trkpt><trkpt lat="53.860114" lon="-1.3465181"><ele>69.0</ele><time>2026-05-02T11:55:28.405Z</time></trkpt><trkpt lat="53.8603666" lon="-1.3464675"><ele>67.5</ele><time>2026-05-02T11:55:29.402Z</time></trkpt><trkpt lat="53.8606201" lon="-1.3464201"><ele>66.0</ele><time>2026-05-02T11:55:30.402Z</time></trkpt><trkpt lat="53.8608761" lon="-1.3463784"><ele>65.5</ele><time>2026-05-02T11:55:31.402Z</time></trkpt><trkpt lat="53.8611328" lon="-1.3463486"><ele>65.0</ele><time>2026-05-02T11:55:32.402Z</time></trkpt><trkpt lat="53.8613934" lon="-1.3463305"><ele>65.0</ele><time>2026-05-02T11:55:33.402Z</time></trkpt><trkpt lat="53.8616557" lon="-1.3463206"><ele>65.0</ele><time>2026-05-02T11:55:34.406Z</time></trkpt><trkpt lat="53.8619213" lon="-1.3463224"><ele>65.0</ele><time>2026-05-02T11:55:35.402Z</time></trkpt><trkpt lat="53.8621876" lon="-1.3463336"><ele>65.0</ele><time>2026-05-02T11:55:36.402Z</time></trkpt><trkpt lat="53.8624531" lon="-1.3463564"><ele>62.5</ele><time>2026-05-02T11:55:37.402Z</time></trkpt><trkpt lat="53.862717" lon="-1.3463993"><ele>60.0</ele><time>2026-05-02T11:55:38.403Z</time></trkpt><trkpt lat="53.8629787" lon="-1.3464577"><ele>60.0</ele><time>2026-05-02T11:55:39.403Z</time></trkpt><trkpt lat="53.8632333" lon="-1.3465298"><ele>60.0</ele><time>2026-05-02T11:55:40.402Z</time></trkpt><trkpt lat="53.8634834" lon="-1.346611"><ele>60.5</ele><time>2026-05-02T11:55:41.403Z</time></trkpt><trkpt lat="53.8637318" lon="-1.3467007"><ele>61.0</ele><time>2026-05-02T11:55:42.406Z</time></trkpt><trkpt lat="53.8639806" lon="-1.3467912"><ele>61.0</ele><time>2026-05-02T11:55:43.407Z</time></trkpt><trkpt lat="53.8642277" lon="-1.3468815"><ele>61.0</ele><time>2026-05-02T11:55:44.408Z</time></trkpt><trkpt lat="53.8644766" lon="-1.3469715"><ele>61.0</ele><time>2026-05-02T11:55:45.404Z</time></trkpt><trkpt lat="53.8647266" lon="-1.347062"><ele>61.0</ele><time>2026-05-02T11:55:46.402Z</time></trkpt><trkpt lat="53.8649778" lon="-1.3471544"><ele>56.0</ele><time>2026-05-02T11:55:47.405Z</time></trkpt><trkpt lat="53.8652273" lon="-1.3472488"><ele>51.0</ele><time>2026-05-02T11:55:48.403Z</time></trkpt><trkpt lat="53.8654752" lon="-1.3473467"><ele>51.0</ele><time>2026-05-02T11:55:49.408Z</time></trkpt><trkpt lat="53.8657203" lon="-1.3474482"><ele>51.0</ele><time>2026-05-02T11:55:50.403Z</time></trkpt><trkpt lat="53.8659687" lon="-1.3475495"><ele>51.5</ele><time>2026-05-02T11:55:51.406Z</time></trkpt><trkpt lat="53.866217" lon="-1.3476437"><ele>52.0</ele><time>2026-05-02T11:55:52.406Z</time></trkpt><trkpt lat="53.8664696" lon="-1.3477297"><ele>52.0</ele><time>2026-05-02T11:55:53.407Z</time></trkpt><trkpt lat="53.8667271" lon="-1.3478117"><ele>52.0</ele><time>2026-05-02T11:55:54.406Z</time></trkpt><trkpt lat="53.8669874" lon="-1.3478908"><ele>51.5</ele><time>2026-05-02T11:55:55.406Z</time></trkpt><trkpt lat="53.8672505" lon="-1.3479679"><ele>51.0</ele><time>2026-05-02T11:55:56.406Z</time></trkpt><trkpt lat="53.8675164" lon="-1.3480391"><ele>50.0</ele><time>2026-05-02T11:55:57.404Z</time></trkpt><trkpt lat="53.8677936" lon="-1.3480988"><ele>49.0</ele><time>2026-05-02T11:55:58.404Z</time></trkpt><trkpt lat="53.8680775" lon="-1.3481572"><ele>49.0</ele><time>2026-05-02T11:55:59.405Z</time></trkpt><trkpt lat="53.8683576" lon="-1.3482233"><ele>49.0</ele><time>2026-05-02T11:56:00.404Z</time></trkpt><trkpt lat="53.8686285" lon="-1.3483052"><ele>50.0</ele><time>2026-05-02T11:56:01.406Z</time></trkpt><trkpt lat="53.8688921" lon="-1.3483966"><ele>51.0</ele><time>2026-05-02T11:56:02.405Z</time></trkpt><trkpt lat="53.8691511" lon="-1.3484892"><ele>52.0</ele><time>2026-05-02T11:56:03.402Z</time></trkpt><trkpt lat="53.8694048" lon="-1.3485846"><ele>53.0</ele><time>2026-05-02T11:56:04.405Z</time></trkpt><trkpt lat="53.8696531" lon="-1.3486807"><ele>53.0</ele><time>2026-05-02T11:56:05.402Z</time></trkpt><trkpt lat="53.8698996" lon="-1.3487786"><ele>53.0</ele><time>2026-05-02T11:56:06.404Z</time></trkpt><trkpt lat="53.8701457" lon="-1.3488804"><ele>54.0</ele><time>2026-05-02T11:56:07.403Z</time></trkpt><trkpt lat="53.8703884" lon="-1.3489852"><ele>55.0</ele><time>2026-05-02T11:56:08.402Z</time></trkpt><trkpt lat="53.8706312" lon="-1.3490965"><ele>55.0</ele><time>2026-05-02T11:56:09.402Z</time></trkpt><trkpt lat="53.8708754" lon="-1.349215"><ele>55.0</ele><time>2026-05-02T11:56:10.402Z</time></trkpt><trkpt lat="53.8711218" lon="-1.34934"><ele>55.0</ele><time>2026-05-02T11:56:11.406Z</time></trkpt><trkpt lat="53.8713643" lon="-1.3494724"><ele>55.0</ele><time>2026-05-02T11:56:12.405Z</time></trkpt><trkpt lat="53.8716044" lon="-1.3496154"><ele>55.5</ele><time>2026-05-02T11:56:13.403Z</time></trkpt><trkpt lat="53.8718413" lon="-1.3497695"><ele>56.0</ele><time>2026-05-02T11:56:14.404Z</time></trkpt><trkpt lat="53.872076" lon="-1.3499321"><ele>56.0</ele><time>2026-05-02T11:56:15.403Z</time></trkpt><trkpt lat="53.8723106" lon="-1.3500997"><ele>56.0</ele><time>2026-05-02T11:56:16.403Z</time></trkpt><trkpt lat="53.8725428" lon="-1.3502723"><ele>56.5</ele><time>2026-05-02T11:56:17.403Z</time></trkpt><trkpt lat="53.8727741" lon="-1.3504481"><ele>57.0</ele><time>2026-05-02T11:56:18.404Z</time></trkpt><trkpt lat="53.8730016" lon="-1.3506338"><ele>57.0</ele><time>2026-05-02T11:56:19.405Z</time></trkpt><trkpt lat="53.8732249" lon="-1.3508309"><ele>57.0</ele><time>2026-05-02T11:56:20.403Z</time></trkpt><trkpt lat="53.8734491" lon="-1.3510339"><ele>57.0</ele><time>2026-05-02T11:56:21.405Z</time></trkpt><trkpt lat="53.8736721" lon="-1.351241"><ele>57.0</ele><time>2026-05-02T11:56:22.405Z</time></trkpt><trkpt lat="53.8738974" lon="-1.3514501"><ele>58.5</ele><time>2026-05-02T11:56:23.403Z</time></trkpt><trkpt lat="53.8741211" lon="-1.3516679"><ele>60.0</ele><time>2026-05-02T11:56:24.403Z</time></trkpt><trkpt lat="53.8743339" lon="-1.351898"><ele>60.0</ele><time>2026-05-02T11:56:25.406Z</time></trkpt><trkpt lat="53.874542" lon="-1.3521363"><ele>60.0</ele><time>2026-05-02T11:56:26.402Z</time></trkpt><trkpt lat="53.8747561" lon="-1.3523737"><ele>59.5</ele><time>2026-05-02T11:56:27.402Z</time></trkpt><trkpt lat="53.8749718" lon="-1.3526123"><ele>59.0</ele><time>2026-05-02T11:56:28.402Z</time></trkpt><trkpt lat="53.8751883" lon="-1.3528499"><ele>57.0</ele><time>2026-05-02T11:56:29.404Z</time></trkpt><trkpt lat="53.8753987" lon="-1.353088"><ele>55.0</ele><time>2026-05-02T11:56:30.403Z</time></trkpt><trkpt lat="53.8756089" lon="-1.3533264"><ele>55.0</ele><time>2026-05-02T11:56:31.403Z</time></trkpt><trkpt lat="53.8758215" lon="-1.3535673"><ele>55.0</ele><time>2026-05-02T11:56:32.403Z</time></trkpt><trkpt lat="53.8760345" lon="-1.3538098"><ele>53.0</ele><time>2026-05-02T11:56:33.403Z</time></trkpt><trkpt lat="53.8762465" lon="-1.3540525"><ele>51.0</ele><time>2026-05-02T11:56:34.405Z</time></trkpt><trkpt lat="53.8764564" lon="-1.354297"><ele>51.0</ele><time>2026-05-02T11:56:35.403Z</time></trkpt><trkpt lat="53.8766691" lon="-1.3545433"><ele>51.0</ele><time>2026-05-02T11:56:36.405Z</time></trkpt><trkpt lat="53.8768797" lon="-1.3547942"><ele>45.0</ele><time>2026-05-02T11:56:37.404Z</time></trkpt><trkpt lat="53.8770884" lon="-1.3550589"><ele>39.0</ele><time>2026-05-02T11:56:38.407Z</time></trkpt><trkpt lat="53.877298" lon="-1.3553384"><ele>38.5</ele><time>2026-05-02T11:56:39.404Z</time></trkpt><trkpt lat="53.8775112" lon="-1.355629"><ele>38.0</ele><time>2026-05-02T11:56:40.405Z</time></trkpt><trkpt lat="53.8777248" lon="-1.3559294"><ele>39.0</ele><time>2026-05-02T11:56:41.407Z</time></trkpt><trkpt lat="53.8779378" lon="-1.3562386"><ele>40.0</ele><time>2026-05-02T11:56:42.406Z</time></trkpt><trkpt lat="53.87816" lon="-1.3565504"><ele>40.0</ele><time>2026-05-02T11:56:43.405Z</time></trkpt><trkpt lat="53.8783844" lon="-1.3568505"><ele>40.0</ele><time>2026-05-02T11:56:44.405Z</time></trkpt><trkpt lat="53.8786152" lon="-1.3571365"><ele>42.0</ele><time>2026-05-02T11:56:45.406Z</time></trkpt><trkpt lat="53.8788494" lon="-1.357407"><ele>44.0</ele><time>2026-05-02T11:56:46.407Z</time></trkpt><trkpt lat="53.879088" lon="-1.357665"><ele>44.5</ele><time>2026-05-02T11:56:47.407Z</time></trkpt><trkpt lat="53.8793312" lon="-1.3579126"><ele>45.0</ele><time>2026-05-02T11:56:48.405Z</time></trkpt><trkpt lat="53.8795772" lon="-1.3581462"><ele>47.0</ele><time>2026-05-02T11:56:49.405Z</time></trkpt><trkpt lat="53.8798307" lon="-1.3583589"><ele>49.0</ele><time>2026-05-02T11:56:50.402Z</time></trkpt><trkpt lat="53.8800916" lon="-1.3585508"><ele>48.5</ele><time>2026-05-02T11:56:51.405Z</time></trkpt><trkpt lat="53.8803595" lon="-1.3587201"><ele>48.0</ele><time>2026-05-02T11:56:52.406Z</time></trkpt><trkpt lat="53.880631" lon="-1.3588728"><ele>48.0</ele><time>2026-05-02T11:56:53.403Z</time></trkpt><trkpt lat="53.8809044" lon="-1.3590095"><ele>48.0</ele><time>2026-05-02T11:56:54.402Z</time></trkpt><trkpt lat="53.8811787" lon="-1.3591318"><ele>47.5</ele><time>2026-05-02T11:56:55.402Z</time></trkpt><trkpt lat="53.8814556" lon="-1.3592312"><ele>47.0</ele><time>2026-05-02T11:56:56.404Z</time></trkpt><trkpt lat="53.8817319" lon="-1.3593044"><ele>44.5</ele><time>2026-05-02T11:56:57.402Z</time></trkpt><trkpt lat="53.8820129" lon="-1.3593565"><ele>42.0</ele><time>2026-05-02T11:56:58.402Z</time></trkpt><trkpt lat="53.8822949" lon="-1.3594016"><ele>42.0</ele><time>2026-05-02T11:56:59.404Z</time></trkpt><trkpt lat="53.8825759" lon="-1.359443"><ele>42.0</ele><time>2026-05-02T11:57:00.403Z</time></trkpt><trkpt lat="53.8828588" lon="-1.3594877"><ele>41.5</ele><time>2026-05-02T11:57:01.403Z</time></trkpt><trkpt lat="53.8831392" lon="-1.3595324"><ele>41.0</ele><time>2026-05-02T11:57:02.403Z</time></trkpt><trkpt lat="53.8834178" lon="-1.3595799"><ele>40.0</ele><time>2026-05-02T11:57:03.402Z</time></trkpt><trkpt lat="53.8836934" lon="-1.3596334"><ele>39.0</ele><time>2026-05-02T11:57:04.402Z</time></trkpt><trkpt lat="53.8839693" lon="-1.3597006"><ele>39.0</ele><time>2026-05-02T11:57:05.407Z</time></trkpt><trkpt lat="53.8842435" lon="-1.3597871"><ele>39.0</ele><time>2026-05-02T11:57:06.404Z</time></trkpt><trkpt lat="53.884518" lon="-1.3598911"><ele>39.0</ele><time>2026-05-02T11:57:07.403Z</time></trkpt><trkpt lat="53.8847889" lon="-1.3600174"><ele>39.0</ele><time>2026-05-02T11:57:08.403Z</time></trkpt><trkpt lat="53.8850522" lon="-1.3601738"><ele>39.5</ele><time>2026-05-02T11:57:09.403Z</time></trkpt><trkpt lat="53.8853103" lon="-1.3603478"><ele>40.0</ele><time>2026-05-02T11:57:10.403Z</time></trkpt><trkpt lat="53.8855606" lon="-1.3605377"><ele>40.5</ele><time>2026-05-02T11:57:11.404Z</time></trkpt><trkpt lat="53.8858038" lon="-1.3607405"><ele>41.0</ele><time>2026-05-02T11:57:12.403Z</time></trkpt><trkpt lat="53.8860394" lon="-1.3609581"><ele>41.0</ele><time>2026-05-02T11:57:13.406Z</time></trkpt><trkpt lat="53.886268" lon="-1.3611918"><ele>41.0</ele><time>2026-05-02T11:57:14.406Z</time></trkpt><trkpt lat="53.8864948" lon="-1.3614272"><ele>42.5</ele><time>2026-05-02T11:57:15.405Z</time></trkpt><trkpt lat="53.8867235" lon="-1.3616589"><ele>44.0</ele><time>2026-05-02T11:57:16.405Z</time></trkpt><trkpt lat="53.8869557" lon="-1.3618894"><ele>45.5</ele><time>2026-05-02T11:57:17.407Z</time></trkpt><trkpt lat="53.8871896" lon="-1.3621185"><ele>47.0</ele><time>2026-05-02T11:57:18.406Z</time></trkpt><trkpt lat="53.8874249" lon="-1.3623497"><ele>47.0</ele><time>2026-05-02T11:57:19.406Z</time></trkpt><trkpt lat="53.887659" lon="-1.3625791"><ele>47.0</ele><time>2026-05-02T11:57:20.405Z</time></trkpt><trkpt lat="53.8878918" lon="-1.3628049"><ele>47.0</ele><time>2026-05-02T11:57:21.407Z</time></trkpt><trkpt lat="53.8881226" lon="-1.3630286"><ele>47.0</ele><time>2026-05-02T11:57:22.406Z</time></trkpt><trkpt lat="53.8883553" lon="-1.3632491"><ele>48.0</ele><time>2026-05-02T11:57:23.408Z</time></trkpt><trkpt lat="53.8885872" lon="-1.363469"><ele>49.0</ele><time>2026-05-02T11:57:24.405Z</time></trkpt><trkpt lat="53.8888169" lon="-1.36369"><ele>49.5</ele><time>2026-05-02T11:57:25.405Z</time></trkpt><trkpt lat="53.8890496" lon="-1.363905"><ele>50.0</ele><time>2026-05-02T11:57:26.405Z</time></trkpt><trkpt lat="53.8892829" lon="-1.3641178"><ele>49.0</ele><time>2026-05-02T11:57:27.406Z</time></trkpt><trkpt lat="53.8895094" lon="-1.364324"><ele>48.0</ele><time>2026-05-02T11:57:28.405Z</time></trkpt><trkpt lat="53.8897253" lon="-1.3645128"><ele>48.0</ele><time>2026-05-02T11:57:29.406Z</time></trkpt><trkpt lat="53.8899308" lon="-1.3646896"><ele>48.0</ele><time>2026-05-02T11:57:30.405Z</time></trkpt><trkpt lat="53.8901296" lon="-1.3648599"><ele>48.33333333333333</ele><time>2026-05-02T11:57:31.403Z</time></trkpt><trkpt lat="53.890325" lon="-1.3650284"><ele>48.666666666666664</ele><time>2026-05-02T11:57:32.402Z</time></trkpt><trkpt lat="53.8905165" lon="-1.3651909"><ele>49.0</ele><time>2026-05-02T11:57:33.403Z</time></trkpt><trkpt lat="53.890709" lon="-1.3653545"><ele>49.0</ele><time>2026-05-02T11:57:34.407Z</time></trkpt><trkpt lat="53.8909066" lon="-1.3655176"><ele>49.0</ele><time>2026-05-02T11:57:35.406Z</time></trkpt><trkpt lat="53.8911125" lon="-1.3656869"><ele>49.0</ele><time>2026-05-02T11:57:36.403Z</time></trkpt><trkpt lat="53.8913291" lon="-1.3658669"><ele>49.0</ele><time>2026-05-02T11:57:37.409Z</time></trkpt><trkpt lat="53.8915487" lon="-1.3660479"><ele>49.0</ele><time>2026-05-02T11:57:38.406Z</time></trkpt><trkpt lat="53.8917736" lon="-1.3662328"><ele>29.0</ele><time>2026-05-02T11:57:39.405Z</time></trkpt><trkpt lat="53.9310642" lon="-1.3729286"><ele>29.0</ele><time>2026-05-02T12:00:21.405Z</time></trkpt><trkpt lat="53.9313422" lon="-1.3729793"><ele>29.0</ele><time>2026-05-02T12:00:22.405Z</time></trkpt><trkpt lat="53.9318952" lon="-1.3731376"><ele>30.0</ele><time>2026-05-02T12:00:24.405Z</time></trkpt><trkpt lat="53.9324447" lon="-1.3733475"><ele>28.5</ele><time>2026-05-02T12:00:26.409Z</time></trkpt><trkpt lat="53.9327138" lon="-1.3734718"><ele>27.0</ele><time>2026-05-02T12:00:27.403Z</time></trkpt><trkpt lat="53.9329871" lon="-1.3735955"><ele>27.0</ele><time>2026-05-02T12:00:28.405Z</time></trkpt><trkpt lat="53.9332601" lon="-1.3737177"><ele>27.0</ele><time>2026-05-02T12:00:29.403Z</time></trkpt><trkpt lat="53.9335344" lon="-1.3738372"><ele>28.5</ele><time>2026-05-02T12:00:30.403Z</time></trkpt><trkpt lat="53.9338066" lon="-1.3739557"><ele>30.0</ele><time>2026-05-02T12:00:31.402Z</time></trkpt><trkpt lat="53.9340777" lon="-1.3740738"><ele>31.0</ele><time>2026-05-02T12:00:32.403Z</time></trkpt><trkpt lat="53.9343472" lon="-1.3741935"><ele>32.0</ele><time>2026-05-02T12:00:33.404Z</time></trkpt><trkpt lat="53.9346153" lon="-1.3743136"><ele>32.0</ele><time>2026-05-02T12:00:34.403Z</time></trkpt><trkpt lat="53.9348848" lon="-1.3744298"><ele>32.0</ele><time>2026-05-02T12:00:35.402Z</time></trkpt><trkpt lat="53.9351549" lon="-1.374549"><ele>31.5</ele><time>2026-05-02T12:00:36.402Z</time></trkpt><trkpt lat="53.935426" lon="-1.3746711"><ele>31.0</ele><time>2026-05-02T12:00:37.403Z</time></trkpt><trkpt lat="53.9357008" lon="-1.3747919"><ele>30.0</ele><time>2026-05-02T12:00:38.402Z</time></trkpt><trkpt lat="53.9359746" lon="-1.3749157"><ele>29.0</ele><time>2026-05-02T12:00:39.402Z</time></trkpt><trkpt lat="53.9362466" lon="-1.3750376"><ele>29.0</ele><time>2026-05-02T12:00:40.406Z</time></trkpt><trkpt lat="53.9365179" lon="-1.3751546"><ele>29.0</ele><time>2026-05-02T12:00:41.407Z</time></trkpt><trkpt lat="53.9367884" lon="-1.3752688"><ele>30.5</ele><time>2026-05-02T12:00:42.407Z</time></trkpt><trkpt lat="53.9370577" lon="-1.3753827"><ele>32.0</ele><time>2026-05-02T12:00:43.406Z</time></trkpt><trkpt lat="53.9373269" lon="-1.3755015"><ele>32.0</ele><time>2026-05-02T12:00:44.402Z</time></trkpt><trkpt lat="53.9375996" lon="-1.3756122"><ele>32.0</ele><time>2026-05-02T12:00:45.406Z</time></trkpt><trkpt lat="53.9378755" lon="-1.3757022"><ele>32.0</ele><time>2026-05-02T12:00:46.407Z</time></trkpt><trkpt lat="53.9381566" lon="-1.3757622"><ele>32.0</ele><time>2026-05-02T12:00:47.405Z</time></trkpt><trkpt lat="53.9384364" lon="-1.3757984"><ele>30.5</ele><time>2026-05-02T12:00:48.407Z</time></trkpt><trkpt lat="53.9387159" lon="-1.3758179"><ele>29.0</ele><time>2026-05-02T12:00:49.402Z</time></trkpt><trkpt lat="53.9389981" lon="-1.3758235"><ele>28.0</ele><time>2026-05-02T12:00:50.406Z</time></trkpt><trkpt lat="53.9392799" lon="-1.3758144"><ele>27.0</ele><time>2026-05-02T12:00:51.408Z</time></trkpt><trkpt lat="53.9395613" lon="-1.3757974"><ele>27.0</ele><time>2026-05-02T12:00:52.404Z</time></trkpt><trkpt lat="53.9398435" lon="-1.3757722"><ele>27.0</ele><time>2026-05-02T12:00:53.405Z</time></trkpt><trkpt lat="53.9401253" lon="-1.3757388"><ele>25.5</ele><time>2026-05-02T12:00:54.406Z</time></trkpt><trkpt lat="53.9404067" lon="-1.3756936"><ele>24.0</ele><time>2026-05-02T12:00:55.404Z</time></trkpt><trkpt lat="53.9406869" lon="-1.3756356"><ele>23.5</ele><time>2026-05-02T12:00:56.403Z</time></trkpt><trkpt lat="53.9409665" lon="-1.3755689"><ele>23.0</ele><time>2026-05-02T12:00:57.404Z</time></trkpt><trkpt lat="53.9412438" lon="-1.3754904"><ele>23.0</ele><time>2026-05-02T12:00:58.403Z</time></trkpt><trkpt lat="53.9415204" lon="-1.3753991"><ele>23.0</ele><time>2026-05-02T12:00:59.403Z</time></trkpt><trkpt lat="53.9417955" lon="-1.3752991"><ele>23.0</ele><time>2026-05-02T12:01:00.404Z</time></trkpt><trkpt lat="53.94207" lon="-1.3751919"><ele>23.0</ele><time>2026-05-02T12:01:01.403Z</time></trkpt><trkpt lat="53.9423432" lon="-1.3750723"><ele>23.0</ele><time>2026-05-02T12:01:02.405Z</time></trkpt><trkpt lat="53.9426134" lon="-1.3749385"><ele>23.0</ele><time>2026-05-02T12:01:03.403Z</time></trkpt><trkpt lat="53.9428855" lon="-1.3747969"><ele>23.0</ele><time>2026-05-02T12:01:04.404Z</time></trkpt><trkpt lat="53.9431573" lon="-1.3746509"><ele>23.0</ele><time>2026-05-02T12:01:05.403Z</time></trkpt><trkpt lat="53.9434275" lon="-1.3744938"><ele>24.0</ele><time>2026-05-02T12:01:06.408Z</time></trkpt><trkpt lat="53.9436974" lon="-1.3743349"><ele>25.0</ele><time>2026-05-02T12:01:07.404Z</time></trkpt><trkpt lat="53.9439582" lon="-1.3741669"><ele>26.0</ele><time>2026-05-02T12:01:08.403Z</time></trkpt><trkpt lat="53.9442135" lon="-1.3739814"><ele>27.0</ele><time>2026-05-02T12:01:09.404Z</time></trkpt><trkpt lat="53.9444688" lon="-1.3737805"><ele>27.0</ele><time>2026-05-02T12:01:10.402Z</time></trkpt><trkpt lat="53.9447237" lon="-1.373575"><ele>27.0</ele><time>2026-05-02T12:01:11.404Z</time></trkpt><trkpt lat="53.9449748" lon="-1.3733555"><ele>28.0</ele><time>2026-05-02T12:01:12.405Z</time></trkpt><trkpt lat="53.945219" lon="-1.3731302"><ele>29.0</ele><time>2026-05-02T12:01:13.402Z</time></trkpt><trkpt lat="53.9454638" lon="-1.3728994"><ele>26.5</ele><time>2026-05-02T12:01:14.405Z</time></trkpt><trkpt lat="53.9457089" lon="-1.3726739"><ele>24.0</ele><time>2026-05-02T12:01:15.407Z</time></trkpt><trkpt lat="53.9459549" lon="-1.3724501"><ele>23.5</ele><time>2026-05-02T12:01:16.406Z</time></trkpt><trkpt lat="53.9462026" lon="-1.3722301"><ele>23.0</ele><time>2026-05-02T12:01:17.406Z</time></trkpt><trkpt lat="53.9464531" lon="-1.3720127"><ele>23.0</ele><time>2026-05-02T12:01:18.407Z</time></trkpt><trkpt lat="53.9467102" lon="-1.3718022"><ele>23.0</ele><time>2026-05-02T12:01:19.406Z</time></trkpt><trkpt lat="53.9469697" lon="-1.3716016"><ele>23.0</ele><time>2026-05-02T12:01:20.406Z</time></trkpt><trkpt lat="53.9472263" lon="-1.3714076"><ele>23.0</ele><time>2026-05-02T12:01:21.406Z</time></trkpt><trkpt lat="53.9474827" lon="-1.371216"><ele>23.0</ele><time>2026-05-02T12:01:22.407Z</time></trkpt><trkpt lat="53.947741" lon="-1.3710274"><ele>23.0</ele><time>2026-05-02T12:01:23.406Z</time></trkpt><trkpt lat="53.9479992" lon="-1.3708405"><ele>23.0</ele><time>2026-05-02T12:01:24.407Z</time></trkpt><trkpt lat="53.9482576" lon="-1.3706552"><ele>23.0</ele><time>2026-05-02T12:01:25.406Z</time></trkpt><trkpt lat="53.9485188" lon="-1.3704767"><ele>23.0</ele><time>2026-05-02T12:01:26.405Z</time></trkpt><trkpt lat="53.9487846" lon="-1.3703086"><ele>23.0</ele><time>2026-05-02T12:01:27.406Z</time></trkpt><trkpt lat="53.9490512" lon="-1.3701473"><ele>23.0</ele><time>2026-05-02T12:01:28.403Z</time></trkpt><trkpt lat="53.9493221" lon="-1.3699892"><ele>23.0</ele><time>2026-05-02T12:01:29.404Z</time></trkpt><trkpt lat="53.9495942" lon="-1.36984"><ele>23.0</ele><time>2026-05-02T12:01:30.406Z</time></trkpt><trkpt lat="53.9498649" lon="-1.3696998"><ele>23.0</ele><time>2026-05-02T12:01:31.404Z</time></trkpt><trkpt lat="53.9501365" lon="-1.3695696"><ele>23.0</ele><time>2026-05-02T12:01:32.404Z</time></trkpt><trkpt lat="53.9504112" lon="-1.3694541"><ele>23.0</ele><time>2026-05-02T12:01:33.404Z</time></trkpt><trkpt lat="53.9506861" lon="-1.3693524"><ele>23.5</ele><time>2026-05-02T12:01:34.402Z</time></trkpt><trkpt lat="53.9509639" lon="-1.3692614"><ele>24.0</ele><time>2026-05-02T12:01:35.404Z</time></trkpt><trkpt lat="53.9512425" lon="-1.3691827"><ele>24.0</ele><time>2026-05-02T12:01:36.402Z</time></trkpt><trkpt lat="53.9515228" lon="-1.3691129"><ele>24.0</ele><time>2026-05-02T12:01:37.403Z</time></trkpt><trkpt lat="53.9518044" lon="-1.3690558"><ele>24.5</ele><time>2026-05-02T12:01:38.404Z</time></trkpt><trkpt lat="53.952085" lon="-1.3690052"><ele>25.0</ele><time>2026-05-02T12:01:39.403Z</time></trkpt><trkpt lat="53.9523676" lon="-1.3689633"><ele>24.5</ele><time>2026-05-02T12:01:40.402Z</time></trkpt><trkpt lat="53.9526494" lon="-1.3689304"><ele>24.0</ele><time>2026-05-02T12:01:41.402Z</time></trkpt><trkpt lat="53.9529304" lon="-1.368912"><ele>24.0</ele><time>2026-05-02T12:01:42.408Z</time></trkpt><trkpt lat="53.9532091" lon="-1.3689057"><ele>24.0</ele><time>2026-05-02T12:01:43.406Z</time></trkpt><trkpt lat="53.9534864" lon="-1.368911"><ele>23.5</ele><time>2026-05-02T12:01:44.406Z</time></trkpt><trkpt lat="53.9537629" lon="-1.3689291"><ele>23.0</ele><time>2026-05-02T12:01:45.403Z</time></trkpt><trkpt lat="53.9540415" lon="-1.368957"><ele>23.5</ele><time>2026-05-02T12:01:46.408Z</time></trkpt><trkpt lat="53.9543207" lon="-1.3689924"><ele>24.0</ele><time>2026-05-02T12:01:47.406Z</time></trkpt><trkpt lat="53.9545979" lon="-1.3690382"><ele>24.0</ele><time>2026-05-02T12:01:48.41Z</time></trkpt><trkpt lat="53.9548739" lon="-1.3690974"><ele>24.0</ele><time>2026-05-02T12:01:49.405Z</time></trkpt><trkpt lat="53.9551504" lon="-1.3691681"><ele>24.0</ele><time>2026-05-02T12:01:50.404Z</time></trkpt><trkpt lat="53.9554281" lon="-1.3692514"><ele>24.0</ele><time>2026-05-02T12:01:51.403Z</time></trkpt><trkpt lat="53.9557039" lon="-1.3693421"><ele>24.0</ele><time>2026-05-02T12:01:52.402Z</time></trkpt><trkpt lat="53.9559802" lon="-1.3694406"><ele>24.0</ele><time>2026-05-02T12:01:53.404Z</time></trkpt><trkpt lat="53.9562501" lon="-1.3695436"><ele>24.0</ele><time>2026-05-02T12:01:54.406Z</time></trkpt><trkpt lat="53.9565127" lon="-1.3696423"><ele>24.0</ele><time>2026-05-02T12:01:55.402Z</time></trkpt><trkpt lat="53.9567684" lon="-1.3697424"><ele>24.5</ele><time>2026-05-02T12:01:56.403Z</time></trkpt><trkpt lat="53.9570225" lon="-1.3698442"><ele>25.0</ele><time>2026-05-02T12:01:57.404Z</time></trkpt><trkpt lat="53.9572782" lon="-1.3699448"><ele>25.0</ele><time>2026-05-02T12:01:58.403Z</time></trkpt><trkpt lat="53.9575348" lon="-1.3700438"><ele>25.0</ele><time>2026-05-02T12:01:59.403Z</time></trkpt><trkpt lat="53.9577945" lon="-1.3701345"><ele>24.5</ele><time>2026-05-02T12:02:00.404Z</time></trkpt><trkpt lat="53.9580563" lon="-1.3702204"><ele>24.0</ele><time>2026-05-02T12:02:01.403Z</time></trkpt><trkpt lat="53.958317" lon="-1.3703055"><ele>24.0</ele><time>2026-05-02T12:02:02.402Z</time></trkpt><trkpt lat="53.9585773" lon="-1.370387"><ele>24.0</ele><time>2026-05-02T12:02:03.402Z</time></trkpt><trkpt lat="53.9588393" lon="-1.3704597"><ele>24.5</ele><time>2026-05-02T12:02:04.407Z</time></trkpt><trkpt lat="53.9591019" lon="-1.3705258"><ele>25.0</ele><time>2026-05-02T12:02:05.404Z</time></trkpt><trkpt lat="53.959364" lon="-1.3705886"><ele>25.0</ele><time>2026-05-02T12:02:06.405Z</time></trkpt><trkpt lat="53.9596269" lon="-1.3706472"><ele>25.0</ele><time>2026-05-02T12:02:07.403Z</time></trkpt><trkpt lat="53.9598915" lon="-1.370702"><ele>25.5</ele><time>2026-05-02T12:02:08.405Z</time></trkpt><trkpt lat="53.9601576" lon="-1.3707524"><ele>26.0</ele><time>2026-05-02T12:02:09.404Z</time></trkpt><trkpt lat="53.9604217" lon="-1.3707989"><ele>26.0</ele><time>2026-05-02T12:02:10.406Z</time></trkpt><trkpt lat="53.9606864" lon="-1.3708398"><ele>26.0</ele><time>2026-05-02T12:02:11.406Z</time></trkpt><trkpt lat="53.9609526" lon="-1.3708775"><ele>25.0</ele><time>2026-05-02T12:02:12.405Z</time></trkpt><trkpt lat="53.961218" lon="-1.3709099"><ele>24.0</ele><time>2026-05-02T12:02:13.403Z</time></trkpt><trkpt lat="53.9614846" lon="-1.370936"><ele>23.0</ele><time>2026-05-02T12:02:14.405Z</time></trkpt><trkpt lat="53.9617501" lon="-1.3709576"><ele>22.0</ele><time>2026-05-02T12:02:15.406Z</time></trkpt><trkpt lat="53.9620167" lon="-1.370965"><ele>22.0</ele><time>2026-05-02T12:02:16.407Z</time></trkpt><trkpt lat="53.9622883" lon="-1.370975"><ele>22.0</ele><time>2026-05-02T12:02:17.403Z</time></trkpt><trkpt lat="53.9625567" lon="-1.370985"><ele>22.5</ele><time>2026-05-02T12:02:18.406Z</time></trkpt><trkpt lat="53.9628233" lon="-1.370985"><ele>23.0</ele><time>2026-05-02T12:02:19.406Z</time></trkpt><trkpt lat="53.9630883" lon="-1.3709783"><ele>23.0</ele><time>2026-05-02T12:02:20.406Z</time></trkpt><trkpt lat="53.9633583" lon="-1.3709667"><ele>23.0</ele><time>2026-05-02T12:02:21.407Z</time></trkpt><trkpt lat="53.963625" lon="-1.370955"><ele>23.0</ele><time>2026-05-02T12:02:22.406Z</time></trkpt><trkpt lat="53.9638917" lon="-1.3709433"><ele>23.0</ele><time>2026-05-02T12:02:23.404Z</time></trkpt><trkpt lat="53.9641567" lon="-1.3709217"><ele>23.0</ele><time>2026-05-02T12:02:24.407Z</time></trkpt><trkpt lat="53.9644233" lon="-1.3708933"><ele>23.0</ele><time>2026-05-02T12:02:25.406Z</time></trkpt><trkpt lat="53.96469" lon="-1.37086"><ele>23.0</ele><time>2026-05-02T12:02:26.406Z</time></trkpt><trkpt lat="53.964955" lon="-1.3708283"><ele>23.0</ele><time>2026-05-02T12:02:27.404Z</time></trkpt><trkpt lat="53.96522" lon="-1.3707917"><ele>22.0</ele><time>2026-05-02T12:02:28.403Z</time></trkpt><trkpt lat="53.965485" lon="-1.3707467"><ele>21.0</ele><time>2026-05-02T12:02:29.406Z</time></trkpt><trkpt lat="53.96575" lon="-1.3706933"><ele>20.5</ele><time>2026-05-02T12:02:30.406Z</time></trkpt><trkpt lat="53.9660133" lon="-1.370635"><ele>20.0</ele><time>2026-05-02T12:02:31.402Z</time></trkpt><trkpt lat="53.9662767" lon="-1.3705733"><ele>20.0</ele><time>2026-05-02T12:02:32.405Z</time></trkpt><trkpt lat="53.9665417" lon="-1.3705083"><ele>20.0</ele><time>2026-05-02T12:02:33.405Z</time></trkpt><trkpt lat="53.966805" lon="-1.3704433"><ele>19.5</ele><time>2026-05-02T12:02:34.403Z</time></trkpt><trkpt lat="53.9670667" lon="-1.3703733"><ele>19.0</ele><time>2026-05-02T12:02:35.405Z</time></trkpt><trkpt lat="53.96733" lon="-1.3702983"><ele>20.0</ele><time>2026-05-02T12:02:36.404Z</time></trkpt><trkpt lat="53.96759" lon="-1.3702133"><ele>21.0</ele><time>2026-05-02T12:02:37.405Z</time></trkpt><trkpt lat="53.9678517" lon="-1.3701233"><ele>21.0</ele><time>2026-05-02T12:02:38.402Z</time></trkpt><trkpt lat="53.9681167" lon="-1.3700267"><ele>21.0</ele><time>2026-05-02T12:02:39.406Z</time></trkpt><trkpt lat="53.9683783" lon="-1.36993"><ele>21.0</ele><time>2026-05-02T12:02:40.406Z</time></trkpt><trkpt lat="53.9686367" lon="-1.3698333"><ele>21.0</ele><time>2026-05-02T12:02:41.407Z</time></trkpt><trkpt lat="53.9688933" lon="-1.3697333"><ele>21.5</ele><time>2026-05-02T12:02:42.405Z</time></trkpt><trkpt lat="53.969145" lon="-1.3696317"><ele>22.0</ele><time>2026-05-02T12:02:43.406Z</time></trkpt><trkpt lat="53.9693983" lon="-1.36952"><ele>21.0</ele><time>2026-05-02T12:02:44.405Z</time></trkpt><trkpt lat="53.969655" lon="-1.3694017"><ele>20.0</ele><time>2026-05-02T12:02:45.408Z</time></trkpt><trkpt lat="53.9699133" lon="-1.3692817"><ele>20.5</ele><time>2026-05-02T12:02:46.401Z</time></trkpt><trkpt lat="53.97017" lon="-1.3691567"><ele>21.0</ele><time>2026-05-02T12:02:47.403Z</time></trkpt><trkpt lat="53.970425" lon="-1.3690267"><ele>21.0</ele><time>2026-05-02T12:02:48.405Z</time></trkpt><trkpt lat="53.970675" lon="-1.3688933"><ele>21.0</ele><time>2026-05-02T12:02:49.405Z</time></trkpt><trkpt lat="53.9709267" lon="-1.368745"><ele>21.0</ele><time>2026-05-02T12:02:50.406Z</time></trkpt><trkpt lat="53.9711783" lon="-1.3685983"><ele>21.0</ele><time>2026-05-02T12:02:51.405Z</time></trkpt><trkpt lat="53.9714317" lon="-1.3684517"><ele>21.0</ele><time>2026-05-02T12:02:52.405Z</time></trkpt><trkpt lat="53.9716817" lon="-1.3683017"><ele>21.0</ele><time>2026-05-02T12:02:53.404Z</time></trkpt><trkpt lat="53.971935" lon="-1.368145"><ele>23.0</ele><time>2026-05-02T12:02:54.406Z</time></trkpt><trkpt lat="53.9721833" lon="-1.367985"><ele>25.0</ele><time>2026-05-02T12:02:55.406Z</time></trkpt><trkpt lat="53.9724283" lon="-1.3678133"><ele>25.5</ele><time>2026-05-02T12:02:56.407Z</time></trkpt><trkpt lat="53.9726733" lon="-1.3676367"><ele>26.0</ele><time>2026-05-02T12:02:57.404Z</time></trkpt><trkpt lat="53.9729183" lon="-1.3674583"><ele>26.0</ele><time>2026-05-02T12:02:58.405Z</time></trkpt><trkpt lat="53.9731617" lon="-1.3672783"><ele>26.0</ele><time>2026-05-02T12:02:59.402Z</time></trkpt><trkpt lat="53.9734083" lon="-1.3670983"><ele>25.5</ele><time>2026-05-02T12:03:00.405Z</time></trkpt><trkpt lat="53.9736533" lon="-1.3669183"><ele>25.0</ele><time>2026-05-02T12:03:01.404Z</time></trkpt><trkpt lat="53.9739" lon="-1.366735"><ele>25.0</ele><time>2026-05-02T12:03:02.405Z</time></trkpt><trkpt lat="53.9741433" lon="-1.3665433"><ele>25.0</ele><time>2026-05-02T12:03:03.407Z</time></trkpt><trkpt lat="53.974385" lon="-1.3663467"><ele>25.5</ele><time>2026-05-02T12:03:04.406Z</time></trkpt><trkpt lat="53.9746283" lon="-1.36615"><ele>26.0</ele><time>2026-05-02T12:03:05.406Z</time></trkpt><trkpt lat="53.9748767" lon="-1.3659433"><ele>26.0</ele><time>2026-05-02T12:03:06.403Z</time></trkpt><trkpt lat="53.97513" lon="-1.36573"><ele>26.0</ele><time>2026-05-02T12:03:07.402Z</time></trkpt><trkpt lat="53.9753867" lon="-1.3655117"><ele>26.0</ele><time>2026-05-02T12:03:08.405Z</time></trkpt><trkpt lat="53.975645" lon="-1.3652983"><ele>26.0</ele><time>2026-05-02T12:03:09.407Z</time></trkpt><trkpt lat="53.9759" lon="-1.3650933"><ele>26.5</ele><time>2026-05-02T12:03:10.404Z</time></trkpt><trkpt lat="53.97615" lon="-1.364895"><ele>27.0</ele><time>2026-05-02T12:03:11.406Z</time></trkpt><trkpt lat="53.9764033" lon="-1.3647083"><ele>27.0</ele><time>2026-05-02T12:03:12.406Z</time></trkpt><trkpt lat="53.9766633" lon="-1.3645317"><ele>27.0</ele><time>2026-05-02T12:03:13.403Z</time></trkpt><trkpt lat="53.9769233" lon="-1.3643567"><ele>26.5</ele><time>2026-05-02T12:03:14.404Z</time></trkpt><trkpt lat="53.9771883" lon="-1.3641867"><ele>26.0</ele><time>2026-05-02T12:03:15.403Z</time></trkpt><trkpt lat="53.9774567" lon="-1.3640317"><ele>25.5</ele><time>2026-05-02T12:03:16.403Z</time></trkpt><trkpt lat="53.977725" lon="-1.3638883"><ele>25.0</ele><time>2026-05-02T12:03:17.404Z</time></trkpt><trkpt lat="53.9779967" lon="-1.3637567"><ele>25.0</ele><time>2026-05-02T12:03:18.404Z</time></trkpt><trkpt lat="53.9782733" lon="-1.363645"><ele>25.0</ele><time>2026-05-02T12:03:19.404Z</time></trkpt><trkpt lat="53.97855" lon="-1.363555"><ele>24.0</ele><time>2026-05-02T12:03:20.403Z</time></trkpt><trkpt lat="53.9788283" lon="-1.3634783"><ele>23.0</ele><time>2026-05-02T12:03:21.403Z</time></trkpt><trkpt lat="53.979105" lon="-1.36342"><ele>23.5</ele><time>2026-05-02T12:03:22.404Z</time></trkpt><trkpt lat="53.9793833" lon="-1.36337"><ele>24.0</ele><time>2026-05-02T12:03:23.403Z</time></trkpt><trkpt lat="53.9796617" lon="-1.3633217"><ele>24.0</ele><time>2026-05-02T12:03:24.404Z</time></trkpt><trkpt lat="53.9799404" lon="-1.36328"><ele>24.0</ele><time>2026-05-02T12:03:25.403Z</time></trkpt><trkpt lat="53.9802215" lon="-1.363242"><ele>24.0</ele><time>2026-05-02T12:03:26.405Z</time></trkpt><trkpt lat="53.9805017" lon="-1.3632152"><ele>24.0</ele><time>2026-05-02T12:03:27.404Z</time></trkpt><trkpt lat="53.9807821" lon="-1.3631848"><ele>25.5</ele><time>2026-05-02T12:03:28.403Z</time></trkpt><trkpt lat="53.9810634" lon="-1.3631524"><ele>27.0</ele><time>2026-05-02T12:03:29.405Z</time></trkpt><trkpt lat="53.9813423" lon="-1.3631155"><ele>27.0</ele><time>2026-05-02T12:03:30.403Z</time></trkpt><trkpt lat="53.9816232" lon="-1.3630845"><ele>27.0</ele><time>2026-05-02T12:03:31.403Z</time></trkpt><trkpt lat="53.9819049" lon="-1.363061"><ele>27.0</ele><time>2026-05-02T12:03:32.403Z</time></trkpt><trkpt lat="53.9821867" lon="-1.3630444"><ele>27.0</ele><time>2026-05-02T12:03:33.403Z</time></trkpt><trkpt lat="53.9824688" lon="-1.363027"><ele>28.0</ele><time>2026-05-02T12:03:34.403Z</time></trkpt><trkpt lat="53.9827506" lon="-1.36301"><ele>29.0</ele><time>2026-05-02T12:03:35.404Z</time></trkpt><trkpt lat="53.983031" lon="-1.3629933"><ele>29.0</ele><time>2026-05-02T12:03:36.403Z</time></trkpt><trkpt lat="53.9833111" lon="-1.3629791"><ele>29.0</ele><time>2026-05-02T12:03:37.403Z</time></trkpt><trkpt lat="53.983592" lon="-1.3629701"><ele>28.5</ele><time>2026-05-02T12:03:38.404Z</time></trkpt><trkpt lat="53.9838724" lon="-1.3629617"><ele>28.0</ele><time>2026-05-02T12:03:39.405Z</time></trkpt><trkpt lat="53.9841553" lon="-1.3629546"><ele>28.0</ele><time>2026-05-02T12:03:40.403Z</time></trkpt><trkpt lat="53.9844372" lon="-1.3629533"><ele>28.0</ele><time>2026-05-02T12:03:41.403Z</time></trkpt><trkpt lat="53.9847203" lon="-1.3629513"><ele>28.0</ele><time>2026-05-02T12:03:42.404Z</time></trkpt><trkpt lat="53.9850009" lon="-1.3629551"><ele>28.0</ele><time>2026-05-02T12:03:43.404Z</time></trkpt><trkpt lat="53.9852822" lon="-1.3629633"><ele>28.0</ele><time>2026-05-02T12:03:44.404Z</time></trkpt><trkpt lat="53.9855639" lon="-1.3629728"><ele>28.0</ele><time>2026-05-02T12:03:45.403Z</time></trkpt><trkpt lat="53.9858443" lon="-1.3629804"><ele>28.0</ele><time>2026-05-02T12:03:46.404Z</time></trkpt><trkpt lat="53.9861256" lon="-1.3629896"><ele>28.0</ele><time>2026-05-02T12:03:47.404Z</time></trkpt><trkpt lat="53.9864085" lon="-1.3630008"><ele>28.0</ele><time>2026-05-02T12:03:48.403Z</time></trkpt><trkpt lat="53.9866905" lon="-1.3630168"><ele>28.0</ele><time>2026-05-02T12:03:49.405Z</time></trkpt><trkpt lat="53.986972" lon="-1.3630323"><ele>28.0</ele><time>2026-05-02T12:03:50.404Z</time></trkpt><trkpt lat="53.9872536" lon="-1.3630487"><ele>28.0</ele><time>2026-05-02T12:03:51.403Z</time></trkpt><trkpt lat="53.987535" lon="-1.36307"><ele>27.5</ele><time>2026-05-02T12:03:52.404Z</time></trkpt><trkpt lat="53.9878178" lon="-1.363094"><ele>27.0</ele><time>2026-05-02T12:03:53.404Z</time></trkpt><trkpt lat="53.988097" lon="-1.3631211"><ele>27.5</ele><time>2026-05-02T12:03:54.404Z</time></trkpt><trkpt lat="53.9883668" lon="-1.3631464"><ele>28.0</ele><time>2026-05-02T12:03:55.405Z</time></trkpt><trkpt lat="53.9886228" lon="-1.3631681"><ele>28.0</ele><time>2026-05-02T12:03:56.404Z</time></trkpt><trkpt lat="53.9888667" lon="-1.3631934"><ele>28.0</ele><time>2026-05-02T12:03:57.404Z</time></trkpt><trkpt lat="53.9891052" lon="-1.3632173"><ele>27.5</ele><time>2026-05-02T12:03:58.402Z</time></trkpt><trkpt lat="53.9893383" lon="-1.3632453"><ele>27.0</ele><time>2026-05-02T12:03:59.404Z</time></trkpt><trkpt lat="53.989569" lon="-1.3632741"><ele>27.0</ele><time>2026-05-02T12:04:00.404Z</time></trkpt><trkpt lat="53.9898021" lon="-1.363306"><ele>27.0</ele><time>2026-05-02T12:04:01.404Z</time></trkpt><trkpt lat="53.9900434" lon="-1.3633384"><ele>27.0</ele><time>2026-05-02T12:04:02.403Z</time></trkpt><trkpt lat="53.990289" lon="-1.3633804"><ele>27.0</ele><time>2026-05-02T12:04:03.402Z</time></trkpt><trkpt lat="53.9905352" lon="-1.3634214"><ele>27.0</ele><time>2026-05-02T12:04:04.402Z</time></trkpt><trkpt lat="53.9907819" lon="-1.3634641"><ele>27.0</ele><time>2026-05-02T12:04:05.404Z</time></trkpt><trkpt lat="53.9910299" lon="-1.3635117"><ele>28.0</ele><time>2026-05-02T12:04:06.405Z</time></trkpt><trkpt lat="53.9912808" lon="-1.3635611"><ele>29.0</ele><time>2026-05-02T12:04:07.403Z</time></trkpt><trkpt lat="53.991542" lon="-1.3636152"><ele>29.5</ele><time>2026-05-02T12:04:08.404Z</time></trkpt><trkpt lat="53.9918125" lon="-1.363683"><ele>30.0</ele><time>2026-05-02T12:04:09.402Z</time></trkpt><trkpt lat="53.9920905" lon="-1.3637599"><ele>30.0</ele><time>2026-05-02T12:04:10.401Z</time></trkpt><trkpt lat="53.9923733" lon="-1.3638413"><ele>30.0</ele><time>2026-05-02T12:04:11.403Z</time></trkpt><trkpt lat="53.992657" lon="-1.3639288"><ele>30.0</ele><time>2026-05-02T12:04:12.405Z</time></trkpt><trkpt lat="53.9929377" lon="-1.364016"><ele>30.0</ele><time>2026-05-02T12:04:13.402Z</time></trkpt><trkpt lat="53.9932138" lon="-1.3641069"><ele>30.5</ele><time>2026-05-02T12:04:14.402Z</time></trkpt><trkpt lat="53.9934871" lon="-1.3641981"><ele>31.0</ele><time>2026-05-02T12:04:15.403Z</time></trkpt><trkpt lat="53.9937526" lon="-1.364294"><ele>31.0</ele><time>2026-05-02T12:04:16.403Z</time></trkpt><trkpt lat="53.9940123" lon="-1.3643887"><ele>31.0</ele><time>2026-05-02T12:04:17.403Z</time></trkpt><trkpt lat="53.9942661" lon="-1.364482"><ele>31.0</ele><time>2026-05-02T12:04:18.404Z</time></trkpt><trkpt lat="53.9945208" lon="-1.3645715"><ele>31.0</ele><time>2026-05-02T12:04:19.402Z</time></trkpt><trkpt lat="53.9947758" lon="-1.3646627"><ele>32.5</ele><time>2026-05-02T12:04:20.404Z</time></trkpt><trkpt lat="53.9950293" lon="-1.364761"><ele>34.0</ele><time>2026-05-02T12:04:21.404Z</time></trkpt><trkpt lat="53.9952835" lon="-1.3648637"><ele>34.0</ele><time>2026-05-02T12:04:22.402Z</time></trkpt><trkpt lat="53.9955397" lon="-1.3649663"><ele>34.0</ele><time>2026-05-02T12:04:23.402Z</time></trkpt><trkpt lat="53.9957938" lon="-1.3650747"><ele>34.5</ele><time>2026-05-02T12:04:24.404Z</time></trkpt><trkpt lat="53.9960461" lon="-1.3651795"><ele>35.0</ele><time>2026-05-02T12:04:25.403Z</time></trkpt><trkpt lat="53.996295" lon="-1.3652729"><ele>35.0</ele><time>2026-05-02T12:04:26.404Z</time></trkpt><trkpt lat="53.9965447" lon="-1.3653669"><ele>35.0</ele><time>2026-05-02T12:04:27.403Z</time></trkpt><trkpt lat="53.996793" lon="-1.3654747"><ele>35.0</ele><time>2026-05-02T12:04:28.403Z</time></trkpt><trkpt lat="53.9970352" lon="-1.365587"><ele>35.0</ele><time>2026-05-02T12:04:29.403Z</time></trkpt><trkpt lat="53.9972682" lon="-1.3657063"><ele>35.0</ele><time>2026-05-02T12:04:30.404Z</time></trkpt><trkpt lat="53.9974999" lon="-1.3658323"><ele>35.0</ele><time>2026-05-02T12:04:31.402Z</time></trkpt><trkpt lat="53.9977323" lon="-1.365965"><ele>35.5</ele><time>2026-05-02T12:04:32.406Z</time></trkpt><trkpt lat="53.9979645" lon="-1.3660992"><ele>36.0</ele><time>2026-05-02T12:04:33.405Z</time></trkpt><trkpt lat="53.9981998" lon="-1.3662374"><ele>36.0</ele><time>2026-05-02T12:04:34.402Z</time></trkpt><trkpt lat="53.9984373" lon="-1.3663796"><ele>36.0</ele><time>2026-05-02T12:04:35.405Z</time></trkpt><trkpt lat="53.9986746" lon="-1.3665241"><ele>36.0</ele><time>2026-05-02T12:04:36.406Z</time></trkpt><trkpt lat="53.9989118" lon="-1.366677"><ele>36.0</ele><time>2026-05-02T12:04:37.405Z</time></trkpt><trkpt lat="53.9991511" lon="-1.3668473"><ele>35.5</ele><time>2026-05-02T12:04:38.402Z</time></trkpt><trkpt lat="53.9993955" lon="-1.3670341"><ele>35.0</ele><time>2026-05-02T12:04:39.402Z</time></trkpt><trkpt lat="53.9996479" lon="-1.3672304"><ele>34.5</ele><time>2026-05-02T12:04:40.403Z</time></trkpt><trkpt lat="53.9998998" lon="-1.36743"><ele>34.0</ele><time>2026-05-02T12:04:41.407Z</time></trkpt><trkpt lat="54.0001503" lon="-1.3676346"><ele>34.0</ele><time>2026-05-02T12:04:42.406Z</time></trkpt><trkpt lat="54.0004028" lon="-1.3678586"><ele>34.0</ele><time>2026-05-02T12:04:43.407Z</time></trkpt><trkpt lat="54.0006476" lon="-1.3680993"><ele>34.0</ele><time>2026-05-02T12:04:44.406Z</time></trkpt><trkpt lat="54.0008836" lon="-1.3683447"><ele>34.0</ele><time>2026-05-02T12:04:45.407Z</time></trkpt><trkpt lat="54.0011161" lon="-1.3685903"><ele>34.0</ele><time>2026-05-02T12:04:46.407Z</time></trkpt><trkpt lat="54.0013458" lon="-1.3688405"><ele>34.0</ele><time>2026-05-02T12:04:47.406Z</time></trkpt><trkpt lat="54.0015725" lon="-1.3690979"><ele>34.0</ele><time>2026-05-02T12:04:48.402Z</time></trkpt><trkpt lat="54.0017977" lon="-1.3693679"><ele>34.0</ele><time>2026-05-02T12:04:49.402Z</time></trkpt><trkpt lat="54.0020207" lon="-1.3696471"><ele>33.0</ele><time>2026-05-02T12:04:50.401Z</time></trkpt><trkpt lat="54.002241" lon="-1.3699423"><ele>32.0</ele><time>2026-05-02T12:04:51.401Z</time></trkpt><trkpt lat="54.0024647" lon="-1.3702602"><ele>31.5</ele><time>2026-05-02T12:04:52.401Z</time></trkpt><trkpt lat="54.0026952" lon="-1.3705944"><ele>31.0</ele><time>2026-05-02T12:04:53.401Z</time></trkpt><trkpt lat="54.0029315" lon="-1.3709304"><ele>31.0</ele><time>2026-05-02T12:04:54.402Z</time></trkpt><trkpt lat="54.0031618" lon="-1.3712551"><ele>31.0</ele><time>2026-05-02T12:04:55.403Z</time></trkpt><trkpt lat="54.0033783" lon="-1.3715674"><ele>31.0</ele><time>2026-05-02T12:04:56.401Z</time></trkpt><trkpt lat="54.0035768" lon="-1.3718644"><ele>31.0</ele><time>2026-05-02T12:04:57.402Z</time></trkpt><trkpt lat="54.0037659" lon="-1.3721493"><ele>31.5</ele><time>2026-05-02T12:04:58.401Z</time></trkpt><trkpt lat="54.0039529" lon="-1.372428"><ele>32.0</ele><time>2026-05-02T12:04:59.405Z</time></trkpt><trkpt lat="54.0041415" lon="-1.3727057"><ele>32.0</ele><time>2026-05-02T12:05:00.402Z</time></trkpt><trkpt lat="54.0043357" lon="-1.3729814"><ele>32.0</ele><time>2026-05-02T12:05:01.403Z</time></trkpt><trkpt lat="54.0045295" lon="-1.3732467"><ele>32.5</ele><time>2026-05-02T12:05:02.406Z</time></trkpt><trkpt lat="54.0047176" lon="-1.3735049"><ele>33.0</ele><time>2026-05-02T12:05:03.406Z</time></trkpt><trkpt lat="54.0049096" lon="-1.3737547"><ele>34.0</ele><time>2026-05-02T12:05:04.405Z</time></trkpt><trkpt lat="54.0051087" lon="-1.3740013"><ele>35.0</ele><time>2026-05-02T12:05:05.406Z</time></trkpt><trkpt lat="54.0053128" lon="-1.3742492"><ele>35.0</ele><time>2026-05-02T12:05:06.405Z</time></trkpt><trkpt lat="54.0055243" lon="-1.3744965"><ele>35.0</ele><time>2026-05-02T12:05:07.406Z</time></trkpt><trkpt lat="54.0057415" lon="-1.3747433"><ele>34.5</ele><time>2026-05-02T12:05:08.406Z</time></trkpt><trkpt lat="54.0059596" lon="-1.3749865"><ele>34.0</ele><time>2026-05-02T12:05:09.405Z</time></trkpt><trkpt lat="54.0061741" lon="-1.3752255"><ele>34.0</ele><time>2026-05-02T12:05:10.407Z</time></trkpt><trkpt lat="54.0063942" lon="-1.3754549"><ele>34.0</ele><time>2026-05-02T12:05:11.406Z</time></trkpt><trkpt lat="54.0066232" lon="-1.3756771"><ele>34.5</ele><time>2026-05-02T12:05:12.406Z</time></trkpt><trkpt lat="54.0068596" lon="-1.3758996"><ele>35.0</ele><time>2026-05-02T12:05:13.405Z</time></trkpt><trkpt lat="54.007101" lon="-1.3761247"><ele>35.0</ele><time>2026-05-02T12:05:14.405Z</time></trkpt><trkpt lat="54.007346" lon="-1.3763445"><ele>35.0</ele><time>2026-05-02T12:05:15.405Z</time></trkpt><trkpt lat="54.0075967" lon="-1.3765605"><ele>35.0</ele><time>2026-05-02T12:05:16.406Z</time></trkpt><trkpt lat="54.0078443" lon="-1.3767644"><ele>35.0</ele><time>2026-05-02T12:05:17.407Z</time></trkpt><trkpt lat="54.0080908" lon="-1.3769577"><ele>35.5</ele><time>2026-05-02T12:05:18.405Z</time></trkpt><trkpt lat="54.0083389" lon="-1.3771439"><ele>36.0</ele><time>2026-05-02T12:05:19.406Z</time></trkpt><trkpt lat="54.0085928" lon="-1.3773261"><ele>36.0</ele><time>2026-05-02T12:05:20.404Z</time></trkpt><trkpt lat="54.0088522" lon="-1.3775076"><ele>36.0</ele><time>2026-05-02T12:05:21.402Z</time></trkpt><trkpt lat="54.0091108" lon="-1.3776827"><ele>38.0</ele><time>2026-05-02T12:05:22.402Z</time></trkpt><trkpt lat="54.0093679" lon="-1.3778482"><ele>40.0</ele><time>2026-05-02T12:05:23.401Z</time></trkpt><trkpt lat="54.0096263" lon="-1.3780072"><ele>40.0</ele><time>2026-05-02T12:05:24.405Z</time></trkpt><trkpt lat="54.0098903" lon="-1.378157"><ele>40.0</ele><time>2026-05-02T12:05:25.406Z</time></trkpt><trkpt lat="54.0101561" lon="-1.3782974"><ele>40.5</ele><time>2026-05-02T12:05:26.406Z</time></trkpt><trkpt lat="54.0104211" lon="-1.3784339"><ele>41.0</ele><time>2026-05-02T12:05:27.406Z</time></trkpt><trkpt lat="54.0106849" lon="-1.3785624"><ele>40.0</ele><time>2026-05-02T12:05:28.406Z</time></trkpt><trkpt lat="54.0109448" lon="-1.3786806"><ele>39.0</ele><time>2026-05-02T12:05:29.405Z</time></trkpt><trkpt lat="54.0112003" lon="-1.3787901"><ele>39.0</ele><time>2026-05-02T12:05:30.405Z</time></trkpt><trkpt lat="54.0114525" lon="-1.3788938"><ele>39.0</ele><time>2026-05-02T12:05:31.403Z</time></trkpt><trkpt lat="54.0117043" lon="-1.3789956"><ele>39.0</ele><time>2026-05-02T12:05:32.407Z</time></trkpt><trkpt lat="54.0119588" lon="-1.3790955"><ele>39.0</ele><time>2026-05-02T12:05:33.405Z</time></trkpt><trkpt lat="54.0122209" lon="-1.3791971"><ele>38.5</ele><time>2026-05-02T12:05:34.406Z</time></trkpt><trkpt lat="54.0124902" lon="-1.3792981"><ele>38.0</ele><time>2026-05-02T12:05:35.405Z</time></trkpt><trkpt lat="54.0127657" lon="-1.3793948"><ele>38.0</ele><time>2026-05-02T12:05:36.406Z</time></trkpt><trkpt lat="54.0130396" lon="-1.37949"><ele>38.0</ele><time>2026-05-02T12:05:37.401Z</time></trkpt><trkpt lat="54.0133112" lon="-1.3795878"><ele>39.0</ele><time>2026-05-02T12:05:38.406Z</time></trkpt><trkpt lat="54.0135788" lon="-1.3796896"><ele>40.0</ele><time>2026-05-02T12:05:39.402Z</time></trkpt><trkpt lat="54.0138443" lon="-1.3797926"><ele>40.0</ele><time>2026-05-02T12:05:40.406Z</time></trkpt><trkpt lat="54.014106" lon="-1.3798918"><ele>40.0</ele><time>2026-05-02T12:05:41.406Z</time></trkpt><trkpt lat="54.0143672" lon="-1.3799873"><ele>40.5</ele><time>2026-05-02T12:05:42.406Z</time></trkpt><trkpt lat="54.0146286" lon="-1.3800762"><ele>41.0</ele><time>2026-05-02T12:05:43.406Z</time></trkpt><trkpt lat="54.0148915" lon="-1.3801655"><ele>42.5</ele><time>2026-05-02T12:05:44.406Z</time></trkpt><trkpt lat="54.0151532" lon="-1.3802616"><ele>44.0</ele><time>2026-05-02T12:05:45.402Z</time></trkpt><trkpt lat="54.0154153" lon="-1.3803634"><ele>44.0</ele><time>2026-05-02T12:05:46.406Z</time></trkpt><trkpt lat="54.015677" lon="-1.3804665"><ele>44.0</ele><time>2026-05-02T12:05:47.406Z</time></trkpt><trkpt lat="54.015944" lon="-1.3805648"><ele>44.0</ele><time>2026-05-02T12:05:48.406Z</time></trkpt><trkpt lat="54.0162168" lon="-1.3806611"><ele>44.0</ele><time>2026-05-02T12:05:49.404Z</time></trkpt><trkpt lat="54.0164965" lon="-1.3807611"><ele>45.5</ele><time>2026-05-02T12:05:50.406Z</time></trkpt><trkpt lat="54.016781" lon="-1.3808663"><ele>47.0</ele><time>2026-05-02T12:05:51.401Z</time></trkpt><trkpt lat="54.0170675" lon="-1.3809759"><ele>47.0</ele><time>2026-05-02T12:05:52.405Z</time></trkpt><trkpt lat="54.017353" lon="-1.3810806"><ele>47.0</ele><time>2026-05-02T12:05:53.403Z</time></trkpt><trkpt lat="54.0176415" lon="-1.3811836"><ele>47.5</ele><time>2026-05-02T12:05:54.403Z</time></trkpt><trkpt lat="54.01793" lon="-1.3812889"><ele>48.0</ele><time>2026-05-02T12:05:55.401Z</time></trkpt><trkpt lat="54.0182112" lon="-1.3813943"><ele>49.0</ele><time>2026-05-02T12:05:56.403Z</time></trkpt><trkpt lat="54.0184852" lon="-1.3815019"><ele>50.0</ele><time>2026-05-02T12:05:57.405Z</time></trkpt><trkpt lat="54.0187562" lon="-1.381604"><ele>50.0</ele><time>2026-05-02T12:05:58.405Z</time></trkpt><trkpt lat="54.0190227" lon="-1.3817027"><ele>50.0</ele><time>2026-05-02T12:05:59.401Z</time></trkpt><trkpt lat="54.0192864" lon="-1.3818021"><ele>51.0</ele><time>2026-05-02T12:06:00.402Z</time></trkpt><trkpt lat="54.0195536" lon="-1.381899"><ele>52.0</ele><time>2026-05-02T12:06:01.405Z</time></trkpt><trkpt lat="54.0198214" lon="-1.3819959"><ele>53.0</ele><time>2026-05-02T12:06:02.406Z</time></trkpt><trkpt lat="54.0200857" lon="-1.3820974"><ele>54.0</ele><time>2026-05-02T12:06:03.406Z</time></trkpt><trkpt lat="54.0203491" lon="-1.3821926"><ele>54.0</ele><time>2026-05-02T12:06:04.407Z</time></trkpt><trkpt lat="54.0206132" lon="-1.3822868"><ele>54.0</ele><time>2026-05-02T12:06:05.403Z</time></trkpt><trkpt lat="54.0208758" lon="-1.3823822"><ele>54.5</ele><time>2026-05-02T12:06:06.405Z</time></trkpt><trkpt lat="54.0211376" lon="-1.3824749"><ele>55.0</ele><time>2026-05-02T12:06:07.405Z</time></trkpt><trkpt lat="54.0214017" lon="-1.3825666"><ele>56.5</ele><time>2026-05-02T12:06:08.406Z</time></trkpt><trkpt lat="54.0216687" lon="-1.3826593"><ele>58.0</ele><time>2026-05-02T12:06:09.403Z</time></trkpt><trkpt lat="54.0219336" lon="-1.3827583"><ele>58.0</ele><time>2026-05-02T12:06:10.405Z</time></trkpt><trkpt lat="54.0222009" lon="-1.3828577"><ele>58.0</ele><time>2026-05-02T12:06:11.405Z</time></trkpt><trkpt lat="54.0224726" lon="-1.382958"><ele>58.0</ele><time>2026-05-02T12:06:12.402Z</time></trkpt><trkpt lat="54.0227533" lon="-1.383063"><ele>58.0</ele><time>2026-05-02T12:06:13.403Z</time></trkpt><trkpt lat="54.0230397" lon="-1.3831739"><ele>58.5</ele><time>2026-05-02T12:06:14.403Z</time></trkpt><trkpt lat="54.0233331" lon="-1.3832923"><ele>59.0</ele><time>2026-05-02T12:06:15.403Z</time></trkpt><trkpt lat="54.0236284" lon="-1.3834128"><ele>59.0</ele><time>2026-05-02T12:06:16.403Z</time></trkpt><trkpt lat="54.0239222" lon="-1.3835238"><ele>59.0</ele><time>2026-05-02T12:06:17.406Z</time></trkpt><trkpt lat="54.0242134" lon="-1.3836249"><ele>59.5</ele><time>2026-05-02T12:06:18.407Z</time></trkpt><trkpt lat="54.0244984" lon="-1.3837144"><ele>60.0</ele><time>2026-05-02T12:06:19.403Z</time></trkpt><trkpt lat="54.0247786" lon="-1.3837954"><ele>61.5</ele><time>2026-05-02T12:06:20.402Z</time></trkpt><trkpt lat="54.0250552" lon="-1.3838737"><ele>63.0</ele><time>2026-05-02T12:06:21.402Z</time></trkpt><trkpt lat="54.0253327" lon="-1.3839434"><ele>63.0</ele><time>2026-05-02T12:06:22.404Z</time></trkpt><trkpt lat="54.0256102" lon="-1.3840155"><ele>63.0</ele><time>2026-05-02T12:06:23.402Z</time></trkpt><trkpt lat="54.0258858" lon="-1.3840891"><ele>61.5</ele><time>2026-05-02T12:06:24.403Z</time></trkpt><trkpt lat="54.0261621" lon="-1.3841587"><ele>60.0</ele><time>2026-05-02T12:06:25.405Z</time></trkpt><trkpt lat="54.0264374" lon="-1.3842234"><ele>59.0</ele><time>2026-05-02T12:06:26.406Z</time></trkpt><trkpt lat="54.0267133" lon="-1.3842842"><ele>58.0</ele><time>2026-05-02T12:06:27.402Z</time></trkpt><trkpt lat="54.0269917" lon="-1.3843469"><ele>58.0</ele><time>2026-05-02T12:06:28.405Z</time></trkpt><trkpt lat="54.0272696" lon="-1.3844125"><ele>58.0</ele><time>2026-05-02T12:06:29.403Z</time></trkpt><trkpt lat="54.0275481" lon="-1.3844725"><ele>58.5</ele><time>2026-05-02T12:06:30.402Z</time></trkpt><trkpt lat="54.0278281" lon="-1.384526"><ele>59.0</ele><time>2026-05-02T12:06:31.404Z</time></trkpt><trkpt lat="54.0281093" lon="-1.384579"><ele>59.5</ele><time>2026-05-02T12:06:32.404Z</time></trkpt><trkpt lat="54.0283925" lon="-1.3846334"><ele>60.0</ele><time>2026-05-02T12:06:33.402Z</time></trkpt><trkpt lat="54.0286748" lon="-1.3846883"><ele>60.0</ele><time>2026-05-02T12:06:34.406Z</time></trkpt><trkpt lat="54.0289537" lon="-1.3847377"><ele>60.0</ele><time>2026-05-02T12:06:35.406Z</time></trkpt><trkpt lat="54.029232" lon="-1.384775"><ele>60.0</ele><time>2026-05-02T12:06:36.403Z</time></trkpt><trkpt lat="54.0295122" lon="-1.3848075"><ele>60.0</ele><time>2026-05-02T12:06:37.408Z</time></trkpt><trkpt lat="54.029794" lon="-1.3848405"><ele>61.0</ele><time>2026-05-02T12:06:38.406Z</time></trkpt><trkpt lat="54.0300756" lon="-1.3848768"><ele>62.0</ele><time>2026-05-02T12:06:39.405Z</time></trkpt><trkpt lat="54.030357" lon="-1.3849146"><ele>62.0</ele><time>2026-05-02T12:06:40.401Z</time></trkpt><trkpt lat="54.0306406" lon="-1.3849486"><ele>62.0</ele><time>2026-05-02T12:06:41.403Z</time></trkpt><trkpt lat="54.0309232" lon="-1.3849773"><ele>62.5</ele><time>2026-05-02T12:06:42.406Z</time></trkpt><trkpt lat="54.0312024" lon="-1.3850054"><ele>63.0</ele><time>2026-05-02T12:06:43.406Z</time></trkpt><trkpt lat="54.0314822" lon="-1.3850309"><ele>63.0</ele><time>2026-05-02T12:06:44.406Z</time></trkpt><trkpt lat="54.0317646" lon="-1.385052"><ele>63.0</ele><time>2026-05-02T12:06:45.405Z</time></trkpt><trkpt lat="54.0320467" lon="-1.3850721"><ele>63.0</ele><time>2026-05-02T12:06:46.404Z</time></trkpt><trkpt lat="54.0323309" lon="-1.385092"><ele>63.0</ele><time>2026-05-02T12:06:47.404Z</time></trkpt><trkpt lat="54.0326178" lon="-1.3851098"><ele>63.0</ele><time>2026-05-02T12:06:48.403Z</time></trkpt><trkpt lat="54.0329054" lon="-1.3851223"><ele>63.0</ele><time>2026-05-02T12:06:49.403Z</time></trkpt><trkpt lat="54.0331902" lon="-1.3851341"><ele>63.0</ele><time>2026-05-02T12:06:50.407Z</time></trkpt><trkpt lat="54.0334695" lon="-1.385141"><ele>63.0</ele><time>2026-05-02T12:06:51.406Z</time></trkpt><trkpt lat="54.0337501" lon="-1.3851407"><ele>63.0</ele><time>2026-05-02T12:06:52.406Z</time></trkpt><trkpt lat="54.0340309" lon="-1.3851393"><ele>63.0</ele><time>2026-05-02T12:06:53.405Z</time></trkpt><trkpt lat="54.0343094" lon="-1.3851434"><ele>63.5</ele><time>2026-05-02T12:06:54.405Z</time></trkpt><trkpt lat="54.0345917" lon="-1.3851458"><ele>64.0</ele><time>2026-05-02T12:06:55.406Z</time></trkpt><trkpt lat="54.0348736" lon="-1.3851431"><ele>63.5</ele><time>2026-05-02T12:06:56.407Z</time></trkpt><trkpt lat="54.035155" lon="-1.3851361"><ele>63.0</ele><time>2026-05-02T12:06:57.406Z</time></trkpt><trkpt lat="54.0354381" lon="-1.3851238"><ele>63.0</ele><time>2026-05-02T12:06:58.407Z</time></trkpt><trkpt lat="54.03572" lon="-1.3851117"><ele>63.0</ele><time>2026-05-02T12:06:59.405Z</time></trkpt><trkpt lat="54.0360043" lon="-1.3850976"><ele>65.0</ele><time>2026-05-02T12:07:00.403Z</time></trkpt><trkpt lat="54.0489556" lon="-1.3884574"><ele>65.5</ele><time>2026-05-02T12:07:48.403Z</time></trkpt><trkpt lat="54.0492495" lon="-1.3885112"><ele>66.0</ele><time>2026-05-02T12:07:49.405Z</time></trkpt><trkpt lat="54.0495442" lon="-1.3885615"><ele>66.0</ele><time>2026-05-02T12:07:50.403Z</time></trkpt><trkpt lat="54.0498368" lon="-1.3886076"><ele>66.0</ele><time>2026-05-02T12:07:51.404Z</time></trkpt><trkpt lat="54.0501254" lon="-1.3886458"><ele>65.5</ele><time>2026-05-02T12:07:52.404Z</time></trkpt><trkpt lat="54.050415" lon="-1.3886838"><ele>65.0</ele><time>2026-05-02T12:07:53.405Z</time></trkpt><trkpt lat="54.0507086" lon="-1.388715"><ele>63.5</ele><time>2026-05-02T12:07:54.404Z</time></trkpt><trkpt lat="54.0510073" lon="-1.3887455"><ele>62.0</ele><time>2026-05-02T12:07:55.404Z</time></trkpt><trkpt lat="54.0513076" lon="-1.3887703"><ele>62.0</ele><time>2026-05-02T12:07:56.404Z</time></trkpt><trkpt lat="54.0516065" lon="-1.3887899"><ele>62.0</ele><time>2026-05-02T12:07:57.404Z</time></trkpt><trkpt lat="54.0519037" lon="-1.3888107"><ele>61.5</ele><time>2026-05-02T12:07:58.403Z</time></trkpt><trkpt lat="54.0521995" lon="-1.3888387"><ele>61.0</ele><time>2026-05-02T12:07:59.406Z</time></trkpt><trkpt lat="54.0524955" lon="-1.3888748"><ele>61.0</ele><time>2026-05-02T12:08:00.404Z</time></trkpt><trkpt lat="54.0527935" lon="-1.3889106"><ele>61.0</ele><time>2026-05-02T12:08:01.404Z</time></trkpt><trkpt lat="54.0530959" lon="-1.3889446"><ele>60.0</ele><time>2026-05-02T12:08:02.404Z</time></trkpt><trkpt lat="54.0533963" lon="-1.3889793"><ele>59.0</ele><time>2026-05-02T12:08:03.404Z</time></trkpt><trkpt lat="54.0536965" lon="-1.3890171"><ele>59.0</ele><time>2026-05-02T12:08:04.405Z</time></trkpt><trkpt lat="54.0539938" lon="-1.3890595"><ele>59.0</ele><time>2026-05-02T12:08:05.405Z</time></trkpt><trkpt lat="54.0542902" lon="-1.3891067"><ele>58.0</ele><time>2026-05-02T12:08:06.403Z</time></trkpt><trkpt lat="54.054584" lon="-1.389155"><ele>57.0</ele><time>2026-05-02T12:08:07.403Z</time></trkpt><trkpt lat="54.0548728" lon="-1.3892032"><ele>56.5</ele><time>2026-05-02T12:08:08.403Z</time></trkpt><trkpt lat="54.0551575" lon="-1.3892489"><ele>56.0</ele><time>2026-05-02T12:08:09.403Z</time></trkpt><trkpt lat="54.0554392" lon="-1.3892939"><ele>56.0</ele><time>2026-05-02T12:08:10.405Z</time></trkpt><trkpt lat="54.0557173" lon="-1.3893426"><ele>56.0</ele><time>2026-05-02T12:08:11.404Z</time></trkpt><trkpt lat="54.055994" lon="-1.3893963"><ele>55.5</ele><time>2026-05-02T12:08:12.404Z</time></trkpt><trkpt lat="54.0562719" lon="-1.3894489"><ele>55.0</ele><time>2026-05-02T12:08:13.406Z</time></trkpt><trkpt lat="54.0565475" lon="-1.3895019"><ele>55.5</ele><time>2026-05-02T12:08:14.406Z</time></trkpt><trkpt lat="54.0568235" lon="-1.3895563"><ele>56.0</ele><time>2026-05-02T12:08:15.405Z</time></trkpt><trkpt lat="54.0570999" lon="-1.3896127"><ele>56.0</ele><time>2026-05-02T12:08:16.402Z</time></trkpt><trkpt lat="54.0573782" lon="-1.3896747"><ele>56.0</ele><time>2026-05-02T12:08:17.405Z</time></trkpt><trkpt lat="54.0576552" lon="-1.3897379"><ele>55.5</ele><time>2026-05-02T12:08:18.405Z</time></trkpt><trkpt lat="54.0579315" lon="-1.3898026"><ele>55.0</ele><time>2026-05-02T12:08:19.402Z</time></trkpt><trkpt lat="54.0582084" lon="-1.389869"><ele>55.0</ele><time>2026-05-02T12:08:20.406Z</time></trkpt><trkpt lat="54.058484" lon="-1.3899318"><ele>55.0</ele><time>2026-05-02T12:08:21.412Z</time></trkpt><trkpt lat="54.0587596" lon="-1.3899921"><ele>55.0</ele><time>2026-05-02T12:08:22.407Z</time></trkpt><trkpt lat="54.0590352" lon="-1.390052"><ele>55.0</ele><time>2026-05-02T12:08:23.405Z</time></trkpt><trkpt lat="54.0593132" lon="-1.3901079"><ele>56.0</ele><time>2026-05-02T12:08:24.406Z</time></trkpt><trkpt lat="54.0595927" lon="-1.3901657"><ele>57.0</ele><time>2026-05-02T12:08:25.405Z</time></trkpt><trkpt lat="54.059873" lon="-1.390232"><ele>57.5</ele><time>2026-05-02T12:08:26.408Z</time></trkpt><trkpt lat="54.0601516" lon="-1.3903017"><ele>58.0</ele><time>2026-05-02T12:08:27.407Z</time></trkpt><trkpt lat="54.0604283" lon="-1.3903705"><ele>58.0</ele><time>2026-05-02T12:08:28.406Z</time></trkpt><trkpt lat="54.0607045" lon="-1.3904349"><ele>58.0</ele><time>2026-05-02T12:08:29.403Z</time></trkpt><trkpt lat="54.0609817" lon="-1.3904962"><ele>58.5</ele><time>2026-05-02T12:08:30.407Z</time></trkpt><trkpt lat="54.061257" lon="-1.390556"><ele>59.0</ele><time>2026-05-02T12:08:31.407Z</time></trkpt><trkpt lat="54.0615323" lon="-1.3906127"><ele>59.5</ele><time>2026-05-02T12:08:32.403Z</time></trkpt><trkpt lat="54.0618089" lon="-1.390674"><ele>60.0</ele><time>2026-05-02T12:08:33.406Z</time></trkpt><trkpt lat="54.0620852" lon="-1.3907333"><ele>60.0</ele><time>2026-05-02T12:08:34.405Z</time></trkpt><trkpt lat="54.062362" lon="-1.3907931"><ele>60.0</ele><time>2026-05-02T12:08:35.406Z</time></trkpt><trkpt lat="54.0626383" lon="-1.3908541"><ele>60.0</ele><time>2026-05-02T12:08:36.405Z</time></trkpt><trkpt lat="54.0629155" lon="-1.3909157"><ele>60.0</ele><time>2026-05-02T12:08:37.404Z</time></trkpt><trkpt lat="54.0631919" lon="-1.3909761"><ele>59.5</ele><time>2026-05-02T12:08:38.402Z</time></trkpt><trkpt lat="54.0634672" lon="-1.3910373"><ele>59.0</ele><time>2026-05-02T12:08:39.403Z</time></trkpt><trkpt lat="54.0637406" lon="-1.3910976"><ele>59.0</ele><time>2026-05-02T12:08:40.403Z</time></trkpt><trkpt lat="54.0640173" lon="-1.3911575"><ele>59.0</ele><time>2026-05-02T12:08:41.403Z</time></trkpt><trkpt lat="54.0642964" lon="-1.3912163"><ele>58.5</ele><time>2026-05-02T12:08:42.403Z</time></trkpt><trkpt lat="54.0645762" lon="-1.3912716"><ele>58.0</ele><time>2026-05-02T12:08:43.407Z</time></trkpt><trkpt lat="54.0648556" lon="-1.3913343"><ele>58.0</ele><time>2026-05-02T12:08:44.404Z</time></trkpt><trkpt lat="54.065133" lon="-1.3913991"><ele>58.0</ele><time>2026-05-02T12:08:45.406Z</time></trkpt><trkpt lat="54.0654083" lon="-1.3914675"><ele>58.0</ele><time>2026-05-02T12:08:46.406Z</time></trkpt><trkpt lat="54.0656834" lon="-1.3915358"><ele>58.0</ele><time>2026-05-02T12:08:47.405Z</time></trkpt><trkpt lat="54.0659586" lon="-1.3915985"><ele>56.5</ele><time>2026-05-02T12:08:48.405Z</time></trkpt><trkpt lat="54.0662352" lon="-1.3916615"><ele>55.0</ele><time>2026-05-02T12:08:49.406Z</time></trkpt><trkpt lat="54.0665116" lon="-1.3917224"><ele>55.0</ele><time>2026-05-02T12:08:50.407Z</time></trkpt><trkpt lat="54.0667893" lon="-1.3917827"><ele>55.0</ele><time>2026-05-02T12:08:51.405Z</time></trkpt><trkpt lat="54.0670677" lon="-1.3918429"><ele>55.0</ele><time>2026-05-02T12:08:52.406Z</time></trkpt><trkpt lat="54.0673463" lon="-1.3919041"><ele>55.0</ele><time>2026-05-02T12:08:53.405Z</time></trkpt><trkpt lat="54.067625" lon="-1.3919668"><ele>55.0</ele><time>2026-05-02T12:08:54.405Z</time></trkpt><trkpt lat="54.067901" lon="-1.3920311"><ele>55.0</ele><time>2026-05-02T12:08:55.404Z</time></trkpt><trkpt lat="54.0681774" lon="-1.3920947"><ele>54.5</ele><time>2026-05-02T12:08:56.406Z</time></trkpt><trkpt lat="54.0684512" lon="-1.392158"><ele>54.0</ele><time>2026-05-02T12:08:57.406Z</time></trkpt><trkpt lat="54.0687283" lon="-1.3922156"><ele>52.5</ele><time>2026-05-02T12:08:58.406Z</time></trkpt><trkpt lat="54.0690062" lon="-1.3922702"><ele>51.0</ele><time>2026-05-02T12:08:59.402Z</time></trkpt><trkpt lat="54.0692835" lon="-1.3923308"><ele>50.5</ele><time>2026-05-02T12:09:00.407Z</time></trkpt><trkpt lat="54.0695601" lon="-1.3923946"><ele>50.0</ele><time>2026-05-02T12:09:01.405Z</time></trkpt><trkpt lat="54.069837" lon="-1.3924629"><ele>49.5</ele><time>2026-05-02T12:09:02.406Z</time></trkpt><trkpt lat="54.0701147" lon="-1.3925312"><ele>49.0</ele><time>2026-05-02T12:09:03.403Z</time></trkpt><trkpt lat="54.0703936" lon="-1.3925961"><ele>49.0</ele><time>2026-05-02T12:09:04.402Z</time></trkpt><trkpt lat="54.0706706" lon="-1.3926635"><ele>49.0</ele><time>2026-05-02T12:09:05.402Z</time></trkpt><trkpt lat="54.0709455" lon="-1.3927267"><ele>49.0</ele><time>2026-05-02T12:09:06.403Z</time></trkpt><trkpt lat="54.0712195" lon="-1.3927877"><ele>49.0</ele><time>2026-05-02T12:09:07.402Z</time></trkpt><trkpt lat="54.0714932" lon="-1.3928514"><ele>48.5</ele><time>2026-05-02T12:09:08.404Z</time></trkpt><trkpt lat="54.0717669" lon="-1.3929192"><ele>48.0</ele><time>2026-05-02T12:09:09.402Z</time></trkpt><trkpt lat="54.0720394" lon="-1.3929912"><ele>48.0</ele><time>2026-05-02T12:09:10.408Z</time></trkpt><trkpt lat="54.0723109" lon="-1.3930722"><ele>48.0</ele><time>2026-05-02T12:09:11.406Z</time></trkpt><trkpt lat="54.0725822" lon="-1.3931595"><ele>48.0</ele><time>2026-05-02T12:09:12.405Z</time></trkpt><trkpt lat="54.0728565" lon="-1.3932466"><ele>48.0</ele><time>2026-05-02T12:09:13.406Z</time></trkpt><trkpt lat="54.0731305" lon="-1.3933383"><ele>48.5</ele><time>2026-05-02T12:09:14.408Z</time></trkpt><trkpt lat="54.0734025" lon="-1.3934345"><ele>49.0</ele><time>2026-05-02T12:09:15.407Z</time></trkpt><trkpt lat="54.0736754" lon="-1.3935311"><ele>49.0</ele><time>2026-05-02T12:09:16.405Z</time></trkpt><trkpt lat="54.0739517" lon="-1.3936283"><ele>49.0</ele><time>2026-05-02T12:09:17.407Z</time></trkpt><trkpt lat="54.0742266" lon="-1.3937282"><ele>49.5</ele><time>2026-05-02T12:09:18.405Z</time></trkpt><trkpt lat="54.074502" lon="-1.3938263"><ele>50.0</ele><time>2026-05-02T12:09:19.406Z</time></trkpt><trkpt lat="54.0747779" lon="-1.393929"><ele>49.5</ele><time>2026-05-02T12:09:20.407Z</time></trkpt><trkpt lat="54.0750529" lon="-1.3940346"><ele>49.0</ele><time>2026-05-02T12:09:21.406Z</time></trkpt><trkpt lat="54.0753261" lon="-1.3941452"><ele>49.0</ele><time>2026-05-02T12:09:22.402Z</time></trkpt><trkpt lat="54.0755952" lon="-1.3942607"><ele>49.0</ele><time>2026-05-02T12:09:23.406Z</time></trkpt><trkpt lat="54.0758669" lon="-1.3943836"><ele>48.0</ele><time>2026-05-02T12:09:24.406Z</time></trkpt><trkpt lat="54.0761399" lon="-1.394506"><ele>47.0</ele><time>2026-05-02T12:09:25.407Z</time></trkpt><trkpt lat="54.0764131" lon="-1.3946279"><ele>44.5</ele><time>2026-05-02T12:09:26.407Z</time></trkpt><trkpt lat="54.0766849" lon="-1.3947508"><ele>42.0</ele><time>2026-05-02T12:09:27.405Z</time></trkpt><trkpt lat="54.0769535" lon="-1.3948771"><ele>42.0</ele><time>2026-05-02T12:09:28.405Z</time></trkpt><trkpt lat="54.0772212" lon="-1.3950045"><ele>42.0</ele><time>2026-05-02T12:09:29.406Z</time></trkpt><trkpt lat="54.0774884" lon="-1.3951352"><ele>40.5</ele><time>2026-05-02T12:09:30.406Z</time></trkpt><trkpt lat="54.0777577" lon="-1.3952714"><ele>39.0</ele><time>2026-05-02T12:09:31.405Z</time></trkpt><trkpt lat="54.078024" lon="-1.3954105"><ele>36.5</ele><time>2026-05-02T12:09:32.407Z</time></trkpt><trkpt lat="54.0782886" lon="-1.3955521"><ele>34.0</ele><time>2026-05-02T12:09:33.407Z</time></trkpt><trkpt lat="54.0785534" lon="-1.3956951"><ele>34.0</ele><time>2026-05-02T12:09:34.403Z</time></trkpt><trkpt lat="54.0788187" lon="-1.3958385"><ele>34.0</ele><time>2026-05-02T12:09:35.404Z</time></trkpt><trkpt lat="54.079086" lon="-1.3959819"><ele>33.5</ele><time>2026-05-02T12:09:36.403Z</time></trkpt><trkpt lat="54.0793513" lon="-1.3961309"><ele>33.0</ele><time>2026-05-02T12:09:37.402Z</time></trkpt><trkpt lat="54.0796166" lon="-1.396282"><ele>32.5</ele><time>2026-05-02T12:09:38.403Z</time></trkpt><trkpt lat="54.0798827" lon="-1.3964359"><ele>32.0</ele><time>2026-05-02T12:09:39.403Z</time></trkpt><trkpt lat="54.0801476" lon="-1.3965927"><ele>31.0</ele><time>2026-05-02T12:09:40.403Z</time></trkpt><trkpt lat="54.0804129" lon="-1.396751"><ele>30.0</ele><time>2026-05-02T12:09:41.406Z</time></trkpt><trkpt lat="54.1003711" lon="-1.4126557"><ele>26.5</ele><time>2026-05-02T12:11:00.405Z</time></trkpt><trkpt lat="54.1006314" lon="-1.4128259"><ele>23.0</ele><time>2026-05-02T12:11:01.407Z</time></trkpt><trkpt lat="54.1011528" lon="-1.4131567"><ele>23.0</ele><time>2026-05-02T12:11:03.407Z</time></trkpt><trkpt lat="54.1014199" lon="-1.4133105"><ele>23.0</ele><time>2026-05-02T12:11:04.406Z</time></trkpt><trkpt lat="54.1016876" lon="-1.4134521"><ele>25.0</ele><time>2026-05-02T12:11:05.407Z</time></trkpt><trkpt lat="54.1019569" lon="-1.4135916"><ele>27.0</ele><time>2026-05-02T12:11:06.406Z</time></trkpt><trkpt lat="54.1022252" lon="-1.4137251"><ele>27.5</ele><time>2026-05-02T12:11:07.406Z</time></trkpt><trkpt lat="54.1024924" lon="-1.4138555"><ele>28.0</ele><time>2026-05-02T12:11:08.407Z</time></trkpt><trkpt lat="54.1027621" lon="-1.4139766"><ele>28.0</ele><time>2026-05-02T12:11:09.406Z</time></trkpt><trkpt lat="54.1030312" lon="-1.4140854"><ele>28.0</ele><time>2026-05-02T12:11:10.406Z</time></trkpt><trkpt lat="54.1033019" lon="-1.414192"><ele>29.0</ele><time>2026-05-02T12:11:11.406Z</time></trkpt><trkpt lat="54.1035722" lon="-1.414292"><ele>30.0</ele><time>2026-05-02T12:11:12.405Z</time></trkpt><trkpt lat="54.1038409" lon="-1.4143913"><ele>31.0</ele><time>2026-05-02T12:11:13.406Z</time></trkpt><trkpt lat="54.1041123" lon="-1.4144835"><ele>32.0</ele><time>2026-05-02T12:11:14.407Z</time></trkpt><trkpt lat="54.1043849" lon="-1.4145698"><ele>32.0</ele><time>2026-05-02T12:11:15.406Z</time></trkpt><trkpt lat="54.1046614" lon="-1.4146454"><ele>32.0</ele><time>2026-05-02T12:11:16.407Z</time></trkpt><trkpt lat="54.1049398" lon="-1.4147158"><ele>32.0</ele><time>2026-05-02T12:11:17.402Z</time></trkpt><trkpt lat="54.1052171" lon="-1.4147821"><ele>32.0</ele><time>2026-05-02T12:11:18.407Z</time></trkpt><trkpt lat="54.1054935" lon="-1.4148415"><ele>34.0</ele><time>2026-05-02T12:11:19.406Z</time></trkpt><trkpt lat="54.1057703" lon="-1.4148932"><ele>36.0</ele><time>2026-05-02T12:11:20.407Z</time></trkpt><trkpt lat="54.1060477" lon="-1.4149419"><ele>36.0</ele><time>2026-05-02T12:11:21.402Z</time></trkpt><trkpt lat="54.1063265" lon="-1.4149837"><ele>36.0</ele><time>2026-05-02T12:11:22.403Z</time></trkpt><trkpt lat="54.1066071" lon="-1.4150186"><ele>37.0</ele><time>2026-05-02T12:11:23.402Z</time></trkpt><trkpt lat="54.1068886" lon="-1.4150494"><ele>38.0</ele><time>2026-05-02T12:11:24.402Z</time></trkpt><trkpt lat="54.1071696" lon="-1.4150728"><ele>38.0</ele><time>2026-05-02T12:11:25.407Z</time></trkpt><trkpt lat="54.1074492" lon="-1.4150913"><ele>38.0</ele><time>2026-05-02T12:11:26.403Z</time></trkpt><trkpt lat="54.1077287" lon="-1.4151025"><ele>38.0</ele><time>2026-05-02T12:11:27.405Z</time></trkpt><trkpt lat="54.1080095" lon="-1.4151082"><ele>38.0</ele><time>2026-05-02T12:11:28.404Z</time></trkpt><trkpt lat="54.10829" lon="-1.4151143"><ele>37.5</ele><time>2026-05-02T12:11:29.406Z</time></trkpt><trkpt lat="54.1085685" lon="-1.4151149"><ele>37.0</ele><time>2026-05-02T12:11:30.406Z</time></trkpt><trkpt lat="54.1088468" lon="-1.4151047"><ele>38.5</ele><time>2026-05-02T12:11:31.403Z</time></trkpt><trkpt lat="54.109128" lon="-1.4150834"><ele>40.0</ele><time>2026-05-02T12:11:32.408Z</time></trkpt><trkpt lat="54.109408" lon="-1.4150497"><ele>40.0</ele><time>2026-05-02T12:11:33.406Z</time></trkpt><trkpt lat="54.1096848" lon="-1.4150132"><ele>40.0</ele><time>2026-05-02T12:11:34.403Z</time></trkpt><trkpt lat="54.1099644" lon="-1.4149701"><ele>40.5</ele><time>2026-05-02T12:11:35.402Z</time></trkpt><trkpt lat="54.1102445" lon="-1.4149214"><ele>41.0</ele><time>2026-05-02T12:11:36.403Z</time></trkpt><trkpt lat="54.1105261" lon="-1.4148666"><ele>40.5</ele><time>2026-05-02T12:11:37.403Z</time></trkpt><trkpt lat="54.110808" lon="-1.4148088"><ele>40.0</ele><time>2026-05-02T12:11:38.403Z</time></trkpt><trkpt lat="54.1110893" lon="-1.4147525"><ele>40.0</ele><time>2026-05-02T12:11:39.402Z</time></trkpt><trkpt lat="54.1113684" lon="-1.414693"><ele>40.0</ele><time>2026-05-02T12:11:40.404Z</time></trkpt><trkpt lat="54.1116481" lon="-1.4146341"><ele>39.0</ele><time>2026-05-02T12:11:41.403Z</time></trkpt><trkpt lat="54.1119292" lon="-1.414579"><ele>38.0</ele><time>2026-05-02T12:11:42.403Z</time></trkpt><trkpt lat="54.1122084" lon="-1.4145216"><ele>38.0</ele><time>2026-05-02T12:11:43.407Z</time></trkpt><trkpt lat="54.1124854" lon="-1.4144671"><ele>38.0</ele><time>2026-05-02T12:11:44.406Z</time></trkpt><trkpt lat="54.1127633" lon="-1.414418"><ele>38.0</ele><time>2026-05-02T12:11:45.406Z</time></trkpt><trkpt lat="54.1130416" lon="-1.4143697"><ele>38.0</ele><time>2026-05-02T12:11:46.406Z</time></trkpt><trkpt lat="54.1133211" lon="-1.4143216"><ele>38.0</ele><time>2026-05-02T12:11:47.406Z</time></trkpt><trkpt lat="54.1135985" lon="-1.4142724"><ele>38.0</ele><time>2026-05-02T12:11:48.403Z</time></trkpt><trkpt lat="54.1138782" lon="-1.4142299"><ele>38.0</ele><time>2026-05-02T12:11:49.406Z</time></trkpt><trkpt lat="54.1141556" lon="-1.414181"><ele>38.0</ele><time>2026-05-02T12:11:50.407Z</time></trkpt><trkpt lat="54.114431" lon="-1.414126"><ele>38.0</ele><time>2026-05-02T12:11:51.408Z</time></trkpt><trkpt lat="54.1147071" lon="-1.4140674"><ele>38.0</ele><time>2026-05-02T12:11:52.407Z</time></trkpt><trkpt lat="54.1223331" lon="-1.4134655"><ele>39.0</ele><time>2026-05-02T12:12:22.403Z</time></trkpt><trkpt lat="54.1230515" lon="-1.4136307"><ele>38.0</ele><time>2026-05-02T12:12:25.403Z</time></trkpt><trkpt lat="54.1232903" lon="-1.4136951"><ele>37.0</ele><time>2026-05-02T12:12:26.403Z</time></trkpt><trkpt lat="54.1235284" lon="-1.413763"><ele>37.5</ele><time>2026-05-02T12:12:27.404Z</time></trkpt><trkpt lat="54.1237653" lon="-1.4138368"><ele>38.0</ele><time>2026-05-02T12:12:28.404Z</time></trkpt><trkpt lat="54.1240018" lon="-1.4139197"><ele>37.0</ele><time>2026-05-02T12:12:29.402Z</time></trkpt><trkpt lat="54.1242383" lon="-1.4140041"><ele>36.0</ele><time>2026-05-02T12:12:30.404Z</time></trkpt><trkpt lat="54.124477" lon="-1.4140938"><ele>36.0</ele><time>2026-05-02T12:12:31.403Z</time></trkpt><trkpt lat="54.1247228" lon="-1.4141917"><ele>36.0</ele><time>2026-05-02T12:12:32.404Z</time></trkpt><trkpt lat="54.1249708" lon="-1.4142989"><ele>35.5</ele><time>2026-05-02T12:12:33.402Z</time></trkpt><trkpt lat="54.1252277" lon="-1.4144129"><ele>35.0</ele><time>2026-05-02T12:12:34.403Z</time></trkpt><trkpt lat="54.1254894" lon="-1.414535"><ele>35.5</ele><time>2026-05-02T12:12:35.402Z</time></trkpt><trkpt lat="54.1257507" lon="-1.4146654"><ele>36.0</ele><time>2026-05-02T12:12:36.404Z</time></trkpt><trkpt lat="54.1260124" lon="-1.4148014"><ele>36.0</ele><time>2026-05-02T12:12:37.402Z</time></trkpt><trkpt lat="54.126276" lon="-1.4149477"><ele>36.0</ele><time>2026-05-02T12:12:38.404Z</time></trkpt><trkpt lat="54.1265408" lon="-1.4150988"><ele>36.0</ele><time>2026-05-02T12:12:39.404Z</time></trkpt><trkpt lat="54.1268088" lon="-1.4152485"><ele>36.0</ele><time>2026-05-02T12:12:40.404Z</time></trkpt><trkpt lat="54.1270778" lon="-1.415399"><ele>36.0</ele><time>2026-05-02T12:12:41.403Z</time></trkpt><trkpt lat="54.1273452" lon="-1.4155622"><ele>36.0</ele><time>2026-05-02T12:12:42.404Z</time></trkpt><trkpt lat="54.1276092" lon="-1.4157413"><ele>35.5</ele><time>2026-05-02T12:12:43.404Z</time></trkpt><trkpt lat="54.1278711" lon="-1.4159292"><ele>35.0</ele><time>2026-05-02T12:12:44.404Z</time></trkpt><trkpt lat="54.1281311" lon="-1.4161199"><ele>35.0</ele><time>2026-05-02T12:12:45.407Z</time></trkpt><trkpt lat="54.1283884" lon="-1.4163095"><ele>35.0</ele><time>2026-05-02T12:12:46.403Z</time></trkpt><trkpt lat="54.1286438" lon="-1.4165026"><ele>35.5</ele><time>2026-05-02T12:12:47.404Z</time></trkpt><trkpt lat="54.1288958" lon="-1.416705"><ele>36.0</ele><time>2026-05-02T12:12:48.404Z</time></trkpt><trkpt lat="54.1291458" lon="-1.4169159"><ele>36.0</ele><time>2026-05-02T12:12:49.404Z</time></trkpt><trkpt lat="54.1293926" lon="-1.4171394"><ele>36.0</ele><time>2026-05-02T12:12:50.402Z</time></trkpt><trkpt lat="54.1296362" lon="-1.4173757"><ele>36.0</ele><time>2026-05-02T12:12:51.403Z</time></trkpt><trkpt lat="54.1298779" lon="-1.4176141"><ele>36.0</ele><time>2026-05-02T12:12:52.403Z</time></trkpt><trkpt lat="54.1301193" lon="-1.4178544"><ele>35.5</ele><time>2026-05-02T12:12:53.404Z</time></trkpt><trkpt lat="54.1303593" lon="-1.4180964"><ele>35.0</ele><time>2026-05-02T12:12:54.404Z</time></trkpt><trkpt lat="54.1306002" lon="-1.4183435"><ele>34.5</ele><time>2026-05-02T12:12:55.406Z</time></trkpt><trkpt lat="54.1308361" lon="-1.4185968"><ele>34.0</ele><time>2026-05-02T12:12:56.409Z</time></trkpt><trkpt lat="54.1310718" lon="-1.418852"><ele>34.0</ele><time>2026-05-02T12:12:57.405Z</time></trkpt><trkpt lat="54.1313073" lon="-1.419104"><ele>34.0</ele><time>2026-05-02T12:12:58.405Z</time></trkpt><trkpt lat="54.1315449" lon="-1.4193569"><ele>34.0</ele><time>2026-05-02T12:12:59.406Z</time></trkpt><trkpt lat="54.1317829" lon="-1.4196117"><ele>34.0</ele><time>2026-05-02T12:13:00.405Z</time></trkpt><trkpt lat="54.1320208" lon="-1.4198702"><ele>34.5</ele><time>2026-05-02T12:13:01.405Z</time></trkpt><trkpt lat="54.1322579" lon="-1.4201281"><ele>35.0</ele><time>2026-05-02T12:13:02.408Z</time></trkpt><trkpt lat="54.1324962" lon="-1.4203817"><ele>35.5</ele><time>2026-05-02T12:13:03.405Z</time></trkpt><trkpt lat="54.1327362" lon="-1.4206369"><ele>36.0</ele><time>2026-05-02T12:13:04.405Z</time></trkpt><trkpt lat="54.1329742" lon="-1.4208937"><ele>36.0</ele><time>2026-05-02T12:13:05.407Z</time></trkpt><trkpt lat="54.1332112" lon="-1.4211505"><ele>36.0</ele><time>2026-05-02T12:13:06.405Z</time></trkpt><trkpt lat="54.133448" lon="-1.4214095"><ele>36.0</ele><time>2026-05-02T12:13:07.407Z</time></trkpt><trkpt lat="54.1336872" lon="-1.4216647"><ele>36.0</ele><time>2026-05-02T12:13:08.408Z</time></trkpt><trkpt lat="54.1339264" lon="-1.4219166"><ele>36.0</ele><time>2026-05-02T12:13:09.406Z</time></trkpt><trkpt lat="54.1341663" lon="-1.4221659"><ele>36.0</ele><time>2026-05-02T12:13:10.405Z</time></trkpt><trkpt lat="54.134405" lon="-1.4224145"><ele>36.0</ele><time>2026-05-02T12:13:11.407Z</time></trkpt><trkpt lat="54.134643" lon="-1.4226646"><ele>36.0</ele><time>2026-05-02T12:13:12.406Z</time></trkpt><trkpt lat="54.1348814" lon="-1.4229159"><ele>35.0</ele><time>2026-05-02T12:13:13.405Z</time></trkpt><trkpt lat="54.13512" lon="-1.4231704"><ele>34.0</ele><time>2026-05-02T12:13:14.407Z</time></trkpt><trkpt lat="54.1353575" lon="-1.4234254"><ele>34.0</ele><time>2026-05-02T12:13:15.405Z</time></trkpt><trkpt lat="54.1355962" lon="-1.4236742"><ele>34.0</ele><time>2026-05-02T12:13:16.406Z</time></trkpt><trkpt lat="54.1358352" lon="-1.4239242"><ele>34.5</ele><time>2026-05-02T12:13:17.406Z</time></trkpt><trkpt lat="54.1360719" lon="-1.4241745"><ele>35.0</ele><time>2026-05-02T12:13:18.403Z</time></trkpt><trkpt lat="54.1363103" lon="-1.424429"><ele>35.0</ele><time>2026-05-02T12:13:19.403Z</time></trkpt><trkpt lat="54.136548" lon="-1.4246857"><ele>35.0</ele><time>2026-05-02T12:13:20.404Z</time></trkpt><trkpt lat="54.1367848" lon="-1.4249399"><ele>35.5</ele><time>2026-05-02T12:13:21.406Z</time></trkpt><trkpt lat="54.1370208" lon="-1.4251917"><ele>36.0</ele><time>2026-05-02T12:13:22.406Z</time></trkpt><trkpt lat="54.1372591" lon="-1.425445"><ele>37.0</ele><time>2026-05-02T12:13:23.407Z</time></trkpt><trkpt lat="54.1374994" lon="-1.4256897"><ele>38.0</ele><time>2026-05-02T12:13:24.406Z</time></trkpt><trkpt lat="54.13774" lon="-1.4259286"><ele>38.0</ele><time>2026-05-02T12:13:25.406Z</time></trkpt><trkpt lat="54.1379806" lon="-1.4261625"><ele>38.0</ele><time>2026-05-02T12:13:26.409Z</time></trkpt><trkpt lat="54.1382233" lon="-1.4263972"><ele>37.5</ele><time>2026-05-02T12:13:27.407Z</time></trkpt><trkpt lat="54.1384664" lon="-1.4266319"><ele>37.0</ele><time>2026-05-02T12:13:28.405Z</time></trkpt><trkpt lat="54.1387112" lon="-1.426866"><ele>37.0</ele><time>2026-05-02T12:13:29.407Z</time></trkpt><trkpt lat="54.1389549" lon="-1.4270971"><ele>37.0</ele><time>2026-05-02T12:13:30.407Z</time></trkpt><trkpt lat="54.1392012" lon="-1.4273243"><ele>37.5</ele><time>2026-05-02T12:13:31.406Z</time></trkpt><trkpt lat="54.1394468" lon="-1.42755"><ele>38.0</ele><time>2026-05-02T12:13:32.407Z</time></trkpt><trkpt lat="54.139694" lon="-1.4277711"><ele>38.0</ele><time>2026-05-02T12:13:33.405Z</time></trkpt><trkpt lat="54.1399414" lon="-1.4279895"><ele>38.0</ele><time>2026-05-02T12:13:34.407Z</time></trkpt><trkpt lat="54.1401885" lon="-1.428208"><ele>38.0</ele><time>2026-05-02T12:13:35.407Z</time></trkpt><trkpt lat="54.1404388" lon="-1.4284198"><ele>38.0</ele><time>2026-05-02T12:13:36.406Z</time></trkpt><trkpt lat="54.1406961" lon="-1.4286255"><ele>38.0</ele><time>2026-05-02T12:13:37.407Z</time></trkpt><trkpt lat="54.1409559" lon="-1.4288286"><ele>38.0</ele><time>2026-05-02T12:13:38.408Z</time></trkpt><trkpt lat="54.1412135" lon="-1.4290285"><ele>38.0</ele><time>2026-05-02T12:13:39.404Z</time></trkpt><trkpt lat="54.1414658" lon="-1.4292295"><ele>38.0</ele><time>2026-05-02T12:13:40.406Z</time></trkpt><trkpt lat="54.1417169" lon="-1.4294286"><ele>38.0</ele><time>2026-05-02T12:13:41.407Z</time></trkpt><trkpt lat="54.1419706" lon="-1.429624"><ele>38.0</ele><time>2026-05-02T12:13:42.406Z</time></trkpt><trkpt lat="54.142228" lon="-1.429819"><ele>39.5</ele><time>2026-05-02T12:13:43.406Z</time></trkpt><trkpt lat="54.1424855" lon="-1.4300098"><ele>41.0</ele><time>2026-05-02T12:13:44.407Z</time></trkpt><trkpt lat="54.142746" lon="-1.4301962"><ele>41.0</ele><time>2026-05-02T12:13:45.406Z</time></trkpt><trkpt lat="54.1430066" lon="-1.4303783"><ele>41.0</ele><time>2026-05-02T12:13:46.407Z</time></trkpt><trkpt lat="54.1432642" lon="-1.4305598"><ele>41.0</ele><time>2026-05-02T12:13:47.407Z</time></trkpt><trkpt lat="54.1435256" lon="-1.4307361"><ele>41.0</ele><time>2026-05-02T12:13:48.406Z</time></trkpt><trkpt lat="54.1437891" lon="-1.4309052"><ele>40.5</ele><time>2026-05-02T12:13:49.406Z</time></trkpt><trkpt lat="54.1440514" lon="-1.4310705"><ele>40.0</ele><time>2026-05-02T12:13:50.408Z</time></trkpt><trkpt lat="54.144313" lon="-1.4312392"><ele>40.5</ele><time>2026-05-02T12:13:51.406Z</time></trkpt><trkpt lat="54.1445725" lon="-1.431406"><ele>41.0</ele><time>2026-05-02T12:13:52.406Z</time></trkpt><trkpt lat="54.1448332" lon="-1.431572"><ele>41.0</ele><time>2026-05-02T12:13:53.407Z</time></trkpt><trkpt lat="54.1450946" lon="-1.4317397"><ele>41.0</ele><time>2026-05-02T12:13:54.407Z</time></trkpt><trkpt lat="54.1453567" lon="-1.4319057"><ele>41.0</ele><time>2026-05-02T12:13:55.407Z</time></trkpt><trkpt lat="54.1456215" lon="-1.4320704"><ele>41.0</ele><time>2026-05-02T12:13:56.408Z</time></trkpt><trkpt lat="54.1458849" lon="-1.4322458"><ele>41.5</ele><time>2026-05-02T12:13:57.406Z</time></trkpt><trkpt lat="54.1461438" lon="-1.4324348"><ele>42.0</ele><time>2026-05-02T12:13:58.407Z</time></trkpt><trkpt lat="54.1463978" lon="-1.4326356"><ele>43.0</ele><time>2026-05-02T12:13:59.406Z</time></trkpt><trkpt lat="54.1466517" lon="-1.4328335"><ele>44.0</ele><time>2026-05-02T12:14:00.406Z</time></trkpt><trkpt lat="54.1469051" lon="-1.433032"><ele>44.0</ele><time>2026-05-02T12:14:01.405Z</time></trkpt><trkpt lat="54.1471596" lon="-1.4332372"><ele>44.0</ele><time>2026-05-02T12:14:02.407Z</time></trkpt><trkpt lat="54.1474119" lon="-1.4334484"><ele>43.5</ele><time>2026-05-02T12:14:03.405Z</time></trkpt><trkpt lat="54.1476644" lon="-1.4336641"><ele>43.0</ele><time>2026-05-02T12:14:04.405Z</time></trkpt><trkpt lat="54.1479162" lon="-1.4338832"><ele>44.0</ele><time>2026-05-02T12:14:05.407Z</time></trkpt><trkpt lat="54.1481662" lon="-1.4341086"><ele>45.0</ele><time>2026-05-02T12:14:06.406Z</time></trkpt><trkpt lat="54.1484107" lon="-1.4343405"><ele>45.0</ele><time>2026-05-02T12:14:07.406Z</time></trkpt><trkpt lat="54.1486536" lon="-1.4345763"><ele>45.0</ele><time>2026-05-02T12:14:08.409Z</time></trkpt><trkpt lat="54.1488939" lon="-1.4348151"><ele>45.0</ele><time>2026-05-02T12:14:09.405Z</time></trkpt><trkpt lat="54.1491311" lon="-1.4350615"><ele>45.0</ele><time>2026-05-02T12:14:10.407Z</time></trkpt><trkpt lat="54.1493675" lon="-1.4353136"><ele>44.5</ele><time>2026-05-02T12:14:11.407Z</time></trkpt><trkpt lat="54.149603" lon="-1.4355674"><ele>44.0</ele><time>2026-05-02T12:14:12.407Z</time></trkpt><trkpt lat="54.1498402" lon="-1.4358276"><ele>43.5</ele><time>2026-05-02T12:14:13.407Z</time></trkpt><trkpt lat="54.1500762" lon="-1.4360933"><ele>43.0</ele><time>2026-05-02T12:14:14.407Z</time></trkpt><trkpt lat="54.1503158" lon="-1.436364"><ele>43.0</ele><time>2026-05-02T12:14:15.406Z</time></trkpt><trkpt lat="54.1505616" lon="-1.4366386"><ele>43.0</ele><time>2026-05-02T12:14:16.405Z</time></trkpt><trkpt lat="54.1508117" lon="-1.4369158"><ele>43.5</ele><time>2026-05-02T12:14:17.405Z</time></trkpt><trkpt lat="54.1510657" lon="-1.4371931"><ele>44.0</ele><time>2026-05-02T12:14:18.405Z</time></trkpt><trkpt lat="54.1513211" lon="-1.4374752"><ele>43.5</ele><time>2026-05-02T12:14:19.406Z</time></trkpt><trkpt lat="54.1515769" lon="-1.4377579"><ele>43.0</ele><time>2026-05-02T12:14:20.407Z</time></trkpt><trkpt lat="54.1518365" lon="-1.438035"><ele>43.0</ele><time>2026-05-02T12:14:21.406Z</time></trkpt><trkpt lat="54.1520986" lon="-1.4383137"><ele>43.0</ele><time>2026-05-02T12:14:22.408Z</time></trkpt><trkpt lat="54.1523622" lon="-1.4385865"><ele>42.5</ele><time>2026-05-02T12:14:23.406Z</time></trkpt><trkpt lat="54.1526258" lon="-1.4388569"><ele>42.0</ele><time>2026-05-02T12:14:24.406Z</time></trkpt><trkpt lat="54.1528924" lon="-1.4391181"><ele>42.0</ele><time>2026-05-02T12:14:25.406Z</time></trkpt><trkpt lat="54.1531611" lon="-1.4393751"><ele>42.0</ele><time>2026-05-02T12:14:26.406Z</time></trkpt><trkpt lat="54.1534333" lon="-1.4396294"><ele>42.5</ele><time>2026-05-02T12:14:27.406Z</time></trkpt><trkpt lat="54.1537071" lon="-1.4398762"><ele>43.0</ele><time>2026-05-02T12:14:28.403Z</time></trkpt><trkpt lat="54.1539814" lon="-1.4401172"><ele>42.5</ele><time>2026-05-02T12:14:29.402Z</time></trkpt><trkpt lat="54.1542531" lon="-1.4403554"><ele>42.0</ele><time>2026-05-02T12:14:30.404Z</time></trkpt><trkpt lat="54.1545262" lon="-1.4405951"><ele>42.0</ele><time>2026-05-02T12:14:31.404Z</time></trkpt><trkpt lat="54.1548018" lon="-1.440835"><ele>42.0</ele><time>2026-05-02T12:14:32.402Z</time></trkpt><trkpt lat="54.1550807" lon="-1.4410786"><ele>42.0</ele><time>2026-05-02T12:14:33.404Z</time></trkpt><trkpt lat="54.155363" lon="-1.4413231"><ele>42.0</ele><time>2026-05-02T12:14:34.402Z</time></trkpt><trkpt lat="54.1556499" lon="-1.4415655"><ele>42.0</ele><time>2026-05-02T12:14:35.403Z</time></trkpt><trkpt lat="54.155936" lon="-1.44181"><ele>42.0</ele><time>2026-05-02T12:14:36.403Z</time></trkpt><trkpt lat="54.1562187" lon="-1.4420533"><ele>42.0</ele><time>2026-05-02T12:14:37.402Z</time></trkpt><trkpt lat="54.1564988" lon="-1.4422947"><ele>42.0</ele><time>2026-05-02T12:14:38.404Z</time></trkpt><trkpt lat="54.156778" lon="-1.4425322"><ele>42.5</ele><time>2026-05-02T12:14:39.405Z</time></trkpt><trkpt lat="54.1570546" lon="-1.4427672"><ele>43.0</ele><time>2026-05-02T12:14:40.403Z</time></trkpt><trkpt lat="54.1573281" lon="-1.4429966"><ele>43.5</ele><time>2026-05-02T12:14:41.404Z</time></trkpt><trkpt lat="54.1575988" lon="-1.4432204"><ele>44.0</ele><time>2026-05-02T12:14:42.404Z</time></trkpt><trkpt lat="54.1578682" lon="-1.4434462"><ele>44.0</ele><time>2026-05-02T12:14:43.405Z</time></trkpt><trkpt lat="54.1581365" lon="-1.4436725"><ele>44.0</ele><time>2026-05-02T12:14:44.404Z</time></trkpt><trkpt lat="54.1584072" lon="-1.4439003"><ele>44.0</ele><time>2026-05-02T12:14:45.407Z</time></trkpt><trkpt lat="54.1586834" lon="-1.4441289"><ele>44.0</ele><time>2026-05-02T12:14:46.407Z</time></trkpt><trkpt lat="54.15896" lon="-1.4443603"><ele>44.0</ele><time>2026-05-02T12:14:47.406Z</time></trkpt><trkpt lat="54.1592358" lon="-1.4445985"><ele>44.0</ele><time>2026-05-02T12:14:48.406Z</time></trkpt><trkpt lat="54.1595118" lon="-1.4448407"><ele>44.5</ele><time>2026-05-02T12:14:49.407Z</time></trkpt><trkpt lat="54.1597888" lon="-1.4450818"><ele>45.0</ele><time>2026-05-02T12:14:50.406Z</time></trkpt><trkpt lat="54.1600673" lon="-1.4453114"><ele>45.5</ele><time>2026-05-02T12:14:51.405Z</time></trkpt><trkpt lat="54.1603434" lon="-1.4455285"><ele>46.0</ele><time>2026-05-02T12:14:52.405Z</time></trkpt><trkpt lat="54.1606184" lon="-1.4457383"><ele>47.5</ele><time>2026-05-02T12:14:53.406Z</time></trkpt><trkpt lat="54.1608919" lon="-1.4459426"><ele>49.0</ele><time>2026-05-02T12:14:54.406Z</time></trkpt><trkpt lat="54.1611636" lon="-1.4461483"><ele>49.5</ele><time>2026-05-02T12:14:55.406Z</time></trkpt><trkpt lat="54.1614349" lon="-1.4463557"><ele>50.0</ele><time>2026-05-02T12:14:56.406Z</time></trkpt><trkpt lat="54.1617079" lon="-1.4465602"><ele>50.5</ele><time>2026-05-02T12:14:57.406Z</time></trkpt><trkpt lat="54.1619831" lon="-1.446759"><ele>51.0</ele><time>2026-05-02T12:14:58.406Z</time></trkpt><trkpt lat="54.1622586" lon="-1.4469558"><ele>51.0</ele><time>2026-05-02T12:14:59.406Z</time></trkpt><trkpt lat="54.1625367" lon="-1.4471545"><ele>51.0</ele><time>2026-05-02T12:15:00.405Z</time></trkpt><trkpt lat="54.1628237" lon="-1.4473536"><ele>51.0</ele><time>2026-05-02T12:15:01.405Z</time></trkpt><trkpt lat="54.1631145" lon="-1.4475464"><ele>51.0</ele><time>2026-05-02T12:15:02.406Z</time></trkpt><trkpt lat="54.1634077" lon="-1.4477341"><ele>50.0</ele><time>2026-05-02T12:15:03.406Z</time></trkpt><trkpt lat="54.1637053" lon="-1.4479277"><ele>49.0</ele><time>2026-05-02T12:15:04.405Z</time></trkpt><trkpt lat="54.1640024" lon="-1.4481275"><ele>48.0</ele><time>2026-05-02T12:15:05.406Z</time></trkpt><trkpt lat="54.1642991" lon="-1.4483229"><ele>47.0</ele><time>2026-05-02T12:15:06.406Z</time></trkpt><trkpt lat="54.164593" lon="-1.448515"><ele>47.5</ele><time>2026-05-02T12:15:07.406Z</time></trkpt><trkpt lat="54.1648865" lon="-1.4487073"><ele>48.0</ele><time>2026-05-02T12:15:08.403Z</time></trkpt><trkpt lat="54.1651818" lon="-1.4488994"><ele>47.0</ele><time>2026-05-02T12:15:09.406Z</time></trkpt><trkpt lat="54.1654739" lon="-1.44909"><ele>46.0</ele><time>2026-05-02T12:15:10.407Z</time></trkpt><trkpt lat="54.1657595" lon="-1.4492786"><ele>46.0</ele><time>2026-05-02T12:15:11.406Z</time></trkpt><trkpt lat="54.1660369" lon="-1.4494679"><ele>46.0</ele><time>2026-05-02T12:15:12.408Z</time></trkpt><trkpt lat="54.1663054" lon="-1.4496516"><ele>46.0</ele><time>2026-05-02T12:15:13.406Z</time></trkpt><trkpt lat="54.1665711" lon="-1.449825"><ele>46.0</ele><time>2026-05-02T12:15:14.407Z</time></trkpt><trkpt lat="54.1668367" lon="-1.4499886"><ele>46.0</ele><time>2026-05-02T12:15:15.407Z</time></trkpt><trkpt lat="54.167103" lon="-1.4501461"><ele>46.0</ele><time>2026-05-02T12:15:16.406Z</time></trkpt><trkpt lat="54.1673695" lon="-1.4502954"><ele>46.5</ele><time>2026-05-02T12:15:17.406Z</time></trkpt><trkpt lat="54.1676385" lon="-1.4504398"><ele>47.0</ele><time>2026-05-02T12:15:18.403Z</time></trkpt><trkpt lat="54.1679133" lon="-1.4505831"><ele>46.0</ele><time>2026-05-02T12:15:19.402Z</time></trkpt><trkpt lat="54.1681964" lon="-1.450718"><ele>45.0</ele><time>2026-05-02T12:15:20.404Z</time></trkpt><trkpt lat="54.1684866" lon="-1.4508454"><ele>45.0</ele><time>2026-05-02T12:15:21.403Z</time></trkpt><trkpt lat="54.1687819" lon="-1.4509752"><ele>45.0</ele><time>2026-05-02T12:15:22.403Z</time></trkpt><trkpt lat="54.169086" lon="-1.4511059"><ele>44.5</ele><time>2026-05-02T12:15:23.402Z</time></trkpt><trkpt lat="54.1693991" lon="-1.4512323"><ele>44.0</ele><time>2026-05-02T12:15:24.402Z</time></trkpt><trkpt lat="54.1697194" lon="-1.4513599"><ele>44.0</ele><time>2026-05-02T12:15:25.403Z</time></trkpt><trkpt lat="54.1700449" lon="-1.451491"><ele>44.0</ele><time>2026-05-02T12:15:26.403Z</time></trkpt><trkpt lat="54.1703726" lon="-1.4516268"><ele>45.0</ele><time>2026-05-02T12:15:27.404Z</time></trkpt><trkpt lat="54.1706995" lon="-1.4517705"><ele>46.0</ele><time>2026-05-02T12:15:28.403Z</time></trkpt><trkpt lat="54.1710255" lon="-1.451919"><ele>46.0</ele><time>2026-05-02T12:15:29.406Z</time></trkpt><trkpt lat="54.1713433" lon="-1.4520727"><ele>46.0</ele><time>2026-05-02T12:15:30.407Z</time></trkpt><trkpt lat="54.1716465" lon="-1.4522106"><ele>47.5</ele><time>2026-05-02T12:15:31.407Z</time></trkpt><trkpt lat="54.1719388" lon="-1.4523317"><ele>49.0</ele><time>2026-05-02T12:15:32.407Z</time></trkpt><trkpt lat="54.1722273" lon="-1.4524591"><ele>49.0</ele><time>2026-05-02T12:15:33.406Z</time></trkpt><trkpt lat="54.1725097" lon="-1.4525951"><ele>49.0</ele><time>2026-05-02T12:15:34.407Z</time></trkpt><trkpt lat="54.1727847" lon="-1.4527378"><ele>49.0</ele><time>2026-05-02T12:15:35.406Z</time></trkpt><trkpt lat="54.1730528" lon="-1.4528833"><ele>49.0</ele><time>2026-05-02T12:15:36.406Z</time></trkpt><trkpt lat="54.1733215" lon="-1.4530306"><ele>50.0</ele><time>2026-05-02T12:15:37.406Z</time></trkpt><trkpt lat="54.1735918" lon="-1.453178"><ele>51.0</ele><time>2026-05-02T12:15:38.407Z</time></trkpt><trkpt lat="54.1738658" lon="-1.4533275"><ele>50.0</ele><time>2026-05-02T12:15:39.406Z</time></trkpt><trkpt lat="54.1741407" lon="-1.4534859"><ele>49.0</ele><time>2026-05-02T12:15:40.406Z</time></trkpt><trkpt lat="54.174417" lon="-1.4536494"><ele>49.0</ele><time>2026-05-02T12:15:41.406Z</time></trkpt><trkpt lat="54.1746928" lon="-1.4538181"><ele>49.0</ele><time>2026-05-02T12:15:42.406Z</time></trkpt><trkpt lat="54.1749693" lon="-1.4539935"><ele>48.0</ele><time>2026-05-02T12:15:43.406Z</time></trkpt><trkpt lat="54.1752488" lon="-1.4541693"><ele>47.0</ele><time>2026-05-02T12:15:44.406Z</time></trkpt><trkpt lat="54.1755292" lon="-1.4543473"><ele>47.0</ele><time>2026-05-02T12:15:45.406Z</time></trkpt><trkpt lat="54.175812" lon="-1.4545245"><ele>47.0</ele><time>2026-05-02T12:15:46.406Z</time></trkpt><trkpt lat="54.1760971" lon="-1.4547032"><ele>47.0</ele><time>2026-05-02T12:15:47.406Z</time></trkpt><trkpt lat="54.1763795" lon="-1.4548824"><ele>47.0</ele><time>2026-05-02T12:15:48.403Z</time></trkpt><trkpt lat="54.176663" lon="-1.4550648"><ele>47.5</ele><time>2026-05-02T12:15:49.403Z</time></trkpt><trkpt lat="54.176945" lon="-1.4552465"><ele>48.0</ele><time>2026-05-02T12:15:50.402Z</time></trkpt><trkpt lat="54.1772267" lon="-1.4554267"><ele>47.0</ele><time>2026-05-02T12:15:51.404Z</time></trkpt><trkpt lat="54.177508" lon="-1.4556078"><ele>46.0</ele><time>2026-05-02T12:15:52.403Z</time></trkpt><trkpt lat="54.1777872" lon="-1.455791"><ele>46.0</ele><time>2026-05-02T12:15:53.403Z</time></trkpt><trkpt lat="54.1780656" lon="-1.4559752"><ele>46.0</ele><time>2026-05-02T12:15:54.403Z</time></trkpt><trkpt lat="54.1783439" lon="-1.4561581"><ele>46.0</ele><time>2026-05-02T12:15:55.404Z</time></trkpt><trkpt lat="54.1786235" lon="-1.4563409"><ele>46.0</ele><time>2026-05-02T12:15:56.405Z</time></trkpt><trkpt lat="54.1789059" lon="-1.4565206"><ele>45.5</ele><time>2026-05-02T12:15:57.403Z</time></trkpt><trkpt lat="54.1791893" lon="-1.4566992"><ele>45.0</ele><time>2026-05-02T12:15:58.403Z</time></trkpt><trkpt lat="54.1794718" lon="-1.4568777"><ele>45.0</ele><time>2026-05-02T12:15:59.406Z</time></trkpt><trkpt lat="54.1797547" lon="-1.4570572"><ele>45.0</ele><time>2026-05-02T12:16:00.406Z</time></trkpt><trkpt lat="54.1800354" lon="-1.4572393"><ele>46.5</ele><time>2026-05-02T12:16:01.406Z</time></trkpt><trkpt lat="54.1803154" lon="-1.4574239"><ele>48.0</ele><time>2026-05-02T12:16:02.408Z</time></trkpt><trkpt lat="54.1805949" lon="-1.4576111"><ele>48.5</ele><time>2026-05-02T12:16:03.406Z</time></trkpt><trkpt lat="54.1808749" lon="-1.457805"><ele>49.0</ele><time>2026-05-02T12:16:04.407Z</time></trkpt><trkpt lat="54.181151" lon="-1.4580033"><ele>49.0</ele><time>2026-05-02T12:16:05.405Z</time></trkpt><trkpt lat="54.1814234" lon="-1.4582029"><ele>49.0</ele><time>2026-05-02T12:16:06.402Z</time></trkpt><trkpt lat="54.1816981" lon="-1.4583978"><ele>48.0</ele><time>2026-05-02T12:16:07.406Z</time></trkpt><trkpt lat="54.1819778" lon="-1.4585857"><ele>47.0</ele><time>2026-05-02T12:16:08.408Z</time></trkpt><trkpt lat="54.1822593" lon="-1.4587683"><ele>46.5</ele><time>2026-05-02T12:16:09.407Z</time></trkpt><trkpt lat="54.1825425" lon="-1.4589466"><ele>46.0</ele><time>2026-05-02T12:16:10.406Z</time></trkpt><trkpt lat="54.1828285" lon="-1.4591205"><ele>46.0</ele><time>2026-05-02T12:16:11.407Z</time></trkpt><trkpt lat="54.1831154" lon="-1.4592842"><ele>46.0</ele><time>2026-05-02T12:16:12.406Z</time></trkpt><trkpt lat="54.1834027" lon="-1.4594409"><ele>45.0</ele><time>2026-05-02T12:16:13.407Z</time></trkpt><trkpt lat="54.1836912" lon="-1.4595955"><ele>44.0</ele><time>2026-05-02T12:16:14.407Z</time></trkpt><trkpt lat="54.1839809" lon="-1.4597503"><ele>44.0</ele><time>2026-05-02T12:16:15.406Z</time></trkpt><trkpt lat="54.184271" lon="-1.4599029"><ele>44.0</ele><time>2026-05-02T12:16:16.408Z</time></trkpt><trkpt lat="54.1845611" lon="-1.4600573"><ele>43.0</ele><time>2026-05-02T12:16:17.406Z</time></trkpt><trkpt lat="54.1848496" lon="-1.4602149"><ele>42.0</ele><time>2026-05-02T12:16:18.402Z</time></trkpt><trkpt lat="54.1851381" lon="-1.4603771"><ele>42.5</ele><time>2026-05-02T12:16:19.403Z</time></trkpt><trkpt lat="54.1854251" lon="-1.4605421"><ele>43.0</ele><time>2026-05-02T12:16:20.403Z</time></trkpt><trkpt lat="54.1857089" lon="-1.4607109"><ele>43.0</ele><time>2026-05-02T12:16:21.402Z</time></trkpt><trkpt lat="54.1859921" lon="-1.4608825"><ele>43.0</ele><time>2026-05-02T12:16:22.403Z</time></trkpt><trkpt lat="54.1862748" lon="-1.4610592"><ele>42.5</ele><time>2026-05-02T12:16:23.403Z</time></trkpt><trkpt lat="54.1865568" lon="-1.4612387"><ele>42.0</ele><time>2026-05-02T12:16:24.402Z</time></trkpt><trkpt lat="54.1868397" lon="-1.4614188"><ele>41.5</ele><time>2026-05-02T12:16:25.405Z</time></trkpt><trkpt lat="54.1871226" lon="-1.4615988"><ele>41.0</ele><time>2026-05-02T12:16:26.403Z</time></trkpt><trkpt lat="54.1874074" lon="-1.4617755"><ele>40.0</ele><time>2026-05-02T12:16:27.403Z</time></trkpt><trkpt lat="54.1876915" lon="-1.4619474"><ele>39.0</ele><time>2026-05-02T12:16:28.402Z</time></trkpt><trkpt lat="54.187974" lon="-1.4621227"><ele>39.0</ele><time>2026-05-02T12:16:29.406Z</time></trkpt><trkpt lat="54.1882526" lon="-1.4623043"><ele>39.0</ele><time>2026-05-02T12:16:30.408Z</time></trkpt><trkpt lat="54.1885315" lon="-1.4624905"><ele>39.0</ele><time>2026-05-02T12:16:31.406Z</time></trkpt><trkpt lat="54.1888114" lon="-1.4626751"><ele>39.0</ele><time>2026-05-02T12:16:32.406Z</time></trkpt><trkpt lat="54.1890915" lon="-1.4628563"><ele>38.0</ele><time>2026-05-02T12:16:33.407Z</time></trkpt><trkpt lat="54.1893757" lon="-1.4630405"><ele>37.0</ele><time>2026-05-02T12:16:34.406Z</time></trkpt><trkpt lat="54.1896606" lon="-1.463223"><ele>36.5</ele><time>2026-05-02T12:16:35.407Z</time></trkpt><trkpt lat="54.1899457" lon="-1.4634039"><ele>36.0</ele><time>2026-05-02T12:16:36.409Z</time></trkpt><trkpt lat="54.1902277" lon="-1.4635859"><ele>36.0</ele><time>2026-05-02T12:16:37.407Z</time></trkpt><trkpt lat="54.1905111" lon="-1.4637691"><ele>36.0</ele><time>2026-05-02T12:16:38.407Z</time></trkpt><trkpt lat="54.1907932" lon="-1.4639537"><ele>36.0</ele><time>2026-05-02T12:16:39.406Z</time></trkpt><trkpt lat="54.1910732" lon="-1.4641407"><ele>36.0</ele><time>2026-05-02T12:16:40.406Z</time></trkpt><trkpt lat="54.1913529" lon="-1.4643276"><ele>35.5</ele><time>2026-05-02T12:16:41.406Z</time></trkpt><trkpt lat="54.1916325" lon="-1.4645105"><ele>35.0</ele><time>2026-05-02T12:16:42.406Z</time></trkpt><trkpt lat="54.1919131" lon="-1.4646894"><ele>35.0</ele><time>2026-05-02T12:16:43.407Z</time></trkpt><trkpt lat="54.1921939" lon="-1.4648714"><ele>35.0</ele><time>2026-05-02T12:16:44.408Z</time></trkpt><trkpt lat="54.1924753" lon="-1.4650533"><ele>35.0</ele><time>2026-05-02T12:16:45.406Z</time></trkpt><trkpt lat="54.1927576" lon="-1.4652324"><ele>35.0</ele><time>2026-05-02T12:16:46.406Z</time></trkpt><trkpt lat="54.1930395" lon="-1.4654109"><ele>34.5</ele><time>2026-05-02T12:16:47.405Z</time></trkpt><trkpt lat="54.1933197" lon="-1.4655904"><ele>34.0</ele><time>2026-05-02T12:16:48.404Z</time></trkpt><trkpt lat="54.1935998" lon="-1.4657749"><ele>34.0</ele><time>2026-05-02T12:16:49.403Z</time></trkpt><trkpt lat="54.1938812" lon="-1.4659541"><ele>34.0</ele><time>2026-05-02T12:16:50.403Z</time></trkpt><trkpt lat="54.1941642" lon="-1.4661302"><ele>35.0</ele><time>2026-05-02T12:16:51.403Z</time></trkpt><trkpt lat="54.1944467" lon="-1.4663009"><ele>36.0</ele><time>2026-05-02T12:16:52.403Z</time></trkpt><trkpt lat="54.1947273" lon="-1.4664709"><ele>36.0</ele><time>2026-05-02T12:16:53.402Z</time></trkpt><trkpt lat="54.1950065" lon="-1.4666493"><ele>36.0</ele><time>2026-05-02T12:16:54.408Z</time></trkpt><trkpt lat="54.1952822" lon="-1.4668411"><ele>36.0</ele><time>2026-05-02T12:16:55.404Z</time></trkpt><trkpt lat="54.1955588" lon="-1.4670382"><ele>36.0</ele><time>2026-05-02T12:16:56.403Z</time></trkpt><trkpt lat="54.1958355" lon="-1.4672354"><ele>35.5</ele><time>2026-05-02T12:16:57.404Z</time></trkpt><trkpt lat="54.1961109" lon="-1.4674343"><ele>35.0</ele><time>2026-05-02T12:16:58.404Z</time></trkpt><trkpt lat="54.1963884" lon="-1.4676341"><ele>35.0</ele><time>2026-05-02T12:16:59.407Z</time></trkpt><trkpt lat="54.1966666" lon="-1.467833"><ele>35.0</ele><time>2026-05-02T12:17:00.407Z</time></trkpt><trkpt lat="54.1969437" lon="-1.4680293"><ele>35.0</ele><time>2026-05-02T12:17:01.406Z</time></trkpt><trkpt lat="54.1972213" lon="-1.468228"><ele>35.0</ele><time>2026-05-02T12:17:02.406Z</time></trkpt><trkpt lat="54.1974967" lon="-1.4684333"><ele>34.5</ele><time>2026-05-02T12:17:03.407Z</time></trkpt><trkpt lat="54.197773" lon="-1.4686359"><ele>34.0</ele><time>2026-05-02T12:17:04.406Z</time></trkpt><trkpt lat="54.198049" lon="-1.4688374"><ele>33.5</ele><time>2026-05-02T12:17:05.408Z</time></trkpt><trkpt lat="54.1983257" lon="-1.4690428"><ele>33.0</ele><time>2026-05-02T12:17:06.406Z</time></trkpt><trkpt lat="54.1986014" lon="-1.4692495"><ele>33.0</ele><time>2026-05-02T12:17:07.407Z</time></trkpt><trkpt lat="54.1988789" lon="-1.4694539"><ele>33.0</ele><time>2026-05-02T12:17:08.406Z</time></trkpt><trkpt lat="54.1991547" lon="-1.4696555"><ele>32.5</ele><time>2026-05-02T12:17:09.406Z</time></trkpt><trkpt lat="54.1994225" lon="-1.4698509"><ele>32.0</ele><time>2026-05-02T12:17:10.406Z</time></trkpt><trkpt lat="54.1996872" lon="-1.4700356"><ele>32.5</ele><time>2026-05-02T12:17:11.406Z</time></trkpt><trkpt lat="54.199949" lon="-1.4702199"><ele>33.0</ele><time>2026-05-02T12:17:12.407Z</time></trkpt><trkpt lat="54.2002113" lon="-1.470403"><ele>33.0</ele><time>2026-05-02T12:17:13.407Z</time></trkpt><trkpt lat="54.2004687" lon="-1.470583"><ele>33.0</ele><time>2026-05-02T12:17:14.408Z</time></trkpt><trkpt lat="54.2007226" lon="-1.4707592"><ele>33.0</ele><time>2026-05-02T12:17:15.406Z</time></trkpt><trkpt lat="54.2009694" lon="-1.4709389"><ele>33.0</ele><time>2026-05-02T12:17:16.406Z</time></trkpt><trkpt lat="54.2012097" lon="-1.4711151"><ele>33.0</ele><time>2026-05-02T12:17:17.407Z</time></trkpt><trkpt lat="54.2014532" lon="-1.4712848"><ele>33.0</ele><time>2026-05-02T12:17:18.407Z</time></trkpt><trkpt lat="54.2016968" lon="-1.4714478"><ele>32.0</ele><time>2026-05-02T12:17:19.406Z</time></trkpt><trkpt lat="54.2019388" lon="-1.4716168"><ele>31.0</ele><time>2026-05-02T12:17:20.406Z</time></trkpt><trkpt lat="54.2021799" lon="-1.4717972"><ele>31.5</ele><time>2026-05-02T12:17:21.406Z</time></trkpt><trkpt lat="54.202423" lon="-1.471978"><ele>32.0</ele><time>2026-05-02T12:17:22.407Z</time></trkpt><trkpt lat="54.2026655" lon="-1.4721543"><ele>32.5</ele><time>2026-05-02T12:17:23.406Z</time></trkpt><trkpt lat="54.2029085" lon="-1.4723337"><ele>33.0</ele><time>2026-05-02T12:17:24.407Z</time></trkpt><trkpt lat="54.2031533" lon="-1.4725058"><ele>33.0</ele><time>2026-05-02T12:17:25.407Z</time></trkpt><trkpt lat="54.2033998" lon="-1.4726721"><ele>33.0</ele><time>2026-05-02T12:17:26.406Z</time></trkpt><trkpt lat="54.2036466" lon="-1.4728385"><ele>33.5</ele><time>2026-05-02T12:17:27.406Z</time></trkpt><trkpt lat="54.2038945" lon="-1.4730051"><ele>34.0</ele><time>2026-05-02T12:17:28.408Z</time></trkpt><trkpt lat="54.2041426" lon="-1.4731692"><ele>32.5</ele><time>2026-05-02T12:17:29.406Z</time></trkpt><trkpt lat="54.2043889" lon="-1.4733345"><ele>31.0</ele><time>2026-05-02T12:17:30.406Z</time></trkpt><trkpt lat="54.2046329" lon="-1.4735036"><ele>31.0</ele><time>2026-05-02T12:17:31.407Z</time></trkpt><trkpt lat="54.20488" lon="-1.4736688"><ele>31.0</ele><time>2026-05-02T12:17:32.406Z</time></trkpt><trkpt lat="54.2051314" lon="-1.4738311"><ele>32.0</ele><time>2026-05-02T12:17:33.406Z</time></trkpt><trkpt lat="54.2053862" lon="-1.4739957"><ele>33.0</ele><time>2026-05-02T12:17:34.406Z</time></trkpt><trkpt lat="54.2056456" lon="-1.4741678"><ele>33.0</ele><time>2026-05-02T12:17:35.406Z</time></trkpt><trkpt lat="54.2059059" lon="-1.474349"><ele>33.0</ele><time>2026-05-02T12:17:36.406Z</time></trkpt><trkpt lat="54.2061662" lon="-1.4745378"><ele>33.5</ele><time>2026-05-02T12:17:37.406Z</time></trkpt><trkpt lat="54.2064237" lon="-1.4747329"><ele>34.0</ele><time>2026-05-02T12:17:38.407Z</time></trkpt><trkpt lat="54.2066817" lon="-1.474923"><ele>34.5</ele><time>2026-05-02T12:17:39.406Z</time></trkpt><trkpt lat="54.2069389" lon="-1.4751059"><ele>35.0</ele><time>2026-05-02T12:17:40.406Z</time></trkpt><trkpt lat="54.207198" lon="-1.4752863"><ele>34.5</ele><time>2026-05-02T12:17:41.406Z</time></trkpt><trkpt lat="54.2074577" lon="-1.4754674"><ele>34.0</ele><time>2026-05-02T12:17:42.407Z</time></trkpt><trkpt lat="54.2077179" lon="-1.4756475"><ele>34.0</ele><time>2026-05-02T12:17:43.407Z</time></trkpt><trkpt lat="54.2079794" lon="-1.4758244"><ele>34.0</ele><time>2026-05-02T12:17:44.406Z</time></trkpt><trkpt lat="54.2082409" lon="-1.4760043"><ele>34.0</ele><time>2026-05-02T12:17:45.407Z</time></trkpt><trkpt lat="54.2085035" lon="-1.4761822"><ele>34.0</ele><time>2026-05-02T12:17:46.417Z</time></trkpt><trkpt lat="54.2087628" lon="-1.4763547"><ele>34.5</ele><time>2026-05-02T12:17:47.406Z</time></trkpt><trkpt lat="54.2090234" lon="-1.4765279"><ele>35.0</ele><time>2026-05-02T12:17:48.407Z</time></trkpt><trkpt lat="54.2092823" lon="-1.4767046"><ele>35.0</ele><time>2026-05-02T12:17:49.406Z</time></trkpt><trkpt lat="54.2095407" lon="-1.4768812"><ele>35.0</ele><time>2026-05-02T12:17:50.407Z</time></trkpt><trkpt lat="54.2098015" lon="-1.4770538"><ele>34.5</ele><time>2026-05-02T12:17:51.407Z</time></trkpt><trkpt lat="54.2100657" lon="-1.4772234"><ele>34.0</ele><time>2026-05-02T12:17:52.406Z</time></trkpt><trkpt lat="54.2103296" lon="-1.4773918"><ele>34.0</ele><time>2026-05-02T12:17:53.407Z</time></trkpt><trkpt lat="54.2105928" lon="-1.4775616"><ele>34.0</ele><time>2026-05-02T12:17:54.407Z</time></trkpt><trkpt lat="54.2108547" lon="-1.4777352"><ele>34.5</ele><time>2026-05-02T12:17:55.408Z</time></trkpt><trkpt lat="54.2111151" lon="-1.4779112"><ele>35.0</ele><time>2026-05-02T12:17:56.407Z</time></trkpt><trkpt lat="54.2113804" lon="-1.4780882"><ele>36.0</ele><time>2026-05-02T12:17:57.407Z</time></trkpt><trkpt lat="54.2116456" lon="-1.4782639"><ele>37.0</ele><time>2026-05-02T12:17:58.406Z</time></trkpt><trkpt lat="54.2119082" lon="-1.4784391"><ele>37.0</ele><time>2026-05-02T12:17:59.406Z</time></trkpt><trkpt lat="54.2121686" lon="-1.4786126"><ele>37.0</ele><time>2026-05-02T12:18:00.407Z</time></trkpt><trkpt lat="54.2124287" lon="-1.4787831"><ele>37.0</ele><time>2026-05-02T12:18:01.407Z</time></trkpt><trkpt lat="54.2126912" lon="-1.4789533"><ele>37.0</ele><time>2026-05-02T12:18:02.406Z</time></trkpt><trkpt lat="54.2129517" lon="-1.4791281"><ele>37.0</ele><time>2026-05-02T12:18:03.406Z</time></trkpt><trkpt lat="54.2132129" lon="-1.4793044"><ele>37.0</ele><time>2026-05-02T12:18:04.406Z</time></trkpt><trkpt lat="54.2134748" lon="-1.4794772"><ele>37.0</ele><time>2026-05-02T12:18:05.407Z</time></trkpt><trkpt lat="54.2137368" lon="-1.4796467"><ele>37.0</ele><time>2026-05-02T12:18:06.407Z</time></trkpt><trkpt lat="54.2139997" lon="-1.4798138"><ele>37.0</ele><time>2026-05-02T12:18:07.406Z</time></trkpt><trkpt lat="54.214265" lon="-1.4799779"><ele>37.0</ele><time>2026-05-02T12:18:08.407Z</time></trkpt><trkpt lat="54.2145272" lon="-1.4801466"><ele>37.0</ele><time>2026-05-02T12:18:09.406Z</time></trkpt><trkpt lat="54.2147886" lon="-1.4803149"><ele>37.0</ele><time>2026-05-02T12:18:10.407Z</time></trkpt><trkpt lat="54.2150526" lon="-1.4804786"><ele>37.0</ele><time>2026-05-02T12:18:11.406Z</time></trkpt><trkpt lat="54.215319" lon="-1.4806316"><ele>37.0</ele><time>2026-05-02T12:18:12.407Z</time></trkpt><trkpt lat="54.2155865" lon="-1.4807746"><ele>37.0</ele><time>2026-05-02T12:18:13.407Z</time></trkpt><trkpt lat="54.2158539" lon="-1.480919"><ele>37.0</ele><time>2026-05-02T12:18:14.408Z</time></trkpt><trkpt lat="54.2161208" lon="-1.4810603"><ele>37.0</ele><time>2026-05-02T12:18:15.406Z</time></trkpt><trkpt lat="54.2163872" lon="-1.4811981"><ele>37.0</ele><time>2026-05-02T12:18:16.406Z</time></trkpt><trkpt lat="54.2166534" lon="-1.4813406"><ele>37.5</ele><time>2026-05-02T12:18:17.407Z</time></trkpt><trkpt lat="54.2169187" lon="-1.4814875"><ele>38.0</ele><time>2026-05-02T12:18:18.406Z</time></trkpt><trkpt lat="54.217182" lon="-1.4816481"><ele>37.5</ele><time>2026-05-02T12:18:19.407Z</time></trkpt><trkpt lat="54.2174447" lon="-1.481813"><ele>37.0</ele><time>2026-05-02T12:18:20.406Z</time></trkpt><trkpt lat="54.2177069" lon="-1.4819819"><ele>38.0</ele><time>2026-05-02T12:18:21.406Z</time></trkpt><trkpt lat="54.2179695" lon="-1.4821561"><ele>39.0</ele><time>2026-05-02T12:18:22.406Z</time></trkpt><trkpt lat="54.2182315" lon="-1.482331"><ele>39.0</ele><time>2026-05-02T12:18:23.406Z</time></trkpt><trkpt lat="54.2184895" lon="-1.4825118"><ele>39.0</ele><time>2026-05-02T12:18:24.405Z</time></trkpt><trkpt lat="54.2187445" lon="-1.482708"><ele>38.0</ele><time>2026-05-02T12:18:25.406Z</time></trkpt><trkpt lat="54.2256238" lon="-1.4891355"><ele>37.0</ele><time>2026-05-02T12:18:53.405Z</time></trkpt><trkpt lat="54.2261442" lon="-1.4894984"><ele>37.0</ele><time>2026-05-02T12:18:55.406Z</time></trkpt><trkpt lat="54.2266743" lon="-1.4898392"><ele>37.0</ele><time>2026-05-02T12:18:57.406Z</time></trkpt><trkpt lat="54.2269402" lon="-1.4899982"><ele>37.0</ele><time>2026-05-02T12:18:58.407Z</time></trkpt><trkpt lat="54.2272085" lon="-1.4901512"><ele>36.5</ele><time>2026-05-02T12:18:59.408Z</time></trkpt><trkpt lat="54.2274738" lon="-1.490299"><ele>36.0</ele><time>2026-05-02T12:19:00.405Z</time></trkpt><trkpt lat="54.2277402" lon="-1.4904436"><ele>36.0</ele><time>2026-05-02T12:19:01.407Z</time></trkpt><trkpt lat="54.2280061" lon="-1.4905898"><ele>36.0</ele><time>2026-05-02T12:19:02.408Z</time></trkpt><trkpt lat="54.2282731" lon="-1.4907336"><ele>36.5</ele><time>2026-05-02T12:19:03.406Z</time></trkpt><trkpt lat="54.2285401" lon="-1.4908809"><ele>37.0</ele><time>2026-05-02T12:19:04.407Z</time></trkpt><trkpt lat="54.2288042" lon="-1.4910395"><ele>37.0</ele><time>2026-05-02T12:19:05.406Z</time></trkpt><trkpt lat="54.2290645" lon="-1.4912093"><ele>37.0</ele><time>2026-05-02T12:19:06.406Z</time></trkpt><trkpt lat="54.2293238" lon="-1.4913801"><ele>37.0</ele><time>2026-05-02T12:19:07.405Z</time></trkpt><trkpt lat="54.2295826" lon="-1.4915498"><ele>37.0</ele><time>2026-05-02T12:19:08.406Z</time></trkpt><trkpt lat="54.2298395" lon="-1.4917285"><ele>36.5</ele><time>2026-05-02T12:19:09.405Z</time></trkpt><trkpt lat="54.2300974" lon="-1.4919107"><ele>36.0</ele><time>2026-05-02T12:19:10.406Z</time></trkpt><trkpt lat="54.230358" lon="-1.4920944"><ele>36.0</ele><time>2026-05-02T12:19:11.406Z</time></trkpt><trkpt lat="54.2306141" lon="-1.4922865"><ele>36.0</ele><time>2026-05-02T12:19:12.407Z</time></trkpt><trkpt lat="54.2308689" lon="-1.4924844"><ele>35.5</ele><time>2026-05-02T12:19:13.406Z</time></trkpt><trkpt lat="54.2311231" lon="-1.4926946"><ele>35.0</ele><time>2026-05-02T12:19:14.406Z</time></trkpt><trkpt lat="54.2313754" lon="-1.4929078"><ele>35.0</ele><time>2026-05-02T12:19:15.405Z</time></trkpt><trkpt lat="54.2316251" lon="-1.4931226"><ele>35.0</ele><time>2026-05-02T12:19:16.405Z</time></trkpt><trkpt lat="54.2318748" lon="-1.4933353"><ele>35.0</ele><time>2026-05-02T12:19:17.406Z</time></trkpt><trkpt lat="54.2321248" lon="-1.4935498"><ele>35.0</ele><time>2026-05-02T12:19:18.405Z</time></trkpt><trkpt lat="54.232371" lon="-1.4937692"><ele>35.0</ele><time>2026-05-02T12:19:19.405Z</time></trkpt><trkpt lat="54.2326185" lon="-1.4939961"><ele>35.0</ele><time>2026-05-02T12:19:20.406Z</time></trkpt><trkpt lat="54.2328651" lon="-1.4942252"><ele>35.0</ele><time>2026-05-02T12:19:21.406Z</time></trkpt><trkpt lat="54.2331115" lon="-1.4944526"><ele>35.0</ele><time>2026-05-02T12:19:22.405Z</time></trkpt><trkpt lat="54.233358" lon="-1.4946758"><ele>34.5</ele><time>2026-05-02T12:19:23.406Z</time></trkpt><trkpt lat="54.2336089" lon="-1.4948915"><ele>34.0</ele><time>2026-05-02T12:19:24.406Z</time></trkpt><trkpt lat="54.2338622" lon="-1.4951001"><ele>34.5</ele><time>2026-05-02T12:19:25.406Z</time></trkpt><trkpt lat="54.2341158" lon="-1.4953093"><ele>35.0</ele><time>2026-05-02T12:19:26.406Z</time></trkpt><trkpt lat="54.2343664" lon="-1.495516"><ele>35.0</ele><time>2026-05-02T12:19:27.407Z</time></trkpt><trkpt lat="54.2346185" lon="-1.4957158"><ele>35.0</ele><time>2026-05-02T12:19:28.406Z</time></trkpt><trkpt lat="54.2348734" lon="-1.495906"><ele>35.0</ele><time>2026-05-02T12:19:29.406Z</time></trkpt><trkpt lat="54.2351294" lon="-1.4960917"><ele>35.0</ele><time>2026-05-02T12:19:30.405Z</time></trkpt><trkpt lat="54.2353877" lon="-1.4962729"><ele>36.0</ele><time>2026-05-02T12:19:31.406Z</time></trkpt><trkpt lat="54.2356464" lon="-1.4964519"><ele>37.0</ele><time>2026-05-02T12:19:32.407Z</time></trkpt><trkpt lat="54.2359076" lon="-1.4966261"><ele>37.0</ele><time>2026-05-02T12:19:33.407Z</time></trkpt><trkpt lat="54.2361695" lon="-1.4967994"><ele>37.0</ele><time>2026-05-02T12:19:34.407Z</time></trkpt><trkpt lat="54.2364317" lon="-1.4969725"><ele>37.5</ele><time>2026-05-02T12:19:35.409Z</time></trkpt><trkpt lat="54.2366914" lon="-1.4971453"><ele>38.0</ele><time>2026-05-02T12:19:36.408Z</time></trkpt><trkpt lat="54.2369557" lon="-1.4973137"><ele>38.0</ele><time>2026-05-02T12:19:37.408Z</time></trkpt><trkpt lat="54.237218" lon="-1.4974818"><ele>38.0</ele><time>2026-05-02T12:19:38.406Z</time></trkpt><trkpt lat="54.2374824" lon="-1.4976479"><ele>38.0</ele><time>2026-05-02T12:19:39.407Z</time></trkpt><trkpt lat="54.2377473" lon="-1.4978144"><ele>38.0</ele><time>2026-05-02T12:19:40.405Z</time></trkpt><trkpt lat="54.2380124" lon="-1.4979811"><ele>37.5</ele><time>2026-05-02T12:19:41.405Z</time></trkpt><trkpt lat="54.238276" lon="-1.4981498"><ele>37.0</ele><time>2026-05-02T12:19:42.406Z</time></trkpt><trkpt lat="54.2385368" lon="-1.4983169"><ele>37.0</ele><time>2026-05-02T12:19:43.406Z</time></trkpt><trkpt lat="54.2387971" lon="-1.4984849"><ele>37.0</ele><time>2026-05-02T12:19:44.407Z</time></trkpt><trkpt lat="54.2390602" lon="-1.4986542"><ele>37.5</ele><time>2026-05-02T12:19:45.403Z</time></trkpt><trkpt lat="54.2393214" lon="-1.4988273"><ele>38.0</ele><time>2026-05-02T12:19:46.403Z</time></trkpt><trkpt lat="54.2395793" lon="-1.4990015"><ele>38.5</ele><time>2026-05-02T12:19:47.406Z</time></trkpt><trkpt lat="54.2398364" lon="-1.499174"><ele>39.0</ele><time>2026-05-02T12:19:48.406Z</time></trkpt><trkpt lat="54.2400968" lon="-1.4993457"><ele>39.0</ele><time>2026-05-02T12:19:49.405Z</time></trkpt><trkpt lat="54.2403601" lon="-1.499513"><ele>39.0</ele><time>2026-05-02T12:19:50.412Z</time></trkpt><trkpt lat="54.2406241" lon="-1.4996794"><ele>39.0</ele><time>2026-05-02T12:19:51.411Z</time></trkpt><trkpt lat="54.2408909" lon="-1.4998435"><ele>39.0</ele><time>2026-05-02T12:19:52.407Z</time></trkpt><trkpt lat="54.2411568" lon="-1.5000084"><ele>39.0</ele><time>2026-05-02T12:19:53.405Z</time></trkpt><trkpt lat="54.2414219" lon="-1.5001737"><ele>39.0</ele><time>2026-05-02T12:19:54.405Z</time></trkpt><trkpt lat="54.2416865" lon="-1.5003426"><ele>39.0</ele><time>2026-05-02T12:19:55.406Z</time></trkpt><trkpt lat="54.2419525" lon="-1.5005077"><ele>39.0</ele><time>2026-05-02T12:19:56.406Z</time></trkpt><trkpt lat="54.2422164" lon="-1.5006723"><ele>38.0</ele><time>2026-05-02T12:19:57.406Z</time></trkpt><trkpt lat="54.2424768" lon="-1.5008388"><ele>37.0</ele><time>2026-05-02T12:19:58.404Z</time></trkpt><trkpt lat="54.2427383" lon="-1.5010092"><ele>37.0</ele><time>2026-05-02T12:19:59.407Z</time></trkpt><trkpt lat="54.2429994" lon="-1.5011812"><ele>37.0</ele><time>2026-05-02T12:20:00.406Z</time></trkpt><trkpt lat="54.2432615" lon="-1.501349"><ele>36.5</ele><time>2026-05-02T12:20:01.407Z</time></trkpt><trkpt lat="54.2435241" lon="-1.5015178"><ele>36.0</ele><time>2026-05-02T12:20:02.406Z</time></trkpt><trkpt lat="54.24379" lon="-1.5016877"><ele>35.0</ele><time>2026-05-02T12:20:03.405Z</time></trkpt><trkpt lat="54.2440536" lon="-1.5018585"><ele>34.0</ele><time>2026-05-02T12:20:04.407Z</time></trkpt><trkpt lat="54.2443161" lon="-1.5020314"><ele>34.0</ele><time>2026-05-02T12:20:05.405Z</time></trkpt><trkpt lat="54.2445805" lon="-1.5022084"><ele>34.0</ele><time>2026-05-02T12:20:06.405Z</time></trkpt><trkpt lat="54.244842" lon="-1.5023929"><ele>33.5</ele><time>2026-05-02T12:20:07.403Z</time></trkpt><trkpt lat="54.2450995" lon="-1.5025872"><ele>33.0</ele><time>2026-05-02T12:20:08.405Z</time></trkpt><trkpt lat="54.2453558" lon="-1.5027837"><ele>33.0</ele><time>2026-05-02T12:20:09.403Z</time></trkpt><trkpt lat="54.2456111" lon="-1.5029875"><ele>33.0</ele><time>2026-05-02T12:20:10.406Z</time></trkpt><trkpt lat="54.2458656" lon="-1.5031986"><ele>33.0</ele><time>2026-05-02T12:20:11.406Z</time></trkpt><trkpt lat="54.2461132" lon="-1.503412"><ele>33.0</ele><time>2026-05-02T12:20:12.406Z</time></trkpt><trkpt lat="54.2463629" lon="-1.5036291"><ele>32.5</ele><time>2026-05-02T12:20:13.407Z</time></trkpt><trkpt lat="54.2466109" lon="-1.5038472"><ele>32.0</ele><time>2026-05-02T12:20:14.407Z</time></trkpt><trkpt lat="54.2468572" lon="-1.5040713"><ele>32.0</ele><time>2026-05-02T12:20:15.403Z</time></trkpt><trkpt lat="54.2471003" lon="-1.5043014"><ele>32.0</ele><time>2026-05-02T12:20:16.404Z</time></trkpt><trkpt lat="54.2473428" lon="-1.5045369"><ele>31.0</ele><time>2026-05-02T12:20:17.403Z</time></trkpt><trkpt lat="54.2475869" lon="-1.5047733"><ele>30.0</ele><time>2026-05-02T12:20:18.406Z</time></trkpt><trkpt lat="54.2478276" lon="-1.5050097"><ele>30.0</ele><time>2026-05-02T12:20:19.406Z</time></trkpt><trkpt lat="54.2480713" lon="-1.5052424"><ele>30.0</ele><time>2026-05-02T12:20:20.407Z</time></trkpt><trkpt lat="54.248314" lon="-1.5054717"><ele>30.0</ele><time>2026-05-02T12:20:21.407Z</time></trkpt><trkpt lat="54.2485597" lon="-1.5056997"><ele>30.0</ele><time>2026-05-02T12:20:22.405Z</time></trkpt><trkpt lat="54.2488079" lon="-1.5059219"><ele>31.0</ele><time>2026-05-02T12:20:23.404Z</time></trkpt><trkpt lat="54.2490567" lon="-1.5061438"><ele>32.0</ele><time>2026-05-02T12:20:24.406Z</time></trkpt><trkpt lat="54.2493082" lon="-1.5063651"><ele>33.0</ele><time>2026-05-02T12:20:25.403Z</time></trkpt><trkpt lat="54.2495617" lon="-1.5065886"><ele>34.0</ele><time>2026-05-02T12:20:26.406Z</time></trkpt><trkpt lat="54.2498137" lon="-1.5068094"><ele>34.0</ele><time>2026-05-02T12:20:27.405Z</time></trkpt><trkpt lat="54.2500657" lon="-1.5070309"><ele>34.0</ele><time>2026-05-02T12:20:28.407Z</time></trkpt><trkpt lat="54.2503183" lon="-1.5072485"><ele>34.0</ele><time>2026-05-02T12:20:29.403Z</time></trkpt><trkpt lat="54.2505689" lon="-1.5074652"><ele>34.0</ele><time>2026-05-02T12:20:30.407Z</time></trkpt><trkpt lat="54.2508176" lon="-1.5076813"><ele>34.0</ele><time>2026-05-02T12:20:31.406Z</time></trkpt><trkpt lat="54.2510684" lon="-1.5078954"><ele>34.0</ele><time>2026-05-02T12:20:32.406Z</time></trkpt><trkpt lat="54.2513207" lon="-1.5081077"><ele>33.5</ele><time>2026-05-02T12:20:33.406Z</time></trkpt><trkpt lat="54.2515727" lon="-1.5083204"><ele>33.0</ele><time>2026-05-02T12:20:34.407Z</time></trkpt><trkpt lat="54.2518239" lon="-1.5085336"><ele>33.0</ele><time>2026-05-02T12:20:35.407Z</time></trkpt><trkpt lat="54.2520743" lon="-1.508751"><ele>33.0</ele><time>2026-05-02T12:20:36.406Z</time></trkpt><trkpt lat="54.2523276" lon="-1.5089636"><ele>33.5</ele><time>2026-05-02T12:20:37.406Z</time></trkpt><trkpt lat="54.2525809" lon="-1.5091753"><ele>34.0</ele><time>2026-05-02T12:20:38.408Z</time></trkpt><trkpt lat="54.2528316" lon="-1.5093889"><ele>34.5</ele><time>2026-05-02T12:20:39.406Z</time></trkpt><trkpt lat="54.2530827" lon="-1.5096032"><ele>35.0</ele><time>2026-05-02T12:20:40.406Z</time></trkpt><trkpt lat="54.2533342" lon="-1.5098157"><ele>35.0</ele><time>2026-05-02T12:20:41.406Z</time></trkpt><trkpt lat="54.2535861" lon="-1.510029"><ele>35.0</ele><time>2026-05-02T12:20:42.407Z</time></trkpt><trkpt lat="54.2538384" lon="-1.5102426"><ele>35.0</ele><time>2026-05-02T12:20:43.406Z</time></trkpt><trkpt lat="54.2540943" lon="-1.5104507"><ele>35.0</ele><time>2026-05-02T12:20:44.406Z</time></trkpt><trkpt lat="54.2543483" lon="-1.5106612"><ele>35.0</ele><time>2026-05-02T12:20:45.407Z</time></trkpt><trkpt lat="54.2546" lon="-1.5108743"><ele>35.0</ele><time>2026-05-02T12:20:46.407Z</time></trkpt><trkpt lat="54.2548514" lon="-1.5110863"><ele>35.0</ele><time>2026-05-02T12:20:47.407Z</time></trkpt><trkpt lat="54.2551042" lon="-1.5112967"><ele>35.0</ele><time>2026-05-02T12:20:48.406Z</time></trkpt><trkpt lat="54.2553579" lon="-1.5115065"><ele>35.0</ele><time>2026-05-02T12:20:49.407Z</time></trkpt><trkpt lat="54.2556076" lon="-1.5117215"><ele>35.0</ele><time>2026-05-02T12:20:50.41Z</time></trkpt><trkpt lat="54.2558578" lon="-1.5119373"><ele>34.5</ele><time>2026-05-02T12:20:51.402Z</time></trkpt><trkpt lat="54.2561086" lon="-1.5121533"><ele>34.0</ele><time>2026-05-02T12:20:52.407Z</time></trkpt><trkpt lat="54.2563595" lon="-1.5123656"><ele>35.0</ele><time>2026-05-02T12:20:53.407Z</time></trkpt><trkpt lat="54.2566113" lon="-1.5125792"><ele>36.0</ele><time>2026-05-02T12:20:54.406Z</time></trkpt><trkpt lat="54.2568629" lon="-1.5127902"><ele>37.0</ele><time>2026-05-02T12:20:55.406Z</time></trkpt><trkpt lat="54.257114" lon="-1.513"><ele>38.0</ele><time>2026-05-02T12:20:56.403Z</time></trkpt><trkpt lat="54.2573636" lon="-1.5132138"><ele>38.0</ele><time>2026-05-02T12:20:57.407Z</time></trkpt><trkpt lat="54.2576129" lon="-1.5134255"><ele>38.0</ele><time>2026-05-02T12:20:58.406Z</time></trkpt><trkpt lat="54.2578619" lon="-1.5136364"><ele>38.0</ele><time>2026-05-02T12:20:59.406Z</time></trkpt><trkpt lat="54.2581129" lon="-1.5138477"><ele>38.0</ele><time>2026-05-02T12:21:00.406Z</time></trkpt><trkpt lat="54.2583627" lon="-1.5140589"><ele>37.5</ele><time>2026-05-02T12:21:01.406Z</time></trkpt><trkpt lat="54.2586105" lon="-1.5142742"><ele>37.0</ele><time>2026-05-02T12:21:02.407Z</time></trkpt><trkpt lat="54.2588605" lon="-1.5144926"><ele>36.5</ele><time>2026-05-02T12:21:03.407Z</time></trkpt><trkpt lat="54.2591092" lon="-1.5147085"><ele>36.0</ele><time>2026-05-02T12:21:04.407Z</time></trkpt><trkpt lat="54.259357" lon="-1.5149256"><ele>36.0</ele><time>2026-05-02T12:21:05.406Z</time></trkpt><trkpt lat="54.2596047" lon="-1.5151441"><ele>36.0</ele><time>2026-05-02T12:21:06.406Z</time></trkpt><trkpt lat="54.2598543" lon="-1.5153631"><ele>36.0</ele><time>2026-05-02T12:21:07.406Z</time></trkpt><trkpt lat="54.2601044" lon="-1.515583"><ele>36.0</ele><time>2026-05-02T12:21:08.408Z</time></trkpt><trkpt lat="54.2603566" lon="-1.515804"><ele>36.0</ele><time>2026-05-02T12:21:09.406Z</time></trkpt><trkpt lat="54.26061" lon="-1.5160269"><ele>36.0</ele><time>2026-05-02T12:21:10.406Z</time></trkpt><trkpt lat="54.2608599" lon="-1.5162513"><ele>37.0</ele><time>2026-05-02T12:21:11.406Z</time></trkpt><trkpt lat="54.2611097" lon="-1.5164722"><ele>38.0</ele><time>2026-05-02T12:21:12.407Z</time></trkpt><trkpt lat="54.2613624" lon="-1.5166872"><ele>38.0</ele><time>2026-05-02T12:21:13.406Z</time></trkpt><trkpt lat="54.2616159" lon="-1.5169034"><ele>38.0</ele><time>2026-05-02T12:21:14.407Z</time></trkpt><trkpt lat="54.2618692" lon="-1.5171175"><ele>39.0</ele><time>2026-05-02T12:21:15.405Z</time></trkpt><trkpt lat="54.2621201" lon="-1.5173321"><ele>40.0</ele><time>2026-05-02T12:21:16.406Z</time></trkpt><trkpt lat="54.2623705" lon="-1.5175482"><ele>40.0</ele><time>2026-05-02T12:21:17.406Z</time></trkpt><trkpt lat="54.2626204" lon="-1.5177644"><ele>40.0</ele><time>2026-05-02T12:21:18.406Z</time></trkpt><trkpt lat="54.2628727" lon="-1.5179787"><ele>40.0</ele><time>2026-05-02T12:21:19.405Z</time></trkpt><trkpt lat="54.2631284" lon="-1.5181915"><ele>40.0</ele><time>2026-05-02T12:21:20.406Z</time></trkpt><trkpt lat="54.2633814" lon="-1.5184022"><ele>40.0</ele><time>2026-05-02T12:21:21.405Z</time></trkpt><trkpt lat="54.2636335" lon="-1.5186089"><ele>40.0</ele><time>2026-05-02T12:21:22.406Z</time></trkpt><trkpt lat="54.2638887" lon="-1.5188153"><ele>39.5</ele><time>2026-05-02T12:21:23.406Z</time></trkpt><trkpt lat="54.2641442" lon="-1.5190211"><ele>39.0</ele><time>2026-05-02T12:21:24.406Z</time></trkpt><trkpt lat="54.2643966" lon="-1.5192297"><ele>39.0</ele><time>2026-05-02T12:21:25.407Z</time></trkpt><trkpt lat="54.2646491" lon="-1.5194419"><ele>39.0</ele><time>2026-05-02T12:21:26.406Z</time></trkpt><trkpt lat="54.2649043" lon="-1.5196481"><ele>39.5</ele><time>2026-05-02T12:21:27.407Z</time></trkpt><trkpt lat="54.2651568" lon="-1.5198513"><ele>40.0</ele><time>2026-05-02T12:21:28.406Z</time></trkpt><trkpt lat="54.265409" lon="-1.5200504"><ele>40.0</ele><time>2026-05-02T12:21:29.406Z</time></trkpt><trkpt lat="54.2656621" lon="-1.5202487"><ele>40.0</ele><time>2026-05-02T12:21:30.405Z</time></trkpt><trkpt lat="54.2659174" lon="-1.5204435"><ele>40.0</ele><time>2026-05-02T12:21:31.406Z</time></trkpt><trkpt lat="54.2661729" lon="-1.5206399"><ele>40.0</ele><time>2026-05-02T12:21:32.406Z</time></trkpt><trkpt lat="54.2664293" lon="-1.5208388"><ele>40.0</ele><time>2026-05-02T12:21:33.405Z</time></trkpt><trkpt lat="54.2666845" lon="-1.5210446"><ele>40.0</ele><time>2026-05-02T12:21:34.405Z</time></trkpt><trkpt lat="54.2669361" lon="-1.5212606"><ele>40.0</ele><time>2026-05-02T12:21:35.404Z</time></trkpt><trkpt lat="54.2671812" lon="-1.5214852"><ele>40.0</ele><time>2026-05-02T12:21:36.404Z</time></trkpt><trkpt lat="54.2674255" lon="-1.5217156"><ele>40.5</ele><time>2026-05-02T12:21:37.406Z</time></trkpt><trkpt lat="54.2676678" lon="-1.5219484"><ele>41.0</ele><time>2026-05-02T12:21:38.406Z</time></trkpt><trkpt lat="54.2679104" lon="-1.5221858"><ele>43.0</ele><time>2026-05-02T12:21:39.406Z</time></trkpt><trkpt lat="54.2681537" lon="-1.5224273"><ele>45.0</ele><time>2026-05-02T12:21:40.406Z</time></trkpt><trkpt lat="54.268393" lon="-1.5226717"><ele>44.0</ele><time>2026-05-02T12:21:41.405Z</time></trkpt><trkpt lat="54.268631" lon="-1.5229165"><ele>43.0</ele><time>2026-05-02T12:21:42.405Z</time></trkpt><trkpt lat="54.2688698" lon="-1.5231644"><ele>42.5</ele><time>2026-05-02T12:21:43.406Z</time></trkpt><trkpt lat="54.2691085" lon="-1.5234158"><ele>42.0</ele><time>2026-05-02T12:21:44.407Z</time></trkpt><trkpt lat="54.2693435" lon="-1.5236712"><ele>42.0</ele><time>2026-05-02T12:21:45.405Z</time></trkpt><trkpt lat="54.2695789" lon="-1.5239318"><ele>42.0</ele><time>2026-05-02T12:21:46.406Z</time></trkpt><trkpt lat="54.2698128" lon="-1.5241944"><ele>42.0</ele><time>2026-05-02T12:21:47.406Z</time></trkpt><trkpt lat="54.2700524" lon="-1.5244538"><ele>42.0</ele><time>2026-05-02T12:21:48.406Z</time></trkpt><trkpt lat="54.270295" lon="-1.524707"><ele>42.5</ele><time>2026-05-02T12:21:49.406Z</time></trkpt><trkpt lat="54.2705362" lon="-1.5249567"><ele>43.0</ele><time>2026-05-02T12:21:50.405Z</time></trkpt><trkpt lat="54.270779" lon="-1.5252026"><ele>43.5</ele><time>2026-05-02T12:21:51.406Z</time></trkpt><trkpt lat="54.2710226" lon="-1.5254318"><ele>44.0</ele><time>2026-05-02T12:21:52.405Z</time></trkpt><trkpt lat="54.2712687" lon="-1.5256566"><ele>44.0</ele><time>2026-05-02T12:21:53.407Z</time></trkpt><trkpt lat="54.2715178" lon="-1.52588"><ele>44.0</ele><time>2026-05-02T12:21:54.406Z</time></trkpt><trkpt lat="54.27177" lon="-1.5261"><ele>44.0</ele><time>2026-05-02T12:21:55.405Z</time></trkpt><trkpt lat="54.2720227" lon="-1.5263184"><ele>44.0</ele><time>2026-05-02T12:21:56.405Z</time></trkpt><trkpt lat="54.2805984" lon="-1.5361299"><ele>41.5</ele><time>2026-05-02T12:22:33.401Z</time></trkpt><trkpt lat="54.2807955" lon="-1.536469"><ele>39.0</ele><time>2026-05-02T12:22:34.403Z</time></trkpt><trkpt lat="54.2811816" lon="-1.5371655"><ele>39.0</ele><time>2026-05-02T12:22:36.403Z</time></trkpt><trkpt lat="54.2813759" lon="-1.5375164"><ele>39.0</ele><time>2026-05-02T12:22:37.404Z</time></trkpt><trkpt lat="54.2815722" lon="-1.5378669"><ele>40.5</ele><time>2026-05-02T12:22:38.403Z</time></trkpt><trkpt lat="54.2817696" lon="-1.5382121"><ele>42.0</ele><time>2026-05-02T12:22:39.402Z</time></trkpt><trkpt lat="54.2819662" lon="-1.5385551"><ele>41.5</ele><time>2026-05-02T12:22:40.401Z</time></trkpt><trkpt lat="54.2821628" lon="-1.5388971"><ele>41.0</ele><time>2026-05-02T12:22:41.402Z</time></trkpt><trkpt lat="54.2823594" lon="-1.5392389"><ele>40.5</ele><time>2026-05-02T12:22:42.402Z</time></trkpt><trkpt lat="54.2825561" lon="-1.5395794"><ele>40.0</ele><time>2026-05-02T12:22:43.401Z</time></trkpt><trkpt lat="54.2827525" lon="-1.5399192"><ele>40.0</ele><time>2026-05-02T12:22:44.401Z</time></trkpt><trkpt lat="54.2829515" lon="-1.540259"><ele>40.0</ele><time>2026-05-02T12:22:45.403Z</time></trkpt><trkpt lat="54.283155" lon="-1.5405971"><ele>40.0</ele><time>2026-05-02T12:22:46.402Z</time></trkpt><trkpt lat="54.2833628" lon="-1.5409275"><ele>40.0</ele><time>2026-05-02T12:22:47.402Z</time></trkpt><trkpt lat="54.2835719" lon="-1.5412498"><ele>40.5</ele><time>2026-05-02T12:22:48.402Z</time></trkpt><trkpt lat="54.2837852" lon="-1.5415626"><ele>41.0</ele><time>2026-05-02T12:22:49.403Z</time></trkpt><trkpt lat="54.2840031" lon="-1.5418637"><ele>42.0</ele><time>2026-05-02T12:22:50.402Z</time></trkpt><trkpt lat="54.2842256" lon="-1.5421557"><ele>43.0</ele><time>2026-05-02T12:22:51.402Z</time></trkpt><trkpt lat="54.2844523" lon="-1.5424423"><ele>43.0</ele><time>2026-05-02T12:22:52.403Z</time></trkpt><trkpt lat="54.2846823" lon="-1.5427236"><ele>43.0</ele><time>2026-05-02T12:22:53.402Z</time></trkpt><trkpt lat="54.2849145" lon="-1.5429998"><ele>41.0</ele><time>2026-05-02T12:22:54.402Z</time></trkpt><trkpt lat="54.2851473" lon="-1.5432674"><ele>39.0</ele><time>2026-05-02T12:22:55.403Z</time></trkpt><trkpt lat="54.2853823" lon="-1.5435275"><ele>38.5</ele><time>2026-05-02T12:22:56.403Z</time></trkpt><trkpt lat="54.2856206" lon="-1.543782"><ele>38.0</ele><time>2026-05-02T12:22:57.403Z</time></trkpt><trkpt lat="54.2858591" lon="-1.5440298"><ele>38.0</ele><time>2026-05-02T12:22:58.401Z</time></trkpt><trkpt lat="54.2860975" lon="-1.5442788"><ele>38.0</ele><time>2026-05-02T12:22:59.403Z</time></trkpt><trkpt lat="54.2863358" lon="-1.5445298"><ele>38.5</ele><time>2026-05-02T12:23:00.402Z</time></trkpt><trkpt lat="54.2865761" lon="-1.5447854"><ele>39.0</ele><time>2026-05-02T12:23:01.404Z</time></trkpt><trkpt lat="54.2868188" lon="-1.5450399"><ele>39.0</ele><time>2026-05-02T12:23:02.402Z</time></trkpt><trkpt lat="54.2870592" lon="-1.5452924"><ele>39.0</ele><time>2026-05-02T12:23:03.405Z</time></trkpt><trkpt lat="54.287296" lon="-1.5455475"><ele>38.0</ele><time>2026-05-02T12:23:04.402Z</time></trkpt><trkpt lat="54.2875366" lon="-1.5457994"><ele>37.0</ele><time>2026-05-02T12:23:05.406Z</time></trkpt><trkpt lat="54.2877749" lon="-1.5460461"><ele>37.5</ele><time>2026-05-02T12:23:06.405Z</time></trkpt><trkpt lat="54.2880168" lon="-1.5462936"><ele>38.0</ele><time>2026-05-02T12:23:07.406Z</time></trkpt><trkpt lat="54.2882573" lon="-1.5465443"><ele>38.5</ele><time>2026-05-02T12:23:08.406Z</time></trkpt><trkpt lat="54.2884971" lon="-1.5467969"><ele>39.0</ele><time>2026-05-02T12:23:09.405Z</time></trkpt><trkpt lat="54.2887396" lon="-1.5470425"><ele>38.5</ele><time>2026-05-02T12:23:10.405Z</time></trkpt><trkpt lat="54.2889792" lon="-1.5472908"><ele>38.0</ele><time>2026-05-02T12:23:11.406Z</time></trkpt><trkpt lat="54.2892196" lon="-1.5475446"><ele>38.0</ele><time>2026-05-02T12:23:12.405Z</time></trkpt><trkpt lat="54.2894575" lon="-1.5478001"><ele>38.0</ele><time>2026-05-02T12:23:13.404Z</time></trkpt><trkpt lat="54.2896957" lon="-1.5480548"><ele>37.5</ele><time>2026-05-02T12:23:14.41Z</time></trkpt><trkpt lat="54.2899343" lon="-1.5483073"><ele>37.0</ele><time>2026-05-02T12:23:15.403Z</time></trkpt><trkpt lat="54.2901744" lon="-1.5485614"><ele>37.0</ele><time>2026-05-02T12:23:16.406Z</time></trkpt><trkpt lat="54.2904137" lon="-1.5488158"><ele>37.0</ele><time>2026-05-02T12:23:17.405Z</time></trkpt><trkpt lat="54.2906531" lon="-1.5490714"><ele>37.5</ele><time>2026-05-02T12:23:18.405Z</time></trkpt><trkpt lat="54.2908902" lon="-1.5493304"><ele>38.0</ele><time>2026-05-02T12:23:19.408Z</time></trkpt><trkpt lat="54.2911254" lon="-1.5495886"><ele>38.5</ele><time>2026-05-02T12:23:20.406Z</time></trkpt><trkpt lat="54.2913611" lon="-1.5498452"><ele>39.0</ele><time>2026-05-02T12:23:21.402Z</time></trkpt><trkpt lat="54.291598" lon="-1.5501025"><ele>38.5</ele><time>2026-05-02T12:23:22.406Z</time></trkpt><trkpt lat="54.2918319" lon="-1.5503588"><ele>38.0</ele><time>2026-05-02T12:23:23.401Z</time></trkpt><trkpt lat="54.2920707" lon="-1.5506149"><ele>38.0</ele><time>2026-05-02T12:23:24.408Z</time></trkpt><trkpt lat="54.2923087" lon="-1.5508735"><ele>38.0</ele><time>2026-05-02T12:23:25.404Z</time></trkpt><trkpt lat="54.2925457" lon="-1.5511431"><ele>38.0</ele><time>2026-05-02T12:23:26.405Z</time></trkpt><trkpt lat="54.292775" lon="-1.5514245"><ele>38.0</ele><time>2026-05-02T12:23:27.405Z</time></trkpt><trkpt lat="54.2930039" lon="-1.5517109"><ele>37.0</ele><time>2026-05-02T12:23:28.404Z</time></trkpt><trkpt lat="54.2932264" lon="-1.5520023"><ele>36.0</ele><time>2026-05-02T12:23:29.402Z</time></trkpt><trkpt lat="54.2934476" lon="-1.5522973"><ele>36.0</ele><time>2026-05-02T12:23:30.405Z</time></trkpt><trkpt lat="54.2936676" lon="-1.5525955"><ele>36.0</ele><time>2026-05-02T12:23:31.404Z</time></trkpt><trkpt lat="54.2938876" lon="-1.5528976"><ele>36.0</ele><time>2026-05-02T12:23:32.405Z</time></trkpt><trkpt lat="54.2941021" lon="-1.5532058"><ele>36.0</ele><time>2026-05-02T12:23:33.405Z</time></trkpt><trkpt lat="54.2943123" lon="-1.5535202"><ele>36.0</ele><time>2026-05-02T12:23:34.404Z</time></trkpt><trkpt lat="54.2945202" lon="-1.5538416"><ele>36.0</ele><time>2026-05-02T12:23:35.405Z</time></trkpt><trkpt lat="54.2947237" lon="-1.5541693"><ele>35.5</ele><time>2026-05-02T12:23:36.401Z</time></trkpt><trkpt lat="54.294928" lon="-1.5545054"><ele>35.0</ele><time>2026-05-02T12:23:37.406Z</time></trkpt><trkpt lat="54.2951247" lon="-1.5548411"><ele>34.5</ele><time>2026-05-02T12:23:38.405Z</time></trkpt><trkpt lat="54.2953095" lon="-1.5551676"><ele>34.0</ele><time>2026-05-02T12:23:39.405Z</time></trkpt><trkpt lat="54.2954847" lon="-1.5554843"><ele>33.5</ele><time>2026-05-02T12:23:40.405Z</time></trkpt><trkpt lat="54.2956519" lon="-1.555792"><ele>33.0</ele><time>2026-05-02T12:23:41.406Z</time></trkpt><trkpt lat="54.2958129" lon="-1.5560965"><ele>33.0</ele><time>2026-05-02T12:23:42.404Z</time></trkpt><trkpt lat="54.2959681" lon="-1.5564011"><ele>33.0</ele><time>2026-05-02T12:23:43.405Z</time></trkpt><trkpt lat="54.2961214" lon="-1.5567042"><ele>33.0</ele><time>2026-05-02T12:23:44.405Z</time></trkpt><trkpt lat="54.2962653" lon="-1.557005"><ele>33.0</ele><time>2026-05-02T12:23:45.407Z</time></trkpt><trkpt lat="54.2964057" lon="-1.5573127"><ele>33.0</ele><time>2026-05-02T12:23:46.405Z</time></trkpt><trkpt lat="54.2965449" lon="-1.5576308"><ele>33.0</ele><time>2026-05-02T12:23:47.405Z</time></trkpt><trkpt lat="54.2966864" lon="-1.5579624"><ele>32.5</ele><time>2026-05-02T12:23:48.404Z</time></trkpt><trkpt lat="54.296831" lon="-1.5582986"><ele>32.0</ele><time>2026-05-02T12:23:49.405Z</time></trkpt><trkpt lat="54.2969752" lon="-1.5586402"><ele>32.0</ele><time>2026-05-02T12:23:50.405Z</time></trkpt><trkpt lat="54.2971195" lon="-1.558991"><ele>32.0</ele><time>2026-05-02T12:23:51.405Z</time></trkpt><trkpt lat="54.2972648" lon="-1.5593467"><ele>30.0</ele><time>2026-05-02T12:23:52.405Z</time></trkpt><trkpt lat="54.2974053" lon="-1.5597051"><ele>28.0</ele><time>2026-05-02T12:23:53.407Z</time></trkpt><trkpt lat="54.297543" lon="-1.5600666"><ele>28.5</ele><time>2026-05-02T12:23:54.406Z</time></trkpt><trkpt lat="54.2976776" lon="-1.5604293"><ele>29.0</ele><time>2026-05-02T12:23:55.405Z</time></trkpt><trkpt lat="54.2978067" lon="-1.5607927"><ele>29.0</ele><time>2026-05-02T12:23:56.408Z</time></trkpt><trkpt lat="54.2979356" lon="-1.56115"><ele>29.0</ele><time>2026-05-02T12:23:57.405Z</time></trkpt><trkpt lat="54.298068" lon="-1.5615094"><ele>31.5</ele><time>2026-05-02T12:23:58.405Z</time></trkpt><trkpt lat="54.2982042" lon="-1.5618672"><ele>34.0</ele><time>2026-05-02T12:23:59.406Z</time></trkpt><trkpt lat="54.2983434" lon="-1.562224"><ele>34.0</ele><time>2026-05-02T12:24:00.406Z</time></trkpt><trkpt lat="54.2984882" lon="-1.5625772"><ele>34.0</ele><time>2026-05-02T12:24:01.407Z</time></trkpt><trkpt lat="54.2986376" lon="-1.5629253"><ele>34.0</ele><time>2026-05-02T12:24:02.406Z</time></trkpt><trkpt lat="54.2987908" lon="-1.563269"><ele>34.0</ele><time>2026-05-02T12:24:03.405Z</time></trkpt><trkpt lat="54.2989492" lon="-1.5636134"><ele>34.5</ele><time>2026-05-02T12:24:04.405Z</time></trkpt><trkpt lat="54.2991082" lon="-1.5639437"><ele>35.0</ele><time>2026-05-02T12:24:05.406Z</time></trkpt><trkpt lat="54.2992608" lon="-1.5642519"><ele>35.5</ele><time>2026-05-02T12:24:06.406Z</time></trkpt><trkpt lat="54.2994092" lon="-1.5645476"><ele>36.0</ele><time>2026-05-02T12:24:07.404Z</time></trkpt><trkpt lat="54.2995591" lon="-1.5648302"><ele>36.0</ele><time>2026-05-02T12:24:08.406Z</time></trkpt><trkpt lat="54.2997065" lon="-1.5650989"><ele>36.0</ele><time>2026-05-02T12:24:09.405Z</time></trkpt><trkpt lat="54.2998552" lon="-1.5653565"><ele>36.0</ele><time>2026-05-02T12:24:10.405Z</time></trkpt><trkpt lat="54.3000072" lon="-1.5656075"><ele>36.666666666666664</ele><time>2026-05-02T12:24:11.406Z</time></trkpt><trkpt lat="54.300166" lon="-1.5658573"><ele>37.33333333333333</ele><time>2026-05-02T12:24:12.405Z</time></trkpt><trkpt lat="54.3003265" lon="-1.5661073"><ele>38.0</ele><time>2026-05-02T12:24:13.405Z</time></trkpt><trkpt lat="54.3004875" lon="-1.5663547"><ele>38.666666666666664</ele><time>2026-05-02T12:24:14.406Z</time></trkpt><trkpt lat="54.3006508" lon="-1.5665973"><ele>39.333333333333336</ele><time>2026-05-02T12:24:15.409Z</time></trkpt><trkpt lat="54.300817" lon="-1.5668342"><ele>40.0</ele><time>2026-05-02T12:24:16.405Z</time></trkpt><trkpt lat="54.3009887" lon="-1.5670732"><ele>41.0</ele><time>2026-05-02T12:24:17.406Z</time></trkpt><trkpt lat="54.3011695" lon="-1.5673116"><ele>42.0</ele><time>2026-05-02T12:24:18.407Z</time></trkpt><trkpt lat="54.3013522" lon="-1.5675437"><ele>41.5</ele><time>2026-05-02T12:24:19.405Z</time></trkpt><trkpt lat="54.3015372" lon="-1.5677681"><ele>41.0</ele><time>2026-05-02T12:24:20.405Z</time></trkpt><trkpt lat="54.3017238" lon="-1.5679853"><ele>41.666666666666664</ele><time>2026-05-02T12:24:21.406Z</time></trkpt><trkpt lat="54.301911" lon="-1.5681894"><ele>42.333333333333336</ele><time>2026-05-02T12:24:22.408Z</time></trkpt><trkpt lat="54.3020968" lon="-1.5683878"><ele>43.0</ele><time>2026-05-02T12:24:23.406Z</time></trkpt><trkpt lat="54.3022861" lon="-1.5685802"><ele>43.66666666666667</ele><time>2026-05-02T12:24:24.408Z</time></trkpt><trkpt lat="54.3024771" lon="-1.5687666"><ele>44.333333333333336</ele><time>2026-05-02T12:24:25.406Z</time></trkpt><trkpt lat="54.3026717" lon="-1.5689451"><ele>45.0</ele><time>2026-05-02T12:24:26.406Z</time></trkpt><trkpt lat="54.3028686" lon="-1.5691164"><ele>45.0</ele><time>2026-05-02T12:24:27.405Z</time></trkpt><trkpt lat="54.3030644" lon="-1.5692828"><ele>45.0</ele><time>2026-05-02T12:24:28.405Z</time></trkpt><trkpt lat="54.3032611" lon="-1.5694417"><ele>45.0</ele><time>2026-05-02T12:24:29.405Z</time></trkpt><trkpt lat="54.3034593" lon="-1.569593"><ele>45.666666666666664</ele><time>2026-05-02T12:24:30.405Z</time></trkpt><trkpt lat="54.3036607" lon="-1.569741"><ele>46.33333333333333</ele><time>2026-05-02T12:24:31.406Z</time></trkpt><trkpt lat="54.3038657" lon="-1.5698901"><ele>47.0</ele><time>2026-05-02T12:24:32.405Z</time></trkpt><trkpt lat="54.3040777" lon="-1.5700342"><ele>47.0</ele><time>2026-05-02T12:24:33.406Z</time></trkpt><trkpt lat="54.3042913" lon="-1.5701716"><ele>47.0</ele><time>2026-05-02T12:24:34.406Z</time></trkpt><trkpt lat="54.304507" lon="-1.570302"><ele>47.0</ele><time>2026-05-02T12:24:35.405Z</time></trkpt><trkpt lat="54.3047272" lon="-1.5704282"><ele>47.0</ele><time>2026-05-02T12:24:36.406Z</time></trkpt><trkpt lat="54.3049495" lon="-1.5705473"><ele>47.0</ele><time>2026-05-02T12:24:37.406Z</time></trkpt><trkpt lat="54.3051729" lon="-1.5706565"><ele>47.0</ele><time>2026-05-02T12:24:38.406Z</time></trkpt><trkpt lat="54.305398" lon="-1.5707596"><ele>47.5</ele><time>2026-05-02T12:24:39.405Z</time></trkpt><trkpt lat="54.3056276" lon="-1.5708604"><ele>48.0</ele><time>2026-05-02T12:24:40.405Z</time></trkpt><trkpt lat="54.3058638" lon="-1.5709579"><ele>48.0</ele><time>2026-05-02T12:24:41.406Z</time></trkpt><trkpt lat="54.3061064" lon="-1.5710475"><ele>48.0</ele><time>2026-05-02T12:24:42.406Z</time></trkpt><trkpt lat="54.3063492" lon="-1.5711267"><ele>49.0</ele><time>2026-05-02T12:24:43.405Z</time></trkpt><trkpt lat="54.3065912" lon="-1.5711905"><ele>50.0</ele><time>2026-05-02T12:24:44.405Z</time></trkpt><trkpt lat="54.3068313" lon="-1.5712404"><ele>50.0</ele><time>2026-05-02T12:24:45.401Z</time></trkpt><trkpt lat="54.3070714" lon="-1.5712838"><ele>50.0</ele><time>2026-05-02T12:24:46.402Z</time></trkpt><trkpt lat="54.3073103" lon="-1.5713231"><ele>50.5</ele><time>2026-05-02T12:24:47.406Z</time></trkpt><trkpt lat="54.3075451" lon="-1.5713557"><ele>51.0</ele><time>2026-05-02T12:24:48.407Z</time></trkpt><trkpt lat="54.3077798" lon="-1.5713768"><ele>51.0</ele><time>2026-05-02T12:24:49.406Z</time></trkpt><trkpt lat="54.3080134" lon="-1.5713879"><ele>51.0</ele><time>2026-05-02T12:24:50.406Z</time></trkpt><trkpt lat="54.3082482" lon="-1.5713838"><ele>51.0</ele><time>2026-05-02T12:24:51.405Z</time></trkpt><trkpt lat="54.3084804" lon="-1.5713758"><ele>51.0</ele><time>2026-05-02T12:24:52.405Z</time></trkpt><trkpt lat="54.3087119" lon="-1.5713662"><ele>51.5</ele><time>2026-05-02T12:24:53.406Z</time></trkpt><trkpt lat="54.3089409" lon="-1.5713548"><ele>52.0</ele><time>2026-05-02T12:24:54.406Z</time></trkpt><trkpt lat="54.3091709" lon="-1.5713335"><ele>52.0</ele><time>2026-05-02T12:24:55.406Z</time></trkpt><trkpt lat="54.3094022" lon="-1.5713134"><ele>52.0</ele><time>2026-05-02T12:24:56.406Z</time></trkpt><trkpt lat="54.3096364" lon="-1.5712975"><ele>52.5</ele><time>2026-05-02T12:24:57.405Z</time></trkpt><trkpt lat="54.309874" lon="-1.5712834"><ele>53.0</ele><time>2026-05-02T12:24:58.403Z</time></trkpt><trkpt lat="54.3101177" lon="-1.5712719"><ele>53.0</ele><time>2026-05-02T12:24:59.405Z</time></trkpt><trkpt lat="54.3103613" lon="-1.5712601"><ele>53.0</ele><time>2026-05-02T12:25:00.405Z</time></trkpt><trkpt lat="54.3105939" lon="-1.5712432"><ele>53.0</ele><time>2026-05-02T12:25:01.402Z</time></trkpt><trkpt lat="54.3108206" lon="-1.5712286"><ele>53.0</ele><time>2026-05-02T12:25:02.406Z</time></trkpt><trkpt lat="54.3110436" lon="-1.5712128"><ele>53.0</ele><time>2026-05-02T12:25:03.405Z</time></trkpt><trkpt lat="54.3112677" lon="-1.5712012"><ele>53.0</ele><time>2026-05-02T12:25:04.407Z</time></trkpt><trkpt lat="54.3114897" lon="-1.571196"><ele>53.0</ele><time>2026-05-02T12:25:05.402Z</time></trkpt><trkpt lat="54.3117106" lon="-1.5711976"><ele>53.333333333333336</ele><time>2026-05-02T12:25:06.404Z</time></trkpt><trkpt lat="54.3119301" lon="-1.5712012"><ele>53.66666666666667</ele><time>2026-05-02T12:25:07.405Z</time></trkpt><trkpt lat="54.3121484" lon="-1.5712036"><ele>54.0</ele><time>2026-05-02T12:25:08.402Z</time></trkpt><trkpt lat="54.3123696" lon="-1.5712103"><ele>55.0</ele><time>2026-05-02T12:25:09.405Z</time></trkpt><trkpt lat="54.3125911" lon="-1.5712257"><ele>56.0</ele><time>2026-05-02T12:25:10.405Z</time></trkpt><trkpt lat="54.3128145" lon="-1.5712475"><ele>57.0</ele><time>2026-05-02T12:25:11.405Z</time></trkpt><trkpt lat="54.3130425" lon="-1.5712726"><ele>58.5</ele><time>2026-05-02T12:25:12.405Z</time></trkpt><trkpt lat="54.313271" lon="-1.5713044"><ele>60.0</ele><time>2026-05-02T12:25:13.406Z</time></trkpt><trkpt lat="54.3134993" lon="-1.5713414"><ele>60.0</ele><time>2026-05-02T12:25:14.405Z</time></trkpt><trkpt lat="54.3137281" lon="-1.5713846"><ele>60.0</ele><time>2026-05-02T12:25:15.405Z</time></trkpt><trkpt lat="54.3139555" lon="-1.5714409"><ele>60.5</ele><time>2026-05-02T12:25:16.405Z</time></trkpt><trkpt lat="54.3141821" lon="-1.5715031"><ele>61.0</ele><time>2026-05-02T12:25:17.406Z</time></trkpt><trkpt lat="54.3144045" lon="-1.5715738"><ele>61.0</ele><time>2026-05-02T12:25:18.406Z</time></trkpt><trkpt lat="54.3146268" lon="-1.5716517"><ele>61.0</ele><time>2026-05-02T12:25:19.405Z</time></trkpt><trkpt lat="54.3148511" lon="-1.5717387"><ele>61.5</ele><time>2026-05-02T12:25:20.405Z</time></trkpt><trkpt lat="54.3150775" lon="-1.5718337"><ele>62.0</ele><time>2026-05-02T12:25:21.405Z</time></trkpt><trkpt lat="54.3153035" lon="-1.5719373"><ele>63.0</ele><time>2026-05-02T12:25:22.405Z</time></trkpt><trkpt lat="54.3155315" lon="-1.5720471"><ele>64.0</ele><time>2026-05-02T12:25:23.406Z</time></trkpt><trkpt lat="54.3157625" lon="-1.5721589"><ele>64.0</ele><time>2026-05-02T12:25:24.405Z</time></trkpt><trkpt lat="54.3159917" lon="-1.5722838"><ele>64.0</ele><time>2026-05-02T12:25:25.405Z</time></trkpt><trkpt lat="54.3162186" lon="-1.5724161"><ele>63.5</ele><time>2026-05-02T12:25:26.406Z</time></trkpt><trkpt lat="54.3164465" lon="-1.5725498"><ele>63.0</ele><time>2026-05-02T12:25:27.405Z</time></trkpt><trkpt lat="54.3166722" lon="-1.5726855"><ele>63.0</ele><time>2026-05-02T12:25:28.405Z</time></trkpt><trkpt lat="54.3168969" lon="-1.5728266"><ele>63.0</ele><time>2026-05-02T12:25:29.406Z</time></trkpt><trkpt lat="54.317123" lon="-1.5729755"><ele>63.5</ele><time>2026-05-02T12:25:30.406Z</time></trkpt><trkpt lat="54.3173483" lon="-1.5731344"><ele>64.0</ele><time>2026-05-02T12:25:31.405Z</time></trkpt><trkpt lat="54.3175734" lon="-1.5733062"><ele>64.0</ele><time>2026-05-02T12:25:32.405Z</time></trkpt><trkpt lat="54.3178" lon="-1.5734889"><ele>64.0</ele><time>2026-05-02T12:25:33.405Z</time></trkpt><trkpt lat="54.3180319" lon="-1.5736818"><ele>62.5</ele><time>2026-05-02T12:25:34.406Z</time></trkpt><trkpt lat="54.3182662" lon="-1.5738825"><ele>61.0</ele><time>2026-05-02T12:25:35.406Z</time></trkpt><trkpt lat="54.3184973" lon="-1.574088"><ele>61.0</ele><time>2026-05-02T12:25:36.406Z</time></trkpt><trkpt lat="54.3187235" lon="-1.5742994"><ele>61.0</ele><time>2026-05-02T12:25:37.405Z</time></trkpt><trkpt lat="54.3189443" lon="-1.574524"><ele>60.5</ele><time>2026-05-02T12:25:38.406Z</time></trkpt><trkpt lat="54.3191622" lon="-1.5747505"><ele>60.0</ele><time>2026-05-02T12:25:39.406Z</time></trkpt><trkpt lat="54.3193768" lon="-1.5749772"><ele>60.0</ele><time>2026-05-02T12:25:40.409Z</time></trkpt><trkpt lat="54.319587" lon="-1.5752107"><ele>60.0</ele><time>2026-05-02T12:25:41.405Z</time></trkpt><trkpt lat="54.3197928" lon="-1.575446"><ele>60.5</ele><time>2026-05-02T12:25:42.405Z</time></trkpt><trkpt lat="54.3199962" lon="-1.5756777"><ele>61.0</ele><time>2026-05-02T12:25:43.405Z</time></trkpt><trkpt lat="54.3201984" lon="-1.5759031"><ele>61.0</ele><time>2026-05-02T12:25:44.405Z</time></trkpt><trkpt lat="54.3204042" lon="-1.5761247"><ele>61.0</ele><time>2026-05-02T12:25:45.405Z</time></trkpt><trkpt lat="54.3206135" lon="-1.5763465"><ele>61.5</ele><time>2026-05-02T12:25:46.406Z</time></trkpt><trkpt lat="54.3208223" lon="-1.5765693"><ele>62.0</ele><time>2026-05-02T12:25:47.405Z</time></trkpt><trkpt lat="54.3210309" lon="-1.5767928"><ele>62.0</ele><time>2026-05-02T12:25:48.408Z</time></trkpt><trkpt lat="54.3212403" lon="-1.5770146"><ele>62.0</ele><time>2026-05-02T12:25:49.405Z</time></trkpt><trkpt lat="54.3214505" lon="-1.577238"><ele>61.5</ele><time>2026-05-02T12:25:50.408Z</time></trkpt><trkpt lat="54.3216614" lon="-1.5774627"><ele>61.0</ele><time>2026-05-02T12:25:51.407Z</time></trkpt><trkpt lat="54.3218755" lon="-1.5776897"><ele>61.0</ele><time>2026-05-02T12:25:52.409Z</time></trkpt><trkpt lat="54.3220876" lon="-1.577916"><ele>61.0</ele><time>2026-05-02T12:25:53.407Z</time></trkpt><trkpt lat="54.3222978" lon="-1.5781443"><ele>61.0</ele><time>2026-05-02T12:25:54.403Z</time></trkpt><trkpt lat="54.3225095" lon="-1.5783729"><ele>61.0</ele><time>2026-05-02T12:25:55.406Z</time></trkpt><trkpt lat="54.3227198" lon="-1.5785983"><ele>60.5</ele><time>2026-05-02T12:25:56.405Z</time></trkpt><trkpt lat="54.3229284" lon="-1.5788248"><ele>60.0</ele><time>2026-05-02T12:25:57.405Z</time></trkpt><trkpt lat="54.3231366" lon="-1.5790528"><ele>60.0</ele><time>2026-05-02T12:25:58.405Z</time></trkpt><trkpt lat="54.3233459" lon="-1.5792785"><ele>60.0</ele><time>2026-05-02T12:25:59.405Z</time></trkpt><trkpt lat="54.3235558" lon="-1.5794994"><ele>59.0</ele><time>2026-05-02T12:26:00.406Z</time></trkpt><trkpt lat="54.3237659" lon="-1.5797176"><ele>58.0</ele><time>2026-05-02T12:26:01.402Z</time></trkpt><trkpt lat="54.3239789" lon="-1.5799386"><ele>59.5</ele><time>2026-05-02T12:26:02.403Z</time></trkpt><trkpt lat="54.3241926" lon="-1.5801616"><ele>61.0</ele><time>2026-05-02T12:26:03.403Z</time></trkpt><trkpt lat="54.3244048" lon="-1.5803878"><ele>61.0</ele><time>2026-05-02T12:26:04.405Z</time></trkpt><trkpt lat="54.3246137" lon="-1.5806162"><ele>61.0</ele><time>2026-05-02T12:26:05.406Z</time></trkpt><trkpt lat="54.3248258" lon="-1.5808419"><ele>61.5</ele><time>2026-05-02T12:26:06.405Z</time></trkpt><trkpt lat="54.3250391" lon="-1.581068"><ele>62.0</ele><time>2026-05-02T12:26:07.406Z</time></trkpt><trkpt lat="54.3252513" lon="-1.5812962"><ele>62.0</ele><time>2026-05-02T12:26:08.406Z</time></trkpt><trkpt lat="54.3254635" lon="-1.5815239"><ele>62.0</ele><time>2026-05-02T12:26:09.405Z</time></trkpt><trkpt lat="54.3256753" lon="-1.5817465"><ele>61.5</ele><time>2026-05-02T12:26:10.406Z</time></trkpt><trkpt lat="54.3258858" lon="-1.5819662"><ele>61.0</ele><time>2026-05-02T12:26:11.405Z</time></trkpt><trkpt lat="54.3260967" lon="-1.5821895"><ele>60.0</ele><time>2026-05-02T12:26:12.406Z</time></trkpt><trkpt lat="54.3263078" lon="-1.5824165"><ele>59.0</ele><time>2026-05-02T12:26:13.405Z</time></trkpt><trkpt lat="54.3265217" lon="-1.582642"><ele>57.0</ele><time>2026-05-02T12:26:14.406Z</time></trkpt><trkpt lat="54.3267368" lon="-1.5828652"><ele>55.0</ele><time>2026-05-02T12:26:15.406Z</time></trkpt><trkpt lat="54.3269497" lon="-1.5830908"><ele>55.0</ele><time>2026-05-02T12:26:16.406Z</time></trkpt><trkpt lat="54.3271593" lon="-1.5833172"><ele>55.0</ele><time>2026-05-02T12:26:17.408Z</time></trkpt><trkpt lat="54.3273713" lon="-1.5835438"><ele>55.5</ele><time>2026-05-02T12:26:18.406Z</time></trkpt><trkpt lat="54.3275802" lon="-1.5837725"><ele>56.0</ele><time>2026-05-02T12:26:19.405Z</time></trkpt><trkpt lat="54.3277896" lon="-1.584001"><ele>56.0</ele><time>2026-05-02T12:26:20.406Z</time></trkpt><trkpt lat="54.3280009" lon="-1.5842287"><ele>56.0</ele><time>2026-05-02T12:26:21.408Z</time></trkpt><trkpt lat="54.3282136" lon="-1.5844556"><ele>55.0</ele><time>2026-05-02T12:26:22.406Z</time></trkpt><trkpt lat="54.3284258" lon="-1.5846826"><ele>54.0</ele><time>2026-05-02T12:26:23.406Z</time></trkpt><trkpt lat="54.3286387" lon="-1.5849104"><ele>54.0</ele><time>2026-05-02T12:26:24.405Z</time></trkpt><trkpt lat="54.3288493" lon="-1.5851372"><ele>54.0</ele><time>2026-05-02T12:26:25.406Z</time></trkpt><trkpt lat="54.3290583" lon="-1.5853651"><ele>53.5</ele><time>2026-05-02T12:26:26.405Z</time></trkpt><trkpt lat="54.3292657" lon="-1.5855951"><ele>53.0</ele><time>2026-05-02T12:26:27.408Z</time></trkpt><trkpt lat="54.329472" lon="-1.5858284"><ele>53.0</ele><time>2026-05-02T12:26:28.405Z</time></trkpt><trkpt lat="54.3296782" lon="-1.5860645"><ele>53.0</ele><time>2026-05-02T12:26:29.406Z</time></trkpt><trkpt lat="54.3298808" lon="-1.5863042"><ele>51.5</ele><time>2026-05-02T12:26:30.406Z</time></trkpt><trkpt lat="54.3300861" lon="-1.5865457"><ele>50.0</ele><time>2026-05-02T12:26:31.407Z</time></trkpt><trkpt lat="54.3302946" lon="-1.586786"><ele>50.0</ele><time>2026-05-02T12:26:32.406Z</time></trkpt><trkpt lat="54.3305034" lon="-1.5870293"><ele>50.0</ele><time>2026-05-02T12:26:33.406Z</time></trkpt><trkpt lat="54.3307105" lon="-1.587274"><ele>50.5</ele><time>2026-05-02T12:26:34.406Z</time></trkpt><trkpt lat="54.3309146" lon="-1.5875254"><ele>51.0</ele><time>2026-05-02T12:26:35.405Z</time></trkpt><trkpt lat="54.3311165" lon="-1.5877758"><ele>51.0</ele><time>2026-05-02T12:26:36.405Z</time></trkpt><trkpt lat="54.3313174" lon="-1.5880234"><ele>51.0</ele><time>2026-05-02T12:26:37.405Z</time></trkpt><trkpt lat="54.3315222" lon="-1.5882686"><ele>51.5</ele><time>2026-05-02T12:26:38.405Z</time></trkpt><trkpt lat="54.3317212" lon="-1.588518"><ele>52.0</ele><time>2026-05-02T12:26:39.405Z</time></trkpt><trkpt lat="54.331919" lon="-1.588771"><ele>52.0</ele><time>2026-05-02T12:26:40.406Z</time></trkpt><trkpt lat="54.3321202" lon="-1.5890184"><ele>52.0</ele><time>2026-05-02T12:26:41.405Z</time></trkpt><trkpt lat="54.3323246" lon="-1.5892578"><ele>52.0</ele><time>2026-05-02T12:26:42.406Z</time></trkpt><trkpt lat="54.3325271" lon="-1.589495"><ele>52.0</ele><time>2026-05-02T12:26:43.405Z</time></trkpt><trkpt lat="54.3327312" lon="-1.5897316"><ele>52.0</ele><time>2026-05-02T12:26:44.407Z</time></trkpt><trkpt lat="54.3329373" lon="-1.5899694"><ele>52.0</ele><time>2026-05-02T12:26:45.406Z</time></trkpt><trkpt lat="54.3331445" lon="-1.590205"><ele>51.0</ele><time>2026-05-02T12:26:46.406Z</time></trkpt><trkpt lat="54.3333493" lon="-1.5904414"><ele>50.0</ele><time>2026-05-02T12:26:47.406Z</time></trkpt><trkpt lat="54.3335529" lon="-1.5906781"><ele>50.0</ele><time>2026-05-02T12:26:48.405Z</time></trkpt><trkpt lat="54.3337575" lon="-1.5909131"><ele>50.0</ele><time>2026-05-02T12:26:49.406Z</time></trkpt><trkpt lat="54.3339631" lon="-1.5911432"><ele>51.5</ele><time>2026-05-02T12:26:50.406Z</time></trkpt><trkpt lat="54.3341721" lon="-1.5913689"><ele>53.0</ele><time>2026-05-02T12:26:51.406Z</time></trkpt><trkpt lat="54.3343845" lon="-1.5915919"><ele>53.0</ele><time>2026-05-02T12:26:52.405Z</time></trkpt><trkpt lat="54.3345957" lon="-1.5918121"><ele>53.0</ele><time>2026-05-02T12:26:53.406Z</time></trkpt><trkpt lat="54.3348097" lon="-1.5920332"><ele>55.0</ele><time>2026-05-02T12:26:54.406Z</time></trkpt><trkpt lat="54.3350227" lon="-1.5922555"><ele>57.0</ele><time>2026-05-02T12:26:55.408Z</time></trkpt><trkpt lat="54.3352378" lon="-1.5924753"><ele>57.0</ele><time>2026-05-02T12:26:56.406Z</time></trkpt><trkpt lat="54.3354544" lon="-1.5926923"><ele>57.0</ele><time>2026-05-02T12:26:57.407Z</time></trkpt><trkpt lat="54.3356714" lon="-1.5929046"><ele>59.0</ele><time>2026-05-02T12:26:58.404Z</time></trkpt><trkpt lat="54.3358895" lon="-1.593115"><ele>61.0</ele><time>2026-05-02T12:26:59.402Z</time></trkpt><trkpt lat="54.3361123" lon="-1.5933244"><ele>61.0</ele><time>2026-05-02T12:27:00.402Z</time></trkpt><trkpt lat="54.336337" lon="-1.5935436"><ele>61.0</ele><time>2026-05-02T12:27:01.402Z</time></trkpt><trkpt lat="54.3365661" lon="-1.5937699"><ele>59.5</ele><time>2026-05-02T12:27:02.404Z</time></trkpt><trkpt lat="54.3367965" lon="-1.5939999"><ele>58.0</ele><time>2026-05-02T12:27:03.402Z</time></trkpt><trkpt lat="54.3370275" lon="-1.5942317"><ele>56.5</ele><time>2026-05-02T12:27:04.403Z</time></trkpt><trkpt lat="54.3372592" lon="-1.5944623"><ele>55.0</ele><time>2026-05-02T12:27:05.403Z</time></trkpt><trkpt lat="54.3374909" lon="-1.5946913"><ele>54.5</ele><time>2026-05-02T12:27:06.404Z</time></trkpt><trkpt lat="54.3377197" lon="-1.5949205"><ele>54.0</ele><time>2026-05-02T12:27:07.402Z</time></trkpt><trkpt lat="54.3379492" lon="-1.595149"><ele>54.0</ele><time>2026-05-02T12:27:08.402Z</time></trkpt><trkpt lat="54.3381751" lon="-1.59538"><ele>54.0</ele><time>2026-05-02T12:27:09.403Z</time></trkpt><trkpt lat="54.3384013" lon="-1.5956137"><ele>54.0</ele><time>2026-05-02T12:27:10.403Z</time></trkpt><trkpt lat="54.3386267" lon="-1.5958468"><ele>54.0</ele><time>2026-05-02T12:27:11.402Z</time></trkpt><trkpt lat="54.338853" lon="-1.5960796"><ele>54.5</ele><time>2026-05-02T12:27:12.402Z</time></trkpt><trkpt lat="54.3390795" lon="-1.5963148"><ele>55.0</ele><time>2026-05-02T12:27:13.403Z</time></trkpt><trkpt lat="54.3393034" lon="-1.5965512"><ele>55.0</ele><time>2026-05-02T12:27:14.403Z</time></trkpt><trkpt lat="54.3395319" lon="-1.5967869"><ele>55.0</ele><time>2026-05-02T12:27:15.406Z</time></trkpt><trkpt lat="54.3397603" lon="-1.5970234"><ele>54.5</ele><time>2026-05-02T12:27:16.405Z</time></trkpt><trkpt lat="54.3399837" lon="-1.5972598"><ele>54.0</ele><time>2026-05-02T12:27:17.406Z</time></trkpt><trkpt lat="54.3402065" lon="-1.5974964"><ele>54.0</ele><time>2026-05-02T12:27:18.404Z</time></trkpt><trkpt lat="54.3404269" lon="-1.5977352"><ele>54.0</ele><time>2026-05-02T12:27:19.405Z</time></trkpt><trkpt lat="54.3406467" lon="-1.5979725"><ele>54.0</ele><time>2026-05-02T12:27:20.404Z</time></trkpt><trkpt lat="54.3408666" lon="-1.5982107"><ele>54.0</ele><time>2026-05-02T12:27:21.403Z</time></trkpt><trkpt lat="54.3410855" lon="-1.5984529"><ele>54.0</ele><time>2026-05-02T12:27:22.403Z</time></trkpt><trkpt lat="54.3413064" lon="-1.5986947"><ele>54.0</ele><time>2026-05-02T12:27:23.403Z</time></trkpt><trkpt lat="54.341527" lon="-1.5989349"><ele>54.5</ele><time>2026-05-02T12:27:24.403Z</time></trkpt><trkpt lat="54.3417509" lon="-1.5991746"><ele>55.0</ele><time>2026-05-02T12:27:25.405Z</time></trkpt><trkpt lat="54.3419732" lon="-1.5994178"><ele>55.0</ele><time>2026-05-02T12:27:26.408Z</time></trkpt><trkpt lat="54.3421933" lon="-1.5996614"><ele>55.0</ele><time>2026-05-02T12:27:27.404Z</time></trkpt><trkpt lat="54.3424133" lon="-1.599908"><ele>55.5</ele><time>2026-05-02T12:27:28.403Z</time></trkpt><trkpt lat="54.3426338" lon="-1.60015"><ele>56.0</ele><time>2026-05-02T12:27:29.405Z</time></trkpt><trkpt lat="54.3428578" lon="-1.6003879"><ele>57.0</ele><time>2026-05-02T12:27:30.405Z</time></trkpt><trkpt lat="54.3430838" lon="-1.6006234"><ele>58.0</ele><time>2026-05-02T12:27:31.405Z</time></trkpt><trkpt lat="54.3433079" lon="-1.6008624"><ele>58.0</ele><time>2026-05-02T12:27:32.405Z</time></trkpt><trkpt lat="54.3435312" lon="-1.6011075"><ele>58.0</ele><time>2026-05-02T12:27:33.406Z</time></trkpt><trkpt lat="54.3437543" lon="-1.601359"><ele>57.5</ele><time>2026-05-02T12:27:34.405Z</time></trkpt><trkpt lat="54.3439788" lon="-1.6016074"><ele>57.0</ele><time>2026-05-02T12:27:35.406Z</time></trkpt><trkpt lat="54.3442036" lon="-1.6018525"><ele>57.5</ele><time>2026-05-02T12:27:36.403Z</time></trkpt><trkpt lat="54.3444306" lon="-1.6020969"><ele>58.0</ele><time>2026-05-02T12:27:37.407Z</time></trkpt><trkpt lat="54.3446536" lon="-1.6023398"><ele>57.0</ele><time>2026-05-02T12:27:38.405Z</time></trkpt><trkpt lat="54.3448758" lon="-1.6025836"><ele>56.0</ele><time>2026-05-02T12:27:39.407Z</time></trkpt><trkpt lat="54.3450972" lon="-1.602828"><ele>56.5</ele><time>2026-05-02T12:27:40.405Z</time></trkpt><trkpt lat="54.3453176" lon="-1.6030729"><ele>57.0</ele><time>2026-05-02T12:27:41.406Z</time></trkpt><trkpt lat="54.3455375" lon="-1.6033177"><ele>57.0</ele><time>2026-05-02T12:27:42.406Z</time></trkpt><trkpt lat="54.3457597" lon="-1.60356"><ele>57.0</ele><time>2026-05-02T12:27:43.405Z</time></trkpt><trkpt lat="54.3459831" lon="-1.6038034"><ele>58.0</ele><time>2026-05-02T12:27:44.409Z</time></trkpt><trkpt lat="54.3462075" lon="-1.6040479"><ele>59.0</ele><time>2026-05-02T12:27:45.406Z</time></trkpt><trkpt lat="54.3464315" lon="-1.6042943"><ele>60.0</ele><time>2026-05-02T12:27:46.406Z</time></trkpt><trkpt lat="54.3466538" lon="-1.6045409"><ele>61.0</ele><time>2026-05-02T12:27:47.406Z</time></trkpt><trkpt lat="54.3468768" lon="-1.6047887"><ele>61.0</ele><time>2026-05-02T12:27:48.403Z</time></trkpt><trkpt lat="54.3470986" lon="-1.6050373"><ele>61.0</ele><time>2026-05-02T12:27:49.403Z</time></trkpt><trkpt lat="54.3473202" lon="-1.605285"><ele>57.0</ele><time>2026-05-02T12:27:50.404Z</time></trkpt><trkpt lat="54.3475427" lon="-1.6055302"><ele>53.0</ele><time>2026-05-02T12:27:51.403Z</time></trkpt><trkpt lat="54.3477643" lon="-1.6057759"><ele>53.0</ele><time>2026-05-02T12:27:52.403Z</time></trkpt><trkpt lat="54.3479845" lon="-1.6060224"><ele>53.0</ele><time>2026-05-02T12:27:53.403Z</time></trkpt><trkpt lat="54.3482046" lon="-1.606268"><ele>52.5</ele><time>2026-05-02T12:27:54.404Z</time></trkpt><trkpt lat="54.3484246" lon="-1.6065144"><ele>52.0</ele><time>2026-05-02T12:27:55.404Z</time></trkpt><trkpt lat="54.3486449" lon="-1.6067619"><ele>52.0</ele><time>2026-05-02T12:27:56.403Z</time></trkpt><trkpt lat="54.348864" lon="-1.6070105"><ele>52.0</ele><time>2026-05-02T12:27:57.404Z</time></trkpt><trkpt lat="54.3490836" lon="-1.6072593"><ele>52.0</ele><time>2026-05-02T12:27:58.403Z</time></trkpt><trkpt lat="54.3493064" lon="-1.6075077"><ele>52.0</ele><time>2026-05-02T12:27:59.407Z</time></trkpt><trkpt lat="54.3495255" lon="-1.6077591"><ele>51.5</ele><time>2026-05-02T12:28:00.407Z</time></trkpt><trkpt lat="54.3497437" lon="-1.6080107"><ele>51.0</ele><time>2026-05-02T12:28:01.406Z</time></trkpt><trkpt lat="54.349962" lon="-1.6082599"><ele>51.0</ele><time>2026-05-02T12:28:02.407Z</time></trkpt><trkpt lat="54.3501813" lon="-1.6085071"><ele>51.0</ele><time>2026-05-02T12:28:03.405Z</time></trkpt><trkpt lat="54.3504" lon="-1.6087564"><ele>50.5</ele><time>2026-05-02T12:28:04.406Z</time></trkpt><trkpt lat="54.3506198" lon="-1.6090064"><ele>50.0</ele><time>2026-05-02T12:28:05.405Z</time></trkpt><trkpt lat="54.3508413" lon="-1.6092569"><ele>51.0</ele><time>2026-05-02T12:28:06.405Z</time></trkpt><trkpt lat="54.351063" lon="-1.6095059"><ele>52.0</ele><time>2026-05-02T12:28:07.407Z</time></trkpt><trkpt lat="54.3512834" lon="-1.6097555"><ele>51.0</ele><time>2026-05-02T12:28:08.408Z</time></trkpt><trkpt lat="54.3515031" lon="-1.6100037"><ele>50.0</ele><time>2026-05-02T12:28:09.406Z</time></trkpt><trkpt lat="54.3517203" lon="-1.6102559"><ele>52.0</ele><time>2026-05-02T12:28:10.406Z</time></trkpt><trkpt lat="54.3519355" lon="-1.6105097"><ele>54.0</ele><time>2026-05-02T12:28:11.407Z</time></trkpt><trkpt lat="54.3521517" lon="-1.6107617"><ele>54.5</ele><time>2026-05-02T12:28:12.41Z</time></trkpt><trkpt lat="54.3523717" lon="-1.6110167"><ele>55.0</ele><time>2026-05-02T12:28:13.407Z</time></trkpt><trkpt lat="54.35259" lon="-1.61127"><ele>55.0</ele><time>2026-05-02T12:28:14.405Z</time></trkpt><trkpt lat="54.3528067" lon="-1.611525"><ele>55.0</ele><time>2026-05-02T12:28:15.406Z</time></trkpt><trkpt lat="54.3530283" lon="-1.61178"><ele>53.0</ele><time>2026-05-02T12:28:16.406Z</time></trkpt><trkpt lat="54.3532483" lon="-1.6120317"><ele>51.0</ele><time>2026-05-02T12:28:17.406Z</time></trkpt><trkpt lat="54.3534667" lon="-1.6122833"><ele>51.0</ele><time>2026-05-02T12:28:18.403Z</time></trkpt><trkpt lat="54.3536883" lon="-1.612535"><ele>51.0</ele><time>2026-05-02T12:28:19.402Z</time></trkpt><trkpt lat="54.3539083" lon="-1.6127883"><ele>49.0</ele><time>2026-05-02T12:28:20.402Z</time></trkpt><trkpt lat="54.35413" lon="-1.6130417"><ele>47.0</ele><time>2026-05-02T12:28:21.402Z</time></trkpt><trkpt lat="54.35435" lon="-1.613295"><ele>47.0</ele><time>2026-05-02T12:28:22.402Z</time></trkpt><trkpt lat="54.3545717" lon="-1.6135483"><ele>47.0</ele><time>2026-05-02T12:28:23.404Z</time></trkpt><trkpt lat="54.3547883" lon="-1.6138017"><ele>47.5</ele><time>2026-05-02T12:28:24.403Z</time></trkpt><trkpt lat="54.355005" lon="-1.614055"><ele>48.0</ele><time>2026-05-02T12:28:25.403Z</time></trkpt><trkpt lat="54.355225" lon="-1.6143033"><ele>48.0</ele><time>2026-05-02T12:28:26.407Z</time></trkpt><trkpt lat="54.3554417" lon="-1.614555"><ele>48.0</ele><time>2026-05-02T12:28:27.404Z</time></trkpt><trkpt lat="54.35566" lon="-1.6148083"><ele>50.5</ele><time>2026-05-02T12:28:28.401Z</time></trkpt><trkpt lat="54.3558817" lon="-1.6150617"><ele>53.0</ele><time>2026-05-02T12:28:29.407Z</time></trkpt><trkpt lat="54.3561033" lon="-1.615315"><ele>54.0</ele><time>2026-05-02T12:28:30.406Z</time></trkpt><trkpt lat="54.356325" lon="-1.6155667"><ele>55.0</ele><time>2026-05-02T12:28:31.406Z</time></trkpt><trkpt lat="54.356545" lon="-1.6158183"><ele>55.5</ele><time>2026-05-02T12:28:32.405Z</time></trkpt><trkpt lat="54.3567633" lon="-1.6160733"><ele>56.0</ele><time>2026-05-02T12:28:33.406Z</time></trkpt><trkpt lat="54.35698" lon="-1.6163283"><ele>56.0</ele><time>2026-05-02T12:28:34.406Z</time></trkpt><trkpt lat="54.357195" lon="-1.616585"><ele>56.0</ele><time>2026-05-02T12:28:35.406Z</time></trkpt><trkpt lat="54.35741" lon="-1.6168467"><ele>56.5</ele><time>2026-05-02T12:28:36.405Z</time></trkpt><trkpt lat="54.3576267" lon="-1.6171083"><ele>57.0</ele><time>2026-05-02T12:28:37.406Z</time></trkpt><trkpt lat="54.3578433" lon="-1.6173733"><ele>57.5</ele><time>2026-05-02T12:28:38.407Z</time></trkpt><trkpt lat="54.3580533" lon="-1.6176467"><ele>58.0</ele><time>2026-05-02T12:28:39.406Z</time></trkpt><trkpt lat="54.3582617" lon="-1.6179283"><ele>58.0</ele><time>2026-05-02T12:28:40.406Z</time></trkpt><trkpt lat="54.3584667" lon="-1.618215"><ele>58.0</ele><time>2026-05-02T12:28:41.405Z</time></trkpt><trkpt lat="54.3586683" lon="-1.6185067"><ele>58.0</ele><time>2026-05-02T12:28:42.406Z</time></trkpt><trkpt lat="54.3588667" lon="-1.618805"><ele>58.0</ele><time>2026-05-02T12:28:43.406Z</time></trkpt><trkpt lat="54.3590583" lon="-1.6191117"><ele>57.5</ele><time>2026-05-02T12:28:44.406Z</time></trkpt><trkpt lat="54.359245" lon="-1.6194233"><ele>57.0</ele><time>2026-05-02T12:28:45.406Z</time></trkpt><trkpt lat="54.3594267" lon="-1.6197417"><ele>57.0</ele><time>2026-05-02T12:28:46.406Z</time></trkpt><trkpt lat="54.35961" lon="-1.620065"><ele>57.0</ele><time>2026-05-02T12:28:47.409Z</time></trkpt><trkpt lat="54.3597883" lon="-1.6203983"><ele>56.0</ele><time>2026-05-02T12:28:48.403Z</time></trkpt><trkpt lat="54.3599617" lon="-1.6207367"><ele>55.0</ele><time>2026-05-02T12:28:49.403Z</time></trkpt><trkpt lat="54.36013" lon="-1.6210833"><ele>55.5</ele><time>2026-05-02T12:28:50.405Z</time></trkpt><trkpt lat="54.36029" lon="-1.6214367"><ele>56.0</ele><time>2026-05-02T12:28:51.403Z</time></trkpt><trkpt lat="54.3604483" lon="-1.6217967"><ele>56.5</ele><time>2026-05-02T12:28:52.402Z</time></trkpt><trkpt lat="54.360605" lon="-1.6221617"><ele>57.0</ele><time>2026-05-02T12:28:53.403Z</time></trkpt><trkpt lat="54.3607633" lon="-1.6225283"><ele>58.5</ele><time>2026-05-02T12:28:54.402Z</time></trkpt><trkpt lat="54.360915" lon="-1.622905"><ele>60.0</ele><time>2026-05-02T12:28:55.402Z</time></trkpt><trkpt lat="54.3610583" lon="-1.6232867"><ele>60.5</ele><time>2026-05-02T12:28:56.402Z</time></trkpt><trkpt lat="54.361195" lon="-1.6236733"><ele>61.0</ele><time>2026-05-02T12:28:57.402Z</time></trkpt><trkpt lat="54.36133" lon="-1.6240633"><ele>60.5</ele><time>2026-05-02T12:28:58.404Z</time></trkpt><trkpt lat="54.3614617" lon="-1.6244533"><ele>60.0</ele><time>2026-05-02T12:28:59.406Z</time></trkpt><trkpt lat="54.3615917" lon="-1.6248417"><ele>60.0</ele><time>2026-05-02T12:29:00.406Z</time></trkpt><trkpt lat="54.3617233" lon="-1.62523"><ele>60.0</ele><time>2026-05-02T12:29:01.406Z</time></trkpt><trkpt lat="54.3618583" lon="-1.62562"><ele>60.5</ele><time>2026-05-02T12:29:02.405Z</time></trkpt><trkpt lat="54.3619967" lon="-1.6260067"><ele>61.0</ele><time>2026-05-02T12:29:03.407Z</time></trkpt><trkpt lat="54.3621367" lon="-1.6263883"><ele>62.0</ele><time>2026-05-02T12:29:04.406Z</time></trkpt><trkpt lat="54.3622833" lon="-1.6267633"><ele>63.0</ele><time>2026-05-02T12:29:05.406Z</time></trkpt><trkpt lat="54.362435" lon="-1.6271317"><ele>63.5</ele><time>2026-05-02T12:29:06.408Z</time></trkpt><trkpt lat="54.3625917" lon="-1.627495"><ele>64.0</ele><time>2026-05-02T12:29:07.406Z</time></trkpt><trkpt lat="54.3627467" lon="-1.6278567"><ele>64.0</ele><time>2026-05-02T12:29:08.406Z</time></trkpt><trkpt lat="54.3629083" lon="-1.6282133"><ele>64.0</ele><time>2026-05-02T12:29:09.405Z</time></trkpt><trkpt lat="54.3630733" lon="-1.6285617"><ele>63.5</ele><time>2026-05-02T12:29:10.405Z</time></trkpt><trkpt lat="54.363245" lon="-1.6289033"><ele>63.0</ele><time>2026-05-02T12:29:11.406Z</time></trkpt><trkpt lat="54.3634217" lon="-1.62924"><ele>63.5</ele><time>2026-05-02T12:29:12.406Z</time></trkpt><trkpt lat="54.363605" lon="-1.6295683"><ele>64.0</ele><time>2026-05-02T12:29:13.406Z</time></trkpt><trkpt lat="54.3637933" lon="-1.6298883"><ele>63.5</ele><time>2026-05-02T12:29:14.406Z</time></trkpt><trkpt lat="54.3639833" lon="-1.6302033"><ele>63.0</ele><time>2026-05-02T12:29:15.406Z</time></trkpt><trkpt lat="54.3641783" lon="-1.6305133"><ele>63.0</ele><time>2026-05-02T12:29:16.406Z</time></trkpt><trkpt lat="54.3643733" lon="-1.63082"><ele>63.0</ele><time>2026-05-02T12:29:17.403Z</time></trkpt><trkpt lat="54.3645733" lon="-1.631115"><ele>62.5</ele><time>2026-05-02T12:29:18.402Z</time></trkpt><trkpt lat="54.3647783" lon="-1.6314017"><ele>62.0</ele><time>2026-05-02T12:29:19.403Z</time></trkpt><trkpt lat="54.3649867" lon="-1.6316817"><ele>62.0</ele><time>2026-05-02T12:29:20.402Z</time></trkpt><trkpt lat="54.3651983" lon="-1.631955"><ele>62.0</ele><time>2026-05-02T12:29:21.403Z</time></trkpt><trkpt lat="54.3654133" lon="-1.632225"><ele>61.0</ele><time>2026-05-02T12:29:22.402Z</time></trkpt><trkpt lat="54.3656317" lon="-1.6324883"><ele>60.0</ele><time>2026-05-02T12:29:23.401Z</time></trkpt><trkpt lat="54.3658517" lon="-1.632745"><ele>61.5</ele><time>2026-05-02T12:29:24.406Z</time></trkpt><trkpt lat="54.366075" lon="-1.632995"><ele>63.0</ele><time>2026-05-02T12:29:25.406Z</time></trkpt><trkpt lat="54.3663" lon="-1.633235"><ele>61.5</ele><time>2026-05-02T12:29:26.406Z</time></trkpt><trkpt lat="54.36653" lon="-1.6334617"><ele>60.0</ele><time>2026-05-02T12:29:27.406Z</time></trkpt><trkpt lat="54.3667583" lon="-1.6336833"><ele>60.0</ele><time>2026-05-02T12:29:28.406Z</time></trkpt><trkpt lat="54.36699" lon="-1.6339017"><ele>60.0</ele><time>2026-05-02T12:29:29.406Z</time></trkpt><trkpt lat="54.3672267" lon="-1.6341083"><ele>61.0</ele><time>2026-05-02T12:29:30.405Z</time></trkpt><trkpt lat="54.367465" lon="-1.6343067"><ele>62.0</ele><time>2026-05-02T12:29:31.405Z</time></trkpt><trkpt lat="54.3677067" lon="-1.63449"><ele>62.0</ele><time>2026-05-02T12:29:32.405Z</time></trkpt><trkpt lat="54.3679467" lon="-1.6346667"><ele>62.0</ele><time>2026-05-02T12:29:33.405Z</time></trkpt><trkpt lat="54.3681883" lon="-1.63484"><ele>61.5</ele><time>2026-05-02T12:29:34.405Z</time></trkpt><trkpt lat="54.3684333" lon="-1.6350133"><ele>61.0</ele><time>2026-05-02T12:29:35.407Z</time></trkpt><trkpt lat="54.3686767" lon="-1.6351917"><ele>61.0</ele><time>2026-05-02T12:29:36.405Z</time></trkpt><trkpt lat="54.36892" lon="-1.635375"><ele>61.0</ele><time>2026-05-02T12:29:37.406Z</time></trkpt><trkpt lat="54.36916" lon="-1.6355633"><ele>61.0</ele><time>2026-05-02T12:29:38.406Z</time></trkpt><trkpt lat="54.3693967" lon="-1.6357567"><ele>61.0</ele><time>2026-05-02T12:29:39.405Z</time></trkpt><trkpt lat="54.3696317" lon="-1.635955"><ele>61.0</ele><time>2026-05-02T12:29:40.403Z</time></trkpt><trkpt lat="54.3698667" lon="-1.6361617"><ele>61.0</ele><time>2026-05-02T12:29:41.402Z</time></trkpt><trkpt lat="54.3700983" lon="-1.63638"><ele>61.0</ele><time>2026-05-02T12:29:42.407Z</time></trkpt><trkpt lat="54.3703233" lon="-1.6366067"><ele>61.0</ele><time>2026-05-02T12:29:43.405Z</time></trkpt><trkpt lat="54.3705517" lon="-1.6368417"><ele>60.0</ele><time>2026-05-02T12:29:44.405Z</time></trkpt><trkpt lat="54.370775" lon="-1.6370867"><ele>59.0</ele><time>2026-05-02T12:29:45.406Z</time></trkpt><trkpt lat="54.370995" lon="-1.6373367"><ele>59.0</ele><time>2026-05-02T12:29:46.405Z</time></trkpt><trkpt lat="54.3712117" lon="-1.6375917"><ele>59.0</ele><time>2026-05-02T12:29:47.403Z</time></trkpt><trkpt lat="54.371425" lon="-1.637855"><ele>59.0</ele><time>2026-05-02T12:29:48.404Z</time></trkpt><trkpt lat="54.3716333" lon="-1.6381283"><ele>59.0</ele><time>2026-05-02T12:29:49.403Z</time></trkpt><trkpt lat="54.37184" lon="-1.6384083"><ele>59.0</ele><time>2026-05-02T12:29:50.406Z</time></trkpt><trkpt lat="54.3720417" lon="-1.638695"><ele>59.0</ele><time>2026-05-02T12:29:51.402Z</time></trkpt><trkpt lat="54.3722417" lon="-1.638985"><ele>59.0</ele><time>2026-05-02T12:29:52.403Z</time></trkpt><trkpt lat="54.3724417" lon="-1.6392833"><ele>59.0</ele><time>2026-05-02T12:29:53.403Z</time></trkpt><trkpt lat="54.3726333" lon="-1.63959"><ele>60.5</ele><time>2026-05-02T12:29:54.405Z</time></trkpt><trkpt lat="54.37282" lon="-1.6399067"><ele>62.0</ele><time>2026-05-02T12:29:55.406Z</time></trkpt><trkpt lat="54.3730033" lon="-1.6402317"><ele>62.0</ele><time>2026-05-02T12:29:56.405Z</time></trkpt><trkpt lat="54.3731817" lon="-1.640565"><ele>62.0</ele><time>2026-05-02T12:29:57.405Z</time></trkpt><trkpt lat="54.373355" lon="-1.640905"><ele>63.5</ele><time>2026-05-02T12:29:58.403Z</time></trkpt><trkpt lat="54.3735267" lon="-1.64125"><ele>65.0</ele><time>2026-05-02T12:29:59.402Z</time></trkpt><trkpt lat="54.3736967" lon="-1.6415983"><ele>64.5</ele><time>2026-05-02T12:30:00.403Z</time></trkpt><trkpt lat="54.3738633" lon="-1.6419517"><ele>64.0</ele><time>2026-05-02T12:30:01.403Z</time></trkpt><trkpt lat="54.374025" lon="-1.64231"><ele>64.0</ele><time>2026-05-02T12:30:02.403Z</time></trkpt><trkpt lat="54.3741833" lon="-1.6426733"><ele>64.0</ele><time>2026-05-02T12:30:03.402Z</time></trkpt><trkpt lat="54.3743333" lon="-1.6430433"><ele>65.0</ele><time>2026-05-02T12:30:04.403Z</time></trkpt><trkpt lat="54.37448" lon="-1.64342"><ele>66.0</ele><time>2026-05-02T12:30:05.403Z</time></trkpt><trkpt lat="54.37462" lon="-1.6438"><ele>65.0</ele><time>2026-05-02T12:30:06.403Z</time></trkpt><trkpt lat="54.3747567" lon="-1.644185"><ele>64.0</ele><time>2026-05-02T12:30:07.403Z</time></trkpt><trkpt lat="54.374895" lon="-1.64457"><ele>66.0</ele><time>2026-05-02T12:30:08.403Z</time></trkpt><trkpt lat="54.3750317" lon="-1.6449567"><ele>68.0</ele><time>2026-05-02T12:30:09.403Z</time></trkpt><trkpt lat="54.37517" lon="-1.6453467"><ele>69.0</ele><time>2026-05-02T12:30:10.402Z</time></trkpt><trkpt lat="54.37531" lon="-1.6457317"><ele>70.0</ele><time>2026-05-02T12:30:11.407Z</time></trkpt><trkpt lat="54.3754567" lon="-1.646105"><ele>69.0</ele><time>2026-05-02T12:30:12.406Z</time></trkpt><trkpt lat="54.37561" lon="-1.6464717"><ele>68.0</ele><time>2026-05-02T12:30:13.406Z</time></trkpt><trkpt lat="54.37577" lon="-1.64683"><ele>68.0</ele><time>2026-05-02T12:30:14.406Z</time></trkpt><trkpt lat="54.3759333" lon="-1.647185"><ele>68.0</ele><time>2026-05-02T12:30:15.406Z</time></trkpt><trkpt lat="54.3761033" lon="-1.647535"><ele>67.0</ele><time>2026-05-02T12:30:16.406Z</time></trkpt><trkpt lat="54.3762783" lon="-1.647875"><ele>66.0</ele><time>2026-05-02T12:30:17.406Z</time></trkpt><trkpt lat="54.3764617" lon="-1.6482033"><ele>65.0</ele><time>2026-05-02T12:30:18.407Z</time></trkpt><trkpt lat="54.3766483" lon="-1.6485233"><ele>64.0</ele><time>2026-05-02T12:30:19.406Z</time></trkpt><trkpt lat="54.3768417" lon="-1.6488317"><ele>64.0</ele><time>2026-05-02T12:30:20.406Z</time></trkpt><trkpt lat="54.3770383" lon="-1.64913"><ele>64.0</ele><time>2026-05-02T12:30:21.406Z</time></trkpt><trkpt lat="54.3772383" lon="-1.64942"><ele>64.0</ele><time>2026-05-02T12:30:22.407Z</time></trkpt><trkpt lat="54.3774417" lon="-1.6497033"><ele>64.0</ele><time>2026-05-02T12:30:23.406Z</time></trkpt><trkpt lat="54.3776517" lon="-1.6499783"><ele>64.0</ele><time>2026-05-02T12:30:24.407Z</time></trkpt><trkpt lat="54.3778667" lon="-1.6502433"><ele>64.0</ele><time>2026-05-02T12:30:25.405Z</time></trkpt><trkpt lat="54.3780883" lon="-1.650495"><ele>65.5</ele><time>2026-05-02T12:30:26.407Z</time></trkpt><trkpt lat="54.3783117" lon="-1.6507333"><ele>67.0</ele><time>2026-05-02T12:30:27.406Z</time></trkpt><trkpt lat="54.37854" lon="-1.65096"><ele>68.5</ele><time>2026-05-02T12:30:28.403Z</time></trkpt><trkpt lat="54.37877" lon="-1.6511783"><ele>70.0</ele><time>2026-05-02T12:30:29.403Z</time></trkpt><trkpt lat="54.379005" lon="-1.651385"><ele>70.0</ele><time>2026-05-02T12:30:30.403Z</time></trkpt><trkpt lat="54.3792433" lon="-1.65158"><ele>70.0</ele><time>2026-05-02T12:30:31.402Z</time></trkpt><trkpt lat="54.3794867" lon="-1.651765"><ele>69.5</ele><time>2026-05-02T12:30:32.402Z</time></trkpt><trkpt lat="54.3797317" lon="-1.6519383"><ele>69.0</ele><time>2026-05-02T12:30:33.402Z</time></trkpt><trkpt lat="54.3799783" lon="-1.6520967"><ele>70.5</ele><time>2026-05-02T12:30:34.404Z</time></trkpt><trkpt lat="54.38023" lon="-1.6522417"><ele>72.0</ele><time>2026-05-02T12:30:35.403Z</time></trkpt><trkpt lat="54.380485" lon="-1.6523767"><ele>71.0</ele><time>2026-05-02T12:30:36.402Z</time></trkpt><trkpt lat="54.3807417" lon="-1.6525"><ele>70.0</ele><time>2026-05-02T12:30:37.402Z</time></trkpt><trkpt lat="54.3809967" lon="-1.65262"><ele>70.0</ele><time>2026-05-02T12:30:38.403Z</time></trkpt><trkpt lat="54.38125" lon="-1.6527417"><ele>70.0</ele><time>2026-05-02T12:30:39.403Z</time></trkpt><trkpt lat="54.3815067" lon="-1.6528617"><ele>69.0</ele><time>2026-05-02T12:30:40.403Z</time></trkpt><trkpt lat="54.3817617" lon="-1.65298"><ele>68.0</ele><time>2026-05-02T12:30:41.407Z</time></trkpt><trkpt lat="54.38202" lon="-1.6530983"><ele>67.0</ele><time>2026-05-02T12:30:42.406Z</time></trkpt><trkpt lat="54.382275" lon="-1.653215"><ele>66.0</ele><time>2026-05-02T12:30:43.406Z</time></trkpt><trkpt lat="54.3825317" lon="-1.65333"><ele>66.0</ele><time>2026-05-02T12:30:44.406Z</time></trkpt><trkpt lat="54.382785" lon="-1.6534483"><ele>66.0</ele><time>2026-05-02T12:30:45.406Z</time></trkpt><trkpt lat="54.38304" lon="-1.6535667"><ele>65.5</ele><time>2026-05-02T12:30:46.406Z</time></trkpt><trkpt lat="54.383295" lon="-1.6536883"><ele>65.0</ele><time>2026-05-02T12:30:47.406Z</time></trkpt><trkpt lat="54.38355" lon="-1.65381"><ele>65.0</ele><time>2026-05-02T12:30:48.407Z</time></trkpt><trkpt lat="54.383805" lon="-1.6539333"><ele>65.0</ele><time>2026-05-02T12:30:49.406Z</time></trkpt><trkpt lat="54.3840617" lon="-1.654055"><ele>66.0</ele><time>2026-05-02T12:30:50.406Z</time></trkpt><trkpt lat="54.3843167" lon="-1.654175"><ele>67.0</ele><time>2026-05-02T12:30:51.406Z</time></trkpt><trkpt lat="54.3845733" lon="-1.6542917"><ele>67.0</ele><time>2026-05-02T12:30:52.407Z</time></trkpt><trkpt lat="54.38483" lon="-1.6544083"><ele>67.0</ele><time>2026-05-02T12:30:53.406Z</time></trkpt><trkpt lat="54.385085" lon="-1.6545283"><ele>67.5</ele><time>2026-05-02T12:30:54.406Z</time></trkpt><trkpt lat="54.3853383" lon="-1.6546467"><ele>68.0</ele><time>2026-05-02T12:30:55.407Z</time></trkpt><trkpt lat="54.3855917" lon="-1.6547633"><ele>68.5</ele><time>2026-05-02T12:30:56.406Z</time></trkpt><trkpt lat="54.3858467" lon="-1.6548783"><ele>69.0</ele><time>2026-05-02T12:30:57.403Z</time></trkpt><trkpt lat="54.3861" lon="-1.6549917"><ele>69.5</ele><time>2026-05-02T12:30:58.403Z</time></trkpt><trkpt lat="54.3863517" lon="-1.6551083"><ele>70.0</ele><time>2026-05-02T12:30:59.402Z</time></trkpt><trkpt lat="54.386605" lon="-1.65523"><ele>72.0</ele><time>2026-05-02T12:31:00.404Z</time></trkpt><trkpt lat="54.3868567" lon="-1.65535"><ele>74.0</ele><time>2026-05-02T12:31:01.405Z</time></trkpt><trkpt lat="54.38711" lon="-1.6554717"><ele>73.5</ele><time>2026-05-02T12:31:02.404Z</time></trkpt><trkpt lat="54.3873667" lon="-1.6555883"><ele>73.0</ele><time>2026-05-02T12:31:03.403Z</time></trkpt><trkpt lat="54.3876233" lon="-1.655705"><ele>73.0</ele><time>2026-05-02T12:31:04.403Z</time></trkpt><trkpt lat="54.3878783" lon="-1.6558267"><ele>73.0</ele><time>2026-05-02T12:31:05.402Z</time></trkpt><trkpt lat="54.3881317" lon="-1.655945"><ele>69.0</ele><time>2026-05-02T12:31:06.403Z</time></trkpt><trkpt lat="54.3883867" lon="-1.65606"><ele>65.0</ele><time>2026-05-02T12:31:07.402Z</time></trkpt><trkpt lat="54.3886383" lon="-1.6561767"><ele>65.5</ele><time>2026-05-02T12:31:08.402Z</time></trkpt><trkpt lat="54.38889" lon="-1.6562917"><ele>66.0</ele><time>2026-05-02T12:31:09.402Z</time></trkpt><trkpt lat="54.3891433" lon="-1.65641"><ele>66.0</ele><time>2026-05-02T12:31:10.403Z</time></trkpt><trkpt lat="54.3893983" lon="-1.65653"><ele>66.0</ele><time>2026-05-02T12:31:11.407Z</time></trkpt><trkpt lat="54.3896583" lon="-1.6566517"><ele>65.5</ele><time>2026-05-02T12:31:12.406Z</time></trkpt><trkpt lat="54.389915" lon="-1.656775"><ele>65.0</ele><time>2026-05-02T12:31:13.406Z</time></trkpt><trkpt lat="54.3901683" lon="-1.656895"><ele>65.0</ele><time>2026-05-02T12:31:14.406Z</time></trkpt><trkpt lat="54.3904183" lon="-1.6570167"><ele>65.0</ele><time>2026-05-02T12:31:15.405Z</time></trkpt><trkpt lat="54.39067" lon="-1.6571417"><ele>67.0</ele><time>2026-05-02T12:31:16.406Z</time></trkpt><trkpt lat="54.3909183" lon="-1.657285"><ele>69.0</ele><time>2026-05-02T12:31:17.402Z</time></trkpt><trkpt lat="54.3911667" lon="-1.6574383"><ele>69.5</ele><time>2026-05-02T12:31:18.406Z</time></trkpt><trkpt lat="54.3914133" lon="-1.6576083"><ele>70.0</ele><time>2026-05-02T12:31:19.403Z</time></trkpt><trkpt lat="54.3916567" lon="-1.6577867"><ele>69.0</ele><time>2026-05-02T12:31:20.406Z</time></trkpt><trkpt lat="54.3919017" lon="-1.6579667"><ele>68.0</ele><time>2026-05-02T12:31:21.407Z</time></trkpt><trkpt lat="54.3921483" lon="-1.6581467"><ele>69.0</ele><time>2026-05-02T12:31:22.406Z</time></trkpt><trkpt lat="54.3923933" lon="-1.6583267"><ele>70.0</ele><time>2026-05-02T12:31:23.409Z</time></trkpt><trkpt lat="54.3926383" lon="-1.65851"><ele>70.0</ele><time>2026-05-02T12:31:24.406Z</time></trkpt><trkpt lat="54.39288" lon="-1.6586983"><ele>70.0</ele><time>2026-05-02T12:31:25.406Z</time></trkpt><trkpt lat="54.39312" lon="-1.658885"><ele>70.0</ele><time>2026-05-02T12:31:26.407Z</time></trkpt><trkpt lat="54.39336" lon="-1.6590717"><ele>70.0</ele><time>2026-05-02T12:31:27.41Z</time></trkpt><trkpt lat="54.3936" lon="-1.6592583"><ele>70.5</ele><time>2026-05-02T12:31:28.406Z</time></trkpt><trkpt lat="54.3938417" lon="-1.65944"><ele>71.0</ele><time>2026-05-02T12:31:29.402Z</time></trkpt><trkpt lat="54.3940817" lon="-1.6596233"><ele>71.0</ele><time>2026-05-02T12:31:30.405Z</time></trkpt><trkpt lat="54.39432" lon="-1.6598083"><ele>71.0</ele><time>2026-05-02T12:31:31.406Z</time></trkpt><trkpt lat="54.39456" lon="-1.659995"><ele>71.5</ele><time>2026-05-02T12:31:32.406Z</time></trkpt><trkpt lat="54.3947983" lon="-1.6601833"><ele>72.0</ele><time>2026-05-02T12:31:33.406Z</time></trkpt><trkpt lat="54.3950383" lon="-1.6603683"><ele>72.0</ele><time>2026-05-02T12:31:34.406Z</time></trkpt><trkpt lat="54.39528" lon="-1.66055"><ele>72.0</ele><time>2026-05-02T12:31:35.407Z</time></trkpt><trkpt lat="54.3955233" lon="-1.6607333"><ele>72.5</ele><time>2026-05-02T12:31:36.406Z</time></trkpt><trkpt lat="54.3957683" lon="-1.6609133"><ele>73.0</ele><time>2026-05-02T12:31:37.407Z</time></trkpt><trkpt lat="54.39601" lon="-1.6610917"><ele>73.0</ele><time>2026-05-02T12:31:38.407Z</time></trkpt><trkpt lat="54.3962517" lon="-1.6612617"><ele>73.0</ele><time>2026-05-02T12:31:39.407Z</time></trkpt><trkpt lat="54.3964983" lon="-1.6614233"><ele>73.0</ele><time>2026-05-02T12:31:40.407Z</time></trkpt><trkpt lat="54.39675" lon="-1.661575"><ele>73.0</ele><time>2026-05-02T12:31:41.406Z</time></trkpt><trkpt lat="54.3970033" lon="-1.661715"><ele>74.0</ele><time>2026-05-02T12:31:42.407Z</time></trkpt><trkpt lat="54.3972567" lon="-1.661845"><ele>75.0</ele><time>2026-05-02T12:31:43.407Z</time></trkpt><trkpt lat="54.3975117" lon="-1.6619683"><ele>75.5</ele><time>2026-05-02T12:31:44.407Z</time></trkpt><trkpt lat="54.3977667" lon="-1.6620833"><ele>76.0</ele><time>2026-05-02T12:31:45.408Z</time></trkpt><trkpt lat="54.398025" lon="-1.662185"><ele>76.5</ele><time>2026-05-02T12:31:46.406Z</time></trkpt><trkpt lat="54.3982817" lon="-1.6622783"><ele>77.0</ele><time>2026-05-02T12:31:47.406Z</time></trkpt><trkpt lat="54.39854" lon="-1.6623633"><ele>77.0</ele><time>2026-05-02T12:31:48.407Z</time></trkpt><trkpt lat="54.3988017" lon="-1.662435"><ele>77.0</ele><time>2026-05-02T12:31:49.405Z</time></trkpt><trkpt lat="54.3990617" lon="-1.6624983"><ele>77.0</ele><time>2026-05-02T12:31:50.406Z</time></trkpt><trkpt lat="54.399325" lon="-1.6625567"><ele>77.0</ele><time>2026-05-02T12:31:51.406Z</time></trkpt><trkpt lat="54.3995883" lon="-1.662605"><ele>76.5</ele><time>2026-05-02T12:31:52.406Z</time></trkpt><trkpt lat="54.3998533" lon="-1.6626417"><ele>76.0</ele><time>2026-05-02T12:31:53.407Z</time></trkpt><trkpt lat="54.4001117" lon="-1.6626683"><ele>76.0</ele><time>2026-05-02T12:31:54.406Z</time></trkpt><trkpt lat="54.4003733" lon="-1.662685"><ele>76.0</ele><time>2026-05-02T12:31:55.407Z</time></trkpt><trkpt lat="54.400635" lon="-1.6626883"><ele>78.5</ele><time>2026-05-02T12:31:56.406Z</time></trkpt><trkpt lat="54.4009" lon="-1.6626833"><ele>81.0</ele><time>2026-05-02T12:31:57.403Z</time></trkpt><trkpt lat="54.401165" lon="-1.66267"><ele>82.5</ele><time>2026-05-02T12:31:58.402Z</time></trkpt><trkpt lat="54.4014283" lon="-1.6626467"><ele>84.0</ele><time>2026-05-02T12:31:59.402Z</time></trkpt><trkpt lat="54.40169" lon="-1.6626117"><ele>84.0</ele><time>2026-05-02T12:32:00.402Z</time></trkpt><trkpt lat="54.4019533" lon="-1.6625683"><ele>84.0</ele><time>2026-05-02T12:32:01.405Z</time></trkpt><trkpt lat="54.402215" lon="-1.6625133"><ele>84.0</ele><time>2026-05-02T12:32:02.404Z</time></trkpt><trkpt lat="54.4024767" lon="-1.66245"><ele>84.0</ele><time>2026-05-02T12:32:03.404Z</time></trkpt><trkpt lat="54.4027367" lon="-1.6623767"><ele>84.5</ele><time>2026-05-02T12:32:04.403Z</time></trkpt><trkpt lat="54.4029983" lon="-1.6623"><ele>85.0</ele><time>2026-05-02T12:32:05.403Z</time></trkpt><trkpt lat="54.4032617" lon="-1.6622217"><ele>85.0</ele><time>2026-05-02T12:32:06.403Z</time></trkpt><trkpt lat="54.4035217" lon="-1.66214"><ele>85.0</ele><time>2026-05-02T12:32:07.402Z</time></trkpt><trkpt lat="54.4037817" lon="-1.6620567"><ele>86.0</ele><time>2026-05-02T12:32:08.403Z</time></trkpt><trkpt lat="54.4040417" lon="-1.661975"><ele>87.0</ele><time>2026-05-02T12:32:09.402Z</time></trkpt><trkpt lat="54.4042983" lon="-1.6618967"><ele>87.0</ele><time>2026-05-02T12:32:10.402Z</time></trkpt><trkpt lat="54.4045567" lon="-1.6618183"><ele>87.0</ele><time>2026-05-02T12:32:11.407Z</time></trkpt><trkpt lat="54.4048167" lon="-1.6617433"><ele>86.5</ele><time>2026-05-02T12:32:12.406Z</time></trkpt><trkpt lat="54.4050767" lon="-1.6616633"><ele>86.0</ele><time>2026-05-02T12:32:13.406Z</time></trkpt><trkpt lat="54.4053367" lon="-1.661575"><ele>87.0</ele><time>2026-05-02T12:32:14.407Z</time></trkpt><trkpt lat="54.4055967" lon="-1.6614967"><ele>88.0</ele><time>2026-05-02T12:32:15.406Z</time></trkpt><trkpt lat="54.405855" lon="-1.6614217"><ele>88.0</ele><time>2026-05-02T12:32:16.407Z</time></trkpt><trkpt lat="54.4061117" lon="-1.6613417"><ele>88.0</ele><time>2026-05-02T12:32:17.406Z</time></trkpt><trkpt lat="54.4063717" lon="-1.6612633"><ele>88.0</ele><time>2026-05-02T12:32:18.406Z</time></trkpt><trkpt lat="54.4066317" lon="-1.6611883"><ele>88.0</ele><time>2026-05-02T12:32:19.407Z</time></trkpt><trkpt lat="54.4068917" lon="-1.661115"><ele>88.0</ele><time>2026-05-02T12:32:20.406Z</time></trkpt><trkpt lat="54.4071517" lon="-1.6610467"><ele>88.0</ele><time>2026-05-02T12:32:21.407Z</time></trkpt><trkpt lat="54.4074133" lon="-1.6609883"><ele>89.5</ele><time>2026-05-02T12:32:22.407Z</time></trkpt><trkpt lat="54.4076767" lon="-1.660945"><ele>91.0</ele><time>2026-05-02T12:32:23.406Z</time></trkpt><trkpt lat="54.40794" lon="-1.6609117"><ele>93.0</ele><time>2026-05-02T12:32:24.406Z</time></trkpt><trkpt lat="54.408205" lon="-1.66089"><ele>95.0</ele><time>2026-05-02T12:32:25.406Z</time></trkpt><trkpt lat="54.40847" lon="-1.660875"><ele>95.0</ele><time>2026-05-02T12:32:26.405Z</time></trkpt><trkpt lat="54.4087317" lon="-1.66087"><ele>95.0</ele><time>2026-05-02T12:32:27.406Z</time></trkpt><trkpt lat="54.408995" lon="-1.66088"><ele>96.5</ele><time>2026-05-02T12:32:28.403Z</time></trkpt><trkpt lat="54.4092583" lon="-1.6609067"><ele>98.0</ele><time>2026-05-02T12:32:29.403Z</time></trkpt><trkpt lat="54.40952" lon="-1.6609483"><ele>98.5</ele><time>2026-05-02T12:32:30.402Z</time></trkpt><trkpt lat="54.4097817" lon="-1.661005"><ele>99.0</ele><time>2026-05-02T12:32:31.402Z</time></trkpt><trkpt lat="54.4100433" lon="-1.661075"><ele>99.0</ele><time>2026-05-02T12:32:32.407Z</time></trkpt><trkpt lat="54.4103033" lon="-1.66115"><ele>99.0</ele><time>2026-05-02T12:32:33.406Z</time></trkpt><trkpt lat="54.4105633" lon="-1.6612283"><ele>100.0</ele><time>2026-05-02T12:32:34.406Z</time></trkpt><trkpt lat="54.41082" lon="-1.6613117"><ele>101.0</ele><time>2026-05-02T12:32:35.406Z</time></trkpt><trkpt lat="54.41108" lon="-1.6613917"><ele>102.0</ele><time>2026-05-02T12:32:36.406Z</time></trkpt><trkpt lat="54.4113367" lon="-1.6614717"><ele>103.0</ele><time>2026-05-02T12:32:37.407Z</time></trkpt><trkpt lat="54.4115967" lon="-1.6615467"><ele>103.0</ele><time>2026-05-02T12:32:38.406Z</time></trkpt><trkpt lat="54.4118567" lon="-1.66162"><ele>103.0</ele><time>2026-05-02T12:32:39.406Z</time></trkpt><trkpt lat="54.4121167" lon="-1.6616933"><ele>103.0</ele><time>2026-05-02T12:32:40.406Z</time></trkpt><trkpt lat="54.4123783" lon="-1.6617667"><ele>103.0</ele><time>2026-05-02T12:32:41.406Z</time></trkpt><trkpt lat="54.41264" lon="-1.6618467"><ele>103.0</ele><time>2026-05-02T12:32:42.402Z</time></trkpt><trkpt lat="54.4129033" lon="-1.66192"><ele>103.0</ele><time>2026-05-02T12:32:43.405Z</time></trkpt><trkpt lat="54.4131667" lon="-1.66199"><ele>102.5</ele><time>2026-05-02T12:32:44.406Z</time></trkpt><trkpt lat="54.4134283" lon="-1.6620583"><ele>102.0</ele><time>2026-05-02T12:32:45.407Z</time></trkpt><trkpt lat="54.41369" lon="-1.6621317"><ele>101.0</ele><time>2026-05-02T12:32:46.407Z</time></trkpt><trkpt lat="54.4139483" lon="-1.6622033"><ele>100.0</ele><time>2026-05-02T12:32:47.405Z</time></trkpt><trkpt lat="54.4142083" lon="-1.6622733"><ele>100.0</ele><time>2026-05-02T12:32:48.406Z</time></trkpt><trkpt lat="54.41447" lon="-1.66234"><ele>100.0</ele><time>2026-05-02T12:32:49.406Z</time></trkpt><trkpt lat="54.4147267" lon="-1.6624067"><ele>100.5</ele><time>2026-05-02T12:32:50.407Z</time></trkpt><trkpt lat="54.4149883" lon="-1.66247"><ele>101.0</ele><time>2026-05-02T12:32:51.406Z</time></trkpt><trkpt lat="54.4152483" lon="-1.662535"><ele>100.0</ele><time>2026-05-02T12:32:52.407Z</time></trkpt><trkpt lat="54.4155117" lon="-1.6625967"><ele>99.0</ele><time>2026-05-02T12:32:53.405Z</time></trkpt><trkpt lat="54.4157733" lon="-1.6626583"><ele>99.0</ele><time>2026-05-02T12:32:54.406Z</time></trkpt><trkpt lat="54.4160317" lon="-1.6627183"><ele>99.0</ele><time>2026-05-02T12:32:55.407Z</time></trkpt><trkpt lat="54.4162917" lon="-1.6627767"><ele>100.5</ele><time>2026-05-02T12:32:56.407Z</time></trkpt><trkpt lat="54.4165517" lon="-1.6628383"><ele>102.0</ele><time>2026-05-02T12:32:57.406Z</time></trkpt><trkpt lat="54.4168117" lon="-1.662905"><ele>102.0</ele><time>2026-05-02T12:32:58.403Z</time></trkpt><trkpt lat="54.4170717" lon="-1.662975"><ele>102.0</ele><time>2026-05-02T12:32:59.406Z</time></trkpt><trkpt lat="54.41733" lon="-1.6630483"><ele>103.0</ele><time>2026-05-02T12:33:00.406Z</time></trkpt><trkpt lat="54.41759" lon="-1.6631267"><ele>104.0</ele><time>2026-05-02T12:33:01.402Z</time></trkpt><trkpt lat="54.4178467" lon="-1.66321"><ele>104.0</ele><time>2026-05-02T12:33:02.406Z</time></trkpt><trkpt lat="54.4181033" lon="-1.6632983"><ele>104.0</ele><time>2026-05-02T12:33:03.406Z</time></trkpt><trkpt lat="54.4183633" lon="-1.6633917"><ele>104.0</ele><time>2026-05-02T12:33:04.407Z</time></trkpt><trkpt lat="54.4186233" lon="-1.6634833"><ele>104.0</ele><time>2026-05-02T12:33:05.407Z</time></trkpt><trkpt lat="54.4188817" lon="-1.663575"><ele>105.0</ele><time>2026-05-02T12:33:06.406Z</time></trkpt><trkpt lat="54.41914" lon="-1.6636617"><ele>106.0</ele><time>2026-05-02T12:33:07.406Z</time></trkpt><trkpt lat="54.4194" lon="-1.663745"><ele>106.5</ele><time>2026-05-02T12:33:08.406Z</time></trkpt><trkpt lat="54.41966" lon="-1.6638283"><ele>107.0</ele><time>2026-05-02T12:33:09.407Z</time></trkpt><trkpt lat="54.4199217" lon="-1.66391"><ele>107.0</ele><time>2026-05-02T12:33:10.402Z</time></trkpt><trkpt lat="54.4201817" lon="-1.6639933"><ele>107.0</ele><time>2026-05-02T12:33:11.404Z</time></trkpt><trkpt lat="54.42044" lon="-1.66408"><ele>107.5</ele><time>2026-05-02T12:33:12.406Z</time></trkpt><trkpt lat="54.4206983" lon="-1.6641667"><ele>108.0</ele><time>2026-05-02T12:33:13.402Z</time></trkpt><trkpt lat="54.4209567" lon="-1.6642517"><ele>108.0</ele><time>2026-05-02T12:33:14.404Z</time></trkpt><trkpt lat="54.4212167" lon="-1.6643333"><ele>108.0</ele><time>2026-05-02T12:33:15.402Z</time></trkpt><trkpt lat="54.4214767" lon="-1.664415"><ele>108.5</ele><time>2026-05-02T12:33:16.405Z</time></trkpt><trkpt lat="54.4217333" lon="-1.6645"><ele>109.0</ele><time>2026-05-02T12:33:17.407Z</time></trkpt><trkpt lat="54.421995" lon="-1.664585"><ele>109.0</ele><time>2026-05-02T12:33:18.405Z</time></trkpt><trkpt lat="54.4222567" lon="-1.6646733"><ele>109.0</ele><time>2026-05-02T12:33:19.409Z</time></trkpt><trkpt lat="54.42252" lon="-1.664765"><ele>109.0</ele><time>2026-05-02T12:33:20.407Z</time></trkpt><trkpt lat="54.4227767" lon="-1.664855"><ele>109.0</ele><time>2026-05-02T12:33:21.406Z</time></trkpt><trkpt lat="54.4230333" lon="-1.664945"><ele>110.0</ele><time>2026-05-02T12:33:22.409Z</time></trkpt><trkpt lat="54.4232933" lon="-1.6650317"><ele>111.0</ele><time>2026-05-02T12:33:23.407Z</time></trkpt><trkpt lat="54.4235533" lon="-1.6651117"><ele>111.0</ele><time>2026-05-02T12:33:24.407Z</time></trkpt><trkpt lat="54.4238133" lon="-1.665195"><ele>111.0</ele><time>2026-05-02T12:33:25.406Z</time></trkpt><trkpt lat="54.4240733" lon="-1.66528"><ele>110.5</ele><time>2026-05-02T12:33:26.406Z</time></trkpt><trkpt lat="54.4243333" lon="-1.6653633"><ele>110.0</ele><time>2026-05-02T12:33:27.407Z</time></trkpt><trkpt lat="54.424595" lon="-1.6654467"><ele>111.5</ele><time>2026-05-02T12:33:28.406Z</time></trkpt><trkpt lat="54.424855" lon="-1.6655317"><ele>113.0</ele><time>2026-05-02T12:33:29.406Z</time></trkpt><trkpt lat="54.4251133" lon="-1.66562"><ele>113.0</ele><time>2026-05-02T12:33:30.407Z</time></trkpt><trkpt lat="54.4253717" lon="-1.665705"><ele>113.0</ele><time>2026-05-02T12:33:31.407Z</time></trkpt><trkpt lat="54.42563" lon="-1.66579"><ele>114.5</ele><time>2026-05-02T12:33:32.406Z</time></trkpt><trkpt lat="54.42589" lon="-1.6658733"><ele>116.0</ele><time>2026-05-02T12:33:33.406Z</time></trkpt><trkpt lat="54.4261483" lon="-1.6659567"><ele>116.5</ele><time>2026-05-02T12:33:34.407Z</time></trkpt><trkpt lat="54.4264067" lon="-1.66604"><ele>117.0</ele><time>2026-05-02T12:33:35.406Z</time></trkpt><trkpt lat="54.426665" lon="-1.6661217"><ele>118.0</ele><time>2026-05-02T12:33:36.407Z</time></trkpt><trkpt lat="54.4269233" lon="-1.6662033"><ele>119.0</ele><time>2026-05-02T12:33:37.406Z</time></trkpt><trkpt lat="54.4271867" lon="-1.66628"><ele>119.0</ele><time>2026-05-02T12:33:38.406Z</time></trkpt><trkpt lat="54.4274467" lon="-1.6663533"><ele>119.0</ele><time>2026-05-02T12:33:39.408Z</time></trkpt><trkpt lat="54.4277067" lon="-1.666425"><ele>119.0</ele><time>2026-05-02T12:33:40.406Z</time></trkpt><trkpt lat="54.427965" lon="-1.6664917"><ele>119.0</ele><time>2026-05-02T12:33:41.408Z</time></trkpt><trkpt lat="54.428225" lon="-1.6665567"><ele>119.0</ele><time>2026-05-02T12:33:42.406Z</time></trkpt><trkpt lat="54.4284867" lon="-1.6666183"><ele>119.0</ele><time>2026-05-02T12:33:43.406Z</time></trkpt><trkpt lat="54.4287467" lon="-1.6666833"><ele>120.0</ele><time>2026-05-02T12:33:44.407Z</time></trkpt><trkpt lat="54.4290083" lon="-1.666745"><ele>121.0</ele><time>2026-05-02T12:33:45.404Z</time></trkpt><trkpt lat="54.432145" lon="-1.6675333"><ele>127.0</ele><time>2026-05-02T12:33:57.406Z</time></trkpt><trkpt lat="54.4326683" lon="-1.6676683"><ele>128.0</ele><time>2026-05-02T12:33:59.407Z</time></trkpt><trkpt lat="54.4331933" lon="-1.6677983"><ele>128.0</ele><time>2026-05-02T12:34:01.407Z</time></trkpt><trkpt lat="54.4334567" lon="-1.66786"><ele>128.0</ele><time>2026-05-02T12:34:02.406Z</time></trkpt><trkpt lat="54.4337167" lon="-1.667925"><ele>128.0</ele><time>2026-05-02T12:34:03.406Z</time></trkpt><trkpt lat="54.433975" lon="-1.66799"><ele>128.0</ele><time>2026-05-02T12:34:04.406Z</time></trkpt><trkpt lat="54.4342367" lon="-1.66805"><ele>128.0</ele><time>2026-05-02T12:34:05.407Z</time></trkpt><trkpt lat="54.4344983" lon="-1.6681133"><ele>128.0</ele><time>2026-05-02T12:34:06.406Z</time></trkpt><trkpt lat="54.43476" lon="-1.6681717"><ele>128.0</ele><time>2026-05-02T12:34:07.406Z</time></trkpt><trkpt lat="54.4350233" lon="-1.6682267"><ele>128.0</ele><time>2026-05-02T12:34:08.406Z</time></trkpt><trkpt lat="54.435285" lon="-1.6682817"><ele>129.5</ele><time>2026-05-02T12:34:09.408Z</time></trkpt><trkpt lat="54.4355467" lon="-1.6683367"><ele>131.0</ele><time>2026-05-02T12:34:10.406Z</time></trkpt><trkpt lat="54.4358083" lon="-1.6683867"><ele>131.0</ele><time>2026-05-02T12:34:11.408Z</time></trkpt><trkpt lat="54.4360717" lon="-1.6684333"><ele>131.0</ele><time>2026-05-02T12:34:12.407Z</time></trkpt><trkpt lat="54.4363333" lon="-1.6684783"><ele>132.0</ele><time>2026-05-02T12:34:13.406Z</time></trkpt><trkpt lat="54.436595" lon="-1.6685133"><ele>133.0</ele><time>2026-05-02T12:34:14.407Z</time></trkpt><trkpt lat="54.4368583" lon="-1.66854"><ele>133.0</ele><time>2026-05-02T12:34:15.406Z</time></trkpt><trkpt lat="54.43712" lon="-1.66857"><ele>133.0</ele><time>2026-05-02T12:34:16.406Z</time></trkpt><trkpt lat="54.437385" lon="-1.6686"><ele>133.0</ele><time>2026-05-02T12:34:17.406Z</time></trkpt><trkpt lat="54.43765" lon="-1.6686267"><ele>133.0</ele><time>2026-05-02T12:34:18.407Z</time></trkpt><trkpt lat="54.437915" lon="-1.6686517"><ele>134.5</ele><time>2026-05-02T12:34:19.407Z</time></trkpt><trkpt lat="54.43818" lon="-1.66868"><ele>136.0</ele><time>2026-05-02T12:34:20.403Z</time></trkpt><trkpt lat="54.438445" lon="-1.6687133"><ele>136.0</ele><time>2026-05-02T12:34:21.403Z</time></trkpt><trkpt lat="54.4387083" lon="-1.668745"><ele>136.0</ele><time>2026-05-02T12:34:22.405Z</time></trkpt><trkpt lat="54.4389733" lon="-1.668775"><ele>137.0</ele><time>2026-05-02T12:34:23.405Z</time></trkpt><trkpt lat="54.4392367" lon="-1.6688033"><ele>138.0</ele><time>2026-05-02T12:34:24.404Z</time></trkpt><trkpt lat="54.4394983" lon="-1.66883"><ele>138.5</ele><time>2026-05-02T12:34:25.404Z</time></trkpt><trkpt lat="54.4397567" lon="-1.66886"><ele>139.0</ele><time>2026-05-02T12:34:26.404Z</time></trkpt><trkpt lat="54.4400083" lon="-1.6688917"><ele>139.0</ele><time>2026-05-02T12:34:27.404Z</time></trkpt><trkpt lat="54.4402517" lon="-1.6689167"><ele>139.0</ele><time>2026-05-02T12:34:28.404Z</time></trkpt><trkpt lat="54.4404817" lon="-1.6689367"><ele>139.66666666666669</ele><time>2026-05-02T12:34:29.403Z</time></trkpt><trkpt lat="54.44069" lon="-1.6689583"><ele>140.33333333333334</ele><time>2026-05-02T12:34:30.403Z</time></trkpt><trkpt lat="54.4408817" lon="-1.668985"><ele>141.0</ele><time>2026-05-02T12:34:31.403Z</time></trkpt><trkpt lat="54.4410567" lon="-1.6690133"><ele>141.0</ele><time>2026-05-02T12:34:32.405Z</time></trkpt><trkpt lat="54.4412217" lon="-1.6690417"><ele>141.0</ele><time>2026-05-02T12:34:33.404Z</time></trkpt><trkpt lat="54.4413683" lon="-1.6690583"><ele>141.0</ele><time>2026-05-02T12:34:34.404Z</time></trkpt><trkpt lat="54.4414983" lon="-1.6690717"><ele>141.0</ele><time>2026-05-02T12:34:35.404Z</time></trkpt><trkpt lat="54.441615" lon="-1.669085"><ele>141.5</ele><time>2026-05-02T12:34:36.404Z</time></trkpt><trkpt lat="54.4417217" lon="-1.6690967"><ele>142.0</ele><time>2026-05-02T12:34:37.404Z</time></trkpt><trkpt lat="54.441815" lon="-1.6691133"><ele>142.5</ele><time>2026-05-02T12:34:38.407Z</time></trkpt><trkpt lat="54.4418983" lon="-1.6691367"><ele>143.0</ele><time>2026-05-02T12:34:39.406Z</time></trkpt><trkpt lat="54.4419667" lon="-1.669155"><ele>143.5</ele><time>2026-05-02T12:34:40.404Z</time></trkpt><trkpt lat="54.4420433" lon="-1.6691967"><ele>144.0</ele><time>2026-05-02T12:34:42.405Z</time></trkpt><trkpt lat="54.4420867" lon="-1.66934"><ele>144.5</ele><time>2026-05-02T12:35:01.407Z</time></trkpt><trkpt lat="54.4421217" lon="-1.6694533"><ele>145.0</ele><time>2026-05-02T12:35:02.407Z</time></trkpt><trkpt lat="54.4421517" lon="-1.66958"><ele>145.5</ele><time>2026-05-02T12:35:03.403Z</time></trkpt><trkpt lat="54.4421767" lon="-1.6697117"><ele>146.0</ele><time>2026-05-02T12:35:04.409Z</time></trkpt><trkpt lat="54.442195" lon="-1.66985"><ele>146.5</ele><time>2026-05-02T12:35:05.406Z</time></trkpt><trkpt lat="54.4422083" lon="-1.669985"><ele>147.0</ele><time>2026-05-02T12:35:06.406Z</time></trkpt><trkpt lat="54.4422167" lon="-1.670115"><ele>147.0</ele><time>2026-05-02T12:35:07.404Z</time></trkpt><trkpt lat="54.4422233" lon="-1.6702467"><ele>147.0</ele><time>2026-05-02T12:35:08.403Z</time></trkpt><trkpt lat="54.4422283" lon="-1.670375"><ele>147.0</ele><time>2026-05-02T12:35:09.403Z</time></trkpt><trkpt lat="54.4422267" lon="-1.6704833"><ele>147.0</ele><time>2026-05-02T12:35:10.403Z</time></trkpt><trkpt lat="54.442225" lon="-1.6706483"><ele>147.0</ele><time>2026-05-02T12:35:12.403Z</time></trkpt><trkpt lat="54.442215" lon="-1.6707767"><ele>147.0</ele><time>2026-05-02T12:35:15.403Z</time></trkpt><trkpt lat="54.4422217" lon="-1.6709883"><ele>147.16666666666666</ele><time>2026-05-02T12:35:25.406Z</time></trkpt><trkpt lat="54.4422517" lon="-1.6711217"><ele>147.33333333333334</ele><time>2026-05-02T12:35:26.406Z</time></trkpt><trkpt lat="54.4422717" lon="-1.671225"><ele>147.5</ele><time>2026-05-02T12:35:27.407Z</time></trkpt><trkpt lat="54.4422733" lon="-1.67138"><ele>147.66666666666669</ele><time>2026-05-02T12:35:29.403Z</time></trkpt><trkpt lat="54.44224" lon="-1.671495"><ele>147.83333333333334</ele><time>2026-05-02T12:35:32.406Z</time></trkpt><trkpt lat="54.44221" lon="-1.6716133"><ele>148.0</ele><time>2026-05-02T12:35:36.403Z</time></trkpt><trkpt lat="54.44224" lon="-1.6717117"><ele>148.0</ele><time>2026-05-02T12:35:39.402Z</time></trkpt></trkseg><trkseg><trkpt lat="54.44236" lon="-1.671525"><ele>148.0</ele><time>2026-05-02T12:47:18.408Z</time></trkpt><trkpt lat="54.4424217" lon="-1.671485"><ele>148.0</ele><time>2026-05-02T12:47:34.406Z</time></trkpt><trkpt lat="54.44252" lon="-1.67146"><ele>148.0</ele><time>2026-05-02T12:47:36.405Z</time></trkpt><trkpt lat="54.4425933" lon="-1.6714283"><ele>148.0</ele><time>2026-05-02T12:47:37.403Z</time></trkpt><trkpt lat="54.4426667" lon="-1.6713717"><ele>148.0</ele><time>2026-05-02T12:47:38.402Z</time></trkpt><trkpt lat="54.4427467" lon="-1.6712967"><ele>148.0</ele><time>2026-05-02T12:47:39.406Z</time></trkpt><trkpt lat="54.4428317" lon="-1.6712133"><ele>148.0</ele><time>2026-05-02T12:47:40.402Z</time></trkpt><trkpt lat="54.4429283" lon="-1.671125"><ele>148.0</ele><time>2026-05-02T12:47:41.403Z</time></trkpt><trkpt lat="54.4431483" lon="-1.6709783"><ele>148.0</ele><time>2026-05-02T12:47:43.405Z</time></trkpt><trkpt lat="54.4432633" lon="-1.670925"><ele>148.0</ele><time>2026-05-02T12:47:44.406Z</time></trkpt><trkpt lat="54.4433867" lon="-1.670875"><ele>148.0</ele><time>2026-05-02T12:47:45.403Z</time></trkpt><trkpt lat="54.4435233" lon="-1.6708233"><ele>148.0</ele><time>2026-05-02T12:47:46.402Z</time></trkpt><trkpt lat="54.4436717" lon="-1.6707783"><ele>148.0</ele><time>2026-05-02T12:47:47.402Z</time></trkpt><trkpt lat="54.4439767" lon="-1.6706983"><ele>148.66666666666669</ele><time>2026-05-02T12:47:49.407Z</time></trkpt><trkpt lat="54.44413" lon="-1.6706633"><ele>149.33333333333334</ele><time>2026-05-02T12:47:50.404Z</time></trkpt><trkpt lat="54.4442833" lon="-1.670625"><ele>150.0</ele><time>2026-05-02T12:47:51.403Z</time></trkpt><trkpt lat="54.4444467" lon="-1.670585"><ele>149.5</ele><time>2026-05-02T12:47:52.404Z</time></trkpt><trkpt lat="54.44478" lon="-1.670505"><ele>149.0</ele><time>2026-05-02T12:47:54.403Z</time></trkpt><trkpt lat="54.444935" lon="-1.6704667"><ele>149.0</ele><time>2026-05-02T12:47:55.403Z</time></trkpt><trkpt lat="54.44507" lon="-1.67044"><ele>149.0</ele><time>2026-05-02T12:47:56.403Z</time></trkpt><trkpt lat="54.4451933" lon="-1.6704233"><ele>149.0</ele><time>2026-05-02T12:47:57.402Z</time></trkpt><trkpt lat="54.4453017" lon="-1.6704383"><ele>149.0</ele><time>2026-05-02T12:47:58.412Z</time></trkpt><trkpt lat="54.4454017" lon="-1.6704983"><ele>149.6</ele><time>2026-05-02T12:47:59.406Z</time></trkpt><trkpt lat="54.4455" lon="-1.670585"><ele>150.2</ele><time>2026-05-02T12:48:00.403Z</time></trkpt><trkpt lat="54.445585" lon="-1.67068"><ele>150.79999999999998</ele><time>2026-05-02T12:48:01.405Z</time></trkpt><trkpt lat="54.4456683" lon="-1.670755"><ele>151.4</ele><time>2026-05-02T12:48:02.405Z</time></trkpt><trkpt lat="54.445755" lon="-1.6707917"><ele>152.0</ele><time>2026-05-02T12:48:03.404Z</time></trkpt><trkpt lat="54.4458533" lon="-1.6707883"><ele>152.0</ele><time>2026-05-02T12:48:04.402Z</time></trkpt><trkpt lat="54.445965" lon="-1.6707383"><ele>152.0</ele><time>2026-05-02T12:48:05.405Z</time></trkpt><trkpt lat="54.4460767" lon="-1.6706217"><ele>152.0</ele><time>2026-05-02T12:48:06.402Z</time></trkpt><trkpt lat="54.4462067" lon="-1.6705117"><ele>152.0</ele><time>2026-05-02T12:48:07.409Z</time></trkpt><trkpt lat="54.446525" lon="-1.6703483"><ele>149.0</ele><time>2026-05-02T12:48:09.402Z</time></trkpt><trkpt lat="54.4468767" lon="-1.6702267"><ele>146.0</ele><time>2026-05-02T12:48:11.403Z</time></trkpt><trkpt lat="54.4470617" lon="-1.67017"><ele>145.66666666666666</ele><time>2026-05-02T12:48:12.402Z</time></trkpt><trkpt lat="54.4472517" lon="-1.670115"><ele>145.33333333333334</ele><time>2026-05-02T12:48:13.406Z</time></trkpt><trkpt lat="54.4474533" lon="-1.6700733"><ele>145.0</ele><time>2026-05-02T12:48:14.404Z</time></trkpt><trkpt lat="54.4476667" lon="-1.6700633"><ele>145.0</ele><time>2026-05-02T12:48:15.403Z</time></trkpt><trkpt lat="54.447885" lon="-1.6700683"><ele>145.0</ele><time>2026-05-02T12:48:16.402Z</time></trkpt><trkpt lat="54.448105" lon="-1.6700917"><ele>145.0</ele><time>2026-05-02T12:48:17.403Z</time></trkpt><trkpt lat="54.4483217" lon="-1.670135"><ele>145.33333333333334</ele><time>2026-05-02T12:48:18.402Z</time></trkpt><trkpt lat="54.44854" lon="-1.6701933"><ele>145.66666666666666</ele><time>2026-05-02T12:48:19.402Z</time></trkpt><trkpt lat="54.448755" lon="-1.6702567"><ele>146.0</ele><time>2026-05-02T12:48:20.404Z</time></trkpt><trkpt lat="54.4489683" lon="-1.6703233"><ele>146.0</ele><time>2026-05-02T12:48:21.402Z</time></trkpt><trkpt lat="54.4491833" lon="-1.6703783"><ele>146.0</ele><time>2026-05-02T12:48:22.405Z</time></trkpt><trkpt lat="54.449405" lon="-1.6703983"><ele>146.0</ele><time>2026-05-02T12:48:23.406Z</time></trkpt><trkpt lat="54.44963" lon="-1.67038"><ele>143.0</ele><time>2026-05-02T12:48:24.407Z</time></trkpt><trkpt lat="54.4500983" lon="-1.6702567"><ele>143.0</ele><time>2026-05-02T12:48:26.403Z</time></trkpt><trkpt lat="54.4503333" lon="-1.6701683"><ele>143.0</ele><time>2026-05-02T12:48:27.403Z</time></trkpt><trkpt lat="54.450565" lon="-1.67005"><ele>142.0</ele><time>2026-05-02T12:48:28.403Z</time></trkpt><trkpt lat="54.45079" lon="-1.6699017"><ele>141.0</ele><time>2026-05-02T12:48:29.402Z</time></trkpt><trkpt lat="54.45101" lon="-1.669715"><ele>141.0</ele><time>2026-05-02T12:48:30.405Z</time></trkpt><trkpt lat="54.4512233" lon="-1.669505"><ele>141.0</ele><time>2026-05-02T12:48:31.404Z</time></trkpt><trkpt lat="54.45143" lon="-1.669265"><ele>139.5</ele><time>2026-05-02T12:48:32.407Z</time></trkpt><trkpt lat="54.4516267" lon="-1.6689983"><ele>138.0</ele><time>2026-05-02T12:48:33.405Z</time></trkpt><trkpt lat="54.4518183" lon="-1.6687417"><ele>137.5</ele><time>2026-05-02T12:48:34.409Z</time></trkpt><trkpt lat="54.452" lon="-1.6684917"><ele>137.0</ele><time>2026-05-02T12:48:35.402Z</time></trkpt><trkpt lat="54.4521767" lon="-1.668245"><ele>136.33333333333331</ele><time>2026-05-02T12:48:36.404Z</time></trkpt><trkpt lat="54.4523533" lon="-1.6680083"><ele>135.66666666666666</ele><time>2026-05-02T12:48:37.407Z</time></trkpt><trkpt lat="54.4525383" lon="-1.6677883"><ele>135.0</ele><time>2026-05-02T12:48:38.409Z</time></trkpt><trkpt lat="54.45273" lon="-1.6675867"><ele>135.0</ele><time>2026-05-02T12:48:39.406Z</time></trkpt><trkpt lat="54.4529333" lon="-1.667415"><ele>135.0</ele><time>2026-05-02T12:48:40.408Z</time></trkpt><trkpt lat="54.453145" lon="-1.6672667"><ele>132.5</ele><time>2026-05-02T12:48:41.403Z</time></trkpt><trkpt lat="54.4533617" lon="-1.6671333"><ele>130.0</ele><time>2026-05-02T12:48:42.404Z</time></trkpt><trkpt lat="54.453585" lon="-1.667035"><ele>128.0</ele><time>2026-05-02T12:48:43.402Z</time></trkpt><trkpt lat="54.453815" lon="-1.66697"><ele>126.0</ele><time>2026-05-02T12:48:44.408Z</time></trkpt><trkpt lat="54.4540517" lon="-1.6669333"><ele>126.0</ele><time>2026-05-02T12:48:45.414Z</time></trkpt><trkpt lat="54.45429" lon="-1.666925"><ele>126.0</ele><time>2026-05-02T12:48:46.405Z</time></trkpt><trkpt lat="54.4545283" lon="-1.6669467"><ele>126.0</ele><time>2026-05-02T12:48:47.405Z</time></trkpt><trkpt lat="54.4547667" lon="-1.6669917"><ele>126.0</ele><time>2026-05-02T12:48:48.403Z</time></trkpt><trkpt lat="54.4550017" lon="-1.6670617"><ele>126.0</ele><time>2026-05-02T12:48:49.406Z</time></trkpt><trkpt lat="54.45523" lon="-1.6671583"><ele>126.0</ele><time>2026-05-02T12:48:50.403Z</time></trkpt><trkpt lat="54.455455" lon="-1.667265"><ele>126.5</ele><time>2026-05-02T12:48:51.402Z</time></trkpt><trkpt lat="54.4556733" lon="-1.6673733"><ele>127.0</ele><time>2026-05-02T12:48:52.403Z</time></trkpt><trkpt lat="54.4558933" lon="-1.6674767"><ele>127.0</ele><time>2026-05-02T12:48:53.402Z</time></trkpt><trkpt lat="54.4561183" lon="-1.6675583"><ele>127.0</ele><time>2026-05-02T12:48:54.402Z</time></trkpt><trkpt lat="54.4563483" lon="-1.6676083"><ele>128.0</ele><time>2026-05-02T12:48:55.407Z</time></trkpt><trkpt lat="54.4568283" lon="-1.6676467"><ele>128.0</ele><time>2026-05-02T12:48:57.407Z</time></trkpt><trkpt lat="54.4570767" lon="-1.66762"><ele>128.0</ele><time>2026-05-02T12:48:58.406Z</time></trkpt><trkpt lat="54.4573233" lon="-1.667575"><ele>126.5</ele><time>2026-05-02T12:48:59.408Z</time></trkpt><trkpt lat="54.4575683" lon="-1.66752"><ele>125.0</ele><time>2026-05-02T12:49:00.406Z</time></trkpt><trkpt lat="54.4578117" lon="-1.66745"><ele>124.0</ele><time>2026-05-02T12:49:01.405Z</time></trkpt><trkpt lat="54.4580517" lon="-1.6673667"><ele>123.0</ele><time>2026-05-02T12:49:02.404Z</time></trkpt><trkpt lat="54.45829" lon="-1.6672617"><ele>123.0</ele><time>2026-05-02T12:49:03.402Z</time></trkpt><trkpt lat="54.458525" lon="-1.66713"><ele>123.0</ele><time>2026-05-02T12:49:04.404Z</time></trkpt><trkpt lat="54.4587583" lon="-1.6669667"><ele>120.0</ele><time>2026-05-02T12:49:05.403Z</time></trkpt><trkpt lat="54.458995" lon="-1.6667817"><ele>117.0</ele><time>2026-05-02T12:49:06.407Z</time></trkpt><trkpt lat="54.45945" lon="-1.6663617"><ele>116.5</ele><time>2026-05-02T12:49:08.403Z</time></trkpt><trkpt lat="54.4596733" lon="-1.6661267"><ele>116.0</ele><time>2026-05-02T12:49:09.404Z</time></trkpt><trkpt lat="54.4598883" lon="-1.6658817"><ele>115.0</ele><time>2026-05-02T12:49:10.403Z</time></trkpt><trkpt lat="54.4601017" lon="-1.66562"><ele>114.0</ele><time>2026-05-02T12:49:11.405Z</time></trkpt><trkpt lat="54.4603133" lon="-1.6653517"><ele>114.0</ele><time>2026-05-02T12:49:12.402Z</time></trkpt><trkpt lat="54.460525" lon="-1.6650933"><ele>114.0</ele><time>2026-05-02T12:49:13.406Z</time></trkpt><trkpt lat="54.4607333" lon="-1.6648317"><ele>114.0</ele><time>2026-05-02T12:49:14.403Z</time></trkpt><trkpt lat="54.4609367" lon="-1.6645617"><ele>114.0</ele><time>2026-05-02T12:49:15.403Z</time></trkpt><trkpt lat="54.4611367" lon="-1.6642967"><ele>114.5</ele><time>2026-05-02T12:49:16.402Z</time></trkpt><trkpt lat="54.4613317" lon="-1.6640317"><ele>115.0</ele><time>2026-05-02T12:49:17.402Z</time></trkpt><trkpt lat="54.4617133" lon="-1.6634983"><ele>115.0</ele><time>2026-05-02T12:49:19.402Z</time></trkpt><trkpt lat="54.4619033" lon="-1.6632383"><ele>115.0</ele><time>2026-05-02T12:49:20.405Z</time></trkpt><trkpt lat="54.4620983" lon="-1.6629817"><ele>110.5</ele><time>2026-05-02T12:49:21.403Z</time></trkpt><trkpt lat="54.4622967" lon="-1.6627317"><ele>106.0</ele><time>2026-05-02T12:49:22.405Z</time></trkpt><trkpt lat="54.462515" lon="-1.6624967"><ele>106.0</ele><time>2026-05-02T12:49:23.404Z</time></trkpt><trkpt lat="54.462735" lon="-1.6622633"><ele>106.0</ele><time>2026-05-02T12:49:24.402Z</time></trkpt><trkpt lat="54.4629633" lon="-1.6620333"><ele>103.0</ele><time>2026-05-02T12:49:25.402Z</time></trkpt><trkpt lat="54.4631833" lon="-1.6618067"><ele>100.0</ele><time>2026-05-02T12:49:26.403Z</time></trkpt><trkpt lat="54.4633983" lon="-1.6615683"><ele>100.0</ele><time>2026-05-02T12:49:27.402Z</time></trkpt><trkpt lat="54.4636067" lon="-1.6613367"><ele>100.0</ele><time>2026-05-02T12:49:28.402Z</time></trkpt><trkpt lat="54.4638167" lon="-1.6611017"><ele>97.5</ele><time>2026-05-02T12:49:29.406Z</time></trkpt><trkpt lat="54.4640283" lon="-1.6608767"><ele>95.0</ele><time>2026-05-02T12:49:30.404Z</time></trkpt><trkpt lat="54.4642367" lon="-1.6606567"><ele>95.0</ele><time>2026-05-02T12:49:31.404Z</time></trkpt><trkpt lat="54.4644433" lon="-1.6604433"><ele>95.0</ele><time>2026-05-02T12:49:32.404Z</time></trkpt><trkpt lat="54.464645" lon="-1.6602283"><ele>93.5</ele><time>2026-05-02T12:49:33.403Z</time></trkpt><trkpt lat="54.464845" lon="-1.6600167"><ele>92.0</ele><time>2026-05-02T12:49:34.403Z</time></trkpt><trkpt lat="54.46525" lon="-1.6595883"><ele>91.33333333333334</ele><time>2026-05-02T12:49:36.403Z</time></trkpt><trkpt lat="54.4654483" lon="-1.6593833"><ele>90.66666666666667</ele><time>2026-05-02T12:49:37.406Z</time></trkpt><trkpt lat="54.4656333" lon="-1.6591917"><ele>90.0</ele><time>2026-05-02T12:49:38.403Z</time></trkpt><trkpt lat="54.4658" lon="-1.6590217"><ele>90.0</ele><time>2026-05-02T12:49:39.406Z</time></trkpt><trkpt lat="54.4659533" lon="-1.6588817"><ele>90.0</ele><time>2026-05-02T12:49:40.405Z</time></trkpt><trkpt lat="54.4661117" lon="-1.6587717"><ele>90.0</ele><time>2026-05-02T12:49:41.408Z</time></trkpt><trkpt lat="54.4662717" lon="-1.6587083"><ele>89.66666666666667</ele><time>2026-05-02T12:49:42.402Z</time></trkpt><trkpt lat="54.4664317" lon="-1.658685"><ele>89.33333333333334</ele><time>2026-05-02T12:49:43.402Z</time></trkpt><trkpt lat="54.46659" lon="-1.6587"><ele>89.0</ele><time>2026-05-02T12:49:44.404Z</time></trkpt><trkpt lat="54.4667317" lon="-1.65874"><ele>89.0</ele><time>2026-05-02T12:49:45.405Z</time></trkpt><trkpt lat="54.46685" lon="-1.6588017"><ele>89.0</ele><time>2026-05-02T12:49:46.403Z</time></trkpt><trkpt lat="54.466935" lon="-1.6588717"><ele>89.0</ele><time>2026-05-02T12:49:47.404Z</time></trkpt><trkpt lat="54.4670017" lon="-1.6589483"><ele>89.0</ele><time>2026-05-02T12:49:48.408Z</time></trkpt><trkpt lat="54.4670433" lon="-1.659045"><ele>89.0</ele><time>2026-05-02T12:49:49.402Z</time></trkpt><trkpt lat="54.4670783" lon="-1.6591483"><ele>89.0</ele><time>2026-05-02T12:49:50.406Z</time></trkpt><trkpt lat="54.4670833" lon="-1.6592817"><ele>89.5</ele><time>2026-05-02T12:49:51.406Z</time></trkpt><trkpt lat="54.4670767" lon="-1.6594583"><ele>90.0</ele><time>2026-05-02T12:49:52.407Z</time></trkpt><trkpt lat="54.4670333" lon="-1.659715"><ele>90.5</ele><time>2026-05-02T12:49:53.408Z</time></trkpt><trkpt lat="54.467" lon="-1.6599867"><ele>91.0</ele><time>2026-05-02T12:49:54.403Z</time></trkpt><trkpt lat="54.4669683" lon="-1.6602833"><ele>91.66666666666666</ele><time>2026-05-02T12:49:55.403Z</time></trkpt><trkpt lat="54.4669533" lon="-1.660585"><ele>92.33333333333333</ele><time>2026-05-02T12:49:56.404Z</time></trkpt><trkpt lat="54.466955" lon="-1.6608867"><ele>93.0</ele><time>2026-05-02T12:49:57.406Z</time></trkpt><trkpt lat="54.4669733" lon="-1.6611883"><ele>93.33333333333333</ele><time>2026-05-02T12:49:58.406Z</time></trkpt><trkpt lat="54.4670033" lon="-1.661495"><ele>93.66666666666666</ele><time>2026-05-02T12:49:59.406Z</time></trkpt><trkpt lat="54.467045" lon="-1.6618033"><ele>94.0</ele><time>2026-05-02T12:50:00.405Z</time></trkpt><trkpt lat="54.4671017" lon="-1.66211"><ele>93.0</ele><time>2026-05-02T12:50:01.406Z</time></trkpt><trkpt lat="54.4672383" lon="-1.6627283"><ele>92.0</ele><time>2026-05-02T12:50:03.403Z</time></trkpt><trkpt lat="54.467315" lon="-1.6630283"><ele>92.0</ele><time>2026-05-02T12:50:04.404Z</time></trkpt><trkpt lat="54.4673933" lon="-1.6633183"><ele>92.0</ele><time>2026-05-02T12:50:05.404Z</time></trkpt><trkpt lat="54.46747" lon="-1.6635983"><ele>92.0</ele><time>2026-05-02T12:50:06.403Z</time></trkpt><trkpt lat="54.4675367" lon="-1.663865"><ele>93.0</ele><time>2026-05-02T12:50:07.403Z</time></trkpt><trkpt lat="54.4675967" lon="-1.6641083"><ele>94.0</ele><time>2026-05-02T12:50:08.403Z</time></trkpt><trkpt lat="54.4676567" lon="-1.66433"><ele>95.0</ele><time>2026-05-02T12:50:09.402Z</time></trkpt><trkpt lat="54.467705" lon="-1.6645467"><ele>96.0</ele><time>2026-05-02T12:50:10.402Z</time></trkpt><trkpt lat="54.4677417" lon="-1.6647583"><ele>96.25</ele><time>2026-05-02T12:50:11.403Z</time></trkpt><trkpt lat="54.4677517" lon="-1.664985"><ele>96.5</ele><time>2026-05-02T12:50:12.402Z</time></trkpt><trkpt lat="54.46774" lon="-1.665205"><ele>96.75</ele><time>2026-05-02T12:50:13.406Z</time></trkpt><trkpt lat="54.4677133" lon="-1.66541"><ele>97.0</ele><time>2026-05-02T12:50:14.402Z</time></trkpt><trkpt lat="54.4677017" lon="-1.6658483"><ele>97.0</ele><time>2026-05-02T12:50:16.402Z</time></trkpt><trkpt lat="54.4677233" lon="-1.6660867"><ele>97.0</ele><time>2026-05-02T12:50:17.411Z</time></trkpt><trkpt lat="54.467775" lon="-1.6663267"><ele>97.0</ele><time>2026-05-02T12:50:18.403Z</time></trkpt><trkpt lat="54.4678567" lon="-1.66655"><ele>97.0</ele><time>2026-05-02T12:50:19.403Z</time></trkpt><trkpt lat="54.4679483" lon="-1.666775"><ele>98.33333333333334</ele><time>2026-05-02T12:50:20.402Z</time></trkpt><trkpt lat="54.468055" lon="-1.6669983"><ele>99.66666666666666</ele><time>2026-05-02T12:50:21.403Z</time></trkpt><trkpt lat="54.4681867" lon="-1.667185"><ele>101.0</ele><time>2026-05-02T12:50:22.403Z</time></trkpt><trkpt lat="54.4683433" lon="-1.6673367"><ele>101.0</ele><time>2026-05-02T12:50:23.402Z</time></trkpt><trkpt lat="54.4685133" lon="-1.6674817"><ele>101.0</ele><time>2026-05-02T12:50:24.402Z</time></trkpt><trkpt lat="54.468685" lon="-1.6676517"><ele>101.0</ele><time>2026-05-02T12:50:25.402Z</time></trkpt><trkpt lat="54.4688467" lon="-1.66787"><ele>100.66666666666666</ele><time>2026-05-02T12:50:26.403Z</time></trkpt><trkpt lat="54.469005" lon="-1.6681217"><ele>100.33333333333334</ele><time>2026-05-02T12:50:27.405Z</time></trkpt><trkpt lat="54.46916" lon="-1.668385"><ele>100.0</ele><time>2026-05-02T12:50:28.402Z</time></trkpt><trkpt lat="54.4693183" lon="-1.66865"><ele>101.0</ele><time>2026-05-02T12:50:29.402Z</time></trkpt><trkpt lat="54.4694767" lon="-1.6688917"><ele>102.0</ele><time>2026-05-02T12:50:30.403Z</time></trkpt><trkpt lat="54.4696217" lon="-1.6690867"><ele>103.0</ele><time>2026-05-02T12:50:31.405Z</time></trkpt><trkpt lat="54.4697467" lon="-1.669245"><ele>103.00000000000001</ele><time>2026-05-02T12:50:32.402Z</time></trkpt><trkpt lat="54.469825" lon="-1.669315"><ele>103.0</ele><time>2026-05-02T12:50:33.403Z</time></trkpt><trkpt lat="54.469895" lon="-1.66928"><ele>103.0</ele><time>2026-05-02T12:50:46.405Z</time></trkpt><trkpt lat="54.470015" lon="-1.669315"><ele>103.0</ele><time>2026-05-02T12:50:48.403Z</time></trkpt><trkpt lat="54.4700833" lon="-1.6693633"><ele>103.00000000000001</ele><time>2026-05-02T12:50:49.404Z</time></trkpt><trkpt lat="54.470145" lon="-1.6694283"><ele>103.0</ele><time>2026-05-02T12:50:50.404Z</time></trkpt><trkpt lat="54.470195" lon="-1.6695167"><ele>103.80000000000001</ele><time>2026-05-02T12:50:51.403Z</time></trkpt><trkpt lat="54.47023" lon="-1.6696383"><ele>104.6</ele><time>2026-05-02T12:50:52.404Z</time></trkpt><trkpt lat="54.4702383" lon="-1.6697883"><ele>105.39999999999999</ele><time>2026-05-02T12:50:53.405Z</time></trkpt><trkpt lat="54.47022" lon="-1.6700067"><ele>106.19999999999999</ele><time>2026-05-02T12:50:54.406Z</time></trkpt><trkpt lat="54.4702" lon="-1.6702567"><ele>107.0</ele><time>2026-05-02T12:50:55.406Z</time></trkpt><trkpt lat="54.4701583" lon="-1.670555"><ele>107.66666666666666</ele><time>2026-05-02T12:50:56.402Z</time></trkpt><trkpt lat="54.470115" lon="-1.6708633"><ele>108.33333333333334</ele><time>2026-05-02T12:50:57.402Z</time></trkpt><trkpt lat="54.4700767" lon="-1.6711683"><ele>109.0</ele><time>2026-05-02T12:50:58.402Z</time></trkpt><trkpt lat="54.470045" lon="-1.6714583"><ele>110.33333333333334</ele><time>2026-05-02T12:50:59.404Z</time></trkpt><trkpt lat="54.470025" lon="-1.6717333"><ele>111.66666666666666</ele><time>2026-05-02T12:51:00.403Z</time></trkpt><trkpt lat="54.4700333" lon="-1.67201"><ele>113.0</ele><time>2026-05-02T12:51:01.403Z</time></trkpt><trkpt lat="54.4700667" lon="-1.6723067"><ele>113.33333333333333</ele><time>2026-05-02T12:51:02.407Z</time></trkpt><trkpt lat="54.4701183" lon="-1.6726183"><ele>113.66666666666666</ele><time>2026-05-02T12:51:03.403Z</time></trkpt><trkpt lat="54.4701667" lon="-1.6729383"><ele>114.0</ele><time>2026-05-02T12:51:04.406Z</time></trkpt><trkpt lat="54.47022" lon="-1.6732683"><ele>114.33333333333334</ele><time>2026-05-02T12:51:05.406Z</time></trkpt><trkpt lat="54.4702717" lon="-1.6736033"><ele>114.66666666666667</ele><time>2026-05-02T12:51:06.402Z</time></trkpt><trkpt lat="54.470325" lon="-1.6739433"><ele>115.0</ele><time>2026-05-02T12:51:07.405Z</time></trkpt><trkpt lat="54.4703767" lon="-1.6742733"><ele>116.0</ele><time>2026-05-02T12:51:08.407Z</time></trkpt><trkpt lat="54.470425" lon="-1.674585"><ele>117.0</ele><time>2026-05-02T12:51:09.406Z</time></trkpt><trkpt lat="54.4704633" lon="-1.67489"><ele>118.0</ele><time>2026-05-02T12:51:10.405Z</time></trkpt><trkpt lat="54.4704667" lon="-1.6752167"><ele>119.0</ele><time>2026-05-02T12:51:11.406Z</time></trkpt><trkpt lat="54.470445" lon="-1.67556"><ele>120.0</ele><time>2026-05-02T12:51:12.402Z</time></trkpt><trkpt lat="54.470405" lon="-1.6759217"><ele>121.0</ele><time>2026-05-02T12:51:13.405Z</time></trkpt><trkpt lat="54.47036" lon="-1.67629"><ele>121.66666666666667</ele><time>2026-05-02T12:51:14.405Z</time></trkpt><trkpt lat="54.4703067" lon="-1.6766567"><ele>122.33333333333334</ele><time>2026-05-02T12:51:15.406Z</time></trkpt><trkpt lat="54.47025" lon="-1.677025"><ele>123.0</ele><time>2026-05-02T12:51:16.403Z</time></trkpt><trkpt lat="54.4701967" lon="-1.6773967"><ele>126.5</ele><time>2026-05-02T12:51:17.406Z</time></trkpt><trkpt lat="54.4701617" lon="-1.67778"><ele>130.0</ele><time>2026-05-02T12:51:18.405Z</time></trkpt><trkpt lat="54.4701417" lon="-1.6781717"><ele>130.0</ele><time>2026-05-02T12:51:19.403Z</time></trkpt><trkpt lat="54.470135" lon="-1.6785717"><ele>130.0</ele><time>2026-05-02T12:51:20.404Z</time></trkpt><trkpt lat="54.470135" lon="-1.6789683"><ele>131.0</ele><time>2026-05-02T12:51:21.403Z</time></trkpt><trkpt lat="54.4701367" lon="-1.679365"><ele>132.0</ele><time>2026-05-02T12:51:22.404Z</time></trkpt><trkpt lat="54.47013" lon="-1.679765"><ele>133.0</ele><time>2026-05-02T12:51:23.405Z</time></trkpt><trkpt lat="54.470115" lon="-1.68017"><ele>134.0</ele><time>2026-05-02T12:51:24.404Z</time></trkpt><trkpt lat="54.4701033" lon="-1.6805717"><ele>134.0</ele><time>2026-05-02T12:51:25.405Z</time></trkpt><trkpt lat="54.470085" lon="-1.680965"><ele>134.0</ele><time>2026-05-02T12:51:26.408Z</time></trkpt><trkpt lat="54.4700717" lon="-1.6813567"><ele>134.0</ele><time>2026-05-02T12:51:27.404Z</time></trkpt><trkpt lat="54.47006" lon="-1.6817533"><ele>134.0</ele><time>2026-05-02T12:51:28.402Z</time></trkpt><trkpt lat="54.4700467" lon="-1.68215"><ele>134.0</ele><time>2026-05-02T12:51:29.406Z</time></trkpt><trkpt lat="54.4700417" lon="-1.6825433"><ele>134.0</ele><time>2026-05-02T12:51:30.403Z</time></trkpt><trkpt lat="54.4700467" lon="-1.68294"><ele>134.0</ele><time>2026-05-02T12:51:31.403Z</time></trkpt><trkpt lat="54.470085" lon="-1.6833383"><ele>134.0</ele><time>2026-05-02T12:51:32.406Z</time></trkpt><trkpt lat="54.4701417" lon="-1.68373"><ele>134.5</ele><time>2026-05-02T12:51:33.404Z</time></trkpt><trkpt lat="54.4702117" lon="-1.6841133"><ele>135.0</ele><time>2026-05-02T12:51:34.404Z</time></trkpt><trkpt lat="54.4702733" lon="-1.684485"><ele>135.0</ele><time>2026-05-02T12:51:35.403Z</time></trkpt><trkpt lat="54.4703267" lon="-1.6848383"><ele>135.0</ele><time>2026-05-02T12:51:36.405Z</time></trkpt><trkpt lat="54.47037" lon="-1.685165"><ele>135.0</ele><time>2026-05-02T12:51:37.405Z</time></trkpt><trkpt lat="54.4703817" lon="-1.6854683"><ele>135.0</ele><time>2026-05-02T12:51:38.406Z</time></trkpt><trkpt lat="54.4703583" lon="-1.6857667"><ele>135.0</ele><time>2026-05-02T12:51:39.406Z</time></trkpt><trkpt lat="54.4703083" lon="-1.686065"><ele>135.0</ele><time>2026-05-02T12:51:40.403Z</time></trkpt><trkpt lat="54.4702367" lon="-1.6863583"><ele>135.0</ele><time>2026-05-02T12:51:41.403Z</time></trkpt><trkpt lat="54.47014" lon="-1.6866467"><ele>135.0</ele><time>2026-05-02T12:51:42.402Z</time></trkpt><trkpt lat="54.4700467" lon="-1.68693"><ele>135.0</ele><time>2026-05-02T12:51:43.402Z</time></trkpt><trkpt lat="54.46997" lon="-1.6872083"><ele>135.0</ele><time>2026-05-02T12:51:44.402Z</time></trkpt><trkpt lat="54.469925" lon="-1.6874983"><ele>135.0</ele><time>2026-05-02T12:51:45.403Z</time></trkpt><trkpt lat="54.4699" lon="-1.6878133"><ele>135.0</ele><time>2026-05-02T12:51:46.402Z</time></trkpt><trkpt lat="54.4699" lon="-1.6881367"><ele>135.33333333333334</ele><time>2026-05-02T12:51:47.404Z</time></trkpt><trkpt lat="54.4699117" lon="-1.6884567"><ele>135.66666666666669</ele><time>2026-05-02T12:51:48.402Z</time></trkpt><trkpt lat="54.469925" lon="-1.688765"><ele>136.0</ele><time>2026-05-02T12:51:49.406Z</time></trkpt><trkpt lat="54.4699533" lon="-1.6890783"><ele>136.66666666666669</ele><time>2026-05-02T12:51:50.403Z</time></trkpt><trkpt lat="54.4699867" lon="-1.6893867"><ele>137.33333333333334</ele><time>2026-05-02T12:51:51.404Z</time></trkpt><trkpt lat="54.4700217" lon="-1.6896833"><ele>138.0</ele><time>2026-05-02T12:51:52.404Z</time></trkpt><trkpt lat="54.4700467" lon="-1.68998"><ele>138.75</ele><time>2026-05-02T12:51:53.405Z</time></trkpt><trkpt lat="54.4700533" lon="-1.690265"><ele>139.5</ele><time>2026-05-02T12:51:54.402Z</time></trkpt><trkpt lat="54.47005" lon="-1.6905133"><ele>140.25</ele><time>2026-05-02T12:51:55.402Z</time></trkpt><trkpt lat="54.470055" lon="-1.690725"><ele>141.0</ele><time>2026-05-02T12:51:56.403Z</time></trkpt><trkpt lat="54.4700617" lon="-1.6909067"><ele>141.0</ele><time>2026-05-02T12:51:57.406Z</time></trkpt><trkpt lat="54.47006" lon="-1.6910683"><ele>141.0</ele><time>2026-05-02T12:51:58.403Z</time></trkpt><trkpt lat="54.4700733" lon="-1.6912283"><ele>141.0</ele><time>2026-05-02T12:51:59.404Z</time></trkpt><trkpt lat="54.4700867" lon="-1.691375"><ele>141.0</ele><time>2026-05-02T12:52:00.403Z</time></trkpt><trkpt lat="54.4700883" lon="-1.69152"><ele>141.0</ele><time>2026-05-02T12:52:01.405Z</time></trkpt><trkpt lat="54.4700767" lon="-1.691675"><ele>141.0</ele><time>2026-05-02T12:52:02.403Z</time></trkpt><trkpt lat="54.4700633" lon="-1.691825"><ele>141.6</ele><time>2026-05-02T12:52:03.405Z</time></trkpt><trkpt lat="54.4700583" lon="-1.69198"><ele>142.2</ele><time>2026-05-02T12:52:04.401Z</time></trkpt><trkpt lat="54.47006" lon="-1.6921333"><ele>142.8</ele><time>2026-05-02T12:52:05.404Z</time></trkpt><trkpt lat="54.4700867" lon="-1.6922967"><ele>143.4</ele><time>2026-05-02T12:52:06.402Z</time></trkpt><trkpt lat="54.4701283" lon="-1.6924617"><ele>144.0</ele><time>2026-05-02T12:52:07.402Z</time></trkpt><trkpt lat="54.4701717" lon="-1.6926317"><ele>144.0</ele><time>2026-05-02T12:52:08.402Z</time></trkpt><trkpt lat="54.4702217" lon="-1.6928033"><ele>144.0</ele><time>2026-05-02T12:52:09.403Z</time></trkpt><trkpt lat="54.47028" lon="-1.69297"><ele>144.0</ele><time>2026-05-02T12:52:10.402Z</time></trkpt><trkpt lat="54.4703467" lon="-1.6931283"><ele>144.0</ele><time>2026-05-02T12:52:11.402Z</time></trkpt><trkpt lat="54.4704217" lon="-1.6932833"><ele>144.25</ele><time>2026-05-02T12:52:12.401Z</time></trkpt><trkpt lat="54.47051" lon="-1.6934367"><ele>144.5</ele><time>2026-05-02T12:52:13.401Z</time></trkpt><trkpt lat="54.4705933" lon="-1.6935817"><ele>144.75</ele><time>2026-05-02T12:52:14.402Z</time></trkpt><trkpt lat="54.4706667" lon="-1.6937283"><ele>145.0</ele><time>2026-05-02T12:52:15.401Z</time></trkpt><trkpt lat="54.4707133" lon="-1.6939033"><ele>145.0</ele><time>2026-05-02T12:52:16.403Z</time></trkpt><trkpt lat="54.4707383" lon="-1.6941017"><ele>145.0</ele><time>2026-05-02T12:52:17.405Z</time></trkpt><trkpt lat="54.47075" lon="-1.6943083"><ele>145.0</ele><time>2026-05-02T12:52:18.402Z</time></trkpt><trkpt lat="54.47076" lon="-1.694515"><ele>145.0</ele><time>2026-05-02T12:52:19.402Z</time></trkpt><trkpt lat="54.470765" lon="-1.6947183"><ele>145.0</ele><time>2026-05-02T12:52:20.402Z</time></trkpt><trkpt lat="54.47077" lon="-1.6949217"><ele>145.0</ele><time>2026-05-02T12:52:21.402Z</time></trkpt><trkpt lat="54.47078" lon="-1.6951217"><ele>145.0</ele><time>2026-05-02T12:52:22.402Z</time></trkpt><trkpt lat="54.47081" lon="-1.69532"><ele>145.0</ele><time>2026-05-02T12:52:23.402Z</time></trkpt><trkpt lat="54.470855" lon="-1.6955017"><ele>145.0</ele><time>2026-05-02T12:52:24.403Z</time></trkpt><trkpt lat="54.4708967" lon="-1.695655"><ele>145.0</ele><time>2026-05-02T12:52:25.402Z</time></trkpt><trkpt lat="54.4709383" lon="-1.695775"><ele>145.0</ele><time>2026-05-02T12:52:26.402Z</time></trkpt><trkpt lat="54.4709817" lon="-1.69587"><ele>145.0</ele><time>2026-05-02T12:52:27.403Z</time></trkpt><trkpt lat="54.471025" lon="-1.6959683"><ele>145.0</ele><time>2026-05-02T12:52:28.402Z</time></trkpt><trkpt lat="54.47107" lon="-1.6960917"><ele>145.0</ele><time>2026-05-02T12:52:29.402Z</time></trkpt><trkpt lat="54.4711117" lon="-1.6962583"><ele>145.25</ele><time>2026-05-02T12:52:30.406Z</time></trkpt><trkpt lat="54.47116" lon="-1.6964567"><ele>145.5</ele><time>2026-05-02T12:52:31.401Z</time></trkpt><trkpt lat="54.471215" lon="-1.6966683"><ele>145.75</ele><time>2026-05-02T12:52:32.404Z</time></trkpt><trkpt lat="54.4712683" lon="-1.6969067"><ele>146.0</ele><time>2026-05-02T12:52:33.403Z</time></trkpt><trkpt lat="54.4713233" lon="-1.6971417"><ele>146.0</ele><time>2026-05-02T12:52:34.406Z</time></trkpt><trkpt lat="54.471375" lon="-1.697365"><ele>146.0</ele><time>2026-05-02T12:52:35.405Z</time></trkpt><trkpt lat="54.4714217" lon="-1.69757"><ele>146.0</ele><time>2026-05-02T12:52:36.406Z</time></trkpt><trkpt lat="54.47147" lon="-1.6977717"><ele>146.0</ele><time>2026-05-02T12:52:37.405Z</time></trkpt><trkpt lat="54.4715183" lon="-1.6979633"><ele>146.5</ele><time>2026-05-02T12:52:38.409Z</time></trkpt><trkpt lat="54.4715767" lon="-1.6981517"><ele>147.0</ele><time>2026-05-02T12:52:39.407Z</time></trkpt><trkpt lat="54.4716417" lon="-1.6983333"><ele>147.5</ele><time>2026-05-02T12:52:40.403Z</time></trkpt><trkpt lat="54.471715" lon="-1.69851"><ele>148.0</ele><time>2026-05-02T12:52:41.404Z</time></trkpt><trkpt lat="54.4717967" lon="-1.698675"><ele>148.25</ele><time>2026-05-02T12:52:42.404Z</time></trkpt><trkpt lat="54.4718667" lon="-1.6988467"><ele>148.5</ele><time>2026-05-02T12:52:43.403Z</time></trkpt><trkpt lat="54.4719283" lon="-1.6990283"><ele>148.75</ele><time>2026-05-02T12:52:44.405Z</time></trkpt><trkpt lat="54.4719783" lon="-1.6992217"><ele>149.0</ele><time>2026-05-02T12:52:45.404Z</time></trkpt><trkpt lat="54.4720217" lon="-1.6994233"><ele>149.25</ele><time>2026-05-02T12:52:46.404Z</time></trkpt><trkpt lat="54.4720467" lon="-1.699635"><ele>149.5</ele><time>2026-05-02T12:52:47.405Z</time></trkpt><trkpt lat="54.4720733" lon="-1.6998517"><ele>149.75</ele><time>2026-05-02T12:52:48.41Z</time></trkpt><trkpt lat="54.4720867" lon="-1.7000617"><ele>150.0</ele><time>2026-05-02T12:52:49.404Z</time></trkpt><trkpt lat="54.472095" lon="-1.700275"><ele>150.0</ele><time>2026-05-02T12:52:50.404Z</time></trkpt><trkpt lat="54.4720833" lon="-1.7004983"><ele>150.0</ele><time>2026-05-02T12:52:51.403Z</time></trkpt><trkpt lat="54.4720617" lon="-1.7007367"><ele>150.0</ele><time>2026-05-02T12:52:52.404Z</time></trkpt><trkpt lat="54.4720333" lon="-1.7010033"><ele>150.0</ele><time>2026-05-02T12:52:53.402Z</time></trkpt><trkpt lat="54.4720067" lon="-1.7012933"><ele>150.0</ele><time>2026-05-02T12:52:54.404Z</time></trkpt><trkpt lat="54.4719767" lon="-1.7015983"><ele>150.0</ele><time>2026-05-02T12:52:55.405Z</time></trkpt><trkpt lat="54.4719617" lon="-1.7019217"><ele>150.0</ele><time>2026-05-02T12:52:56.404Z</time></trkpt><trkpt lat="54.4719567" lon="-1.7022617"><ele>150.33333333333334</ele><time>2026-05-02T12:52:57.404Z</time></trkpt><trkpt lat="54.4719633" lon="-1.702605"><ele>150.66666666666669</ele><time>2026-05-02T12:52:58.404Z</time></trkpt><trkpt lat="54.471965" lon="-1.70295"><ele>151.0</ele><time>2026-05-02T12:52:59.403Z</time></trkpt><trkpt lat="54.471965" lon="-1.703305"><ele>151.0</ele><time>2026-05-02T12:53:00.406Z</time></trkpt><trkpt lat="54.4719483" lon="-1.7036617"><ele>151.0</ele><time>2026-05-02T12:53:01.403Z</time></trkpt><trkpt lat="54.4719217" lon="-1.7040133"><ele>151.0</ele><time>2026-05-02T12:53:02.402Z</time></trkpt><trkpt lat="54.4718783" lon="-1.7043483"><ele>151.66666666666669</ele><time>2026-05-02T12:53:03.402Z</time></trkpt><trkpt lat="54.4718467" lon="-1.7046817"><ele>152.33333333333334</ele><time>2026-05-02T12:53:04.405Z</time></trkpt><trkpt lat="54.471835" lon="-1.7050367"><ele>153.0</ele><time>2026-05-02T12:53:05.403Z</time></trkpt><trkpt lat="54.471845" lon="-1.705405"><ele>153.33333333333334</ele><time>2026-05-02T12:53:06.403Z</time></trkpt><trkpt lat="54.4718733" lon="-1.7057733"><ele>153.66666666666669</ele><time>2026-05-02T12:53:07.404Z</time></trkpt><trkpt lat="54.4719117" lon="-1.70612"><ele>154.0</ele><time>2026-05-02T12:53:08.403Z</time></trkpt><trkpt lat="54.4719633" lon="-1.7064467"><ele>154.0</ele><time>2026-05-02T12:53:09.402Z</time></trkpt><trkpt lat="54.4720383" lon="-1.7067683"><ele>154.0</ele><time>2026-05-02T12:53:10.403Z</time></trkpt><trkpt lat="54.47214" lon="-1.707085"><ele>154.0</ele><time>2026-05-02T12:53:11.402Z</time></trkpt><trkpt lat="54.4722417" lon="-1.7074217"><ele>155.5</ele><time>2026-05-02T12:53:12.405Z</time></trkpt><trkpt lat="54.4723283" lon="-1.7077833"><ele>157.0</ele><time>2026-05-02T12:53:13.41Z</time></trkpt><trkpt lat="54.4723933" lon="-1.7081617"><ele>157.0</ele><time>2026-05-02T12:53:14.402Z</time></trkpt><trkpt lat="54.4724483" lon="-1.7085517"><ele>157.0</ele><time>2026-05-02T12:53:15.404Z</time></trkpt><trkpt lat="54.4725033" lon="-1.7089433"><ele>157.5</ele><time>2026-05-02T12:53:16.404Z</time></trkpt><trkpt lat="54.4725633" lon="-1.7093333"><ele>158.0</ele><time>2026-05-02T12:53:17.405Z</time></trkpt><trkpt lat="54.4726283" lon="-1.709715"><ele>158.33333333333331</ele><time>2026-05-02T12:53:18.404Z</time></trkpt><trkpt lat="54.4726983" lon="-1.710085"><ele>158.66666666666666</ele><time>2026-05-02T12:53:19.405Z</time></trkpt><trkpt lat="54.472775" lon="-1.7104433"><ele>159.0</ele><time>2026-05-02T12:53:20.406Z</time></trkpt><trkpt lat="54.47285" lon="-1.710795"><ele>160.0</ele><time>2026-05-02T12:53:21.404Z</time></trkpt><trkpt lat="54.4729283" lon="-1.7111483"><ele>161.0</ele><time>2026-05-02T12:53:22.405Z</time></trkpt><trkpt lat="54.4730133" lon="-1.7115017"><ele>162.0</ele><time>2026-05-02T12:53:23.405Z</time></trkpt><trkpt lat="54.473105" lon="-1.7118567"><ele>163.0</ele><time>2026-05-02T12:53:24.404Z</time></trkpt><trkpt lat="54.4732" lon="-1.712205"><ele>164.0</ele><time>2026-05-02T12:53:25.406Z</time></trkpt><trkpt lat="54.4732983" lon="-1.7125533"><ele>165.0</ele><time>2026-05-02T12:53:26.407Z</time></trkpt><trkpt lat="54.4733983" lon="-1.7129017"><ele>166.5</ele><time>2026-05-02T12:53:27.407Z</time></trkpt><trkpt lat="54.4734983" lon="-1.7132583"><ele>168.0</ele><time>2026-05-02T12:53:28.406Z</time></trkpt><trkpt lat="54.4735917" lon="-1.71362"><ele>169.0</ele><time>2026-05-02T12:53:29.403Z</time></trkpt><trkpt lat="54.473675" lon="-1.7139817"><ele>170.0</ele><time>2026-05-02T12:53:30.405Z</time></trkpt><trkpt lat="54.4738317" lon="-1.714695"><ele>170.0</ele><time>2026-05-02T12:53:32.405Z</time></trkpt><trkpt lat="54.4739217" lon="-1.7150483"><ele>170.0</ele><time>2026-05-02T12:53:33.405Z</time></trkpt><trkpt lat="54.4740283" lon="-1.7153967"><ele>172.0</ele><time>2026-05-02T12:53:34.405Z</time></trkpt><trkpt lat="54.4741483" lon="-1.7157483"><ele>174.0</ele><time>2026-05-02T12:53:35.407Z</time></trkpt><trkpt lat="54.4742733" lon="-1.7161"><ele>174.0</ele><time>2026-05-02T12:53:36.402Z</time></trkpt><trkpt lat="54.4744083" lon="-1.716445"><ele>174.0</ele><time>2026-05-02T12:53:37.403Z</time></trkpt><trkpt lat="54.477055" lon="-1.7243483"><ele>173.33333333333334</ele><time>2026-05-02T12:54:00.405Z</time></trkpt><trkpt lat="54.47715" lon="-1.72464"><ele>172.66666666666669</ele><time>2026-05-02T12:54:01.405Z</time></trkpt><trkpt lat="54.4772333" lon="-1.7249083"><ele>172.0</ele><time>2026-05-02T12:54:02.406Z</time></trkpt><trkpt lat="54.4775083" lon="-1.725875"><ele>172.0</ele><time>2026-05-02T12:54:06.406Z</time></trkpt><trkpt lat="54.4775283" lon="-1.7261383"><ele>172.0</ele><time>2026-05-02T12:54:07.402Z</time></trkpt><trkpt lat="54.4775217" lon="-1.7264317"><ele>172.0</ele><time>2026-05-02T12:54:08.405Z</time></trkpt><trkpt lat="54.4774933" lon="-1.7267533"><ele>172.0</ele><time>2026-05-02T12:54:09.403Z</time></trkpt><trkpt lat="54.4774633" lon="-1.7270783"><ele>172.0</ele><time>2026-05-02T12:54:10.402Z</time></trkpt><trkpt lat="54.477435" lon="-1.7273933"><ele>172.0</ele><time>2026-05-02T12:54:11.403Z</time></trkpt><trkpt lat="54.4774033" lon="-1.727705"><ele>172.0</ele><time>2026-05-02T12:54:12.402Z</time></trkpt><trkpt lat="54.4773583" lon="-1.7279833"><ele>172.0</ele><time>2026-05-02T12:54:13.403Z</time></trkpt><trkpt lat="54.4773067" lon="-1.7282183"><ele>172.0</ele><time>2026-05-02T12:54:14.403Z</time></trkpt><trkpt lat="54.4772583" lon="-1.72839"><ele>172.0</ele><time>2026-05-02T12:54:15.405Z</time></trkpt><trkpt lat="54.4772317" lon="-1.72851"><ele>171.66666666666669</ele><time>2026-05-02T12:54:16.403Z</time></trkpt><trkpt lat="54.4772033" lon="-1.728615"><ele>171.33333333333334</ele><time>2026-05-02T12:54:17.402Z</time></trkpt><trkpt lat="54.4771867" lon="-1.72878"><ele>171.0</ele><time>2026-05-02T12:54:19.402Z</time></trkpt><trkpt lat="54.4772417" lon="-1.7289117"><ele>170.66666666666666</ele><time>2026-05-02T12:54:21.403Z</time></trkpt><trkpt lat="54.47731" lon="-1.7289883"><ele>170.33333333333331</ele><time>2026-05-02T12:54:22.403Z</time></trkpt><trkpt lat="54.4773983" lon="-1.7290817"><ele>170.0</ele><time>2026-05-02T12:54:23.402Z</time></trkpt><trkpt lat="54.4775183" lon="-1.7292117"><ele>170.0</ele><time>2026-05-02T12:54:24.402Z</time></trkpt><trkpt lat="54.4776567" lon="-1.7293667"><ele>170.0</ele><time>2026-05-02T12:54:25.402Z</time></trkpt><trkpt lat="54.4778" lon="-1.7295367"><ele>170.0</ele><time>2026-05-02T12:54:26.402Z</time></trkpt><trkpt lat="54.4779533" lon="-1.7297133"><ele>169.33333333333331</ele><time>2026-05-02T12:54:27.403Z</time></trkpt><trkpt lat="54.4781167" lon="-1.7299033"><ele>168.66666666666666</ele><time>2026-05-02T12:54:28.402Z</time></trkpt><trkpt lat="54.478285" lon="-1.7301067"><ele>168.0</ele><time>2026-05-02T12:54:29.402Z</time></trkpt><trkpt lat="54.478455" lon="-1.7303317"><ele>167.66666666666666</ele><time>2026-05-02T12:54:30.402Z</time></trkpt><trkpt lat="54.4786317" lon="-1.73056"><ele>167.33333333333331</ele><time>2026-05-02T12:54:31.402Z</time></trkpt><trkpt lat="54.4788083" lon="-1.7307883"><ele>167.0</ele><time>2026-05-02T12:54:32.402Z</time></trkpt><trkpt lat="54.4789783" lon="-1.7309983"><ele>166.66666666666666</ele><time>2026-05-02T12:54:33.402Z</time></trkpt><trkpt lat="54.4791533" lon="-1.731205"><ele>166.33333333333334</ele><time>2026-05-02T12:54:34.402Z</time></trkpt><trkpt lat="54.4793283" lon="-1.7314117"><ele>166.0</ele><time>2026-05-02T12:54:35.403Z</time></trkpt><trkpt lat="54.4795017" lon="-1.7316217"><ele>165.66666666666669</ele><time>2026-05-02T12:54:36.402Z</time></trkpt><trkpt lat="54.479675" lon="-1.731825"><ele>165.33333333333334</ele><time>2026-05-02T12:54:37.403Z</time></trkpt><trkpt lat="54.4798433" lon="-1.732025"><ele>165.0</ele><time>2026-05-02T12:54:38.404Z</time></trkpt><trkpt lat="54.4800117" lon="-1.7322167"><ele>165.0</ele><time>2026-05-02T12:54:39.402Z</time></trkpt><trkpt lat="54.48018" lon="-1.7324017"><ele>165.0</ele><time>2026-05-02T12:54:40.402Z</time></trkpt><trkpt lat="54.4803333" lon="-1.7325767"><ele>165.0</ele><time>2026-05-02T12:54:41.402Z</time></trkpt><trkpt lat="54.4804667" lon="-1.7327283"><ele>165.0</ele><time>2026-05-02T12:54:42.403Z</time></trkpt><trkpt lat="54.480575" lon="-1.7328633"><ele>165.0</ele><time>2026-05-02T12:54:43.402Z</time></trkpt><trkpt lat="54.4806783" lon="-1.7329683"><ele>165.0</ele><time>2026-05-02T12:54:44.402Z</time></trkpt><trkpt lat="54.4807717" lon="-1.7330583"><ele>165.0</ele><time>2026-05-02T12:54:45.403Z</time></trkpt><trkpt lat="54.4808633" lon="-1.7331083"><ele>165.0</ele><time>2026-05-02T12:54:46.402Z</time></trkpt><trkpt lat="54.4809617" lon="-1.7331233"><ele>165.0</ele><time>2026-05-02T12:54:47.402Z</time></trkpt><trkpt lat="54.481065" lon="-1.73309"><ele>165.0</ele><time>2026-05-02T12:54:48.403Z</time></trkpt><trkpt lat="54.481185" lon="-1.73299"><ele>165.0</ele><time>2026-05-02T12:54:49.402Z</time></trkpt><trkpt lat="54.4813117" lon="-1.7328467"><ele>163.33333333333334</ele><time>2026-05-02T12:54:50.403Z</time></trkpt><trkpt lat="54.48145" lon="-1.7326783"><ele>161.66666666666669</ele><time>2026-05-02T12:54:51.403Z</time></trkpt><trkpt lat="54.481595" lon="-1.73249"><ele>160.0</ele><time>2026-05-02T12:54:52.402Z</time></trkpt><trkpt lat="54.4817317" lon="-1.73231"><ele>160.0</ele><time>2026-05-02T12:54:53.409Z</time></trkpt><trkpt lat="54.4818667" lon="-1.7321483"><ele>160.0</ele><time>2026-05-02T12:54:54.403Z</time></trkpt><trkpt lat="54.4819967" lon="-1.73198"><ele>160.0</ele><time>2026-05-02T12:54:55.406Z</time></trkpt><trkpt lat="54.4821217" lon="-1.731835"><ele>158.0</ele><time>2026-05-02T12:54:56.403Z</time></trkpt><trkpt lat="54.4822517" lon="-1.7317367"><ele>156.0</ele><time>2026-05-02T12:54:57.403Z</time></trkpt><trkpt lat="54.4823983" lon="-1.73169"><ele>154.0</ele><time>2026-05-02T12:54:58.403Z</time></trkpt><trkpt lat="54.4825583" lon="-1.7316867"><ele>154.0</ele><time>2026-05-02T12:54:59.402Z</time></trkpt><trkpt lat="54.482725" lon="-1.731695"><ele>154.0</ele><time>2026-05-02T12:55:00.402Z</time></trkpt><trkpt lat="54.4828983" lon="-1.73169"><ele>154.0</ele><time>2026-05-02T12:55:01.404Z</time></trkpt><trkpt lat="54.4830817" lon="-1.731645"><ele>152.5</ele><time>2026-05-02T12:55:02.402Z</time></trkpt><trkpt lat="54.4832867" lon="-1.7315783"><ele>151.0</ele><time>2026-05-02T12:55:03.402Z</time></trkpt><trkpt lat="54.483525" lon="-1.7314933"><ele>149.5</ele><time>2026-05-02T12:55:04.405Z</time></trkpt><trkpt lat="54.4837717" lon="-1.73142"><ele>148.0</ele><time>2026-05-02T12:55:05.407Z</time></trkpt><trkpt lat="54.4840133" lon="-1.7313533"><ele>148.0</ele><time>2026-05-02T12:55:06.403Z</time></trkpt><trkpt lat="54.4842417" lon="-1.7312967"><ele>148.0</ele><time>2026-05-02T12:55:07.406Z</time></trkpt><trkpt lat="54.4844517" lon="-1.7312367"><ele>148.0</ele><time>2026-05-02T12:55:08.406Z</time></trkpt><trkpt lat="54.4848033" lon="-1.731145"><ele>147.66666666666669</ele><time>2026-05-02T12:55:10.402Z</time></trkpt><trkpt lat="54.4849883" lon="-1.7310817"><ele>147.33333333333334</ele><time>2026-05-02T12:55:11.404Z</time></trkpt><trkpt lat="54.485175" lon="-1.7309917"><ele>147.0</ele><time>2026-05-02T12:55:12.403Z</time></trkpt><trkpt lat="54.4853467" lon="-1.7309067"><ele>145.33333333333334</ele><time>2026-05-02T12:55:13.407Z</time></trkpt><trkpt lat="54.4855167" lon="-1.7308417"><ele>143.66666666666669</ele><time>2026-05-02T12:55:14.403Z</time></trkpt><trkpt lat="54.4856983" lon="-1.7307983"><ele>142.0</ele><time>2026-05-02T12:55:15.403Z</time></trkpt><trkpt lat="54.4858933" lon="-1.7307733"><ele>142.0</ele><time>2026-05-02T12:55:16.404Z</time></trkpt><trkpt lat="54.4860917" lon="-1.7307633"><ele>142.0</ele><time>2026-05-02T12:55:17.404Z</time></trkpt><trkpt lat="54.486295" lon="-1.730755"><ele>142.0</ele><time>2026-05-02T12:55:18.403Z</time></trkpt><trkpt lat="54.48651" lon="-1.7307283"><ele>142.5</ele><time>2026-05-02T12:55:19.404Z</time></trkpt><trkpt lat="54.4867333" lon="-1.7306817"><ele>143.0</ele><time>2026-05-02T12:55:20.405Z</time></trkpt><trkpt lat="54.48696" lon="-1.7306133"><ele>141.0</ele><time>2026-05-02T12:55:21.402Z</time></trkpt><trkpt lat="54.48719" lon="-1.730545"><ele>139.0</ele><time>2026-05-02T12:55:22.402Z</time></trkpt><trkpt lat="54.48742" lon="-1.7304717"><ele>139.0</ele><time>2026-05-02T12:55:23.404Z</time></trkpt><trkpt lat="54.48765" lon="-1.7303917"><ele>139.0</ele><time>2026-05-02T12:55:24.403Z</time></trkpt><trkpt lat="54.4878767" lon="-1.7302917"><ele>136.5</ele><time>2026-05-02T12:55:25.402Z</time></trkpt><trkpt lat="54.4881017" lon="-1.7301983"><ele>134.0</ele><time>2026-05-02T12:55:26.407Z</time></trkpt><trkpt lat="54.4883233" lon="-1.73011"><ele>134.0</ele><time>2026-05-02T12:55:27.406Z</time></trkpt><trkpt lat="54.4885417" lon="-1.7300083"><ele>134.0</ele><time>2026-05-02T12:55:28.402Z</time></trkpt><trkpt lat="54.4887517" lon="-1.729885"><ele>134.0</ele><time>2026-05-02T12:55:29.402Z</time></trkpt><trkpt lat="54.4889433" lon="-1.72975"><ele>134.33333333333331</ele><time>2026-05-02T12:55:30.402Z</time></trkpt><trkpt lat="54.489125" lon="-1.7296333"><ele>134.66666666666666</ele><time>2026-05-02T12:55:31.404Z</time></trkpt><trkpt lat="54.489315" lon="-1.7295533"><ele>135.0</ele><time>2026-05-02T12:55:32.404Z</time></trkpt><trkpt lat="54.4895217" lon="-1.7295133"><ele>134.66666666666666</ele><time>2026-05-02T12:55:33.405Z</time></trkpt><trkpt lat="54.48974" lon="-1.7294917"><ele>134.33333333333331</ele><time>2026-05-02T12:55:34.407Z</time></trkpt><trkpt lat="54.4899667" lon="-1.7295067"><ele>134.0</ele><time>2026-05-02T12:55:35.402Z</time></trkpt><trkpt lat="54.4902" lon="-1.7295533"><ele>133.5</ele><time>2026-05-02T12:55:36.402Z</time></trkpt><trkpt lat="54.4904333" lon="-1.7296033"><ele>133.0</ele><time>2026-05-02T12:55:37.402Z</time></trkpt><trkpt lat="54.4906583" lon="-1.7296517"><ele>133.0</ele><time>2026-05-02T12:55:38.406Z</time></trkpt><trkpt lat="54.4908833" lon="-1.7296767"><ele>133.0</ele><time>2026-05-02T12:55:39.406Z</time></trkpt><trkpt lat="54.491105" lon="-1.7296983"><ele>133.0</ele><time>2026-05-02T12:55:40.404Z</time></trkpt><trkpt lat="54.491315" lon="-1.7297167"><ele>132.33333333333334</ele><time>2026-05-02T12:55:41.405Z</time></trkpt><trkpt lat="54.49151" lon="-1.72974"><ele>131.66666666666666</ele><time>2026-05-02T12:55:42.404Z</time></trkpt><trkpt lat="54.4917" lon="-1.7297867"><ele>131.0</ele><time>2026-05-02T12:55:43.404Z</time></trkpt><trkpt lat="54.491895" lon="-1.7298617"><ele>130.0</ele><time>2026-05-02T12:55:44.404Z</time></trkpt><trkpt lat="54.4921" lon="-1.7299483"><ele>129.0</ele><time>2026-05-02T12:55:45.405Z</time></trkpt><trkpt lat="54.4923167" lon="-1.73002"><ele>128.0</ele><time>2026-05-02T12:55:46.406Z</time></trkpt><trkpt lat="54.4925333" lon="-1.7300717"><ele>128.0</ele><time>2026-05-02T12:55:47.407Z</time></trkpt><trkpt lat="54.4927517" lon="-1.7301117"><ele>128.0</ele><time>2026-05-02T12:55:48.403Z</time></trkpt><trkpt lat="54.4929683" lon="-1.7301567"><ele>128.0</ele><time>2026-05-02T12:55:49.404Z</time></trkpt><trkpt lat="54.4931817" lon="-1.7302117"><ele>127.0</ele><time>2026-05-02T12:55:50.404Z</time></trkpt><trkpt lat="54.49339" lon="-1.7302783"><ele>126.0</ele><time>2026-05-02T12:55:51.403Z</time></trkpt><trkpt lat="54.4935983" lon="-1.73036"><ele>125.0</ele><time>2026-05-02T12:55:52.403Z</time></trkpt><trkpt lat="54.4938" lon="-1.7304533"><ele>123.66666666666666</ele><time>2026-05-02T12:55:53.403Z</time></trkpt><trkpt lat="54.4939817" lon="-1.73055"><ele>122.33333333333334</ele><time>2026-05-02T12:55:54.403Z</time></trkpt><trkpt lat="54.4941433" lon="-1.7306333"><ele>121.0</ele><time>2026-05-02T12:55:55.403Z</time></trkpt><trkpt lat="54.494305" lon="-1.7307033"><ele>121.0</ele><time>2026-05-02T12:55:56.402Z</time></trkpt><trkpt lat="54.494475" lon="-1.7307467"><ele>121.0</ele><time>2026-05-02T12:55:57.409Z</time></trkpt><trkpt lat="54.4948583" lon="-1.7307567"><ele>120.0</ele><time>2026-05-02T12:55:59.402Z</time></trkpt><trkpt lat="54.495075" lon="-1.7307367"><ele>119.0</ele><time>2026-05-02T12:56:00.402Z</time></trkpt><trkpt lat="54.4952933" lon="-1.730715"><ele>118.0</ele><time>2026-05-02T12:56:01.404Z</time></trkpt><trkpt lat="54.4955217" lon="-1.730695"><ele>117.33333333333334</ele><time>2026-05-02T12:56:02.402Z</time></trkpt><trkpt lat="54.495745" lon="-1.7306783"><ele>116.66666666666666</ele><time>2026-05-02T12:56:03.405Z</time></trkpt><trkpt lat="54.4959617" lon="-1.7306617"><ele>116.0</ele><time>2026-05-02T12:56:04.402Z</time></trkpt><trkpt lat="54.4961767" lon="-1.7306533"><ele>115.33333333333333</ele><time>2026-05-02T12:56:05.403Z</time></trkpt><trkpt lat="54.4963967" lon="-1.73066"><ele>114.66666666666666</ele><time>2026-05-02T12:56:06.402Z</time></trkpt><trkpt lat="54.496625" lon="-1.7306683"><ele>114.0</ele><time>2026-05-02T12:56:07.403Z</time></trkpt><trkpt lat="54.4968583" lon="-1.7306767"><ele>114.0</ele><time>2026-05-02T12:56:08.403Z</time></trkpt><trkpt lat="54.497095" lon="-1.73069"><ele>114.0</ele><time>2026-05-02T12:56:09.402Z</time></trkpt><trkpt lat="54.4973317" lon="-1.73071"><ele>114.0</ele><time>2026-05-02T12:56:10.402Z</time></trkpt><trkpt lat="54.4975617" lon="-1.73074"><ele>114.0</ele><time>2026-05-02T12:56:11.403Z</time></trkpt><trkpt lat="54.4977883" lon="-1.7307733"><ele>115.66666666666666</ele><time>2026-05-02T12:56:12.403Z</time></trkpt><trkpt lat="54.498005" lon="-1.7308117"><ele>117.33333333333333</ele><time>2026-05-02T12:56:13.403Z</time></trkpt><trkpt lat="54.4982067" lon="-1.73085"><ele>119.0</ele><time>2026-05-02T12:56:14.404Z</time></trkpt><trkpt lat="54.4983967" lon="-1.7308833"><ele>119.0</ele><time>2026-05-02T12:56:15.403Z</time></trkpt><trkpt lat="54.4985783" lon="-1.730915"><ele>119.0</ele><time>2026-05-02T12:56:16.402Z</time></trkpt><trkpt lat="54.498775" lon="-1.7309333"><ele>119.0</ele><time>2026-05-02T12:56:17.406Z</time></trkpt><trkpt lat="54.49898" lon="-1.730935"><ele>116.5</ele><time>2026-05-02T12:56:18.402Z</time></trkpt><trkpt lat="54.4991983" lon="-1.73091"><ele>114.0</ele><time>2026-05-02T12:56:19.403Z</time></trkpt><trkpt lat="54.49943" lon="-1.73086"><ele>113.5</ele><time>2026-05-02T12:56:20.402Z</time></trkpt><trkpt lat="54.4996783" lon="-1.7308067"><ele>113.0</ele><time>2026-05-02T12:56:21.402Z</time></trkpt><trkpt lat="54.499925" lon="-1.730735"><ele>113.0</ele><time>2026-05-02T12:56:22.402Z</time></trkpt><trkpt lat="54.500165" lon="-1.7306683"><ele>113.0</ele><time>2026-05-02T12:56:23.403Z</time></trkpt><trkpt lat="54.500395" lon="-1.7305733"><ele>112.5</ele><time>2026-05-02T12:56:24.402Z</time></trkpt><trkpt lat="54.50062" lon="-1.7304933"><ele>112.0</ele><time>2026-05-02T12:56:25.402Z</time></trkpt><trkpt lat="54.5008483" lon="-1.73041"><ele>112.0</ele><time>2026-05-02T12:56:26.403Z</time></trkpt><trkpt lat="54.5010767" lon="-1.73034"><ele>112.0</ele><time>2026-05-02T12:56:27.403Z</time></trkpt><trkpt lat="54.50131" lon="-1.7302817"><ele>108.5</ele><time>2026-05-02T12:56:28.403Z</time></trkpt><trkpt lat="54.5015433" lon="-1.73022"><ele>105.0</ele><time>2026-05-02T12:56:29.404Z</time></trkpt><trkpt lat="54.5017683" lon="-1.73016"><ele>105.0</ele><time>2026-05-02T12:56:30.403Z</time></trkpt><trkpt lat="54.50198" lon="-1.7301067"><ele>105.0</ele><time>2026-05-02T12:56:31.404Z</time></trkpt><trkpt lat="54.5021783" lon="-1.73004"><ele>105.0</ele><time>2026-05-02T12:56:32.403Z</time></trkpt><trkpt lat="54.5023717" lon="-1.7299783"><ele>105.33333333333334</ele><time>2026-05-02T12:56:33.402Z</time></trkpt><trkpt lat="54.5025583" lon="-1.7299333"><ele>105.66666666666667</ele><time>2026-05-02T12:56:34.403Z</time></trkpt><trkpt lat="54.502745" lon="-1.729905"><ele>106.0</ele><time>2026-05-02T12:56:35.404Z</time></trkpt><trkpt lat="54.5029433" lon="-1.7298867"><ele>106.0</ele><time>2026-05-02T12:56:36.402Z</time></trkpt><trkpt lat="54.50315" lon="-1.7298667"><ele>106.0</ele><time>2026-05-02T12:56:37.404Z</time></trkpt><trkpt lat="54.5033517" lon="-1.72984"><ele>106.0</ele><time>2026-05-02T12:56:38.403Z</time></trkpt><trkpt lat="54.503535" lon="-1.7298067"><ele>106.0</ele><time>2026-05-02T12:56:39.404Z</time></trkpt><trkpt lat="54.5036967" lon="-1.7297617"><ele>106.0</ele><time>2026-05-02T12:56:40.403Z</time></trkpt><trkpt lat="54.5038383" lon="-1.7297183"><ele>106.0</ele><time>2026-05-02T12:56:41.402Z</time></trkpt><trkpt lat="54.5039633" lon="-1.7296817"><ele>106.0</ele><time>2026-05-02T12:56:42.402Z</time></trkpt><trkpt lat="54.50407" lon="-1.729655"><ele>106.6</ele><time>2026-05-02T12:56:43.407Z</time></trkpt><trkpt lat="54.5041683" lon="-1.72963"><ele>107.19999999999999</ele><time>2026-05-02T12:56:44.403Z</time></trkpt><trkpt lat="54.5042617" lon="-1.7296133"><ele>107.80000000000001</ele><time>2026-05-02T12:56:45.402Z</time></trkpt><trkpt lat="54.5043567" lon="-1.729605"><ele>108.4</ele><time>2026-05-02T12:56:46.403Z</time></trkpt><trkpt lat="54.5044517" lon="-1.7295983"><ele>109.0</ele><time>2026-05-02T12:56:47.402Z</time></trkpt><trkpt lat="54.5045467" lon="-1.7296017"><ele>109.6</ele><time>2026-05-02T12:56:48.403Z</time></trkpt><trkpt lat="54.5046433" lon="-1.7296083"><ele>110.2</ele><time>2026-05-02T12:56:49.403Z</time></trkpt><trkpt lat="54.50474" lon="-1.72963"><ele>110.79999999999998</ele><time>2026-05-02T12:56:50.403Z</time></trkpt><trkpt lat="54.50484" lon="-1.729655"><ele>111.39999999999999</ele><time>2026-05-02T12:56:51.402Z</time></trkpt><trkpt lat="54.5049433" lon="-1.7296767"><ele>112.0</ele><time>2026-05-02T12:56:52.402Z</time></trkpt><trkpt lat="54.5050467" lon="-1.72972"><ele>112.0</ele><time>2026-05-02T12:56:53.402Z</time></trkpt><trkpt lat="54.5051517" lon="-1.7297733"><ele>112.0</ele><time>2026-05-02T12:56:54.402Z</time></trkpt><trkpt lat="54.5052567" lon="-1.7298433"><ele>112.0</ele><time>2026-05-02T12:56:55.403Z</time></trkpt><trkpt lat="54.5053667" lon="-1.729895"><ele>112.0</ele><time>2026-05-02T12:56:56.402Z</time></trkpt><trkpt lat="54.5054783" lon="-1.7299433"><ele>111.75</ele><time>2026-05-02T12:56:57.402Z</time></trkpt><trkpt lat="54.505595" lon="-1.7299767"><ele>111.5</ele><time>2026-05-02T12:56:58.403Z</time></trkpt><trkpt lat="54.5057133" lon="-1.7300017"><ele>111.25</ele><time>2026-05-02T12:56:59.402Z</time></trkpt><trkpt lat="54.505835" lon="-1.730025"><ele>111.0</ele><time>2026-05-02T12:57:00.402Z</time></trkpt><trkpt lat="54.5059583" lon="-1.7300433"><ele>111.0</ele><time>2026-05-02T12:57:01.403Z</time></trkpt><trkpt lat="54.5060767" lon="-1.7300733"><ele>111.0</ele><time>2026-05-02T12:57:02.403Z</time></trkpt><trkpt lat="54.5061983" lon="-1.7301067"><ele>111.0</ele><time>2026-05-02T12:57:03.403Z</time></trkpt><trkpt lat="54.5063267" lon="-1.7301633"><ele>111.0</ele><time>2026-05-02T12:57:04.403Z</time></trkpt><trkpt lat="54.5064567" lon="-1.7302383"><ele>110.5</ele><time>2026-05-02T12:57:05.403Z</time></trkpt><trkpt lat="54.506585" lon="-1.730325"><ele>110.0</ele><time>2026-05-02T12:57:06.403Z</time></trkpt><trkpt lat="54.5067133" lon="-1.7304217"><ele>109.5</ele><time>2026-05-02T12:57:07.403Z</time></trkpt><trkpt lat="54.5068367" lon="-1.73052"><ele>109.0</ele><time>2026-05-02T12:57:08.403Z</time></trkpt><trkpt lat="54.50696" lon="-1.7306167"><ele>108.0</ele><time>2026-05-02T12:57:09.402Z</time></trkpt><trkpt lat="54.50708" lon="-1.7307167"><ele>107.0</ele><time>2026-05-02T12:57:10.402Z</time></trkpt><trkpt lat="54.5071983" lon="-1.730815"><ele>106.0</ele><time>2026-05-02T12:57:11.404Z</time></trkpt><trkpt lat="54.5073133" lon="-1.730915"><ele>105.0</ele><time>2026-05-02T12:57:12.402Z</time></trkpt><trkpt lat="54.507425" lon="-1.73101"><ele>105.5</ele><time>2026-05-02T12:57:13.403Z</time></trkpt><trkpt lat="54.5075383" lon="-1.7310983"><ele>106.0</ele><time>2026-05-02T12:57:14.403Z</time></trkpt><trkpt lat="54.50765" lon="-1.7311867"><ele>106.5</ele><time>2026-05-02T12:57:15.403Z</time></trkpt><trkpt lat="54.5077683" lon="-1.7312783"><ele>107.0</ele><time>2026-05-02T12:57:16.402Z</time></trkpt><trkpt lat="54.5079" lon="-1.7313883"><ele>107.0</ele><time>2026-05-02T12:57:17.402Z</time></trkpt><trkpt lat="54.5080467" lon="-1.731515"><ele>107.0</ele><time>2026-05-02T12:57:18.402Z</time></trkpt><trkpt lat="54.508205" lon="-1.73166"><ele>107.0</ele><time>2026-05-02T12:57:19.403Z</time></trkpt><trkpt lat="54.50837" lon="-1.7318067"><ele>107.0</ele><time>2026-05-02T12:57:20.403Z</time></trkpt><trkpt lat="54.5085333" lon="-1.731945"><ele>107.0</ele><time>2026-05-02T12:57:21.402Z</time></trkpt><trkpt lat="54.50869" lon="-1.7320617"><ele>107.0</ele><time>2026-05-02T12:57:22.403Z</time></trkpt><trkpt lat="54.5088233" lon="-1.7321733"><ele>107.0</ele><time>2026-05-02T12:57:23.404Z</time></trkpt><trkpt lat="54.5089317" lon="-1.7322833"><ele>106.99999999999999</ele><time>2026-05-02T12:57:24.403Z</time></trkpt><trkpt lat="54.5090183" lon="-1.7323917"><ele>106.99999999999999</ele><time>2026-05-02T12:57:25.405Z</time></trkpt><trkpt lat="54.5090867" lon="-1.7325217"><ele>107.0</ele><time>2026-05-02T12:57:26.402Z</time></trkpt><trkpt lat="54.50914" lon="-1.7326767"><ele>107.0</ele><time>2026-05-02T12:57:27.403Z</time></trkpt><trkpt lat="54.50917" lon="-1.7328883"><ele>107.66666666666666</ele><time>2026-05-02T12:57:28.403Z</time></trkpt><trkpt lat="54.5091983" lon="-1.7331333"><ele>108.33333333333334</ele><time>2026-05-02T12:57:29.402Z</time></trkpt><trkpt lat="54.5092217" lon="-1.733405"><ele>109.0</ele><time>2026-05-02T12:57:30.402Z</time></trkpt><trkpt lat="54.5092467" lon="-1.733685"><ele>109.25</ele><time>2026-05-02T12:57:31.402Z</time></trkpt><trkpt lat="54.509265" lon="-1.7339567"><ele>109.5</ele><time>2026-05-02T12:57:32.403Z</time></trkpt><trkpt lat="54.5092883" lon="-1.734215"><ele>109.75</ele><time>2026-05-02T12:57:33.403Z</time></trkpt><trkpt lat="54.5093017" lon="-1.7344283"><ele>110.0</ele><time>2026-05-02T12:57:34.403Z</time></trkpt><trkpt lat="54.50932" lon="-1.7346133"><ele>110.5</ele><time>2026-05-02T12:57:35.402Z</time></trkpt><trkpt lat="54.509325" lon="-1.734805"><ele>111.0</ele><time>2026-05-02T12:57:36.404Z</time></trkpt><trkpt lat="54.5093133" lon="-1.73501"><ele>111.5</ele><time>2026-05-02T12:57:37.402Z</time></trkpt><trkpt lat="54.5092933" lon="-1.73523"><ele>112.0</ele><time>2026-05-02T12:57:38.403Z</time></trkpt><trkpt lat="54.5092567" lon="-1.735465"><ele>112.66666666666667</ele><time>2026-05-02T12:57:39.403Z</time></trkpt><trkpt lat="54.50923" lon="-1.735715"><ele>113.33333333333334</ele><time>2026-05-02T12:57:40.403Z</time></trkpt><trkpt lat="54.509195" lon="-1.7359717"><ele>114.0</ele><time>2026-05-02T12:57:41.402Z</time></trkpt><trkpt lat="54.5091617" lon="-1.7362467"><ele>114.33333333333334</ele><time>2026-05-02T12:57:42.403Z</time></trkpt><trkpt lat="54.5091267" lon="-1.7365267"><ele>114.66666666666667</ele><time>2026-05-02T12:57:43.402Z</time></trkpt><trkpt lat="54.5090867" lon="-1.7368167"><ele>115.0</ele><time>2026-05-02T12:57:44.406Z</time></trkpt><trkpt lat="54.5090517" lon="-1.7371067"><ele>115.33333333333334</ele><time>2026-05-02T12:57:45.402Z</time></trkpt><trkpt lat="54.50901" lon="-1.737395"><ele>115.66666666666666</ele><time>2026-05-02T12:57:46.402Z</time></trkpt><trkpt lat="54.50897" lon="-1.7376833"><ele>116.0</ele><time>2026-05-02T12:57:47.403Z</time></trkpt><trkpt lat="54.5089317" lon="-1.73795"><ele>116.0</ele><time>2026-05-02T12:57:48.402Z</time></trkpt><trkpt lat="54.5089" lon="-1.73819"><ele>116.0</ele><time>2026-05-02T12:57:49.404Z</time></trkpt><trkpt lat="54.508875" lon="-1.7383933"><ele>116.0</ele><time>2026-05-02T12:57:50.402Z</time></trkpt><trkpt lat="54.5088533" lon="-1.7385883"><ele>116.0</ele><time>2026-05-02T12:57:51.403Z</time></trkpt><trkpt lat="54.5088133" lon="-1.73879"><ele>116.0</ele><time>2026-05-02T12:57:52.404Z</time></trkpt><trkpt lat="54.5087583" lon="-1.7389817"><ele>116.0</ele><time>2026-05-02T12:57:53.404Z</time></trkpt><trkpt lat="54.5086783" lon="-1.7391833"><ele>116.0</ele><time>2026-05-02T12:57:54.404Z</time></trkpt><trkpt lat="54.5085983" lon="-1.739365"><ele>116.0</ele><time>2026-05-02T12:57:55.403Z</time></trkpt><trkpt lat="54.5085167" lon="-1.7395417"><ele>117.5</ele><time>2026-05-02T12:57:56.402Z</time></trkpt><trkpt lat="54.50844" lon="-1.7397283"><ele>119.0</ele><time>2026-05-02T12:57:57.403Z</time></trkpt><trkpt lat="54.5083567" lon="-1.7398717"><ele>120.5</ele><time>2026-05-02T12:57:58.402Z</time></trkpt><trkpt lat="54.5082867" lon="-1.7400233"><ele>122.0</ele><time>2026-05-02T12:57:59.403Z</time></trkpt><trkpt lat="54.508225" lon="-1.7401667"><ele>121.49999999999999</ele><time>2026-05-02T12:58:00.403Z</time></trkpt><trkpt lat="54.5081717" lon="-1.7402933"><ele>121.0</ele><time>2026-05-02T12:58:01.402Z</time></trkpt><trkpt lat="54.5081383" lon="-1.740425"><ele>120.5</ele><time>2026-05-02T12:58:02.403Z</time></trkpt><trkpt lat="54.5081167" lon="-1.7405467"><ele>120.0</ele><time>2026-05-02T12:58:03.402Z</time></trkpt><trkpt lat="54.5081283" lon="-1.7406717"><ele>119.49999999999999</ele><time>2026-05-02T12:58:04.402Z</time></trkpt><trkpt lat="54.5081617" lon="-1.7408167"><ele>119.0</ele><time>2026-05-02T12:58:05.402Z</time></trkpt><trkpt lat="54.5082033" lon="-1.74098"><ele>118.33333333333333</ele><time>2026-05-02T12:58:06.403Z</time></trkpt><trkpt lat="54.5082667" lon="-1.7411933"><ele>117.66666666666666</ele><time>2026-05-02T12:58:07.407Z</time></trkpt><trkpt lat="54.5083583" lon="-1.7414683"><ele>117.0</ele><time>2026-05-02T12:58:08.405Z</time></trkpt><trkpt lat="54.50846" lon="-1.7417917"><ele>117.0</ele><time>2026-05-02T12:58:09.406Z</time></trkpt><trkpt lat="54.5085433" lon="-1.742105"><ele>117.0</ele><time>2026-05-02T12:58:10.406Z</time></trkpt><trkpt lat="54.5086283" lon="-1.74242"><ele>117.0</ele><time>2026-05-02T12:58:11.402Z</time></trkpt><trkpt lat="54.50872" lon="-1.742725"><ele>117.33333333333334</ele><time>2026-05-02T12:58:12.405Z</time></trkpt><trkpt lat="54.5088217" lon="-1.7430183"><ele>117.66666666666667</ele><time>2026-05-02T12:58:13.408Z</time></trkpt><trkpt lat="54.5089367" lon="-1.7433133"><ele>118.0</ele><time>2026-05-02T12:58:14.402Z</time></trkpt><trkpt lat="54.5090667" lon="-1.7435983"><ele>118.0</ele><time>2026-05-02T12:58:15.403Z</time></trkpt><trkpt lat="54.509195" lon="-1.7438883"><ele>118.0</ele><time>2026-05-02T12:58:16.405Z</time></trkpt><trkpt lat="54.50932" lon="-1.7441967"><ele>118.0</ele><time>2026-05-02T12:58:17.403Z</time></trkpt><trkpt lat="54.5094383" lon="-1.744525"><ele>118.0</ele><time>2026-05-02T12:58:18.404Z</time></trkpt><trkpt lat="54.5095483" lon="-1.74486"><ele>118.0</ele><time>2026-05-02T12:58:19.403Z</time></trkpt><trkpt lat="54.5096533" lon="-1.745185"><ele>118.0</ele><time>2026-05-02T12:58:20.403Z</time></trkpt><trkpt lat="54.5097533" lon="-1.7454933"><ele>118.0</ele><time>2026-05-02T12:58:21.403Z</time></trkpt><trkpt lat="54.50985" lon="-1.7457867"><ele>118.0</ele><time>2026-05-02T12:58:22.402Z</time></trkpt><trkpt lat="54.50995" lon="-1.7460617"><ele>118.0</ele><time>2026-05-02T12:58:23.402Z</time></trkpt><trkpt lat="54.5100567" lon="-1.746305"><ele>118.0</ele><time>2026-05-02T12:58:24.403Z</time></trkpt><trkpt lat="54.510165" lon="-1.7465317"><ele>118.0</ele><time>2026-05-02T12:58:25.407Z</time></trkpt><trkpt lat="54.51027" lon="-1.7467633"><ele>118.0</ele><time>2026-05-02T12:58:26.407Z</time></trkpt><trkpt lat="54.5103767" lon="-1.7470117"><ele>117.33333333333334</ele><time>2026-05-02T12:58:27.406Z</time></trkpt><trkpt lat="54.51048" lon="-1.7472667"><ele>116.66666666666666</ele><time>2026-05-02T12:58:28.407Z</time></trkpt><trkpt lat="54.5105783" lon="-1.747525"><ele>116.0</ele><time>2026-05-02T12:58:29.407Z</time></trkpt><trkpt lat="54.5106667" lon="-1.7477833"><ele>116.0</ele><time>2026-05-02T12:58:30.404Z</time></trkpt><trkpt lat="54.5107467" lon="-1.7480317"><ele>116.0</ele><time>2026-05-02T12:58:31.406Z</time></trkpt><trkpt lat="54.5108217" lon="-1.7482633"><ele>116.0</ele><time>2026-05-02T12:58:32.407Z</time></trkpt><trkpt lat="54.5108933" lon="-1.7484817"><ele>115.75</ele><time>2026-05-02T12:58:33.405Z</time></trkpt><trkpt lat="54.5109567" lon="-1.7486767"><ele>115.5</ele><time>2026-05-02T12:58:34.406Z</time></trkpt><trkpt lat="54.511015" lon="-1.74885"><ele>115.25</ele><time>2026-05-02T12:58:35.406Z</time></trkpt><trkpt lat="54.51107" lon="-1.7490083"><ele>115.0</ele><time>2026-05-02T12:58:36.405Z</time></trkpt><trkpt lat="54.51113" lon="-1.7491417"><ele>115.0</ele><time>2026-05-02T12:58:37.402Z</time></trkpt><trkpt lat="54.5112067" lon="-1.7492533"><ele>115.0</ele><time>2026-05-02T12:58:38.402Z</time></trkpt><trkpt lat="54.5113083" lon="-1.7493367"><ele>115.0</ele><time>2026-05-02T12:58:39.407Z</time></trkpt><trkpt lat="54.51144" lon="-1.7493917"><ele>115.0</ele><time>2026-05-02T12:58:40.403Z</time></trkpt><trkpt lat="54.5115933" lon="-1.7494417"><ele>114.33333333333334</ele><time>2026-05-02T12:58:41.402Z</time></trkpt><trkpt lat="54.5117567" lon="-1.7495017"><ele>113.66666666666666</ele><time>2026-05-02T12:58:42.403Z</time></trkpt><trkpt lat="54.511925" lon="-1.749555"><ele>113.0</ele><time>2026-05-02T12:58:43.402Z</time></trkpt><trkpt lat="54.5121033" lon="-1.7495983"><ele>112.33333333333333</ele><time>2026-05-02T12:58:44.403Z</time></trkpt><trkpt lat="54.512305" lon="-1.74963"><ele>111.66666666666666</ele><time>2026-05-02T12:58:45.403Z</time></trkpt><trkpt lat="54.512515" lon="-1.7496583"><ele>111.0</ele><time>2026-05-02T12:58:46.402Z</time></trkpt><trkpt lat="54.51273" lon="-1.7496817"><ele>112.0</ele><time>2026-05-02T12:58:47.402Z</time></trkpt><trkpt lat="54.51295" lon="-1.7497083"><ele>113.0</ele><time>2026-05-02T12:58:48.402Z</time></trkpt><trkpt lat="54.51317" lon="-1.7497333"><ele>114.0</ele><time>2026-05-02T12:58:49.403Z</time></trkpt><trkpt lat="54.513385" lon="-1.7497583"><ele>114.0</ele><time>2026-05-02T12:58:50.404Z</time></trkpt><trkpt lat="54.513585" lon="-1.7497883"><ele>114.0</ele><time>2026-05-02T12:58:51.402Z</time></trkpt><trkpt lat="54.513765" lon="-1.74981"><ele>114.0</ele><time>2026-05-02T12:58:52.403Z</time></trkpt><trkpt lat="54.5139267" lon="-1.749825"><ele>114.75</ele><time>2026-05-02T12:58:53.402Z</time></trkpt><trkpt lat="54.5140683" lon="-1.7498367"><ele>115.5</ele><time>2026-05-02T12:58:54.403Z</time></trkpt><trkpt lat="54.51419" lon="-1.7498517"><ele>116.25</ele><time>2026-05-02T12:58:55.402Z</time></trkpt><trkpt lat="54.5142967" lon="-1.74987"><ele>117.0</ele><time>2026-05-02T12:58:56.403Z</time></trkpt><trkpt lat="54.514395" lon="-1.749885"><ele>117.0</ele><time>2026-05-02T12:58:57.405Z</time></trkpt><trkpt lat="54.5144833" lon="-1.749895"><ele>117.0</ele><time>2026-05-02T12:58:58.403Z</time></trkpt><trkpt lat="54.51457" lon="-1.7498983"><ele>117.0</ele><time>2026-05-02T12:58:59.402Z</time></trkpt><trkpt lat="54.51465" lon="-1.7499067"><ele>117.0</ele><time>2026-05-02T12:59:00.403Z</time></trkpt><trkpt lat="54.5147233" lon="-1.7499167"><ele>117.0</ele><time>2026-05-02T12:59:01.402Z</time></trkpt><trkpt lat="54.5147967" lon="-1.7499283"><ele>117.0</ele><time>2026-05-02T12:59:02.403Z</time></trkpt><trkpt lat="54.5148733" lon="-1.7499467"><ele>117.5</ele><time>2026-05-02T12:59:03.402Z</time></trkpt><trkpt lat="54.5149417" lon="-1.749985"><ele>118.0</ele><time>2026-05-02T12:59:04.405Z</time></trkpt><trkpt lat="54.5150017" lon="-1.7500467"><ele>118.5</ele><time>2026-05-02T12:59:05.404Z</time></trkpt><trkpt lat="54.5150583" lon="-1.7501333"><ele>119.0</ele><time>2026-05-02T12:59:06.403Z</time></trkpt><trkpt lat="54.51511" lon="-1.7502483"><ele>119.5</ele><time>2026-05-02T12:59:07.404Z</time></trkpt><trkpt lat="54.5151583" lon="-1.750385"><ele>120.0</ele><time>2026-05-02T12:59:08.409Z</time></trkpt><trkpt lat="54.5152067" lon="-1.7505317"><ele>120.2</ele><time>2026-05-02T12:59:09.402Z</time></trkpt><trkpt lat="54.515255" lon="-1.7506933"><ele>120.4</ele><time>2026-05-02T12:59:10.403Z</time></trkpt><trkpt lat="54.5153033" lon="-1.7508617"><ele>120.6</ele><time>2026-05-02T12:59:11.406Z</time></trkpt><trkpt lat="54.51535" lon="-1.75102"><ele>120.8</ele><time>2026-05-02T12:59:12.406Z</time></trkpt><trkpt lat="54.5153933" lon="-1.7511617"><ele>121.0</ele><time>2026-05-02T12:59:13.406Z</time></trkpt><trkpt lat="54.515435" lon="-1.7513"><ele>121.8</ele><time>2026-05-02T12:59:14.405Z</time></trkpt><trkpt lat="54.5154767" lon="-1.751445"><ele>122.6</ele><time>2026-05-02T12:59:15.403Z</time></trkpt><trkpt lat="54.5155183" lon="-1.7516017"><ele>123.4</ele><time>2026-05-02T12:59:16.404Z</time></trkpt><trkpt lat="54.5155633" lon="-1.75176"><ele>124.2</ele><time>2026-05-02T12:59:17.402Z</time></trkpt><trkpt lat="54.5156083" lon="-1.7519183"><ele>125.0</ele><time>2026-05-02T12:59:18.413Z</time></trkpt><trkpt lat="54.5156583" lon="-1.75208"><ele>125.6</ele><time>2026-05-02T12:59:19.403Z</time></trkpt><trkpt lat="54.5157083" lon="-1.7522417"><ele>126.2</ele><time>2026-05-02T12:59:20.404Z</time></trkpt><trkpt lat="54.5157617" lon="-1.75241"><ele>126.80000000000001</ele><time>2026-05-02T12:59:21.406Z</time></trkpt><trkpt lat="54.51582" lon="-1.7525767"><ele>127.4</ele><time>2026-05-02T12:59:22.403Z</time></trkpt><trkpt lat="54.515885" lon="-1.752745"><ele>128.0</ele><time>2026-05-02T12:59:23.402Z</time></trkpt><trkpt lat="54.515945" lon="-1.752915"><ele>128.5</ele><time>2026-05-02T12:59:24.404Z</time></trkpt><trkpt lat="54.51601" lon="-1.7530733"><ele>129.0</ele><time>2026-05-02T12:59:25.403Z</time></trkpt><trkpt lat="54.516095" lon="-1.753235"><ele>129.5</ele><time>2026-05-02T12:59:26.403Z</time></trkpt><trkpt lat="54.516175" lon="-1.7533867"><ele>130.0</ele><time>2026-05-02T12:59:27.402Z</time></trkpt><trkpt lat="54.5162583" lon="-1.7535283"><ele>130.2</ele><time>2026-05-02T12:59:28.407Z</time></trkpt><trkpt lat="54.51634" lon="-1.7536567"><ele>130.4</ele><time>2026-05-02T12:59:29.402Z</time></trkpt><trkpt lat="54.516415" lon="-1.7537817"><ele>130.6</ele><time>2026-05-02T12:59:30.403Z</time></trkpt><trkpt lat="54.5164983" lon="-1.7539017"><ele>130.8</ele><time>2026-05-02T12:59:31.404Z</time></trkpt><trkpt lat="54.5165783" lon="-1.7540133"><ele>131.0</ele><time>2026-05-02T12:59:32.403Z</time></trkpt><trkpt lat="54.5166683" lon="-1.7541117"><ele>131.0</ele><time>2026-05-02T12:59:33.407Z</time></trkpt><trkpt lat="54.5167617" lon="-1.754185"><ele>131.0</ele><time>2026-05-02T12:59:34.402Z</time></trkpt><trkpt lat="54.5168683" lon="-1.7542367"><ele>131.0</ele><time>2026-05-02T12:59:35.402Z</time></trkpt><trkpt lat="54.516985" lon="-1.75425"><ele>131.0</ele><time>2026-05-02T12:59:36.404Z</time></trkpt><trkpt lat="54.5171117" lon="-1.7542333"><ele>130.75</ele><time>2026-05-02T12:59:37.405Z</time></trkpt><trkpt lat="54.5172483" lon="-1.7541967"><ele>130.5</ele><time>2026-05-02T12:59:38.406Z</time></trkpt><trkpt lat="54.5173867" lon="-1.7541483"><ele>130.25</ele><time>2026-05-02T12:59:39.402Z</time></trkpt><trkpt lat="54.5175233" lon="-1.7540917"><ele>130.0</ele><time>2026-05-02T12:59:40.404Z</time></trkpt><trkpt lat="54.51766" lon="-1.75403"><ele>130.0</ele><time>2026-05-02T12:59:41.403Z</time></trkpt><trkpt lat="54.517805" lon="-1.7539633"><ele>130.0</ele><time>2026-05-02T12:59:42.403Z</time></trkpt><trkpt lat="54.5179683" lon="-1.7538817"><ele>130.0</ele><time>2026-05-02T12:59:43.402Z</time></trkpt><trkpt lat="54.5181417" lon="-1.7538"><ele>130.0</ele><time>2026-05-02T12:59:44.403Z</time></trkpt><trkpt lat="54.5183233" lon="-1.7537183"><ele>130.0</ele><time>2026-05-02T12:59:45.402Z</time></trkpt><trkpt lat="54.51852" lon="-1.753645"><ele>130.0</ele><time>2026-05-02T12:59:46.402Z</time></trkpt><trkpt lat="54.51872" lon="-1.753585"><ele>128.33333333333334</ele><time>2026-05-02T12:59:47.406Z</time></trkpt><trkpt lat="54.5189167" lon="-1.753535"><ele>126.66666666666666</ele><time>2026-05-02T12:59:48.406Z</time></trkpt><trkpt lat="54.519115" lon="-1.7535117"><ele>125.0</ele><time>2026-05-02T12:59:49.406Z</time></trkpt><trkpt lat="54.5193167" lon="-1.75352"><ele>125.0</ele><time>2026-05-02T12:59:50.403Z</time></trkpt><trkpt lat="54.5195267" lon="-1.7535717"><ele>125.0</ele><time>2026-05-02T12:59:51.403Z</time></trkpt><trkpt lat="54.5197433" lon="-1.7536733"><ele>125.0</ele><time>2026-05-02T12:59:52.404Z</time></trkpt><trkpt lat="54.519965" lon="-1.7538083"><ele>125.0</ele><time>2026-05-02T12:59:53.402Z</time></trkpt><trkpt lat="54.5201883" lon="-1.7539767"><ele>125.0</ele><time>2026-05-02T12:59:54.403Z</time></trkpt><trkpt lat="54.5204133" lon="-1.7541467"><ele>125.0</ele><time>2026-05-02T12:59:55.402Z</time></trkpt><trkpt lat="54.5206317" lon="-1.7543183"><ele>125.0</ele><time>2026-05-02T12:59:56.404Z</time></trkpt><trkpt lat="54.5208533" lon="-1.75449"><ele>124.5</ele><time>2026-05-02T12:59:57.403Z</time></trkpt><trkpt lat="54.5210733" lon="-1.7546617"><ele>124.0</ele><time>2026-05-02T12:59:58.404Z</time></trkpt><trkpt lat="54.5212917" lon="-1.7548283"><ele>125.5</ele><time>2026-05-02T12:59:59.405Z</time></trkpt><trkpt lat="54.5215033" lon="-1.7549983"><ele>127.0</ele><time>2026-05-02T13:00:00.403Z</time></trkpt><trkpt lat="54.521705" lon="-1.75515"><ele>127.66666666666667</ele><time>2026-05-02T13:00:01.402Z</time></trkpt><trkpt lat="54.52188" lon="-1.7552867"><ele>128.33333333333334</ele><time>2026-05-02T13:00:02.404Z</time></trkpt><trkpt lat="54.5220133" lon="-1.7554083"><ele>129.0</ele><time>2026-05-02T13:00:03.402Z</time></trkpt><trkpt lat="54.5221167" lon="-1.7555433"><ele>129.75</ele><time>2026-05-02T13:00:04.402Z</time></trkpt><trkpt lat="54.522205" lon="-1.7557083"><ele>130.5</ele><time>2026-05-02T13:00:05.403Z</time></trkpt><trkpt lat="54.52228" lon="-1.75593"><ele>131.25</ele><time>2026-05-02T13:00:06.403Z</time></trkpt><trkpt lat="54.522355" lon="-1.75618"><ele>132.0</ele><time>2026-05-02T13:00:07.404Z</time></trkpt><trkpt lat="54.522445" lon="-1.75643"><ele>132.66666666666666</ele><time>2026-05-02T13:00:08.404Z</time></trkpt><trkpt lat="54.5225633" lon="-1.75666"><ele>133.33333333333331</ele><time>2026-05-02T13:00:09.404Z</time></trkpt><trkpt lat="54.5227033" lon="-1.7568783"><ele>134.0</ele><time>2026-05-02T13:00:10.405Z</time></trkpt><trkpt lat="54.5228467" lon="-1.75709"><ele>135.66666666666666</ele><time>2026-05-02T13:00:11.402Z</time></trkpt><trkpt lat="54.5229783" lon="-1.7572917"><ele>137.33333333333334</ele><time>2026-05-02T13:00:12.404Z</time></trkpt><trkpt lat="54.5231117" lon="-1.7574967"><ele>139.0</ele><time>2026-05-02T13:00:13.404Z</time></trkpt><trkpt lat="54.5232483" lon="-1.7577383"><ele>139.0</ele><time>2026-05-02T13:00:14.404Z</time></trkpt><trkpt lat="54.5233867" lon="-1.7580117"><ele>139.0</ele><time>2026-05-02T13:00:15.403Z</time></trkpt><trkpt lat="54.5235283" lon="-1.758305"><ele>139.0</ele><time>2026-05-02T13:00:16.403Z</time></trkpt><trkpt lat="54.523675" lon="-1.7586217"><ele>139.5</ele><time>2026-05-02T13:00:17.404Z</time></trkpt><trkpt lat="54.5238183" lon="-1.7589583"><ele>140.0</ele><time>2026-05-02T13:00:18.404Z</time></trkpt><trkpt lat="54.5239617" lon="-1.7592967"><ele>139.5</ele><time>2026-05-02T13:00:19.404Z</time></trkpt><trkpt lat="54.5241" lon="-1.75962"><ele>139.0</ele><time>2026-05-02T13:00:20.404Z</time></trkpt><trkpt lat="54.5242417" lon="-1.7599383"><ele>138.5</ele><time>2026-05-02T13:00:21.404Z</time></trkpt><trkpt lat="54.5243767" lon="-1.7602583"><ele>138.0</ele><time>2026-05-02T13:00:22.402Z</time></trkpt><trkpt lat="54.524505" lon="-1.76058"><ele>137.66666666666666</ele><time>2026-05-02T13:00:23.405Z</time></trkpt><trkpt lat="54.5246233" lon="-1.7609117"><ele>137.33333333333331</ele><time>2026-05-02T13:00:24.404Z</time></trkpt><trkpt lat="54.524735" lon="-1.761245"><ele>137.0</ele><time>2026-05-02T13:00:25.404Z</time></trkpt><trkpt lat="54.5248367" lon="-1.7615683"><ele>134.66666666666666</ele><time>2026-05-02T13:00:26.406Z</time></trkpt><trkpt lat="54.5249283" lon="-1.761885"><ele>132.33333333333334</ele><time>2026-05-02T13:00:27.406Z</time></trkpt><trkpt lat="54.525005" lon="-1.7622033"><ele>130.0</ele><time>2026-05-02T13:00:28.402Z</time></trkpt><trkpt lat="54.525075" lon="-1.7625017"><ele>129.66666666666669</ele><time>2026-05-02T13:00:29.403Z</time></trkpt><trkpt lat="54.525135" lon="-1.7627617"><ele>129.33333333333334</ele><time>2026-05-02T13:00:30.404Z</time></trkpt><trkpt lat="54.525195" lon="-1.762995"><ele>129.0</ele><time>2026-05-02T13:00:31.402Z</time></trkpt><trkpt lat="54.5252667" lon="-1.7632033"><ele>129.0</ele><time>2026-05-02T13:00:32.404Z</time></trkpt><trkpt lat="54.5253567" lon="-1.7633783"><ele>129.0</ele><time>2026-05-02T13:00:33.403Z</time></trkpt><trkpt lat="54.5254667" lon="-1.7635133"><ele>129.0</ele><time>2026-05-02T13:00:34.402Z</time></trkpt><trkpt lat="54.52559" lon="-1.7636"><ele>129.0</ele><time>2026-05-02T13:00:35.404Z</time></trkpt><trkpt lat="54.52574" lon="-1.7636367"><ele>129.66666666666666</ele><time>2026-05-02T13:00:36.405Z</time></trkpt><trkpt lat="54.5259317" lon="-1.7636217"><ele>130.33333333333331</ele><time>2026-05-02T13:00:37.403Z</time></trkpt><trkpt lat="54.5261433" lon="-1.7636033"><ele>131.0</ele><time>2026-05-02T13:00:38.403Z</time></trkpt><trkpt lat="54.5263667" lon="-1.76359"><ele>132.0</ele><time>2026-05-02T13:00:39.404Z</time></trkpt><trkpt lat="54.526605" lon="-1.7635733"><ele>133.0</ele><time>2026-05-02T13:00:40.403Z</time></trkpt><trkpt lat="54.5268483" lon="-1.763555"><ele>133.5</ele><time>2026-05-02T13:00:41.403Z</time></trkpt><trkpt lat="54.5270967" lon="-1.7635417"><ele>134.0</ele><time>2026-05-02T13:00:42.403Z</time></trkpt><trkpt lat="54.5273467" lon="-1.76353"><ele>132.5</ele><time>2026-05-02T13:00:43.403Z</time></trkpt><trkpt lat="54.5275917" lon="-1.76352"><ele>131.0</ele><time>2026-05-02T13:00:44.403Z</time></trkpt><trkpt lat="54.527835" lon="-1.763515"><ele>130.0</ele><time>2026-05-02T13:00:45.402Z</time></trkpt><trkpt lat="54.5280733" lon="-1.7635083"><ele>129.0</ele><time>2026-05-02T13:00:46.405Z</time></trkpt><trkpt lat="54.5283067" lon="-1.7635033"><ele>129.0</ele><time>2026-05-02T13:00:47.402Z</time></trkpt><trkpt lat="54.528535" lon="-1.763495"><ele>129.0</ele><time>2026-05-02T13:00:48.404Z</time></trkpt><trkpt lat="54.528745" lon="-1.76349"><ele>129.0</ele><time>2026-05-02T13:00:49.405Z</time></trkpt><trkpt lat="54.528935" lon="-1.7634867"><ele>129.33333333333334</ele><time>2026-05-02T13:00:50.404Z</time></trkpt><trkpt lat="54.5291067" lon="-1.7634867"><ele>129.66666666666669</ele><time>2026-05-02T13:00:51.407Z</time></trkpt><trkpt lat="54.5292567" lon="-1.7634933"><ele>130.0</ele><time>2026-05-02T13:00:52.406Z</time></trkpt><trkpt lat="54.52939" lon="-1.7635167"><ele>130.0</ele><time>2026-05-02T13:00:53.406Z</time></trkpt><trkpt lat="54.5295017" lon="-1.7635933"><ele>130.0</ele><time>2026-05-02T13:00:54.405Z</time></trkpt><trkpt lat="54.5296033" lon="-1.76371"><ele>130.0</ele><time>2026-05-02T13:00:55.404Z</time></trkpt><trkpt lat="54.5296867" lon="-1.76389"><ele>130.0</ele><time>2026-05-02T13:00:56.406Z</time></trkpt><trkpt lat="54.5297633" lon="-1.7641317"><ele>130.0</ele><time>2026-05-02T13:00:57.404Z</time></trkpt><trkpt lat="54.5298367" lon="-1.7643517"><ele>130.0</ele><time>2026-05-02T13:00:58.404Z</time></trkpt><trkpt lat="54.5299083" lon="-1.7645167"><ele>130.0</ele><time>2026-05-02T13:00:59.406Z</time></trkpt><trkpt lat="54.5299933" lon="-1.7646317"><ele>130.0</ele><time>2026-05-02T13:01:00.405Z</time></trkpt><trkpt lat="54.5301017" lon="-1.7647033"><ele>129.66666666666669</ele><time>2026-05-02T13:01:01.405Z</time></trkpt><trkpt lat="54.5302317" lon="-1.7647183"><ele>129.33333333333334</ele><time>2026-05-02T13:01:02.406Z</time></trkpt><trkpt lat="54.530385" lon="-1.7646617"><ele>129.0</ele><time>2026-05-02T13:01:03.405Z</time></trkpt><trkpt lat="54.5305683" lon="-1.764565"><ele>128.66666666666666</ele><time>2026-05-02T13:01:04.404Z</time></trkpt><trkpt lat="54.5307733" lon="-1.764455"><ele>128.33333333333331</ele><time>2026-05-02T13:01:05.404Z</time></trkpt><trkpt lat="54.5309783" lon="-1.7643583"><ele>128.0</ele><time>2026-05-02T13:01:06.406Z</time></trkpt><trkpt lat="54.5311633" lon="-1.7642717"><ele>127.66666666666666</ele><time>2026-05-02T13:01:07.405Z</time></trkpt><trkpt lat="54.53132" lon="-1.7642117"><ele>127.33333333333334</ele><time>2026-05-02T13:01:08.406Z</time></trkpt><trkpt lat="54.5314633" lon="-1.7642083"><ele>127.0</ele><time>2026-05-02T13:01:09.405Z</time></trkpt><trkpt lat="54.531605" lon="-1.7642717"><ele>126.33333333333334</ele><time>2026-05-02T13:01:10.406Z</time></trkpt><trkpt lat="54.5317483" lon="-1.764415"><ele>125.66666666666666</ele><time>2026-05-02T13:01:11.407Z</time></trkpt><trkpt lat="54.5318867" lon="-1.764615"><ele>125.0</ele><time>2026-05-02T13:01:12.405Z</time></trkpt><trkpt lat="54.5320367" lon="-1.7648333"><ele>124.66666666666666</ele><time>2026-05-02T13:01:13.405Z</time></trkpt><trkpt lat="54.5321917" lon="-1.765065"><ele>124.33333333333334</ele><time>2026-05-02T13:01:14.406Z</time></trkpt><trkpt lat="54.5323567" lon="-1.7653017"><ele>124.0</ele><time>2026-05-02T13:01:15.404Z</time></trkpt><trkpt lat="54.5325283" lon="-1.7655417"><ele>124.0</ele><time>2026-05-02T13:01:16.405Z</time></trkpt><trkpt lat="54.532715" lon="-1.76576"><ele>124.0</ele><time>2026-05-02T13:01:17.406Z</time></trkpt><trkpt lat="54.5329017" lon="-1.76596"><ele>124.0</ele><time>2026-05-02T13:01:18.406Z</time></trkpt><trkpt lat="54.5330783" lon="-1.7661583"><ele>124.66666666666667</ele><time>2026-05-02T13:01:19.406Z</time></trkpt><trkpt lat="54.5332383" lon="-1.7663717"><ele>125.33333333333334</ele><time>2026-05-02T13:01:20.405Z</time></trkpt><trkpt lat="54.5333833" lon="-1.766625"><ele>126.0</ele><time>2026-05-02T13:01:21.405Z</time></trkpt><trkpt lat="54.5335167" lon="-1.76691"><ele>126.0</ele><time>2026-05-02T13:01:22.406Z</time></trkpt><trkpt lat="54.5336417" lon="-1.767205"><ele>126.0</ele><time>2026-05-02T13:01:23.405Z</time></trkpt><trkpt lat="54.5337667" lon="-1.7675117"><ele>126.0</ele><time>2026-05-02T13:01:24.405Z</time></trkpt><trkpt lat="54.5338967" lon="-1.7678133"><ele>125.0</ele><time>2026-05-02T13:01:25.409Z</time></trkpt><trkpt lat="54.5340267" lon="-1.76812"><ele>124.0</ele><time>2026-05-02T13:01:26.406Z</time></trkpt><trkpt lat="54.534165" lon="-1.7684333"><ele>123.0</ele><time>2026-05-02T13:01:27.405Z</time></trkpt><trkpt lat="54.5343233" lon="-1.768745"><ele>122.5</ele><time>2026-05-02T13:01:28.405Z</time></trkpt><trkpt lat="54.5344883" lon="-1.7690317"><ele>122.0</ele><time>2026-05-02T13:01:29.405Z</time></trkpt><trkpt lat="54.53466" lon="-1.769285"><ele>121.33333333333333</ele><time>2026-05-02T13:01:30.406Z</time></trkpt><trkpt lat="54.534825" lon="-1.7695117"><ele>120.66666666666666</ele><time>2026-05-02T13:01:31.404Z</time></trkpt><trkpt lat="54.5349717" lon="-1.769725"><ele>120.0</ele><time>2026-05-02T13:01:32.405Z</time></trkpt><trkpt lat="54.5350883" lon="-1.7699467"><ele>120.33333333333334</ele><time>2026-05-02T13:01:33.405Z</time></trkpt><trkpt lat="54.53519" lon="-1.7702167"><ele>120.66666666666667</ele><time>2026-05-02T13:01:34.405Z</time></trkpt><trkpt lat="54.5352783" lon="-1.770525"><ele>121.0</ele><time>2026-05-02T13:01:35.405Z</time></trkpt><trkpt lat="54.5353533" lon="-1.7708617"><ele>118.66666666666667</ele><time>2026-05-02T13:01:36.405Z</time></trkpt><trkpt lat="54.535425" lon="-1.771195"><ele>116.33333333333334</ele><time>2026-05-02T13:01:37.404Z</time></trkpt><trkpt lat="54.5355017" lon="-1.7715067"><ele>114.0</ele><time>2026-05-02T13:01:38.405Z</time></trkpt><trkpt lat="54.53559" lon="-1.7718083"><ele>115.66666666666666</ele><time>2026-05-02T13:01:39.406Z</time></trkpt><trkpt lat="54.535695" lon="-1.7721133"><ele>117.33333333333333</ele><time>2026-05-02T13:01:40.405Z</time></trkpt><trkpt lat="54.535825" lon="-1.7724167"><ele>119.0</ele><time>2026-05-02T13:01:41.404Z</time></trkpt><trkpt lat="54.535975" lon="-1.7727267"><ele>120.0</ele><time>2026-05-02T13:01:42.405Z</time></trkpt><trkpt lat="54.5361383" lon="-1.7730333"><ele>121.0</ele><time>2026-05-02T13:01:43.404Z</time></trkpt><trkpt lat="54.536315" lon="-1.7733283"><ele>115.0</ele><time>2026-05-02T13:01:44.406Z</time></trkpt><trkpt lat="54.5364883" lon="-1.773615"><ele>109.0</ele><time>2026-05-02T13:01:45.405Z</time></trkpt><trkpt lat="54.5366567" lon="-1.7738983"><ele>109.0</ele><time>2026-05-02T13:01:46.405Z</time></trkpt><trkpt lat="54.536825" lon="-1.7741833"><ele>109.0</ele><time>2026-05-02T13:01:47.404Z</time></trkpt><trkpt lat="54.5369967" lon="-1.7744683"><ele>107.5</ele><time>2026-05-02T13:01:48.404Z</time></trkpt><trkpt lat="54.5371817" lon="-1.7747417"><ele>106.0</ele><time>2026-05-02T13:01:49.403Z</time></trkpt><trkpt lat="54.537375" lon="-1.77501"><ele>108.0</ele><time>2026-05-02T13:01:50.402Z</time></trkpt><trkpt lat="54.5375683" lon="-1.7752783"><ele>110.0</ele><time>2026-05-02T13:01:51.402Z</time></trkpt><trkpt lat="54.53775" lon="-1.7755533"><ele>110.0</ele><time>2026-05-02T13:01:52.403Z</time></trkpt><trkpt lat="54.53792" lon="-1.7758417"><ele>110.0</ele><time>2026-05-02T13:01:53.404Z</time></trkpt><trkpt lat="54.5380917" lon="-1.7761267"><ele>110.33333333333333</ele><time>2026-05-02T13:01:54.405Z</time></trkpt><trkpt lat="54.5382633" lon="-1.77638"><ele>110.66666666666666</ele><time>2026-05-02T13:01:55.403Z</time></trkpt><trkpt lat="54.5384317" lon="-1.7765983"><ele>111.0</ele><time>2026-05-02T13:01:56.405Z</time></trkpt><trkpt lat="54.5385967" lon="-1.7767733"><ele>111.0</ele><time>2026-05-02T13:01:57.404Z</time></trkpt><trkpt lat="54.5387583" lon="-1.7769283"><ele>111.0</ele><time>2026-05-02T13:01:58.403Z</time></trkpt><trkpt lat="54.5389217" lon="-1.777075"><ele>111.0</ele><time>2026-05-02T13:01:59.402Z</time></trkpt><trkpt lat="54.5390767" lon="-1.7772117"><ele>111.0</ele><time>2026-05-02T13:02:00.404Z</time></trkpt><trkpt lat="54.5392217" lon="-1.77732"><ele>111.0</ele><time>2026-05-02T13:02:01.403Z</time></trkpt><trkpt lat="54.5393517" lon="-1.7774017"><ele>111.0</ele><time>2026-05-02T13:02:02.405Z</time></trkpt><trkpt lat="54.5394717" lon="-1.77747"><ele>111.0</ele><time>2026-05-02T13:02:03.402Z</time></trkpt><trkpt lat="54.53959" lon="-1.7775333"><ele>110.25</ele><time>2026-05-02T13:02:04.408Z</time></trkpt><trkpt lat="54.5397083" lon="-1.777585"><ele>109.5</ele><time>2026-05-02T13:02:05.403Z</time></trkpt><trkpt lat="54.5398267" lon="-1.7776133"><ele>108.75</ele><time>2026-05-02T13:02:06.403Z</time></trkpt><trkpt lat="54.539945" lon="-1.7776183"><ele>108.0</ele><time>2026-05-02T13:02:07.402Z</time></trkpt><trkpt lat="54.5400733" lon="-1.7775967"><ele>108.0</ele><time>2026-05-02T13:02:08.402Z</time></trkpt><trkpt lat="54.540215" lon="-1.777545"><ele>108.0</ele><time>2026-05-02T13:02:09.404Z</time></trkpt><trkpt lat="54.540375" lon="-1.7774683"><ele>108.0</ele><time>2026-05-02T13:02:10.402Z</time></trkpt><trkpt lat="54.540545" lon="-1.7773767"><ele>107.0</ele><time>2026-05-02T13:02:11.405Z</time></trkpt><trkpt lat="54.5407" lon="-1.777275"><ele>106.0</ele><time>2026-05-02T13:02:12.406Z</time></trkpt><trkpt lat="54.5408283" lon="-1.7771933"><ele>105.0</ele><time>2026-05-02T13:02:13.405Z</time></trkpt><trkpt lat="54.54093" lon="-1.7771467"><ele>104.0</ele><time>2026-05-02T13:02:14.407Z</time></trkpt><trkpt lat="54.541025" lon="-1.7771517"><ele>104.0</ele><time>2026-05-02T13:02:15.403Z</time></trkpt><trkpt lat="54.5411083" lon="-1.777205"><ele>104.0</ele><time>2026-05-02T13:02:16.402Z</time></trkpt><trkpt lat="54.54119" lon="-1.777315"><ele>104.0</ele><time>2026-05-02T13:02:17.404Z</time></trkpt><trkpt lat="54.5412633" lon="-1.7775033"><ele>104.0</ele><time>2026-05-02T13:02:18.405Z</time></trkpt><trkpt lat="54.5413233" lon="-1.7777383"><ele>101.66666666666666</ele><time>2026-05-02T13:02:19.405Z</time></trkpt><trkpt lat="54.541375" lon="-1.778"><ele>99.33333333333334</ele><time>2026-05-02T13:02:20.403Z</time></trkpt><trkpt lat="54.54142" lon="-1.7782617"><ele>97.0</ele><time>2026-05-02T13:02:21.405Z</time></trkpt><trkpt lat="54.5414433" lon="-1.7785317"><ele>97.0</ele><time>2026-05-02T13:02:22.406Z</time></trkpt><trkpt lat="54.5414567" lon="-1.7788117"><ele>97.0</ele><time>2026-05-02T13:02:23.406Z</time></trkpt><trkpt lat="54.5414683" lon="-1.7790917"><ele>97.0</ele><time>2026-05-02T13:02:24.402Z</time></trkpt><trkpt lat="54.5414767" lon="-1.779365"><ele>96.0</ele><time>2026-05-02T13:02:25.403Z</time></trkpt><trkpt lat="54.541475" lon="-1.7796417"><ele>95.0</ele><time>2026-05-02T13:02:26.403Z</time></trkpt><trkpt lat="54.5414467" lon="-1.7799233"><ele>94.0</ele><time>2026-05-02T13:02:27.403Z</time></trkpt><trkpt lat="54.54142" lon="-1.7801917"><ele>92.5</ele><time>2026-05-02T13:02:28.401Z</time></trkpt><trkpt lat="54.5413883" lon="-1.7804267"><ele>91.0</ele><time>2026-05-02T13:02:29.403Z</time></trkpt><trkpt lat="54.5413733" lon="-1.78064"><ele>89.5</ele><time>2026-05-02T13:02:30.405Z</time></trkpt><trkpt lat="54.5413783" lon="-1.7808417"><ele>88.0</ele><time>2026-05-02T13:02:31.402Z</time></trkpt><trkpt lat="54.5414233" lon="-1.7810533"><ele>87.33333333333333</ele><time>2026-05-02T13:02:32.404Z</time></trkpt><trkpt lat="54.541495" lon="-1.7812717"><ele>86.66666666666667</ele><time>2026-05-02T13:02:33.402Z</time></trkpt><trkpt lat="54.5415783" lon="-1.78151"><ele>86.0</ele><time>2026-05-02T13:02:34.401Z</time></trkpt><trkpt lat="54.5416683" lon="-1.7817617"><ele>88.33333333333334</ele><time>2026-05-02T13:02:35.407Z</time></trkpt><trkpt lat="54.5417567" lon="-1.7820117"><ele>90.66666666666667</ele><time>2026-05-02T13:02:36.403Z</time></trkpt><trkpt lat="54.541845" lon="-1.7822417"><ele>93.0</ele><time>2026-05-02T13:02:37.405Z</time></trkpt><trkpt lat="54.5419417" lon="-1.782445"><ele>94.33333333333334</ele><time>2026-05-02T13:02:38.403Z</time></trkpt><trkpt lat="54.5420617" lon="-1.7826233"><ele>95.66666666666667</ele><time>2026-05-02T13:02:39.401Z</time></trkpt><trkpt lat="54.54221" lon="-1.7827783"><ele>97.0</ele><time>2026-05-02T13:02:40.404Z</time></trkpt><trkpt lat="54.54238" lon="-1.782925"><ele>99.0</ele><time>2026-05-02T13:02:41.402Z</time></trkpt><trkpt lat="54.54256" lon="-1.7830817"><ele>101.0</ele><time>2026-05-02T13:02:42.402Z</time></trkpt><trkpt lat="54.5427517" lon="-1.7832433"><ele>103.0</ele><time>2026-05-02T13:02:43.407Z</time></trkpt><trkpt lat="54.5429367" lon="-1.783415"><ele>106.66666666666667</ele><time>2026-05-02T13:02:44.404Z</time></trkpt><trkpt lat="54.5431233" lon="-1.7835767"><ele>110.33333333333334</ele><time>2026-05-02T13:02:45.404Z</time></trkpt><trkpt lat="54.5432967" lon="-1.783735"><ele>114.0</ele><time>2026-05-02T13:02:46.405Z</time></trkpt><trkpt lat="54.5434617" lon="-1.78388"><ele>114.0</ele><time>2026-05-02T13:02:47.401Z</time></trkpt><trkpt lat="54.5436283" lon="-1.7839983"><ele>114.0</ele><time>2026-05-02T13:02:48.403Z</time></trkpt><trkpt lat="54.5438017" lon="-1.7840717"><ele>114.0</ele><time>2026-05-02T13:02:49.405Z</time></trkpt><trkpt lat="54.5439683" lon="-1.784105"><ele>114.0</ele><time>2026-05-02T13:02:50.401Z</time></trkpt><trkpt lat="54.5441167" lon="-1.7841117"><ele>114.0</ele><time>2026-05-02T13:02:51.401Z</time></trkpt><trkpt lat="54.5442433" lon="-1.7841133"><ele>114.0</ele><time>2026-05-02T13:02:52.408Z</time></trkpt><trkpt lat="54.5443483" lon="-1.7840867"><ele>114.0</ele><time>2026-05-02T13:02:53.402Z</time></trkpt><trkpt lat="54.5444383" lon="-1.7840517"><ele>114.0</ele><time>2026-05-02T13:02:54.402Z</time></trkpt><trkpt lat="54.5445233" lon="-1.7840183"><ele>114.0</ele><time>2026-05-02T13:02:55.403Z</time></trkpt><trkpt lat="54.54461" lon="-1.7839833"><ele>114.0</ele><time>2026-05-02T13:02:56.402Z</time></trkpt><trkpt lat="54.5447" lon="-1.78393"><ele>114.0</ele><time>2026-05-02T13:02:57.402Z</time></trkpt><trkpt lat="54.5447883" lon="-1.78387"><ele>114.0</ele><time>2026-05-02T13:02:58.401Z</time></trkpt><trkpt lat="54.5448817" lon="-1.783805"><ele>115.6</ele><time>2026-05-02T13:02:59.402Z</time></trkpt><trkpt lat="54.54498" lon="-1.78375"><ele>117.2</ele><time>2026-05-02T13:03:00.402Z</time></trkpt><trkpt lat="54.545075" lon="-1.7837217"><ele>118.79999999999998</ele><time>2026-05-02T13:03:01.402Z</time></trkpt><trkpt lat="54.5451717" lon="-1.7837333"><ele>120.39999999999999</ele><time>2026-05-02T13:03:02.402Z</time></trkpt><trkpt lat="54.5452683" lon="-1.7837683"><ele>122.0</ele><time>2026-05-02T13:03:03.402Z</time></trkpt><trkpt lat="54.5453617" lon="-1.783835"><ele>122.66666666666666</ele><time>2026-05-02T13:03:04.402Z</time></trkpt><trkpt lat="54.54545" lon="-1.7839117"><ele>123.33333333333333</ele><time>2026-05-02T13:03:05.402Z</time></trkpt><trkpt lat="54.5455267" lon="-1.783985"><ele>124.0</ele><time>2026-05-02T13:03:06.403Z</time></trkpt><trkpt lat="54.545595" lon="-1.7840367"><ele>124.66666666666666</ele><time>2026-05-02T13:03:07.402Z</time></trkpt><trkpt lat="54.545685" lon="-1.7841017"><ele>125.33333333333333</ele><time>2026-05-02T13:03:09.406Z</time></trkpt><trkpt lat="54.54574" lon="-1.7842233"><ele>126.0</ele><time>2026-05-02T13:03:12.402Z</time></trkpt><trkpt lat="54.5457283" lon="-1.7844283"><ele>126.4</ele><time>2026-05-02T13:03:14.404Z</time></trkpt><trkpt lat="54.545705" lon="-1.7846"><ele>126.8</ele><time>2026-05-02T13:03:15.402Z</time></trkpt><trkpt lat="54.5456767" lon="-1.7847817"><ele>127.20000000000002</ele><time>2026-05-02T13:03:16.405Z</time></trkpt><trkpt lat="54.5456483" lon="-1.784965"><ele>127.60000000000001</ele><time>2026-05-02T13:03:17.404Z</time></trkpt><trkpt lat="54.545615" lon="-1.7851517"><ele>128.0</ele><time>2026-05-02T13:03:18.402Z</time></trkpt><trkpt lat="54.5455867" lon="-1.7853367"><ele>128.5</ele><time>2026-05-02T13:03:19.403Z</time></trkpt><trkpt lat="54.545555" lon="-1.78553"><ele>129.0</ele><time>2026-05-02T13:03:20.404Z</time></trkpt><trkpt lat="54.5455333" lon="-1.7857233"><ele>129.5</ele><time>2026-05-02T13:03:21.403Z</time></trkpt><trkpt lat="54.545515" lon="-1.7859133"><ele>130.0</ele><time>2026-05-02T13:03:22.404Z</time></trkpt><trkpt lat="54.5454967" lon="-1.786105"><ele>130.2</ele><time>2026-05-02T13:03:23.402Z</time></trkpt><trkpt lat="54.5454817" lon="-1.786295"><ele>130.4</ele><time>2026-05-02T13:03:24.402Z</time></trkpt><trkpt lat="54.5454633" lon="-1.7864833"><ele>130.6</ele><time>2026-05-02T13:03:25.402Z</time></trkpt><trkpt lat="54.545445" lon="-1.7866717"><ele>130.8</ele><time>2026-05-02T13:03:26.402Z</time></trkpt><trkpt lat="54.54543" lon="-1.78686"><ele>131.0</ele><time>2026-05-02T13:03:27.403Z</time></trkpt><trkpt lat="54.54541" lon="-1.787045"><ele>131.4</ele><time>2026-05-02T13:03:28.404Z</time></trkpt><trkpt lat="54.545395" lon="-1.7872233"><ele>131.8</ele><time>2026-05-02T13:03:29.403Z</time></trkpt><trkpt lat="54.5453817" lon="-1.7873883"><ele>132.20000000000002</ele><time>2026-05-02T13:03:30.403Z</time></trkpt><trkpt lat="54.5453567" lon="-1.7875467"><ele>132.6</ele><time>2026-05-02T13:03:31.402Z</time></trkpt><trkpt lat="54.5453317" lon="-1.7877133"><ele>133.0</ele><time>2026-05-02T13:03:32.402Z</time></trkpt><trkpt lat="54.5453083" lon="-1.7878867"><ele>133.8</ele><time>2026-05-02T13:03:33.402Z</time></trkpt><trkpt lat="54.545285" lon="-1.7880617"><ele>134.60000000000002</ele><time>2026-05-02T13:03:34.401Z</time></trkpt><trkpt lat="54.5452617" lon="-1.7882383"><ele>135.39999999999998</ele><time>2026-05-02T13:03:35.405Z</time></trkpt><trkpt lat="54.5452383" lon="-1.7884117"><ele>136.2</ele><time>2026-05-02T13:03:36.402Z</time></trkpt><trkpt lat="54.5452117" lon="-1.7885767"><ele>137.0</ele><time>2026-05-02T13:03:37.405Z</time></trkpt><trkpt lat="54.54519" lon="-1.7887333"><ele>137.4</ele><time>2026-05-02T13:03:38.402Z</time></trkpt><trkpt lat="54.5451767" lon="-1.788885"><ele>137.79999999999998</ele><time>2026-05-02T13:03:39.402Z</time></trkpt><trkpt lat="54.5451733" lon="-1.7890417"><ele>138.2</ele><time>2026-05-02T13:03:40.402Z</time></trkpt><trkpt lat="54.5451883" lon="-1.7892017"><ele>138.6</ele><time>2026-05-02T13:03:41.403Z</time></trkpt><trkpt lat="54.5452233" lon="-1.7893667"><ele>139.0</ele><time>2026-05-02T13:03:42.403Z</time></trkpt><trkpt lat="54.5452683" lon="-1.7895217"><ele>139.2</ele><time>2026-05-02T13:03:43.403Z</time></trkpt><trkpt lat="54.54533" lon="-1.789665"><ele>139.4</ele><time>2026-05-02T13:03:44.403Z</time></trkpt><trkpt lat="54.5454083" lon="-1.7897867"><ele>139.6</ele><time>2026-05-02T13:03:45.402Z</time></trkpt><trkpt lat="54.5454883" lon="-1.7898933"><ele>139.8</ele><time>2026-05-02T13:03:46.402Z</time></trkpt><trkpt lat="54.5455633" lon="-1.7899917"><ele>140.0</ele><time>2026-05-02T13:03:47.402Z</time></trkpt><trkpt lat="54.5456333" lon="-1.7900667"><ele>139.33333333333331</ele><time>2026-05-02T13:03:48.403Z</time></trkpt><trkpt lat="54.5457017" lon="-1.7901183"><ele>138.66666666666666</ele><time>2026-05-02T13:03:49.402Z</time></trkpt><trkpt lat="54.5457833" lon="-1.790205"><ele>138.0</ele><time>2026-05-02T13:03:51.402Z</time></trkpt><trkpt lat="54.5458017" lon="-1.790315"><ele>137.33333333333334</ele><time>2026-05-02T13:03:53.403Z</time></trkpt><trkpt lat="54.545765" lon="-1.790415"><ele>136.66666666666669</ele><time>2026-05-02T13:05:30.403Z</time></trkpt><trkpt lat="54.545725" lon="-1.7906017"><ele>136.0</ele><time>2026-05-02T13:05:33.403Z</time></trkpt><trkpt lat="54.5456933" lon="-1.7907017"><ele>136.0</ele><time>2026-05-02T13:05:34.403Z</time></trkpt><trkpt lat="54.5456533" lon="-1.7908167"><ele>136.0</ele><time>2026-05-02T13:05:35.404Z</time></trkpt><trkpt lat="54.5456083" lon="-1.790945"><ele>136.0</ele><time>2026-05-02T13:05:36.403Z</time></trkpt><trkpt lat="54.5455617" lon="-1.791085"><ele>136.0</ele><time>2026-05-02T13:05:37.404Z</time></trkpt><trkpt lat="54.5455167" lon="-1.79123"><ele>136.0</ele><time>2026-05-02T13:05:38.403Z</time></trkpt><trkpt lat="54.54547" lon="-1.791375"><ele>142.0</ele><time>2026-05-02T13:05:39.402Z</time></trkpt><trkpt lat="54.544155" lon="-1.7959367"><ele>142.33333333333334</ele><time>2026-05-02T13:06:05.403Z</time></trkpt><trkpt lat="54.5440833" lon="-1.7964017"><ele>142.66666666666666</ele><time>2026-05-02T13:06:07.408Z</time></trkpt><trkpt lat="54.544045" lon="-1.7966467"><ele>143.0</ele><time>2026-05-02T13:06:08.404Z</time></trkpt><trkpt lat="54.5439217" lon="-1.79745"><ele>144.0</ele><time>2026-05-02T13:06:11.408Z</time></trkpt><trkpt lat="54.5438817" lon="-1.7977367"><ele>145.0</ele><time>2026-05-02T13:06:12.404Z</time></trkpt><trkpt lat="54.54384" lon="-1.798025"><ele>146.0</ele><time>2026-05-02T13:06:13.402Z</time></trkpt><trkpt lat="54.5437983" lon="-1.798315"><ele>146.0</ele><time>2026-05-02T13:06:14.411Z</time></trkpt><trkpt lat="54.5437567" lon="-1.7985983"><ele>146.0</ele><time>2026-05-02T13:06:15.403Z</time></trkpt><trkpt lat="54.5437183" lon="-1.79887"><ele>146.0</ele><time>2026-05-02T13:06:16.401Z</time></trkpt><trkpt lat="54.5436833" lon="-1.79914"><ele>147.0</ele><time>2026-05-02T13:06:17.402Z</time></trkpt><trkpt lat="54.5436483" lon="-1.7994067"><ele>148.0</ele><time>2026-05-02T13:06:18.402Z</time></trkpt><trkpt lat="54.5435833" lon="-1.799945"><ele>148.33333333333334</ele><time>2026-05-02T13:06:20.403Z</time></trkpt><trkpt lat="54.5435517" lon="-1.8002267"><ele>148.66666666666666</ele><time>2026-05-02T13:06:21.406Z</time></trkpt><trkpt lat="54.54352" lon="-1.80051"><ele>149.0</ele><time>2026-05-02T13:06:22.403Z</time></trkpt><trkpt lat="54.54349" lon="-1.8007783"><ele>149.25</ele><time>2026-05-02T13:06:23.403Z</time></trkpt><trkpt lat="54.54346" lon="-1.801025"><ele>149.5</ele><time>2026-05-02T13:06:24.405Z</time></trkpt><trkpt lat="54.5434333" lon="-1.801265"><ele>149.75</ele><time>2026-05-02T13:06:25.404Z</time></trkpt><trkpt lat="54.5434067" lon="-1.80149"><ele>150.0</ele><time>2026-05-02T13:06:26.404Z</time></trkpt><trkpt lat="54.5433833" lon="-1.80172"><ele>150.33333333333334</ele><time>2026-05-02T13:06:27.405Z</time></trkpt><trkpt lat="54.5433583" lon="-1.8019583"><ele>150.66666666666669</ele><time>2026-05-02T13:06:28.402Z</time></trkpt><trkpt lat="54.5433267" lon="-1.8022133"><ele>151.0</ele><time>2026-05-02T13:06:29.406Z</time></trkpt><trkpt lat="54.5432933" lon="-1.8024833"><ele>151.0</ele><time>2026-05-02T13:06:30.406Z</time></trkpt><trkpt lat="54.54326" lon="-1.8027717"><ele>151.0</ele><time>2026-05-02T13:06:31.406Z</time></trkpt><trkpt lat="54.543225" lon="-1.8030717"><ele>151.0</ele><time>2026-05-02T13:06:32.405Z</time></trkpt><trkpt lat="54.5431883" lon="-1.803385"><ele>151.0</ele><time>2026-05-02T13:06:33.403Z</time></trkpt><trkpt lat="54.5431517" lon="-1.803715"><ele>151.0</ele><time>2026-05-02T13:06:34.403Z</time></trkpt><trkpt lat="54.5431133" lon="-1.8040633"><ele>151.0</ele><time>2026-05-02T13:06:35.403Z</time></trkpt><trkpt lat="54.5430733" lon="-1.8044267"><ele>151.0</ele><time>2026-05-02T13:06:36.403Z</time></trkpt><trkpt lat="54.5430317" lon="-1.8048"><ele>151.0</ele><time>2026-05-02T13:06:37.403Z</time></trkpt><trkpt lat="54.54299" lon="-1.8051867"><ele>151.0</ele><time>2026-05-02T13:06:38.409Z</time></trkpt><trkpt lat="54.5429483" lon="-1.80557"><ele>151.0</ele><time>2026-05-02T13:06:39.402Z</time></trkpt><trkpt lat="54.54291" lon="-1.8059483"><ele>151.0</ele><time>2026-05-02T13:06:40.406Z</time></trkpt><trkpt lat="54.5428717" lon="-1.8063217"><ele>151.0</ele><time>2026-05-02T13:06:41.402Z</time></trkpt><trkpt lat="54.5428283" lon="-1.8066917"><ele>151.66666666666669</ele><time>2026-05-02T13:06:42.406Z</time></trkpt><trkpt lat="54.542785" lon="-1.8070633"><ele>152.33333333333334</ele><time>2026-05-02T13:06:43.402Z</time></trkpt><trkpt lat="54.542745" lon="-1.8074367"><ele>153.0</ele><time>2026-05-02T13:06:44.406Z</time></trkpt><trkpt lat="54.5427" lon="-1.8078033"><ele>153.66666666666666</ele><time>2026-05-02T13:06:45.405Z</time></trkpt><trkpt lat="54.54266" lon="-1.8081683"><ele>154.33333333333331</ele><time>2026-05-02T13:06:46.406Z</time></trkpt><trkpt lat="54.5426217" lon="-1.8085283"><ele>155.0</ele><time>2026-05-02T13:06:47.405Z</time></trkpt><trkpt lat="54.5425883" lon="-1.8088833"><ele>155.0</ele><time>2026-05-02T13:06:48.405Z</time></trkpt><trkpt lat="54.5425533" lon="-1.8092433"><ele>155.0</ele><time>2026-05-02T13:06:49.405Z</time></trkpt><trkpt lat="54.5425167" lon="-1.8096017"><ele>155.0</ele><time>2026-05-02T13:06:50.403Z</time></trkpt><trkpt lat="54.5424733" lon="-1.80996"><ele>154.0</ele><time>2026-05-02T13:06:51.403Z</time></trkpt><trkpt lat="54.5424383" lon="-1.81033"><ele>153.0</ele><time>2026-05-02T13:06:52.403Z</time></trkpt><trkpt lat="54.5424083" lon="-1.8107083"><ele>152.0</ele><time>2026-05-02T13:06:53.402Z</time></trkpt><trkpt lat="54.5423883" lon="-1.8110867"><ele>152.0</ele><time>2026-05-02T13:06:54.403Z</time></trkpt><trkpt lat="54.542375" lon="-1.8114667"><ele>152.0</ele><time>2026-05-02T13:06:55.402Z</time></trkpt><trkpt lat="54.5423583" lon="-1.8118417"><ele>152.0</ele><time>2026-05-02T13:06:56.403Z</time></trkpt><trkpt lat="54.5423483" lon="-1.8122183"><ele>152.0</ele><time>2026-05-02T13:06:57.403Z</time></trkpt><trkpt lat="54.54235" lon="-1.8125983"><ele>152.0</ele><time>2026-05-02T13:06:58.402Z</time></trkpt><trkpt lat="54.5423533" lon="-1.8129783"><ele>152.0</ele><time>2026-05-02T13:06:59.403Z</time></trkpt><trkpt lat="54.5423617" lon="-1.81336"><ele>152.66666666666666</ele><time>2026-05-02T13:07:00.405Z</time></trkpt><trkpt lat="54.5423733" lon="-1.8137433"><ele>153.33333333333334</ele><time>2026-05-02T13:07:01.405Z</time></trkpt><trkpt lat="54.54239" lon="-1.81413"><ele>154.0</ele><time>2026-05-02T13:07:02.406Z</time></trkpt><trkpt lat="54.542405" lon="-1.8145167"><ele>154.0</ele><time>2026-05-02T13:07:03.408Z</time></trkpt><trkpt lat="54.5424217" lon="-1.8149033"><ele>154.0</ele><time>2026-05-02T13:07:04.406Z</time></trkpt><trkpt lat="54.542435" lon="-1.815285"><ele>154.0</ele><time>2026-05-02T13:07:05.401Z</time></trkpt><trkpt lat="54.5424517" lon="-1.8156633"><ele>154.33333333333334</ele><time>2026-05-02T13:07:06.404Z</time></trkpt><trkpt lat="54.5424733" lon="-1.8160417"><ele>154.66666666666666</ele><time>2026-05-02T13:07:07.402Z</time></trkpt><trkpt lat="54.542495" lon="-1.816425"><ele>155.0</ele><time>2026-05-02T13:07:08.403Z</time></trkpt><trkpt lat="54.5425117" lon="-1.8168083"><ele>154.5</ele><time>2026-05-02T13:07:09.402Z</time></trkpt><trkpt lat="54.542525" lon="-1.817195"><ele>154.0</ele><time>2026-05-02T13:07:10.402Z</time></trkpt><trkpt lat="54.5425467" lon="-1.8175967"><ele>153.0</ele><time>2026-05-02T13:07:11.405Z</time></trkpt><trkpt lat="54.5425683" lon="-1.818"><ele>152.0</ele><time>2026-05-02T13:07:12.405Z</time></trkpt><trkpt lat="54.5425883" lon="-1.8183967"><ele>152.0</ele><time>2026-05-02T13:07:13.406Z</time></trkpt><trkpt lat="54.5426133" lon="-1.8187967"><ele>152.0</ele><time>2026-05-02T13:07:14.407Z</time></trkpt><trkpt lat="54.5426367" lon="-1.8191983"><ele>153.0</ele><time>2026-05-02T13:07:15.404Z</time></trkpt><trkpt lat="54.5426633" lon="-1.8196067"><ele>154.0</ele><time>2026-05-02T13:07:16.402Z</time></trkpt><trkpt lat="54.5426817" lon="-1.82002"><ele>155.0</ele><time>2026-05-02T13:07:17.402Z</time></trkpt><trkpt lat="54.5427033" lon="-1.8204333"><ele>156.0</ele><time>2026-05-02T13:07:18.405Z</time></trkpt><trkpt lat="54.5427217" lon="-1.8208383"><ele>157.5</ele><time>2026-05-02T13:07:19.405Z</time></trkpt><trkpt lat="54.5427433" lon="-1.8212367"><ele>159.0</ele><time>2026-05-02T13:07:20.409Z</time></trkpt><trkpt lat="54.5427667" lon="-1.8216333"><ele>160.0</ele><time>2026-05-02T13:07:21.405Z</time></trkpt><trkpt lat="54.5427933" lon="-1.822025"><ele>161.0</ele><time>2026-05-02T13:07:22.403Z</time></trkpt><trkpt lat="54.542815" lon="-1.8224067"><ele>161.66666666666666</ele><time>2026-05-02T13:07:23.406Z</time></trkpt><trkpt lat="54.54284" lon="-1.8227867"><ele>162.33333333333334</ele><time>2026-05-02T13:07:24.402Z</time></trkpt><trkpt lat="54.54287" lon="-1.823165"><ele>163.0</ele><time>2026-05-02T13:07:25.407Z</time></trkpt><trkpt lat="54.5429" lon="-1.8235367"><ele>165.66666666666669</ele><time>2026-05-02T13:07:26.406Z</time></trkpt><trkpt lat="54.5429317" lon="-1.8239117"><ele>168.33333333333334</ele><time>2026-05-02T13:07:27.403Z</time></trkpt><trkpt lat="54.5429683" lon="-1.8242867"><ele>171.0</ele><time>2026-05-02T13:07:28.403Z</time></trkpt><trkpt lat="54.5430067" lon="-1.824665"><ele>171.0</ele><time>2026-05-02T13:07:29.402Z</time></trkpt><trkpt lat="54.543055" lon="-1.8250467"><ele>171.0</ele><time>2026-05-02T13:07:30.403Z</time></trkpt><trkpt lat="54.543105" lon="-1.8254317"><ele>169.5</ele><time>2026-05-02T13:07:31.402Z</time></trkpt><trkpt lat="54.54316" lon="-1.8258217"><ele>168.0</ele><time>2026-05-02T13:07:32.402Z</time></trkpt><trkpt lat="54.5432217" lon="-1.8262083"><ele>167.5</ele><time>2026-05-02T13:07:33.402Z</time></trkpt><trkpt lat="54.543295" lon="-1.8265933"><ele>167.0</ele><time>2026-05-02T13:07:34.402Z</time></trkpt><trkpt lat="54.5433667" lon="-1.8269733"><ele>167.0</ele><time>2026-05-02T13:07:35.405Z</time></trkpt><trkpt lat="54.5434483" lon="-1.82736"><ele>167.0</ele><time>2026-05-02T13:07:36.405Z</time></trkpt><trkpt lat="54.54353" lon="-1.8277467"><ele>167.0</ele><time>2026-05-02T13:07:37.407Z</time></trkpt><trkpt lat="54.543605" lon="-1.8281417"><ele>167.0</ele><time>2026-05-02T13:07:38.406Z</time></trkpt><trkpt lat="54.543685" lon="-1.828525"><ele>169.66666666666666</ele><time>2026-05-02T13:07:39.403Z</time></trkpt><trkpt lat="54.54376" lon="-1.8288883"><ele>172.33333333333334</ele><time>2026-05-02T13:07:40.403Z</time></trkpt><trkpt lat="54.5438267" lon="-1.8292217"><ele>175.0</ele><time>2026-05-02T13:07:41.406Z</time></trkpt><trkpt lat="54.5438883" lon="-1.8295383"><ele>175.0</ele><time>2026-05-02T13:07:42.405Z</time></trkpt><trkpt lat="54.5439483" lon="-1.8298567"><ele>175.0</ele><time>2026-05-02T13:07:43.403Z</time></trkpt><trkpt lat="54.5440133" lon="-1.830185"><ele>175.0</ele><time>2026-05-02T13:07:44.405Z</time></trkpt><trkpt lat="54.5440783" lon="-1.8305233"><ele>175.0</ele><time>2026-05-02T13:07:45.403Z</time></trkpt><trkpt lat="54.544145" lon="-1.8308717"><ele>175.0</ele><time>2026-05-02T13:07:46.405Z</time></trkpt><trkpt lat="54.54422" lon="-1.8312283"><ele>175.0</ele><time>2026-05-02T13:07:47.405Z</time></trkpt><trkpt lat="54.5442967" lon="-1.83159"><ele>174.5</ele><time>2026-05-02T13:07:48.406Z</time></trkpt><trkpt lat="54.54437" lon="-1.8319567"><ele>174.0</ele><time>2026-05-02T13:07:49.405Z</time></trkpt><trkpt lat="54.5444433" lon="-1.83233"><ele>174.0</ele><time>2026-05-02T13:07:50.405Z</time></trkpt><trkpt lat="54.544515" lon="-1.8327067"><ele>174.0</ele><time>2026-05-02T13:07:51.406Z</time></trkpt><trkpt lat="54.5445867" lon="-1.8330783"><ele>173.66666666666666</ele><time>2026-05-02T13:07:52.406Z</time></trkpt><trkpt lat="54.5446533" lon="-1.8334433"><ele>173.33333333333331</ele><time>2026-05-02T13:07:53.406Z</time></trkpt><trkpt lat="54.5447267" lon="-1.83381"><ele>173.0</ele><time>2026-05-02T13:07:54.406Z</time></trkpt><trkpt lat="54.5448" lon="-1.83418"><ele>173.5</ele><time>2026-05-02T13:07:55.405Z</time></trkpt><trkpt lat="54.544875" lon="-1.8345517"><ele>174.0</ele><time>2026-05-02T13:07:56.406Z</time></trkpt><trkpt lat="54.5449433" lon="-1.8349167"><ele>174.33333333333334</ele><time>2026-05-02T13:07:57.405Z</time></trkpt><trkpt lat="54.545005" lon="-1.8352517"><ele>174.66666666666669</ele><time>2026-05-02T13:07:58.406Z</time></trkpt><trkpt lat="54.5450583" lon="-1.835545"><ele>175.0</ele><time>2026-05-02T13:07:59.405Z</time></trkpt><trkpt lat="54.5451" lon="-1.8357783"><ele>175.0</ele><time>2026-05-02T13:08:00.405Z</time></trkpt><trkpt lat="54.5451317" lon="-1.8359517"><ele>175.0</ele><time>2026-05-02T13:08:01.403Z</time></trkpt><trkpt lat="54.5451567" lon="-1.83609"><ele>175.0</ele><time>2026-05-02T13:08:02.406Z</time></trkpt><trkpt lat="54.5452133" lon="-1.83621"><ele>175.0</ele><time>2026-05-02T13:08:04.405Z</time></trkpt><trkpt lat="54.5453483" lon="-1.8361517"><ele>175.0</ele><time>2026-05-02T13:08:06.402Z</time></trkpt><trkpt lat="54.54543" lon="-1.8361233"><ele>174.0</ele><time>2026-05-02T13:08:07.405Z</time></trkpt><trkpt lat="54.545535" lon="-1.8360867"><ele>173.0</ele><time>2026-05-02T13:08:08.403Z</time></trkpt><trkpt lat="54.5456867" lon="-1.83601"><ele>172.0</ele><time>2026-05-02T13:08:09.403Z</time></trkpt><trkpt lat="54.5458617" lon="-1.8359083"><ele>172.0</ele><time>2026-05-02T13:08:10.402Z</time></trkpt><trkpt lat="54.5460517" lon="-1.8357967"><ele>172.0</ele><time>2026-05-02T13:08:11.405Z</time></trkpt><trkpt lat="54.5462333" lon="-1.8356933"><ele>172.0</ele><time>2026-05-02T13:08:12.404Z</time></trkpt><trkpt lat="54.546405" lon="-1.835605"><ele>170.66666666666669</ele><time>2026-05-02T13:08:13.404Z</time></trkpt><trkpt lat="54.5465633" lon="-1.8355233"><ele>169.33333333333334</ele><time>2026-05-02T13:08:14.403Z</time></trkpt><trkpt lat="54.54672" lon="-1.835425"><ele>168.0</ele><time>2026-05-02T13:08:15.405Z</time></trkpt><trkpt lat="54.5468783" lon="-1.8353"><ele>168.0</ele><time>2026-05-02T13:08:16.404Z</time></trkpt><trkpt lat="54.547035" lon="-1.835145"><ele>168.0</ele><time>2026-05-02T13:08:17.403Z</time></trkpt><trkpt lat="54.54719" lon="-1.8349483"><ele>168.0</ele><time>2026-05-02T13:08:18.405Z</time></trkpt><trkpt lat="54.5473367" lon="-1.8347233"><ele>168.0</ele><time>2026-05-02T13:08:19.403Z</time></trkpt><trkpt lat="54.5474717" lon="-1.8344917"><ele>168.0</ele><time>2026-05-02T13:08:20.403Z</time></trkpt><trkpt lat="54.547595" lon="-1.834245"><ele>168.0</ele><time>2026-05-02T13:08:21.403Z</time></trkpt><trkpt lat="54.5476983" lon="-1.8339617"><ele>168.0</ele><time>2026-05-02T13:08:22.406Z</time></trkpt><trkpt lat="54.54778" lon="-1.8336617"><ele>168.0</ele><time>2026-05-02T13:08:23.409Z</time></trkpt><trkpt lat="54.5478483" lon="-1.8333267"><ele>168.0</ele><time>2026-05-02T13:08:24.403Z</time></trkpt><trkpt lat="54.54792" lon="-1.833"><ele>169.0</ele><time>2026-05-02T13:08:25.404Z</time></trkpt><trkpt lat="54.5479983" lon="-1.8326867"><ele>170.0</ele><time>2026-05-02T13:08:26.404Z</time></trkpt><trkpt lat="54.5480817" lon="-1.832365"><ele>171.0</ele><time>2026-05-02T13:08:27.403Z</time></trkpt><trkpt lat="54.54817" lon="-1.8320333"><ele>170.5</ele><time>2026-05-02T13:08:28.404Z</time></trkpt><trkpt lat="54.5482583" lon="-1.831685"><ele>170.0</ele><time>2026-05-02T13:08:29.404Z</time></trkpt><trkpt lat="54.5483533" lon="-1.831325"><ele>169.0</ele><time>2026-05-02T13:08:30.403Z</time></trkpt><trkpt lat="54.54845" lon="-1.83097"><ele>168.0</ele><time>2026-05-02T13:08:31.405Z</time></trkpt><trkpt lat="54.5485483" lon="-1.8306117"><ele>168.0</ele><time>2026-05-02T13:08:32.404Z</time></trkpt><trkpt lat="54.5486417" lon="-1.8302683"><ele>168.0</ele><time>2026-05-02T13:08:33.403Z</time></trkpt><trkpt lat="54.5487433" lon="-1.82995"><ele>168.0</ele><time>2026-05-02T13:08:34.409Z</time></trkpt><trkpt lat="54.548845" lon="-1.8296433"><ele>167.66666666666666</ele><time>2026-05-02T13:08:35.404Z</time></trkpt><trkpt lat="54.54895" lon="-1.8293417"><ele>167.33333333333331</ele><time>2026-05-02T13:08:36.403Z</time></trkpt><trkpt lat="54.5490617" lon="-1.829045"><ele>167.0</ele><time>2026-05-02T13:08:37.404Z</time></trkpt><trkpt lat="54.5491833" lon="-1.8287567"><ele>166.33333333333331</ele><time>2026-05-02T13:08:38.403Z</time></trkpt><trkpt lat="54.5493117" lon="-1.8284667"><ele>165.66666666666666</ele><time>2026-05-02T13:08:39.404Z</time></trkpt><trkpt lat="54.5494417" lon="-1.8281833"><ele>165.0</ele><time>2026-05-02T13:08:40.406Z</time></trkpt><trkpt lat="54.5495733" lon="-1.827915"><ele>163.66666666666666</ele><time>2026-05-02T13:08:41.404Z</time></trkpt><trkpt lat="54.5497" lon="-1.827665"><ele>162.33333333333331</ele><time>2026-05-02T13:08:42.404Z</time></trkpt><trkpt lat="54.5498183" lon="-1.8274317"><ele>161.0</ele><time>2026-05-02T13:08:43.403Z</time></trkpt><trkpt lat="54.5499217" lon="-1.8272083"><ele>160.75</ele><time>2026-05-02T13:08:44.406Z</time></trkpt><trkpt lat="54.55" lon="-1.8269833"><ele>160.5</ele><time>2026-05-02T13:08:45.403Z</time></trkpt><trkpt lat="54.5500533" lon="-1.8267517"><ele>160.25</ele><time>2026-05-02T13:08:46.403Z</time></trkpt><trkpt lat="54.550085" lon="-1.8264967"><ele>160.0</ele><time>2026-05-02T13:08:47.403Z</time></trkpt><trkpt lat="54.55008" lon="-1.826215"><ele>160.0</ele><time>2026-05-02T13:08:48.403Z</time></trkpt><trkpt lat="54.5500533" lon="-1.8259117"><ele>160.0</ele><time>2026-05-02T13:08:49.404Z</time></trkpt><trkpt lat="54.5500233" lon="-1.8255867"><ele>160.0</ele><time>2026-05-02T13:08:50.404Z</time></trkpt><trkpt lat="54.5499883" lon="-1.825245"><ele>160.33333333333334</ele><time>2026-05-02T13:08:51.403Z</time></trkpt><trkpt lat="54.5499533" lon="-1.82489"><ele>160.66666666666666</ele><time>2026-05-02T13:08:52.403Z</time></trkpt><trkpt lat="54.549915" lon="-1.8245183"><ele>161.0</ele><time>2026-05-02T13:08:53.404Z</time></trkpt><trkpt lat="54.5498783" lon="-1.8241383"><ele>161.5</ele><time>2026-05-02T13:08:54.403Z</time></trkpt><trkpt lat="54.5498383" lon="-1.8237533"><ele>162.0</ele><time>2026-05-02T13:08:55.403Z</time></trkpt><trkpt lat="54.5498067" lon="-1.8233667"><ele>162.0</ele><time>2026-05-02T13:08:56.404Z</time></trkpt><trkpt lat="54.5497767" lon="-1.8229683"><ele>162.0</ele><time>2026-05-02T13:08:57.404Z</time></trkpt><trkpt lat="54.54974" lon="-1.822555"><ele>162.0</ele><time>2026-05-02T13:08:58.405Z</time></trkpt><trkpt lat="54.5497167" lon="-1.8221383"><ele>162.0</ele><time>2026-05-02T13:08:59.405Z</time></trkpt><trkpt lat="54.5497" lon="-1.8217233"><ele>162.0</ele><time>2026-05-02T13:09:00.404Z</time></trkpt><trkpt lat="54.549685" lon="-1.821325"><ele>162.0</ele><time>2026-05-02T13:09:01.403Z</time></trkpt><trkpt lat="54.549685" lon="-1.82095"><ele>162.0</ele><time>2026-05-02T13:09:02.404Z</time></trkpt><trkpt lat="54.5497" lon="-1.8205867"><ele>161.0</ele><time>2026-05-02T13:09:03.404Z</time></trkpt><trkpt lat="54.5497383" lon="-1.820215"><ele>160.0</ele><time>2026-05-02T13:09:04.403Z</time></trkpt><trkpt lat="54.5497967" lon="-1.8198167"><ele>158.5</ele><time>2026-05-02T13:09:05.403Z</time></trkpt><trkpt lat="54.5498567" lon="-1.819405"><ele>157.0</ele><time>2026-05-02T13:09:06.404Z</time></trkpt><trkpt lat="54.5499183" lon="-1.8189883"><ele>155.5</ele><time>2026-05-02T13:09:07.403Z</time></trkpt><trkpt lat="54.5499783" lon="-1.8185667"><ele>154.0</ele><time>2026-05-02T13:09:08.404Z</time></trkpt><trkpt lat="54.5500367" lon="-1.8181433"><ele>153.0</ele><time>2026-05-02T13:09:09.405Z</time></trkpt><trkpt lat="54.5500967" lon="-1.8177183"><ele>152.0</ele><time>2026-05-02T13:09:10.403Z</time></trkpt><trkpt lat="54.5501583" lon="-1.8172917"><ele>151.5</ele><time>2026-05-02T13:09:11.404Z</time></trkpt><trkpt lat="54.55022" lon="-1.816875"><ele>151.0</ele><time>2026-05-02T13:09:12.404Z</time></trkpt><trkpt lat="54.5502767" lon="-1.8164733"><ele>151.0</ele><time>2026-05-02T13:09:13.405Z</time></trkpt><trkpt lat="54.5503367" lon="-1.816095"><ele>151.0</ele><time>2026-05-02T13:09:14.404Z</time></trkpt><trkpt lat="54.5503933" lon="-1.8157483"><ele>151.0</ele><time>2026-05-02T13:09:15.404Z</time></trkpt><trkpt lat="54.5504467" lon="-1.81544"><ele>150.25</ele><time>2026-05-02T13:09:16.405Z</time></trkpt><trkpt lat="54.55049" lon="-1.8151733"><ele>149.5</ele><time>2026-05-02T13:09:17.403Z</time></trkpt><trkpt lat="54.5505267" lon="-1.8149567"><ele>148.75</ele><time>2026-05-02T13:09:18.403Z</time></trkpt><trkpt lat="54.5505833" lon="-1.8147983"><ele>148.0</ele><time>2026-05-02T13:09:19.405Z</time></trkpt><trkpt lat="54.55065" lon="-1.814695"><ele>148.0</ele><time>2026-05-02T13:09:20.403Z</time></trkpt><trkpt lat="54.5507067" lon="-1.81463"><ele>148.0</ele><time>2026-05-02T13:09:21.403Z</time></trkpt><trkpt lat="54.5507883" lon="-1.8145967"><ele>148.0</ele><time>2026-05-02T13:09:23.405Z</time></trkpt><trkpt lat="54.550925" lon="-1.8146317"><ele>148.0</ele><time>2026-05-02T13:09:25.407Z</time></trkpt><trkpt lat="54.5510217" lon="-1.8146767"><ele>148.0</ele><time>2026-05-02T13:09:26.403Z</time></trkpt><trkpt lat="54.55116" lon="-1.8147317"><ele>146.66666666666669</ele><time>2026-05-02T13:09:27.402Z</time></trkpt><trkpt lat="54.5513183" lon="-1.8147883"><ele>145.33333333333334</ele><time>2026-05-02T13:09:28.402Z</time></trkpt><trkpt lat="54.5514833" lon="-1.81484"><ele>144.0</ele><time>2026-05-02T13:09:29.402Z</time></trkpt><trkpt lat="54.55166" lon="-1.8148933"><ele>144.0</ele><time>2026-05-02T13:09:30.403Z</time></trkpt><trkpt lat="54.5518367" lon="-1.8149483"><ele>144.0</ele><time>2026-05-02T13:09:31.404Z</time></trkpt><trkpt lat="54.5520133" lon="-1.8150017"><ele>144.0</ele><time>2026-05-02T13:09:32.403Z</time></trkpt><trkpt lat="54.5521883" lon="-1.8150533"><ele>141.66666666666666</ele><time>2026-05-02T13:09:33.402Z</time></trkpt><trkpt lat="54.5523667" lon="-1.8150933"><ele>139.33333333333331</ele><time>2026-05-02T13:09:34.403Z</time></trkpt><trkpt lat="54.5525433" lon="-1.8151067"><ele>137.0</ele><time>2026-05-02T13:09:35.408Z</time></trkpt><trkpt lat="54.5527317" lon="-1.8150967"><ele>135.66666666666666</ele><time>2026-05-02T13:09:36.402Z</time></trkpt><trkpt lat="54.55292" lon="-1.8150517"><ele>134.33333333333334</ele><time>2026-05-02T13:09:37.403Z</time></trkpt><trkpt lat="54.5531067" lon="-1.8149617"><ele>133.0</ele><time>2026-05-02T13:09:38.403Z</time></trkpt><trkpt lat="54.5532867" lon="-1.8148267"><ele>133.0</ele><time>2026-05-02T13:09:39.403Z</time></trkpt><trkpt lat="54.553455" lon="-1.8146717"><ele>133.0</ele><time>2026-05-02T13:09:40.404Z</time></trkpt><trkpt lat="54.553605" lon="-1.814505"><ele>133.0</ele><time>2026-05-02T13:09:41.404Z</time></trkpt><trkpt lat="54.5537367" lon="-1.814345"><ele>132.25</ele><time>2026-05-02T13:09:42.404Z</time></trkpt><trkpt lat="54.5538467" lon="-1.8141883"><ele>131.5</ele><time>2026-05-02T13:09:43.406Z</time></trkpt><trkpt lat="54.5539383" lon="-1.814025"><ele>130.75</ele><time>2026-05-02T13:09:44.404Z</time></trkpt><trkpt lat="54.55402" lon="-1.8138617"><ele>130.0</ele><time>2026-05-02T13:09:45.403Z</time></trkpt><trkpt lat="54.5541" lon="-1.8137017"><ele>130.0</ele><time>2026-05-02T13:09:46.404Z</time></trkpt><trkpt lat="54.5541733" lon="-1.8135483"><ele>130.0</ele><time>2026-05-02T13:09:47.404Z</time></trkpt><trkpt lat="54.5542483" lon="-1.813405"><ele>130.0</ele><time>2026-05-02T13:09:48.403Z</time></trkpt><trkpt lat="54.554325" lon="-1.8132567"><ele>130.0</ele><time>2026-05-02T13:09:49.403Z</time></trkpt><trkpt lat="54.5543917" lon="-1.8131067"><ele>129.75</ele><time>2026-05-02T13:09:50.404Z</time></trkpt><trkpt lat="54.5544583" lon="-1.8129483"><ele>129.5</ele><time>2026-05-02T13:09:51.405Z</time></trkpt><trkpt lat="54.5545167" lon="-1.8127833"><ele>129.25</ele><time>2026-05-02T13:09:52.404Z</time></trkpt><trkpt lat="54.5545717" lon="-1.81261"><ele>129.0</ele><time>2026-05-02T13:09:53.403Z</time></trkpt><trkpt lat="54.554625" lon="-1.8124433"><ele>129.0</ele><time>2026-05-02T13:09:54.403Z</time></trkpt><trkpt lat="54.554675" lon="-1.812265"><ele>129.0</ele><time>2026-05-02T13:09:55.403Z</time></trkpt><trkpt lat="54.5547183" lon="-1.8120733"><ele>129.0</ele><time>2026-05-02T13:09:56.403Z</time></trkpt><trkpt lat="54.5547533" lon="-1.811875"><ele>129.0</ele><time>2026-05-02T13:09:57.403Z</time></trkpt><trkpt lat="54.55478" lon="-1.8116783"><ele>129.25</ele><time>2026-05-02T13:09:58.403Z</time></trkpt><trkpt lat="54.5548033" lon="-1.811475"><ele>129.5</ele><time>2026-05-02T13:09:59.405Z</time></trkpt><trkpt lat="54.5548167" lon="-1.8112583"><ele>129.75</ele><time>2026-05-02T13:10:00.403Z</time></trkpt><trkpt lat="54.55483" lon="-1.8110483"><ele>130.0</ele><time>2026-05-02T13:10:01.403Z</time></trkpt><trkpt lat="54.554835" lon="-1.8108433"><ele>130.0</ele><time>2026-05-02T13:10:02.403Z</time></trkpt><trkpt lat="54.55483" lon="-1.8106383"><ele>130.0</ele><time>2026-05-02T13:10:03.404Z</time></trkpt><trkpt lat="54.5548233" lon="-1.81044"><ele>130.0</ele><time>2026-05-02T13:10:04.404Z</time></trkpt><trkpt lat="54.554825" lon="-1.8102567"><ele>130.0</ele><time>2026-05-02T13:10:05.404Z</time></trkpt><trkpt lat="54.55483" lon="-1.81008"><ele>130.0</ele><time>2026-05-02T13:10:06.404Z</time></trkpt><trkpt lat="54.5548433" lon="-1.8099167"><ele>130.2</ele><time>2026-05-02T13:10:07.403Z</time></trkpt><trkpt lat="54.554865" lon="-1.8097617"><ele>130.4</ele><time>2026-05-02T13:10:08.403Z</time></trkpt><trkpt lat="54.5548883" lon="-1.809605"><ele>130.6</ele><time>2026-05-02T13:10:09.403Z</time></trkpt><trkpt lat="54.55492" lon="-1.8094433"><ele>130.8</ele><time>2026-05-02T13:10:10.403Z</time></trkpt><trkpt lat="54.5549667" lon="-1.8092667"><ele>131.0</ele><time>2026-05-02T13:10:11.404Z</time></trkpt><trkpt lat="54.55502" lon="-1.809065"><ele>130.5</ele><time>2026-05-02T13:10:12.408Z</time></trkpt><trkpt lat="54.5550783" lon="-1.8088567"><ele>130.0</ele><time>2026-05-02T13:10:13.404Z</time></trkpt><trkpt lat="54.5551333" lon="-1.80866"><ele>129.5</ele><time>2026-05-02T13:10:14.407Z</time></trkpt><trkpt lat="54.5551833" lon="-1.80847"><ele>129.0</ele><time>2026-05-02T13:10:15.404Z</time></trkpt><trkpt lat="54.5552417" lon="-1.8082967"><ele>128.6</ele><time>2026-05-02T13:10:16.413Z</time></trkpt><trkpt lat="54.5553" lon="-1.8081317"><ele>128.2</ele><time>2026-05-02T13:10:17.411Z</time></trkpt><trkpt lat="54.5553617" lon="-1.8079817"><ele>127.79999999999998</ele><time>2026-05-02T13:10:18.404Z</time></trkpt><trkpt lat="54.55543" lon="-1.8078367"><ele>127.39999999999999</ele><time>2026-05-02T13:10:19.404Z</time></trkpt><trkpt lat="54.5555083" lon="-1.8077033"><ele>127.0</ele><time>2026-05-02T13:10:20.405Z</time></trkpt><trkpt lat="54.5555967" lon="-1.80759"><ele>126.0</ele><time>2026-05-02T13:10:21.404Z</time></trkpt><trkpt lat="54.5556867" lon="-1.8074983"><ele>125.0</ele><time>2026-05-02T13:10:22.404Z</time></trkpt><trkpt lat="54.5557917" lon="-1.8074267"><ele>124.0</ele><time>2026-05-02T13:10:23.403Z</time></trkpt><trkpt lat="54.5559117" lon="-1.807365"><ele>123.0</ele><time>2026-05-02T13:10:24.405Z</time></trkpt><trkpt lat="54.5560483" lon="-1.8073217"><ele>123.0</ele><time>2026-05-02T13:10:25.404Z</time></trkpt><trkpt lat="54.5561983" lon="-1.8072767"><ele>123.0</ele><time>2026-05-02T13:10:26.406Z</time></trkpt><trkpt lat="54.5563717" lon="-1.80723"><ele>123.0</ele><time>2026-05-02T13:10:27.405Z</time></trkpt><trkpt lat="54.5565483" lon="-1.8071967"><ele>121.66666666666666</ele><time>2026-05-02T13:10:28.404Z</time></trkpt><trkpt lat="54.5567267" lon="-1.80716"><ele>120.33333333333333</ele><time>2026-05-02T13:10:29.403Z</time></trkpt><trkpt lat="54.5569" lon="-1.80713"><ele>119.0</ele><time>2026-05-02T13:10:30.405Z</time></trkpt><trkpt lat="54.5570633" lon="-1.8071083"><ele>121.25</ele><time>2026-05-02T13:10:31.404Z</time></trkpt><trkpt lat="54.55721" lon="-1.8070633"><ele>123.5</ele><time>2026-05-02T13:10:32.403Z</time></trkpt><trkpt lat="54.5573583" lon="-1.8069917"><ele>125.75</ele><time>2026-05-02T13:10:33.404Z</time></trkpt><trkpt lat="54.5574867" lon="-1.806905"><ele>128.0</ele><time>2026-05-02T13:10:34.404Z</time></trkpt><trkpt lat="54.5576083" lon="-1.8067983"><ele>128.25</ele><time>2026-05-02T13:10:35.405Z</time></trkpt><trkpt lat="54.5577033" lon="-1.8066733"><ele>128.5</ele><time>2026-05-02T13:10:36.403Z</time></trkpt><trkpt lat="54.5577817" lon="-1.8064917"><ele>128.75</ele><time>2026-05-02T13:10:37.405Z</time></trkpt><trkpt lat="54.55785" lon="-1.80632"><ele>129.0</ele><time>2026-05-02T13:10:38.403Z</time></trkpt><trkpt lat="54.55792" lon="-1.8061533"><ele>129.75</ele><time>2026-05-02T13:10:39.405Z</time></trkpt><trkpt lat="54.557995" lon="-1.8060067"><ele>130.5</ele><time>2026-05-02T13:10:40.404Z</time></trkpt><trkpt lat="54.5580783" lon="-1.8058883"><ele>131.25</ele><time>2026-05-02T13:10:41.403Z</time></trkpt><trkpt lat="54.5581817" lon="-1.8058017"><ele>132.0</ele><time>2026-05-02T13:10:42.405Z</time></trkpt><trkpt lat="54.5582933" lon="-1.8057517"><ele>132.0</ele><time>2026-05-02T13:10:43.406Z</time></trkpt><trkpt lat="54.5584167" lon="-1.8057433"><ele>132.0</ele><time>2026-05-02T13:10:44.405Z</time></trkpt><trkpt lat="54.55854" lon="-1.8057667"><ele>132.0</ele><time>2026-05-02T13:10:45.404Z</time></trkpt><trkpt lat="54.5586583" lon="-1.80582"><ele>132.0</ele><time>2026-05-02T13:10:46.406Z</time></trkpt><trkpt lat="54.558775" lon="-1.805895"><ele>132.75</ele><time>2026-05-02T13:10:47.403Z</time></trkpt><trkpt lat="54.5588883" lon="-1.8059733"><ele>133.5</ele><time>2026-05-02T13:10:48.403Z</time></trkpt><trkpt lat="54.5590033" lon="-1.8060517"><ele>134.25</ele><time>2026-05-02T13:10:49.406Z</time></trkpt><trkpt lat="54.5591183" lon="-1.8061317"><ele>135.0</ele><time>2026-05-02T13:10:50.403Z</time></trkpt><trkpt lat="54.5592283" lon="-1.8062067"><ele>135.0</ele><time>2026-05-02T13:10:51.402Z</time></trkpt><trkpt lat="54.55933" lon="-1.8062717"><ele>135.0</ele><time>2026-05-02T13:10:52.405Z</time></trkpt><trkpt lat="54.5594267" lon="-1.8063317"><ele>135.0</ele><time>2026-05-02T13:10:53.402Z</time></trkpt><trkpt lat="54.55952" lon="-1.8063917"><ele>135.0</ele><time>2026-05-02T13:10:54.403Z</time></trkpt><trkpt lat="54.5596133" lon="-1.8064517"><ele>135.0</ele><time>2026-05-02T13:10:55.403Z</time></trkpt><trkpt lat="54.5597083" lon="-1.8065133"><ele>135.4</ele><time>2026-05-02T13:10:56.402Z</time></trkpt><trkpt lat="54.5598" lon="-1.8065717"><ele>135.8</ele><time>2026-05-02T13:10:57.402Z</time></trkpt><trkpt lat="54.5598933" lon="-1.8066183"><ele>136.2</ele><time>2026-05-02T13:10:58.402Z</time></trkpt><trkpt lat="54.5599933" lon="-1.80666"><ele>136.6</ele><time>2026-05-02T13:10:59.403Z</time></trkpt><trkpt lat="54.5600867" lon="-1.8067033"><ele>137.0</ele><time>2026-05-02T13:11:00.404Z</time></trkpt><trkpt lat="54.5601783" lon="-1.8067517"><ele>137.0</ele><time>2026-05-02T13:11:01.402Z</time></trkpt><trkpt lat="54.56027" lon="-1.8068033"><ele>137.0</ele><time>2026-05-02T13:11:02.404Z</time></trkpt><trkpt lat="54.5603633" lon="-1.8068467"><ele>137.0</ele><time>2026-05-02T13:11:03.402Z</time></trkpt><trkpt lat="54.5604567" lon="-1.8068867"><ele>137.0</ele><time>2026-05-02T13:11:04.403Z</time></trkpt><trkpt lat="54.56055" lon="-1.8069233"><ele>137.0</ele><time>2026-05-02T13:11:05.402Z</time></trkpt><trkpt lat="54.5606433" lon="-1.8069583"><ele>137.6</ele><time>2026-05-02T13:11:06.403Z</time></trkpt><trkpt lat="54.5607383" lon="-1.8069967"><ele>138.2</ele><time>2026-05-02T13:11:07.402Z</time></trkpt><trkpt lat="54.5608367" lon="-1.8070283"><ele>138.8</ele><time>2026-05-02T13:11:08.402Z</time></trkpt><trkpt lat="54.5609383" lon="-1.807065"><ele>139.4</ele><time>2026-05-02T13:11:09.404Z</time></trkpt><trkpt lat="54.561045" lon="-1.8071033"><ele>140.0</ele><time>2026-05-02T13:11:10.402Z</time></trkpt><trkpt lat="54.5611517" lon="-1.8071367"><ele>139.75</ele><time>2026-05-02T13:11:11.407Z</time></trkpt><trkpt lat="54.5612583" lon="-1.807165"><ele>139.5</ele><time>2026-05-02T13:11:12.407Z</time></trkpt><trkpt lat="54.5613683" lon="-1.8071917"><ele>139.25</ele><time>2026-05-02T13:11:13.404Z</time></trkpt><trkpt lat="54.5614933" lon="-1.8072233"><ele>139.0</ele><time>2026-05-02T13:11:14.403Z</time></trkpt><trkpt lat="54.561635" lon="-1.8072633"><ele>139.0</ele><time>2026-05-02T13:11:15.403Z</time></trkpt><trkpt lat="54.5618" lon="-1.8073117"><ele>139.0</ele><time>2026-05-02T13:11:16.402Z</time></trkpt><trkpt lat="54.561975" lon="-1.8073583"><ele>139.0</ele><time>2026-05-02T13:11:17.404Z</time></trkpt><trkpt lat="54.5621583" lon="-1.80741"><ele>139.0</ele><time>2026-05-02T13:11:18.405Z</time></trkpt><trkpt lat="54.56235" lon="-1.8074567"><ele>139.0</ele><time>2026-05-02T13:11:19.406Z</time></trkpt><trkpt lat="54.5625517" lon="-1.8075017"><ele>139.0</ele><time>2026-05-02T13:11:20.405Z</time></trkpt><trkpt lat="54.56275" lon="-1.8075483"><ele>138.66666666666669</ele><time>2026-05-02T13:11:21.405Z</time></trkpt><trkpt lat="54.56294" lon="-1.8075883"><ele>138.33333333333334</ele><time>2026-05-02T13:11:22.403Z</time></trkpt><trkpt lat="54.563125" lon="-1.8076283"><ele>138.0</ele><time>2026-05-02T13:11:23.407Z</time></trkpt><trkpt lat="54.56331" lon="-1.8076717"><ele>138.0</ele><time>2026-05-02T13:11:24.403Z</time></trkpt><trkpt lat="54.5635" lon="-1.80773"><ele>138.0</ele><time>2026-05-02T13:11:25.405Z</time></trkpt><trkpt lat="54.5636967" lon="-1.8077983"><ele>138.0</ele><time>2026-05-02T13:11:26.403Z</time></trkpt><trkpt lat="54.5639" lon="-1.8078867"><ele>136.66666666666666</ele><time>2026-05-02T13:11:27.403Z</time></trkpt><trkpt lat="54.5641017" lon="-1.80799"><ele>135.33333333333331</ele><time>2026-05-02T13:11:28.405Z</time></trkpt><trkpt lat="54.5643067" lon="-1.8080883"><ele>134.0</ele><time>2026-05-02T13:11:29.406Z</time></trkpt><trkpt lat="54.5645133" lon="-1.8081917"><ele>133.33333333333331</ele><time>2026-05-02T13:11:30.402Z</time></trkpt><trkpt lat="54.5647217" lon="-1.808285"><ele>132.66666666666666</ele><time>2026-05-02T13:11:31.406Z</time></trkpt><trkpt lat="54.564935" lon="-1.8083633"><ele>132.0</ele><time>2026-05-02T13:11:32.405Z</time></trkpt><trkpt lat="54.5651483" lon="-1.8084233"><ele>132.0</ele><time>2026-05-02T13:11:33.406Z</time></trkpt><trkpt lat="54.565355" lon="-1.8084833"><ele>132.0</ele><time>2026-05-02T13:11:34.403Z</time></trkpt><trkpt lat="54.5655583" lon="-1.8085333"><ele>132.0</ele><time>2026-05-02T13:11:35.406Z</time></trkpt><trkpt lat="54.5657517" lon="-1.8085983"><ele>131.0</ele><time>2026-05-02T13:11:36.406Z</time></trkpt><trkpt lat="54.5659333" lon="-1.8086783"><ele>130.0</ele><time>2026-05-02T13:11:37.405Z</time></trkpt><trkpt lat="54.5661" lon="-1.80876"><ele>129.0</ele><time>2026-05-02T13:11:38.406Z</time></trkpt><trkpt lat="54.56625" lon="-1.8088433"><ele>128.25</ele><time>2026-05-02T13:11:39.407Z</time></trkpt><trkpt lat="54.56638" lon="-1.8089233"><ele>127.5</ele><time>2026-05-02T13:11:40.403Z</time></trkpt><trkpt lat="54.5664967" lon="-1.8089883"><ele>126.75</ele><time>2026-05-02T13:11:41.407Z</time></trkpt><trkpt lat="54.5666067" lon="-1.809015"><ele>126.0</ele><time>2026-05-02T13:11:42.406Z</time></trkpt><trkpt lat="54.5667167" lon="-1.80899"><ele>126.0</ele><time>2026-05-02T13:11:43.406Z</time></trkpt><trkpt lat="54.566825" lon="-1.8089133"><ele>126.0</ele><time>2026-05-02T13:11:44.402Z</time></trkpt><trkpt lat="54.56693" lon="-1.8087817"><ele>126.0</ele><time>2026-05-02T13:11:45.407Z</time></trkpt><trkpt lat="54.5670317" lon="-1.808655"><ele>126.0</ele><time>2026-05-02T13:11:46.402Z</time></trkpt><trkpt lat="54.5671533" lon="-1.8085783"><ele>126.0</ele><time>2026-05-02T13:11:47.406Z</time></trkpt><trkpt lat="54.5672983" lon="-1.80854"><ele>126.0</ele><time>2026-05-02T13:11:48.406Z</time></trkpt><trkpt lat="54.56746" lon="-1.808545"><ele>126.0</ele><time>2026-05-02T13:11:49.406Z</time></trkpt><trkpt lat="54.5676283" lon="-1.80856"><ele>126.0</ele><time>2026-05-02T13:11:50.403Z</time></trkpt><trkpt lat="54.5677983" lon="-1.808575"><ele>126.0</ele><time>2026-05-02T13:11:51.402Z</time></trkpt><trkpt lat="54.5679617" lon="-1.808595"><ele>126.0</ele><time>2026-05-02T13:11:52.402Z</time></trkpt><trkpt lat="54.5681167" lon="-1.8086133"><ele>125.75</ele><time>2026-05-02T13:11:53.403Z</time></trkpt><trkpt lat="54.5682633" lon="-1.808635"><ele>125.5</ele><time>2026-05-02T13:11:54.403Z</time></trkpt><trkpt lat="54.568405" lon="-1.8086633"><ele>125.25</ele><time>2026-05-02T13:11:55.402Z</time></trkpt><trkpt lat="54.5685333" lon="-1.8086867"><ele>125.0</ele><time>2026-05-02T13:11:56.403Z</time></trkpt><trkpt lat="54.568655" lon="-1.808715"><ele>124.75</ele><time>2026-05-02T13:11:57.406Z</time></trkpt><trkpt lat="54.5687667" lon="-1.8087533"><ele>124.5</ele><time>2026-05-02T13:11:58.406Z</time></trkpt><trkpt lat="54.5688783" lon="-1.808795"><ele>124.25</ele><time>2026-05-02T13:11:59.405Z</time></trkpt><trkpt lat="54.5689983" lon="-1.8088267"><ele>124.0</ele><time>2026-05-02T13:12:00.403Z</time></trkpt><trkpt lat="54.5691333" lon="-1.808835"><ele>124.0</ele><time>2026-05-02T13:12:01.404Z</time></trkpt><trkpt lat="54.56928" lon="-1.8088083"><ele>124.0</ele><time>2026-05-02T13:12:02.403Z</time></trkpt><trkpt lat="54.569435" lon="-1.8087433"><ele>124.0</ele><time>2026-05-02T13:12:03.405Z</time></trkpt><trkpt lat="54.5695933" lon="-1.8086217"><ele>123.33333333333334</ele><time>2026-05-02T13:12:04.404Z</time></trkpt><trkpt lat="54.5697533" lon="-1.8084533"><ele>122.66666666666666</ele><time>2026-05-02T13:12:05.404Z</time></trkpt><trkpt lat="54.56992" lon="-1.808285"><ele>122.0</ele><time>2026-05-02T13:12:06.403Z</time></trkpt><trkpt lat="54.570095" lon="-1.8081133"><ele>122.0</ele><time>2026-05-02T13:12:07.403Z</time></trkpt><trkpt lat="54.5702583" lon="-1.8079683"><ele>122.0</ele><time>2026-05-02T13:12:08.407Z</time></trkpt><trkpt lat="54.57041" lon="-1.8078483"><ele>122.0</ele><time>2026-05-02T13:12:09.408Z</time></trkpt><trkpt lat="54.57055" lon="-1.8077767"><ele>122.0</ele><time>2026-05-02T13:12:10.405Z</time></trkpt><trkpt lat="54.5706933" lon="-1.8077617"><ele>122.0</ele><time>2026-05-02T13:12:11.408Z</time></trkpt><trkpt lat="54.57085" lon="-1.807825"><ele>122.0</ele><time>2026-05-02T13:12:12.407Z</time></trkpt><trkpt lat="54.5710167" lon="-1.8079133"><ele>122.0</ele><time>2026-05-02T13:12:13.403Z</time></trkpt><trkpt lat="54.5711867" lon="-1.8080067"><ele>122.0</ele><time>2026-05-02T13:12:14.405Z</time></trkpt><trkpt lat="54.5713617" lon="-1.8081"><ele>122.0</ele><time>2026-05-02T13:12:15.404Z</time></trkpt><trkpt lat="54.5715483" lon="-1.8081917"><ele>122.33333333333333</ele><time>2026-05-02T13:12:16.404Z</time></trkpt><trkpt lat="54.5717367" lon="-1.8082833"><ele>122.66666666666666</ele><time>2026-05-02T13:12:17.405Z</time></trkpt><trkpt lat="54.571925" lon="-1.808375"><ele>123.0</ele><time>2026-05-02T13:12:18.405Z</time></trkpt><trkpt lat="54.5721167" lon="-1.8084633"><ele>121.33333333333334</ele><time>2026-05-02T13:12:19.403Z</time></trkpt><trkpt lat="54.5723117" lon="-1.8085483"><ele>119.66666666666667</ele><time>2026-05-02T13:12:20.403Z</time></trkpt><trkpt lat="54.5725033" lon="-1.8086317"><ele>118.0</ele><time>2026-05-02T13:12:21.404Z</time></trkpt><trkpt lat="54.5726833" lon="-1.8087183"><ele>116.0</ele><time>2026-05-02T13:12:22.405Z</time></trkpt><trkpt lat="54.5728667" lon="-1.8088033"><ele>114.0</ele><time>2026-05-02T13:12:23.405Z</time></trkpt><trkpt lat="54.5730517" lon="-1.8088983"><ele>112.0</ele><time>2026-05-02T13:12:24.404Z</time></trkpt><trkpt lat="54.573235" lon="-1.8090183"><ele>112.0</ele><time>2026-05-02T13:12:25.404Z</time></trkpt><trkpt lat="54.5734083" lon="-1.8091483"><ele>112.0</ele><time>2026-05-02T13:12:26.403Z</time></trkpt><trkpt lat="54.5735683" lon="-1.8092783"><ele>112.0</ele><time>2026-05-02T13:12:27.404Z</time></trkpt><trkpt lat="54.5737333" lon="-1.8094183"><ele>112.0</ele><time>2026-05-02T13:12:28.408Z</time></trkpt><trkpt lat="54.5739083" lon="-1.8095633"><ele>112.0</ele><time>2026-05-02T13:12:29.404Z</time></trkpt><trkpt lat="54.5740933" lon="-1.809705"><ele>112.0</ele><time>2026-05-02T13:12:30.405Z</time></trkpt><trkpt lat="54.5742883" lon="-1.8098333"><ele>112.0</ele><time>2026-05-02T13:12:31.408Z</time></trkpt><trkpt lat="54.5744883" lon="-1.8099483"><ele>112.0</ele><time>2026-05-02T13:12:32.403Z</time></trkpt><trkpt lat="54.5746883" lon="-1.8100567"><ele>112.0</ele><time>2026-05-02T13:12:33.407Z</time></trkpt><trkpt lat="54.5748867" lon="-1.810155"><ele>112.0</ele><time>2026-05-02T13:12:34.403Z</time></trkpt><trkpt lat="54.57508" lon="-1.810245"><ele>112.0</ele><time>2026-05-02T13:12:35.403Z</time></trkpt><trkpt lat="54.5752683" lon="-1.810325"><ele>112.0</ele><time>2026-05-02T13:12:36.403Z</time></trkpt><trkpt lat="54.5754533" lon="-1.8103983"><ele>112.33333333333334</ele><time>2026-05-02T13:12:37.403Z</time></trkpt><trkpt lat="54.575635" lon="-1.810455"><ele>112.66666666666666</ele><time>2026-05-02T13:12:38.403Z</time></trkpt><trkpt lat="54.5758117" lon="-1.810495"><ele>113.0</ele><time>2026-05-02T13:12:39.402Z</time></trkpt><trkpt lat="54.57598" lon="-1.8105183"><ele>113.0</ele><time>2026-05-02T13:12:40.403Z</time></trkpt><trkpt lat="54.5761333" lon="-1.8105317"><ele>113.0</ele><time>2026-05-02T13:12:41.403Z</time></trkpt><trkpt lat="54.5762617" lon="-1.810545"><ele>113.0</ele><time>2026-05-02T13:12:42.403Z</time></trkpt><trkpt lat="54.5763783" lon="-1.8105667"><ele>113.0</ele><time>2026-05-02T13:12:43.403Z</time></trkpt><trkpt lat="54.5764783" lon="-1.810605"><ele>113.2</ele><time>2026-05-02T13:12:44.403Z</time></trkpt><trkpt lat="54.5765767" lon="-1.8106533"><ele>113.4</ele><time>2026-05-02T13:12:45.402Z</time></trkpt><trkpt lat="54.5766767" lon="-1.8107033"><ele>113.60000000000001</ele><time>2026-05-02T13:12:46.403Z</time></trkpt><trkpt lat="54.5767833" lon="-1.8107617"><ele>113.80000000000001</ele><time>2026-05-02T13:12:47.403Z</time></trkpt><trkpt lat="54.576885" lon="-1.81083"><ele>114.0</ele><time>2026-05-02T13:12:48.404Z</time></trkpt><trkpt lat="54.5769867" lon="-1.8109083"><ele>114.0</ele><time>2026-05-02T13:12:49.407Z</time></trkpt><trkpt lat="54.5770967" lon="-1.8109867"><ele>114.0</ele><time>2026-05-02T13:12:50.403Z</time></trkpt><trkpt lat="54.5772033" lon="-1.81105"><ele>114.0</ele><time>2026-05-02T13:12:51.404Z</time></trkpt><trkpt lat="54.5773133" lon="-1.8111083"><ele>114.0</ele><time>2026-05-02T13:12:52.403Z</time></trkpt><trkpt lat="54.5774233" lon="-1.8111667"><ele>114.0</ele><time>2026-05-02T13:12:53.402Z</time></trkpt><trkpt lat="54.5775333" lon="-1.8112233"><ele>114.0</ele><time>2026-05-02T13:12:54.403Z</time></trkpt><trkpt lat="54.5776467" lon="-1.8112767"><ele>114.0</ele><time>2026-05-02T13:12:55.403Z</time></trkpt><trkpt lat="54.57776" lon="-1.8113333"><ele>114.0</ele><time>2026-05-02T13:12:56.403Z</time></trkpt><trkpt lat="54.5778733" lon="-1.8113883"><ele>114.0</ele><time>2026-05-02T13:12:57.402Z</time></trkpt><trkpt lat="54.5779867" lon="-1.8114467"><ele>114.0</ele><time>2026-05-02T13:12:58.406Z</time></trkpt><trkpt lat="54.5780967" lon="-1.811515"><ele>114.0</ele><time>2026-05-02T13:12:59.404Z</time></trkpt><trkpt lat="54.5782033" lon="-1.8115783"><ele>114.0</ele><time>2026-05-02T13:13:00.403Z</time></trkpt><trkpt lat="54.5782917" lon="-1.8116217"><ele>114.0</ele><time>2026-05-02T13:13:01.406Z</time></trkpt><trkpt lat="54.5783617" lon="-1.811655"><ele>114.0</ele><time>2026-05-02T13:13:02.403Z</time></trkpt><trkpt lat="54.5784383" lon="-1.8117033"><ele>114.0</ele><time>2026-05-02T13:13:04.406Z</time></trkpt><trkpt lat="54.5785517" lon="-1.8116783"><ele>114.0</ele><time>2026-05-02T13:13:07.403Z</time></trkpt><trkpt lat="54.578655" lon="-1.811565"><ele>114.0</ele><time>2026-05-02T13:13:09.404Z</time></trkpt><trkpt lat="54.5787067" lon="-1.8114883"><ele>114.0</ele><time>2026-05-02T13:13:10.402Z</time></trkpt><trkpt lat="54.5787533" lon="-1.8114133"><ele>114.0</ele><time>2026-05-02T13:13:11.402Z</time></trkpt><trkpt lat="54.5788317" lon="-1.811295"><ele>114.0</ele><time>2026-05-02T13:13:13.405Z</time></trkpt><trkpt lat="54.5789033" lon="-1.811305"><ele>114.0</ele><time>2026-05-02T13:13:16.403Z</time></trkpt><trkpt lat="54.5789017" lon="-1.8114183"><ele>114.0</ele><time>2026-05-02T13:13:18.409Z</time></trkpt><trkpt lat="54.57885" lon="-1.811625"><ele>114.0</ele><time>2026-05-02T13:13:20.404Z</time></trkpt><trkpt lat="54.5788183" lon="-1.8117617"><ele>114.0</ele><time>2026-05-02T13:13:21.402Z</time></trkpt><trkpt lat="54.578785" lon="-1.8119067"><ele>114.0</ele><time>2026-05-02T13:13:22.405Z</time></trkpt><trkpt lat="54.585025" lon="-1.8531367"><ele>131.33333333333334</ele><time>2026-05-02T13:15:51.403Z</time></trkpt><trkpt lat="54.58509" lon="-1.8534367"><ele>148.66666666666669</ele><time>2026-05-02T13:15:52.406Z</time></trkpt><trkpt lat="54.58515" lon="-1.85373"><ele>166.0</ele><time>2026-05-02T13:15:53.409Z</time></trkpt><trkpt lat="54.5852717" lon="-1.854585"><ele>167.0</ele><time>2026-05-02T13:15:55.863Z</time></trkpt><trkpt lat="54.5853383" lon="-1.8549133"><ele>168.0</ele><time>2026-05-02T13:15:56.91Z</time></trkpt><trkpt lat="54.58546" lon="-1.85546"><ele>168.5</ele><time>2026-05-02T13:15:58.409Z</time></trkpt><trkpt lat="54.5855467" lon="-1.85584"><ele>169.0</ele><time>2026-05-02T13:15:59.403Z</time></trkpt><trkpt lat="54.5856333" lon="-1.856215"><ele>169.5</ele><time>2026-05-02T13:16:00.404Z</time></trkpt><trkpt lat="54.5857167" lon="-1.8565767"><ele>170.0</ele><time>2026-05-02T13:16:01.404Z</time></trkpt><trkpt lat="54.5858" lon="-1.856945"><ele>170.5</ele><time>2026-05-02T13:16:02.404Z</time></trkpt><trkpt lat="54.5858833" lon="-1.8573233"><ele>171.0</ele><time>2026-05-02T13:16:03.402Z</time></trkpt><trkpt lat="54.5859683" lon="-1.85771"><ele>172.0</ele><time>2026-05-02T13:16:04.406Z</time></trkpt><trkpt lat="54.586055" lon="-1.8581083"><ele>173.0</ele><time>2026-05-02T13:16:05.405Z</time></trkpt><trkpt lat="54.5861433" lon="-1.858515"><ele>172.5</ele><time>2026-05-02T13:16:06.406Z</time></trkpt><trkpt lat="54.58623" lon="-1.8589183"><ele>172.0</ele><time>2026-05-02T13:16:07.404Z</time></trkpt><trkpt lat="54.5863233" lon="-1.85932"><ele>173.0</ele><time>2026-05-02T13:16:08.403Z</time></trkpt><trkpt lat="54.586415" lon="-1.8597217"><ele>174.0</ele><time>2026-05-02T13:16:09.404Z</time></trkpt><trkpt lat="54.5865083" lon="-1.8601233"><ele>174.5</ele><time>2026-05-02T13:16:10.403Z</time></trkpt><trkpt lat="54.5865983" lon="-1.8605267"><ele>175.0</ele><time>2026-05-02T13:16:11.405Z</time></trkpt><trkpt lat="54.5866917" lon="-1.8609417"><ele>174.5</ele><time>2026-05-02T13:16:12.403Z</time></trkpt><trkpt lat="54.586785" lon="-1.8613517"><ele>174.0</ele><time>2026-05-02T13:16:13.404Z</time></trkpt><trkpt lat="54.5868783" lon="-1.8617633"><ele>174.5</ele><time>2026-05-02T13:16:14.403Z</time></trkpt><trkpt lat="54.5869683" lon="-1.8621617"><ele>175.0</ele><time>2026-05-02T13:16:15.403Z</time></trkpt><trkpt lat="54.5870517" lon="-1.8625417"><ele>176.5</ele><time>2026-05-02T13:16:16.407Z</time></trkpt><trkpt lat="54.587135" lon="-1.8629183"><ele>178.0</ele><time>2026-05-02T13:16:17.403Z</time></trkpt><trkpt lat="54.58722" lon="-1.863305"><ele>178.0</ele><time>2026-05-02T13:16:18.407Z</time></trkpt><trkpt lat="54.5873083" lon="-1.863705"><ele>178.0</ele><time>2026-05-02T13:16:19.402Z</time></trkpt><trkpt lat="54.5874" lon="-1.8641067"><ele>178.0</ele><time>2026-05-02T13:16:20.405Z</time></trkpt><trkpt lat="54.587495" lon="-1.86452"><ele>178.0</ele><time>2026-05-02T13:16:21.407Z</time></trkpt><trkpt lat="54.5875883" lon="-1.8649383"><ele>177.5</ele><time>2026-05-02T13:16:22.403Z</time></trkpt><trkpt lat="54.5876833" lon="-1.8653633"><ele>177.0</ele><time>2026-05-02T13:16:23.404Z</time></trkpt><trkpt lat="54.58778" lon="-1.8657967"><ele>178.0</ele><time>2026-05-02T13:16:24.404Z</time></trkpt><trkpt lat="54.587875" lon="-1.866235"><ele>179.0</ele><time>2026-05-02T13:16:25.405Z</time></trkpt><trkpt lat="54.587975" lon="-1.8666733"><ele>178.5</ele><time>2026-05-02T13:16:26.403Z</time></trkpt><trkpt lat="54.588075" lon="-1.8671117"><ele>178.0</ele><time>2026-05-02T13:16:27.402Z</time></trkpt><trkpt lat="54.588175" lon="-1.86755"><ele>178.0</ele><time>2026-05-02T13:16:28.403Z</time></trkpt><trkpt lat="54.588275" lon="-1.8679917"><ele>178.0</ele><time>2026-05-02T13:16:29.402Z</time></trkpt><trkpt lat="54.5883767" lon="-1.8684317"><ele>179.0</ele><time>2026-05-02T13:16:30.403Z</time></trkpt><trkpt lat="54.5884767" lon="-1.86887"><ele>180.0</ele><time>2026-05-02T13:16:31.404Z</time></trkpt><trkpt lat="54.58858" lon="-1.8693"><ele>179.0</ele><time>2026-05-02T13:16:32.402Z</time></trkpt><trkpt lat="54.58868" lon="-1.8697233"><ele>178.0</ele><time>2026-05-02T13:16:33.402Z</time></trkpt><trkpt lat="54.58878" lon="-1.870145"><ele>178.0</ele><time>2026-05-02T13:16:34.403Z</time></trkpt><trkpt lat="54.5888783" lon="-1.8705733"><ele>178.0</ele><time>2026-05-02T13:16:35.403Z</time></trkpt><trkpt lat="54.5889767" lon="-1.871005"><ele>178.5</ele><time>2026-05-02T13:16:36.403Z</time></trkpt><trkpt lat="54.5890733" lon="-1.87144"><ele>179.0</ele><time>2026-05-02T13:16:37.403Z</time></trkpt><trkpt lat="54.58917" lon="-1.8718783"><ele>179.5</ele><time>2026-05-02T13:16:38.403Z</time></trkpt><trkpt lat="54.5892683" lon="-1.872315"><ele>180.0</ele><time>2026-05-02T13:16:39.404Z</time></trkpt><trkpt lat="54.5893683" lon="-1.872755"><ele>181.5</ele><time>2026-05-02T13:16:40.403Z</time></trkpt><trkpt lat="54.58946" lon="-1.8732017"><ele>183.0</ele><time>2026-05-02T13:16:41.402Z</time></trkpt><trkpt lat="54.58954" lon="-1.8736567"><ele>184.5</ele><time>2026-05-02T13:16:42.405Z</time></trkpt><trkpt lat="54.5896033" lon="-1.8741167"><ele>186.0</ele><time>2026-05-02T13:16:43.402Z</time></trkpt><trkpt lat="54.5896567" lon="-1.8745617"><ele>186.5</ele><time>2026-05-02T13:16:44.402Z</time></trkpt><trkpt lat="54.5897083" lon="-1.875"><ele>187.0</ele><time>2026-05-02T13:16:45.404Z</time></trkpt><trkpt lat="54.5897583" lon="-1.8754283"><ele>188.0</ele><time>2026-05-02T13:16:46.403Z</time></trkpt><trkpt lat="54.589805" lon="-1.8758267"><ele>189.0</ele><time>2026-05-02T13:16:47.404Z</time></trkpt><trkpt lat="54.5898533" lon="-1.87621"><ele>191.0</ele><time>2026-05-02T13:16:48.402Z</time></trkpt><trkpt lat="54.5899083" lon="-1.8765967"><ele>193.0</ele><time>2026-05-02T13:16:49.402Z</time></trkpt><trkpt lat="54.5899667" lon="-1.8769883"><ele>193.0</ele><time>2026-05-02T13:16:50.404Z</time></trkpt><trkpt lat="54.5900317" lon="-1.8773867"><ele>193.0</ele><time>2026-05-02T13:16:51.403Z</time></trkpt><trkpt lat="54.5901" lon="-1.8777967"><ele>193.0</ele><time>2026-05-02T13:16:52.403Z</time></trkpt><trkpt lat="54.5901717" lon="-1.8782183"><ele>193.0</ele><time>2026-05-02T13:16:53.402Z</time></trkpt><trkpt lat="54.5902467" lon="-1.8786533"><ele>193.5</ele><time>2026-05-02T13:16:54.404Z</time></trkpt><trkpt lat="54.5903215" lon="-1.8791016"><ele>194.0</ele><time>2026-05-02T13:16:55.403Z</time></trkpt><trkpt lat="54.5903848" lon="-1.8795592"><ele>194.0</ele><time>2026-05-02T13:16:56.404Z</time></trkpt><trkpt lat="54.5904416" lon="-1.8800243"><ele>194.0</ele><time>2026-05-02T13:16:57.402Z</time></trkpt><trkpt lat="54.590506" lon="-1.8804867"><ele>195.5</ele><time>2026-05-02T13:16:58.405Z</time></trkpt><trkpt lat="54.5905774" lon="-1.8809396"><ele>197.0</ele><time>2026-05-02T13:16:59.406Z</time></trkpt><trkpt lat="54.5906518" lon="-1.8813958"><ele>198.0</ele><time>2026-05-02T13:17:00.403Z</time></trkpt><trkpt lat="54.5907277" lon="-1.8818503"><ele>199.0</ele><time>2026-05-02T13:17:01.403Z</time></trkpt><trkpt lat="54.5907981" lon="-1.882297"><ele>199.5</ele><time>2026-05-02T13:17:02.404Z</time></trkpt><trkpt lat="54.5908658" lon="-1.8827268"><ele>200.0</ele><time>2026-05-02T13:17:03.404Z</time></trkpt><trkpt lat="54.5909331" lon="-1.8831372"><ele>201.5</ele><time>2026-05-02T13:17:04.404Z</time></trkpt><trkpt lat="54.5909965" lon="-1.8835331"><ele>203.0</ele><time>2026-05-02T13:17:05.403Z</time></trkpt><trkpt lat="54.5910588" lon="-1.8839385"><ele>203.5</ele><time>2026-05-02T13:17:06.403Z</time></trkpt><trkpt lat="54.591117" lon="-1.8843439"><ele>204.0</ele><time>2026-05-02T13:17:07.402Z</time></trkpt><trkpt lat="54.5911738" lon="-1.8847298"><ele>205.0</ele><time>2026-05-02T13:17:08.403Z</time></trkpt><trkpt lat="54.5912306" lon="-1.8851022"><ele>206.0</ele><time>2026-05-02T13:17:09.408Z</time></trkpt><trkpt lat="54.5912884" lon="-1.8854773"><ele>207.0</ele><time>2026-05-02T13:17:10.403Z</time></trkpt><trkpt lat="54.5913458" lon="-1.8858658"><ele>208.5</ele><time>2026-05-02T13:17:11.404Z</time></trkpt><trkpt lat="54.5913981" lon="-1.886272"><ele>210.0</ele><time>2026-05-02T13:17:12.404Z</time></trkpt><trkpt lat="54.5914379" lon="-1.8866926"><ele>210.5</ele><time>2026-05-02T13:17:13.403Z</time></trkpt><trkpt lat="54.5914661" lon="-1.8871264"><ele>211.0</ele><time>2026-05-02T13:17:14.403Z</time></trkpt><trkpt lat="54.591489" lon="-1.8875655"><ele>212.0</ele><time>2026-05-02T13:17:15.402Z</time></trkpt><trkpt lat="54.5915091" lon="-1.8880025"><ele>213.0</ele><time>2026-05-02T13:17:16.407Z</time></trkpt><trkpt lat="54.5915302" lon="-1.8884376"><ele>214.5</ele><time>2026-05-02T13:17:17.403Z</time></trkpt><trkpt lat="54.5915528" lon="-1.8888779"><ele>216.0</ele><time>2026-05-02T13:17:18.402Z</time></trkpt><trkpt lat="54.591576" lon="-1.8893243"><ele>216.5</ele><time>2026-05-02T13:17:19.402Z</time></trkpt><trkpt lat="54.5916005" lon="-1.8897752"><ele>217.0</ele><time>2026-05-02T13:17:20.403Z</time></trkpt><trkpt lat="54.5916235" lon="-1.8902297"><ele>217.5</ele><time>2026-05-02T13:17:21.403Z</time></trkpt><trkpt lat="54.5916496" lon="-1.8906914"><ele>218.0</ele><time>2026-05-02T13:17:22.402Z</time></trkpt><trkpt lat="54.5916759" lon="-1.8911622"><ele>218.5</ele><time>2026-05-02T13:17:23.402Z</time></trkpt><trkpt lat="54.5917009" lon="-1.8916417"><ele>219.0</ele><time>2026-05-02T13:17:24.403Z</time></trkpt><trkpt lat="54.5917277" lon="-1.8921218"><ele>219.5</ele><time>2026-05-02T13:17:25.404Z</time></trkpt><trkpt lat="54.5917551" lon="-1.8925979"><ele>220.0</ele><time>2026-05-02T13:17:26.403Z</time></trkpt><trkpt lat="54.5917821" lon="-1.8930774"><ele>220.5</ele><time>2026-05-02T13:17:27.406Z</time></trkpt><trkpt lat="54.5918075" lon="-1.8935627"><ele>221.0</ele><time>2026-05-02T13:17:28.403Z</time></trkpt><trkpt lat="54.5918306" lon="-1.8940509"><ele>222.0</ele><time>2026-05-02T13:17:29.405Z</time></trkpt><trkpt lat="54.5918534" lon="-1.8945383"><ele>223.0</ele><time>2026-05-02T13:17:30.406Z</time></trkpt><trkpt lat="54.5918736" lon="-1.8950207"><ele>223.5</ele><time>2026-05-02T13:17:31.403Z</time></trkpt><trkpt lat="54.591899" lon="-1.8955003"><ele>224.0</ele><time>2026-05-02T13:17:32.403Z</time></trkpt><trkpt lat="54.5919267" lon="-1.8959752"><ele>225.0</ele><time>2026-05-02T13:17:33.402Z</time></trkpt><trkpt lat="54.5919523" lon="-1.8964448"><ele>226.0</ele><time>2026-05-02T13:17:34.403Z</time></trkpt><trkpt lat="54.5919753" lon="-1.896911"><ele>227.0</ele><time>2026-05-02T13:17:35.402Z</time></trkpt><trkpt lat="54.5919995" lon="-1.8973782"><ele>228.0</ele><time>2026-05-02T13:17:36.404Z</time></trkpt><trkpt lat="54.5920229" lon="-1.897842"><ele>228.5</ele><time>2026-05-02T13:17:37.405Z</time></trkpt><trkpt lat="54.5920477" lon="-1.8983038"><ele>229.0</ele><time>2026-05-02T13:17:38.406Z</time></trkpt><trkpt lat="54.6242403" lon="-2.083295"><ele>231.5</ele><time>2026-05-02T13:28:43.403Z</time></trkpt><trkpt lat="54.6245135" lon="-2.083406"><ele>234.0</ele><time>2026-05-02T13:28:47.404Z</time></trkpt><trkpt lat="54.624689" lon="-2.0834805"><ele>234.0</ele><time>2026-05-02T13:28:49.402Z</time></trkpt><trkpt lat="54.6247765" lon="-2.0835207"><ele>233.99999999999997</ele><time>2026-05-02T13:28:50.408Z</time></trkpt><trkpt lat="54.624867" lon="-2.0835585"><ele>233.99999999999997</ele><time>2026-05-02T13:28:51.402Z</time></trkpt><trkpt lat="54.6249581" lon="-2.0835867"><ele>234.0</ele><time>2026-05-02T13:28:52.404Z</time></trkpt><trkpt lat="54.6250514" lon="-2.0836069"><ele>234.0</ele><time>2026-05-02T13:28:53.404Z</time></trkpt><trkpt lat="54.6251563" lon="-2.0836288"><ele>234.0</ele><time>2026-05-02T13:28:54.405Z</time></trkpt><trkpt lat="54.625262" lon="-2.0836497"><ele>234.0</ele><time>2026-05-02T13:28:55.404Z</time></trkpt><trkpt lat="54.6254697" lon="-2.0836741"><ele>234.0</ele><time>2026-05-02T13:28:57.409Z</time></trkpt><trkpt lat="54.6255661" lon="-2.0836919"><ele>234.0</ele><time>2026-05-02T13:28:58.406Z</time></trkpt><trkpt lat="54.6256638" lon="-2.0837129"><ele>234.66666666666666</ele><time>2026-05-02T13:28:59.406Z</time></trkpt><trkpt lat="54.6257567" lon="-2.0837313"><ele>235.33333333333331</ele><time>2026-05-02T13:29:00.403Z</time></trkpt><trkpt lat="54.6258429" lon="-2.0837465"><ele>236.0</ele><time>2026-05-02T13:29:01.403Z</time></trkpt><trkpt lat="54.6259209" lon="-2.0837599"><ele>236.66666666666666</ele><time>2026-05-02T13:29:02.404Z</time></trkpt><trkpt lat="54.6259927" lon="-2.0837722"><ele>237.33333333333331</ele><time>2026-05-02T13:29:03.405Z</time></trkpt><trkpt lat="54.6260632" lon="-2.0837932"><ele>238.0</ele><time>2026-05-02T13:29:04.404Z</time></trkpt><trkpt lat="54.6261259" lon="-2.083832"><ele>237.60000000000002</ele><time>2026-05-02T13:29:05.404Z</time></trkpt><trkpt lat="54.6261805" lon="-2.0838883"><ele>237.20000000000002</ele><time>2026-05-02T13:29:06.404Z</time></trkpt><trkpt lat="54.6262354" lon="-2.0840343"><ele>236.8</ele><time>2026-05-02T13:29:08.408Z</time></trkpt><trkpt lat="54.6261784" lon="-2.0842263"><ele>236.4</ele><time>2026-05-02T13:29:10.405Z</time></trkpt><trkpt lat="54.62611" lon="-2.0843307"><ele>236.0</ele><time>2026-05-02T13:29:11.403Z</time></trkpt><trkpt lat="54.6260292" lon="-2.084435"><ele>235.4</ele><time>2026-05-02T13:29:12.404Z</time></trkpt><trkpt lat="54.6259427" lon="-2.084534"><ele>234.8</ele><time>2026-05-02T13:29:13.403Z</time></trkpt><trkpt lat="54.6258513" lon="-2.0846351"><ele>234.20000000000002</ele><time>2026-05-02T13:29:14.405Z</time></trkpt><trkpt lat="54.6257615" lon="-2.0847428"><ele>233.60000000000002</ele><time>2026-05-02T13:29:15.409Z</time></trkpt><trkpt lat="54.6256773" lon="-2.0848597"><ele>233.0</ele><time>2026-05-02T13:29:16.403Z</time></trkpt><trkpt lat="54.6256076" lon="-2.0849835"><ele>233.0</ele><time>2026-05-02T13:29:17.404Z</time></trkpt><trkpt lat="54.6255482" lon="-2.0851086"><ele>233.0</ele><time>2026-05-02T13:29:18.404Z</time></trkpt><trkpt lat="54.6255028" lon="-2.0852421"><ele>233.0</ele><time>2026-05-02T13:29:19.406Z</time></trkpt><trkpt lat="54.6254705" lon="-2.0853888"><ele>233.0</ele><time>2026-05-02T13:29:20.403Z</time></trkpt><trkpt lat="54.6254652" lon="-2.0855577"><ele>233.0</ele><time>2026-05-02T13:29:21.404Z</time></trkpt><trkpt lat="54.6254776" lon="-2.0857517"><ele>234.25</ele><time>2026-05-02T13:29:22.403Z</time></trkpt><trkpt lat="54.6255056" lon="-2.0859816"><ele>235.5</ele><time>2026-05-02T13:29:23.404Z</time></trkpt><trkpt lat="54.6255372" lon="-2.0862034"><ele>236.75</ele><time>2026-05-02T13:29:24.406Z</time></trkpt><trkpt lat="54.6255707" lon="-2.0864306"><ele>238.0</ele><time>2026-05-02T13:29:25.403Z</time></trkpt><trkpt lat="54.6256012" lon="-2.0866471"><ele>238.0</ele><time>2026-05-02T13:29:26.403Z</time></trkpt><trkpt lat="54.6256278" lon="-2.0868487"><ele>238.0</ele><time>2026-05-02T13:29:27.404Z</time></trkpt><trkpt lat="54.6256613" lon="-2.0870334"><ele>238.0</ele><time>2026-05-02T13:29:28.403Z</time></trkpt><trkpt lat="54.6256892" lon="-2.0872093"><ele>238.0</ele><time>2026-05-02T13:29:29.405Z</time></trkpt><trkpt lat="54.6257165" lon="-2.0873836"><ele>238.0</ele><time>2026-05-02T13:29:30.409Z</time></trkpt><trkpt lat="54.6257419" lon="-2.0875486"><ele>237.8</ele><time>2026-05-02T13:29:31.404Z</time></trkpt><trkpt lat="54.6257652" lon="-2.0876873"><ele>237.60000000000002</ele><time>2026-05-02T13:29:32.404Z</time></trkpt><trkpt lat="54.6257826" lon="-2.0877937"><ele>237.39999999999998</ele><time>2026-05-02T13:29:33.403Z</time></trkpt><trkpt lat="54.6258124" lon="-2.087917"><ele>237.2</ele><time>2026-05-02T13:29:36.404Z</time></trkpt><trkpt lat="54.62585" lon="-2.0880626"><ele>237.0</ele><time>2026-05-02T13:29:39.403Z</time></trkpt><trkpt lat="54.6258915" lon="-2.0882812"><ele>236.75</ele><time>2026-05-02T13:29:41.405Z</time></trkpt><trkpt lat="54.6259242" lon="-2.0884369"><ele>236.5</ele><time>2026-05-02T13:29:42.403Z</time></trkpt><trkpt lat="54.6259594" lon="-2.0886641"><ele>236.25</ele><time>2026-05-02T13:29:43.404Z</time></trkpt><trkpt lat="54.6259882" lon="-2.0889389"><ele>236.0</ele><time>2026-05-02T13:29:44.406Z</time></trkpt><trkpt lat="54.6260128" lon="-2.0892585"><ele>236.0</ele><time>2026-05-02T13:29:45.406Z</time></trkpt><trkpt lat="54.6260377" lon="-2.089605"><ele>236.0</ele><time>2026-05-02T13:29:46.402Z</time></trkpt><trkpt lat="54.6260625" lon="-2.0899529"><ele>236.0</ele><time>2026-05-02T13:29:47.403Z</time></trkpt><trkpt lat="54.6260806" lon="-2.0902838"><ele>236.66666666666669</ele><time>2026-05-02T13:29:48.406Z</time></trkpt><trkpt lat="54.6260941" lon="-2.0906082"><ele>237.33333333333331</ele><time>2026-05-02T13:29:49.402Z</time></trkpt><trkpt lat="54.6261005" lon="-2.0909441"><ele>238.0</ele><time>2026-05-02T13:29:50.403Z</time></trkpt><trkpt lat="54.626097" lon="-2.0913087"><ele>238.5</ele><time>2026-05-02T13:29:51.405Z</time></trkpt><trkpt lat="54.6260825" lon="-2.0920699"><ele>239.0</ele><time>2026-05-02T13:29:53.404Z</time></trkpt><trkpt lat="54.6260603" lon="-2.0927654"><ele>239.5</ele><time>2026-05-02T13:29:55.403Z</time></trkpt><trkpt lat="54.6260502" lon="-2.0934377"><ele>240.0</ele><time>2026-05-02T13:29:57.402Z</time></trkpt><trkpt lat="54.6260932" lon="-2.0941367"><ele>246.0</ele><time>2026-05-02T13:29:59.404Z</time></trkpt><trkpt lat="54.6262154" lon="-2.0948336"><ele>252.0</ele><time>2026-05-02T13:30:01.404Z</time></trkpt><trkpt lat="54.6263631" lon="-2.095501"><ele>251.5</ele><time>2026-05-02T13:30:03.404Z</time></trkpt><trkpt lat="54.6265219" lon="-2.0961541"><ele>251.0</ele><time>2026-05-02T13:30:05.403Z</time></trkpt><trkpt lat="54.626717" lon="-2.0968363"><ele>244.0</ele><time>2026-05-02T13:30:07.403Z</time></trkpt><trkpt lat="54.6269506" lon="-2.0975321"><ele>254.0</ele><time>2026-05-02T13:30:09.403Z</time></trkpt><trkpt lat="54.6272008" lon="-2.098232"><ele>250.0</ele><time>2026-05-02T13:30:11.406Z</time></trkpt><trkpt lat="54.6274519" lon="-2.0989529"><ele>246.0</ele><time>2026-05-02T13:30:13.406Z</time></trkpt><trkpt lat="54.6277084" lon="-2.0996551"><ele>253.0</ele><time>2026-05-02T13:30:15.407Z</time></trkpt><trkpt lat="54.6279676" lon="-2.1003427"><ele>248.0</ele><time>2026-05-02T13:30:17.404Z</time></trkpt><trkpt lat="54.6282407" lon="-2.1010024"><ele>243.0</ele><time>2026-05-02T13:30:19.403Z</time></trkpt><trkpt lat="54.6285048" lon="-2.1016397"><ele>246.0</ele><time>2026-05-02T13:30:21.403Z</time></trkpt><trkpt lat="54.6287382" lon="-2.1022332"><ele>249.0</ele><time>2026-05-02T13:30:23.405Z</time></trkpt><trkpt lat="54.6289833" lon="-2.1027967"><ele>245.5</ele><time>2026-05-02T13:30:25.404Z</time></trkpt><trkpt lat="54.6292483" lon="-2.10335"><ele>242.0</ele><time>2026-05-02T13:30:27.404Z</time></trkpt><trkpt lat="54.6295" lon="-2.103905"><ele>240.5</ele><time>2026-05-02T13:30:29.404Z</time></trkpt><trkpt lat="54.6297433" lon="-2.1044233"><ele>239.0</ele><time>2026-05-02T13:30:31.404Z</time></trkpt><trkpt lat="54.629965" lon="-2.1049533"><ele>239.0</ele><time>2026-05-02T13:30:33.404Z</time></trkpt><trkpt lat="54.6302017" lon="-2.1054933"><ele>239.0</ele><time>2026-05-02T13:30:35.404Z</time></trkpt><trkpt lat="54.6305117" lon="-2.10599"><ele>245.0</ele><time>2026-05-02T13:30:37.403Z</time></trkpt><trkpt lat="54.6308383" lon="-2.1064933"><ele>251.0</ele><time>2026-05-02T13:30:39.403Z</time></trkpt><trkpt lat="54.6311667" lon="-2.1070267"><ele>253.0</ele><time>2026-05-02T13:30:41.405Z</time></trkpt><trkpt lat="54.6314917" lon="-2.10758"><ele>253.0</ele><time>2026-05-02T13:30:43.406Z</time></trkpt><trkpt lat="54.6318183" lon="-2.1081617"><ele>258.0</ele><time>2026-05-02T13:30:45.405Z</time></trkpt><trkpt lat="54.6321283" lon="-2.1087817"><ele>253.0</ele><time>2026-05-02T13:30:47.405Z</time></trkpt><trkpt lat="54.63241" lon="-2.10943"><ele>247.0</ele><time>2026-05-02T13:30:49.405Z</time></trkpt><trkpt lat="54.6326583" lon="-2.1101267"><ele>250.0</ele><time>2026-05-02T13:30:51.402Z</time></trkpt><trkpt lat="54.6328833" lon="-2.1107783"><ele>253.0</ele><time>2026-05-02T13:30:53.405Z</time></trkpt><trkpt lat="54.6330917" lon="-2.1113417"><ele>249.5</ele><time>2026-05-02T13:30:55.403Z</time></trkpt><trkpt lat="54.633305" lon="-2.111815"><ele>246.0</ele><time>2026-05-02T13:30:57.402Z</time></trkpt><trkpt lat="54.6335817" lon="-2.11221"><ele>247.5</ele><time>2026-05-02T13:30:59.404Z</time></trkpt><trkpt lat="54.6339" lon="-2.1125667"><ele>249.0</ele><time>2026-05-02T13:31:01.402Z</time></trkpt><trkpt lat="54.6341633" lon="-2.112985"><ele>245.5</ele><time>2026-05-02T13:31:03.402Z</time></trkpt><trkpt lat="54.6344083" lon="-2.11348"><ele>242.0</ele><time>2026-05-02T13:31:05.403Z</time></trkpt><trkpt lat="54.634605" lon="-2.1139883"><ele>243.5</ele><time>2026-05-02T13:31:07.405Z</time></trkpt><trkpt lat="54.63473" lon="-2.114565"><ele>245.0</ele><time>2026-05-02T13:31:09.402Z</time></trkpt><trkpt lat="54.6347867" lon="-2.1152267"><ele>243.5</ele><time>2026-05-02T13:31:11.403Z</time></trkpt><trkpt lat="54.6348033" lon="-2.1159267"><ele>242.0</ele><time>2026-05-02T13:31:13.403Z</time></trkpt><trkpt lat="54.634875" lon="-2.11659"><ele>241.0</ele><time>2026-05-02T13:31:15.405Z</time></trkpt><trkpt lat="54.63502" lon="-2.1172383"><ele>240.0</ele><time>2026-05-02T13:31:17.405Z</time></trkpt><trkpt lat="54.635195" lon="-2.1178483"><ele>243.0</ele><time>2026-05-02T13:31:19.407Z</time></trkpt><trkpt lat="54.6353683" lon="-2.118405"><ele>246.0</ele><time>2026-05-02T13:31:21.402Z</time></trkpt><trkpt lat="54.6354767" lon="-2.1186767"><ele>246.0</ele><time>2026-05-02T13:31:22.403Z</time></trkpt><trkpt lat="54.635605" lon="-2.1189467"><ele>246.0</ele><time>2026-05-02T13:31:23.406Z</time></trkpt><trkpt lat="54.635885" lon="-2.1195017"><ele>247.0</ele><time>2026-05-02T13:31:25.403Z</time></trkpt><trkpt lat="54.63613" lon="-2.1200767"><ele>248.0</ele><time>2026-05-02T13:31:27.404Z</time></trkpt><trkpt lat="54.636325" lon="-2.1206933"><ele>246.5</ele><time>2026-05-02T13:31:29.404Z</time></trkpt><trkpt lat="54.6364683" lon="-2.1213283"><ele>245.0</ele><time>2026-05-02T13:31:31.404Z</time></trkpt><trkpt lat="54.63661" lon="-2.1219283"><ele>244.0</ele><time>2026-05-02T13:31:33.403Z</time></trkpt><trkpt lat="54.636795" lon="-2.1225017"><ele>243.0</ele><time>2026-05-02T13:31:35.403Z</time></trkpt><trkpt lat="54.6368967" lon="-2.1227617"><ele>244.5</ele><time>2026-05-02T13:31:36.403Z</time></trkpt><trkpt lat="54.637095" lon="-2.1232567"><ele>246.0</ele><time>2026-05-02T13:31:38.405Z</time></trkpt><trkpt lat="54.6372033" lon="-2.123495"><ele>246.0</ele><time>2026-05-02T13:31:39.404Z</time></trkpt><trkpt lat="54.6374483" lon="-2.1239483"><ele>246.0</ele><time>2026-05-02T13:31:41.405Z</time></trkpt><trkpt lat="54.6377233" lon="-2.12435"><ele>247.5</ele><time>2026-05-02T13:31:43.406Z</time></trkpt><trkpt lat="54.6380033" lon="-2.12474"><ele>249.0</ele><time>2026-05-02T13:31:45.403Z</time></trkpt><trkpt lat="54.63827" lon="-2.12517"><ele>249.0</ele><time>2026-05-02T13:31:47.404Z</time></trkpt><trkpt lat="54.638525" lon="-2.1256433"><ele>249.0</ele><time>2026-05-02T13:31:49.404Z</time></trkpt><trkpt lat="54.6387367" lon="-2.1260917"><ele>249.5</ele><time>2026-05-02T13:31:51.402Z</time></trkpt><trkpt lat="54.63895" lon="-2.126535"><ele>250.0</ele><time>2026-05-02T13:31:53.403Z</time></trkpt><trkpt lat="54.63917" lon="-2.1270067"><ele>249.0</ele><time>2026-05-02T13:31:55.405Z</time></trkpt><trkpt lat="54.6393767" lon="-2.1275033"><ele>248.0</ele><time>2026-05-02T13:31:57.402Z</time></trkpt><trkpt lat="54.6395517" lon="-2.1280083"><ele>251.5</ele><time>2026-05-02T13:31:59.406Z</time></trkpt><trkpt lat="54.6397317" lon="-2.1284917"><ele>255.0</ele><time>2026-05-02T13:32:01.403Z</time></trkpt><trkpt lat="54.63995" lon="-2.128925"><ele>253.5</ele><time>2026-05-02T13:32:03.403Z</time></trkpt><trkpt lat="54.6401583" lon="-2.1293283"><ele>252.0</ele><time>2026-05-02T13:32:05.402Z</time></trkpt><trkpt lat="54.6403533" lon="-2.1296917"><ele>253.5</ele><time>2026-05-02T13:32:07.402Z</time></trkpt><trkpt lat="54.6405783" lon="-2.1300183"><ele>255.0</ele><time>2026-05-02T13:32:09.403Z</time></trkpt><trkpt lat="54.6408267" lon="-2.1302933"><ele>255.0</ele><time>2026-05-02T13:32:11.407Z</time></trkpt><trkpt lat="54.6410917" lon="-2.130575"><ele>255.0</ele><time>2026-05-02T13:32:13.406Z</time></trkpt><trkpt lat="54.6413633" lon="-2.1307667"><ele>256.0</ele><time>2026-05-02T13:32:15.406Z</time></trkpt><trkpt lat="54.6416433" lon="-2.130925"><ele>257.0</ele><time>2026-05-02T13:32:17.407Z</time></trkpt><trkpt lat="54.6419183" lon="-2.1311017"><ele>258.0</ele><time>2026-05-02T13:32:19.402Z</time></trkpt><trkpt lat="54.6422033" lon="-2.1313683"><ele>259.0</ele><time>2026-05-02T13:32:21.403Z</time></trkpt><trkpt lat="54.6424267" lon="-2.1318"><ele>259.0</ele><time>2026-05-02T13:32:23.406Z</time></trkpt><trkpt lat="54.6425217" lon="-2.1320383"><ele>259.0</ele><time>2026-05-02T13:32:24.402Z</time></trkpt><trkpt lat="54.6426933" lon="-2.132465"><ele>261.0</ele><time>2026-05-02T13:32:26.405Z</time></trkpt><trkpt lat="54.6428517" lon="-2.1328367"><ele>263.0</ele><time>2026-05-02T13:32:28.405Z</time></trkpt><trkpt lat="54.6429967" lon="-2.1332083"><ele>262.5</ele><time>2026-05-02T13:32:30.403Z</time></trkpt><trkpt lat="54.64311" lon="-2.1336667"><ele>262.0</ele><time>2026-05-02T13:32:32.404Z</time></trkpt><trkpt lat="54.64322" lon="-2.134155"><ele>261.5</ele><time>2026-05-02T13:32:34.404Z</time></trkpt><trkpt lat="54.643375" lon="-2.1346517"><ele>261.0</ele><time>2026-05-02T13:32:36.403Z</time></trkpt><trkpt lat="54.64357" lon="-2.135105"><ele>264.0</ele><time>2026-05-02T13:32:38.405Z</time></trkpt><trkpt lat="54.6437783" lon="-2.13553"><ele>267.0</ele><time>2026-05-02T13:32:40.403Z</time></trkpt><trkpt lat="54.64399" lon="-2.1359517"><ele>267.0</ele><time>2026-05-02T13:32:42.406Z</time></trkpt><trkpt lat="54.6441783" lon="-2.1363817"><ele>267.0</ele><time>2026-05-02T13:32:44.403Z</time></trkpt><trkpt lat="54.6443717" lon="-2.136825"><ele>267.0</ele><time>2026-05-02T13:32:46.402Z</time></trkpt><trkpt lat="54.6446083" lon="-2.13725"><ele>267.0</ele><time>2026-05-02T13:32:48.403Z</time></trkpt><trkpt lat="54.644875" lon="-2.13771"><ele>267.0</ele><time>2026-05-02T13:32:50.405Z</time></trkpt><trkpt lat="54.64515" lon="-2.138215"><ele>267.0</ele><time>2026-05-02T13:32:52.403Z</time></trkpt><trkpt lat="54.6452867" lon="-2.1384933"><ele>268.0</ele><time>2026-05-02T13:32:53.403Z</time></trkpt><trkpt lat="54.6455767" lon="-2.1391283"><ele>268.0</ele><time>2026-05-02T13:32:55.404Z</time></trkpt><trkpt lat="54.64586" lon="-2.1398317"><ele>268.5</ele><time>2026-05-02T13:32:57.404Z</time></trkpt><trkpt lat="54.6460067" lon="-2.140175"><ele>269.0</ele><time>2026-05-02T13:32:58.407Z</time></trkpt><trkpt lat="54.6461533" lon="-2.1405067"><ele>270.5</ele><time>2026-05-02T13:32:59.405Z</time></trkpt><trkpt lat="54.6464217" lon="-2.1411183"><ele>272.0</ele><time>2026-05-02T13:33:01.409Z</time></trkpt><trkpt lat="54.6466483" lon="-2.1416733"><ele>272.0</ele><time>2026-05-02T13:33:03.408Z</time></trkpt><trkpt lat="54.6468317" lon="-2.1422683"><ele>272.0</ele><time>2026-05-02T13:33:05.404Z</time></trkpt><trkpt lat="54.6469767" lon="-2.1429117"><ele>274.0</ele><time>2026-05-02T13:33:07.404Z</time></trkpt><trkpt lat="54.6471017" lon="-2.14349"><ele>276.0</ele><time>2026-05-02T13:33:09.403Z</time></trkpt><trkpt lat="54.64722" lon="-2.1440467"><ele>276.0</ele><time>2026-05-02T13:33:11.404Z</time></trkpt><trkpt lat="54.6473317" lon="-2.14461"><ele>276.0</ele><time>2026-05-02T13:33:13.405Z</time></trkpt><trkpt lat="54.6474383" lon="-2.1451867"><ele>275.5</ele><time>2026-05-02T13:33:15.404Z</time></trkpt><trkpt lat="54.64755" lon="-2.1457767"><ele>275.0</ele><time>2026-05-02T13:33:17.405Z</time></trkpt><trkpt lat="54.6476633" lon="-2.146365"><ele>275.0</ele><time>2026-05-02T13:33:19.405Z</time></trkpt><trkpt lat="54.6477833" lon="-2.1469533"><ele>275.0</ele><time>2026-05-02T13:33:21.406Z</time></trkpt><trkpt lat="54.64789" lon="-2.1475567"><ele>275.5</ele><time>2026-05-02T13:33:23.406Z</time></trkpt><trkpt lat="54.6479283" lon="-2.1478733"><ele>276.0</ele><time>2026-05-02T13:33:24.407Z</time></trkpt><trkpt lat="54.6479783" lon="-2.148525"><ele>276.0</ele><time>2026-05-02T13:33:26.406Z</time></trkpt><trkpt lat="54.6479733" lon="-2.1491683"><ele>276.0</ele><time>2026-05-02T13:33:28.402Z</time></trkpt><trkpt lat="54.6479417" lon="-2.1497383"><ele>277.5</ele><time>2026-05-02T13:33:30.404Z</time></trkpt><trkpt lat="54.6479117" lon="-2.15025"><ele>279.0</ele><time>2026-05-02T13:33:32.403Z</time></trkpt><trkpt lat="54.6478867" lon="-2.1506767"><ele>279.6666666666667</ele><time>2026-05-02T13:33:34.403Z</time></trkpt><trkpt lat="54.6479033" lon="-2.1510183"><ele>280.33333333333337</ele><time>2026-05-02T13:33:36.403Z</time></trkpt><trkpt lat="54.6479533" lon="-2.1512983"><ele>281.0</ele><time>2026-05-02T13:33:38.404Z</time></trkpt><trkpt lat="54.6480217" lon="-2.151525"><ele>280.6666666666667</ele><time>2026-05-02T13:33:40.404Z</time></trkpt><trkpt lat="54.6480683" lon="-2.1516483"><ele>280.3333333333333</ele><time>2026-05-02T13:33:41.408Z</time></trkpt><trkpt lat="54.64819" lon="-2.1519183"><ele>280.0</ele><time>2026-05-02T13:33:43.403Z</time></trkpt><trkpt lat="54.6483133" lon="-2.152235"><ele>278.0</ele><time>2026-05-02T13:33:45.404Z</time></trkpt><trkpt lat="54.6484417" lon="-2.1525717"><ele>276.0</ele><time>2026-05-02T13:33:47.406Z</time></trkpt><trkpt lat="54.6485683" lon="-2.1529117"><ele>281.0</ele><time>2026-05-02T13:33:49.406Z</time></trkpt><trkpt lat="54.6487167" lon="-2.1532667"><ele>286.0</ele><time>2026-05-02T13:33:51.405Z</time></trkpt><trkpt lat="54.64888" lon="-2.1535933"><ele>286.0</ele><time>2026-05-02T13:33:53.404Z</time></trkpt><trkpt lat="54.64906" lon="-2.153925"><ele>286.0</ele><time>2026-05-02T13:33:55.407Z</time></trkpt><trkpt lat="54.64923" lon="-2.1542917"><ele>283.5</ele><time>2026-05-02T13:33:57.403Z</time></trkpt><trkpt lat="54.6493683" lon="-2.15471"><ele>281.0</ele><time>2026-05-02T13:33:59.404Z</time></trkpt><trkpt lat="54.6494533" lon="-2.1552683"><ele>283.0</ele><time>2026-05-02T13:34:01.403Z</time></trkpt><trkpt lat="54.6494833" lon="-2.15595"><ele>285.0</ele><time>2026-05-02T13:34:03.403Z</time></trkpt><trkpt lat="54.6495017" lon="-2.1566117"><ele>286.5</ele><time>2026-05-02T13:34:05.404Z</time></trkpt><trkpt lat="54.649505" lon="-2.1572367"><ele>288.0</ele><time>2026-05-02T13:34:07.403Z</time></trkpt><trkpt lat="54.6494883" lon="-2.1577933"><ele>288.5</ele><time>2026-05-02T13:34:09.403Z</time></trkpt><trkpt lat="54.6494883" lon="-2.1583633"><ele>289.0</ele><time>2026-05-02T13:34:11.404Z</time></trkpt><trkpt lat="54.64956" lon="-2.15899"><ele>288.5</ele><time>2026-05-02T13:34:13.406Z</time></trkpt><trkpt lat="54.649645" lon="-2.159625"><ele>288.0</ele><time>2026-05-02T13:34:15.403Z</time></trkpt><trkpt lat="54.6497183" lon="-2.16023"><ele>287.0</ele><time>2026-05-02T13:34:17.403Z</time></trkpt><trkpt lat="54.6498" lon="-2.1608217"><ele>286.0</ele><time>2026-05-02T13:34:19.404Z</time></trkpt><trkpt lat="54.6499133" lon="-2.1614233"><ele>286.0</ele><time>2026-05-02T13:34:21.404Z</time></trkpt><trkpt lat="54.6500533" lon="-2.1619783"><ele>286.0</ele><time>2026-05-02T13:34:23.403Z</time></trkpt><trkpt lat="54.6501467" lon="-2.1625533"><ele>286.0</ele><time>2026-05-02T13:34:25.404Z</time></trkpt><trkpt lat="54.6501567" lon="-2.1632017"><ele>286.0</ele><time>2026-05-02T13:34:27.404Z</time></trkpt><trkpt lat="54.650135" lon="-2.1638117"><ele>285.5</ele><time>2026-05-02T13:34:29.403Z</time></trkpt><trkpt lat="54.650155" lon="-2.1643833"><ele>285.0</ele><time>2026-05-02T13:34:31.406Z</time></trkpt><trkpt lat="54.650275" lon="-2.1649767"><ele>285.0</ele><time>2026-05-02T13:34:33.403Z</time></trkpt><trkpt lat="54.6504683" lon="-2.1655817"><ele>285.0</ele><time>2026-05-02T13:34:35.408Z</time></trkpt><trkpt lat="54.6506333" lon="-2.16622"><ele>286.0</ele><time>2026-05-02T13:34:37.404Z</time></trkpt><trkpt lat="54.6506983" lon="-2.1669483"><ele>287.0</ele><time>2026-05-02T13:34:39.403Z</time></trkpt><trkpt lat="54.6507483" lon="-2.1677"><ele>288.5</ele><time>2026-05-02T13:34:41.404Z</time></trkpt><trkpt lat="54.6507983" lon="-2.1684333"><ele>290.0</ele><time>2026-05-02T13:34:43.404Z</time></trkpt><trkpt lat="54.6508083" lon="-2.1692133"><ele>294.0</ele><time>2026-05-02T13:34:45.402Z</time></trkpt><trkpt lat="54.6507733" lon="-2.17"><ele>294.0</ele><time>2026-05-02T13:34:47.404Z</time></trkpt><trkpt lat="54.6506983" lon="-2.1706867"><ele>294.0</ele><time>2026-05-02T13:34:49.403Z</time></trkpt><trkpt lat="54.6506933" lon="-2.171315"><ele>295.5</ele><time>2026-05-02T13:34:51.403Z</time></trkpt><trkpt lat="54.6507333" lon="-2.1718867"><ele>297.0</ele><time>2026-05-02T13:34:53.404Z</time></trkpt><trkpt lat="54.6507417" lon="-2.1724067"><ele>298.0</ele><time>2026-05-02T13:34:55.403Z</time></trkpt><trkpt lat="54.6506983" lon="-2.1728683"><ele>299.0</ele><time>2026-05-02T13:34:57.403Z</time></trkpt><trkpt lat="54.6507017" lon="-2.1732967"><ele>299.0</ele><time>2026-05-02T13:34:59.404Z</time></trkpt><trkpt lat="54.650775" lon="-2.1737283"><ele>299.0</ele><time>2026-05-02T13:35:01.404Z</time></trkpt><trkpt lat="54.6508967" lon="-2.174145"><ele>298.5</ele><time>2026-05-02T13:35:03.404Z</time></trkpt><trkpt lat="54.6510317" lon="-2.1745817"><ele>298.0</ele><time>2026-05-02T13:35:05.403Z</time></trkpt><trkpt lat="54.6511817" lon="-2.1750267"><ele>302.5</ele><time>2026-05-02T13:35:07.404Z</time></trkpt><trkpt lat="54.6513333" lon="-2.1755"><ele>307.0</ele><time>2026-05-02T13:35:09.403Z</time></trkpt><trkpt lat="54.6514683" lon="-2.1760467"><ele>306.0</ele><time>2026-05-02T13:35:11.406Z</time></trkpt><trkpt lat="54.651585" lon="-2.1765733"><ele>305.0</ele><time>2026-05-02T13:35:13.407Z</time></trkpt><trkpt lat="54.6516933" lon="-2.17709"><ele>303.5</ele><time>2026-05-02T13:35:15.402Z</time></trkpt><trkpt lat="54.6518017" lon="-2.1776067"><ele>302.0</ele><time>2026-05-02T13:35:17.406Z</time></trkpt><trkpt lat="54.6519033" lon="-2.1781133"><ele>310.0</ele><time>2026-05-02T13:35:19.403Z</time></trkpt><trkpt lat="54.6520283" lon="-2.17858"><ele>318.0</ele><time>2026-05-02T13:35:21.402Z</time></trkpt><trkpt lat="54.652185" lon="-2.1790133"><ele>315.5</ele><time>2026-05-02T13:35:23.403Z</time></trkpt><trkpt lat="54.6523933" lon="-2.179405"><ele>313.0</ele><time>2026-05-02T13:35:25.402Z</time></trkpt><trkpt lat="54.6525833" lon="-2.1797317"><ele>311.0</ele><time>2026-05-02T13:35:27.403Z</time></trkpt><trkpt lat="54.6527617" lon="-2.18009"><ele>309.0</ele><time>2026-05-02T13:35:29.402Z</time></trkpt><trkpt lat="54.6529567" lon="-2.1804833"><ele>316.5</ele><time>2026-05-02T13:35:31.408Z</time></trkpt><trkpt lat="54.6531583" lon="-2.1809017"><ele>324.0</ele><time>2026-05-02T13:35:33.403Z</time></trkpt><trkpt lat="54.653355" lon="-2.1813133"><ele>324.0</ele><time>2026-05-02T13:35:35.404Z</time></trkpt><trkpt lat="54.6535617" lon="-2.1817233"><ele>324.0</ele><time>2026-05-02T13:35:37.406Z</time></trkpt><trkpt lat="54.65377" lon="-2.1821433"><ele>329.5</ele><time>2026-05-02T13:35:39.405Z</time></trkpt><trkpt lat="54.6539917" lon="-2.1825767"><ele>335.0</ele><time>2026-05-02T13:35:41.405Z</time></trkpt><trkpt lat="54.6541733" lon="-2.1830417"><ele>333.0</ele><time>2026-05-02T13:35:43.404Z</time></trkpt><trkpt lat="54.6543483" lon="-2.1835033"><ele>331.0</ele><time>2026-05-02T13:35:45.403Z</time></trkpt><trkpt lat="54.65449" lon="-2.1839717"><ele>339.0</ele><time>2026-05-02T13:35:47.403Z</time></trkpt><trkpt lat="54.6545783" lon="-2.1844883"><ele>347.0</ele><time>2026-05-02T13:35:49.404Z</time></trkpt><trkpt lat="54.6546333" lon="-2.185055"><ele>347.0</ele><time>2026-05-02T13:35:51.403Z</time></trkpt><trkpt lat="54.6546633" lon="-2.18557"><ele>347.0</ele><time>2026-05-02T13:35:53.403Z</time></trkpt><trkpt lat="54.65468" lon="-2.186085"><ele>344.5</ele><time>2026-05-02T13:35:55.403Z</time></trkpt><trkpt lat="54.6547517" lon="-2.1866433"><ele>342.0</ele><time>2026-05-02T13:35:57.403Z</time></trkpt><trkpt lat="54.654845" lon="-2.18716"><ele>341.0</ele><time>2026-05-02T13:35:59.403Z</time></trkpt><trkpt lat="54.654955" lon="-2.18765"><ele>340.0</ele><time>2026-05-02T13:36:01.404Z</time></trkpt><trkpt lat="54.6550633" lon="-2.1881167"><ele>339.5</ele><time>2026-05-02T13:36:03.405Z</time></trkpt><trkpt lat="54.6552467" lon="-2.1885617"><ele>339.0</ele><time>2026-05-02T13:36:05.405Z</time></trkpt><trkpt lat="54.655435" lon="-2.18899"><ele>342.0</ele><time>2026-05-02T13:36:07.402Z</time></trkpt><trkpt lat="54.6555867" lon="-2.1894517"><ele>345.0</ele><time>2026-05-02T13:36:09.404Z</time></trkpt><trkpt lat="54.6556583" lon="-2.1896917"><ele>345.0</ele><time>2026-05-02T13:36:10.404Z</time></trkpt><trkpt lat="54.6557917" lon="-2.1901717"><ele>345.0</ele><time>2026-05-02T13:36:12.406Z</time></trkpt><trkpt lat="54.655915" lon="-2.1906817"><ele>345.0</ele><time>2026-05-02T13:36:14.404Z</time></trkpt><trkpt lat="54.6560167" lon="-2.1912067"><ele>345.0</ele><time>2026-05-02T13:36:16.403Z</time></trkpt><trkpt lat="54.6560883" lon="-2.1916967"><ele>351.0</ele><time>2026-05-02T13:36:18.402Z</time></trkpt><trkpt lat="54.6562367" lon="-2.1921333"><ele>357.0</ele><time>2026-05-02T13:36:20.404Z</time></trkpt><trkpt lat="54.6564483" lon="-2.1925283"><ele>357.0</ele><time>2026-05-02T13:36:22.402Z</time></trkpt><trkpt lat="54.65661" lon="-2.1929467"><ele>357.0</ele><time>2026-05-02T13:36:24.406Z</time></trkpt><trkpt lat="54.6567417" lon="-2.1934067"><ele>357.0</ele><time>2026-05-02T13:36:26.402Z</time></trkpt><trkpt lat="54.6568517" lon="-2.1938883"><ele>357.0</ele><time>2026-05-02T13:36:28.402Z</time></trkpt><trkpt lat="54.6569417" lon="-2.1944033"><ele>362.5</ele><time>2026-05-02T13:36:30.403Z</time></trkpt><trkpt lat="54.6570133" lon="-2.19494"><ele>368.0</ele><time>2026-05-02T13:36:32.402Z</time></trkpt><trkpt lat="54.6570867" lon="-2.1954867"><ele>368.0</ele><time>2026-05-02T13:36:34.402Z</time></trkpt><trkpt lat="54.6572" lon="-2.1960567"><ele>368.0</ele><time>2026-05-02T13:36:36.402Z</time></trkpt><trkpt lat="54.6573217" lon="-2.1965683"><ele>368.0</ele><time>2026-05-02T13:36:38.403Z</time></trkpt><trkpt lat="54.6574583" lon="-2.1970517"><ele>368.0</ele><time>2026-05-02T13:36:40.406Z</time></trkpt><trkpt lat="54.6576133" lon="-2.19751"><ele>369.5</ele><time>2026-05-02T13:36:42.407Z</time></trkpt><trkpt lat="54.657815" lon="-2.1979117"><ele>371.0</ele><time>2026-05-02T13:36:44.407Z</time></trkpt><trkpt lat="54.6580867" lon="-2.1982167"><ele>371.0</ele><time>2026-05-02T13:36:46.407Z</time></trkpt><trkpt lat="54.65839" lon="-2.1984483"><ele>371.0</ele><time>2026-05-02T13:36:48.405Z</time></trkpt><trkpt lat="54.6587067" lon="-2.1986617"><ele>372.0</ele><time>2026-05-02T13:36:50.403Z</time></trkpt><trkpt lat="54.6590133" lon="-2.19891"><ele>373.0</ele><time>2026-05-02T13:36:52.403Z</time></trkpt><trkpt lat="54.6592867" lon="-2.1992783"><ele>375.5</ele><time>2026-05-02T13:36:54.406Z</time></trkpt><trkpt lat="54.6595033" lon="-2.1997183"><ele>378.0</ele><time>2026-05-02T13:36:56.406Z</time></trkpt><trkpt lat="54.6597" lon="-2.2001217"><ele>378.0</ele><time>2026-05-02T13:36:58.404Z</time></trkpt><trkpt lat="54.6599133" lon="-2.2005367"><ele>378.0</ele><time>2026-05-02T13:37:00.404Z</time></trkpt><trkpt lat="54.6601167" lon="-2.2009483"><ele>378.0</ele><time>2026-05-02T13:37:02.403Z</time></trkpt><trkpt lat="54.6603333" lon="-2.201375"><ele>378.0</ele><time>2026-05-02T13:37:04.407Z</time></trkpt><trkpt lat="54.6604467" lon="-2.2015917"><ele>378.0</ele><time>2026-05-02T13:37:05.402Z</time></trkpt><trkpt lat="54.66067" lon="-2.2020183"><ele>378.0</ele><time>2026-05-02T13:37:07.406Z</time></trkpt><trkpt lat="54.6608917" lon="-2.2023917"><ele>378.5</ele><time>2026-05-02T13:37:09.404Z</time></trkpt><trkpt lat="54.6611133" lon="-2.20278"><ele>379.0</ele><time>2026-05-02T13:37:11.406Z</time></trkpt><trkpt lat="54.661315" lon="-2.2033717"><ele>377.5</ele><time>2026-05-02T13:37:13.409Z</time></trkpt><trkpt lat="54.6615" lon="-2.2040567"><ele>376.0</ele><time>2026-05-02T13:37:15.406Z</time></trkpt><trkpt lat="54.6617283" lon="-2.2047233"><ele>383.0</ele><time>2026-05-02T13:37:17.405Z</time></trkpt><trkpt lat="54.6620117" lon="-2.205365"><ele>378.0</ele><time>2026-05-02T13:37:19.403Z</time></trkpt><trkpt lat="54.6623167" lon="-2.2059917"><ele>372.0</ele><time>2026-05-02T13:37:21.403Z</time></trkpt><trkpt lat="54.6626333" lon="-2.2066067"><ele>380.0</ele><time>2026-05-02T13:37:23.404Z</time></trkpt><trkpt lat="54.662945" lon="-2.2072233"><ele>376.0</ele><time>2026-05-02T13:37:25.407Z</time></trkpt><trkpt lat="54.6632617" lon="-2.2078517"><ele>371.0</ele><time>2026-05-02T13:37:27.406Z</time></trkpt><trkpt lat="54.6635483" lon="-2.208515"><ele>380.0</ele><time>2026-05-02T13:37:29.402Z</time></trkpt><trkpt lat="54.66378" lon="-2.2092433"><ele>380.0</ele><time>2026-05-02T13:37:31.406Z</time></trkpt><trkpt lat="54.6639717" lon="-2.209985"><ele>378.0</ele><time>2026-05-02T13:37:33.403Z</time></trkpt><trkpt lat="54.6641333" lon="-2.2106833"><ele>376.0</ele><time>2026-05-02T13:37:35.406Z</time></trkpt><trkpt lat="54.6643433" lon="-2.2113733"><ele>384.0</ele><time>2026-05-02T13:37:37.402Z</time></trkpt><trkpt lat="54.6645967" lon="-2.2120533"><ele>378.0</ele><time>2026-05-02T13:37:39.403Z</time></trkpt><trkpt lat="54.6648617" lon="-2.2127433"><ele>373.0</ele><time>2026-05-02T13:37:41.404Z</time></trkpt><trkpt lat="54.6651417" lon="-2.213415"><ele>383.0</ele><time>2026-05-02T13:37:43.406Z</time></trkpt><trkpt lat="54.6653483" lon="-2.21414"><ele>383.0</ele><time>2026-05-02T13:37:45.406Z</time></trkpt><trkpt lat="54.6655567" lon="-2.2148017"><ele>383.0</ele><time>2026-05-02T13:37:47.403Z</time></trkpt><trkpt lat="54.6658433" lon="-2.2153267"><ele>384.5</ele><time>2026-05-02T13:37:49.404Z</time></trkpt><trkpt lat="54.6660117" lon="-2.21558"><ele>386.0</ele><time>2026-05-02T13:37:50.406Z</time></trkpt><trkpt lat="54.666355" lon="-2.2161117"><ele>381.0</ele><time>2026-05-02T13:37:52.406Z</time></trkpt><trkpt lat="54.6666933" lon="-2.216625"><ele>382.0</ele><time>2026-05-02T13:37:54.406Z</time></trkpt><trkpt lat="54.667035" lon="-2.2170783"><ele>383.0</ele><time>2026-05-02T13:37:56.408Z</time></trkpt><trkpt lat="54.66743" lon="-2.2174817"><ele>383.0</ele><time>2026-05-02T13:37:58.405Z</time></trkpt><trkpt lat="54.6678133" lon="-2.2178583"><ele>383.0</ele><time>2026-05-02T13:38:00.406Z</time></trkpt><trkpt lat="54.6681117" lon="-2.218165"><ele>383.0</ele><time>2026-05-02T13:38:02.409Z</time></trkpt><trkpt lat="54.6684117" lon="-2.21846"><ele>383.0</ele><time>2026-05-02T13:38:04.406Z</time></trkpt><trkpt lat="54.668695" lon="-2.218735"><ele>384.0</ele><time>2026-05-02T13:38:06.406Z</time></trkpt><trkpt lat="54.668945" lon="-2.2189767"><ele>385.0</ele><time>2026-05-02T13:38:08.405Z</time></trkpt><trkpt lat="54.669185" lon="-2.21922"><ele>383.0</ele><time>2026-05-02T13:38:10.408Z</time></trkpt><trkpt lat="54.6694317" lon="-2.2194583"><ele>381.0</ele><time>2026-05-02T13:38:12.405Z</time></trkpt><trkpt lat="54.66965" lon="-2.21967"><ele>382.0</ele><time>2026-05-02T13:38:14.403Z</time></trkpt><trkpt lat="54.6698683" lon="-2.2199083"><ele>383.0</ele><time>2026-05-02T13:38:16.407Z</time></trkpt><trkpt lat="54.6700683" lon="-2.22022"><ele>383.0</ele><time>2026-05-02T13:38:18.406Z</time></trkpt><trkpt lat="54.670245" lon="-2.2205967"><ele>383.0</ele><time>2026-05-02T13:38:20.405Z</time></trkpt><trkpt lat="54.6704197" lon="-2.2209971"><ele>383.0</ele><time>2026-05-02T13:38:22.406Z</time></trkpt><trkpt lat="54.6705932" lon="-2.2213939"><ele>383.0</ele><time>2026-05-02T13:38:24.403Z</time></trkpt><trkpt lat="54.6707726" lon="-2.2217553"><ele>383.0</ele><time>2026-05-02T13:38:26.407Z</time></trkpt><trkpt lat="54.6709612" lon="-2.2220633"><ele>383.0</ele><time>2026-05-02T13:38:28.406Z</time></trkpt><trkpt lat="54.6711633" lon="-2.2223008"><ele>383.0</ele><time>2026-05-02T13:38:30.403Z</time></trkpt><trkpt lat="54.6713652" lon="-2.2224826"><ele>383.0</ele><time>2026-05-02T13:38:32.407Z</time></trkpt><trkpt lat="54.6715508" lon="-2.2226991"><ele>383.0</ele><time>2026-05-02T13:38:34.407Z</time></trkpt><trkpt lat="54.6717154" lon="-2.2230521"><ele>383.0</ele><time>2026-05-02T13:38:36.402Z</time></trkpt><trkpt lat="54.6718223" lon="-2.2234653"><ele>382.5</ele><time>2026-05-02T13:38:38.408Z</time></trkpt><trkpt lat="54.6718951" lon="-2.2238849"><ele>382.0</ele><time>2026-05-02T13:38:40.403Z</time></trkpt><trkpt lat="54.6719831" lon="-2.2242773"><ele>384.5</ele><time>2026-05-02T13:38:42.403Z</time></trkpt><trkpt lat="54.6721259" lon="-2.2246466"><ele>387.0</ele><time>2026-05-02T13:38:44.406Z</time></trkpt><trkpt lat="54.6723321" lon="-2.2250368"><ele>387.0</ele><time>2026-05-02T13:38:46.407Z</time></trkpt><trkpt lat="54.6726049" lon="-2.2255044"><ele>387.0</ele><time>2026-05-02T13:38:48.403Z</time></trkpt><trkpt lat="54.6728952" lon="-2.226088"><ele>388.5</ele><time>2026-05-02T13:38:50.405Z</time></trkpt><trkpt lat="54.673172" lon="-2.2266488"><ele>390.0</ele><time>2026-05-02T13:38:52.406Z</time></trkpt><trkpt lat="54.673459" lon="-2.2271492"><ele>392.0</ele><time>2026-05-02T13:38:54.405Z</time></trkpt><trkpt lat="54.6737098" lon="-2.2275742"><ele>394.0</ele><time>2026-05-02T13:38:56.41Z</time></trkpt><trkpt lat="54.6739547" lon="-2.2278827"><ele>394.0</ele><time>2026-05-02T13:38:58.406Z</time></trkpt><trkpt lat="54.6742763" lon="-2.2280565"><ele>394.0</ele><time>2026-05-02T13:39:00.405Z</time></trkpt><trkpt lat="54.674658" lon="-2.2281314"><ele>390.5</ele><time>2026-05-02T13:39:02.403Z</time></trkpt><trkpt lat="54.6750542" lon="-2.2282126"><ele>387.0</ele><time>2026-05-02T13:39:04.407Z</time></trkpt><trkpt lat="54.6753811" lon="-2.2282786"><ele>387.0</ele><time>2026-05-02T13:39:06.407Z</time></trkpt><trkpt lat="54.6756224" lon="-2.2283867"><ele>387.0</ele><time>2026-05-02T13:39:08.403Z</time></trkpt><trkpt lat="54.6757834" lon="-2.2286251"><ele>387.0</ele><time>2026-05-02T13:39:10.406Z</time></trkpt><trkpt lat="54.6758383" lon="-2.228788"><ele>387.0</ele><time>2026-05-02T13:39:11.407Z</time></trkpt><trkpt lat="54.6759687" lon="-2.2290438"><ele>387.0</ele><time>2026-05-02T13:39:13.405Z</time></trkpt><trkpt lat="54.6761746" lon="-2.2291076"><ele>388.5</ele><time>2026-05-02T13:39:15.405Z</time></trkpt><trkpt lat="54.6764172" lon="-2.2289219"><ele>390.0</ele><time>2026-05-02T13:39:17.405Z</time></trkpt><trkpt lat="54.6766731" lon="-2.22864"><ele>393.5</ele><time>2026-05-02T13:39:19.405Z</time></trkpt><trkpt lat="54.6769613" lon="-2.2285644"><ele>397.0</ele><time>2026-05-02T13:39:21.403Z</time></trkpt><trkpt lat="54.6772417" lon="-2.2288442"><ele>398.0</ele><time>2026-05-02T13:39:23.404Z</time></trkpt><trkpt lat="54.6774993" lon="-2.2294169"><ele>399.0</ele><time>2026-05-02T13:39:25.405Z</time></trkpt><trkpt lat="54.6777233" lon="-2.2300194"><ele>402.0</ele><time>2026-05-02T13:39:27.404Z</time></trkpt><trkpt lat="54.6779512" lon="-2.2306125"><ele>405.0</ele><time>2026-05-02T13:39:29.404Z</time></trkpt><trkpt lat="54.6782405" lon="-2.2311303"><ele>408.5</ele><time>2026-05-02T13:39:31.402Z</time></trkpt><trkpt lat="54.6785918" lon="-2.2315637"><ele>412.0</ele><time>2026-05-02T13:39:33.402Z</time></trkpt><trkpt lat="54.6789033" lon="-2.2320541"><ele>415.5</ele><time>2026-05-02T13:39:35.402Z</time></trkpt><trkpt lat="54.6791331" lon="-2.2326919"><ele>419.0</ele><time>2026-05-02T13:39:37.404Z</time></trkpt><trkpt lat="54.6793195" lon="-2.2334443"><ele>423.0</ele><time>2026-05-02T13:39:39.406Z</time></trkpt><trkpt lat="54.6795128" lon="-2.234237"><ele>428.0</ele><time>2026-05-02T13:39:41.402Z</time></trkpt><trkpt lat="54.6797116" lon="-2.235033"><ele>431.0</ele><time>2026-05-02T13:39:43.406Z</time></trkpt><trkpt lat="54.6799248" lon="-2.2358536"><ele>431.0</ele><time>2026-05-02T13:39:45.407Z</time></trkpt><trkpt lat="54.6801317" lon="-2.2366782"><ele>442.0</ele><time>2026-05-02T13:39:47.404Z</time></trkpt><trkpt lat="54.6803307" lon="-2.2375057"><ele>443.0</ele><time>2026-05-02T13:39:49.404Z</time></trkpt><trkpt lat="54.6805297" lon="-2.238333"><ele>445.0</ele><time>2026-05-02T13:39:51.403Z</time></trkpt><trkpt lat="54.6807286" lon="-2.2391295"><ele>445.0</ele><time>2026-05-02T13:39:53.404Z</time></trkpt><trkpt lat="54.6809231" lon="-2.2397976"><ele>445.0</ele><time>2026-05-02T13:39:55.403Z</time></trkpt><trkpt lat="54.6811083" lon="-2.2404013"><ele>449.0</ele><time>2026-05-02T13:39:57.403Z</time></trkpt><trkpt lat="54.6812992" lon="-2.2410374"><ele>453.0</ele><time>2026-05-02T13:39:59.403Z</time></trkpt><trkpt lat="54.6814939" lon="-2.2417285"><ele>450.0</ele><time>2026-05-02T13:40:01.402Z</time></trkpt><trkpt lat="54.6816544" lon="-2.2424949"><ele>446.0</ele><time>2026-05-02T13:40:03.402Z</time></trkpt><trkpt lat="54.6817691" lon="-2.2433109"><ele>445.0</ele><time>2026-05-02T13:40:05.405Z</time></trkpt><trkpt lat="54.6818624" lon="-2.2441334"><ele>458.0</ele><time>2026-05-02T13:40:07.405Z</time></trkpt><trkpt lat="54.681958" lon="-2.2449539"><ele>454.0</ele><time>2026-05-02T13:40:09.403Z</time></trkpt><trkpt lat="54.6820619" lon="-2.2457712"><ele>451.0</ele><time>2026-05-02T13:40:11.406Z</time></trkpt><trkpt lat="54.6821617" lon="-2.2465983"><ele>449.0</ele><time>2026-05-02T13:40:13.406Z</time></trkpt><trkpt lat="54.68227" lon="-2.2474467"><ele>447.0</ele><time>2026-05-02T13:40:15.406Z</time></trkpt><trkpt lat="54.68241" lon="-2.24826"><ele>446.0</ele><time>2026-05-02T13:40:17.406Z</time></trkpt><trkpt lat="54.6825317" lon="-2.2489783"><ele>445.0</ele><time>2026-05-02T13:40:19.402Z</time></trkpt><trkpt lat="54.68264" lon="-2.2495883"><ele>448.5</ele><time>2026-05-02T13:40:21.404Z</time></trkpt><trkpt lat="54.6828033" lon="-2.2501583"><ele>452.0</ele><time>2026-05-02T13:40:23.402Z</time></trkpt><trkpt lat="54.683045" lon="-2.250705"><ele>452.0</ele><time>2026-05-02T13:40:25.403Z</time></trkpt><trkpt lat="54.68332" lon="-2.2512617"><ele>452.0</ele><time>2026-05-02T13:40:27.402Z</time></trkpt><trkpt lat="54.68355" lon="-2.2518417"><ele>454.0</ele><time>2026-05-02T13:40:29.405Z</time></trkpt><trkpt lat="54.6837733" lon="-2.2523617"><ele>456.0</ele><time>2026-05-02T13:40:31.403Z</time></trkpt><trkpt lat="54.68407" lon="-2.2528367"><ele>457.0</ele><time>2026-05-02T13:40:33.404Z</time></trkpt><trkpt lat="54.6843833" lon="-2.25337"><ele>458.0</ele><time>2026-05-02T13:40:35.407Z</time></trkpt><trkpt lat="54.6846367" lon="-2.2539617"><ele>458.0</ele><time>2026-05-02T13:40:37.407Z</time></trkpt><trkpt lat="54.684855" lon="-2.25451"><ele>458.0</ele><time>2026-05-02T13:40:39.403Z</time></trkpt><trkpt lat="54.6851083" lon="-2.2550083"><ele>458.5</ele><time>2026-05-02T13:40:41.406Z</time></trkpt><trkpt lat="54.68544" lon="-2.25542"><ele>459.0</ele><time>2026-05-02T13:40:43.405Z</time></trkpt><trkpt lat="54.6858267" lon="-2.255795"><ele>471.0</ele><time>2026-05-02T13:40:45.403Z</time></trkpt><trkpt lat="54.686195" lon="-2.2562983"><ele>465.0</ele><time>2026-05-02T13:40:47.402Z</time></trkpt><trkpt lat="54.6865677" lon="-2.2568525"><ele>472.0</ele><time>2026-05-02T13:40:49.403Z</time></trkpt><trkpt lat="54.6869463" lon="-2.2574208"><ele>472.0</ele><time>2026-05-02T13:40:51.403Z</time></trkpt><trkpt lat="54.6873057" lon="-2.2580093"><ele>463.0</ele><time>2026-05-02T13:40:53.404Z</time></trkpt><trkpt lat="54.6876555" lon="-2.2586226"><ele>471.0</ele><time>2026-05-02T13:40:55.403Z</time></trkpt><trkpt lat="54.6880223" lon="-2.2592343"><ele>460.0</ele><time>2026-05-02T13:40:57.403Z</time></trkpt><trkpt lat="54.6883956" lon="-2.2598204"><ele>478.0</ele><time>2026-05-02T13:40:59.406Z</time></trkpt><trkpt lat="54.6887328" lon="-2.2604128"><ele>474.0</ele><time>2026-05-02T13:41:01.404Z</time></trkpt><trkpt lat="54.6888745" lon="-2.2607472"><ele>470.0</ele><time>2026-05-02T13:41:02.406Z</time></trkpt><trkpt lat="54.6891125" lon="-2.261373"><ele>471.0</ele><time>2026-05-02T13:41:04.402Z</time></trkpt><trkpt lat="54.6894171" lon="-2.2619168"><ele>472.0</ele><time>2026-05-02T13:41:06.402Z</time></trkpt><trkpt lat="54.6897843" lon="-2.2624384"><ele>472.0</ele><time>2026-05-02T13:41:08.402Z</time></trkpt><trkpt lat="54.6901711" lon="-2.2629703"><ele>481.0</ele><time>2026-05-02T13:41:10.406Z</time></trkpt><trkpt lat="54.690543" lon="-2.2635624"><ele>471.0</ele><time>2026-05-02T13:41:12.402Z</time></trkpt><trkpt lat="54.6908567" lon="-2.2642167"><ele>479.0</ele><time>2026-05-02T13:41:14.406Z</time></trkpt><trkpt lat="54.6911942" lon="-2.2648021"><ele>479.0</ele><time>2026-05-02T13:41:16.406Z</time></trkpt><trkpt lat="54.6916024" lon="-2.2653516"><ele>485.0</ele><time>2026-05-02T13:41:18.41Z</time></trkpt><trkpt lat="54.6920206" lon="-2.2659102"><ele>475.0</ele><time>2026-05-02T13:41:20.402Z</time></trkpt><trkpt lat="54.6924102" lon="-2.266469"><ele>492.0</ele><time>2026-05-02T13:41:22.406Z</time></trkpt><trkpt lat="54.6928149" lon="-2.2670034"><ele>482.0</ele><time>2026-05-02T13:41:24.407Z</time></trkpt><trkpt lat="54.6931927" lon="-2.2675899"><ele>473.0</ele><time>2026-05-02T13:41:26.407Z</time></trkpt><trkpt lat="54.6935188" lon="-2.2682699"><ele>491.0</ele><time>2026-05-02T13:41:28.402Z</time></trkpt><trkpt lat="54.6938296" lon="-2.2689423"><ele>485.0</ele><time>2026-05-02T13:41:30.402Z</time></trkpt><trkpt lat="54.6941545" lon="-2.2696091"><ele>494.0</ele><time>2026-05-02T13:41:32.405Z</time></trkpt><trkpt lat="54.6944848" lon="-2.2702314"><ele>484.0</ele><time>2026-05-02T13:41:34.403Z</time></trkpt><trkpt lat="54.6948331" lon="-2.2707855"><ele>498.0</ele><time>2026-05-02T13:41:36.408Z</time></trkpt><trkpt lat="54.695258" lon="-2.2712802"><ele>487.0</ele><time>2026-05-02T13:41:38.406Z</time></trkpt><trkpt lat="54.695725" lon="-2.2717307"><ele>500.0</ele><time>2026-05-02T13:41:40.402Z</time></trkpt><trkpt lat="54.6961967" lon="-2.2721789"><ele>488.0</ele><time>2026-05-02T13:41:42.404Z</time></trkpt><trkpt lat="54.6966842" lon="-2.2726082"><ele>500.0</ele><time>2026-05-02T13:41:44.406Z</time></trkpt><trkpt lat="54.697174" lon="-2.2730325"><ele>489.0</ele><time>2026-05-02T13:41:46.403Z</time></trkpt><trkpt lat="54.6976588" lon="-2.2734513"><ele>501.0</ele><time>2026-05-02T13:41:48.404Z</time></trkpt><trkpt lat="54.6981071" lon="-2.2738936"><ele>494.0</ele><time>2026-05-02T13:41:50.405Z</time></trkpt><trkpt lat="54.6985116" lon="-2.2743501"><ele>496.0</ele><time>2026-05-02T13:41:52.403Z</time></trkpt><trkpt lat="54.6988481" lon="-2.2748021"><ele>498.0</ele><time>2026-05-02T13:41:54.407Z</time></trkpt><trkpt lat="54.6991147" lon="-2.2752203"><ele>499.0</ele><time>2026-05-02T13:41:56.403Z</time></trkpt><trkpt lat="54.6994176" lon="-2.275519"><ele>500.0</ele><time>2026-05-02T13:41:58.403Z</time></trkpt><trkpt lat="54.6998083" lon="-2.2756625"><ele>500.0</ele><time>2026-05-02T13:42:00.406Z</time></trkpt><trkpt lat="54.7002395" lon="-2.275856"><ele>500.0</ele><time>2026-05-02T13:42:02.402Z</time></trkpt><trkpt lat="54.700668" lon="-2.2762067"><ele>508.0</ele><time>2026-05-02T13:42:04.402Z</time></trkpt><trkpt lat="54.7011149" lon="-2.2765315"><ele>508.0</ele><time>2026-05-02T13:42:06.404Z</time></trkpt><trkpt lat="54.7015588" lon="-2.2768318"><ele>512.0</ele><time>2026-05-02T13:42:08.403Z</time></trkpt><trkpt lat="54.7019702" lon="-2.2770772"><ele>516.0</ele><time>2026-05-02T13:42:10.403Z</time></trkpt><trkpt lat="54.7023186" lon="-2.2772107"><ele>513.0</ele><time>2026-05-02T13:42:12.404Z</time></trkpt><trkpt lat="54.7025833" lon="-2.2774378"><ele>510.0</ele><time>2026-05-02T13:42:14.402Z</time></trkpt><trkpt lat="54.702771" lon="-2.2779635"><ele>516.0</ele><time>2026-05-02T13:42:16.406Z</time></trkpt><trkpt lat="54.7028931" lon="-2.2786144"><ele>522.0</ele><time>2026-05-02T13:42:18.408Z</time></trkpt><trkpt lat="54.7029222" lon="-2.2792963"><ele>523.0</ele><time>2026-05-02T13:42:20.403Z</time></trkpt><trkpt lat="54.702838" lon="-2.2799135"><ele>524.0</ele><time>2026-05-02T13:42:22.403Z</time></trkpt><trkpt lat="54.7027863" lon="-2.2804358"><ele>524.0</ele><time>2026-05-02T13:42:24.402Z</time></trkpt><trkpt lat="54.7028809" lon="-2.2809434"><ele>524.0</ele><time>2026-05-02T13:42:26.402Z</time></trkpt><trkpt lat="54.7030051" lon="-2.2811823"><ele>521.5</ele><time>2026-05-02T13:42:27.408Z</time></trkpt><trkpt lat="54.7033336" lon="-2.281588"><ele>519.0</ele><time>2026-05-02T13:42:29.406Z</time></trkpt><trkpt lat="54.7036341" lon="-2.2819152"><ele>524.5</ele><time>2026-05-02T13:42:31.406Z</time></trkpt><trkpt lat="54.7038356" lon="-2.2823792"><ele>530.0</ele><time>2026-05-02T13:42:33.403Z</time></trkpt><trkpt lat="54.7039759" lon="-2.2830347"><ele>529.5</ele><time>2026-05-02T13:42:35.404Z</time></trkpt><trkpt lat="54.704113" lon="-2.2837194"><ele>529.0</ele><time>2026-05-02T13:42:37.41Z</time></trkpt><trkpt lat="54.7043061" lon="-2.2843707"><ele>539.0</ele><time>2026-05-02T13:42:39.407Z</time></trkpt><trkpt lat="54.7046013" lon="-2.2849886"><ele>534.0</ele><time>2026-05-02T13:42:41.406Z</time></trkpt><trkpt lat="54.704935" lon="-2.2856377"><ele>534.0</ele><time>2026-05-02T13:42:43.407Z</time></trkpt><trkpt lat="54.7052456" lon="-2.2862998"><ele>538.0</ele><time>2026-05-02T13:42:45.407Z</time></trkpt><trkpt lat="54.7055164" lon="-2.2868858"><ele>542.0</ele><time>2026-05-02T13:42:47.402Z</time></trkpt><trkpt lat="54.7058146" lon="-2.2873665"><ele>546.0</ele><time>2026-05-02T13:42:49.406Z</time></trkpt><trkpt lat="54.7061668" lon="-2.287701"><ele>550.0</ele><time>2026-05-02T13:42:51.403Z</time></trkpt><trkpt lat="54.706582" lon="-2.2879668"><ele>554.0</ele><time>2026-05-02T13:42:53.402Z</time></trkpt><trkpt lat="54.7069897" lon="-2.2883566"><ele>554.0</ele><time>2026-05-02T13:42:55.403Z</time></trkpt><trkpt lat="54.707343" lon="-2.2888307"><ele>554.0</ele><time>2026-05-02T13:42:57.406Z</time></trkpt><trkpt lat="54.7076662" lon="-2.2892156"><ele>555.5</ele><time>2026-05-02T13:42:59.406Z</time></trkpt><trkpt lat="54.7080386" lon="-2.289483"><ele>557.0</ele><time>2026-05-02T13:43:01.403Z</time></trkpt><trkpt lat="54.7084563" lon="-2.2896513"><ele>555.5</ele><time>2026-05-02T13:43:03.406Z</time></trkpt><trkpt lat="54.7088659" lon="-2.2897747"><ele>554.0</ele><time>2026-05-02T13:43:05.402Z</time></trkpt><trkpt lat="54.7092215" lon="-2.2899632"><ele>557.0</ele><time>2026-05-02T13:43:07.404Z</time></trkpt><trkpt lat="54.7095626" lon="-2.2902924"><ele>560.0</ele><time>2026-05-02T13:43:09.403Z</time></trkpt><trkpt lat="54.7099227" lon="-2.2907196"><ele>562.0</ele><time>2026-05-02T13:43:11.404Z</time></trkpt><trkpt lat="54.7102995" lon="-2.2911757"><ele>560.5</ele><time>2026-05-02T13:43:13.406Z</time></trkpt><trkpt lat="54.7106633" lon="-2.2916089"><ele>559.0</ele><time>2026-05-02T13:43:15.407Z</time></trkpt><trkpt lat="54.7109729" lon="-2.2920401"><ele>560.0</ele><time>2026-05-02T13:43:17.407Z</time></trkpt><trkpt lat="54.7111868" lon="-2.2925797"><ele>561.0</ele><time>2026-05-02T13:43:19.406Z</time></trkpt><trkpt lat="54.7112987" lon="-2.2932868"><ele>560.0</ele><time>2026-05-02T13:43:21.406Z</time></trkpt><trkpt lat="54.711409" lon="-2.2940548"><ele>558.5</ele><time>2026-05-02T13:43:23.407Z</time></trkpt><trkpt lat="54.7115309" lon="-2.2947554"><ele>557.0</ele><time>2026-05-02T13:43:25.407Z</time></trkpt><trkpt lat="54.7116878" lon="-2.295367"><ele>557.5</ele><time>2026-05-02T13:43:27.403Z</time></trkpt><trkpt lat="54.7119512" lon="-2.2959679"><ele>558.0</ele><time>2026-05-02T13:43:29.406Z</time></trkpt><trkpt lat="54.712278" lon="-2.2965529"><ele>558.0</ele><time>2026-05-02T13:43:31.406Z</time></trkpt><trkpt lat="54.7126186" lon="-2.297105"><ele>559.0</ele><time>2026-05-02T13:43:33.407Z</time></trkpt><trkpt lat="54.7129567" lon="-2.2975745"><ele>560.0</ele><time>2026-05-02T13:43:35.418Z</time></trkpt><trkpt lat="54.713277" lon="-2.2979875"><ele>558.0</ele><time>2026-05-02T13:43:37.406Z</time></trkpt><trkpt lat="54.7135536" lon="-2.2983419"><ele>556.0</ele><time>2026-05-02T13:43:39.406Z</time></trkpt><trkpt lat="54.7137656" lon="-2.2987421"><ele>555.0</ele><time>2026-05-02T13:43:41.402Z</time></trkpt><trkpt lat="54.7138899" lon="-2.2993044"><ele>554.0</ele><time>2026-05-02T13:43:43.403Z</time></trkpt><trkpt lat="54.7138874" lon="-2.2999695"><ele>553.5</ele><time>2026-05-02T13:43:45.407Z</time></trkpt><trkpt lat="54.713756" lon="-2.3006133"><ele>553.0</ele><time>2026-05-02T13:43:47.407Z</time></trkpt><trkpt lat="54.713495" lon="-2.3012003"><ele>558.0</ele><time>2026-05-02T13:43:49.407Z</time></trkpt><trkpt lat="54.7131861" lon="-2.3018113"><ele>564.0</ele><time>2026-05-02T13:43:51.405Z</time></trkpt><trkpt lat="54.7128978" lon="-2.3024272"><ele>563.0</ele><time>2026-05-02T13:43:53.404Z</time></trkpt><trkpt lat="54.712659" lon="-2.3029999"><ele>562.0</ele><time>2026-05-02T13:43:55.406Z</time></trkpt><trkpt lat="54.7124887" lon="-2.3036506"><ele>565.0</ele><time>2026-05-02T13:43:57.405Z</time></trkpt><trkpt lat="54.7123732" lon="-2.3043659"><ele>568.0</ele><time>2026-05-02T13:43:59.404Z</time></trkpt><trkpt lat="54.7123165" lon="-2.3051303"><ele>569.0</ele><time>2026-05-02T13:44:01.407Z</time></trkpt><trkpt lat="54.7123495" lon="-2.305923"><ele>569.5</ele><time>2026-05-02T13:44:03.403Z</time></trkpt><trkpt lat="54.7123889" lon="-2.3066307"><ele>570.0</ele><time>2026-05-02T13:44:05.402Z</time></trkpt><trkpt lat="54.7123068" lon="-2.3072705"><ele>572.0</ele><time>2026-05-02T13:44:07.402Z</time></trkpt><trkpt lat="54.7122042" lon="-2.3075735"><ele>574.0</ele><time>2026-05-02T13:44:08.402Z</time></trkpt><trkpt lat="54.7120175" lon="-2.3081435"><ele>576.0</ele><time>2026-05-02T13:44:10.403Z</time></trkpt><trkpt lat="54.7119678" lon="-2.3084333"><ele>578.0</ele><time>2026-05-02T13:44:11.408Z</time></trkpt><trkpt lat="54.7119676" lon="-2.3090792"><ele>578.0</ele><time>2026-05-02T13:44:13.404Z</time></trkpt><trkpt lat="54.7120174" lon="-2.3098236"><ele>578.0</ele><time>2026-05-02T13:44:15.407Z</time></trkpt><trkpt lat="54.7120441" lon="-2.3106405"><ele>577.0</ele><time>2026-05-02T13:44:17.407Z</time></trkpt><trkpt lat="54.7120638" lon="-2.3114853"><ele>578.0</ele><time>2026-05-02T13:44:19.408Z</time></trkpt><trkpt lat="54.7120915" lon="-2.312315"><ele>578.0</ele><time>2026-05-02T13:44:21.406Z</time></trkpt><trkpt lat="54.7121409" lon="-2.3130569"><ele>578.0</ele><time>2026-05-02T13:44:23.406Z</time></trkpt><trkpt lat="54.7122266" lon="-2.3137027"><ele>578.0</ele><time>2026-05-02T13:44:25.405Z</time></trkpt><trkpt lat="54.7123003" lon="-2.3143291"><ele>578.0</ele><time>2026-05-02T13:44:27.407Z</time></trkpt><trkpt lat="54.7122421" lon="-2.3149618"><ele>578.0</ele><time>2026-05-02T13:44:29.404Z</time></trkpt><trkpt lat="54.7120712" lon="-2.3155597"><ele>578.0</ele><time>2026-05-02T13:44:31.407Z</time></trkpt><trkpt lat="54.7117649" lon="-2.3160764"><ele>577.5</ele><time>2026-05-02T13:44:33.403Z</time></trkpt><trkpt lat="54.7114377" lon="-2.3165942"><ele>577.0</ele><time>2026-05-02T13:44:35.403Z</time></trkpt><trkpt lat="54.7111441" lon="-2.3172479"><ele>567.0</ele><time>2026-05-02T13:44:37.403Z</time></trkpt><trkpt lat="54.7109042" lon="-2.3179974"><ele>572.0</ele><time>2026-05-02T13:44:39.403Z</time></trkpt><trkpt lat="54.7106796" lon="-2.3187333"><ele>574.0</ele><time>2026-05-02T13:44:41.403Z</time></trkpt><trkpt lat="54.7104367" lon="-2.3193005"><ele>576.0</ele><time>2026-05-02T13:44:43.402Z</time></trkpt><trkpt lat="54.7101625" lon="-2.3196674"><ele>573.5</ele><time>2026-05-02T13:44:45.402Z</time></trkpt><trkpt lat="54.7099188" lon="-2.3200245"><ele>571.0</ele><time>2026-05-02T13:44:47.402Z</time></trkpt><trkpt lat="54.7097469" lon="-2.3205119"><ele>572.5</ele><time>2026-05-02T13:44:49.402Z</time></trkpt><trkpt lat="54.7096392" lon="-2.321131"><ele>574.0</ele><time>2026-05-02T13:44:51.406Z</time></trkpt><trkpt lat="54.7095853" lon="-2.3217882"><ele>575.0</ele><time>2026-05-02T13:44:53.403Z</time></trkpt><trkpt lat="54.7096266" lon="-2.3224435"><ele>576.0</ele><time>2026-05-02T13:44:55.404Z</time></trkpt><trkpt lat="54.7096846" lon="-2.3228031"><ele>575.0</ele><time>2026-05-02T13:44:56.407Z</time></trkpt><trkpt lat="54.7098048" lon="-2.3235973"><ele>577.0</ele><time>2026-05-02T13:44:58.405Z</time></trkpt><trkpt lat="54.709894" lon="-2.3244492"><ele>577.0</ele><time>2026-05-02T13:45:00.402Z</time></trkpt><trkpt lat="54.7099947" lon="-2.325297"><ele>577.0</ele><time>2026-05-02T13:45:02.403Z</time></trkpt><trkpt lat="54.7101045" lon="-2.3261297"><ele>578.0</ele><time>2026-05-02T13:45:04.405Z</time></trkpt><trkpt lat="54.7102411" lon="-2.3269385"><ele>585.0</ele><time>2026-05-02T13:45:06.403Z</time></trkpt><trkpt lat="54.7104217" lon="-2.3276383"><ele>592.0</ele><time>2026-05-02T13:45:08.403Z</time></trkpt><trkpt lat="54.7106" lon="-2.3283383"><ele>591.0</ele><time>2026-05-02T13:45:10.402Z</time></trkpt><trkpt lat="54.710725" lon="-2.3291133"><ele>590.0</ele><time>2026-05-02T13:45:12.402Z</time></trkpt><trkpt lat="54.7108267" lon="-2.3299367"><ele>589.0</ele><time>2026-05-02T13:45:14.407Z</time></trkpt><trkpt lat="54.7109333" lon="-2.3307633"><ele>586.0</ele><time>2026-05-02T13:45:16.405Z</time></trkpt><trkpt lat="54.7110383" lon="-2.3315833"><ele>597.0</ele><time>2026-05-02T13:45:18.402Z</time></trkpt><trkpt lat="54.7111917" lon="-2.33238"><ele>594.0</ele><time>2026-05-02T13:45:20.403Z</time></trkpt><trkpt lat="54.7114083" lon="-2.333155"><ele>593.0</ele><time>2026-05-02T13:45:22.403Z</time></trkpt><trkpt lat="54.7116217" lon="-2.3339433"><ele>591.0</ele><time>2026-05-02T13:45:24.406Z</time></trkpt><trkpt lat="54.7118183" lon="-2.3347517"><ele>600.0</ele><time>2026-05-02T13:45:26.402Z</time></trkpt><trkpt lat="54.712035" lon="-2.3354867"><ele>598.0</ele><time>2026-05-02T13:45:28.406Z</time></trkpt><trkpt lat="54.7122183" lon="-2.33608"><ele>596.0</ele><time>2026-05-02T13:45:30.407Z</time></trkpt><trkpt lat="54.7124533" lon="-2.3365733"><ele>596.5</ele><time>2026-05-02T13:45:32.403Z</time></trkpt><trkpt lat="54.7127183" lon="-2.3369783"><ele>597.0</ele><time>2026-05-02T13:45:34.404Z</time></trkpt><trkpt lat="54.7128883" lon="-2.3374183"><ele>597.0</ele><time>2026-05-02T13:45:36.402Z</time></trkpt><trkpt lat="54.71295" lon="-2.3380233"><ele>597.0</ele><time>2026-05-02T13:45:38.403Z</time></trkpt><trkpt lat="54.713045" lon="-2.3386867"><ele>595.5</ele><time>2026-05-02T13:45:40.403Z</time></trkpt><trkpt lat="54.7132167" lon="-2.339345"><ele>594.0</ele><time>2026-05-02T13:45:42.402Z</time></trkpt><trkpt lat="54.7134267" lon="-2.3398783"><ele>593.5</ele><time>2026-05-02T13:45:44.409Z</time></trkpt><trkpt lat="54.7137" lon="-2.3402383"><ele>593.0</ele><time>2026-05-02T13:45:46.402Z</time></trkpt><trkpt lat="54.7140517" lon="-2.34041"><ele>593.5</ele><time>2026-05-02T13:45:48.403Z</time></trkpt><trkpt lat="54.7144933" lon="-2.34049"><ele>594.0</ele><time>2026-05-02T13:45:50.404Z</time></trkpt><trkpt lat="54.7149483" lon="-2.340645"><ele>592.0</ele><time>2026-05-02T13:45:52.404Z</time></trkpt><trkpt lat="54.7153767" lon="-2.340895"><ele>592.0</ele><time>2026-05-02T13:45:54.405Z</time></trkpt><trkpt lat="54.7157283" lon="-2.341185"><ele>592.0</ele><time>2026-05-02T13:45:56.406Z</time></trkpt><trkpt lat="54.7160533" lon="-2.3412967"><ele>591.5</ele><time>2026-05-02T13:45:58.402Z</time></trkpt><trkpt lat="54.7163467" lon="-2.3412467"><ele>591.0</ele><time>2026-05-02T13:46:00.407Z</time></trkpt><trkpt lat="54.71664" lon="-2.34129"><ele>593.5</ele><time>2026-05-02T13:46:02.403Z</time></trkpt><trkpt lat="54.716915" lon="-2.3415433"><ele>596.0</ele><time>2026-05-02T13:46:04.402Z</time></trkpt><trkpt lat="54.7171617" lon="-2.3420267"><ele>596.5</ele><time>2026-05-02T13:46:06.403Z</time></trkpt><trkpt lat="54.7174417" lon="-2.3425783"><ele>597.0</ele><time>2026-05-02T13:46:08.404Z</time></trkpt><trkpt lat="54.717775" lon="-2.3430983"><ele>597.0</ele><time>2026-05-02T13:46:10.406Z</time></trkpt><trkpt lat="54.7180883" lon="-2.3436833"><ele>594.0</ele><time>2026-05-02T13:46:12.406Z</time></trkpt><trkpt lat="54.7183517" lon="-2.3443667"><ele>593.5</ele><time>2026-05-02T13:46:14.404Z</time></trkpt><trkpt lat="54.7185333" lon="-2.3450633"><ele>593.0</ele><time>2026-05-02T13:46:16.406Z</time></trkpt><trkpt lat="54.71868" lon="-2.3457517"><ele>595.0</ele><time>2026-05-02T13:46:18.403Z</time></trkpt><trkpt lat="54.71887" lon="-2.3464283"><ele>597.0</ele><time>2026-05-02T13:46:20.405Z</time></trkpt><trkpt lat="54.7190817" lon="-2.3469867"><ele>599.0</ele><time>2026-05-02T13:46:22.406Z</time></trkpt><trkpt lat="54.7194733" lon="-2.34754"><ele>599.0</ele><time>2026-05-02T13:46:24.651Z</time></trkpt><trkpt lat="54.7197333" lon="-2.3477767"><ele>599.0</ele><time>2026-05-02T13:46:26.402Z</time></trkpt><trkpt lat="54.7200667" lon="-2.347985"><ele>599.0</ele><time>2026-05-02T13:46:28.403Z</time></trkpt><trkpt lat="54.7203867" lon="-2.34819"><ele>599.0</ele><time>2026-05-02T13:46:30.402Z</time></trkpt><trkpt lat="54.7206467" lon="-2.3484517"><ele>599.0</ele><time>2026-05-02T13:46:32.403Z</time></trkpt><trkpt lat="54.72084" lon="-2.3487817"><ele>599.0</ele><time>2026-05-02T13:46:34.403Z</time></trkpt><trkpt lat="54.7210317" lon="-2.34919"><ele>600.5</ele><time>2026-05-02T13:46:36.403Z</time></trkpt><trkpt lat="54.7211317" lon="-2.3494033"><ele>602.0</ele><time>2026-05-02T13:46:37.402Z</time></trkpt><trkpt lat="54.7213233" lon="-2.3498217"><ele>602.0</ele><time>2026-05-02T13:46:39.402Z</time></trkpt><trkpt lat="54.721525" lon="-2.3502317"><ele>602.0</ele><time>2026-05-02T13:46:41.403Z</time></trkpt><trkpt lat="54.7217183" lon="-2.350595"><ele>602.0</ele><time>2026-05-02T13:46:43.402Z</time></trkpt><trkpt lat="54.721895" lon="-2.3509317"><ele>602.0</ele><time>2026-05-02T13:46:45.402Z</time></trkpt><trkpt lat="54.7220624" lon="-2.3512481"><ele>599.0</ele><time>2026-05-02T13:46:47.402Z</time></trkpt><trkpt lat="54.7222457" lon="-2.3514991"><ele>596.0</ele><time>2026-05-02T13:46:49.402Z</time></trkpt><trkpt lat="54.7224636" lon="-2.3516705"><ele>596.0</ele><time>2026-05-02T13:46:51.402Z</time></trkpt><trkpt lat="54.722708" lon="-2.3517925"><ele>596.0</ele><time>2026-05-02T13:46:53.402Z</time></trkpt><trkpt lat="54.7268077" lon="-2.3526387"><ele>591.0</ele><time>2026-05-02T13:47:25.403Z</time></trkpt><trkpt lat="54.7269567" lon="-2.3526094"><ele>586.0</ele><time>2026-05-02T13:47:26.773Z</time></trkpt><trkpt lat="54.7275752" lon="-2.3523353"><ele>584.0</ele><time>2026-05-02T13:47:31.402Z</time></trkpt><trkpt lat="54.7278832" lon="-2.3520504"><ele>582.0</ele><time>2026-05-02T13:47:33.403Z</time></trkpt><trkpt lat="54.7281407" lon="-2.3517872"><ele>582.0</ele><time>2026-05-02T13:47:35.402Z</time></trkpt><trkpt lat="54.7283836" lon="-2.3517308"><ele>582.0</ele><time>2026-05-02T13:47:37.403Z</time></trkpt><trkpt lat="54.7285939" lon="-2.3519475"><ele>581.0</ele><time>2026-05-02T13:47:39.402Z</time></trkpt><trkpt lat="54.7287947" lon="-2.3523545"><ele>580.0</ele><time>2026-05-02T13:47:41.402Z</time></trkpt><trkpt lat="54.7290813" lon="-2.3527439"><ele>578.0</ele><time>2026-05-02T13:47:43.402Z</time></trkpt><trkpt lat="54.7294326" lon="-2.3531354"><ele>576.0</ele><time>2026-05-02T13:47:45.403Z</time></trkpt><trkpt lat="54.7297962" lon="-2.3535255"><ele>572.5</ele><time>2026-05-02T13:47:47.406Z</time></trkpt><trkpt lat="54.7301761" lon="-2.3539305"><ele>569.0</ele><time>2026-05-02T13:47:49.403Z</time></trkpt><trkpt lat="54.7305726" lon="-2.3543407"><ele>556.0</ele><time>2026-05-02T13:47:51.405Z</time></trkpt><trkpt lat="54.731004" lon="-2.3547122"><ele>560.0</ele><time>2026-05-02T13:47:53.404Z</time></trkpt><trkpt lat="54.7314563" lon="-2.3550258"><ele>562.0</ele><time>2026-05-02T13:47:55.403Z</time></trkpt><trkpt lat="54.7319283" lon="-2.3553381"><ele>550.0</ele><time>2026-05-02T13:47:57.403Z</time></trkpt><trkpt lat="54.7324268" lon="-2.3556754"><ele>552.0</ele><time>2026-05-02T13:47:59.403Z</time></trkpt><trkpt lat="54.7329211" lon="-2.356048"><ele>543.0</ele><time>2026-05-02T13:48:01.402Z</time></trkpt><trkpt lat="54.7334002" lon="-2.3564712"><ele>545.0</ele><time>2026-05-02T13:48:03.402Z</time></trkpt><trkpt lat="54.733888" lon="-2.3569112"><ele>536.0</ele><time>2026-05-02T13:48:05.403Z</time></trkpt><trkpt lat="54.7343712" lon="-2.3573286"><ele>541.0</ele><time>2026-05-02T13:48:07.403Z</time></trkpt><trkpt lat="54.7348488" lon="-2.3577518"><ele>536.0</ele><time>2026-05-02T13:48:09.402Z</time></trkpt><trkpt lat="54.7353049" lon="-2.3582103"><ele>536.0</ele><time>2026-05-02T13:48:11.402Z</time></trkpt><trkpt lat="54.735741" lon="-2.3587174"><ele>537.0</ele><time>2026-05-02T13:48:13.406Z</time></trkpt><trkpt lat="54.7361506" lon="-2.3592716"><ele>527.0</ele><time>2026-05-02T13:48:15.402Z</time></trkpt><trkpt lat="54.7365347" lon="-2.3598534"><ele>536.0</ele><time>2026-05-02T13:48:17.402Z</time></trkpt><trkpt lat="54.7368982" lon="-2.3604108"><ele>524.0</ele><time>2026-05-02T13:48:19.403Z</time></trkpt><trkpt lat="54.7372785" lon="-2.3609345"><ele>515.0</ele><time>2026-05-02T13:48:21.402Z</time></trkpt><trkpt lat="54.737688" lon="-2.3614104"><ele>520.0</ele><time>2026-05-02T13:48:23.402Z</time></trkpt><trkpt lat="54.7381039" lon="-2.361825"><ele>512.0</ele><time>2026-05-02T13:48:25.402Z</time></trkpt><trkpt lat="54.7385024" lon="-2.3622068"><ele>515.0</ele><time>2026-05-02T13:48:27.402Z</time></trkpt><trkpt lat="54.7389126" lon="-2.3625547"><ele>515.0</ele><time>2026-05-02T13:48:29.403Z</time></trkpt><trkpt lat="54.7393817" lon="-2.3628319"><ele>506.0</ele><time>2026-05-02T13:48:31.405Z</time></trkpt><trkpt lat="54.7398854" lon="-2.3630846"><ele>504.0</ele><time>2026-05-02T13:48:33.402Z</time></trkpt><trkpt lat="54.7403951" lon="-2.3633299"><ele>504.0</ele><time>2026-05-02T13:48:35.402Z</time></trkpt><trkpt lat="54.7409197" lon="-2.3635803"><ele>505.0</ele><time>2026-05-02T13:48:37.402Z</time></trkpt><trkpt lat="54.7414543" lon="-2.3638356"><ele>497.0</ele><time>2026-05-02T13:48:39.403Z</time></trkpt><trkpt lat="54.7419752" lon="-2.3641773"><ele>497.0</ele><time>2026-05-02T13:48:41.402Z</time></trkpt><trkpt lat="54.7424662" lon="-2.3646355"><ele>493.0</ele><time>2026-05-02T13:48:43.403Z</time></trkpt><trkpt lat="54.7429631" lon="-2.365083"><ele>493.0</ele><time>2026-05-02T13:48:45.403Z</time></trkpt><trkpt lat="54.7434757" lon="-2.3654876"><ele>486.0</ele><time>2026-05-02T13:48:47.405Z</time></trkpt><trkpt lat="54.7439979" lon="-2.3658407"><ele>487.0</ele><time>2026-05-02T13:48:49.402Z</time></trkpt><trkpt lat="54.7445223" lon="-2.3661818"><ele>481.0</ele><time>2026-05-02T13:48:51.403Z</time></trkpt><trkpt lat="54.7450404" lon="-2.3665724"><ele>483.0</ele><time>2026-05-02T13:48:53.402Z</time></trkpt><trkpt lat="54.7455526" lon="-2.366961"><ele>478.0</ele><time>2026-05-02T13:48:55.402Z</time></trkpt><trkpt lat="54.7460633" lon="-2.3673455"><ele>478.0</ele><time>2026-05-02T13:48:57.404Z</time></trkpt><trkpt lat="54.746568" lon="-2.3677238"><ele>473.0</ele><time>2026-05-02T13:48:59.406Z</time></trkpt><trkpt lat="54.7470727" lon="-2.368111"><ele>473.0</ele><time>2026-05-02T13:49:01.402Z</time></trkpt><trkpt lat="54.7475984" lon="-2.3684726"><ele>473.0</ele><time>2026-05-02T13:49:03.402Z</time></trkpt><trkpt lat="54.7481243" lon="-2.3687953"><ele>467.0</ele><time>2026-05-02T13:49:05.403Z</time></trkpt><trkpt lat="54.7486293" lon="-2.3691362"><ele>467.0</ele><time>2026-05-02T13:49:07.402Z</time></trkpt><trkpt lat="54.7491301" lon="-2.3694775"><ele>463.0</ele><time>2026-05-02T13:49:09.405Z</time></trkpt><trkpt lat="54.7496336" lon="-2.3697863"><ele>463.0</ele><time>2026-05-02T13:49:11.403Z</time></trkpt><trkpt lat="54.7501373" lon="-2.370105"><ele>469.0</ele><time>2026-05-02T13:49:13.402Z</time></trkpt><trkpt lat="54.7506543" lon="-2.3704119"><ele>460.0</ele><time>2026-05-02T13:49:15.402Z</time></trkpt><trkpt lat="54.751182" lon="-2.3707063"><ele>460.0</ele><time>2026-05-02T13:49:17.402Z</time></trkpt><trkpt lat="54.7516949" lon="-2.3710675"><ele>453.0</ele><time>2026-05-02T13:49:19.406Z</time></trkpt><trkpt lat="54.7521901" lon="-2.3715023"><ele>453.0</ele><time>2026-05-02T13:49:21.403Z</time></trkpt><trkpt lat="54.7526715" lon="-2.3719578"><ele>448.0</ele><time>2026-05-02T13:49:23.402Z</time></trkpt><trkpt lat="54.753136" lon="-2.3723924"><ele>450.0</ele><time>2026-05-02T13:49:25.402Z</time></trkpt><trkpt lat="54.7536017" lon="-2.3728092"><ele>441.0</ele><time>2026-05-02T13:49:27.404Z</time></trkpt><trkpt lat="54.7540772" lon="-2.3731812"><ele>442.0</ele><time>2026-05-02T13:49:29.404Z</time></trkpt><trkpt lat="54.7545548" lon="-2.3735559"><ele>437.0</ele><time>2026-05-02T13:49:31.403Z</time></trkpt><trkpt lat="54.7550333" lon="-2.3739383"><ele>436.0</ele><time>2026-05-02T13:49:33.402Z</time></trkpt><trkpt lat="54.7555035" lon="-2.3743342"><ele>431.0</ele><time>2026-05-02T13:49:35.405Z</time></trkpt><trkpt lat="54.7559602" lon="-2.3747038"><ele>433.0</ele><time>2026-05-02T13:49:37.403Z</time></trkpt><trkpt lat="54.7564286" lon="-2.3750017"><ele>433.0</ele><time>2026-05-02T13:49:39.403Z</time></trkpt><trkpt lat="54.7568733" lon="-2.3752369"><ele>433.0</ele><time>2026-05-02T13:49:41.403Z</time></trkpt><trkpt lat="54.7572554" lon="-2.3754559"><ele>433.0</ele><time>2026-05-02T13:49:43.403Z</time></trkpt><trkpt lat="54.7575558" lon="-2.3757114"><ele>429.0</ele><time>2026-05-02T13:49:45.403Z</time></trkpt><trkpt lat="54.7578117" lon="-2.3759505"><ele>425.0</ele><time>2026-05-02T13:49:47.402Z</time></trkpt><trkpt lat="54.7581028" lon="-2.3760791"><ele>425.0</ele><time>2026-05-02T13:49:49.404Z</time></trkpt><trkpt lat="54.7584375" lon="-2.3760818"><ele>425.0</ele><time>2026-05-02T13:49:51.406Z</time></trkpt><trkpt lat="54.7587304" lon="-2.3760765"><ele>424.66666666666663</ele><time>2026-05-02T13:49:53.406Z</time></trkpt><trkpt lat="54.7589346" lon="-2.3761635"><ele>424.33333333333337</ele><time>2026-05-02T13:49:55.402Z</time></trkpt><trkpt lat="54.7590707" lon="-2.3764702"><ele>424.0</ele><time>2026-05-02T13:49:57.407Z</time></trkpt><trkpt lat="54.7591777" lon="-2.3769251"><ele>421.5</ele><time>2026-05-02T13:49:59.403Z</time></trkpt><trkpt lat="54.7593121" lon="-2.3774478"><ele>419.0</ele><time>2026-05-02T13:50:01.403Z</time></trkpt><trkpt lat="54.7595213" lon="-2.3779648"><ele>425.5</ele><time>2026-05-02T13:50:03.402Z</time></trkpt><trkpt lat="54.7598238" lon="-2.3783816"><ele>432.0</ele><time>2026-05-02T13:50:05.402Z</time></trkpt><trkpt lat="54.7601856" lon="-2.3787598"><ele>432.5</ele><time>2026-05-02T13:50:07.402Z</time></trkpt><trkpt lat="54.7605329" lon="-2.379239"><ele>433.0</ele><time>2026-05-02T13:50:09.407Z</time></trkpt><trkpt lat="54.7608658" lon="-2.3797397"><ele>441.0</ele><time>2026-05-02T13:50:11.406Z</time></trkpt><trkpt lat="54.7612104" lon="-2.3802449"><ele>435.0</ele><time>2026-05-02T13:50:13.407Z</time></trkpt><trkpt lat="54.7615619" lon="-2.3807689"><ele>444.0</ele><time>2026-05-02T13:50:15.404Z</time></trkpt><trkpt lat="54.7619257" lon="-2.3813005"><ele>437.0</ele><time>2026-05-02T13:50:17.403Z</time></trkpt><trkpt lat="54.7623036" lon="-2.3818545"><ele>431.0</ele><time>2026-05-02T13:50:19.402Z</time></trkpt><trkpt lat="54.7626812" lon="-2.3824148"><ele>437.0</ele><time>2026-05-02T13:50:21.406Z</time></trkpt><trkpt lat="54.7630513" lon="-2.3829751"><ele>432.0</ele><time>2026-05-02T13:50:23.407Z</time></trkpt><trkpt lat="54.7634238" lon="-2.3835334"><ele>434.0</ele><time>2026-05-02T13:50:25.404Z</time></trkpt><trkpt lat="54.7638058" lon="-2.3840913"><ele>434.0</ele><time>2026-05-02T13:50:27.403Z</time></trkpt><trkpt lat="54.7641868" lon="-2.3846598"><ele>435.0</ele><time>2026-05-02T13:50:29.403Z</time></trkpt><trkpt lat="54.7645592" lon="-2.3852292"><ele>430.0</ele><time>2026-05-02T13:50:31.403Z</time></trkpt><trkpt lat="54.764926" lon="-2.3857841"><ele>435.0</ele><time>2026-05-02T13:50:33.402Z</time></trkpt><trkpt lat="54.765278" lon="-2.3863036"><ele>434.5</ele><time>2026-05-02T13:50:35.403Z</time></trkpt><trkpt lat="54.7656329" lon="-2.3867088"><ele>434.0</ele><time>2026-05-02T13:50:37.402Z</time></trkpt><trkpt lat="54.7660551" lon="-2.3869671"><ele>427.0</ele><time>2026-05-02T13:50:39.402Z</time></trkpt><trkpt lat="54.7665148" lon="-2.3872116"><ele>434.0</ele><time>2026-05-02T13:50:41.403Z</time></trkpt><trkpt lat="54.7669751" lon="-2.3875235"><ele>434.0</ele><time>2026-05-02T13:50:43.402Z</time></trkpt><trkpt lat="54.7674173" lon="-2.3878835"><ele>434.0</ele><time>2026-05-02T13:50:45.406Z</time></trkpt><trkpt lat="54.7678552" lon="-2.3882007"><ele>434.0</ele><time>2026-05-02T13:50:47.402Z</time></trkpt><trkpt lat="54.7683191" lon="-2.3883849"><ele>437.0</ele><time>2026-05-02T13:50:49.403Z</time></trkpt><trkpt lat="54.7687906" lon="-2.3885802"><ele>437.0</ele><time>2026-05-02T13:50:51.403Z</time></trkpt><trkpt lat="54.7692743" lon="-2.3888268"><ele>434.0</ele><time>2026-05-02T13:50:53.402Z</time></trkpt><trkpt lat="54.7697678" lon="-2.3890648"><ele>438.0</ele><time>2026-05-02T13:50:55.403Z</time></trkpt><trkpt lat="54.7702671" lon="-2.3892937"><ele>438.0</ele><time>2026-05-02T13:50:57.402Z</time></trkpt><trkpt lat="54.7707587" lon="-2.3895305"><ele>436.0</ele><time>2026-05-02T13:50:59.403Z</time></trkpt><trkpt lat="54.7712322" lon="-2.3897885"><ele>436.0</ele><time>2026-05-02T13:51:01.402Z</time></trkpt><trkpt lat="54.7716851" lon="-2.3901325"><ele>440.0</ele><time>2026-05-02T13:51:03.403Z</time></trkpt><trkpt lat="54.7721269" lon="-2.3904968"><ele>438.5</ele><time>2026-05-02T13:51:05.403Z</time></trkpt><trkpt lat="54.7725325" lon="-2.3907824"><ele>437.0</ele><time>2026-05-02T13:51:07.403Z</time></trkpt><trkpt lat="54.7729066" lon="-2.3910259"><ele>437.0</ele><time>2026-05-02T13:51:09.406Z</time></trkpt><trkpt lat="54.7732343" lon="-2.3912329"><ele>437.0</ele><time>2026-05-02T13:51:11.407Z</time></trkpt><trkpt lat="54.7735564" lon="-2.3913399"><ele>436.5</ele><time>2026-05-02T13:51:13.403Z</time></trkpt><trkpt lat="54.7739229" lon="-2.3912602"><ele>436.0</ele><time>2026-05-02T13:51:15.403Z</time></trkpt><trkpt lat="54.7743201" lon="-2.3911037"><ele>434.6666666666667</ele><time>2026-05-02T13:51:17.405Z</time></trkpt><trkpt lat="54.7745191" lon="-2.3910295"><ele>433.33333333333337</ele><time>2026-05-02T13:51:18.406Z</time></trkpt><trkpt lat="54.7747015" lon="-2.3909618"><ele>432.0</ele><time>2026-05-02T13:51:19.403Z</time></trkpt><trkpt lat="54.7748645" lon="-2.3909012"><ele>432.0</ele><time>2026-05-02T13:51:20.403Z</time></trkpt><trkpt lat="54.7750112" lon="-2.3908235"><ele>432.0</ele><time>2026-05-02T13:51:21.404Z</time></trkpt><trkpt lat="54.7753043" lon="-2.3905625"><ele>431.66666666666663</ele><time>2026-05-02T13:51:23.403Z</time></trkpt><trkpt lat="54.7754436" lon="-2.3903748"><ele>431.3333333333333</ele><time>2026-05-02T13:51:24.403Z</time></trkpt><trkpt lat="54.7755809" lon="-2.3901818"><ele>431.0</ele><time>2026-05-02T13:51:25.402Z</time></trkpt><trkpt lat="54.775716" lon="-2.3900018"><ele>431.0</ele><time>2026-05-02T13:51:26.402Z</time></trkpt><trkpt lat="54.7758406" lon="-2.3898439"><ele>431.0</ele><time>2026-05-02T13:51:27.403Z</time></trkpt><trkpt lat="54.7759499" lon="-2.389714"><ele>431.0</ele><time>2026-05-02T13:51:28.41Z</time></trkpt><trkpt lat="54.7760475" lon="-2.3896263"><ele>431.0</ele><time>2026-05-02T13:51:29.403Z</time></trkpt><trkpt lat="54.7761422" lon="-2.3895972"><ele>431.75</ele><time>2026-05-02T13:51:30.402Z</time></trkpt><trkpt lat="54.776242" lon="-2.3896238"><ele>432.5</ele><time>2026-05-02T13:51:31.403Z</time></trkpt><trkpt lat="54.7763376" lon="-2.3897338"><ele>433.25</ele><time>2026-05-02T13:51:32.402Z</time></trkpt><trkpt lat="54.7764167" lon="-2.3899448"><ele>434.0</ele><time>2026-05-02T13:51:33.403Z</time></trkpt><trkpt lat="54.7764717" lon="-2.3902134"><ele>435.3333333333333</ele><time>2026-05-02T13:51:34.402Z</time></trkpt><trkpt lat="54.7765073" lon="-2.3905084"><ele>436.66666666666663</ele><time>2026-05-02T13:51:35.402Z</time></trkpt><trkpt lat="54.7765439" lon="-2.390833"><ele>438.0</ele><time>2026-05-02T13:51:36.406Z</time></trkpt><trkpt lat="54.7765848" lon="-2.3911795"><ele>438.0</ele><time>2026-05-02T13:51:37.403Z</time></trkpt><trkpt lat="54.7766299" lon="-2.3915395"><ele>438.0</ele><time>2026-05-02T13:51:38.403Z</time></trkpt><trkpt lat="54.7766778" lon="-2.3919122"><ele>438.0</ele><time>2026-05-02T13:51:39.403Z</time></trkpt><trkpt lat="54.7767291" lon="-2.3922862"><ele>438.33333333333337</ele><time>2026-05-02T13:51:40.406Z</time></trkpt><trkpt lat="54.7767825" lon="-2.392653"><ele>438.6666666666667</ele><time>2026-05-02T13:51:41.403Z</time></trkpt><trkpt lat="54.7768347" lon="-2.3930153"><ele>439.0</ele><time>2026-05-02T13:51:42.402Z</time></trkpt><trkpt lat="54.7768851" lon="-2.3933829"><ele>446.0</ele><time>2026-05-02T13:51:43.402Z</time></trkpt><trkpt lat="54.7769221" lon="-2.3937622"><ele>453.0</ele><time>2026-05-02T13:51:44.402Z</time></trkpt><trkpt lat="54.776933" lon="-2.394558"><ele>453.5</ele><time>2026-05-02T13:51:46.405Z</time></trkpt><trkpt lat="54.7769237" lon="-2.394968"><ele>454.0</ele><time>2026-05-02T13:51:47.405Z</time></trkpt><trkpt lat="54.7769276" lon="-2.3953689"><ele>454.5</ele><time>2026-05-02T13:51:48.403Z</time></trkpt><trkpt lat="54.7769511" lon="-2.3957588"><ele>455.0</ele><time>2026-05-02T13:51:49.402Z</time></trkpt><trkpt lat="54.7769967" lon="-2.3961408"><ele>455.0</ele><time>2026-05-02T13:51:50.403Z</time></trkpt><trkpt lat="54.777065" lon="-2.3965104"><ele>455.0</ele><time>2026-05-02T13:51:51.402Z</time></trkpt><trkpt lat="54.7771435" lon="-2.396874"><ele>455.0</ele><time>2026-05-02T13:51:52.404Z</time></trkpt><trkpt lat="54.7772292" lon="-2.3972367"><ele>455.5</ele><time>2026-05-02T13:51:53.403Z</time></trkpt><trkpt lat="54.7773214" lon="-2.397606"><ele>456.0</ele><time>2026-05-02T13:51:54.406Z</time></trkpt><trkpt lat="54.7774963" lon="-2.3983338"><ele>456.0</ele><time>2026-05-02T13:51:56.403Z</time></trkpt><trkpt lat="54.7775827" lon="-2.3986888"><ele>456.0</ele><time>2026-05-02T13:51:57.408Z</time></trkpt><trkpt lat="54.777668" lon="-2.3990322"><ele>456.0</ele><time>2026-05-02T13:51:58.402Z</time></trkpt><trkpt lat="54.7777489" lon="-2.3993626"><ele>459.0</ele><time>2026-05-02T13:51:59.402Z</time></trkpt><trkpt lat="54.7778284" lon="-2.3996832"><ele>462.0</ele><time>2026-05-02T13:52:00.406Z</time></trkpt><trkpt lat="54.7779143" lon="-2.4000011"><ele>465.0</ele><time>2026-05-02T13:52:01.406Z</time></trkpt><trkpt lat="54.778015" lon="-2.4003109"><ele>463.33333333333337</ele><time>2026-05-02T13:52:02.41Z</time></trkpt><trkpt lat="54.7781331" lon="-2.4006115"><ele>461.6666666666667</ele><time>2026-05-02T13:52:03.405Z</time></trkpt><trkpt lat="54.7782638" lon="-2.4009028"><ele>460.0</ele><time>2026-05-02T13:52:04.405Z</time></trkpt><trkpt lat="54.7783906" lon="-2.401193"><ele>461.0</ele><time>2026-05-02T13:52:05.405Z</time></trkpt><trkpt lat="54.7786056" lon="-2.4018401"><ele>462.0</ele><time>2026-05-02T13:52:07.403Z</time></trkpt><trkpt lat="54.7787" lon="-2.402182"><ele>462.0</ele><time>2026-05-02T13:52:08.404Z</time></trkpt><trkpt lat="54.7787919" lon="-2.4025175"><ele>462.0</ele><time>2026-05-02T13:52:09.402Z</time></trkpt><trkpt lat="54.7788826" lon="-2.4028388"><ele>462.0</ele><time>2026-05-02T13:52:10.402Z</time></trkpt><trkpt lat="54.7789775" lon="-2.403148"><ele>461.0</ele><time>2026-05-02T13:52:11.402Z</time></trkpt><trkpt lat="54.7790896" lon="-2.4034532"><ele>460.0</ele><time>2026-05-02T13:52:12.402Z</time></trkpt><trkpt lat="54.7792218" lon="-2.4037568"><ele>459.0</ele><time>2026-05-02T13:52:13.404Z</time></trkpt><trkpt lat="54.7793707" lon="-2.4040558"><ele>459.0</ele><time>2026-05-02T13:52:14.404Z</time></trkpt><trkpt lat="54.7795299" lon="-2.4043557"><ele>459.0</ele><time>2026-05-02T13:52:15.405Z</time></trkpt><trkpt lat="54.7796945" lon="-2.4046636"><ele>455.0</ele><time>2026-05-02T13:52:16.407Z</time></trkpt><trkpt lat="54.7798632" lon="-2.4049804"><ele>451.0</ele><time>2026-05-02T13:52:17.405Z</time></trkpt><trkpt lat="54.780029" lon="-2.4052922"><ele>454.0</ele><time>2026-05-02T13:52:18.403Z</time></trkpt><trkpt lat="54.7801882" lon="-2.4056045"><ele>457.0</ele><time>2026-05-02T13:52:19.403Z</time></trkpt><trkpt lat="54.7803347" lon="-2.4059259"><ele>453.0</ele><time>2026-05-02T13:52:20.402Z</time></trkpt><trkpt lat="54.7805685" lon="-2.4066338"><ele>453.0</ele><time>2026-05-02T13:52:22.402Z</time></trkpt><trkpt lat="54.7806602" lon="-2.4070059"><ele>453.0</ele><time>2026-05-02T13:52:23.402Z</time></trkpt><trkpt lat="54.7807569" lon="-2.4073763"><ele>451.5</ele><time>2026-05-02T13:52:24.402Z</time></trkpt><trkpt lat="54.7808698" lon="-2.4077432"><ele>450.0</ele><time>2026-05-02T13:52:25.402Z</time></trkpt><trkpt lat="54.7809958" lon="-2.4081015"><ele>454.0</ele><time>2026-05-02T13:52:26.402Z</time></trkpt><trkpt lat="54.7811286" lon="-2.4084498"><ele>458.0</ele><time>2026-05-02T13:52:27.403Z</time></trkpt><trkpt lat="54.7812671" lon="-2.4087937"><ele>454.5</ele><time>2026-05-02T13:52:28.402Z</time></trkpt><trkpt lat="54.7814112" lon="-2.409137"><ele>451.0</ele><time>2026-05-02T13:52:29.402Z</time></trkpt><trkpt lat="54.7815518" lon="-2.4094833"><ele>451.5</ele><time>2026-05-02T13:52:30.402Z</time></trkpt><trkpt lat="54.7816883" lon="-2.4098329"><ele>452.0</ele><time>2026-05-02T13:52:31.406Z</time></trkpt><trkpt lat="54.7819202" lon="-2.4105984"><ele>452.0</ele><time>2026-05-02T13:52:33.403Z</time></trkpt><trkpt lat="54.7820061" lon="-2.4110118"><ele>452.0</ele><time>2026-05-02T13:52:34.403Z</time></trkpt><trkpt lat="54.7820827" lon="-2.4114236"><ele>450.0</ele><time>2026-05-02T13:52:35.403Z</time></trkpt><trkpt lat="54.7821615" lon="-2.4118277"><ele>448.0</ele><time>2026-05-02T13:52:36.407Z</time></trkpt><trkpt lat="54.7822428" lon="-2.412228"><ele>446.5</ele><time>2026-05-02T13:52:37.407Z</time></trkpt><trkpt lat="54.7823206" lon="-2.4126145"><ele>445.0</ele><time>2026-05-02T13:52:38.403Z</time></trkpt><trkpt lat="54.7823941" lon="-2.4129922"><ele>443.0</ele><time>2026-05-02T13:52:39.406Z</time></trkpt><trkpt lat="54.782467" lon="-2.4133714"><ele>441.0</ele><time>2026-05-02T13:52:40.401Z</time></trkpt><trkpt lat="54.7825434" lon="-2.413763"><ele>446.0</ele><time>2026-05-02T13:52:41.403Z</time></trkpt><trkpt lat="54.7827105" lon="-2.4145844"><ele>445.5</ele><time>2026-05-02T13:52:43.403Z</time></trkpt><trkpt lat="54.7827969" lon="-2.4150096"><ele>445.0</ele><time>2026-05-02T13:52:44.404Z</time></trkpt><trkpt lat="54.7828783" lon="-2.4154397"><ele>443.5</ele><time>2026-05-02T13:52:45.402Z</time></trkpt><trkpt lat="54.7829599" lon="-2.4158711"><ele>442.0</ele><time>2026-05-02T13:52:46.407Z</time></trkpt><trkpt lat="54.7830412" lon="-2.4162955"><ele>441.5</ele><time>2026-05-02T13:52:47.403Z</time></trkpt><trkpt lat="54.7831241" lon="-2.4167132"><ele>441.0</ele><time>2026-05-02T13:52:48.402Z</time></trkpt><trkpt lat="54.7832074" lon="-2.4171208"><ele>439.5</ele><time>2026-05-02T13:52:49.403Z</time></trkpt><trkpt lat="54.7832892" lon="-2.4175204"><ele>438.0</ele><time>2026-05-02T13:52:50.402Z</time></trkpt><trkpt lat="54.7833706" lon="-2.4179107"><ele>436.5</ele><time>2026-05-02T13:52:51.403Z</time></trkpt><trkpt lat="54.7834506" lon="-2.4182952"><ele>435.0</ele><time>2026-05-02T13:52:52.403Z</time></trkpt><trkpt lat="54.7835275" lon="-2.4186722"><ele>436.0</ele><time>2026-05-02T13:52:53.402Z</time></trkpt><trkpt lat="54.7836011" lon="-2.419042"><ele>437.0</ele><time>2026-05-02T13:52:54.407Z</time></trkpt><trkpt lat="54.7836713" lon="-2.4193928"><ele>438.0</ele><time>2026-05-02T13:52:55.403Z</time></trkpt><trkpt lat="54.7837421" lon="-2.4197345"><ele>438.0</ele><time>2026-05-02T13:52:56.403Z</time></trkpt><trkpt lat="54.7838109" lon="-2.4200823"><ele>438.0</ele><time>2026-05-02T13:52:57.402Z</time></trkpt><trkpt lat="54.7838793" lon="-2.4204316"><ele>438.0</ele><time>2026-05-02T13:52:58.403Z</time></trkpt><trkpt lat="54.7839436" lon="-2.4207674"><ele>436.66666666666663</ele><time>2026-05-02T13:52:59.404Z</time></trkpt><trkpt lat="54.784" lon="-2.4210798"><ele>435.3333333333333</ele><time>2026-05-02T13:53:00.404Z</time></trkpt><trkpt lat="54.7840516" lon="-2.4213583"><ele>434.0</ele><time>2026-05-02T13:53:01.402Z</time></trkpt><trkpt lat="54.7841008" lon="-2.4216067"><ele>433.25</ele><time>2026-05-02T13:53:02.406Z</time></trkpt><trkpt lat="54.7841457" lon="-2.4218294"><ele>432.5</ele><time>2026-05-02T13:53:03.404Z</time></trkpt><trkpt lat="54.7842002" lon="-2.4220342"><ele>431.75</ele><time>2026-05-02T13:53:04.407Z</time></trkpt><trkpt lat="54.7842659" lon="-2.4222213"><ele>431.0</ele><time>2026-05-02T13:53:05.405Z</time></trkpt><trkpt lat="54.784345" lon="-2.4223919"><ele>429.75</ele><time>2026-05-02T13:53:06.406Z</time></trkpt><trkpt lat="54.7844365" lon="-2.4225423"><ele>428.5</ele><time>2026-05-02T13:53:07.407Z</time></trkpt><trkpt lat="54.7845383" lon="-2.4226712"><ele>427.25</ele><time>2026-05-02T13:53:08.406Z</time></trkpt><trkpt lat="54.7846462" lon="-2.4227743"><ele>426.0</ele><time>2026-05-02T13:53:09.406Z</time></trkpt><trkpt lat="54.7847584" lon="-2.4228453"><ele>426.0</ele><time>2026-05-02T13:53:10.406Z</time></trkpt><trkpt lat="54.7848681" lon="-2.4228992"><ele>426.0</ele><time>2026-05-02T13:53:11.406Z</time></trkpt><trkpt lat="54.7849816" lon="-2.4229419"><ele>426.0</ele><time>2026-05-02T13:53:12.406Z</time></trkpt><trkpt lat="54.785103" lon="-2.4229772"><ele>426.0</ele><time>2026-05-02T13:53:13.403Z</time></trkpt><trkpt lat="54.7852297" lon="-2.4230058"><ele>424.25</ele><time>2026-05-02T13:53:14.402Z</time></trkpt><trkpt lat="54.7853607" lon="-2.423032"><ele>422.5</ele><time>2026-05-02T13:53:15.406Z</time></trkpt><trkpt lat="54.7854969" lon="-2.4230514"><ele>420.75</ele><time>2026-05-02T13:53:16.402Z</time></trkpt><trkpt lat="54.7856419" lon="-2.4230602"><ele>419.0</ele><time>2026-05-02T13:53:17.403Z</time></trkpt><trkpt lat="54.7857904" lon="-2.4230606"><ele>419.0</ele><time>2026-05-02T13:53:18.406Z</time></trkpt><trkpt lat="54.7859359" lon="-2.423061"><ele>419.0</ele><time>2026-05-02T13:53:19.402Z</time></trkpt><trkpt lat="54.7860755" lon="-2.4230623"><ele>419.0</ele><time>2026-05-02T13:53:20.403Z</time></trkpt><trkpt lat="54.7862083" lon="-2.4230571"><ele>419.0</ele><time>2026-05-02T13:53:21.407Z</time></trkpt><trkpt lat="54.7863389" lon="-2.4230429"><ele>418.0</ele><time>2026-05-02T13:53:22.406Z</time></trkpt><trkpt lat="54.7864704" lon="-2.4230225"><ele>417.0</ele><time>2026-05-02T13:53:23.406Z</time></trkpt><trkpt lat="54.7866049" lon="-2.423002"><ele>416.0</ele><time>2026-05-02T13:53:24.406Z</time></trkpt><trkpt lat="54.7867428" lon="-2.4229865"><ele>415.0</ele><time>2026-05-02T13:53:25.406Z</time></trkpt><trkpt lat="54.7868879" lon="-2.4229829"><ele>415.0</ele><time>2026-05-02T13:53:26.406Z</time></trkpt><trkpt lat="54.7870347" lon="-2.422995"><ele>415.0</ele><time>2026-05-02T13:53:27.403Z</time></trkpt><trkpt lat="54.7871795" lon="-2.4230271"><ele>415.0</ele><time>2026-05-02T13:53:28.404Z</time></trkpt><trkpt lat="54.7873162" lon="-2.4230731"><ele>415.0</ele><time>2026-05-02T13:53:29.407Z</time></trkpt><trkpt lat="54.787442" lon="-2.4231364"><ele>415.0</ele><time>2026-05-02T13:53:30.403Z</time></trkpt><trkpt lat="54.7876584" lon="-2.4232944"><ele>415.0</ele><time>2026-05-02T13:53:32.404Z</time></trkpt><trkpt lat="54.787769" lon="-2.4233769"><ele>415.0</ele><time>2026-05-02T13:53:33.406Z</time></trkpt><trkpt lat="54.7878903" lon="-2.4234638"><ele>414.75</ele><time>2026-05-02T13:53:34.402Z</time></trkpt><trkpt lat="54.7880228" lon="-2.4235522"><ele>414.5</ele><time>2026-05-02T13:53:35.403Z</time></trkpt><trkpt lat="54.7881592" lon="-2.4236459"><ele>414.25</ele><time>2026-05-02T13:53:36.402Z</time></trkpt><trkpt lat="54.7883016" lon="-2.4237417"><ele>414.0</ele><time>2026-05-02T13:53:37.406Z</time></trkpt><trkpt lat="54.7884488" lon="-2.4238274"><ele>413.25</ele><time>2026-05-02T13:53:38.406Z</time></trkpt><trkpt lat="54.7885962" lon="-2.423895"><ele>412.5</ele><time>2026-05-02T13:53:39.406Z</time></trkpt><trkpt lat="54.7887372" lon="-2.4239358"><ele>411.75</ele><time>2026-05-02T13:53:40.402Z</time></trkpt><trkpt lat="54.7888742" lon="-2.4239601"><ele>411.0</ele><time>2026-05-02T13:53:41.405Z</time></trkpt><trkpt lat="54.789002" lon="-2.4239781"><ele>411.0</ele><time>2026-05-02T13:53:42.406Z</time></trkpt><trkpt lat="54.789125" lon="-2.4239883"><ele>411.0</ele><time>2026-05-02T13:53:43.407Z</time></trkpt><trkpt lat="54.7892467" lon="-2.4240067"><ele>411.0</ele><time>2026-05-02T13:53:44.407Z</time></trkpt><trkpt lat="54.78938" lon="-2.4240283"><ele>411.0</ele><time>2026-05-02T13:53:45.403Z</time></trkpt><trkpt lat="54.7895217" lon="-2.42405"><ele>410.5</ele><time>2026-05-02T13:53:46.402Z</time></trkpt><trkpt lat="54.7896633" lon="-2.4240683"><ele>410.0</ele><time>2026-05-02T13:53:47.403Z</time></trkpt><trkpt lat="54.7898" lon="-2.4240867"><ele>409.5</ele><time>2026-05-02T13:53:48.406Z</time></trkpt><trkpt lat="54.789935" lon="-2.4241017"><ele>409.0</ele><time>2026-05-02T13:53:49.402Z</time></trkpt><trkpt lat="54.7900833" lon="-2.4241217"><ele>407.6666666666667</ele><time>2026-05-02T13:53:50.403Z</time></trkpt><trkpt lat="54.790245" lon="-2.4241383"><ele>406.33333333333337</ele><time>2026-05-02T13:53:51.402Z</time></trkpt><trkpt lat="54.7904083" lon="-2.424155"><ele>405.0</ele><time>2026-05-02T13:53:52.402Z</time></trkpt><trkpt lat="54.7905633" lon="-2.4241667"><ele>405.0</ele><time>2026-05-02T13:53:53.403Z</time></trkpt><trkpt lat="54.7907133" lon="-2.42418"><ele>405.0</ele><time>2026-05-02T13:53:54.402Z</time></trkpt><trkpt lat="54.7908683" lon="-2.4242017"><ele>405.0</ele><time>2026-05-02T13:53:55.405Z</time></trkpt><trkpt lat="54.7910417" lon="-2.4242217"><ele>404.33333333333337</ele><time>2026-05-02T13:53:56.404Z</time></trkpt><trkpt lat="54.7912367" lon="-2.4242533"><ele>403.6666666666667</ele><time>2026-05-02T13:53:57.402Z</time></trkpt><trkpt lat="54.7914417" lon="-2.4242833"><ele>403.0</ele><time>2026-05-02T13:53:58.403Z</time></trkpt><trkpt lat="54.79165" lon="-2.4243167"><ele>402.0</ele><time>2026-05-02T13:53:59.403Z</time></trkpt><trkpt lat="54.7918583" lon="-2.42434"><ele>401.0</ele><time>2026-05-02T13:54:00.402Z</time></trkpt><trkpt lat="54.792075" lon="-2.4243683"><ele>400.0</ele><time>2026-05-02T13:54:01.405Z</time></trkpt><trkpt lat="54.79229" lon="-2.4244017"><ele>400.0</ele><time>2026-05-02T13:54:02.402Z</time></trkpt><trkpt lat="54.79251" lon="-2.4244317"><ele>400.0</ele><time>2026-05-02T13:54:03.404Z</time></trkpt><trkpt lat="54.7927367" lon="-2.42446"><ele>400.0</ele><time>2026-05-02T13:54:04.403Z</time></trkpt><trkpt lat="54.79296" lon="-2.4244817"><ele>398.6666666666667</ele><time>2026-05-02T13:54:05.409Z</time></trkpt><trkpt lat="54.7931817" lon="-2.4245033"><ele>397.33333333333337</ele><time>2026-05-02T13:54:06.403Z</time></trkpt><trkpt lat="54.793405" lon="-2.424525"><ele>396.0</ele><time>2026-05-02T13:54:07.403Z</time></trkpt><trkpt lat="54.7938617" lon="-2.4245817"><ele>395.0</ele><time>2026-05-02T13:54:09.403Z</time></trkpt><trkpt lat="54.79409" lon="-2.4246083"><ele>394.0</ele><time>2026-05-02T13:54:10.403Z</time></trkpt><trkpt lat="54.79431" lon="-2.4246317"><ele>393.0</ele><time>2026-05-02T13:54:11.406Z</time></trkpt><trkpt lat="54.7945267" lon="-2.4246567"><ele>390.66666666666663</ele><time>2026-05-02T13:54:12.402Z</time></trkpt><trkpt lat="54.7947383" lon="-2.4246883"><ele>388.3333333333333</ele><time>2026-05-02T13:54:13.403Z</time></trkpt><trkpt lat="54.79495" lon="-2.42472"><ele>386.0</ele><time>2026-05-02T13:54:14.408Z</time></trkpt><trkpt lat="54.795165" lon="-2.4247517"><ele>385.0</ele><time>2026-05-02T13:54:15.406Z</time></trkpt><trkpt lat="54.7953833" lon="-2.4247817"><ele>384.0</ele><time>2026-05-02T13:54:16.402Z</time></trkpt><trkpt lat="54.795615" lon="-2.4248117"><ele>384.0</ele><time>2026-05-02T13:54:17.407Z</time></trkpt><trkpt lat="54.7958467" lon="-2.424845"><ele>384.0</ele><time>2026-05-02T13:54:18.403Z</time></trkpt><trkpt lat="54.7960783" lon="-2.4248783"><ele>383.0</ele><time>2026-05-02T13:54:19.402Z</time></trkpt><trkpt lat="54.796305" lon="-2.42491"><ele>382.0</ele><time>2026-05-02T13:54:20.405Z</time></trkpt><trkpt lat="54.79674" lon="-2.4249683"><ele>380.66666666666663</ele><time>2026-05-02T13:54:22.403Z</time></trkpt><trkpt lat="54.7969583" lon="-2.424995"><ele>379.3333333333333</ele><time>2026-05-02T13:54:23.407Z</time></trkpt><trkpt lat="54.7971717" lon="-2.4250183"><ele>378.0</ele><time>2026-05-02T13:54:24.402Z</time></trkpt><trkpt lat="54.79738" lon="-2.42504"><ele>378.0</ele><time>2026-05-02T13:54:25.406Z</time></trkpt><trkpt lat="54.7975733" lon="-2.42506"><ele>378.0</ele><time>2026-05-02T13:54:26.403Z</time></trkpt><trkpt lat="54.7977617" lon="-2.4250833"><ele>378.0</ele><time>2026-05-02T13:54:27.402Z</time></trkpt><trkpt lat="54.7979433" lon="-2.4251333"><ele>377.0</ele><time>2026-05-02T13:54:28.402Z</time></trkpt><trkpt lat="54.7981233" lon="-2.425225"><ele>376.0</ele><time>2026-05-02T13:54:29.404Z</time></trkpt><trkpt lat="54.7983017" lon="-2.42537"><ele>375.0</ele><time>2026-05-02T13:54:30.405Z</time></trkpt><trkpt lat="54.7984733" lon="-2.4255583"><ele>377.0</ele><time>2026-05-02T13:54:31.402Z</time></trkpt><trkpt lat="54.7986367" lon="-2.4257833"><ele>379.0</ele><time>2026-05-02T13:54:32.402Z</time></trkpt><trkpt lat="54.798795" lon="-2.4260283"><ele>381.0</ele><time>2026-05-02T13:54:33.402Z</time></trkpt><trkpt lat="54.7989583" lon="-2.4262883"><ele>380.6666666666667</ele><time>2026-05-02T13:54:34.403Z</time></trkpt><trkpt lat="54.79912" lon="-2.4265433"><ele>380.33333333333337</ele><time>2026-05-02T13:54:35.408Z</time></trkpt><trkpt lat="54.799285" lon="-2.4267983"><ele>380.0</ele><time>2026-05-02T13:54:36.403Z</time></trkpt><trkpt lat="54.7994517" lon="-2.42705"><ele>380.6666666666667</ele><time>2026-05-02T13:54:37.402Z</time></trkpt><trkpt lat="54.799615" lon="-2.4272933"><ele>381.3333333333333</ele><time>2026-05-02T13:54:38.402Z</time></trkpt><trkpt lat="54.7997767" lon="-2.4275233"><ele>382.0</ele><time>2026-05-02T13:54:39.403Z</time></trkpt><trkpt lat="54.7999317" lon="-2.4277467"><ele>382.0</ele><time>2026-05-02T13:54:40.403Z</time></trkpt><trkpt lat="54.8000833" lon="-2.4279583"><ele>382.0</ele><time>2026-05-02T13:54:41.403Z</time></trkpt><trkpt lat="54.8002383" lon="-2.4281733"><ele>382.0</ele><time>2026-05-02T13:54:42.402Z</time></trkpt><trkpt lat="54.80041" lon="-2.42839"><ele>381.66666666666663</ele><time>2026-05-02T13:54:43.403Z</time></trkpt><trkpt lat="54.8005933" lon="-2.428595"><ele>381.3333333333333</ele><time>2026-05-02T13:54:44.402Z</time></trkpt><trkpt lat="54.800775" lon="-2.4287917"><ele>381.0</ele><time>2026-05-02T13:54:45.406Z</time></trkpt><trkpt lat="54.8009583" lon="-2.4289867"><ele>377.0</ele><time>2026-05-02T13:54:46.402Z</time></trkpt><trkpt lat="54.8011517" lon="-2.4291833"><ele>373.0</ele><time>2026-05-02T13:54:47.407Z</time></trkpt><trkpt lat="54.801355" lon="-2.42938"><ele>373.0</ele><time>2026-05-02T13:54:48.403Z</time></trkpt><trkpt lat="54.8015633" lon="-2.429565"><ele>373.0</ele><time>2026-05-02T13:54:49.402Z</time></trkpt><trkpt lat="54.8019983" lon="-2.4299283"><ele>369.0</ele><time>2026-05-02T13:54:51.402Z</time></trkpt><trkpt lat="54.802225" lon="-2.430125"><ele>365.0</ele><time>2026-05-02T13:54:52.407Z</time></trkpt><trkpt lat="54.802455" lon="-2.4303233"><ele>362.0</ele><time>2026-05-02T13:54:53.407Z</time></trkpt><trkpt lat="54.8026883" lon="-2.4305217"><ele>359.0</ele><time>2026-05-02T13:54:54.403Z</time></trkpt><trkpt lat="54.8029183" lon="-2.4307183"><ele>359.0</ele><time>2026-05-02T13:54:55.407Z</time></trkpt><trkpt lat="54.803145" lon="-2.4309067"><ele>359.0</ele><time>2026-05-02T13:54:56.404Z</time></trkpt><trkpt lat="54.8033783" lon="-2.4310933"><ele>359.0</ele><time>2026-05-02T13:54:57.402Z</time></trkpt><trkpt lat="54.803615" lon="-2.43128"><ele>359.0</ele><time>2026-05-02T13:54:58.402Z</time></trkpt><trkpt lat="54.8038533" lon="-2.4314667"><ele>356.5</ele><time>2026-05-02T13:54:59.405Z</time></trkpt><trkpt lat="54.8040883" lon="-2.43165"><ele>354.0</ele><time>2026-05-02T13:55:00.403Z</time></trkpt><trkpt lat="54.8043233" lon="-2.4318367"><ele>353.5</ele><time>2026-05-02T13:55:01.402Z</time></trkpt><trkpt lat="54.8045533" lon="-2.4320183"><ele>353.0</ele><time>2026-05-02T13:55:02.402Z</time></trkpt><trkpt lat="54.8047783" lon="-2.432195"><ele>352.0</ele><time>2026-05-02T13:55:03.402Z</time></trkpt><trkpt lat="54.805" lon="-2.43237"><ele>351.0</ele><time>2026-05-02T13:55:04.402Z</time></trkpt><trkpt lat="54.805215" lon="-2.432535"><ele>350.0</ele><time>2026-05-02T13:55:05.402Z</time></trkpt><trkpt lat="54.8054267" lon="-2.4326867"><ele>349.0</ele><time>2026-05-02T13:55:06.402Z</time></trkpt><trkpt lat="54.8056417" lon="-2.4328233"><ele>349.0</ele><time>2026-05-02T13:55:07.403Z</time></trkpt><trkpt lat="54.8058533" lon="-2.4329383"><ele>349.0</ele><time>2026-05-02T13:55:08.402Z</time></trkpt><trkpt lat="54.8060433" lon="-2.433035"><ele>349.0</ele><time>2026-05-02T13:55:09.406Z</time></trkpt><trkpt lat="54.8062117" lon="-2.4331183"><ele>347.25</ele><time>2026-05-02T13:55:10.406Z</time></trkpt><trkpt lat="54.8063567" lon="-2.43319"><ele>345.5</ele><time>2026-05-02T13:55:11.406Z</time></trkpt><trkpt lat="54.8064917" lon="-2.4332517"><ele>343.75</ele><time>2026-05-02T13:55:12.405Z</time></trkpt><trkpt lat="54.806625" lon="-2.4333067"><ele>342.0</ele><time>2026-05-02T13:55:13.406Z</time></trkpt><trkpt lat="54.8067567" lon="-2.4333583"><ele>341.5</ele><time>2026-05-02T13:55:14.407Z</time></trkpt><trkpt lat="54.806885" lon="-2.4334067"><ele>341.0</ele><time>2026-05-02T13:55:15.407Z</time></trkpt><trkpt lat="54.8070083" lon="-2.43345"><ele>340.5</ele><time>2026-05-02T13:55:16.402Z</time></trkpt><trkpt lat="54.807125" lon="-2.43349"><ele>340.0</ele><time>2026-05-02T13:55:17.402Z</time></trkpt><trkpt lat="54.80724" lon="-2.433525"><ele>340.0</ele><time>2026-05-02T13:55:18.404Z</time></trkpt><trkpt lat="54.8073517" lon="-2.4335683"><ele>340.0</ele><time>2026-05-02T13:55:19.403Z</time></trkpt><trkpt lat="54.80746" lon="-2.4336133"><ele>340.0</ele><time>2026-05-02T13:55:20.406Z</time></trkpt><trkpt lat="54.80757" lon="-2.4336717"><ele>340.0</ele><time>2026-05-02T13:55:21.405Z</time></trkpt><trkpt lat="54.8076833" lon="-2.433735"><ele>339.5</ele><time>2026-05-02T13:55:22.407Z</time></trkpt><trkpt lat="54.807795" lon="-2.4337967"><ele>339.0</ele><time>2026-05-02T13:55:23.407Z</time></trkpt><trkpt lat="54.807905" lon="-2.4338567"><ele>338.5</ele><time>2026-05-02T13:55:24.402Z</time></trkpt><trkpt lat="54.808015" lon="-2.4339117"><ele>338.0</ele><time>2026-05-02T13:55:25.403Z</time></trkpt><trkpt lat="54.8081223" lon="-2.4339688"><ele>337.2</ele><time>2026-05-02T13:55:26.406Z</time></trkpt><trkpt lat="54.8082286" lon="-2.4340261"><ele>336.4</ele><time>2026-05-02T13:55:27.406Z</time></trkpt><trkpt lat="54.8083337" lon="-2.4340797"><ele>335.59999999999997</ele><time>2026-05-02T13:55:28.404Z</time></trkpt><trkpt lat="54.8084387" lon="-2.4341353"><ele>334.79999999999995</ele><time>2026-05-02T13:55:29.406Z</time></trkpt><trkpt lat="54.8085423" lon="-2.4341962"><ele>334.0</ele><time>2026-05-02T13:55:30.402Z</time></trkpt><trkpt lat="54.8086459" lon="-2.4342702"><ele>332.5</ele><time>2026-05-02T13:55:31.406Z</time></trkpt><trkpt lat="54.8087505" lon="-2.4343644"><ele>331.0</ele><time>2026-05-02T13:55:32.403Z</time></trkpt><trkpt lat="54.8088579" lon="-2.4344742"><ele>329.5</ele><time>2026-05-02T13:55:33.402Z</time></trkpt><trkpt lat="54.8089627" lon="-2.434593"><ele>328.0</ele><time>2026-05-02T13:55:34.404Z</time></trkpt><trkpt lat="54.8090687" lon="-2.4347148"><ele>326.5</ele><time>2026-05-02T13:55:35.402Z</time></trkpt><trkpt lat="54.8091756" lon="-2.4348361"><ele>325.0</ele><time>2026-05-02T13:55:36.406Z</time></trkpt><trkpt lat="54.8092754" lon="-2.4349625"><ele>323.5</ele><time>2026-05-02T13:55:37.405Z</time></trkpt><trkpt lat="54.8093685" lon="-2.4350984"><ele>322.0</ele><time>2026-05-02T13:55:38.403Z</time></trkpt><trkpt lat="54.8094504" lon="-2.4352406"><ele>324.0</ele><time>2026-05-02T13:55:39.407Z</time></trkpt><trkpt lat="54.810845" lon="-2.4352617"><ele>324.0</ele><time>2026-05-02T13:56:18.403Z</time></trkpt><trkpt lat="54.8109117" lon="-2.4347767"><ele>324.0</ele><time>2026-05-02T13:56:22.403Z</time></trkpt><trkpt lat="54.8109133" lon="-2.4346117"><ele>324.0</ele><time>2026-05-02T13:56:23.404Z</time></trkpt><trkpt lat="54.810935" lon="-2.43442"><ele>324.6</ele><time>2026-05-02T13:56:24.403Z</time></trkpt><trkpt lat="54.81094" lon="-2.4342367"><ele>325.2</ele><time>2026-05-02T13:56:25.402Z</time></trkpt><trkpt lat="54.8109417" lon="-2.4340417"><ele>325.8</ele><time>2026-05-02T13:56:26.403Z</time></trkpt><trkpt lat="54.8109333" lon="-2.4338517"><ele>326.40000000000003</ele><time>2026-05-02T13:56:27.404Z</time></trkpt><trkpt lat="54.81093" lon="-2.4336933"><ele>327.0</ele><time>2026-05-02T13:56:28.402Z</time></trkpt><trkpt lat="54.8109067" lon="-2.4335417"><ele>328.3333333333333</ele><time>2026-05-02T13:56:29.402Z</time></trkpt><trkpt lat="54.8109167" lon="-2.4333317"><ele>329.66666666666663</ele><time>2026-05-02T13:56:31.402Z</time></trkpt><trkpt lat="54.8109217" lon="-2.43322"><ele>331.0</ele><time>2026-05-02T13:56:32.402Z</time></trkpt><trkpt lat="54.81087" lon="-2.40453"><ele>349.0</ele><time>2026-05-02T13:58:09.327Z</time></trkpt><trkpt lat="54.810855" lon="-2.40412"><ele>367.0</ele><time>2026-05-02T13:58:10.403Z</time></trkpt><trkpt lat="54.8111733" lon="-2.4046667"><ele>367.0</ele><time>2026-05-02T13:58:12.175Z</time></trkpt><trkpt lat="54.811105" lon="-2.4038967"><ele>367.0</ele><time>2026-05-02T13:58:13.403Z</time></trkpt><trkpt lat="54.8110617" lon="-2.4033567"><ele>366.5</ele><time>2026-05-02T13:58:14.403Z</time></trkpt><trkpt lat="54.811" lon="-2.4028183"><ele>366.0</ele><time>2026-05-02T13:58:15.402Z</time></trkpt><trkpt lat="54.8109117" lon="-2.4022367"><ele>370.5</ele><time>2026-05-02T13:58:16.402Z</time></trkpt><trkpt lat="54.8108633" lon="-2.40178"><ele>375.0</ele><time>2026-05-02T13:58:17.403Z</time></trkpt><trkpt lat="54.8108283" lon="-2.401365"><ele>374.5</ele><time>2026-05-02T13:58:18.402Z</time></trkpt><trkpt lat="54.8108017" lon="-2.4009633"><ele>374.0</ele><time>2026-05-02T13:58:19.403Z</time></trkpt><trkpt lat="54.8107783" lon="-2.4005733"><ele>374.0</ele><time>2026-05-02T13:58:20.404Z</time></trkpt><trkpt lat="54.810755" lon="-2.4001717"><ele>374.0</ele><time>2026-05-02T13:58:21.403Z</time></trkpt><trkpt lat="54.8107333" lon="-2.3997717"><ele>372.5</ele><time>2026-05-02T13:58:22.403Z</time></trkpt><trkpt lat="54.810705" lon="-2.399365"><ele>371.0</ele><time>2026-05-02T13:58:23.402Z</time></trkpt><trkpt lat="54.8106767" lon="-2.39896"><ele>371.5</ele><time>2026-05-02T13:58:24.403Z</time></trkpt><trkpt lat="54.8106433" lon="-2.3985583"><ele>372.0</ele><time>2026-05-02T13:58:25.403Z</time></trkpt><trkpt lat="54.81061" lon="-2.39816"><ele>372.5</ele><time>2026-05-02T13:58:26.402Z</time></trkpt><trkpt lat="54.810575" lon="-2.3977667"><ele>373.0</ele><time>2026-05-02T13:58:27.402Z</time></trkpt><trkpt lat="54.810545" lon="-2.397365"><ele>373.0</ele><time>2026-05-02T13:58:28.402Z</time></trkpt><trkpt lat="54.810505" lon="-2.39698"><ele>373.0</ele><time>2026-05-02T13:58:29.402Z</time></trkpt><trkpt lat="54.8104583" lon="-2.3965933"><ele>372.5</ele><time>2026-05-02T13:58:30.402Z</time></trkpt><trkpt lat="54.8103983" lon="-2.3962067"><ele>372.0</ele><time>2026-05-02T13:58:31.403Z</time></trkpt><trkpt lat="54.8103233" lon="-2.39582"><ele>370.0</ele><time>2026-05-02T13:58:32.404Z</time></trkpt><trkpt lat="54.810245" lon="-2.3954367"><ele>368.0</ele><time>2026-05-02T13:58:33.403Z</time></trkpt><trkpt lat="54.8101667" lon="-2.395045"><ele>370.5</ele><time>2026-05-02T13:58:34.403Z</time></trkpt><trkpt lat="54.8100883" lon="-2.3946433"><ele>373.0</ele><time>2026-05-02T13:58:35.402Z</time></trkpt><trkpt lat="54.8100083" lon="-2.3942333"><ele>371.5</ele><time>2026-05-02T13:58:36.404Z</time></trkpt><trkpt lat="54.809925" lon="-2.3938183"><ele>370.0</ele><time>2026-05-02T13:58:37.403Z</time></trkpt><trkpt lat="54.80984" lon="-2.3934083"><ele>368.5</ele><time>2026-05-02T13:58:38.402Z</time></trkpt><trkpt lat="54.80976" lon="-2.3930017"><ele>367.0</ele><time>2026-05-02T13:58:39.403Z</time></trkpt><trkpt lat="54.80968" lon="-2.392595"><ele>367.0</ele><time>2026-05-02T13:58:40.403Z</time></trkpt><trkpt lat="54.809605" lon="-2.3921933"><ele>367.0</ele><time>2026-05-02T13:58:41.402Z</time></trkpt><trkpt lat="54.8095283" lon="-2.3917883"><ele>366.5</ele><time>2026-05-02T13:58:42.402Z</time></trkpt><trkpt lat="54.8094517" lon="-2.3913867"><ele>366.0</ele><time>2026-05-02T13:58:43.402Z</time></trkpt><trkpt lat="54.8093783" lon="-2.390985"><ele>371.5</ele><time>2026-05-02T13:58:44.402Z</time></trkpt><trkpt lat="54.8093067" lon="-2.3905933"><ele>377.0</ele><time>2026-05-02T13:58:45.402Z</time></trkpt><trkpt lat="54.8092383" lon="-2.3902217"><ele>377.0</ele><time>2026-05-02T13:58:46.402Z</time></trkpt><trkpt lat="54.8091683" lon="-2.3898717"><ele>377.0</ele><time>2026-05-02T13:58:47.402Z</time></trkpt><trkpt lat="54.8090917" lon="-2.3895483"><ele>377.0</ele><time>2026-05-02T13:58:48.402Z</time></trkpt><trkpt lat="54.8090133" lon="-2.3892283"><ele>377.0</ele><time>2026-05-02T13:58:49.402Z</time></trkpt><trkpt lat="54.808925" lon="-2.3889067"><ele>377.0</ele><time>2026-05-02T13:58:50.402Z</time></trkpt><trkpt lat="54.8088317" lon="-2.38859"><ele>377.0</ele><time>2026-05-02T13:58:51.402Z</time></trkpt><trkpt lat="54.8087383" lon="-2.388275"><ele>376.0</ele><time>2026-05-02T13:58:52.402Z</time></trkpt><trkpt lat="54.8086467" lon="-2.3879633"><ele>375.0</ele><time>2026-05-02T13:58:53.402Z</time></trkpt><trkpt lat="54.80856" lon="-2.387665"><ele>374.0</ele><time>2026-05-02T13:58:54.403Z</time></trkpt><trkpt lat="54.8084783" lon="-2.38738"><ele>373.0</ele><time>2026-05-02T13:58:55.402Z</time></trkpt><trkpt lat="54.8084033" lon="-2.3871083"><ele>372.0</ele><time>2026-05-02T13:58:56.404Z</time></trkpt><trkpt lat="54.8083367" lon="-2.38685"><ele>371.0</ele><time>2026-05-02T13:58:57.403Z</time></trkpt><trkpt lat="54.8082783" lon="-2.3866033"><ele>371.0</ele><time>2026-05-02T13:58:58.402Z</time></trkpt><trkpt lat="54.8082233" lon="-2.3863617"><ele>371.0</ele><time>2026-05-02T13:58:59.403Z</time></trkpt><trkpt lat="54.8081733" lon="-2.3861133"><ele>371.0</ele><time>2026-05-02T13:59:00.402Z</time></trkpt><trkpt lat="54.8081317" lon="-2.3858533"><ele>370.6666666666667</ele><time>2026-05-02T13:59:01.402Z</time></trkpt><trkpt lat="54.8080883" lon="-2.3855867"><ele>370.3333333333333</ele><time>2026-05-02T13:59:02.404Z</time></trkpt><trkpt lat="54.80805" lon="-2.3853133"><ele>370.0</ele><time>2026-05-02T13:59:03.403Z</time></trkpt><trkpt lat="54.808005" lon="-2.3850467"><ele>370.0</ele><time>2026-05-02T13:59:04.403Z</time></trkpt><trkpt lat="54.8079483" lon="-2.38479"><ele>370.0</ele><time>2026-05-02T13:59:05.403Z</time></trkpt><trkpt lat="54.807885" lon="-2.3845283"><ele>370.0</ele><time>2026-05-02T13:59:06.403Z</time></trkpt><trkpt lat="54.8078133" lon="-2.384275"><ele>370.0</ele><time>2026-05-02T13:59:07.402Z</time></trkpt><trkpt lat="54.8077333" lon="-2.3840333"><ele>370.0</ele><time>2026-05-02T13:59:08.403Z</time></trkpt><trkpt lat="54.8076483" lon="-2.3838"><ele>370.0</ele><time>2026-05-02T13:59:09.402Z</time></trkpt><trkpt lat="54.80756" lon="-2.3835667"><ele>370.0</ele><time>2026-05-02T13:59:10.403Z</time></trkpt><trkpt lat="54.8074683" lon="-2.3833367"><ele>370.0</ele><time>2026-05-02T13:59:11.402Z</time></trkpt><trkpt lat="54.8073733" lon="-2.3831067"><ele>370.0</ele><time>2026-05-02T13:59:12.402Z</time></trkpt><trkpt lat="54.8072717" lon="-2.3828733"><ele>369.0</ele><time>2026-05-02T13:59:13.403Z</time></trkpt><trkpt lat="54.8071683" lon="-2.38264"><ele>368.0</ele><time>2026-05-02T13:59:14.403Z</time></trkpt><trkpt lat="54.8070717" lon="-2.3824"><ele>367.0</ele><time>2026-05-02T13:59:15.403Z</time></trkpt><trkpt lat="54.8069783" lon="-2.3821633"><ele>367.66666666666663</ele><time>2026-05-02T13:59:16.403Z</time></trkpt><trkpt lat="54.8068883" lon="-2.3819267"><ele>368.3333333333333</ele><time>2026-05-02T13:59:17.403Z</time></trkpt><trkpt lat="54.80681" lon="-2.38169"><ele>369.0</ele><time>2026-05-02T13:59:18.402Z</time></trkpt><trkpt lat="54.806735" lon="-2.3814483"><ele>367.6666666666667</ele><time>2026-05-02T13:59:19.407Z</time></trkpt><trkpt lat="54.8066633" lon="-2.3812017"><ele>366.33333333333337</ele><time>2026-05-02T13:59:20.404Z</time></trkpt><trkpt lat="54.8065917" lon="-2.38096"><ele>365.0</ele><time>2026-05-02T13:59:21.403Z</time></trkpt><trkpt lat="54.8065183" lon="-2.3807183"><ele>363.0</ele><time>2026-05-02T13:59:22.403Z</time></trkpt><trkpt lat="54.806445" lon="-2.3804683"><ele>361.0</ele><time>2026-05-02T13:59:23.402Z</time></trkpt><trkpt lat="54.80637" lon="-2.3802133"><ele>359.0</ele><time>2026-05-02T13:59:24.402Z</time></trkpt><trkpt lat="54.8063" lon="-2.3799683"><ele>359.0</ele><time>2026-05-02T13:59:25.403Z</time></trkpt><trkpt lat="54.806235" lon="-2.3797217"><ele>359.0</ele><time>2026-05-02T13:59:26.404Z</time></trkpt><trkpt lat="54.80618" lon="-2.379465"><ele>359.0</ele><time>2026-05-02T13:59:27.406Z</time></trkpt><trkpt lat="54.8061367" lon="-2.3792067"><ele>358.0</ele><time>2026-05-02T13:59:28.403Z</time></trkpt><trkpt lat="54.8061033" lon="-2.378955"><ele>357.0</ele><time>2026-05-02T13:59:29.404Z</time></trkpt><trkpt lat="54.8060833" lon="-2.3787"><ele>356.0</ele><time>2026-05-02T13:59:30.402Z</time></trkpt><trkpt lat="54.8060717" lon="-2.378455"><ele>355.0</ele><time>2026-05-02T13:59:31.402Z</time></trkpt><trkpt lat="54.8060767" lon="-2.3782183"><ele>355.0</ele><time>2026-05-02T13:59:32.403Z</time></trkpt><trkpt lat="54.806085" lon="-2.37797"><ele>355.0</ele><time>2026-05-02T13:59:33.403Z</time></trkpt><trkpt lat="54.8060983" lon="-2.3777217"><ele>355.0</ele><time>2026-05-02T13:59:34.403Z</time></trkpt><trkpt lat="54.8061133" lon="-2.377465"><ele>355.0</ele><time>2026-05-02T13:59:35.402Z</time></trkpt><trkpt lat="54.8061367" lon="-2.3772183"><ele>356.0</ele><time>2026-05-02T13:59:36.402Z</time></trkpt><trkpt lat="54.8061533" lon="-2.3769617"><ele>357.0</ele><time>2026-05-02T13:59:37.403Z</time></trkpt><trkpt lat="54.80618" lon="-2.3767"><ele>358.0</ele><time>2026-05-02T13:59:38.402Z</time></trkpt><trkpt lat="54.8062033" lon="-2.3764333"><ele>360.0</ele><time>2026-05-02T13:59:39.402Z</time></trkpt><trkpt lat="54.8062283" lon="-2.3761933"><ele>362.0</ele><time>2026-05-02T13:59:40.402Z</time></trkpt><trkpt lat="54.8062517" lon="-2.37597"><ele>364.0</ele><time>2026-05-02T13:59:41.404Z</time></trkpt><trkpt lat="54.806265" lon="-2.3757733"><ele>366.0</ele><time>2026-05-02T13:59:42.402Z</time></trkpt><trkpt lat="54.8062567" lon="-2.3755983"><ele>366.6</ele><time>2026-05-02T13:59:43.403Z</time></trkpt><trkpt lat="54.8062183" lon="-2.375455"><ele>367.20000000000005</ele><time>2026-05-02T13:59:44.402Z</time></trkpt><trkpt lat="54.806155" lon="-2.3753267"><ele>367.79999999999995</ele><time>2026-05-02T13:59:45.404Z</time></trkpt><trkpt lat="54.806055" lon="-2.375205"><ele>368.4</ele><time>2026-05-02T13:59:46.402Z</time></trkpt><trkpt lat="54.8059417" lon="-2.3750917"><ele>369.0</ele><time>2026-05-02T13:59:47.403Z</time></trkpt><trkpt lat="54.805825" lon="-2.3749667"><ele>369.0</ele><time>2026-05-02T13:59:48.402Z</time></trkpt><trkpt lat="54.8057033" lon="-2.37483"><ele>369.0</ele><time>2026-05-02T13:59:49.403Z</time></trkpt><trkpt lat="54.805585" lon="-2.3746733"><ele>369.0</ele><time>2026-05-02T13:59:50.402Z</time></trkpt><trkpt lat="54.8054683" lon="-2.3745067"><ele>369.0</ele><time>2026-05-02T13:59:51.403Z</time></trkpt><trkpt lat="54.8053367" lon="-2.3743717"><ele>369.75</ele><time>2026-05-02T13:59:52.402Z</time></trkpt><trkpt lat="54.80522" lon="-2.374235"><ele>370.5</ele><time>2026-05-02T13:59:53.405Z</time></trkpt><trkpt lat="54.8051017" lon="-2.3741133"><ele>371.25</ele><time>2026-05-02T13:59:54.403Z</time></trkpt><trkpt lat="54.8049767" lon="-2.3739933"><ele>372.0</ele><time>2026-05-02T13:59:55.404Z</time></trkpt><trkpt lat="54.804845" lon="-2.3738733"><ele>376.33333333333337</ele><time>2026-05-02T13:59:56.402Z</time></trkpt><trkpt lat="54.8047033" lon="-2.3737467"><ele>380.6666666666667</ele><time>2026-05-02T13:59:57.402Z</time></trkpt><trkpt lat="54.8045633" lon="-2.3736"><ele>385.0</ele><time>2026-05-02T13:59:58.403Z</time></trkpt><trkpt lat="54.8044233" lon="-2.37346"><ele>384.33333333333337</ele><time>2026-05-02T13:59:59.402Z</time></trkpt><trkpt lat="54.8042783" lon="-2.3733067"><ele>383.6666666666667</ele><time>2026-05-02T14:00:00.402Z</time></trkpt><trkpt lat="54.8041317" lon="-2.3731517"><ele>383.0</ele><time>2026-05-02T14:00:01.404Z</time></trkpt><trkpt lat="54.80398" lon="-2.3729983"><ele>383.0</ele><time>2026-05-02T14:00:02.402Z</time></trkpt><trkpt lat="54.8038267" lon="-2.372845"><ele>383.0</ele><time>2026-05-02T14:00:03.405Z</time></trkpt><trkpt lat="54.8036683" lon="-2.37269"><ele>383.0</ele><time>2026-05-02T14:00:04.402Z</time></trkpt><trkpt lat="54.80351" lon="-2.37254"><ele>382.6666666666667</ele><time>2026-05-02T14:00:05.404Z</time></trkpt><trkpt lat="54.8033567" lon="-2.372395"><ele>382.3333333333333</ele><time>2026-05-02T14:00:06.403Z</time></trkpt><trkpt lat="54.8032083" lon="-2.372245"><ele>382.0</ele><time>2026-05-02T14:00:07.402Z</time></trkpt><trkpt lat="54.80305" lon="-2.372095"><ele>382.0</ele><time>2026-05-02T14:00:08.406Z</time></trkpt><trkpt lat="54.802895" lon="-2.3719433"><ele>382.0</ele><time>2026-05-02T14:00:09.402Z</time></trkpt><trkpt lat="54.8027383" lon="-2.371795"><ele>382.0</ele><time>2026-05-02T14:00:10.402Z</time></trkpt><trkpt lat="54.8025933" lon="-2.371655"><ele>381.25</ele><time>2026-05-02T14:00:11.402Z</time></trkpt><trkpt lat="54.8024567" lon="-2.3715217"><ele>380.5</ele><time>2026-05-02T14:00:12.402Z</time></trkpt><trkpt lat="54.802335" lon="-2.3713867"><ele>379.75</ele><time>2026-05-02T14:00:13.402Z</time></trkpt><trkpt lat="54.8022167" lon="-2.3712367"><ele>379.0</ele><time>2026-05-02T14:00:14.403Z</time></trkpt><trkpt lat="54.8021" lon="-2.3710633"><ele>379.0</ele><time>2026-05-02T14:00:15.403Z</time></trkpt><trkpt lat="54.8019833" lon="-2.3708783"><ele>379.0</ele><time>2026-05-02T14:00:16.403Z</time></trkpt><trkpt lat="54.80187" lon="-2.3706833"><ele>379.0</ele><time>2026-05-02T14:00:17.403Z</time></trkpt><trkpt lat="54.801765" lon="-2.3705033"><ele>378.0</ele><time>2026-05-02T14:00:18.403Z</time></trkpt><trkpt lat="54.8016667" lon="-2.3703333"><ele>377.0</ele><time>2026-05-02T14:00:19.403Z</time></trkpt><trkpt lat="54.801575" lon="-2.370165"><ele>376.0</ele><time>2026-05-02T14:00:20.403Z</time></trkpt><trkpt lat="54.8014883" lon="-2.3699983"><ele>375.0</ele><time>2026-05-02T14:00:21.402Z</time></trkpt><trkpt lat="54.8014033" lon="-2.3698333"><ele>376.2</ele><time>2026-05-02T14:00:22.402Z</time></trkpt><trkpt lat="54.8013283" lon="-2.3696717"><ele>377.4</ele><time>2026-05-02T14:00:23.402Z</time></trkpt><trkpt lat="54.8012733" lon="-2.3695383"><ele>378.6</ele><time>2026-05-02T14:00:24.403Z</time></trkpt><trkpt lat="54.8012283" lon="-2.369435"><ele>379.8</ele><time>2026-05-02T14:00:25.402Z</time></trkpt><trkpt lat="54.8011767" lon="-2.3693017"><ele>381.0</ele><time>2026-05-02T14:00:27.402Z</time></trkpt><trkpt lat="54.80114" lon="-2.3691983"><ele>381.0</ele><time>2026-05-02T14:00:38.403Z</time></trkpt><trkpt lat="54.8010967" lon="-2.3691017"><ele>381.0</ele><time>2026-05-02T14:00:40.402Z</time></trkpt><trkpt lat="54.8010433" lon="-2.3689567"><ele>381.0</ele><time>2026-05-02T14:00:42.403Z</time></trkpt><trkpt lat="54.8010017" lon="-2.36884"><ele>381.0</ele><time>2026-05-02T14:00:43.402Z</time></trkpt><trkpt lat="54.800945" lon="-2.3686867"><ele>381.0</ele><time>2026-05-02T14:00:44.402Z</time></trkpt><trkpt lat="54.8008583" lon="-2.36848"><ele>381.6666666666667</ele><time>2026-05-02T14:00:45.403Z</time></trkpt><trkpt lat="54.8007617" lon="-2.3682433"><ele>382.33333333333337</ele><time>2026-05-02T14:00:46.402Z</time></trkpt><trkpt lat="54.8006617" lon="-2.3679967"><ele>383.0</ele><time>2026-05-02T14:00:47.402Z</time></trkpt><trkpt lat="54.8005583" lon="-2.36774"><ele>383.0</ele><time>2026-05-02T14:00:48.402Z</time></trkpt><trkpt lat="54.80045" lon="-2.36747"><ele>383.0</ele><time>2026-05-02T14:00:49.403Z</time></trkpt><trkpt lat="54.8003433" lon="-2.3672017"><ele>383.0</ele><time>2026-05-02T14:00:50.404Z</time></trkpt><trkpt lat="54.8002417" lon="-2.366945"><ele>383.6666666666667</ele><time>2026-05-02T14:00:51.403Z</time></trkpt><trkpt lat="54.800145" lon="-2.3667117"><ele>384.33333333333337</ele><time>2026-05-02T14:00:52.403Z</time></trkpt><trkpt lat="54.8000533" lon="-2.3664883"><ele>385.0</ele><time>2026-05-02T14:00:53.407Z</time></trkpt><trkpt lat="54.7999617" lon="-2.366285"><ele>385.0</ele><time>2026-05-02T14:00:54.403Z</time></trkpt><trkpt lat="54.799875" lon="-2.3660933"><ele>385.0</ele><time>2026-05-02T14:00:55.402Z</time></trkpt><trkpt lat="54.7997933" lon="-2.3659167"><ele>385.0</ele><time>2026-05-02T14:00:56.403Z</time></trkpt><trkpt lat="54.7997183" lon="-2.3657683"><ele>385.0</ele><time>2026-05-02T14:00:57.402Z</time></trkpt><trkpt lat="54.7996517" lon="-2.3656417"><ele>384.50000000000006</ele><time>2026-05-02T14:00:58.403Z</time></trkpt><trkpt lat="54.7995917" lon="-2.3655233"><ele>384.0</ele><time>2026-05-02T14:00:59.402Z</time></trkpt><trkpt lat="54.799535" lon="-2.3654117"><ele>383.5</ele><time>2026-05-02T14:01:00.402Z</time></trkpt><trkpt lat="54.7994817" lon="-2.3653067"><ele>383.0</ele><time>2026-05-02T14:01:01.402Z</time></trkpt><trkpt lat="54.7994367" lon="-2.3652017"><ele>382.5</ele><time>2026-05-02T14:01:02.402Z</time></trkpt><trkpt lat="54.799365" lon="-2.3650567"><ele>382.0</ele><time>2026-05-02T14:01:04.402Z</time></trkpt><trkpt lat="54.7993017" lon="-2.3650183"><ele>382.0</ele><time>2026-05-02T14:01:06.406Z</time></trkpt><trkpt lat="54.79923" lon="-2.3650883"><ele>382.0</ele><time>2026-05-02T14:01:09.403Z</time></trkpt><trkpt lat="54.7991667" lon="-2.3651433"><ele>382.0</ele><time>2026-05-02T14:01:12.406Z</time></trkpt><trkpt lat="54.7993097" lon="-2.3650036"><ele>382.0</ele><time>2026-05-02T14:05:11.31Z</time></trkpt><trkpt lat="54.7991667" lon="-2.3656633"><ele>379.0</ele><time>2026-05-02T14:06:44.407Z</time></trkpt><trkpt lat="54.7992083" lon="-2.3655717"><ele>379.0</ele><time>2026-05-02T14:09:49.403Z</time></trkpt><trkpt lat="54.7992841" lon="-2.3649815"><ele>382.0</ele><time>2026-05-02T15:17:33.876Z</time></trkpt></trkseg><trkseg><trkpt lat="54.7991384" lon="-2.3654674"><ele>382.0</ele><time>2026-05-03T09:08:35.782Z</time></trkpt><trkpt lat="54.7993097" lon="-2.3649976"><ele>382.0</ele><time>2026-05-03T09:10:21.345Z</time></trkpt><trkpt lat="54.7992117" lon="-2.3654417"><ele>382.0</ele><time>2026-05-03T09:10:41.229Z</time></trkpt><trkpt lat="54.7991533" lon="-2.3653367"><ele>382.0</ele><time>2026-05-03T09:10:43.783Z</time></trkpt><trkpt lat="54.7992017" lon="-2.3652067"><ele>382.0</ele><time>2026-05-03T09:10:47.783Z</time></trkpt><trkpt lat="54.799245" lon="-2.3651133"><ele>382.0</ele><time>2026-05-03T09:10:50.782Z</time></trkpt><trkpt lat="54.799305" lon="-2.36506"><ele>382.0</ele><time>2026-05-03T09:10:53.782Z</time></trkpt><trkpt lat="54.7993733" lon="-2.36513"><ele>382.0</ele><time>2026-05-03T09:10:57.783Z</time></trkpt><trkpt lat="54.7994333" lon="-2.3652683"><ele>382.6</ele><time>2026-05-03T09:10:59.783Z</time></trkpt><trkpt lat="54.7995133" lon="-2.3654217"><ele>383.20000000000005</ele><time>2026-05-03T09:11:01.782Z</time></trkpt><trkpt lat="54.7995783" lon="-2.36554"><ele>383.8</ele><time>2026-05-03T09:11:03.783Z</time></trkpt><trkpt lat="54.79965" lon="-2.36566"><ele>384.4</ele><time>2026-05-03T09:11:05.785Z</time></trkpt><trkpt lat="54.7997233" lon="-2.3658083"><ele>385.0</ele><time>2026-05-03T09:11:07.782Z</time></trkpt><trkpt lat="54.7997617" lon="-2.365895"><ele>385.0</ele><time>2026-05-03T09:11:08.783Z</time></trkpt><trkpt lat="54.79984" lon="-2.3660617"><ele>385.0</ele><time>2026-05-03T09:11:10.782Z</time></trkpt><trkpt lat="54.7999217" lon="-2.3662233"><ele>385.0</ele><time>2026-05-03T09:11:12.784Z</time></trkpt><trkpt lat="54.7999717" lon="-2.3663283"><ele>385.0</ele><time>2026-05-03T09:11:13.785Z</time></trkpt><trkpt lat="54.8000267" lon="-2.3664567"><ele>385.0</ele><time>2026-05-03T09:11:14.785Z</time></trkpt><trkpt lat="54.8000917" lon="-2.3666217"><ele>384.5</ele><time>2026-05-03T09:11:15.782Z</time></trkpt><trkpt lat="54.8001633" lon="-2.3667917"><ele>384.0</ele><time>2026-05-03T09:11:16.784Z</time></trkpt><trkpt lat="54.8002333" lon="-2.3669617"><ele>383.5</ele><time>2026-05-03T09:11:17.783Z</time></trkpt><trkpt lat="54.8003033" lon="-2.367125"><ele>383.0</ele><time>2026-05-03T09:11:18.783Z</time></trkpt><trkpt lat="54.800375" lon="-2.3672917"><ele>383.0</ele><time>2026-05-03T09:11:19.782Z</time></trkpt><trkpt lat="54.8004433" lon="-2.3674567"><ele>383.0</ele><time>2026-05-03T09:11:20.782Z</time></trkpt><trkpt lat="54.800505" lon="-2.3676183"><ele>383.0</ele><time>2026-05-03T09:11:21.782Z</time></trkpt><trkpt lat="54.8005567" lon="-2.3677633"><ele>383.0</ele><time>2026-05-03T09:11:22.784Z</time></trkpt><trkpt lat="54.8006017" lon="-2.3679033"><ele>383.0</ele><time>2026-05-03T09:11:23.783Z</time></trkpt><trkpt lat="54.800655" lon="-2.36804"><ele>381.5</ele><time>2026-05-03T09:11:24.782Z</time></trkpt><trkpt lat="54.80071" lon="-2.368185"><ele>380.0</ele><time>2026-05-03T09:11:25.782Z</time></trkpt><trkpt lat="54.80077" lon="-2.368335"><ele>378.5</ele><time>2026-05-03T09:11:26.783Z</time></trkpt><trkpt lat="54.800825" lon="-2.3684883"><ele>377.0</ele><time>2026-05-03T09:11:27.784Z</time></trkpt><trkpt lat="54.8009567" lon="-2.3688267"><ele>378.0</ele><time>2026-05-03T09:11:29.783Z</time></trkpt><trkpt lat="54.8010317" lon="-2.3690117"><ele>379.0</ele><time>2026-05-03T09:11:30.783Z</time></trkpt><trkpt lat="54.80111" lon="-2.3692067"><ele>380.0</ele><time>2026-05-03T09:11:31.783Z</time></trkpt><trkpt lat="54.801185" lon="-2.3693983"><ele>381.0</ele><time>2026-05-03T09:11:32.783Z</time></trkpt><trkpt lat="54.801255" lon="-2.3695817"><ele>379.5</ele><time>2026-05-03T09:11:33.783Z</time></trkpt><trkpt lat="54.8013333" lon="-2.3697717"><ele>378.0</ele><time>2026-05-03T09:11:34.783Z</time></trkpt><trkpt lat="54.8014183" lon="-2.3699667"><ele>376.5</ele><time>2026-05-03T09:11:35.783Z</time></trkpt><trkpt lat="54.8015183" lon="-2.3701583"><ele>375.0</ele><time>2026-05-03T09:11:36.783Z</time></trkpt><trkpt lat="54.8016167" lon="-2.3703383"><ele>375.0</ele><time>2026-05-03T09:11:37.783Z</time></trkpt><trkpt lat="54.8017233" lon="-2.3705133"><ele>375.0</ele><time>2026-05-03T09:11:38.787Z</time></trkpt><trkpt lat="54.801825" lon="-2.370685"><ele>375.0</ele><time>2026-05-03T09:11:39.783Z</time></trkpt><trkpt lat="54.8019233" lon="-2.370855"><ele>375.0</ele><time>2026-05-03T09:11:40.786Z</time></trkpt><trkpt lat="54.8020267" lon="-2.371035"><ele>376.3333333333333</ele><time>2026-05-03T09:11:41.783Z</time></trkpt><trkpt lat="54.8021417" lon="-2.3712217"><ele>377.66666666666663</ele><time>2026-05-03T09:11:42.783Z</time></trkpt><trkpt lat="54.8022633" lon="-2.3713983"><ele>379.0</ele><time>2026-05-03T09:11:43.782Z</time></trkpt><trkpt lat="54.8023967" lon="-2.3715667"><ele>380.0</ele><time>2026-05-03T09:11:44.784Z</time></trkpt><trkpt lat="54.8025483" lon="-2.3717283"><ele>381.0</ele><time>2026-05-03T09:11:45.783Z</time></trkpt><trkpt lat="54.8027183" lon="-2.3718933"><ele>382.0</ele><time>2026-05-03T09:11:46.783Z</time></trkpt><trkpt lat="54.8028833" lon="-2.3720467"><ele>378.3333333333333</ele><time>2026-05-03T09:11:47.783Z</time></trkpt><trkpt lat="54.8030467" lon="-2.3722017"><ele>374.6666666666667</ele><time>2026-05-03T09:11:48.783Z</time></trkpt><trkpt lat="54.8032" lon="-2.3723517"><ele>371.0</ele><time>2026-05-03T09:11:49.782Z</time></trkpt><trkpt lat="54.8033533" lon="-2.372505"><ele>370.33333333333337</ele><time>2026-05-03T09:11:50.782Z</time></trkpt><trkpt lat="54.8035167" lon="-2.3726767"><ele>369.6666666666667</ele><time>2026-05-03T09:11:51.783Z</time></trkpt><trkpt lat="54.80369" lon="-2.3728517"><ele>369.0</ele><time>2026-05-03T09:11:52.782Z</time></trkpt><trkpt lat="54.8038667" lon="-2.37303"><ele>369.0</ele><time>2026-05-03T09:11:53.783Z</time></trkpt><trkpt lat="54.8040467" lon="-2.3732133"><ele>369.0</ele><time>2026-05-03T09:11:54.784Z</time></trkpt><trkpt lat="54.80422" lon="-2.3733883"><ele>369.0</ele><time>2026-05-03T09:11:55.782Z</time></trkpt><trkpt lat="54.8043917" lon="-2.3735617"><ele>370.0</ele><time>2026-05-03T09:11:56.783Z</time></trkpt><trkpt lat="54.804555" lon="-2.37372"><ele>371.0</ele><time>2026-05-03T09:11:57.783Z</time></trkpt><trkpt lat="54.804695" lon="-2.373865"><ele>372.0</ele><time>2026-05-03T09:11:58.783Z</time></trkpt><trkpt lat="54.8048317" lon="-2.374005"><ele>372.0</ele><time>2026-05-03T09:11:59.783Z</time></trkpt><trkpt lat="54.8049667" lon="-2.3741417"><ele>372.0</ele><time>2026-05-03T09:12:00.783Z</time></trkpt><trkpt lat="54.8051017" lon="-2.3742833"><ele>372.0</ele><time>2026-05-03T09:12:01.784Z</time></trkpt><trkpt lat="54.8052283" lon="-2.374425"><ele>371.25</ele><time>2026-05-03T09:12:02.782Z</time></trkpt><trkpt lat="54.8053467" lon="-2.37457"><ele>370.5</ele><time>2026-05-03T09:12:03.782Z</time></trkpt><trkpt lat="54.8054583" lon="-2.3747217"><ele>369.75</ele><time>2026-05-03T09:12:04.782Z</time></trkpt><trkpt lat="54.8055633" lon="-2.374865"><ele>369.0</ele><time>2026-05-03T09:12:05.784Z</time></trkpt><trkpt lat="54.805665" lon="-2.3750017"><ele>369.0</ele><time>2026-05-03T09:12:06.784Z</time></trkpt><trkpt lat="54.8057633" lon="-2.3751233"><ele>369.0</ele><time>2026-05-03T09:12:07.782Z</time></trkpt><trkpt lat="54.805855" lon="-2.3752217"><ele>369.0</ele><time>2026-05-03T09:12:08.783Z</time></trkpt><trkpt lat="54.805945" lon="-2.3753067"><ele>369.0</ele><time>2026-05-03T09:12:09.782Z</time></trkpt><trkpt lat="54.806025" lon="-2.3753917"><ele>369.0</ele><time>2026-05-03T09:12:10.782Z</time></trkpt><trkpt lat="54.8061" lon="-2.3754533"><ele>368.5</ele><time>2026-05-03T09:12:11.783Z</time></trkpt><trkpt lat="54.8061683" lon="-2.3755167"><ele>368.0</ele><time>2026-05-03T09:12:12.783Z</time></trkpt><trkpt lat="54.8062233" lon="-2.3755983"><ele>367.5</ele><time>2026-05-03T09:12:13.782Z</time></trkpt><trkpt lat="54.8062717" lon="-2.3757083"><ele>367.0</ele><time>2026-05-03T09:12:14.783Z</time></trkpt><trkpt lat="54.8063067" lon="-2.3758283"><ele>366.5</ele><time>2026-05-03T09:12:15.784Z</time></trkpt><trkpt lat="54.806325" lon="-2.3759667"><ele>366.0</ele><time>2026-05-03T09:12:16.783Z</time></trkpt><trkpt lat="54.8063183" lon="-2.3761233"><ele>366.0</ele><time>2026-05-03T09:12:17.783Z</time></trkpt><trkpt lat="54.8062933" lon="-2.3762967"><ele>366.0</ele><time>2026-05-03T09:12:18.784Z</time></trkpt><trkpt lat="54.8062667" lon="-2.3765033"><ele>366.0</ele><time>2026-05-03T09:12:19.783Z</time></trkpt><trkpt lat="54.8062317" lon="-2.376715"><ele>366.0</ele><time>2026-05-03T09:12:20.782Z</time></trkpt><trkpt lat="54.8062133" lon="-2.3769233"><ele>364.0</ele><time>2026-05-03T09:12:21.782Z</time></trkpt><trkpt lat="54.8061867" lon="-2.3771233"><ele>362.0</ele><time>2026-05-03T09:12:22.783Z</time></trkpt><trkpt lat="54.8061783" lon="-2.3773467"><ele>360.0</ele><time>2026-05-03T09:12:23.783Z</time></trkpt><trkpt lat="54.8061567" lon="-2.37756"><ele>358.0</ele><time>2026-05-03T09:12:24.785Z</time></trkpt><trkpt lat="54.8061483" lon="-2.377775"><ele>357.25</ele><time>2026-05-03T09:12:25.783Z</time></trkpt><trkpt lat="54.8061383" lon="-2.37797"><ele>356.5</ele><time>2026-05-03T09:12:26.782Z</time></trkpt><trkpt lat="54.806125" lon="-2.3781567"><ele>355.75</ele><time>2026-05-03T09:12:27.783Z</time></trkpt><trkpt lat="54.8061117" lon="-2.3783667"><ele>355.0</ele><time>2026-05-03T09:12:28.783Z</time></trkpt><trkpt lat="54.8061033" lon="-2.3785917"><ele>355.0</ele><time>2026-05-03T09:12:29.783Z</time></trkpt><trkpt lat="54.8061" lon="-2.3788233"><ele>355.0</ele><time>2026-05-03T09:12:30.785Z</time></trkpt><trkpt lat="54.8061067" lon="-2.3790617"><ele>355.0</ele><time>2026-05-03T09:12:31.784Z</time></trkpt><trkpt lat="54.8061217" lon="-2.3792967"><ele>355.0</ele><time>2026-05-03T09:12:32.785Z</time></trkpt><trkpt lat="54.8061533" lon="-2.3795433"><ele>356.0</ele><time>2026-05-03T09:12:33.783Z</time></trkpt><trkpt lat="54.806195" lon="-2.3797867"><ele>357.0</ele><time>2026-05-03T09:12:34.782Z</time></trkpt><trkpt lat="54.806255" lon="-2.38003"><ele>358.0</ele><time>2026-05-03T09:12:35.782Z</time></trkpt><trkpt lat="54.8063217" lon="-2.3802617"><ele>359.0</ele><time>2026-05-03T09:12:36.783Z</time></trkpt><trkpt lat="54.806395" lon="-2.3804917"><ele>361.0</ele><time>2026-05-03T09:12:37.783Z</time></trkpt><trkpt lat="54.80646" lon="-2.3807267"><ele>363.0</ele><time>2026-05-03T09:12:38.783Z</time></trkpt><trkpt lat="54.8065317" lon="-2.3809633"><ele>365.0</ele><time>2026-05-03T09:12:39.783Z</time></trkpt><trkpt lat="54.8066" lon="-2.3812033"><ele>364.6666666666667</ele><time>2026-05-03T09:12:40.782Z</time></trkpt><trkpt lat="54.806675" lon="-2.38145"><ele>364.3333333333333</ele><time>2026-05-03T09:12:41.783Z</time></trkpt><trkpt lat="54.80675" lon="-2.3817033"><ele>364.0</ele><time>2026-05-03T09:12:42.783Z</time></trkpt><trkpt lat="54.8068283" lon="-2.3819533"><ele>365.0</ele><time>2026-05-03T09:12:43.783Z</time></trkpt><trkpt lat="54.8069217" lon="-2.3822117"><ele>366.0</ele><time>2026-05-03T09:12:44.782Z</time></trkpt><trkpt lat="54.8070217" lon="-2.38246"><ele>367.0</ele><time>2026-05-03T09:12:45.782Z</time></trkpt><trkpt lat="54.8071233" lon="-2.3827033"><ele>367.0</ele><time>2026-05-03T09:12:46.782Z</time></trkpt><trkpt lat="54.8072283" lon="-2.38295"><ele>367.0</ele><time>2026-05-03T09:12:47.783Z</time></trkpt><trkpt lat="54.8073283" lon="-2.383195"><ele>367.0</ele><time>2026-05-03T09:12:48.784Z</time></trkpt><trkpt lat="54.8074267" lon="-2.3834233"><ele>367.25</ele><time>2026-05-03T09:12:49.783Z</time></trkpt><trkpt lat="54.8075167" lon="-2.3836367"><ele>367.5</ele><time>2026-05-03T09:12:50.782Z</time></trkpt><trkpt lat="54.8075967" lon="-2.3838417"><ele>367.75</ele><time>2026-05-03T09:12:51.783Z</time></trkpt><trkpt lat="54.8076867" lon="-2.3840583"><ele>368.0</ele><time>2026-05-03T09:12:52.783Z</time></trkpt><trkpt lat="54.807765" lon="-2.38427"><ele>368.0</ele><time>2026-05-03T09:12:53.784Z</time></trkpt><trkpt lat="54.8078383" lon="-2.3844933"><ele>368.0</ele><time>2026-05-03T09:12:54.783Z</time></trkpt><trkpt lat="54.8079117" lon="-2.384725"><ele>368.0</ele><time>2026-05-03T09:12:55.783Z</time></trkpt><trkpt lat="54.8079767" lon="-2.3849633"><ele>368.6666666666667</ele><time>2026-05-03T09:12:56.783Z</time></trkpt><trkpt lat="54.8080233" lon="-2.3852067"><ele>369.3333333333333</ele><time>2026-05-03T09:12:57.783Z</time></trkpt><trkpt lat="54.8080583" lon="-2.385465"><ele>370.0</ele><time>2026-05-03T09:12:58.783Z</time></trkpt><trkpt lat="54.808085" lon="-2.3857217"><ele>370.0</ele><time>2026-05-03T09:12:59.782Z</time></trkpt><trkpt lat="54.8081167" lon="-2.3859767"><ele>370.0</ele><time>2026-05-03T09:13:00.783Z</time></trkpt><trkpt lat="54.8081583" lon="-2.38623"><ele>370.0</ele><time>2026-05-03T09:13:01.782Z</time></trkpt><trkpt lat="54.8082167" lon="-2.3864917"><ele>370.3333333333333</ele><time>2026-05-03T09:13:02.783Z</time></trkpt><trkpt lat="54.8082733" lon="-2.3867567"><ele>370.6666666666667</ele><time>2026-05-03T09:13:03.782Z</time></trkpt><trkpt lat="54.808345" lon="-2.38702"><ele>371.0</ele><time>2026-05-03T09:13:04.784Z</time></trkpt><trkpt lat="54.8084167" lon="-2.3872917"><ele>371.0</ele><time>2026-05-03T09:13:05.783Z</time></trkpt><trkpt lat="54.80849" lon="-2.3875717"><ele>371.0</ele><time>2026-05-03T09:13:06.783Z</time></trkpt><trkpt lat="54.8085633" lon="-2.3878417"><ele>371.0</ele><time>2026-05-03T09:13:07.783Z</time></trkpt><trkpt lat="54.80864" lon="-2.3881133"><ele>372.0</ele><time>2026-05-03T09:13:08.782Z</time></trkpt><trkpt lat="54.8087117" lon="-2.3883667"><ele>373.0</ele><time>2026-05-03T09:13:09.784Z</time></trkpt><trkpt lat="54.808785" lon="-2.38862"><ele>374.0</ele><time>2026-05-03T09:13:10.783Z</time></trkpt><trkpt lat="54.808855" lon="-2.388865"><ele>375.0</ele><time>2026-05-03T09:13:11.783Z</time></trkpt><trkpt lat="54.8089283" lon="-2.3891117"><ele>376.0</ele><time>2026-05-03T09:13:12.782Z</time></trkpt><trkpt lat="54.8090067" lon="-2.3893683"><ele>377.0</ele><time>2026-05-03T09:13:13.783Z</time></trkpt><trkpt lat="54.8090783" lon="-2.3896217"><ele>377.33333333333337</ele><time>2026-05-03T09:13:14.783Z</time></trkpt><trkpt lat="54.8091483" lon="-2.3898933"><ele>377.6666666666667</ele><time>2026-05-03T09:13:15.783Z</time></trkpt><trkpt lat="54.8092117" lon="-2.390185"><ele>378.0</ele><time>2026-05-03T09:13:16.785Z</time></trkpt><trkpt lat="54.80927" lon="-2.3905067"><ele>374.0</ele><time>2026-05-03T09:13:17.783Z</time></trkpt><trkpt lat="54.8093333" lon="-2.3908633"><ele>370.0</ele><time>2026-05-03T09:13:18.784Z</time></trkpt><trkpt lat="54.809405" lon="-2.39124"><ele>366.0</ele><time>2026-05-03T09:13:19.783Z</time></trkpt><trkpt lat="54.809475" lon="-2.3916217"><ele>366.0</ele><time>2026-05-03T09:13:20.783Z</time></trkpt><trkpt lat="54.8095467" lon="-2.39201"><ele>366.0</ele><time>2026-05-03T09:13:21.782Z</time></trkpt><trkpt lat="54.8096183" lon="-2.392395"><ele>366.3333333333333</ele><time>2026-05-03T09:13:22.783Z</time></trkpt><trkpt lat="54.8096883" lon="-2.39277"><ele>366.66666666666663</ele><time>2026-05-03T09:13:23.783Z</time></trkpt><trkpt lat="54.8097533" lon="-2.393135"><ele>367.0</ele><time>2026-05-03T09:13:24.782Z</time></trkpt><trkpt lat="54.8098183" lon="-2.3934983"><ele>369.0</ele><time>2026-05-03T09:13:25.783Z</time></trkpt><trkpt lat="54.8098867" lon="-2.3938683"><ele>371.0</ele><time>2026-05-03T09:13:26.783Z</time></trkpt><trkpt lat="54.80996" lon="-2.394235"><ele>373.0</ele><time>2026-05-03T09:13:27.783Z</time></trkpt><trkpt lat="54.8100317" lon="-2.394595"><ele>372.66666666666663</ele><time>2026-05-03T09:13:28.782Z</time></trkpt><trkpt lat="54.8100967" lon="-2.3949467"><ele>372.3333333333333</ele><time>2026-05-03T09:13:29.782Z</time></trkpt><trkpt lat="54.8101583" lon="-2.3952917"><ele>372.0</ele><time>2026-05-03T09:13:30.782Z</time></trkpt><trkpt lat="54.8102217" lon="-2.3956233"><ele>372.0</ele><time>2026-05-03T09:13:31.783Z</time></trkpt><trkpt lat="54.8102767" lon="-2.395915"><ele>372.0</ele><time>2026-05-03T09:13:32.782Z</time></trkpt><trkpt lat="54.8103217" lon="-2.3961667"><ele>372.0</ele><time>2026-05-03T09:13:33.783Z</time></trkpt><trkpt lat="54.8103667" lon="-2.3964017"><ele>372.25</ele><time>2026-05-03T09:13:34.783Z</time></trkpt><trkpt lat="54.810405" lon="-2.39664"><ele>372.5</ele><time>2026-05-03T09:13:35.783Z</time></trkpt><trkpt lat="54.81044" lon="-2.3968867"><ele>372.75</ele><time>2026-05-03T09:13:36.783Z</time></trkpt><trkpt lat="54.810465" lon="-2.3971533"><ele>373.0</ele><time>2026-05-03T09:13:37.783Z</time></trkpt><trkpt lat="54.8104933" lon="-2.3974383"><ele>373.0</ele><time>2026-05-03T09:13:38.782Z</time></trkpt><trkpt lat="54.8105183" lon="-2.397745"><ele>373.0</ele><time>2026-05-03T09:13:39.783Z</time></trkpt><trkpt lat="54.810545" lon="-2.3980767"><ele>373.0</ele><time>2026-05-03T09:13:40.782Z</time></trkpt><trkpt lat="54.810575" lon="-2.39843"><ele>372.66666666666663</ele><time>2026-05-03T09:13:41.782Z</time></trkpt><trkpt lat="54.8106033" lon="-2.3988017"><ele>372.3333333333333</ele><time>2026-05-03T09:13:42.787Z</time></trkpt><trkpt lat="54.8106367" lon="-2.3991967"><ele>372.0</ele><time>2026-05-03T09:13:43.784Z</time></trkpt><trkpt lat="54.810665" lon="-2.39959"><ele>372.6666666666667</ele><time>2026-05-03T09:13:44.783Z</time></trkpt><trkpt lat="54.81069" lon="-2.399975"><ele>373.33333333333337</ele><time>2026-05-03T09:13:45.782Z</time></trkpt><trkpt lat="54.8107117" lon="-2.4003483"><ele>374.0</ele><time>2026-05-03T09:13:46.782Z</time></trkpt><trkpt lat="54.810735" lon="-2.4007233"><ele>374.0</ele><time>2026-05-03T09:13:47.782Z</time></trkpt><trkpt lat="54.8107567" lon="-2.4010933"><ele>374.0</ele><time>2026-05-03T09:13:48.783Z</time></trkpt><trkpt lat="54.8107767" lon="-2.4014567"><ele>374.0</ele><time>2026-05-03T09:13:49.783Z</time></trkpt><trkpt lat="54.8107967" lon="-2.401815"><ele>375.0</ele><time>2026-05-03T09:13:50.783Z</time></trkpt><trkpt lat="54.8108167" lon="-2.40217"><ele>376.0</ele><time>2026-05-03T09:13:51.782Z</time></trkpt><trkpt lat="54.8108267" lon="-2.4025083"><ele>377.0</ele><time>2026-05-03T09:13:52.782Z</time></trkpt><trkpt lat="54.8108317" lon="-2.4028533"><ele>377.33333333333337</ele><time>2026-05-03T09:13:53.782Z</time></trkpt><trkpt lat="54.81083" lon="-2.4032067"><ele>377.6666666666667</ele><time>2026-05-03T09:13:54.782Z</time></trkpt><trkpt lat="54.810825" lon="-2.403585"><ele>378.0</ele><time>2026-05-03T09:13:55.784Z</time></trkpt><trkpt lat="54.8108167" lon="-2.4039867"><ele>378.0</ele><time>2026-05-03T09:13:56.782Z</time></trkpt><trkpt lat="54.8108133" lon="-2.4044033"><ele>378.0</ele><time>2026-05-03T09:13:57.785Z</time></trkpt><trkpt lat="54.8108083" lon="-2.4048"><ele>377.3333333333333</ele><time>2026-05-03T09:13:58.782Z</time></trkpt><trkpt lat="54.8108033" lon="-2.4051883"><ele>376.66666666666663</ele><time>2026-05-03T09:13:59.784Z</time></trkpt><trkpt lat="54.8107917" lon="-2.405565"><ele>376.0</ele><time>2026-05-03T09:14:00.788Z</time></trkpt><trkpt lat="54.8107783" lon="-2.4059317"><ele>376.0</ele><time>2026-05-03T09:14:01.786Z</time></trkpt><trkpt lat="54.810765" lon="-2.4062783"><ele>376.0</ele><time>2026-05-03T09:14:02.783Z</time></trkpt><trkpt lat="54.8107517" lon="-2.406605"><ele>376.0</ele><time>2026-05-03T09:14:03.782Z</time></trkpt><trkpt lat="54.8107383" lon="-2.4069317"><ele>375.66666666666663</ele><time>2026-05-03T09:14:04.784Z</time></trkpt><trkpt lat="54.8107267" lon="-2.4072717"><ele>375.3333333333333</ele><time>2026-05-03T09:14:05.784Z</time></trkpt><trkpt lat="54.810715" lon="-2.4076283"><ele>375.0</ele><time>2026-05-03T09:14:06.783Z</time></trkpt><trkpt lat="54.8107033" lon="-2.4080083"><ele>374.0</ele><time>2026-05-03T09:14:07.784Z</time></trkpt><trkpt lat="54.8106917" lon="-2.4084117"><ele>373.0</ele><time>2026-05-03T09:14:08.784Z</time></trkpt><trkpt lat="54.8106733" lon="-2.408835"><ele>371.5</ele><time>2026-05-03T09:14:09.783Z</time></trkpt><trkpt lat="54.81065" lon="-2.4092733"><ele>370.0</ele><time>2026-05-03T09:14:10.784Z</time></trkpt><trkpt lat="54.810625" lon="-2.4097317"><ele>368.5</ele><time>2026-05-03T09:14:11.785Z</time></trkpt><trkpt lat="54.8105933" lon="-2.410205"><ele>367.0</ele><time>2026-05-03T09:14:12.783Z</time></trkpt><trkpt lat="54.8105617" lon="-2.4106783"><ele>367.0</ele><time>2026-05-03T09:14:13.784Z</time></trkpt><trkpt lat="54.810535" lon="-2.4111467"><ele>367.0</ele><time>2026-05-03T09:14:14.783Z</time></trkpt><trkpt lat="54.8105083" lon="-2.411605"><ele>366.5</ele><time>2026-05-03T09:14:15.784Z</time></trkpt><trkpt lat="54.810485" lon="-2.41207"><ele>366.0</ele><time>2026-05-03T09:14:16.783Z</time></trkpt><trkpt lat="54.8104617" lon="-2.41254"><ele>364.0</ele><time>2026-05-03T09:14:17.784Z</time></trkpt><trkpt lat="54.8104333" lon="-2.413005"><ele>362.0</ele><time>2026-05-03T09:14:18.783Z</time></trkpt><trkpt lat="54.810405" lon="-2.4134617"><ele>361.5</ele><time>2026-05-03T09:14:19.784Z</time></trkpt><trkpt lat="54.8103783" lon="-2.4139183"><ele>361.0</ele><time>2026-05-03T09:14:20.785Z</time></trkpt><trkpt lat="54.81036" lon="-2.4143633"><ele>361.0</ele><time>2026-05-03T09:14:21.783Z</time></trkpt><trkpt lat="54.8103483" lon="-2.41479"><ele>361.0</ele><time>2026-05-03T09:14:22.784Z</time></trkpt><trkpt lat="54.8103417" lon="-2.4151833"><ele>361.0</ele><time>2026-05-03T09:14:23.784Z</time></trkpt><trkpt lat="54.8103367" lon="-2.415545"><ele>361.0</ele><time>2026-05-03T09:14:24.784Z</time></trkpt><trkpt lat="54.81034" lon="-2.4158933"><ele>361.0</ele><time>2026-05-03T09:14:25.784Z</time></trkpt><trkpt lat="54.81035" lon="-2.4162467"><ele>361.0</ele><time>2026-05-03T09:14:26.783Z</time></trkpt><trkpt lat="54.8103533" lon="-2.4166067"><ele>361.0</ele><time>2026-05-03T09:14:27.784Z</time></trkpt><trkpt lat="54.8103533" lon="-2.4169733"><ele>361.0</ele><time>2026-05-03T09:14:28.784Z</time></trkpt><trkpt lat="54.8103567" lon="-2.417345"><ele>361.0</ele><time>2026-05-03T09:14:29.783Z</time></trkpt><trkpt lat="54.8103617" lon="-2.4176983"><ele>361.0</ele><time>2026-05-03T09:14:30.784Z</time></trkpt><trkpt lat="54.8103667" lon="-2.4180267"><ele>361.0</ele><time>2026-05-03T09:14:31.784Z</time></trkpt><trkpt lat="54.8103783" lon="-2.4183517"><ele>361.0</ele><time>2026-05-03T09:14:32.786Z</time></trkpt><trkpt lat="54.8103883" lon="-2.418695"><ele>361.0</ele><time>2026-05-03T09:14:33.784Z</time></trkpt><trkpt lat="54.8103983" lon="-2.419055"><ele>361.0</ele><time>2026-05-03T09:14:34.784Z</time></trkpt><trkpt lat="54.8104083" lon="-2.41943"><ele>360.66666666666663</ele><time>2026-05-03T09:14:35.784Z</time></trkpt><trkpt lat="54.81042" lon="-2.4198183"><ele>360.3333333333333</ele><time>2026-05-03T09:14:36.783Z</time></trkpt><trkpt lat="54.8104317" lon="-2.420205"><ele>360.0</ele><time>2026-05-03T09:14:37.784Z</time></trkpt><trkpt lat="54.8104433" lon="-2.4205867"><ele>360.0</ele><time>2026-05-03T09:14:38.785Z</time></trkpt><trkpt lat="54.8104583" lon="-2.420965"><ele>360.0</ele><time>2026-05-03T09:14:39.783Z</time></trkpt><trkpt lat="54.810475" lon="-2.4213583"><ele>360.0</ele><time>2026-05-03T09:14:40.783Z</time></trkpt><trkpt lat="54.81049" lon="-2.42177"><ele>356.5</ele><time>2026-05-03T09:14:41.785Z</time></trkpt><trkpt lat="54.810505" lon="-2.422205"><ele>353.0</ele><time>2026-05-03T09:14:42.785Z</time></trkpt><trkpt lat="54.8105217" lon="-2.4226517"><ele>352.5</ele><time>2026-05-03T09:14:43.784Z</time></trkpt><trkpt lat="54.810545" lon="-2.4231133"><ele>352.0</ele><time>2026-05-03T09:14:44.784Z</time></trkpt><trkpt lat="54.81057" lon="-2.4235733"><ele>351.0</ele><time>2026-05-03T09:14:45.783Z</time></trkpt><trkpt lat="54.81059" lon="-2.4240133"><ele>350.0</ele><time>2026-05-03T09:14:46.784Z</time></trkpt><trkpt lat="54.8106067" lon="-2.4244317"><ele>348.5</ele><time>2026-05-03T09:14:47.784Z</time></trkpt><trkpt lat="54.810625" lon="-2.4248267"><ele>347.0</ele><time>2026-05-03T09:14:48.783Z</time></trkpt><trkpt lat="54.8106433" lon="-2.42521"><ele>346.33333333333337</ele><time>2026-05-03T09:14:49.784Z</time></trkpt><trkpt lat="54.8106583" lon="-2.4255767"><ele>345.6666666666667</ele><time>2026-05-03T09:14:50.784Z</time></trkpt><trkpt lat="54.8106667" lon="-2.425925"><ele>345.0</ele><time>2026-05-03T09:14:51.784Z</time></trkpt><trkpt lat="54.8106817" lon="-2.4262683"><ele>343.6666666666667</ele><time>2026-05-03T09:14:52.784Z</time></trkpt><trkpt lat="54.8106933" lon="-2.4265983"><ele>342.33333333333337</ele><time>2026-05-03T09:14:53.784Z</time></trkpt><trkpt lat="54.8107033" lon="-2.42692"><ele>341.0</ele><time>2026-05-03T09:14:54.783Z</time></trkpt><trkpt lat="54.8107067" lon="-2.42723"><ele>340.0</ele><time>2026-05-03T09:14:55.783Z</time></trkpt><trkpt lat="54.8107133" lon="-2.4275383"><ele>339.0</ele><time>2026-05-03T09:14:56.783Z</time></trkpt><trkpt lat="54.8107283" lon="-2.4278567"><ele>338.0</ele><time>2026-05-03T09:14:57.784Z</time></trkpt><trkpt lat="54.8107433" lon="-2.4281617"><ele>337.5</ele><time>2026-05-03T09:14:58.784Z</time></trkpt><trkpt lat="54.8107567" lon="-2.4284417"><ele>337.0</ele><time>2026-05-03T09:14:59.784Z</time></trkpt><trkpt lat="54.8107633" lon="-2.4286967"><ele>336.5</ele><time>2026-05-03T09:15:00.786Z</time></trkpt><trkpt lat="54.8107733" lon="-2.4289317"><ele>336.0</ele><time>2026-05-03T09:15:01.784Z</time></trkpt><trkpt lat="54.8107817" lon="-2.4291567"><ele>335.75</ele><time>2026-05-03T09:15:02.786Z</time></trkpt><trkpt lat="54.8107867" lon="-2.42937"><ele>335.5</ele><time>2026-05-03T09:15:03.783Z</time></trkpt><trkpt lat="54.8107933" lon="-2.4295783"><ele>335.25</ele><time>2026-05-03T09:15:04.784Z</time></trkpt><trkpt lat="54.8108017" lon="-2.4297783"><ele>335.0</ele><time>2026-05-03T09:15:05.784Z</time></trkpt><trkpt lat="54.8108083" lon="-2.4299767"><ele>335.0</ele><time>2026-05-03T09:15:06.783Z</time></trkpt><trkpt lat="54.810815" lon="-2.4301783"><ele>335.0</ele><time>2026-05-03T09:15:07.784Z</time></trkpt><trkpt lat="54.8108233" lon="-2.4303933"><ele>335.0</ele><time>2026-05-03T09:15:08.784Z</time></trkpt><trkpt lat="54.8108283" lon="-2.430615"><ele>335.0</ele><time>2026-05-03T09:15:09.784Z</time></trkpt><trkpt lat="54.810835" lon="-2.4308433"><ele>335.0</ele><time>2026-05-03T09:15:10.784Z</time></trkpt><trkpt lat="54.8108417" lon="-2.4310733"><ele>335.0</ele><time>2026-05-03T09:15:11.784Z</time></trkpt><trkpt lat="54.8108467" lon="-2.4313067"><ele>335.0</ele><time>2026-05-03T09:15:12.789Z</time></trkpt><trkpt lat="54.8108533" lon="-2.431545"><ele>335.0</ele><time>2026-05-03T09:15:13.784Z</time></trkpt><trkpt lat="54.8108583" lon="-2.4317817"><ele>335.0</ele><time>2026-05-03T09:15:14.783Z</time></trkpt><trkpt lat="54.810865" lon="-2.432015"><ele>335.0</ele><time>2026-05-03T09:15:15.785Z</time></trkpt><trkpt lat="54.81087" lon="-2.4322517"><ele>335.0</ele><time>2026-05-03T09:15:16.784Z</time></trkpt><trkpt lat="54.8108733" lon="-2.4325067"><ele>335.0</ele><time>2026-05-03T09:15:17.785Z</time></trkpt><trkpt lat="54.8108683" lon="-2.43278"><ele>333.6666666666667</ele><time>2026-05-03T09:15:18.783Z</time></trkpt><trkpt lat="54.8108667" lon="-2.4330767"><ele>332.3333333333333</ele><time>2026-05-03T09:15:19.789Z</time></trkpt><trkpt lat="54.810865" lon="-2.43337"><ele>331.0</ele><time>2026-05-03T09:15:20.784Z</time></trkpt><trkpt lat="54.8108567" lon="-2.4336483"><ele>330.0</ele><time>2026-05-03T09:15:21.784Z</time></trkpt><trkpt lat="54.8108467" lon="-2.43392"><ele>329.0</ele><time>2026-05-03T09:15:22.79Z</time></trkpt><trkpt lat="54.8108367" lon="-2.4341733"><ele>328.0</ele><time>2026-05-03T09:15:23.784Z</time></trkpt><trkpt lat="54.8108317" lon="-2.4344167"><ele>327.0</ele><time>2026-05-03T09:15:24.785Z</time></trkpt><trkpt lat="54.8108233" lon="-2.4346533"><ele>326.25</ele><time>2026-05-03T09:15:25.786Z</time></trkpt><trkpt lat="54.8108167" lon="-2.434885"><ele>325.5</ele><time>2026-05-03T09:15:26.783Z</time></trkpt><trkpt lat="54.81081" lon="-2.4351067"><ele>324.75</ele><time>2026-05-03T09:15:27.784Z</time></trkpt><trkpt lat="54.8108033" lon="-2.4353183"><ele>324.0</ele><time>2026-05-03T09:15:28.786Z</time></trkpt><trkpt lat="54.8107967" lon="-2.4355317"><ele>323.4</ele><time>2026-05-03T09:15:29.784Z</time></trkpt><trkpt lat="54.8107917" lon="-2.4357417"><ele>322.79999999999995</ele><time>2026-05-03T09:15:30.786Z</time></trkpt><trkpt lat="54.8107933" lon="-2.435945"><ele>322.20000000000005</ele><time>2026-05-03T09:15:31.786Z</time></trkpt><trkpt lat="54.8107917" lon="-2.4361367"><ele>321.6</ele><time>2026-05-03T09:15:32.785Z</time></trkpt><trkpt lat="54.810785" lon="-2.43631"><ele>321.0</ele><time>2026-05-03T09:15:33.784Z</time></trkpt><trkpt lat="54.81078" lon="-2.436465"><ele>320.5</ele><time>2026-05-03T09:15:34.788Z</time></trkpt><trkpt lat="54.810785" lon="-2.43662"><ele>320.0</ele><time>2026-05-03T09:15:35.785Z</time></trkpt><trkpt lat="54.8107917" lon="-2.4367633"><ele>319.5</ele><time>2026-05-03T09:15:36.785Z</time></trkpt><trkpt lat="54.810805" lon="-2.4368933"><ele>319.0</ele><time>2026-05-03T09:15:37.784Z</time></trkpt><trkpt lat="54.81082" lon="-2.4370033"><ele>318.5</ele><time>2026-05-03T09:15:38.784Z</time></trkpt><trkpt lat="54.81084" lon="-2.4371517"><ele>318.0</ele><time>2026-05-03T09:15:40.783Z</time></trkpt><trkpt lat="54.8108883" lon="-2.4373083"><ele>317.2</ele><time>2026-05-03T09:15:43.786Z</time></trkpt><trkpt lat="54.8109333" lon="-2.437385"><ele>316.4</ele><time>2026-05-03T09:15:44.783Z</time></trkpt><trkpt lat="54.810995" lon="-2.43747"><ele>315.59999999999997</ele><time>2026-05-03T09:15:45.784Z</time></trkpt><trkpt lat="54.8110733" lon="-2.43758"><ele>314.8</ele><time>2026-05-03T09:15:46.785Z</time></trkpt><trkpt lat="54.8111483" lon="-2.4376967"><ele>314.0</ele><time>2026-05-03T09:15:47.784Z</time></trkpt><trkpt lat="54.8112483" lon="-2.43781"><ele>313.25</ele><time>2026-05-03T09:15:48.786Z</time></trkpt><trkpt lat="54.81137" lon="-2.4379283"><ele>312.5</ele><time>2026-05-03T09:15:49.784Z</time></trkpt><trkpt lat="54.811485" lon="-2.438045"><ele>311.75</ele><time>2026-05-03T09:15:50.784Z</time></trkpt><trkpt lat="54.8115967" lon="-2.4381383"><ele>311.0</ele><time>2026-05-03T09:15:51.784Z</time></trkpt><trkpt lat="54.811695" lon="-2.4382267"><ele>310.2</ele><time>2026-05-03T09:15:52.784Z</time></trkpt><trkpt lat="54.8117967" lon="-2.4382933"><ele>309.40000000000003</ele><time>2026-05-03T09:15:53.784Z</time></trkpt><trkpt lat="54.8118983" lon="-2.43837"><ele>308.6</ele><time>2026-05-03T09:15:54.784Z</time></trkpt><trkpt lat="54.8119967" lon="-2.4384517"><ele>307.8</ele><time>2026-05-03T09:15:55.784Z</time></trkpt><trkpt lat="54.8120883" lon="-2.4385417"><ele>307.0</ele><time>2026-05-03T09:15:56.783Z</time></trkpt><trkpt lat="54.8121733" lon="-2.4386117"><ele>306.0</ele><time>2026-05-03T09:15:57.785Z</time></trkpt><trkpt lat="54.8122533" lon="-2.4386833"><ele>305.0</ele><time>2026-05-03T09:15:58.784Z</time></trkpt><trkpt lat="54.812325" lon="-2.43875"><ele>304.0</ele><time>2026-05-03T09:15:59.783Z</time></trkpt><trkpt lat="54.812385" lon="-2.4388067"><ele>303.0</ele><time>2026-05-03T09:16:00.784Z</time></trkpt><trkpt lat="54.8124367" lon="-2.4388717"><ele>302.0</ele><time>2026-05-03T09:16:01.784Z</time></trkpt><trkpt lat="54.8125133" lon="-2.4390133"><ele>301.0</ele><time>2026-05-03T09:16:03.783Z</time></trkpt><trkpt lat="54.8125417" lon="-2.4391167"><ele>300.2</ele><time>2026-05-03T09:16:04.784Z</time></trkpt><trkpt lat="54.8125583" lon="-2.4392317"><ele>299.40000000000003</ele><time>2026-05-03T09:16:05.785Z</time></trkpt><trkpt lat="54.8125817" lon="-2.4394017"><ele>298.6</ele><time>2026-05-03T09:16:06.784Z</time></trkpt><trkpt lat="54.812595" lon="-2.43957"><ele>297.8</ele><time>2026-05-03T09:16:07.784Z</time></trkpt><trkpt lat="54.81259" lon="-2.4397383"><ele>297.0</ele><time>2026-05-03T09:16:08.786Z</time></trkpt><trkpt lat="54.8125933" lon="-2.4399383"><ele>296.0</ele><time>2026-05-03T09:16:09.785Z</time></trkpt><trkpt lat="54.8125867" lon="-2.44013"><ele>295.0</ele><time>2026-05-03T09:16:10.783Z</time></trkpt><trkpt lat="54.8125783" lon="-2.44033"><ele>294.0</ele><time>2026-05-03T09:16:11.784Z</time></trkpt><trkpt lat="54.8125667" lon="-2.4405117"><ele>293.0</ele><time>2026-05-03T09:16:12.784Z</time></trkpt><trkpt lat="54.8125483" lon="-2.44068"><ele>292.0</ele><time>2026-05-03T09:16:13.784Z</time></trkpt><trkpt lat="54.8125383" lon="-2.4408233"><ele>291.0</ele><time>2026-05-03T09:16:14.784Z</time></trkpt><trkpt lat="54.81254" lon="-2.4409567"><ele>290.0</ele><time>2026-05-03T09:16:15.784Z</time></trkpt><trkpt lat="54.8125367" lon="-2.4410733"><ele>289.0</ele><time>2026-05-03T09:16:16.784Z</time></trkpt><trkpt lat="54.8125267" lon="-2.4411833"><ele>288.0</ele><time>2026-05-03T09:16:17.784Z</time></trkpt><trkpt lat="54.8124883" lon="-2.441355"><ele>287.0</ele><time>2026-05-03T09:16:19.783Z</time></trkpt><trkpt lat="54.8124283" lon="-2.441465"><ele>286.0</ele><time>2026-05-03T09:16:21.787Z</time></trkpt><trkpt lat="54.8122933" lon="-2.441535"><ele>285.2</ele><time>2026-05-03T09:16:23.784Z</time></trkpt><trkpt lat="54.8122017" lon="-2.4415683"><ele>284.40000000000003</ele><time>2026-05-03T09:16:24.784Z</time></trkpt><trkpt lat="54.8120967" lon="-2.4416033"><ele>283.6</ele><time>2026-05-03T09:16:25.783Z</time></trkpt><trkpt lat="54.8119883" lon="-2.44164"><ele>282.8</ele><time>2026-05-03T09:16:26.784Z</time></trkpt><trkpt lat="54.81188" lon="-2.4416783"><ele>282.0</ele><time>2026-05-03T09:16:27.785Z</time></trkpt><trkpt lat="54.8117717" lon="-2.441715"><ele>282.0</ele><time>2026-05-03T09:16:28.784Z</time></trkpt><trkpt lat="54.8116583" lon="-2.44174"><ele>282.0</ele><time>2026-05-03T09:16:29.783Z</time></trkpt><trkpt lat="54.8115467" lon="-2.441755"><ele>282.0</ele><time>2026-05-03T09:16:30.784Z</time></trkpt><trkpt lat="54.8114383" lon="-2.441765"><ele>282.0</ele><time>2026-05-03T09:16:31.785Z</time></trkpt><trkpt lat="54.81133" lon="-2.4417683"><ele>282.0</ele><time>2026-05-03T09:16:32.784Z</time></trkpt><trkpt lat="54.8112317" lon="-2.4417717"><ele>282.0</ele><time>2026-05-03T09:16:33.783Z</time></trkpt><trkpt lat="54.8111383" lon="-2.441775"><ele>282.0</ele><time>2026-05-03T09:16:34.783Z</time></trkpt><trkpt lat="54.8110633" lon="-2.4417817"><ele>282.0</ele><time>2026-05-03T09:16:35.783Z</time></trkpt><trkpt lat="54.8109933" lon="-2.4417967"><ele>282.0</ele><time>2026-05-03T09:16:36.785Z</time></trkpt><trkpt lat="54.8108833" lon="-2.4418517"><ele>282.0</ele><time>2026-05-03T09:16:38.783Z</time></trkpt><trkpt lat="54.810795" lon="-2.4418933"><ele>282.0</ele><time>2026-05-03T09:16:40.785Z</time></trkpt><trkpt lat="54.81075" lon="-2.4419733"><ele>282.2</ele><time>2026-05-03T09:16:42.784Z</time></trkpt><trkpt lat="54.8107783" lon="-2.4421033"><ele>282.4</ele><time>2026-05-03T09:16:45.785Z</time></trkpt><trkpt lat="54.8108367" lon="-2.4421567"><ele>282.6</ele><time>2026-05-03T09:16:48.784Z</time></trkpt><trkpt lat="54.810695" lon="-2.442205"><ele>282.8</ele><time>2026-05-03T09:19:51.783Z</time></trkpt><trkpt lat="54.8107933" lon="-2.4423183"><ele>283.0</ele><time>2026-05-03T09:20:42.784Z</time></trkpt><trkpt lat="54.8108833" lon="-2.4423083"><ele>282.8333333333333</ele><time>2026-05-03T09:24:36.783Z</time></trkpt><trkpt lat="54.8109283" lon="-2.4421633"><ele>282.66666666666663</ele><time>2026-05-03T09:26:16.782Z</time></trkpt><trkpt lat="54.810995" lon="-2.4421117"><ele>282.5</ele><time>2026-05-03T09:26:50.783Z</time></trkpt><trkpt lat="54.8110167" lon="-2.4419917"><ele>282.3333333333333</ele><time>2026-05-03T09:26:53.786Z</time></trkpt><trkpt lat="54.8110233" lon="-2.4418483"><ele>282.1666666666667</ele><time>2026-05-03T09:27:00.782Z</time></trkpt><trkpt lat="54.8111067" lon="-2.441785"><ele>282.0</ele><time>2026-05-03T09:27:03.783Z</time></trkpt><trkpt lat="54.811215" lon="-2.441755"><ele>282.0</ele><time>2026-05-03T09:27:05.782Z</time></trkpt><trkpt lat="54.81135" lon="-2.44175"><ele>282.0</ele><time>2026-05-03T09:27:07.785Z</time></trkpt><trkpt lat="54.81145" lon="-2.4417567"><ele>282.0</ele><time>2026-05-03T09:27:08.784Z</time></trkpt><trkpt lat="54.8115567" lon="-2.4417433"><ele>282.0</ele><time>2026-05-03T09:27:09.783Z</time></trkpt><trkpt lat="54.8116517" lon="-2.441725"><ele>282.0</ele><time>2026-05-03T09:27:10.783Z</time></trkpt><trkpt lat="54.8117433" lon="-2.4416933"><ele>281.1666666666667</ele><time>2026-05-03T09:27:11.783Z</time></trkpt><trkpt lat="54.81183" lon="-2.4416567"><ele>280.3333333333333</ele><time>2026-05-03T09:27:12.783Z</time></trkpt><trkpt lat="54.81191" lon="-2.44162"><ele>279.5</ele><time>2026-05-03T09:27:13.783Z</time></trkpt><trkpt lat="54.8119833" lon="-2.4415883"><ele>278.66666666666663</ele><time>2026-05-03T09:27:14.783Z</time></trkpt><trkpt lat="54.81205" lon="-2.4415583"><ele>277.8333333333333</ele><time>2026-05-03T09:27:15.784Z</time></trkpt><trkpt lat="54.8121183" lon="-2.4415333"><ele>277.0</ele><time>2026-05-03T09:27:16.783Z</time></trkpt><trkpt lat="54.8121833" lon="-2.4415133"><ele>277.0</ele><time>2026-05-03T09:27:17.783Z</time></trkpt><trkpt lat="54.81229" lon="-2.4414783"><ele>277.0</ele><time>2026-05-03T09:27:19.783Z</time></trkpt><trkpt lat="54.8123683" lon="-2.441435"><ele>277.0</ele><time>2026-05-03T09:27:21.783Z</time></trkpt><trkpt lat="54.81244" lon="-2.441305"><ele>277.0</ele><time>2026-05-03T09:27:23.783Z</time></trkpt><trkpt lat="54.8124667" lon="-2.4412"><ele>277.0</ele><time>2026-05-03T09:27:24.783Z</time></trkpt><trkpt lat="54.8124833" lon="-2.441075"><ele>277.0</ele><time>2026-05-03T09:27:25.782Z</time></trkpt><trkpt lat="54.8124933" lon="-2.4409133"><ele>279.25</ele><time>2026-05-03T09:27:26.783Z</time></trkpt><trkpt lat="54.8125033" lon="-2.4407233"><ele>281.5</ele><time>2026-05-03T09:27:27.782Z</time></trkpt><trkpt lat="54.8125183" lon="-2.440515"><ele>283.75</ele><time>2026-05-03T09:27:28.783Z</time></trkpt><trkpt lat="54.8125283" lon="-2.4403183"><ele>286.0</ele><time>2026-05-03T09:27:29.783Z</time></trkpt><trkpt lat="54.8125383" lon="-2.44013"><ele>287.0</ele><time>2026-05-03T09:27:30.783Z</time></trkpt><trkpt lat="54.8125383" lon="-2.439945"><ele>288.0</ele><time>2026-05-03T09:27:31.783Z</time></trkpt><trkpt lat="54.8125383" lon="-2.4397767"><ele>289.0</ele><time>2026-05-03T09:27:32.783Z</time></trkpt><trkpt lat="54.8125367" lon="-2.4396333"><ele>290.0</ele><time>2026-05-03T09:27:33.783Z</time></trkpt><trkpt lat="54.8125367" lon="-2.439495"><ele>291.0</ele><time>2026-05-03T09:27:34.783Z</time></trkpt><trkpt lat="54.8125317" lon="-2.4393533"><ele>292.0</ele><time>2026-05-03T09:27:35.785Z</time></trkpt><trkpt lat="54.8125167" lon="-2.43922"><ele>292.8333333333333</ele><time>2026-05-03T09:27:36.783Z</time></trkpt><trkpt lat="54.8124983" lon="-2.4390933"><ele>293.66666666666663</ele><time>2026-05-03T09:27:37.782Z</time></trkpt><trkpt lat="54.8124717" lon="-2.4389717"><ele>294.5</ele><time>2026-05-03T09:27:38.782Z</time></trkpt><trkpt lat="54.8124367" lon="-2.4388617"><ele>295.3333333333333</ele><time>2026-05-03T09:27:39.784Z</time></trkpt><trkpt lat="54.812385" lon="-2.4387767"><ele>296.1666666666667</ele><time>2026-05-03T09:27:40.782Z</time></trkpt><trkpt lat="54.8123183" lon="-2.4387033"><ele>297.0</ele><time>2026-05-03T09:27:41.783Z</time></trkpt><trkpt lat="54.8122417" lon="-2.438645"><ele>297.8</ele><time>2026-05-03T09:27:42.783Z</time></trkpt><trkpt lat="54.8121583" lon="-2.4385817"><ele>298.6</ele><time>2026-05-03T09:27:43.782Z</time></trkpt><trkpt lat="54.81206" lon="-2.4385033"><ele>299.40000000000003</ele><time>2026-05-03T09:27:44.783Z</time></trkpt><trkpt lat="54.8119633" lon="-2.4384233"><ele>300.2</ele><time>2026-05-03T09:27:45.783Z</time></trkpt><trkpt lat="54.8118617" lon="-2.4383417"><ele>301.0</ele><time>2026-05-03T09:27:46.783Z</time></trkpt><trkpt lat="54.811765" lon="-2.438255"><ele>302.2</ele><time>2026-05-03T09:27:47.783Z</time></trkpt><trkpt lat="54.811675" lon="-2.4381783"><ele>303.40000000000003</ele><time>2026-05-03T09:27:48.783Z</time></trkpt><trkpt lat="54.811585" lon="-2.4381117"><ele>304.6</ele><time>2026-05-03T09:27:49.783Z</time></trkpt><trkpt lat="54.811495" lon="-2.4380417"><ele>305.8</ele><time>2026-05-03T09:27:50.783Z</time></trkpt><trkpt lat="54.8114133" lon="-2.4379583"><ele>307.0</ele><time>2026-05-03T09:27:51.783Z</time></trkpt><trkpt lat="54.811335" lon="-2.4378767"><ele>307.8</ele><time>2026-05-03T09:27:52.783Z</time></trkpt><trkpt lat="54.8112567" lon="-2.4377717"><ele>308.6</ele><time>2026-05-03T09:27:53.783Z</time></trkpt><trkpt lat="54.8111733" lon="-2.437675"><ele>309.40000000000003</ele><time>2026-05-03T09:27:54.782Z</time></trkpt><trkpt lat="54.81109" lon="-2.43758"><ele>310.2</ele><time>2026-05-03T09:27:55.782Z</time></trkpt><trkpt lat="54.8110183" lon="-2.4374767"><ele>311.0</ele><time>2026-05-03T09:27:56.782Z</time></trkpt><trkpt lat="54.81096" lon="-2.437375"><ele>311.5</ele><time>2026-05-03T09:27:57.782Z</time></trkpt><trkpt lat="54.8109133" lon="-2.437265"><ele>312.0</ele><time>2026-05-03T09:27:58.783Z</time></trkpt><trkpt lat="54.8108783" lon="-2.4371483"><ele>312.5</ele><time>2026-05-03T09:27:59.784Z</time></trkpt><trkpt lat="54.81085" lon="-2.43702"><ele>313.0</ele><time>2026-05-03T09:28:00.783Z</time></trkpt><trkpt lat="54.8108367" lon="-2.436875"><ele>313.5</ele><time>2026-05-03T09:28:01.782Z</time></trkpt><trkpt lat="54.81083" lon="-2.4367183"><ele>314.0</ele><time>2026-05-03T09:28:02.783Z</time></trkpt><trkpt lat="54.8108233" lon="-2.43657"><ele>314.6666666666667</ele><time>2026-05-03T09:28:03.783Z</time></trkpt><trkpt lat="54.8108183" lon="-2.4364317"><ele>315.33333333333337</ele><time>2026-05-03T09:28:04.783Z</time></trkpt><trkpt lat="54.81083" lon="-2.43631"><ele>316.0</ele><time>2026-05-03T09:28:05.784Z</time></trkpt><trkpt lat="54.8108633" lon="-2.4361533"><ele>316.6666666666667</ele><time>2026-05-03T09:28:07.782Z</time></trkpt><trkpt lat="54.81089" lon="-2.4360367"><ele>317.3333333333333</ele><time>2026-05-03T09:28:58.783Z</time></trkpt><trkpt lat="54.810895" lon="-2.4358483"><ele>318.0</ele><time>2026-05-03T09:29:00.784Z</time></trkpt><trkpt lat="54.8109067" lon="-2.435725"><ele>318.6</ele><time>2026-05-03T09:29:01.783Z</time></trkpt><trkpt lat="54.8109183" lon="-2.435575"><ele>319.20000000000005</ele><time>2026-05-03T09:29:02.783Z</time></trkpt><trkpt lat="54.8109183" lon="-2.4354017"><ele>319.8</ele><time>2026-05-03T09:29:03.784Z</time></trkpt><trkpt lat="54.8109217" lon="-2.4352183"><ele>320.40000000000003</ele><time>2026-05-03T09:29:04.783Z</time></trkpt><trkpt lat="54.8109283" lon="-2.43501"><ele>321.0</ele><time>2026-05-03T09:29:05.784Z</time></trkpt><trkpt lat="54.8109317" lon="-2.43478"><ele>323.0</ele><time>2026-05-03T09:29:06.785Z</time></trkpt><trkpt lat="54.8109333" lon="-2.43453"><ele>325.0</ele><time>2026-05-03T09:29:07.784Z</time></trkpt><trkpt lat="54.8109333" lon="-2.4342617"><ele>327.0</ele><time>2026-05-03T09:29:08.783Z</time></trkpt><trkpt lat="54.81094" lon="-2.43399"><ele>328.0</ele><time>2026-05-03T09:29:09.784Z</time></trkpt><trkpt lat="54.8109533" lon="-2.4337233"><ele>329.0</ele><time>2026-05-03T09:29:10.784Z</time></trkpt><trkpt lat="54.8109617" lon="-2.4334667"><ele>330.0</ele><time>2026-05-03T09:29:11.783Z</time></trkpt><trkpt lat="54.8109683" lon="-2.4332133"><ele>331.0</ele><time>2026-05-03T09:29:12.783Z</time></trkpt><trkpt lat="54.8109717" lon="-2.4329517"><ele>331.66666666666663</ele><time>2026-05-03T09:29:13.783Z</time></trkpt><trkpt lat="54.8109683" lon="-2.4326933"><ele>332.3333333333333</ele><time>2026-05-03T09:29:14.783Z</time></trkpt><trkpt lat="54.8109667" lon="-2.4324333"><ele>333.0</ele><time>2026-05-03T09:29:15.783Z</time></trkpt><trkpt lat="54.810965" lon="-2.432155"><ele>333.6666666666667</ele><time>2026-05-03T09:29:16.784Z</time></trkpt><trkpt lat="54.8109683" lon="-2.4318833"><ele>334.33333333333337</ele><time>2026-05-03T09:29:17.784Z</time></trkpt><trkpt lat="54.81097" lon="-2.4316033"><ele>335.0</ele><time>2026-05-03T09:29:18.783Z</time></trkpt><trkpt lat="54.8109683" lon="-2.431325"><ele>335.0</ele><time>2026-05-03T09:29:19.784Z</time></trkpt><trkpt lat="54.8109583" lon="-2.43105"><ele>335.0</ele><time>2026-05-03T09:29:20.784Z</time></trkpt><trkpt lat="54.8109433" lon="-2.4307767"><ele>335.0</ele><time>2026-05-03T09:29:21.783Z</time></trkpt><trkpt lat="54.81093" lon="-2.4305033"><ele>335.0</ele><time>2026-05-03T09:29:22.784Z</time></trkpt><trkpt lat="54.8109183" lon="-2.4302367"><ele>335.0</ele><time>2026-05-03T09:29:23.784Z</time></trkpt><trkpt lat="54.8109083" lon="-2.4299883"><ele>335.0</ele><time>2026-05-03T09:29:24.787Z</time></trkpt><trkpt lat="54.8108917" lon="-2.429755"><ele>335.0</ele><time>2026-05-03T09:29:25.784Z</time></trkpt><trkpt lat="54.8108767" lon="-2.4295333"><ele>335.0</ele><time>2026-05-03T09:29:26.786Z</time></trkpt><trkpt lat="54.810865" lon="-2.4293083"><ele>335.0</ele><time>2026-05-03T09:29:27.785Z</time></trkpt><trkpt lat="54.8108517" lon="-2.4290933"><ele>335.0</ele><time>2026-05-03T09:29:28.783Z</time></trkpt><trkpt lat="54.8108433" lon="-2.4288833"><ele>335.0</ele><time>2026-05-03T09:29:29.784Z</time></trkpt><trkpt lat="54.81083" lon="-2.4286717"><ele>335.25</ele><time>2026-05-03T09:29:30.784Z</time></trkpt><trkpt lat="54.8108167" lon="-2.4284667"><ele>335.5</ele><time>2026-05-03T09:29:31.784Z</time></trkpt><trkpt lat="54.810805" lon="-2.4282567"><ele>335.75</ele><time>2026-05-03T09:29:32.783Z</time></trkpt><trkpt lat="54.8107933" lon="-2.4280367"><ele>336.0</ele><time>2026-05-03T09:29:33.786Z</time></trkpt><trkpt lat="54.8107817" lon="-2.4278033"><ele>336.5</ele><time>2026-05-03T09:29:34.784Z</time></trkpt><trkpt lat="54.8107733" lon="-2.42756"><ele>337.0</ele><time>2026-05-03T09:29:35.784Z</time></trkpt><trkpt lat="54.8107617" lon="-2.4273083"><ele>337.5</ele><time>2026-05-03T09:29:36.784Z</time></trkpt><trkpt lat="54.8107517" lon="-2.42705"><ele>338.0</ele><time>2026-05-03T09:29:37.787Z</time></trkpt><trkpt lat="54.81074" lon="-2.426785"><ele>339.0</ele><time>2026-05-03T09:29:38.783Z</time></trkpt><trkpt lat="54.8107183" lon="-2.4265117"><ele>340.0</ele><time>2026-05-03T09:29:39.784Z</time></trkpt><trkpt lat="54.8106917" lon="-2.4262217"><ele>341.0</ele><time>2026-05-03T09:29:40.783Z</time></trkpt><trkpt lat="54.8106817" lon="-2.4258933"><ele>342.33333333333337</ele><time>2026-05-03T09:29:41.783Z</time></trkpt><trkpt lat="54.8106667" lon="-2.42556"><ele>343.6666666666667</ele><time>2026-05-03T09:29:42.783Z</time></trkpt><trkpt lat="54.8106583" lon="-2.425235"><ele>345.0</ele><time>2026-05-03T09:29:43.784Z</time></trkpt><trkpt lat="54.8106417" lon="-2.4249017"><ele>346.6666666666667</ele><time>2026-05-03T09:29:44.783Z</time></trkpt><trkpt lat="54.8106033" lon="-2.4245267"><ele>348.33333333333337</ele><time>2026-05-03T09:29:45.784Z</time></trkpt><trkpt lat="54.8106033" lon="-2.4241867"><ele>350.0</ele><time>2026-05-03T09:29:46.783Z</time></trkpt><trkpt lat="54.8105967" lon="-2.423835"><ele>350.6666666666667</ele><time>2026-05-03T09:29:47.784Z</time></trkpt><trkpt lat="54.8105867" lon="-2.42347"><ele>351.3333333333333</ele><time>2026-05-03T09:29:48.783Z</time></trkpt><trkpt lat="54.810575" lon="-2.4230983"><ele>352.0</ele><time>2026-05-03T09:29:49.784Z</time></trkpt><trkpt lat="54.8105567" lon="-2.422715"><ele>352.3333333333333</ele><time>2026-05-03T09:29:50.786Z</time></trkpt><trkpt lat="54.810545" lon="-2.4223333"><ele>352.6666666666667</ele><time>2026-05-03T09:29:51.783Z</time></trkpt><trkpt lat="54.8105333" lon="-2.421955"><ele>353.0</ele><time>2026-05-03T09:29:52.783Z</time></trkpt><trkpt lat="54.8105217" lon="-2.421575"><ele>355.0</ele><time>2026-05-03T09:29:53.784Z</time></trkpt><trkpt lat="54.81051" lon="-2.4211983"><ele>357.0</ele><time>2026-05-03T09:29:54.784Z</time></trkpt><trkpt lat="54.8104983" lon="-2.4208267"><ele>359.0</ele><time>2026-05-03T09:29:55.784Z</time></trkpt><trkpt lat="54.8104867" lon="-2.42045"><ele>359.0</ele><time>2026-05-03T09:29:56.784Z</time></trkpt><trkpt lat="54.8104767" lon="-2.420065"><ele>359.0</ele><time>2026-05-03T09:29:57.784Z</time></trkpt><trkpt lat="54.8104633" lon="-2.419685"><ele>359.0</ele><time>2026-05-03T09:29:58.783Z</time></trkpt><trkpt lat="54.8104533" lon="-2.4193183"><ele>359.0</ele><time>2026-05-03T09:29:59.785Z</time></trkpt><trkpt lat="54.810445" lon="-2.418965"><ele>359.0</ele><time>2026-05-03T09:30:00.786Z</time></trkpt><trkpt lat="54.8104367" lon="-2.4186317"><ele>359.0</ele><time>2026-05-03T09:30:01.784Z</time></trkpt><trkpt lat="54.8104267" lon="-2.4183017"><ele>360.0</ele><time>2026-05-03T09:30:02.785Z</time></trkpt><trkpt lat="54.8104133" lon="-2.41796"><ele>361.0</ele><time>2026-05-03T09:30:03.784Z</time></trkpt><trkpt lat="54.810405" lon="-2.417615"><ele>362.0</ele><time>2026-05-03T09:30:04.783Z</time></trkpt><trkpt lat="54.8103983" lon="-2.4172633"><ele>361.6666666666667</ele><time>2026-05-03T09:30:05.784Z</time></trkpt><trkpt lat="54.8103867" lon="-2.4168983"><ele>361.3333333333333</ele><time>2026-05-03T09:30:06.788Z</time></trkpt><trkpt lat="54.8103767" lon="-2.4165367"><ele>361.0</ele><time>2026-05-03T09:30:07.783Z</time></trkpt><trkpt lat="54.81037" lon="-2.4161767"><ele>361.0</ele><time>2026-05-03T09:30:08.784Z</time></trkpt><trkpt lat="54.8103617" lon="-2.4158067"><ele>361.0</ele><time>2026-05-03T09:30:09.784Z</time></trkpt><trkpt lat="54.8103533" lon="-2.4154317"><ele>361.0</ele><time>2026-05-03T09:30:10.783Z</time></trkpt><trkpt lat="54.8103483" lon="-2.4150567"><ele>361.0</ele><time>2026-05-03T09:30:11.784Z</time></trkpt><trkpt lat="54.810355" lon="-2.4146867"><ele>361.0</ele><time>2026-05-03T09:30:12.787Z</time></trkpt><trkpt lat="54.8103733" lon="-2.4143233"><ele>361.0</ele><time>2026-05-03T09:30:13.783Z</time></trkpt><trkpt lat="54.81039" lon="-2.4139483"><ele>361.3333333333333</ele><time>2026-05-03T09:30:14.787Z</time></trkpt><trkpt lat="54.8104083" lon="-2.4135767"><ele>361.6666666666667</ele><time>2026-05-03T09:30:15.784Z</time></trkpt><trkpt lat="54.81043" lon="-2.4132067"><ele>362.0</ele><time>2026-05-03T09:30:16.786Z</time></trkpt><trkpt lat="54.8104517" lon="-2.4128367"><ele>362.33333333333337</ele><time>2026-05-03T09:30:17.782Z</time></trkpt><trkpt lat="54.8104717" lon="-2.4124717"><ele>362.6666666666667</ele><time>2026-05-03T09:30:18.785Z</time></trkpt><trkpt lat="54.8104933" lon="-2.4121117"><ele>363.0</ele><time>2026-05-03T09:30:19.787Z</time></trkpt><trkpt lat="54.8105117" lon="-2.4117533"><ele>364.0</ele><time>2026-05-03T09:30:20.784Z</time></trkpt><trkpt lat="54.8105283" lon="-2.4113867"><ele>365.0</ele><time>2026-05-03T09:30:21.783Z</time></trkpt><trkpt lat="54.810545" lon="-2.4110133"><ele>366.0</ele><time>2026-05-03T09:30:22.784Z</time></trkpt><trkpt lat="54.81056" lon="-2.4106333"><ele>366.3333333333333</ele><time>2026-05-03T09:30:23.784Z</time></trkpt><trkpt lat="54.8105783" lon="-2.4102583"><ele>366.66666666666663</ele><time>2026-05-03T09:30:24.783Z</time></trkpt><trkpt lat="54.8105983" lon="-2.4098817"><ele>367.0</ele><time>2026-05-03T09:30:25.783Z</time></trkpt><trkpt lat="54.810615" lon="-2.4095083"><ele>368.0</ele><time>2026-05-03T09:30:26.785Z</time></trkpt><trkpt lat="54.810635" lon="-2.40914"><ele>369.0</ele><time>2026-05-03T09:30:27.784Z</time></trkpt><trkpt lat="54.8106583" lon="-2.408775"><ele>370.0</ele><time>2026-05-03T09:30:28.783Z</time></trkpt><trkpt lat="54.8106783" lon="-2.4084083"><ele>371.0</ele><time>2026-05-03T09:30:29.784Z</time></trkpt><trkpt lat="54.8106967" lon="-2.40804"><ele>372.0</ele><time>2026-05-03T09:30:30.784Z</time></trkpt><trkpt lat="54.81072" lon="-2.4076867"><ele>373.0</ele><time>2026-05-03T09:30:31.783Z</time></trkpt><trkpt lat="54.8107367" lon="-2.4073317"><ele>374.0</ele><time>2026-05-03T09:30:32.783Z</time></trkpt><trkpt lat="54.8107517" lon="-2.4069633"><ele>375.0</ele><time>2026-05-03T09:30:33.784Z</time></trkpt><trkpt lat="54.81077" lon="-2.4065883"><ele>376.0</ele><time>2026-05-03T09:30:34.784Z</time></trkpt><trkpt lat="54.8107833" lon="-2.4061983"><ele>376.0</ele><time>2026-05-03T09:30:35.783Z</time></trkpt><trkpt lat="54.8107983" lon="-2.4058033"><ele>376.0</ele><time>2026-05-03T09:30:36.785Z</time></trkpt><trkpt lat="54.8108117" lon="-2.4054"><ele>376.0</ele><time>2026-05-03T09:30:37.785Z</time></trkpt><trkpt lat="54.810825" lon="-2.404995"><ele>376.0</ele><time>2026-05-03T09:30:38.785Z</time></trkpt><trkpt lat="54.8108333" lon="-2.4045833"><ele>377.0</ele><time>2026-05-03T09:30:39.783Z</time></trkpt><trkpt lat="54.8108433" lon="-2.4041767"><ele>378.0</ele><time>2026-05-03T09:30:40.784Z</time></trkpt><trkpt lat="54.8108533" lon="-2.403785"><ele>378.0</ele><time>2026-05-03T09:30:41.784Z</time></trkpt><trkpt lat="54.81086" lon="-2.4034133"><ele>378.0</ele><time>2026-05-03T09:30:42.784Z</time></trkpt><trkpt lat="54.8108617" lon="-2.4030683"><ele>378.0</ele><time>2026-05-03T09:30:43.783Z</time></trkpt><trkpt lat="54.8108617" lon="-2.4027333"><ele>377.6666666666667</ele><time>2026-05-03T09:30:44.783Z</time></trkpt><trkpt lat="54.8108567" lon="-2.4023833"><ele>377.33333333333337</ele><time>2026-05-03T09:30:45.783Z</time></trkpt><trkpt lat="54.8108433" lon="-2.402015"><ele>377.0</ele><time>2026-05-03T09:30:46.784Z</time></trkpt><trkpt lat="54.810825" lon="-2.401635"><ele>375.5</ele><time>2026-05-03T09:30:47.784Z</time></trkpt><trkpt lat="54.8108033" lon="-2.4012417"><ele>374.0</ele><time>2026-05-03T09:30:48.787Z</time></trkpt><trkpt lat="54.810775" lon="-2.4008433"><ele>374.0</ele><time>2026-05-03T09:30:49.783Z</time></trkpt><trkpt lat="54.8107483" lon="-2.4004467"><ele>374.0</ele><time>2026-05-03T09:30:50.783Z</time></trkpt><trkpt lat="54.8107183" lon="-2.400045"><ele>372.5</ele><time>2026-05-03T09:30:51.787Z</time></trkpt><trkpt lat="54.81069" lon="-2.399645"><ele>371.0</ele><time>2026-05-03T09:30:52.784Z</time></trkpt><trkpt lat="54.81066" lon="-2.3992433"><ele>371.0</ele><time>2026-05-03T09:30:53.784Z</time></trkpt><trkpt lat="54.8106317" lon="-2.3988417"><ele>371.0</ele><time>2026-05-03T09:30:54.783Z</time></trkpt><trkpt lat="54.8106017" lon="-2.3984417"><ele>371.33333333333337</ele><time>2026-05-03T09:30:55.784Z</time></trkpt><trkpt lat="54.8105733" lon="-2.3980567"><ele>371.6666666666667</ele><time>2026-05-03T09:30:56.787Z</time></trkpt><trkpt lat="54.8105467" lon="-2.3976933"><ele>372.0</ele><time>2026-05-03T09:30:57.784Z</time></trkpt><trkpt lat="54.81052" lon="-2.3973467"><ele>372.0</ele><time>2026-05-03T09:30:58.785Z</time></trkpt><trkpt lat="54.81049" lon="-2.3970017"><ele>372.0</ele><time>2026-05-03T09:30:59.784Z</time></trkpt><trkpt lat="54.8104533" lon="-2.396655"><ele>372.0</ele><time>2026-05-03T09:31:00.784Z</time></trkpt><trkpt lat="54.810405" lon="-2.3963033"><ele>372.0</ele><time>2026-05-03T09:31:01.784Z</time></trkpt><trkpt lat="54.8103417" lon="-2.3959417"><ele>372.0</ele><time>2026-05-03T09:31:02.785Z</time></trkpt><trkpt lat="54.810275" lon="-2.39557"><ele>372.0</ele><time>2026-05-03T09:31:03.783Z</time></trkpt><trkpt lat="54.8101967" lon="-2.3951833"><ele>372.5</ele><time>2026-05-03T09:31:04.784Z</time></trkpt><trkpt lat="54.8101117" lon="-2.39479"><ele>373.0</ele><time>2026-05-03T09:31:05.784Z</time></trkpt><trkpt lat="54.8100333" lon="-2.3943967"><ele>373.0</ele><time>2026-05-03T09:31:06.783Z</time></trkpt><trkpt lat="54.8099517" lon="-2.3939983"><ele>373.0</ele><time>2026-05-03T09:31:07.784Z</time></trkpt><trkpt lat="54.80987" lon="-2.3936017"><ele>371.5</ele><time>2026-05-03T09:31:08.787Z</time></trkpt><trkpt lat="54.8097883" lon="-2.3932083"><ele>370.0</ele><time>2026-05-03T09:31:09.783Z</time></trkpt><trkpt lat="54.8097083" lon="-2.3928183"><ele>368.5</ele><time>2026-05-03T09:31:10.787Z</time></trkpt><trkpt lat="54.8096317" lon="-2.3924333"><ele>367.0</ele><time>2026-05-03T09:31:11.784Z</time></trkpt><trkpt lat="54.8095583" lon="-2.392045"><ele>366.5</ele><time>2026-05-03T09:31:12.783Z</time></trkpt><trkpt lat="54.8094867" lon="-2.3916617"><ele>366.0</ele><time>2026-05-03T09:31:13.784Z</time></trkpt><trkpt lat="54.8094167" lon="-2.39129"><ele>365.6666666666667</ele><time>2026-05-03T09:31:14.784Z</time></trkpt><trkpt lat="54.8093517" lon="-2.3909417"><ele>365.33333333333337</ele><time>2026-05-03T09:31:15.784Z</time></trkpt><trkpt lat="54.8092867" lon="-2.3906033"><ele>365.0</ele><time>2026-05-03T09:31:16.784Z</time></trkpt><trkpt lat="54.809225" lon="-2.3902783"><ele>369.0</ele><time>2026-05-03T09:31:17.783Z</time></trkpt><trkpt lat="54.809165" lon="-2.389975"><ele>373.0</ele><time>2026-05-03T09:31:18.783Z</time></trkpt><trkpt lat="54.809105" lon="-2.3896967"><ele>377.0</ele><time>2026-05-03T09:31:19.784Z</time></trkpt><trkpt lat="54.80904" lon="-2.3894333"><ele>377.0</ele><time>2026-05-03T09:31:20.784Z</time></trkpt><trkpt lat="54.8089667" lon="-2.3891667"><ele>377.0</ele><time>2026-05-03T09:31:21.786Z</time></trkpt><trkpt lat="54.808885" lon="-2.3888917"><ele>377.0</ele><time>2026-05-03T09:31:22.787Z</time></trkpt><trkpt lat="54.8087967" lon="-2.3886083"><ele>376.0</ele><time>2026-05-03T09:31:23.784Z</time></trkpt><trkpt lat="54.8087117" lon="-2.3883133"><ele>375.0</ele><time>2026-05-03T09:31:24.787Z</time></trkpt><trkpt lat="54.8086283" lon="-2.3880167"><ele>374.0</ele><time>2026-05-03T09:31:25.785Z</time></trkpt><trkpt lat="54.8085433" lon="-2.3877283"><ele>374.0</ele><time>2026-05-03T09:31:26.782Z</time></trkpt><trkpt lat="54.808465" lon="-2.38745"><ele>374.0</ele><time>2026-05-03T09:31:27.787Z</time></trkpt><trkpt lat="54.8083983" lon="-2.3871867"><ele>374.0</ele><time>2026-05-03T09:31:28.784Z</time></trkpt><trkpt lat="54.8083283" lon="-2.3869367"><ele>373.0</ele><time>2026-05-03T09:31:29.784Z</time></trkpt><trkpt lat="54.8082617" lon="-2.3866817"><ele>372.0</ele><time>2026-05-03T09:31:30.786Z</time></trkpt><trkpt lat="54.8082" lon="-2.3864267"><ele>371.0</ele><time>2026-05-03T09:31:31.783Z</time></trkpt><trkpt lat="54.808145" lon="-2.3861683"><ele>370.6666666666667</ele><time>2026-05-03T09:31:32.783Z</time></trkpt><trkpt lat="54.8080983" lon="-2.3858983"><ele>370.3333333333333</ele><time>2026-05-03T09:31:33.783Z</time></trkpt><trkpt lat="54.8080533" lon="-2.385605"><ele>370.0</ele><time>2026-05-03T09:31:34.784Z</time></trkpt><trkpt lat="54.8080067" lon="-2.3853033"><ele>370.0</ele><time>2026-05-03T09:31:35.783Z</time></trkpt><trkpt lat="54.8079517" lon="-2.3849983"><ele>370.0</ele><time>2026-05-03T09:31:36.784Z</time></trkpt><trkpt lat="54.8078867" lon="-2.3847033"><ele>370.0</ele><time>2026-05-03T09:31:37.786Z</time></trkpt><trkpt lat="54.8078117" lon="-2.3844183"><ele>370.0</ele><time>2026-05-03T09:31:38.783Z</time></trkpt><trkpt lat="54.80773" lon="-2.38413"><ele>370.0</ele><time>2026-05-03T09:31:39.783Z</time></trkpt><trkpt lat="54.8076317" lon="-2.3838583"><ele>370.0</ele><time>2026-05-03T09:31:40.784Z</time></trkpt><trkpt lat="54.807535" lon="-2.3836017"><ele>370.0</ele><time>2026-05-03T09:31:41.784Z</time></trkpt><trkpt lat="54.8074267" lon="-2.3833467"><ele>370.0</ele><time>2026-05-03T09:31:42.784Z</time></trkpt><trkpt lat="54.8073217" lon="-2.3830983"><ele>370.0</ele><time>2026-05-03T09:31:43.784Z</time></trkpt><trkpt lat="54.8072167" lon="-2.38284"><ele>369.0</ele><time>2026-05-03T09:31:44.784Z</time></trkpt><trkpt lat="54.80711" lon="-2.38257"><ele>368.0</ele><time>2026-05-03T09:31:45.784Z</time></trkpt><trkpt lat="54.8070017" lon="-2.3822917"><ele>367.0</ele><time>2026-05-03T09:31:46.784Z</time></trkpt><trkpt lat="54.8068933" lon="-2.3820083"><ele>367.66666666666663</ele><time>2026-05-03T09:31:47.783Z</time></trkpt><trkpt lat="54.8068" lon="-2.38174"><ele>368.3333333333333</ele><time>2026-05-03T09:31:48.787Z</time></trkpt><trkpt lat="54.8067167" lon="-2.3814733"><ele>369.0</ele><time>2026-05-03T09:31:49.783Z</time></trkpt><trkpt lat="54.806635" lon="-2.3812133"><ele>367.6666666666667</ele><time>2026-05-03T09:31:50.784Z</time></trkpt><trkpt lat="54.806565" lon="-2.38097"><ele>366.33333333333337</ele><time>2026-05-03T09:31:51.783Z</time></trkpt><trkpt lat="54.806495" lon="-2.3807333"><ele>365.0</ele><time>2026-05-03T09:31:52.784Z</time></trkpt><trkpt lat="54.8064183" lon="-2.38049"><ele>363.0</ele><time>2026-05-03T09:31:53.784Z</time></trkpt><trkpt lat="54.8063433" lon="-2.3802433"><ele>361.0</ele><time>2026-05-03T09:31:54.784Z</time></trkpt><trkpt lat="54.8062733" lon="-2.379995"><ele>359.0</ele><time>2026-05-03T09:31:55.784Z</time></trkpt><trkpt lat="54.80622" lon="-2.379755"><ele>358.0</ele><time>2026-05-03T09:31:56.784Z</time></trkpt><trkpt lat="54.8061717" lon="-2.379515"><ele>357.0</ele><time>2026-05-03T09:31:57.785Z</time></trkpt><trkpt lat="54.8061417" lon="-2.3792733"><ele>356.0</ele><time>2026-05-03T09:31:58.784Z</time></trkpt><trkpt lat="54.806115" lon="-2.3790133"><ele>355.0</ele><time>2026-05-03T09:31:59.784Z</time></trkpt><trkpt lat="54.8060983" lon="-2.3787433"><ele>355.0</ele><time>2026-05-03T09:32:00.783Z</time></trkpt><trkpt lat="54.8060983" lon="-2.3784633"><ele>355.0</ele><time>2026-05-03T09:32:01.784Z</time></trkpt><trkpt lat="54.8061117" lon="-2.378155"><ele>355.0</ele><time>2026-05-03T09:32:02.784Z</time></trkpt><trkpt lat="54.8061317" lon="-2.3778433"><ele>355.0</ele><time>2026-05-03T09:32:03.783Z</time></trkpt><trkpt lat="54.8061483" lon="-2.3775533"><ele>355.0</ele><time>2026-05-03T09:32:04.783Z</time></trkpt><trkpt lat="54.8061717" lon="-2.37728"><ele>355.0</ele><time>2026-05-03T09:32:05.784Z</time></trkpt><trkpt lat="54.8061817" lon="-2.37699"><ele>355.75</ele><time>2026-05-03T09:32:06.788Z</time></trkpt><trkpt lat="54.8061967" lon="-2.37672"><ele>356.5</ele><time>2026-05-03T09:32:07.784Z</time></trkpt><trkpt lat="54.806215" lon="-2.3764617"><ele>357.25</ele><time>2026-05-03T09:32:08.784Z</time></trkpt><trkpt lat="54.806235" lon="-2.3762283"><ele>358.0</ele><time>2026-05-03T09:32:09.784Z</time></trkpt><trkpt lat="54.8062533" lon="-2.3760217"><ele>359.3333333333333</ele><time>2026-05-03T09:32:10.784Z</time></trkpt><trkpt lat="54.8062667" lon="-2.3758433"><ele>360.66666666666663</ele><time>2026-05-03T09:32:11.784Z</time></trkpt><trkpt lat="54.8062733" lon="-2.375685"><ele>362.0</ele><time>2026-05-03T09:32:12.783Z</time></trkpt><trkpt lat="54.8062683" lon="-2.3755317"><ele>363.3333333333333</ele><time>2026-05-03T09:32:13.783Z</time></trkpt><trkpt lat="54.8062567" lon="-2.3753983"><ele>364.6666666666667</ele><time>2026-05-03T09:32:14.783Z</time></trkpt><trkpt lat="54.80622" lon="-2.3752667"><ele>366.0</ele><time>2026-05-03T09:32:15.784Z</time></trkpt><trkpt lat="54.806145" lon="-2.3751433"><ele>367.0</ele><time>2026-05-03T09:32:16.784Z</time></trkpt><trkpt lat="54.8060083" lon="-2.3750267"><ele>368.0</ele><time>2026-05-03T09:32:17.786Z</time></trkpt><trkpt lat="54.805845" lon="-2.3748867"><ele>369.0</ele><time>2026-05-03T09:32:18.785Z</time></trkpt><trkpt lat="54.8056783" lon="-2.3747117"><ele>374.33333333333337</ele><time>2026-05-03T09:32:19.785Z</time></trkpt><trkpt lat="54.8055267" lon="-2.3745283"><ele>379.6666666666667</ele><time>2026-05-03T09:32:20.784Z</time></trkpt><trkpt lat="54.805375" lon="-2.3744083"><ele>385.0</ele><time>2026-05-03T09:32:21.785Z</time></trkpt><trkpt lat="54.8052283" lon="-2.3742583"><ele>380.6666666666667</ele><time>2026-05-03T09:32:22.785Z</time></trkpt><trkpt lat="54.805085" lon="-2.374115"><ele>376.33333333333337</ele><time>2026-05-03T09:32:23.784Z</time></trkpt><trkpt lat="54.80495" lon="-2.3739867"><ele>372.0</ele><time>2026-05-03T09:32:24.784Z</time></trkpt><trkpt lat="54.8048133" lon="-2.373875"><ele>376.33333333333337</ele><time>2026-05-03T09:32:25.785Z</time></trkpt><trkpt lat="54.80468" lon="-2.3737633"><ele>380.6666666666667</ele><time>2026-05-03T09:32:26.784Z</time></trkpt><trkpt lat="54.8045417" lon="-2.3736533"><ele>385.0</ele><time>2026-05-03T09:32:27.785Z</time></trkpt><trkpt lat="54.804405" lon="-2.3735483"><ele>379.6666666666667</ele><time>2026-05-03T09:32:28.785Z</time></trkpt><trkpt lat="54.8042667" lon="-2.373425"><ele>374.33333333333337</ele><time>2026-05-03T09:32:29.785Z</time></trkpt><trkpt lat="54.8041267" lon="-2.3732933"><ele>369.0</ele><time>2026-05-03T09:32:30.785Z</time></trkpt><trkpt lat="54.8039917" lon="-2.3731583"><ele>373.6666666666667</ele><time>2026-05-03T09:32:31.788Z</time></trkpt><trkpt lat="54.8038567" lon="-2.3730133"><ele>378.33333333333337</ele><time>2026-05-03T09:32:32.785Z</time></trkpt><trkpt lat="54.80372" lon="-2.3728667"><ele>383.0</ele><time>2026-05-03T09:32:33.784Z</time></trkpt><trkpt lat="54.8035867" lon="-2.3727217"><ele>379.0</ele><time>2026-05-03T09:32:34.785Z</time></trkpt><trkpt lat="54.8034517" lon="-2.3725817"><ele>375.0</ele><time>2026-05-03T09:32:35.785Z</time></trkpt><trkpt lat="54.8033167" lon="-2.3724433"><ele>371.0</ele><time>2026-05-03T09:32:36.785Z</time></trkpt><trkpt lat="54.8031817" lon="-2.3723083"><ele>374.6666666666667</ele><time>2026-05-03T09:32:37.784Z</time></trkpt><trkpt lat="54.803045" lon="-2.37217"><ele>378.3333333333333</ele><time>2026-05-03T09:32:38.784Z</time></trkpt><trkpt lat="54.8029133" lon="-2.3720317"><ele>382.0</ele><time>2026-05-03T09:32:39.784Z</time></trkpt><trkpt lat="54.8027833" lon="-2.3718983"><ele>381.25</ele><time>2026-05-03T09:32:40.784Z</time></trkpt><trkpt lat="54.8026567" lon="-2.371765"><ele>380.5</ele><time>2026-05-03T09:32:41.785Z</time></trkpt><trkpt lat="54.8025283" lon="-2.3716367"><ele>379.75</ele><time>2026-05-03T09:32:42.784Z</time></trkpt><trkpt lat="54.8024017" lon="-2.3714983"><ele>379.0</ele><time>2026-05-03T09:32:43.785Z</time></trkpt><trkpt lat="54.8022733" lon="-2.3713367"><ele>379.0</ele><time>2026-05-03T09:32:44.785Z</time></trkpt><trkpt lat="54.8021417" lon="-2.3711483"><ele>379.0</ele><time>2026-05-03T09:32:45.785Z</time></trkpt><trkpt lat="54.8020167" lon="-2.37094"><ele>379.0</ele><time>2026-05-03T09:32:46.784Z</time></trkpt><trkpt lat="54.8018917" lon="-2.3707233"><ele>377.66666666666663</ele><time>2026-05-03T09:32:47.785Z</time></trkpt><trkpt lat="54.8017733" lon="-2.3705133"><ele>376.3333333333333</ele><time>2026-05-03T09:32:48.785Z</time></trkpt><trkpt lat="54.801665" lon="-2.3703183"><ele>375.0</ele><time>2026-05-03T09:32:49.785Z</time></trkpt><trkpt lat="54.801565" lon="-2.3701417"><ele>375.0</ele><time>2026-05-03T09:32:50.785Z</time></trkpt><trkpt lat="54.801465" lon="-2.3699617"><ele>375.0</ele><time>2026-05-03T09:32:51.786Z</time></trkpt><trkpt lat="54.80137" lon="-2.3697733"><ele>375.0</ele><time>2026-05-03T09:32:52.784Z</time></trkpt><trkpt lat="54.80128" lon="-2.3695667"><ele>375.0</ele><time>2026-05-03T09:32:53.784Z</time></trkpt><trkpt lat="54.8011867" lon="-2.369335"><ele>375.6666666666667</ele><time>2026-05-03T09:32:54.784Z</time></trkpt><trkpt lat="54.8010933" lon="-2.36909"><ele>376.33333333333337</ele><time>2026-05-03T09:32:55.784Z</time></trkpt><trkpt lat="54.8009917" lon="-2.3688433"><ele>377.0</ele><time>2026-05-03T09:32:56.786Z</time></trkpt><trkpt lat="54.80089" lon="-2.3685933"><ele>377.0</ele><time>2026-05-03T09:32:57.784Z</time></trkpt><trkpt lat="54.8007867" lon="-2.36833"><ele>377.0</ele><time>2026-05-03T09:32:58.785Z</time></trkpt><trkpt lat="54.80068" lon="-2.3680633"><ele>377.0</ele><time>2026-05-03T09:32:59.787Z</time></trkpt><trkpt lat="54.8005733" lon="-2.3677917"><ele>379.0</ele><time>2026-05-03T09:33:00.785Z</time></trkpt><trkpt lat="54.8004667" lon="-2.36752"><ele>381.0</ele><time>2026-05-03T09:33:01.784Z</time></trkpt><trkpt lat="54.8003583" lon="-2.367245"><ele>383.0</ele><time>2026-05-03T09:33:02.785Z</time></trkpt><trkpt lat="54.80025" lon="-2.3669667"><ele>383.6666666666667</ele><time>2026-05-03T09:33:03.784Z</time></trkpt><trkpt lat="54.800145" lon="-2.3666917"><ele>384.33333333333337</ele><time>2026-05-03T09:33:04.784Z</time></trkpt><trkpt lat="54.800035" lon="-2.3664233"><ele>385.0</ele><time>2026-05-03T09:33:05.785Z</time></trkpt><trkpt lat="54.7999283" lon="-2.3661683"><ele>385.0</ele><time>2026-05-03T09:33:06.785Z</time></trkpt><trkpt lat="54.7998283" lon="-2.3659283"><ele>385.0</ele><time>2026-05-03T09:33:07.784Z</time></trkpt><trkpt lat="54.799725" lon="-2.3657167"><ele>385.0</ele><time>2026-05-03T09:33:08.785Z</time></trkpt><trkpt lat="54.79963" lon="-2.36553"><ele>384.25</ele><time>2026-05-03T09:33:09.783Z</time></trkpt><trkpt lat="54.7995383" lon="-2.3653467"><ele>383.5</ele><time>2026-05-03T09:33:10.785Z</time></trkpt><trkpt lat="54.7994483" lon="-2.3651517"><ele>382.75</ele><time>2026-05-03T09:33:11.785Z</time></trkpt><trkpt lat="54.79936" lon="-2.3649433"><ele>382.0</ele><time>2026-05-03T09:33:12.785Z</time></trkpt><trkpt lat="54.7992717" lon="-2.3647233"><ele>384.0</ele><time>2026-05-03T09:33:13.784Z</time></trkpt><trkpt lat="54.79918" lon="-2.364495"><ele>386.0</ele><time>2026-05-03T09:33:14.785Z</time></trkpt><trkpt lat="54.7990883" lon="-2.3642567"><ele>388.0</ele><time>2026-05-03T09:33:15.784Z</time></trkpt><trkpt lat="54.798995" lon="-2.36402"><ele>390.0</ele><time>2026-05-03T09:33:16.785Z</time></trkpt><trkpt lat="54.7989083" lon="-2.3637867"><ele>392.0</ele><time>2026-05-03T09:33:17.785Z</time></trkpt><trkpt lat="54.7988333" lon="-2.3635667"><ele>394.0</ele><time>2026-05-03T09:33:18.785Z</time></trkpt><trkpt lat="54.7987767" lon="-2.3633683"><ele>396.0</ele><time>2026-05-03T09:33:19.785Z</time></trkpt><trkpt lat="54.798725" lon="-2.3631933"><ele>396.0</ele><time>2026-05-03T09:33:20.784Z</time></trkpt><trkpt lat="54.798665" lon="-2.3630483"><ele>396.0</ele><time>2026-05-03T09:33:21.784Z</time></trkpt><trkpt lat="54.7985867" lon="-2.36293"><ele>396.0</ele><time>2026-05-03T09:33:22.785Z</time></trkpt><trkpt lat="54.7984883" lon="-2.362835"><ele>396.0</ele><time>2026-05-03T09:33:23.785Z</time></trkpt><trkpt lat="54.7983833" lon="-2.3627317"><ele>396.0</ele><time>2026-05-03T09:33:24.785Z</time></trkpt><trkpt lat="54.7982717" lon="-2.3626017"><ele>396.25</ele><time>2026-05-03T09:33:25.785Z</time></trkpt><trkpt lat="54.7981617" lon="-2.3624533"><ele>396.5</ele><time>2026-05-03T09:33:26.784Z</time></trkpt><trkpt lat="54.7980417" lon="-2.3622967"><ele>396.75</ele><time>2026-05-03T09:33:27.783Z</time></trkpt><trkpt lat="54.7979133" lon="-2.362135"><ele>397.0</ele><time>2026-05-03T09:33:28.785Z</time></trkpt><trkpt lat="54.7977733" lon="-2.3619717"><ele>399.33333333333337</ele><time>2026-05-03T09:33:29.788Z</time></trkpt><trkpt lat="54.7976317" lon="-2.3618"><ele>401.66666666666663</ele><time>2026-05-03T09:33:30.785Z</time></trkpt><trkpt lat="54.7974833" lon="-2.3616467"><ele>404.0</ele><time>2026-05-03T09:33:31.785Z</time></trkpt><trkpt lat="54.7973433" lon="-2.3614783"><ele>403.3333333333333</ele><time>2026-05-03T09:33:32.785Z</time></trkpt><trkpt lat="54.7972067" lon="-2.361285"><ele>402.66666666666663</ele><time>2026-05-03T09:33:33.785Z</time></trkpt><trkpt lat="54.79708" lon="-2.3610733"><ele>402.0</ele><time>2026-05-03T09:33:34.787Z</time></trkpt><trkpt lat="54.7969617" lon="-2.3608433"><ele>402.0</ele><time>2026-05-03T09:33:35.788Z</time></trkpt><trkpt lat="54.7968467" lon="-2.36061"><ele>402.0</ele><time>2026-05-03T09:33:36.786Z</time></trkpt><trkpt lat="54.7967333" lon="-2.3603733"><ele>402.0</ele><time>2026-05-03T09:33:37.786Z</time></trkpt><trkpt lat="54.7966183" lon="-2.3601333"><ele>405.33333333333337</ele><time>2026-05-03T09:33:38.783Z</time></trkpt><trkpt lat="54.7965033" lon="-2.359895"><ele>408.6666666666667</ele><time>2026-05-03T09:33:39.782Z</time></trkpt><trkpt lat="54.7963917" lon="-2.3596533"><ele>412.0</ele><time>2026-05-03T09:33:40.787Z</time></trkpt><trkpt lat="54.7962833" lon="-2.3594167"><ele>412.0</ele><time>2026-05-03T09:33:41.783Z</time></trkpt><trkpt lat="54.796175" lon="-2.359175"><ele>412.0</ele><time>2026-05-03T09:33:42.786Z</time></trkpt><trkpt lat="54.7960683" lon="-2.3589233"><ele>412.0</ele><time>2026-05-03T09:33:43.784Z</time></trkpt><trkpt lat="54.7959717" lon="-2.3586617"><ele>417.33333333333337</ele><time>2026-05-03T09:33:44.783Z</time></trkpt><trkpt lat="54.7958867" lon="-2.3583817"><ele>422.66666666666663</ele><time>2026-05-03T09:33:45.783Z</time></trkpt><trkpt lat="54.7958017" lon="-2.3580933"><ele>428.0</ele><time>2026-05-03T09:33:46.782Z</time></trkpt><trkpt lat="54.7957217" lon="-2.3578033"><ele>428.3333333333333</ele><time>2026-05-03T09:33:47.784Z</time></trkpt><trkpt lat="54.7956367" lon="-2.3575067"><ele>428.66666666666663</ele><time>2026-05-03T09:33:48.787Z</time></trkpt><trkpt lat="54.79555" lon="-2.3572067"><ele>429.0</ele><time>2026-05-03T09:33:49.787Z</time></trkpt><trkpt lat="54.79546" lon="-2.3569"><ele>429.33333333333337</ele><time>2026-05-03T09:33:50.786Z</time></trkpt><trkpt lat="54.7953717" lon="-2.3565933"><ele>429.6666666666667</ele><time>2026-05-03T09:33:51.787Z</time></trkpt><trkpt lat="54.7952767" lon="-2.3562833"><ele>430.0</ele><time>2026-05-03T09:33:52.79Z</time></trkpt><trkpt lat="54.79518" lon="-2.3559733"><ele>433.0</ele><time>2026-05-03T09:33:53.786Z</time></trkpt><trkpt lat="54.79508" lon="-2.3556583"><ele>436.0</ele><time>2026-05-03T09:33:54.786Z</time></trkpt><trkpt lat="54.7949767" lon="-2.355335"><ele>439.0</ele><time>2026-05-03T09:33:55.787Z</time></trkpt><trkpt lat="54.7948783" lon="-2.3550167"><ele>439.33333333333337</ele><time>2026-05-03T09:33:56.786Z</time></trkpt><trkpt lat="54.794785" lon="-2.3547317"><ele>439.66666666666663</ele><time>2026-05-03T09:33:57.786Z</time></trkpt><trkpt lat="54.7946933" lon="-2.3544783"><ele>440.0</ele><time>2026-05-03T09:33:58.787Z</time></trkpt><trkpt lat="54.79461" lon="-2.3542483"><ele>440.0</ele><time>2026-05-03T09:33:59.787Z</time></trkpt><trkpt lat="54.794525" lon="-2.35404"><ele>440.0</ele><time>2026-05-03T09:34:00.786Z</time></trkpt><trkpt lat="54.7944417" lon="-2.3538433"><ele>440.0</ele><time>2026-05-03T09:34:01.783Z</time></trkpt><trkpt lat="54.79436" lon="-2.3536567"><ele>440.0</ele><time>2026-05-03T09:34:02.786Z</time></trkpt><trkpt lat="54.7942833" lon="-2.3534767"><ele>440.25</ele><time>2026-05-03T09:34:03.787Z</time></trkpt><trkpt lat="54.7942083" lon="-2.353295"><ele>440.5</ele><time>2026-05-03T09:34:04.787Z</time></trkpt><trkpt lat="54.794125" lon="-2.3531033"><ele>440.75</ele><time>2026-05-03T09:34:05.783Z</time></trkpt><trkpt lat="54.794035" lon="-2.3528983"><ele>441.0</ele><time>2026-05-03T09:34:06.783Z</time></trkpt><trkpt lat="54.79394" lon="-2.352685"><ele>439.33333333333337</ele><time>2026-05-03T09:34:07.784Z</time></trkpt><trkpt lat="54.793845" lon="-2.35247"><ele>437.6666666666667</ele><time>2026-05-03T09:34:08.784Z</time></trkpt><trkpt lat="54.79375" lon="-2.352255"><ele>436.0</ele><time>2026-05-03T09:34:09.784Z</time></trkpt><trkpt lat="54.7936567" lon="-2.3520467"><ele>436.5</ele><time>2026-05-03T09:34:10.784Z</time></trkpt><trkpt lat="54.793565" lon="-2.3518517"><ele>437.0</ele><time>2026-05-03T09:34:11.784Z</time></trkpt><trkpt lat="54.7934717" lon="-2.35167"><ele>437.5</ele><time>2026-05-03T09:34:12.787Z</time></trkpt><trkpt lat="54.793375" lon="-2.3514983"><ele>438.0</ele><time>2026-05-03T09:34:13.787Z</time></trkpt><trkpt lat="54.79327" lon="-2.3513233"><ele>436.5</ele><time>2026-05-03T09:34:14.787Z</time></trkpt><trkpt lat="54.7931617" lon="-2.351155"><ele>435.0</ele><time>2026-05-03T09:34:15.782Z</time></trkpt><trkpt lat="54.793055" lon="-2.35099"><ele>433.5</ele><time>2026-05-03T09:34:16.783Z</time></trkpt><trkpt lat="54.79295" lon="-2.3508233"><ele>432.0</ele><time>2026-05-03T09:34:17.785Z</time></trkpt><trkpt lat="54.792845" lon="-2.350655"><ele>432.0</ele><time>2026-05-03T09:34:18.783Z</time></trkpt><trkpt lat="54.79274" lon="-2.3504783"><ele>432.0</ele><time>2026-05-03T09:34:19.783Z</time></trkpt><trkpt lat="54.7926317" lon="-2.3502983"><ele>432.0</ele><time>2026-05-03T09:34:20.783Z</time></trkpt><trkpt lat="54.7925217" lon="-2.3501117"><ele>432.0</ele><time>2026-05-03T09:34:21.784Z</time></trkpt><trkpt lat="54.7924083" lon="-2.349925"><ele>432.0</ele><time>2026-05-03T09:34:22.786Z</time></trkpt><trkpt lat="54.7922917" lon="-2.34973"><ele>432.0</ele><time>2026-05-03T09:34:23.784Z</time></trkpt><trkpt lat="54.7921783" lon="-2.349535"><ele>430.0</ele><time>2026-05-03T09:34:24.784Z</time></trkpt><trkpt lat="54.79207" lon="-2.3493467"><ele>428.0</ele><time>2026-05-03T09:34:25.784Z</time></trkpt><trkpt lat="54.79196" lon="-2.3491683"><ele>426.0</ele><time>2026-05-03T09:34:26.783Z</time></trkpt><trkpt lat="54.79185" lon="-2.3490017"><ele>426.33333333333337</ele><time>2026-05-03T09:34:27.782Z</time></trkpt><trkpt lat="54.7917267" lon="-2.3488483"><ele>426.6666666666667</ele><time>2026-05-03T09:34:28.783Z</time></trkpt><trkpt lat="54.7915933" lon="-2.3487267"><ele>427.0</ele><time>2026-05-03T09:34:29.784Z</time></trkpt><trkpt lat="54.7914533" lon="-2.3486333"><ele>427.0</ele><time>2026-05-03T09:34:30.784Z</time></trkpt><trkpt lat="54.7913283" lon="-2.3485583"><ele>427.0</ele><time>2026-05-03T09:34:31.784Z</time></trkpt><trkpt lat="54.7912183" lon="-2.3485"><ele>427.0</ele><time>2026-05-03T09:34:32.783Z</time></trkpt><trkpt lat="54.7911217" lon="-2.3484317"><ele>427.0</ele><time>2026-05-03T09:34:33.783Z</time></trkpt><trkpt lat="54.7910283" lon="-2.3483283"><ele>427.5</ele><time>2026-05-03T09:34:34.785Z</time></trkpt><trkpt lat="54.790935" lon="-2.3482017"><ele>428.0</ele><time>2026-05-03T09:34:35.784Z</time></trkpt><trkpt lat="54.7908383" lon="-2.3480517"><ele>428.5</ele><time>2026-05-03T09:34:36.785Z</time></trkpt><trkpt lat="54.79074" lon="-2.34788"><ele>429.0</ele><time>2026-05-03T09:34:37.784Z</time></trkpt><trkpt lat="54.79064" lon="-2.347705"><ele>427.75</ele><time>2026-05-03T09:34:38.783Z</time></trkpt><trkpt lat="54.790535" lon="-2.3475233"><ele>426.5</ele><time>2026-05-03T09:34:39.784Z</time></trkpt><trkpt lat="54.790435" lon="-2.3473417"><ele>425.25</ele><time>2026-05-03T09:34:40.783Z</time></trkpt><trkpt lat="54.790335" lon="-2.3471517"><ele>424.0</ele><time>2026-05-03T09:34:41.783Z</time></trkpt><trkpt lat="54.7902383" lon="-2.3469633"><ele>424.2</ele><time>2026-05-03T09:34:42.784Z</time></trkpt><trkpt lat="54.7901467" lon="-2.3467883"><ele>424.4</ele><time>2026-05-03T09:34:43.783Z</time></trkpt><trkpt lat="54.790065" lon="-2.346635"><ele>424.6</ele><time>2026-05-03T09:34:44.785Z</time></trkpt><trkpt lat="54.7899933" lon="-2.3465"><ele>424.8</ele><time>2026-05-03T09:34:45.783Z</time></trkpt><trkpt lat="54.789935" lon="-2.3463933"><ele>425.0</ele><time>2026-05-03T09:34:46.784Z</time></trkpt><trkpt lat="54.7898867" lon="-2.346305"><ele>425.0</ele><time>2026-05-03T09:34:47.783Z</time></trkpt><trkpt lat="54.7898117" lon="-2.3462133"><ele>425.0</ele><time>2026-05-03T09:34:49.785Z</time></trkpt><trkpt lat="54.7897383" lon="-2.3462367"><ele>425.0</ele><time>2026-05-03T09:34:51.783Z</time></trkpt><trkpt lat="54.7896567" lon="-2.3464133"><ele>425.0</ele><time>2026-05-03T09:34:53.784Z</time></trkpt><trkpt lat="54.7896067" lon="-2.3465367"><ele>425.0</ele><time>2026-05-03T09:34:54.783Z</time></trkpt><trkpt lat="54.7895583" lon="-2.34667"><ele>424.99999999999994</ele><time>2026-05-03T09:34:55.784Z</time></trkpt><trkpt lat="54.789505" lon="-2.3467967"><ele>425.0</ele><time>2026-05-03T09:34:56.784Z</time></trkpt><trkpt lat="54.7894517" lon="-2.3469133"><ele>425.0</ele><time>2026-05-03T09:34:57.784Z</time></trkpt><trkpt lat="54.789395" lon="-2.3470117"><ele>425.0</ele><time>2026-05-03T09:34:58.783Z</time></trkpt><trkpt lat="54.78933" lon="-2.3470933"><ele>424.99999999999994</ele><time>2026-05-03T09:34:59.784Z</time></trkpt><trkpt lat="54.7892567" lon="-2.3471383"><ele>425.0</ele><time>2026-05-03T09:35:00.783Z</time></trkpt><trkpt lat="54.7891833" lon="-2.3471483"><ele>426.75</ele><time>2026-05-03T09:35:01.786Z</time></trkpt><trkpt lat="54.789095" lon="-2.3471067"><ele>428.5</ele><time>2026-05-03T09:35:02.783Z</time></trkpt><trkpt lat="54.7889933" lon="-2.3470267"><ele>430.25</ele><time>2026-05-03T09:35:03.783Z</time></trkpt><trkpt lat="54.7888817" lon="-2.34693"><ele>432.0</ele><time>2026-05-03T09:35:04.783Z</time></trkpt><trkpt lat="54.788765" lon="-2.346825"><ele>432.0</ele><time>2026-05-03T09:35:05.785Z</time></trkpt><trkpt lat="54.7886517" lon="-2.3467133"><ele>432.0</ele><time>2026-05-03T09:35:06.782Z</time></trkpt><trkpt lat="54.7885433" lon="-2.34659"><ele>432.0</ele><time>2026-05-03T09:35:07.783Z</time></trkpt><trkpt lat="54.78844" lon="-2.3464433"><ele>432.0</ele><time>2026-05-03T09:35:08.783Z</time></trkpt><trkpt lat="54.7883367" lon="-2.3462783"><ele>432.25</ele><time>2026-05-03T09:35:09.787Z</time></trkpt><trkpt lat="54.7882417" lon="-2.3461217"><ele>432.5</ele><time>2026-05-03T09:35:10.787Z</time></trkpt><trkpt lat="54.78815" lon="-2.3459683"><ele>432.75</ele><time>2026-05-03T09:35:11.782Z</time></trkpt><trkpt lat="54.7880617" lon="-2.345815"><ele>433.0</ele><time>2026-05-03T09:35:12.786Z</time></trkpt><trkpt lat="54.787965" lon="-2.3456583"><ele>434.0</ele><time>2026-05-03T09:35:13.786Z</time></trkpt><trkpt lat="54.7878667" lon="-2.3454983"><ele>435.0</ele><time>2026-05-03T09:35:14.788Z</time></trkpt><trkpt lat="54.78777" lon="-2.3453367"><ele>436.0</ele><time>2026-05-03T09:35:15.783Z</time></trkpt><trkpt lat="54.7876767" lon="-2.3451783"><ele>437.0</ele><time>2026-05-03T09:35:16.783Z</time></trkpt><trkpt lat="54.7875867" lon="-2.345025"><ele>437.0</ele><time>2026-05-03T09:35:17.787Z</time></trkpt><trkpt lat="54.7875067" lon="-2.344885"><ele>437.00000000000006</ele><time>2026-05-03T09:35:18.786Z</time></trkpt><trkpt lat="54.7874333" lon="-2.344755"><ele>437.00000000000006</ele><time>2026-05-03T09:35:19.783Z</time></trkpt><trkpt lat="54.7873667" lon="-2.344635"><ele>437.0</ele><time>2026-05-03T09:35:20.783Z</time></trkpt><trkpt lat="54.7873083" lon="-2.3445267"><ele>437.0</ele><time>2026-05-03T09:35:21.783Z</time></trkpt><trkpt lat="54.7872583" lon="-2.344435"><ele>437.0</ele><time>2026-05-03T09:35:22.783Z</time></trkpt><trkpt lat="54.7871717" lon="-2.3443283"><ele>437.00000000000006</ele><time>2026-05-03T09:35:24.783Z</time></trkpt><trkpt lat="54.78709" lon="-2.3444167"><ele>437.00000000000006</ele><time>2026-05-03T09:35:27.783Z</time></trkpt><trkpt lat="54.787025" lon="-2.344605"><ele>437.0</ele><time>2026-05-03T09:35:29.785Z</time></trkpt><trkpt lat="54.7869983" lon="-2.3447667"><ele>437.0</ele><time>2026-05-03T09:35:30.785Z</time></trkpt><trkpt lat="54.7869717" lon="-2.3449517"><ele>437.0</ele><time>2026-05-03T09:35:31.786Z</time></trkpt><trkpt lat="54.7869467" lon="-2.3451283"><ele>437.00000000000006</ele><time>2026-05-03T09:35:32.785Z</time></trkpt><trkpt lat="54.7869183" lon="-2.3452833"><ele>437.00000000000006</ele><time>2026-05-03T09:35:33.784Z</time></trkpt><trkpt lat="54.7868783" lon="-2.3454217"><ele>437.0</ele><time>2026-05-03T09:35:34.785Z</time></trkpt><trkpt lat="54.78683" lon="-2.34555"><ele>437.0</ele><time>2026-05-03T09:35:35.785Z</time></trkpt><trkpt lat="54.7867733" lon="-2.345675"><ele>441.25</ele><time>2026-05-03T09:35:36.784Z</time></trkpt><trkpt lat="54.786685" lon="-2.3457883"><ele>445.5</ele><time>2026-05-03T09:35:37.785Z</time></trkpt><trkpt lat="54.7865783" lon="-2.3459283"><ele>449.75</ele><time>2026-05-03T09:35:38.785Z</time></trkpt><trkpt lat="54.7864617" lon="-2.346075"><ele>454.0</ele><time>2026-05-03T09:35:39.784Z</time></trkpt><trkpt lat="54.7863533" lon="-2.346225"><ele>454.0</ele><time>2026-05-03T09:35:40.784Z</time></trkpt><trkpt lat="54.786255" lon="-2.346375"><ele>454.0</ele><time>2026-05-03T09:35:41.785Z</time></trkpt><trkpt lat="54.7861583" lon="-2.346515"><ele>454.0</ele><time>2026-05-03T09:35:42.785Z</time></trkpt><trkpt lat="54.7860633" lon="-2.34664"><ele>454.0</ele><time>2026-05-03T09:35:43.786Z</time></trkpt><trkpt lat="54.7859583" lon="-2.3467533"><ele>458.5</ele><time>2026-05-03T09:35:44.786Z</time></trkpt><trkpt lat="54.785845" lon="-2.34687"><ele>463.0</ele><time>2026-05-03T09:35:45.784Z</time></trkpt><trkpt lat="54.7857267" lon="-2.3469967"><ele>467.5</ele><time>2026-05-03T09:35:46.784Z</time></trkpt><trkpt lat="54.7856067" lon="-2.3471217"><ele>472.0</ele><time>2026-05-03T09:35:47.784Z</time></trkpt><trkpt lat="54.78549" lon="-2.3472483"><ele>473.25</ele><time>2026-05-03T09:35:48.785Z</time></trkpt><trkpt lat="54.7853733" lon="-2.3473733"><ele>474.5</ele><time>2026-05-03T09:35:49.785Z</time></trkpt><trkpt lat="54.7852583" lon="-2.3474933"><ele>475.75</ele><time>2026-05-03T09:35:50.784Z</time></trkpt><trkpt lat="54.7851467" lon="-2.3476117"><ele>477.0</ele><time>2026-05-03T09:35:51.785Z</time></trkpt><trkpt lat="54.78505" lon="-2.34772"><ele>478.75</ele><time>2026-05-03T09:35:52.785Z</time></trkpt><trkpt lat="54.784965" lon="-2.347825"><ele>480.5</ele><time>2026-05-03T09:35:53.784Z</time></trkpt><trkpt lat="54.78489" lon="-2.3479483"><ele>482.25</ele><time>2026-05-03T09:35:54.784Z</time></trkpt><trkpt lat="54.78481" lon="-2.348095"><ele>484.0</ele><time>2026-05-03T09:35:55.784Z</time></trkpt><trkpt lat="54.78472" lon="-2.3482533"><ele>485.75</ele><time>2026-05-03T09:35:56.783Z</time></trkpt><trkpt lat="54.784625" lon="-2.3484117"><ele>487.5</ele><time>2026-05-03T09:35:57.784Z</time></trkpt><trkpt lat="54.784535" lon="-2.348565"><ele>489.25</ele><time>2026-05-03T09:35:58.785Z</time></trkpt><trkpt lat="54.7844533" lon="-2.34871"><ele>491.0</ele><time>2026-05-03T09:35:59.785Z</time></trkpt><trkpt lat="54.7843667" lon="-2.34886"><ele>493.6</ele><time>2026-05-03T09:36:00.784Z</time></trkpt><trkpt lat="54.784285" lon="-2.34901"><ele>496.20000000000005</ele><time>2026-05-03T09:36:01.784Z</time></trkpt><trkpt lat="54.7842033" lon="-2.3491467"><ele>498.79999999999995</ele><time>2026-05-03T09:36:02.785Z</time></trkpt><trkpt lat="54.78413" lon="-2.34927"><ele>501.4</ele><time>2026-05-03T09:36:03.785Z</time></trkpt><trkpt lat="54.78407" lon="-2.3493817"><ele>504.0</ele><time>2026-05-03T09:36:04.785Z</time></trkpt><trkpt lat="54.7840133" lon="-2.3494783"><ele>504.0</ele><time>2026-05-03T09:36:05.784Z</time></trkpt><trkpt lat="54.7839633" lon="-2.3495683"><ele>504.0</ele><time>2026-05-03T09:36:06.784Z</time></trkpt><trkpt lat="54.7839167" lon="-2.3496533"><ele>504.0</ele><time>2026-05-03T09:36:07.785Z</time></trkpt><trkpt lat="54.7838683" lon="-2.349745"><ele>504.0</ele><time>2026-05-03T09:36:08.784Z</time></trkpt><trkpt lat="54.7838233" lon="-2.3498367"><ele>504.0</ele><time>2026-05-03T09:36:09.784Z</time></trkpt><trkpt lat="54.7837783" lon="-2.3499233"><ele>504.0</ele><time>2026-05-03T09:36:10.785Z</time></trkpt><trkpt lat="54.7836933" lon="-2.350085"><ele>505.0</ele><time>2026-05-03T09:36:12.782Z</time></trkpt><trkpt lat="54.7836433" lon="-2.3501717"><ele>506.0</ele><time>2026-05-03T09:36:13.784Z</time></trkpt><trkpt lat="54.78358" lon="-2.3502683"><ele>507.0</ele><time>2026-05-03T09:36:14.789Z</time></trkpt><trkpt lat="54.7835067" lon="-2.3503733"><ele>508.0</ele><time>2026-05-03T09:36:15.784Z</time></trkpt><trkpt lat="54.7834317" lon="-2.3504783"><ele>509.0</ele><time>2026-05-03T09:36:16.784Z</time></trkpt><trkpt lat="54.7833583" lon="-2.35058"><ele>510.0</ele><time>2026-05-03T09:36:17.787Z</time></trkpt><trkpt lat="54.7832867" lon="-2.3506683"><ele>513.0</ele><time>2026-05-03T09:36:18.787Z</time></trkpt><trkpt lat="54.78321" lon="-2.35075"><ele>516.0</ele><time>2026-05-03T09:36:19.783Z</time></trkpt><trkpt lat="54.78313" lon="-2.3508267"><ele>519.0</ele><time>2026-05-03T09:36:20.783Z</time></trkpt><trkpt lat="54.7830467" lon="-2.3509033"><ele>522.0</ele><time>2026-05-03T09:36:21.783Z</time></trkpt><trkpt lat="54.7829617" lon="-2.3509733"><ele>525.0</ele><time>2026-05-03T09:36:22.783Z</time></trkpt><trkpt lat="54.7828767" lon="-2.351035"><ele>525.0</ele><time>2026-05-03T09:36:23.783Z</time></trkpt><trkpt lat="54.7827933" lon="-2.3510917"><ele>525.0</ele><time>2026-05-03T09:36:24.783Z</time></trkpt><trkpt lat="54.782705" lon="-2.3511483"><ele>525.0</ele><time>2026-05-03T09:36:25.782Z</time></trkpt><trkpt lat="54.7826183" lon="-2.3512033"><ele>525.0</ele><time>2026-05-03T09:36:26.783Z</time></trkpt><trkpt lat="54.7825317" lon="-2.351255"><ele>525.0</ele><time>2026-05-03T09:36:27.783Z</time></trkpt><trkpt lat="54.7824433" lon="-2.3513083"><ele>526.0</ele><time>2026-05-03T09:36:28.787Z</time></trkpt><trkpt lat="54.7823483" lon="-2.3513683"><ele>527.0</ele><time>2026-05-03T09:36:29.784Z</time></trkpt><trkpt lat="54.7822517" lon="-2.3514617"><ele>528.0</ele><time>2026-05-03T09:36:30.783Z</time></trkpt><trkpt lat="54.7821517" lon="-2.351575"><ele>529.0</ele><time>2026-05-03T09:36:31.783Z</time></trkpt><trkpt lat="54.7820433" lon="-2.3517117"><ele>530.0</ele><time>2026-05-03T09:36:32.783Z</time></trkpt><trkpt lat="54.7819333" lon="-2.351855"><ele>531.0</ele><time>2026-05-03T09:36:33.783Z</time></trkpt><trkpt lat="54.7818183" lon="-2.3519917"><ele>532.0</ele><time>2026-05-03T09:36:34.783Z</time></trkpt><trkpt lat="54.781705" lon="-2.3521317"><ele>533.0</ele><time>2026-05-03T09:36:35.784Z</time></trkpt><trkpt lat="54.7815933" lon="-2.3522633"><ele>535.5</ele><time>2026-05-03T09:36:36.783Z</time></trkpt><trkpt lat="54.7814917" lon="-2.352385"><ele>538.0</ele><time>2026-05-03T09:36:37.782Z</time></trkpt><trkpt lat="54.7814" lon="-2.3524967"><ele>540.5</ele><time>2026-05-03T09:36:38.787Z</time></trkpt><trkpt lat="54.7813133" lon="-2.3526117"><ele>543.0</ele><time>2026-05-03T09:36:39.784Z</time></trkpt><trkpt lat="54.781235" lon="-2.352735"><ele>543.0</ele><time>2026-05-03T09:36:40.783Z</time></trkpt><trkpt lat="54.78116" lon="-2.3528817"><ele>543.0</ele><time>2026-05-03T09:36:41.784Z</time></trkpt><trkpt lat="54.7810883" lon="-2.3530517"><ele>543.0</ele><time>2026-05-03T09:36:42.783Z</time></trkpt><trkpt lat="54.78102" lon="-2.3532383"><ele>543.0</ele><time>2026-05-03T09:36:43.783Z</time></trkpt><trkpt lat="54.7809517" lon="-2.3534367"><ele>546.25</ele><time>2026-05-03T09:36:44.783Z</time></trkpt><trkpt lat="54.7808817" lon="-2.3536433"><ele>549.5</ele><time>2026-05-03T09:36:45.784Z</time></trkpt><trkpt lat="54.78081" lon="-2.3538567"><ele>552.75</ele><time>2026-05-03T09:36:46.783Z</time></trkpt><trkpt lat="54.7807467" lon="-2.35407"><ele>556.0</ele><time>2026-05-03T09:36:47.784Z</time></trkpt><trkpt lat="54.7806867" lon="-2.354275"><ele>556.4</ele><time>2026-05-03T09:36:48.782Z</time></trkpt><trkpt lat="54.780635" lon="-2.35446"><ele>556.8</ele><time>2026-05-03T09:36:49.783Z</time></trkpt><trkpt lat="54.7805817" lon="-2.3546333"><ele>557.1999999999999</ele><time>2026-05-03T09:36:50.783Z</time></trkpt><trkpt lat="54.7805283" lon="-2.354795"><ele>557.6</ele><time>2026-05-03T09:36:51.783Z</time></trkpt><trkpt lat="54.7804733" lon="-2.3549467"><ele>558.0</ele><time>2026-05-03T09:36:52.785Z</time></trkpt><trkpt lat="54.7804233" lon="-2.35509"><ele>559.1999999999999</ele><time>2026-05-03T09:36:53.785Z</time></trkpt><trkpt lat="54.78038" lon="-2.35523"><ele>560.4</ele><time>2026-05-03T09:36:54.786Z</time></trkpt><trkpt lat="54.7803333" lon="-2.3553633"><ele>561.5999999999999</ele><time>2026-05-03T09:36:55.783Z</time></trkpt><trkpt lat="54.7802867" lon="-2.3554933"><ele>562.8</ele><time>2026-05-03T09:36:56.784Z</time></trkpt><trkpt lat="54.780235" lon="-2.35562"><ele>564.0</ele><time>2026-05-03T09:36:57.785Z</time></trkpt><trkpt lat="54.7801783" lon="-2.35575"><ele>566.2</ele><time>2026-05-03T09:36:58.783Z</time></trkpt><trkpt lat="54.780115" lon="-2.355885"><ele>568.4</ele><time>2026-05-03T09:36:59.782Z</time></trkpt><trkpt lat="54.7800433" lon="-2.3560167"><ele>570.6</ele><time>2026-05-03T09:37:00.783Z</time></trkpt><trkpt lat="54.7799633" lon="-2.3561567"><ele>572.8</ele><time>2026-05-03T09:37:01.784Z</time></trkpt><trkpt lat="54.7798817" lon="-2.35631"><ele>575.0</ele><time>2026-05-03T09:37:02.784Z</time></trkpt><trkpt lat="54.7797983" lon="-2.3564717"><ele>576.5</ele><time>2026-05-03T09:37:03.783Z</time></trkpt><trkpt lat="54.7797183" lon="-2.3566317"><ele>578.0</ele><time>2026-05-03T09:37:04.783Z</time></trkpt><trkpt lat="54.7796333" lon="-2.3567667"><ele>579.5</ele><time>2026-05-03T09:37:05.784Z</time></trkpt><trkpt lat="54.7795383" lon="-2.35688"><ele>581.0</ele><time>2026-05-03T09:37:06.787Z</time></trkpt><trkpt lat="54.7794467" lon="-2.35698"><ele>581.0</ele><time>2026-05-03T09:37:07.784Z</time></trkpt><trkpt lat="54.779365" lon="-2.3570617"><ele>581.0</ele><time>2026-05-03T09:37:08.783Z</time></trkpt><trkpt lat="54.7792783" lon="-2.357155"><ele>581.0</ele><time>2026-05-03T09:37:09.782Z</time></trkpt><trkpt lat="54.7791917" lon="-2.3572717"><ele>581.0</ele><time>2026-05-03T09:37:10.785Z</time></trkpt><trkpt lat="54.7791067" lon="-2.3574183"><ele>581.0</ele><time>2026-05-03T09:37:11.785Z</time></trkpt><trkpt lat="54.7790183" lon="-2.3575833"><ele>583.75</ele><time>2026-05-03T09:37:12.785Z</time></trkpt><trkpt lat="54.7789333" lon="-2.3577567"><ele>586.5</ele><time>2026-05-03T09:37:13.785Z</time></trkpt><trkpt lat="54.7788483" lon="-2.357925"><ele>589.25</ele><time>2026-05-03T09:37:14.784Z</time></trkpt><trkpt lat="54.77876" lon="-2.3581033"><ele>592.0</ele><time>2026-05-03T09:37:15.783Z</time></trkpt><trkpt lat="54.7786717" lon="-2.3582767"><ele>592.5</ele><time>2026-05-03T09:37:16.783Z</time></trkpt><trkpt lat="54.7785883" lon="-2.3584367"><ele>593.0</ele><time>2026-05-03T09:37:17.785Z</time></trkpt><trkpt lat="54.7785133" lon="-2.3585833"><ele>593.5</ele><time>2026-05-03T09:37:18.785Z</time></trkpt><trkpt lat="54.77844" lon="-2.35873"><ele>594.0</ele><time>2026-05-03T09:37:19.783Z</time></trkpt><trkpt lat="54.778365" lon="-2.3588817"><ele>595.2</ele><time>2026-05-03T09:37:20.784Z</time></trkpt><trkpt lat="54.7782883" lon="-2.3590317"><ele>596.4</ele><time>2026-05-03T09:37:21.784Z</time></trkpt><trkpt lat="54.77821" lon="-2.359175"><ele>597.6</ele><time>2026-05-03T09:37:22.783Z</time></trkpt><trkpt lat="54.7781367" lon="-2.3593117"><ele>598.8</ele><time>2026-05-03T09:37:23.784Z</time></trkpt><trkpt lat="54.7780683" lon="-2.3594517"><ele>600.0</ele><time>2026-05-03T09:37:24.783Z</time></trkpt><trkpt lat="54.7780033" lon="-2.3596033"><ele>600.0</ele><time>2026-05-03T09:37:25.783Z</time></trkpt><trkpt lat="54.7779383" lon="-2.3597567"><ele>600.0</ele><time>2026-05-03T09:37:26.783Z</time></trkpt><trkpt lat="54.777875" lon="-2.359915"><ele>600.0</ele><time>2026-05-03T09:37:27.783Z</time></trkpt><trkpt lat="54.7778083" lon="-2.3600883"><ele>600.0</ele><time>2026-05-03T09:37:28.787Z</time></trkpt><trkpt lat="54.77774" lon="-2.3602767"><ele>598.75</ele><time>2026-05-03T09:37:29.783Z</time></trkpt><trkpt lat="54.7776683" lon="-2.3604733"><ele>597.5</ele><time>2026-05-03T09:37:30.784Z</time></trkpt><trkpt lat="54.7776" lon="-2.3606733"><ele>596.25</ele><time>2026-05-03T09:37:31.784Z</time></trkpt><trkpt lat="54.7775317" lon="-2.3608667"><ele>595.0</ele><time>2026-05-03T09:37:32.784Z</time></trkpt><trkpt lat="54.7774633" lon="-2.3610567"><ele>594.5</ele><time>2026-05-03T09:37:33.783Z</time></trkpt><trkpt lat="54.777395" lon="-2.3612433"><ele>594.0</ele><time>2026-05-03T09:37:34.783Z</time></trkpt><trkpt lat="54.7773267" lon="-2.36143"><ele>593.5</ele><time>2026-05-03T09:37:35.784Z</time></trkpt><trkpt lat="54.7772583" lon="-2.3616233"><ele>593.0</ele><time>2026-05-03T09:37:36.784Z</time></trkpt><trkpt lat="54.7771867" lon="-2.36182"><ele>592.0</ele><time>2026-05-03T09:37:37.783Z</time></trkpt><trkpt lat="54.7771167" lon="-2.3620183"><ele>591.0</ele><time>2026-05-03T09:37:38.783Z</time></trkpt><trkpt lat="54.7770483" lon="-2.362215"><ele>590.0</ele><time>2026-05-03T09:37:39.783Z</time></trkpt><trkpt lat="54.7769817" lon="-2.3624"><ele>589.0</ele><time>2026-05-03T09:37:40.784Z</time></trkpt><trkpt lat="54.7769183" lon="-2.3625733"><ele>588.25</ele><time>2026-05-03T09:37:41.785Z</time></trkpt><trkpt lat="54.7768567" lon="-2.362745"><ele>587.5</ele><time>2026-05-03T09:37:42.784Z</time></trkpt><trkpt lat="54.776795" lon="-2.362915"><ele>586.75</ele><time>2026-05-03T09:37:43.785Z</time></trkpt><trkpt lat="54.7767383" lon="-2.3630783"><ele>586.0</ele><time>2026-05-03T09:37:44.784Z</time></trkpt><trkpt lat="54.7766817" lon="-2.363245"><ele>585.0</ele><time>2026-05-03T09:37:45.783Z</time></trkpt><trkpt lat="54.77662" lon="-2.3634167"><ele>584.0</ele><time>2026-05-03T09:37:46.783Z</time></trkpt><trkpt lat="54.7765567" lon="-2.3635933"><ele>583.0</ele><time>2026-05-03T09:37:47.785Z</time></trkpt><trkpt lat="54.7764917" lon="-2.3637817"><ele>582.0</ele><time>2026-05-03T09:37:48.784Z</time></trkpt><trkpt lat="54.7764217" lon="-2.3639883"><ele>580.0</ele><time>2026-05-03T09:37:49.783Z</time></trkpt><trkpt lat="54.7763433" lon="-2.3642133"><ele>578.0</ele><time>2026-05-03T09:37:50.785Z</time></trkpt><trkpt lat="54.7762633" lon="-2.3644583"><ele>576.0</ele><time>2026-05-03T09:37:51.788Z</time></trkpt><trkpt lat="54.7761883" lon="-2.3647117"><ele>575.3333333333334</ele><time>2026-05-03T09:37:52.784Z</time></trkpt><trkpt lat="54.7761117" lon="-2.36495"><ele>574.6666666666667</ele><time>2026-05-03T09:37:53.785Z</time></trkpt><trkpt lat="54.7760367" lon="-2.3651783"><ele>574.0</ele><time>2026-05-03T09:37:54.785Z</time></trkpt><trkpt lat="54.7759567" lon="-2.3653933"><ele>572.5</ele><time>2026-05-03T09:37:55.785Z</time></trkpt><trkpt lat="54.7758833" lon="-2.3656083"><ele>571.0</ele><time>2026-05-03T09:37:56.785Z</time></trkpt><trkpt lat="54.7758117" lon="-2.3658133"><ele>569.5</ele><time>2026-05-03T09:37:57.784Z</time></trkpt><trkpt lat="54.775745" lon="-2.3660117"><ele>568.0</ele><time>2026-05-03T09:37:58.785Z</time></trkpt><trkpt lat="54.7756783" lon="-2.3661967"><ele>567.0</ele><time>2026-05-03T09:37:59.785Z</time></trkpt><trkpt lat="54.7756167" lon="-2.3663767"><ele>566.0</ele><time>2026-05-03T09:38:00.782Z</time></trkpt><trkpt lat="54.7755517" lon="-2.3665367"><ele>565.0</ele><time>2026-05-03T09:38:01.783Z</time></trkpt><trkpt lat="54.7754883" lon="-2.36668"><ele>564.0</ele><time>2026-05-03T09:38:02.785Z</time></trkpt><trkpt lat="54.77542" lon="-2.3668017"><ele>563.0</ele><time>2026-05-03T09:38:03.785Z</time></trkpt><trkpt lat="54.7753467" lon="-2.3669083"><ele>563.0</ele><time>2026-05-03T09:38:04.784Z</time></trkpt><trkpt lat="54.7752767" lon="-2.367025"><ele>563.0</ele><time>2026-05-03T09:38:05.783Z</time></trkpt><trkpt lat="54.7752083" lon="-2.3671633"><ele>563.0</ele><time>2026-05-03T09:38:06.783Z</time></trkpt><trkpt lat="54.7751417" lon="-2.36731"><ele>563.0</ele><time>2026-05-03T09:38:07.783Z</time></trkpt><trkpt lat="54.775085" lon="-2.3674567"><ele>563.0</ele><time>2026-05-03T09:38:08.784Z</time></trkpt><trkpt lat="54.77504" lon="-2.3676017"><ele>561.6</ele><time>2026-05-03T09:38:09.784Z</time></trkpt><trkpt lat="54.7750133" lon="-2.3677633"><ele>560.1999999999999</ele><time>2026-05-03T09:38:10.784Z</time></trkpt><trkpt lat="54.775" lon="-2.3679317"><ele>558.8</ele><time>2026-05-03T09:38:11.784Z</time></trkpt><trkpt lat="54.7750067" lon="-2.368115"><ele>557.4</ele><time>2026-05-03T09:38:12.784Z</time></trkpt><trkpt lat="54.7750267" lon="-2.3683133"><ele>556.0</ele><time>2026-05-03T09:38:13.783Z</time></trkpt><trkpt lat="54.775075" lon="-2.3685317"><ele>555.25</ele><time>2026-05-03T09:38:14.784Z</time></trkpt><trkpt lat="54.7751167" lon="-2.368745"><ele>554.5</ele><time>2026-05-03T09:38:15.784Z</time></trkpt><trkpt lat="54.775155" lon="-2.3689533"><ele>553.75</ele><time>2026-05-03T09:38:16.786Z</time></trkpt><trkpt lat="54.7751883" lon="-2.3691617"><ele>553.0</ele><time>2026-05-03T09:38:17.786Z</time></trkpt><trkpt lat="54.775205" lon="-2.3693617"><ele>551.5</ele><time>2026-05-03T09:38:18.786Z</time></trkpt><trkpt lat="54.775195" lon="-2.36957"><ele>550.0</ele><time>2026-05-03T09:38:19.786Z</time></trkpt><trkpt lat="54.7751783" lon="-2.3697933"><ele>548.5</ele><time>2026-05-03T09:38:20.784Z</time></trkpt><trkpt lat="54.7751483" lon="-2.3700267"><ele>547.0</ele><time>2026-05-03T09:38:21.787Z</time></trkpt><trkpt lat="54.7751183" lon="-2.3702583"><ele>547.0</ele><time>2026-05-03T09:38:22.784Z</time></trkpt><trkpt lat="54.77509" lon="-2.370475"><ele>547.0</ele><time>2026-05-03T09:38:23.784Z</time></trkpt><trkpt lat="54.7750717" lon="-2.3706817"><ele>547.0</ele><time>2026-05-03T09:38:24.782Z</time></trkpt><trkpt lat="54.7750533" lon="-2.370885"><ele>547.0</ele><time>2026-05-03T09:38:25.785Z</time></trkpt><trkpt lat="54.7750383" lon="-2.3711"><ele>545.3333333333334</ele><time>2026-05-03T09:38:26.785Z</time></trkpt><trkpt lat="54.7750217" lon="-2.371335"><ele>543.6666666666666</ele><time>2026-05-03T09:38:27.783Z</time></trkpt><trkpt lat="54.7750017" lon="-2.371595"><ele>542.0</ele><time>2026-05-03T09:38:28.783Z</time></trkpt><trkpt lat="54.7749733" lon="-2.3718717"><ele>539.0</ele><time>2026-05-03T09:38:29.785Z</time></trkpt><trkpt lat="54.7749433" lon="-2.3721583"><ele>536.0</ele><time>2026-05-03T09:38:30.784Z</time></trkpt><trkpt lat="54.77491" lon="-2.3724433"><ele>533.0</ele><time>2026-05-03T09:38:31.784Z</time></trkpt><trkpt lat="54.7748767" lon="-2.3727233"><ele>531.0</ele><time>2026-05-03T09:38:32.784Z</time></trkpt><trkpt lat="54.7748467" lon="-2.373"><ele>529.0</ele><time>2026-05-03T09:38:33.783Z</time></trkpt><trkpt lat="54.7748167" lon="-2.373275"><ele>527.0</ele><time>2026-05-03T09:38:34.784Z</time></trkpt><trkpt lat="54.7747817" lon="-2.3735433"><ele>525.3333333333333</ele><time>2026-05-03T09:38:35.784Z</time></trkpt><trkpt lat="54.77474" lon="-2.37382"><ele>523.6666666666666</ele><time>2026-05-03T09:38:36.784Z</time></trkpt><trkpt lat="54.774685" lon="-2.3741183"><ele>522.0</ele><time>2026-05-03T09:38:37.784Z</time></trkpt><trkpt lat="54.7746167" lon="-2.3744183"><ele>519.0</ele><time>2026-05-03T09:38:38.784Z</time></trkpt><trkpt lat="54.7745467" lon="-2.3747017"><ele>516.0</ele><time>2026-05-03T09:38:39.783Z</time></trkpt><trkpt lat="54.7744817" lon="-2.3749667"><ele>513.0</ele><time>2026-05-03T09:38:40.782Z</time></trkpt><trkpt lat="54.7744167" lon="-2.37522"><ele>513.0</ele><time>2026-05-03T09:38:41.784Z</time></trkpt><trkpt lat="54.7743583" lon="-2.3754583"><ele>513.0</ele><time>2026-05-03T09:38:42.786Z</time></trkpt><trkpt lat="54.7743033" lon="-2.375665"><ele>513.0</ele><time>2026-05-03T09:38:43.784Z</time></trkpt><trkpt lat="54.7742567" lon="-2.37585"><ele>513.0</ele><time>2026-05-03T09:38:44.783Z</time></trkpt><trkpt lat="54.7742133" lon="-2.37603"><ele>513.75</ele><time>2026-05-03T09:38:45.782Z</time></trkpt><trkpt lat="54.7741633" lon="-2.3762133"><ele>514.5</ele><time>2026-05-03T09:38:46.784Z</time></trkpt><trkpt lat="54.774105" lon="-2.376415"><ele>515.25</ele><time>2026-05-03T09:38:47.784Z</time></trkpt><trkpt lat="54.7740383" lon="-2.3766533"><ele>516.0</ele><time>2026-05-03T09:38:48.783Z</time></trkpt><trkpt lat="54.7739667" lon="-2.3769167"><ele>511.0</ele><time>2026-05-03T09:38:49.784Z</time></trkpt><trkpt lat="54.7738983" lon="-2.3771933"><ele>506.0</ele><time>2026-05-03T09:38:50.783Z</time></trkpt><trkpt lat="54.7738383" lon="-2.3774783"><ele>501.0</ele><time>2026-05-03T09:38:51.785Z</time></trkpt><trkpt lat="54.7737917" lon="-2.3777717"><ele>499.66666666666663</ele><time>2026-05-03T09:38:52.784Z</time></trkpt><trkpt lat="54.7737567" lon="-2.3780783"><ele>498.3333333333333</ele><time>2026-05-03T09:38:53.784Z</time></trkpt><trkpt lat="54.7737433" lon="-2.37839"><ele>497.0</ele><time>2026-05-03T09:38:54.786Z</time></trkpt><trkpt lat="54.7737583" lon="-2.3786633"><ele>497.0</ele><time>2026-05-03T09:38:55.787Z</time></trkpt><trkpt lat="54.7737917" lon="-2.3789017"><ele>497.0</ele><time>2026-05-03T09:38:56.784Z</time></trkpt><trkpt lat="54.7738133" lon="-2.3791067"><ele>497.0</ele><time>2026-05-03T09:38:57.783Z</time></trkpt><trkpt lat="54.7738233" lon="-2.3793067"><ele>497.0</ele><time>2026-05-03T09:38:58.784Z</time></trkpt><trkpt lat="54.7738183" lon="-2.379525"><ele>496.0</ele><time>2026-05-03T09:38:59.785Z</time></trkpt><trkpt lat="54.7738067" lon="-2.3797733"><ele>495.0</ele><time>2026-05-03T09:39:00.784Z</time></trkpt><trkpt lat="54.7737933" lon="-2.3800567"><ele>494.0</ele><time>2026-05-03T09:39:01.785Z</time></trkpt><trkpt lat="54.7737783" lon="-2.38036"><ele>492.3333333333333</ele><time>2026-05-03T09:39:02.784Z</time></trkpt><trkpt lat="54.7737717" lon="-2.380695"><ele>490.66666666666663</ele><time>2026-05-03T09:39:03.787Z</time></trkpt><trkpt lat="54.7737667" lon="-2.3810433"><ele>489.0</ele><time>2026-05-03T09:39:04.787Z</time></trkpt><trkpt lat="54.773765" lon="-2.3813933"><ele>487.66666666666663</ele><time>2026-05-03T09:39:05.783Z</time></trkpt><trkpt lat="54.773755" lon="-2.38173"><ele>486.3333333333333</ele><time>2026-05-03T09:39:06.784Z</time></trkpt><trkpt lat="54.77374" lon="-2.3820567"><ele>485.0</ele><time>2026-05-03T09:39:07.785Z</time></trkpt><trkpt lat="54.7737233" lon="-2.3823867"><ele>484.3333333333333</ele><time>2026-05-03T09:39:08.783Z</time></trkpt><trkpt lat="54.77371" lon="-2.3827283"><ele>483.66666666666663</ele><time>2026-05-03T09:39:09.782Z</time></trkpt><trkpt lat="54.7736983" lon="-2.38308"><ele>483.0</ele><time>2026-05-03T09:39:10.785Z</time></trkpt><trkpt lat="54.7736817" lon="-2.3834217"><ele>481.66666666666663</ele><time>2026-05-03T09:39:11.785Z</time></trkpt><trkpt lat="54.773665" lon="-2.3837567"><ele>480.3333333333333</ele><time>2026-05-03T09:39:12.784Z</time></trkpt><trkpt lat="54.77365" lon="-2.38408"><ele>479.0</ele><time>2026-05-03T09:39:13.787Z</time></trkpt><trkpt lat="54.7736367" lon="-2.384395"><ele>475.66666666666663</ele><time>2026-05-03T09:39:14.784Z</time></trkpt><trkpt lat="54.773625" lon="-2.3847067"><ele>472.33333333333337</ele><time>2026-05-03T09:39:15.783Z</time></trkpt><trkpt lat="54.7736167" lon="-2.3850133"><ele>469.0</ele><time>2026-05-03T09:39:16.787Z</time></trkpt><trkpt lat="54.773605" lon="-2.3853167"><ele>467.6666666666667</ele><time>2026-05-03T09:39:17.784Z</time></trkpt><trkpt lat="54.773595" lon="-2.3856117"><ele>466.33333333333337</ele><time>2026-05-03T09:39:18.784Z</time></trkpt><trkpt lat="54.7735867" lon="-2.3859017"><ele>465.0</ele><time>2026-05-03T09:39:19.782Z</time></trkpt><trkpt lat="54.7735783" lon="-2.3861833"><ele>463.66666666666663</ele><time>2026-05-03T09:39:20.786Z</time></trkpt><trkpt lat="54.7735733" lon="-2.3864633"><ele>462.3333333333333</ele><time>2026-05-03T09:39:21.783Z</time></trkpt><trkpt lat="54.7735683" lon="-2.3867483"><ele>461.0</ele><time>2026-05-03T09:39:22.783Z</time></trkpt><trkpt lat="54.7735617" lon="-2.3870633"><ele>458.66666666666663</ele><time>2026-05-03T09:39:23.784Z</time></trkpt><trkpt lat="54.7735567" lon="-2.387405"><ele>456.33333333333337</ele><time>2026-05-03T09:39:24.782Z</time></trkpt><trkpt lat="54.7735483" lon="-2.38775"><ele>454.0</ele><time>2026-05-03T09:39:25.783Z</time></trkpt><trkpt lat="54.7735383" lon="-2.3880933"><ele>452.6666666666667</ele><time>2026-05-03T09:39:26.783Z</time></trkpt><trkpt lat="54.7735283" lon="-2.3884333"><ele>451.33333333333337</ele><time>2026-05-03T09:39:27.782Z</time></trkpt><trkpt lat="54.77352" lon="-2.3887683"><ele>450.0</ele><time>2026-05-03T09:39:28.783Z</time></trkpt><trkpt lat="54.7735083" lon="-2.3890833"><ele>448.66666666666663</ele><time>2026-05-03T09:39:29.786Z</time></trkpt><trkpt lat="54.7734983" lon="-2.38939"><ele>447.3333333333333</ele><time>2026-05-03T09:39:30.783Z</time></trkpt><trkpt lat="54.7734917" lon="-2.3896867"><ele>446.0</ele><time>2026-05-03T09:39:31.783Z</time></trkpt><trkpt lat="54.7734883" lon="-2.3899617"><ele>445.0</ele><time>2026-05-03T09:39:32.784Z</time></trkpt><trkpt lat="54.7734867" lon="-2.39021"><ele>444.0</ele><time>2026-05-03T09:39:33.782Z</time></trkpt><trkpt lat="54.77349" lon="-2.3904333"><ele>443.0</ele><time>2026-05-03T09:39:34.783Z</time></trkpt><trkpt lat="54.7734917" lon="-2.3906167"><ele>442.0</ele><time>2026-05-03T09:39:35.783Z</time></trkpt><trkpt lat="54.7734983" lon="-2.3907683"><ele>441.1666666666667</ele><time>2026-05-03T09:39:36.783Z</time></trkpt><trkpt lat="54.7735033" lon="-2.3908967"><ele>440.33333333333337</ele><time>2026-05-03T09:39:37.787Z</time></trkpt><trkpt lat="54.7735167" lon="-2.3910983"><ele>439.5</ele><time>2026-05-03T09:39:39.787Z</time></trkpt><trkpt lat="54.7735133" lon="-2.3912233"><ele>438.66666666666663</ele><time>2026-05-03T09:39:41.787Z</time></trkpt><trkpt lat="54.7734433" lon="-2.3913083"><ele>437.8333333333333</ele><time>2026-05-03T09:39:44.783Z</time></trkpt><trkpt lat="54.773345" lon="-2.3912883"><ele>437.0</ele><time>2026-05-03T09:39:46.782Z</time></trkpt><trkpt lat="54.77323" lon="-2.3912167"><ele>436.99999999999994</ele><time>2026-05-03T09:39:48.783Z</time></trkpt><trkpt lat="54.77317" lon="-2.3911783"><ele>437.0</ele><time>2026-05-03T09:39:49.784Z</time></trkpt><trkpt lat="54.773105" lon="-2.3911367"><ele>437.0</ele><time>2026-05-03T09:39:50.783Z</time></trkpt><trkpt lat="54.7730317" lon="-2.3910917"><ele>437.0</ele><time>2026-05-03T09:39:51.784Z</time></trkpt><trkpt lat="54.772955" lon="-2.3910367"><ele>436.99999999999994</ele><time>2026-05-03T09:39:52.784Z</time></trkpt><trkpt lat="54.7728733" lon="-2.3909783"><ele>437.0</ele><time>2026-05-03T09:39:53.784Z</time></trkpt><trkpt lat="54.7727883" lon="-2.390925"><ele>437.0</ele><time>2026-05-03T09:39:54.784Z</time></trkpt><trkpt lat="54.7726933" lon="-2.3908683"><ele>437.0</ele><time>2026-05-03T09:39:55.784Z</time></trkpt><trkpt lat="54.77259" lon="-2.3908067"><ele>437.0</ele><time>2026-05-03T09:39:56.783Z</time></trkpt><trkpt lat="54.77248" lon="-2.390735"><ele>437.0</ele><time>2026-05-03T09:39:57.784Z</time></trkpt><trkpt lat="54.7723567" lon="-2.39065"><ele>436.0</ele><time>2026-05-03T09:39:58.784Z</time></trkpt><trkpt lat="54.7722133" lon="-2.39055"><ele>435.0</ele><time>2026-05-03T09:39:59.785Z</time></trkpt><trkpt lat="54.7720567" lon="-2.390435"><ele>434.0</ele><time>2026-05-03T09:40:00.786Z</time></trkpt><trkpt lat="54.7718967" lon="-2.3903083"><ele>434.66666666666663</ele><time>2026-05-03T09:40:01.786Z</time></trkpt><trkpt lat="54.7717283" lon="-2.3901717"><ele>435.33333333333337</ele><time>2026-05-03T09:40:02.785Z</time></trkpt><trkpt lat="54.7715583" lon="-2.3900317"><ele>436.0</ele><time>2026-05-03T09:40:03.784Z</time></trkpt><trkpt lat="54.77139" lon="-2.38989"><ele>436.0</ele><time>2026-05-03T09:40:04.786Z</time></trkpt><trkpt lat="54.77121" lon="-2.389745"><ele>436.0</ele><time>2026-05-03T09:40:05.785Z</time></trkpt><trkpt lat="54.7710117" lon="-2.3896133"><ele>436.0</ele><time>2026-05-03T09:40:06.788Z</time></trkpt><trkpt lat="54.7708067" lon="-2.3895"><ele>436.6666666666667</ele><time>2026-05-03T09:40:07.788Z</time></trkpt><trkpt lat="54.7706017" lon="-2.3893967"><ele>437.33333333333337</ele><time>2026-05-03T09:40:08.785Z</time></trkpt><trkpt lat="54.7704033" lon="-2.3893"><ele>438.0</ele><time>2026-05-03T09:40:09.783Z</time></trkpt><trkpt lat="54.7702033" lon="-2.389205"><ele>436.66666666666663</ele><time>2026-05-03T09:40:10.787Z</time></trkpt><trkpt lat="54.7700067" lon="-2.3891133"><ele>435.3333333333333</ele><time>2026-05-03T09:40:11.784Z</time></trkpt><trkpt lat="54.7698133" lon="-2.3890283"><ele>434.0</ele><time>2026-05-03T09:40:12.788Z</time></trkpt><trkpt lat="54.769625" lon="-2.3889467"><ele>434.0</ele><time>2026-05-03T09:40:13.788Z</time></trkpt><trkpt lat="54.7694417" lon="-2.38886"><ele>434.0</ele><time>2026-05-03T09:40:14.785Z</time></trkpt><trkpt lat="54.7692633" lon="-2.3887767"><ele>434.0</ele><time>2026-05-03T09:40:15.784Z</time></trkpt><trkpt lat="54.7690867" lon="-2.3886917"><ele>435.0</ele><time>2026-05-03T09:40:16.785Z</time></trkpt><trkpt lat="54.768905" lon="-2.388595"><ele>436.0</ele><time>2026-05-03T09:40:17.785Z</time></trkpt><trkpt lat="54.7687183" lon="-2.3884983"><ele>437.0</ele><time>2026-05-03T09:40:18.785Z</time></trkpt><trkpt lat="54.7685283" lon="-2.38841"><ele>436.0</ele><time>2026-05-03T09:40:19.785Z</time></trkpt><trkpt lat="54.7683283" lon="-2.3883267"><ele>435.0</ele><time>2026-05-03T09:40:20.785Z</time></trkpt><trkpt lat="54.7681233" lon="-2.3882417"><ele>434.0</ele><time>2026-05-03T09:40:21.784Z</time></trkpt><trkpt lat="54.7679167" lon="-2.3881533"><ele>434.0</ele><time>2026-05-03T09:40:22.784Z</time></trkpt><trkpt lat="54.7677083" lon="-2.3880583"><ele>434.0</ele><time>2026-05-03T09:40:23.784Z</time></trkpt><trkpt lat="54.767505" lon="-2.3879383"><ele>434.0</ele><time>2026-05-03T09:40:24.785Z</time></trkpt><trkpt lat="54.7673" lon="-2.3877817"><ele>434.0</ele><time>2026-05-03T09:40:25.784Z</time></trkpt><trkpt lat="54.7671" lon="-2.3876217"><ele>434.0</ele><time>2026-05-03T09:40:26.784Z</time></trkpt><trkpt lat="54.7668983" lon="-2.38746"><ele>434.0</ele><time>2026-05-03T09:40:27.784Z</time></trkpt><trkpt lat="54.76669" lon="-2.3873067"><ele>434.0</ele><time>2026-05-03T09:40:28.788Z</time></trkpt><trkpt lat="54.7664767" lon="-2.3871617"><ele>434.0</ele><time>2026-05-03T09:40:29.785Z</time></trkpt><trkpt lat="54.76627" lon="-2.3870317"><ele>434.0</ele><time>2026-05-03T09:40:30.786Z</time></trkpt><trkpt lat="54.7660683" lon="-2.386915"><ele>432.0</ele><time>2026-05-03T09:40:31.784Z</time></trkpt><trkpt lat="54.765875" lon="-2.38681"><ele>430.0</ele><time>2026-05-03T09:40:32.784Z</time></trkpt><trkpt lat="54.7656933" lon="-2.386705"><ele>428.0</ele><time>2026-05-03T09:40:33.785Z</time></trkpt><trkpt lat="54.76552" lon="-2.3865867"><ele>428.0</ele><time>2026-05-03T09:40:34.785Z</time></trkpt><trkpt lat="54.765355" lon="-2.38643"><ele>428.0</ele><time>2026-05-03T09:40:35.786Z</time></trkpt><trkpt lat="54.7651867" lon="-2.3862233"><ele>428.0</ele><time>2026-05-03T09:40:36.783Z</time></trkpt><trkpt lat="54.7650217" lon="-2.3859967"><ele>428.66666666666663</ele><time>2026-05-03T09:40:37.785Z</time></trkpt><trkpt lat="54.7648567" lon="-2.3857533"><ele>429.33333333333337</ele><time>2026-05-03T09:40:38.787Z</time></trkpt><trkpt lat="54.7646917" lon="-2.385505"><ele>430.0</ele><time>2026-05-03T09:40:39.786Z</time></trkpt><trkpt lat="54.764525" lon="-2.3852517"><ele>429.5</ele><time>2026-05-03T09:40:40.786Z</time></trkpt><trkpt lat="54.764355" lon="-2.3849933"><ele>429.0</ele><time>2026-05-03T09:40:41.787Z</time></trkpt><trkpt lat="54.7641833" lon="-2.384735"><ele>431.5</ele><time>2026-05-03T09:40:42.787Z</time></trkpt><trkpt lat="54.7640133" lon="-2.3844733"><ele>434.0</ele><time>2026-05-03T09:40:43.789Z</time></trkpt><trkpt lat="54.7638417" lon="-2.3842083"><ele>434.0</ele><time>2026-05-03T09:40:44.787Z</time></trkpt><trkpt lat="54.7636717" lon="-2.383945"><ele>434.0</ele><time>2026-05-03T09:40:45.788Z</time></trkpt><trkpt lat="54.7635033" lon="-2.383685"><ele>433.0</ele><time>2026-05-03T09:40:46.787Z</time></trkpt><trkpt lat="54.763335" lon="-2.3834283"><ele>432.0</ele><time>2026-05-03T09:40:47.784Z</time></trkpt><trkpt lat="54.7631633" lon="-2.38317"><ele>434.5</ele><time>2026-05-03T09:40:48.784Z</time></trkpt><trkpt lat="54.76299" lon="-2.3829117"><ele>437.0</ele><time>2026-05-03T09:40:49.785Z</time></trkpt><trkpt lat="54.7628167" lon="-2.38265"><ele>437.0</ele><time>2026-05-03T09:40:50.784Z</time></trkpt><trkpt lat="54.7626417" lon="-2.3823867"><ele>437.0</ele><time>2026-05-03T09:40:51.786Z</time></trkpt><trkpt lat="54.7624667" lon="-2.3821217"><ele>437.0</ele><time>2026-05-03T09:40:52.785Z</time></trkpt><trkpt lat="54.7622917" lon="-2.38186"><ele>437.0</ele><time>2026-05-03T09:40:53.784Z</time></trkpt><trkpt lat="54.7621167" lon="-2.381605"><ele>436.0</ele><time>2026-05-03T09:40:54.784Z</time></trkpt><trkpt lat="54.7619433" lon="-2.3813483"><ele>435.0</ele><time>2026-05-03T09:40:55.793Z</time></trkpt><trkpt lat="54.76177" lon="-2.3810883"><ele>435.0</ele><time>2026-05-03T09:40:56.788Z</time></trkpt><trkpt lat="54.7615983" lon="-2.38083"><ele>435.0</ele><time>2026-05-03T09:40:57.784Z</time></trkpt><trkpt lat="54.7614283" lon="-2.3805783"><ele>434.33333333333337</ele><time>2026-05-03T09:40:58.786Z</time></trkpt><trkpt lat="54.7612583" lon="-2.38033"><ele>433.6666666666667</ele><time>2026-05-03T09:40:59.787Z</time></trkpt><trkpt lat="54.7610933" lon="-2.3800817"><ele>433.0</ele><time>2026-05-03T09:41:00.787Z</time></trkpt><trkpt lat="54.76093" lon="-2.37983"><ele>434.33333333333337</ele><time>2026-05-03T09:41:01.788Z</time></trkpt><trkpt lat="54.7607683" lon="-2.3795833"><ele>435.66666666666663</ele><time>2026-05-03T09:41:02.787Z</time></trkpt><trkpt lat="54.7606117" lon="-2.3793467"><ele>437.0</ele><time>2026-05-03T09:41:03.788Z</time></trkpt><trkpt lat="54.7604617" lon="-2.3791217"><ele>437.0</ele><time>2026-05-03T09:41:04.787Z</time></trkpt><trkpt lat="54.7603183" lon="-2.3789083"><ele>437.0</ele><time>2026-05-03T09:41:05.784Z</time></trkpt><trkpt lat="54.7601767" lon="-2.37871"><ele>437.0</ele><time>2026-05-03T09:41:06.789Z</time></trkpt><trkpt lat="54.7600283" lon="-2.3785383"><ele>435.3333333333333</ele><time>2026-05-03T09:41:07.786Z</time></trkpt><trkpt lat="54.7598783" lon="-2.3783783"><ele>433.66666666666663</ele><time>2026-05-03T09:41:08.785Z</time></trkpt><trkpt lat="54.7597367" lon="-2.3782283"><ele>432.0</ele><time>2026-05-03T09:41:09.783Z</time></trkpt><trkpt lat="54.7596083" lon="-2.3780667"><ele>433.0</ele><time>2026-05-03T09:41:10.784Z</time></trkpt><trkpt lat="54.7594967" lon="-2.3778933"><ele>434.0</ele><time>2026-05-03T09:41:11.784Z</time></trkpt><trkpt lat="54.7593983" lon="-2.3777"><ele>435.0</ele><time>2026-05-03T09:41:12.785Z</time></trkpt><trkpt lat="54.7593117" lon="-2.37749"><ele>436.0</ele><time>2026-05-03T09:41:13.785Z</time></trkpt><trkpt lat="54.75924" lon="-2.377265"><ele>433.0</ele><time>2026-05-03T09:41:14.787Z</time></trkpt><trkpt lat="54.75918" lon="-2.3770433"><ele>430.0</ele><time>2026-05-03T09:41:15.783Z</time></trkpt><trkpt lat="54.759125" lon="-2.3768333"><ele>427.0</ele><time>2026-05-03T09:41:16.785Z</time></trkpt><trkpt lat="54.759075" lon="-2.3766467"><ele>424.0</ele><time>2026-05-03T09:41:17.783Z</time></trkpt><trkpt lat="54.7590333" lon="-2.37649"><ele>424.79999999999995</ele><time>2026-05-03T09:41:18.784Z</time></trkpt><trkpt lat="54.75899" lon="-2.3763483"><ele>425.59999999999997</ele><time>2026-05-03T09:41:19.785Z</time></trkpt><trkpt lat="54.7589417" lon="-2.3762267"><ele>426.4</ele><time>2026-05-03T09:41:20.784Z</time></trkpt><trkpt lat="54.75888" lon="-2.3761283"><ele>427.2</ele><time>2026-05-03T09:41:21.784Z</time></trkpt><trkpt lat="54.7588033" lon="-2.376055"><ele>428.0</ele><time>2026-05-03T09:41:22.785Z</time></trkpt><trkpt lat="54.7587033" lon="-2.376005"><ele>428.0</ele><time>2026-05-03T09:41:23.785Z</time></trkpt><trkpt lat="54.7585683" lon="-2.3759817"><ele>428.0</ele><time>2026-05-03T09:41:24.784Z</time></trkpt><trkpt lat="54.7584267" lon="-2.3759783"><ele>428.0</ele><time>2026-05-03T09:41:25.786Z</time></trkpt><trkpt lat="54.758275" lon="-2.3759883"><ele>428.0</ele><time>2026-05-03T09:41:26.784Z</time></trkpt><trkpt lat="54.7581267" lon="-2.3759967"><ele>428.0</ele><time>2026-05-03T09:41:27.783Z</time></trkpt><trkpt lat="54.7579833" lon="-2.3759883"><ele>428.0</ele><time>2026-05-03T09:41:28.787Z</time></trkpt><trkpt lat="54.7578433" lon="-2.3759383"><ele>428.0</ele><time>2026-05-03T09:41:29.785Z</time></trkpt><trkpt lat="54.7577017" lon="-2.3758333"><ele>428.0</ele><time>2026-05-03T09:41:30.787Z</time></trkpt><trkpt lat="54.7575583" lon="-2.3756883"><ele>428.0</ele><time>2026-05-03T09:41:31.784Z</time></trkpt><trkpt lat="54.757405" lon="-2.37553"><ele>428.0</ele><time>2026-05-03T09:41:32.784Z</time></trkpt><trkpt lat="54.7572383" lon="-2.3753883"><ele>428.0</ele><time>2026-05-03T09:41:33.787Z</time></trkpt><trkpt lat="54.7570567" lon="-2.375275"><ele>429.66666666666663</ele><time>2026-05-03T09:41:34.785Z</time></trkpt><trkpt lat="54.7568667" lon="-2.3751667"><ele>431.33333333333337</ele><time>2026-05-03T09:41:35.784Z</time></trkpt><trkpt lat="54.7566817" lon="-2.3750633"><ele>433.0</ele><time>2026-05-03T09:41:36.787Z</time></trkpt><trkpt lat="54.7565017" lon="-2.3749717"><ele>433.0</ele><time>2026-05-03T09:41:37.787Z</time></trkpt><trkpt lat="54.7563267" lon="-2.3748767"><ele>433.0</ele><time>2026-05-03T09:41:38.788Z</time></trkpt><trkpt lat="54.7561483" lon="-2.3747733"><ele>433.0</ele><time>2026-05-03T09:41:39.784Z</time></trkpt><trkpt lat="54.7559683" lon="-2.3746617"><ele>434.0</ele><time>2026-05-03T09:41:40.785Z</time></trkpt><trkpt lat="54.7557867" lon="-2.374535"><ele>435.0</ele><time>2026-05-03T09:41:41.784Z</time></trkpt><trkpt lat="54.7556067" lon="-2.3743883"><ele>436.0</ele><time>2026-05-03T09:41:42.787Z</time></trkpt><trkpt lat="54.7554317" lon="-2.3742383"><ele>436.0</ele><time>2026-05-03T09:41:43.785Z</time></trkpt><trkpt lat="54.755255" lon="-2.3740867"><ele>436.0</ele><time>2026-05-03T09:41:44.787Z</time></trkpt><trkpt lat="54.7550783" lon="-2.3739417"><ele>436.0</ele><time>2026-05-03T09:41:45.784Z</time></trkpt><trkpt lat="54.7548983" lon="-2.3738"><ele>437.6666666666667</ele><time>2026-05-03T09:41:46.785Z</time></trkpt><trkpt lat="54.7547167" lon="-2.3736567"><ele>439.33333333333337</ele><time>2026-05-03T09:41:47.788Z</time></trkpt><trkpt lat="54.754535" lon="-2.3735167"><ele>441.0</ele><time>2026-05-03T09:41:48.787Z</time></trkpt><trkpt lat="54.7543517" lon="-2.373375"><ele>441.0</ele><time>2026-05-03T09:41:49.788Z</time></trkpt><trkpt lat="54.75416" lon="-2.3732283"><ele>441.0</ele><time>2026-05-03T09:41:50.787Z</time></trkpt><trkpt lat="54.7539633" lon="-2.3730783"><ele>441.0</ele><time>2026-05-03T09:41:51.786Z</time></trkpt><trkpt lat="54.7537667" lon="-2.3729267"><ele>443.33333333333337</ele><time>2026-05-03T09:41:52.786Z</time></trkpt><trkpt lat="54.75357" lon="-2.3727667"><ele>445.6666666666667</ele><time>2026-05-03T09:41:53.785Z</time></trkpt><trkpt lat="54.7533783" lon="-2.3726033"><ele>448.0</ele><time>2026-05-03T09:41:54.788Z</time></trkpt><trkpt lat="54.7531917" lon="-2.3724367"><ele>448.0</ele><time>2026-05-03T09:41:55.785Z</time></trkpt><trkpt lat="54.7530033" lon="-2.3722667"><ele>448.0</ele><time>2026-05-03T09:41:56.786Z</time></trkpt><trkpt lat="54.7528183" lon="-2.3720933"><ele>448.0</ele><time>2026-05-03T09:41:57.786Z</time></trkpt><trkpt lat="54.7526283" lon="-2.3719133"><ele>449.6666666666667</ele><time>2026-05-03T09:41:58.788Z</time></trkpt><trkpt lat="54.7524417" lon="-2.371735"><ele>451.33333333333337</ele><time>2026-05-03T09:41:59.788Z</time></trkpt><trkpt lat="54.7522533" lon="-2.3715617"><ele>453.0</ele><time>2026-05-03T09:42:00.788Z</time></trkpt><trkpt lat="54.75207" lon="-2.37139"><ele>455.33333333333337</ele><time>2026-05-03T09:42:01.786Z</time></trkpt><trkpt lat="54.751885" lon="-2.37122"><ele>457.6666666666667</ele><time>2026-05-03T09:42:02.788Z</time></trkpt><trkpt lat="54.7516967" lon="-2.3710517"><ele>460.0</ele><time>2026-05-03T09:42:03.787Z</time></trkpt><trkpt lat="54.7515017" lon="-2.370895"><ele>460.0</ele><time>2026-05-03T09:42:04.784Z</time></trkpt><trkpt lat="54.7512983" lon="-2.3707533"><ele>460.0</ele><time>2026-05-03T09:42:05.787Z</time></trkpt><trkpt lat="54.7510917" lon="-2.3706217"><ele>460.0</ele><time>2026-05-03T09:42:06.786Z</time></trkpt><trkpt lat="54.750885" lon="-2.3704983"><ele>463.0</ele><time>2026-05-03T09:42:07.784Z</time></trkpt><trkpt lat="54.7506783" lon="-2.3703783"><ele>466.0</ele><time>2026-05-03T09:42:08.785Z</time></trkpt><trkpt lat="54.7504667" lon="-2.3702667"><ele>469.0</ele><time>2026-05-03T09:42:09.785Z</time></trkpt><trkpt lat="54.7502517" lon="-2.3701333"><ele>466.0</ele><time>2026-05-03T09:42:10.787Z</time></trkpt><trkpt lat="54.7500333" lon="-2.3699933"><ele>463.0</ele><time>2026-05-03T09:42:11.788Z</time></trkpt><trkpt lat="54.7498167" lon="-2.369855"><ele>463.0</ele><time>2026-05-03T09:42:12.787Z</time></trkpt><trkpt lat="54.7496017" lon="-2.36972"><ele>463.0</ele><time>2026-05-03T09:42:13.784Z</time></trkpt><trkpt lat="54.7493883" lon="-2.36959"><ele>464.33333333333337</ele><time>2026-05-03T09:42:14.784Z</time></trkpt><trkpt lat="54.749175" lon="-2.3694567"><ele>465.66666666666663</ele><time>2026-05-03T09:42:15.783Z</time></trkpt><trkpt lat="54.7489667" lon="-2.3693283"><ele>467.0</ele><time>2026-05-03T09:42:16.784Z</time></trkpt><trkpt lat="54.7487583" lon="-2.3691917"><ele>467.0</ele><time>2026-05-03T09:42:17.788Z</time></trkpt><trkpt lat="54.7485483" lon="-2.3690467"><ele>467.0</ele><time>2026-05-03T09:42:18.786Z</time></trkpt><trkpt lat="54.7483383" lon="-2.3689"><ele>469.0</ele><time>2026-05-03T09:42:19.788Z</time></trkpt><trkpt lat="54.74813" lon="-2.3687583"><ele>471.0</ele><time>2026-05-03T09:42:20.789Z</time></trkpt><trkpt lat="54.7479183" lon="-2.3686233"><ele>473.0</ele><time>2026-05-03T09:42:21.787Z</time></trkpt><trkpt lat="54.7477117" lon="-2.3685017"><ele>473.0</ele><time>2026-05-03T09:42:22.787Z</time></trkpt><trkpt lat="54.7475067" lon="-2.3683783"><ele>473.0</ele><time>2026-05-03T09:42:23.782Z</time></trkpt><trkpt lat="54.7473067" lon="-2.3682417"><ele>473.0</ele><time>2026-05-03T09:42:24.786Z</time></trkpt><trkpt lat="54.74711" lon="-2.3680967"><ele>474.66666666666663</ele><time>2026-05-03T09:42:25.787Z</time></trkpt><trkpt lat="54.74692" lon="-2.3679467"><ele>476.33333333333337</ele><time>2026-05-03T09:42:26.786Z</time></trkpt><trkpt lat="54.7467317" lon="-2.367805"><ele>478.0</ele><time>2026-05-03T09:42:27.786Z</time></trkpt><trkpt lat="54.746535" lon="-2.3676617"><ele>478.0</ele><time>2026-05-03T09:42:28.787Z</time></trkpt><trkpt lat="54.7463367" lon="-2.367515"><ele>478.0</ele><time>2026-05-03T09:42:29.786Z</time></trkpt><trkpt lat="54.7461383" lon="-2.3673617"><ele>478.0</ele><time>2026-05-03T09:42:30.787Z</time></trkpt><trkpt lat="54.7459317" lon="-2.367205"><ele>480.5</ele><time>2026-05-03T09:42:31.787Z</time></trkpt><trkpt lat="54.7457233" lon="-2.3670433"><ele>483.0</ele><time>2026-05-03T09:42:32.787Z</time></trkpt><trkpt lat="54.7455117" lon="-2.3668817"><ele>483.0</ele><time>2026-05-03T09:42:33.784Z</time></trkpt><trkpt lat="54.7453" lon="-2.36672"><ele>483.0</ele><time>2026-05-03T09:42:34.787Z</time></trkpt><trkpt lat="54.7450883" lon="-2.366555"><ele>482.0</ele><time>2026-05-03T09:42:35.787Z</time></trkpt><trkpt lat="54.744875" lon="-2.3663917"><ele>481.0</ele><time>2026-05-03T09:42:36.787Z</time></trkpt><trkpt lat="54.7446583" lon="-2.36623"><ele>483.5</ele><time>2026-05-03T09:42:37.788Z</time></trkpt><trkpt lat="54.7444383" lon="-2.3660783"><ele>486.0</ele><time>2026-05-03T09:42:38.786Z</time></trkpt><trkpt lat="54.7442167" lon="-2.365935"><ele>486.0</ele><time>2026-05-03T09:42:39.787Z</time></trkpt><trkpt lat="54.7439917" lon="-2.36579"><ele>486.0</ele><time>2026-05-03T09:42:40.787Z</time></trkpt><trkpt lat="54.7437683" lon="-2.3656467"><ele>489.5</ele><time>2026-05-03T09:42:41.786Z</time></trkpt><trkpt lat="54.7435467" lon="-2.3655"><ele>493.0</ele><time>2026-05-03T09:42:42.787Z</time></trkpt><trkpt lat="54.74333" lon="-2.3653383"><ele>493.0</ele><time>2026-05-03T09:42:43.787Z</time></trkpt><trkpt lat="54.743115" lon="-2.3651633"><ele>493.0</ele><time>2026-05-03T09:42:44.787Z</time></trkpt><trkpt lat="54.7428967" lon="-2.36498"><ele>492.0</ele><time>2026-05-03T09:42:45.787Z</time></trkpt><trkpt lat="54.7426833" lon="-2.3647983"><ele>491.0</ele><time>2026-05-03T09:42:46.786Z</time></trkpt><trkpt lat="54.7424733" lon="-2.3646167"><ele>494.0</ele><time>2026-05-03T09:42:47.786Z</time></trkpt><trkpt lat="54.7422667" lon="-2.364425"><ele>497.0</ele><time>2026-05-03T09:42:48.787Z</time></trkpt><trkpt lat="54.742065" lon="-2.3642283"><ele>497.0</ele><time>2026-05-03T09:42:49.788Z</time></trkpt><trkpt lat="54.7418583" lon="-2.3640317"><ele>497.0</ele><time>2026-05-03T09:42:50.787Z</time></trkpt><trkpt lat="54.741645" lon="-2.363865"><ele>501.0</ele><time>2026-05-03T09:42:51.787Z</time></trkpt><trkpt lat="54.74142" lon="-2.36374"><ele>505.0</ele><time>2026-05-03T09:42:52.787Z</time></trkpt><trkpt lat="54.7411883" lon="-2.363635"><ele>504.5</ele><time>2026-05-03T09:42:53.787Z</time></trkpt><trkpt lat="54.7409467" lon="-2.3636267"><ele>504.0</ele><time>2026-05-03T09:42:55.124Z</time></trkpt><trkpt lat="54.7406417" lon="-2.3634017"><ele>504.0</ele><time>2026-05-03T09:42:55.801Z</time></trkpt><trkpt lat="54.7405633" lon="-2.3633233"><ele>504.0</ele><time>2026-05-03T09:42:56.3Z</time></trkpt><trkpt lat="54.74035" lon="-2.3632133"><ele>504.0</ele><time>2026-05-03T09:42:57.285Z</time></trkpt><trkpt lat="54.7400267" lon="-2.363025"><ele>509.5</ele><time>2026-05-03T09:42:58.784Z</time></trkpt><trkpt lat="54.7398067" lon="-2.36292"><ele>515.0</ele><time>2026-05-03T09:42:59.784Z</time></trkpt><trkpt lat="54.7395883" lon="-2.3628183"><ele>515.0</ele><time>2026-05-03T09:43:00.785Z</time></trkpt><trkpt lat="54.7393733" lon="-2.3627133"><ele>515.0</ele><time>2026-05-03T09:43:01.784Z</time></trkpt><trkpt lat="54.7391633" lon="-2.3625983"><ele>515.0</ele><time>2026-05-03T09:43:02.784Z</time></trkpt><trkpt lat="54.7389567" lon="-2.36248"><ele>515.0</ele><time>2026-05-03T09:43:03.785Z</time></trkpt><trkpt lat="54.7387567" lon="-2.3623483"><ele>515.0</ele><time>2026-05-03T09:43:04.783Z</time></trkpt><trkpt lat="54.7385617" lon="-2.362185"><ele>515.0</ele><time>2026-05-03T09:43:05.783Z</time></trkpt><trkpt lat="54.7383683" lon="-2.3620067"><ele>516.6666666666666</ele><time>2026-05-03T09:43:06.785Z</time></trkpt><trkpt lat="54.7381767" lon="-2.361825"><ele>518.3333333333334</ele><time>2026-05-03T09:43:07.784Z</time></trkpt><trkpt lat="54.73799" lon="-2.3616483"><ele>520.0</ele><time>2026-05-03T09:43:08.784Z</time></trkpt><trkpt lat="54.7378" lon="-2.361465"><ele>521.3333333333334</ele><time>2026-05-03T09:43:09.785Z</time></trkpt><trkpt lat="54.7376067" lon="-2.3612817"><ele>522.6666666666666</ele><time>2026-05-03T09:43:10.785Z</time></trkpt><trkpt lat="54.7374183" lon="-2.3610867"><ele>524.0</ele><time>2026-05-03T09:43:11.786Z</time></trkpt><trkpt lat="54.7372333" lon="-2.360875"><ele>524.0</ele><time>2026-05-03T09:43:12.785Z</time></trkpt><trkpt lat="54.7370533" lon="-2.3606483"><ele>524.0</ele><time>2026-05-03T09:43:13.785Z</time></trkpt><trkpt lat="54.7368783" lon="-2.3604067"><ele>524.0</ele><time>2026-05-03T09:43:14.785Z</time></trkpt><trkpt lat="54.7367083" lon="-2.3601517"><ele>525.0</ele><time>2026-05-03T09:43:15.787Z</time></trkpt><trkpt lat="54.7365417" lon="-2.35989"><ele>526.0</ele><time>2026-05-03T09:43:16.785Z</time></trkpt><trkpt lat="54.73638" lon="-2.3596383"><ele>527.0</ele><time>2026-05-03T09:43:17.784Z</time></trkpt><trkpt lat="54.7362217" lon="-2.3593967"><ele>526.6666666666666</ele><time>2026-05-03T09:43:18.785Z</time></trkpt><trkpt lat="54.7360633" lon="-2.3591567"><ele>526.3333333333334</ele><time>2026-05-03T09:43:19.783Z</time></trkpt><trkpt lat="54.7358983" lon="-2.358915"><ele>526.0</ele><time>2026-05-03T09:43:20.784Z</time></trkpt><trkpt lat="54.7357283" lon="-2.3586767"><ele>531.0</ele><time>2026-05-03T09:43:21.784Z</time></trkpt><trkpt lat="54.7355483" lon="-2.3584417"><ele>536.0</ele><time>2026-05-03T09:43:22.784Z</time></trkpt><trkpt lat="54.73536" lon="-2.358215"><ele>538.5</ele><time>2026-05-03T09:43:23.785Z</time></trkpt><trkpt lat="54.7351617" lon="-2.357995"><ele>541.0</ele><time>2026-05-03T09:43:24.785Z</time></trkpt><trkpt lat="54.7349583" lon="-2.3577883"><ele>541.0</ele><time>2026-05-03T09:43:25.783Z</time></trkpt><trkpt lat="54.73475" lon="-2.35759"><ele>541.0</ele><time>2026-05-03T09:43:26.785Z</time></trkpt><trkpt lat="54.7345417" lon="-2.3573983"><ele>543.0</ele><time>2026-05-03T09:43:27.784Z</time></trkpt><trkpt lat="54.7343283" lon="-2.35721"><ele>545.0</ele><time>2026-05-03T09:43:28.785Z</time></trkpt><trkpt lat="54.734115" lon="-2.3570233"><ele>545.0</ele><time>2026-05-03T09:43:29.785Z</time></trkpt><trkpt lat="54.7339033" lon="-2.3568383"><ele>545.0</ele><time>2026-05-03T09:43:30.784Z</time></trkpt><trkpt lat="54.7336883" lon="-2.3566533"><ele>544.0</ele><time>2026-05-03T09:43:31.784Z</time></trkpt><trkpt lat="54.7334767" lon="-2.356465"><ele>543.0</ele><time>2026-05-03T09:43:32.785Z</time></trkpt><trkpt lat="54.7332667" lon="-2.3562717"><ele>547.5</ele><time>2026-05-03T09:43:33.784Z</time></trkpt><trkpt lat="54.7330567" lon="-2.3560783"><ele>552.0</ele><time>2026-05-03T09:43:34.784Z</time></trkpt><trkpt lat="54.7328467" lon="-2.355895"><ele>551.0</ele><time>2026-05-03T09:43:35.784Z</time></trkpt><trkpt lat="54.7326333" lon="-2.3557283"><ele>550.0</ele><time>2026-05-03T09:43:36.784Z</time></trkpt><trkpt lat="54.7324167" lon="-2.3555767"><ele>556.0</ele><time>2026-05-03T09:43:37.784Z</time></trkpt><trkpt lat="54.7321983" lon="-2.3554283"><ele>562.0</ele><time>2026-05-03T09:43:38.785Z</time></trkpt><trkpt lat="54.7319833" lon="-2.3552817"><ele>561.3333333333334</ele><time>2026-05-03T09:43:39.783Z</time></trkpt><trkpt lat="54.7317817" lon="-2.355145"><ele>560.6666666666666</ele><time>2026-05-03T09:43:40.784Z</time></trkpt><trkpt lat="54.7315867" lon="-2.3550117"><ele>560.0</ele><time>2026-05-03T09:43:41.785Z</time></trkpt><trkpt lat="54.731395" lon="-2.3548767"><ele>560.0</ele><time>2026-05-03T09:43:42.784Z</time></trkpt><trkpt lat="54.7312017" lon="-2.35474"><ele>560.0</ele><time>2026-05-03T09:43:43.785Z</time></trkpt><trkpt lat="54.73101" lon="-2.3546017"><ele>560.0</ele><time>2026-05-03T09:43:44.785Z</time></trkpt><trkpt lat="54.7308233" lon="-2.3544667"><ele>563.0</ele><time>2026-05-03T09:43:45.782Z</time></trkpt><trkpt lat="54.7306433" lon="-2.35432"><ele>566.0</ele><time>2026-05-03T09:43:46.783Z</time></trkpt><trkpt lat="54.7304717" lon="-2.3541533"><ele>569.0</ele><time>2026-05-03T09:43:47.784Z</time></trkpt><trkpt lat="54.730295" lon="-2.3539667"><ele>571.3333333333333</ele><time>2026-05-03T09:43:48.784Z</time></trkpt><trkpt lat="54.73012" lon="-2.3537817"><ele>573.6666666666666</ele><time>2026-05-03T09:43:49.784Z</time></trkpt><trkpt lat="54.7299467" lon="-2.3536"><ele>576.0</ele><time>2026-05-03T09:43:50.785Z</time></trkpt><trkpt lat="54.729775" lon="-2.3534167"><ele>576.0</ele><time>2026-05-03T09:43:51.785Z</time></trkpt><trkpt lat="54.7296067" lon="-2.3532317"><ele>576.0</ele><time>2026-05-03T09:43:52.784Z</time></trkpt><trkpt lat="54.729445" lon="-2.3530517"><ele>576.0</ele><time>2026-05-03T09:43:53.784Z</time></trkpt><trkpt lat="54.729295" lon="-2.3528817"><ele>577.3333333333334</ele><time>2026-05-03T09:43:54.784Z</time></trkpt><trkpt lat="54.7291583" lon="-2.3527317"><ele>578.6666666666667</ele><time>2026-05-03T09:43:55.785Z</time></trkpt><trkpt lat="54.729035" lon="-2.3525933"><ele>580.0</ele><time>2026-05-03T09:43:56.784Z</time></trkpt><trkpt lat="54.7289133" lon="-2.3524633"><ele>580.0</ele><time>2026-05-03T09:43:57.786Z</time></trkpt><trkpt lat="54.7287983" lon="-2.3523183"><ele>580.0</ele><time>2026-05-03T09:43:58.787Z</time></trkpt><trkpt lat="54.7286967" lon="-2.3521583"><ele>580.0</ele><time>2026-05-03T09:43:59.787Z</time></trkpt><trkpt lat="54.72862" lon="-2.352"><ele>580.0</ele><time>2026-05-03T09:44:00.785Z</time></trkpt><trkpt lat="54.7285567" lon="-2.35186"><ele>580.4</ele><time>2026-05-03T09:44:01.786Z</time></trkpt><trkpt lat="54.7284967" lon="-2.3517433"><ele>580.8</ele><time>2026-05-03T09:44:02.787Z</time></trkpt><trkpt lat="54.72843" lon="-2.3516467"><ele>581.2</ele><time>2026-05-03T09:44:03.787Z</time></trkpt><trkpt lat="54.728355" lon="-2.3515817"><ele>581.6</ele><time>2026-05-03T09:44:04.786Z</time></trkpt><trkpt lat="54.7282583" lon="-2.351555"><ele>582.0</ele><time>2026-05-03T09:44:05.787Z</time></trkpt><trkpt lat="54.7281417" lon="-2.351595"><ele>582.0</ele><time>2026-05-03T09:44:06.787Z</time></trkpt><trkpt lat="54.7280067" lon="-2.3516933"><ele>582.0</ele><time>2026-05-03T09:44:07.783Z</time></trkpt><trkpt lat="54.7278617" lon="-2.3518533"><ele>582.0</ele><time>2026-05-03T09:44:08.786Z</time></trkpt><trkpt lat="54.7277033" lon="-2.3520283"><ele>583.3333333333334</ele><time>2026-05-03T09:44:09.782Z</time></trkpt><trkpt lat="54.72755" lon="-2.3521717"><ele>584.6666666666667</ele><time>2026-05-03T09:44:10.787Z</time></trkpt><trkpt lat="54.7273917" lon="-2.3523083"><ele>586.0</ele><time>2026-05-03T09:44:11.787Z</time></trkpt><trkpt lat="54.7272217" lon="-2.352425"><ele>586.0</ele><time>2026-05-03T09:44:12.786Z</time></trkpt><trkpt lat="54.727035" lon="-2.3525"><ele>586.0</ele><time>2026-05-03T09:44:13.787Z</time></trkpt><trkpt lat="54.726825" lon="-2.3525083"><ele>586.0</ele><time>2026-05-03T09:44:14.786Z</time></trkpt><trkpt lat="54.7266017" lon="-2.35249"><ele>587.5</ele><time>2026-05-03T09:44:15.787Z</time></trkpt><trkpt lat="54.7263717" lon="-2.3524717"><ele>589.0</ele><time>2026-05-03T09:44:16.787Z</time></trkpt><trkpt lat="54.726145" lon="-2.3524583"><ele>590.3333333333334</ele><time>2026-05-03T09:44:17.788Z</time></trkpt><trkpt lat="54.7259333" lon="-2.3524483"><ele>591.6666666666666</ele><time>2026-05-03T09:44:18.787Z</time></trkpt><trkpt lat="54.7257183" lon="-2.3524333"><ele>593.0</ele><time>2026-05-03T09:44:19.787Z</time></trkpt><trkpt lat="54.725495" lon="-2.3524017"><ele>593.0</ele><time>2026-05-03T09:44:20.789Z</time></trkpt><trkpt lat="54.7252683" lon="-2.3523517"><ele>593.0</ele><time>2026-05-03T09:44:21.787Z</time></trkpt><trkpt lat="54.7250433" lon="-2.3523"><ele>593.0</ele><time>2026-05-03T09:44:22.786Z</time></trkpt><trkpt lat="54.724815" lon="-2.3522467"><ele>593.0</ele><time>2026-05-03T09:44:23.787Z</time></trkpt><trkpt lat="54.72459" lon="-2.3521933"><ele>595.0</ele><time>2026-05-03T09:44:24.786Z</time></trkpt><trkpt lat="54.7243683" lon="-2.35214"><ele>597.0</ele><time>2026-05-03T09:44:25.786Z</time></trkpt><trkpt lat="54.7241467" lon="-2.3520867"><ele>599.0</ele><time>2026-05-03T09:44:26.786Z</time></trkpt><trkpt lat="54.7239233" lon="-2.3520317"><ele>599.0</ele><time>2026-05-03T09:44:27.786Z</time></trkpt><trkpt lat="54.7237033" lon="-2.351975"><ele>599.0</ele><time>2026-05-03T09:44:28.787Z</time></trkpt><trkpt lat="54.723485" lon="-2.3519183"><ele>599.0</ele><time>2026-05-03T09:44:29.787Z</time></trkpt><trkpt lat="54.7232633" lon="-2.3518617"><ele>598.6666666666666</ele><time>2026-05-03T09:44:30.786Z</time></trkpt><trkpt lat="54.723045" lon="-2.3518033"><ele>598.3333333333334</ele><time>2026-05-03T09:44:31.787Z</time></trkpt><trkpt lat="54.7228433" lon="-2.351745"><ele>598.0</ele><time>2026-05-03T09:44:32.787Z</time></trkpt><trkpt lat="54.7226617" lon="-2.3516817"><ele>597.3333333333334</ele><time>2026-05-03T09:44:33.786Z</time></trkpt><trkpt lat="54.722495" lon="-2.351605"><ele>596.6666666666666</ele><time>2026-05-03T09:44:34.787Z</time></trkpt><trkpt lat="54.7223383" lon="-2.3515033"><ele>596.0</ele><time>2026-05-03T09:44:35.786Z</time></trkpt><trkpt lat="54.72219" lon="-2.35136"><ele>597.0</ele><time>2026-05-03T09:44:36.786Z</time></trkpt><trkpt lat="54.7220483" lon="-2.3511733"><ele>598.0</ele><time>2026-05-03T09:44:37.787Z</time></trkpt><trkpt lat="54.72191" lon="-2.3509417"><ele>599.0</ele><time>2026-05-03T09:44:38.787Z</time></trkpt><trkpt lat="54.721775" lon="-2.350685"><ele>600.0</ele><time>2026-05-03T09:44:39.786Z</time></trkpt><trkpt lat="54.7216317" lon="-2.3504133"><ele>601.0</ele><time>2026-05-03T09:44:40.787Z</time></trkpt><trkpt lat="54.7214817" lon="-2.350135"><ele>602.0</ele><time>2026-05-03T09:44:41.787Z</time></trkpt><trkpt lat="54.7213267" lon="-2.3498483"><ele>604.0</ele><time>2026-05-03T09:44:42.787Z</time></trkpt><trkpt lat="54.721175" lon="-2.3495533"><ele>606.0</ele><time>2026-05-03T09:44:43.786Z</time></trkpt><trkpt lat="54.7210333" lon="-2.349255"><ele>603.6666666666666</ele><time>2026-05-03T09:44:44.787Z</time></trkpt><trkpt lat="54.7209" lon="-2.34896"><ele>601.3333333333333</ele><time>2026-05-03T09:44:45.787Z</time></trkpt><trkpt lat="54.720765" lon="-2.348685"><ele>599.0</ele><time>2026-05-03T09:44:46.786Z</time></trkpt><trkpt lat="54.72063" lon="-2.3484517"><ele>599.0</ele><time>2026-05-03T09:44:47.787Z</time></trkpt><trkpt lat="54.72048" lon="-2.3482567"><ele>599.0</ele><time>2026-05-03T09:44:48.787Z</time></trkpt><trkpt lat="54.72031" lon="-2.3480933"><ele>599.0</ele><time>2026-05-03T09:44:49.786Z</time></trkpt><trkpt lat="54.7201217" lon="-2.3479583"><ele>599.0</ele><time>2026-05-03T09:44:50.786Z</time></trkpt><trkpt lat="54.7199267" lon="-2.3478433"><ele>599.0</ele><time>2026-05-03T09:44:51.787Z</time></trkpt><trkpt lat="54.7197417" lon="-2.3477367"><ele>599.0</ele><time>2026-05-03T09:44:52.786Z</time></trkpt><trkpt lat="54.7195867" lon="-2.3476417"><ele>599.0</ele><time>2026-05-03T09:44:53.788Z</time></trkpt><trkpt lat="54.7194417" lon="-2.34753"><ele>599.0</ele><time>2026-05-03T09:44:54.786Z</time></trkpt><trkpt lat="54.7193083" lon="-2.34738"><ele>599.0</ele><time>2026-05-03T09:44:55.785Z</time></trkpt><trkpt lat="54.7191817" lon="-2.3471717"><ele>598.3333333333333</ele><time>2026-05-03T09:44:56.786Z</time></trkpt><trkpt lat="54.7190633" lon="-2.3469167"><ele>597.6666666666666</ele><time>2026-05-03T09:44:57.783Z</time></trkpt><trkpt lat="54.7189533" lon="-2.346625"><ele>597.0</ele><time>2026-05-03T09:44:58.787Z</time></trkpt><trkpt lat="54.718845" lon="-2.346305"><ele>596.6666666666666</ele><time>2026-05-03T09:44:59.787Z</time></trkpt><trkpt lat="54.7187467" lon="-2.3459633"><ele>596.3333333333333</ele><time>2026-05-03T09:45:00.787Z</time></trkpt><trkpt lat="54.7186567" lon="-2.345605"><ele>596.0</ele><time>2026-05-03T09:45:01.787Z</time></trkpt><trkpt lat="54.7185783" lon="-2.3452533"><ele>595.3333333333333</ele><time>2026-05-03T09:45:02.787Z</time></trkpt><trkpt lat="54.718505" lon="-2.3448983"><ele>594.6666666666666</ele><time>2026-05-03T09:45:03.787Z</time></trkpt><trkpt lat="54.7184167" lon="-2.344535"><ele>594.0</ele><time>2026-05-03T09:45:04.787Z</time></trkpt><trkpt lat="54.7183067" lon="-2.3441833"><ele>595.5</ele><time>2026-05-03T09:45:05.787Z</time></trkpt><trkpt lat="54.7181717" lon="-2.343855"><ele>597.0</ele><time>2026-05-03T09:45:06.787Z</time></trkpt><trkpt lat="54.7180217" lon="-2.3435417"><ele>597.0</ele><time>2026-05-03T09:45:07.786Z</time></trkpt><trkpt lat="54.717855" lon="-2.3432367"><ele>597.0</ele><time>2026-05-03T09:45:08.787Z</time></trkpt><trkpt lat="54.7176783" lon="-2.3429467"><ele>595.5</ele><time>2026-05-03T09:45:09.786Z</time></trkpt><trkpt lat="54.7175067" lon="-2.3426683"><ele>594.0</ele><time>2026-05-03T09:45:10.787Z</time></trkpt><trkpt lat="54.7173517" lon="-2.342405"><ele>594.6666666666666</ele><time>2026-05-03T09:45:11.787Z</time></trkpt><trkpt lat="54.7172167" lon="-2.3421583"><ele>595.3333333333333</ele><time>2026-05-03T09:45:12.787Z</time></trkpt><trkpt lat="54.7171017" lon="-2.3419217"><ele>596.0</ele><time>2026-05-03T09:45:13.786Z</time></trkpt><trkpt lat="54.7169967" lon="-2.341705"><ele>594.3333333333333</ele><time>2026-05-03T09:45:14.786Z</time></trkpt><trkpt lat="54.7169" lon="-2.3415233"><ele>592.6666666666666</ele><time>2026-05-03T09:45:15.787Z</time></trkpt><trkpt lat="54.7167817" lon="-2.3413617"><ele>591.0</ele><time>2026-05-03T09:45:16.786Z</time></trkpt><trkpt lat="54.7166417" lon="-2.34124"><ele>591.0</ele><time>2026-05-03T09:45:17.787Z</time></trkpt><trkpt lat="54.71649" lon="-2.34119"><ele>591.0</ele><time>2026-05-03T09:45:18.785Z</time></trkpt><trkpt lat="54.7163367" lon="-2.3412017"><ele>591.0</ele><time>2026-05-03T09:45:19.787Z</time></trkpt><trkpt lat="54.7161933" lon="-2.3412367"><ele>591.3333333333334</ele><time>2026-05-03T09:45:20.787Z</time></trkpt><trkpt lat="54.7160317" lon="-2.341255"><ele>591.6666666666667</ele><time>2026-05-03T09:45:21.786Z</time></trkpt><trkpt lat="54.715855" lon="-2.34122"><ele>592.0</ele><time>2026-05-03T09:45:22.787Z</time></trkpt><trkpt lat="54.7156683" lon="-2.3411217"><ele>592.0</ele><time>2026-05-03T09:45:23.786Z</time></trkpt><trkpt lat="54.715475" lon="-2.3409617"><ele>592.0</ele><time>2026-05-03T09:45:24.787Z</time></trkpt><trkpt lat="54.7152767" lon="-2.34079"><ele>592.0</ele><time>2026-05-03T09:45:25.787Z</time></trkpt><trkpt lat="54.7150617" lon="-2.3406433"><ele>593.0</ele><time>2026-05-03T09:45:26.787Z</time></trkpt><trkpt lat="54.71484" lon="-2.3405433"><ele>594.0</ele><time>2026-05-03T09:45:27.785Z</time></trkpt><trkpt lat="54.7146133" lon="-2.3404633"><ele>593.6666666666666</ele><time>2026-05-03T09:45:28.787Z</time></trkpt><trkpt lat="54.7143917" lon="-2.3404"><ele>593.3333333333333</ele><time>2026-05-03T09:45:29.788Z</time></trkpt><trkpt lat="54.7141833" lon="-2.3403517"><ele>593.0</ele><time>2026-05-03T09:45:30.786Z</time></trkpt><trkpt lat="54.7139917" lon="-2.3403133"><ele>593.0</ele><time>2026-05-03T09:45:31.784Z</time></trkpt><trkpt lat="54.71382" lon="-2.3402667"><ele>593.0</ele><time>2026-05-03T09:45:32.782Z</time></trkpt><trkpt lat="54.7136617" lon="-2.3401733"><ele>593.0</ele><time>2026-05-03T09:45:33.784Z</time></trkpt><trkpt lat="54.713515" lon="-2.3400183"><ele>593.3333333333333</ele><time>2026-05-03T09:45:34.784Z</time></trkpt><trkpt lat="54.7133833" lon="-2.339785"><ele>593.6666666666666</ele><time>2026-05-03T09:45:35.788Z</time></trkpt><trkpt lat="54.7132783" lon="-2.3395067"><ele>594.0</ele><time>2026-05-03T09:45:36.787Z</time></trkpt><trkpt lat="54.7131783" lon="-2.339195"><ele>595.0</ele><time>2026-05-03T09:45:37.786Z</time></trkpt><trkpt lat="54.7130867" lon="-2.3388633"><ele>596.0</ele><time>2026-05-03T09:45:38.786Z</time></trkpt><trkpt lat="54.7130033" lon="-2.338525"><ele>597.0</ele><time>2026-05-03T09:45:39.787Z</time></trkpt><trkpt lat="54.712945" lon="-2.3381883"><ele>597.0</ele><time>2026-05-03T09:45:40.785Z</time></trkpt><trkpt lat="54.7129083" lon="-2.3378517"><ele>597.0</ele><time>2026-05-03T09:45:41.787Z</time></trkpt><trkpt lat="54.71288" lon="-2.337545"><ele>597.0</ele><time>2026-05-03T09:45:42.787Z</time></trkpt><trkpt lat="54.7128517" lon="-2.337275"><ele>597.6666666666666</ele><time>2026-05-03T09:45:43.787Z</time></trkpt><trkpt lat="54.7127917" lon="-2.33705"><ele>598.3333333333333</ele><time>2026-05-03T09:45:44.786Z</time></trkpt><trkpt lat="54.7127" lon="-2.3368617"><ele>599.0</ele><time>2026-05-03T09:45:45.786Z</time></trkpt><trkpt lat="54.7125717" lon="-2.3366833"><ele>598.0</ele><time>2026-05-03T09:45:46.782Z</time></trkpt><trkpt lat="54.7124367" lon="-2.336485"><ele>597.0</ele><time>2026-05-03T09:45:47.786Z</time></trkpt><trkpt lat="54.7123117" lon="-2.3362433"><ele>596.0</ele><time>2026-05-03T09:45:48.787Z</time></trkpt><trkpt lat="54.7122033" lon="-2.3359567"><ele>596.0</ele><time>2026-05-03T09:45:49.788Z</time></trkpt><trkpt lat="54.7121" lon="-2.3356283"><ele>596.0</ele><time>2026-05-03T09:45:50.783Z</time></trkpt><trkpt lat="54.7119967" lon="-2.3352833"><ele>596.0</ele><time>2026-05-03T09:45:51.787Z</time></trkpt><trkpt lat="54.7118967" lon="-2.3349283"><ele>594.5</ele><time>2026-05-03T09:45:52.786Z</time></trkpt><trkpt lat="54.7117967" lon="-2.33456"><ele>593.0</ele><time>2026-05-03T09:45:53.786Z</time></trkpt><trkpt lat="54.711705" lon="-2.3341867"><ele>593.5</ele><time>2026-05-03T09:45:54.786Z</time></trkpt><trkpt lat="54.7116183" lon="-2.3338083"><ele>594.0</ele><time>2026-05-03T09:45:55.786Z</time></trkpt><trkpt lat="54.71152" lon="-2.3334333"><ele>594.0</ele><time>2026-05-03T09:45:56.784Z</time></trkpt><trkpt lat="54.7114083" lon="-2.3330683"><ele>594.0</ele><time>2026-05-03T09:45:57.786Z</time></trkpt><trkpt lat="54.7112967" lon="-2.332725"><ele>595.5</ele><time>2026-05-03T09:45:58.787Z</time></trkpt><trkpt lat="54.7112017" lon="-2.3323633"><ele>597.0</ele><time>2026-05-03T09:45:59.786Z</time></trkpt><trkpt lat="54.7111267" lon="-2.331975"><ele>593.0</ele><time>2026-05-03T09:46:00.784Z</time></trkpt><trkpt lat="54.7110583" lon="-2.3315683"><ele>589.0</ele><time>2026-05-03T09:46:01.787Z</time></trkpt><trkpt lat="54.7109983" lon="-2.331145"><ele>589.0</ele><time>2026-05-03T09:46:02.786Z</time></trkpt><trkpt lat="54.7109483" lon="-2.3307167"><ele>589.0</ele><time>2026-05-03T09:46:03.786Z</time></trkpt><trkpt lat="54.7108983" lon="-2.3302933"><ele>589.5</ele><time>2026-05-03T09:46:04.785Z</time></trkpt><trkpt lat="54.7108467" lon="-2.3298733"><ele>590.0</ele><time>2026-05-03T09:46:05.784Z</time></trkpt><trkpt lat="54.7107967" lon="-2.3294633"><ele>590.3333333333333</ele><time>2026-05-03T09:46:06.786Z</time></trkpt><trkpt lat="54.710745" lon="-2.329075"><ele>590.6666666666666</ele><time>2026-05-03T09:46:07.787Z</time></trkpt><trkpt lat="54.7106983" lon="-2.32873"><ele>591.0</ele><time>2026-05-03T09:46:08.786Z</time></trkpt><trkpt lat="54.7106533" lon="-2.3284333"><ele>591.3333333333334</ele><time>2026-05-03T09:46:09.786Z</time></trkpt><trkpt lat="54.710595" lon="-2.3281567"><ele>591.6666666666667</ele><time>2026-05-03T09:46:10.787Z</time></trkpt><trkpt lat="54.71052" lon="-2.3278667"><ele>592.0</ele><time>2026-05-03T09:46:11.787Z</time></trkpt><trkpt lat="54.7104333" lon="-2.3275633"><ele>592.3333333333334</ele><time>2026-05-03T09:46:12.786Z</time></trkpt><trkpt lat="54.71035" lon="-2.32723"><ele>592.6666666666666</ele><time>2026-05-03T09:46:13.787Z</time></trkpt><trkpt lat="54.7102767" lon="-2.3268717"><ele>593.0</ele><time>2026-05-03T09:46:14.787Z</time></trkpt><trkpt lat="54.7102133" lon="-2.32652"><ele>587.6666666666666</ele><time>2026-05-03T09:46:15.786Z</time></trkpt><trkpt lat="54.7101567" lon="-2.3261867"><ele>582.3333333333334</ele><time>2026-05-03T09:46:16.783Z</time></trkpt><trkpt lat="54.7101117" lon="-2.3258717"><ele>577.0</ele><time>2026-05-03T09:46:17.785Z</time></trkpt><trkpt lat="54.7100717" lon="-2.3255633"><ele>577.0</ele><time>2026-05-03T09:46:18.784Z</time></trkpt><trkpt lat="54.710035" lon="-2.3252617"><ele>577.0</ele><time>2026-05-03T09:46:19.785Z</time></trkpt><trkpt lat="54.7100017" lon="-2.324965"><ele>577.0</ele><time>2026-05-03T09:46:20.784Z</time></trkpt><trkpt lat="54.709965" lon="-2.3246617"><ele>577.0</ele><time>2026-05-03T09:46:21.783Z</time></trkpt><trkpt lat="54.7099267" lon="-2.324355"><ele>577.0</ele><time>2026-05-03T09:46:22.786Z</time></trkpt><trkpt lat="54.7098883" lon="-2.3240483"><ele>577.0</ele><time>2026-05-03T09:46:23.786Z</time></trkpt><trkpt lat="54.7098517" lon="-2.323735"><ele>576.6666666666667</ele><time>2026-05-03T09:46:24.787Z</time></trkpt><trkpt lat="54.709815" lon="-2.3234217"><ele>576.3333333333334</ele><time>2026-05-03T09:46:25.788Z</time></trkpt><trkpt lat="54.7097767" lon="-2.323105"><ele>576.0</ele><time>2026-05-03T09:46:26.786Z</time></trkpt><trkpt lat="54.70974" lon="-2.3227933"><ele>576.0</ele><time>2026-05-03T09:46:27.786Z</time></trkpt><trkpt lat="54.7097" lon="-2.32249"><ele>576.0</ele><time>2026-05-03T09:46:28.787Z</time></trkpt><trkpt lat="54.7096683" lon="-2.3222"><ele>576.0</ele><time>2026-05-03T09:46:29.787Z</time></trkpt><trkpt lat="54.7096517" lon="-2.3219183"><ele>576.3333333333334</ele><time>2026-05-03T09:46:30.786Z</time></trkpt><trkpt lat="54.7096517" lon="-2.3216283"><ele>576.6666666666667</ele><time>2026-05-03T09:46:31.785Z</time></trkpt><trkpt lat="54.7096717" lon="-2.321335"><ele>577.0</ele><time>2026-05-03T09:46:32.787Z</time></trkpt><trkpt lat="54.7097017" lon="-2.3210483"><ele>576.0</ele><time>2026-05-03T09:46:33.787Z</time></trkpt><trkpt lat="54.7097433" lon="-2.320775"><ele>575.0</ele><time>2026-05-03T09:46:34.786Z</time></trkpt><trkpt lat="54.7098033" lon="-2.320505"><ele>574.0</ele><time>2026-05-03T09:46:35.787Z</time></trkpt><trkpt lat="54.70988" lon="-2.3202417"><ele>573.0</ele><time>2026-05-03T09:46:36.787Z</time></trkpt><trkpt lat="54.709975" lon="-2.3199967"><ele>572.0</ele><time>2026-05-03T09:46:37.787Z</time></trkpt><trkpt lat="54.7100883" lon="-2.3197717"><ele>571.0</ele><time>2026-05-03T09:46:38.786Z</time></trkpt><trkpt lat="54.71022" lon="-2.3195783"><ele>572.6666666666667</ele><time>2026-05-03T09:46:39.785Z</time></trkpt><trkpt lat="54.7103467" lon="-2.3194117"><ele>574.3333333333334</ele><time>2026-05-03T09:46:40.784Z</time></trkpt><trkpt lat="54.71047" lon="-2.3192667"><ele>576.0</ele><time>2026-05-03T09:46:41.786Z</time></trkpt><trkpt lat="54.7105767" lon="-2.3190983"><ele>574.6666666666666</ele><time>2026-05-03T09:46:42.782Z</time></trkpt><trkpt lat="54.71067" lon="-2.3188933"><ele>573.3333333333333</ele><time>2026-05-03T09:46:43.783Z</time></trkpt><trkpt lat="54.7107583" lon="-2.31866"><ele>572.0</ele><time>2026-05-03T09:46:44.787Z</time></trkpt><trkpt lat="54.7108467" lon="-2.3184117"><ele>572.0</ele><time>2026-05-03T09:46:45.784Z</time></trkpt><trkpt lat="54.71093" lon="-2.318145"><ele>572.0</ele><time>2026-05-03T09:46:46.784Z</time></trkpt><trkpt lat="54.71101" lon="-2.3178733"><ele>572.0</ele><time>2026-05-03T09:46:47.784Z</time></trkpt><trkpt lat="54.7110817" lon="-2.317595"><ele>573.6666666666666</ele><time>2026-05-03T09:46:48.784Z</time></trkpt><trkpt lat="54.71116" lon="-2.31732"><ele>575.3333333333334</ele><time>2026-05-03T09:46:49.785Z</time></trkpt><trkpt lat="54.7112483" lon="-2.317045"><ele>577.0</ele><time>2026-05-03T09:46:50.784Z</time></trkpt><trkpt lat="54.7113533" lon="-2.31678"><ele>577.0</ele><time>2026-05-03T09:46:51.784Z</time></trkpt><trkpt lat="54.7114683" lon="-2.31654"><ele>577.0</ele><time>2026-05-03T09:46:52.785Z</time></trkpt><trkpt lat="54.711585" lon="-2.316315"><ele>577.0</ele><time>2026-05-03T09:46:53.786Z</time></trkpt><trkpt lat="54.7117033" lon="-2.31611"><ele>577.25</ele><time>2026-05-03T09:46:54.786Z</time></trkpt><trkpt lat="54.7118267" lon="-2.3159417"><ele>577.5</ele><time>2026-05-03T09:46:55.785Z</time></trkpt><trkpt lat="54.7119383" lon="-2.3157867"><ele>577.75</ele><time>2026-05-03T09:46:56.787Z</time></trkpt><trkpt lat="54.7120367" lon="-2.3156283"><ele>578.0</ele><time>2026-05-03T09:46:57.784Z</time></trkpt><trkpt lat="54.7121267" lon="-2.3154517"><ele>578.0</ele><time>2026-05-03T09:46:58.785Z</time></trkpt><trkpt lat="54.7122033" lon="-2.315235"><ele>578.0</ele><time>2026-05-03T09:46:59.783Z</time></trkpt><trkpt lat="54.7122617" lon="-2.314985"><ele>578.0</ele><time>2026-05-03T09:47:00.784Z</time></trkpt><trkpt lat="54.7123" lon="-2.3147133"><ele>577.6666666666666</ele><time>2026-05-03T09:47:01.785Z</time></trkpt><trkpt lat="54.7123233" lon="-2.3144217"><ele>577.3333333333334</ele><time>2026-05-03T09:47:02.782Z</time></trkpt><trkpt lat="54.712325" lon="-2.31412"><ele>577.0</ele><time>2026-05-03T09:47:03.784Z</time></trkpt><trkpt lat="54.7123017" lon="-2.3138117"><ele>577.0</ele><time>2026-05-03T09:47:04.783Z</time></trkpt><trkpt lat="54.7122567" lon="-2.3135167"><ele>577.0</ele><time>2026-05-03T09:47:05.788Z</time></trkpt><trkpt lat="54.71221" lon="-2.3132217"><ele>577.0</ele><time>2026-05-03T09:47:06.783Z</time></trkpt><trkpt lat="54.7121733" lon="-2.3129183"><ele>577.0</ele><time>2026-05-03T09:47:07.785Z</time></trkpt><trkpt lat="54.7121483" lon="-2.31261"><ele>577.0</ele><time>2026-05-03T09:47:08.783Z</time></trkpt><trkpt lat="54.71213" lon="-2.312295"><ele>577.0</ele><time>2026-05-03T09:47:09.784Z</time></trkpt><trkpt lat="54.7121183" lon="-2.31197"><ele>577.0</ele><time>2026-05-03T09:47:10.783Z</time></trkpt><trkpt lat="54.71211" lon="-2.3116417"><ele>577.0</ele><time>2026-05-03T09:47:11.783Z</time></trkpt><trkpt lat="54.712105" lon="-2.3113233"><ele>577.0</ele><time>2026-05-03T09:47:12.784Z</time></trkpt><trkpt lat="54.7120967" lon="-2.3110017"><ele>577.3333333333334</ele><time>2026-05-03T09:47:13.784Z</time></trkpt><trkpt lat="54.7120867" lon="-2.310675"><ele>577.6666666666666</ele><time>2026-05-03T09:47:14.787Z</time></trkpt><trkpt lat="54.7120783" lon="-2.3103683"><ele>578.0</ele><time>2026-05-03T09:47:15.786Z</time></trkpt><trkpt lat="54.7120733" lon="-2.3100783"><ele>578.0</ele><time>2026-05-03T09:47:16.783Z</time></trkpt><trkpt lat="54.7120667" lon="-2.309805"><ele>578.0</ele><time>2026-05-03T09:47:17.784Z</time></trkpt><trkpt lat="54.7120567" lon="-2.3095383"><ele>578.0</ele><time>2026-05-03T09:47:18.784Z</time></trkpt><trkpt lat="54.7120467" lon="-2.3092767"><ele>578.0</ele><time>2026-05-03T09:47:19.788Z</time></trkpt><trkpt lat="54.7120317" lon="-2.3090217"><ele>578.0</ele><time>2026-05-03T09:47:20.785Z</time></trkpt><trkpt lat="54.7120183" lon="-2.3087833"><ele>578.0</ele><time>2026-05-03T09:47:21.784Z</time></trkpt><trkpt lat="54.71201" lon="-2.3085567"><ele>578.0</ele><time>2026-05-03T09:47:22.784Z</time></trkpt><trkpt lat="54.71202" lon="-2.3083417"><ele>578.0</ele><time>2026-05-03T09:47:23.786Z</time></trkpt><trkpt lat="54.7120517" lon="-2.3081117"><ele>578.0</ele><time>2026-05-03T09:47:24.785Z</time></trkpt><trkpt lat="54.7121067" lon="-2.3078667"><ele>578.0</ele><time>2026-05-03T09:47:25.788Z</time></trkpt><trkpt lat="54.7121783" lon="-2.30761"><ele>577.0</ele><time>2026-05-03T09:47:26.788Z</time></trkpt><trkpt lat="54.7122617" lon="-2.307375"><ele>576.0</ele><time>2026-05-03T09:47:27.788Z</time></trkpt><trkpt lat="54.7123333" lon="-2.3071517"><ele>575.0</ele><time>2026-05-03T09:47:28.786Z</time></trkpt><trkpt lat="54.7123883" lon="-2.306925"><ele>574.0</ele><time>2026-05-03T09:47:29.784Z</time></trkpt><trkpt lat="54.7124267" lon="-2.3066833"><ele>572.6666666666667</ele><time>2026-05-03T09:47:30.783Z</time></trkpt><trkpt lat="54.7124383" lon="-2.3064133"><ele>571.3333333333334</ele><time>2026-05-03T09:47:31.785Z</time></trkpt><trkpt lat="54.712425" lon="-2.30613"><ele>570.0</ele><time>2026-05-03T09:47:32.788Z</time></trkpt><trkpt lat="54.7124" lon="-2.30584"><ele>569.3333333333334</ele><time>2026-05-03T09:47:33.786Z</time></trkpt><trkpt lat="54.7123833" lon="-2.3055433"><ele>568.6666666666667</ele><time>2026-05-03T09:47:34.789Z</time></trkpt><trkpt lat="54.712375" lon="-2.30524"><ele>568.0</ele><time>2026-05-03T09:47:35.786Z</time></trkpt><trkpt lat="54.7123783" lon="-2.3049417"><ele>568.0</ele><time>2026-05-03T09:47:36.787Z</time></trkpt><trkpt lat="54.712395" lon="-2.304635"><ele>568.0</ele><time>2026-05-03T09:47:37.788Z</time></trkpt><trkpt lat="54.7124217" lon="-2.304315"><ele>568.0</ele><time>2026-05-03T09:47:38.785Z</time></trkpt><trkpt lat="54.7124683" lon="-2.3040017"><ele>567.3333333333334</ele><time>2026-05-03T09:47:39.786Z</time></trkpt><trkpt lat="54.71252" lon="-2.3037117"><ele>566.6666666666666</ele><time>2026-05-03T09:47:40.786Z</time></trkpt><trkpt lat="54.7125733" lon="-2.30344"><ele>566.0</ele><time>2026-05-03T09:47:41.783Z</time></trkpt><trkpt lat="54.7126383" lon="-2.3031733"><ele>565.3333333333333</ele><time>2026-05-03T09:47:42.788Z</time></trkpt><trkpt lat="54.712725" lon="-2.3029083"><ele>564.6666666666666</ele><time>2026-05-03T09:47:43.784Z</time></trkpt><trkpt lat="54.7128267" lon="-2.302645"><ele>564.0</ele><time>2026-05-03T09:47:44.788Z</time></trkpt><trkpt lat="54.7129317" lon="-2.3024017"><ele>561.0</ele><time>2026-05-03T09:47:45.784Z</time></trkpt><trkpt lat="54.7130283" lon="-2.3021717"><ele>558.0</ele><time>2026-05-03T09:47:46.788Z</time></trkpt><trkpt lat="54.71323" lon="-2.3017983"><ele>558.0</ele><time>2026-05-03T09:47:48.153Z</time></trkpt><trkpt lat="54.71334" lon="-2.3015067"><ele>558.0</ele><time>2026-05-03T09:47:49.285Z</time></trkpt><trkpt lat="54.7134833" lon="-2.301165"><ele>558.0</ele><time>2026-05-03T09:47:50.784Z</time></trkpt><trkpt lat="54.713575" lon="-2.3009467"><ele>558.5</ele><time>2026-05-03T09:47:51.783Z</time></trkpt><trkpt lat="54.713655" lon="-2.3007517"><ele>559.0</ele><time>2026-05-03T09:47:52.785Z</time></trkpt><trkpt lat="54.7137367" lon="-2.30057"><ele>559.5</ele><time>2026-05-03T09:47:53.785Z</time></trkpt><trkpt lat="54.713805" lon="-2.300395"><ele>560.0</ele><time>2026-05-03T09:47:54.784Z</time></trkpt><trkpt lat="54.7138633" lon="-2.3002117"><ele>558.5</ele><time>2026-05-03T09:47:55.784Z</time></trkpt><trkpt lat="54.7139033" lon="-2.30002"><ele>557.0</ele><time>2026-05-03T09:47:56.784Z</time></trkpt><trkpt lat="54.7139233" lon="-2.2998083"><ele>555.5</ele><time>2026-05-03T09:47:57.783Z</time></trkpt><trkpt lat="54.7139267" lon="-2.2995733"><ele>554.0</ele><time>2026-05-03T09:47:58.785Z</time></trkpt><trkpt lat="54.7139133" lon="-2.29933"><ele>553.5</ele><time>2026-05-03T09:47:59.783Z</time></trkpt><trkpt lat="54.7138883" lon="-2.2990833"><ele>553.0</ele><time>2026-05-03T09:48:00.784Z</time></trkpt><trkpt lat="54.7138467" lon="-2.29884"><ele>552.5</ele><time>2026-05-03T09:48:01.785Z</time></trkpt><trkpt lat="54.7137867" lon="-2.2986117"><ele>552.0</ele><time>2026-05-03T09:48:02.784Z</time></trkpt><trkpt lat="54.7137067" lon="-2.2984083"><ele>552.5</ele><time>2026-05-03T09:48:03.783Z</time></trkpt><trkpt lat="54.7136067" lon="-2.2982383"><ele>553.0</ele><time>2026-05-03T09:48:04.785Z</time></trkpt><trkpt lat="54.7134933" lon="-2.2980917"><ele>553.5</ele><time>2026-05-03T09:48:05.783Z</time></trkpt><trkpt lat="54.7133783" lon="-2.29795"><ele>554.0</ele><time>2026-05-03T09:48:06.786Z</time></trkpt><trkpt lat="54.7132583" lon="-2.297805"><ele>556.0</ele><time>2026-05-03T09:48:07.785Z</time></trkpt><trkpt lat="54.71313" lon="-2.2976433"><ele>558.0</ele><time>2026-05-03T09:48:08.789Z</time></trkpt><trkpt lat="54.71299" lon="-2.29747"><ele>560.0</ele><time>2026-05-03T09:48:09.785Z</time></trkpt><trkpt lat="54.7128517" lon="-2.2972883"><ele>559.3333333333333</ele><time>2026-05-03T09:48:10.784Z</time></trkpt><trkpt lat="54.71271" lon="-2.2971033"><ele>558.6666666666666</ele><time>2026-05-03T09:48:11.783Z</time></trkpt><trkpt lat="54.7125717" lon="-2.2969033"><ele>558.0</ele><time>2026-05-03T09:48:12.785Z</time></trkpt><trkpt lat="54.7124333" lon="-2.2966867"><ele>558.0</ele><time>2026-05-03T09:48:13.785Z</time></trkpt><trkpt lat="54.7123033" lon="-2.2964683"><ele>558.0</ele><time>2026-05-03T09:48:14.785Z</time></trkpt><trkpt lat="54.712175" lon="-2.2962467"><ele>558.0</ele><time>2026-05-03T09:48:15.785Z</time></trkpt><trkpt lat="54.7120483" lon="-2.296025"><ele>557.6666666666666</ele><time>2026-05-03T09:48:16.785Z</time></trkpt><trkpt lat="54.711925" lon="-2.295795"><ele>557.3333333333333</ele><time>2026-05-03T09:48:17.785Z</time></trkpt><trkpt lat="54.71181" lon="-2.2955533"><ele>557.0</ele><time>2026-05-03T09:48:18.784Z</time></trkpt><trkpt lat="54.711705" lon="-2.2952983"><ele>557.0</ele><time>2026-05-03T09:48:19.784Z</time></trkpt><trkpt lat="54.7116167" lon="-2.2950367"><ele>557.0</ele><time>2026-05-03T09:48:20.784Z</time></trkpt><trkpt lat="54.7115483" lon="-2.2947783"><ele>557.0</ele><time>2026-05-03T09:48:21.785Z</time></trkpt><trkpt lat="54.711495" lon="-2.2945267"><ele>558.0</ele><time>2026-05-03T09:48:22.785Z</time></trkpt><trkpt lat="54.711455" lon="-2.2942733"><ele>559.0</ele><time>2026-05-03T09:48:23.785Z</time></trkpt><trkpt lat="54.71141" lon="-2.293995"><ele>560.0</ele><time>2026-05-03T09:48:24.783Z</time></trkpt><trkpt lat="54.7113633" lon="-2.29371"><ele>560.3333333333333</ele><time>2026-05-03T09:48:25.784Z</time></trkpt><trkpt lat="54.711315" lon="-2.293415"><ele>560.6666666666666</ele><time>2026-05-03T09:48:26.785Z</time></trkpt><trkpt lat="54.7112633" lon="-2.2931133"><ele>561.0</ele><time>2026-05-03T09:48:27.785Z</time></trkpt><trkpt lat="54.711205" lon="-2.2928133"><ele>561.0</ele><time>2026-05-03T09:48:28.784Z</time></trkpt><trkpt lat="54.7111367" lon="-2.2925217"><ele>561.0</ele><time>2026-05-03T09:48:29.784Z</time></trkpt><trkpt lat="54.711055" lon="-2.2922567"><ele>561.0</ele><time>2026-05-03T09:48:30.784Z</time></trkpt><trkpt lat="54.71096" lon="-2.2920233"><ele>560.3333333333334</ele><time>2026-05-03T09:48:31.784Z</time></trkpt><trkpt lat="54.7108383" lon="-2.2918167"><ele>559.6666666666667</ele><time>2026-05-03T09:48:32.785Z</time></trkpt><trkpt lat="54.7106917" lon="-2.291625"><ele>559.0</ele><time>2026-05-03T09:48:33.785Z</time></trkpt><trkpt lat="54.7105317" lon="-2.2914383"><ele>559.3333333333334</ele><time>2026-05-03T09:48:34.785Z</time></trkpt><trkpt lat="54.710365" lon="-2.291245"><ele>559.6666666666666</ele><time>2026-05-03T09:48:35.785Z</time></trkpt><trkpt lat="54.7101967" lon="-2.2910483"><ele>560.0</ele><time>2026-05-03T09:48:36.785Z</time></trkpt><trkpt lat="54.710025" lon="-2.2908467"><ele>560.0</ele><time>2026-05-03T09:48:37.785Z</time></trkpt><trkpt lat="54.7098533" lon="-2.2906383"><ele>560.0</ele><time>2026-05-03T09:48:38.784Z</time></trkpt><trkpt lat="54.7096833" lon="-2.2904283"><ele>560.0</ele><time>2026-05-03T09:48:39.784Z</time></trkpt><trkpt lat="54.7095183" lon="-2.2902267"><ele>558.0</ele><time>2026-05-03T09:48:40.784Z</time></trkpt><trkpt lat="54.7093667" lon="-2.2900433"><ele>556.0</ele><time>2026-05-03T09:48:41.783Z</time></trkpt><trkpt lat="54.7092217" lon="-2.2898917"><ele>554.0</ele><time>2026-05-03T09:48:42.784Z</time></trkpt><trkpt lat="54.70907" lon="-2.28977"><ele>555.0</ele><time>2026-05-03T09:48:43.785Z</time></trkpt><trkpt lat="54.7089083" lon="-2.289685"><ele>556.0</ele><time>2026-05-03T09:48:44.784Z</time></trkpt><trkpt lat="54.7087333" lon="-2.2896233"><ele>557.0</ele><time>2026-05-03T09:48:45.784Z</time></trkpt><trkpt lat="54.7085517" lon="-2.28957"><ele>557.0</ele><time>2026-05-03T09:48:46.785Z</time></trkpt><trkpt lat="54.7083667" lon="-2.289515"><ele>557.0</ele><time>2026-05-03T09:48:47.785Z</time></trkpt><trkpt lat="54.7081833" lon="-2.2894467"><ele>557.0</ele><time>2026-05-03T09:48:48.785Z</time></trkpt><trkpt lat="54.7080017" lon="-2.2893667"><ele>557.0</ele><time>2026-05-03T09:48:49.784Z</time></trkpt><trkpt lat="54.7078233" lon="-2.2892633"><ele>557.0</ele><time>2026-05-03T09:48:50.785Z</time></trkpt><trkpt lat="54.7076617" lon="-2.2891417"><ele>557.0</ele><time>2026-05-03T09:48:51.785Z</time></trkpt><trkpt lat="54.7075083" lon="-2.289"><ele>556.0</ele><time>2026-05-03T09:48:52.785Z</time></trkpt><trkpt lat="54.7073633" lon="-2.28883"><ele>555.0</ele><time>2026-05-03T09:48:53.787Z</time></trkpt><trkpt lat="54.7072217" lon="-2.2886383"><ele>554.0</ele><time>2026-05-03T09:48:54.783Z</time></trkpt><trkpt lat="54.7070783" lon="-2.28844"><ele>554.0</ele><time>2026-05-03T09:48:55.786Z</time></trkpt><trkpt lat="54.7069283" lon="-2.2882467"><ele>554.0</ele><time>2026-05-03T09:48:56.787Z</time></trkpt><trkpt lat="54.70677" lon="-2.28806"><ele>554.0</ele><time>2026-05-03T09:48:57.787Z</time></trkpt><trkpt lat="54.7066" lon="-2.2878967"><ele>552.6666666666666</ele><time>2026-05-03T09:48:58.787Z</time></trkpt><trkpt lat="54.706415" lon="-2.2877683"><ele>551.3333333333334</ele><time>2026-05-03T09:48:59.788Z</time></trkpt><trkpt lat="54.7062317" lon="-2.2876617"><ele>550.0</ele><time>2026-05-03T09:49:00.787Z</time></trkpt><trkpt lat="54.70606" lon="-2.28755"><ele>548.3333333333334</ele><time>2026-05-03T09:49:01.785Z</time></trkpt><trkpt lat="54.7059017" lon="-2.28741"><ele>546.6666666666666</ele><time>2026-05-03T09:49:02.788Z</time></trkpt><trkpt lat="54.7057517" lon="-2.2872333"><ele>545.0</ele><time>2026-05-03T09:49:03.786Z</time></trkpt><trkpt lat="54.7056117" lon="-2.28702"><ele>545.0</ele><time>2026-05-03T09:49:04.787Z</time></trkpt><trkpt lat="54.7054833" lon="-2.28678"><ele>545.0</ele><time>2026-05-03T09:49:05.784Z</time></trkpt><trkpt lat="54.7053617" lon="-2.28652"><ele>545.0</ele><time>2026-05-03T09:49:06.787Z</time></trkpt><trkpt lat="54.705245" lon="-2.2862533"><ele>543.0</ele><time>2026-05-03T09:49:07.788Z</time></trkpt><trkpt lat="54.7051333" lon="-2.2859933"><ele>541.0</ele><time>2026-05-03T09:49:08.787Z</time></trkpt><trkpt lat="54.7050167" lon="-2.2857317"><ele>539.0</ele><time>2026-05-03T09:49:09.786Z</time></trkpt><trkpt lat="54.7048917" lon="-2.2854683"><ele>539.0</ele><time>2026-05-03T09:49:10.787Z</time></trkpt><trkpt lat="54.70476" lon="-2.28521"><ele>539.0</ele><time>2026-05-03T09:49:11.783Z</time></trkpt><trkpt lat="54.70463" lon="-2.2849533"><ele>539.0</ele><time>2026-05-03T09:49:12.787Z</time></trkpt><trkpt lat="54.7044983" lon="-2.2846917"><ele>535.6666666666666</ele><time>2026-05-03T09:49:13.787Z</time></trkpt><trkpt lat="54.7043667" lon="-2.2844117"><ele>532.3333333333334</ele><time>2026-05-03T09:49:14.787Z</time></trkpt><trkpt lat="54.7042483" lon="-2.2841133"><ele>529.0</ele><time>2026-05-03T09:49:15.787Z</time></trkpt><trkpt lat="54.7041517" lon="-2.2837917"><ele>529.0</ele><time>2026-05-03T09:49:16.785Z</time></trkpt><trkpt lat="54.7040767" lon="-2.2834633"><ele>529.0</ele><time>2026-05-03T09:49:17.787Z</time></trkpt><trkpt lat="54.7040183" lon="-2.2831533"><ele>529.0</ele><time>2026-05-03T09:49:18.785Z</time></trkpt><trkpt lat="54.7039617" lon="-2.28288"><ele>529.25</ele><time>2026-05-03T09:49:19.784Z</time></trkpt><trkpt lat="54.7039083" lon="-2.2826333"><ele>529.5</ele><time>2026-05-03T09:49:20.784Z</time></trkpt><trkpt lat="54.7038533" lon="-2.2824033"><ele>529.75</ele><time>2026-05-03T09:49:21.785Z</time></trkpt><trkpt lat="54.7038" lon="-2.2821917"><ele>530.0</ele><time>2026-05-03T09:49:22.784Z</time></trkpt><trkpt lat="54.7037367" lon="-2.2819967"><ele>530.0</ele><time>2026-05-03T09:49:23.787Z</time></trkpt><trkpt lat="54.7036533" lon="-2.2818133"><ele>530.0</ele><time>2026-05-03T09:49:24.786Z</time></trkpt><trkpt lat="54.7035383" lon="-2.2816533"><ele>530.0</ele><time>2026-05-03T09:49:25.787Z</time></trkpt><trkpt lat="54.703415" lon="-2.281525"><ele>530.0</ele><time>2026-05-03T09:49:26.787Z</time></trkpt><trkpt lat="54.70329" lon="-2.2813983"><ele>528.0</ele><time>2026-05-03T09:49:27.786Z</time></trkpt><trkpt lat="54.7031667" lon="-2.2812617"><ele>526.0</ele><time>2026-05-03T09:49:28.786Z</time></trkpt><trkpt lat="54.7030467" lon="-2.2810983"><ele>524.0</ele><time>2026-05-03T09:49:29.784Z</time></trkpt><trkpt lat="54.7029417" lon="-2.28091"><ele>524.0</ele><time>2026-05-03T09:49:30.784Z</time></trkpt><trkpt lat="54.7028533" lon="-2.2807"><ele>524.0</ele><time>2026-05-03T09:49:31.784Z</time></trkpt><trkpt lat="54.7027983" lon="-2.2804733"><ele>524.0</ele><time>2026-05-03T09:49:32.787Z</time></trkpt><trkpt lat="54.7027667" lon="-2.2802467"><ele>524.0</ele><time>2026-05-03T09:49:33.784Z</time></trkpt><trkpt lat="54.7027683" lon="-2.2800133"><ele>523.5</ele><time>2026-05-03T09:49:34.786Z</time></trkpt><trkpt lat="54.7028033" lon="-2.2797617"><ele>523.0</ele><time>2026-05-03T09:49:35.784Z</time></trkpt><trkpt lat="54.7028483" lon="-2.279525"><ele>522.5</ele><time>2026-05-03T09:49:36.785Z</time></trkpt><trkpt lat="54.7028833" lon="-2.279285"><ele>522.0</ele><time>2026-05-03T09:49:37.787Z</time></trkpt><trkpt lat="54.7028917" lon="-2.2790417"><ele>522.3333333333334</ele><time>2026-05-03T09:49:38.786Z</time></trkpt><trkpt lat="54.70288" lon="-2.2787717"><ele>522.6666666666667</ele><time>2026-05-03T09:49:39.787Z</time></trkpt><trkpt lat="54.7028367" lon="-2.2784833"><ele>523.0</ele><time>2026-05-03T09:49:40.787Z</time></trkpt><trkpt lat="54.7027767" lon="-2.2781883"><ele>518.6666666666667</ele><time>2026-05-03T09:49:41.786Z</time></trkpt><trkpt lat="54.7027117" lon="-2.2779183"><ele>514.3333333333334</ele><time>2026-05-03T09:49:42.786Z</time></trkpt><trkpt lat="54.7026433" lon="-2.2776767"><ele>510.0</ele><time>2026-05-03T09:49:43.785Z</time></trkpt><trkpt lat="54.70257" lon="-2.277465"><ele>510.0</ele><time>2026-05-03T09:49:44.784Z</time></trkpt><trkpt lat="54.7024767" lon="-2.2772967"><ele>510.0</ele><time>2026-05-03T09:49:45.783Z</time></trkpt><trkpt lat="54.7023517" lon="-2.2771817"><ele>510.0</ele><time>2026-05-03T09:49:46.786Z</time></trkpt><trkpt lat="54.7021933" lon="-2.27711"><ele>510.0</ele><time>2026-05-03T09:49:47.787Z</time></trkpt><trkpt lat="54.7020183" lon="-2.2770483"><ele>509.33333333333337</ele><time>2026-05-03T09:49:48.786Z</time></trkpt><trkpt lat="54.70184" lon="-2.2769683"><ele>508.6666666666667</ele><time>2026-05-03T09:49:49.785Z</time></trkpt><trkpt lat="54.7016533" lon="-2.2768667"><ele>508.0</ele><time>2026-05-03T09:49:50.788Z</time></trkpt><trkpt lat="54.7014617" lon="-2.2767483"><ele>508.0</ele><time>2026-05-03T09:49:51.784Z</time></trkpt><trkpt lat="54.7012633" lon="-2.2766267"><ele>508.0</ele><time>2026-05-03T09:49:52.787Z</time></trkpt><trkpt lat="54.7010617" lon="-2.2765"><ele>508.0</ele><time>2026-05-03T09:49:53.787Z</time></trkpt><trkpt lat="54.7008533" lon="-2.276365"><ele>508.5</ele><time>2026-05-03T09:49:54.787Z</time></trkpt><trkpt lat="54.7006417" lon="-2.2762117"><ele>509.0</ele><time>2026-05-03T09:49:55.787Z</time></trkpt><trkpt lat="54.700435" lon="-2.2760383"><ele>506.0</ele><time>2026-05-03T09:49:56.787Z</time></trkpt><trkpt lat="54.7002417" lon="-2.27587"><ele>503.0</ele><time>2026-05-03T09:49:57.784Z</time></trkpt><trkpt lat="54.7000667" lon="-2.2757233"><ele>500.0</ele><time>2026-05-03T09:49:58.786Z</time></trkpt><trkpt lat="54.6998983" lon="-2.2756333"><ele>499.3333333333333</ele><time>2026-05-03T09:49:59.786Z</time></trkpt><trkpt lat="54.699725" lon="-2.2755917"><ele>498.66666666666663</ele><time>2026-05-03T09:50:00.786Z</time></trkpt><trkpt lat="54.699555" lon="-2.2755533"><ele>498.0</ele><time>2026-05-03T09:50:01.785Z</time></trkpt><trkpt lat="54.699395" lon="-2.2754883"><ele>498.0</ele><time>2026-05-03T09:50:02.787Z</time></trkpt><trkpt lat="54.6992467" lon="-2.27538"><ele>498.0</ele><time>2026-05-03T09:50:03.787Z</time></trkpt><trkpt lat="54.6990983" lon="-2.275205"><ele>498.0</ele><time>2026-05-03T09:50:04.787Z</time></trkpt><trkpt lat="54.6989567" lon="-2.27498"><ele>496.66666666666663</ele><time>2026-05-03T09:50:05.787Z</time></trkpt><trkpt lat="54.6988083" lon="-2.2747317"><ele>495.3333333333333</ele><time>2026-05-03T09:50:06.784Z</time></trkpt><trkpt lat="54.69864" lon="-2.274485"><ele>494.0</ele><time>2026-05-03T09:50:07.788Z</time></trkpt><trkpt lat="54.69845" lon="-2.274255"><ele>494.0</ele><time>2026-05-03T09:50:08.787Z</time></trkpt><trkpt lat="54.6982517" lon="-2.274025"><ele>494.0</ele><time>2026-05-03T09:50:09.787Z</time></trkpt><trkpt lat="54.6980567" lon="-2.2738033"><ele>491.5</ele><time>2026-05-03T09:50:10.787Z</time></trkpt><trkpt lat="54.697855" lon="-2.2735833"><ele>489.0</ele><time>2026-05-03T09:50:11.787Z</time></trkpt><trkpt lat="54.6976417" lon="-2.2733767"><ele>489.0</ele><time>2026-05-03T09:50:12.787Z</time></trkpt><trkpt lat="54.697415" lon="-2.2731833"><ele>489.0</ele><time>2026-05-03T09:50:13.787Z</time></trkpt><trkpt lat="54.69719" lon="-2.27301"><ele>488.5</ele><time>2026-05-03T09:50:14.786Z</time></trkpt><trkpt lat="54.6969667" lon="-2.2728267"><ele>488.0</ele><time>2026-05-03T09:50:15.787Z</time></trkpt><trkpt lat="54.6967467" lon="-2.2726317"><ele>488.0</ele><time>2026-05-03T09:50:16.787Z</time></trkpt><trkpt lat="54.6965417" lon="-2.2724433"><ele>488.0</ele><time>2026-05-03T09:50:17.787Z</time></trkpt><trkpt lat="54.6963383" lon="-2.2722583"><ele>487.5</ele><time>2026-05-03T09:50:18.787Z</time></trkpt><trkpt lat="54.6961367" lon="-2.272075"><ele>487.0</ele><time>2026-05-03T09:50:19.788Z</time></trkpt><trkpt lat="54.6959333" lon="-2.271895"><ele>487.0</ele><time>2026-05-03T09:50:20.786Z</time></trkpt><trkpt lat="54.6957267" lon="-2.2717017"><ele>487.0</ele><time>2026-05-03T09:50:21.787Z</time></trkpt><trkpt lat="54.695525" lon="-2.2715017"><ele>486.0</ele><time>2026-05-03T09:50:22.787Z</time></trkpt><trkpt lat="54.6953317" lon="-2.2712983"><ele>485.0</ele><time>2026-05-03T09:50:23.787Z</time></trkpt><trkpt lat="54.695145" lon="-2.2710917"><ele>484.0</ele><time>2026-05-03T09:50:24.787Z</time></trkpt><trkpt lat="54.6949717" lon="-2.2708917"><ele>484.0</ele><time>2026-05-03T09:50:25.787Z</time></trkpt><trkpt lat="54.6948083" lon="-2.27068"><ele>484.0</ele><time>2026-05-03T09:50:26.786Z</time></trkpt><trkpt lat="54.6946483" lon="-2.2704433"><ele>484.0</ele><time>2026-05-03T09:50:27.787Z</time></trkpt><trkpt lat="54.6944883" lon="-2.2701833"><ele>484.5</ele><time>2026-05-03T09:50:28.787Z</time></trkpt><trkpt lat="54.69433" lon="-2.2699033"><ele>485.0</ele><time>2026-05-03T09:50:29.784Z</time></trkpt><trkpt lat="54.6941767" lon="-2.2696083"><ele>485.0</ele><time>2026-05-03T09:50:30.787Z</time></trkpt><trkpt lat="54.6940267" lon="-2.2693067"><ele>485.0</ele><time>2026-05-03T09:50:31.787Z</time></trkpt><trkpt lat="54.6938783" lon="-2.2689983"><ele>488.0</ele><time>2026-05-03T09:50:32.788Z</time></trkpt><trkpt lat="54.693735" lon="-2.2686833"><ele>491.0</ele><time>2026-05-03T09:50:33.787Z</time></trkpt><trkpt lat="54.6935933" lon="-2.2683667"><ele>486.5</ele><time>2026-05-03T09:50:34.786Z</time></trkpt><trkpt lat="54.6934467" lon="-2.2680583"><ele>482.0</ele><time>2026-05-03T09:50:35.786Z</time></trkpt><trkpt lat="54.693295" lon="-2.2677533"><ele>482.0</ele><time>2026-05-03T09:50:36.787Z</time></trkpt><trkpt lat="54.6931317" lon="-2.2674517"><ele>482.0</ele><time>2026-05-03T09:50:37.786Z</time></trkpt><trkpt lat="54.692955" lon="-2.26716"><ele>478.5</ele><time>2026-05-03T09:50:38.787Z</time></trkpt><trkpt lat="54.6927633" lon="-2.2668817"><ele>475.0</ele><time>2026-05-03T09:50:39.783Z</time></trkpt><trkpt lat="54.69257" lon="-2.2666117"><ele>480.0</ele><time>2026-05-03T09:50:40.786Z</time></trkpt><trkpt lat="54.6923717" lon="-2.2663383"><ele>485.0</ele><time>2026-05-03T09:50:41.783Z</time></trkpt><trkpt lat="54.692175" lon="-2.2660567"><ele>485.0</ele><time>2026-05-03T09:50:42.786Z</time></trkpt><trkpt lat="54.6919767" lon="-2.2657633"><ele>485.0</ele><time>2026-05-03T09:50:43.787Z</time></trkpt><trkpt lat="54.691775" lon="-2.2654817"><ele>482.0</ele><time>2026-05-03T09:50:44.786Z</time></trkpt><trkpt lat="54.691575" lon="-2.2652233"><ele>479.0</ele><time>2026-05-03T09:50:45.787Z</time></trkpt><trkpt lat="54.6913933" lon="-2.2649967"><ele>476.3333333333333</ele><time>2026-05-03T09:50:46.787Z</time></trkpt><trkpt lat="54.6912183" lon="-2.2647767"><ele>473.66666666666663</ele><time>2026-05-03T09:50:47.786Z</time></trkpt><trkpt lat="54.69105" lon="-2.2645233"><ele>471.0</ele><time>2026-05-03T09:50:48.786Z</time></trkpt><trkpt lat="54.6908867" lon="-2.2642317"><ele>476.0</ele><time>2026-05-03T09:50:49.784Z</time></trkpt><trkpt lat="54.6907267" lon="-2.2639167"><ele>481.0</ele><time>2026-05-03T09:50:50.786Z</time></trkpt><trkpt lat="54.69057" lon="-2.2635967"><ele>481.0</ele><time>2026-05-03T09:50:51.783Z</time></trkpt><trkpt lat="54.6904083" lon="-2.2632867"><ele>481.0</ele><time>2026-05-03T09:50:52.787Z</time></trkpt><trkpt lat="54.6902233" lon="-2.2629967"><ele>476.5</ele><time>2026-05-03T09:50:53.783Z</time></trkpt><trkpt lat="54.69002" lon="-2.262725"><ele>472.0</ele><time>2026-05-03T09:50:54.787Z</time></trkpt><trkpt lat="54.6898233" lon="-2.262455"><ele>476.0</ele><time>2026-05-03T09:50:55.787Z</time></trkpt><trkpt lat="54.6896283" lon="-2.2621833"><ele>480.0</ele><time>2026-05-03T09:50:56.787Z</time></trkpt><trkpt lat="54.6894467" lon="-2.2619267"><ele>475.0</ele><time>2026-05-03T09:50:57.787Z</time></trkpt><trkpt lat="54.6892783" lon="-2.2616683"><ele>470.0</ele><time>2026-05-03T09:50:58.788Z</time></trkpt><trkpt lat="54.689125" lon="-2.26137"><ele>470.0</ele><time>2026-05-03T09:50:59.784Z</time></trkpt><trkpt lat="54.6889817" lon="-2.2610533"><ele>470.0</ele><time>2026-05-03T09:51:00.786Z</time></trkpt><trkpt lat="54.6888483" lon="-2.260725"><ele>474.0</ele><time>2026-05-03T09:51:01.786Z</time></trkpt><trkpt lat="54.6887083" lon="-2.2603967"><ele>478.0</ele><time>2026-05-03T09:51:02.784Z</time></trkpt><trkpt lat="54.6885533" lon="-2.2600783"><ele>474.5</ele><time>2026-05-03T09:51:03.784Z</time></trkpt><trkpt lat="54.6883817" lon="-2.2597783"><ele>471.0</ele><time>2026-05-03T09:51:04.786Z</time></trkpt><trkpt lat="54.6882017" lon="-2.2594867"><ele>471.0</ele><time>2026-05-03T09:51:05.783Z</time></trkpt><trkpt lat="54.68802" lon="-2.2592"><ele>471.0</ele><time>2026-05-03T09:51:06.784Z</time></trkpt><trkpt lat="54.6878417" lon="-2.2589067"><ele>467.0</ele><time>2026-05-03T09:51:07.783Z</time></trkpt><trkpt lat="54.68767" lon="-2.258605"><ele>463.0</ele><time>2026-05-03T09:51:08.784Z</time></trkpt><trkpt lat="54.6874967" lon="-2.258295"><ele>467.5</ele><time>2026-05-03T09:51:09.786Z</time></trkpt><trkpt lat="54.6873183" lon="-2.258"><ele>472.0</ele><time>2026-05-03T09:51:10.786Z</time></trkpt><trkpt lat="54.6871417" lon="-2.2577083"><ele>472.0</ele><time>2026-05-03T09:51:11.782Z</time></trkpt><trkpt lat="54.6869667" lon="-2.2574217"><ele>472.0</ele><time>2026-05-03T09:51:12.787Z</time></trkpt><trkpt lat="54.6867867" lon="-2.257145"><ele>468.5</ele><time>2026-05-03T09:51:13.786Z</time></trkpt><trkpt lat="54.6866083" lon="-2.2568817"><ele>465.0</ele><time>2026-05-03T09:51:14.787Z</time></trkpt><trkpt lat="54.6864417" lon="-2.2566267"><ele>467.0</ele><time>2026-05-03T09:51:15.787Z</time></trkpt><trkpt lat="54.6862783" lon="-2.2563833"><ele>469.0</ele><time>2026-05-03T09:51:16.783Z</time></trkpt><trkpt lat="54.68612" lon="-2.2561467"><ele>471.0</ele><time>2026-05-03T09:51:17.784Z</time></trkpt><trkpt lat="54.6859683" lon="-2.2559317"><ele>468.33333333333337</ele><time>2026-05-03T09:51:18.782Z</time></trkpt><trkpt lat="54.6858183" lon="-2.25574"><ele>465.6666666666667</ele><time>2026-05-03T09:51:19.784Z</time></trkpt><trkpt lat="54.6856583" lon="-2.2555733"><ele>463.0</ele><time>2026-05-03T09:51:20.782Z</time></trkpt><trkpt lat="54.6854933" lon="-2.2554167"><ele>463.0</ele><time>2026-05-03T09:51:21.784Z</time></trkpt><trkpt lat="54.6853317" lon="-2.25526"><ele>463.0</ele><time>2026-05-03T09:51:22.783Z</time></trkpt><trkpt lat="54.685175" lon="-2.2550817"><ele>463.0</ele><time>2026-05-03T09:51:23.784Z</time></trkpt><trkpt lat="54.6850317" lon="-2.2548683"><ele>461.33333333333337</ele><time>2026-05-03T09:51:24.788Z</time></trkpt><trkpt lat="54.684895" lon="-2.2545983"><ele>459.66666666666663</ele><time>2026-05-03T09:51:25.786Z</time></trkpt><trkpt lat="54.6847667" lon="-2.2542917"><ele>458.0</ele><time>2026-05-03T09:51:26.785Z</time></trkpt><trkpt lat="54.6846433" lon="-2.253975"><ele>457.3333333333333</ele><time>2026-05-03T09:51:27.785Z</time></trkpt><trkpt lat="54.68452" lon="-2.2536633"><ele>456.66666666666663</ele><time>2026-05-03T09:51:28.786Z</time></trkpt><trkpt lat="54.6843833" lon="-2.2533617"><ele>456.0</ele><time>2026-05-03T09:51:29.788Z</time></trkpt><trkpt lat="54.684235" lon="-2.2530783"><ele>456.0</ele><time>2026-05-03T09:51:30.784Z</time></trkpt><trkpt lat="54.6840783" lon="-2.2528167"><ele>456.0</ele><time>2026-05-03T09:51:31.787Z</time></trkpt><trkpt lat="54.6839267" lon="-2.2525817"><ele>456.0</ele><time>2026-05-03T09:51:32.786Z</time></trkpt><trkpt lat="54.6837933" lon="-2.2523383"><ele>456.66666666666663</ele><time>2026-05-03T09:51:33.787Z</time></trkpt><trkpt lat="54.68367" lon="-2.25207"><ele>457.3333333333333</ele><time>2026-05-03T09:51:34.787Z</time></trkpt><trkpt lat="54.6835517" lon="-2.2517733"><ele>458.0</ele><time>2026-05-03T09:51:35.784Z</time></trkpt><trkpt lat="54.6834317" lon="-2.25147"><ele>457.0</ele><time>2026-05-03T09:51:36.783Z</time></trkpt><trkpt lat="54.683295" lon="-2.2511667"><ele>456.0</ele><time>2026-05-03T09:51:37.786Z</time></trkpt><trkpt lat="54.6831517" lon="-2.2508783"><ele>455.0</ele><time>2026-05-03T09:51:38.787Z</time></trkpt><trkpt lat="54.68301" lon="-2.2506067"><ele>455.0</ele><time>2026-05-03T09:51:39.784Z</time></trkpt><trkpt lat="54.6828717" lon="-2.2503333"><ele>455.0</ele><time>2026-05-03T09:51:40.787Z</time></trkpt><trkpt lat="54.6827533" lon="-2.25002"><ele>455.0</ele><time>2026-05-03T09:51:41.785Z</time></trkpt><trkpt lat="54.6826517" lon="-2.2496683"><ele>451.0</ele><time>2026-05-03T09:51:42.787Z</time></trkpt><trkpt lat="54.68256" lon="-2.2492867"><ele>447.0</ele><time>2026-05-03T09:51:43.784Z</time></trkpt><trkpt lat="54.6824817" lon="-2.2488917"><ele>447.0</ele><time>2026-05-03T09:51:44.787Z</time></trkpt><trkpt lat="54.6824083" lon="-2.2484833"><ele>447.0</ele><time>2026-05-03T09:51:45.784Z</time></trkpt><trkpt lat="54.6823367" lon="-2.2480733"><ele>448.0</ele><time>2026-05-03T09:51:46.788Z</time></trkpt><trkpt lat="54.68227" lon="-2.247655"><ele>449.0</ele><time>2026-05-03T09:51:47.784Z</time></trkpt><trkpt lat="54.68221" lon="-2.247235"><ele>450.0</ele><time>2026-05-03T09:51:48.785Z</time></trkpt><trkpt lat="54.682155" lon="-2.2468167"><ele>451.0</ele><time>2026-05-03T09:51:49.785Z</time></trkpt><trkpt lat="54.68211" lon="-2.2464083"><ele>452.5</ele><time>2026-05-03T09:51:50.786Z</time></trkpt><trkpt lat="54.682065" lon="-2.246"><ele>454.0</ele><time>2026-05-03T09:51:51.785Z</time></trkpt><trkpt lat="54.6820183" lon="-2.245595"><ele>456.0</ele><time>2026-05-03T09:51:52.784Z</time></trkpt><trkpt lat="54.68197" lon="-2.2451933"><ele>458.0</ele><time>2026-05-03T09:51:53.784Z</time></trkpt><trkpt lat="54.6819217" lon="-2.2447933"><ele>451.5</ele><time>2026-05-03T09:51:54.785Z</time></trkpt><trkpt lat="54.6818767" lon="-2.244395"><ele>445.0</ele><time>2026-05-03T09:51:55.786Z</time></trkpt><trkpt lat="54.6818333" lon="-2.2439917"><ele>445.5</ele><time>2026-05-03T09:51:56.785Z</time></trkpt><trkpt lat="54.6817917" lon="-2.2435867"><ele>446.0</ele><time>2026-05-03T09:51:57.785Z</time></trkpt><trkpt lat="54.6817483" lon="-2.24318"><ele>448.0</ele><time>2026-05-03T09:51:58.787Z</time></trkpt><trkpt lat="54.6817" lon="-2.2427667"><ele>450.0</ele><time>2026-05-03T09:51:59.783Z</time></trkpt><trkpt lat="54.6816383" lon="-2.242345"><ele>451.5</ele><time>2026-05-03T09:52:00.787Z</time></trkpt><trkpt lat="54.68156" lon="-2.2419367"><ele>453.0</ele><time>2026-05-03T09:52:01.788Z</time></trkpt><trkpt lat="54.681465" lon="-2.241545"><ele>454.5</ele><time>2026-05-03T09:52:02.787Z</time></trkpt><trkpt lat="54.681365" lon="-2.2411733"><ele>456.0</ele><time>2026-05-03T09:52:03.787Z</time></trkpt><trkpt lat="54.6812583" lon="-2.2408117"><ele>456.5</ele><time>2026-05-03T09:52:04.785Z</time></trkpt><trkpt lat="54.68115" lon="-2.2404467"><ele>457.0</ele><time>2026-05-03T09:52:05.785Z</time></trkpt><trkpt lat="54.6810383" lon="-2.2400733"><ele>451.0</ele><time>2026-05-03T09:52:06.786Z</time></trkpt><trkpt lat="54.6809233" lon="-2.2396917"><ele>445.0</ele><time>2026-05-03T09:52:07.788Z</time></trkpt><trkpt lat="54.6808083" lon="-2.2393083"><ele>444.0</ele><time>2026-05-03T09:52:08.785Z</time></trkpt><trkpt lat="54.6807033" lon="-2.238925"><ele>443.0</ele><time>2026-05-03T09:52:09.786Z</time></trkpt><trkpt lat="54.68061" lon="-2.23855"><ele>443.0</ele><time>2026-05-03T09:52:10.788Z</time></trkpt><trkpt lat="54.68052" lon="-2.2381817"><ele>443.0</ele><time>2026-05-03T09:52:11.787Z</time></trkpt><trkpt lat="54.6804333" lon="-2.237815"><ele>442.5</ele><time>2026-05-03T09:52:12.786Z</time></trkpt><trkpt lat="54.680345" lon="-2.2374417"><ele>442.0</ele><time>2026-05-03T09:52:13.787Z</time></trkpt><trkpt lat="54.6802517" lon="-2.2370633"><ele>436.5</ele><time>2026-05-03T09:52:14.785Z</time></trkpt><trkpt lat="54.6801533" lon="-2.23668"><ele>431.0</ele><time>2026-05-03T09:52:15.786Z</time></trkpt><trkpt lat="54.6800517" lon="-2.2362933"><ele>431.0</ele><time>2026-05-03T09:52:16.787Z</time></trkpt><trkpt lat="54.67995" lon="-2.235905"><ele>431.0</ele><time>2026-05-03T09:52:17.784Z</time></trkpt><trkpt lat="54.67985" lon="-2.2355233"><ele>429.5</ele><time>2026-05-03T09:52:18.784Z</time></trkpt><trkpt lat="54.67975" lon="-2.235145"><ele>428.0</ele><time>2026-05-03T09:52:19.784Z</time></trkpt><trkpt lat="54.6796517" lon="-2.2347683"><ele>425.5</ele><time>2026-05-03T09:52:20.785Z</time></trkpt><trkpt lat="54.679555" lon="-2.23439"><ele>423.0</ele><time>2026-05-03T09:52:21.786Z</time></trkpt><trkpt lat="54.6794633" lon="-2.2340217"><ele>423.66666666666663</ele><time>2026-05-03T09:52:22.785Z</time></trkpt><trkpt lat="54.67938" lon="-2.2336783"><ele>424.3333333333333</ele><time>2026-05-03T09:52:23.785Z</time></trkpt><trkpt lat="54.6792983" lon="-2.2333533"><ele>425.0</ele><time>2026-05-03T09:52:24.784Z</time></trkpt><trkpt lat="54.6792183" lon="-2.2330467"><ele>423.0</ele><time>2026-05-03T09:52:25.784Z</time></trkpt><trkpt lat="54.6791417" lon="-2.2327583"><ele>421.0</ele><time>2026-05-03T09:52:26.786Z</time></trkpt><trkpt lat="54.6790617" lon="-2.2324867"><ele>419.0</ele><time>2026-05-03T09:52:27.784Z</time></trkpt><trkpt lat="54.6789733" lon="-2.2322267"><ele>417.66666666666663</ele><time>2026-05-03T09:52:28.787Z</time></trkpt><trkpt lat="54.6788667" lon="-2.23197"><ele>416.33333333333337</ele><time>2026-05-03T09:52:29.787Z</time></trkpt><trkpt lat="54.67874" lon="-2.23172"><ele>415.0</ele><time>2026-05-03T09:52:30.787Z</time></trkpt><trkpt lat="54.67859" lon="-2.23149"><ele>412.6666666666667</ele><time>2026-05-03T09:52:31.786Z</time></trkpt><trkpt lat="54.6784233" lon="-2.2312717"><ele>410.33333333333337</ele><time>2026-05-03T09:52:32.786Z</time></trkpt><trkpt lat="54.6782617" lon="-2.2310683"><ele>408.0</ele><time>2026-05-03T09:52:33.786Z</time></trkpt><trkpt lat="54.67811" lon="-2.2308633"><ele>407.0</ele><time>2026-05-03T09:52:34.786Z</time></trkpt><trkpt lat="54.677975" lon="-2.2306217"><ele>406.0</ele><time>2026-05-03T09:52:35.784Z</time></trkpt><trkpt lat="54.6778483" lon="-2.2303417"><ele>405.0</ele><time>2026-05-03T09:52:36.786Z</time></trkpt><trkpt lat="54.6777367" lon="-2.23005"><ele>403.0</ele><time>2026-05-03T09:52:37.786Z</time></trkpt><trkpt lat="54.6776317" lon="-2.2297683"><ele>401.0</ele><time>2026-05-03T09:52:38.784Z</time></trkpt><trkpt lat="54.67754" lon="-2.229505"><ele>399.0</ele><time>2026-05-03T09:52:39.784Z</time></trkpt><trkpt lat="54.677445" lon="-2.22925"><ele>399.0</ele><time>2026-05-03T09:52:40.786Z</time></trkpt><trkpt lat="54.6773417" lon="-2.2290183"><ele>399.0</ele><time>2026-05-03T09:52:41.782Z</time></trkpt><trkpt lat="54.6772333" lon="-2.2288117"><ele>399.0</ele><time>2026-05-03T09:52:42.786Z</time></trkpt><trkpt lat="54.6771167" lon="-2.2286483"><ele>398.5</ele><time>2026-05-03T09:52:43.786Z</time></trkpt><trkpt lat="54.6769967" lon="-2.2285433"><ele>398.0</ele><time>2026-05-03T09:52:44.787Z</time></trkpt><trkpt lat="54.67687" lon="-2.228495"><ele>397.5</ele><time>2026-05-03T09:52:45.787Z</time></trkpt><trkpt lat="54.67675" lon="-2.228505"><ele>397.0</ele><time>2026-05-03T09:52:46.787Z</time></trkpt><trkpt lat="54.6766217" lon="-2.2285633"><ele>396.5</ele><time>2026-05-03T09:52:47.784Z</time></trkpt><trkpt lat="54.6764967" lon="-2.2286683"><ele>396.0</ele><time>2026-05-03T09:52:48.784Z</time></trkpt><trkpt lat="54.6763817" lon="-2.228805"><ele>395.5</ele><time>2026-05-03T09:52:49.784Z</time></trkpt><trkpt lat="54.6762733" lon="-2.2289333"><ele>395.0</ele><time>2026-05-03T09:52:50.783Z</time></trkpt><trkpt lat="54.676165" lon="-2.229025"><ele>393.0</ele><time>2026-05-03T09:52:51.785Z</time></trkpt><trkpt lat="54.676055" lon="-2.2290683"><ele>391.0</ele><time>2026-05-03T09:52:52.785Z</time></trkpt><trkpt lat="54.6759467" lon="-2.2290417"><ele>389.0</ele><time>2026-05-03T09:52:53.786Z</time></trkpt><trkpt lat="54.67585" lon="-2.2289433"><ele>387.0</ele><time>2026-05-03T09:52:54.783Z</time></trkpt><trkpt lat="54.6757717" lon="-2.22879"><ele>387.0</ele><time>2026-05-03T09:52:55.785Z</time></trkpt><trkpt lat="54.6757083" lon="-2.22863"><ele>387.0</ele><time>2026-05-03T09:52:56.785Z</time></trkpt><trkpt lat="54.67565" lon="-2.2284783"><ele>387.0</ele><time>2026-05-03T09:52:57.785Z</time></trkpt><trkpt lat="54.6755717" lon="-2.2283517"><ele>387.0</ele><time>2026-05-03T09:52:58.786Z</time></trkpt><trkpt lat="54.6754717" lon="-2.22827"><ele>387.0</ele><time>2026-05-03T09:52:59.787Z</time></trkpt><trkpt lat="54.6753417" lon="-2.2282217"><ele>387.0</ele><time>2026-05-03T09:53:00.782Z</time></trkpt><trkpt lat="54.6751883" lon="-2.228195"><ele>387.0</ele><time>2026-05-03T09:53:01.784Z</time></trkpt><trkpt lat="54.67502" lon="-2.22816"><ele>387.0</ele><time>2026-05-03T09:53:02.786Z</time></trkpt><trkpt lat="54.6748467" lon="-2.228125"><ele>389.33333333333337</ele><time>2026-05-03T09:53:03.783Z</time></trkpt><trkpt lat="54.67467" lon="-2.2280967"><ele>391.6666666666667</ele><time>2026-05-03T09:53:04.787Z</time></trkpt><trkpt lat="54.6744883" lon="-2.2280667"><ele>394.0</ele><time>2026-05-03T09:53:05.786Z</time></trkpt><trkpt lat="54.6743133" lon="-2.2280283"><ele>394.0</ele><time>2026-05-03T09:53:06.784Z</time></trkpt><trkpt lat="54.67414" lon="-2.2279633"><ele>394.0</ele><time>2026-05-03T09:53:07.783Z</time></trkpt><trkpt lat="54.67397" lon="-2.2278517"><ele>394.0</ele><time>2026-05-03T09:53:08.784Z</time></trkpt><trkpt lat="54.6738033" lon="-2.2276883"><ele>394.0</ele><time>2026-05-03T09:53:09.783Z</time></trkpt><trkpt lat="54.67364" lon="-2.2274633"><ele>394.0</ele><time>2026-05-03T09:53:10.784Z</time></trkpt><trkpt lat="54.6734817" lon="-2.2272133"><ele>394.0</ele><time>2026-05-03T09:53:11.786Z</time></trkpt><trkpt lat="54.6733317" lon="-2.2269533"><ele>394.0</ele><time>2026-05-03T09:53:12.786Z</time></trkpt><trkpt lat="54.6731817" lon="-2.22668"><ele>394.0</ele><time>2026-05-03T09:53:13.782Z</time></trkpt><trkpt lat="54.67304" lon="-2.2264033"><ele>394.0</ele><time>2026-05-03T09:53:14.787Z</time></trkpt><trkpt lat="54.672905" lon="-2.22612"><ele>394.0</ele><time>2026-05-03T09:53:15.785Z</time></trkpt><trkpt lat="54.6727767" lon="-2.2258583"><ele>394.0</ele><time>2026-05-03T09:53:16.786Z</time></trkpt><trkpt lat="54.672645" lon="-2.22561"><ele>394.0</ele><time>2026-05-03T09:53:17.782Z</time></trkpt><trkpt lat="54.67251" lon="-2.2253767"><ele>392.0</ele><time>2026-05-03T09:53:18.787Z</time></trkpt><trkpt lat="54.6723733" lon="-2.2251417"><ele>390.0</ele><time>2026-05-03T09:53:19.784Z</time></trkpt><trkpt lat="54.67224" lon="-2.224895"><ele>388.0</ele><time>2026-05-03T09:53:20.784Z</time></trkpt><trkpt lat="54.6721217" lon="-2.2246533"><ele>388.0</ele><time>2026-05-03T09:53:21.784Z</time></trkpt><trkpt lat="54.6720233" lon="-2.2244333"><ele>388.0</ele><time>2026-05-03T09:53:22.786Z</time></trkpt><trkpt lat="54.6719517" lon="-2.2242283"><ele>388.0</ele><time>2026-05-03T09:53:23.782Z</time></trkpt><trkpt lat="54.6718967" lon="-2.22399"><ele>388.0</ele><time>2026-05-03T09:53:24.786Z</time></trkpt><trkpt lat="54.6718533" lon="-2.2237233"><ele>386.75</ele><time>2026-05-03T09:53:25.785Z</time></trkpt><trkpt lat="54.6718183" lon="-2.2234817"><ele>385.5</ele><time>2026-05-03T09:53:26.787Z</time></trkpt><trkpt lat="54.6717817" lon="-2.2232717"><ele>384.25</ele><time>2026-05-03T09:53:27.785Z</time></trkpt><trkpt lat="54.6717283" lon="-2.223075"><ele>383.0</ele><time>2026-05-03T09:53:28.787Z</time></trkpt><trkpt lat="54.6716617" lon="-2.2228967"><ele>383.0</ele><time>2026-05-03T09:53:29.786Z</time></trkpt><trkpt lat="54.671575" lon="-2.22273"><ele>383.0</ele><time>2026-05-03T09:53:30.785Z</time></trkpt><trkpt lat="54.6714617" lon="-2.2225783"><ele>383.0</ele><time>2026-05-03T09:53:31.786Z</time></trkpt><trkpt lat="54.6713283" lon="-2.2224333"><ele>383.0</ele><time>2026-05-03T09:53:32.787Z</time></trkpt><trkpt lat="54.671185" lon="-2.222295"><ele>383.0</ele><time>2026-05-03T09:53:33.787Z</time></trkpt><trkpt lat="54.6710383" lon="-2.2221483"><ele>383.0</ele><time>2026-05-03T09:53:34.784Z</time></trkpt><trkpt lat="54.6708983" lon="-2.2219583"><ele>383.0</ele><time>2026-05-03T09:53:35.785Z</time></trkpt><trkpt lat="54.6707617" lon="-2.2217317"><ele>385.0</ele><time>2026-05-03T09:53:36.784Z</time></trkpt><trkpt lat="54.670625" lon="-2.2214717"><ele>387.0</ele><time>2026-05-03T09:53:37.787Z</time></trkpt><trkpt lat="54.6704933" lon="-2.2211883"><ele>389.0</ele><time>2026-05-03T09:53:38.783Z</time></trkpt><trkpt lat="54.6703683" lon="-2.2209"><ele>387.0</ele><time>2026-05-03T09:53:39.785Z</time></trkpt><trkpt lat="54.6702483" lon="-2.2206167"><ele>385.0</ele><time>2026-05-03T09:53:40.787Z</time></trkpt><trkpt lat="54.6701233" lon="-2.2203383"><ele>383.0</ele><time>2026-05-03T09:53:41.783Z</time></trkpt><trkpt lat="54.66998" lon="-2.2200783"><ele>383.0</ele><time>2026-05-03T09:53:42.786Z</time></trkpt><trkpt lat="54.6698183" lon="-2.2198383"><ele>383.0</ele><time>2026-05-03T09:53:43.784Z</time></trkpt><trkpt lat="54.6696367" lon="-2.2196267"><ele>383.0</ele><time>2026-05-03T09:53:44.786Z</time></trkpt><trkpt lat="54.669445" lon="-2.2194317"><ele>382.0</ele><time>2026-05-03T09:53:45.788Z</time></trkpt><trkpt lat="54.6692467" lon="-2.2192383"><ele>381.0</ele><time>2026-05-03T09:53:46.787Z</time></trkpt><trkpt lat="54.6690417" lon="-2.2190367"><ele>383.0</ele><time>2026-05-03T09:53:47.783Z</time></trkpt><trkpt lat="54.6688333" lon="-2.2188333"><ele>385.0</ele><time>2026-05-03T09:53:48.784Z</time></trkpt><trkpt lat="54.6686233" lon="-2.21863"><ele>384.0</ele><time>2026-05-03T09:53:49.785Z</time></trkpt><trkpt lat="54.668415" lon="-2.2184267"><ele>383.0</ele><time>2026-05-03T09:53:50.784Z</time></trkpt><trkpt lat="54.6682117" lon="-2.2182283"><ele>384.5</ele><time>2026-05-03T09:53:51.786Z</time></trkpt><trkpt lat="54.6680083" lon="-2.218025"><ele>386.0</ele><time>2026-05-03T09:53:52.783Z</time></trkpt><trkpt lat="54.6678083" lon="-2.2178267"><ele>384.5</ele><time>2026-05-03T09:53:53.787Z</time></trkpt><trkpt lat="54.6676083" lon="-2.2176283"><ele>383.0</ele><time>2026-05-03T09:53:54.785Z</time></trkpt><trkpt lat="54.667415" lon="-2.217435"><ele>382.33333333333337</ele><time>2026-05-03T09:53:55.785Z</time></trkpt><trkpt lat="54.6672267" lon="-2.2172483"><ele>381.6666666666667</ele><time>2026-05-03T09:53:56.785Z</time></trkpt><trkpt lat="54.6670517" lon="-2.2170617"><ele>381.0</ele><time>2026-05-03T09:53:57.787Z</time></trkpt><trkpt lat="54.6668883" lon="-2.216855"><ele>381.0</ele><time>2026-05-03T09:53:58.786Z</time></trkpt><trkpt lat="54.6667333" lon="-2.216635"><ele>381.0</ele><time>2026-05-03T09:53:59.783Z</time></trkpt><trkpt lat="54.666585" lon="-2.2164083"><ele>381.0</ele><time>2026-05-03T09:54:00.786Z</time></trkpt><trkpt lat="54.6664317" lon="-2.2161783"><ele>380.3333333333333</ele><time>2026-05-03T09:54:01.786Z</time></trkpt><trkpt lat="54.6662833" lon="-2.215945"><ele>379.66666666666663</ele><time>2026-05-03T09:54:02.783Z</time></trkpt><trkpt lat="54.6661267" lon="-2.2157033"><ele>379.0</ele><time>2026-05-03T09:54:03.786Z</time></trkpt><trkpt lat="54.6659633" lon="-2.2154517"><ele>379.0</ele><time>2026-05-03T09:54:04.785Z</time></trkpt><trkpt lat="54.6658017" lon="-2.2151933"><ele>379.0</ele><time>2026-05-03T09:54:05.787Z</time></trkpt><trkpt lat="54.665655" lon="-2.2149333"><ele>379.0</ele><time>2026-05-03T09:54:06.787Z</time></trkpt><trkpt lat="54.6655233" lon="-2.214675"><ele>380.3333333333333</ele><time>2026-05-03T09:54:07.784Z</time></trkpt><trkpt lat="54.6654133" lon="-2.214385"><ele>381.6666666666667</ele><time>2026-05-03T09:54:08.786Z</time></trkpt><trkpt lat="54.665325" lon="-2.2140783"><ele>383.0</ele><time>2026-05-03T09:54:09.784Z</time></trkpt><trkpt lat="54.6652517" lon="-2.2137683"><ele>381.33333333333337</ele><time>2026-05-03T09:54:10.788Z</time></trkpt><trkpt lat="54.665175" lon="-2.2134867"><ele>379.6666666666667</ele><time>2026-05-03T09:54:11.789Z</time></trkpt><trkpt lat="54.6650767" lon="-2.2132217"><ele>378.0</ele><time>2026-05-03T09:54:12.787Z</time></trkpt><trkpt lat="54.6649617" lon="-2.2129617"><ele>378.0</ele><time>2026-05-03T09:54:13.788Z</time></trkpt><trkpt lat="54.6648483" lon="-2.2126883"><ele>378.0</ele><time>2026-05-03T09:54:14.787Z</time></trkpt><trkpt lat="54.6647417" lon="-2.2124067"><ele>378.0</ele><time>2026-05-03T09:54:15.793Z</time></trkpt><trkpt lat="54.6646317" lon="-2.2121133"><ele>377.3333333333333</ele><time>2026-05-03T09:54:16.786Z</time></trkpt><trkpt lat="54.66452" lon="-2.2118183"><ele>376.66666666666663</ele><time>2026-05-03T09:54:17.787Z</time></trkpt><trkpt lat="54.6644083" lon="-2.2115283"><ele>376.0</ele><time>2026-05-03T09:54:18.788Z</time></trkpt><trkpt lat="54.6643033" lon="-2.2112467"><ele>376.0</ele><time>2026-05-03T09:54:19.784Z</time></trkpt><trkpt lat="54.6642083" lon="-2.2109717"><ele>376.0</ele><time>2026-05-03T09:54:20.788Z</time></trkpt><trkpt lat="54.6641283" lon="-2.2106883"><ele>376.0</ele><time>2026-05-03T09:54:21.787Z</time></trkpt><trkpt lat="54.6640583" lon="-2.2103917"><ele>377.3333333333333</ele><time>2026-05-03T09:54:22.787Z</time></trkpt><trkpt lat="54.663995" lon="-2.2100817"><ele>378.6666666666667</ele><time>2026-05-03T09:54:23.784Z</time></trkpt><trkpt lat="54.663925" lon="-2.2097667"><ele>380.0</ele><time>2026-05-03T09:54:24.787Z</time></trkpt><trkpt lat="54.6638467" lon="-2.20945"><ele>380.0</ele><time>2026-05-03T09:54:25.788Z</time></trkpt><trkpt lat="54.6637617" lon="-2.2091367"><ele>380.0</ele><time>2026-05-03T09:54:26.785Z</time></trkpt><trkpt lat="54.66367" lon="-2.208825"><ele>380.0</ele><time>2026-05-03T09:54:27.788Z</time></trkpt><trkpt lat="54.663565" lon="-2.2085117"><ele>378.6666666666667</ele><time>2026-05-03T09:54:28.787Z</time></trkpt><trkpt lat="54.6634433" lon="-2.2081983"><ele>377.3333333333333</ele><time>2026-05-03T09:54:29.784Z</time></trkpt><trkpt lat="54.6633083" lon="-2.2078867"><ele>376.0</ele><time>2026-05-03T09:54:30.787Z</time></trkpt><trkpt lat="54.6631583" lon="-2.2075783"><ele>378.0</ele><time>2026-05-03T09:54:31.786Z</time></trkpt><trkpt lat="54.6629983" lon="-2.2072667"><ele>380.0</ele><time>2026-05-03T09:54:32.787Z</time></trkpt><trkpt lat="54.66284" lon="-2.2069583"><ele>379.0</ele><time>2026-05-03T09:54:33.788Z</time></trkpt><trkpt lat="54.6626817" lon="-2.206655"><ele>378.0</ele><time>2026-05-03T09:54:34.787Z</time></trkpt><trkpt lat="54.6625267" lon="-2.20636"><ele>378.0</ele><time>2026-05-03T09:54:35.784Z</time></trkpt><trkpt lat="54.6623783" lon="-2.20607"><ele>378.0</ele><time>2026-05-03T09:54:36.788Z</time></trkpt><trkpt lat="54.6622333" lon="-2.2057817"><ele>378.0</ele><time>2026-05-03T09:54:37.787Z</time></trkpt><trkpt lat="54.6620917" lon="-2.2054867"><ele>377.3333333333333</ele><time>2026-05-03T09:54:38.784Z</time></trkpt><trkpt lat="54.6619533" lon="-2.2051817"><ele>376.66666666666663</ele><time>2026-05-03T09:54:39.787Z</time></trkpt><trkpt lat="54.6618217" lon="-2.2048833"><ele>376.0</ele><time>2026-05-03T09:54:40.787Z</time></trkpt><trkpt lat="54.6617017" lon="-2.2045967"><ele>376.0</ele><time>2026-05-03T09:54:41.785Z</time></trkpt><trkpt lat="54.6615917" lon="-2.2043017"><ele>376.0</ele><time>2026-05-03T09:54:42.787Z</time></trkpt><trkpt lat="54.6614867" lon="-2.20399"><ele>376.0</ele><time>2026-05-03T09:54:43.785Z</time></trkpt><trkpt lat="54.661395" lon="-2.2036683"><ele>375.66666666666663</ele><time>2026-05-03T09:54:44.788Z</time></trkpt><trkpt lat="54.6612967" lon="-2.2033517"><ele>375.3333333333333</ele><time>2026-05-03T09:54:45.787Z</time></trkpt><trkpt lat="54.661195" lon="-2.203055"><ele>375.0</ele><time>2026-05-03T09:54:46.789Z</time></trkpt><trkpt lat="54.6610917" lon="-2.2027867"><ele>375.0</ele><time>2026-05-03T09:54:47.784Z</time></trkpt><trkpt lat="54.66097" lon="-2.2025367"><ele>375.0</ele><time>2026-05-03T09:54:48.788Z</time></trkpt><trkpt lat="54.6608333" lon="-2.202295"><ele>375.0</ele><time>2026-05-03T09:54:49.788Z</time></trkpt><trkpt lat="54.6606867" lon="-2.202045"><ele>375.0</ele><time>2026-05-03T09:54:50.787Z</time></trkpt><trkpt lat="54.660545" lon="-2.2017817"><ele>375.0</ele><time>2026-05-03T09:54:51.785Z</time></trkpt><trkpt lat="54.660405" lon="-2.2015117"><ele>375.0</ele><time>2026-05-03T09:54:52.788Z</time></trkpt><trkpt lat="54.6602617" lon="-2.2012317"><ele>375.0</ele><time>2026-05-03T09:54:53.788Z</time></trkpt><trkpt lat="54.6601283" lon="-2.2009517"><ele>375.0</ele><time>2026-05-03T09:54:54.785Z</time></trkpt><trkpt lat="54.6599933" lon="-2.20067"><ele>375.0</ele><time>2026-05-03T09:54:55.784Z</time></trkpt><trkpt lat="54.6598617" lon="-2.200395"><ele>376.0</ele><time>2026-05-03T09:54:56.788Z</time></trkpt><trkpt lat="54.6597317" lon="-2.20013"><ele>377.0</ele><time>2026-05-03T09:54:57.783Z</time></trkpt><trkpt lat="54.6596033" lon="-2.1998667"><ele>378.0</ele><time>2026-05-03T09:54:58.787Z</time></trkpt><trkpt lat="54.659475" lon="-2.199615"><ele>377.0</ele><time>2026-05-03T09:54:59.785Z</time></trkpt><trkpt lat="54.659355" lon="-2.1993783"><ele>376.0</ele><time>2026-05-03T09:55:00.788Z</time></trkpt><trkpt lat="54.6592333" lon="-2.19916"><ele>375.0</ele><time>2026-05-03T09:55:01.788Z</time></trkpt><trkpt lat="54.65911" lon="-2.1989767"><ele>375.0</ele><time>2026-05-03T09:55:02.783Z</time></trkpt><trkpt lat="54.6589783" lon="-2.19883"><ele>375.0</ele><time>2026-05-03T09:55:03.788Z</time></trkpt><trkpt lat="54.6588333" lon="-2.1987117"><ele>375.0</ele><time>2026-05-03T09:55:04.787Z</time></trkpt><trkpt lat="54.6586733" lon="-2.1986017"><ele>373.6666666666667</ele><time>2026-05-03T09:55:05.788Z</time></trkpt><trkpt lat="54.65852" lon="-2.1984967"><ele>372.33333333333337</ele><time>2026-05-03T09:55:06.784Z</time></trkpt><trkpt lat="54.658375" lon="-2.198395"><ele>371.0</ele><time>2026-05-03T09:55:07.784Z</time></trkpt><trkpt lat="54.65824" lon="-2.198295"><ele>371.0</ele><time>2026-05-03T09:55:08.785Z</time></trkpt><trkpt lat="54.65811" lon="-2.1981867"><ele>371.0</ele><time>2026-05-03T09:55:09.788Z</time></trkpt><trkpt lat="54.6579833" lon="-2.19806"><ele>371.0</ele><time>2026-05-03T09:55:10.785Z</time></trkpt><trkpt lat="54.6578667" lon="-2.197915"><ele>371.0</ele><time>2026-05-03T09:55:11.788Z</time></trkpt><trkpt lat="54.6577533" lon="-2.1977433"><ele>370.33333333333337</ele><time>2026-05-03T09:55:12.786Z</time></trkpt><trkpt lat="54.6576483" lon="-2.197535"><ele>369.6666666666667</ele><time>2026-05-03T09:55:13.787Z</time></trkpt><trkpt lat="54.65755" lon="-2.1972883"><ele>369.0</ele><time>2026-05-03T09:55:14.788Z</time></trkpt><trkpt lat="54.6574633" lon="-2.197015"><ele>368.6666666666667</ele><time>2026-05-03T09:55:15.786Z</time></trkpt><trkpt lat="54.657375" lon="-2.1967267"><ele>368.33333333333337</ele><time>2026-05-03T09:55:16.787Z</time></trkpt><trkpt lat="54.6572983" lon="-2.1964333"><ele>368.0</ele><time>2026-05-03T09:55:17.787Z</time></trkpt><trkpt lat="54.6572267" lon="-2.1961467"><ele>368.0</ele><time>2026-05-03T09:55:18.788Z</time></trkpt><trkpt lat="54.65716" lon="-2.1958717"><ele>368.0</ele><time>2026-05-03T09:55:19.788Z</time></trkpt><trkpt lat="54.6571033" lon="-2.1956067"><ele>368.0</ele><time>2026-05-03T09:55:20.788Z</time></trkpt><trkpt lat="54.6570583" lon="-2.1953333"><ele>368.0</ele><time>2026-05-03T09:55:21.787Z</time></trkpt><trkpt lat="54.65702" lon="-2.195045"><ele>368.0</ele><time>2026-05-03T09:55:22.787Z</time></trkpt><trkpt lat="54.65698" lon="-2.1947467"><ele>368.0</ele><time>2026-05-03T09:55:23.785Z</time></trkpt><trkpt lat="54.6569383" lon="-2.19444"><ele>364.33333333333337</ele><time>2026-05-03T09:55:24.784Z</time></trkpt><trkpt lat="54.6568933" lon="-2.194125"><ele>360.6666666666667</ele><time>2026-05-03T09:55:25.785Z</time></trkpt><trkpt lat="54.656835" lon="-2.1938083"><ele>357.0</ele><time>2026-05-03T09:55:26.787Z</time></trkpt><trkpt lat="54.65677" lon="-2.1934983"><ele>357.0</ele><time>2026-05-03T09:55:27.785Z</time></trkpt><trkpt lat="54.6567017" lon="-2.1932"><ele>357.0</ele><time>2026-05-03T09:55:28.785Z</time></trkpt><trkpt lat="54.6566267" lon="-2.192925"><ele>357.0</ele><time>2026-05-03T09:55:29.785Z</time></trkpt><trkpt lat="54.65654" lon="-2.1926733"><ele>357.0</ele><time>2026-05-03T09:55:30.783Z</time></trkpt><trkpt lat="54.65644" lon="-2.19244"><ele>357.0</ele><time>2026-05-03T09:55:31.785Z</time></trkpt><trkpt lat="54.6563367" lon="-2.1922333"><ele>357.0</ele><time>2026-05-03T09:55:32.787Z</time></trkpt><trkpt lat="54.6562367" lon="-2.1920367"><ele>357.25</ele><time>2026-05-03T09:55:33.785Z</time></trkpt><trkpt lat="54.6561583" lon="-2.1918367"><ele>357.5</ele><time>2026-05-03T09:55:34.786Z</time></trkpt><trkpt lat="54.6560883" lon="-2.19163"><ele>357.75</ele><time>2026-05-03T09:55:35.785Z</time></trkpt><trkpt lat="54.6560317" lon="-2.1913883"><ele>358.0</ele><time>2026-05-03T09:55:36.785Z</time></trkpt><trkpt lat="54.6559917" lon="-2.1911183"><ele>353.66666666666663</ele><time>2026-05-03T09:55:37.785Z</time></trkpt><trkpt lat="54.6559333" lon="-2.19083"><ele>349.3333333333333</ele><time>2026-05-03T09:55:38.785Z</time></trkpt><trkpt lat="54.655875" lon="-2.19054"><ele>345.0</ele><time>2026-05-03T09:55:39.785Z</time></trkpt><trkpt lat="54.655805" lon="-2.1902417"><ele>345.0</ele><time>2026-05-03T09:55:40.787Z</time></trkpt><trkpt lat="54.6557333" lon="-2.1899267"><ele>345.0</ele><time>2026-05-03T09:55:41.784Z</time></trkpt><trkpt lat="54.65565" lon="-2.189625"><ele>345.0</ele><time>2026-05-03T09:55:42.786Z</time></trkpt><trkpt lat="54.655565" lon="-2.1893217"><ele>345.0</ele><time>2026-05-03T09:55:43.785Z</time></trkpt><trkpt lat="54.65547" lon="-2.189035"><ele>345.0</ele><time>2026-05-03T09:55:44.784Z</time></trkpt><trkpt lat="54.6553717" lon="-2.1887633"><ele>345.0</ele><time>2026-05-03T09:55:45.786Z</time></trkpt><trkpt lat="54.65527" lon="-2.1885167"><ele>343.3333333333333</ele><time>2026-05-03T09:55:46.784Z</time></trkpt><trkpt lat="54.6551717" lon="-2.1882833"><ele>341.66666666666663</ele><time>2026-05-03T09:55:47.785Z</time></trkpt><trkpt lat="54.655085" lon="-2.188055"><ele>340.0</ele><time>2026-05-03T09:55:48.786Z</time></trkpt><trkpt lat="54.6550083" lon="-2.18779"><ele>340.0</ele><time>2026-05-03T09:55:49.784Z</time></trkpt><trkpt lat="54.6549433" lon="-2.187505"><ele>340.0</ele><time>2026-05-03T09:55:50.787Z</time></trkpt><trkpt lat="54.65488" lon="-2.1872167"><ele>340.0</ele><time>2026-05-03T09:55:51.784Z</time></trkpt><trkpt lat="54.6548183" lon="-2.1869333"><ele>340.66666666666663</ele><time>2026-05-03T09:55:52.784Z</time></trkpt><trkpt lat="54.6547617" lon="-2.186665"><ele>341.3333333333333</ele><time>2026-05-03T09:55:53.783Z</time></trkpt><trkpt lat="54.6547183" lon="-2.1863867"><ele>342.0</ele><time>2026-05-03T09:55:54.783Z</time></trkpt><trkpt lat="54.6546833" lon="-2.1860867"><ele>342.6666666666667</ele><time>2026-05-03T09:55:55.785Z</time></trkpt><trkpt lat="54.65466" lon="-2.185775"><ele>343.33333333333337</ele><time>2026-05-03T09:55:56.785Z</time></trkpt><trkpt lat="54.6546383" lon="-2.1854633"><ele>344.0</ele><time>2026-05-03T09:55:57.785Z</time></trkpt><trkpt lat="54.6546217" lon="-2.1851567"><ele>345.0</ele><time>2026-05-03T09:55:58.785Z</time></trkpt><trkpt lat="54.6546083" lon="-2.1848633"><ele>346.0</ele><time>2026-05-03T09:55:59.785Z</time></trkpt><trkpt lat="54.654585" lon="-2.1845883"><ele>347.0</ele><time>2026-05-03T09:56:00.785Z</time></trkpt><trkpt lat="54.654555" lon="-2.1843083"><ele>349.0</ele><time>2026-05-03T09:56:01.785Z</time></trkpt><trkpt lat="54.6545117" lon="-2.1840133"><ele>351.0</ele><time>2026-05-03T09:56:02.785Z</time></trkpt><trkpt lat="54.6544467" lon="-2.1837183"><ele>353.0</ele><time>2026-05-03T09:56:03.784Z</time></trkpt><trkpt lat="54.65436" lon="-2.183415"><ele>347.0</ele><time>2026-05-03T09:56:04.784Z</time></trkpt><trkpt lat="54.6542733" lon="-2.18312"><ele>341.0</ele><time>2026-05-03T09:56:05.785Z</time></trkpt><trkpt lat="54.6541883" lon="-2.1828433"><ele>335.0</ele><time>2026-05-03T09:56:06.785Z</time></trkpt><trkpt lat="54.6540883" lon="-2.1825717"><ele>336.0</ele><time>2026-05-03T09:56:07.785Z</time></trkpt><trkpt lat="54.6539733" lon="-2.1823267"><ele>337.0</ele><time>2026-05-03T09:56:08.784Z</time></trkpt><trkpt lat="54.6538367" lon="-2.1820683"><ele>338.0</ele><time>2026-05-03T09:56:09.785Z</time></trkpt><trkpt lat="54.6536983" lon="-2.1818117"><ele>333.33333333333337</ele><time>2026-05-03T09:56:10.785Z</time></trkpt><trkpt lat="54.6535667" lon="-2.1815417"><ele>328.6666666666667</ele><time>2026-05-03T09:56:11.784Z</time></trkpt><trkpt lat="54.6534267" lon="-2.1812767"><ele>324.0</ele><time>2026-05-03T09:56:12.785Z</time></trkpt><trkpt lat="54.6532933" lon="-2.1810117"><ele>324.0</ele><time>2026-05-03T09:56:13.786Z</time></trkpt><trkpt lat="54.6531567" lon="-2.1807467"><ele>324.0</ele><time>2026-05-03T09:56:14.785Z</time></trkpt><trkpt lat="54.6530283" lon="-2.18049"><ele>324.0</ele><time>2026-05-03T09:56:15.785Z</time></trkpt><trkpt lat="54.65291" lon="-2.1802533"><ele>325.3333333333333</ele><time>2026-05-03T09:56:16.784Z</time></trkpt><trkpt lat="54.652795" lon="-2.1800317"><ele>326.66666666666663</ele><time>2026-05-03T09:56:17.784Z</time></trkpt><trkpt lat="54.6526867" lon="-2.1798267"><ele>328.0</ele><time>2026-05-03T09:56:18.785Z</time></trkpt><trkpt lat="54.6525767" lon="-2.17962"><ele>323.0</ele><time>2026-05-03T09:56:19.785Z</time></trkpt><trkpt lat="54.6524683" lon="-2.1794183"><ele>318.0</ele><time>2026-05-03T09:56:20.785Z</time></trkpt><trkpt lat="54.6523517" lon="-2.1792267"><ele>313.0</ele><time>2026-05-03T09:56:21.785Z</time></trkpt><trkpt lat="54.6522317" lon="-2.1790267"><ele>314.66666666666663</ele><time>2026-05-03T09:56:22.785Z</time></trkpt><trkpt lat="54.6521383" lon="-2.1788117"><ele>316.3333333333333</ele><time>2026-05-03T09:56:23.783Z</time></trkpt><trkpt lat="54.6520533" lon="-2.1785933"><ele>318.0</ele><time>2026-05-03T09:56:24.783Z</time></trkpt><trkpt lat="54.6519733" lon="-2.1783517"><ele>312.6666666666667</ele><time>2026-05-03T09:56:25.785Z</time></trkpt><trkpt lat="54.6519017" lon="-2.178075"><ele>307.33333333333337</ele><time>2026-05-03T09:56:26.785Z</time></trkpt><trkpt lat="54.6518433" lon="-2.1777683"><ele>302.0</ele><time>2026-05-03T09:56:27.784Z</time></trkpt><trkpt lat="54.6517783" lon="-2.1774483"><ele>303.0</ele><time>2026-05-03T09:56:28.784Z</time></trkpt><trkpt lat="54.6517117" lon="-2.1771133"><ele>304.0</ele><time>2026-05-03T09:56:29.785Z</time></trkpt><trkpt lat="54.65165" lon="-2.1767867"><ele>305.0</ele><time>2026-05-03T09:56:30.784Z</time></trkpt><trkpt lat="54.651585" lon="-2.1764633"><ele>305.6666666666667</ele><time>2026-05-03T09:56:31.784Z</time></trkpt><trkpt lat="54.651515" lon="-2.1761367"><ele>306.3333333333333</ele><time>2026-05-03T09:56:32.784Z</time></trkpt><trkpt lat="54.65144" lon="-2.1758"><ele>307.0</ele><time>2026-05-03T09:56:33.786Z</time></trkpt><trkpt lat="54.6513683" lon="-2.1754733"><ele>307.3333333333333</ele><time>2026-05-03T09:56:34.786Z</time></trkpt><trkpt lat="54.6512783" lon="-2.1751583"><ele>307.6666666666667</ele><time>2026-05-03T09:56:35.785Z</time></trkpt><trkpt lat="54.65118" lon="-2.17486"><ele>308.0</ele><time>2026-05-03T09:56:36.785Z</time></trkpt><trkpt lat="54.651085" lon="-2.17458"><ele>305.0</ele><time>2026-05-03T09:56:37.784Z</time></trkpt><trkpt lat="54.6509933" lon="-2.17431"><ele>302.0</ele><time>2026-05-03T09:56:38.784Z</time></trkpt><trkpt lat="54.6509067" lon="-2.17405"><ele>299.0</ele><time>2026-05-03T09:56:39.785Z</time></trkpt><trkpt lat="54.65084" lon="-2.173815"><ele>299.0</ele><time>2026-05-03T09:56:40.784Z</time></trkpt><trkpt lat="54.6507783" lon="-2.1735983"><ele>299.0</ele><time>2026-05-03T09:56:41.785Z</time></trkpt><trkpt lat="54.65073" lon="-2.1733917"><ele>299.0</ele><time>2026-05-03T09:56:42.784Z</time></trkpt><trkpt lat="54.6507" lon="-2.1731833"><ele>299.0</ele><time>2026-05-03T09:56:43.783Z</time></trkpt><trkpt lat="54.6506883" lon="-2.1729583"><ele>299.0</ele><time>2026-05-03T09:56:44.783Z</time></trkpt><trkpt lat="54.6507" lon="-2.1727217"><ele>299.0</ele><time>2026-05-03T09:56:45.782Z</time></trkpt><trkpt lat="54.6507333" lon="-2.1724483"><ele>299.0</ele><time>2026-05-03T09:56:46.784Z</time></trkpt><trkpt lat="54.6507633" lon="-2.1721817"><ele>298.33333333333337</ele><time>2026-05-03T09:56:47.785Z</time></trkpt><trkpt lat="54.6507683" lon="-2.1719233"><ele>297.6666666666667</ele><time>2026-05-03T09:56:48.788Z</time></trkpt><trkpt lat="54.6507517" lon="-2.1716433"><ele>297.0</ele><time>2026-05-03T09:56:49.784Z</time></trkpt><trkpt lat="54.6507267" lon="-2.1713633"><ele>296.6666666666667</ele><time>2026-05-03T09:56:50.785Z</time></trkpt><trkpt lat="54.6507017" lon="-2.1710817"><ele>296.33333333333337</ele><time>2026-05-03T09:56:51.784Z</time></trkpt><trkpt lat="54.6506967" lon="-2.1707983"><ele>296.0</ele><time>2026-05-03T09:56:52.784Z</time></trkpt><trkpt lat="54.6507067" lon="-2.1705"><ele>295.33333333333337</ele><time>2026-05-03T09:56:53.785Z</time></trkpt><trkpt lat="54.6507317" lon="-2.170195"><ele>294.6666666666667</ele><time>2026-05-03T09:56:54.784Z</time></trkpt><trkpt lat="54.650765" lon="-2.16987"><ele>294.0</ele><time>2026-05-03T09:56:55.785Z</time></trkpt><trkpt lat="54.6507917" lon="-2.1695267"><ele>293.3333333333333</ele><time>2026-05-03T09:56:56.785Z</time></trkpt><trkpt lat="54.6508067" lon="-2.16918"><ele>292.66666666666663</ele><time>2026-05-03T09:56:57.785Z</time></trkpt><trkpt lat="54.65081" lon="-2.1688217"><ele>292.0</ele><time>2026-05-03T09:56:58.785Z</time></trkpt><trkpt lat="54.6508" lon="-2.168455"><ele>291.0</ele><time>2026-05-03T09:56:59.785Z</time></trkpt><trkpt lat="54.6507867" lon="-2.168095"><ele>290.0</ele><time>2026-05-03T09:57:00.785Z</time></trkpt><trkpt lat="54.65077" lon="-2.1677417"><ele>289.0</ele><time>2026-05-03T09:57:01.785Z</time></trkpt><trkpt lat="54.6507467" lon="-2.1673833"><ele>288.3333333333333</ele><time>2026-05-03T09:57:02.785Z</time></trkpt><trkpt lat="54.6507317" lon="-2.1670283"><ele>287.6666666666667</ele><time>2026-05-03T09:57:03.784Z</time></trkpt><trkpt lat="54.650715" lon="-2.166695"><ele>287.0</ele><time>2026-05-03T09:57:04.783Z</time></trkpt><trkpt lat="54.6506917" lon="-2.1663833"><ele>286.33333333333337</ele><time>2026-05-03T09:57:05.784Z</time></trkpt><trkpt lat="54.65066" lon="-2.1661083"><ele>285.6666666666667</ele><time>2026-05-03T09:57:06.784Z</time></trkpt><trkpt lat="54.6506083" lon="-2.165835"><ele>285.0</ele><time>2026-05-03T09:57:07.783Z</time></trkpt><trkpt lat="54.65054" lon="-2.1655533"><ele>285.0</ele><time>2026-05-03T09:57:08.784Z</time></trkpt><trkpt lat="54.6504483" lon="-2.16527"><ele>285.0</ele><time>2026-05-03T09:57:09.785Z</time></trkpt><trkpt lat="54.6503567" lon="-2.1650067"><ele>285.0</ele><time>2026-05-03T09:57:10.784Z</time></trkpt><trkpt lat="54.650275" lon="-2.164755"><ele>285.0</ele><time>2026-05-03T09:57:11.785Z</time></trkpt><trkpt lat="54.65021" lon="-2.1645017"><ele>285.0</ele><time>2026-05-03T09:57:12.783Z</time></trkpt><trkpt lat="54.6501683" lon="-2.164235"><ele>285.0</ele><time>2026-05-03T09:57:13.784Z</time></trkpt><trkpt lat="54.6501483" lon="-2.16394"><ele>285.0</ele><time>2026-05-03T09:57:14.785Z</time></trkpt><trkpt lat="54.650145" lon="-2.1636217"><ele>285.0</ele><time>2026-05-03T09:57:15.785Z</time></trkpt><trkpt lat="54.6501617" lon="-2.1632867"><ele>285.0</ele><time>2026-05-03T09:57:16.784Z</time></trkpt><trkpt lat="54.6501733" lon="-2.1629533"><ele>285.0</ele><time>2026-05-03T09:57:17.785Z</time></trkpt><trkpt lat="54.650175" lon="-2.162625"><ele>285.0</ele><time>2026-05-03T09:57:18.784Z</time></trkpt><trkpt lat="54.650155" lon="-2.1622967"><ele>285.0</ele><time>2026-05-03T09:57:19.788Z</time></trkpt><trkpt lat="54.6501167" lon="-2.1619933"><ele>285.3333333333333</ele><time>2026-05-03T09:57:20.784Z</time></trkpt><trkpt lat="54.65005" lon="-2.1616983"><ele>285.66666666666663</ele><time>2026-05-03T09:57:21.784Z</time></trkpt><trkpt lat="54.6499733" lon="-2.1613983"><ele>286.0</ele><time>2026-05-03T09:57:22.785Z</time></trkpt><trkpt lat="54.649895" lon="-2.161095"><ele>286.0</ele><time>2026-05-03T09:57:23.784Z</time></trkpt><trkpt lat="54.64982" lon="-2.1607833"><ele>286.0</ele><time>2026-05-03T09:57:24.783Z</time></trkpt><trkpt lat="54.6497617" lon="-2.1604617"><ele>286.0</ele><time>2026-05-03T09:57:25.784Z</time></trkpt><trkpt lat="54.6497183" lon="-2.16012"><ele>286.66666666666663</ele><time>2026-05-03T09:57:26.784Z</time></trkpt><trkpt lat="54.649675" lon="-2.1597667"><ele>287.3333333333333</ele><time>2026-05-03T09:57:27.784Z</time></trkpt><trkpt lat="54.6496033" lon="-2.1594017"><ele>288.0</ele><time>2026-05-03T09:57:28.783Z</time></trkpt><trkpt lat="54.6495517" lon="-2.1590667"><ele>288.3333333333333</ele><time>2026-05-03T09:57:29.784Z</time></trkpt><trkpt lat="54.6494983" lon="-2.1587367"><ele>288.66666666666663</ele><time>2026-05-03T09:57:30.784Z</time></trkpt><trkpt lat="54.6494583" lon="-2.1584267"><ele>289.0</ele><time>2026-05-03T09:57:31.787Z</time></trkpt><trkpt lat="54.6494383" lon="-2.158125"><ele>288.66666666666663</ele><time>2026-05-03T09:57:32.785Z</time></trkpt><trkpt lat="54.6494417" lon="-2.157825"><ele>288.3333333333333</ele><time>2026-05-03T09:57:33.785Z</time></trkpt><trkpt lat="54.649455" lon="-2.1575067"><ele>288.0</ele><time>2026-05-03T09:57:34.787Z</time></trkpt><trkpt lat="54.6494617" lon="-2.1571733"><ele>284.6666666666667</ele><time>2026-05-03T09:57:35.783Z</time></trkpt><trkpt lat="54.6494583" lon="-2.1568333"><ele>281.33333333333337</ele><time>2026-05-03T09:57:36.785Z</time></trkpt><trkpt lat="54.6494533" lon="-2.1564967"><ele>278.0</ele><time>2026-05-03T09:57:37.785Z</time></trkpt><trkpt lat="54.6494533" lon="-2.1561867"><ele>278.0</ele><time>2026-05-03T09:57:38.785Z</time></trkpt><trkpt lat="54.649455" lon="-2.1559133"><ele>278.0</ele><time>2026-05-03T09:57:39.785Z</time></trkpt><trkpt lat="54.649455" lon="-2.1556483"><ele>278.0</ele><time>2026-05-03T09:57:40.785Z</time></trkpt><trkpt lat="54.6494483" lon="-2.15539"><ele>278.0</ele><time>2026-05-03T09:57:41.786Z</time></trkpt><trkpt lat="54.6494367" lon="-2.1551317"><ele>278.0</ele><time>2026-05-03T09:57:42.784Z</time></trkpt><trkpt lat="54.6494183" lon="-2.15489"><ele>278.0</ele><time>2026-05-03T09:57:43.785Z</time></trkpt><trkpt lat="54.6493967" lon="-2.1546917"><ele>278.0</ele><time>2026-05-03T09:57:44.784Z</time></trkpt><trkpt lat="54.649345" lon="-2.154495"><ele>279.0</ele><time>2026-05-03T09:57:45.784Z</time></trkpt><trkpt lat="54.6492967" lon="-2.1542717"><ele>280.0</ele><time>2026-05-03T09:57:46.783Z</time></trkpt><trkpt lat="54.64921" lon="-2.1540517"><ele>281.0</ele><time>2026-05-03T09:57:47.786Z</time></trkpt><trkpt lat="54.649105" lon="-2.1538383"><ele>282.6666666666667</ele><time>2026-05-03T09:57:48.786Z</time></trkpt><trkpt lat="54.6489967" lon="-2.1536283"><ele>284.3333333333333</ele><time>2026-05-03T09:57:49.784Z</time></trkpt><trkpt lat="54.6488617" lon="-2.1533933"><ele>286.0</ele><time>2026-05-03T09:57:50.786Z</time></trkpt><trkpt lat="54.648735" lon="-2.1531367"><ele>284.0</ele><time>2026-05-03T09:57:51.785Z</time></trkpt><trkpt lat="54.6486117" lon="-2.15286"><ele>282.0</ele><time>2026-05-03T09:57:52.786Z</time></trkpt><trkpt lat="54.6485033" lon="-2.1525833"><ele>280.0</ele><time>2026-05-03T09:57:53.784Z</time></trkpt><trkpt lat="54.6484" lon="-2.1523067"><ele>280.0</ele><time>2026-05-03T09:57:54.785Z</time></trkpt><trkpt lat="54.64829" lon="-2.1520367"><ele>280.0</ele><time>2026-05-03T09:57:55.785Z</time></trkpt><trkpt lat="54.6481883" lon="-2.1517833"><ele>280.0</ele><time>2026-05-03T09:57:56.786Z</time></trkpt><trkpt lat="54.64809" lon="-2.151535"><ele>280.3333333333333</ele><time>2026-05-03T09:57:57.785Z</time></trkpt><trkpt lat="54.648" lon="-2.15128"><ele>280.6666666666667</ele><time>2026-05-03T09:57:58.783Z</time></trkpt><trkpt lat="54.6479317" lon="-2.151025"><ele>281.0</ele><time>2026-05-03T09:57:59.782Z</time></trkpt><trkpt lat="54.6478833" lon="-2.1507567"><ele>280.33333333333337</ele><time>2026-05-03T09:58:00.784Z</time></trkpt><trkpt lat="54.647865" lon="-2.1504733"><ele>279.6666666666667</ele><time>2026-05-03T09:58:01.784Z</time></trkpt><trkpt lat="54.6478867" lon="-2.1501667"><ele>279.0</ele><time>2026-05-03T09:58:02.788Z</time></trkpt><trkpt lat="54.6479183" lon="-2.14984"><ele>278.0</ele><time>2026-05-03T09:58:03.782Z</time></trkpt><trkpt lat="54.6479517" lon="-2.1495133"><ele>277.0</ele><time>2026-05-03T09:58:04.784Z</time></trkpt><trkpt lat="54.6479767" lon="-2.1491817"><ele>276.0</ele><time>2026-05-03T09:58:05.787Z</time></trkpt><trkpt lat="54.6479967" lon="-2.14885"><ele>276.0</ele><time>2026-05-03T09:58:06.784Z</time></trkpt><trkpt lat="54.648005" lon="-2.1485183"><ele>276.0</ele><time>2026-05-03T09:58:07.783Z</time></trkpt><trkpt lat="54.647995" lon="-2.1481867"><ele>276.0</ele><time>2026-05-03T09:58:08.785Z</time></trkpt><trkpt lat="54.6479667" lon="-2.1478617"><ele>276.0</ele><time>2026-05-03T09:58:09.787Z</time></trkpt><trkpt lat="54.64793" lon="-2.1475417"><ele>276.0</ele><time>2026-05-03T09:58:10.785Z</time></trkpt><trkpt lat="54.6478883" lon="-2.1472383"><ele>276.0</ele><time>2026-05-03T09:58:11.786Z</time></trkpt><trkpt lat="54.6478333" lon="-2.1469367"><ele>275.6666666666667</ele><time>2026-05-03T09:58:12.786Z</time></trkpt><trkpt lat="54.64777" lon="-2.146635"><ele>275.33333333333337</ele><time>2026-05-03T09:58:13.786Z</time></trkpt><trkpt lat="54.6477033" lon="-2.1463167"><ele>275.0</ele><time>2026-05-03T09:58:14.787Z</time></trkpt><trkpt lat="54.64763" lon="-2.145975"><ele>275.0</ele><time>2026-05-03T09:58:15.783Z</time></trkpt><trkpt lat="54.647555" lon="-2.1456283"><ele>275.0</ele><time>2026-05-03T09:58:16.783Z</time></trkpt><trkpt lat="54.6474833" lon="-2.1452883"><ele>275.0</ele><time>2026-05-03T09:58:17.784Z</time></trkpt><trkpt lat="54.6474167" lon="-2.1449583"><ele>275.33333333333337</ele><time>2026-05-03T09:58:18.784Z</time></trkpt><trkpt lat="54.6473467" lon="-2.1446333"><ele>275.6666666666667</ele><time>2026-05-03T09:58:19.784Z</time></trkpt><trkpt lat="54.6472783" lon="-2.1442983"><ele>276.0</ele><time>2026-05-03T09:58:20.784Z</time></trkpt><trkpt lat="54.64721" lon="-2.1439583"><ele>276.0</ele><time>2026-05-03T09:58:21.784Z</time></trkpt><trkpt lat="54.64714" lon="-2.1436083"><ele>276.0</ele><time>2026-05-03T09:58:22.784Z</time></trkpt><trkpt lat="54.6470833" lon="-2.143265"><ele>276.0</ele><time>2026-05-03T09:58:23.784Z</time></trkpt><trkpt lat="54.647025" lon="-2.1429133"><ele>274.6666666666667</ele><time>2026-05-03T09:58:24.784Z</time></trkpt><trkpt lat="54.6469467" lon="-2.1425783"><ele>273.33333333333337</ele><time>2026-05-03T09:58:25.785Z</time></trkpt><trkpt lat="54.646865" lon="-2.1422467"><ele>272.0</ele><time>2026-05-03T09:58:26.785Z</time></trkpt><trkpt lat="54.6467767" lon="-2.1419233"><ele>272.0</ele><time>2026-05-03T09:58:27.784Z</time></trkpt><trkpt lat="54.6466667" lon="-2.1416067"><ele>272.0</ele><time>2026-05-03T09:58:28.788Z</time></trkpt><trkpt lat="54.646545" lon="-2.1412883"><ele>272.0</ele><time>2026-05-03T09:58:29.784Z</time></trkpt><trkpt lat="54.646415" lon="-2.1409667"><ele>272.0</ele><time>2026-05-03T09:58:30.785Z</time></trkpt><trkpt lat="54.646265" lon="-2.1406317"><ele>272.0</ele><time>2026-05-03T09:58:31.786Z</time></trkpt><trkpt lat="54.6461133" lon="-2.1402933"><ele>270.5</ele><time>2026-05-03T09:58:32.787Z</time></trkpt><trkpt lat="54.6459617" lon="-2.1399533"><ele>269.0</ele><time>2026-05-03T09:58:33.784Z</time></trkpt><trkpt lat="54.6458133" lon="-2.1396183"><ele>268.5</ele><time>2026-05-03T09:58:34.785Z</time></trkpt><trkpt lat="54.64567" lon="-2.13929"><ele>268.0</ele><time>2026-05-03T09:58:35.785Z</time></trkpt><trkpt lat="54.6455283" lon="-2.1389633"><ele>268.0</ele><time>2026-05-03T09:58:36.787Z</time></trkpt><trkpt lat="54.6453883" lon="-2.1386383"><ele>268.0</ele><time>2026-05-03T09:58:37.785Z</time></trkpt><trkpt lat="54.6452483" lon="-2.1383217"><ele>267.5</ele><time>2026-05-03T09:58:38.784Z</time></trkpt><trkpt lat="54.6450933" lon="-2.1380133"><ele>267.0</ele><time>2026-05-03T09:58:39.784Z</time></trkpt><trkpt lat="54.6449333" lon="-2.1377183"><ele>267.0</ele><time>2026-05-03T09:58:40.782Z</time></trkpt><trkpt lat="54.6447667" lon="-2.1374283"><ele>267.0</ele><time>2026-05-03T09:58:41.784Z</time></trkpt><trkpt lat="54.6445967" lon="-2.1371433"><ele>267.0</ele><time>2026-05-03T09:58:42.784Z</time></trkpt><trkpt lat="54.6444383" lon="-2.1368683"><ele>267.0</ele><time>2026-05-03T09:58:43.785Z</time></trkpt><trkpt lat="54.6442967" lon="-2.1365883"><ele>267.0</ele><time>2026-05-03T09:58:44.787Z</time></trkpt><trkpt lat="54.6441667" lon="-2.1362967"><ele>267.0</ele><time>2026-05-03T09:58:45.785Z</time></trkpt><trkpt lat="54.64404" lon="-2.1360133"><ele>267.0</ele><time>2026-05-03T09:58:46.785Z</time></trkpt><trkpt lat="54.6439217" lon="-2.1357567"><ele>267.0</ele><time>2026-05-03T09:58:47.786Z</time></trkpt><trkpt lat="54.643815" lon="-2.13553"><ele>267.0</ele><time>2026-05-03T09:58:48.786Z</time></trkpt><trkpt lat="54.643715" lon="-2.1353217"><ele>267.0</ele><time>2026-05-03T09:58:49.784Z</time></trkpt><trkpt lat="54.6436233" lon="-2.1351267"><ele>267.0</ele><time>2026-05-03T09:58:50.785Z</time></trkpt><trkpt lat="54.6435367" lon="-2.134945"><ele>267.0</ele><time>2026-05-03T09:58:51.786Z</time></trkpt><trkpt lat="54.6434517" lon="-2.13476"><ele>265.75</ele><time>2026-05-03T09:58:52.787Z</time></trkpt><trkpt lat="54.643365" lon="-2.1345617"><ele>264.5</ele><time>2026-05-03T09:58:53.784Z</time></trkpt><trkpt lat="54.64329" lon="-2.134355"><ele>263.25</ele><time>2026-05-03T09:58:54.787Z</time></trkpt><trkpt lat="54.6432233" lon="-2.1341267"><ele>262.0</ele><time>2026-05-03T09:58:55.787Z</time></trkpt><trkpt lat="54.6431583" lon="-2.1338767"><ele>262.0</ele><time>2026-05-03T09:58:56.786Z</time></trkpt><trkpt lat="54.6431" lon="-2.1336183"><ele>262.0</ele><time>2026-05-03T09:58:57.784Z</time></trkpt><trkpt lat="54.643035" lon="-2.1333667"><ele>262.0</ele><time>2026-05-03T09:58:58.786Z</time></trkpt><trkpt lat="54.6429667" lon="-2.1331233"><ele>262.3333333333333</ele><time>2026-05-03T09:58:59.786Z</time></trkpt><trkpt lat="54.6428867" lon="-2.1328717"><ele>262.6666666666667</ele><time>2026-05-03T09:59:00.786Z</time></trkpt><trkpt lat="54.6427833" lon="-2.132625"><ele>263.0</ele><time>2026-05-03T09:59:01.786Z</time></trkpt><trkpt lat="54.6426767" lon="-2.13238"><ele>261.6666666666667</ele><time>2026-05-03T09:59:02.785Z</time></trkpt><trkpt lat="54.6425683" lon="-2.1321367"><ele>260.3333333333333</ele><time>2026-05-03T09:59:03.784Z</time></trkpt><trkpt lat="54.6424683" lon="-2.1319083"><ele>259.0</ele><time>2026-05-03T09:59:04.787Z</time></trkpt><trkpt lat="54.64237" lon="-2.13168"><ele>259.66666666666663</ele><time>2026-05-03T09:59:05.786Z</time></trkpt><trkpt lat="54.642265" lon="-2.1314583"><ele>260.3333333333333</ele><time>2026-05-03T09:59:06.785Z</time></trkpt><trkpt lat="54.64214" lon="-2.13126"><ele>261.0</ele><time>2026-05-03T09:59:07.787Z</time></trkpt><trkpt lat="54.642" lon="-2.131095"><ele>259.6666666666667</ele><time>2026-05-03T09:59:08.783Z</time></trkpt><trkpt lat="54.64185" lon="-2.1309617"><ele>258.33333333333337</ele><time>2026-05-03T09:59:09.786Z</time></trkpt><trkpt lat="54.6416717" lon="-2.1308517"><ele>257.0</ele><time>2026-05-03T09:59:10.787Z</time></trkpt><trkpt lat="54.6414883" lon="-2.1307467"><ele>256.33333333333337</ele><time>2026-05-03T09:59:11.788Z</time></trkpt><trkpt lat="54.641305" lon="-2.13065"><ele>255.66666666666669</ele><time>2026-05-03T09:59:12.783Z</time></trkpt><trkpt lat="54.6411383" lon="-2.1305467"><ele>255.0</ele><time>2026-05-03T09:59:13.785Z</time></trkpt><trkpt lat="54.6409783" lon="-2.1304083"><ele>255.0</ele><time>2026-05-03T09:59:14.787Z</time></trkpt><trkpt lat="54.6408233" lon="-2.13024"><ele>255.0</ele><time>2026-05-03T09:59:15.785Z</time></trkpt><trkpt lat="54.6406767" lon="-2.1300617"><ele>255.0</ele><time>2026-05-03T09:59:16.786Z</time></trkpt><trkpt lat="54.640545" lon="-2.1298983"><ele>256.0</ele><time>2026-05-03T09:59:17.788Z</time></trkpt><trkpt lat="54.64042" lon="-2.12974"><ele>257.0</ele><time>2026-05-03T09:59:18.784Z</time></trkpt><trkpt lat="54.6403033" lon="-2.129555"><ele>258.0</ele><time>2026-05-03T09:59:19.788Z</time></trkpt><trkpt lat="54.6401833" lon="-2.1293383"><ele>257.0</ele><time>2026-05-03T09:59:20.786Z</time></trkpt><trkpt lat="54.6400617" lon="-2.1290917"><ele>256.0</ele><time>2026-05-03T09:59:21.785Z</time></trkpt><trkpt lat="54.6399367" lon="-2.1288383"><ele>255.0</ele><time>2026-05-03T09:59:22.788Z</time></trkpt><trkpt lat="54.6397967" lon="-2.1285717"><ele>255.0</ele><time>2026-05-03T09:59:23.783Z</time></trkpt><trkpt lat="54.63966" lon="-2.12829"><ele>255.0</ele><time>2026-05-03T09:59:24.784Z</time></trkpt><trkpt lat="54.639535" lon="-2.12798"><ele>255.0</ele><time>2026-05-03T09:59:25.784Z</time></trkpt><trkpt lat="54.6394117" lon="-2.12764"><ele>252.5</ele><time>2026-05-03T09:59:26.787Z</time></trkpt><trkpt lat="54.639285" lon="-2.1272983"><ele>250.0</ele><time>2026-05-03T09:59:27.783Z</time></trkpt><trkpt lat="54.639155" lon="-2.1269733"><ele>250.0</ele><time>2026-05-03T09:59:28.785Z</time></trkpt><trkpt lat="54.639025" lon="-2.1266683"><ele>250.0</ele><time>2026-05-03T09:59:29.784Z</time></trkpt><trkpt lat="54.6388833" lon="-2.12636"><ele>250.0</ele><time>2026-05-03T09:59:30.785Z</time></trkpt><trkpt lat="54.6387317" lon="-2.126045"><ele>249.5</ele><time>2026-05-03T09:59:31.786Z</time></trkpt><trkpt lat="54.6385817" lon="-2.1257333"><ele>249.0</ele><time>2026-05-03T09:59:32.786Z</time></trkpt><trkpt lat="54.6384283" lon="-2.1254217"><ele>249.0</ele><time>2026-05-03T09:59:33.785Z</time></trkpt><trkpt lat="54.6382733" lon="-2.1251217"><ele>249.0</ele><time>2026-05-03T09:59:34.786Z</time></trkpt><trkpt lat="54.6381133" lon="-2.1248417"><ele>250.5</ele><time>2026-05-03T09:59:35.787Z</time></trkpt><trkpt lat="54.6379433" lon="-2.124565"><ele>252.0</ele><time>2026-05-03T09:59:36.783Z</time></trkpt><trkpt lat="54.637765" lon="-2.124305"><ele>250.0</ele><time>2026-05-03T09:59:37.786Z</time></trkpt><trkpt lat="54.637595" lon="-2.124055"><ele>248.0</ele><time>2026-05-03T09:59:38.785Z</time></trkpt><trkpt lat="54.6374267" lon="-2.1237983"><ele>246.0</ele><time>2026-05-03T09:59:39.785Z</time></trkpt><trkpt lat="54.63727" lon="-2.1235183"><ele>247.0</ele><time>2026-05-03T09:59:40.786Z</time></trkpt><trkpt lat="54.6371217" lon="-2.1232133"><ele>248.0</ele><time>2026-05-03T09:59:41.787Z</time></trkpt><trkpt lat="54.6369833" lon="-2.1228883"><ele>246.66666666666669</ele><time>2026-05-03T09:59:42.786Z</time></trkpt><trkpt lat="54.6368567" lon="-2.1225617"><ele>245.33333333333331</ele><time>2026-05-03T09:59:43.785Z</time></trkpt><trkpt lat="54.6367383" lon="-2.1222517"><ele>244.0</ele><time>2026-05-03T09:59:44.786Z</time></trkpt><trkpt lat="54.636635" lon="-2.121965"><ele>244.0</ele><time>2026-05-03T09:59:45.787Z</time></trkpt><trkpt lat="54.6365433" lon="-2.121675"><ele>244.0</ele><time>2026-05-03T09:59:46.784Z</time></trkpt><trkpt lat="54.6364667" lon="-2.121365"><ele>244.0</ele><time>2026-05-03T09:59:47.785Z</time></trkpt><trkpt lat="54.636395" lon="-2.121035"><ele>245.33333333333331</ele><time>2026-05-03T09:59:48.783Z</time></trkpt><trkpt lat="54.63632" lon="-2.1207117"><ele>246.66666666666669</ele><time>2026-05-03T09:59:49.784Z</time></trkpt><trkpt lat="54.6362383" lon="-2.1203883"><ele>248.0</ele><time>2026-05-03T09:59:50.784Z</time></trkpt><trkpt lat="54.6361383" lon="-2.1200617"><ele>244.5</ele><time>2026-05-03T09:59:51.783Z</time></trkpt><trkpt lat="54.63602" lon="-2.1197367"><ele>241.0</ele><time>2026-05-03T09:59:52.784Z</time></trkpt><trkpt lat="54.635885" lon="-2.1194117"><ele>241.0</ele><time>2026-05-03T09:59:53.783Z</time></trkpt><trkpt lat="54.63574" lon="-2.1191083"><ele>241.0</ele><time>2026-05-03T09:59:54.782Z</time></trkpt><trkpt lat="54.6356067" lon="-2.1188383"><ele>241.0</ele><time>2026-05-03T09:59:55.785Z</time></trkpt><trkpt lat="54.6354917" lon="-2.1186067"><ele>240.33333333333331</ele><time>2026-05-03T09:59:56.784Z</time></trkpt><trkpt lat="54.6353883" lon="-2.118385"><ele>239.66666666666669</ele><time>2026-05-03T09:59:57.783Z</time></trkpt><trkpt lat="54.6352933" lon="-2.1181417"><ele>239.0</ele><time>2026-05-03T09:59:58.783Z</time></trkpt><trkpt lat="54.6352033" lon="-2.1178617"><ele>239.0</ele><time>2026-05-03T09:59:59.783Z</time></trkpt><trkpt lat="54.635115" lon="-2.1175617"><ele>239.0</ele><time>2026-05-03T10:00:00.783Z</time></trkpt><trkpt lat="54.6350233" lon="-2.1172533"><ele>239.0</ele><time>2026-05-03T10:00:01.783Z</time></trkpt><trkpt lat="54.6349367" lon="-2.1169433"><ele>239.33333333333334</ele><time>2026-05-03T10:00:02.783Z</time></trkpt><trkpt lat="54.6348617" lon="-2.1166167"><ele>239.66666666666669</ele><time>2026-05-03T10:00:03.783Z</time></trkpt><trkpt lat="54.634805" lon="-2.1162717"><ele>240.0</ele><time>2026-05-03T10:00:04.785Z</time></trkpt><trkpt lat="54.63476" lon="-2.11591"><ele>241.66666666666669</ele><time>2026-05-03T10:00:05.783Z</time></trkpt><trkpt lat="54.6347283" lon="-2.1155433"><ele>243.33333333333334</ele><time>2026-05-03T10:00:06.784Z</time></trkpt><trkpt lat="54.634705" lon="-2.1151817"><ele>245.0</ele><time>2026-05-03T10:00:07.784Z</time></trkpt><trkpt lat="54.634685" lon="-2.1148267"><ele>246.66666666666669</ele><time>2026-05-03T10:00:08.785Z</time></trkpt><trkpt lat="54.634665" lon="-2.1144983"><ele>248.33333333333331</ele><time>2026-05-03T10:00:09.784Z</time></trkpt><trkpt lat="54.6346333" lon="-2.1141883"><ele>250.0</ele><time>2026-05-03T10:00:10.784Z</time></trkpt><trkpt lat="54.6345867" lon="-2.1139083"><ele>249.66666666666666</ele><time>2026-05-03T10:00:11.784Z</time></trkpt><trkpt lat="54.6345233" lon="-2.1136367"><ele>249.33333333333331</ele><time>2026-05-03T10:00:12.784Z</time></trkpt><trkpt lat="54.634435" lon="-2.1133833"><ele>249.0</ele><time>2026-05-03T10:00:13.782Z</time></trkpt><trkpt lat="54.6343383" lon="-2.113145"><ele>249.0</ele><time>2026-05-03T10:00:14.786Z</time></trkpt><trkpt lat="54.6342483" lon="-2.1129267"><ele>249.0</ele><time>2026-05-03T10:00:15.782Z</time></trkpt><trkpt lat="54.634145" lon="-2.112745"><ele>249.0</ele><time>2026-05-03T10:00:16.784Z</time></trkpt><trkpt lat="54.6340533" lon="-2.1125717"><ele>249.0</ele><time>2026-05-03T10:00:17.784Z</time></trkpt><trkpt lat="54.6339483" lon="-2.1124"><ele>248.25</ele><time>2026-05-03T10:00:18.785Z</time></trkpt><trkpt lat="54.63384" lon="-2.1122517"><ele>247.5</ele><time>2026-05-03T10:00:19.784Z</time></trkpt><trkpt lat="54.633725" lon="-2.1121133"><ele>246.75</ele><time>2026-05-03T10:00:20.785Z</time></trkpt><trkpt lat="54.633605" lon="-2.1119883"><ele>246.0</ele><time>2026-05-03T10:00:21.783Z</time></trkpt><trkpt lat="54.6334933" lon="-2.1118733"><ele>246.0</ele><time>2026-05-03T10:00:22.784Z</time></trkpt><trkpt lat="54.63339" lon="-2.1117567"><ele>246.0</ele><time>2026-05-03T10:00:23.783Z</time></trkpt><trkpt lat="54.6332917" lon="-2.1116183"><ele>246.0</ele><time>2026-05-03T10:00:24.785Z</time></trkpt><trkpt lat="54.6332033" lon="-2.1114533"><ele>246.0</ele><time>2026-05-03T10:00:25.784Z</time></trkpt><trkpt lat="54.6331183" lon="-2.1112883"><ele>247.75</ele><time>2026-05-03T10:00:26.782Z</time></trkpt><trkpt lat="54.6330367" lon="-2.1111083"><ele>249.5</ele><time>2026-05-03T10:00:27.785Z</time></trkpt><trkpt lat="54.6329667" lon="-2.110915"><ele>251.25</ele><time>2026-05-03T10:00:28.783Z</time></trkpt><trkpt lat="54.6328983" lon="-2.1107167"><ele>253.0</ele><time>2026-05-03T10:00:29.783Z</time></trkpt><trkpt lat="54.6328233" lon="-2.110515"><ele>253.0</ele><time>2026-05-03T10:00:30.782Z</time></trkpt><trkpt lat="54.6327417" lon="-2.1103067"><ele>253.0</ele><time>2026-05-03T10:00:31.782Z</time></trkpt><trkpt lat="54.63266" lon="-2.1100883"><ele>253.0</ele><time>2026-05-03T10:00:32.783Z</time></trkpt><trkpt lat="54.632575" lon="-2.1098583"><ele>253.0</ele><time>2026-05-03T10:00:33.783Z</time></trkpt><trkpt lat="54.632495" lon="-2.109625"><ele>253.0</ele><time>2026-05-03T10:00:34.783Z</time></trkpt><trkpt lat="54.6324183" lon="-2.1093917"><ele>253.0</ele><time>2026-05-03T10:00:35.784Z</time></trkpt><trkpt lat="54.6323367" lon="-2.1091783"><ele>254.66666666666666</ele><time>2026-05-03T10:00:36.785Z</time></trkpt><trkpt lat="54.632245" lon="-2.108965"><ele>256.3333333333333</ele><time>2026-05-03T10:00:37.784Z</time></trkpt><trkpt lat="54.6321417" lon="-2.1087467"><ele>258.0</ele><time>2026-05-03T10:00:38.783Z</time></trkpt><trkpt lat="54.6320317" lon="-2.108515"><ele>256.3333333333333</ele><time>2026-05-03T10:00:39.783Z</time></trkpt><trkpt lat="54.63192" lon="-2.10828"><ele>254.66666666666666</ele><time>2026-05-03T10:00:40.784Z</time></trkpt><trkpt lat="54.63181" lon="-2.1080633"><ele>253.0</ele><time>2026-05-03T10:00:41.788Z</time></trkpt><trkpt lat="54.6317067" lon="-2.1078733"><ele>253.0</ele><time>2026-05-03T10:00:42.787Z</time></trkpt><trkpt lat="54.6316033" lon="-2.1076917"><ele>253.0</ele><time>2026-05-03T10:00:43.787Z</time></trkpt><trkpt lat="54.6314983" lon="-2.1075117"><ele>253.0</ele><time>2026-05-03T10:00:44.786Z</time></trkpt><trkpt lat="54.6313883" lon="-2.1073283"><ele>253.0</ele><time>2026-05-03T10:00:45.787Z</time></trkpt><trkpt lat="54.6312767" lon="-2.10714"><ele>254.66666666666666</ele><time>2026-05-03T10:00:46.786Z</time></trkpt><trkpt lat="54.63117" lon="-2.106955"><ele>256.3333333333333</ele><time>2026-05-03T10:00:47.787Z</time></trkpt><trkpt lat="54.6310617" lon="-2.106775"><ele>258.0</ele><time>2026-05-03T10:00:48.784Z</time></trkpt><trkpt lat="54.63095" lon="-2.1066"><ele>256.25</ele><time>2026-05-03T10:00:49.784Z</time></trkpt><trkpt lat="54.63084" lon="-2.10643"><ele>254.5</ele><time>2026-05-03T10:00:50.785Z</time></trkpt><trkpt lat="54.6307367" lon="-2.106265"><ele>252.75</ele><time>2026-05-03T10:00:51.783Z</time></trkpt><trkpt lat="54.6306367" lon="-2.1061083"><ele>251.0</ele><time>2026-05-03T10:00:52.785Z</time></trkpt><trkpt lat="54.6305383" lon="-2.105955"><ele>251.0</ele><time>2026-05-03T10:00:53.782Z</time></trkpt><trkpt lat="54.6304483" lon="-2.1058083"><ele>251.0</ele><time>2026-05-03T10:00:54.783Z</time></trkpt><trkpt lat="54.630355" lon="-2.105655"><ele>251.0</ele><time>2026-05-03T10:00:55.785Z</time></trkpt><trkpt lat="54.63026" lon="-2.10549"><ele>251.0</ele><time>2026-05-03T10:00:56.783Z</time></trkpt><trkpt lat="54.63017" lon="-2.1053117"><ele>250.5</ele><time>2026-05-03T10:00:57.784Z</time></trkpt><trkpt lat="54.63008" lon="-2.1051267"><ele>250.0</ele><time>2026-05-03T10:00:58.783Z</time></trkpt><trkpt lat="54.6300017" lon="-2.1049433"><ele>249.5</ele><time>2026-05-03T10:00:59.784Z</time></trkpt><trkpt lat="54.6299333" lon="-2.1047667"><ele>249.0</ele><time>2026-05-03T10:01:00.785Z</time></trkpt><trkpt lat="54.6298717" lon="-2.104605"><ele>249.0</ele><time>2026-05-03T10:01:01.785Z</time></trkpt><trkpt lat="54.629805" lon="-2.1044433"><ele>249.0</ele><time>2026-05-03T10:01:02.783Z</time></trkpt><trkpt lat="54.6297367" lon="-2.1042817"><ele>249.0</ele><time>2026-05-03T10:01:03.784Z</time></trkpt><trkpt lat="54.6296667" lon="-2.10413"><ele>249.0</ele><time>2026-05-03T10:01:04.785Z</time></trkpt><trkpt lat="54.629595" lon="-2.1039767"><ele>247.25</ele><time>2026-05-03T10:01:05.784Z</time></trkpt><trkpt lat="54.6295233" lon="-2.103825"><ele>245.5</ele><time>2026-05-03T10:01:06.783Z</time></trkpt><trkpt lat="54.629445" lon="-2.10366"><ele>243.75</ele><time>2026-05-03T10:01:07.784Z</time></trkpt><trkpt lat="54.62937" lon="-2.103495"><ele>242.0</ele><time>2026-05-03T10:01:08.782Z</time></trkpt><trkpt lat="54.6292933" lon="-2.1033333"><ele>243.75</ele><time>2026-05-03T10:01:09.783Z</time></trkpt><trkpt lat="54.6292217" lon="-2.1031833"><ele>245.5</ele><time>2026-05-03T10:01:10.783Z</time></trkpt><trkpt lat="54.629145" lon="-2.1030533"><ele>247.25</ele><time>2026-05-03T10:01:11.784Z</time></trkpt><trkpt lat="54.6290717" lon="-2.1028983"><ele>249.0</ele><time>2026-05-03T10:01:12.784Z</time></trkpt><trkpt lat="54.6289933" lon="-2.1027333"><ele>249.0</ele><time>2026-05-03T10:01:13.785Z</time></trkpt><trkpt lat="54.6289117" lon="-2.10256"><ele>249.0</ele><time>2026-05-03T10:01:14.783Z</time></trkpt><trkpt lat="54.628825" lon="-2.1023767"><ele>249.0</ele><time>2026-05-03T10:01:15.784Z</time></trkpt><trkpt lat="54.6287383" lon="-2.10218"><ele>249.0</ele><time>2026-05-03T10:01:16.784Z</time></trkpt><trkpt lat="54.6286483" lon="-2.1019717"><ele>248.66666666666669</ele><time>2026-05-03T10:01:17.785Z</time></trkpt><trkpt lat="54.6285567" lon="-2.10176"><ele>248.33333333333334</ele><time>2026-05-03T10:01:18.783Z</time></trkpt><trkpt lat="54.62847" lon="-2.10155"><ele>248.0</ele><time>2026-05-03T10:01:19.784Z</time></trkpt><trkpt lat="54.628385" lon="-2.1013417"><ele>248.0</ele><time>2026-05-03T10:01:20.784Z</time></trkpt><trkpt lat="54.6283083" lon="-2.1011333"><ele>248.0</ele><time>2026-05-03T10:01:21.784Z</time></trkpt><trkpt lat="54.628235" lon="-2.100925"><ele>248.0</ele><time>2026-05-03T10:01:22.787Z</time></trkpt><trkpt lat="54.6281533" lon="-2.1007117"><ele>248.0</ele><time>2026-05-03T10:01:23.783Z</time></trkpt><trkpt lat="54.6280617" lon="-2.1004983"><ele>247.33333333333334</ele><time>2026-05-03T10:01:24.784Z</time></trkpt><trkpt lat="54.6279667" lon="-2.10028"><ele>246.66666666666669</ele><time>2026-05-03T10:01:25.784Z</time></trkpt><trkpt lat="54.62787" lon="-2.1000433"><ele>246.0</ele><time>2026-05-03T10:01:26.785Z</time></trkpt><trkpt lat="54.6277683" lon="-2.0997817"><ele>246.0</ele><time>2026-05-03T10:01:27.786Z</time></trkpt><trkpt lat="54.627655" lon="-2.0994883"><ele>246.0</ele><time>2026-05-03T10:01:28.785Z</time></trkpt><trkpt lat="54.6275417" lon="-2.0991783"><ele>246.0</ele><time>2026-05-03T10:01:29.786Z</time></trkpt><trkpt lat="54.6274317" lon="-2.0988567"><ele>247.33333333333331</ele><time>2026-05-03T10:01:30.784Z</time></trkpt><trkpt lat="54.62733" lon="-2.098555"><ele>248.66666666666666</ele><time>2026-05-03T10:01:31.785Z</time></trkpt><trkpt lat="54.627225" lon="-2.098245"><ele>250.0</ele><time>2026-05-03T10:01:32.786Z</time></trkpt><trkpt lat="54.627115" lon="-2.09793"><ele>249.66666666666666</ele><time>2026-05-03T10:01:33.784Z</time></trkpt><trkpt lat="54.6270117" lon="-2.09762"><ele>249.33333333333331</ele><time>2026-05-03T10:01:34.786Z</time></trkpt><trkpt lat="54.626905" lon="-2.0973133"><ele>249.0</ele><time>2026-05-03T10:01:35.785Z</time></trkpt><trkpt lat="54.6267967" lon="-2.0970033"><ele>249.0</ele><time>2026-05-03T10:01:36.787Z</time></trkpt><trkpt lat="54.6266967" lon="-2.0966967"><ele>249.0</ele><time>2026-05-03T10:01:37.786Z</time></trkpt><trkpt lat="54.6266067" lon="-2.0963833"><ele>249.0</ele><time>2026-05-03T10:01:38.787Z</time></trkpt><trkpt lat="54.6265133" lon="-2.0960533"><ele>250.5</ele><time>2026-05-03T10:01:39.783Z</time></trkpt><trkpt lat="54.6264117" lon="-2.0957067"><ele>252.0</ele><time>2026-05-03T10:01:40.784Z</time></trkpt><trkpt lat="54.6263167" lon="-2.0953517"><ele>252.0</ele><time>2026-05-03T10:01:41.784Z</time></trkpt><trkpt lat="54.6262467" lon="-2.09498"><ele>252.0</ele><time>2026-05-03T10:01:42.785Z</time></trkpt><trkpt lat="54.6261783" lon="-2.094615"><ele>252.0</ele><time>2026-05-03T10:01:43.784Z</time></trkpt><trkpt lat="54.626125" lon="-2.094265"><ele>248.33333333333331</ele><time>2026-05-03T10:01:44.788Z</time></trkpt><trkpt lat="54.6260883" lon="-2.093915"><ele>244.66666666666666</ele><time>2026-05-03T10:01:45.785Z</time></trkpt><trkpt lat="54.6260667" lon="-2.093575"><ele>241.0</ele><time>2026-05-03T10:01:46.788Z</time></trkpt><trkpt lat="54.62606" lon="-2.0932317"><ele>241.0</ele><time>2026-05-03T10:01:47.788Z</time></trkpt><trkpt lat="54.6260633" lon="-2.09289"><ele>241.0</ele><time>2026-05-03T10:01:48.788Z</time></trkpt><trkpt lat="54.626075" lon="-2.09255"><ele>241.0</ele><time>2026-05-03T10:01:49.786Z</time></trkpt><trkpt lat="54.62609" lon="-2.0922167"><ele>240.33333333333331</ele><time>2026-05-03T10:01:50.787Z</time></trkpt><trkpt lat="54.626115" lon="-2.0918917"><ele>239.66666666666669</ele><time>2026-05-03T10:01:51.788Z</time></trkpt><trkpt lat="54.626125" lon="-2.0915733"><ele>239.0</ele><time>2026-05-03T10:01:52.788Z</time></trkpt><trkpt lat="54.62613" lon="-2.0912633"><ele>239.0</ele><time>2026-05-03T10:01:53.785Z</time></trkpt><trkpt lat="54.62613" lon="-2.0909667"><ele>239.0</ele><time>2026-05-03T10:01:54.786Z</time></trkpt><trkpt lat="54.6261267" lon="-2.0906817"><ele>239.0</ele><time>2026-05-03T10:01:55.785Z</time></trkpt><trkpt lat="54.62612" lon="-2.0904117"><ele>238.75</ele><time>2026-05-03T10:01:56.785Z</time></trkpt><trkpt lat="54.62611" lon="-2.090155"><ele>238.5</ele><time>2026-05-03T10:01:57.787Z</time></trkpt><trkpt lat="54.6260967" lon="-2.08991"><ele>238.25</ele><time>2026-05-03T10:01:58.789Z</time></trkpt><trkpt lat="54.6260817" lon="-2.0896717"><ele>238.0</ele><time>2026-05-03T10:01:59.785Z</time></trkpt><trkpt lat="54.6260583" lon="-2.08943"><ele>237.5</ele><time>2026-05-03T10:02:00.785Z</time></trkpt><trkpt lat="54.6260317" lon="-2.0891883"><ele>237.0</ele><time>2026-05-03T10:02:01.784Z</time></trkpt><trkpt lat="54.626005" lon="-2.0889483"><ele>236.5</ele><time>2026-05-03T10:02:02.784Z</time></trkpt><trkpt lat="54.62598" lon="-2.0887133"><ele>236.0</ele><time>2026-05-03T10:02:03.785Z</time></trkpt><trkpt lat="54.6259533" lon="-2.0884767"><ele>236.25</ele><time>2026-05-03T10:02:04.785Z</time></trkpt><trkpt lat="54.6259183" lon="-2.08824"><ele>236.5</ele><time>2026-05-03T10:02:05.786Z</time></trkpt><trkpt lat="54.62588" lon="-2.0880083"><ele>236.75</ele><time>2026-05-03T10:02:06.786Z</time></trkpt><trkpt lat="54.6258417" lon="-2.0877817"><ele>237.0</ele><time>2026-05-03T10:02:07.786Z</time></trkpt><trkpt lat="54.6258033" lon="-2.0875567"><ele>237.25</ele><time>2026-05-03T10:02:08.786Z</time></trkpt><trkpt lat="54.6257633" lon="-2.087335"><ele>237.5</ele><time>2026-05-03T10:02:09.784Z</time></trkpt><trkpt lat="54.625725" lon="-2.0871133"><ele>237.75</ele><time>2026-05-03T10:02:10.784Z</time></trkpt><trkpt lat="54.6256933" lon="-2.0868933"><ele>238.0</ele><time>2026-05-03T10:02:11.785Z</time></trkpt><trkpt lat="54.6256633" lon="-2.0866717"><ele>238.0</ele><time>2026-05-03T10:02:12.786Z</time></trkpt><trkpt lat="54.6256333" lon="-2.0864483"><ele>238.0</ele><time>2026-05-03T10:02:13.786Z</time></trkpt><trkpt lat="54.62561" lon="-2.0862367"><ele>238.0</ele><time>2026-05-03T10:02:14.787Z</time></trkpt><trkpt lat="54.6255833" lon="-2.0860317"><ele>238.0</ele><time>2026-05-03T10:02:15.784Z</time></trkpt><trkpt lat="54.6255617" lon="-2.085845"><ele>237.16666666666666</ele><time>2026-05-03T10:02:16.784Z</time></trkpt><trkpt lat="54.6255433" lon="-2.08567"><ele>236.33333333333331</ele><time>2026-05-03T10:02:17.786Z</time></trkpt><trkpt lat="54.6255317" lon="-2.0855117"><ele>235.5</ele><time>2026-05-03T10:02:18.786Z</time></trkpt><trkpt lat="54.6255183" lon="-2.085365"><ele>234.66666666666669</ele><time>2026-05-03T10:02:19.784Z</time></trkpt><trkpt lat="54.625525" lon="-2.0852367"><ele>233.83333333333334</ele><time>2026-05-03T10:02:20.785Z</time></trkpt><trkpt lat="54.6255433" lon="-2.0851217"><ele>233.0</ele><time>2026-05-03T10:02:21.786Z</time></trkpt><trkpt lat="54.6255817" lon="-2.08501"><ele>232.83333333333334</ele><time>2026-05-03T10:02:22.784Z</time></trkpt><trkpt lat="54.6256283" lon="-2.0849133"><ele>232.66666666666669</ele><time>2026-05-03T10:02:23.786Z</time></trkpt><trkpt lat="54.625685" lon="-2.0848083"><ele>232.5</ele><time>2026-05-03T10:02:24.788Z</time></trkpt><trkpt lat="54.625745" lon="-2.08471"><ele>232.33333333333331</ele><time>2026-05-03T10:02:25.784Z</time></trkpt><trkpt lat="54.62581" lon="-2.0846217"><ele>232.16666666666666</ele><time>2026-05-03T10:02:26.785Z</time></trkpt><trkpt lat="54.6258717" lon="-2.0845383"><ele>232.0</ele><time>2026-05-03T10:02:27.784Z</time></trkpt><trkpt lat="54.6259333" lon="-2.0844667"><ele>232.0</ele><time>2026-05-03T10:02:28.784Z</time></trkpt><trkpt lat="54.6259883" lon="-2.0844033"><ele>232.0</ele><time>2026-05-03T10:02:29.783Z</time></trkpt><trkpt lat="54.626085" lon="-2.0842917"><ele>232.0</ele><time>2026-05-03T10:02:31.787Z</time></trkpt><trkpt lat="54.626165" lon="-2.0841883"><ele>232.0</ele><time>2026-05-03T10:02:33.784Z</time></trkpt><trkpt lat="54.6262167" lon="-2.08409"><ele>232.0</ele><time>2026-05-03T10:02:35.784Z</time></trkpt><trkpt lat="54.6262217" lon="-2.0839333"><ele>232.99999999999997</ele><time>2026-05-03T10:02:38.784Z</time></trkpt><trkpt lat="54.6261633" lon="-2.08383"><ele>234.0</ele><time>2026-05-03T10:02:40.785Z</time></trkpt><trkpt lat="54.6260533" lon="-2.0837483"><ele>235.0</ele><time>2026-05-03T10:02:42.788Z</time></trkpt><trkpt lat="54.625985" lon="-2.0837167"><ele>236.0</ele><time>2026-05-03T10:02:43.784Z</time></trkpt><trkpt lat="54.62592" lon="-2.0837017"><ele>236.99999999999997</ele><time>2026-05-03T10:02:44.786Z</time></trkpt><trkpt lat="54.6258533" lon="-2.083695"><ele>238.0</ele><time>2026-05-03T10:02:45.785Z</time></trkpt><trkpt lat="54.62579" lon="-2.0836883"><ele>238.0</ele><time>2026-05-03T10:02:46.785Z</time></trkpt><trkpt lat="54.6257183" lon="-2.08369"><ele>238.0</ele><time>2026-05-03T10:02:47.787Z</time></trkpt><trkpt lat="54.6256517" lon="-2.08369"><ele>238.0</ele><time>2026-05-03T10:02:48.784Z</time></trkpt><trkpt lat="54.6255817" lon="-2.08368"><ele>238.0</ele><time>2026-05-03T10:02:49.785Z</time></trkpt><trkpt lat="54.6255183" lon="-2.0836667"><ele>238.0</ele><time>2026-05-03T10:02:50.787Z</time></trkpt><trkpt lat="54.6254533" lon="-2.0836617"><ele>238.0</ele><time>2026-05-03T10:02:51.788Z</time></trkpt><trkpt lat="54.6253867" lon="-2.083655"><ele>238.0</ele><time>2026-05-03T10:02:52.785Z</time></trkpt><trkpt lat="54.6253183" lon="-2.083645"><ele>237.33333333333331</ele><time>2026-05-03T10:02:53.784Z</time></trkpt><trkpt lat="54.6252517" lon="-2.08363"><ele>236.66666666666666</ele><time>2026-05-03T10:02:54.788Z</time></trkpt><trkpt lat="54.625145" lon="-2.0836083"><ele>236.0</ele><time>2026-05-03T10:02:56.784Z</time></trkpt><trkpt lat="54.625055" lon="-2.0835883"><ele>235.33333333333331</ele><time>2026-05-03T10:02:58.787Z</time></trkpt><trkpt lat="54.6249783" lon="-2.0835683"><ele>234.66666666666666</ele><time>2026-05-03T10:03:01.785Z</time></trkpt><trkpt lat="54.6249133" lon="-2.08354"><ele>234.0</ele><time>2026-05-03T10:03:05.785Z</time></trkpt><trkpt lat="54.6248317" lon="-2.083505"><ele>234.0</ele><time>2026-05-03T10:03:07.788Z</time></trkpt><trkpt lat="54.6247333" lon="-2.0834633"><ele>234.0</ele><time>2026-05-03T10:03:09.784Z</time></trkpt><trkpt lat="54.6246217" lon="-2.0834133"><ele>234.0</ele><time>2026-05-03T10:03:11.787Z</time></trkpt><trkpt lat="54.6245583" lon="-2.0833783"><ele>234.0</ele><time>2026-05-03T10:03:12.787Z</time></trkpt><trkpt lat="54.6244883" lon="-2.0833483"><ele>234.0</ele><time>2026-05-03T10:03:13.787Z</time></trkpt><trkpt lat="54.6244183" lon="-2.0833217"><ele>234.0</ele><time>2026-05-03T10:03:14.788Z</time></trkpt><trkpt lat="54.62434" lon="-2.083295"><ele>233.66666666666666</ele><time>2026-05-03T10:03:15.787Z</time></trkpt><trkpt lat="54.6242617" lon="-2.083265"><ele>233.33333333333331</ele><time>2026-05-03T10:03:16.788Z</time></trkpt><trkpt lat="54.6241933" lon="-2.0832317"><ele>233.0</ele><time>2026-05-03T10:03:17.785Z</time></trkpt><trkpt lat="54.6240917" lon="-2.083135"><ele>232.66666666666666</ele><time>2026-05-03T10:03:19.786Z</time></trkpt><trkpt lat="54.6240167" lon="-2.0830367"><ele>232.33333333333331</ele><time>2026-05-03T10:03:21.785Z</time></trkpt><trkpt lat="54.623935" lon="-2.0830083"><ele>232.0</ele><time>2026-05-03T10:03:23.784Z</time></trkpt><trkpt lat="54.6238433" lon="-2.08311"><ele>231.99999999999997</ele><time>2026-05-03T10:03:25.786Z</time></trkpt><trkpt lat="54.6237867" lon="-2.0831617"><ele>232.0</ele><time>2026-05-03T10:03:26.786Z</time></trkpt><trkpt lat="54.6237167" lon="-2.0832117"><ele>232.0</ele><time>2026-05-03T10:03:27.783Z</time></trkpt><trkpt lat="54.6236333" lon="-2.083265"><ele>232.0</ele><time>2026-05-03T10:03:28.785Z</time></trkpt><trkpt lat="54.6235417" lon="-2.0833133"><ele>231.99999999999997</ele><time>2026-05-03T10:03:29.788Z</time></trkpt><trkpt lat="54.623445" lon="-2.08336"><ele>232.0</ele><time>2026-05-03T10:03:30.784Z</time></trkpt><trkpt lat="54.6233467" lon="-2.0834233"><ele>231.39999999999998</ele><time>2026-05-03T10:03:31.785Z</time></trkpt><trkpt lat="54.6232333" lon="-2.0834783"><ele>230.79999999999998</ele><time>2026-05-03T10:03:32.786Z</time></trkpt><trkpt lat="54.6231233" lon="-2.0835333"><ele>230.2</ele><time>2026-05-03T10:03:33.784Z</time></trkpt><trkpt lat="54.62302" lon="-2.0835833"><ele>229.6</ele><time>2026-05-03T10:03:34.784Z</time></trkpt><trkpt lat="54.6229217" lon="-2.0836417"><ele>229.0</ele><time>2026-05-03T10:03:35.785Z</time></trkpt><trkpt lat="54.6228217" lon="-2.0837067"><ele>228.2</ele><time>2026-05-03T10:03:36.786Z</time></trkpt><trkpt lat="54.622725" lon="-2.0837633"><ele>227.39999999999998</ele><time>2026-05-03T10:03:37.785Z</time></trkpt><trkpt lat="54.62263" lon="-2.08384"><ele>226.6</ele><time>2026-05-03T10:03:38.787Z</time></trkpt><trkpt lat="54.6225383" lon="-2.0839567"><ele>225.8</ele><time>2026-05-03T10:03:39.785Z</time></trkpt><trkpt lat="54.622445" lon="-2.084095"><ele>225.0</ele><time>2026-05-03T10:03:40.789Z</time></trkpt><trkpt lat="54.6223567" lon="-2.0842567"><ele>223.75</ele><time>2026-05-03T10:03:41.785Z</time></trkpt><trkpt lat="54.6222767" lon="-2.0844283"><ele>222.5</ele><time>2026-05-03T10:03:42.785Z</time></trkpt><trkpt lat="54.6222" lon="-2.0845933"><ele>221.25</ele><time>2026-05-03T10:03:43.785Z</time></trkpt><trkpt lat="54.62211" lon="-2.0847317"><ele>220.0</ele><time>2026-05-03T10:03:44.787Z</time></trkpt><trkpt lat="54.622005" lon="-2.0848483"><ele>220.0</ele><time>2026-05-03T10:03:45.787Z</time></trkpt><trkpt lat="54.6218967" lon="-2.08493"><ele>220.0</ele><time>2026-05-03T10:03:46.79Z</time></trkpt><trkpt lat="54.6217817" lon="-2.084995"><ele>220.0</ele><time>2026-05-03T10:03:47.785Z</time></trkpt><trkpt lat="54.6216567" lon="-2.0850417"><ele>220.0</ele><time>2026-05-03T10:03:48.786Z</time></trkpt><trkpt lat="54.6215033" lon="-2.0850633"><ele>220.0</ele><time>2026-05-03T10:03:49.787Z</time></trkpt><trkpt lat="54.62133" lon="-2.085065"><ele>220.0</ele><time>2026-05-03T10:03:50.786Z</time></trkpt><trkpt lat="54.621145" lon="-2.0850583"><ele>220.0</ele><time>2026-05-03T10:03:51.786Z</time></trkpt><trkpt lat="54.6209533" lon="-2.0850533"><ele>220.0</ele><time>2026-05-03T10:03:52.786Z</time></trkpt><trkpt lat="54.6207583" lon="-2.085055"><ele>220.0</ele><time>2026-05-03T10:03:53.787Z</time></trkpt><trkpt lat="54.6205533" lon="-2.0850567"><ele>220.0</ele><time>2026-05-03T10:03:54.786Z</time></trkpt><trkpt lat="54.6203417" lon="-2.08506"><ele>222.33333333333331</ele><time>2026-05-03T10:03:55.786Z</time></trkpt><trkpt lat="54.6201267" lon="-2.0850683"><ele>224.66666666666669</ele><time>2026-05-03T10:03:56.785Z</time></trkpt><trkpt lat="54.61992" lon="-2.0850783"><ele>227.0</ele><time>2026-05-03T10:03:57.786Z</time></trkpt><trkpt lat="54.61973" lon="-2.0850867"><ele>227.0</ele><time>2026-05-03T10:03:58.785Z</time></trkpt><trkpt lat="54.6195533" lon="-2.0850917"><ele>227.0</ele><time>2026-05-03T10:03:59.786Z</time></trkpt><trkpt lat="54.6193783" lon="-2.0851"><ele>227.0</ele><time>2026-05-03T10:04:00.786Z</time></trkpt><trkpt lat="54.619215" lon="-2.0851033"><ele>229.0</ele><time>2026-05-03T10:04:01.786Z</time></trkpt><trkpt lat="54.619075" lon="-2.0851017"><ele>231.0</ele><time>2026-05-03T10:04:02.787Z</time></trkpt><trkpt lat="54.6189567" lon="-2.0850967"><ele>233.0</ele><time>2026-05-03T10:04:03.785Z</time></trkpt><trkpt lat="54.6188533" lon="-2.085095"><ele>235.0</ele><time>2026-05-03T10:04:04.786Z</time></trkpt><trkpt lat="54.61876" lon="-2.08508"><ele>235.0</ele><time>2026-05-03T10:04:05.785Z</time></trkpt><trkpt lat="54.6186733" lon="-2.0850433"><ele>235.0</ele><time>2026-05-03T10:04:06.785Z</time></trkpt><trkpt lat="54.618595" lon="-2.0849467"><ele>235.0</ele><time>2026-05-03T10:04:07.785Z</time></trkpt><trkpt lat="54.618505" lon="-2.0848433"><ele>235.0</ele><time>2026-05-03T10:04:08.785Z</time></trkpt><trkpt lat="54.6184217" lon="-2.0846883"><ele>235.0</ele><time>2026-05-03T10:04:09.787Z</time></trkpt><trkpt lat="54.6183217" lon="-2.0845283"><ele>236.33333333333331</ele><time>2026-05-03T10:04:10.785Z</time></trkpt><trkpt lat="54.6182117" lon="-2.0843583"><ele>237.66666666666669</ele><time>2026-05-03T10:04:11.786Z</time></trkpt><trkpt lat="54.6181" lon="-2.08418"><ele>239.0</ele><time>2026-05-03T10:04:12.784Z</time></trkpt><trkpt lat="54.6179883" lon="-2.083985"><ele>239.0</ele><time>2026-05-03T10:04:13.786Z</time></trkpt><trkpt lat="54.6178683" lon="-2.08378"><ele>239.0</ele><time>2026-05-03T10:04:14.786Z</time></trkpt><trkpt lat="54.6177483" lon="-2.0835683"><ele>239.0</ele><time>2026-05-03T10:04:15.785Z</time></trkpt><trkpt lat="54.6176317" lon="-2.0833617"><ele>240.33333333333334</ele><time>2026-05-03T10:04:16.785Z</time></trkpt><trkpt lat="54.6175233" lon="-2.083155"><ele>241.66666666666669</ele><time>2026-05-03T10:04:17.786Z</time></trkpt><trkpt lat="54.61743" lon="-2.0829683"><ele>243.0</ele><time>2026-05-03T10:04:18.786Z</time></trkpt><trkpt lat="54.617345" lon="-2.0827617"><ele>243.0</ele><time>2026-05-03T10:04:19.786Z</time></trkpt><trkpt lat="54.61725" lon="-2.08253"><ele>243.0</ele><time>2026-05-03T10:04:20.789Z</time></trkpt><trkpt lat="54.6171533" lon="-2.082305"><ele>243.0</ele><time>2026-05-03T10:04:21.786Z</time></trkpt><trkpt lat="54.617065" lon="-2.08209"><ele>243.25</ele><time>2026-05-03T10:04:22.787Z</time></trkpt><trkpt lat="54.616985" lon="-2.0818833"><ele>243.5</ele><time>2026-05-03T10:04:23.786Z</time></trkpt><trkpt lat="54.6169133" lon="-2.081665"><ele>243.75</ele><time>2026-05-03T10:04:24.786Z</time></trkpt><trkpt lat="54.6168467" lon="-2.0814367"><ele>244.0</ele><time>2026-05-03T10:04:25.786Z</time></trkpt><trkpt lat="54.616795" lon="-2.0811933"><ele>243.0</ele><time>2026-05-03T10:04:26.785Z</time></trkpt><trkpt lat="54.6167517" lon="-2.0809467"><ele>242.0</ele><time>2026-05-03T10:04:27.785Z</time></trkpt><trkpt lat="54.616715" lon="-2.0807167"><ele>241.0</ele><time>2026-05-03T10:04:28.786Z</time></trkpt><trkpt lat="54.616685" lon="-2.0805033"><ele>240.0</ele><time>2026-05-03T10:04:29.786Z</time></trkpt><trkpt lat="54.6166667" lon="-2.0803083"><ele>239.6</ele><time>2026-05-03T10:04:30.785Z</time></trkpt><trkpt lat="54.6166433" lon="-2.0801217"><ele>239.2</ele><time>2026-05-03T10:04:31.789Z</time></trkpt><trkpt lat="54.616615" lon="-2.0799383"><ele>238.8</ele><time>2026-05-03T10:04:32.786Z</time></trkpt><trkpt lat="54.6165783" lon="-2.0797633"><ele>238.4</ele><time>2026-05-03T10:04:33.786Z</time></trkpt><trkpt lat="54.6165467" lon="-2.079605"><ele>238.0</ele><time>2026-05-03T10:04:34.785Z</time></trkpt><trkpt lat="54.6164983" lon="-2.0794517"><ele>237.75</ele><time>2026-05-03T10:04:35.786Z</time></trkpt><trkpt lat="54.6164283" lon="-2.0792817"><ele>237.5</ele><time>2026-05-03T10:04:36.787Z</time></trkpt><trkpt lat="54.6163383" lon="-2.0790783"><ele>237.25</ele><time>2026-05-03T10:04:37.787Z</time></trkpt><trkpt lat="54.6162383" lon="-2.0788467"><ele>237.0</ele><time>2026-05-03T10:04:38.786Z</time></trkpt><trkpt lat="54.6161283" lon="-2.0785867"><ele>238.66666666666669</ele><time>2026-05-03T10:04:39.786Z</time></trkpt><trkpt lat="54.6160067" lon="-2.078305"><ele>240.33333333333334</ele><time>2026-05-03T10:04:40.786Z</time></trkpt><trkpt lat="54.6158817" lon="-2.0780117"><ele>242.0</ele><time>2026-05-03T10:04:41.786Z</time></trkpt><trkpt lat="54.6157533" lon="-2.077705"><ele>240.0</ele><time>2026-05-03T10:04:42.786Z</time></trkpt><trkpt lat="54.61563" lon="-2.0773867"><ele>238.0</ele><time>2026-05-03T10:04:43.785Z</time></trkpt><trkpt lat="54.61549" lon="-2.077075"><ele>238.0</ele><time>2026-05-03T10:04:44.786Z</time></trkpt><trkpt lat="54.615355" lon="-2.076765"><ele>238.0</ele><time>2026-05-03T10:04:45.786Z</time></trkpt><trkpt lat="54.615235" lon="-2.0764567"><ele>238.0</ele><time>2026-05-03T10:04:46.787Z</time></trkpt><trkpt lat="54.6151067" lon="-2.076165"><ele>240.33333333333331</ele><time>2026-05-03T10:04:47.786Z</time></trkpt><trkpt lat="54.6149867" lon="-2.0758717"><ele>242.66666666666669</ele><time>2026-05-03T10:04:48.785Z</time></trkpt><trkpt lat="54.61486" lon="-2.0755867"><ele>245.0</ele><time>2026-05-03T10:04:49.787Z</time></trkpt><trkpt lat="54.614735" lon="-2.0753"><ele>245.0</ele><time>2026-05-03T10:04:50.786Z</time></trkpt><trkpt lat="54.61461" lon="-2.0750083"><ele>245.0</ele><time>2026-05-03T10:04:51.785Z</time></trkpt><trkpt lat="54.6144867" lon="-2.0747233"><ele>245.0</ele><time>2026-05-03T10:04:52.786Z</time></trkpt><trkpt lat="54.614365" lon="-2.07444"><ele>247.66666666666669</ele><time>2026-05-03T10:04:53.786Z</time></trkpt><trkpt lat="54.6142433" lon="-2.074155"><ele>250.33333333333331</ele><time>2026-05-03T10:04:54.786Z</time></trkpt><trkpt lat="54.6141283" lon="-2.07388"><ele>253.0</ele><time>2026-05-03T10:04:55.784Z</time></trkpt><trkpt lat="54.6140183" lon="-2.0736233"><ele>253.0</ele><time>2026-05-03T10:04:56.787Z</time></trkpt><trkpt lat="54.6139217" lon="-2.0733833"><ele>253.0</ele><time>2026-05-03T10:04:57.785Z</time></trkpt><trkpt lat="54.6138267" lon="-2.0731483"><ele>253.0</ele><time>2026-05-03T10:04:58.786Z</time></trkpt><trkpt lat="54.613735" lon="-2.0729233"><ele>252.75</ele><time>2026-05-03T10:04:59.786Z</time></trkpt><trkpt lat="54.61365" lon="-2.07272"><ele>252.5</ele><time>2026-05-03T10:05:00.786Z</time></trkpt><trkpt lat="54.6135733" lon="-2.07255"><ele>252.25</ele><time>2026-05-03T10:05:01.785Z</time></trkpt><trkpt lat="54.6134967" lon="-2.0724133"><ele>252.0</ele><time>2026-05-03T10:05:02.786Z</time></trkpt><trkpt lat="54.6134083" lon="-2.0723033"><ele>252.0</ele><time>2026-05-03T10:05:03.787Z</time></trkpt><trkpt lat="54.613305" lon="-2.072235"><ele>252.0</ele><time>2026-05-03T10:05:04.786Z</time></trkpt><trkpt lat="54.61318" lon="-2.07221"><ele>252.0</ele><time>2026-05-03T10:05:05.786Z</time></trkpt><trkpt lat="54.6130333" lon="-2.0722533"><ele>252.0</ele><time>2026-05-03T10:05:06.784Z</time></trkpt><trkpt lat="54.6128883" lon="-2.0723683"><ele>254.33333333333331</ele><time>2026-05-03T10:05:07.787Z</time></trkpt><trkpt lat="54.61275" lon="-2.0725483"><ele>256.66666666666663</ele><time>2026-05-03T10:05:08.783Z</time></trkpt><trkpt lat="54.6126233" lon="-2.072765"><ele>259.0</ele><time>2026-05-03T10:05:09.784Z</time></trkpt><trkpt lat="54.61251" lon="-2.0730283"><ele>261.66666666666663</ele><time>2026-05-03T10:05:10.786Z</time></trkpt><trkpt lat="54.6123917" lon="-2.0732917"><ele>264.3333333333333</ele><time>2026-05-03T10:05:11.788Z</time></trkpt><trkpt lat="54.612275" lon="-2.0735617"><ele>267.0</ele><time>2026-05-03T10:05:12.786Z</time></trkpt><trkpt lat="54.61216" lon="-2.07383"><ele>267.0</ele><time>2026-05-03T10:05:13.786Z</time></trkpt><trkpt lat="54.612035" lon="-2.0740933"><ele>267.0</ele><time>2026-05-03T10:05:14.786Z</time></trkpt><trkpt lat="54.6119083" lon="-2.0743633"><ele>267.0</ele><time>2026-05-03T10:05:15.785Z</time></trkpt><trkpt lat="54.6117917" lon="-2.0746367"><ele>269.0</ele><time>2026-05-03T10:05:16.785Z</time></trkpt><trkpt lat="54.6116817" lon="-2.074895"><ele>271.0</ele><time>2026-05-03T10:05:17.786Z</time></trkpt><trkpt lat="54.6115733" lon="-2.0751467"><ele>273.0</ele><time>2026-05-03T10:05:18.785Z</time></trkpt><trkpt lat="54.6114733" lon="-2.0753967"><ele>273.3333333333333</ele><time>2026-05-03T10:05:19.787Z</time></trkpt><trkpt lat="54.61138" lon="-2.075655"><ele>273.66666666666663</ele><time>2026-05-03T10:05:20.785Z</time></trkpt><trkpt lat="54.6112983" lon="-2.0759383"><ele>274.0</ele><time>2026-05-03T10:05:21.784Z</time></trkpt><trkpt lat="54.6112267" lon="-2.0762417"><ele>274.66666666666663</ele><time>2026-05-03T10:05:22.785Z</time></trkpt><trkpt lat="54.6111683" lon="-2.07656"><ele>275.3333333333333</ele><time>2026-05-03T10:05:23.784Z</time></trkpt><trkpt lat="54.6111117" lon="-2.07688"><ele>276.0</ele><time>2026-05-03T10:05:24.784Z</time></trkpt><trkpt lat="54.611055" lon="-2.07719"><ele>276.6666666666667</ele><time>2026-05-03T10:05:25.784Z</time></trkpt><trkpt lat="54.611" lon="-2.0775017"><ele>277.33333333333337</ele><time>2026-05-03T10:05:26.783Z</time></trkpt><trkpt lat="54.61095" lon="-2.07782"><ele>278.0</ele><time>2026-05-03T10:05:27.784Z</time></trkpt><trkpt lat="54.6109033" lon="-2.0781383"><ele>278.6666666666667</ele><time>2026-05-03T10:05:28.785Z</time></trkpt><trkpt lat="54.610865" lon="-2.07846"><ele>279.3333333333333</ele><time>2026-05-03T10:05:29.785Z</time></trkpt><trkpt lat="54.6108283" lon="-2.078765"><ele>280.0</ele><time>2026-05-03T10:05:30.787Z</time></trkpt><trkpt lat="54.610795" lon="-2.0790533"><ele>280.5</ele><time>2026-05-03T10:05:31.785Z</time></trkpt><trkpt lat="54.6107633" lon="-2.0793133"><ele>281.0</ele><time>2026-05-03T10:05:32.783Z</time></trkpt><trkpt lat="54.6107367" lon="-2.0795667"><ele>281.5</ele><time>2026-05-03T10:05:33.784Z</time></trkpt><trkpt lat="54.6107067" lon="-2.07979"><ele>282.0</ele><time>2026-05-03T10:05:34.783Z</time></trkpt><trkpt lat="54.610675" lon="-2.0799883"><ele>283.0</ele><time>2026-05-03T10:05:35.783Z</time></trkpt><trkpt lat="54.6106317" lon="-2.08018"><ele>284.0</ele><time>2026-05-03T10:05:36.783Z</time></trkpt><trkpt lat="54.6105617" lon="-2.0803517"><ele>285.0</ele><time>2026-05-03T10:05:37.783Z</time></trkpt><trkpt lat="54.6104617" lon="-2.080505"><ele>286.0</ele><time>2026-05-03T10:05:38.783Z</time></trkpt><trkpt lat="54.6103483" lon="-2.0806317"><ele>286.0</ele><time>2026-05-03T10:05:39.783Z</time></trkpt><trkpt lat="54.6102583" lon="-2.0807833"><ele>286.0</ele><time>2026-05-03T10:05:40.784Z</time></trkpt><trkpt lat="54.610185" lon="-2.08096"><ele>286.0</ele><time>2026-05-03T10:05:41.785Z</time></trkpt><trkpt lat="54.6101217" lon="-2.081175"><ele>286.0</ele><time>2026-05-03T10:05:42.784Z</time></trkpt><trkpt lat="54.610075" lon="-2.0813967"><ele>286.5</ele><time>2026-05-03T10:05:43.784Z</time></trkpt><trkpt lat="54.6100633" lon="-2.081635"><ele>287.0</ele><time>2026-05-03T10:05:44.784Z</time></trkpt><trkpt lat="54.61006" lon="-2.08188"><ele>287.5</ele><time>2026-05-03T10:05:45.787Z</time></trkpt><trkpt lat="54.6100583" lon="-2.08212"><ele>288.0</ele><time>2026-05-03T10:05:46.785Z</time></trkpt><trkpt lat="54.6100433" lon="-2.0823583"><ele>288.75</ele><time>2026-05-03T10:05:47.785Z</time></trkpt><trkpt lat="54.6099983" lon="-2.082575"><ele>289.5</ele><time>2026-05-03T10:05:48.784Z</time></trkpt><trkpt lat="54.6099083" lon="-2.0827633"><ele>290.25</ele><time>2026-05-03T10:05:49.784Z</time></trkpt><trkpt lat="54.609785" lon="-2.0829267"><ele>291.0</ele><time>2026-05-03T10:05:50.785Z</time></trkpt><trkpt lat="54.6096517" lon="-2.08311"><ele>291.3333333333333</ele><time>2026-05-03T10:05:51.783Z</time></trkpt><trkpt lat="54.6095283" lon="-2.08334"><ele>291.66666666666663</ele><time>2026-05-03T10:05:52.784Z</time></trkpt><trkpt lat="54.6094067" lon="-2.0835983"><ele>292.0</ele><time>2026-05-03T10:05:53.783Z</time></trkpt><trkpt lat="54.60929" lon="-2.08388"><ele>293.66666666666663</ele><time>2026-05-03T10:05:54.785Z</time></trkpt><trkpt lat="54.60917" lon="-2.0841617"><ele>295.3333333333333</ele><time>2026-05-03T10:05:55.784Z</time></trkpt><trkpt lat="54.6090567" lon="-2.084435"><ele>297.0</ele><time>2026-05-03T10:05:56.785Z</time></trkpt><trkpt lat="54.6089467" lon="-2.0846933"><ele>297.0</ele><time>2026-05-03T10:05:57.784Z</time></trkpt><trkpt lat="54.6088367" lon="-2.084925"><ele>297.0</ele><time>2026-05-03T10:05:58.785Z</time></trkpt><trkpt lat="54.608735" lon="-2.085145"><ele>297.0</ele><time>2026-05-03T10:05:59.784Z</time></trkpt><trkpt lat="54.6086283" lon="-2.0853467"><ele>295.75</ele><time>2026-05-03T10:06:00.784Z</time></trkpt><trkpt lat="54.6085183" lon="-2.0855367"><ele>294.5</ele><time>2026-05-03T10:06:01.785Z</time></trkpt><trkpt lat="54.608415" lon="-2.085715"><ele>293.25</ele><time>2026-05-03T10:06:02.785Z</time></trkpt><trkpt lat="54.6083217" lon="-2.0858683"><ele>292.0</ele><time>2026-05-03T10:06:03.784Z</time></trkpt><trkpt lat="54.6082417" lon="-2.08601"><ele>292.0</ele><time>2026-05-03T10:06:04.784Z</time></trkpt><trkpt lat="54.608185" lon="-2.0861667"><ele>292.0</ele><time>2026-05-03T10:06:05.783Z</time></trkpt><trkpt lat="54.60815" lon="-2.0863333"><ele>292.0</ele><time>2026-05-03T10:06:06.784Z</time></trkpt><trkpt lat="54.6081467" lon="-2.086525"><ele>292.0</ele><time>2026-05-03T10:06:07.783Z</time></trkpt><trkpt lat="54.6081567" lon="-2.0867383"><ele>292.0</ele><time>2026-05-03T10:06:08.782Z</time></trkpt><trkpt lat="54.6082017" lon="-2.086985"><ele>293.75</ele><time>2026-05-03T10:06:09.784Z</time></trkpt><trkpt lat="54.60824" lon="-2.08722"><ele>295.5</ele><time>2026-05-03T10:06:10.785Z</time></trkpt><trkpt lat="54.608275" lon="-2.0874333"><ele>297.25</ele><time>2026-05-03T10:06:11.785Z</time></trkpt><trkpt lat="54.608285" lon="-2.08761"><ele>299.0</ele><time>2026-05-03T10:06:12.786Z</time></trkpt><trkpt lat="54.6082833" lon="-2.087765"><ele>300.25</ele><time>2026-05-03T10:06:13.787Z</time></trkpt><trkpt lat="54.6082717" lon="-2.0879317"><ele>301.5</ele><time>2026-05-03T10:06:14.784Z</time></trkpt><trkpt lat="54.608245" lon="-2.08812"><ele>302.75</ele><time>2026-05-03T10:06:15.786Z</time></trkpt><trkpt lat="54.6082133" lon="-2.0883217"><ele>304.0</ele><time>2026-05-03T10:06:16.784Z</time></trkpt><trkpt lat="54.60818" lon="-2.08856"><ele>305.66666666666663</ele><time>2026-05-03T10:06:17.784Z</time></trkpt><trkpt lat="54.60815" lon="-2.08882"><ele>307.3333333333333</ele><time>2026-05-03T10:06:18.784Z</time></trkpt><trkpt lat="54.60812" lon="-2.08911"><ele>309.0</ele><time>2026-05-03T10:06:19.785Z</time></trkpt><trkpt lat="54.6080833" lon="-2.089415"><ele>310.0</ele><time>2026-05-03T10:06:20.787Z</time></trkpt><trkpt lat="54.60804" lon="-2.0897333"><ele>311.0</ele><time>2026-05-03T10:06:21.784Z</time></trkpt><trkpt lat="54.6079867" lon="-2.090065"><ele>312.0</ele><time>2026-05-03T10:06:22.788Z</time></trkpt><trkpt lat="54.6079217" lon="-2.0904017"><ele>313.6666666666667</ele><time>2026-05-03T10:06:23.783Z</time></trkpt><trkpt lat="54.6078483" lon="-2.0907433"><ele>315.33333333333337</ele><time>2026-05-03T10:06:24.785Z</time></trkpt><trkpt lat="54.607775" lon="-2.0910817"><ele>317.0</ele><time>2026-05-03T10:06:25.785Z</time></trkpt><trkpt lat="54.6076983" lon="-2.0914067"><ele>320.0</ele><time>2026-05-03T10:06:26.786Z</time></trkpt><trkpt lat="54.60762" lon="-2.0917083"><ele>323.0</ele><time>2026-05-03T10:06:27.786Z</time></trkpt><trkpt lat="54.60754" lon="-2.0919917"><ele>326.0</ele><time>2026-05-03T10:06:28.786Z</time></trkpt><trkpt lat="54.6074483" lon="-2.0922517"><ele>326.6666666666667</ele><time>2026-05-03T10:06:29.786Z</time></trkpt><trkpt lat="54.6073383" lon="-2.0924717"><ele>327.3333333333333</ele><time>2026-05-03T10:06:30.785Z</time></trkpt><trkpt lat="54.6072233" lon="-2.0926617"><ele>328.0</ele><time>2026-05-03T10:06:31.786Z</time></trkpt><trkpt lat="54.6071233" lon="-2.092855"><ele>328.0</ele><time>2026-05-03T10:06:32.786Z</time></trkpt><trkpt lat="54.6070383" lon="-2.0930683"><ele>328.0</ele><time>2026-05-03T10:06:33.786Z</time></trkpt><trkpt lat="54.6069733" lon="-2.0933233"><ele>328.0</ele><time>2026-05-03T10:06:34.786Z</time></trkpt><trkpt lat="54.6069267" lon="-2.0936033"><ele>329.0</ele><time>2026-05-03T10:06:35.786Z</time></trkpt><trkpt lat="54.6068933" lon="-2.0939133"><ele>330.0</ele><time>2026-05-03T10:06:36.787Z</time></trkpt><trkpt lat="54.6068617" lon="-2.0942417"><ele>331.0</ele><time>2026-05-03T10:06:37.787Z</time></trkpt><trkpt lat="54.60683" lon="-2.09457"><ele>332.0</ele><time>2026-05-03T10:06:38.786Z</time></trkpt><trkpt lat="54.6067867" lon="-2.094875"><ele>333.0</ele><time>2026-05-03T10:06:39.787Z</time></trkpt><trkpt lat="54.606735" lon="-2.0951633"><ele>334.0</ele><time>2026-05-03T10:06:40.787Z</time></trkpt><trkpt lat="54.60668" lon="-2.095435"><ele>335.3333333333333</ele><time>2026-05-03T10:06:41.786Z</time></trkpt><trkpt lat="54.6066367" lon="-2.0957233"><ele>336.6666666666667</ele><time>2026-05-03T10:06:42.786Z</time></trkpt><trkpt lat="54.6066167" lon="-2.0960333"><ele>338.0</ele><time>2026-05-03T10:06:43.786Z</time></trkpt><trkpt lat="54.6066167" lon="-2.0963583"><ele>340.6666666666667</ele><time>2026-05-03T10:06:44.786Z</time></trkpt><trkpt lat="54.6066267" lon="-2.096685"><ele>343.3333333333333</ele><time>2026-05-03T10:06:45.785Z</time></trkpt><trkpt lat="54.6066383" lon="-2.0969867"><ele>346.0</ele><time>2026-05-03T10:06:46.787Z</time></trkpt><trkpt lat="54.6066433" lon="-2.097255"><ele>347.3333333333333</ele><time>2026-05-03T10:06:47.785Z</time></trkpt><trkpt lat="54.6066317" lon="-2.0975117"><ele>348.6666666666667</ele><time>2026-05-03T10:06:48.787Z</time></trkpt><trkpt lat="54.6065967" lon="-2.0977833"><ele>350.0</ele><time>2026-05-03T10:06:49.787Z</time></trkpt><trkpt lat="54.6065383" lon="-2.0980733"><ele>351.33333333333337</ele><time>2026-05-03T10:06:50.786Z</time></trkpt><trkpt lat="54.6064533" lon="-2.0983567"><ele>352.6666666666667</ele><time>2026-05-03T10:06:51.787Z</time></trkpt><trkpt lat="54.60636" lon="-2.098645"><ele>354.0</ele><time>2026-05-03T10:06:52.785Z</time></trkpt><trkpt lat="54.6062633" lon="-2.0989367"><ele>355.6666666666667</ele><time>2026-05-03T10:06:53.784Z</time></trkpt><trkpt lat="54.6061633" lon="-2.0992317"><ele>357.33333333333337</ele><time>2026-05-03T10:06:54.785Z</time></trkpt><trkpt lat="54.6060617" lon="-2.0995117"><ele>359.0</ele><time>2026-05-03T10:06:55.785Z</time></trkpt><trkpt lat="54.605965" lon="-2.0997733"><ele>356.0</ele><time>2026-05-03T10:06:56.784Z</time></trkpt><trkpt lat="54.605875" lon="-2.1000183"><ele>353.0</ele><time>2026-05-03T10:06:57.783Z</time></trkpt><trkpt lat="54.6058017" lon="-2.100275"><ele>350.0</ele><time>2026-05-03T10:06:58.784Z</time></trkpt><trkpt lat="54.60574" lon="-2.10053"><ele>351.0</ele><time>2026-05-03T10:06:59.785Z</time></trkpt><trkpt lat="54.605695" lon="-2.100805"><ele>352.0</ele><time>2026-05-03T10:07:00.785Z</time></trkpt><trkpt lat="54.6056483" lon="-2.1010683"><ele>353.0</ele><time>2026-05-03T10:07:01.786Z</time></trkpt><trkpt lat="54.60559" lon="-2.1013067"><ele>353.0</ele><time>2026-05-03T10:07:02.787Z</time></trkpt><trkpt lat="54.6055233" lon="-2.1015367"><ele>353.0</ele><time>2026-05-03T10:07:03.784Z</time></trkpt><trkpt lat="54.60543" lon="-2.10175"><ele>353.0</ele><time>2026-05-03T10:07:04.782Z</time></trkpt><trkpt lat="54.6053083" lon="-2.1019567"><ele>352.0</ele><time>2026-05-03T10:07:05.785Z</time></trkpt><trkpt lat="54.6051717" lon="-2.1021633"><ele>351.0</ele><time>2026-05-03T10:07:06.783Z</time></trkpt><trkpt lat="54.605005" lon="-2.1023717"><ele>350.0</ele><time>2026-05-03T10:07:07.785Z</time></trkpt><trkpt lat="54.6048367" lon="-2.1025817"><ele>350.0</ele><time>2026-05-03T10:07:08.783Z</time></trkpt><trkpt lat="54.6046783" lon="-2.10279"><ele>350.0</ele><time>2026-05-03T10:07:09.784Z</time></trkpt><trkpt lat="54.6045367" lon="-2.1029833"><ele>350.0</ele><time>2026-05-03T10:07:10.784Z</time></trkpt><trkpt lat="54.60441" lon="-2.1031667"><ele>349.6666666666667</ele><time>2026-05-03T10:07:11.785Z</time></trkpt><trkpt lat="54.6042967" lon="-2.1033517"><ele>349.3333333333333</ele><time>2026-05-03T10:07:12.784Z</time></trkpt><trkpt lat="54.6041917" lon="-2.1035633"><ele>349.0</ele><time>2026-05-03T10:07:13.785Z</time></trkpt><trkpt lat="54.6041017" lon="-2.1038067"><ele>349.0</ele><time>2026-05-03T10:07:14.784Z</time></trkpt><trkpt lat="54.604025" lon="-2.1040567"><ele>349.0</ele><time>2026-05-03T10:07:15.783Z</time></trkpt><trkpt lat="54.6039533" lon="-2.1042983"><ele>349.0</ele><time>2026-05-03T10:07:16.786Z</time></trkpt><trkpt lat="54.60386" lon="-2.1045283"><ele>349.0</ele><time>2026-05-03T10:07:17.786Z</time></trkpt><trkpt lat="54.6037483" lon="-2.1047467"><ele>349.0</ele><time>2026-05-03T10:07:18.786Z</time></trkpt><trkpt lat="54.60363" lon="-2.10497"><ele>349.0</ele><time>2026-05-03T10:07:19.783Z</time></trkpt><trkpt lat="54.6035183" lon="-2.1052117"><ele>350.0</ele><time>2026-05-03T10:07:20.784Z</time></trkpt><trkpt lat="54.6034233" lon="-2.1055"><ele>351.0</ele><time>2026-05-03T10:07:21.783Z</time></trkpt><trkpt lat="54.6033367" lon="-2.10581"><ele>352.0</ele><time>2026-05-03T10:07:22.787Z</time></trkpt><trkpt lat="54.6032467" lon="-2.1061233"><ele>352.0</ele><time>2026-05-03T10:07:23.785Z</time></trkpt><trkpt lat="54.6031583" lon="-2.106425"><ele>352.0</ele><time>2026-05-03T10:07:24.784Z</time></trkpt><trkpt lat="54.6030733" lon="-2.1066983"><ele>352.0</ele><time>2026-05-03T10:07:25.785Z</time></trkpt><trkpt lat="54.6029917" lon="-2.1069333"><ele>352.0</ele><time>2026-05-03T10:07:26.787Z</time></trkpt><trkpt lat="54.6028933" lon="-2.1071367"><ele>352.0</ele><time>2026-05-03T10:07:27.783Z</time></trkpt><trkpt lat="54.60278" lon="-2.1073133"><ele>352.0</ele><time>2026-05-03T10:07:28.784Z</time></trkpt><trkpt lat="54.602645" lon="-2.1074633"><ele>352.0</ele><time>2026-05-03T10:07:29.784Z</time></trkpt><trkpt lat="54.602495" lon="-2.1075933"><ele>352.0</ele><time>2026-05-03T10:07:30.783Z</time></trkpt><trkpt lat="54.6023433" lon="-2.1077267"><ele>352.0</ele><time>2026-05-03T10:07:31.785Z</time></trkpt><trkpt lat="54.6022033" lon="-2.107875"><ele>352.0</ele><time>2026-05-03T10:07:32.785Z</time></trkpt><trkpt lat="54.6020817" lon="-2.1080417"><ele>352.0</ele><time>2026-05-03T10:07:33.783Z</time></trkpt><trkpt lat="54.6019783" lon="-2.10823"><ele>352.0</ele><time>2026-05-03T10:07:34.788Z</time></trkpt><trkpt lat="54.6018767" lon="-2.1084283"><ele>350.66666666666663</ele><time>2026-05-03T10:07:35.782Z</time></trkpt><trkpt lat="54.60177" lon="-2.1086233"><ele>349.3333333333333</ele><time>2026-05-03T10:07:36.784Z</time></trkpt><trkpt lat="54.6016467" lon="-2.108795"><ele>348.0</ele><time>2026-05-03T10:07:37.784Z</time></trkpt><trkpt lat="54.6015183" lon="-2.1089317"><ele>348.0</ele><time>2026-05-03T10:07:38.787Z</time></trkpt><trkpt lat="54.6013983" lon="-2.1090517"><ele>348.0</ele><time>2026-05-03T10:07:39.787Z</time></trkpt><trkpt lat="54.6012983" lon="-2.1091683"><ele>348.0</ele><time>2026-05-03T10:07:40.784Z</time></trkpt><trkpt lat="54.6012083" lon="-2.1092883"><ele>348.0</ele><time>2026-05-03T10:07:41.784Z</time></trkpt><trkpt lat="54.6011333" lon="-2.1094333"><ele>347.0</ele><time>2026-05-03T10:07:42.783Z</time></trkpt><trkpt lat="54.6010617" lon="-2.1096033"><ele>346.0</ele><time>2026-05-03T10:07:43.783Z</time></trkpt><trkpt lat="54.60099" lon="-2.1097917"><ele>345.0</ele><time>2026-05-03T10:07:44.782Z</time></trkpt><trkpt lat="54.60092" lon="-2.1099933"><ele>344.0</ele><time>2026-05-03T10:07:45.784Z</time></trkpt><trkpt lat="54.6008533" lon="-2.1102067"><ele>344.0</ele><time>2026-05-03T10:07:46.784Z</time></trkpt><trkpt lat="54.6007967" lon="-2.1104283"><ele>344.0</ele><time>2026-05-03T10:07:47.785Z</time></trkpt><trkpt lat="54.60075" lon="-2.1106383"><ele>344.0</ele><time>2026-05-03T10:07:48.783Z</time></trkpt><trkpt lat="54.6007283" lon="-2.1108567"><ele>344.0</ele><time>2026-05-03T10:07:49.785Z</time></trkpt><trkpt lat="54.6007267" lon="-2.11109"><ele>344.5</ele><time>2026-05-03T10:07:50.787Z</time></trkpt><trkpt lat="54.600735" lon="-2.1113183"><ele>345.0</ele><time>2026-05-03T10:07:51.784Z</time></trkpt><trkpt lat="54.6007433" lon="-2.1115267"><ele>345.5</ele><time>2026-05-03T10:07:52.784Z</time></trkpt><trkpt lat="54.600735" lon="-2.111725"><ele>346.0</ele><time>2026-05-03T10:07:53.787Z</time></trkpt><trkpt lat="54.6006983" lon="-2.1119183"><ele>346.0</ele><time>2026-05-03T10:07:54.785Z</time></trkpt><trkpt lat="54.6006267" lon="-2.1121133"><ele>346.0</ele><time>2026-05-03T10:07:55.784Z</time></trkpt><trkpt lat="54.6005183" lon="-2.1123267"><ele>346.0</ele><time>2026-05-03T10:07:56.787Z</time></trkpt><trkpt lat="54.6004" lon="-2.112565"><ele>344.0</ele><time>2026-05-03T10:07:57.784Z</time></trkpt><trkpt lat="54.6002783" lon="-2.1128283"><ele>342.0</ele><time>2026-05-03T10:07:58.784Z</time></trkpt><trkpt lat="54.60015" lon="-2.1131083"><ele>340.0</ele><time>2026-05-03T10:07:59.784Z</time></trkpt><trkpt lat="54.6000167" lon="-2.11341"><ele>340.0</ele><time>2026-05-03T10:08:00.785Z</time></trkpt><trkpt lat="54.59988" lon="-2.11373"><ele>340.0</ele><time>2026-05-03T10:08:01.785Z</time></trkpt><trkpt lat="54.5997367" lon="-2.11406"><ele>340.0</ele><time>2026-05-03T10:08:02.785Z</time></trkpt><trkpt lat="54.5995917" lon="-2.1143967"><ele>340.0</ele><time>2026-05-03T10:08:03.786Z</time></trkpt><trkpt lat="54.5994433" lon="-2.1147417"><ele>340.5</ele><time>2026-05-03T10:08:04.785Z</time></trkpt><trkpt lat="54.5992933" lon="-2.1150933"><ele>341.0</ele><time>2026-05-03T10:08:05.785Z</time></trkpt><trkpt lat="54.5991467" lon="-2.1154383"><ele>341.5</ele><time>2026-05-03T10:08:06.785Z</time></trkpt><trkpt lat="54.599005" lon="-2.1157783"><ele>342.0</ele><time>2026-05-03T10:08:07.786Z</time></trkpt><trkpt lat="54.5988717" lon="-2.1161117"><ele>342.0</ele><time>2026-05-03T10:08:08.785Z</time></trkpt><trkpt lat="54.5987317" lon="-2.1164383"><ele>342.0</ele><time>2026-05-03T10:08:09.785Z</time></trkpt><trkpt lat="54.598595" lon="-2.1167617"><ele>342.0</ele><time>2026-05-03T10:08:10.786Z</time></trkpt><trkpt lat="54.5984567" lon="-2.117085"><ele>342.0</ele><time>2026-05-03T10:08:11.787Z</time></trkpt><trkpt lat="54.598315" lon="-2.117395"><ele>342.3333333333333</ele><time>2026-05-03T10:08:12.785Z</time></trkpt><trkpt lat="54.5981717" lon="-2.117695"><ele>342.66666666666663</ele><time>2026-05-03T10:08:13.786Z</time></trkpt><trkpt lat="54.5980167" lon="-2.1179717"><ele>343.0</ele><time>2026-05-03T10:08:14.787Z</time></trkpt><trkpt lat="54.597845" lon="-2.1182367"><ele>342.5</ele><time>2026-05-03T10:08:15.783Z</time></trkpt><trkpt lat="54.5976717" lon="-2.1185017"><ele>342.0</ele><time>2026-05-03T10:08:16.787Z</time></trkpt><trkpt lat="54.597495" lon="-2.1187617"><ele>342.0</ele><time>2026-05-03T10:08:17.783Z</time></trkpt><trkpt lat="54.597325" lon="-2.119025"><ele>342.0</ele><time>2026-05-03T10:08:18.784Z</time></trkpt><trkpt lat="54.5971617" lon="-2.1192933"><ele>341.3333333333333</ele><time>2026-05-03T10:08:19.783Z</time></trkpt><trkpt lat="54.5970067" lon="-2.119565"><ele>340.66666666666663</ele><time>2026-05-03T10:08:20.787Z</time></trkpt><trkpt lat="54.5968583" lon="-2.1198367"><ele>340.0</ele><time>2026-05-03T10:08:21.783Z</time></trkpt><trkpt lat="54.5967167" lon="-2.1201183"><ele>341.3333333333333</ele><time>2026-05-03T10:08:22.787Z</time></trkpt><trkpt lat="54.5965833" lon="-2.1204017"><ele>342.6666666666667</ele><time>2026-05-03T10:08:23.785Z</time></trkpt><trkpt lat="54.5964617" lon="-2.1206717"><ele>344.0</ele><time>2026-05-03T10:08:24.784Z</time></trkpt><trkpt lat="54.5963483" lon="-2.120925"><ele>345.0</ele><time>2026-05-03T10:08:25.784Z</time></trkpt><trkpt lat="54.596245" lon="-2.1211683"><ele>346.0</ele><time>2026-05-03T10:08:26.784Z</time></trkpt><trkpt lat="54.5961583" lon="-2.12141"><ele>347.0</ele><time>2026-05-03T10:08:27.783Z</time></trkpt><trkpt lat="54.5960917" lon="-2.12166"><ele>347.33333333333337</ele><time>2026-05-03T10:08:28.785Z</time></trkpt><trkpt lat="54.5960433" lon="-2.1219283"><ele>347.6666666666667</ele><time>2026-05-03T10:08:29.783Z</time></trkpt><trkpt lat="54.59602" lon="-2.1222283"><ele>348.0</ele><time>2026-05-03T10:08:30.784Z</time></trkpt><trkpt lat="54.5960083" lon="-2.1225483"><ele>348.6666666666667</ele><time>2026-05-03T10:08:31.787Z</time></trkpt><trkpt lat="54.5959883" lon="-2.1228717"><ele>349.33333333333337</ele><time>2026-05-03T10:08:32.787Z</time></trkpt><trkpt lat="54.595945" lon="-2.1231833"><ele>350.0</ele><time>2026-05-03T10:08:33.787Z</time></trkpt><trkpt lat="54.5958867" lon="-2.1234767"><ele>351.33333333333337</ele><time>2026-05-03T10:08:34.782Z</time></trkpt><trkpt lat="54.5958233" lon="-2.1237483"><ele>352.6666666666667</ele><time>2026-05-03T10:08:35.784Z</time></trkpt><trkpt lat="54.5957417" lon="-2.1239917"><ele>354.0</ele><time>2026-05-03T10:08:36.784Z</time></trkpt><trkpt lat="54.5956283" lon="-2.1242133"><ele>353.6666666666667</ele><time>2026-05-03T10:08:37.787Z</time></trkpt><trkpt lat="54.59548" lon="-2.1244067"><ele>353.33333333333337</ele><time>2026-05-03T10:08:38.784Z</time></trkpt><trkpt lat="54.5953283" lon="-2.1246133"><ele>353.0</ele><time>2026-05-03T10:08:39.783Z</time></trkpt><trkpt lat="54.5951867" lon="-2.1248367"><ele>354.0</ele><time>2026-05-03T10:08:40.784Z</time></trkpt><trkpt lat="54.59506" lon="-2.125065"><ele>355.0</ele><time>2026-05-03T10:08:41.784Z</time></trkpt><trkpt lat="54.59495" lon="-2.1253033"><ele>356.0</ele><time>2026-05-03T10:08:42.783Z</time></trkpt><trkpt lat="54.5948517" lon="-2.1255667"><ele>358.0</ele><time>2026-05-03T10:08:43.783Z</time></trkpt><trkpt lat="54.5947633" lon="-2.125875"><ele>360.0</ele><time>2026-05-03T10:08:44.789Z</time></trkpt><trkpt lat="54.5946683" lon="-2.1262067"><ele>362.0</ele><time>2026-05-03T10:08:45.785Z</time></trkpt><trkpt lat="54.59457" lon="-2.1265467"><ele>358.0</ele><time>2026-05-03T10:08:46.786Z</time></trkpt><trkpt lat="54.5944617" lon="-2.1269"><ele>354.0</ele><time>2026-05-03T10:08:47.784Z</time></trkpt><trkpt lat="54.594345" lon="-2.1272583"><ele>356.0</ele><time>2026-05-03T10:08:48.786Z</time></trkpt><trkpt lat="54.59423" lon="-2.127625"><ele>358.0</ele><time>2026-05-03T10:08:49.787Z</time></trkpt><trkpt lat="54.5941133" lon="-2.1280067"><ele>361.0</ele><time>2026-05-03T10:08:50.787Z</time></trkpt><trkpt lat="54.5939933" lon="-2.1283683"><ele>364.0</ele><time>2026-05-03T10:08:51.786Z</time></trkpt><trkpt lat="54.5938783" lon="-2.128715"><ele>367.0</ele><time>2026-05-03T10:08:52.782Z</time></trkpt><trkpt lat="54.5937667" lon="-2.1290633"><ele>370.0</ele><time>2026-05-03T10:08:53.782Z</time></trkpt><trkpt lat="54.5936583" lon="-2.1294183"><ele>364.5</ele><time>2026-05-03T10:08:54.784Z</time></trkpt><trkpt lat="54.593555" lon="-2.1297783"><ele>359.0</ele><time>2026-05-03T10:08:55.784Z</time></trkpt><trkpt lat="54.5934617" lon="-2.1301533"><ele>359.0</ele><time>2026-05-03T10:08:56.782Z</time></trkpt><trkpt lat="54.5933733" lon="-2.130535"><ele>359.0</ele><time>2026-05-03T10:08:57.782Z</time></trkpt><trkpt lat="54.5932917" lon="-2.1309"><ele>360.33333333333337</ele><time>2026-05-03T10:08:58.786Z</time></trkpt><trkpt lat="54.5932183" lon="-2.1312417"><ele>361.6666666666667</ele><time>2026-05-03T10:08:59.783Z</time></trkpt><trkpt lat="54.5931483" lon="-2.1315733"><ele>363.0</ele><time>2026-05-03T10:09:00.784Z</time></trkpt><trkpt lat="54.5930833" lon="-2.13187"><ele>363.3333333333333</ele><time>2026-05-03T10:09:01.785Z</time></trkpt><trkpt lat="54.5930283" lon="-2.1321633"><ele>363.66666666666663</ele><time>2026-05-03T10:09:02.785Z</time></trkpt><trkpt lat="54.592985" lon="-2.132475"><ele>364.0</ele><time>2026-05-03T10:09:03.782Z</time></trkpt><trkpt lat="54.5929517" lon="-2.132815"><ele>364.3333333333333</ele><time>2026-05-03T10:09:04.785Z</time></trkpt><trkpt lat="54.59293" lon="-2.1331783"><ele>364.6666666666667</ele><time>2026-05-03T10:09:05.784Z</time></trkpt><trkpt lat="54.592915" lon="-2.1335567"><ele>365.0</ele><time>2026-05-03T10:09:06.786Z</time></trkpt><trkpt lat="54.5928967" lon="-2.1339483"><ele>367.5</ele><time>2026-05-03T10:09:07.787Z</time></trkpt><trkpt lat="54.59288" lon="-2.13435"><ele>370.0</ele><time>2026-05-03T10:09:08.784Z</time></trkpt><trkpt lat="54.592865" lon="-2.1347467"><ele>370.0</ele><time>2026-05-03T10:09:09.786Z</time></trkpt><trkpt lat="54.5928517" lon="-2.1351367"><ele>370.0</ele><time>2026-05-03T10:09:10.786Z</time></trkpt><trkpt lat="54.592835" lon="-2.13551"><ele>370.0</ele><time>2026-05-03T10:09:11.788Z</time></trkpt><trkpt lat="54.5928167" lon="-2.135885"><ele>367.3333333333333</ele><time>2026-05-03T10:09:12.783Z</time></trkpt><trkpt lat="54.5928" lon="-2.13626"><ele>364.6666666666667</ele><time>2026-05-03T10:09:13.788Z</time></trkpt><trkpt lat="54.5927817" lon="-2.136635"><ele>362.0</ele><time>2026-05-03T10:09:14.786Z</time></trkpt><trkpt lat="54.5927633" lon="-2.137"><ele>362.0</ele><time>2026-05-03T10:09:15.786Z</time></trkpt><trkpt lat="54.5927433" lon="-2.1373683"><ele>362.0</ele><time>2026-05-03T10:09:16.785Z</time></trkpt><trkpt lat="54.5927233" lon="-2.13774"><ele>362.0</ele><time>2026-05-03T10:09:17.787Z</time></trkpt><trkpt lat="54.5927017" lon="-2.1381083"><ele>363.0</ele><time>2026-05-03T10:09:18.785Z</time></trkpt><trkpt lat="54.5926833" lon="-2.1384833"><ele>364.0</ele><time>2026-05-03T10:09:19.784Z</time></trkpt><trkpt lat="54.5926667" lon="-2.1388583"><ele>365.0</ele><time>2026-05-03T10:09:20.786Z</time></trkpt><trkpt lat="54.5926517" lon="-2.1392417"><ele>366.0</ele><time>2026-05-03T10:09:21.784Z</time></trkpt><trkpt lat="54.5926383" lon="-2.1396283"><ele>367.0</ele><time>2026-05-03T10:09:22.789Z</time></trkpt><trkpt lat="54.5926233" lon="-2.1400167"><ele>368.5</ele><time>2026-05-03T10:09:23.782Z</time></trkpt><trkpt lat="54.5926083" lon="-2.1404083"><ele>370.0</ele><time>2026-05-03T10:09:24.786Z</time></trkpt><trkpt lat="54.59259" lon="-2.1407967"><ele>370.5</ele><time>2026-05-03T10:09:25.787Z</time></trkpt><trkpt lat="54.59257" lon="-2.1411883"><ele>371.0</ele><time>2026-05-03T10:09:26.784Z</time></trkpt><trkpt lat="54.59255" lon="-2.1415783"><ele>371.5</ele><time>2026-05-03T10:09:27.783Z</time></trkpt><trkpt lat="54.5925283" lon="-2.1419717"><ele>372.0</ele><time>2026-05-03T10:09:28.783Z</time></trkpt><trkpt lat="54.5925033" lon="-2.142365"><ele>372.5</ele><time>2026-05-03T10:09:29.785Z</time></trkpt><trkpt lat="54.5924817" lon="-2.1427633"><ele>373.0</ele><time>2026-05-03T10:09:30.783Z</time></trkpt><trkpt lat="54.5924583" lon="-2.1431633"><ele>374.0</ele><time>2026-05-03T10:09:31.787Z</time></trkpt><trkpt lat="54.59244" lon="-2.1435617"><ele>375.0</ele><time>2026-05-03T10:09:32.786Z</time></trkpt><trkpt lat="54.5924217" lon="-2.1439583"><ele>375.5</ele><time>2026-05-03T10:09:33.787Z</time></trkpt><trkpt lat="54.5924" lon="-2.1443483"><ele>376.0</ele><time>2026-05-03T10:09:34.786Z</time></trkpt><trkpt lat="54.5923817" lon="-2.1447433"><ele>376.5</ele><time>2026-05-03T10:09:35.786Z</time></trkpt><trkpt lat="54.59236" lon="-2.14514"><ele>377.0</ele><time>2026-05-03T10:09:36.787Z</time></trkpt><trkpt lat="54.5923367" lon="-2.1455417"><ele>377.0</ele><time>2026-05-03T10:09:37.787Z</time></trkpt><trkpt lat="54.592315" lon="-2.1459467"><ele>377.0</ele><time>2026-05-03T10:09:38.786Z</time></trkpt><trkpt lat="54.59229" lon="-2.146355"><ele>377.5</ele><time>2026-05-03T10:09:39.787Z</time></trkpt><trkpt lat="54.5922683" lon="-2.146765"><ele>378.0</ele><time>2026-05-03T10:09:40.784Z</time></trkpt><trkpt lat="54.592245" lon="-2.1471833"><ele>378.0</ele><time>2026-05-03T10:09:41.784Z</time></trkpt><trkpt lat="54.592225" lon="-2.147605"><ele>378.0</ele><time>2026-05-03T10:09:42.787Z</time></trkpt><trkpt lat="54.5922033" lon="-2.14802"><ele>378.5</ele><time>2026-05-03T10:09:43.787Z</time></trkpt><trkpt lat="54.59218" lon="-2.1484267"><ele>379.0</ele><time>2026-05-03T10:09:44.787Z</time></trkpt><trkpt lat="54.592155" lon="-2.1488267"><ele>379.0</ele><time>2026-05-03T10:09:45.787Z</time></trkpt><trkpt lat="54.5921333" lon="-2.1492217"><ele>379.0</ele><time>2026-05-03T10:09:46.789Z</time></trkpt><trkpt lat="54.5921117" lon="-2.1496117"><ele>379.66666666666663</ele><time>2026-05-03T10:09:47.787Z</time></trkpt><trkpt lat="54.5920917" lon="-2.1499983"><ele>380.3333333333333</ele><time>2026-05-03T10:09:48.788Z</time></trkpt><trkpt lat="54.59207" lon="-2.1503683"><ele>381.0</ele><time>2026-05-03T10:09:49.785Z</time></trkpt><trkpt lat="54.592045" lon="-2.1507267"><ele>381.3333333333333</ele><time>2026-05-03T10:09:50.784Z</time></trkpt><trkpt lat="54.5920133" lon="-2.1510717"><ele>381.66666666666663</ele><time>2026-05-03T10:09:51.786Z</time></trkpt><trkpt lat="54.5919817" lon="-2.15139"><ele>382.0</ele><time>2026-05-03T10:09:52.784Z</time></trkpt><trkpt lat="54.591945" lon="-2.1516967"><ele>377.3333333333333</ele><time>2026-05-03T10:09:53.784Z</time></trkpt><trkpt lat="54.5919133" lon="-2.1519883"><ele>372.6666666666667</ele><time>2026-05-03T10:09:54.782Z</time></trkpt><trkpt lat="54.5918817" lon="-2.1522767"><ele>368.0</ele><time>2026-05-03T10:09:55.785Z</time></trkpt><trkpt lat="54.5918467" lon="-2.1525683"><ele>367.6666666666667</ele><time>2026-05-03T10:09:56.784Z</time></trkpt><trkpt lat="54.5918083" lon="-2.1528683"><ele>367.3333333333333</ele><time>2026-05-03T10:09:57.784Z</time></trkpt><trkpt lat="54.591775" lon="-2.1531633"><ele>367.0</ele><time>2026-05-03T10:09:58.786Z</time></trkpt><trkpt lat="54.5917433" lon="-2.15343"><ele>367.0</ele><time>2026-05-03T10:09:59.784Z</time></trkpt><trkpt lat="54.5917183" lon="-2.153685"><ele>367.0</ele><time>2026-05-03T10:10:00.784Z</time></trkpt><trkpt lat="54.5917" lon="-2.1539267"><ele>367.0</ele><time>2026-05-03T10:10:01.783Z</time></trkpt><trkpt lat="54.5916917" lon="-2.1541683"><ele>367.0</ele><time>2026-05-03T10:10:02.784Z</time></trkpt><trkpt lat="54.5916883" lon="-2.1544133"><ele>367.0</ele><time>2026-05-03T10:10:03.784Z</time></trkpt><trkpt lat="54.5917017" lon="-2.15466"><ele>367.0</ele><time>2026-05-03T10:10:04.784Z</time></trkpt><trkpt lat="54.5917133" lon="-2.1548883"><ele>367.0</ele><time>2026-05-03T10:10:05.783Z</time></trkpt><trkpt lat="54.5917233" lon="-2.1550933"><ele>367.0</ele><time>2026-05-03T10:10:06.784Z</time></trkpt><trkpt lat="54.591725" lon="-2.1552683"><ele>366.40000000000003</ele><time>2026-05-03T10:10:07.784Z</time></trkpt><trkpt lat="54.5917217" lon="-2.1554267"><ele>365.8</ele><time>2026-05-03T10:10:08.783Z</time></trkpt><trkpt lat="54.5917067" lon="-2.155575"><ele>365.2</ele><time>2026-05-03T10:10:09.782Z</time></trkpt><trkpt lat="54.59168" lon="-2.1557167"><ele>364.6</ele><time>2026-05-03T10:10:10.784Z</time></trkpt><trkpt lat="54.591635" lon="-2.155855"><ele>364.0</ele><time>2026-05-03T10:10:11.783Z</time></trkpt><trkpt lat="54.5915483" lon="-2.1559833"><ele>362.3333333333333</ele><time>2026-05-03T10:10:12.784Z</time></trkpt><trkpt lat="54.591425" lon="-2.1561133"><ele>360.6666666666667</ele><time>2026-05-03T10:10:13.784Z</time></trkpt><trkpt lat="54.5912717" lon="-2.1562817"><ele>359.0</ele><time>2026-05-03T10:10:14.784Z</time></trkpt><trkpt lat="54.5911267" lon="-2.1564567"><ele>359.0</ele><time>2026-05-03T10:10:15.783Z</time></trkpt><trkpt lat="54.5910017" lon="-2.15662"><ele>359.0</ele><time>2026-05-03T10:10:16.785Z</time></trkpt><trkpt lat="54.5909" lon="-2.1567667"><ele>359.0</ele><time>2026-05-03T10:10:17.784Z</time></trkpt><trkpt lat="54.590835" lon="-2.1569183"><ele>359.0</ele><time>2026-05-03T10:10:18.783Z</time></trkpt><trkpt lat="54.5907883" lon="-2.1570867"><ele>359.0</ele><time>2026-05-03T10:10:19.784Z</time></trkpt><trkpt lat="54.59077" lon="-2.1572983"><ele>359.0</ele><time>2026-05-03T10:10:20.784Z</time></trkpt><trkpt lat="54.5907667" lon="-2.1575367"><ele>359.0</ele><time>2026-05-03T10:10:21.782Z</time></trkpt><trkpt lat="54.5907883" lon="-2.1578133"><ele>359.0</ele><time>2026-05-03T10:10:22.782Z</time></trkpt><trkpt lat="54.5908167" lon="-2.1581067"><ele>359.6666666666667</ele><time>2026-05-03T10:10:23.783Z</time></trkpt><trkpt lat="54.5908417" lon="-2.1584133"><ele>360.3333333333333</ele><time>2026-05-03T10:10:24.783Z</time></trkpt><trkpt lat="54.590875" lon="-2.1587367"><ele>361.0</ele><time>2026-05-03T10:10:25.783Z</time></trkpt><trkpt lat="54.59093" lon="-2.1590733"><ele>361.0</ele><time>2026-05-03T10:10:26.784Z</time></trkpt><trkpt lat="54.5909983" lon="-2.1594133"><ele>361.0</ele><time>2026-05-03T10:10:27.783Z</time></trkpt><trkpt lat="54.5910733" lon="-2.1597583"><ele>361.0</ele><time>2026-05-03T10:10:28.783Z</time></trkpt><trkpt lat="54.591145" lon="-2.1600933"><ele>361.3333333333333</ele><time>2026-05-03T10:10:29.787Z</time></trkpt><trkpt lat="54.59121" lon="-2.16042"><ele>361.6666666666667</ele><time>2026-05-03T10:10:30.784Z</time></trkpt><trkpt lat="54.5912583" lon="-2.1607617"><ele>362.0</ele><time>2026-05-03T10:10:31.786Z</time></trkpt><trkpt lat="54.5912833" lon="-2.1611167"><ele>362.0</ele><time>2026-05-03T10:10:32.787Z</time></trkpt><trkpt lat="54.5912917" lon="-2.1614867"><ele>362.0</ele><time>2026-05-03T10:10:33.786Z</time></trkpt><trkpt lat="54.5912967" lon="-2.1618567"><ele>362.0</ele><time>2026-05-03T10:10:34.784Z</time></trkpt><trkpt lat="54.5913033" lon="-2.162235"><ele>362.5</ele><time>2026-05-03T10:10:35.787Z</time></trkpt><trkpt lat="54.59131" lon="-2.16262"><ele>363.0</ele><time>2026-05-03T10:10:36.787Z</time></trkpt><trkpt lat="54.5913117" lon="-2.163015"><ele>364.0</ele><time>2026-05-03T10:10:37.784Z</time></trkpt><trkpt lat="54.5913183" lon="-2.1634167"><ele>365.0</ele><time>2026-05-03T10:10:38.785Z</time></trkpt><trkpt lat="54.5913217" lon="-2.1638183"><ele>366.0</ele><time>2026-05-03T10:10:39.786Z</time></trkpt><trkpt lat="54.5913283" lon="-2.1642283"><ele>367.0</ele><time>2026-05-03T10:10:40.785Z</time></trkpt><trkpt lat="54.5913383" lon="-2.1646433"><ele>368.0</ele><time>2026-05-03T10:10:41.784Z</time></trkpt><trkpt lat="54.591345" lon="-2.1650533"><ele>369.0</ele><time>2026-05-03T10:10:42.785Z</time></trkpt><trkpt lat="54.5913517" lon="-2.165465"><ele>369.0</ele><time>2026-05-03T10:10:43.784Z</time></trkpt><trkpt lat="54.5913583" lon="-2.16588"><ele>369.0</ele><time>2026-05-03T10:10:44.784Z</time></trkpt><trkpt lat="54.59137" lon="-2.1663067"><ele>369.5</ele><time>2026-05-03T10:10:45.786Z</time></trkpt><trkpt lat="54.5913783" lon="-2.1667283"><ele>370.0</ele><time>2026-05-03T10:10:46.788Z</time></trkpt><trkpt lat="54.591385" lon="-2.1671417"><ele>370.5</ele><time>2026-05-03T10:10:47.788Z</time></trkpt><trkpt lat="54.59139" lon="-2.1675467"><ele>371.0</ele><time>2026-05-03T10:10:48.786Z</time></trkpt><trkpt lat="54.5913983" lon="-2.167955"><ele>371.5</ele><time>2026-05-03T10:10:49.787Z</time></trkpt><trkpt lat="54.5914017" lon="-2.1683583"><ele>372.0</ele><time>2026-05-03T10:10:50.785Z</time></trkpt><trkpt lat="54.5914067" lon="-2.1687683"><ele>372.5</ele><time>2026-05-03T10:10:51.787Z</time></trkpt><trkpt lat="54.5914117" lon="-2.1691833"><ele>373.0</ele><time>2026-05-03T10:10:52.787Z</time></trkpt><trkpt lat="54.5914167" lon="-2.1696"><ele>374.0</ele><time>2026-05-03T10:10:53.788Z</time></trkpt><trkpt lat="54.5914217" lon="-2.17002"><ele>375.0</ele><time>2026-05-03T10:10:54.784Z</time></trkpt><trkpt lat="54.5914267" lon="-2.1704333"><ele>375.5</ele><time>2026-05-03T10:10:55.785Z</time></trkpt><trkpt lat="54.5914317" lon="-2.1708417"><ele>376.0</ele><time>2026-05-03T10:10:56.785Z</time></trkpt><trkpt lat="54.5914383" lon="-2.1712533"><ele>376.0</ele><time>2026-05-03T10:10:57.784Z</time></trkpt><trkpt lat="54.591445" lon="-2.171665"><ele>376.0</ele><time>2026-05-03T10:10:58.785Z</time></trkpt><trkpt lat="54.5914517" lon="-2.1720783"><ele>376.5</ele><time>2026-05-03T10:10:59.787Z</time></trkpt><trkpt lat="54.5914583" lon="-2.172505"><ele>377.0</ele><time>2026-05-03T10:11:00.787Z</time></trkpt><trkpt lat="54.5914633" lon="-2.17293"><ele>377.5</ele><time>2026-05-03T10:11:01.786Z</time></trkpt><trkpt lat="54.5914717" lon="-2.1733583"><ele>378.0</ele><time>2026-05-03T10:11:02.784Z</time></trkpt><trkpt lat="54.5914817" lon="-2.1737967"><ele>378.5</ele><time>2026-05-03T10:11:03.787Z</time></trkpt><trkpt lat="54.5914883" lon="-2.17422"><ele>379.0</ele><time>2026-05-03T10:11:04.787Z</time></trkpt><trkpt lat="54.591495" lon="-2.17462"><ele>379.0</ele><time>2026-05-03T10:11:05.787Z</time></trkpt><trkpt lat="54.5915" lon="-2.1749967"><ele>379.0</ele><time>2026-05-03T10:11:06.787Z</time></trkpt><trkpt lat="54.5915033" lon="-2.1753567"><ele>379.0</ele><time>2026-05-03T10:11:07.784Z</time></trkpt><trkpt lat="54.5915083" lon="-2.1756933"><ele>379.5</ele><time>2026-05-03T10:11:08.788Z</time></trkpt><trkpt lat="54.59151" lon="-2.17599"><ele>380.0</ele><time>2026-05-03T10:11:09.784Z</time></trkpt><trkpt lat="54.5915017" lon="-2.176235"><ele>380.5</ele><time>2026-05-03T10:11:10.785Z</time></trkpt><trkpt lat="54.591475" lon="-2.1764183"><ele>381.0</ele><time>2026-05-03T10:11:11.787Z</time></trkpt><trkpt lat="54.5914183" lon="-2.17655"><ele>381.5</ele><time>2026-05-03T10:11:12.787Z</time></trkpt><trkpt lat="54.59134" lon="-2.1766717"><ele>382.0</ele><time>2026-05-03T10:11:13.787Z</time></trkpt><trkpt lat="54.5912317" lon="-2.176775"><ele>382.5</ele><time>2026-05-03T10:11:14.785Z</time></trkpt><trkpt lat="54.5910983" lon="-2.1768617"><ele>383.0</ele><time>2026-05-03T10:11:15.784Z</time></trkpt><trkpt lat="54.590945" lon="-2.1769333"><ele>381.0</ele><time>2026-05-03T10:11:16.787Z</time></trkpt><trkpt lat="54.590795" lon="-2.1769967"><ele>379.0</ele><time>2026-05-03T10:11:17.784Z</time></trkpt><trkpt lat="54.5906667" lon="-2.17705"><ele>377.0</ele><time>2026-05-03T10:11:18.784Z</time></trkpt><trkpt lat="54.5905583" lon="-2.1771067"><ele>375.0</ele><time>2026-05-03T10:11:19.787Z</time></trkpt><trkpt lat="54.590465" lon="-2.1772017"><ele>375.0</ele><time>2026-05-03T10:11:20.788Z</time></trkpt><trkpt lat="54.5904" lon="-2.1773233"><ele>375.0</ele><time>2026-05-03T10:11:21.784Z</time></trkpt><trkpt lat="54.5903433" lon="-2.1774767"><ele>375.0</ele><time>2026-05-03T10:11:22.785Z</time></trkpt><trkpt lat="54.5903117" lon="-2.1776717"><ele>375.0</ele><time>2026-05-03T10:11:23.787Z</time></trkpt><trkpt lat="54.5902933" lon="-2.1778883"><ele>375.0</ele><time>2026-05-03T10:11:24.787Z</time></trkpt><trkpt lat="54.5902683" lon="-2.178115"><ele>371.3333333333333</ele><time>2026-05-03T10:11:25.788Z</time></trkpt><trkpt lat="54.59022" lon="-2.1783567"><ele>367.66666666666663</ele><time>2026-05-03T10:11:26.783Z</time></trkpt><trkpt lat="54.59015" lon="-2.178625"><ele>364.0</ele><time>2026-05-03T10:11:27.788Z</time></trkpt><trkpt lat="54.5900417" lon="-2.1789033"><ele>364.0</ele><time>2026-05-03T10:11:28.785Z</time></trkpt><trkpt lat="54.5899117" lon="-2.1791683"><ele>364.0</ele><time>2026-05-03T10:11:29.785Z</time></trkpt><trkpt lat="54.5897817" lon="-2.17941"><ele>364.0</ele><time>2026-05-03T10:11:30.788Z</time></trkpt><trkpt lat="54.5896417" lon="-2.179615"><ele>365.66666666666663</ele><time>2026-05-03T10:11:31.785Z</time></trkpt><trkpt lat="54.589495" lon="-2.1798017"><ele>367.3333333333333</ele><time>2026-05-03T10:11:32.787Z</time></trkpt><trkpt lat="54.5893633" lon="-2.1799967"><ele>369.0</ele><time>2026-05-03T10:11:33.785Z</time></trkpt><trkpt lat="54.58924" lon="-2.180215"><ele>369.6666666666667</ele><time>2026-05-03T10:11:34.787Z</time></trkpt><trkpt lat="54.5891183" lon="-2.180465"><ele>370.33333333333337</ele><time>2026-05-03T10:11:35.787Z</time></trkpt><trkpt lat="54.5889983" lon="-2.1807333"><ele>371.0</ele><time>2026-05-03T10:11:36.783Z</time></trkpt><trkpt lat="54.5888717" lon="-2.1810167"><ele>371.33333333333337</ele><time>2026-05-03T10:11:37.784Z</time></trkpt><trkpt lat="54.5887467" lon="-2.1813067"><ele>371.6666666666667</ele><time>2026-05-03T10:11:38.784Z</time></trkpt><trkpt lat="54.5886183" lon="-2.1815967"><ele>372.0</ele><time>2026-05-03T10:11:39.785Z</time></trkpt><trkpt lat="54.588485" lon="-2.1818917"><ele>374.0</ele><time>2026-05-03T10:11:40.783Z</time></trkpt><trkpt lat="54.5883417" lon="-2.1822017"><ele>376.0</ele><time>2026-05-03T10:11:41.785Z</time></trkpt><trkpt lat="54.5881967" lon="-2.1825233"><ele>377.0</ele><time>2026-05-03T10:11:42.783Z</time></trkpt><trkpt lat="54.5880467" lon="-2.18285"><ele>378.0</ele><time>2026-05-03T10:11:43.784Z</time></trkpt><trkpt lat="54.587895" lon="-2.1831767"><ele>377.0</ele><time>2026-05-03T10:11:44.785Z</time></trkpt><trkpt lat="54.5877433" lon="-2.183505"><ele>376.0</ele><time>2026-05-03T10:11:45.785Z</time></trkpt><trkpt lat="54.5875933" lon="-2.18383"><ele>376.5</ele><time>2026-05-03T10:11:46.784Z</time></trkpt><trkpt lat="54.5874483" lon="-2.1841567"><ele>377.0</ele><time>2026-05-03T10:11:47.789Z</time></trkpt><trkpt lat="54.5873083" lon="-2.18447"><ele>377.0</ele><time>2026-05-03T10:11:48.787Z</time></trkpt><trkpt lat="54.5871717" lon="-2.18477"><ele>377.0</ele><time>2026-05-03T10:11:49.787Z</time></trkpt><trkpt lat="54.58704" lon="-2.185055"><ele>377.0</ele><time>2026-05-03T10:11:50.788Z</time></trkpt><trkpt lat="54.586915" lon="-2.1853267"><ele>377.33333333333337</ele><time>2026-05-03T10:11:51.784Z</time></trkpt><trkpt lat="54.5868" lon="-2.185595"><ele>377.6666666666667</ele><time>2026-05-03T10:11:52.787Z</time></trkpt><trkpt lat="54.586695" lon="-2.1858817"><ele>378.0</ele><time>2026-05-03T10:11:53.785Z</time></trkpt><trkpt lat="54.5866" lon="-2.1861817"><ele>378.3333333333333</ele><time>2026-05-03T10:11:54.784Z</time></trkpt><trkpt lat="54.5865133" lon="-2.18649"><ele>378.66666666666663</ele><time>2026-05-03T10:11:55.784Z</time></trkpt><trkpt lat="54.5864333" lon="-2.1868067"><ele>379.0</ele><time>2026-05-03T10:11:56.787Z</time></trkpt><trkpt lat="54.5863633" lon="-2.187145"><ele>380.66666666666663</ele><time>2026-05-03T10:11:57.784Z</time></trkpt><trkpt lat="54.5863067" lon="-2.187495"><ele>382.3333333333333</ele><time>2026-05-03T10:11:58.784Z</time></trkpt><trkpt lat="54.58627" lon="-2.1878583"><ele>384.0</ele><time>2026-05-03T10:11:59.785Z</time></trkpt><trkpt lat="54.58624" lon="-2.188225"><ele>385.0</ele><time>2026-05-03T10:12:00.785Z</time></trkpt><trkpt lat="54.5862167" lon="-2.1886033"><ele>386.0</ele><time>2026-05-03T10:12:01.785Z</time></trkpt><trkpt lat="54.5862017" lon="-2.1889983"><ele>386.5</ele><time>2026-05-03T10:12:02.785Z</time></trkpt><trkpt lat="54.5861967" lon="-2.18941"><ele>387.0</ele><time>2026-05-03T10:12:03.785Z</time></trkpt><trkpt lat="54.586195" lon="-2.189825"><ele>387.5</ele><time>2026-05-03T10:12:04.785Z</time></trkpt><trkpt lat="54.5861967" lon="-2.1902467"><ele>388.0</ele><time>2026-05-03T10:12:05.784Z</time></trkpt><trkpt lat="54.5862" lon="-2.19068"><ele>388.5</ele><time>2026-05-03T10:12:06.784Z</time></trkpt><trkpt lat="54.5862" lon="-2.19111"><ele>389.0</ele><time>2026-05-03T10:12:07.786Z</time></trkpt><trkpt lat="54.5862" lon="-2.1915367"><ele>390.0</ele><time>2026-05-03T10:12:08.785Z</time></trkpt><trkpt lat="54.5862" lon="-2.1919567"><ele>391.0</ele><time>2026-05-03T10:12:09.784Z</time></trkpt><trkpt lat="54.5862017" lon="-2.1923867"><ele>391.5</ele><time>2026-05-03T10:12:10.784Z</time></trkpt><trkpt lat="54.5862017" lon="-2.192815"><ele>392.0</ele><time>2026-05-03T10:12:11.785Z</time></trkpt><trkpt lat="54.586195" lon="-2.19324"><ele>392.5</ele><time>2026-05-03T10:12:12.785Z</time></trkpt><trkpt lat="54.5861817" lon="-2.1936667"><ele>393.0</ele><time>2026-05-03T10:12:13.785Z</time></trkpt><trkpt lat="54.5861633" lon="-2.194085"><ele>392.0</ele><time>2026-05-03T10:12:14.787Z</time></trkpt><trkpt lat="54.58615" lon="-2.1944917"><ele>391.0</ele><time>2026-05-03T10:12:15.788Z</time></trkpt><trkpt lat="54.5861333" lon="-2.194885"><ele>391.0</ele><time>2026-05-03T10:12:16.788Z</time></trkpt><trkpt lat="54.58612" lon="-2.1952817"><ele>391.0</ele><time>2026-05-03T10:12:17.787Z</time></trkpt><trkpt lat="54.586105" lon="-2.1956733"><ele>391.33333333333337</ele><time>2026-05-03T10:12:18.788Z</time></trkpt><trkpt lat="54.586085" lon="-2.196055"><ele>391.66666666666663</ele><time>2026-05-03T10:12:19.788Z</time></trkpt><trkpt lat="54.5860633" lon="-2.1964183"><ele>392.0</ele><time>2026-05-03T10:12:20.783Z</time></trkpt><trkpt lat="54.5860367" lon="-2.1967733"><ele>392.3333333333333</ele><time>2026-05-03T10:12:21.784Z</time></trkpt><trkpt lat="54.5860017" lon="-2.1971283"><ele>392.66666666666663</ele><time>2026-05-03T10:12:22.787Z</time></trkpt><trkpt lat="54.5859533" lon="-2.1974783"><ele>393.0</ele><time>2026-05-03T10:12:23.785Z</time></trkpt><trkpt lat="54.5859033" lon="-2.1978067"><ele>393.0</ele><time>2026-05-03T10:12:24.783Z</time></trkpt><trkpt lat="54.58585" lon="-2.1981183"><ele>393.0</ele><time>2026-05-03T10:12:25.788Z</time></trkpt><trkpt lat="54.5858" lon="-2.198425"><ele>393.0</ele><time>2026-05-03T10:12:26.787Z</time></trkpt><trkpt lat="54.5857467" lon="-2.1986983"><ele>393.0</ele><time>2026-05-03T10:12:27.787Z</time></trkpt><trkpt lat="54.5857017" lon="-2.198945"><ele>393.0</ele><time>2026-05-03T10:12:28.787Z</time></trkpt><trkpt lat="54.5856567" lon="-2.1991633"><ele>393.0</ele><time>2026-05-03T10:12:29.784Z</time></trkpt><trkpt lat="54.585605" lon="-2.199345"><ele>393.0</ele><time>2026-05-03T10:12:30.787Z</time></trkpt><trkpt lat="54.5855483" lon="-2.1994933"><ele>393.0</ele><time>2026-05-03T10:12:31.786Z</time></trkpt><trkpt lat="54.5854683" lon="-2.1995917"><ele>393.0</ele><time>2026-05-03T10:12:32.784Z</time></trkpt><trkpt lat="54.5853717" lon="-2.1996417"><ele>393.0</ele><time>2026-05-03T10:12:33.783Z</time></trkpt><trkpt lat="54.58528" lon="-2.1996417"><ele>393.0</ele><time>2026-05-03T10:12:34.784Z</time></trkpt><trkpt lat="54.58519" lon="-2.1995867"><ele>393.0</ele><time>2026-05-03T10:12:35.788Z</time></trkpt><trkpt lat="54.5851033" lon="-2.19947"><ele>392.4</ele><time>2026-05-03T10:12:36.784Z</time></trkpt><trkpt lat="54.5850117" lon="-2.1993583"><ele>391.79999999999995</ele><time>2026-05-03T10:12:37.787Z</time></trkpt><trkpt lat="54.5849117" lon="-2.1992767"><ele>391.2</ele><time>2026-05-03T10:12:38.786Z</time></trkpt><trkpt lat="54.5848033" lon="-2.1992417"><ele>390.6</ele><time>2026-05-03T10:12:39.787Z</time></trkpt><trkpt lat="54.5846983" lon="-2.1992617"><ele>390.0</ele><time>2026-05-03T10:12:40.787Z</time></trkpt><trkpt lat="54.5845883" lon="-2.19932"><ele>388.0</ele><time>2026-05-03T10:12:41.788Z</time></trkpt><trkpt lat="54.58447" lon="-2.1994367"><ele>386.0</ele><time>2026-05-03T10:12:42.784Z</time></trkpt><trkpt lat="54.58435" lon="-2.1995683"><ele>384.0</ele><time>2026-05-03T10:12:43.787Z</time></trkpt><trkpt lat="54.5842333" lon="-2.19971"><ele>382.0</ele><time>2026-05-03T10:12:44.784Z</time></trkpt><trkpt lat="54.5841283" lon="-2.199875"><ele>382.0</ele><time>2026-05-03T10:12:45.784Z</time></trkpt><trkpt lat="54.58404" lon="-2.2000567"><ele>382.0</ele><time>2026-05-03T10:12:46.786Z</time></trkpt><trkpt lat="54.5839633" lon="-2.2002683"><ele>382.0</ele><time>2026-05-03T10:12:47.784Z</time></trkpt><trkpt lat="54.5839033" lon="-2.2005183"><ele>382.0</ele><time>2026-05-03T10:12:48.785Z</time></trkpt><trkpt lat="54.583855" lon="-2.2008083"><ele>382.66666666666663</ele><time>2026-05-03T10:12:49.788Z</time></trkpt><trkpt lat="54.5838167" lon="-2.2011217"><ele>383.3333333333333</ele><time>2026-05-03T10:12:50.786Z</time></trkpt><trkpt lat="54.583775" lon="-2.201455"><ele>384.0</ele><time>2026-05-03T10:12:51.783Z</time></trkpt><trkpt lat="54.5837217" lon="-2.201795"><ele>378.3333333333333</ele><time>2026-05-03T10:12:52.783Z</time></trkpt><trkpt lat="54.5836567" lon="-2.2021267"><ele>372.66666666666663</ele><time>2026-05-03T10:12:53.784Z</time></trkpt><trkpt lat="54.5835933" lon="-2.2024533"><ele>367.0</ele><time>2026-05-03T10:12:54.783Z</time></trkpt><trkpt lat="54.58353" lon="-2.2027683"><ele>367.0</ele><time>2026-05-03T10:12:55.787Z</time></trkpt><trkpt lat="54.5834483" lon="-2.2030733"><ele>367.0</ele><time>2026-05-03T10:12:56.786Z</time></trkpt><trkpt lat="54.5833467" lon="-2.2033533"><ele>367.0</ele><time>2026-05-03T10:12:57.783Z</time></trkpt><trkpt lat="54.583245" lon="-2.20359"><ele>367.25</ele><time>2026-05-03T10:12:58.784Z</time></trkpt><trkpt lat="54.583155" lon="-2.2038033"><ele>367.5</ele><time>2026-05-03T10:12:59.784Z</time></trkpt><trkpt lat="54.5830833" lon="-2.2040267"><ele>367.75</ele><time>2026-05-03T10:13:00.785Z</time></trkpt><trkpt lat="54.5830217" lon="-2.20425"><ele>368.0</ele><time>2026-05-03T10:13:01.783Z</time></trkpt><trkpt lat="54.5829533" lon="-2.2044767"><ele>368.33333333333337</ele><time>2026-05-03T10:13:02.786Z</time></trkpt><trkpt lat="54.5828533" lon="-2.2046917"><ele>368.6666666666667</ele><time>2026-05-03T10:13:03.785Z</time></trkpt><trkpt lat="54.5827283" lon="-2.20487"><ele>369.0</ele><time>2026-05-03T10:13:04.787Z</time></trkpt><trkpt lat="54.582605" lon="-2.2050233"><ele>367.0</ele><time>2026-05-03T10:13:05.785Z</time></trkpt><trkpt lat="54.582495" lon="-2.2051733"><ele>365.0</ele><time>2026-05-03T10:13:06.784Z</time></trkpt><trkpt lat="54.5824083" lon="-2.2053433"><ele>363.0</ele><time>2026-05-03T10:13:07.784Z</time></trkpt><trkpt lat="54.5823383" lon="-2.20552"><ele>361.0</ele><time>2026-05-03T10:13:08.785Z</time></trkpt><trkpt lat="54.58229" lon="-2.205695"><ele>361.0</ele><time>2026-05-03T10:13:09.786Z</time></trkpt><trkpt lat="54.5822517" lon="-2.20585"><ele>361.0</ele><time>2026-05-03T10:13:10.783Z</time></trkpt><trkpt lat="54.5822" lon="-2.20598"><ele>361.0</ele><time>2026-05-03T10:13:11.783Z</time></trkpt><trkpt lat="54.5821283" lon="-2.206085"><ele>361.0</ele><time>2026-05-03T10:13:12.785Z</time></trkpt><trkpt lat="54.582025" lon="-2.20616"><ele>361.0</ele><time>2026-05-03T10:13:13.785Z</time></trkpt><trkpt lat="54.5819017" lon="-2.2061867"><ele>360.20000000000005</ele><time>2026-05-03T10:13:14.79Z</time></trkpt><trkpt lat="54.58179" lon="-2.2062033"><ele>359.40000000000003</ele><time>2026-05-03T10:13:15.787Z</time></trkpt><trkpt lat="54.5816867" lon="-2.2062317"><ele>358.6</ele><time>2026-05-03T10:13:16.785Z</time></trkpt><trkpt lat="54.5816" lon="-2.2062933"><ele>357.8</ele><time>2026-05-03T10:13:17.788Z</time></trkpt><trkpt lat="54.581515" lon="-2.20639"><ele>357.0</ele><time>2026-05-03T10:13:18.787Z</time></trkpt><trkpt lat="54.581435" lon="-2.2065133"><ele>357.0</ele><time>2026-05-03T10:13:19.786Z</time></trkpt><trkpt lat="54.5813617" lon="-2.2067133"><ele>357.0</ele><time>2026-05-03T10:13:20.785Z</time></trkpt><trkpt lat="54.5812867" lon="-2.2069483"><ele>357.0</ele><time>2026-05-03T10:13:21.785Z</time></trkpt><trkpt lat="54.5812133" lon="-2.2072117"><ele>359.0</ele><time>2026-05-03T10:13:22.786Z</time></trkpt><trkpt lat="54.5811433" lon="-2.20748"><ele>361.0</ele><time>2026-05-03T10:13:23.784Z</time></trkpt><trkpt lat="54.5810867" lon="-2.207735"><ele>363.0</ele><time>2026-05-03T10:13:24.783Z</time></trkpt><trkpt lat="54.5810483" lon="-2.2079583"><ele>363.0</ele><time>2026-05-03T10:13:25.784Z</time></trkpt><trkpt lat="54.5809983" lon="-2.2081367"><ele>363.0</ele><time>2026-05-03T10:13:26.788Z</time></trkpt><trkpt lat="54.5809333" lon="-2.2082967"><ele>363.0</ele><time>2026-05-03T10:13:27.784Z</time></trkpt><trkpt lat="54.580875" lon="-2.2084783"><ele>363.0</ele><time>2026-05-03T10:13:28.784Z</time></trkpt><trkpt lat="54.58082" lon="-2.2087117"><ele>363.3333333333333</ele><time>2026-05-03T10:13:29.784Z</time></trkpt><trkpt lat="54.5807667" lon="-2.208975"><ele>363.66666666666663</ele><time>2026-05-03T10:13:30.784Z</time></trkpt><trkpt lat="54.580715" lon="-2.2092817"><ele>364.0</ele><time>2026-05-03T10:13:31.785Z</time></trkpt><trkpt lat="54.58066" lon="-2.2096183"><ele>365.3333333333333</ele><time>2026-05-03T10:13:32.785Z</time></trkpt><trkpt lat="54.580605" lon="-2.2099717"><ele>366.6666666666667</ele><time>2026-05-03T10:13:33.785Z</time></trkpt><trkpt lat="54.580545" lon="-2.2103317"><ele>368.0</ele><time>2026-05-03T10:13:34.787Z</time></trkpt><trkpt lat="54.5804883" lon="-2.2106917"><ele>368.6666666666667</ele><time>2026-05-03T10:13:35.785Z</time></trkpt><trkpt lat="54.5804267" lon="-2.2110283"><ele>369.3333333333333</ele><time>2026-05-03T10:13:36.787Z</time></trkpt><trkpt lat="54.5803583" lon="-2.2113483"><ele>370.0</ele><time>2026-05-03T10:13:37.79Z</time></trkpt><trkpt lat="54.5802783" lon="-2.2116417"><ele>374.0</ele><time>2026-05-03T10:13:38.786Z</time></trkpt><trkpt lat="54.5802083" lon="-2.2118983"><ele>378.0</ele><time>2026-05-03T10:13:39.787Z</time></trkpt><trkpt lat="54.58015" lon="-2.212135"><ele>382.0</ele><time>2026-05-03T10:13:40.784Z</time></trkpt><trkpt lat="54.580115" lon="-2.2123733"><ele>382.0</ele><time>2026-05-03T10:13:41.785Z</time></trkpt><trkpt lat="54.5800917" lon="-2.2126217"><ele>382.0</ele><time>2026-05-03T10:13:42.786Z</time></trkpt><trkpt lat="54.5800683" lon="-2.2128733"><ele>382.0</ele><time>2026-05-03T10:13:43.783Z</time></trkpt><trkpt lat="54.5800417" lon="-2.2131117"><ele>382.0</ele><time>2026-05-03T10:13:44.787Z</time></trkpt><trkpt lat="54.5800183" lon="-2.2133483"><ele>383.25</ele><time>2026-05-03T10:13:45.784Z</time></trkpt><trkpt lat="54.58001" lon="-2.2135967"><ele>384.5</ele><time>2026-05-03T10:13:46.787Z</time></trkpt><trkpt lat="54.5800183" lon="-2.21383"><ele>385.75</ele><time>2026-05-03T10:13:47.787Z</time></trkpt><trkpt lat="54.5800383" lon="-2.2140433"><ele>387.0</ele><time>2026-05-03T10:13:48.785Z</time></trkpt><trkpt lat="54.5800583" lon="-2.2142533"><ele>388.25</ele><time>2026-05-03T10:13:49.787Z</time></trkpt><trkpt lat="54.580075" lon="-2.21448"><ele>389.5</ele><time>2026-05-03T10:13:50.787Z</time></trkpt><trkpt lat="54.580085" lon="-2.2147317"><ele>390.75</ele><time>2026-05-03T10:13:51.788Z</time></trkpt><trkpt lat="54.580085" lon="-2.2150117"><ele>392.0</ele><time>2026-05-03T10:13:52.787Z</time></trkpt><trkpt lat="54.58007" lon="-2.2153117"><ele>392.66666666666663</ele><time>2026-05-03T10:13:53.787Z</time></trkpt><trkpt lat="54.5800433" lon="-2.2156233"><ele>393.33333333333337</ele><time>2026-05-03T10:13:54.787Z</time></trkpt><trkpt lat="54.58001" lon="-2.2159583"><ele>394.0</ele><time>2026-05-03T10:13:55.786Z</time></trkpt><trkpt lat="54.5799583" lon="-2.2163167"><ele>394.5</ele><time>2026-05-03T10:13:56.787Z</time></trkpt><trkpt lat="54.57988" lon="-2.21669"><ele>395.0</ele><time>2026-05-03T10:13:57.787Z</time></trkpt><trkpt lat="54.5797933" lon="-2.217065"><ele>394.3333333333333</ele><time>2026-05-03T10:13:58.784Z</time></trkpt><trkpt lat="54.57971" lon="-2.2174283"><ele>393.66666666666663</ele><time>2026-05-03T10:13:59.787Z</time></trkpt><trkpt lat="54.5796283" lon="-2.2177717"><ele>393.0</ele><time>2026-05-03T10:14:00.787Z</time></trkpt><trkpt lat="54.5795567" lon="-2.21811"><ele>397.0</ele><time>2026-05-03T10:14:01.784Z</time></trkpt><trkpt lat="54.5794983" lon="-2.218435"><ele>401.0</ele><time>2026-05-03T10:14:02.788Z</time></trkpt><trkpt lat="54.5794633" lon="-2.218765"><ele>405.0</ele><time>2026-05-03T10:14:03.787Z</time></trkpt><trkpt lat="54.5794483" lon="-2.2191033"><ele>406.0</ele><time>2026-05-03T10:14:04.785Z</time></trkpt><trkpt lat="54.5794433" lon="-2.2194617"><ele>407.0</ele><time>2026-05-03T10:14:05.784Z</time></trkpt><trkpt lat="54.5794383" lon="-2.219835"><ele>408.0</ele><time>2026-05-03T10:14:06.785Z</time></trkpt><trkpt lat="54.5794317" lon="-2.2202183"><ele>409.0</ele><time>2026-05-03T10:14:07.784Z</time></trkpt><trkpt lat="54.5794233" lon="-2.2206033"><ele>410.0</ele><time>2026-05-03T10:14:08.786Z</time></trkpt><trkpt lat="54.5794117" lon="-2.2209783"><ele>411.0</ele><time>2026-05-03T10:14:09.786Z</time></trkpt><trkpt lat="54.5794017" lon="-2.2213433"><ele>412.33333333333337</ele><time>2026-05-03T10:14:10.784Z</time></trkpt><trkpt lat="54.579395" lon="-2.221695"><ele>413.6666666666667</ele><time>2026-05-03T10:14:11.785Z</time></trkpt><trkpt lat="54.5793883" lon="-2.2220467"><ele>415.0</ele><time>2026-05-03T10:14:12.783Z</time></trkpt><trkpt lat="54.57937" lon="-2.22241"><ele>416.0</ele><time>2026-05-03T10:14:13.787Z</time></trkpt><trkpt lat="54.5793333" lon="-2.2227917"><ele>417.0</ele><time>2026-05-03T10:14:14.783Z</time></trkpt><trkpt lat="54.57928" lon="-2.2231867"><ele>417.0</ele><time>2026-05-03T10:14:15.783Z</time></trkpt><trkpt lat="54.57921" lon="-2.223585"><ele>417.0</ele><time>2026-05-03T10:14:16.787Z</time></trkpt><trkpt lat="54.579135" lon="-2.2239933"><ele>417.5</ele><time>2026-05-03T10:14:17.787Z</time></trkpt><trkpt lat="54.5790617" lon="-2.2243933"><ele>418.0</ele><time>2026-05-03T10:14:18.787Z</time></trkpt><trkpt lat="54.579" lon="-2.2247733"><ele>419.0</ele><time>2026-05-03T10:14:19.787Z</time></trkpt><trkpt lat="54.578945" lon="-2.22515"><ele>420.0</ele><time>2026-05-03T10:14:20.787Z</time></trkpt><trkpt lat="54.578895" lon="-2.2255367"><ele>420.66666666666663</ele><time>2026-05-03T10:14:21.786Z</time></trkpt><trkpt lat="54.5788567" lon="-2.2259217"><ele>421.3333333333333</ele><time>2026-05-03T10:14:22.786Z</time></trkpt><trkpt lat="54.5788317" lon="-2.2263033"><ele>422.0</ele><time>2026-05-03T10:14:23.783Z</time></trkpt><trkpt lat="54.57882" lon="-2.2266867"><ele>422.3333333333333</ele><time>2026-05-03T10:14:24.784Z</time></trkpt><trkpt lat="54.5788217" lon="-2.2270683"><ele>422.66666666666663</ele><time>2026-05-03T10:14:25.786Z</time></trkpt><trkpt lat="54.578845" lon="-2.22746"><ele>423.0</ele><time>2026-05-03T10:14:26.783Z</time></trkpt><trkpt lat="54.5788783" lon="-2.2278467"><ele>426.0</ele><time>2026-05-03T10:14:27.788Z</time></trkpt><trkpt lat="54.5789117" lon="-2.228235"><ele>429.0</ele><time>2026-05-03T10:14:28.784Z</time></trkpt><trkpt lat="54.5789467" lon="-2.2286267"><ele>429.33333333333337</ele><time>2026-05-03T10:14:29.786Z</time></trkpt><trkpt lat="54.5789783" lon="-2.2290067"><ele>429.6666666666667</ele><time>2026-05-03T10:14:30.786Z</time></trkpt><trkpt lat="54.5790067" lon="-2.22936"><ele>430.0</ele><time>2026-05-03T10:14:31.786Z</time></trkpt><trkpt lat="54.5790233" lon="-2.2296783"><ele>431.0</ele><time>2026-05-03T10:14:32.786Z</time></trkpt><trkpt lat="54.5790233" lon="-2.2299867"><ele>432.0</ele><time>2026-05-03T10:14:33.787Z</time></trkpt><trkpt lat="54.5790017" lon="-2.2302983"><ele>433.0</ele><time>2026-05-03T10:14:34.783Z</time></trkpt><trkpt lat="54.57897" lon="-2.2306217"><ele>434.0</ele><time>2026-05-03T10:14:35.785Z</time></trkpt><trkpt lat="54.5789383" lon="-2.2309467"><ele>435.0</ele><time>2026-05-03T10:14:36.787Z</time></trkpt><trkpt lat="54.5789083" lon="-2.23127"><ele>436.0</ele><time>2026-05-03T10:14:37.785Z</time></trkpt><trkpt lat="54.5788817" lon="-2.2315917"><ele>436.0</ele><time>2026-05-03T10:14:38.787Z</time></trkpt><trkpt lat="54.57886" lon="-2.2319167"><ele>436.0</ele><time>2026-05-03T10:14:39.783Z</time></trkpt><trkpt lat="54.5788467" lon="-2.23225"><ele>436.0</ele><time>2026-05-03T10:14:40.787Z</time></trkpt><trkpt lat="54.5788517" lon="-2.23259"><ele>436.0</ele><time>2026-05-03T10:14:41.784Z</time></trkpt><trkpt lat="54.5788667" lon="-2.2329317"><ele>436.0</ele><time>2026-05-03T10:14:42.783Z</time></trkpt><trkpt lat="54.57889" lon="-2.2332683"><ele>436.0</ele><time>2026-05-03T10:14:43.785Z</time></trkpt><trkpt lat="54.5789167" lon="-2.2335767"><ele>436.6666666666667</ele><time>2026-05-03T10:14:44.787Z</time></trkpt><trkpt lat="54.5789417" lon="-2.23386"><ele>437.33333333333337</ele><time>2026-05-03T10:14:45.786Z</time></trkpt><trkpt lat="54.5789617" lon="-2.2341317"><ele>438.0</ele><time>2026-05-03T10:14:46.786Z</time></trkpt><trkpt lat="54.5789667" lon="-2.234385"><ele>438.0</ele><time>2026-05-03T10:14:47.787Z</time></trkpt><trkpt lat="54.5789617" lon="-2.2346367"><ele>438.0</ele><time>2026-05-03T10:14:48.786Z</time></trkpt><trkpt lat="54.5789333" lon="-2.2348933"><ele>438.0</ele><time>2026-05-03T10:14:49.788Z</time></trkpt><trkpt lat="54.5788817" lon="-2.235175"><ele>437.33333333333337</ele><time>2026-05-03T10:14:50.787Z</time></trkpt><trkpt lat="54.5788133" lon="-2.2354767"><ele>436.6666666666667</ele><time>2026-05-03T10:14:51.786Z</time></trkpt><trkpt lat="54.5787383" lon="-2.2358017"><ele>436.0</ele><time>2026-05-03T10:14:52.787Z</time></trkpt><trkpt lat="54.5786633" lon="-2.236135"><ele>439.6666666666667</ele><time>2026-05-03T10:14:53.783Z</time></trkpt><trkpt lat="54.5785867" lon="-2.23647"><ele>443.33333333333337</ele><time>2026-05-03T10:14:54.785Z</time></trkpt><trkpt lat="54.5785067" lon="-2.2368167"><ele>447.0</ele><time>2026-05-03T10:14:55.785Z</time></trkpt><trkpt lat="54.5784317" lon="-2.2371717"><ele>446.33333333333337</ele><time>2026-05-03T10:14:56.785Z</time></trkpt><trkpt lat="54.5783717" lon="-2.2375417"><ele>445.6666666666667</ele><time>2026-05-03T10:14:57.785Z</time></trkpt><trkpt lat="54.5783133" lon="-2.23789"><ele>445.0</ele><time>2026-05-03T10:14:58.784Z</time></trkpt><trkpt lat="54.5782517" lon="-2.2382083"><ele>444.0</ele><time>2026-05-03T10:14:59.785Z</time></trkpt><trkpt lat="54.5781817" lon="-2.2385033"><ele>443.0</ele><time>2026-05-03T10:15:00.782Z</time></trkpt><trkpt lat="54.5780983" lon="-2.2387817"><ele>442.0</ele><time>2026-05-03T10:15:01.787Z</time></trkpt><trkpt lat="54.5779983" lon="-2.2390417"><ele>441.5</ele><time>2026-05-03T10:15:02.786Z</time></trkpt><trkpt lat="54.5779017" lon="-2.2392733"><ele>441.0</ele><time>2026-05-03T10:15:03.783Z</time></trkpt><trkpt lat="54.577815" lon="-2.2394667"><ele>440.5</ele><time>2026-05-03T10:15:04.787Z</time></trkpt><trkpt lat="54.57774" lon="-2.2396417"><ele>440.0</ele><time>2026-05-03T10:15:05.783Z</time></trkpt><trkpt lat="54.5776867" lon="-2.2398083"><ele>441.25</ele><time>2026-05-03T10:15:06.784Z</time></trkpt><trkpt lat="54.577655" lon="-2.239985"><ele>442.5</ele><time>2026-05-03T10:15:07.784Z</time></trkpt><trkpt lat="54.5776417" lon="-2.240185"><ele>443.75</ele><time>2026-05-03T10:15:08.787Z</time></trkpt><trkpt lat="54.577645" lon="-2.2404283"><ele>445.0</ele><time>2026-05-03T10:15:09.784Z</time></trkpt><trkpt lat="54.5776567" lon="-2.2407017"><ele>445.0</ele><time>2026-05-03T10:15:10.784Z</time></trkpt><trkpt lat="54.577665" lon="-2.241"><ele>445.0</ele><time>2026-05-03T10:15:11.782Z</time></trkpt><trkpt lat="54.577665" lon="-2.2413"><ele>445.0</ele><time>2026-05-03T10:15:12.785Z</time></trkpt><trkpt lat="54.577655" lon="-2.241585"><ele>445.6666666666667</ele><time>2026-05-03T10:15:13.783Z</time></trkpt><trkpt lat="54.5776217" lon="-2.24186"><ele>446.33333333333337</ele><time>2026-05-03T10:15:14.786Z</time></trkpt><trkpt lat="54.5775717" lon="-2.242145"><ele>447.0</ele><time>2026-05-03T10:15:15.787Z</time></trkpt><trkpt lat="54.57751" lon="-2.2424367"><ele>447.33333333333337</ele><time>2026-05-03T10:15:16.785Z</time></trkpt><trkpt lat="54.5774433" lon="-2.2427333"><ele>447.6666666666667</ele><time>2026-05-03T10:15:17.785Z</time></trkpt><trkpt lat="54.5773717" lon="-2.2430133"><ele>448.0</ele><time>2026-05-03T10:15:18.786Z</time></trkpt><trkpt lat="54.5773067" lon="-2.2432783"><ele>448.0</ele><time>2026-05-03T10:15:19.786Z</time></trkpt><trkpt lat="54.5772567" lon="-2.2435517"><ele>448.0</ele><time>2026-05-03T10:15:20.785Z</time></trkpt><trkpt lat="54.5772317" lon="-2.2438533"><ele>448.0</ele><time>2026-05-03T10:15:21.783Z</time></trkpt><trkpt lat="54.5772183" lon="-2.2441733"><ele>448.0</ele><time>2026-05-03T10:15:22.784Z</time></trkpt><trkpt lat="54.577215" lon="-2.24452"><ele>448.0</ele><time>2026-05-03T10:15:23.785Z</time></trkpt><trkpt lat="54.577205" lon="-2.244885"><ele>448.0</ele><time>2026-05-03T10:15:24.786Z</time></trkpt><trkpt lat="54.5771917" lon="-2.2452767"><ele>448.0</ele><time>2026-05-03T10:15:25.783Z</time></trkpt><trkpt lat="54.5771733" lon="-2.2456767"><ele>448.0</ele><time>2026-05-03T10:15:26.784Z</time></trkpt><trkpt lat="54.57715" lon="-2.2460617"><ele>448.0</ele><time>2026-05-03T10:15:27.785Z</time></trkpt><trkpt lat="54.5771267" lon="-2.246435"><ele>448.0</ele><time>2026-05-03T10:15:28.787Z</time></trkpt><trkpt lat="54.5771017" lon="-2.2467983"><ele>448.0</ele><time>2026-05-03T10:15:29.787Z</time></trkpt><trkpt lat="54.5770633" lon="-2.2471333"><ele>450.33333333333337</ele><time>2026-05-03T10:15:30.787Z</time></trkpt><trkpt lat="54.5770117" lon="-2.2474367"><ele>452.66666666666663</ele><time>2026-05-03T10:15:31.787Z</time></trkpt><trkpt lat="54.5769517" lon="-2.2477117"><ele>455.0</ele><time>2026-05-03T10:15:32.787Z</time></trkpt><trkpt lat="54.5768783" lon="-2.2479667"><ele>453.3333333333333</ele><time>2026-05-03T10:15:33.787Z</time></trkpt><trkpt lat="54.57679" lon="-2.2482283"><ele>451.66666666666663</ele><time>2026-05-03T10:15:34.783Z</time></trkpt><trkpt lat="54.5766867" lon="-2.248505"><ele>450.0</ele><time>2026-05-03T10:15:35.784Z</time></trkpt><trkpt lat="54.5765683" lon="-2.2487833"><ele>448.33333333333337</ele><time>2026-05-03T10:15:36.783Z</time></trkpt><trkpt lat="54.5764417" lon="-2.24905"><ele>446.6666666666667</ele><time>2026-05-03T10:15:37.784Z</time></trkpt><trkpt lat="54.5763183" lon="-2.2493033"><ele>445.0</ele><time>2026-05-03T10:15:38.784Z</time></trkpt><trkpt lat="54.5762033" lon="-2.24954"><ele>447.0</ele><time>2026-05-03T10:15:39.784Z</time></trkpt><trkpt lat="54.5760967" lon="-2.249745"><ele>449.0</ele><time>2026-05-03T10:15:40.786Z</time></trkpt><trkpt lat="54.5760033" lon="-2.2499267"><ele>451.0</ele><time>2026-05-03T10:15:41.784Z</time></trkpt><trkpt lat="54.5759267" lon="-2.2501033"><ele>453.0</ele><time>2026-05-03T10:15:42.784Z</time></trkpt><trkpt lat="54.5758767" lon="-2.2502783"><ele>453.0</ele><time>2026-05-03T10:15:43.785Z</time></trkpt><trkpt lat="54.5758517" lon="-2.25046"><ele>453.0</ele><time>2026-05-03T10:15:44.787Z</time></trkpt><trkpt lat="54.5758533" lon="-2.250665"><ele>453.0</ele><time>2026-05-03T10:15:45.782Z</time></trkpt><trkpt lat="54.5758717" lon="-2.2508917"><ele>453.0</ele><time>2026-05-03T10:15:46.784Z</time></trkpt><trkpt lat="54.57591" lon="-2.251155"><ele>453.0</ele><time>2026-05-03T10:15:47.785Z</time></trkpt><trkpt lat="54.5759617" lon="-2.2514417"><ele>453.0</ele><time>2026-05-03T10:15:48.784Z</time></trkpt><trkpt lat="54.5760233" lon="-2.2517433"><ele>453.0</ele><time>2026-05-03T10:15:49.784Z</time></trkpt><trkpt lat="54.5760867" lon="-2.2520283"><ele>453.0</ele><time>2026-05-03T10:15:50.783Z</time></trkpt><trkpt lat="54.5761433" lon="-2.2522617"><ele>453.0</ele><time>2026-05-03T10:15:51.784Z</time></trkpt><trkpt lat="54.5761883" lon="-2.2524517"><ele>453.0</ele><time>2026-05-03T10:15:52.784Z</time></trkpt><trkpt lat="54.576205" lon="-2.2526367"><ele>453.0</ele><time>2026-05-03T10:15:53.782Z</time></trkpt><trkpt lat="54.5762067" lon="-2.2528517"><ele>452.66666666666663</ele><time>2026-05-03T10:15:54.785Z</time></trkpt><trkpt lat="54.5761933" lon="-2.2530983"><ele>452.3333333333333</ele><time>2026-05-03T10:15:55.784Z</time></trkpt><trkpt lat="54.57618" lon="-2.253375"><ele>452.0</ele><time>2026-05-03T10:15:56.784Z</time></trkpt><trkpt lat="54.57617" lon="-2.2536633"><ele>454.0</ele><time>2026-05-03T10:15:57.783Z</time></trkpt><trkpt lat="54.5761633" lon="-2.25397"><ele>456.0</ele><time>2026-05-03T10:15:58.784Z</time></trkpt><trkpt lat="54.5761567" lon="-2.2542967"><ele>458.0</ele><time>2026-05-03T10:15:59.787Z</time></trkpt><trkpt lat="54.576135" lon="-2.25463"><ele>458.66666666666663</ele><time>2026-05-03T10:16:00.786Z</time></trkpt><trkpt lat="54.5760867" lon="-2.2549633"><ele>459.33333333333337</ele><time>2026-05-03T10:16:01.786Z</time></trkpt><trkpt lat="54.576015" lon="-2.255305"><ele>460.0</ele><time>2026-05-03T10:16:02.785Z</time></trkpt><trkpt lat="54.5759217" lon="-2.2556567"><ele>460.5</ele><time>2026-05-03T10:16:03.786Z</time></trkpt><trkpt lat="54.5758217" lon="-2.2560167"><ele>461.0</ele><time>2026-05-03T10:16:04.784Z</time></trkpt><trkpt lat="54.5757233" lon="-2.2563917"><ele>462.0</ele><time>2026-05-03T10:16:05.783Z</time></trkpt><trkpt lat="54.5756267" lon="-2.2567667"><ele>463.0</ele><time>2026-05-03T10:16:06.782Z</time></trkpt><trkpt lat="54.5755283" lon="-2.2571467"><ele>464.0</ele><time>2026-05-03T10:16:07.785Z</time></trkpt><trkpt lat="54.575425" lon="-2.257545"><ele>465.0</ele><time>2026-05-03T10:16:08.787Z</time></trkpt><trkpt lat="54.575325" lon="-2.2579617"><ele>463.5</ele><time>2026-05-03T10:16:09.786Z</time></trkpt><trkpt lat="54.5752267" lon="-2.2583717"><ele>462.0</ele><time>2026-05-03T10:16:10.784Z</time></trkpt><trkpt lat="54.575125" lon="-2.2587783"><ele>462.5</ele><time>2026-05-03T10:16:11.785Z</time></trkpt><trkpt lat="54.5750217" lon="-2.2591933"><ele>463.0</ele><time>2026-05-03T10:16:12.784Z</time></trkpt><trkpt lat="54.5749167" lon="-2.2596083"><ele>464.0</ele><time>2026-05-03T10:16:13.783Z</time></trkpt><trkpt lat="54.5748133" lon="-2.26002"><ele>465.0</ele><time>2026-05-03T10:16:14.786Z</time></trkpt><trkpt lat="54.5747133" lon="-2.2604083"><ele>465.66666666666663</ele><time>2026-05-03T10:16:15.786Z</time></trkpt><trkpt lat="54.57462" lon="-2.2607717"><ele>466.3333333333333</ele><time>2026-05-03T10:16:16.783Z</time></trkpt><trkpt lat="54.5745317" lon="-2.2611167"><ele>467.0</ele><time>2026-05-03T10:16:17.784Z</time></trkpt><trkpt lat="54.5744533" lon="-2.261445"><ele>467.3333333333333</ele><time>2026-05-03T10:16:18.783Z</time></trkpt><trkpt lat="54.574385" lon="-2.2617367"><ele>467.66666666666663</ele><time>2026-05-03T10:16:19.783Z</time></trkpt><trkpt lat="54.5743333" lon="-2.2620017"><ele>468.0</ele><time>2026-05-03T10:16:20.782Z</time></trkpt><trkpt lat="54.5742883" lon="-2.2622483"><ele>468.25</ele><time>2026-05-03T10:16:21.783Z</time></trkpt><trkpt lat="54.574235" lon="-2.262485"><ele>468.5</ele><time>2026-05-03T10:16:22.783Z</time></trkpt><trkpt lat="54.5741667" lon="-2.2627017"><ele>468.75</ele><time>2026-05-03T10:16:23.783Z</time></trkpt><trkpt lat="54.57409" lon="-2.2628917"><ele>469.0</ele><time>2026-05-03T10:16:24.784Z</time></trkpt><trkpt lat="54.5740017" lon="-2.2630517"><ele>469.75</ele><time>2026-05-03T10:16:25.783Z</time></trkpt><trkpt lat="54.5739217" lon="-2.26322"><ele>470.5</ele><time>2026-05-03T10:16:26.782Z</time></trkpt><trkpt lat="54.5738533" lon="-2.263385"><ele>471.25</ele><time>2026-05-03T10:16:27.781Z</time></trkpt><trkpt lat="54.5738" lon="-2.263565"><ele>472.0</ele><time>2026-05-03T10:16:28.787Z</time></trkpt><trkpt lat="54.5737583" lon="-2.263765"><ele>472.6666666666667</ele><time>2026-05-03T10:16:29.783Z</time></trkpt><trkpt lat="54.5737233" lon="-2.2639867"><ele>473.33333333333337</ele><time>2026-05-03T10:16:30.783Z</time></trkpt><trkpt lat="54.5736883" lon="-2.26424"><ele>474.0</ele><time>2026-05-03T10:16:31.787Z</time></trkpt><trkpt lat="54.5736467" lon="-2.264525"><ele>475.66666666666663</ele><time>2026-05-03T10:16:32.787Z</time></trkpt><trkpt lat="54.5735917" lon="-2.2648317"><ele>477.3333333333333</ele><time>2026-05-03T10:16:33.787Z</time></trkpt><trkpt lat="54.5735217" lon="-2.2651517"><ele>479.0</ele><time>2026-05-03T10:16:34.787Z</time></trkpt><trkpt lat="54.57345" lon="-2.2654817"><ele>480.3333333333333</ele><time>2026-05-03T10:16:35.787Z</time></trkpt><trkpt lat="54.5733817" lon="-2.265825"><ele>481.66666666666663</ele><time>2026-05-03T10:16:36.786Z</time></trkpt><trkpt lat="54.5733267" lon="-2.2661683"><ele>483.0</ele><time>2026-05-03T10:16:37.787Z</time></trkpt><trkpt lat="54.5732783" lon="-2.2665"><ele>484.0</ele><time>2026-05-03T10:16:38.786Z</time></trkpt><trkpt lat="54.5732117" lon="-2.2668"><ele>485.0</ele><time>2026-05-03T10:16:39.787Z</time></trkpt><trkpt lat="54.5731283" lon="-2.2670917"><ele>486.0</ele><time>2026-05-03T10:16:40.786Z</time></trkpt><trkpt lat="54.5730267" lon="-2.2674017"><ele>486.33333333333337</ele><time>2026-05-03T10:16:41.787Z</time></trkpt><trkpt lat="54.572925" lon="-2.2677367"><ele>486.6666666666667</ele><time>2026-05-03T10:16:42.787Z</time></trkpt><trkpt lat="54.5728267" lon="-2.2680917"><ele>487.0</ele><time>2026-05-03T10:16:43.787Z</time></trkpt><trkpt lat="54.5727383" lon="-2.268455"><ele>484.0</ele><time>2026-05-03T10:16:44.787Z</time></trkpt><trkpt lat="54.5726567" lon="-2.2688217"><ele>481.0</ele><time>2026-05-03T10:16:45.784Z</time></trkpt><trkpt lat="54.5725683" lon="-2.2691817"><ele>481.0</ele><time>2026-05-03T10:16:46.784Z</time></trkpt><trkpt lat="54.5724683" lon="-2.2695417"><ele>481.0</ele><time>2026-05-03T10:16:47.783Z</time></trkpt><trkpt lat="54.572345" lon="-2.269885"><ele>483.0</ele><time>2026-05-03T10:16:48.784Z</time></trkpt><trkpt lat="54.57221" lon="-2.2702233"><ele>485.0</ele><time>2026-05-03T10:16:49.784Z</time></trkpt><trkpt lat="54.57208" lon="-2.2705683"><ele>481.0</ele><time>2026-05-03T10:16:50.784Z</time></trkpt><trkpt lat="54.5719533" lon="-2.27091"><ele>477.0</ele><time>2026-05-03T10:16:51.784Z</time></trkpt><trkpt lat="54.5718267" lon="-2.271245"><ele>478.66666666666663</ele><time>2026-05-03T10:16:52.784Z</time></trkpt><trkpt lat="54.5716967" lon="-2.2715417"><ele>480.3333333333333</ele><time>2026-05-03T10:16:53.782Z</time></trkpt><trkpt lat="54.57158" lon="-2.271795"><ele>482.0</ele><time>2026-05-03T10:16:54.783Z</time></trkpt><trkpt lat="54.5714667" lon="-2.2719967"><ele>482.0</ele><time>2026-05-03T10:16:55.785Z</time></trkpt><trkpt lat="54.5713533" lon="-2.2721733"><ele>482.0</ele><time>2026-05-03T10:16:56.784Z</time></trkpt><trkpt lat="54.57123" lon="-2.2723333"><ele>482.0</ele><time>2026-05-03T10:16:57.784Z</time></trkpt><trkpt lat="54.5710883" lon="-2.27249"><ele>480.66666666666663</ele><time>2026-05-03T10:16:58.783Z</time></trkpt><trkpt lat="54.5709267" lon="-2.2726383"><ele>479.33333333333337</ele><time>2026-05-03T10:16:59.784Z</time></trkpt><trkpt lat="54.5707317" lon="-2.27278"><ele>478.0</ele><time>2026-05-03T10:17:00.786Z</time></trkpt><trkpt lat="54.570525" lon="-2.2729283"><ele>478.0</ele><time>2026-05-03T10:17:01.783Z</time></trkpt><trkpt lat="54.570305" lon="-2.273085"><ele>478.0</ele><time>2026-05-03T10:17:02.786Z</time></trkpt><trkpt lat="54.5700733" lon="-2.2732533"><ele>478.0</ele><time>2026-05-03T10:17:03.783Z</time></trkpt><trkpt lat="54.5698433" lon="-2.2734317"><ele>478.0</ele><time>2026-05-03T10:17:04.784Z</time></trkpt><trkpt lat="54.5696183" lon="-2.273615"><ele>478.0</ele><time>2026-05-03T10:17:05.783Z</time></trkpt><trkpt lat="54.5694017" lon="-2.2738067"><ele>478.0</ele><time>2026-05-03T10:17:06.784Z</time></trkpt><trkpt lat="54.5691983" lon="-2.2739983"><ele>478.0</ele><time>2026-05-03T10:17:07.785Z</time></trkpt><trkpt lat="54.5690083" lon="-2.2741833"><ele>478.0</ele><time>2026-05-03T10:17:08.787Z</time></trkpt><trkpt lat="54.5688233" lon="-2.2743633"><ele>478.0</ele><time>2026-05-03T10:17:09.783Z</time></trkpt><trkpt lat="54.5686433" lon="-2.2745267"><ele>477.6666666666667</ele><time>2026-05-03T10:17:10.782Z</time></trkpt><trkpt lat="54.5684667" lon="-2.27466"><ele>477.33333333333337</ele><time>2026-05-03T10:17:11.783Z</time></trkpt><trkpt lat="54.5682717" lon="-2.27475"><ele>477.0</ele><time>2026-05-03T10:17:12.786Z</time></trkpt><trkpt lat="54.5680633" lon="-2.2748217"><ele>472.0</ele><time>2026-05-03T10:17:13.784Z</time></trkpt><trkpt lat="54.5678417" lon="-2.2748833"><ele>467.0</ele><time>2026-05-03T10:17:14.786Z</time></trkpt><trkpt lat="54.5676133" lon="-2.2749367"><ele>467.0</ele><time>2026-05-03T10:17:15.783Z</time></trkpt><trkpt lat="54.56738" lon="-2.274975"><ele>467.0</ele><time>2026-05-03T10:17:16.784Z</time></trkpt><trkpt lat="54.567145" lon="-2.2750033"><ele>462.5</ele><time>2026-05-03T10:17:17.783Z</time></trkpt><trkpt lat="54.56691" lon="-2.275005"><ele>458.0</ele><time>2026-05-03T10:17:18.783Z</time></trkpt><trkpt lat="54.5666783" lon="-2.27499"><ele>458.0</ele><time>2026-05-03T10:17:19.787Z</time></trkpt><trkpt lat="54.5664467" lon="-2.2749767"><ele>458.0</ele><time>2026-05-03T10:17:20.786Z</time></trkpt><trkpt lat="54.566215" lon="-2.2749667"><ele>454.0</ele><time>2026-05-03T10:17:21.783Z</time></trkpt><trkpt lat="54.5659833" lon="-2.2749517"><ele>450.0</ele><time>2026-05-03T10:17:22.783Z</time></trkpt><trkpt lat="54.5657533" lon="-2.274925"><ele>450.0</ele><time>2026-05-03T10:17:23.782Z</time></trkpt><trkpt lat="54.5655367" lon="-2.2748817"><ele>450.0</ele><time>2026-05-03T10:17:24.785Z</time></trkpt><trkpt lat="54.56534" lon="-2.2748333"><ele>450.0</ele><time>2026-05-03T10:17:25.787Z</time></trkpt><trkpt lat="54.5651567" lon="-2.2747683"><ele>448.0</ele><time>2026-05-03T10:17:26.785Z</time></trkpt><trkpt lat="54.565" lon="-2.2746867"><ele>446.0</ele><time>2026-05-03T10:17:27.784Z</time></trkpt><trkpt lat="54.5648483" lon="-2.2746183"><ele>444.0</ele><time>2026-05-03T10:17:28.783Z</time></trkpt><trkpt lat="54.5646883" lon="-2.2745883"><ele>444.33333333333337</ele><time>2026-05-03T10:17:29.785Z</time></trkpt><trkpt lat="54.5645167" lon="-2.2746083"><ele>444.6666666666667</ele><time>2026-05-03T10:17:30.786Z</time></trkpt><trkpt lat="54.5643367" lon="-2.2746617"><ele>445.0</ele><time>2026-05-03T10:17:31.783Z</time></trkpt><trkpt lat="54.5641483" lon="-2.2747383"><ele>443.33333333333337</ele><time>2026-05-03T10:17:32.783Z</time></trkpt><trkpt lat="54.56395" lon="-2.2748317"><ele>441.66666666666663</ele><time>2026-05-03T10:17:33.786Z</time></trkpt><trkpt lat="54.5637417" lon="-2.2749467"><ele>440.0</ele><time>2026-05-03T10:17:34.783Z</time></trkpt><trkpt lat="54.5635283" lon="-2.27509"><ele>440.0</ele><time>2026-05-03T10:17:35.784Z</time></trkpt><trkpt lat="54.5633133" lon="-2.2752617"><ele>440.0</ele><time>2026-05-03T10:17:36.783Z</time></trkpt><trkpt lat="54.5631017" lon="-2.2754633"><ele>440.0</ele><time>2026-05-03T10:17:37.785Z</time></trkpt><trkpt lat="54.5629017" lon="-2.27569"><ele>440.0</ele><time>2026-05-03T10:17:38.783Z</time></trkpt><trkpt lat="54.5627017" lon="-2.2759283"><ele>440.0</ele><time>2026-05-03T10:17:39.783Z</time></trkpt><trkpt lat="54.56249" lon="-2.2761633"><ele>440.0</ele><time>2026-05-03T10:17:40.785Z</time></trkpt><trkpt lat="54.5622717" lon="-2.2763917"><ele>440.5</ele><time>2026-05-03T10:17:41.782Z</time></trkpt><trkpt lat="54.5620517" lon="-2.2766167"><ele>441.0</ele><time>2026-05-03T10:17:42.787Z</time></trkpt><trkpt lat="54.561825" lon="-2.2768383"><ele>441.0</ele><time>2026-05-03T10:17:43.783Z</time></trkpt><trkpt lat="54.5615967" lon="-2.2770467"><ele>441.0</ele><time>2026-05-03T10:17:44.784Z</time></trkpt><trkpt lat="54.56137" lon="-2.2772433"><ele>441.0</ele><time>2026-05-03T10:17:45.783Z</time></trkpt><trkpt lat="54.5611383" lon="-2.27744"><ele>441.0</ele><time>2026-05-03T10:17:46.788Z</time></trkpt><trkpt lat="54.560905" lon="-2.2776367"><ele>441.0</ele><time>2026-05-03T10:17:47.783Z</time></trkpt><trkpt lat="54.56067" lon="-2.277835"><ele>441.0</ele><time>2026-05-03T10:17:48.786Z</time></trkpt><trkpt lat="54.56044" lon="-2.2780417"><ele>441.0</ele><time>2026-05-03T10:17:49.784Z</time></trkpt><trkpt lat="54.56022" lon="-2.2782417"><ele>441.0</ele><time>2026-05-03T10:17:50.784Z</time></trkpt><trkpt lat="54.5600117" lon="-2.278425"><ele>441.0</ele><time>2026-05-03T10:17:51.782Z</time></trkpt><trkpt lat="54.559795" lon="-2.278605"><ele>441.0</ele><time>2026-05-03T10:17:52.784Z</time></trkpt><trkpt lat="54.5595683" lon="-2.278775"><ele>440.5</ele><time>2026-05-03T10:17:53.782Z</time></trkpt><trkpt lat="54.559335" lon="-2.2789317"><ele>440.0</ele><time>2026-05-03T10:17:54.787Z</time></trkpt><trkpt lat="54.559095" lon="-2.27908"><ele>440.0</ele><time>2026-05-03T10:17:55.786Z</time></trkpt><trkpt lat="54.5588583" lon="-2.2792333"><ele>440.0</ele><time>2026-05-03T10:17:56.787Z</time></trkpt><trkpt lat="54.5586183" lon="-2.2793817"><ele>439.0</ele><time>2026-05-03T10:17:57.787Z</time></trkpt><trkpt lat="54.5583767" lon="-2.279525"><ele>438.0</ele><time>2026-05-03T10:17:58.787Z</time></trkpt><trkpt lat="54.5581367" lon="-2.279675"><ele>437.0</ele><time>2026-05-03T10:17:59.784Z</time></trkpt><trkpt lat="54.5579017" lon="-2.27983"><ele>436.0</ele><time>2026-05-03T10:18:00.784Z</time></trkpt><trkpt lat="54.5576733" lon="-2.2799883"><ele>436.0</ele><time>2026-05-03T10:18:01.784Z</time></trkpt><trkpt lat="54.55746" lon="-2.2801417"><ele>436.0</ele><time>2026-05-03T10:18:02.785Z</time></trkpt><trkpt lat="54.5572567" lon="-2.2802917"><ele>436.0</ele><time>2026-05-03T10:18:03.785Z</time></trkpt><trkpt lat="54.557055" lon="-2.28043"><ele>436.0</ele><time>2026-05-03T10:18:04.784Z</time></trkpt><trkpt lat="54.5568483" lon="-2.2805733"><ele>436.0</ele><time>2026-05-03T10:18:05.783Z</time></trkpt><trkpt lat="54.5566333" lon="-2.2807117"><ele>435.5</ele><time>2026-05-03T10:18:06.786Z</time></trkpt><trkpt lat="54.5564167" lon="-2.28084"><ele>435.0</ele><time>2026-05-03T10:18:07.783Z</time></trkpt><trkpt lat="54.5562033" lon="-2.2809683"><ele>435.33333333333337</ele><time>2026-05-03T10:18:08.783Z</time></trkpt><trkpt lat="54.556005" lon="-2.2810917"><ele>435.6666666666667</ele><time>2026-05-03T10:18:09.782Z</time></trkpt><trkpt lat="54.555815" lon="-2.2812083"><ele>436.0</ele><time>2026-05-03T10:18:10.786Z</time></trkpt><trkpt lat="54.555625" lon="-2.2813267"><ele>435.0</ele><time>2026-05-03T10:18:11.783Z</time></trkpt><trkpt lat="54.5554317" lon="-2.2814533"><ele>434.0</ele><time>2026-05-03T10:18:12.784Z</time></trkpt><trkpt lat="54.5552383" lon="-2.2815883"><ele>433.0</ele><time>2026-05-03T10:18:13.784Z</time></trkpt><trkpt lat="54.5550467" lon="-2.2817267"><ele>433.0</ele><time>2026-05-03T10:18:14.788Z</time></trkpt><trkpt lat="54.5548633" lon="-2.281855"><ele>433.0</ele><time>2026-05-03T10:18:15.783Z</time></trkpt><trkpt lat="54.5546917" lon="-2.2819667"><ele>433.0</ele><time>2026-05-03T10:18:16.783Z</time></trkpt><trkpt lat="54.5545267" lon="-2.2820583"><ele>432.0</ele><time>2026-05-03T10:18:17.783Z</time></trkpt><trkpt lat="54.5543617" lon="-2.2821217"><ele>431.0</ele><time>2026-05-03T10:18:18.783Z</time></trkpt><trkpt lat="54.554195" lon="-2.282145"><ele>430.0</ele><time>2026-05-03T10:18:19.783Z</time></trkpt><trkpt lat="54.5540083" lon="-2.282145"><ele>430.0</ele><time>2026-05-03T10:18:20.787Z</time></trkpt><trkpt lat="54.5538" lon="-2.282135"><ele>430.0</ele><time>2026-05-03T10:18:21.787Z</time></trkpt><trkpt lat="54.5535883" lon="-2.28212"><ele>430.0</ele><time>2026-05-03T10:18:22.786Z</time></trkpt><trkpt lat="54.553375" lon="-2.282105"><ele>429.6666666666667</ele><time>2026-05-03T10:18:23.787Z</time></trkpt><trkpt lat="54.5531617" lon="-2.28209"><ele>429.33333333333337</ele><time>2026-05-03T10:18:24.786Z</time></trkpt><trkpt lat="54.5529417" lon="-2.28207"><ele>429.0</ele><time>2026-05-03T10:18:25.786Z</time></trkpt><trkpt lat="54.5527217" lon="-2.2820533"><ele>428.33333333333337</ele><time>2026-05-03T10:18:26.786Z</time></trkpt><trkpt lat="54.5524983" lon="-2.282035"><ele>427.6666666666667</ele><time>2026-05-03T10:18:27.786Z</time></trkpt><trkpt lat="54.55228" lon="-2.2820117"><ele>427.0</ele><time>2026-05-03T10:18:28.787Z</time></trkpt><trkpt lat="54.552075" lon="-2.28199"><ele>427.33333333333337</ele><time>2026-05-03T10:18:29.787Z</time></trkpt><trkpt lat="54.551885" lon="-2.2819683"><ele>427.66666666666663</ele><time>2026-05-03T10:18:30.786Z</time></trkpt><trkpt lat="54.5517133" lon="-2.2819583"><ele>428.0</ele><time>2026-05-03T10:18:31.788Z</time></trkpt><trkpt lat="54.5515683" lon="-2.28198"><ele>428.0</ele><time>2026-05-03T10:18:32.788Z</time></trkpt><trkpt lat="54.5514333" lon="-2.2820383"><ele>428.0</ele><time>2026-05-03T10:18:33.787Z</time></trkpt><trkpt lat="54.5513" lon="-2.2821317"><ele>428.0</ele><time>2026-05-03T10:18:34.787Z</time></trkpt><trkpt lat="54.5511667" lon="-2.28224"><ele>428.0</ele><time>2026-05-03T10:18:35.787Z</time></trkpt><trkpt lat="54.5510383" lon="-2.282355"><ele>427.5</ele><time>2026-05-03T10:18:36.785Z</time></trkpt><trkpt lat="54.5509167" lon="-2.2824633"><ele>427.0</ele><time>2026-05-03T10:18:37.786Z</time></trkpt><trkpt lat="54.550795" lon="-2.282555"><ele>426.5</ele><time>2026-05-03T10:18:38.787Z</time></trkpt><trkpt lat="54.5506683" lon="-2.2826383"><ele>426.0</ele><time>2026-05-03T10:18:39.784Z</time></trkpt><trkpt lat="54.550535" lon="-2.2827083"><ele>426.0</ele><time>2026-05-03T10:18:40.786Z</time></trkpt><trkpt lat="54.5504033" lon="-2.28277"><ele>426.0</ele><time>2026-05-03T10:18:41.785Z</time></trkpt><trkpt lat="54.550275" lon="-2.282815"><ele>426.0</ele><time>2026-05-03T10:18:42.784Z</time></trkpt><trkpt lat="54.55014" lon="-2.282845"><ele>426.0</ele><time>2026-05-03T10:18:43.786Z</time></trkpt><trkpt lat="54.5500067" lon="-2.2828617"><ele>424.75</ele><time>2026-05-03T10:18:44.786Z</time></trkpt><trkpt lat="54.5498767" lon="-2.2828383"><ele>423.5</ele><time>2026-05-03T10:18:45.787Z</time></trkpt><trkpt lat="54.54975" lon="-2.2827733"><ele>422.25</ele><time>2026-05-03T10:18:46.787Z</time></trkpt><trkpt lat="54.549625" lon="-2.2826583"><ele>421.0</ele><time>2026-05-03T10:18:47.784Z</time></trkpt><trkpt lat="54.5495" lon="-2.2824983"><ele>418.33333333333337</ele><time>2026-05-03T10:18:48.785Z</time></trkpt><trkpt lat="54.5493717" lon="-2.2823083"><ele>415.66666666666663</ele><time>2026-05-03T10:18:49.785Z</time></trkpt><trkpt lat="54.54923" lon="-2.2821233"><ele>413.0</ele><time>2026-05-03T10:18:50.787Z</time></trkpt><trkpt lat="54.5490767" lon="-2.2819467"><ele>413.0</ele><time>2026-05-03T10:18:51.784Z</time></trkpt><trkpt lat="54.5489117" lon="-2.2817917"><ele>413.0</ele><time>2026-05-03T10:18:52.788Z</time></trkpt><trkpt lat="54.548745" lon="-2.28165"><ele>413.0</ele><time>2026-05-03T10:18:53.784Z</time></trkpt><trkpt lat="54.5485733" lon="-2.2814933"><ele>411.0</ele><time>2026-05-03T10:18:54.785Z</time></trkpt><trkpt lat="54.5484" lon="-2.2813233"><ele>409.0</ele><time>2026-05-03T10:18:55.788Z</time></trkpt><trkpt lat="54.548225" lon="-2.2811467"><ele>407.0</ele><time>2026-05-03T10:18:56.784Z</time></trkpt><trkpt lat="54.5480583" lon="-2.2809683"><ele>407.0</ele><time>2026-05-03T10:18:57.784Z</time></trkpt><trkpt lat="54.5478983" lon="-2.28079"><ele>407.0</ele><time>2026-05-03T10:18:58.787Z</time></trkpt><trkpt lat="54.547745" lon="-2.2806083"><ele>407.0</ele><time>2026-05-03T10:18:59.787Z</time></trkpt><trkpt lat="54.5476067" lon="-2.2804333"><ele>405.0</ele><time>2026-05-03T10:19:00.786Z</time></trkpt><trkpt lat="54.5474817" lon="-2.28028"><ele>403.0</ele><time>2026-05-03T10:19:01.788Z</time></trkpt><trkpt lat="54.5473683" lon="-2.2801533"><ele>401.0</ele><time>2026-05-03T10:19:02.787Z</time></trkpt><trkpt lat="54.5472567" lon="-2.2800533"><ele>399.0</ele><time>2026-05-03T10:19:03.785Z</time></trkpt><trkpt lat="54.5471433" lon="-2.2799917"><ele>396.5</ele><time>2026-05-03T10:19:04.788Z</time></trkpt><trkpt lat="54.547015" lon="-2.2799733"><ele>394.0</ele><time>2026-05-03T10:19:05.787Z</time></trkpt><trkpt lat="54.54688" lon="-2.28001"><ele>391.5</ele><time>2026-05-03T10:19:06.787Z</time></trkpt><trkpt lat="54.54673" lon="-2.2800933"><ele>389.0</ele><time>2026-05-03T10:19:07.783Z</time></trkpt><trkpt lat="54.5465683" lon="-2.2802117"><ele>389.0</ele><time>2026-05-03T10:19:08.784Z</time></trkpt><trkpt lat="54.546395" lon="-2.2803467"><ele>389.0</ele><time>2026-05-03T10:19:09.784Z</time></trkpt><trkpt lat="54.5462067" lon="-2.2804883"><ele>389.0</ele><time>2026-05-03T10:19:10.785Z</time></trkpt><trkpt lat="54.5460083" lon="-2.2806383"><ele>386.66666666666663</ele><time>2026-05-03T10:19:11.784Z</time></trkpt><trkpt lat="54.545805" lon="-2.2807967"><ele>384.3333333333333</ele><time>2026-05-03T10:19:12.785Z</time></trkpt><trkpt lat="54.545605" lon="-2.2809467"><ele>382.0</ele><time>2026-05-03T10:19:13.784Z</time></trkpt><trkpt lat="54.5454067" lon="-2.281095"><ele>380.3333333333333</ele><time>2026-05-03T10:19:14.786Z</time></trkpt><trkpt lat="54.5452183" lon="-2.28124"><ele>378.6666666666667</ele><time>2026-05-03T10:19:15.785Z</time></trkpt><trkpt lat="54.5450267" lon="-2.2813867"><ele>377.0</ele><time>2026-05-03T10:19:16.785Z</time></trkpt><trkpt lat="54.5448433" lon="-2.281515"><ele>376.0</ele><time>2026-05-03T10:19:17.784Z</time></trkpt><trkpt lat="54.544665" lon="-2.28163"><ele>375.0</ele><time>2026-05-03T10:19:18.785Z</time></trkpt><trkpt lat="54.5444917" lon="-2.28175"><ele>374.0</ele><time>2026-05-03T10:19:19.785Z</time></trkpt><trkpt lat="54.5443267" lon="-2.28189"><ele>371.6666666666667</ele><time>2026-05-03T10:19:20.787Z</time></trkpt><trkpt lat="54.54416" lon="-2.2820483"><ele>369.3333333333333</ele><time>2026-05-03T10:19:21.785Z</time></trkpt><trkpt lat="54.5439983" lon="-2.282225"><ele>367.0</ele><time>2026-05-03T10:19:22.784Z</time></trkpt><trkpt lat="54.54384" lon="-2.28241"><ele>363.66666666666663</ele><time>2026-05-03T10:19:23.784Z</time></trkpt><trkpt lat="54.5436833" lon="-2.2826017"><ele>360.3333333333333</ele><time>2026-05-03T10:19:24.785Z</time></trkpt><trkpt lat="54.5435317" lon="-2.282805"><ele>357.0</ele><time>2026-05-03T10:19:25.784Z</time></trkpt><trkpt lat="54.5433833" lon="-2.2830083"><ele>356.3333333333333</ele><time>2026-05-03T10:19:26.783Z</time></trkpt><trkpt lat="54.543235" lon="-2.2832083"><ele>355.66666666666663</ele><time>2026-05-03T10:19:27.784Z</time></trkpt><trkpt lat="54.5430933" lon="-2.283405"><ele>355.0</ele><time>2026-05-03T10:19:28.788Z</time></trkpt><trkpt lat="54.5429467" lon="-2.2835983"><ele>351.3333333333333</ele><time>2026-05-03T10:19:29.784Z</time></trkpt><trkpt lat="54.5428" lon="-2.2837933"><ele>347.6666666666667</ele><time>2026-05-03T10:19:30.784Z</time></trkpt><trkpt lat="54.5426567" lon="-2.28399"><ele>344.0</ele><time>2026-05-03T10:19:31.785Z</time></trkpt><trkpt lat="54.542515" lon="-2.284185"><ele>343.33333333333337</ele><time>2026-05-03T10:19:32.784Z</time></trkpt><trkpt lat="54.5423717" lon="-2.284375"><ele>342.6666666666667</ele><time>2026-05-03T10:19:33.785Z</time></trkpt><trkpt lat="54.5422233" lon="-2.28456"><ele>342.0</ele><time>2026-05-03T10:19:34.784Z</time></trkpt><trkpt lat="54.54208" lon="-2.2847517"><ele>339.0</ele><time>2026-05-03T10:19:35.784Z</time></trkpt><trkpt lat="54.5419383" lon="-2.2849433"><ele>336.0</ele><time>2026-05-03T10:19:36.785Z</time></trkpt><trkpt lat="54.5417933" lon="-2.285145"><ele>333.0</ele><time>2026-05-03T10:19:37.784Z</time></trkpt><trkpt lat="54.5416533" lon="-2.2853783"><ele>332.0</ele><time>2026-05-03T10:19:38.785Z</time></trkpt><trkpt lat="54.5415217" lon="-2.28564"><ele>331.0</ele><time>2026-05-03T10:19:39.783Z</time></trkpt><trkpt lat="54.5414" lon="-2.2859317"><ele>330.0</ele><time>2026-05-03T10:19:40.785Z</time></trkpt><trkpt lat="54.5412717" lon="-2.2862333"><ele>328.6666666666667</ele><time>2026-05-03T10:19:41.784Z</time></trkpt><trkpt lat="54.5411433" lon="-2.2865483"><ele>327.33333333333337</ele><time>2026-05-03T10:19:42.784Z</time></trkpt><trkpt lat="54.5410117" lon="-2.2868633"><ele>326.0</ele><time>2026-05-03T10:19:43.785Z</time></trkpt><trkpt lat="54.5408867" lon="-2.287175"><ele>326.0</ele><time>2026-05-03T10:19:44.783Z</time></trkpt><trkpt lat="54.540765" lon="-2.2874683"><ele>326.0</ele><time>2026-05-03T10:19:45.784Z</time></trkpt><trkpt lat="54.5406567" lon="-2.287765"><ele>326.0</ele><time>2026-05-03T10:19:46.785Z</time></trkpt><trkpt lat="54.540565" lon="-2.2880833"><ele>325.6666666666667</ele><time>2026-05-03T10:19:47.784Z</time></trkpt><trkpt lat="54.54048" lon="-2.288425"><ele>325.3333333333333</ele><time>2026-05-03T10:19:48.784Z</time></trkpt><trkpt lat="54.540405" lon="-2.2887833"><ele>325.0</ele><time>2026-05-03T10:19:49.784Z</time></trkpt><trkpt lat="54.54033" lon="-2.28917"><ele>325.0</ele><time>2026-05-03T10:19:50.785Z</time></trkpt><trkpt lat="54.5402517" lon="-2.2895617"><ele>325.0</ele><time>2026-05-03T10:19:51.785Z</time></trkpt><trkpt lat="54.540175" lon="-2.2899467"><ele>323.66666666666663</ele><time>2026-05-03T10:19:52.787Z</time></trkpt><trkpt lat="54.5400967" lon="-2.290315"><ele>322.3333333333333</ele><time>2026-05-03T10:19:53.783Z</time></trkpt><trkpt lat="54.5400167" lon="-2.2906717"><ele>321.0</ele><time>2026-05-03T10:19:54.785Z</time></trkpt><trkpt lat="54.539935" lon="-2.2910133"><ele>320.0</ele><time>2026-05-03T10:19:55.784Z</time></trkpt><trkpt lat="54.5398467" lon="-2.2913567"><ele>319.0</ele><time>2026-05-03T10:19:56.785Z</time></trkpt><trkpt lat="54.5397433" lon="-2.2916967"><ele>318.0</ele><time>2026-05-03T10:19:57.784Z</time></trkpt><trkpt lat="54.53963" lon="-2.29205"><ele>316.5</ele><time>2026-05-03T10:19:58.785Z</time></trkpt><trkpt lat="54.539515" lon="-2.2924117"><ele>315.0</ele><time>2026-05-03T10:19:59.784Z</time></trkpt><trkpt lat="54.539405" lon="-2.29278"><ele>313.0</ele><time>2026-05-03T10:20:00.784Z</time></trkpt><trkpt lat="54.5393" lon="-2.2931267"><ele>311.0</ele><time>2026-05-03T10:20:01.785Z</time></trkpt><trkpt lat="54.5392067" lon="-2.293435"><ele>309.0</ele><time>2026-05-03T10:20:02.785Z</time></trkpt><trkpt lat="54.5391267" lon="-2.29369"><ele>309.0</ele><time>2026-05-03T10:20:03.784Z</time></trkpt><trkpt lat="54.53905" lon="-2.2939067"><ele>309.0</ele><time>2026-05-03T10:20:04.785Z</time></trkpt><trkpt lat="54.5389683" lon="-2.2940817"><ele>309.0</ele><time>2026-05-03T10:20:05.785Z</time></trkpt><trkpt lat="54.53887" lon="-2.2942517"><ele>309.0</ele><time>2026-05-03T10:20:06.786Z</time></trkpt><trkpt lat="54.5387367" lon="-2.2943867"><ele>308.6666666666667</ele><time>2026-05-03T10:20:07.784Z</time></trkpt><trkpt lat="54.5385983" lon="-2.294505"><ele>308.33333333333337</ele><time>2026-05-03T10:20:08.785Z</time></trkpt><trkpt lat="54.53846" lon="-2.2946067"><ele>308.0</ele><time>2026-05-03T10:20:09.784Z</time></trkpt><trkpt lat="54.53832" lon="-2.2946767"><ele>308.0</ele><time>2026-05-03T10:20:10.784Z</time></trkpt><trkpt lat="54.53817" lon="-2.2947417"><ele>308.0</ele><time>2026-05-03T10:20:11.785Z</time></trkpt><trkpt lat="54.5380167" lon="-2.2947917"><ele>308.0</ele><time>2026-05-03T10:20:12.785Z</time></trkpt><trkpt lat="54.537875" lon="-2.2948383"><ele>306.0</ele><time>2026-05-03T10:20:13.785Z</time></trkpt><trkpt lat="54.5377617" lon="-2.29489"><ele>304.0</ele><time>2026-05-03T10:20:14.786Z</time></trkpt><trkpt lat="54.53764" lon="-2.2949533"><ele>302.0</ele><time>2026-05-03T10:20:15.788Z</time></trkpt><trkpt lat="54.537535" lon="-2.2950517"><ele>300.0</ele><time>2026-05-03T10:20:16.787Z</time></trkpt><trkpt lat="54.5374567" lon="-2.295185"><ele>300.0</ele><time>2026-05-03T10:20:17.783Z</time></trkpt><trkpt lat="54.537395" lon="-2.2953767"><ele>300.0</ele><time>2026-05-03T10:20:18.783Z</time></trkpt><trkpt lat="54.53735" lon="-2.2956367"><ele>300.0</ele><time>2026-05-03T10:20:19.785Z</time></trkpt><trkpt lat="54.53731" lon="-2.2959317"><ele>297.6666666666667</ele><time>2026-05-03T10:20:20.787Z</time></trkpt><trkpt lat="54.5372683" lon="-2.2962483"><ele>295.33333333333337</ele><time>2026-05-03T10:20:21.787Z</time></trkpt><trkpt lat="54.537225" lon="-2.296575"><ele>293.0</ele><time>2026-05-03T10:20:22.784Z</time></trkpt><trkpt lat="54.53718" lon="-2.2969133"><ele>294.0</ele><time>2026-05-03T10:20:23.787Z</time></trkpt><trkpt lat="54.5371317" lon="-2.2972583"><ele>295.0</ele><time>2026-05-03T10:20:24.787Z</time></trkpt><trkpt lat="54.537085" lon="-2.297615"><ele>296.0</ele><time>2026-05-03T10:20:25.787Z</time></trkpt><trkpt lat="54.5370383" lon="-2.297975"><ele>294.33333333333337</ele><time>2026-05-03T10:20:26.786Z</time></trkpt><trkpt lat="54.53699" lon="-2.2983333"><ele>292.6666666666667</ele><time>2026-05-03T10:20:27.785Z</time></trkpt><trkpt lat="54.536945" lon="-2.2987"><ele>291.0</ele><time>2026-05-03T10:20:28.786Z</time></trkpt><trkpt lat="54.5368983" lon="-2.2990617"><ele>290.0</ele><time>2026-05-03T10:20:29.783Z</time></trkpt><trkpt lat="54.53685" lon="-2.299415"><ele>289.0</ele><time>2026-05-03T10:20:30.784Z</time></trkpt><trkpt lat="54.5368033" lon="-2.2997433"><ele>288.0</ele><time>2026-05-03T10:20:31.787Z</time></trkpt><trkpt lat="54.5367633" lon="-2.3000433"><ele>286.0</ele><time>2026-05-03T10:20:32.786Z</time></trkpt><trkpt lat="54.5367167" lon="-2.3003267"><ele>284.0</ele><time>2026-05-03T10:20:33.787Z</time></trkpt><trkpt lat="54.5366617" lon="-2.3006067"><ele>282.0</ele><time>2026-05-03T10:20:34.784Z</time></trkpt><trkpt lat="54.536595" lon="-2.3008617"><ele>280.75</ele><time>2026-05-03T10:20:35.784Z</time></trkpt><trkpt lat="54.53652" lon="-2.3010717"><ele>279.5</ele><time>2026-05-03T10:20:36.787Z</time></trkpt><trkpt lat="54.5364317" lon="-2.3012417"><ele>278.25</ele><time>2026-05-03T10:20:37.785Z</time></trkpt><trkpt lat="54.536325" lon="-2.30137"><ele>277.0</ele><time>2026-05-03T10:20:38.784Z</time></trkpt><trkpt lat="54.536195" lon="-2.3014533"><ele>274.3333333333333</ele><time>2026-05-03T10:20:39.784Z</time></trkpt><trkpt lat="54.5360317" lon="-2.3014883"><ele>271.6666666666667</ele><time>2026-05-03T10:20:40.787Z</time></trkpt><trkpt lat="54.5358567" lon="-2.301485"><ele>269.0</ele><time>2026-05-03T10:20:41.787Z</time></trkpt><trkpt lat="54.5356717" lon="-2.3014433"><ele>269.6666666666667</ele><time>2026-05-03T10:20:42.784Z</time></trkpt><trkpt lat="54.5354717" lon="-2.301385"><ele>270.3333333333333</ele><time>2026-05-03T10:20:43.783Z</time></trkpt><trkpt lat="54.5352633" lon="-2.3013383"><ele>271.0</ele><time>2026-05-03T10:20:44.783Z</time></trkpt><trkpt lat="54.5350517" lon="-2.301305"><ele>271.0</ele><time>2026-05-03T10:20:45.787Z</time></trkpt><trkpt lat="54.5348417" lon="-2.3012517"><ele>271.0</ele><time>2026-05-03T10:20:46.785Z</time></trkpt><trkpt lat="54.5346383" lon="-2.301205"><ele>271.0</ele><time>2026-05-03T10:20:47.787Z</time></trkpt><trkpt lat="54.53444" lon="-2.3011667"><ele>268.66666666666663</ele><time>2026-05-03T10:20:48.784Z</time></trkpt><trkpt lat="54.5342467" lon="-2.3011317"><ele>266.3333333333333</ele><time>2026-05-03T10:20:49.784Z</time></trkpt><trkpt lat="54.5340533" lon="-2.3010867"><ele>264.0</ele><time>2026-05-03T10:20:50.783Z</time></trkpt><trkpt lat="54.5338567" lon="-2.3010433"><ele>260.6666666666667</ele><time>2026-05-03T10:20:51.785Z</time></trkpt><trkpt lat="54.5336517" lon="-2.30101"><ele>257.33333333333337</ele><time>2026-05-03T10:20:52.787Z</time></trkpt><trkpt lat="54.533435" lon="-2.301"><ele>254.0</ele><time>2026-05-03T10:20:53.783Z</time></trkpt><trkpt lat="54.5332183" lon="-2.3010133"><ele>254.0</ele><time>2026-05-03T10:20:54.784Z</time></trkpt><trkpt lat="54.5330033" lon="-2.3010267"><ele>254.0</ele><time>2026-05-03T10:20:55.784Z</time></trkpt><trkpt lat="54.5327933" lon="-2.3010533"><ele>254.0</ele><time>2026-05-03T10:20:56.785Z</time></trkpt><trkpt lat="54.5325967" lon="-2.3010833"><ele>251.0</ele><time>2026-05-03T10:20:57.783Z</time></trkpt><trkpt lat="54.5324083" lon="-2.30111"><ele>248.0</ele><time>2026-05-03T10:20:58.787Z</time></trkpt><trkpt lat="54.53223" lon="-2.3011317"><ele>245.0</ele><time>2026-05-03T10:20:59.784Z</time></trkpt><trkpt lat="54.5320683" lon="-2.3011567"><ele>243.25</ele><time>2026-05-03T10:21:00.787Z</time></trkpt><trkpt lat="54.53193" lon="-2.3011867"><ele>241.5</ele><time>2026-05-03T10:21:01.784Z</time></trkpt><trkpt lat="54.5318033" lon="-2.3012383"><ele>239.75</ele><time>2026-05-03T10:21:02.787Z</time></trkpt><trkpt lat="54.5316733" lon="-2.3013367"><ele>238.0</ele><time>2026-05-03T10:21:03.782Z</time></trkpt><trkpt lat="54.5315383" lon="-2.3014867"><ele>238.0</ele><time>2026-05-03T10:21:04.785Z</time></trkpt><trkpt lat="54.531395" lon="-2.3016667"><ele>238.0</ele><time>2026-05-03T10:21:05.783Z</time></trkpt><trkpt lat="54.5312433" lon="-2.3018517"><ele>238.0</ele><time>2026-05-03T10:21:06.785Z</time></trkpt><trkpt lat="54.531085" lon="-2.3020467"><ele>235.66666666666666</ele><time>2026-05-03T10:21:07.785Z</time></trkpt><trkpt lat="54.5309283" lon="-2.3022483"><ele>233.33333333333331</ele><time>2026-05-03T10:21:08.782Z</time></trkpt><trkpt lat="54.5307833" lon="-2.3024667"><ele>231.0</ele><time>2026-05-03T10:21:09.784Z</time></trkpt><trkpt lat="54.5306467" lon="-2.3027033"><ele>231.0</ele><time>2026-05-03T10:21:10.784Z</time></trkpt><trkpt lat="54.5305133" lon="-2.3029783"><ele>231.0</ele><time>2026-05-03T10:21:11.785Z</time></trkpt><trkpt lat="54.5303867" lon="-2.3032683"><ele>231.0</ele><time>2026-05-03T10:21:12.787Z</time></trkpt><trkpt lat="54.5302617" lon="-2.303545"><ele>228.66666666666669</ele><time>2026-05-03T10:21:13.785Z</time></trkpt><trkpt lat="54.5301433" lon="-2.3038117"><ele>226.33333333333334</ele><time>2026-05-03T10:21:14.784Z</time></trkpt><trkpt lat="54.5300317" lon="-2.3040633"><ele>224.0</ele><time>2026-05-03T10:21:15.784Z</time></trkpt><trkpt lat="54.52993" lon="-2.3043033"><ele>223.75</ele><time>2026-05-03T10:21:16.784Z</time></trkpt><trkpt lat="54.5298367" lon="-2.304515"><ele>223.5</ele><time>2026-05-03T10:21:17.783Z</time></trkpt><trkpt lat="54.5297517" lon="-2.3046983"><ele>223.25</ele><time>2026-05-03T10:21:18.785Z</time></trkpt><trkpt lat="54.5296683" lon="-2.304855"><ele>223.0</ele><time>2026-05-03T10:21:19.783Z</time></trkpt><trkpt lat="54.5295867" lon="-2.3050067"><ele>222.8</ele><time>2026-05-03T10:21:20.785Z</time></trkpt><trkpt lat="54.5295017" lon="-2.3051467"><ele>222.60000000000002</ele><time>2026-05-03T10:21:21.782Z</time></trkpt><trkpt lat="54.5294167" lon="-2.3052833"><ele>222.39999999999998</ele><time>2026-05-03T10:21:22.784Z</time></trkpt><trkpt lat="54.5293417" lon="-2.3053917"><ele>222.2</ele><time>2026-05-03T10:21:23.785Z</time></trkpt><trkpt lat="54.5292833" lon="-2.305505"><ele>222.0</ele><time>2026-05-03T10:21:24.784Z</time></trkpt><trkpt lat="54.52922" lon="-2.305635"><ele>222.0</ele><time>2026-05-03T10:21:25.784Z</time></trkpt><trkpt lat="54.5291467" lon="-2.3057617"><ele>222.0</ele><time>2026-05-03T10:21:26.786Z</time></trkpt><trkpt lat="54.5290733" lon="-2.305885"><ele>222.0</ele><time>2026-05-03T10:21:27.785Z</time></trkpt><trkpt lat="54.529" lon="-2.30601"><ele>222.0</ele><time>2026-05-03T10:21:28.784Z</time></trkpt><trkpt lat="54.5289267" lon="-2.30613"><ele>222.0</ele><time>2026-05-03T10:21:29.785Z</time></trkpt><trkpt lat="54.5288583" lon="-2.3062383"><ele>222.0</ele><time>2026-05-03T10:21:30.786Z</time></trkpt><trkpt lat="54.528795" lon="-2.3063433"><ele>222.0</ele><time>2026-05-03T10:21:31.784Z</time></trkpt><trkpt lat="54.5287267" lon="-2.3064317"><ele>222.0</ele><time>2026-05-03T10:21:32.787Z</time></trkpt><trkpt lat="54.5286583" lon="-2.3065183"><ele>222.0</ele><time>2026-05-03T10:21:33.785Z</time></trkpt><trkpt lat="54.528595" lon="-2.30662"><ele>222.0</ele><time>2026-05-03T10:21:34.785Z</time></trkpt><trkpt lat="54.52854" lon="-2.306735"><ele>222.0</ele><time>2026-05-03T10:21:35.785Z</time></trkpt><trkpt lat="54.5284833" lon="-2.3068617"><ele>222.0</ele><time>2026-05-03T10:21:36.784Z</time></trkpt><trkpt lat="54.52842" lon="-2.3069933"><ele>222.0</ele><time>2026-05-03T10:21:37.785Z</time></trkpt><trkpt lat="54.5283567" lon="-2.307125"><ele>222.0</ele><time>2026-05-03T10:21:38.784Z</time></trkpt><trkpt lat="54.5282883" lon="-2.3072617"><ele>222.0</ele><time>2026-05-03T10:21:39.785Z</time></trkpt><trkpt lat="54.52821" lon="-2.3074133"><ele>222.0</ele><time>2026-05-03T10:21:40.782Z</time></trkpt><trkpt lat="54.5281117" lon="-2.3075817"><ele>222.0</ele><time>2026-05-03T10:21:41.785Z</time></trkpt><trkpt lat="54.52801" lon="-2.30778"><ele>222.0</ele><time>2026-05-03T10:21:42.785Z</time></trkpt><trkpt lat="54.5279083" lon="-2.3079767"><ele>222.0</ele><time>2026-05-03T10:21:43.783Z</time></trkpt><trkpt lat="54.5278083" lon="-2.3081733"><ele>220.33333333333331</ele><time>2026-05-03T10:21:44.783Z</time></trkpt><trkpt lat="54.5277167" lon="-2.3083933"><ele>218.66666666666666</ele><time>2026-05-03T10:21:45.784Z</time></trkpt><trkpt lat="54.527625" lon="-2.30863"><ele>217.0</ele><time>2026-05-03T10:21:46.785Z</time></trkpt><trkpt lat="54.5275333" lon="-2.3088783"><ele>216.66666666666666</ele><time>2026-05-03T10:21:47.784Z</time></trkpt><trkpt lat="54.5274483" lon="-2.3091367"><ele>216.33333333333331</ele><time>2026-05-03T10:21:48.784Z</time></trkpt><trkpt lat="54.5273667" lon="-2.3093867"><ele>216.0</ele><time>2026-05-03T10:21:49.784Z</time></trkpt><trkpt lat="54.5272967" lon="-2.30962"><ele>214.66666666666669</ele><time>2026-05-03T10:21:50.785Z</time></trkpt><trkpt lat="54.527225" lon="-2.3098567"><ele>213.33333333333334</ele><time>2026-05-03T10:21:51.784Z</time></trkpt><trkpt lat="54.527165" lon="-2.310095"><ele>212.0</ele><time>2026-05-03T10:21:52.784Z</time></trkpt><trkpt lat="54.5271017" lon="-2.310345"><ele>210.0</ele><time>2026-05-03T10:21:53.784Z</time></trkpt><trkpt lat="54.5270433" lon="-2.310605"><ele>208.0</ele><time>2026-05-03T10:21:54.783Z</time></trkpt><trkpt lat="54.5269867" lon="-2.3108817"><ele>206.0</ele><time>2026-05-03T10:21:55.784Z</time></trkpt><trkpt lat="54.52694" lon="-2.31114"><ele>206.0</ele><time>2026-05-03T10:21:56.787Z</time></trkpt><trkpt lat="54.5269017" lon="-2.311385"><ele>206.0</ele><time>2026-05-03T10:21:57.785Z</time></trkpt><trkpt lat="54.5268617" lon="-2.31162"><ele>206.0</ele><time>2026-05-03T10:21:58.785Z</time></trkpt><trkpt lat="54.5268183" lon="-2.3118467"><ele>206.0</ele><time>2026-05-03T10:21:59.785Z</time></trkpt><trkpt lat="54.5267683" lon="-2.312075"><ele>204.75</ele><time>2026-05-03T10:22:00.784Z</time></trkpt><trkpt lat="54.52672" lon="-2.3123017"><ele>203.5</ele><time>2026-05-03T10:22:01.785Z</time></trkpt><trkpt lat="54.52667" lon="-2.3125117"><ele>202.25</ele><time>2026-05-03T10:22:02.783Z</time></trkpt><trkpt lat="54.5266167" lon="-2.3127067"><ele>201.0</ele><time>2026-05-03T10:22:03.785Z</time></trkpt><trkpt lat="54.5265683" lon="-2.3128833"><ele>201.0</ele><time>2026-05-03T10:22:04.785Z</time></trkpt><trkpt lat="54.5265183" lon="-2.313055"><ele>201.0</ele><time>2026-05-03T10:22:05.783Z</time></trkpt><trkpt lat="54.526475" lon="-2.313225"><ele>201.0</ele><time>2026-05-03T10:22:06.784Z</time></trkpt><trkpt lat="54.526425" lon="-2.3133983"><ele>201.0</ele><time>2026-05-03T10:22:07.784Z</time></trkpt><trkpt lat="54.5263817" lon="-2.3135733"><ele>201.0</ele><time>2026-05-03T10:22:08.784Z</time></trkpt><trkpt lat="54.5263367" lon="-2.3137433"><ele>200.0</ele><time>2026-05-03T10:22:09.784Z</time></trkpt><trkpt lat="54.5263017" lon="-2.3139317"><ele>199.0</ele><time>2026-05-03T10:22:10.783Z</time></trkpt><trkpt lat="54.52626" lon="-2.3141083"><ele>198.0</ele><time>2026-05-03T10:22:11.785Z</time></trkpt><trkpt lat="54.5262167" lon="-2.3142867"><ele>197.0</ele><time>2026-05-03T10:22:12.785Z</time></trkpt><trkpt lat="54.52617" lon="-2.314465"><ele>195.25</ele><time>2026-05-03T10:22:13.783Z</time></trkpt><trkpt lat="54.5261183" lon="-2.3146383"><ele>193.5</ele><time>2026-05-03T10:22:14.787Z</time></trkpt><trkpt lat="54.52606" lon="-2.314805"><ele>191.75</ele><time>2026-05-03T10:22:15.785Z</time></trkpt><trkpt lat="54.52601" lon="-2.3149833"><ele>190.0</ele><time>2026-05-03T10:22:16.784Z</time></trkpt><trkpt lat="54.5259667" lon="-2.315165"><ele>189.8</ele><time>2026-05-03T10:22:17.784Z</time></trkpt><trkpt lat="54.5259333" lon="-2.3153567"><ele>189.6</ele><time>2026-05-03T10:22:18.783Z</time></trkpt><trkpt lat="54.5259083" lon="-2.3155417"><ele>189.39999999999998</ele><time>2026-05-03T10:22:19.783Z</time></trkpt><trkpt lat="54.5258967" lon="-2.3157317"><ele>189.2</ele><time>2026-05-03T10:22:20.787Z</time></trkpt><trkpt lat="54.525895" lon="-2.3159117"><ele>189.0</ele><time>2026-05-03T10:22:21.783Z</time></trkpt><trkpt lat="54.5259033" lon="-2.31609"><ele>188.25</ele><time>2026-05-03T10:22:22.785Z</time></trkpt><trkpt lat="54.5259217" lon="-2.3162733"><ele>187.5</ele><time>2026-05-03T10:22:23.787Z</time></trkpt><trkpt lat="54.5259467" lon="-2.3164667"><ele>186.75</ele><time>2026-05-03T10:22:24.783Z</time></trkpt><trkpt lat="54.5259783" lon="-2.31668"><ele>186.0</ele><time>2026-05-03T10:22:25.783Z</time></trkpt><trkpt lat="54.526025" lon="-2.3169167"><ele>185.25</ele><time>2026-05-03T10:22:26.784Z</time></trkpt><trkpt lat="54.5260833" lon="-2.317155"><ele>184.5</ele><time>2026-05-03T10:22:27.784Z</time></trkpt><trkpt lat="54.526145" lon="-2.3173767"><ele>183.75</ele><time>2026-05-03T10:22:28.785Z</time></trkpt><trkpt lat="54.5262017" lon="-2.317575"><ele>183.0</ele><time>2026-05-03T10:22:29.785Z</time></trkpt><trkpt lat="54.5262533" lon="-2.31776"><ele>183.0</ele><time>2026-05-03T10:22:30.785Z</time></trkpt><trkpt lat="54.5262967" lon="-2.3179317"><ele>183.0</ele><time>2026-05-03T10:22:31.785Z</time></trkpt><trkpt lat="54.5263317" lon="-2.318085"><ele>183.0</ele><time>2026-05-03T10:22:32.784Z</time></trkpt><trkpt lat="54.526325" lon="-2.3182017"><ele>183.0</ele><time>2026-05-03T10:22:33.784Z</time></trkpt><trkpt lat="54.5262617" lon="-2.3183583"><ele>183.0</ele><time>2026-05-03T10:22:35.784Z</time></trkpt><trkpt lat="54.52616" lon="-2.318475"><ele>182.5</ele><time>2026-05-03T10:22:37.785Z</time></trkpt><trkpt lat="54.5260933" lon="-2.3185333"><ele>182.0</ele><time>2026-05-03T10:22:38.786Z</time></trkpt><trkpt lat="54.5260217" lon="-2.3185867"><ele>181.5</ele><time>2026-05-03T10:22:39.784Z</time></trkpt><trkpt lat="54.525955" lon="-2.318645"><ele>181.0</ele><time>2026-05-03T10:22:40.784Z</time></trkpt><trkpt lat="54.5258917" lon="-2.31869"><ele>180.5</ele><time>2026-05-03T10:22:41.784Z</time></trkpt><trkpt lat="54.52577" lon="-2.3187433"><ele>180.0</ele><time>2026-05-03T10:22:43.784Z</time></trkpt><trkpt lat="54.5256967" lon="-2.3187633"><ele>180.0</ele><time>2026-05-03T10:22:44.787Z</time></trkpt><trkpt lat="54.525625" lon="-2.3187883"><ele>180.0</ele><time>2026-05-03T10:22:45.783Z</time></trkpt><trkpt lat="54.525545" lon="-2.3188133"><ele>180.0</ele><time>2026-05-03T10:22:46.783Z</time></trkpt><trkpt lat="54.5254533" lon="-2.31884"><ele>180.0</ele><time>2026-05-03T10:22:47.785Z</time></trkpt><trkpt lat="54.5253583" lon="-2.3188583"><ele>180.0</ele><time>2026-05-03T10:22:48.785Z</time></trkpt><trkpt lat="54.5252583" lon="-2.318865"><ele>180.0</ele><time>2026-05-03T10:22:49.784Z</time></trkpt><trkpt lat="54.52516" lon="-2.318875"><ele>180.25</ele><time>2026-05-03T10:22:50.783Z</time></trkpt><trkpt lat="54.5250567" lon="-2.3188767"><ele>180.5</ele><time>2026-05-03T10:22:51.783Z</time></trkpt><trkpt lat="54.5249467" lon="-2.3188717"><ele>180.75</ele><time>2026-05-03T10:22:52.783Z</time></trkpt><trkpt lat="54.5248283" lon="-2.3188583"><ele>181.0</ele><time>2026-05-03T10:22:53.783Z</time></trkpt><trkpt lat="54.5247083" lon="-2.3188383"><ele>181.0</ele><time>2026-05-03T10:22:54.783Z</time></trkpt><trkpt lat="54.5245867" lon="-2.3188133"><ele>181.0</ele><time>2026-05-03T10:22:55.785Z</time></trkpt><trkpt lat="54.524465" lon="-2.3187817"><ele>181.0</ele><time>2026-05-03T10:22:56.784Z</time></trkpt><trkpt lat="54.5243417" lon="-2.31875"><ele>181.0</ele><time>2026-05-03T10:22:57.783Z</time></trkpt><trkpt lat="54.52422" lon="-2.3187367"><ele>180.25</ele><time>2026-05-03T10:22:58.784Z</time></trkpt><trkpt lat="54.524095" lon="-2.31867"><ele>179.5</ele><time>2026-05-03T10:22:59.783Z</time></trkpt><trkpt lat="54.5239667" lon="-2.3186233"><ele>178.75</ele><time>2026-05-03T10:23:00.787Z</time></trkpt><trkpt lat="54.5238367" lon="-2.3185783"><ele>178.0</ele><time>2026-05-03T10:23:01.784Z</time></trkpt><trkpt lat="54.5237033" lon="-2.3185217"><ele>177.5</ele><time>2026-05-03T10:23:02.787Z</time></trkpt><trkpt lat="54.5235633" lon="-2.318465"><ele>177.0</ele><time>2026-05-03T10:23:03.784Z</time></trkpt><trkpt lat="54.5234233" lon="-2.318415"><ele>176.5</ele><time>2026-05-03T10:23:04.784Z</time></trkpt><trkpt lat="54.5232817" lon="-2.318365"><ele>176.0</ele><time>2026-05-03T10:23:05.782Z</time></trkpt><trkpt lat="54.523135" lon="-2.3183067"><ele>176.0</ele><time>2026-05-03T10:23:06.784Z</time></trkpt><trkpt lat="54.522985" lon="-2.31826"><ele>176.0</ele><time>2026-05-03T10:23:07.785Z</time></trkpt><trkpt lat="54.5228383" lon="-2.3182083"><ele>176.0</ele><time>2026-05-03T10:23:08.787Z</time></trkpt><trkpt lat="54.5226917" lon="-2.3181583"><ele>175.75</ele><time>2026-05-03T10:23:09.783Z</time></trkpt><trkpt lat="54.5225483" lon="-2.3181083"><ele>175.5</ele><time>2026-05-03T10:23:10.784Z</time></trkpt><trkpt lat="54.522405" lon="-2.3180617"><ele>175.25</ele><time>2026-05-03T10:23:11.784Z</time></trkpt><trkpt lat="54.5222617" lon="-2.3180117"><ele>175.0</ele><time>2026-05-03T10:23:12.784Z</time></trkpt><trkpt lat="54.52212" lon="-2.3179633"><ele>174.75</ele><time>2026-05-03T10:23:13.784Z</time></trkpt><trkpt lat="54.5219783" lon="-2.3179167"><ele>174.5</ele><time>2026-05-03T10:23:14.784Z</time></trkpt><trkpt lat="54.521835" lon="-2.3178667"><ele>174.25</ele><time>2026-05-03T10:23:15.783Z</time></trkpt><trkpt lat="54.5216917" lon="-2.3178183"><ele>174.0</ele><time>2026-05-03T10:23:16.785Z</time></trkpt><trkpt lat="54.52155" lon="-2.31777"><ele>174.0</ele><time>2026-05-03T10:23:17.783Z</time></trkpt><trkpt lat="54.5214083" lon="-2.317725"><ele>174.0</ele><time>2026-05-03T10:23:18.785Z</time></trkpt><trkpt lat="54.5212667" lon="-2.3176817"><ele>174.0</ele><time>2026-05-03T10:23:19.784Z</time></trkpt><trkpt lat="54.5211233" lon="-2.3176367"><ele>174.0</ele><time>2026-05-03T10:23:20.784Z</time></trkpt><trkpt lat="54.5209767" lon="-2.3176017"><ele>176.0</ele><time>2026-05-03T10:23:21.783Z</time></trkpt><trkpt lat="54.52083" lon="-2.317565"><ele>178.0</ele><time>2026-05-03T10:23:22.785Z</time></trkpt><trkpt lat="54.5206767" lon="-2.3175283"><ele>180.0</ele><time>2026-05-03T10:23:23.783Z</time></trkpt><trkpt lat="54.5205217" lon="-2.3174967"><ele>181.33333333333334</ele><time>2026-05-03T10:23:24.784Z</time></trkpt><trkpt lat="54.5203633" lon="-2.3174717"><ele>182.66666666666669</ele><time>2026-05-03T10:23:25.783Z</time></trkpt><trkpt lat="54.5202067" lon="-2.317445"><ele>184.0</ele><time>2026-05-03T10:23:26.784Z</time></trkpt><trkpt lat="54.5200517" lon="-2.3174233"><ele>184.0</ele><time>2026-05-03T10:23:27.783Z</time></trkpt><trkpt lat="54.519895" lon="-2.317405"><ele>184.0</ele><time>2026-05-03T10:23:28.785Z</time></trkpt><trkpt lat="54.51974" lon="-2.3173917"><ele>184.0</ele><time>2026-05-03T10:23:29.784Z</time></trkpt><trkpt lat="54.5195867" lon="-2.31739"><ele>184.25</ele><time>2026-05-03T10:23:30.786Z</time></trkpt><trkpt lat="54.519435" lon="-2.317395"><ele>184.5</ele><time>2026-05-03T10:23:31.785Z</time></trkpt><trkpt lat="54.519285" lon="-2.3174017"><ele>184.75</ele><time>2026-05-03T10:23:32.787Z</time></trkpt><trkpt lat="54.5191467" lon="-2.3174017"><ele>185.0</ele><time>2026-05-03T10:23:33.787Z</time></trkpt><trkpt lat="54.5190183" lon="-2.3174017"><ele>185.0</ele><time>2026-05-03T10:23:34.783Z</time></trkpt><trkpt lat="54.518905" lon="-2.3174133"><ele>185.0</ele><time>2026-05-03T10:23:35.784Z</time></trkpt><trkpt lat="54.5188183" lon="-2.3174183"><ele>185.0</ele><time>2026-05-03T10:23:36.785Z</time></trkpt><trkpt lat="54.5187467" lon="-2.3174133"><ele>185.0</ele><time>2026-05-03T10:23:37.785Z</time></trkpt><trkpt lat="54.5186567" lon="-2.317315"><ele>185.0</ele><time>2026-05-03T10:23:39.783Z</time></trkpt><trkpt lat="54.518585" lon="-2.3171567"><ele>187.0</ele><time>2026-05-03T10:23:41.784Z</time></trkpt><trkpt lat="54.5186" lon="-2.3169583"><ele>189.0</ele><time>2026-05-03T10:23:42.784Z</time></trkpt><trkpt lat="54.5186767" lon="-2.316585"><ele>191.0</ele><time>2026-05-03T10:23:43.783Z</time></trkpt><trkpt lat="54.5186817" lon="-2.3162967"><ele>191.0</ele><time>2026-05-03T10:23:44.784Z</time></trkpt><trkpt lat="54.5186867" lon="-2.316015"><ele>191.0</ele><time>2026-05-03T10:23:45.783Z</time></trkpt><trkpt lat="54.5186867" lon="-2.3157817"><ele>191.0</ele><time>2026-05-03T10:23:46.786Z</time></trkpt><trkpt lat="54.5186917" lon="-2.315595"><ele>191.0</ele><time>2026-05-03T10:23:47.784Z</time></trkpt><trkpt lat="54.51869" lon="-2.3154217"><ele>190.75</ele><time>2026-05-03T10:23:48.786Z</time></trkpt><trkpt lat="54.518685" lon="-2.3152367"><ele>190.5</ele><time>2026-05-03T10:23:49.783Z</time></trkpt><trkpt lat="54.5186817" lon="-2.3150367"><ele>190.25</ele><time>2026-05-03T10:23:50.784Z</time></trkpt><trkpt lat="54.5186767" lon="-2.3148117"><ele>190.0</ele><time>2026-05-03T10:23:51.787Z</time></trkpt><trkpt lat="54.5186683" lon="-2.3145717"><ele>189.33333333333334</ele><time>2026-05-03T10:23:52.784Z</time></trkpt><trkpt lat="54.5186517" lon="-2.3142983"><ele>188.66666666666666</ele><time>2026-05-03T10:23:53.787Z</time></trkpt><trkpt lat="54.5186317" lon="-2.3140133"><ele>188.0</ele><time>2026-05-03T10:23:54.784Z</time></trkpt><trkpt lat="54.5186117" lon="-2.3137283"><ele>187.66666666666666</ele><time>2026-05-03T10:23:55.784Z</time></trkpt><trkpt lat="54.5185983" lon="-2.3134283"><ele>187.33333333333334</ele><time>2026-05-03T10:23:56.784Z</time></trkpt><trkpt lat="54.51858" lon="-2.3131067"><ele>187.0</ele><time>2026-05-03T10:23:57.786Z</time></trkpt><trkpt lat="54.5185533" lon="-2.3127817"><ele>187.0</ele><time>2026-05-03T10:23:58.787Z</time></trkpt><trkpt lat="54.5185133" lon="-2.3124367"><ele>187.0</ele><time>2026-05-03T10:23:59.787Z</time></trkpt><trkpt lat="54.5184717" lon="-2.31209"><ele>187.0</ele><time>2026-05-03T10:24:00.784Z</time></trkpt><trkpt lat="54.5184283" lon="-2.3117433"><ele>186.66666666666669</ele><time>2026-05-03T10:24:01.783Z</time></trkpt><trkpt lat="54.5183883" lon="-2.31141"><ele>186.33333333333334</ele><time>2026-05-03T10:24:02.784Z</time></trkpt><trkpt lat="54.5183533" lon="-2.3110767"><ele>186.0</ele><time>2026-05-03T10:24:03.783Z</time></trkpt><trkpt lat="54.5183217" lon="-2.3107567"><ele>185.33333333333334</ele><time>2026-05-03T10:24:04.783Z</time></trkpt><trkpt lat="54.518295" lon="-2.310455"><ele>184.66666666666669</ele><time>2026-05-03T10:24:05.783Z</time></trkpt><trkpt lat="54.5182667" lon="-2.3101667"><ele>184.0</ele><time>2026-05-03T10:24:06.784Z</time></trkpt><trkpt lat="54.51824" lon="-2.309895"><ele>183.33333333333334</ele><time>2026-05-03T10:24:07.784Z</time></trkpt><trkpt lat="54.518215" lon="-2.3096183"><ele>182.66666666666666</ele><time>2026-05-03T10:24:08.784Z</time></trkpt><trkpt lat="54.5181967" lon="-2.3093283"><ele>182.0</ele><time>2026-05-03T10:24:09.786Z</time></trkpt><trkpt lat="54.5181817" lon="-2.309035"><ele>181.66666666666666</ele><time>2026-05-03T10:24:10.784Z</time></trkpt><trkpt lat="54.51817" lon="-2.3087467"><ele>181.33333333333334</ele><time>2026-05-03T10:24:11.785Z</time></trkpt><trkpt lat="54.5181533" lon="-2.3084517"><ele>181.0</ele><time>2026-05-03T10:24:12.784Z</time></trkpt><trkpt lat="54.5181317" lon="-2.3081433"><ele>181.0</ele><time>2026-05-03T10:24:13.783Z</time></trkpt><trkpt lat="54.5181067" lon="-2.3078517"><ele>181.0</ele><time>2026-05-03T10:24:14.787Z</time></trkpt><trkpt lat="54.5180733" lon="-2.3075817"><ele>181.0</ele><time>2026-05-03T10:24:15.783Z</time></trkpt><trkpt lat="54.5180483" lon="-2.307335"><ele>181.0</ele><time>2026-05-03T10:24:16.787Z</time></trkpt><trkpt lat="54.51802" lon="-2.3071067"><ele>181.0</ele><time>2026-05-03T10:24:17.784Z</time></trkpt><trkpt lat="54.517985" lon="-2.3068867"><ele>181.0</ele><time>2026-05-03T10:24:18.784Z</time></trkpt><trkpt lat="54.517935" lon="-2.3066767"><ele>181.0</ele><time>2026-05-03T10:24:19.784Z</time></trkpt><trkpt lat="54.517875" lon="-2.3064783"><ele>181.75</ele><time>2026-05-03T10:24:20.786Z</time></trkpt><trkpt lat="54.5178167" lon="-2.306295"><ele>182.5</ele><time>2026-05-03T10:24:21.789Z</time></trkpt><trkpt lat="54.51777" lon="-2.306105"><ele>183.25</ele><time>2026-05-03T10:24:22.783Z</time></trkpt><trkpt lat="54.5177417" lon="-2.3059033"><ele>184.0</ele><time>2026-05-03T10:24:23.782Z</time></trkpt><trkpt lat="54.5177183" lon="-2.30568"><ele>183.33333333333334</ele><time>2026-05-03T10:24:24.783Z</time></trkpt><trkpt lat="54.517695" lon="-2.3054317"><ele>182.66666666666666</ele><time>2026-05-03T10:24:25.784Z</time></trkpt><trkpt lat="54.5176633" lon="-2.3051783"><ele>182.0</ele><time>2026-05-03T10:24:26.784Z</time></trkpt><trkpt lat="54.5176217" lon="-2.3049167"><ele>182.0</ele><time>2026-05-03T10:24:27.783Z</time></trkpt><trkpt lat="54.5175667" lon="-2.30465"><ele>182.0</ele><time>2026-05-03T10:24:28.783Z</time></trkpt><trkpt lat="54.5175083" lon="-2.3043817"><ele>182.0</ele><time>2026-05-03T10:24:29.786Z</time></trkpt><trkpt lat="54.5174317" lon="-2.304095"><ele>182.33333333333331</ele><time>2026-05-03T10:24:30.783Z</time></trkpt><trkpt lat="54.5173417" lon="-2.303795"><ele>182.66666666666666</ele><time>2026-05-03T10:24:31.788Z</time></trkpt><trkpt lat="54.5172433" lon="-2.3034867"><ele>183.0</ele><time>2026-05-03T10:24:32.784Z</time></trkpt><trkpt lat="54.5171417" lon="-2.3031767"><ele>186.0</ele><time>2026-05-03T10:24:33.784Z</time></trkpt><trkpt lat="54.5170383" lon="-2.3028567"><ele>189.0</ele><time>2026-05-03T10:24:34.785Z</time></trkpt><trkpt lat="54.51693" lon="-2.302535"><ele>192.0</ele><time>2026-05-03T10:24:35.784Z</time></trkpt><trkpt lat="54.5168267" lon="-2.3022183"><ele>193.0</ele><time>2026-05-03T10:24:36.785Z</time></trkpt><trkpt lat="54.5167233" lon="-2.301905"><ele>194.0</ele><time>2026-05-03T10:24:37.783Z</time></trkpt><trkpt lat="54.5166217" lon="-2.3015867"><ele>195.0</ele><time>2026-05-03T10:24:38.782Z</time></trkpt><trkpt lat="54.5165217" lon="-2.3012583"><ele>195.66666666666669</ele><time>2026-05-03T10:24:39.782Z</time></trkpt><trkpt lat="54.516425" lon="-2.3009167"><ele>196.33333333333334</ele><time>2026-05-03T10:24:40.784Z</time></trkpt><trkpt lat="54.51633" lon="-2.3005633"><ele>197.0</ele><time>2026-05-03T10:24:41.784Z</time></trkpt><trkpt lat="54.51624" lon="-2.3002017"><ele>199.0</ele><time>2026-05-03T10:24:42.784Z</time></trkpt><trkpt lat="54.5161483" lon="-2.299835"><ele>201.0</ele><time>2026-05-03T10:24:43.784Z</time></trkpt><trkpt lat="54.5160567" lon="-2.2994667"><ele>201.66666666666669</ele><time>2026-05-03T10:24:44.787Z</time></trkpt><trkpt lat="54.5159683" lon="-2.299105"><ele>202.33333333333334</ele><time>2026-05-03T10:24:45.783Z</time></trkpt><trkpt lat="54.5158817" lon="-2.298755"><ele>203.0</ele><time>2026-05-03T10:24:46.784Z</time></trkpt><trkpt lat="54.5158017" lon="-2.2984233"><ele>203.0</ele><time>2026-05-03T10:24:47.785Z</time></trkpt><trkpt lat="54.5157217" lon="-2.2981083"><ele>203.0</ele><time>2026-05-03T10:24:48.787Z</time></trkpt><trkpt lat="54.5156467" lon="-2.2978067"><ele>203.0</ele><time>2026-05-03T10:24:49.785Z</time></trkpt><trkpt lat="54.5155767" lon="-2.297525"><ele>203.66666666666669</ele><time>2026-05-03T10:24:50.784Z</time></trkpt><trkpt lat="54.5155133" lon="-2.29725"><ele>204.33333333333331</ele><time>2026-05-03T10:24:51.783Z</time></trkpt><trkpt lat="54.5154483" lon="-2.2969517"><ele>205.0</ele><time>2026-05-03T10:24:52.787Z</time></trkpt><trkpt lat="54.515375" lon="-2.2966367"><ele>205.0</ele><time>2026-05-03T10:24:53.785Z</time></trkpt><trkpt lat="54.5153067" lon="-2.2963183"><ele>205.0</ele><time>2026-05-03T10:24:54.783Z</time></trkpt><trkpt lat="54.5152417" lon="-2.2959983"><ele>205.0</ele><time>2026-05-03T10:24:55.783Z</time></trkpt><trkpt lat="54.51518" lon="-2.295675"><ele>204.66666666666666</ele><time>2026-05-03T10:24:56.784Z</time></trkpt><trkpt lat="54.5151217" lon="-2.2953567"><ele>204.33333333333331</ele><time>2026-05-03T10:24:57.784Z</time></trkpt><trkpt lat="54.515065" lon="-2.2950433"><ele>204.0</ele><time>2026-05-03T10:24:58.784Z</time></trkpt><trkpt lat="54.5150133" lon="-2.294725"><ele>203.0</ele><time>2026-05-03T10:24:59.784Z</time></trkpt><trkpt lat="54.5149533" lon="-2.2943917"><ele>202.0</ele><time>2026-05-03T10:25:00.784Z</time></trkpt><trkpt lat="54.5148867" lon="-2.2940383"><ele>201.0</ele><time>2026-05-03T10:25:01.784Z</time></trkpt><trkpt lat="54.514815" lon="-2.2936683"><ele>199.0</ele><time>2026-05-03T10:25:02.784Z</time></trkpt><trkpt lat="54.514745" lon="-2.293295"><ele>197.0</ele><time>2026-05-03T10:25:03.784Z</time></trkpt><trkpt lat="54.5146767" lon="-2.2929283"><ele>196.33333333333334</ele><time>2026-05-03T10:25:04.785Z</time></trkpt><trkpt lat="54.5146067" lon="-2.29257"><ele>195.66666666666669</ele><time>2026-05-03T10:25:05.783Z</time></trkpt><trkpt lat="54.5145383" lon="-2.292225"><ele>195.0</ele><time>2026-05-03T10:25:06.784Z</time></trkpt><trkpt lat="54.5144717" lon="-2.2918867"><ele>193.66666666666666</ele><time>2026-05-03T10:25:07.784Z</time></trkpt><trkpt lat="54.5144083" lon="-2.29157"><ele>192.33333333333331</ele><time>2026-05-03T10:25:08.783Z</time></trkpt><trkpt lat="54.5143533" lon="-2.29127"><ele>191.0</ele><time>2026-05-03T10:25:09.784Z</time></trkpt><trkpt lat="54.514305" lon="-2.2909967"><ele>190.33333333333331</ele><time>2026-05-03T10:25:10.784Z</time></trkpt><trkpt lat="54.5142583" lon="-2.2907217"><ele>189.66666666666666</ele><time>2026-05-03T10:25:11.784Z</time></trkpt><trkpt lat="54.51419" lon="-2.29044"><ele>189.0</ele><time>2026-05-03T10:25:12.784Z</time></trkpt><trkpt lat="54.5141117" lon="-2.29016"><ele>188.66666666666666</ele><time>2026-05-03T10:25:13.784Z</time></trkpt><trkpt lat="54.5140283" lon="-2.2898933"><ele>188.33333333333331</ele><time>2026-05-03T10:25:14.784Z</time></trkpt><trkpt lat="54.51395" lon="-2.2896617"><ele>188.0</ele><time>2026-05-03T10:25:15.786Z</time></trkpt><trkpt lat="54.5138733" lon="-2.289465"><ele>187.5</ele><time>2026-05-03T10:25:16.787Z</time></trkpt><trkpt lat="54.5137883" lon="-2.289305"><ele>187.0</ele><time>2026-05-03T10:25:17.785Z</time></trkpt><trkpt lat="54.51368" lon="-2.2891783"><ele>186.5</ele><time>2026-05-03T10:25:18.786Z</time></trkpt><trkpt lat="54.5135467" lon="-2.28909"><ele>186.0</ele><time>2026-05-03T10:25:19.787Z</time></trkpt><trkpt lat="54.513395" lon="-2.2890317"><ele>187.66666666666666</ele><time>2026-05-03T10:25:20.785Z</time></trkpt><trkpt lat="54.5132367" lon="-2.28898"><ele>189.33333333333331</ele><time>2026-05-03T10:25:21.784Z</time></trkpt><trkpt lat="54.51309" lon="-2.28892"><ele>191.0</ele><time>2026-05-03T10:25:22.784Z</time></trkpt><trkpt lat="54.51295" lon="-2.2888433"><ele>192.0</ele><time>2026-05-03T10:25:23.784Z</time></trkpt><trkpt lat="54.51283" lon="-2.288725"><ele>193.0</ele><time>2026-05-03T10:25:24.784Z</time></trkpt><trkpt lat="54.51272" lon="-2.2885883"><ele>194.0</ele><time>2026-05-03T10:25:25.783Z</time></trkpt><trkpt lat="54.5126317" lon="-2.2884267"><ele>195.0</ele><time>2026-05-03T10:25:26.784Z</time></trkpt><trkpt lat="54.5125767" lon="-2.288265"><ele>194.75</ele><time>2026-05-03T10:25:27.783Z</time></trkpt><trkpt lat="54.5125383" lon="-2.2880783"><ele>194.5</ele><time>2026-05-03T10:25:28.784Z</time></trkpt><trkpt lat="54.5125233" lon="-2.28785"><ele>194.25</ele><time>2026-05-03T10:25:29.784Z</time></trkpt><trkpt lat="54.5125367" lon="-2.2875983"><ele>194.0</ele><time>2026-05-03T10:25:30.783Z</time></trkpt><trkpt lat="54.5125483" lon="-2.2873067"><ele>194.33333333333334</ele><time>2026-05-03T10:25:31.783Z</time></trkpt><trkpt lat="54.51254" lon="-2.287"><ele>194.66666666666669</ele><time>2026-05-03T10:25:32.784Z</time></trkpt><trkpt lat="54.5125367" lon="-2.2866867"><ele>195.0</ele><time>2026-05-03T10:25:33.784Z</time></trkpt><trkpt lat="54.5125317" lon="-2.2863633"><ele>195.0</ele><time>2026-05-03T10:25:34.784Z</time></trkpt><trkpt lat="54.51252" lon="-2.2860133"><ele>195.0</ele><time>2026-05-03T10:25:35.784Z</time></trkpt><trkpt lat="54.5125" lon="-2.2856717"><ele>195.0</ele><time>2026-05-03T10:25:36.785Z</time></trkpt><trkpt lat="54.512475" lon="-2.2853633"><ele>195.25</ele><time>2026-05-03T10:25:37.787Z</time></trkpt><trkpt lat="54.5124483" lon="-2.2851033"><ele>195.5</ele><time>2026-05-03T10:25:38.786Z</time></trkpt><trkpt lat="54.5124267" lon="-2.2848883"><ele>195.75</ele><time>2026-05-03T10:25:39.783Z</time></trkpt><trkpt lat="54.51241" lon="-2.2847167"><ele>196.0</ele><time>2026-05-03T10:25:40.784Z</time></trkpt><trkpt lat="54.5123983" lon="-2.2845783"><ele>196.0</ele><time>2026-05-03T10:25:41.784Z</time></trkpt><trkpt lat="54.5123817" lon="-2.28447"><ele>196.0</ele><time>2026-05-03T10:25:42.783Z</time></trkpt><trkpt lat="54.51236" lon="-2.2842717"><ele>196.0</ele><time>2026-05-03T10:25:44.785Z</time></trkpt><trkpt lat="54.5123283" lon="-2.2840667"><ele>196.0</ele><time>2026-05-03T10:25:46.783Z</time></trkpt><trkpt lat="54.512305" lon="-2.2839333"><ele>196.0</ele><time>2026-05-03T10:25:47.787Z</time></trkpt><trkpt lat="54.5122667" lon="-2.2837533"><ele>196.75</ele><time>2026-05-03T10:25:48.787Z</time></trkpt><trkpt lat="54.5122183" lon="-2.283545"><ele>197.5</ele><time>2026-05-03T10:25:49.788Z</time></trkpt><trkpt lat="54.51217" lon="-2.2833233"><ele>198.25</ele><time>2026-05-03T10:25:50.785Z</time></trkpt><trkpt lat="54.5121217" lon="-2.2830833"><ele>199.0</ele><time>2026-05-03T10:25:51.782Z</time></trkpt><trkpt lat="54.5120733" lon="-2.2828417"><ele>202.0</ele><time>2026-05-03T10:25:52.785Z</time></trkpt><trkpt lat="54.5120217" lon="-2.2825883"><ele>205.0</ele><time>2026-05-03T10:25:53.785Z</time></trkpt><trkpt lat="54.5119683" lon="-2.2823317"><ele>208.0</ele><time>2026-05-03T10:25:54.784Z</time></trkpt><trkpt lat="54.51191" lon="-2.2820517"><ele>209.0</ele><time>2026-05-03T10:25:55.784Z</time></trkpt><trkpt lat="54.5118617" lon="-2.2817783"><ele>210.0</ele><time>2026-05-03T10:25:56.784Z</time></trkpt><trkpt lat="54.51181" lon="-2.2815017"><ele>211.0</ele><time>2026-05-03T10:25:57.783Z</time></trkpt><trkpt lat="54.5117617" lon="-2.2812067"><ele>211.0</ele><time>2026-05-03T10:25:58.783Z</time></trkpt><trkpt lat="54.51171" lon="-2.280895"><ele>211.0</ele><time>2026-05-03T10:25:59.788Z</time></trkpt><trkpt lat="54.51166" lon="-2.2805733"><ele>211.0</ele><time>2026-05-03T10:26:00.784Z</time></trkpt><trkpt lat="54.51161" lon="-2.28024"><ele>211.0</ele><time>2026-05-03T10:26:01.785Z</time></trkpt><trkpt lat="54.5115617" lon="-2.2799033"><ele>211.0</ele><time>2026-05-03T10:26:02.782Z</time></trkpt><trkpt lat="54.511515" lon="-2.2795533"><ele>211.0</ele><time>2026-05-03T10:26:03.783Z</time></trkpt><trkpt lat="54.5114667" lon="-2.2791983"><ele>211.33333333333331</ele><time>2026-05-03T10:26:04.784Z</time></trkpt><trkpt lat="54.5114233" lon="-2.2788483"><ele>211.66666666666669</ele><time>2026-05-03T10:26:05.784Z</time></trkpt><trkpt lat="54.5113767" lon="-2.2785033"><ele>212.0</ele><time>2026-05-03T10:26:06.782Z</time></trkpt><trkpt lat="54.5113333" lon="-2.278175"><ele>212.33333333333334</ele><time>2026-05-03T10:26:07.783Z</time></trkpt><trkpt lat="54.51129" lon="-2.2778633"><ele>212.66666666666669</ele><time>2026-05-03T10:26:08.783Z</time></trkpt><trkpt lat="54.5112517" lon="-2.2775683"><ele>213.0</ele><time>2026-05-03T10:26:09.782Z</time></trkpt><trkpt lat="54.51122" lon="-2.277285"><ele>213.33333333333331</ele><time>2026-05-03T10:26:10.784Z</time></trkpt><trkpt lat="54.511185" lon="-2.27699"><ele>213.66666666666666</ele><time>2026-05-03T10:26:11.784Z</time></trkpt><trkpt lat="54.5111367" lon="-2.2766883"><ele>214.0</ele><time>2026-05-03T10:26:12.784Z</time></trkpt><trkpt lat="54.5110917" lon="-2.2764"><ele>214.0</ele><time>2026-05-03T10:26:13.784Z</time></trkpt><trkpt lat="54.5110467" lon="-2.2761167"><ele>214.0</ele><time>2026-05-03T10:26:14.787Z</time></trkpt><trkpt lat="54.5110033" lon="-2.275825"><ele>214.0</ele><time>2026-05-03T10:26:15.783Z</time></trkpt><trkpt lat="54.5109567" lon="-2.275525"><ele>213.66666666666666</ele><time>2026-05-03T10:26:16.787Z</time></trkpt><trkpt lat="54.51091" lon="-2.2752233"><ele>213.33333333333331</ele><time>2026-05-03T10:26:17.787Z</time></trkpt><trkpt lat="54.5108667" lon="-2.274925"><ele>213.0</ele><time>2026-05-03T10:26:18.785Z</time></trkpt><trkpt lat="54.5108267" lon="-2.27464"><ele>212.33333333333331</ele><time>2026-05-03T10:26:19.787Z</time></trkpt><trkpt lat="54.510785" lon="-2.2743633"><ele>211.66666666666666</ele><time>2026-05-03T10:26:20.783Z</time></trkpt><trkpt lat="54.5107483" lon="-2.2740933"><ele>211.0</ele><time>2026-05-03T10:26:21.783Z</time></trkpt><trkpt lat="54.5107117" lon="-2.2738333"><ele>210.75</ele><time>2026-05-03T10:26:22.782Z</time></trkpt><trkpt lat="54.510675" lon="-2.2735917"><ele>210.5</ele><time>2026-05-03T10:26:23.784Z</time></trkpt><trkpt lat="54.5106417" lon="-2.27337"><ele>210.25</ele><time>2026-05-03T10:26:24.784Z</time></trkpt><trkpt lat="54.510615" lon="-2.2731567"><ele>210.0</ele><time>2026-05-03T10:26:25.783Z</time></trkpt><trkpt lat="54.5106017" lon="-2.2729433"><ele>209.25</ele><time>2026-05-03T10:26:26.782Z</time></trkpt><trkpt lat="54.5106167" lon="-2.272735"><ele>208.5</ele><time>2026-05-03T10:26:27.783Z</time></trkpt><trkpt lat="54.5106467" lon="-2.2725383"><ele>207.75</ele><time>2026-05-03T10:26:28.784Z</time></trkpt><trkpt lat="54.5106967" lon="-2.272355"><ele>207.0</ele><time>2026-05-03T10:26:29.784Z</time></trkpt><trkpt lat="54.510765" lon="-2.2721667"><ele>206.2</ele><time>2026-05-03T10:26:30.784Z</time></trkpt><trkpt lat="54.5108517" lon="-2.272005"><ele>205.39999999999998</ele><time>2026-05-03T10:26:31.784Z</time></trkpt><trkpt lat="54.5109283" lon="-2.2718583"><ele>204.60000000000002</ele><time>2026-05-03T10:26:32.784Z</time></trkpt><trkpt lat="54.5109983" lon="-2.2717433"><ele>203.8</ele><time>2026-05-03T10:26:33.782Z</time></trkpt><trkpt lat="54.511055" lon="-2.2716517"><ele>203.0</ele><time>2026-05-03T10:26:34.786Z</time></trkpt><trkpt lat="54.51111" lon="-2.271475"><ele>203.28571428571428</ele><time>2026-05-03T10:26:36.784Z</time></trkpt><trkpt lat="54.5111183" lon="-2.271285"><ele>203.57142857142856</ele><time>2026-05-03T10:26:38.785Z</time></trkpt><trkpt lat="54.511095" lon="-2.2711833"><ele>203.85714285714286</ele><time>2026-05-03T10:26:39.785Z</time></trkpt><trkpt lat="54.51106" lon="-2.2710833"><ele>204.14285714285714</ele><time>2026-05-03T10:26:40.784Z</time></trkpt><trkpt lat="54.5110167" lon="-2.270995"><ele>204.42857142857142</ele><time>2026-05-03T10:26:41.783Z</time></trkpt><trkpt lat="54.51097" lon="-2.2709217"><ele>204.71428571428572</ele><time>2026-05-03T10:26:42.784Z</time></trkpt><trkpt lat="54.5109067" lon="-2.27086"><ele>205.0</ele><time>2026-05-03T10:26:43.786Z</time></trkpt><trkpt lat="54.510835" lon="-2.270785"><ele>204.99999999999997</ele><time>2026-05-03T10:26:44.784Z</time></trkpt><trkpt lat="54.5107633" lon="-2.2707017"><ele>205.0</ele><time>2026-05-03T10:26:45.784Z</time></trkpt><trkpt lat="54.510695" lon="-2.2706133"><ele>205.0</ele><time>2026-05-03T10:26:46.788Z</time></trkpt><trkpt lat="54.5106267" lon="-2.2705133"><ele>205.0</ele><time>2026-05-03T10:26:47.785Z</time></trkpt><trkpt lat="54.5105733" lon="-2.2704083"><ele>204.99999999999997</ele><time>2026-05-03T10:26:48.784Z</time></trkpt><trkpt lat="54.510535" lon="-2.27029"><ele>205.0</ele><time>2026-05-03T10:26:49.785Z</time></trkpt><trkpt lat="54.510495" lon="-2.2701333"><ele>206.75</ele><time>2026-05-03T10:26:50.786Z</time></trkpt><trkpt lat="54.5104467" lon="-2.26997"><ele>208.5</ele><time>2026-05-03T10:26:51.785Z</time></trkpt><trkpt lat="54.5103767" lon="-2.2698067"><ele>210.25</ele><time>2026-05-03T10:26:52.785Z</time></trkpt><trkpt lat="54.510285" lon="-2.26963"><ele>212.0</ele><time>2026-05-03T10:26:53.785Z</time></trkpt><trkpt lat="54.51017" lon="-2.2694483"><ele>213.0</ele><time>2026-05-03T10:26:54.784Z</time></trkpt><trkpt lat="54.5100583" lon="-2.2692833"><ele>214.0</ele><time>2026-05-03T10:26:55.785Z</time></trkpt><trkpt lat="54.509935" lon="-2.26914"><ele>215.0</ele><time>2026-05-03T10:26:56.784Z</time></trkpt><trkpt lat="54.5098067" lon="-2.2690217"><ele>216.0</ele><time>2026-05-03T10:26:57.784Z</time></trkpt><trkpt lat="54.5096583" lon="-2.2689167"><ele>219.0</ele><time>2026-05-03T10:26:58.785Z</time></trkpt><trkpt lat="54.509505" lon="-2.2688117"><ele>222.0</ele><time>2026-05-03T10:26:59.785Z</time></trkpt><trkpt lat="54.5093317" lon="-2.26869"><ele>225.0</ele><time>2026-05-03T10:27:00.785Z</time></trkpt><trkpt lat="54.50914" lon="-2.268565"><ele>225.0</ele><time>2026-05-03T10:27:01.784Z</time></trkpt><trkpt lat="54.5089533" lon="-2.2684633"><ele>225.0</ele><time>2026-05-03T10:27:02.783Z</time></trkpt><trkpt lat="54.5087683" lon="-2.2683583"><ele>225.0</ele><time>2026-05-03T10:27:03.785Z</time></trkpt><trkpt lat="54.50859" lon="-2.2682367"><ele>227.0</ele><time>2026-05-03T10:27:04.785Z</time></trkpt><trkpt lat="54.508415" lon="-2.26811"><ele>229.0</ele><time>2026-05-03T10:27:05.783Z</time></trkpt><trkpt lat="54.50825" lon="-2.267975"><ele>231.0</ele><time>2026-05-03T10:27:06.785Z</time></trkpt><trkpt lat="54.508095" lon="-2.2678433"><ele>233.33333333333331</ele><time>2026-05-03T10:27:07.786Z</time></trkpt><trkpt lat="54.5079433" lon="-2.2676983"><ele>235.66666666666666</ele><time>2026-05-03T10:27:08.785Z</time></trkpt><trkpt lat="54.5078" lon="-2.2675567"><ele>238.0</ele><time>2026-05-03T10:27:09.785Z</time></trkpt><trkpt lat="54.5076617" lon="-2.2674167"><ele>241.33333333333331</ele><time>2026-05-03T10:27:10.785Z</time></trkpt><trkpt lat="54.50753" lon="-2.26727"><ele>244.66666666666669</ele><time>2026-05-03T10:27:11.785Z</time></trkpt><trkpt lat="54.5073867" lon="-2.2671033"><ele>248.0</ele><time>2026-05-03T10:27:12.784Z</time></trkpt><trkpt lat="54.50725" lon="-2.266915"><ele>248.0</ele><time>2026-05-03T10:27:13.783Z</time></trkpt><trkpt lat="54.5071167" lon="-2.2667333"><ele>248.0</ele><time>2026-05-03T10:27:14.785Z</time></trkpt><trkpt lat="54.5069717" lon="-2.2665617"><ele>248.0</ele><time>2026-05-03T10:27:15.784Z</time></trkpt><trkpt lat="54.5068567" lon="-2.2664133"><ele>249.25</ele><time>2026-05-03T10:27:16.785Z</time></trkpt><trkpt lat="54.5067483" lon="-2.26626"><ele>250.5</ele><time>2026-05-03T10:27:17.785Z</time></trkpt><trkpt lat="54.5066317" lon="-2.2661"><ele>251.75</ele><time>2026-05-03T10:27:18.786Z</time></trkpt><trkpt lat="54.50652" lon="-2.2659483"><ele>253.0</ele><time>2026-05-03T10:27:19.785Z</time></trkpt><trkpt lat="54.506405" lon="-2.2657867"><ele>253.0</ele><time>2026-05-03T10:27:20.784Z</time></trkpt><trkpt lat="54.506285" lon="-2.2656167"><ele>253.0</ele><time>2026-05-03T10:27:21.784Z</time></trkpt><trkpt lat="54.5061617" lon="-2.2654283"><ele>253.0</ele><time>2026-05-03T10:27:22.784Z</time></trkpt><trkpt lat="54.506035" lon="-2.265235"><ele>254.33333333333331</ele><time>2026-05-03T10:27:23.786Z</time></trkpt><trkpt lat="54.50591" lon="-2.2650383"><ele>255.66666666666669</ele><time>2026-05-03T10:27:24.784Z</time></trkpt><trkpt lat="54.505785" lon="-2.26484"><ele>257.0</ele><time>2026-05-03T10:27:25.784Z</time></trkpt><trkpt lat="54.5056617" lon="-2.264635"><ele>257.0</ele><time>2026-05-03T10:27:26.785Z</time></trkpt><trkpt lat="54.5055383" lon="-2.2644333"><ele>257.0</ele><time>2026-05-03T10:27:27.784Z</time></trkpt><trkpt lat="54.5054283" lon="-2.2642417"><ele>257.0</ele><time>2026-05-03T10:27:28.785Z</time></trkpt><trkpt lat="54.5053267" lon="-2.2640517"><ele>257.6666666666667</ele><time>2026-05-03T10:27:29.785Z</time></trkpt><trkpt lat="54.5052283" lon="-2.26387"><ele>258.3333333333333</ele><time>2026-05-03T10:27:30.783Z</time></trkpt><trkpt lat="54.5051217" lon="-2.26369"><ele>259.0</ele><time>2026-05-03T10:27:31.785Z</time></trkpt><trkpt lat="54.505" lon="-2.26351"><ele>259.0</ele><time>2026-05-03T10:27:32.784Z</time></trkpt><trkpt lat="54.50487" lon="-2.263335"><ele>259.0</ele><time>2026-05-03T10:27:33.784Z</time></trkpt><trkpt lat="54.50474" lon="-2.263185"><ele>259.0</ele><time>2026-05-03T10:27:34.785Z</time></trkpt><trkpt lat="54.5046233" lon="-2.2630533"><ele>259.8</ele><time>2026-05-03T10:27:35.789Z</time></trkpt><trkpt lat="54.504525" lon="-2.2629367"><ele>260.59999999999997</ele><time>2026-05-03T10:27:36.787Z</time></trkpt><trkpt lat="54.5044367" lon="-2.2628417"><ele>261.4</ele><time>2026-05-03T10:27:37.785Z</time></trkpt><trkpt lat="54.5043667" lon="-2.262765"><ele>262.2</ele><time>2026-05-03T10:27:38.787Z</time></trkpt><trkpt lat="54.50428" lon="-2.2626567"><ele>263.0</ele><time>2026-05-03T10:27:40.787Z</time></trkpt><trkpt lat="54.504235" lon="-2.262575"><ele>263.0</ele><time>2026-05-03T10:27:42.784Z</time></trkpt><trkpt lat="54.5042117" lon="-2.2623767"><ele>263.0</ele><time>2026-05-03T10:28:53.784Z</time></trkpt><trkpt lat="54.5042167" lon="-2.2622533"><ele>263.0</ele><time>2026-05-03T10:28:54.783Z</time></trkpt><trkpt lat="54.50422" lon="-2.2621117"><ele>263.0</ele><time>2026-05-03T10:28:55.786Z</time></trkpt><trkpt lat="54.5042217" lon="-2.261965"><ele>263.0</ele><time>2026-05-03T10:28:56.784Z</time></trkpt><trkpt lat="54.50422" lon="-2.2618183"><ele>263.0</ele><time>2026-05-03T10:28:57.782Z</time></trkpt><trkpt lat="54.504215" lon="-2.26167"><ele>263.1666666666667</ele><time>2026-05-03T10:28:58.784Z</time></trkpt><trkpt lat="54.50421" lon="-2.2615267"><ele>263.33333333333337</ele><time>2026-05-03T10:28:59.785Z</time></trkpt><trkpt lat="54.504205" lon="-2.2613833"><ele>263.5</ele><time>2026-05-03T10:29:00.783Z</time></trkpt><trkpt lat="54.5042" lon="-2.2612433"><ele>263.6666666666667</ele><time>2026-05-03T10:29:01.784Z</time></trkpt><trkpt lat="54.5041967" lon="-2.2611017"><ele>263.8333333333333</ele><time>2026-05-03T10:29:02.784Z</time></trkpt><trkpt lat="54.5041933" lon="-2.260955"><ele>264.0</ele><time>2026-05-03T10:29:03.783Z</time></trkpt><trkpt lat="54.5041867" lon="-2.2608017"><ele>264.0</ele><time>2026-05-03T10:29:04.784Z</time></trkpt><trkpt lat="54.504175" lon="-2.2606383"><ele>264.0</ele><time>2026-05-03T10:29:05.786Z</time></trkpt><trkpt lat="54.5041667" lon="-2.2604733"><ele>264.0</ele><time>2026-05-03T10:29:06.784Z</time></trkpt><trkpt lat="54.5041583" lon="-2.260305"><ele>264.0</ele><time>2026-05-03T10:29:07.783Z</time></trkpt><trkpt lat="54.50415" lon="-2.26013"><ele>264.0</ele><time>2026-05-03T10:29:08.784Z</time></trkpt><trkpt lat="54.5041417" lon="-2.2599467"><ele>264.0</ele><time>2026-05-03T10:29:09.783Z</time></trkpt><trkpt lat="54.50413" lon="-2.2597583"><ele>264.0</ele><time>2026-05-03T10:29:10.782Z</time></trkpt><trkpt lat="54.5041217" lon="-2.2595667"><ele>264.0</ele><time>2026-05-03T10:29:11.785Z</time></trkpt><trkpt lat="54.5041167" lon="-2.2593633"><ele>264.0</ele><time>2026-05-03T10:29:12.784Z</time></trkpt><trkpt lat="54.5041133" lon="-2.2591383"><ele>264.3333333333333</ele><time>2026-05-03T10:29:13.784Z</time></trkpt><trkpt lat="54.5041167" lon="-2.2588883"><ele>264.66666666666663</ele><time>2026-05-03T10:29:14.784Z</time></trkpt><trkpt lat="54.50412" lon="-2.2586267"><ele>265.0</ele><time>2026-05-03T10:29:15.783Z</time></trkpt><trkpt lat="54.50412" lon="-2.2583583"><ele>265.5</ele><time>2026-05-03T10:29:16.783Z</time></trkpt><trkpt lat="54.50412" lon="-2.2580917"><ele>266.0</ele><time>2026-05-03T10:29:17.784Z</time></trkpt><trkpt lat="54.50412" lon="-2.2578333"><ele>266.5</ele><time>2026-05-03T10:29:18.783Z</time></trkpt><trkpt lat="54.50412" lon="-2.257585"><ele>267.0</ele><time>2026-05-03T10:29:19.784Z</time></trkpt><trkpt lat="54.5041183" lon="-2.2573483"><ele>267.25</ele><time>2026-05-03T10:29:20.783Z</time></trkpt><trkpt lat="54.504115" lon="-2.2571167"><ele>267.5</ele><time>2026-05-03T10:29:21.783Z</time></trkpt><trkpt lat="54.50411" lon="-2.2568867"><ele>267.75</ele><time>2026-05-03T10:29:22.784Z</time></trkpt><trkpt lat="54.504105" lon="-2.25665"><ele>268.0</ele><time>2026-05-03T10:29:23.784Z</time></trkpt><trkpt lat="54.504095" lon="-2.2564017"><ele>268.0</ele><time>2026-05-03T10:29:24.784Z</time></trkpt><trkpt lat="54.504095" lon="-2.2561433"><ele>268.0</ele><time>2026-05-03T10:29:25.784Z</time></trkpt><trkpt lat="54.5040883" lon="-2.255885"><ele>268.0</ele><time>2026-05-03T10:29:26.783Z</time></trkpt><trkpt lat="54.5040833" lon="-2.2556283"><ele>268.0</ele><time>2026-05-03T10:29:27.784Z</time></trkpt><trkpt lat="54.504085" lon="-2.2553733"><ele>268.0</ele><time>2026-05-03T10:29:28.784Z</time></trkpt><trkpt lat="54.5040833" lon="-2.2551317"><ele>268.0</ele><time>2026-05-03T10:29:29.785Z</time></trkpt><trkpt lat="54.5040833" lon="-2.2549033"><ele>268.0</ele><time>2026-05-03T10:29:30.783Z</time></trkpt><trkpt lat="54.5040817" lon="-2.2546817"><ele>268.0</ele><time>2026-05-03T10:29:31.784Z</time></trkpt><trkpt lat="54.50408" lon="-2.2544683"><ele>268.0</ele><time>2026-05-03T10:29:32.783Z</time></trkpt><trkpt lat="54.5040767" lon="-2.2542433"><ele>268.0</ele><time>2026-05-03T10:29:33.783Z</time></trkpt><trkpt lat="54.5040783" lon="-2.25401"><ele>268.0</ele><time>2026-05-03T10:29:34.784Z</time></trkpt><trkpt lat="54.5040783" lon="-2.2537683"><ele>268.0</ele><time>2026-05-03T10:29:35.783Z</time></trkpt><trkpt lat="54.5040767" lon="-2.253525"><ele>268.5</ele><time>2026-05-03T10:29:36.784Z</time></trkpt><trkpt lat="54.5040717" lon="-2.2532917"><ele>269.0</ele><time>2026-05-03T10:29:37.784Z</time></trkpt><trkpt lat="54.5040633" lon="-2.2530617"><ele>269.5</ele><time>2026-05-03T10:29:38.784Z</time></trkpt><trkpt lat="54.5040567" lon="-2.2528267"><ele>270.0</ele><time>2026-05-03T10:29:39.784Z</time></trkpt><trkpt lat="54.5040517" lon="-2.2525917"><ele>271.3333333333333</ele><time>2026-05-03T10:29:40.783Z</time></trkpt><trkpt lat="54.5040433" lon="-2.2523367"><ele>272.66666666666663</ele><time>2026-05-03T10:29:41.783Z</time></trkpt><trkpt lat="54.50404" lon="-2.2520733"><ele>274.0</ele><time>2026-05-03T10:29:42.784Z</time></trkpt><trkpt lat="54.5040317" lon="-2.251795"><ele>275.3333333333333</ele><time>2026-05-03T10:29:43.786Z</time></trkpt><trkpt lat="54.504025" lon="-2.2515083"><ele>276.6666666666667</ele><time>2026-05-03T10:29:44.782Z</time></trkpt><trkpt lat="54.5040217" lon="-2.2512117"><ele>278.0</ele><time>2026-05-03T10:29:45.782Z</time></trkpt><trkpt lat="54.5040167" lon="-2.2508983"><ele>280.6666666666667</ele><time>2026-05-03T10:29:46.784Z</time></trkpt><trkpt lat="54.50401" lon="-2.2505767"><ele>283.3333333333333</ele><time>2026-05-03T10:29:47.783Z</time></trkpt><trkpt lat="54.5039967" lon="-2.2502583"><ele>286.0</ele><time>2026-05-03T10:29:48.786Z</time></trkpt><trkpt lat="54.50399" lon="-2.24995"><ele>288.0</ele><time>2026-05-03T10:29:49.783Z</time></trkpt><trkpt lat="54.5039833" lon="-2.2496567"><ele>290.0</ele><time>2026-05-03T10:29:50.783Z</time></trkpt><trkpt lat="54.503975" lon="-2.24938"><ele>292.0</ele><time>2026-05-03T10:29:51.783Z</time></trkpt><trkpt lat="54.503965" lon="-2.2491183"><ele>293.0</ele><time>2026-05-03T10:29:52.783Z</time></trkpt><trkpt lat="54.5039583" lon="-2.24886"><ele>294.0</ele><time>2026-05-03T10:29:53.783Z</time></trkpt><trkpt lat="54.5039517" lon="-2.2486117"><ele>295.0</ele><time>2026-05-03T10:29:54.784Z</time></trkpt><trkpt lat="54.5039467" lon="-2.248375"><ele>296.0</ele><time>2026-05-03T10:29:55.783Z</time></trkpt><trkpt lat="54.5039383" lon="-2.24814"><ele>296.33333333333337</ele><time>2026-05-03T10:29:56.783Z</time></trkpt><trkpt lat="54.5039317" lon="-2.2478933"><ele>296.6666666666667</ele><time>2026-05-03T10:29:57.783Z</time></trkpt><trkpt lat="54.5039267" lon="-2.2476233"><ele>297.0</ele><time>2026-05-03T10:29:58.783Z</time></trkpt><trkpt lat="54.503925" lon="-2.247335"><ele>298.3333333333333</ele><time>2026-05-03T10:29:59.783Z</time></trkpt><trkpt lat="54.5039217" lon="-2.2470267"><ele>299.66666666666663</ele><time>2026-05-03T10:30:00.783Z</time></trkpt><trkpt lat="54.5039167" lon="-2.24672"><ele>301.0</ele><time>2026-05-03T10:30:01.784Z</time></trkpt><trkpt lat="54.50391" lon="-2.2464417"><ele>303.0</ele><time>2026-05-03T10:30:02.782Z</time></trkpt><trkpt lat="54.5039017" lon="-2.2461767"><ele>305.0</ele><time>2026-05-03T10:30:03.784Z</time></trkpt><trkpt lat="54.503895" lon="-2.2459017"><ele>307.0</ele><time>2026-05-03T10:30:04.785Z</time></trkpt><trkpt lat="54.50389" lon="-2.2456133"><ele>309.3333333333333</ele><time>2026-05-03T10:30:05.784Z</time></trkpt><trkpt lat="54.503885" lon="-2.245325"><ele>311.6666666666667</ele><time>2026-05-03T10:30:06.787Z</time></trkpt><trkpt lat="54.5038767" lon="-2.245045"><ele>314.0</ele><time>2026-05-03T10:30:07.787Z</time></trkpt><trkpt lat="54.5038717" lon="-2.2447883"><ele>315.25</ele><time>2026-05-03T10:30:08.784Z</time></trkpt><trkpt lat="54.5038667" lon="-2.244545"><ele>316.5</ele><time>2026-05-03T10:30:09.783Z</time></trkpt><trkpt lat="54.5038633" lon="-2.2443033"><ele>317.75</ele><time>2026-05-03T10:30:10.784Z</time></trkpt><trkpt lat="54.50386" lon="-2.2440617"><ele>319.0</ele><time>2026-05-03T10:30:11.783Z</time></trkpt><trkpt lat="54.50386" lon="-2.2438233"><ele>319.75</ele><time>2026-05-03T10:30:12.783Z</time></trkpt><trkpt lat="54.5038633" lon="-2.2435783"><ele>320.5</ele><time>2026-05-03T10:30:13.784Z</time></trkpt><trkpt lat="54.503875" lon="-2.2433567"><ele>321.25</ele><time>2026-05-03T10:30:14.783Z</time></trkpt><trkpt lat="54.50389" lon="-2.2431433"><ele>322.0</ele><time>2026-05-03T10:30:15.783Z</time></trkpt><trkpt lat="54.5039133" lon="-2.24295"><ele>323.40000000000003</ele><time>2026-05-03T10:30:16.784Z</time></trkpt><trkpt lat="54.5039467" lon="-2.2427733"><ele>324.8</ele><time>2026-05-03T10:30:17.784Z</time></trkpt><trkpt lat="54.5040067" lon="-2.2426217"><ele>326.2</ele><time>2026-05-03T10:30:18.783Z</time></trkpt><trkpt lat="54.50409" lon="-2.24249"><ele>327.6</ele><time>2026-05-03T10:30:19.784Z</time></trkpt><trkpt lat="54.5041833" lon="-2.242375"><ele>329.0</ele><time>2026-05-03T10:30:20.783Z</time></trkpt><trkpt lat="54.50427" lon="-2.2422633"><ele>331.0</ele><time>2026-05-03T10:30:21.783Z</time></trkpt><trkpt lat="54.50435" lon="-2.242155"><ele>333.0</ele><time>2026-05-03T10:30:22.782Z</time></trkpt><trkpt lat="54.504415" lon="-2.2420483"><ele>335.0</ele><time>2026-05-03T10:30:23.783Z</time></trkpt><trkpt lat="54.50447" lon="-2.2419483"><ele>337.0</ele><time>2026-05-03T10:30:24.784Z</time></trkpt><trkpt lat="54.5045117" lon="-2.241845"><ele>339.0</ele><time>2026-05-03T10:30:25.787Z</time></trkpt><trkpt lat="54.5045367" lon="-2.24173"><ele>341.0</ele><time>2026-05-03T10:30:26.784Z</time></trkpt><trkpt lat="54.5045617" lon="-2.2415883"><ele>339.25</ele><time>2026-05-03T10:30:27.783Z</time></trkpt><trkpt lat="54.5045867" lon="-2.24141"><ele>337.5</ele><time>2026-05-03T10:30:28.783Z</time></trkpt><trkpt lat="54.5046183" lon="-2.2412183"><ele>335.75</ele><time>2026-05-03T10:30:29.782Z</time></trkpt><trkpt lat="54.504655" lon="-2.241015"><ele>334.0</ele><time>2026-05-03T10:30:30.784Z</time></trkpt><trkpt lat="54.5046933" lon="-2.2408"><ele>336.0</ele><time>2026-05-03T10:30:31.783Z</time></trkpt><trkpt lat="54.5047383" lon="-2.240595"><ele>338.0</ele><time>2026-05-03T10:30:32.784Z</time></trkpt><trkpt lat="54.5047883" lon="-2.2404133"><ele>340.0</ele><time>2026-05-03T10:30:33.784Z</time></trkpt><trkpt lat="54.5048417" lon="-2.2402517"><ele>342.0</ele><time>2026-05-03T10:30:34.783Z</time></trkpt><trkpt lat="54.5049017" lon="-2.2400967"><ele>342.0</ele><time>2026-05-03T10:30:35.784Z</time></trkpt><trkpt lat="54.5049667" lon="-2.23993"><ele>342.0</ele><time>2026-05-03T10:30:36.782Z</time></trkpt><trkpt lat="54.5050367" lon="-2.2397667"><ele>342.0</ele><time>2026-05-03T10:30:37.787Z</time></trkpt><trkpt lat="54.505105" lon="-2.2396133"><ele>342.0</ele><time>2026-05-03T10:30:38.784Z</time></trkpt><trkpt lat="54.5051617" lon="-2.2394717"><ele>342.0</ele><time>2026-05-03T10:30:39.783Z</time></trkpt><trkpt lat="54.5052133" lon="-2.2393517"><ele>342.6666666666667</ele><time>2026-05-03T10:30:40.786Z</time></trkpt><trkpt lat="54.5052517" lon="-2.2392367"><ele>343.3333333333333</ele><time>2026-05-03T10:30:41.786Z</time></trkpt><trkpt lat="54.5052767" lon="-2.23912"><ele>344.0</ele><time>2026-05-03T10:30:42.787Z</time></trkpt><trkpt lat="54.505285" lon="-2.2389883"><ele>344.66666666666663</ele><time>2026-05-03T10:30:43.786Z</time></trkpt><trkpt lat="54.5052867" lon="-2.23887"><ele>345.3333333333333</ele><time>2026-05-03T10:30:44.782Z</time></trkpt><trkpt lat="54.505275" lon="-2.2387583"><ele>346.0</ele><time>2026-05-03T10:30:45.783Z</time></trkpt><trkpt lat="54.5052367" lon="-2.238595"><ele>346.0</ele><time>2026-05-03T10:30:47.784Z</time></trkpt><trkpt lat="54.50514" lon="-2.2385517"><ele>346.0</ele><time>2026-05-03T10:30:50.783Z</time></trkpt><trkpt lat="54.505085" lon="-2.2386083"><ele>346.0</ele><time>2026-05-03T10:30:51.782Z</time></trkpt><trkpt lat="54.50504" lon="-2.238685"><ele>346.0</ele><time>2026-05-03T10:30:52.782Z</time></trkpt><trkpt lat="54.505005" lon="-2.2387867"><ele>346.0</ele><time>2026-05-03T10:30:53.784Z</time></trkpt><trkpt lat="54.5049783" lon="-2.2389133"><ele>346.0</ele><time>2026-05-03T10:30:54.786Z</time></trkpt><trkpt lat="54.5049383" lon="-2.23905"><ele>346.0</ele><time>2026-05-03T10:30:55.787Z</time></trkpt><trkpt lat="54.50489" lon="-2.2391783"><ele>346.0</ele><time>2026-05-03T10:30:56.787Z</time></trkpt><trkpt lat="54.5048317" lon="-2.2393183"><ele>346.0</ele><time>2026-05-03T10:30:57.783Z</time></trkpt><trkpt lat="54.5047567" lon="-2.2394567"><ele>346.0</ele><time>2026-05-03T10:30:58.784Z</time></trkpt><trkpt lat="54.5046683" lon="-2.2396017"><ele>346.0</ele><time>2026-05-03T10:30:59.784Z</time></trkpt><trkpt lat="54.5045733" lon="-2.2397583"><ele>348.0</ele><time>2026-05-03T10:31:00.783Z</time></trkpt><trkpt lat="54.5044733" lon="-2.2399267"><ele>350.0</ele><time>2026-05-03T10:31:01.784Z</time></trkpt><trkpt lat="54.5043733" lon="-2.2400983"><ele>352.0</ele><time>2026-05-03T10:31:02.782Z</time></trkpt><trkpt lat="54.5042717" lon="-2.24027"><ele>354.0</ele><time>2026-05-03T10:31:03.783Z</time></trkpt><trkpt lat="54.50417" lon="-2.2404283"><ele>354.0</ele><time>2026-05-03T10:31:04.784Z</time></trkpt><trkpt lat="54.5040733" lon="-2.240575"><ele>354.0</ele><time>2026-05-03T10:31:05.783Z</time></trkpt><trkpt lat="54.5039767" lon="-2.2407"><ele>354.0</ele><time>2026-05-03T10:31:06.783Z</time></trkpt><trkpt lat="54.5038767" lon="-2.2408"><ele>354.0</ele><time>2026-05-03T10:31:07.784Z</time></trkpt><trkpt lat="54.5037683" lon="-2.2408833"><ele>354.75</ele><time>2026-05-03T10:31:08.785Z</time></trkpt><trkpt lat="54.5036417" lon="-2.2409383"><ele>355.5</ele><time>2026-05-03T10:31:09.788Z</time></trkpt><trkpt lat="54.503495" lon="-2.2409717"><ele>356.25</ele><time>2026-05-03T10:31:10.782Z</time></trkpt><trkpt lat="54.50334" lon="-2.2409867"><ele>357.0</ele><time>2026-05-03T10:31:11.784Z</time></trkpt><trkpt lat="54.5031717" lon="-2.24099"><ele>357.0</ele><time>2026-05-03T10:31:12.782Z</time></trkpt><trkpt lat="54.503005" lon="-2.2409883"><ele>357.0</ele><time>2026-05-03T10:31:13.783Z</time></trkpt><trkpt lat="54.5028483" lon="-2.2409867"><ele>357.0</ele><time>2026-05-03T10:31:14.784Z</time></trkpt><trkpt lat="54.5027083" lon="-2.2409667"><ele>358.25</ele><time>2026-05-03T10:31:15.782Z</time></trkpt><trkpt lat="54.50258" lon="-2.2409083"><ele>359.5</ele><time>2026-05-03T10:31:16.782Z</time></trkpt><trkpt lat="54.5024617" lon="-2.2408283"><ele>360.75</ele><time>2026-05-03T10:31:17.785Z</time></trkpt><trkpt lat="54.50235" lon="-2.2407217"><ele>362.0</ele><time>2026-05-03T10:31:18.783Z</time></trkpt><trkpt lat="54.502235" lon="-2.2406"><ele>364.0</ele><time>2026-05-03T10:31:19.783Z</time></trkpt><trkpt lat="54.5021167" lon="-2.2404817"><ele>366.0</ele><time>2026-05-03T10:31:20.783Z</time></trkpt><trkpt lat="54.5019833" lon="-2.2403933"><ele>368.0</ele><time>2026-05-03T10:31:21.782Z</time></trkpt><trkpt lat="54.5018333" lon="-2.2403433"><ele>370.0</ele><time>2026-05-03T10:31:22.787Z</time></trkpt><trkpt lat="54.5016817" lon="-2.2403333"><ele>371.25</ele><time>2026-05-03T10:31:23.783Z</time></trkpt><trkpt lat="54.5015317" lon="-2.24033"><ele>372.5</ele><time>2026-05-03T10:31:24.783Z</time></trkpt><trkpt lat="54.50139" lon="-2.2403183"><ele>373.75</ele><time>2026-05-03T10:31:25.785Z</time></trkpt><trkpt lat="54.5012533" lon="-2.2402867"><ele>375.0</ele><time>2026-05-03T10:31:26.783Z</time></trkpt><trkpt lat="54.5011183" lon="-2.2402283"><ele>378.0</ele><time>2026-05-03T10:31:27.783Z</time></trkpt><trkpt lat="54.5009767" lon="-2.2401383"><ele>381.0</ele><time>2026-05-03T10:31:28.786Z</time></trkpt><trkpt lat="54.5008333" lon="-2.2400183"><ele>384.0</ele><time>2026-05-03T10:31:29.784Z</time></trkpt><trkpt lat="54.5006883" lon="-2.2398817"><ele>386.33333333333337</ele><time>2026-05-03T10:31:30.782Z</time></trkpt><trkpt lat="54.5005383" lon="-2.2397317"><ele>388.6666666666667</ele><time>2026-05-03T10:31:31.783Z</time></trkpt><trkpt lat="54.5003933" lon="-2.23958"><ele>391.0</ele><time>2026-05-03T10:31:32.784Z</time></trkpt><trkpt lat="54.5002533" lon="-2.2394383"><ele>392.6666666666667</ele><time>2026-05-03T10:31:33.784Z</time></trkpt><trkpt lat="54.5001217" lon="-2.2392983"><ele>394.33333333333337</ele><time>2026-05-03T10:31:34.784Z</time></trkpt><trkpt lat="54.5000017" lon="-2.2391417"><ele>396.0</ele><time>2026-05-03T10:31:35.783Z</time></trkpt><trkpt lat="54.4998883" lon="-2.2389583"><ele>396.66666666666663</ele><time>2026-05-03T10:31:36.784Z</time></trkpt><trkpt lat="54.4997783" lon="-2.2387533"><ele>397.3333333333333</ele><time>2026-05-03T10:31:37.783Z</time></trkpt><trkpt lat="54.499675" lon="-2.2385433"><ele>398.0</ele><time>2026-05-03T10:31:38.783Z</time></trkpt><trkpt lat="54.4995733" lon="-2.238325"><ele>400.3333333333333</ele><time>2026-05-03T10:31:39.782Z</time></trkpt><trkpt lat="54.49948" lon="-2.238085"><ele>402.66666666666663</ele><time>2026-05-03T10:31:40.782Z</time></trkpt><trkpt lat="54.4993967" lon="-2.2378233"><ele>405.0</ele><time>2026-05-03T10:31:41.783Z</time></trkpt><trkpt lat="54.4993333" lon="-2.2375483"><ele>405.66666666666663</ele><time>2026-05-03T10:31:42.787Z</time></trkpt><trkpt lat="54.4992783" lon="-2.2372533"><ele>406.3333333333333</ele><time>2026-05-03T10:31:43.784Z</time></trkpt><trkpt lat="54.4992233" lon="-2.236945"><ele>407.0</ele><time>2026-05-03T10:31:44.783Z</time></trkpt><trkpt lat="54.4991633" lon="-2.23663"><ele>408.3333333333333</ele><time>2026-05-03T10:31:45.785Z</time></trkpt><trkpt lat="54.4991083" lon="-2.2363183"><ele>409.66666666666663</ele><time>2026-05-03T10:31:46.787Z</time></trkpt><trkpt lat="54.499055" lon="-2.23601"><ele>411.0</ele><time>2026-05-03T10:31:47.787Z</time></trkpt><trkpt lat="54.4989983" lon="-2.2356983"><ele>413.0</ele><time>2026-05-03T10:31:48.784Z</time></trkpt><trkpt lat="54.4989383" lon="-2.235395"><ele>415.0</ele><time>2026-05-03T10:31:49.787Z</time></trkpt><trkpt lat="54.4988783" lon="-2.2351033"><ele>417.0</ele><time>2026-05-03T10:31:50.782Z</time></trkpt><trkpt lat="54.4988267" lon="-2.234835"><ele>418.0</ele><time>2026-05-03T10:31:51.787Z</time></trkpt><trkpt lat="54.4987767" lon="-2.2345733"><ele>419.0</ele><time>2026-05-03T10:31:52.787Z</time></trkpt><trkpt lat="54.4987217" lon="-2.2343033"><ele>420.0</ele><time>2026-05-03T10:31:53.787Z</time></trkpt><trkpt lat="54.4986683" lon="-2.2340217"><ele>421.33333333333337</ele><time>2026-05-03T10:31:54.782Z</time></trkpt><trkpt lat="54.4986233" lon="-2.2337267"><ele>422.6666666666667</ele><time>2026-05-03T10:31:55.783Z</time></trkpt><trkpt lat="54.4985917" lon="-2.2334117"><ele>424.0</ele><time>2026-05-03T10:31:56.787Z</time></trkpt><trkpt lat="54.498565" lon="-2.2330733"><ele>425.33333333333337</ele><time>2026-05-03T10:31:57.783Z</time></trkpt><trkpt lat="54.4985433" lon="-2.23272"><ele>426.66666666666663</ele><time>2026-05-03T10:31:58.783Z</time></trkpt><trkpt lat="54.49852" lon="-2.23236"><ele>428.0</ele><time>2026-05-03T10:31:59.784Z</time></trkpt><trkpt lat="54.498495" lon="-2.232"><ele>429.3333333333333</ele><time>2026-05-03T10:32:00.784Z</time></trkpt><trkpt lat="54.4984733" lon="-2.2316417"><ele>430.66666666666663</ele><time>2026-05-03T10:32:01.783Z</time></trkpt><trkpt lat="54.4984533" lon="-2.23129"><ele>432.0</ele><time>2026-05-03T10:32:02.784Z</time></trkpt><trkpt lat="54.4984333" lon="-2.2309383"><ele>433.66666666666663</ele><time>2026-05-03T10:32:03.782Z</time></trkpt><trkpt lat="54.49841" lon="-2.23059"><ele>435.3333333333333</ele><time>2026-05-03T10:32:04.784Z</time></trkpt><trkpt lat="54.498385" lon="-2.2302433"><ele>437.0</ele><time>2026-05-03T10:32:05.782Z</time></trkpt><trkpt lat="54.4983633" lon="-2.2298983"><ele>437.66666666666663</ele><time>2026-05-03T10:32:06.782Z</time></trkpt><trkpt lat="54.4983433" lon="-2.2295533"><ele>438.33333333333337</ele><time>2026-05-03T10:32:07.784Z</time></trkpt><trkpt lat="54.4983217" lon="-2.229215"><ele>439.0</ele><time>2026-05-03T10:32:08.782Z</time></trkpt><trkpt lat="54.4983017" lon="-2.2288933"><ele>440.0</ele><time>2026-05-03T10:32:09.784Z</time></trkpt><trkpt lat="54.49828" lon="-2.2285883"><ele>441.0</ele><time>2026-05-03T10:32:10.787Z</time></trkpt><trkpt lat="54.4982583" lon="-2.2283033"><ele>442.0</ele><time>2026-05-03T10:32:11.787Z</time></trkpt><trkpt lat="54.4982417" lon="-2.2280267"><ele>443.5</ele><time>2026-05-03T10:32:12.787Z</time></trkpt><trkpt lat="54.4982217" lon="-2.2277533"><ele>445.0</ele><time>2026-05-03T10:32:13.786Z</time></trkpt><trkpt lat="54.4982" lon="-2.2274983"><ele>446.5</ele><time>2026-05-03T10:32:14.786Z</time></trkpt><trkpt lat="54.4981717" lon="-2.2272733"><ele>448.0</ele><time>2026-05-03T10:32:15.786Z</time></trkpt><trkpt lat="54.4981283" lon="-2.227065"><ele>449.0</ele><time>2026-05-03T10:32:16.787Z</time></trkpt><trkpt lat="54.4980733" lon="-2.2268633"><ele>450.0</ele><time>2026-05-03T10:32:17.785Z</time></trkpt><trkpt lat="54.4980033" lon="-2.22666"><ele>451.0</ele><time>2026-05-03T10:32:18.784Z</time></trkpt><trkpt lat="54.4979167" lon="-2.2264617"><ele>452.0</ele><time>2026-05-03T10:32:19.785Z</time></trkpt><trkpt lat="54.4978133" lon="-2.2262783"><ele>455.0</ele><time>2026-05-03T10:32:20.786Z</time></trkpt><trkpt lat="54.4976917" lon="-2.2261033"><ele>458.0</ele><time>2026-05-03T10:32:21.784Z</time></trkpt><trkpt lat="54.4975633" lon="-2.225935"><ele>461.0</ele><time>2026-05-03T10:32:22.787Z</time></trkpt><trkpt lat="54.4974367" lon="-2.22578"><ele>461.66666666666663</ele><time>2026-05-03T10:32:23.783Z</time></trkpt><trkpt lat="54.4973067" lon="-2.2256217"><ele>462.33333333333337</ele><time>2026-05-03T10:32:24.787Z</time></trkpt><trkpt lat="54.4971667" lon="-2.22546"><ele>463.0</ele><time>2026-05-03T10:32:25.784Z</time></trkpt><trkpt lat="54.4970183" lon="-2.2252983"><ele>464.0</ele><time>2026-05-03T10:32:26.783Z</time></trkpt><trkpt lat="54.4968683" lon="-2.2251333"><ele>465.0</ele><time>2026-05-03T10:32:27.783Z</time></trkpt><trkpt lat="54.4967167" lon="-2.2249583"><ele>466.0</ele><time>2026-05-03T10:32:28.784Z</time></trkpt><trkpt lat="54.4965683" lon="-2.2247717"><ele>466.0</ele><time>2026-05-03T10:32:29.783Z</time></trkpt><trkpt lat="54.4964317" lon="-2.2245783"><ele>466.0</ele><time>2026-05-03T10:32:30.783Z</time></trkpt><trkpt lat="54.4963167" lon="-2.2243717"><ele>466.0</ele><time>2026-05-03T10:32:31.784Z</time></trkpt><trkpt lat="54.4962133" lon="-2.224135"><ele>467.6666666666667</ele><time>2026-05-03T10:32:32.783Z</time></trkpt><trkpt lat="54.496125" lon="-2.2238617"><ele>469.33333333333337</ele><time>2026-05-03T10:32:33.782Z</time></trkpt><trkpt lat="54.496055" lon="-2.2235633"><ele>471.0</ele><time>2026-05-03T10:32:34.782Z</time></trkpt><trkpt lat="54.4959833" lon="-2.223255"><ele>472.66666666666663</ele><time>2026-05-03T10:32:35.782Z</time></trkpt><trkpt lat="54.49591" lon="-2.2229517"><ele>474.3333333333333</ele><time>2026-05-03T10:32:36.783Z</time></trkpt><trkpt lat="54.4958367" lon="-2.2226667"><ele>476.0</ele><time>2026-05-03T10:32:37.782Z</time></trkpt><trkpt lat="54.49576" lon="-2.2223883"><ele>476.0</ele><time>2026-05-03T10:32:38.786Z</time></trkpt><trkpt lat="54.495675" lon="-2.22211"><ele>476.0</ele><time>2026-05-03T10:32:39.789Z</time></trkpt><trkpt lat="54.4955833" lon="-2.2218233"><ele>476.0</ele><time>2026-05-03T10:32:40.783Z</time></trkpt><trkpt lat="54.495485" lon="-2.221525"><ele>477.3333333333333</ele><time>2026-05-03T10:32:41.784Z</time></trkpt><trkpt lat="54.495385" lon="-2.2212167"><ele>478.66666666666663</ele><time>2026-05-03T10:32:42.784Z</time></trkpt><trkpt lat="54.49528" lon="-2.2209083"><ele>480.0</ele><time>2026-05-03T10:32:43.785Z</time></trkpt><trkpt lat="54.4951767" lon="-2.2206017"><ele>480.0</ele><time>2026-05-03T10:32:44.784Z</time></trkpt><trkpt lat="54.495075" lon="-2.2203067"><ele>480.0</ele><time>2026-05-03T10:32:45.784Z</time></trkpt><trkpt lat="54.49498" lon="-2.2200433"><ele>480.0</ele><time>2026-05-03T10:32:46.785Z</time></trkpt><trkpt lat="54.49489" lon="-2.2198083"><ele>480.0</ele><time>2026-05-03T10:32:47.784Z</time></trkpt><trkpt lat="54.4947867" lon="-2.2195767"><ele>480.0</ele><time>2026-05-03T10:32:48.787Z</time></trkpt><trkpt lat="54.4946683" lon="-2.219345"><ele>480.0</ele><time>2026-05-03T10:32:49.787Z</time></trkpt><trkpt lat="54.4945383" lon="-2.2191133"><ele>479.33333333333337</ele><time>2026-05-03T10:32:50.786Z</time></trkpt><trkpt lat="54.4944017" lon="-2.2188783"><ele>478.6666666666667</ele><time>2026-05-03T10:32:51.786Z</time></trkpt><trkpt lat="54.494265" lon="-2.218635"><ele>478.0</ele><time>2026-05-03T10:32:52.787Z</time></trkpt><trkpt lat="54.49413" lon="-2.2183883"><ele>477.6666666666667</ele><time>2026-05-03T10:32:53.783Z</time></trkpt><trkpt lat="54.4939883" lon="-2.218135"><ele>477.33333333333337</ele><time>2026-05-03T10:32:54.786Z</time></trkpt><trkpt lat="54.49384" lon="-2.217885"><ele>477.0</ele><time>2026-05-03T10:32:55.785Z</time></trkpt><trkpt lat="54.4936917" lon="-2.2176333"><ele>477.0</ele><time>2026-05-03T10:32:56.787Z</time></trkpt><trkpt lat="54.4935533" lon="-2.21739"><ele>477.0</ele><time>2026-05-03T10:32:57.784Z</time></trkpt><trkpt lat="54.4934133" lon="-2.217155"><ele>477.0</ele><time>2026-05-03T10:32:58.784Z</time></trkpt><trkpt lat="54.4932633" lon="-2.2169267"><ele>477.0</ele><time>2026-05-03T10:32:59.783Z</time></trkpt><trkpt lat="54.4931067" lon="-2.21671"><ele>477.0</ele><time>2026-05-03T10:33:00.783Z</time></trkpt><trkpt lat="54.49294" lon="-2.216515"><ele>477.0</ele><time>2026-05-03T10:33:01.783Z</time></trkpt><trkpt lat="54.492765" lon="-2.2163433"><ele>476.66666666666663</ele><time>2026-05-03T10:33:02.786Z</time></trkpt><trkpt lat="54.4925867" lon="-2.2161933"><ele>476.3333333333333</ele><time>2026-05-03T10:33:03.787Z</time></trkpt><trkpt lat="54.4924183" lon="-2.216055"><ele>476.0</ele><time>2026-05-03T10:33:04.782Z</time></trkpt><trkpt lat="54.4922683" lon="-2.2159333"><ele>476.0</ele><time>2026-05-03T10:33:05.784Z</time></trkpt><trkpt lat="54.49214" lon="-2.2158333"><ele>476.0</ele><time>2026-05-03T10:33:06.785Z</time></trkpt><trkpt lat="54.492025" lon="-2.2157367"><ele>476.0</ele><time>2026-05-03T10:33:07.782Z</time></trkpt><trkpt lat="54.4919233" lon="-2.2156383"><ele>476.0</ele><time>2026-05-03T10:33:08.783Z</time></trkpt><trkpt lat="54.49183" lon="-2.2155433"><ele>475.75</ele><time>2026-05-03T10:33:09.782Z</time></trkpt><trkpt lat="54.4917417" lon="-2.2154433"><ele>475.5</ele><time>2026-05-03T10:33:10.783Z</time></trkpt><trkpt lat="54.4916433" lon="-2.2153267"><ele>475.25</ele><time>2026-05-03T10:33:11.782Z</time></trkpt><trkpt lat="54.4915367" lon="-2.2151883"><ele>475.0</ele><time>2026-05-03T10:33:12.787Z</time></trkpt><trkpt lat="54.4914117" lon="-2.215035"><ele>475.0</ele><time>2026-05-03T10:33:13.786Z</time></trkpt><trkpt lat="54.4912733" lon="-2.2148933"><ele>475.0</ele><time>2026-05-03T10:33:14.786Z</time></trkpt><trkpt lat="54.4911283" lon="-2.2147733"><ele>475.0</ele><time>2026-05-03T10:33:15.786Z</time></trkpt><trkpt lat="54.4909833" lon="-2.214685"><ele>475.5</ele><time>2026-05-03T10:33:16.787Z</time></trkpt><trkpt lat="54.4908583" lon="-2.2146183"><ele>476.0</ele><time>2026-05-03T10:33:17.785Z</time></trkpt><trkpt lat="54.49074" lon="-2.2145467"><ele>476.5</ele><time>2026-05-03T10:33:18.783Z</time></trkpt><trkpt lat="54.4906233" lon="-2.2144433"><ele>477.0</ele><time>2026-05-03T10:33:19.783Z</time></trkpt><trkpt lat="54.490505" lon="-2.2143083"><ele>477.66666666666663</ele><time>2026-05-03T10:33:20.789Z</time></trkpt><trkpt lat="54.49038" lon="-2.2141417"><ele>478.3333333333333</ele><time>2026-05-03T10:33:21.782Z</time></trkpt><trkpt lat="54.4902483" lon="-2.2139467"><ele>479.0</ele><time>2026-05-03T10:33:22.783Z</time></trkpt><trkpt lat="54.490105" lon="-2.2137483"><ele>479.0</ele><time>2026-05-03T10:33:23.783Z</time></trkpt><trkpt lat="54.489955" lon="-2.2135717"><ele>479.0</ele><time>2026-05-03T10:33:24.783Z</time></trkpt><trkpt lat="54.4898067" lon="-2.21344"><ele>479.0</ele><time>2026-05-03T10:33:25.786Z</time></trkpt><trkpt lat="54.48966" lon="-2.21335"><ele>479.66666666666663</ele><time>2026-05-03T10:33:26.786Z</time></trkpt><trkpt lat="54.489505" lon="-2.21329"><ele>480.33333333333337</ele><time>2026-05-03T10:33:27.783Z</time></trkpt><trkpt lat="54.4893417" lon="-2.2132517"><ele>481.0</ele><time>2026-05-03T10:33:28.787Z</time></trkpt><trkpt lat="54.4891783" lon="-2.2132167"><ele>481.0</ele><time>2026-05-03T10:33:29.783Z</time></trkpt><trkpt lat="54.48902" lon="-2.21318"><ele>481.0</ele><time>2026-05-03T10:33:30.783Z</time></trkpt><trkpt lat="54.488865" lon="-2.2131383"><ele>481.0</ele><time>2026-05-03T10:33:31.783Z</time></trkpt><trkpt lat="54.4887217" lon="-2.2130983"><ele>482.5</ele><time>2026-05-03T10:33:32.783Z</time></trkpt><trkpt lat="54.48859" lon="-2.213055"><ele>484.0</ele><time>2026-05-03T10:33:33.782Z</time></trkpt><trkpt lat="54.4884717" lon="-2.2130033"><ele>485.5</ele><time>2026-05-03T10:33:34.783Z</time></trkpt><trkpt lat="54.4883567" lon="-2.2129667"><ele>487.0</ele><time>2026-05-03T10:33:35.786Z</time></trkpt><trkpt lat="54.488235" lon="-2.2129417"><ele>487.0</ele><time>2026-05-03T10:33:36.786Z</time></trkpt><trkpt lat="54.4881117" lon="-2.2129217"><ele>487.0</ele><time>2026-05-03T10:33:37.783Z</time></trkpt><trkpt lat="54.487995" lon="-2.21288"><ele>487.0</ele><time>2026-05-03T10:33:38.783Z</time></trkpt><trkpt lat="54.48789" lon="-2.2128133"><ele>487.0</ele><time>2026-05-03T10:33:39.783Z</time></trkpt><trkpt lat="54.4877883" lon="-2.2127183"><ele>487.25</ele><time>2026-05-03T10:33:40.783Z</time></trkpt><trkpt lat="54.48769" lon="-2.212585"><ele>487.5</ele><time>2026-05-03T10:33:41.783Z</time></trkpt><trkpt lat="54.4875867" lon="-2.2124317"><ele>487.75</ele><time>2026-05-03T10:33:42.782Z</time></trkpt><trkpt lat="54.48748" lon="-2.2122817"><ele>488.0</ele><time>2026-05-03T10:33:43.783Z</time></trkpt><trkpt lat="54.4873717" lon="-2.212145"><ele>488.0</ele><time>2026-05-03T10:33:44.782Z</time></trkpt><trkpt lat="54.487265" lon="-2.2120217"><ele>488.0</ele><time>2026-05-03T10:33:45.784Z</time></trkpt><trkpt lat="54.48715" lon="-2.211905"><ele>488.0</ele><time>2026-05-03T10:33:46.784Z</time></trkpt><trkpt lat="54.487035" lon="-2.2117983"><ele>488.0</ele><time>2026-05-03T10:33:47.783Z</time></trkpt><trkpt lat="54.486925" lon="-2.2117117"><ele>487.25</ele><time>2026-05-03T10:33:48.783Z</time></trkpt><trkpt lat="54.4868133" lon="-2.211635"><ele>486.5</ele><time>2026-05-03T10:33:49.782Z</time></trkpt><trkpt lat="54.486705" lon="-2.21156"><ele>485.75</ele><time>2026-05-03T10:33:50.783Z</time></trkpt><trkpt lat="54.4865983" lon="-2.2114867"><ele>485.0</ele><time>2026-05-03T10:33:51.784Z</time></trkpt><trkpt lat="54.4864967" lon="-2.2114083"><ele>486.25</ele><time>2026-05-03T10:33:52.786Z</time></trkpt><trkpt lat="54.48639" lon="-2.211335"><ele>487.5</ele><time>2026-05-03T10:33:53.786Z</time></trkpt><trkpt lat="54.4862817" lon="-2.2112617"><ele>488.75</ele><time>2026-05-03T10:33:54.784Z</time></trkpt><trkpt lat="54.4861683" lon="-2.2111933"><ele>490.0</ele><time>2026-05-03T10:33:55.786Z</time></trkpt><trkpt lat="54.48605" lon="-2.2111283"><ele>490.0</ele><time>2026-05-03T10:33:56.786Z</time></trkpt><trkpt lat="54.4859317" lon="-2.2110717"><ele>490.0</ele><time>2026-05-03T10:33:57.787Z</time></trkpt><trkpt lat="54.4858067" lon="-2.2110283"><ele>490.0</ele><time>2026-05-03T10:33:58.786Z</time></trkpt><trkpt lat="54.485685" lon="-2.2110017"><ele>490.0</ele><time>2026-05-03T10:33:59.787Z</time></trkpt><trkpt lat="54.48557" lon="-2.2109833"><ele>490.0</ele><time>2026-05-03T10:34:00.787Z</time></trkpt><trkpt lat="54.48546" lon="-2.21096"><ele>490.0</ele><time>2026-05-03T10:34:01.787Z</time></trkpt><trkpt lat="54.48535" lon="-2.2109317"><ele>490.0</ele><time>2026-05-03T10:34:02.782Z</time></trkpt><trkpt lat="54.48524" lon="-2.2109"><ele>490.0</ele><time>2026-05-03T10:34:03.786Z</time></trkpt><trkpt lat="54.48513" lon="-2.21086"><ele>490.0</ele><time>2026-05-03T10:34:04.786Z</time></trkpt><trkpt lat="54.4850133" lon="-2.2108083"><ele>489.75</ele><time>2026-05-03T10:34:05.783Z</time></trkpt><trkpt lat="54.48489" lon="-2.2107617"><ele>489.5</ele><time>2026-05-03T10:34:06.785Z</time></trkpt><trkpt lat="54.4847683" lon="-2.210725"><ele>489.25</ele><time>2026-05-03T10:34:07.786Z</time></trkpt><trkpt lat="54.4846517" lon="-2.2106933"><ele>489.0</ele><time>2026-05-03T10:34:08.787Z</time></trkpt><trkpt lat="54.4845417" lon="-2.2106733"><ele>489.25</ele><time>2026-05-03T10:34:09.786Z</time></trkpt><trkpt lat="54.4844367" lon="-2.210655"><ele>489.5</ele><time>2026-05-03T10:34:10.787Z</time></trkpt><trkpt lat="54.4843267" lon="-2.2106317"><ele>489.75</ele><time>2026-05-03T10:34:11.786Z</time></trkpt><trkpt lat="54.4842067" lon="-2.21062"><ele>490.0</ele><time>2026-05-03T10:34:12.79Z</time></trkpt><trkpt lat="54.484075" lon="-2.2106183"><ele>490.0</ele><time>2026-05-03T10:34:13.785Z</time></trkpt><trkpt lat="54.4839417" lon="-2.210615"><ele>490.0</ele><time>2026-05-03T10:34:14.786Z</time></trkpt><trkpt lat="54.4838067" lon="-2.2106083"><ele>490.0</ele><time>2026-05-03T10:34:15.787Z</time></trkpt><trkpt lat="54.4836717" lon="-2.2105883"><ele>490.0</ele><time>2026-05-03T10:34:16.783Z</time></trkpt><trkpt lat="54.4835383" lon="-2.2105533"><ele>489.75</ele><time>2026-05-03T10:34:17.783Z</time></trkpt><trkpt lat="54.4834117" lon="-2.210515"><ele>489.5</ele><time>2026-05-03T10:34:18.787Z</time></trkpt><trkpt lat="54.4832883" lon="-2.2104767"><ele>489.25</ele><time>2026-05-03T10:34:19.785Z</time></trkpt><trkpt lat="54.48317" lon="-2.2104367"><ele>489.0</ele><time>2026-05-03T10:34:20.784Z</time></trkpt><trkpt lat="54.4830567" lon="-2.2104067"><ele>489.0</ele><time>2026-05-03T10:34:21.783Z</time></trkpt><trkpt lat="54.482945" lon="-2.2103867"><ele>489.0</ele><time>2026-05-03T10:34:22.787Z</time></trkpt><trkpt lat="54.4828367" lon="-2.2103783"><ele>489.0</ele><time>2026-05-03T10:34:23.783Z</time></trkpt><trkpt lat="54.4827267" lon="-2.2103817"><ele>489.0</ele><time>2026-05-03T10:34:24.783Z</time></trkpt><trkpt lat="54.4826117" lon="-2.2103917"><ele>489.0</ele><time>2026-05-03T10:34:25.783Z</time></trkpt><trkpt lat="54.48249" lon="-2.210385"><ele>488.25</ele><time>2026-05-03T10:34:26.783Z</time></trkpt><trkpt lat="54.482365" lon="-2.210355"><ele>487.5</ele><time>2026-05-03T10:34:27.783Z</time></trkpt><trkpt lat="54.4822417" lon="-2.210295"><ele>486.75</ele><time>2026-05-03T10:34:28.782Z</time></trkpt><trkpt lat="54.4821167" lon="-2.2102117"><ele>486.0</ele><time>2026-05-03T10:34:29.785Z</time></trkpt><trkpt lat="54.4819933" lon="-2.2101233"><ele>485.25</ele><time>2026-05-03T10:34:30.782Z</time></trkpt><trkpt lat="54.4818767" lon="-2.2100333"><ele>484.5</ele><time>2026-05-03T10:34:31.783Z</time></trkpt><trkpt lat="54.481765" lon="-2.20995"><ele>483.75</ele><time>2026-05-03T10:34:32.787Z</time></trkpt><trkpt lat="54.4816567" lon="-2.2098633"><ele>483.0</ele><time>2026-05-03T10:34:33.787Z</time></trkpt><trkpt lat="54.48155" lon="-2.209775"><ele>483.0</ele><time>2026-05-03T10:34:34.783Z</time></trkpt><trkpt lat="54.4814517" lon="-2.2096817"><ele>483.0</ele><time>2026-05-03T10:34:35.782Z</time></trkpt><trkpt lat="54.4813483" lon="-2.2095733"><ele>483.0</ele><time>2026-05-03T10:34:36.783Z</time></trkpt><trkpt lat="54.481245" lon="-2.2094517"><ele>483.0</ele><time>2026-05-03T10:34:37.782Z</time></trkpt><trkpt lat="54.4811483" lon="-2.2093133"><ele>481.25</ele><time>2026-05-03T10:34:38.783Z</time></trkpt><trkpt lat="54.481055" lon="-2.2091633"><ele>479.5</ele><time>2026-05-03T10:34:39.782Z</time></trkpt><trkpt lat="54.4809667" lon="-2.2090033"><ele>477.75</ele><time>2026-05-03T10:34:40.783Z</time></trkpt><trkpt lat="54.480885" lon="-2.2088383"><ele>476.0</ele><time>2026-05-03T10:34:41.786Z</time></trkpt><trkpt lat="54.4808067" lon="-2.208665"><ele>476.0</ele><time>2026-05-03T10:34:42.786Z</time></trkpt><trkpt lat="54.48073" lon="-2.2084817"><ele>476.0</ele><time>2026-05-03T10:34:43.783Z</time></trkpt><trkpt lat="54.4806533" lon="-2.208295"><ele>476.0</ele><time>2026-05-03T10:34:44.783Z</time></trkpt><trkpt lat="54.4805833" lon="-2.2081017"><ele>476.0</ele><time>2026-05-03T10:34:45.787Z</time></trkpt><trkpt lat="54.480515" lon="-2.2079"><ele>476.25</ele><time>2026-05-03T10:34:46.785Z</time></trkpt><trkpt lat="54.480445" lon="-2.2077033"><ele>476.5</ele><time>2026-05-03T10:34:47.786Z</time></trkpt><trkpt lat="54.4803717" lon="-2.2075133"><ele>476.75</ele><time>2026-05-03T10:34:48.783Z</time></trkpt><trkpt lat="54.480295" lon="-2.207335"><ele>477.0</ele><time>2026-05-03T10:34:49.786Z</time></trkpt><trkpt lat="54.48021" lon="-2.2071717"><ele>475.5</ele><time>2026-05-03T10:34:50.785Z</time></trkpt><trkpt lat="54.4801167" lon="-2.2070167"><ele>474.0</ele><time>2026-05-03T10:34:51.786Z</time></trkpt><trkpt lat="54.4800117" lon="-2.2068733"><ele>472.5</ele><time>2026-05-03T10:34:52.782Z</time></trkpt><trkpt lat="54.4799033" lon="-2.206745"><ele>471.0</ele><time>2026-05-03T10:34:53.787Z</time></trkpt><trkpt lat="54.4797917" lon="-2.2066267"><ele>471.0</ele><time>2026-05-03T10:34:54.785Z</time></trkpt><trkpt lat="54.479685" lon="-2.2065183"><ele>471.0</ele><time>2026-05-03T10:34:55.786Z</time></trkpt><trkpt lat="54.4795833" lon="-2.206415"><ele>471.0</ele><time>2026-05-03T10:34:56.786Z</time></trkpt><trkpt lat="54.4794867" lon="-2.20632"><ele>471.0</ele><time>2026-05-03T10:34:57.787Z</time></trkpt><trkpt lat="54.4793883" lon="-2.206225"><ele>470.4</ele><time>2026-05-03T10:34:58.785Z</time></trkpt><trkpt lat="54.4792833" lon="-2.206135"><ele>469.8</ele><time>2026-05-03T10:34:59.782Z</time></trkpt><trkpt lat="54.4791733" lon="-2.2060533"><ele>469.19999999999993</ele><time>2026-05-03T10:35:00.786Z</time></trkpt><trkpt lat="54.47907" lon="-2.2059867"><ele>468.59999999999997</ele><time>2026-05-03T10:35:01.787Z</time></trkpt><trkpt lat="54.4789733" lon="-2.20594"><ele>468.0</ele><time>2026-05-03T10:35:02.79Z</time></trkpt><trkpt lat="54.4788783" lon="-2.205895"><ele>468.0</ele><time>2026-05-03T10:35:03.786Z</time></trkpt><trkpt lat="54.4787817" lon="-2.20584"><ele>468.0</ele><time>2026-05-03T10:35:04.786Z</time></trkpt><trkpt lat="54.4786833" lon="-2.2057617"><ele>468.0</ele><time>2026-05-03T10:35:05.783Z</time></trkpt><trkpt lat="54.4785817" lon="-2.2056467"><ele>468.0</ele><time>2026-05-03T10:35:06.786Z</time></trkpt><trkpt lat="54.4784767" lon="-2.205495"><ele>468.66666666666663</ele><time>2026-05-03T10:35:07.784Z</time></trkpt><trkpt lat="54.4783717" lon="-2.20532"><ele>469.3333333333333</ele><time>2026-05-03T10:35:08.783Z</time></trkpt><trkpt lat="54.4782667" lon="-2.2051383"><ele>470.0</ele><time>2026-05-03T10:35:09.783Z</time></trkpt><trkpt lat="54.478155" lon="-2.2049483"><ele>469.3333333333333</ele><time>2026-05-03T10:35:10.782Z</time></trkpt><trkpt lat="54.47804" lon="-2.2047567"><ele>468.66666666666663</ele><time>2026-05-03T10:35:11.783Z</time></trkpt><trkpt lat="54.47792" lon="-2.2045633"><ele>468.0</ele><time>2026-05-03T10:35:12.786Z</time></trkpt><trkpt lat="54.477785" lon="-2.20437"><ele>468.0</ele><time>2026-05-03T10:35:13.786Z</time></trkpt><trkpt lat="54.4776467" lon="-2.2041817"><ele>468.0</ele><time>2026-05-03T10:35:14.782Z</time></trkpt><trkpt lat="54.4775133" lon="-2.203995"><ele>468.0</ele><time>2026-05-03T10:35:15.783Z</time></trkpt><trkpt lat="54.4773917" lon="-2.2038133"><ele>468.5</ele><time>2026-05-03T10:35:16.783Z</time></trkpt><trkpt lat="54.477285" lon="-2.20364"><ele>469.0</ele><time>2026-05-03T10:35:17.786Z</time></trkpt><trkpt lat="54.4771967" lon="-2.2034667"><ele>469.5</ele><time>2026-05-03T10:35:18.783Z</time></trkpt><trkpt lat="54.4771317" lon="-2.2032833"><ele>470.0</ele><time>2026-05-03T10:35:19.783Z</time></trkpt><trkpt lat="54.4770917" lon="-2.20308"><ele>470.0</ele><time>2026-05-03T10:35:20.783Z</time></trkpt><trkpt lat="54.4770633" lon="-2.2028483"><ele>470.0</ele><time>2026-05-03T10:35:21.787Z</time></trkpt><trkpt lat="54.4770383" lon="-2.2026"><ele>470.0</ele><time>2026-05-03T10:35:22.783Z</time></trkpt><trkpt lat="54.4770117" lon="-2.2023383"><ele>470.0</ele><time>2026-05-03T10:35:23.785Z</time></trkpt><trkpt lat="54.4769883" lon="-2.2020667"><ele>471.0</ele><time>2026-05-03T10:35:24.786Z</time></trkpt><trkpt lat="54.4769633" lon="-2.201795"><ele>472.0</ele><time>2026-05-03T10:35:25.785Z</time></trkpt><trkpt lat="54.47694" lon="-2.2015483"><ele>473.0</ele><time>2026-05-03T10:35:26.787Z</time></trkpt><trkpt lat="54.4769067" lon="-2.20133"><ele>474.0</ele><time>2026-05-03T10:35:27.783Z</time></trkpt><trkpt lat="54.4768483" lon="-2.2011383"><ele>475.4</ele><time>2026-05-03T10:35:28.786Z</time></trkpt><trkpt lat="54.4767833" lon="-2.2009967"><ele>476.79999999999995</ele><time>2026-05-03T10:35:29.786Z</time></trkpt><trkpt lat="54.4767017" lon="-2.20089"><ele>478.20000000000005</ele><time>2026-05-03T10:35:30.782Z</time></trkpt><trkpt lat="54.476605" lon="-2.2007917"><ele>479.6</ele><time>2026-05-03T10:35:31.786Z</time></trkpt><trkpt lat="54.4765033" lon="-2.2006833"><ele>481.0</ele><time>2026-05-03T10:35:32.787Z</time></trkpt><trkpt lat="54.4763917" lon="-2.200545"><ele>482.33333333333337</ele><time>2026-05-03T10:35:33.783Z</time></trkpt><trkpt lat="54.4762767" lon="-2.20038"><ele>483.66666666666663</ele><time>2026-05-03T10:35:34.784Z</time></trkpt><trkpt lat="54.4761533" lon="-2.2001933"><ele>485.0</ele><time>2026-05-03T10:35:35.786Z</time></trkpt><trkpt lat="54.4760267" lon="-2.2"><ele>482.0</ele><time>2026-05-03T10:35:36.786Z</time></trkpt><trkpt lat="54.4759017" lon="-2.1998117"><ele>479.0</ele><time>2026-05-03T10:35:37.786Z</time></trkpt><trkpt lat="54.4757917" lon="-2.1996217"><ele>476.0</ele><time>2026-05-03T10:35:38.786Z</time></trkpt><trkpt lat="54.4756983" lon="-2.1994183"><ele>476.0</ele><time>2026-05-03T10:35:39.786Z</time></trkpt><trkpt lat="54.47562" lon="-2.1992017"><ele>476.0</ele><time>2026-05-03T10:35:40.782Z</time></trkpt><trkpt lat="54.4755467" lon="-2.1989733"><ele>476.0</ele><time>2026-05-03T10:35:41.783Z</time></trkpt><trkpt lat="54.475475" lon="-2.198745"><ele>474.0</ele><time>2026-05-03T10:35:42.783Z</time></trkpt><trkpt lat="54.4753917" lon="-2.1985233"><ele>472.0</ele><time>2026-05-03T10:35:43.785Z</time></trkpt><trkpt lat="54.4752867" lon="-2.1983083"><ele>470.0</ele><time>2026-05-03T10:35:44.787Z</time></trkpt><trkpt lat="54.4751667" lon="-2.1981033"><ele>470.0</ele><time>2026-05-03T10:35:45.786Z</time></trkpt><trkpt lat="54.47505" lon="-2.1979067"><ele>470.0</ele><time>2026-05-03T10:35:46.786Z</time></trkpt><trkpt lat="54.47494" lon="-2.197695"><ele>470.0</ele><time>2026-05-03T10:35:47.786Z</time></trkpt><trkpt lat="54.4748367" lon="-2.1974683"><ele>472.0</ele><time>2026-05-03T10:35:48.783Z</time></trkpt><trkpt lat="54.474745" lon="-2.1972267"><ele>474.0</ele><time>2026-05-03T10:35:49.783Z</time></trkpt><trkpt lat="54.474655" lon="-2.1969767"><ele>476.0</ele><time>2026-05-03T10:35:50.782Z</time></trkpt><trkpt lat="54.4745733" lon="-2.1967233"><ele>471.3333333333333</ele><time>2026-05-03T10:35:51.787Z</time></trkpt><trkpt lat="54.4745" lon="-2.1964717"><ele>466.66666666666663</ele><time>2026-05-03T10:35:52.786Z</time></trkpt><trkpt lat="54.474425" lon="-2.1962283"><ele>462.0</ele><time>2026-05-03T10:35:53.784Z</time></trkpt><trkpt lat="54.4743567" lon="-2.196"><ele>462.0</ele><time>2026-05-03T10:35:54.783Z</time></trkpt><trkpt lat="54.4742983" lon="-2.195785"><ele>462.0</ele><time>2026-05-03T10:35:55.782Z</time></trkpt><trkpt lat="54.4742433" lon="-2.1955783"><ele>462.0</ele><time>2026-05-03T10:35:56.783Z</time></trkpt><trkpt lat="54.474195" lon="-2.1953717"><ele>462.0</ele><time>2026-05-03T10:35:57.783Z</time></trkpt><trkpt lat="54.4741567" lon="-2.195165"><ele>463.75</ele><time>2026-05-03T10:35:58.785Z</time></trkpt><trkpt lat="54.47412" lon="-2.19495"><ele>465.5</ele><time>2026-05-03T10:35:59.786Z</time></trkpt><trkpt lat="54.474075" lon="-2.1947333"><ele>467.25</ele><time>2026-05-03T10:36:00.783Z</time></trkpt><trkpt lat="54.4740183" lon="-2.1945233"><ele>469.0</ele><time>2026-05-03T10:36:01.786Z</time></trkpt><trkpt lat="54.4739417" lon="-2.1943167"><ele>471.0</ele><time>2026-05-03T10:36:02.786Z</time></trkpt><trkpt lat="54.47385" lon="-2.194095"><ele>473.0</ele><time>2026-05-03T10:36:03.786Z</time></trkpt><trkpt lat="54.4737483" lon="-2.1938617"><ele>475.0</ele><time>2026-05-03T10:36:04.786Z</time></trkpt><trkpt lat="54.473645" lon="-2.1936083"><ele>475.0</ele><time>2026-05-03T10:36:05.786Z</time></trkpt><trkpt lat="54.4735433" lon="-2.193335"><ele>475.0</ele><time>2026-05-03T10:36:06.783Z</time></trkpt><trkpt lat="54.4734383" lon="-2.1930467"><ele>475.0</ele><time>2026-05-03T10:36:07.787Z</time></trkpt><trkpt lat="54.4733383" lon="-2.1927567"><ele>476.33333333333337</ele><time>2026-05-03T10:36:08.786Z</time></trkpt><trkpt lat="54.4732317" lon="-2.19247"><ele>477.66666666666663</ele><time>2026-05-03T10:36:09.783Z</time></trkpt><trkpt lat="54.4731267" lon="-2.1921967"><ele>479.0</ele><time>2026-05-03T10:36:10.786Z</time></trkpt><trkpt lat="54.47303" lon="-2.1919517"><ele>479.5</ele><time>2026-05-03T10:36:11.786Z</time></trkpt><trkpt lat="54.4729517" lon="-2.1917433"><ele>480.0</ele><time>2026-05-03T10:36:12.787Z</time></trkpt><trkpt lat="54.472875" lon="-2.1915717"><ele>480.5</ele><time>2026-05-03T10:36:13.787Z</time></trkpt><trkpt lat="54.472795" lon="-2.1914417"><ele>481.0</ele><time>2026-05-03T10:36:14.784Z</time></trkpt><trkpt lat="54.4727" lon="-2.191335"><ele>481.75</ele><time>2026-05-03T10:36:15.783Z</time></trkpt><trkpt lat="54.4726" lon="-2.1912517"><ele>482.5</ele><time>2026-05-03T10:36:16.784Z</time></trkpt><trkpt lat="54.4724967" lon="-2.1911617"><ele>483.25</ele><time>2026-05-03T10:36:17.784Z</time></trkpt><trkpt lat="54.4723817" lon="-2.191055"><ele>484.0</ele><time>2026-05-03T10:36:18.784Z</time></trkpt><trkpt lat="54.47225" lon="-2.1909383"><ele>484.0</ele><time>2026-05-03T10:36:19.786Z</time></trkpt><trkpt lat="54.4721033" lon="-2.1908133"><ele>484.0</ele><time>2026-05-03T10:36:20.784Z</time></trkpt><trkpt lat="54.4719583" lon="-2.1906833"><ele>484.0</ele><time>2026-05-03T10:36:21.784Z</time></trkpt><trkpt lat="54.4718217" lon="-2.190535"><ele>484.25</ele><time>2026-05-03T10:36:22.784Z</time></trkpt><trkpt lat="54.4717017" lon="-2.1903767"><ele>484.5</ele><time>2026-05-03T10:36:23.784Z</time></trkpt><trkpt lat="54.4716" lon="-2.1902"><ele>484.75</ele><time>2026-05-03T10:36:24.785Z</time></trkpt><trkpt lat="54.4715233" lon="-2.1900283"><ele>485.0</ele><time>2026-05-03T10:36:25.784Z</time></trkpt><trkpt lat="54.4714617" lon="-2.189865"><ele>484.75</ele><time>2026-05-03T10:36:26.784Z</time></trkpt><trkpt lat="54.4714017" lon="-2.1897033"><ele>484.5</ele><time>2026-05-03T10:36:27.787Z</time></trkpt><trkpt lat="54.4713433" lon="-2.189535"><ele>484.25</ele><time>2026-05-03T10:36:28.787Z</time></trkpt><trkpt lat="54.471265" lon="-2.1893467"><ele>484.0</ele><time>2026-05-03T10:36:29.787Z</time></trkpt><trkpt lat="54.4711717" lon="-2.18914"><ele>484.33333333333337</ele><time>2026-05-03T10:36:30.787Z</time></trkpt><trkpt lat="54.4710717" lon="-2.1889283"><ele>484.66666666666663</ele><time>2026-05-03T10:36:31.786Z</time></trkpt><trkpt lat="54.470975" lon="-2.1887133"><ele>485.0</ele><time>2026-05-03T10:36:32.787Z</time></trkpt><trkpt lat="54.47087" lon="-2.1884933"><ele>485.0</ele><time>2026-05-03T10:36:33.788Z</time></trkpt><trkpt lat="54.4707583" lon="-2.188265"><ele>485.0</ele><time>2026-05-03T10:36:34.788Z</time></trkpt><trkpt lat="54.47064" lon="-2.1880383"><ele>485.0</ele><time>2026-05-03T10:36:35.784Z</time></trkpt><trkpt lat="54.4705217" lon="-2.187815"><ele>484.3333333333333</ele><time>2026-05-03T10:36:36.787Z</time></trkpt><trkpt lat="54.4704067" lon="-2.1875967"><ele>483.66666666666663</ele><time>2026-05-03T10:36:37.783Z</time></trkpt><trkpt lat="54.47029" lon="-2.1873867"><ele>483.0</ele><time>2026-05-03T10:36:38.788Z</time></trkpt><trkpt lat="54.470175" lon="-2.1871867"><ele>482.33333333333337</ele><time>2026-05-03T10:36:39.783Z</time></trkpt><trkpt lat="54.470055" lon="-2.18698"><ele>481.6666666666667</ele><time>2026-05-03T10:36:40.788Z</time></trkpt><trkpt lat="54.4699317" lon="-2.186775"><ele>481.0</ele><time>2026-05-03T10:36:41.786Z</time></trkpt><trkpt lat="54.4698117" lon="-2.1865867"><ele>479.6666666666667</ele><time>2026-05-03T10:36:42.787Z</time></trkpt><trkpt lat="54.469695" lon="-2.1864117"><ele>478.33333333333337</ele><time>2026-05-03T10:36:43.787Z</time></trkpt><trkpt lat="54.4695733" lon="-2.1862333"><ele>477.0</ele><time>2026-05-03T10:36:44.783Z</time></trkpt><trkpt lat="54.4694433" lon="-2.1860417"><ele>476.33333333333337</ele><time>2026-05-03T10:36:45.784Z</time></trkpt><trkpt lat="54.4693117" lon="-2.1858467"><ele>475.6666666666667</ele><time>2026-05-03T10:36:46.784Z</time></trkpt><trkpt lat="54.469175" lon="-2.1856467"><ele>475.0</ele><time>2026-05-03T10:36:47.784Z</time></trkpt><trkpt lat="54.4690383" lon="-2.1854483"><ele>473.6666666666667</ele><time>2026-05-03T10:36:48.783Z</time></trkpt><trkpt lat="54.4689033" lon="-2.185255"><ele>472.33333333333337</ele><time>2026-05-03T10:36:49.785Z</time></trkpt><trkpt lat="54.4687783" lon="-2.1850717"><ele>471.0</ele><time>2026-05-03T10:36:50.784Z</time></trkpt><trkpt lat="54.4686667" lon="-2.1848867"><ele>469.75</ele><time>2026-05-03T10:36:51.783Z</time></trkpt><trkpt lat="54.4685667" lon="-2.1846917"><ele>468.5</ele><time>2026-05-03T10:36:52.784Z</time></trkpt><trkpt lat="54.468485" lon="-2.184495"><ele>467.25</ele><time>2026-05-03T10:36:53.783Z</time></trkpt><trkpt lat="54.4684283" lon="-2.184295"><ele>466.0</ele><time>2026-05-03T10:36:54.788Z</time></trkpt><trkpt lat="54.468395" lon="-2.1840917"><ele>465.0</ele><time>2026-05-03T10:36:55.786Z</time></trkpt><trkpt lat="54.468395" lon="-2.1838867"><ele>464.0</ele><time>2026-05-03T10:36:56.787Z</time></trkpt><trkpt lat="54.4684133" lon="-2.1836683"><ele>463.0</ele><time>2026-05-03T10:36:57.784Z</time></trkpt><trkpt lat="54.46844" lon="-2.1834367"><ele>462.0</ele><time>2026-05-03T10:36:58.783Z</time></trkpt><trkpt lat="54.46846" lon="-2.1832"><ele>460.66666666666663</ele><time>2026-05-03T10:36:59.783Z</time></trkpt><trkpt lat="54.4684683" lon="-2.1829417"><ele>459.3333333333333</ele><time>2026-05-03T10:37:00.784Z</time></trkpt><trkpt lat="54.468465" lon="-2.1826617"><ele>458.0</ele><time>2026-05-03T10:37:01.784Z</time></trkpt><trkpt lat="54.4684467" lon="-2.1823667"><ele>457.3333333333333</ele><time>2026-05-03T10:37:02.783Z</time></trkpt><trkpt lat="54.4684133" lon="-2.1820717"><ele>456.66666666666663</ele><time>2026-05-03T10:37:03.784Z</time></trkpt><trkpt lat="54.4683667" lon="-2.181785"><ele>456.0</ele><time>2026-05-03T10:37:04.784Z</time></trkpt><trkpt lat="54.4683167" lon="-2.1815217"><ele>455.75</ele><time>2026-05-03T10:37:05.784Z</time></trkpt><trkpt lat="54.4682533" lon="-2.18129"><ele>455.5</ele><time>2026-05-03T10:37:06.783Z</time></trkpt><trkpt lat="54.4681767" lon="-2.1810983"><ele>455.25</ele><time>2026-05-03T10:37:07.784Z</time></trkpt><trkpt lat="54.4680817" lon="-2.18093"><ele>455.0</ele><time>2026-05-03T10:37:08.784Z</time></trkpt><trkpt lat="54.467985" lon="-2.180765"><ele>457.0</ele><time>2026-05-03T10:37:09.784Z</time></trkpt><trkpt lat="54.4679017" lon="-2.18059"><ele>459.0</ele><time>2026-05-03T10:37:10.783Z</time></trkpt><trkpt lat="54.46783" lon="-2.1803967"><ele>461.0</ele><time>2026-05-03T10:37:11.785Z</time></trkpt><trkpt lat="54.46778" lon="-2.1801883"><ele>463.0</ele><time>2026-05-03T10:37:12.784Z</time></trkpt><trkpt lat="54.4677517" lon="-2.179975"><ele>463.5</ele><time>2026-05-03T10:37:13.784Z</time></trkpt><trkpt lat="54.467735" lon="-2.1797533"><ele>464.0</ele><time>2026-05-03T10:37:14.788Z</time></trkpt><trkpt lat="54.467715" lon="-2.17953"><ele>464.5</ele><time>2026-05-03T10:37:15.787Z</time></trkpt><trkpt lat="54.467695" lon="-2.179325"><ele>465.0</ele><time>2026-05-03T10:37:16.783Z</time></trkpt><trkpt lat="54.4676767" lon="-2.1791333"><ele>464.75</ele><time>2026-05-03T10:37:17.784Z</time></trkpt><trkpt lat="54.4676583" lon="-2.17893"><ele>464.5</ele><time>2026-05-03T10:37:18.784Z</time></trkpt><trkpt lat="54.467645" lon="-2.17872"><ele>464.25</ele><time>2026-05-03T10:37:19.787Z</time></trkpt><trkpt lat="54.467645" lon="-2.178495"><ele>464.0</ele><time>2026-05-03T10:37:20.783Z</time></trkpt><trkpt lat="54.4676617" lon="-2.1782533"><ele>463.0</ele><time>2026-05-03T10:37:21.784Z</time></trkpt><trkpt lat="54.4676833" lon="-2.1779917"><ele>462.0</ele><time>2026-05-03T10:37:22.784Z</time></trkpt><trkpt lat="54.4677067" lon="-2.1777267"><ele>461.0</ele><time>2026-05-03T10:37:23.786Z</time></trkpt><trkpt lat="54.4677283" lon="-2.1774683"><ele>460.3333333333333</ele><time>2026-05-03T10:37:24.787Z</time></trkpt><trkpt lat="54.4677417" lon="-2.1772133"><ele>459.66666666666663</ele><time>2026-05-03T10:37:25.786Z</time></trkpt><trkpt lat="54.467745" lon="-2.1769483"><ele>459.0</ele><time>2026-05-03T10:37:26.786Z</time></trkpt><trkpt lat="54.46774" lon="-2.1766667"><ele>457.66666666666663</ele><time>2026-05-03T10:37:27.786Z</time></trkpt><trkpt lat="54.4677267" lon="-2.1763783"><ele>456.3333333333333</ele><time>2026-05-03T10:37:28.788Z</time></trkpt><trkpt lat="54.4676983" lon="-2.1760883"><ele>455.0</ele><time>2026-05-03T10:37:29.786Z</time></trkpt><trkpt lat="54.4676667" lon="-2.1758033"><ele>454.0</ele><time>2026-05-03T10:37:30.788Z</time></trkpt><trkpt lat="54.4676367" lon="-2.17553"><ele>453.0</ele><time>2026-05-03T10:37:31.787Z</time></trkpt><trkpt lat="54.467615" lon="-2.1752833"><ele>452.0</ele><time>2026-05-03T10:37:32.787Z</time></trkpt><trkpt lat="54.4675983" lon="-2.1750517"><ele>451.0</ele><time>2026-05-03T10:37:33.788Z</time></trkpt><trkpt lat="54.46758" lon="-2.1748367"><ele>450.25</ele><time>2026-05-03T10:37:34.785Z</time></trkpt><trkpt lat="54.4675517" lon="-2.1746367"><ele>449.5</ele><time>2026-05-03T10:37:35.784Z</time></trkpt><trkpt lat="54.4675083" lon="-2.1744483"><ele>448.75</ele><time>2026-05-03T10:37:36.787Z</time></trkpt><trkpt lat="54.46745" lon="-2.1742767"><ele>448.0</ele><time>2026-05-03T10:37:37.784Z</time></trkpt><trkpt lat="54.4673733" lon="-2.1741217"><ele>447.75</ele><time>2026-05-03T10:37:38.787Z</time></trkpt><trkpt lat="54.4672767" lon="-2.173995"><ele>447.5</ele><time>2026-05-03T10:37:39.784Z</time></trkpt><trkpt lat="54.467165" lon="-2.173915"><ele>447.25</ele><time>2026-05-03T10:37:40.788Z</time></trkpt><trkpt lat="54.4670367" lon="-2.1738667"><ele>447.0</ele><time>2026-05-03T10:37:41.786Z</time></trkpt><trkpt lat="54.4668917" lon="-2.1738467"><ele>448.0</ele><time>2026-05-03T10:37:42.787Z</time></trkpt><trkpt lat="54.4667333" lon="-2.1738467"><ele>449.0</ele><time>2026-05-03T10:37:43.784Z</time></trkpt><trkpt lat="54.466565" lon="-2.1738533"><ele>450.0</ele><time>2026-05-03T10:37:44.787Z</time></trkpt><trkpt lat="54.4663883" lon="-2.1738583"><ele>454.0</ele><time>2026-05-03T10:37:45.789Z</time></trkpt><trkpt lat="54.466205" lon="-2.17387"><ele>458.0</ele><time>2026-05-03T10:37:46.787Z</time></trkpt><trkpt lat="54.4660217" lon="-2.1738867"><ele>462.0</ele><time>2026-05-03T10:37:47.787Z</time></trkpt><trkpt lat="54.46585" lon="-2.1739117"><ele>462.0</ele><time>2026-05-03T10:37:48.784Z</time></trkpt><trkpt lat="54.465685" lon="-2.173935"><ele>462.0</ele><time>2026-05-03T10:37:49.787Z</time></trkpt><trkpt lat="54.465535" lon="-2.1739667"><ele>462.0</ele><time>2026-05-03T10:37:50.787Z</time></trkpt><trkpt lat="54.4653933" lon="-2.1740183"><ele>464.25</ele><time>2026-05-03T10:37:51.787Z</time></trkpt><trkpt lat="54.4652617" lon="-2.1740883"><ele>466.5</ele><time>2026-05-03T10:37:52.787Z</time></trkpt><trkpt lat="54.4651433" lon="-2.174185"><ele>468.75</ele><time>2026-05-03T10:37:53.784Z</time></trkpt><trkpt lat="54.4650233" lon="-2.1743083"><ele>471.0</ele><time>2026-05-03T10:37:54.788Z</time></trkpt><trkpt lat="54.4648983" lon="-2.1744433"><ele>471.0</ele><time>2026-05-03T10:37:55.784Z</time></trkpt><trkpt lat="54.4647717" lon="-2.1745867"><ele>471.0</ele><time>2026-05-03T10:37:56.784Z</time></trkpt><trkpt lat="54.4646517" lon="-2.1747233"><ele>471.0</ele><time>2026-05-03T10:37:57.784Z</time></trkpt><trkpt lat="54.46453" lon="-2.174845"><ele>471.0</ele><time>2026-05-03T10:37:58.786Z</time></trkpt><trkpt lat="54.4644033" lon="-2.1749533"><ele>473.5</ele><time>2026-05-03T10:37:59.782Z</time></trkpt><trkpt lat="54.4642667" lon="-2.17504"><ele>476.0</ele><time>2026-05-03T10:38:00.788Z</time></trkpt><trkpt lat="54.4641217" lon="-2.1750983"><ele>478.5</ele><time>2026-05-03T10:38:01.785Z</time></trkpt><trkpt lat="54.4639717" lon="-2.175155"><ele>481.0</ele><time>2026-05-03T10:38:02.785Z</time></trkpt><trkpt lat="54.46382" lon="-2.1752"><ele>482.75</ele><time>2026-05-03T10:38:03.784Z</time></trkpt><trkpt lat="54.4636783" lon="-2.1752467"><ele>484.5</ele><time>2026-05-03T10:38:04.783Z</time></trkpt><trkpt lat="54.4635467" lon="-2.1752883"><ele>486.25</ele><time>2026-05-03T10:38:05.786Z</time></trkpt><trkpt lat="54.4634283" lon="-2.1753267"><ele>488.0</ele><time>2026-05-03T10:38:06.785Z</time></trkpt><trkpt lat="54.4633217" lon="-2.17536"><ele>488.0</ele><time>2026-05-03T10:38:07.785Z</time></trkpt><trkpt lat="54.4632233" lon="-2.1753883"><ele>487.99999999999994</ele><time>2026-05-03T10:38:08.785Z</time></trkpt><trkpt lat="54.4631283" lon="-2.17541"><ele>487.99999999999994</ele><time>2026-05-03T10:38:09.785Z</time></trkpt><trkpt lat="54.4630333" lon="-2.1754233"><ele>488.0</ele><time>2026-05-03T10:38:10.784Z</time></trkpt><trkpt lat="54.4629333" lon="-2.17542"><ele>488.0</ele><time>2026-05-03T10:38:11.785Z</time></trkpt><trkpt lat="54.4628317" lon="-2.1754"><ele>489.0</ele><time>2026-05-03T10:38:12.786Z</time></trkpt><trkpt lat="54.4627217" lon="-2.1753617"><ele>490.0</ele><time>2026-05-03T10:38:13.787Z</time></trkpt><trkpt lat="54.4626133" lon="-2.1753117"><ele>491.0</ele><time>2026-05-03T10:38:14.787Z</time></trkpt><trkpt lat="54.4624967" lon="-2.175255"><ele>492.0</ele><time>2026-05-03T10:38:15.783Z</time></trkpt><trkpt lat="54.4623733" lon="-2.17519"><ele>492.0</ele><time>2026-05-03T10:38:16.784Z</time></trkpt><trkpt lat="54.4622483" lon="-2.1751133"><ele>492.0</ele><time>2026-05-03T10:38:17.783Z</time></trkpt><trkpt lat="54.462125" lon="-2.1750283"><ele>492.0</ele><time>2026-05-03T10:38:18.784Z</time></trkpt><trkpt lat="54.4620117" lon="-2.1749467"><ele>492.0</ele><time>2026-05-03T10:38:19.785Z</time></trkpt><trkpt lat="54.461915" lon="-2.1748717"><ele>492.8</ele><time>2026-05-03T10:38:20.784Z</time></trkpt><trkpt lat="54.4618267" lon="-2.1747883"><ele>493.6</ele><time>2026-05-03T10:38:21.787Z</time></trkpt><trkpt lat="54.4617433" lon="-2.174695"><ele>494.40000000000003</ele><time>2026-05-03T10:38:22.787Z</time></trkpt><trkpt lat="54.46166" lon="-2.174595"><ele>495.20000000000005</ele><time>2026-05-03T10:38:23.782Z</time></trkpt><trkpt lat="54.4615817" lon="-2.1744933"><ele>496.0</ele><time>2026-05-03T10:38:24.786Z</time></trkpt><trkpt lat="54.461505" lon="-2.1743917"><ele>496.0</ele><time>2026-05-03T10:38:25.784Z</time></trkpt><trkpt lat="54.4614267" lon="-2.1742867"><ele>496.0</ele><time>2026-05-03T10:38:26.784Z</time></trkpt><trkpt lat="54.4613517" lon="-2.1741833"><ele>496.0</ele><time>2026-05-03T10:38:27.783Z</time></trkpt><trkpt lat="54.4612733" lon="-2.1740767"><ele>496.0</ele><time>2026-05-03T10:38:28.787Z</time></trkpt><trkpt lat="54.46119" lon="-2.1739517"><ele>496.0</ele><time>2026-05-03T10:38:29.787Z</time></trkpt><trkpt lat="54.461095" lon="-2.17382"><ele>495.75</ele><time>2026-05-03T10:38:30.787Z</time></trkpt><trkpt lat="54.460995" lon="-2.173685"><ele>495.5</ele><time>2026-05-03T10:38:31.782Z</time></trkpt><trkpt lat="54.4608983" lon="-2.173545"><ele>495.25</ele><time>2026-05-03T10:38:32.787Z</time></trkpt><trkpt lat="54.4607967" lon="-2.173395"><ele>495.0</ele><time>2026-05-03T10:38:33.786Z</time></trkpt><trkpt lat="54.4606933" lon="-2.1732367"><ele>495.25</ele><time>2026-05-03T10:38:34.787Z</time></trkpt><trkpt lat="54.4605883" lon="-2.1730817"><ele>495.5</ele><time>2026-05-03T10:38:35.787Z</time></trkpt><trkpt lat="54.460485" lon="-2.1729367"><ele>495.75</ele><time>2026-05-03T10:38:36.786Z</time></trkpt><trkpt lat="54.460375" lon="-2.1727983"><ele>496.0</ele><time>2026-05-03T10:38:37.784Z</time></trkpt><trkpt lat="54.4602567" lon="-2.1726667"><ele>495.6666666666667</ele><time>2026-05-03T10:38:38.783Z</time></trkpt><trkpt lat="54.460125" lon="-2.172545"><ele>495.33333333333337</ele><time>2026-05-03T10:38:39.783Z</time></trkpt><trkpt lat="54.459985" lon="-2.1724333"><ele>495.0</ele><time>2026-05-03T10:38:40.786Z</time></trkpt><trkpt lat="54.4598383" lon="-2.17233"><ele>495.0</ele><time>2026-05-03T10:38:41.784Z</time></trkpt><trkpt lat="54.4596933" lon="-2.1722367"><ele>495.0</ele><time>2026-05-03T10:38:42.786Z</time></trkpt><trkpt lat="54.459555" lon="-2.172155"><ele>495.0</ele><time>2026-05-03T10:38:43.787Z</time></trkpt><trkpt lat="54.4594183" lon="-2.172065"><ele>495.0</ele><time>2026-05-03T10:38:44.787Z</time></trkpt><trkpt lat="54.459285" lon="-2.1719683"><ele>495.25</ele><time>2026-05-03T10:38:45.787Z</time></trkpt><trkpt lat="54.4591567" lon="-2.1718717"><ele>495.5</ele><time>2026-05-03T10:38:46.787Z</time></trkpt><trkpt lat="54.45904" lon="-2.171785"><ele>495.75</ele><time>2026-05-03T10:38:47.783Z</time></trkpt><trkpt lat="54.4589333" lon="-2.1716933"><ele>496.0</ele><time>2026-05-03T10:38:48.787Z</time></trkpt><trkpt lat="54.4588317" lon="-2.1715783"><ele>495.0</ele><time>2026-05-03T10:38:49.787Z</time></trkpt><trkpt lat="54.4587367" lon="-2.1714417"><ele>494.0</ele><time>2026-05-03T10:38:50.782Z</time></trkpt><trkpt lat="54.4586367" lon="-2.171275"><ele>493.0</ele><time>2026-05-03T10:38:51.789Z</time></trkpt><trkpt lat="54.45854" lon="-2.1710917"><ele>492.0</ele><time>2026-05-03T10:38:52.787Z</time></trkpt><trkpt lat="54.45844" lon="-2.1709017"><ele>492.0</ele><time>2026-05-03T10:38:53.787Z</time></trkpt><trkpt lat="54.4583417" lon="-2.1707067"><ele>492.0</ele><time>2026-05-03T10:38:54.787Z</time></trkpt><trkpt lat="54.45824" lon="-2.17051"><ele>492.0</ele><time>2026-05-03T10:38:55.787Z</time></trkpt><trkpt lat="54.45814" lon="-2.1703117"><ele>492.0</ele><time>2026-05-03T10:38:56.783Z</time></trkpt><trkpt lat="54.4580417" lon="-2.1701133"><ele>492.0</ele><time>2026-05-03T10:38:57.786Z</time></trkpt><trkpt lat="54.45794" lon="-2.1699133"><ele>492.0</ele><time>2026-05-03T10:38:58.786Z</time></trkpt><trkpt lat="54.4578367" lon="-2.1697133"><ele>492.0</ele><time>2026-05-03T10:38:59.786Z</time></trkpt><trkpt lat="54.457735" lon="-2.1695183"><ele>492.0</ele><time>2026-05-03T10:39:00.784Z</time></trkpt><trkpt lat="54.457635" lon="-2.169325"><ele>492.0</ele><time>2026-05-03T10:39:01.787Z</time></trkpt><trkpt lat="54.4575383" lon="-2.1691367"><ele>492.0</ele><time>2026-05-03T10:39:02.787Z</time></trkpt><trkpt lat="54.4574467" lon="-2.168955"><ele>492.5</ele><time>2026-05-03T10:39:03.787Z</time></trkpt><trkpt lat="54.4573517" lon="-2.1687767"><ele>493.0</ele><time>2026-05-03T10:39:04.788Z</time></trkpt><trkpt lat="54.4572583" lon="-2.168595"><ele>493.5</ele><time>2026-05-03T10:39:05.786Z</time></trkpt><trkpt lat="54.4571583" lon="-2.1684033"><ele>494.0</ele><time>2026-05-03T10:39:06.787Z</time></trkpt><trkpt lat="54.4570517" lon="-2.1682067"><ele>495.3333333333333</ele><time>2026-05-03T10:39:07.786Z</time></trkpt><trkpt lat="54.4569467" lon="-2.1680083"><ele>496.66666666666663</ele><time>2026-05-03T10:39:08.786Z</time></trkpt><trkpt lat="54.45684" lon="-2.1678067"><ele>498.0</ele><time>2026-05-03T10:39:09.787Z</time></trkpt><trkpt lat="54.4567383" lon="-2.167605"><ele>498.0</ele><time>2026-05-03T10:39:10.786Z</time></trkpt><trkpt lat="54.4566383" lon="-2.1674083"><ele>498.0</ele><time>2026-05-03T10:39:11.786Z</time></trkpt><trkpt lat="54.45654" lon="-2.167215"><ele>498.0</ele><time>2026-05-03T10:39:12.787Z</time></trkpt><trkpt lat="54.4564383" lon="-2.1670233"><ele>498.5</ele><time>2026-05-03T10:39:13.787Z</time></trkpt><trkpt lat="54.4563433" lon="-2.1668383"><ele>499.0</ele><time>2026-05-03T10:39:14.787Z</time></trkpt><trkpt lat="54.4562483" lon="-2.1666683"><ele>499.5</ele><time>2026-05-03T10:39:15.787Z</time></trkpt><trkpt lat="54.4561683" lon="-2.1665217"><ele>500.0</ele><time>2026-05-03T10:39:16.787Z</time></trkpt><trkpt lat="54.4561" lon="-2.1663917"><ele>502.49999999999994</ele><time>2026-05-03T10:39:17.782Z</time></trkpt><trkpt lat="54.4560483" lon="-2.1662733"><ele>505.0</ele><time>2026-05-03T10:39:18.786Z</time></trkpt><trkpt lat="54.4560083" lon="-2.1661533"><ele>507.5</ele><time>2026-05-03T10:39:19.784Z</time></trkpt><trkpt lat="54.4559883" lon="-2.1660317"><ele>510.0</ele><time>2026-05-03T10:39:20.783Z</time></trkpt><trkpt lat="54.4559883" lon="-2.1659083"><ele>512.5</ele><time>2026-05-03T10:39:21.784Z</time></trkpt><trkpt lat="54.4559933" lon="-2.1657683"><ele>515.0</ele><time>2026-05-03T10:39:22.784Z</time></trkpt><trkpt lat="54.4560283" lon="-2.165595"><ele>515.5</ele><time>2026-05-03T10:39:23.784Z</time></trkpt><trkpt lat="54.4560667" lon="-2.1654017"><ele>516.0</ele><time>2026-05-03T10:39:24.784Z</time></trkpt><trkpt lat="54.45609" lon="-2.165215"><ele>516.5</ele><time>2026-05-03T10:39:25.785Z</time></trkpt><trkpt lat="54.4561033" lon="-2.1650183"><ele>517.0</ele><time>2026-05-03T10:39:26.782Z</time></trkpt><trkpt lat="54.45611" lon="-2.164815"><ele>517.5</ele><time>2026-05-03T10:39:27.784Z</time></trkpt><trkpt lat="54.4561" lon="-2.1646067"><ele>518.0</ele><time>2026-05-03T10:39:28.787Z</time></trkpt><trkpt lat="54.4560833" lon="-2.1643917"><ele>518.5</ele><time>2026-05-03T10:39:29.787Z</time></trkpt><trkpt lat="54.4560617" lon="-2.1641633"><ele>519.0</ele><time>2026-05-03T10:39:30.783Z</time></trkpt><trkpt lat="54.456035" lon="-2.16394"><ele>520.25</ele><time>2026-05-03T10:39:31.787Z</time></trkpt><trkpt lat="54.456" lon="-2.1637217"><ele>521.5</ele><time>2026-05-03T10:39:32.787Z</time></trkpt><trkpt lat="54.4559667" lon="-2.1635167"><ele>522.75</ele><time>2026-05-03T10:39:33.787Z</time></trkpt><trkpt lat="54.4559367" lon="-2.1633317"><ele>524.0</ele><time>2026-05-03T10:39:34.786Z</time></trkpt><trkpt lat="54.4559033" lon="-2.1631783"><ele>524.1666666666666</ele><time>2026-05-03T10:39:35.787Z</time></trkpt><trkpt lat="54.455865" lon="-2.1630433"><ele>524.3333333333333</ele><time>2026-05-03T10:39:36.786Z</time></trkpt><trkpt lat="54.45583" lon="-2.1629233"><ele>524.5</ele><time>2026-05-03T10:39:37.787Z</time></trkpt><trkpt lat="54.455795" lon="-2.1628167"><ele>524.6666666666666</ele><time>2026-05-03T10:39:38.782Z</time></trkpt><trkpt lat="54.45576" lon="-2.1627017"><ele>524.8333333333334</ele><time>2026-05-03T10:39:39.783Z</time></trkpt><trkpt lat="54.4557217" lon="-2.1625633"><ele>525.0</ele><time>2026-05-03T10:39:40.787Z</time></trkpt><trkpt lat="54.45568" lon="-2.16242"><ele>524.8</ele><time>2026-05-03T10:39:41.787Z</time></trkpt><trkpt lat="54.4556433" lon="-2.1622867"><ele>524.6</ele><time>2026-05-03T10:39:42.783Z</time></trkpt><trkpt lat="54.4556083" lon="-2.1621817"><ele>524.4</ele><time>2026-05-03T10:39:43.785Z</time></trkpt><trkpt lat="54.4555417" lon="-2.1620517"><ele>524.2</ele><time>2026-05-03T10:39:45.787Z</time></trkpt><trkpt lat="54.4554633" lon="-2.1620383"><ele>524.0</ele><time>2026-05-03T10:39:47.784Z</time></trkpt><trkpt lat="54.455355" lon="-2.1621183"><ele>524.0</ele><time>2026-05-03T10:39:49.783Z</time></trkpt><trkpt lat="54.4552783" lon="-2.162185"><ele>524.0</ele><time>2026-05-03T10:39:50.783Z</time></trkpt><trkpt lat="54.4551867" lon="-2.1622633"><ele>524.0</ele><time>2026-05-03T10:39:51.783Z</time></trkpt><trkpt lat="54.4550733" lon="-2.1623417"><ele>524.0</ele><time>2026-05-03T10:39:52.785Z</time></trkpt><trkpt lat="54.454955" lon="-2.16242"><ele>524.0</ele><time>2026-05-03T10:39:53.784Z</time></trkpt><trkpt lat="54.454835" lon="-2.162505"><ele>524.0</ele><time>2026-05-03T10:39:54.782Z</time></trkpt><trkpt lat="54.4547217" lon="-2.1625867"><ele>524.0</ele><time>2026-05-03T10:39:55.784Z</time></trkpt><trkpt lat="54.4546183" lon="-2.16267"><ele>524.0</ele><time>2026-05-03T10:39:56.784Z</time></trkpt><trkpt lat="54.454525" lon="-2.1627433"><ele>524.0</ele><time>2026-05-03T10:39:57.784Z</time></trkpt><trkpt lat="54.4544333" lon="-2.1628117"><ele>524.0</ele><time>2026-05-03T10:39:58.787Z</time></trkpt><trkpt lat="54.4543433" lon="-2.1628783"><ele>523.8</ele><time>2026-05-03T10:39:59.784Z</time></trkpt><trkpt lat="54.4542567" lon="-2.1629467"><ele>523.5999999999999</ele><time>2026-05-03T10:40:00.786Z</time></trkpt><trkpt lat="54.4541633" lon="-2.1630167"><ele>523.4</ele><time>2026-05-03T10:40:01.787Z</time></trkpt><trkpt lat="54.4540617" lon="-2.1630917"><ele>523.1999999999999</ele><time>2026-05-03T10:40:02.783Z</time></trkpt><trkpt lat="54.4539533" lon="-2.16317"><ele>523.0</ele><time>2026-05-03T10:40:03.784Z</time></trkpt><trkpt lat="54.4538433" lon="-2.1632533"><ele>522.75</ele><time>2026-05-03T10:40:04.787Z</time></trkpt><trkpt lat="54.4537333" lon="-2.1633383"><ele>522.5</ele><time>2026-05-03T10:40:05.783Z</time></trkpt><trkpt lat="54.4536217" lon="-2.1634217"><ele>522.25</ele><time>2026-05-03T10:40:06.782Z</time></trkpt><trkpt lat="54.453505" lon="-2.1635067"><ele>522.0</ele><time>2026-05-03T10:40:07.783Z</time></trkpt><trkpt lat="54.4533833" lon="-2.1635917"><ele>522.0</ele><time>2026-05-03T10:40:08.783Z</time></trkpt><trkpt lat="54.453255" lon="-2.1636767"><ele>522.0</ele><time>2026-05-03T10:40:09.783Z</time></trkpt><trkpt lat="54.4531217" lon="-2.1637683"><ele>522.0</ele><time>2026-05-03T10:40:10.782Z</time></trkpt><trkpt lat="54.452985" lon="-2.1638683"><ele>522.0</ele><time>2026-05-03T10:40:11.784Z</time></trkpt><trkpt lat="54.452845" lon="-2.1639717"><ele>520.6666666666666</ele><time>2026-05-03T10:40:12.782Z</time></trkpt><trkpt lat="54.4527017" lon="-2.1640767"><ele>519.3333333333333</ele><time>2026-05-03T10:40:13.788Z</time></trkpt><trkpt lat="54.4525583" lon="-2.1641817"><ele>518.0</ele><time>2026-05-03T10:40:14.787Z</time></trkpt><trkpt lat="54.452405" lon="-2.1642967"><ele>518.0</ele><time>2026-05-03T10:40:15.783Z</time></trkpt><trkpt lat="54.45225" lon="-2.16441"><ele>518.0</ele><time>2026-05-03T10:40:16.787Z</time></trkpt><trkpt lat="54.4520983" lon="-2.1645183"><ele>518.0</ele><time>2026-05-03T10:40:17.783Z</time></trkpt><trkpt lat="54.4519533" lon="-2.1646267"><ele>518.75</ele><time>2026-05-03T10:40:18.783Z</time></trkpt><trkpt lat="54.4518117" lon="-2.1647383"><ele>519.5</ele><time>2026-05-03T10:40:19.784Z</time></trkpt><trkpt lat="54.4516783" lon="-2.1648417"><ele>520.25</ele><time>2026-05-03T10:40:20.784Z</time></trkpt><trkpt lat="54.4515483" lon="-2.1649383"><ele>521.0</ele><time>2026-05-03T10:40:21.784Z</time></trkpt><trkpt lat="54.45141" lon="-2.1650367"><ele>518.6666666666666</ele><time>2026-05-03T10:40:22.783Z</time></trkpt><trkpt lat="54.451265" lon="-2.1651467"><ele>516.3333333333334</ele><time>2026-05-03T10:40:23.784Z</time></trkpt><trkpt lat="54.4511083" lon="-2.1652617"><ele>514.0</ele><time>2026-05-03T10:40:24.784Z</time></trkpt><trkpt lat="54.45095" lon="-2.1653833"><ele>514.0</ele><time>2026-05-03T10:40:25.786Z</time></trkpt><trkpt lat="54.4507867" lon="-2.165505"><ele>514.0</ele><time>2026-05-03T10:40:26.785Z</time></trkpt><trkpt lat="54.450615" lon="-2.1656333"><ele>514.0</ele><time>2026-05-03T10:40:27.782Z</time></trkpt><trkpt lat="54.4504383" lon="-2.165765"><ele>511.6666666666667</ele><time>2026-05-03T10:40:28.783Z</time></trkpt><trkpt lat="54.4502517" lon="-2.1659"><ele>509.33333333333337</ele><time>2026-05-03T10:40:29.784Z</time></trkpt><trkpt lat="54.45006" lon="-2.1660367"><ele>507.0</ele><time>2026-05-03T10:40:30.783Z</time></trkpt><trkpt lat="54.4498633" lon="-2.1661733"><ele>507.0</ele><time>2026-05-03T10:40:31.784Z</time></trkpt><trkpt lat="54.44967" lon="-2.16631"><ele>507.0</ele><time>2026-05-03T10:40:32.783Z</time></trkpt><trkpt lat="54.4494783" lon="-2.166445"><ele>507.0</ele><time>2026-05-03T10:40:33.782Z</time></trkpt><trkpt lat="54.4492933" lon="-2.1665767"><ele>505.33333333333337</ele><time>2026-05-03T10:40:34.783Z</time></trkpt><trkpt lat="54.4491267" lon="-2.1667033"><ele>503.6666666666667</ele><time>2026-05-03T10:40:35.787Z</time></trkpt><trkpt lat="54.4489717" lon="-2.16682"><ele>502.0</ele><time>2026-05-03T10:40:36.783Z</time></trkpt><trkpt lat="54.4488317" lon="-2.16693"><ele>501.75</ele><time>2026-05-03T10:40:37.782Z</time></trkpt><trkpt lat="54.4487033" lon="-2.167035"><ele>501.5</ele><time>2026-05-03T10:40:38.782Z</time></trkpt><trkpt lat="54.4485917" lon="-2.1671383"><ele>501.25</ele><time>2026-05-03T10:40:39.783Z</time></trkpt><trkpt lat="54.4485" lon="-2.1672717"><ele>501.0</ele><time>2026-05-03T10:40:40.787Z</time></trkpt><trkpt lat="54.448425" lon="-2.16743"><ele>501.0</ele><time>2026-05-03T10:40:41.783Z</time></trkpt><trkpt lat="54.4483733" lon="-2.16761"><ele>501.0</ele><time>2026-05-03T10:40:42.783Z</time></trkpt><trkpt lat="54.4483417" lon="-2.167805"><ele>501.0</ele><time>2026-05-03T10:40:43.783Z</time></trkpt><trkpt lat="54.4483033" lon="-2.1679817"><ele>501.0</ele><time>2026-05-03T10:40:44.784Z</time></trkpt><trkpt lat="54.4482483" lon="-2.16813"><ele>501.0</ele><time>2026-05-03T10:40:45.782Z</time></trkpt><trkpt lat="54.44817" lon="-2.168255"><ele>499.66666666666663</ele><time>2026-05-03T10:40:46.783Z</time></trkpt><trkpt lat="54.44807" lon="-2.168385"><ele>498.3333333333333</ele><time>2026-05-03T10:40:47.783Z</time></trkpt><trkpt lat="54.4479417" lon="-2.1685167"><ele>497.0</ele><time>2026-05-03T10:40:48.782Z</time></trkpt><trkpt lat="54.4477767" lon="-2.1686483"><ele>497.0</ele><time>2026-05-03T10:40:49.783Z</time></trkpt><trkpt lat="54.4476117" lon="-2.1687817"><ele>497.0</ele><time>2026-05-03T10:40:50.783Z</time></trkpt><trkpt lat="54.447445" lon="-2.16892"><ele>497.0</ele><time>2026-05-03T10:40:51.782Z</time></trkpt><trkpt lat="54.4472967" lon="-2.1690783"><ele>496.0</ele><time>2026-05-03T10:40:52.782Z</time></trkpt><trkpt lat="54.447155" lon="-2.1692383"><ele>495.0</ele><time>2026-05-03T10:40:53.783Z</time></trkpt><trkpt lat="54.4470183" lon="-2.1694033"><ele>494.0</ele><time>2026-05-03T10:40:54.783Z</time></trkpt><trkpt lat="54.446875" lon="-2.1695767"><ele>494.0</ele><time>2026-05-03T10:40:55.783Z</time></trkpt><trkpt lat="54.4467333" lon="-2.1697533"><ele>494.0</ele><time>2026-05-03T10:40:56.783Z</time></trkpt><trkpt lat="54.4465933" lon="-2.1699283"><ele>494.0</ele><time>2026-05-03T10:40:57.782Z</time></trkpt><trkpt lat="54.4464483" lon="-2.1701083"><ele>492.3333333333333</ele><time>2026-05-03T10:40:58.787Z</time></trkpt><trkpt lat="54.4462967" lon="-2.1702883"><ele>490.66666666666663</ele><time>2026-05-03T10:40:59.784Z</time></trkpt><trkpt lat="54.4461467" lon="-2.1704633"><ele>489.0</ele><time>2026-05-03T10:41:00.784Z</time></trkpt><trkpt lat="54.4459967" lon="-2.1706283"><ele>486.33333333333337</ele><time>2026-05-03T10:41:01.783Z</time></trkpt><trkpt lat="54.4458417" lon="-2.1707867"><ele>483.6666666666667</ele><time>2026-05-03T10:41:02.783Z</time></trkpt><trkpt lat="54.4456767" lon="-2.17094"><ele>481.0</ele><time>2026-05-03T10:41:03.782Z</time></trkpt><trkpt lat="54.4455083" lon="-2.1710817"><ele>482.0</ele><time>2026-05-03T10:41:04.783Z</time></trkpt><trkpt lat="54.44534" lon="-2.1712183"><ele>483.0</ele><time>2026-05-03T10:41:05.783Z</time></trkpt><trkpt lat="54.4451717" lon="-2.17135"><ele>484.0</ele><time>2026-05-03T10:41:06.782Z</time></trkpt><trkpt lat="54.4450067" lon="-2.1714767"><ele>480.33333333333337</ele><time>2026-05-03T10:41:07.786Z</time></trkpt><trkpt lat="54.4448467" lon="-2.1716033"><ele>476.66666666666663</ele><time>2026-05-03T10:41:08.785Z</time></trkpt><trkpt lat="54.4446933" lon="-2.17172"><ele>473.0</ele><time>2026-05-03T10:41:09.783Z</time></trkpt><trkpt lat="54.4445517" lon="-2.1718333"><ele>472.79999999999995</ele><time>2026-05-03T10:41:10.787Z</time></trkpt><trkpt lat="54.444425" lon="-2.1719383"><ele>472.59999999999997</ele><time>2026-05-03T10:41:11.784Z</time></trkpt><trkpt lat="54.4443283" lon="-2.17203"><ele>472.40000000000003</ele><time>2026-05-03T10:41:12.787Z</time></trkpt><trkpt lat="54.4442633" lon="-2.1721"><ele>472.20000000000005</ele><time>2026-05-03T10:41:13.787Z</time></trkpt><trkpt lat="54.4442067" lon="-2.1721783"><ele>472.0</ele><time>2026-05-03T10:41:14.783Z</time></trkpt><trkpt lat="54.4441533" lon="-2.172275"><ele>470.20000000000005</ele><time>2026-05-03T10:41:15.782Z</time></trkpt><trkpt lat="54.44413" lon="-2.1723917"><ele>468.40000000000003</ele><time>2026-05-03T10:41:16.783Z</time></trkpt><trkpt lat="54.44411" lon="-2.1725267"><ele>466.59999999999997</ele><time>2026-05-03T10:41:17.785Z</time></trkpt><trkpt lat="54.4441" lon="-2.1726883"><ele>464.79999999999995</ele><time>2026-05-03T10:41:18.782Z</time></trkpt><trkpt lat="54.4441183" lon="-2.1729217"><ele>463.0</ele><time>2026-05-03T10:41:19.782Z</time></trkpt><trkpt lat="54.44413" lon="-2.1731683"><ele>461.0</ele><time>2026-05-03T10:41:20.783Z</time></trkpt><trkpt lat="54.444125" lon="-2.1734117"><ele>459.0</ele><time>2026-05-03T10:41:21.783Z</time></trkpt><trkpt lat="54.4441217" lon="-2.1736617"><ele>457.0</ele><time>2026-05-03T10:41:22.783Z</time></trkpt><trkpt lat="54.4441133" lon="-2.1739033"><ele>455.0</ele><time>2026-05-03T10:41:23.784Z</time></trkpt><trkpt lat="54.4441017" lon="-2.1741317"><ele>453.4</ele><time>2026-05-03T10:41:24.787Z</time></trkpt><trkpt lat="54.4440983" lon="-2.1743533"><ele>451.8</ele><time>2026-05-03T10:41:25.79Z</time></trkpt><trkpt lat="54.4440933" lon="-2.1745467"><ele>450.20000000000005</ele><time>2026-05-03T10:41:26.784Z</time></trkpt><trkpt lat="54.4440783" lon="-2.17471"><ele>448.6</ele><time>2026-05-03T10:41:27.783Z</time></trkpt><trkpt lat="54.444065" lon="-2.1748667"><ele>447.0</ele><time>2026-05-03T10:41:28.785Z</time></trkpt><trkpt lat="54.4440417" lon="-2.1750183"><ele>445.6</ele><time>2026-05-03T10:41:29.784Z</time></trkpt><trkpt lat="54.444" lon="-2.175175"><ele>444.20000000000005</ele><time>2026-05-03T10:41:30.786Z</time></trkpt><trkpt lat="54.4439433" lon="-2.17533"><ele>442.8</ele><time>2026-05-03T10:41:31.787Z</time></trkpt><trkpt lat="54.4438733" lon="-2.1754717"><ele>441.4</ele><time>2026-05-03T10:41:32.787Z</time></trkpt><trkpt lat="54.44379" lon="-2.1755983"><ele>440.0</ele><time>2026-05-03T10:41:33.786Z</time></trkpt><trkpt lat="54.44369" lon="-2.1757033"><ele>438.0</ele><time>2026-05-03T10:41:34.787Z</time></trkpt><trkpt lat="54.4435817" lon="-2.1757817"><ele>436.0</ele><time>2026-05-03T10:41:35.787Z</time></trkpt><trkpt lat="54.443475" lon="-2.1758417"><ele>434.0</ele><time>2026-05-03T10:41:36.787Z</time></trkpt><trkpt lat="54.4433583" lon="-2.175895"><ele>432.0</ele><time>2026-05-03T10:41:37.787Z</time></trkpt><trkpt lat="54.4432317" lon="-2.1759467"><ele>432.0</ele><time>2026-05-03T10:41:38.782Z</time></trkpt><trkpt lat="54.4430883" lon="-2.1760033"><ele>432.0</ele><time>2026-05-03T10:41:39.783Z</time></trkpt><trkpt lat="54.4429333" lon="-2.17606"><ele>432.0</ele><time>2026-05-03T10:41:40.783Z</time></trkpt><trkpt lat="54.4427683" lon="-2.1761067"><ele>431.33333333333337</ele><time>2026-05-03T10:41:41.783Z</time></trkpt><trkpt lat="54.4425967" lon="-2.1761483"><ele>430.6666666666667</ele><time>2026-05-03T10:41:42.783Z</time></trkpt><trkpt lat="54.4424133" lon="-2.17619"><ele>430.0</ele><time>2026-05-03T10:41:43.784Z</time></trkpt><trkpt lat="54.4422233" lon="-2.1762267"><ele>430.0</ele><time>2026-05-03T10:41:44.784Z</time></trkpt><trkpt lat="54.44204" lon="-2.1762533"><ele>430.0</ele><time>2026-05-03T10:41:45.783Z</time></trkpt><trkpt lat="54.441875" lon="-2.1762767"><ele>430.0</ele><time>2026-05-03T10:41:46.783Z</time></trkpt><trkpt lat="54.44173" lon="-2.1762983"><ele>430.0</ele><time>2026-05-03T10:41:47.783Z</time></trkpt><trkpt lat="54.4416" lon="-2.17631"><ele>430.0</ele><time>2026-05-03T10:41:48.782Z</time></trkpt><trkpt lat="54.44148" lon="-2.1763317"><ele>430.0</ele><time>2026-05-03T10:41:49.782Z</time></trkpt><trkpt lat="54.4413667" lon="-2.1763683"><ele>430.0</ele><time>2026-05-03T10:41:50.782Z</time></trkpt><trkpt lat="54.441255" lon="-2.1764133"><ele>430.0</ele><time>2026-05-03T10:41:51.782Z</time></trkpt><trkpt lat="54.441135" lon="-2.17647"><ele>430.0</ele><time>2026-05-03T10:41:52.787Z</time></trkpt><trkpt lat="54.4410033" lon="-2.1765317"><ele>430.0</ele><time>2026-05-03T10:41:53.782Z</time></trkpt><trkpt lat="54.4408683" lon="-2.1765933"><ele>430.0</ele><time>2026-05-03T10:41:54.787Z</time></trkpt><trkpt lat="54.4407367" lon="-2.1766467"><ele>429.0</ele><time>2026-05-03T10:41:55.783Z</time></trkpt><trkpt lat="54.4406133" lon="-2.176695"><ele>428.0</ele><time>2026-05-03T10:41:56.783Z</time></trkpt><trkpt lat="54.4405033" lon="-2.1767533"><ele>427.0</ele><time>2026-05-03T10:41:57.783Z</time></trkpt><trkpt lat="54.4403883" lon="-2.1768167"><ele>426.0</ele><time>2026-05-03T10:41:58.787Z</time></trkpt><trkpt lat="54.4402717" lon="-2.17688"><ele>426.0</ele><time>2026-05-03T10:41:59.783Z</time></trkpt><trkpt lat="54.440145" lon="-2.1769333"><ele>426.0</ele><time>2026-05-03T10:42:00.783Z</time></trkpt><trkpt lat="54.4400083" lon="-2.17698"><ele>426.0</ele><time>2026-05-03T10:42:01.783Z</time></trkpt><trkpt lat="54.4398567" lon="-2.17703"><ele>426.0</ele><time>2026-05-03T10:42:02.786Z</time></trkpt><trkpt lat="54.4397033" lon="-2.1771017"><ele>426.33333333333337</ele><time>2026-05-03T10:42:03.782Z</time></trkpt><trkpt lat="54.4395533" lon="-2.17718"><ele>426.6666666666667</ele><time>2026-05-03T10:42:04.786Z</time></trkpt><trkpt lat="54.4394033" lon="-2.1772517"><ele>427.0</ele><time>2026-05-03T10:42:05.783Z</time></trkpt><trkpt lat="54.439255" lon="-2.1773117"><ele>425.5</ele><time>2026-05-03T10:42:06.783Z</time></trkpt><trkpt lat="54.4391033" lon="-2.1773567"><ele>424.0</ele><time>2026-05-03T10:42:07.783Z</time></trkpt><trkpt lat="54.438955" lon="-2.1773883"><ele>422.5</ele><time>2026-05-03T10:42:08.783Z</time></trkpt><trkpt lat="54.43881" lon="-2.1774067"><ele>421.0</ele><time>2026-05-03T10:42:09.782Z</time></trkpt><trkpt lat="54.43866" lon="-2.1774267"><ele>420.6666666666667</ele><time>2026-05-03T10:42:10.782Z</time></trkpt><trkpt lat="54.4385" lon="-2.177475"><ele>420.33333333333337</ele><time>2026-05-03T10:42:11.787Z</time></trkpt><trkpt lat="54.4383333" lon="-2.1775283"><ele>420.0</ele><time>2026-05-03T10:42:12.783Z</time></trkpt><trkpt lat="54.4381617" lon="-2.1775683"><ele>420.0</ele><time>2026-05-03T10:42:13.785Z</time></trkpt><trkpt lat="54.4379833" lon="-2.1775883"><ele>420.0</ele><time>2026-05-03T10:42:14.782Z</time></trkpt><trkpt lat="54.437815" lon="-2.17762"><ele>420.0</ele><time>2026-05-03T10:42:15.783Z</time></trkpt><trkpt lat="54.4376467" lon="-2.177655"><ele>419.33333333333337</ele><time>2026-05-03T10:42:16.783Z</time></trkpt><trkpt lat="54.437485" lon="-2.1777067"><ele>418.6666666666667</ele><time>2026-05-03T10:42:17.785Z</time></trkpt><trkpt lat="54.4373267" lon="-2.1777617"><ele>418.0</ele><time>2026-05-03T10:42:18.783Z</time></trkpt><trkpt lat="54.4371633" lon="-2.1778267"><ele>417.6666666666667</ele><time>2026-05-03T10:42:19.783Z</time></trkpt><trkpt lat="54.437" lon="-2.17792"><ele>417.33333333333337</ele><time>2026-05-03T10:42:20.787Z</time></trkpt><trkpt lat="54.4368383" lon="-2.1780317"><ele>417.0</ele><time>2026-05-03T10:42:21.783Z</time></trkpt><trkpt lat="54.4366833" lon="-2.1781667"><ele>416.0</ele><time>2026-05-03T10:42:22.786Z</time></trkpt><trkpt lat="54.43653" lon="-2.1783333"><ele>415.0</ele><time>2026-05-03T10:42:23.786Z</time></trkpt><trkpt lat="54.436385" lon="-2.178505"><ele>414.0</ele><time>2026-05-03T10:42:24.786Z</time></trkpt><trkpt lat="54.4362517" lon="-2.1786733"><ele>414.0</ele><time>2026-05-03T10:42:25.783Z</time></trkpt><trkpt lat="54.43612" lon="-2.1788217"><ele>414.0</ele><time>2026-05-03T10:42:26.783Z</time></trkpt><trkpt lat="54.4359867" lon="-2.1789367"><ele>414.0</ele><time>2026-05-03T10:42:27.782Z</time></trkpt><trkpt lat="54.4358617" lon="-2.1790283"><ele>414.0</ele><time>2026-05-03T10:42:28.784Z</time></trkpt><trkpt lat="54.4357383" lon="-2.1791067"><ele>413.5</ele><time>2026-05-03T10:42:29.783Z</time></trkpt><trkpt lat="54.435615" lon="-2.1791833"><ele>413.0</ele><time>2026-05-03T10:42:30.782Z</time></trkpt><trkpt lat="54.43549" lon="-2.1792767"><ele>412.5</ele><time>2026-05-03T10:42:31.783Z</time></trkpt><trkpt lat="54.4353783" lon="-2.1793817"><ele>412.0</ele><time>2026-05-03T10:42:32.787Z</time></trkpt><trkpt lat="54.4352733" lon="-2.1794833"><ele>411.5</ele><time>2026-05-03T10:42:33.783Z</time></trkpt><trkpt lat="54.4351733" lon="-2.17958"><ele>411.0</ele><time>2026-05-03T10:42:34.783Z</time></trkpt><trkpt lat="54.435065" lon="-2.1796683"><ele>410.5</ele><time>2026-05-03T10:42:35.787Z</time></trkpt><trkpt lat="54.4349533" lon="-2.17974"><ele>410.0</ele><time>2026-05-03T10:42:36.783Z</time></trkpt><trkpt lat="54.43484" lon="-2.17978"><ele>410.0</ele><time>2026-05-03T10:42:37.783Z</time></trkpt><trkpt lat="54.434715" lon="-2.1797817"><ele>410.0</ele><time>2026-05-03T10:42:38.783Z</time></trkpt><trkpt lat="54.4345783" lon="-2.1797417"><ele>410.0</ele><time>2026-05-03T10:42:39.783Z</time></trkpt><trkpt lat="54.43443" lon="-2.1796783"><ele>410.0</ele><time>2026-05-03T10:42:40.787Z</time></trkpt><trkpt lat="54.4342867" lon="-2.17961"><ele>409.5</ele><time>2026-05-03T10:42:41.786Z</time></trkpt><trkpt lat="54.4341517" lon="-2.1795483"><ele>409.0</ele><time>2026-05-03T10:42:42.786Z</time></trkpt><trkpt lat="54.4340283" lon="-2.1795083"><ele>408.5</ele><time>2026-05-03T10:42:43.786Z</time></trkpt><trkpt lat="54.4339033" lon="-2.1794983"><ele>408.0</ele><time>2026-05-03T10:42:44.787Z</time></trkpt><trkpt lat="54.4337683" lon="-2.179525"><ele>407.75</ele><time>2026-05-03T10:42:45.783Z</time></trkpt><trkpt lat="54.4336283" lon="-2.179585"><ele>407.5</ele><time>2026-05-03T10:42:46.787Z</time></trkpt><trkpt lat="54.4335017" lon="-2.1796783"><ele>407.25</ele><time>2026-05-03T10:42:47.788Z</time></trkpt><trkpt lat="54.4333867" lon="-2.1798017"><ele>407.0</ele><time>2026-05-03T10:42:48.787Z</time></trkpt><trkpt lat="54.4332833" lon="-2.1799483"><ele>407.0</ele><time>2026-05-03T10:42:49.786Z</time></trkpt><trkpt lat="54.4331817" lon="-2.1801133"><ele>407.0</ele><time>2026-05-03T10:42:50.787Z</time></trkpt><trkpt lat="54.4330817" lon="-2.180255"><ele>407.0</ele><time>2026-05-03T10:42:51.787Z</time></trkpt><trkpt lat="54.4329683" lon="-2.180375"><ele>407.0</ele><time>2026-05-03T10:42:52.782Z</time></trkpt><trkpt lat="54.4328417" lon="-2.1804817"><ele>408.0</ele><time>2026-05-03T10:42:53.784Z</time></trkpt><trkpt lat="54.4327067" lon="-2.180565"><ele>409.0</ele><time>2026-05-03T10:42:54.786Z</time></trkpt><trkpt lat="54.4325667" lon="-2.1806283"><ele>410.0</ele><time>2026-05-03T10:42:55.784Z</time></trkpt><trkpt lat="54.432425" lon="-2.1806933"><ele>411.0</ele><time>2026-05-03T10:42:56.783Z</time></trkpt><trkpt lat="54.43228" lon="-2.1807633"><ele>413.66666666666663</ele><time>2026-05-03T10:42:57.783Z</time></trkpt><trkpt lat="54.4321267" lon="-2.18084"><ele>416.3333333333333</ele><time>2026-05-03T10:42:58.782Z</time></trkpt><trkpt lat="54.4319683" lon="-2.18092"><ele>419.0</ele><time>2026-05-03T10:42:59.784Z</time></trkpt><trkpt lat="54.4318033" lon="-2.1810017"><ele>419.0</ele><time>2026-05-03T10:43:00.783Z</time></trkpt><trkpt lat="54.4316417" lon="-2.1810617"><ele>419.0</ele><time>2026-05-03T10:43:01.782Z</time></trkpt><trkpt lat="54.431485" lon="-2.1810867"><ele>419.0</ele><time>2026-05-03T10:43:02.783Z</time></trkpt><trkpt lat="54.431325" lon="-2.1810783"><ele>420.3333333333333</ele><time>2026-05-03T10:43:03.783Z</time></trkpt><trkpt lat="54.4311567" lon="-2.18104"><ele>421.66666666666663</ele><time>2026-05-03T10:43:04.782Z</time></trkpt><trkpt lat="54.4309883" lon="-2.1809817"><ele>423.0</ele><time>2026-05-03T10:43:05.785Z</time></trkpt><trkpt lat="54.4308117" lon="-2.1809117"><ele>423.0</ele><time>2026-05-03T10:43:06.786Z</time></trkpt><trkpt lat="54.4306267" lon="-2.1808417"><ele>423.0</ele><time>2026-05-03T10:43:07.785Z</time></trkpt><trkpt lat="54.43044" lon="-2.1807733"><ele>423.0</ele><time>2026-05-03T10:43:08.786Z</time></trkpt><trkpt lat="54.430245" lon="-2.1807033"><ele>422.33333333333337</ele><time>2026-05-03T10:43:09.786Z</time></trkpt><trkpt lat="54.43005" lon="-2.1806283"><ele>421.6666666666667</ele><time>2026-05-03T10:43:10.786Z</time></trkpt><trkpt lat="54.4298567" lon="-2.1805517"><ele>421.0</ele><time>2026-05-03T10:43:11.785Z</time></trkpt><trkpt lat="54.4296617" lon="-2.1804667"><ele>421.0</ele><time>2026-05-03T10:43:12.783Z</time></trkpt><trkpt lat="54.4294767" lon="-2.1803783"><ele>421.0</ele><time>2026-05-03T10:43:13.782Z</time></trkpt><trkpt lat="54.4293" lon="-2.180295"><ele>421.0</ele><time>2026-05-03T10:43:14.786Z</time></trkpt><trkpt lat="54.429125" lon="-2.1802183"><ele>421.0</ele><time>2026-05-03T10:43:15.787Z</time></trkpt><trkpt lat="54.4289433" lon="-2.1801467"><ele>421.0</ele><time>2026-05-03T10:43:16.787Z</time></trkpt><trkpt lat="54.4287517" lon="-2.18007"><ele>421.0</ele><time>2026-05-03T10:43:17.784Z</time></trkpt><trkpt lat="54.42855" lon="-2.1799867"><ele>421.33333333333337</ele><time>2026-05-03T10:43:18.786Z</time></trkpt><trkpt lat="54.4283483" lon="-2.1798967"><ele>421.66666666666663</ele><time>2026-05-03T10:43:19.783Z</time></trkpt><trkpt lat="54.4281517" lon="-2.1798"><ele>422.0</ele><time>2026-05-03T10:43:20.783Z</time></trkpt><trkpt lat="54.4279633" lon="-2.1797083"><ele>419.66666666666663</ele><time>2026-05-03T10:43:21.786Z</time></trkpt><trkpt lat="54.4277867" lon="-2.1796233"><ele>417.33333333333337</ele><time>2026-05-03T10:43:22.785Z</time></trkpt><trkpt lat="54.4276233" lon="-2.179555"><ele>415.0</ele><time>2026-05-03T10:43:23.787Z</time></trkpt><trkpt lat="54.4274567" lon="-2.1794883"><ele>415.0</ele><time>2026-05-03T10:43:24.783Z</time></trkpt><trkpt lat="54.42728" lon="-2.17941"><ele>415.0</ele><time>2026-05-03T10:43:25.782Z</time></trkpt><trkpt lat="54.4271067" lon="-2.1793183"><ele>415.0</ele><time>2026-05-03T10:43:26.787Z</time></trkpt><trkpt lat="54.4269417" lon="-2.1792183"><ele>415.0</ele><time>2026-05-03T10:43:27.786Z</time></trkpt><trkpt lat="54.4267917" lon="-2.1791067"><ele>415.0</ele><time>2026-05-03T10:43:28.786Z</time></trkpt><trkpt lat="54.4266417" lon="-2.179005"><ele>415.0</ele><time>2026-05-03T10:43:29.787Z</time></trkpt><trkpt lat="54.4264783" lon="-2.1789033"><ele>414.0</ele><time>2026-05-03T10:43:30.787Z</time></trkpt><trkpt lat="54.4263" lon="-2.1787917"><ele>413.0</ele><time>2026-05-03T10:43:31.787Z</time></trkpt><trkpt lat="54.42612" lon="-2.1786717"><ele>412.0</ele><time>2026-05-03T10:43:32.784Z</time></trkpt><trkpt lat="54.425935" lon="-2.1785383"><ele>412.0</ele><time>2026-05-03T10:43:33.787Z</time></trkpt><trkpt lat="54.425745" lon="-2.1783983"><ele>412.0</ele><time>2026-05-03T10:43:34.787Z</time></trkpt><trkpt lat="54.4255567" lon="-2.178265"><ele>412.0</ele><time>2026-05-03T10:43:35.787Z</time></trkpt><trkpt lat="54.4253833" lon="-2.1781333"><ele>411.6666666666667</ele><time>2026-05-03T10:43:36.786Z</time></trkpt><trkpt lat="54.4252383" lon="-2.1780067"><ele>411.33333333333337</ele><time>2026-05-03T10:43:37.783Z</time></trkpt><trkpt lat="54.425105" lon="-2.1778633"><ele>411.0</ele><time>2026-05-03T10:43:38.788Z</time></trkpt><trkpt lat="54.424975" lon="-2.1777133"><ele>411.0</ele><time>2026-05-03T10:43:39.785Z</time></trkpt><trkpt lat="54.4248433" lon="-2.1775617"><ele>411.0</ele><time>2026-05-03T10:43:40.782Z</time></trkpt><trkpt lat="54.42472" lon="-2.1774233"><ele>411.0</ele><time>2026-05-03T10:43:41.785Z</time></trkpt><trkpt lat="54.424605" lon="-2.1773017"><ele>411.0</ele><time>2026-05-03T10:43:42.785Z</time></trkpt><trkpt lat="54.4244983" lon="-2.1772117"><ele>409.75</ele><time>2026-05-03T10:43:43.786Z</time></trkpt><trkpt lat="54.4243783" lon="-2.1771633"><ele>408.5</ele><time>2026-05-03T10:43:44.786Z</time></trkpt><trkpt lat="54.42425" lon="-2.17716"><ele>407.25</ele><time>2026-05-03T10:43:45.782Z</time></trkpt><trkpt lat="54.4241067" lon="-2.1771783"><ele>406.0</ele><time>2026-05-03T10:43:46.786Z</time></trkpt><trkpt lat="54.423955" lon="-2.1772017"><ele>408.0</ele><time>2026-05-03T10:43:47.783Z</time></trkpt><trkpt lat="54.4237917" lon="-2.1772283"><ele>410.0</ele><time>2026-05-03T10:43:48.782Z</time></trkpt><trkpt lat="54.4236183" lon="-2.177255"><ele>412.0</ele><time>2026-05-03T10:43:49.783Z</time></trkpt><trkpt lat="54.4234533" lon="-2.17728"><ele>412.0</ele><time>2026-05-03T10:43:50.785Z</time></trkpt><trkpt lat="54.4233017" lon="-2.1773067"><ele>412.0</ele><time>2026-05-03T10:43:51.784Z</time></trkpt><trkpt lat="54.4231683" lon="-2.177345"><ele>412.0</ele><time>2026-05-03T10:43:52.787Z</time></trkpt><trkpt lat="54.4230617" lon="-2.1773917"><ele>412.0</ele><time>2026-05-03T10:43:53.787Z</time></trkpt><trkpt lat="54.4229717" lon="-2.177445"><ele>412.1666666666667</ele><time>2026-05-03T10:43:54.788Z</time></trkpt><trkpt lat="54.422885" lon="-2.1774833"><ele>412.33333333333337</ele><time>2026-05-03T10:43:55.788Z</time></trkpt><trkpt lat="54.4228" lon="-2.177505"><ele>412.5</ele><time>2026-05-03T10:43:56.783Z</time></trkpt><trkpt lat="54.42272" lon="-2.1774883"><ele>412.66666666666663</ele><time>2026-05-03T10:43:57.783Z</time></trkpt><trkpt lat="54.4226567" lon="-2.1774367"><ele>412.8333333333333</ele><time>2026-05-03T10:43:58.783Z</time></trkpt><trkpt lat="54.42261" lon="-2.1773283"><ele>413.0</ele><time>2026-05-03T10:43:59.783Z</time></trkpt><trkpt lat="54.4225617" lon="-2.1771533"><ele>413.0</ele><time>2026-05-03T10:44:00.786Z</time></trkpt><trkpt lat="54.4224933" lon="-2.1769267"><ele>413.0</ele><time>2026-05-03T10:44:01.787Z</time></trkpt><trkpt lat="54.4224083" lon="-2.1767217"><ele>413.0</ele><time>2026-05-03T10:44:02.785Z</time></trkpt><trkpt lat="54.4223083" lon="-2.176525"><ele>413.0</ele><time>2026-05-03T10:44:03.786Z</time></trkpt><trkpt lat="54.4222" lon="-2.176355"><ele>410.5</ele><time>2026-05-03T10:44:04.783Z</time></trkpt><trkpt lat="54.4220817" lon="-2.1762117"><ele>408.0</ele><time>2026-05-03T10:44:05.782Z</time></trkpt><trkpt lat="54.4219533" lon="-2.1760817"><ele>405.5</ele><time>2026-05-03T10:44:06.787Z</time></trkpt><trkpt lat="54.42182" lon="-2.1759633"><ele>403.0</ele><time>2026-05-03T10:44:07.786Z</time></trkpt><trkpt lat="54.421695" lon="-2.17586"><ele>403.0</ele><time>2026-05-03T10:44:08.785Z</time></trkpt><trkpt lat="54.4215617" lon="-2.175765"><ele>403.0</ele><time>2026-05-03T10:44:09.787Z</time></trkpt><trkpt lat="54.4214317" lon="-2.17568"><ele>403.0</ele><time>2026-05-03T10:44:10.786Z</time></trkpt><trkpt lat="54.4212983" lon="-2.1756"><ele>403.0</ele><time>2026-05-03T10:44:11.787Z</time></trkpt><trkpt lat="54.4211683" lon="-2.175535"><ele>398.0</ele><time>2026-05-03T10:44:12.786Z</time></trkpt><trkpt lat="54.42103" lon="-2.17548"><ele>393.0</ele><time>2026-05-03T10:44:13.79Z</time></trkpt><trkpt lat="54.4208917" lon="-2.1754417"><ele>388.0</ele><time>2026-05-03T10:44:14.788Z</time></trkpt><trkpt lat="54.420755" lon="-2.175415"><ele>383.0</ele><time>2026-05-03T10:44:15.786Z</time></trkpt><trkpt lat="54.4206083" lon="-2.1754117"><ele>382.33333333333337</ele><time>2026-05-03T10:44:16.788Z</time></trkpt><trkpt lat="54.420455" lon="-2.1754283"><ele>381.6666666666667</ele><time>2026-05-03T10:44:17.784Z</time></trkpt><trkpt lat="54.4202967" lon="-2.1754317"><ele>381.0</ele><time>2026-05-03T10:44:18.783Z</time></trkpt><trkpt lat="54.4201417" lon="-2.1754267"><ele>381.0</ele><time>2026-05-03T10:44:19.788Z</time></trkpt><trkpt lat="54.4199933" lon="-2.175415"><ele>381.0</ele><time>2026-05-03T10:44:20.787Z</time></trkpt><trkpt lat="54.4198533" lon="-2.1754"><ele>381.0</ele><time>2026-05-03T10:44:21.784Z</time></trkpt><trkpt lat="54.41971" lon="-2.1753667"><ele>381.0</ele><time>2026-05-03T10:44:22.783Z</time></trkpt><trkpt lat="54.419565" lon="-2.175315"><ele>381.25</ele><time>2026-05-03T10:44:23.787Z</time></trkpt><trkpt lat="54.419435" lon="-2.1752517"><ele>381.5</ele><time>2026-05-03T10:44:24.788Z</time></trkpt><trkpt lat="54.41932" lon="-2.1751717"><ele>381.75</ele><time>2026-05-03T10:44:25.786Z</time></trkpt><trkpt lat="54.4192083" lon="-2.1750767"><ele>382.0</ele><time>2026-05-03T10:44:26.787Z</time></trkpt><trkpt lat="54.4190917" lon="-2.1749967"><ele>382.0</ele><time>2026-05-03T10:44:27.787Z</time></trkpt><trkpt lat="54.4189567" lon="-2.174955"><ele>382.0</ele><time>2026-05-03T10:44:28.788Z</time></trkpt><trkpt lat="54.4188083" lon="-2.1749367"><ele>382.0</ele><time>2026-05-03T10:44:29.787Z</time></trkpt><trkpt lat="54.4186467" lon="-2.174935"><ele>382.0</ele><time>2026-05-03T10:44:30.788Z</time></trkpt><trkpt lat="54.41848" lon="-2.1749283"><ele>381.3333333333333</ele><time>2026-05-03T10:44:31.787Z</time></trkpt><trkpt lat="54.4183133" lon="-2.1749183"><ele>380.6666666666667</ele><time>2026-05-03T10:44:32.783Z</time></trkpt><trkpt lat="54.41815" lon="-2.1749167"><ele>380.0</ele><time>2026-05-03T10:44:33.783Z</time></trkpt><trkpt lat="54.41799" lon="-2.17492"><ele>380.0</ele><time>2026-05-03T10:44:34.783Z</time></trkpt><trkpt lat="54.4178217" lon="-2.1749333"><ele>380.0</ele><time>2026-05-03T10:44:35.785Z</time></trkpt><trkpt lat="54.4176367" lon="-2.17496"><ele>380.0</ele><time>2026-05-03T10:44:36.788Z</time></trkpt><trkpt lat="54.41745" lon="-2.17499"><ele>380.0</ele><time>2026-05-03T10:44:37.784Z</time></trkpt><trkpt lat="54.4172667" lon="-2.17502"><ele>380.0</ele><time>2026-05-03T10:44:38.783Z</time></trkpt><trkpt lat="54.41709" lon="-2.1750517"><ele>380.0</ele><time>2026-05-03T10:44:39.784Z</time></trkpt><trkpt lat="54.4169217" lon="-2.1750883"><ele>378.0</ele><time>2026-05-03T10:44:40.784Z</time></trkpt><trkpt lat="54.4167667" lon="-2.17513"><ele>376.0</ele><time>2026-05-03T10:44:41.786Z</time></trkpt><trkpt lat="54.41662" lon="-2.175175"><ele>374.0</ele><time>2026-05-03T10:44:42.785Z</time></trkpt><trkpt lat="54.4164733" lon="-2.1752117"><ele>372.25</ele><time>2026-05-03T10:44:43.785Z</time></trkpt><trkpt lat="54.4163167" lon="-2.1752433"><ele>370.5</ele><time>2026-05-03T10:44:44.786Z</time></trkpt><trkpt lat="54.4161733" lon="-2.1752617"><ele>368.75</ele><time>2026-05-03T10:44:45.786Z</time></trkpt><trkpt lat="54.41605" lon="-2.1752683"><ele>367.0</ele><time>2026-05-03T10:44:46.785Z</time></trkpt><trkpt lat="54.4159483" lon="-2.175275"><ele>367.0</ele><time>2026-05-03T10:44:47.785Z</time></trkpt><trkpt lat="54.415855" lon="-2.1752783"><ele>367.0</ele><time>2026-05-03T10:44:48.786Z</time></trkpt><trkpt lat="54.4157617" lon="-2.1752783"><ele>367.0</ele><time>2026-05-03T10:44:49.787Z</time></trkpt><trkpt lat="54.4156733" lon="-2.1752717"><ele>367.0</ele><time>2026-05-03T10:44:50.788Z</time></trkpt><trkpt lat="54.415585" lon="-2.175255"><ele>367.0</ele><time>2026-05-03T10:44:51.784Z</time></trkpt><trkpt lat="54.4154933" lon="-2.1752317"><ele>366.20000000000005</ele><time>2026-05-03T10:44:52.788Z</time></trkpt><trkpt lat="54.4154017" lon="-2.1751967"><ele>365.4</ele><time>2026-05-03T10:44:53.787Z</time></trkpt><trkpt lat="54.415305" lon="-2.1751567"><ele>364.6</ele><time>2026-05-03T10:44:54.788Z</time></trkpt><trkpt lat="54.4152067" lon="-2.1751267"><ele>363.79999999999995</ele><time>2026-05-03T10:44:55.787Z</time></trkpt><trkpt lat="54.4151083" lon="-2.1751133"><ele>363.0</ele><time>2026-05-03T10:44:56.788Z</time></trkpt><trkpt lat="54.4150133" lon="-2.175105"><ele>362.99999999999994</ele><time>2026-05-03T10:44:57.784Z</time></trkpt><trkpt lat="54.414925" lon="-2.1750967"><ele>363.0</ele><time>2026-05-03T10:44:58.783Z</time></trkpt><trkpt lat="54.4148467" lon="-2.17509"><ele>363.0</ele><time>2026-05-03T10:44:59.785Z</time></trkpt><trkpt lat="54.414775" lon="-2.1750767"><ele>363.0</ele><time>2026-05-03T10:45:00.788Z</time></trkpt><trkpt lat="54.41471" lon="-2.1750367"><ele>363.0</ele><time>2026-05-03T10:45:01.787Z</time></trkpt><trkpt lat="54.4146483" lon="-2.174975"><ele>362.99999999999994</ele><time>2026-05-03T10:45:02.787Z</time></trkpt><trkpt lat="54.4145933" lon="-2.17491"><ele>363.0</ele><time>2026-05-03T10:45:03.785Z</time></trkpt><trkpt lat="54.4144767" lon="-2.1748217"><ele>361.3333333333333</ele><time>2026-05-03T10:45:05.789Z</time></trkpt><trkpt lat="54.41441" lon="-2.1747933"><ele>359.6666666666667</ele><time>2026-05-03T10:45:06.788Z</time></trkpt><trkpt lat="54.4143367" lon="-2.1747783"><ele>358.0</ele><time>2026-05-03T10:45:07.784Z</time></trkpt><trkpt lat="54.4142517" lon="-2.174765"><ele>356.33333333333337</ele><time>2026-05-03T10:45:08.783Z</time></trkpt><trkpt lat="54.4141617" lon="-2.1747333"><ele>354.6666666666667</ele><time>2026-05-03T10:45:09.784Z</time></trkpt><trkpt lat="54.41407" lon="-2.1747"><ele>353.0</ele><time>2026-05-03T10:45:10.788Z</time></trkpt><trkpt lat="54.413975" lon="-2.1746717"><ele>353.0</ele><time>2026-05-03T10:45:11.785Z</time></trkpt><trkpt lat="54.4138733" lon="-2.1746717"><ele>353.0</ele><time>2026-05-03T10:45:12.785Z</time></trkpt><trkpt lat="54.4137617" lon="-2.174695"><ele>353.0</ele><time>2026-05-03T10:45:13.786Z</time></trkpt><trkpt lat="54.413635" lon="-2.1747483"><ele>353.0</ele><time>2026-05-03T10:45:14.787Z</time></trkpt><trkpt lat="54.4135033" lon="-2.17484"><ele>354.6666666666667</ele><time>2026-05-03T10:45:15.784Z</time></trkpt><trkpt lat="54.4133633" lon="-2.174945"><ele>356.3333333333333</ele><time>2026-05-03T10:45:16.788Z</time></trkpt><trkpt lat="54.4132217" lon="-2.175065"><ele>358.0</ele><time>2026-05-03T10:45:17.783Z</time></trkpt><trkpt lat="54.4130667" lon="-2.1751883"><ele>355.3333333333333</ele><time>2026-05-03T10:45:18.784Z</time></trkpt><trkpt lat="54.4129017" lon="-2.1753233"><ele>352.6666666666667</ele><time>2026-05-03T10:45:19.784Z</time></trkpt><trkpt lat="54.4127333" lon="-2.17546"><ele>350.0</ele><time>2026-05-03T10:45:20.785Z</time></trkpt><trkpt lat="54.41256" lon="-2.1756"><ele>351.6666666666667</ele><time>2026-05-03T10:45:21.784Z</time></trkpt><trkpt lat="54.412405" lon="-2.1757317"><ele>353.3333333333333</ele><time>2026-05-03T10:45:22.787Z</time></trkpt><trkpt lat="54.4122633" lon="-2.1758483"><ele>355.0</ele><time>2026-05-03T10:45:23.784Z</time></trkpt><trkpt lat="54.4121283" lon="-2.1759483"><ele>355.0</ele><time>2026-05-03T10:45:24.785Z</time></trkpt><trkpt lat="54.411995" lon="-2.1760367"><ele>355.0</ele><time>2026-05-03T10:45:25.785Z</time></trkpt><trkpt lat="54.4118517" lon="-2.176125"><ele>355.0</ele><time>2026-05-03T10:45:26.785Z</time></trkpt><trkpt lat="54.41171" lon="-2.1762083"><ele>355.0</ele><time>2026-05-03T10:45:27.785Z</time></trkpt><trkpt lat="54.4115783" lon="-2.1762933"><ele>355.0</ele><time>2026-05-03T10:45:28.785Z</time></trkpt><trkpt lat="54.4114417" lon="-2.1763717"><ele>355.0</ele><time>2026-05-03T10:45:29.785Z</time></trkpt><trkpt lat="54.4113117" lon="-2.1764417"><ele>355.0</ele><time>2026-05-03T10:45:30.785Z</time></trkpt><trkpt lat="54.411175" lon="-2.1764983"><ele>355.0</ele><time>2026-05-03T10:45:31.789Z</time></trkpt><trkpt lat="54.4110433" lon="-2.1765533"><ele>354.75</ele><time>2026-05-03T10:45:32.785Z</time></trkpt><trkpt lat="54.41092" lon="-2.1765967"><ele>354.5</ele><time>2026-05-03T10:45:33.785Z</time></trkpt><trkpt lat="54.4108" lon="-2.17663"><ele>354.25</ele><time>2026-05-03T10:45:34.785Z</time></trkpt><trkpt lat="54.4106783" lon="-2.176655"><ele>354.0</ele><time>2026-05-03T10:45:35.786Z</time></trkpt><trkpt lat="54.4105617" lon="-2.1766833"><ele>351.75</ele><time>2026-05-03T10:45:36.785Z</time></trkpt><trkpt lat="54.4104517" lon="-2.1767283"><ele>349.5</ele><time>2026-05-03T10:45:37.787Z</time></trkpt><trkpt lat="54.4103417" lon="-2.176795"><ele>347.25</ele><time>2026-05-03T10:45:38.787Z</time></trkpt><trkpt lat="54.4102317" lon="-2.176875"><ele>345.0</ele><time>2026-05-03T10:45:39.786Z</time></trkpt><trkpt lat="54.4101233" lon="-2.17696"><ele>345.0</ele><time>2026-05-03T10:45:40.784Z</time></trkpt><trkpt lat="54.4100283" lon="-2.1770333"><ele>345.0</ele><time>2026-05-03T10:45:41.784Z</time></trkpt><trkpt lat="54.409945" lon="-2.1770883"><ele>345.0</ele><time>2026-05-03T10:45:42.784Z</time></trkpt><trkpt lat="54.4098733" lon="-2.1771133"><ele>345.0</ele><time>2026-05-03T10:45:43.783Z</time></trkpt><trkpt lat="54.409805" lon="-2.1771217"><ele>345.0</ele><time>2026-05-03T10:45:44.785Z</time></trkpt><trkpt lat="54.4097417" lon="-2.1770933"><ele>345.0</ele><time>2026-05-03T10:45:45.788Z</time></trkpt><trkpt lat="54.409685" lon="-2.177035"><ele>342.2857142857143</ele><time>2026-05-03T10:45:46.784Z</time></trkpt><trkpt lat="54.4096367" lon="-2.17696"><ele>339.57142857142856</ele><time>2026-05-03T10:45:47.786Z</time></trkpt><trkpt lat="54.4096" lon="-2.17687"><ele>336.8571428571429</ele><time>2026-05-03T10:45:48.786Z</time></trkpt><trkpt lat="54.40955" lon="-2.1767183"><ele>334.1428571428571</ele><time>2026-05-03T10:45:50.788Z</time></trkpt><trkpt lat="54.4094867" lon="-2.1766817"><ele>331.4285714285714</ele><time>2026-05-03T10:45:52.785Z</time></trkpt><trkpt lat="54.4094383" lon="-2.17676"><ele>328.7142857142857</ele><time>2026-05-03T10:45:54.785Z</time></trkpt><trkpt lat="54.4094233" lon="-2.1768667"><ele>326.0</ele><time>2026-05-03T10:45:55.788Z</time></trkpt><trkpt lat="54.4094033" lon="-2.1769983"><ele>326.0</ele><time>2026-05-03T10:45:56.782Z</time></trkpt><trkpt lat="54.4093817" lon="-2.17714"><ele>326.0</ele><time>2026-05-03T10:45:57.787Z</time></trkpt><trkpt lat="54.4093583" lon="-2.1772783"><ele>326.0</ele><time>2026-05-03T10:45:58.787Z</time></trkpt><trkpt lat="54.4093533" lon="-2.1774067"><ele>326.0</ele><time>2026-05-03T10:45:59.786Z</time></trkpt><trkpt lat="54.4093617" lon="-2.1775917"><ele>326.0</ele><time>2026-05-03T10:46:01.786Z</time></trkpt><trkpt lat="54.4092983" lon="-2.1776783"><ele>326.0</ele><time>2026-05-03T10:46:04.787Z</time></trkpt><trkpt lat="54.409255" lon="-2.1775683"><ele>326.0</ele><time>2026-05-03T10:46:06.785Z</time></trkpt><trkpt lat="54.4092533" lon="-2.1773917"><ele>326.0</ele><time>2026-05-03T10:46:08.785Z</time></trkpt><trkpt lat="54.409215" lon="-2.1772583"><ele>326.0</ele><time>2026-05-03T10:46:10.786Z</time></trkpt><trkpt lat="54.409105" lon="-2.1772083"><ele>326.0</ele><time>2026-05-03T10:46:12.787Z</time></trkpt><trkpt lat="54.4090217" lon="-2.1772167"><ele>326.0</ele><time>2026-05-03T10:46:13.784Z</time></trkpt><trkpt lat="54.4089267" lon="-2.1772367"><ele>326.0</ele><time>2026-05-03T10:46:14.786Z</time></trkpt><trkpt lat="54.4088317" lon="-2.1772533"><ele>326.0</ele><time>2026-05-03T10:46:15.784Z</time></trkpt><trkpt lat="54.40873" lon="-2.1772667"><ele>326.0</ele><time>2026-05-03T10:46:16.784Z</time></trkpt><trkpt lat="54.4086517" lon="-2.1772733"><ele>326.0</ele><time>2026-05-03T10:46:17.784Z</time></trkpt><trkpt lat="54.4085817" lon="-2.1772683"><ele>326.0</ele><time>2026-05-03T10:46:18.783Z</time></trkpt><trkpt lat="54.40848" lon="-2.1772333"><ele>325.6</ele><time>2026-05-03T10:46:20.784Z</time></trkpt><trkpt lat="54.408375" lon="-2.1771483"><ele>325.20000000000005</ele><time>2026-05-03T10:52:28.785Z</time></trkpt><trkpt lat="54.4083383" lon="-2.177025"><ele>324.79999999999995</ele><time>2026-05-03T10:52:30.784Z</time></trkpt><trkpt lat="54.40831" lon="-2.1768"><ele>324.4</ele><time>2026-05-03T10:52:32.784Z</time></trkpt><trkpt lat="54.4083033" lon="-2.176625"><ele>324.0</ele><time>2026-05-03T10:52:33.783Z</time></trkpt><trkpt lat="54.4082917" lon="-2.1764467"><ele>324.0</ele><time>2026-05-03T10:52:34.783Z</time></trkpt><trkpt lat="54.4082767" lon="-2.176265"><ele>324.0</ele><time>2026-05-03T10:52:35.784Z</time></trkpt><trkpt lat="54.408255" lon="-2.1760883"><ele>324.0</ele><time>2026-05-03T10:52:36.784Z</time></trkpt><trkpt lat="54.4082333" lon="-2.1759067"><ele>324.0</ele><time>2026-05-03T10:52:37.783Z</time></trkpt><trkpt lat="54.4082083" lon="-2.17573"><ele>324.0</ele><time>2026-05-03T10:52:38.785Z</time></trkpt><trkpt lat="54.408175" lon="-2.1755617"><ele>323.4</ele><time>2026-05-03T10:52:39.783Z</time></trkpt><trkpt lat="54.4081367" lon="-2.1754017"><ele>322.79999999999995</ele><time>2026-05-03T10:52:40.784Z</time></trkpt><trkpt lat="54.4080917" lon="-2.1752467"><ele>322.20000000000005</ele><time>2026-05-03T10:52:41.783Z</time></trkpt><trkpt lat="54.4080367" lon="-2.1750983"><ele>321.6</ele><time>2026-05-03T10:52:42.784Z</time></trkpt><trkpt lat="54.4079667" lon="-2.174955"><ele>321.0</ele><time>2026-05-03T10:52:43.784Z</time></trkpt><trkpt lat="54.4078783" lon="-2.1748083"><ele>323.25</ele><time>2026-05-03T10:52:44.783Z</time></trkpt><trkpt lat="54.40777" lon="-2.1746583"><ele>325.5</ele><time>2026-05-03T10:52:45.783Z</time></trkpt><trkpt lat="54.40766" lon="-2.17452"><ele>327.75</ele><time>2026-05-03T10:52:46.784Z</time></trkpt><trkpt lat="54.40755" lon="-2.174385"><ele>330.0</ele><time>2026-05-03T10:52:47.785Z</time></trkpt><trkpt lat="54.4074517" lon="-2.1742483"><ele>330.0</ele><time>2026-05-03T10:52:48.784Z</time></trkpt><trkpt lat="54.40737" lon="-2.1740933"><ele>330.0</ele><time>2026-05-03T10:52:49.785Z</time></trkpt><trkpt lat="54.4073033" lon="-2.1739117"><ele>330.0</ele><time>2026-05-03T10:52:50.784Z</time></trkpt><trkpt lat="54.4072433" lon="-2.1736983"><ele>330.0</ele><time>2026-05-03T10:52:51.784Z</time></trkpt><trkpt lat="54.407185" lon="-2.1734533"><ele>334.3333333333333</ele><time>2026-05-03T10:52:52.785Z</time></trkpt><trkpt lat="54.407125" lon="-2.1731967"><ele>338.66666666666663</ele><time>2026-05-03T10:52:53.784Z</time></trkpt><trkpt lat="54.4070583" lon="-2.1729467"><ele>343.0</ele><time>2026-05-03T10:52:54.784Z</time></trkpt><trkpt lat="54.4069867" lon="-2.172695"><ele>343.0</ele><time>2026-05-03T10:52:55.784Z</time></trkpt><trkpt lat="54.4069133" lon="-2.17244"><ele>343.0</ele><time>2026-05-03T10:52:56.783Z</time></trkpt><trkpt lat="54.4068467" lon="-2.1722"><ele>343.0</ele><time>2026-05-03T10:52:57.784Z</time></trkpt><trkpt lat="54.406785" lon="-2.17198"><ele>342.2</ele><time>2026-05-03T10:52:58.788Z</time></trkpt><trkpt lat="54.4067317" lon="-2.1717767"><ele>341.4</ele><time>2026-05-03T10:52:59.787Z</time></trkpt><trkpt lat="54.406685" lon="-2.171595"><ele>340.59999999999997</ele><time>2026-05-03T10:53:00.787Z</time></trkpt><trkpt lat="54.4066417" lon="-2.1714433"><ele>339.79999999999995</ele><time>2026-05-03T10:53:01.788Z</time></trkpt><trkpt lat="54.40659" lon="-2.1713183"><ele>339.0</ele><time>2026-05-03T10:53:02.787Z</time></trkpt><trkpt lat="54.4065267" lon="-2.1712167"><ele>338.5</ele><time>2026-05-03T10:53:03.782Z</time></trkpt><trkpt lat="54.4064367" lon="-2.1711317"><ele>338.0</ele><time>2026-05-03T10:53:04.788Z</time></trkpt><trkpt lat="54.406325" lon="-2.17105"><ele>337.5</ele><time>2026-05-03T10:53:05.787Z</time></trkpt><trkpt lat="54.4062033" lon="-2.1709617"><ele>337.0</ele><time>2026-05-03T10:53:06.784Z</time></trkpt><trkpt lat="54.406075" lon="-2.17086"><ele>338.0</ele><time>2026-05-03T10:53:07.783Z</time></trkpt><trkpt lat="54.4059583" lon="-2.1707433"><ele>339.0</ele><time>2026-05-03T10:53:08.788Z</time></trkpt><trkpt lat="54.4058433" lon="-2.1706117"><ele>340.0</ele><time>2026-05-03T10:53:09.784Z</time></trkpt><trkpt lat="54.4057317" lon="-2.1704567"><ele>341.0</ele><time>2026-05-03T10:53:10.788Z</time></trkpt><trkpt lat="54.405615" lon="-2.1702817"><ele>340.33333333333337</ele><time>2026-05-03T10:53:11.788Z</time></trkpt><trkpt lat="54.4054933" lon="-2.1700967"><ele>339.6666666666667</ele><time>2026-05-03T10:53:12.788Z</time></trkpt><trkpt lat="54.405375" lon="-2.1699083"><ele>339.0</ele><time>2026-05-03T10:53:13.788Z</time></trkpt><trkpt lat="54.4052617" lon="-2.169725"><ele>339.0</ele><time>2026-05-03T10:53:14.786Z</time></trkpt><trkpt lat="54.405155" lon="-2.1695567"><ele>339.0</ele><time>2026-05-03T10:53:15.785Z</time></trkpt><trkpt lat="54.4050567" lon="-2.1694033"><ele>339.0</ele><time>2026-05-03T10:53:16.785Z</time></trkpt><trkpt lat="54.404955" lon="-2.1692567"><ele>339.0</ele><time>2026-05-03T10:53:17.788Z</time></trkpt><trkpt lat="54.40485" lon="-2.169105"><ele>338.5</ele><time>2026-05-03T10:53:18.786Z</time></trkpt><trkpt lat="54.40474" lon="-2.1689483"><ele>338.0</ele><time>2026-05-03T10:53:19.788Z</time></trkpt><trkpt lat="54.4046267" lon="-2.1687917"><ele>337.5</ele><time>2026-05-03T10:53:20.784Z</time></trkpt><trkpt lat="54.4045167" lon="-2.1686383"><ele>337.0</ele><time>2026-05-03T10:53:21.783Z</time></trkpt><trkpt lat="54.40441" lon="-2.1684917"><ele>337.0</ele><time>2026-05-03T10:53:22.784Z</time></trkpt><trkpt lat="54.4043117" lon="-2.168355"><ele>337.0</ele><time>2026-05-03T10:53:23.788Z</time></trkpt><trkpt lat="54.4042267" lon="-2.1682317"><ele>337.0</ele><time>2026-05-03T10:53:24.788Z</time></trkpt><trkpt lat="54.40415" lon="-2.16813"><ele>337.0</ele><time>2026-05-03T10:53:25.787Z</time></trkpt><trkpt lat="54.40408" lon="-2.1680233"><ele>337.0</ele><time>2026-05-03T10:53:26.788Z</time></trkpt><trkpt lat="54.4040117" lon="-2.1678983"><ele>337.5</ele><time>2026-05-03T10:53:27.783Z</time></trkpt><trkpt lat="54.4039367" lon="-2.16775"><ele>338.0</ele><time>2026-05-03T10:53:28.788Z</time></trkpt><trkpt lat="54.4038567" lon="-2.16759"><ele>338.5</ele><time>2026-05-03T10:53:29.786Z</time></trkpt><trkpt lat="54.4037733" lon="-2.1674217"><ele>339.0</ele><time>2026-05-03T10:53:30.787Z</time></trkpt><trkpt lat="54.403695" lon="-2.1672617"><ele>337.79999999999995</ele><time>2026-05-03T10:53:31.786Z</time></trkpt><trkpt lat="54.40362" lon="-2.167115"><ele>336.59999999999997</ele><time>2026-05-03T10:53:32.788Z</time></trkpt><trkpt lat="54.4035483" lon="-2.1669817"><ele>335.4</ele><time>2026-05-03T10:53:33.787Z</time></trkpt><trkpt lat="54.40348" lon="-2.16686"><ele>334.2</ele><time>2026-05-03T10:53:34.787Z</time></trkpt><trkpt lat="54.4034183" lon="-2.16675"><ele>333.0</ele><time>2026-05-03T10:53:35.786Z</time></trkpt><trkpt lat="54.4033567" lon="-2.1666583"><ele>333.0</ele><time>2026-05-03T10:53:36.788Z</time></trkpt><trkpt lat="54.403285" lon="-2.1665817"><ele>333.0</ele><time>2026-05-03T10:53:37.788Z</time></trkpt><trkpt lat="54.4032" lon="-2.16652"><ele>333.0</ele><time>2026-05-03T10:53:38.788Z</time></trkpt><trkpt lat="54.4030967" lon="-2.1664783"><ele>333.0</ele><time>2026-05-03T10:53:39.789Z</time></trkpt><trkpt lat="54.4029883" lon="-2.1664433"><ele>333.0</ele><time>2026-05-03T10:53:40.788Z</time></trkpt><trkpt lat="54.4028733" lon="-2.166415"><ele>330.5</ele><time>2026-05-03T10:53:41.784Z</time></trkpt><trkpt lat="54.402755" lon="-2.1663917"><ele>328.0</ele><time>2026-05-03T10:53:42.788Z</time></trkpt><trkpt lat="54.4026467" lon="-2.166385"><ele>325.5</ele><time>2026-05-03T10:53:43.788Z</time></trkpt><trkpt lat="54.4025383" lon="-2.166385"><ele>323.0</ele><time>2026-05-03T10:53:44.786Z</time></trkpt><trkpt lat="54.402425" lon="-2.1664017"><ele>323.0</ele><time>2026-05-03T10:53:45.788Z</time></trkpt><trkpt lat="54.40231" lon="-2.1664317"><ele>323.0</ele><time>2026-05-03T10:53:46.784Z</time></trkpt><trkpt lat="54.4022017" lon="-2.1664733"><ele>323.0</ele><time>2026-05-03T10:53:47.783Z</time></trkpt><trkpt lat="54.4021133" lon="-2.1665167"><ele>323.0</ele><time>2026-05-03T10:53:48.788Z</time></trkpt><trkpt lat="54.4020233" lon="-2.1665733"><ele>323.0</ele><time>2026-05-03T10:53:49.783Z</time></trkpt><trkpt lat="54.40193" lon="-2.1666533"><ele>322.79999999999995</ele><time>2026-05-03T10:53:50.785Z</time></trkpt><trkpt lat="54.4018317" lon="-2.166735"><ele>322.6</ele><time>2026-05-03T10:53:51.785Z</time></trkpt><trkpt lat="54.4017283" lon="-2.1668083"><ele>322.4</ele><time>2026-05-03T10:53:52.783Z</time></trkpt><trkpt lat="54.4016233" lon="-2.1668733"><ele>322.20000000000005</ele><time>2026-05-03T10:53:53.787Z</time></trkpt><trkpt lat="54.4015217" lon="-2.1669333"><ele>322.0</ele><time>2026-05-03T10:53:54.784Z</time></trkpt><trkpt lat="54.4014267" lon="-2.1670067"><ele>321.75</ele><time>2026-05-03T10:53:55.783Z</time></trkpt><trkpt lat="54.40133" lon="-2.167105"><ele>321.5</ele><time>2026-05-03T10:53:56.788Z</time></trkpt><trkpt lat="54.401235" lon="-2.167225"><ele>321.25</ele><time>2026-05-03T10:53:57.783Z</time></trkpt><trkpt lat="54.4011367" lon="-2.1673467"><ele>321.0</ele><time>2026-05-03T10:53:58.788Z</time></trkpt><trkpt lat="54.401025" lon="-2.1674617"><ele>321.0</ele><time>2026-05-03T10:53:59.787Z</time></trkpt><trkpt lat="54.400915" lon="-2.1675517"><ele>321.0</ele><time>2026-05-03T10:54:00.787Z</time></trkpt><trkpt lat="54.400815" lon="-2.1676283"><ele>321.0</ele><time>2026-05-03T10:54:01.783Z</time></trkpt><trkpt lat="54.4007267" lon="-2.167705"><ele>321.0</ele><time>2026-05-03T10:54:02.787Z</time></trkpt><trkpt lat="54.4006467" lon="-2.1678117"><ele>321.0</ele><time>2026-05-03T10:54:03.787Z</time></trkpt><trkpt lat="54.4005667" lon="-2.167935"><ele>321.75</ele><time>2026-05-03T10:54:04.788Z</time></trkpt><trkpt lat="54.40048" lon="-2.1680683"><ele>322.5</ele><time>2026-05-03T10:54:05.783Z</time></trkpt><trkpt lat="54.40038" lon="-2.1682083"><ele>323.25</ele><time>2026-05-03T10:54:06.783Z</time></trkpt><trkpt lat="54.400265" lon="-2.1683517"><ele>324.0</ele><time>2026-05-03T10:54:07.786Z</time></trkpt><trkpt lat="54.4001317" lon="-2.16851"><ele>324.0</ele><time>2026-05-03T10:54:08.784Z</time></trkpt><trkpt lat="54.4000017" lon="-2.1686833"><ele>324.0</ele><time>2026-05-03T10:54:09.783Z</time></trkpt><trkpt lat="54.3998683" lon="-2.16888"><ele>324.0</ele><time>2026-05-03T10:54:10.783Z</time></trkpt><trkpt lat="54.3997367" lon="-2.1690767"><ele>324.75</ele><time>2026-05-03T10:54:11.784Z</time></trkpt><trkpt lat="54.399615" lon="-2.1692633"><ele>325.5</ele><time>2026-05-03T10:54:12.787Z</time></trkpt><trkpt lat="54.3995067" lon="-2.1694333"><ele>326.25</ele><time>2026-05-03T10:54:13.784Z</time></trkpt><trkpt lat="54.3994083" lon="-2.1695967"><ele>327.0</ele><time>2026-05-03T10:54:14.783Z</time></trkpt><trkpt lat="54.39932" lon="-2.169735"><ele>327.0</ele><time>2026-05-03T10:54:15.787Z</time></trkpt><trkpt lat="54.3992483" lon="-2.1698583"><ele>327.0</ele><time>2026-05-03T10:54:16.784Z</time></trkpt><trkpt lat="54.3991817" lon="-2.1699767"><ele>327.0</ele><time>2026-05-03T10:54:17.785Z</time></trkpt><trkpt lat="54.3991183" lon="-2.170085"><ele>327.0</ele><time>2026-05-03T10:54:18.784Z</time></trkpt><trkpt lat="54.399065" lon="-2.1701817"><ele>327.0</ele><time>2026-05-03T10:54:19.784Z</time></trkpt><trkpt lat="54.39902" lon="-2.1702683"><ele>327.0</ele><time>2026-05-03T10:54:20.784Z</time></trkpt><trkpt lat="54.3989383" lon="-2.1704017"><ele>327.40000000000003</ele><time>2026-05-03T10:54:22.784Z</time></trkpt><trkpt lat="54.3988683" lon="-2.1705233"><ele>327.8</ele><time>2026-05-03T10:54:24.784Z</time></trkpt><trkpt lat="54.3987833" lon="-2.17067"><ele>328.2</ele><time>2026-05-03T10:54:26.783Z</time></trkpt><trkpt lat="54.3987333" lon="-2.17076"><ele>328.6</ele><time>2026-05-03T10:54:27.783Z</time></trkpt><trkpt lat="54.39867" lon="-2.17086"><ele>329.0</ele><time>2026-05-03T10:54:28.783Z</time></trkpt><trkpt lat="54.3986117" lon="-2.1709683"><ele>330.0</ele><time>2026-05-03T10:54:29.785Z</time></trkpt><trkpt lat="54.3985517" lon="-2.171085"><ele>331.0</ele><time>2026-05-03T10:54:30.784Z</time></trkpt><trkpt lat="54.3984967" lon="-2.17119"><ele>332.0</ele><time>2026-05-03T10:54:31.784Z</time></trkpt><trkpt lat="54.398445" lon="-2.1712917"><ele>333.0</ele><time>2026-05-03T10:54:32.783Z</time></trkpt><trkpt lat="54.3984017" lon="-2.1713833"><ele>334.0</ele><time>2026-05-03T10:54:33.784Z</time></trkpt><trkpt lat="54.39833" lon="-2.17154"><ele>335.0</ele><time>2026-05-03T10:54:35.784Z</time></trkpt><trkpt lat="54.398275" lon="-2.1716833"><ele>335.2</ele><time>2026-05-03T10:54:37.783Z</time></trkpt><trkpt lat="54.39821" lon="-2.1718317"><ele>335.4</ele><time>2026-05-03T10:54:39.784Z</time></trkpt><trkpt lat="54.3981433" lon="-2.1719933"><ele>335.6</ele><time>2026-05-03T10:54:41.783Z</time></trkpt><trkpt lat="54.3980417" lon="-2.17213"><ele>335.8</ele><time>2026-05-03T10:54:43.784Z</time></trkpt><trkpt lat="54.3979717" lon="-2.172195"><ele>336.0</ele><time>2026-05-03T10:54:44.787Z</time></trkpt><trkpt lat="54.3979017" lon="-2.1722467"><ele>336.0</ele><time>2026-05-03T10:54:45.783Z</time></trkpt><trkpt lat="54.397835" lon="-2.1722783"><ele>336.0</ele><time>2026-05-03T10:54:46.784Z</time></trkpt><trkpt lat="54.3977667" lon="-2.1723"><ele>336.0</ele><time>2026-05-03T10:54:47.784Z</time></trkpt><trkpt lat="54.3977033" lon="-2.172315"><ele>336.0</ele><time>2026-05-03T10:54:48.783Z</time></trkpt><trkpt lat="54.397635" lon="-2.1723133"><ele>336.0</ele><time>2026-05-03T10:54:49.784Z</time></trkpt><trkpt lat="54.3975667" lon="-2.1723117"><ele>336.0</ele><time>2026-05-03T10:54:50.783Z</time></trkpt><trkpt lat="54.3974917" lon="-2.172325"><ele>336.0</ele><time>2026-05-03T10:54:51.783Z</time></trkpt><trkpt lat="54.397415" lon="-2.1723467"><ele>337.3333333333333</ele><time>2026-05-03T10:54:52.788Z</time></trkpt><trkpt lat="54.3973367" lon="-2.1723883"><ele>338.6666666666667</ele><time>2026-05-03T10:54:53.784Z</time></trkpt><trkpt lat="54.397255" lon="-2.1724383"><ele>340.0</ele><time>2026-05-03T10:54:54.782Z</time></trkpt><trkpt lat="54.3971783" lon="-2.1724983"><ele>341.33333333333337</ele><time>2026-05-03T10:54:55.784Z</time></trkpt><trkpt lat="54.397105" lon="-2.172565"><ele>342.6666666666667</ele><time>2026-05-03T10:54:56.784Z</time></trkpt><trkpt lat="54.39703" lon="-2.1726383"><ele>344.0</ele><time>2026-05-03T10:54:57.783Z</time></trkpt><trkpt lat="54.3969583" lon="-2.1727167"><ele>344.0</ele><time>2026-05-03T10:54:58.784Z</time></trkpt><trkpt lat="54.3968767" lon="-2.1727967"><ele>344.0</ele><time>2026-05-03T10:54:59.786Z</time></trkpt><trkpt lat="54.396805" lon="-2.1728767"><ele>344.0</ele><time>2026-05-03T10:55:00.787Z</time></trkpt><trkpt lat="54.39674" lon="-2.1729433"><ele>344.0</ele><time>2026-05-03T10:55:01.784Z</time></trkpt><trkpt lat="54.3966783" lon="-2.172995"><ele>344.0</ele><time>2026-05-03T10:55:02.788Z</time></trkpt><trkpt lat="54.3965683" lon="-2.1730833"><ele>344.0</ele><time>2026-05-03T10:55:04.784Z</time></trkpt><trkpt lat="54.396505" lon="-2.1731283"><ele>344.00000000000006</ele><time>2026-05-03T10:55:05.784Z</time></trkpt><trkpt lat="54.39644" lon="-2.1731733"><ele>344.0</ele><time>2026-05-03T10:55:06.787Z</time></trkpt><trkpt lat="54.3963783" lon="-2.1732167"><ele>344.0</ele><time>2026-05-03T10:55:07.784Z</time></trkpt><trkpt lat="54.3963167" lon="-2.1732633"><ele>344.0</ele><time>2026-05-03T10:55:08.784Z</time></trkpt><trkpt lat="54.3962533" lon="-2.1733133"><ele>344.0</ele><time>2026-05-03T10:55:09.787Z</time></trkpt><trkpt lat="54.3961883" lon="-2.17336"><ele>344.00000000000006</ele><time>2026-05-03T10:55:10.784Z</time></trkpt><trkpt lat="54.39612" lon="-2.1733967"><ele>344.0</ele><time>2026-05-03T10:55:11.785Z</time></trkpt><trkpt lat="54.3960517" lon="-2.173435"><ele>345.42857142857144</ele><time>2026-05-03T10:55:12.784Z</time></trkpt><trkpt lat="54.39598" lon="-2.17347"><ele>346.8571428571429</ele><time>2026-05-03T10:55:13.785Z</time></trkpt><trkpt lat="54.3959133" lon="-2.1734917"><ele>348.28571428571433</ele><time>2026-05-03T10:55:14.784Z</time></trkpt><trkpt lat="54.39585" lon="-2.1735133"><ele>349.7142857142857</ele><time>2026-05-03T10:55:15.784Z</time></trkpt><trkpt lat="54.3957867" lon="-2.1735267"><ele>351.1428571428571</ele><time>2026-05-03T10:55:16.785Z</time></trkpt><trkpt lat="54.3957183" lon="-2.173535"><ele>352.5714285714286</ele><time>2026-05-03T10:55:17.784Z</time></trkpt><trkpt lat="54.3956467" lon="-2.17354"><ele>354.0</ele><time>2026-05-03T10:55:18.783Z</time></trkpt><trkpt lat="54.395575" lon="-2.173545"><ele>353.3333333333333</ele><time>2026-05-03T10:55:19.784Z</time></trkpt><trkpt lat="54.3954967" lon="-2.1735483"><ele>352.6666666666667</ele><time>2026-05-03T10:55:20.785Z</time></trkpt><trkpt lat="54.3954133" lon="-2.1735683"><ele>352.0</ele><time>2026-05-03T10:55:21.784Z</time></trkpt><trkpt lat="54.395325" lon="-2.17361"><ele>351.33333333333337</ele><time>2026-05-03T10:55:22.784Z</time></trkpt><trkpt lat="54.3952333" lon="-2.1736667"><ele>350.6666666666667</ele><time>2026-05-03T10:55:23.785Z</time></trkpt><trkpt lat="54.3951433" lon="-2.173725"><ele>350.0</ele><time>2026-05-03T10:55:24.787Z</time></trkpt><trkpt lat="54.3950567" lon="-2.1737717"><ele>350.0</ele><time>2026-05-03T10:55:25.783Z</time></trkpt><trkpt lat="54.3949733" lon="-2.173805"><ele>350.0</ele><time>2026-05-03T10:55:26.783Z</time></trkpt><trkpt lat="54.39489" lon="-2.173825"><ele>350.0</ele><time>2026-05-03T10:55:27.783Z</time></trkpt><trkpt lat="54.39481" lon="-2.1738433"><ele>350.0</ele><time>2026-05-03T10:55:28.784Z</time></trkpt><trkpt lat="54.39474" lon="-2.17386"><ele>350.0</ele><time>2026-05-03T10:55:29.784Z</time></trkpt><trkpt lat="54.394665" lon="-2.1738817"><ele>350.0</ele><time>2026-05-03T10:55:30.784Z</time></trkpt><trkpt lat="54.3946" lon="-2.1739067"><ele>349.6666666666667</ele><time>2026-05-03T10:55:31.786Z</time></trkpt><trkpt lat="54.3945367" lon="-2.17393"><ele>349.33333333333337</ele><time>2026-05-03T10:55:32.784Z</time></trkpt><trkpt lat="54.394475" lon="-2.1739517"><ele>349.0</ele><time>2026-05-03T10:55:33.783Z</time></trkpt><trkpt lat="54.3943617" lon="-2.173985"><ele>348.6666666666667</ele><time>2026-05-03T10:55:35.784Z</time></trkpt><trkpt lat="54.394255" lon="-2.17399"><ele>348.3333333333333</ele><time>2026-05-03T10:55:37.787Z</time></trkpt><trkpt lat="54.3941833" lon="-2.174005"><ele>348.0</ele><time>2026-05-03T10:55:38.784Z</time></trkpt><trkpt lat="54.39411" lon="-2.17402"><ele>349.6666666666667</ele><time>2026-05-03T10:55:39.784Z</time></trkpt><trkpt lat="54.394035" lon="-2.1740317"><ele>351.3333333333333</ele><time>2026-05-03T10:55:40.784Z</time></trkpt><trkpt lat="54.393965" lon="-2.1740617"><ele>353.0</ele><time>2026-05-03T10:55:41.783Z</time></trkpt><trkpt lat="54.3939017" lon="-2.1741"><ele>354.66666666666663</ele><time>2026-05-03T10:55:42.787Z</time></trkpt><trkpt lat="54.393805" lon="-2.1741867"><ele>356.3333333333333</ele><time>2026-05-03T10:55:44.787Z</time></trkpt><trkpt lat="54.3937367" lon="-2.17431"><ele>358.0</ele><time>2026-05-03T10:55:46.787Z</time></trkpt><trkpt lat="54.3936733" lon="-2.1744283"><ele>358.0</ele><time>2026-05-03T10:55:48.784Z</time></trkpt><trkpt lat="54.3935833" lon="-2.1744717"><ele>358.0</ele><time>2026-05-03T10:55:50.783Z</time></trkpt><trkpt lat="54.393505" lon="-2.174465"><ele>358.0</ele><time>2026-05-03T10:55:52.783Z</time></trkpt><trkpt lat="54.393415" lon="-2.1744383"><ele>358.0</ele><time>2026-05-03T10:55:54.787Z</time></trkpt><trkpt lat="54.3933317" lon="-2.1743917"><ele>358.0</ele><time>2026-05-03T10:55:56.786Z</time></trkpt><trkpt lat="54.39325" lon="-2.174345"><ele>358.0</ele><time>2026-05-03T10:55:58.787Z</time></trkpt><trkpt lat="54.3931817" lon="-2.1743183"><ele>358.00000000000006</ele><time>2026-05-03T10:56:00.784Z</time></trkpt><trkpt lat="54.3931133" lon="-2.174295"><ele>358.0</ele><time>2026-05-03T10:56:02.785Z</time></trkpt><trkpt lat="54.3930217" lon="-2.174265"><ele>358.0</ele><time>2026-05-03T10:56:04.785Z</time></trkpt><trkpt lat="54.3929533" lon="-2.17422"><ele>358.0</ele><time>2026-05-03T10:56:06.784Z</time></trkpt><trkpt lat="54.3928967" lon="-2.1741533"><ele>358.0</ele><time>2026-05-03T10:56:08.786Z</time></trkpt><trkpt lat="54.3928433" lon="-2.17409"><ele>358.00000000000006</ele><time>2026-05-03T10:56:10.788Z</time></trkpt><trkpt lat="54.3927817" lon="-2.174005"><ele>358.0</ele><time>2026-05-03T10:56:12.783Z</time></trkpt><trkpt lat="54.3926817" lon="-2.1738883"><ele>356.66666666666663</ele><time>2026-05-03T10:56:14.784Z</time></trkpt><trkpt lat="54.39261" lon="-2.1738267"><ele>355.3333333333333</ele><time>2026-05-03T10:56:15.784Z</time></trkpt><trkpt lat="54.3925367" lon="-2.173765"><ele>354.0</ele><time>2026-05-03T10:56:16.784Z</time></trkpt><trkpt lat="54.39246" lon="-2.1737067"><ele>352.6666666666667</ele><time>2026-05-03T10:56:17.784Z</time></trkpt><trkpt lat="54.3923867" lon="-2.1736517"><ele>351.33333333333337</ele><time>2026-05-03T10:56:18.783Z</time></trkpt><trkpt lat="54.3923117" lon="-2.1735917"><ele>350.0</ele><time>2026-05-03T10:56:19.783Z</time></trkpt><trkpt lat="54.3922367" lon="-2.1735267"><ele>349.5</ele><time>2026-05-03T10:56:20.783Z</time></trkpt><trkpt lat="54.3921633" lon="-2.1734567"><ele>349.0</ele><time>2026-05-03T10:56:21.786Z</time></trkpt><trkpt lat="54.39209" lon="-2.1733833"><ele>348.5</ele><time>2026-05-03T10:56:22.786Z</time></trkpt><trkpt lat="54.3920133" lon="-2.1733"><ele>348.0</ele><time>2026-05-03T10:56:23.787Z</time></trkpt><trkpt lat="54.3919383" lon="-2.1732133"><ele>347.5</ele><time>2026-05-03T10:56:24.786Z</time></trkpt><trkpt lat="54.391865" lon="-2.1731283"><ele>347.0</ele><time>2026-05-03T10:56:25.787Z</time></trkpt><trkpt lat="54.391795" lon="-2.17305"><ele>345.20000000000005</ele><time>2026-05-03T10:56:26.787Z</time></trkpt><trkpt lat="54.39173" lon="-2.1729783"><ele>343.4</ele><time>2026-05-03T10:56:27.787Z</time></trkpt><trkpt lat="54.39167" lon="-2.1729167"><ele>341.6</ele><time>2026-05-03T10:56:28.786Z</time></trkpt><trkpt lat="54.39157" lon="-2.1728133"><ele>339.79999999999995</ele><time>2026-05-03T10:56:30.787Z</time></trkpt><trkpt lat="54.3914733" lon="-2.1727267"><ele>338.0</ele><time>2026-05-03T10:56:32.787Z</time></trkpt><trkpt lat="54.391355" lon="-2.1726783"><ele>337.8571428571429</ele><time>2026-05-03T10:56:34.783Z</time></trkpt><trkpt lat="54.39129" lon="-2.1726683"><ele>337.7142857142857</ele><time>2026-05-03T10:56:35.785Z</time></trkpt><trkpt lat="54.391215" lon="-2.1726733"><ele>337.57142857142856</ele><time>2026-05-03T10:56:36.785Z</time></trkpt><trkpt lat="54.3911317" lon="-2.172675"><ele>337.42857142857144</ele><time>2026-05-03T10:56:37.785Z</time></trkpt><trkpt lat="54.391055" lon="-2.17267"><ele>337.2857142857143</ele><time>2026-05-03T10:56:38.784Z</time></trkpt><trkpt lat="54.3909817" lon="-2.1726617"><ele>337.14285714285717</ele><time>2026-05-03T10:56:39.785Z</time></trkpt><trkpt lat="54.39091" lon="-2.17266"><ele>337.0</ele><time>2026-05-03T10:56:40.787Z</time></trkpt><trkpt lat="54.390835" lon="-2.17266"><ele>337.0</ele><time>2026-05-03T10:56:41.784Z</time></trkpt><trkpt lat="54.3907633" lon="-2.172655"><ele>337.0</ele><time>2026-05-03T10:56:42.784Z</time></trkpt><trkpt lat="54.3906867" lon="-2.1726533"><ele>337.0</ele><time>2026-05-03T10:56:43.784Z</time></trkpt><trkpt lat="54.390605" lon="-2.172655"><ele>337.0</ele><time>2026-05-03T10:56:44.783Z</time></trkpt><trkpt lat="54.390515" lon="-2.17266"><ele>337.0</ele><time>2026-05-03T10:56:45.782Z</time></trkpt><trkpt lat="54.390425" lon="-2.1726733"><ele>337.0</ele><time>2026-05-03T10:56:46.783Z</time></trkpt><trkpt lat="54.3903367" lon="-2.17269"><ele>336.42857142857144</ele><time>2026-05-03T10:56:47.784Z</time></trkpt><trkpt lat="54.3902567" lon="-2.1727033"><ele>335.8571428571429</ele><time>2026-05-03T10:56:48.783Z</time></trkpt><trkpt lat="54.390185" lon="-2.1727133"><ele>335.28571428571433</ele><time>2026-05-03T10:56:49.784Z</time></trkpt><trkpt lat="54.390115" lon="-2.172725"><ele>334.7142857142857</ele><time>2026-05-03T10:56:50.784Z</time></trkpt><trkpt lat="54.3900417" lon="-2.1727367"><ele>334.1428571428571</ele><time>2026-05-03T10:56:51.783Z</time></trkpt><trkpt lat="54.3899767" lon="-2.17275"><ele>333.5714285714286</ele><time>2026-05-03T10:56:52.784Z</time></trkpt><trkpt lat="54.3899117" lon="-2.17276"><ele>333.0</ele><time>2026-05-03T10:56:53.786Z</time></trkpt><trkpt lat="54.389845" lon="-2.1727717"><ele>333.0</ele><time>2026-05-03T10:56:54.789Z</time></trkpt><trkpt lat="54.3897783" lon="-2.172795"><ele>333.0</ele><time>2026-05-03T10:56:55.784Z</time></trkpt><trkpt lat="54.38971" lon="-2.17284"><ele>333.0</ele><time>2026-05-03T10:56:56.783Z</time></trkpt><trkpt lat="54.3896367" lon="-2.17291"><ele>333.0</ele><time>2026-05-03T10:56:57.787Z</time></trkpt><trkpt lat="54.3895617" lon="-2.17301"><ele>333.0</ele><time>2026-05-03T10:56:58.787Z</time></trkpt><trkpt lat="54.3894917" lon="-2.173115"><ele>333.0</ele><time>2026-05-03T10:56:59.787Z</time></trkpt><trkpt lat="54.3894217" lon="-2.173215"><ele>333.5</ele><time>2026-05-03T10:57:00.786Z</time></trkpt><trkpt lat="54.3893517" lon="-2.17331"><ele>334.0</ele><time>2026-05-03T10:57:01.783Z</time></trkpt><trkpt lat="54.3892767" lon="-2.173385"><ele>334.5</ele><time>2026-05-03T10:57:02.787Z</time></trkpt><trkpt lat="54.3891983" lon="-2.1734483"><ele>335.0</ele><time>2026-05-03T10:57:03.786Z</time></trkpt><trkpt lat="54.3891167" lon="-2.173495"><ele>335.5</ele><time>2026-05-03T10:57:04.783Z</time></trkpt><trkpt lat="54.3890333" lon="-2.17354"><ele>336.0</ele><time>2026-05-03T10:57:05.784Z</time></trkpt><trkpt lat="54.388955" lon="-2.1735917"><ele>336.0</ele><time>2026-05-03T10:57:06.788Z</time></trkpt><trkpt lat="54.388885" lon="-2.1736417"><ele>336.0</ele><time>2026-05-03T10:57:07.786Z</time></trkpt><trkpt lat="54.3888217" lon="-2.1736933"><ele>336.0</ele><time>2026-05-03T10:57:08.787Z</time></trkpt><trkpt lat="54.3887617" lon="-2.1737467"><ele>336.0</ele><time>2026-05-03T10:57:09.786Z</time></trkpt><trkpt lat="54.3886467" lon="-2.17384"><ele>336.0</ele><time>2026-05-03T10:57:11.787Z</time></trkpt><trkpt lat="54.38858" lon="-2.173885"><ele>336.0</ele><time>2026-05-03T10:57:12.784Z</time></trkpt><trkpt lat="54.3885083" lon="-2.1739183"><ele>335.1666666666667</ele><time>2026-05-03T10:57:13.784Z</time></trkpt><trkpt lat="54.3884317" lon="-2.1739333"><ele>334.3333333333333</ele><time>2026-05-03T10:57:14.784Z</time></trkpt><trkpt lat="54.3883517" lon="-2.173925"><ele>333.5</ele><time>2026-05-03T10:57:15.784Z</time></trkpt><trkpt lat="54.38827" lon="-2.173905"><ele>332.66666666666663</ele><time>2026-05-03T10:57:16.783Z</time></trkpt><trkpt lat="54.38819" lon="-2.1738817"><ele>331.8333333333333</ele><time>2026-05-03T10:57:17.786Z</time></trkpt><trkpt lat="54.3881133" lon="-2.1738583"><ele>331.0</ele><time>2026-05-03T10:57:18.783Z</time></trkpt><trkpt lat="54.3880383" lon="-2.1738317"><ele>330.8333333333333</ele><time>2026-05-03T10:57:19.784Z</time></trkpt><trkpt lat="54.3879617" lon="-2.1738017"><ele>330.66666666666663</ele><time>2026-05-03T10:57:20.787Z</time></trkpt><trkpt lat="54.3878817" lon="-2.173765"><ele>330.5</ele><time>2026-05-03T10:57:21.783Z</time></trkpt><trkpt lat="54.387795" lon="-2.1737217"><ele>330.3333333333333</ele><time>2026-05-03T10:57:22.782Z</time></trkpt><trkpt lat="54.38771" lon="-2.1736733"><ele>330.1666666666667</ele><time>2026-05-03T10:57:23.787Z</time></trkpt><trkpt lat="54.38763" lon="-2.1736167"><ele>330.0</ele><time>2026-05-03T10:57:24.787Z</time></trkpt><trkpt lat="54.38755" lon="-2.17356"><ele>330.0</ele><time>2026-05-03T10:57:25.786Z</time></trkpt><trkpt lat="54.3874867" lon="-2.173505"><ele>330.0</ele><time>2026-05-03T10:57:26.787Z</time></trkpt><trkpt lat="54.3874283" lon="-2.173445"><ele>330.0</ele><time>2026-05-03T10:57:27.787Z</time></trkpt><trkpt lat="54.3873717" lon="-2.1733867"><ele>330.0</ele><time>2026-05-03T10:57:28.783Z</time></trkpt><trkpt lat="54.38726" lon="-2.1733133"><ele>330.0</ele><time>2026-05-03T10:57:30.786Z</time></trkpt><trkpt lat="54.38719" lon="-2.1732983"><ele>330.0</ele><time>2026-05-03T10:57:31.783Z</time></trkpt><trkpt lat="54.38711" lon="-2.173295"><ele>329.8333333333333</ele><time>2026-05-03T10:57:32.783Z</time></trkpt><trkpt lat="54.387025" lon="-2.173305"><ele>329.6666666666667</ele><time>2026-05-03T10:57:33.783Z</time></trkpt><trkpt lat="54.38694" lon="-2.1733217"><ele>329.5</ele><time>2026-05-03T10:57:34.783Z</time></trkpt><trkpt lat="54.38686" lon="-2.1733283"><ele>329.33333333333337</ele><time>2026-05-03T10:57:35.784Z</time></trkpt><trkpt lat="54.38678" lon="-2.1733233"><ele>329.1666666666667</ele><time>2026-05-03T10:57:36.783Z</time></trkpt><trkpt lat="54.3867" lon="-2.17331"><ele>329.0</ele><time>2026-05-03T10:57:37.783Z</time></trkpt><trkpt lat="54.3866183" lon="-2.1733"><ele>329.0</ele><time>2026-05-03T10:57:38.783Z</time></trkpt><trkpt lat="54.3865367" lon="-2.1732967"><ele>329.0</ele><time>2026-05-03T10:57:39.784Z</time></trkpt><trkpt lat="54.386455" lon="-2.1733017"><ele>329.0</ele><time>2026-05-03T10:57:40.783Z</time></trkpt><trkpt lat="54.3863683" lon="-2.1733183"><ele>329.0</ele><time>2026-05-03T10:57:41.784Z</time></trkpt><trkpt lat="54.3862833" lon="-2.1733433"><ele>329.0</ele><time>2026-05-03T10:57:42.785Z</time></trkpt><trkpt lat="54.386195" lon="-2.17337"><ele>329.0</ele><time>2026-05-03T10:57:43.783Z</time></trkpt><trkpt lat="54.3860983" lon="-2.17339"><ele>329.5</ele><time>2026-05-03T10:57:44.787Z</time></trkpt><trkpt lat="54.38597" lon="-2.1733983"><ele>330.0</ele><time>2026-05-03T10:57:45.786Z</time></trkpt><trkpt lat="54.385835" lon="-2.1733917"><ele>330.5</ele><time>2026-05-03T10:57:46.785Z</time></trkpt><trkpt lat="54.385705" lon="-2.173375"><ele>331.0</ele><time>2026-05-03T10:57:47.784Z</time></trkpt><trkpt lat="54.3855717" lon="-2.17336"><ele>333.0</ele><time>2026-05-03T10:57:48.784Z</time></trkpt><trkpt lat="54.3854317" lon="-2.1733383"><ele>335.0</ele><time>2026-05-03T10:57:49.784Z</time></trkpt><trkpt lat="54.385275" lon="-2.1733017"><ele>337.0</ele><time>2026-05-03T10:57:50.784Z</time></trkpt><trkpt lat="54.385125" lon="-2.1732567"><ele>337.0</ele><time>2026-05-03T10:57:51.785Z</time></trkpt><trkpt lat="54.3849883" lon="-2.1732083"><ele>337.0</ele><time>2026-05-03T10:57:52.785Z</time></trkpt><trkpt lat="54.3848667" lon="-2.173165"><ele>337.0</ele><time>2026-05-03T10:57:53.783Z</time></trkpt><trkpt lat="54.3847517" lon="-2.1731233"><ele>337.0</ele><time>2026-05-03T10:57:54.784Z</time></trkpt><trkpt lat="54.384625" lon="-2.1731033"><ele>334.25</ele><time>2026-05-03T10:57:55.783Z</time></trkpt><trkpt lat="54.38449" lon="-2.1730967"><ele>331.5</ele><time>2026-05-03T10:57:56.786Z</time></trkpt><trkpt lat="54.3843567" lon="-2.1730933"><ele>328.75</ele><time>2026-05-03T10:57:57.785Z</time></trkpt><trkpt lat="54.3842467" lon="-2.173095"><ele>326.0</ele><time>2026-05-03T10:57:58.786Z</time></trkpt><trkpt lat="54.3841583" lon="-2.1730933"><ele>326.0</ele><time>2026-05-03T10:57:59.784Z</time></trkpt><trkpt lat="54.384075" lon="-2.1730833"><ele>326.0</ele><time>2026-05-03T10:58:00.787Z</time></trkpt><trkpt lat="54.3839833" lon="-2.17305"><ele>326.0</ele><time>2026-05-03T10:58:01.783Z</time></trkpt><trkpt lat="54.3838817" lon="-2.1729917"><ele>326.0</ele><time>2026-05-03T10:58:02.786Z</time></trkpt><trkpt lat="54.3837633" lon="-2.172915"><ele>326.0</ele><time>2026-05-03T10:58:03.787Z</time></trkpt><trkpt lat="54.38363" lon="-2.172835"><ele>326.75</ele><time>2026-05-03T10:58:04.786Z</time></trkpt><trkpt lat="54.3834917" lon="-2.1727567"><ele>327.5</ele><time>2026-05-03T10:58:05.786Z</time></trkpt><trkpt lat="54.38336" lon="-2.1726917"><ele>328.25</ele><time>2026-05-03T10:58:06.787Z</time></trkpt><trkpt lat="54.38324" lon="-2.172635"><ele>329.0</ele><time>2026-05-03T10:58:07.787Z</time></trkpt><trkpt lat="54.3831283" lon="-2.17258"><ele>329.0</ele><time>2026-05-03T10:58:08.788Z</time></trkpt><trkpt lat="54.3830167" lon="-2.1725183"><ele>329.0</ele><time>2026-05-03T10:58:09.787Z</time></trkpt><trkpt lat="54.38291" lon="-2.1724517"><ele>329.0</ele><time>2026-05-03T10:58:10.786Z</time></trkpt><trkpt lat="54.3828117" lon="-2.1723733"><ele>329.0</ele><time>2026-05-03T10:58:11.786Z</time></trkpt><trkpt lat="54.3827133" lon="-2.172295"><ele>329.0</ele><time>2026-05-03T10:58:12.787Z</time></trkpt><trkpt lat="54.3826183" lon="-2.1722267"><ele>327.2</ele><time>2026-05-03T10:58:13.787Z</time></trkpt><trkpt lat="54.3825167" lon="-2.1721717"><ele>325.4</ele><time>2026-05-03T10:58:14.786Z</time></trkpt><trkpt lat="54.3824117" lon="-2.1721217"><ele>323.6</ele><time>2026-05-03T10:58:15.787Z</time></trkpt><trkpt lat="54.382315" lon="-2.17209"><ele>321.8</ele><time>2026-05-03T10:58:16.783Z</time></trkpt><trkpt lat="54.3822267" lon="-2.17207"><ele>320.0</ele><time>2026-05-03T10:58:17.787Z</time></trkpt><trkpt lat="54.3821367" lon="-2.1720533"><ele>319.6</ele><time>2026-05-03T10:58:18.783Z</time></trkpt><trkpt lat="54.3820483" lon="-2.17204"><ele>319.2</ele><time>2026-05-03T10:58:19.787Z</time></trkpt><trkpt lat="54.38196" lon="-2.1720333"><ele>318.8</ele><time>2026-05-03T10:58:20.786Z</time></trkpt><trkpt lat="54.3818567" lon="-2.1720333"><ele>318.4</ele><time>2026-05-03T10:58:21.783Z</time></trkpt><trkpt lat="54.3817283" lon="-2.1720267"><ele>318.0</ele><time>2026-05-03T10:58:22.787Z</time></trkpt><trkpt lat="54.3815733" lon="-2.172005"><ele>318.0</ele><time>2026-05-03T10:58:23.783Z</time></trkpt><trkpt lat="54.3814133" lon="-2.1719717"><ele>318.0</ele><time>2026-05-03T10:58:24.784Z</time></trkpt><trkpt lat="54.3812417" lon="-2.17191"><ele>318.0</ele><time>2026-05-03T10:58:25.787Z</time></trkpt><trkpt lat="54.3810733" lon="-2.1718267"><ele>317.0</ele><time>2026-05-03T10:58:26.787Z</time></trkpt><trkpt lat="54.3809083" lon="-2.1717333"><ele>316.0</ele><time>2026-05-03T10:58:27.787Z</time></trkpt><trkpt lat="54.38075" lon="-2.1716383"><ele>315.0</ele><time>2026-05-03T10:58:28.787Z</time></trkpt><trkpt lat="54.3806133" lon="-2.17154"><ele>312.0</ele><time>2026-05-03T10:58:29.787Z</time></trkpt><trkpt lat="54.3804917" lon="-2.1714483"><ele>309.0</ele><time>2026-05-03T10:58:30.786Z</time></trkpt><trkpt lat="54.3803883" lon="-2.1713633"><ele>306.0</ele><time>2026-05-03T10:58:31.785Z</time></trkpt><trkpt lat="54.3802967" lon="-2.1712733"><ele>303.0</ele><time>2026-05-03T10:58:32.787Z</time></trkpt><trkpt lat="54.3802167" lon="-2.1711733"><ele>303.0</ele><time>2026-05-03T10:58:33.787Z</time></trkpt><trkpt lat="54.38015" lon="-2.1710383"><ele>303.0</ele><time>2026-05-03T10:58:34.783Z</time></trkpt><trkpt lat="54.3800883" lon="-2.1708617"><ele>303.0</ele><time>2026-05-03T10:58:35.787Z</time></trkpt><trkpt lat="54.3800283" lon="-2.1706533"><ele>303.0</ele><time>2026-05-03T10:58:36.783Z</time></trkpt><trkpt lat="54.37996" lon="-2.170435"><ele>302.0</ele><time>2026-05-03T10:58:37.787Z</time></trkpt><trkpt lat="54.3798817" lon="-2.1702117"><ele>301.0</ele><time>2026-05-03T10:58:38.783Z</time></trkpt><trkpt lat="54.3798017" lon="-2.1699967"><ele>300.0</ele><time>2026-05-03T10:58:39.784Z</time></trkpt><trkpt lat="54.37972" lon="-2.1698"><ele>299.0</ele><time>2026-05-03T10:58:40.783Z</time></trkpt><trkpt lat="54.3796417" lon="-2.1696217"><ele>296.75</ele><time>2026-05-03T10:58:41.783Z</time></trkpt><trkpt lat="54.37957" lon="-2.1694517"><ele>294.5</ele><time>2026-05-03T10:58:42.787Z</time></trkpt><trkpt lat="54.3795033" lon="-2.1692867"><ele>292.25</ele><time>2026-05-03T10:58:43.783Z</time></trkpt><trkpt lat="54.379445" lon="-2.1691267"><ele>290.0</ele><time>2026-05-03T10:58:44.783Z</time></trkpt><trkpt lat="54.3793967" lon="-2.1689683"><ele>289.6666666666667</ele><time>2026-05-03T10:58:45.788Z</time></trkpt><trkpt lat="54.3793583" lon="-2.1688133"><ele>289.33333333333337</ele><time>2026-05-03T10:58:46.782Z</time></trkpt><trkpt lat="54.37933" lon="-2.1686633"><ele>289.0</ele><time>2026-05-03T10:58:47.784Z</time></trkpt><trkpt lat="54.3793033" lon="-2.1685183"><ele>288.6666666666667</ele><time>2026-05-03T10:58:48.782Z</time></trkpt><trkpt lat="54.3792817" lon="-2.16838"><ele>288.3333333333333</ele><time>2026-05-03T10:58:49.784Z</time></trkpt><trkpt lat="54.3792533" lon="-2.1682483"><ele>288.0</ele><time>2026-05-03T10:58:50.783Z</time></trkpt><trkpt lat="54.3792233" lon="-2.1681233"><ele>287.8333333333333</ele><time>2026-05-03T10:58:51.784Z</time></trkpt><trkpt lat="54.3791883" lon="-2.1680183"><ele>287.6666666666667</ele><time>2026-05-03T10:58:52.782Z</time></trkpt><trkpt lat="54.3791467" lon="-2.1679317"><ele>287.5</ele><time>2026-05-03T10:58:53.782Z</time></trkpt><trkpt lat="54.3790433" lon="-2.1678567"><ele>287.33333333333337</ele><time>2026-05-03T10:58:55.784Z</time></trkpt><trkpt lat="54.378975" lon="-2.1678733"><ele>287.1666666666667</ele><time>2026-05-03T10:58:56.783Z</time></trkpt><trkpt lat="54.3789017" lon="-2.1678933"><ele>287.0</ele><time>2026-05-03T10:58:57.783Z</time></trkpt><trkpt lat="54.37882" lon="-2.1679217"><ele>287.83333333333337</ele><time>2026-05-03T10:58:58.784Z</time></trkpt><trkpt lat="54.3787467" lon="-2.167935"><ele>288.6666666666667</ele><time>2026-05-03T10:58:59.783Z</time></trkpt><trkpt lat="54.37868" lon="-2.167955"><ele>289.5</ele><time>2026-05-03T10:59:00.783Z</time></trkpt><trkpt lat="54.3786033" lon="-2.1679133"><ele>290.3333333333333</ele><time>2026-05-03T10:59:01.787Z</time></trkpt><trkpt lat="54.3785217" lon="-2.1678183"><ele>291.16666666666663</ele><time>2026-05-03T10:59:02.784Z</time></trkpt><trkpt lat="54.3784333" lon="-2.1676917"><ele>292.0</ele><time>2026-05-03T10:59:03.788Z</time></trkpt><trkpt lat="54.3783517" lon="-2.1675733"><ele>292.0</ele><time>2026-05-03T10:59:04.786Z</time></trkpt><trkpt lat="54.378265" lon="-2.1674617"><ele>292.0</ele><time>2026-05-03T10:59:05.787Z</time></trkpt><trkpt lat="54.3781833" lon="-2.167355"><ele>292.0</ele><time>2026-05-03T10:59:06.783Z</time></trkpt><trkpt lat="54.3781" lon="-2.1672517"><ele>292.0</ele><time>2026-05-03T10:59:07.784Z</time></trkpt><trkpt lat="54.37802" lon="-2.1671567"><ele>292.0</ele><time>2026-05-03T10:59:08.782Z</time></trkpt><trkpt lat="54.3779317" lon="-2.1670617"><ele>293.2</ele><time>2026-05-03T10:59:09.786Z</time></trkpt><trkpt lat="54.3778367" lon="-2.1669567"><ele>294.4</ele><time>2026-05-03T10:59:10.785Z</time></trkpt><trkpt lat="54.3777417" lon="-2.1668417"><ele>295.6</ele><time>2026-05-03T10:59:11.786Z</time></trkpt><trkpt lat="54.3776533" lon="-2.1667317"><ele>296.8</ele><time>2026-05-03T10:59:12.785Z</time></trkpt><trkpt lat="54.37758" lon="-2.1666283"><ele>298.0</ele><time>2026-05-03T10:59:13.787Z</time></trkpt><trkpt lat="54.3775183" lon="-2.1665317"><ele>298.85714285714283</ele><time>2026-05-03T10:59:14.787Z</time></trkpt><trkpt lat="54.3774633" lon="-2.166455"><ele>299.71428571428567</ele><time>2026-05-03T10:59:15.785Z</time></trkpt><trkpt lat="54.3773783" lon="-2.1663717"><ele>300.57142857142856</ele><time>2026-05-03T10:59:17.787Z</time></trkpt><trkpt lat="54.3773133" lon="-2.16637"><ele>301.42857142857144</ele><time>2026-05-03T10:59:19.783Z</time></trkpt><trkpt lat="54.37725" lon="-2.1663883"><ele>302.28571428571433</ele><time>2026-05-03T10:59:21.784Z</time></trkpt><trkpt lat="54.377175" lon="-2.1664117"><ele>303.1428571428571</ele><time>2026-05-03T10:59:23.787Z</time></trkpt><trkpt lat="54.3771017" lon="-2.166435"><ele>304.0</ele><time>2026-05-03T10:59:26.787Z</time></trkpt><trkpt lat="54.3770383" lon="-2.1664733"><ele>304.0</ele><time>2026-05-03T11:00:06.782Z</time></trkpt><trkpt lat="54.3769017" lon="-2.1665017"><ele>304.0</ele><time>2026-05-03T11:00:08.783Z</time></trkpt><trkpt lat="54.37683" lon="-2.16652"><ele>304.0</ele><time>2026-05-03T11:00:09.782Z</time></trkpt><trkpt lat="54.3767567" lon="-2.1665433"><ele>304.0</ele><time>2026-05-03T11:00:10.786Z</time></trkpt><trkpt lat="54.37668" lon="-2.1665617"><ele>304.0</ele><time>2026-05-03T11:00:11.782Z</time></trkpt><trkpt lat="54.3765967" lon="-2.166575"><ele>304.0</ele><time>2026-05-03T11:00:12.782Z</time></trkpt><trkpt lat="54.3765167" lon="-2.1665983"><ele>304.66666666666663</ele><time>2026-05-03T11:00:13.782Z</time></trkpt><trkpt lat="54.376445" lon="-2.1666433"><ele>305.3333333333333</ele><time>2026-05-03T11:00:14.787Z</time></trkpt><trkpt lat="54.3763867" lon="-2.1667067"><ele>306.0</ele><time>2026-05-03T11:00:15.783Z</time></trkpt><trkpt lat="54.3763333" lon="-2.1668067"><ele>306.6666666666667</ele><time>2026-05-03T11:00:16.786Z</time></trkpt><trkpt lat="54.3762883" lon="-2.1669333"><ele>307.33333333333337</ele><time>2026-05-03T11:00:17.782Z</time></trkpt><trkpt lat="54.3762483" lon="-2.16711"><ele>308.0</ele><time>2026-05-03T11:00:18.783Z</time></trkpt><trkpt lat="54.3762167" lon="-2.1673683"><ele>310.75</ele><time>2026-05-03T11:00:19.783Z</time></trkpt><trkpt lat="54.3761667" lon="-2.1676083"><ele>313.5</ele><time>2026-05-03T11:00:20.783Z</time></trkpt><trkpt lat="54.3761117" lon="-2.1678533"><ele>316.25</ele><time>2026-05-03T11:00:21.783Z</time></trkpt><trkpt lat="54.3760417" lon="-2.168065"><ele>319.0</ele><time>2026-05-03T11:00:22.785Z</time></trkpt><trkpt lat="54.3759667" lon="-2.1682467"><ele>320.5</ele><time>2026-05-03T11:00:23.782Z</time></trkpt><trkpt lat="54.3759017" lon="-2.1684267"><ele>322.0</ele><time>2026-05-03T11:00:24.787Z</time></trkpt><trkpt lat="54.375855" lon="-2.1686267"><ele>323.5</ele><time>2026-05-03T11:00:25.782Z</time></trkpt><trkpt lat="54.3758283" lon="-2.1688467"><ele>325.0</ele><time>2026-05-03T11:00:26.783Z</time></trkpt><trkpt lat="54.3758217" lon="-2.169085"><ele>326.75</ele><time>2026-05-03T11:00:27.787Z</time></trkpt><trkpt lat="54.375825" lon="-2.169335"><ele>328.5</ele><time>2026-05-03T11:00:28.784Z</time></trkpt><trkpt lat="54.3758283" lon="-2.1695767"><ele>330.25</ele><time>2026-05-03T11:00:29.783Z</time></trkpt><trkpt lat="54.37581" lon="-2.1698283"><ele>332.0</ele><time>2026-05-03T11:00:30.783Z</time></trkpt><trkpt lat="54.3757633" lon="-2.1700933"><ele>334.6666666666667</ele><time>2026-05-03T11:00:31.783Z</time></trkpt><trkpt lat="54.3756983" lon="-2.170365"><ele>337.3333333333333</ele><time>2026-05-03T11:00:32.783Z</time></trkpt><trkpt lat="54.3756283" lon="-2.1706383"><ele>340.0</ele><time>2026-05-03T11:00:33.784Z</time></trkpt><trkpt lat="54.37556" lon="-2.17093"><ele>341.66666666666663</ele><time>2026-05-03T11:00:34.783Z</time></trkpt><trkpt lat="54.3754917" lon="-2.171225"><ele>343.3333333333333</ele><time>2026-05-03T11:00:35.785Z</time></trkpt><trkpt lat="54.375425" lon="-2.1715217"><ele>345.0</ele><time>2026-05-03T11:00:36.781Z</time></trkpt><trkpt lat="54.3753617" lon="-2.1718267"><ele>347.6666666666667</ele><time>2026-05-03T11:00:37.783Z</time></trkpt><trkpt lat="54.3752967" lon="-2.172145"><ele>350.33333333333337</ele><time>2026-05-03T11:00:38.781Z</time></trkpt><trkpt lat="54.3752333" lon="-2.17246"><ele>353.0</ele><time>2026-05-03T11:00:39.782Z</time></trkpt><trkpt lat="54.37517" lon="-2.1727817"><ele>355.6666666666667</ele><time>2026-05-03T11:00:40.782Z</time></trkpt><trkpt lat="54.37511" lon="-2.1731033"><ele>358.3333333333333</ele><time>2026-05-03T11:00:41.787Z</time></trkpt><trkpt lat="54.3750467" lon="-2.1734167"><ele>361.0</ele><time>2026-05-03T11:00:42.783Z</time></trkpt><trkpt lat="54.3749833" lon="-2.1737433"><ele>364.66666666666663</ele><time>2026-05-03T11:00:43.787Z</time></trkpt><trkpt lat="54.374925" lon="-2.1740683"><ele>368.3333333333333</ele><time>2026-05-03T11:00:44.786Z</time></trkpt><trkpt lat="54.3748717" lon="-2.1743933"><ele>372.0</ele><time>2026-05-03T11:00:45.783Z</time></trkpt><trkpt lat="54.3748217" lon="-2.1747117"><ele>373.0</ele><time>2026-05-03T11:00:46.783Z</time></trkpt><trkpt lat="54.3747733" lon="-2.1750283"><ele>374.0</ele><time>2026-05-03T11:00:47.783Z</time></trkpt><trkpt lat="54.374725" lon="-2.1753517"><ele>375.0</ele><time>2026-05-03T11:00:48.783Z</time></trkpt><trkpt lat="54.3746817" lon="-2.175685"><ele>376.6666666666667</ele><time>2026-05-03T11:00:49.784Z</time></trkpt><trkpt lat="54.3746383" lon="-2.1760133"><ele>378.33333333333337</ele><time>2026-05-03T11:00:50.783Z</time></trkpt><trkpt lat="54.3745933" lon="-2.1763283"><ele>380.0</ele><time>2026-05-03T11:00:51.782Z</time></trkpt><trkpt lat="54.3745467" lon="-2.1766367"><ele>381.33333333333337</ele><time>2026-05-03T11:00:52.784Z</time></trkpt><trkpt lat="54.3745" lon="-2.176945"><ele>382.6666666666667</ele><time>2026-05-03T11:00:53.782Z</time></trkpt><trkpt lat="54.37445" lon="-2.1772567"><ele>384.0</ele><time>2026-05-03T11:00:54.787Z</time></trkpt><trkpt lat="54.3743917" lon="-2.1775717"><ele>385.66666666666663</ele><time>2026-05-03T11:00:55.787Z</time></trkpt><trkpt lat="54.3743217" lon="-2.1778933"><ele>387.3333333333333</ele><time>2026-05-03T11:00:56.787Z</time></trkpt><trkpt lat="54.374245" lon="-2.1782183"><ele>389.0</ele><time>2026-05-03T11:00:57.783Z</time></trkpt><trkpt lat="54.3741617" lon="-2.1785417"><ele>391.0</ele><time>2026-05-03T11:00:58.783Z</time></trkpt><trkpt lat="54.3740733" lon="-2.1788633"><ele>393.0</ele><time>2026-05-03T11:00:59.783Z</time></trkpt><trkpt lat="54.373985" lon="-2.1791867"><ele>395.0</ele><time>2026-05-03T11:01:00.783Z</time></trkpt><trkpt lat="54.3738967" lon="-2.1795067"><ele>396.0</ele><time>2026-05-03T11:01:01.782Z</time></trkpt><trkpt lat="54.3738033" lon="-2.1798217"><ele>397.0</ele><time>2026-05-03T11:01:02.783Z</time></trkpt><trkpt lat="54.3737" lon="-2.18013"><ele>398.0</ele><time>2026-05-03T11:01:03.783Z</time></trkpt><trkpt lat="54.3736017" lon="-2.1804367"><ele>401.3333333333333</ele><time>2026-05-03T11:01:04.782Z</time></trkpt><trkpt lat="54.373505" lon="-2.1807317"><ele>404.66666666666663</ele><time>2026-05-03T11:01:05.784Z</time></trkpt><trkpt lat="54.3734017" lon="-2.1810283"><ele>408.0</ele><time>2026-05-03T11:01:06.783Z</time></trkpt><trkpt lat="54.373295" lon="-2.1813317"><ele>408.33333333333337</ele><time>2026-05-03T11:01:07.783Z</time></trkpt><trkpt lat="54.37318" lon="-2.181645"><ele>408.6666666666667</ele><time>2026-05-03T11:01:08.785Z</time></trkpt><trkpt lat="54.3730533" lon="-2.1819483"><ele>409.0</ele><time>2026-05-03T11:01:09.784Z</time></trkpt><trkpt lat="54.37292" lon="-2.1822467"><ele>410.33333333333337</ele><time>2026-05-03T11:01:10.787Z</time></trkpt><trkpt lat="54.3727817" lon="-2.182545"><ele>411.66666666666663</ele><time>2026-05-03T11:01:11.786Z</time></trkpt><trkpt lat="54.372645" lon="-2.18285"><ele>413.0</ele><time>2026-05-03T11:01:12.787Z</time></trkpt><trkpt lat="54.372505" lon="-2.1831567"><ele>414.5</ele><time>2026-05-03T11:01:13.788Z</time></trkpt><trkpt lat="54.3723617" lon="-2.1834583"><ele>416.0</ele><time>2026-05-03T11:01:14.788Z</time></trkpt><trkpt lat="54.3722167" lon="-2.1837533"><ele>418.3333333333333</ele><time>2026-05-03T11:01:15.784Z</time></trkpt><trkpt lat="54.3720683" lon="-2.1840367"><ele>420.66666666666663</ele><time>2026-05-03T11:01:16.784Z</time></trkpt><trkpt lat="54.3719217" lon="-2.184305"><ele>423.0</ele><time>2026-05-03T11:01:17.785Z</time></trkpt><trkpt lat="54.3717783" lon="-2.1845567"><ele>423.0</ele><time>2026-05-03T11:01:18.784Z</time></trkpt><trkpt lat="54.3716383" lon="-2.1847917"><ele>423.0</ele><time>2026-05-03T11:01:19.784Z</time></trkpt><trkpt lat="54.371495" lon="-2.1850117"><ele>423.0</ele><time>2026-05-03T11:01:20.784Z</time></trkpt><trkpt lat="54.37135" lon="-2.1852117"><ele>427.33333333333337</ele><time>2026-05-03T11:01:21.783Z</time></trkpt><trkpt lat="54.3712117" lon="-2.1854083"><ele>431.6666666666667</ele><time>2026-05-03T11:01:22.784Z</time></trkpt><trkpt lat="54.3710767" lon="-2.1855883"><ele>436.0</ele><time>2026-05-03T11:01:23.784Z</time></trkpt><trkpt lat="54.3709567" lon="-2.18574"><ele>437.6</ele><time>2026-05-03T11:01:24.79Z</time></trkpt><trkpt lat="54.3708567" lon="-2.1858617"><ele>439.20000000000005</ele><time>2026-05-03T11:01:25.786Z</time></trkpt><trkpt lat="54.3707883" lon="-2.1859833"><ele>440.79999999999995</ele><time>2026-05-03T11:01:26.784Z</time></trkpt><trkpt lat="54.37074" lon="-2.1860967"><ele>442.4</ele><time>2026-05-03T11:01:27.785Z</time></trkpt><trkpt lat="54.3707117" lon="-2.1862217"><ele>444.0</ele><time>2026-05-03T11:01:28.786Z</time></trkpt><trkpt lat="54.3707183" lon="-2.1863817"><ele>445.75</ele><time>2026-05-03T11:01:29.787Z</time></trkpt><trkpt lat="54.37073" lon="-2.1865617"><ele>447.5</ele><time>2026-05-03T11:01:30.786Z</time></trkpt><trkpt lat="54.3707383" lon="-2.1867617"><ele>449.25</ele><time>2026-05-03T11:01:31.785Z</time></trkpt><trkpt lat="54.370745" lon="-2.1869833"><ele>451.0</ele><time>2026-05-03T11:01:32.784Z</time></trkpt><trkpt lat="54.37075" lon="-2.1872167"><ele>451.6</ele><time>2026-05-03T11:01:33.786Z</time></trkpt><trkpt lat="54.3707467" lon="-2.1874283"><ele>452.20000000000005</ele><time>2026-05-03T11:01:34.786Z</time></trkpt><trkpt lat="54.3707367" lon="-2.18759"><ele>452.79999999999995</ele><time>2026-05-03T11:01:35.786Z</time></trkpt><trkpt lat="54.3707167" lon="-2.1877067"><ele>453.4</ele><time>2026-05-03T11:01:36.786Z</time></trkpt><trkpt lat="54.37066" lon="-2.18782"><ele>454.0</ele><time>2026-05-03T11:01:38.786Z</time></trkpt><trkpt lat="54.3705483" lon="-2.1877867"><ele>457.0</ele><time>2026-05-03T11:01:40.783Z</time></trkpt><trkpt lat="54.370465" lon="-2.1877067"><ele>460.0</ele><time>2026-05-03T11:01:41.784Z</time></trkpt><trkpt lat="54.3703767" lon="-2.1876233"><ele>463.0</ele><time>2026-05-03T11:01:42.787Z</time></trkpt><trkpt lat="54.37027" lon="-2.1875383"><ele>466.0</ele><time>2026-05-03T11:01:43.787Z</time></trkpt><trkpt lat="54.3701433" lon="-2.187465"><ele>469.0</ele><time>2026-05-03T11:01:44.787Z</time></trkpt><trkpt lat="54.3700117" lon="-2.1873933"><ele>467.75</ele><time>2026-05-03T11:01:45.784Z</time></trkpt><trkpt lat="54.3698867" lon="-2.187305"><ele>466.5</ele><time>2026-05-03T11:01:46.784Z</time></trkpt><trkpt lat="54.369765" lon="-2.1872083"><ele>465.25</ele><time>2026-05-03T11:01:47.788Z</time></trkpt><trkpt lat="54.3696567" lon="-2.1871117"><ele>464.0</ele><time>2026-05-03T11:01:48.785Z</time></trkpt><trkpt lat="54.3695467" lon="-2.1870517"><ele>466.4</ele><time>2026-05-03T11:01:49.787Z</time></trkpt><trkpt lat="54.36944" lon="-2.1870217"><ele>468.79999999999995</ele><time>2026-05-03T11:01:50.787Z</time></trkpt><trkpt lat="54.369335" lon="-2.1870067"><ele>471.20000000000005</ele><time>2026-05-03T11:01:51.784Z</time></trkpt><trkpt lat="54.3692317" lon="-2.187025"><ele>473.6</ele><time>2026-05-03T11:01:52.787Z</time></trkpt><trkpt lat="54.3691367" lon="-2.1870767"><ele>476.0</ele><time>2026-05-03T11:01:53.784Z</time></trkpt><trkpt lat="54.3690467" lon="-2.187175"><ele>476.0</ele><time>2026-05-03T11:01:54.788Z</time></trkpt><trkpt lat="54.3689567" lon="-2.1873067"><ele>476.0</ele><time>2026-05-03T11:01:55.784Z</time></trkpt><trkpt lat="54.3688467" lon="-2.1874617"><ele>476.0</ele><time>2026-05-03T11:01:56.787Z</time></trkpt><trkpt lat="54.3687183" lon="-2.1876267"><ele>476.0</ele><time>2026-05-03T11:01:57.783Z</time></trkpt><trkpt lat="54.368575" lon="-2.1877833"><ele>477.66666666666663</ele><time>2026-05-03T11:01:58.784Z</time></trkpt><trkpt lat="54.3684183" lon="-2.187935"><ele>479.33333333333337</ele><time>2026-05-03T11:01:59.785Z</time></trkpt><trkpt lat="54.3682633" lon="-2.1880767"><ele>481.0</ele><time>2026-05-03T11:02:00.783Z</time></trkpt><trkpt lat="54.3681133" lon="-2.1882133"><ele>483.25</ele><time>2026-05-03T11:02:01.784Z</time></trkpt><trkpt lat="54.3679767" lon="-2.188335"><ele>485.5</ele><time>2026-05-03T11:02:02.783Z</time></trkpt><trkpt lat="54.3678583" lon="-2.1884267"><ele>487.75</ele><time>2026-05-03T11:02:03.783Z</time></trkpt><trkpt lat="54.3677483" lon="-2.18848"><ele>490.0</ele><time>2026-05-03T11:02:04.784Z</time></trkpt><trkpt lat="54.367645" lon="-2.1884967"><ele>490.0</ele><time>2026-05-03T11:02:05.784Z</time></trkpt><trkpt lat="54.3675533" lon="-2.1884867"><ele>490.0</ele><time>2026-05-03T11:02:06.784Z</time></trkpt><trkpt lat="54.3674617" lon="-2.18848"><ele>490.0</ele><time>2026-05-03T11:02:07.785Z</time></trkpt><trkpt lat="54.367365" lon="-2.188485"><ele>490.0</ele><time>2026-05-03T11:02:08.784Z</time></trkpt><trkpt lat="54.3672683" lon="-2.188505"><ele>490.0</ele><time>2026-05-03T11:02:09.783Z</time></trkpt><trkpt lat="54.3671667" lon="-2.188545"><ele>487.8</ele><time>2026-05-03T11:02:10.784Z</time></trkpt><trkpt lat="54.3670667" lon="-2.1886033"><ele>485.6</ele><time>2026-05-03T11:02:11.785Z</time></trkpt><trkpt lat="54.3669667" lon="-2.1886817"><ele>483.4</ele><time>2026-05-03T11:02:12.784Z</time></trkpt><trkpt lat="54.36687" lon="-2.188765"><ele>481.2</ele><time>2026-05-03T11:02:13.784Z</time></trkpt><trkpt lat="54.36678" lon="-2.188845"><ele>479.0</ele><time>2026-05-03T11:02:14.784Z</time></trkpt><trkpt lat="54.3667" lon="-2.1889217"><ele>479.0</ele><time>2026-05-03T11:02:15.787Z</time></trkpt><trkpt lat="54.3666283" lon="-2.188995"><ele>479.0</ele><time>2026-05-03T11:02:16.786Z</time></trkpt><trkpt lat="54.3665567" lon="-2.1890533"><ele>479.0</ele><time>2026-05-03T11:02:17.784Z</time></trkpt><trkpt lat="54.3664933" lon="-2.1890967"><ele>479.0</ele><time>2026-05-03T11:02:18.788Z</time></trkpt><trkpt lat="54.36643" lon="-2.1891317"><ele>479.0</ele><time>2026-05-03T11:02:19.787Z</time></trkpt><trkpt lat="54.366365" lon="-2.189165"><ele>479.0</ele><time>2026-05-03T11:02:20.788Z</time></trkpt><trkpt lat="54.36629" lon="-2.1891983"><ele>479.0</ele><time>2026-05-03T11:02:21.787Z</time></trkpt><trkpt lat="54.3662033" lon="-2.18924"><ele>480.6</ele><time>2026-05-03T11:02:22.785Z</time></trkpt><trkpt lat="54.36611" lon="-2.189285"><ele>482.2</ele><time>2026-05-03T11:02:23.786Z</time></trkpt><trkpt lat="54.3660183" lon="-2.1893317"><ele>483.80000000000007</ele><time>2026-05-03T11:02:24.787Z</time></trkpt><trkpt lat="54.3659317" lon="-2.1893817"><ele>485.40000000000003</ele><time>2026-05-03T11:02:25.784Z</time></trkpt><trkpt lat="54.365845" lon="-2.1894417"><ele>487.0</ele><time>2026-05-03T11:02:26.787Z</time></trkpt><trkpt lat="54.3657433" lon="-2.1895083"><ele>487.0</ele><time>2026-05-03T11:02:27.784Z</time></trkpt><trkpt lat="54.3656233" lon="-2.1895867"><ele>487.0</ele><time>2026-05-03T11:02:28.787Z</time></trkpt><trkpt lat="54.3654983" lon="-2.1896667"><ele>487.0</ele><time>2026-05-03T11:02:29.784Z</time></trkpt><trkpt lat="54.365365" lon="-2.1897633"><ele>487.0</ele><time>2026-05-03T11:02:30.786Z</time></trkpt><trkpt lat="54.36523" lon="-2.1898867"><ele>488.33333333333337</ele><time>2026-05-03T11:02:31.788Z</time></trkpt><trkpt lat="54.365095" lon="-2.1900167"><ele>489.66666666666663</ele><time>2026-05-03T11:02:32.788Z</time></trkpt><trkpt lat="54.3649467" lon="-2.19014"><ele>491.0</ele><time>2026-05-03T11:02:33.783Z</time></trkpt><trkpt lat="54.3647817" lon="-2.1902683"><ele>482.66666666666663</ele><time>2026-05-03T11:02:34.787Z</time></trkpt><trkpt lat="54.364625" lon="-2.1903933"><ele>474.33333333333337</ele><time>2026-05-03T11:02:35.787Z</time></trkpt><trkpt lat="54.3644783" lon="-2.1905017"><ele>466.0</ele><time>2026-05-03T11:02:36.785Z</time></trkpt><trkpt lat="54.364335" lon="-2.1906033"><ele>473.6666666666667</ele><time>2026-05-03T11:02:37.784Z</time></trkpt><trkpt lat="54.36419" lon="-2.190705"><ele>481.33333333333337</ele><time>2026-05-03T11:02:38.784Z</time></trkpt><trkpt lat="54.3640383" lon="-2.19083"><ele>489.0</ele><time>2026-05-03T11:02:39.786Z</time></trkpt><trkpt lat="54.36388" lon="-2.1909683"><ele>481.33333333333337</ele><time>2026-05-03T11:02:40.787Z</time></trkpt><trkpt lat="54.3637167" lon="-2.19111"><ele>473.6666666666667</ele><time>2026-05-03T11:02:41.783Z</time></trkpt><trkpt lat="54.3635533" lon="-2.1912633"><ele>466.0</ele><time>2026-05-03T11:02:42.783Z</time></trkpt><trkpt lat="54.3633983" lon="-2.1914233"><ele>465.0</ele><time>2026-05-03T11:02:43.783Z</time></trkpt><trkpt lat="54.363255" lon="-2.1915767"><ele>464.0</ele><time>2026-05-03T11:02:44.784Z</time></trkpt><trkpt lat="54.3631233" lon="-2.1917317"><ele>463.0</ele><time>2026-05-03T11:02:45.784Z</time></trkpt><trkpt lat="54.3630167" lon="-2.1918917"><ele>463.0</ele><time>2026-05-03T11:02:46.787Z</time></trkpt><trkpt lat="54.3629283" lon="-2.1920417"><ele>463.0</ele><time>2026-05-03T11:02:47.784Z</time></trkpt><trkpt lat="54.36284" lon="-2.1921667"><ele>463.0</ele><time>2026-05-03T11:02:48.787Z</time></trkpt><trkpt lat="54.3627417" lon="-2.192265"><ele>463.0</ele><time>2026-05-03T11:02:49.784Z</time></trkpt><trkpt lat="54.3626267" lon="-2.1923467"><ele>461.5</ele><time>2026-05-03T11:02:50.787Z</time></trkpt><trkpt lat="54.3625017" lon="-2.1924133"><ele>460.0</ele><time>2026-05-03T11:02:51.782Z</time></trkpt><trkpt lat="54.3623817" lon="-2.1924817"><ele>458.5</ele><time>2026-05-03T11:02:52.782Z</time></trkpt><trkpt lat="54.3622617" lon="-2.1925733"><ele>457.0</ele><time>2026-05-03T11:02:53.787Z</time></trkpt><trkpt lat="54.36213" lon="-2.1926983"><ele>457.0</ele><time>2026-05-03T11:02:54.782Z</time></trkpt><trkpt lat="54.3619933" lon="-2.1928533"><ele>457.0</ele><time>2026-05-03T11:02:55.787Z</time></trkpt><trkpt lat="54.36185" lon="-2.1930167"><ele>457.0</ele><time>2026-05-03T11:02:56.787Z</time></trkpt><trkpt lat="54.3617017" lon="-2.1931767"><ele>454.6666666666667</ele><time>2026-05-03T11:02:57.784Z</time></trkpt><trkpt lat="54.361555" lon="-2.1933317"><ele>452.33333333333337</ele><time>2026-05-03T11:02:58.787Z</time></trkpt><trkpt lat="54.3614167" lon="-2.1934867"><ele>450.0</ele><time>2026-05-03T11:02:59.782Z</time></trkpt><trkpt lat="54.36129" lon="-2.1936317"><ele>450.0</ele><time>2026-05-03T11:03:00.787Z</time></trkpt><trkpt lat="54.3611767" lon="-2.19377"><ele>450.0</ele><time>2026-05-03T11:03:01.783Z</time></trkpt><trkpt lat="54.3610883" lon="-2.193895"><ele>450.0</ele><time>2026-05-03T11:03:02.787Z</time></trkpt><trkpt lat="54.3610117" lon="-2.1939867"><ele>450.0</ele><time>2026-05-03T11:03:03.786Z</time></trkpt><trkpt lat="54.3609483" lon="-2.19406"><ele>450.0</ele><time>2026-05-03T11:03:04.782Z</time></trkpt><trkpt lat="54.3608733" lon="-2.19415"><ele>451.1666666666667</ele><time>2026-05-03T11:03:06.786Z</time></trkpt><trkpt lat="54.3607833" lon="-2.19431"><ele>452.33333333333337</ele><time>2026-05-03T11:03:49.785Z</time></trkpt><trkpt lat="54.36073" lon="-2.1944067"><ele>453.5</ele><time>2026-05-03T11:03:50.782Z</time></trkpt><trkpt lat="54.3606733" lon="-2.194495"><ele>454.6666666666667</ele><time>2026-05-03T11:03:51.784Z</time></trkpt><trkpt lat="54.3606117" lon="-2.1945683"><ele>455.83333333333337</ele><time>2026-05-03T11:03:52.783Z</time></trkpt><trkpt lat="54.36054" lon="-2.194625"><ele>457.0</ele><time>2026-05-03T11:03:53.784Z</time></trkpt><trkpt lat="54.36046" lon="-2.1946783"><ele>457.0</ele><time>2026-05-03T11:03:54.784Z</time></trkpt><trkpt lat="54.36038" lon="-2.1947367"><ele>457.00000000000006</ele><time>2026-05-03T11:03:55.783Z</time></trkpt><trkpt lat="54.3603017" lon="-2.1948017"><ele>457.00000000000006</ele><time>2026-05-03T11:03:56.784Z</time></trkpt><trkpt lat="54.3602217" lon="-2.194885"><ele>457.0</ele><time>2026-05-03T11:03:57.784Z</time></trkpt><trkpt lat="54.3601433" lon="-2.1949883"><ele>457.0</ele><time>2026-05-03T11:03:58.784Z</time></trkpt><trkpt lat="54.3600683" lon="-2.195105"><ele>459.8</ele><time>2026-05-03T11:03:59.785Z</time></trkpt><trkpt lat="54.35999" lon="-2.1952233"><ele>462.6</ele><time>2026-05-03T11:04:00.788Z</time></trkpt><trkpt lat="54.3599233" lon="-2.1953467"><ele>465.40000000000003</ele><time>2026-05-03T11:04:01.783Z</time></trkpt><trkpt lat="54.359875" lon="-2.1954833"><ele>468.20000000000005</ele><time>2026-05-03T11:04:02.782Z</time></trkpt><trkpt lat="54.35985" lon="-2.19564"><ele>471.0</ele><time>2026-05-03T11:04:03.783Z</time></trkpt><trkpt lat="54.3598317" lon="-2.1958183"><ele>472.5</ele><time>2026-05-03T11:04:04.787Z</time></trkpt><trkpt lat="54.3598033" lon="-2.1960133"><ele>474.0</ele><time>2026-05-03T11:04:05.787Z</time></trkpt><trkpt lat="54.3597583" lon="-2.1962183"><ele>475.5</ele><time>2026-05-03T11:04:06.783Z</time></trkpt><trkpt lat="54.35969" lon="-2.196445"><ele>477.0</ele><time>2026-05-03T11:04:07.788Z</time></trkpt><trkpt lat="54.3596083" lon="-2.19669"><ele>479.0</ele><time>2026-05-03T11:04:08.783Z</time></trkpt><trkpt lat="54.35952" lon="-2.1969467"><ele>481.0</ele><time>2026-05-03T11:04:09.782Z</time></trkpt><trkpt lat="54.3594267" lon="-2.1972017"><ele>483.0</ele><time>2026-05-03T11:04:10.786Z</time></trkpt><trkpt lat="54.3593283" lon="-2.1974667"><ele>486.33333333333337</ele><time>2026-05-03T11:04:11.785Z</time></trkpt><trkpt lat="54.3592367" lon="-2.197735"><ele>489.6666666666667</ele><time>2026-05-03T11:04:12.783Z</time></trkpt><trkpt lat="54.3591517" lon="-2.197995"><ele>493.0</ele><time>2026-05-03T11:04:13.784Z</time></trkpt><trkpt lat="54.3590617" lon="-2.198215"><ele>494.25</ele><time>2026-05-03T11:04:14.783Z</time></trkpt><trkpt lat="54.358955" lon="-2.1983917"><ele>495.5</ele><time>2026-05-03T11:04:15.785Z</time></trkpt><trkpt lat="54.3588383" lon="-2.198535"><ele>496.75</ele><time>2026-05-03T11:04:16.787Z</time></trkpt><trkpt lat="54.3587283" lon="-2.1986767"><ele>498.0</ele><time>2026-05-03T11:04:17.783Z</time></trkpt><trkpt lat="54.3586217" lon="-2.198835"><ele>501.75</ele><time>2026-05-03T11:04:18.783Z</time></trkpt><trkpt lat="54.35852" lon="-2.1990133"><ele>505.5</ele><time>2026-05-03T11:04:19.783Z</time></trkpt><trkpt lat="54.3584283" lon="-2.1991867"><ele>509.25</ele><time>2026-05-03T11:04:20.783Z</time></trkpt><trkpt lat="54.3583417" lon="-2.199355"><ele>513.0</ele><time>2026-05-03T11:04:21.783Z</time></trkpt><trkpt lat="54.3582567" lon="-2.199525"><ele>513.0</ele><time>2026-05-03T11:04:22.783Z</time></trkpt><trkpt lat="54.3581633" lon="-2.1996917"><ele>513.0</ele><time>2026-05-03T11:04:23.782Z</time></trkpt><trkpt lat="54.3580683" lon="-2.199835"><ele>513.0</ele><time>2026-05-03T11:04:24.784Z</time></trkpt><trkpt lat="54.35798" lon="-2.19997"><ele>513.0</ele><time>2026-05-03T11:04:25.784Z</time></trkpt><trkpt lat="54.3579" lon="-2.2000917"><ele>513.3333333333334</ele><time>2026-05-03T11:04:26.782Z</time></trkpt><trkpt lat="54.3578317" lon="-2.2001983"><ele>513.6666666666666</ele><time>2026-05-03T11:04:27.784Z</time></trkpt><trkpt lat="54.3577767" lon="-2.200295"><ele>514.0</ele><time>2026-05-03T11:04:28.787Z</time></trkpt><trkpt lat="54.3577367" lon="-2.2003883"><ele>514.3333333333333</ele><time>2026-05-03T11:04:29.787Z</time></trkpt><trkpt lat="54.3577067" lon="-2.2004867"><ele>514.6666666666666</ele><time>2026-05-03T11:04:30.784Z</time></trkpt><trkpt lat="54.357675" lon="-2.2006"><ele>515.0</ele><time>2026-05-03T11:04:31.788Z</time></trkpt><trkpt lat="54.3576383" lon="-2.2007367"><ele>516.75</ele><time>2026-05-03T11:04:32.783Z</time></trkpt><trkpt lat="54.3575983" lon="-2.2008917"><ele>518.5</ele><time>2026-05-03T11:04:33.782Z</time></trkpt><trkpt lat="54.3575517" lon="-2.2010767"><ele>520.25</ele><time>2026-05-03T11:04:34.788Z</time></trkpt><trkpt lat="54.3574983" lon="-2.2012883"><ele>522.0</ele><time>2026-05-03T11:04:35.784Z</time></trkpt><trkpt lat="54.357435" lon="-2.2015167"><ele>523.0</ele><time>2026-05-03T11:04:36.783Z</time></trkpt><trkpt lat="54.35736" lon="-2.2017533"><ele>524.0</ele><time>2026-05-03T11:04:37.783Z</time></trkpt><trkpt lat="54.35727" lon="-2.201985"><ele>525.0</ele><time>2026-05-03T11:04:38.783Z</time></trkpt><trkpt lat="54.35717" lon="-2.202195"><ele>524.75</ele><time>2026-05-03T11:04:39.784Z</time></trkpt><trkpt lat="54.3570733" lon="-2.2023883"><ele>524.5</ele><time>2026-05-03T11:04:40.788Z</time></trkpt><trkpt lat="54.356985" lon="-2.2025667"><ele>524.25</ele><time>2026-05-03T11:04:41.784Z</time></trkpt><trkpt lat="54.3569" lon="-2.2027417"><ele>524.0</ele><time>2026-05-03T11:04:42.782Z</time></trkpt><trkpt lat="54.3568083" lon="-2.202925"><ele>524.0</ele><time>2026-05-03T11:04:43.783Z</time></trkpt><trkpt lat="54.356705" lon="-2.2031183"><ele>524.0</ele><time>2026-05-03T11:04:44.783Z</time></trkpt><trkpt lat="54.3565867" lon="-2.2033167"><ele>524.0</ele><time>2026-05-03T11:04:45.783Z</time></trkpt><trkpt lat="54.3564517" lon="-2.2035067"><ele>524.3333333333333</ele><time>2026-05-03T11:04:46.783Z</time></trkpt><trkpt lat="54.356305" lon="-2.2036933"><ele>524.6666666666666</ele><time>2026-05-03T11:04:47.784Z</time></trkpt><trkpt lat="54.35615" lon="-2.2038817"><ele>525.0</ele><time>2026-05-03T11:04:48.784Z</time></trkpt><trkpt lat="54.3559883" lon="-2.2040783"><ele>525.0</ele><time>2026-05-03T11:04:49.784Z</time></trkpt><trkpt lat="54.3558383" lon="-2.2042617"><ele>525.0</ele><time>2026-05-03T11:04:50.783Z</time></trkpt><trkpt lat="54.3556917" lon="-2.2044117"><ele>525.0</ele><time>2026-05-03T11:04:51.783Z</time></trkpt><trkpt lat="54.3555567" lon="-2.2045333"><ele>525.2</ele><time>2026-05-03T11:04:52.783Z</time></trkpt><trkpt lat="54.3554367" lon="-2.2046367"><ele>525.4</ele><time>2026-05-03T11:04:53.784Z</time></trkpt><trkpt lat="54.3553317" lon="-2.2047267"><ele>525.6</ele><time>2026-05-03T11:04:54.785Z</time></trkpt><trkpt lat="54.3552383" lon="-2.2047917"><ele>525.8</ele><time>2026-05-03T11:04:55.783Z</time></trkpt><trkpt lat="54.3551517" lon="-2.204835"><ele>526.0</ele><time>2026-05-03T11:04:56.784Z</time></trkpt><trkpt lat="54.3550667" lon="-2.20486"><ele>526.0</ele><time>2026-05-03T11:04:57.783Z</time></trkpt><trkpt lat="54.35498" lon="-2.2048833"><ele>526.0</ele><time>2026-05-03T11:04:58.788Z</time></trkpt><trkpt lat="54.3548867" lon="-2.2049017"><ele>526.0</ele><time>2026-05-03T11:04:59.787Z</time></trkpt><trkpt lat="54.354795" lon="-2.2049217"><ele>526.0</ele><time>2026-05-03T11:05:00.783Z</time></trkpt><trkpt lat="54.3547183" lon="-2.2049433"><ele>526.0</ele><time>2026-05-03T11:05:01.788Z</time></trkpt><trkpt lat="54.3546133" lon="-2.20496"><ele>525.3333333333334</ele><time>2026-05-03T11:05:03.788Z</time></trkpt><trkpt lat="54.3545367" lon="-2.20495"><ele>524.6666666666667</ele><time>2026-05-03T11:05:35.786Z</time></trkpt><trkpt lat="54.3544617" lon="-2.20504"><ele>524.0</ele><time>2026-05-03T11:05:39.785Z</time></trkpt><trkpt lat="54.35437" lon="-2.2051283"><ele>523.3333333333334</ele><time>2026-05-03T11:05:41.784Z</time></trkpt><trkpt lat="54.3543017" lon="-2.2051883"><ele>522.6666666666666</ele><time>2026-05-03T11:05:42.788Z</time></trkpt><trkpt lat="54.35421" lon="-2.205245"><ele>522.0</ele><time>2026-05-03T11:05:43.787Z</time></trkpt><trkpt lat="54.3541217" lon="-2.205295"><ele>522.0</ele><time>2026-05-03T11:05:44.786Z</time></trkpt><trkpt lat="54.354035" lon="-2.2053383"><ele>522.0</ele><time>2026-05-03T11:05:45.787Z</time></trkpt><trkpt lat="54.3539433" lon="-2.2053817"><ele>522.0</ele><time>2026-05-03T11:05:46.787Z</time></trkpt><trkpt lat="54.3538233" lon="-2.2054133"><ele>522.0</ele><time>2026-05-03T11:05:47.784Z</time></trkpt><trkpt lat="54.3536917" lon="-2.20544"><ele>522.0</ele><time>2026-05-03T11:05:48.784Z</time></trkpt><trkpt lat="54.3535283" lon="-2.2054667"><ele>520.3333333333334</ele><time>2026-05-03T11:05:49.784Z</time></trkpt><trkpt lat="54.3533483" lon="-2.2054967"><ele>518.6666666666667</ele><time>2026-05-03T11:05:50.783Z</time></trkpt><trkpt lat="54.3531583" lon="-2.2055217"><ele>517.0</ele><time>2026-05-03T11:05:51.783Z</time></trkpt><trkpt lat="54.3529583" lon="-2.2055383"><ele>516.3333333333334</ele><time>2026-05-03T11:05:52.783Z</time></trkpt><trkpt lat="54.3527533" lon="-2.2055517"><ele>515.6666666666666</ele><time>2026-05-03T11:05:53.784Z</time></trkpt><trkpt lat="54.3525367" lon="-2.2055583"><ele>515.0</ele><time>2026-05-03T11:05:54.787Z</time></trkpt><trkpt lat="54.3523183" lon="-2.2055567"><ele>514.3333333333333</ele><time>2026-05-03T11:05:55.784Z</time></trkpt><trkpt lat="54.3521033" lon="-2.20554"><ele>513.6666666666666</ele><time>2026-05-03T11:05:56.787Z</time></trkpt><trkpt lat="54.351905" lon="-2.205515"><ele>513.0</ele><time>2026-05-03T11:05:57.784Z</time></trkpt><trkpt lat="54.3517267" lon="-2.2054883"><ele>513.0</ele><time>2026-05-03T11:05:58.786Z</time></trkpt><trkpt lat="54.3515633" lon="-2.20546"><ele>513.0</ele><time>2026-05-03T11:05:59.784Z</time></trkpt><trkpt lat="54.3514" lon="-2.2054183"><ele>513.0</ele><time>2026-05-03T11:06:00.787Z</time></trkpt><trkpt lat="54.35123" lon="-2.20536"><ele>512.6666666666666</ele><time>2026-05-03T11:06:01.784Z</time></trkpt><trkpt lat="54.3510583" lon="-2.20528"><ele>512.3333333333333</ele><time>2026-05-03T11:06:02.786Z</time></trkpt><trkpt lat="54.3508867" lon="-2.2051867"><ele>512.0</ele><time>2026-05-03T11:06:03.785Z</time></trkpt><trkpt lat="54.350715" lon="-2.2050867"><ele>512.0</ele><time>2026-05-03T11:06:04.787Z</time></trkpt><trkpt lat="54.350545" lon="-2.2049833"><ele>512.0</ele><time>2026-05-03T11:06:05.787Z</time></trkpt><trkpt lat="54.35038" lon="-2.2049017"><ele>512.0</ele><time>2026-05-03T11:06:06.784Z</time></trkpt><trkpt lat="54.3502133" lon="-2.20484"><ele>513.25</ele><time>2026-05-03T11:06:07.787Z</time></trkpt><trkpt lat="54.3500567" lon="-2.2048067"><ele>514.5</ele><time>2026-05-03T11:06:08.787Z</time></trkpt><trkpt lat="54.3499083" lon="-2.2047717"><ele>515.75</ele><time>2026-05-03T11:06:09.784Z</time></trkpt><trkpt lat="54.3497683" lon="-2.2047333"><ele>517.0</ele><time>2026-05-03T11:06:10.787Z</time></trkpt><trkpt lat="54.3496267" lon="-2.2046817"><ele>517.0</ele><time>2026-05-03T11:06:11.787Z</time></trkpt><trkpt lat="54.3494733" lon="-2.20462"><ele>517.0</ele><time>2026-05-03T11:06:12.783Z</time></trkpt><trkpt lat="54.3493083" lon="-2.2045583"><ele>517.0</ele><time>2026-05-03T11:06:13.784Z</time></trkpt><trkpt lat="54.3491283" lon="-2.204505"><ele>517.0</ele><time>2026-05-03T11:06:14.783Z</time></trkpt><trkpt lat="54.348935" lon="-2.2044567"><ele>517.0</ele><time>2026-05-03T11:06:15.783Z</time></trkpt><trkpt lat="54.3487367" lon="-2.2044133"><ele>517.0</ele><time>2026-05-03T11:06:16.786Z</time></trkpt><trkpt lat="54.3485333" lon="-2.2043683"><ele>516.0</ele><time>2026-05-03T11:06:17.786Z</time></trkpt><trkpt lat="54.34833" lon="-2.204315"><ele>515.0</ele><time>2026-05-03T11:06:18.786Z</time></trkpt><trkpt lat="54.3481283" lon="-2.204255"><ele>514.0</ele><time>2026-05-03T11:06:19.784Z</time></trkpt><trkpt lat="54.3479267" lon="-2.2041933"><ele>512.0</ele><time>2026-05-03T11:06:20.784Z</time></trkpt><trkpt lat="54.34773" lon="-2.2041333"><ele>510.0</ele><time>2026-05-03T11:06:21.785Z</time></trkpt><trkpt lat="54.34754" lon="-2.204075"><ele>508.0</ele><time>2026-05-03T11:06:22.785Z</time></trkpt><trkpt lat="54.347355" lon="-2.2040167"><ele>510.33333333333337</ele><time>2026-05-03T11:06:23.783Z</time></trkpt><trkpt lat="54.34718" lon="-2.2039533"><ele>512.6666666666666</ele><time>2026-05-03T11:06:24.787Z</time></trkpt><trkpt lat="54.3470017" lon="-2.2038883"><ele>515.0</ele><time>2026-05-03T11:06:25.787Z</time></trkpt><trkpt lat="54.34681" lon="-2.2038267"><ele>515.0</ele><time>2026-05-03T11:06:26.784Z</time></trkpt><trkpt lat="54.34661" lon="-2.203765"><ele>515.0</ele><time>2026-05-03T11:06:27.783Z</time></trkpt><trkpt lat="54.3464067" lon="-2.2037217"><ele>515.0</ele><time>2026-05-03T11:06:28.784Z</time></trkpt><trkpt lat="54.3461983" lon="-2.2037083"><ele>514.3333333333333</ele><time>2026-05-03T11:06:29.783Z</time></trkpt><trkpt lat="54.3459917" lon="-2.2037233"><ele>513.6666666666666</ele><time>2026-05-03T11:06:30.786Z</time></trkpt><trkpt lat="54.3457833" lon="-2.2037583"><ele>513.0</ele><time>2026-05-03T11:06:31.784Z</time></trkpt><trkpt lat="54.3455783" lon="-2.2038117"><ele>514.3333333333334</ele><time>2026-05-03T11:06:32.783Z</time></trkpt><trkpt lat="54.345375" lon="-2.2038717"><ele>515.6666666666667</ele><time>2026-05-03T11:06:33.782Z</time></trkpt><trkpt lat="54.345185" lon="-2.2039233"><ele>517.0</ele><time>2026-05-03T11:06:34.784Z</time></trkpt><trkpt lat="54.3450117" lon="-2.2039783"><ele>514.6666666666667</ele><time>2026-05-03T11:06:35.785Z</time></trkpt><trkpt lat="54.344845" lon="-2.2040467"><ele>512.3333333333334</ele><time>2026-05-03T11:06:36.784Z</time></trkpt><trkpt lat="54.34468" lon="-2.2041583"><ele>510.0</ele><time>2026-05-03T11:06:37.787Z</time></trkpt><trkpt lat="54.3445167" lon="-2.2042983"><ele>510.0</ele><time>2026-05-03T11:06:38.787Z</time></trkpt><trkpt lat="54.3443467" lon="-2.204465"><ele>510.0</ele><time>2026-05-03T11:06:39.787Z</time></trkpt><trkpt lat="54.3441767" lon="-2.204655"><ele>510.0</ele><time>2026-05-03T11:06:40.785Z</time></trkpt><trkpt lat="54.3440067" lon="-2.2048533"><ele>506.33333333333337</ele><time>2026-05-03T11:06:41.784Z</time></trkpt><trkpt lat="54.3438283" lon="-2.2050533"><ele>502.6666666666667</ele><time>2026-05-03T11:06:42.787Z</time></trkpt><trkpt lat="54.343645" lon="-2.2052517"><ele>499.0</ele><time>2026-05-03T11:06:43.783Z</time></trkpt><trkpt lat="54.3434617" lon="-2.2054367"><ele>499.0</ele><time>2026-05-03T11:06:44.784Z</time></trkpt><trkpt lat="54.34328" lon="-2.2056117"><ele>499.0</ele><time>2026-05-03T11:06:45.784Z</time></trkpt><trkpt lat="54.3431" lon="-2.2057733"><ele>499.0</ele><time>2026-05-03T11:06:46.783Z</time></trkpt><trkpt lat="54.3429317" lon="-2.2059367"><ele>497.0</ele><time>2026-05-03T11:06:47.787Z</time></trkpt><trkpt lat="54.3427767" lon="-2.2060833"><ele>495.0</ele><time>2026-05-03T11:06:48.786Z</time></trkpt><trkpt lat="54.342625" lon="-2.2062233"><ele>493.0</ele><time>2026-05-03T11:06:49.784Z</time></trkpt><trkpt lat="54.3424733" lon="-2.2063633"><ele>489.33333333333337</ele><time>2026-05-03T11:06:50.783Z</time></trkpt><trkpt lat="54.3423167" lon="-2.2064967"><ele>485.66666666666663</ele><time>2026-05-03T11:06:51.787Z</time></trkpt><trkpt lat="54.3421567" lon="-2.2066333"><ele>482.0</ele><time>2026-05-03T11:06:52.787Z</time></trkpt><trkpt lat="54.3419967" lon="-2.2067733"><ele>482.0</ele><time>2026-05-03T11:06:53.784Z</time></trkpt><trkpt lat="54.3418217" lon="-2.2069017"><ele>482.0</ele><time>2026-05-03T11:06:54.785Z</time></trkpt><trkpt lat="54.34163" lon="-2.2070117"><ele>482.0</ele><time>2026-05-03T11:06:55.788Z</time></trkpt><trkpt lat="54.341445" lon="-2.2071067"><ele>482.3333333333333</ele><time>2026-05-03T11:06:56.787Z</time></trkpt><trkpt lat="54.3412733" lon="-2.2071933"><ele>482.66666666666663</ele><time>2026-05-03T11:06:57.784Z</time></trkpt><trkpt lat="54.341115" lon="-2.20727"><ele>483.0</ele><time>2026-05-03T11:06:58.784Z</time></trkpt><trkpt lat="54.3409533" lon="-2.2073517"><ele>480.66666666666663</ele><time>2026-05-03T11:06:59.784Z</time></trkpt><trkpt lat="54.3407867" lon="-2.2074317"><ele>478.3333333333333</ele><time>2026-05-03T11:07:00.783Z</time></trkpt><trkpt lat="54.340615" lon="-2.20752"><ele>476.0</ele><time>2026-05-03T11:07:01.784Z</time></trkpt><trkpt lat="54.3404467" lon="-2.2076"><ele>476.0</ele><time>2026-05-03T11:07:02.787Z</time></trkpt><trkpt lat="54.340285" lon="-2.2076817"><ele>476.0</ele><time>2026-05-03T11:07:03.786Z</time></trkpt><trkpt lat="54.3401267" lon="-2.2077633"><ele>476.0</ele><time>2026-05-03T11:07:04.787Z</time></trkpt><trkpt lat="54.3399767" lon="-2.20783"><ele>476.0</ele><time>2026-05-03T11:07:05.783Z</time></trkpt><trkpt lat="54.3398383" lon="-2.20788"><ele>476.0</ele><time>2026-05-03T11:07:06.787Z</time></trkpt><trkpt lat="54.3397067" lon="-2.2079067"><ele>476.0</ele><time>2026-05-03T11:07:07.785Z</time></trkpt><trkpt lat="54.33958" lon="-2.2079183"><ele>476.0</ele><time>2026-05-03T11:07:08.783Z</time></trkpt><trkpt lat="54.3394433" lon="-2.2078933"><ele>475.5</ele><time>2026-05-03T11:07:09.783Z</time></trkpt><trkpt lat="54.33931" lon="-2.207845"><ele>475.0</ele><time>2026-05-03T11:07:10.784Z</time></trkpt><trkpt lat="54.3391867" lon="-2.2077833"><ele>474.5</ele><time>2026-05-03T11:07:11.786Z</time></trkpt><trkpt lat="54.3390767" lon="-2.2077283"><ele>474.0</ele><time>2026-05-03T11:07:12.79Z</time></trkpt><trkpt lat="54.338995" lon="-2.2076833"><ele>474.0</ele><time>2026-05-03T11:07:13.787Z</time></trkpt><trkpt lat="54.3388967" lon="-2.2076483"><ele>474.0</ele><time>2026-05-03T11:07:15.786Z</time></trkpt><trkpt lat="54.33896" lon="-2.2077"><ele>474.0</ele><time>2026-05-03T11:07:34.783Z</time></trkpt><trkpt lat="54.3390283" lon="-2.2077167"><ele>474.0</ele><time>2026-05-03T11:07:36.787Z</time></trkpt><trkpt lat="54.3390867" lon="-2.2078017"><ele>474.0</ele><time>2026-05-03T11:07:39.787Z</time></trkpt><trkpt lat="54.33915" lon="-2.2078467"><ele>474.0</ele><time>2026-05-03T11:07:42.787Z</time></trkpt><trkpt lat="54.3392483" lon="-2.20772"><ele>474.0</ele><time>2026-05-03T11:18:30.282Z</time></trkpt><trkpt lat="54.3391617" lon="-2.207675"><ele>474.0</ele><time>2026-05-03T11:18:36.783Z</time></trkpt><trkpt lat="54.3390567" lon="-2.2076383"><ele>474.0</ele><time>2026-05-03T11:18:38.784Z</time></trkpt><trkpt lat="54.33899" lon="-2.2076267"><ele>474.0</ele><time>2026-05-03T11:18:39.784Z</time></trkpt><trkpt lat="54.3389083" lon="-2.207625"><ele>474.0</ele><time>2026-05-03T11:18:40.783Z</time></trkpt><trkpt lat="54.3388133" lon="-2.2076417"><ele>474.0</ele><time>2026-05-03T11:18:41.784Z</time></trkpt><trkpt lat="54.3387" lon="-2.20768"><ele>473.33333333333337</ele><time>2026-05-03T11:18:42.784Z</time></trkpt><trkpt lat="54.3385717" lon="-2.2077317"><ele>472.6666666666667</ele><time>2026-05-03T11:18:43.784Z</time></trkpt><trkpt lat="54.3384233" lon="-2.2077967"><ele>472.0</ele><time>2026-05-03T11:18:44.784Z</time></trkpt><trkpt lat="54.3382633" lon="-2.2078667"><ele>472.0</ele><time>2026-05-03T11:18:45.782Z</time></trkpt><trkpt lat="54.3380967" lon="-2.2079333"><ele>472.0</ele><time>2026-05-03T11:18:46.784Z</time></trkpt><trkpt lat="54.3379233" lon="-2.2080083"><ele>472.0</ele><time>2026-05-03T11:18:47.783Z</time></trkpt><trkpt lat="54.3377533" lon="-2.2080833"><ele>469.0</ele><time>2026-05-03T11:18:48.784Z</time></trkpt><trkpt lat="54.3375883" lon="-2.20816"><ele>466.0</ele><time>2026-05-03T11:18:49.784Z</time></trkpt><trkpt lat="54.337425" lon="-2.2082317"><ele>463.0</ele><time>2026-05-03T11:18:50.784Z</time></trkpt><trkpt lat="54.3372717" lon="-2.2082883"><ele>462.0</ele><time>2026-05-03T11:18:51.784Z</time></trkpt><trkpt lat="54.3371133" lon="-2.2083217"><ele>461.0</ele><time>2026-05-03T11:18:52.783Z</time></trkpt><trkpt lat="54.336945" lon="-2.2083433"><ele>460.0</ele><time>2026-05-03T11:18:53.785Z</time></trkpt><trkpt lat="54.3367667" lon="-2.2083583"><ele>460.0</ele><time>2026-05-03T11:18:54.783Z</time></trkpt><trkpt lat="54.33658" lon="-2.2083733"><ele>460.0</ele><time>2026-05-03T11:18:55.784Z</time></trkpt><trkpt lat="54.3363967" lon="-2.20839"><ele>460.0</ele><time>2026-05-03T11:18:56.783Z</time></trkpt><trkpt lat="54.3362367" lon="-2.2084117"><ele>459.75</ele><time>2026-05-03T11:18:57.783Z</time></trkpt><trkpt lat="54.33609" lon="-2.2084367"><ele>459.5</ele><time>2026-05-03T11:18:58.784Z</time></trkpt><trkpt lat="54.335945" lon="-2.20847"><ele>459.25</ele><time>2026-05-03T11:18:59.784Z</time></trkpt><trkpt lat="54.3357933" lon="-2.20853"><ele>459.0</ele><time>2026-05-03T11:19:00.785Z</time></trkpt><trkpt lat="54.3356333" lon="-2.20862"><ele>457.66666666666663</ele><time>2026-05-03T11:19:01.783Z</time></trkpt><trkpt lat="54.33547" lon="-2.20872"><ele>456.3333333333333</ele><time>2026-05-03T11:19:02.784Z</time></trkpt><trkpt lat="54.3353067" lon="-2.2088217"><ele>455.0</ele><time>2026-05-03T11:19:03.783Z</time></trkpt><trkpt lat="54.3351517" lon="-2.2089083"><ele>455.0</ele><time>2026-05-03T11:19:04.784Z</time></trkpt><trkpt lat="54.3350033" lon="-2.2089733"><ele>455.0</ele><time>2026-05-03T11:19:05.783Z</time></trkpt><trkpt lat="54.3348417" lon="-2.2090217"><ele>455.0</ele><time>2026-05-03T11:19:06.784Z</time></trkpt><trkpt lat="54.3346633" lon="-2.20905"><ele>448.3333333333333</ele><time>2026-05-03T11:19:07.783Z</time></trkpt><trkpt lat="54.3344767" lon="-2.2090583"><ele>441.66666666666663</ele><time>2026-05-03T11:19:08.784Z</time></trkpt><trkpt lat="54.3342967" lon="-2.2090483"><ele>435.0</ele><time>2026-05-03T11:19:09.783Z</time></trkpt><trkpt lat="54.3341233" lon="-2.2090283"><ele>435.0</ele><time>2026-05-03T11:19:10.784Z</time></trkpt><trkpt lat="54.33395" lon="-2.2090017"><ele>435.0</ele><time>2026-05-03T11:19:11.784Z</time></trkpt><trkpt lat="54.333775" lon="-2.2089633"><ele>435.0</ele><time>2026-05-03T11:19:12.784Z</time></trkpt><trkpt lat="54.3336067" lon="-2.20891"><ele>436.33333333333337</ele><time>2026-05-03T11:19:13.784Z</time></trkpt><trkpt lat="54.3334383" lon="-2.2088467"><ele>437.6666666666667</ele><time>2026-05-03T11:19:14.783Z</time></trkpt><trkpt lat="54.3332617" lon="-2.2087733"><ele>439.0</ele><time>2026-05-03T11:19:15.785Z</time></trkpt><trkpt lat="54.33308" lon="-2.2087017"><ele>436.0</ele><time>2026-05-03T11:19:16.783Z</time></trkpt><trkpt lat="54.33289" lon="-2.20861"><ele>433.0</ele><time>2026-05-03T11:19:17.784Z</time></trkpt><trkpt lat="54.332705" lon="-2.2084983"><ele>430.0</ele><time>2026-05-03T11:19:18.784Z</time></trkpt><trkpt lat="54.3325217" lon="-2.2083733"><ele>430.0</ele><time>2026-05-03T11:19:19.784Z</time></trkpt><trkpt lat="54.3323417" lon="-2.208255"><ele>430.0</ele><time>2026-05-03T11:19:20.784Z</time></trkpt><trkpt lat="54.3321667" lon="-2.208135"><ele>430.0</ele><time>2026-05-03T11:19:21.784Z</time></trkpt><trkpt lat="54.332" lon="-2.20802"><ele>428.6666666666667</ele><time>2026-05-03T11:19:22.783Z</time></trkpt><trkpt lat="54.331845" lon="-2.2079183"><ele>427.33333333333337</ele><time>2026-05-03T11:19:23.785Z</time></trkpt><trkpt lat="54.3316817" lon="-2.2078333"><ele>426.0</ele><time>2026-05-03T11:19:24.784Z</time></trkpt><trkpt lat="54.33152" lon="-2.2077583"><ele>422.0</ele><time>2026-05-03T11:19:25.784Z</time></trkpt><trkpt lat="54.3313633" lon="-2.2077033"><ele>418.0</ele><time>2026-05-03T11:19:26.784Z</time></trkpt><trkpt lat="54.3312167" lon="-2.207665"><ele>414.0</ele><time>2026-05-03T11:19:27.783Z</time></trkpt><trkpt lat="54.331075" lon="-2.2076333"><ele>414.0</ele><time>2026-05-03T11:19:28.784Z</time></trkpt><trkpt lat="54.330935" lon="-2.2076067"><ele>414.0</ele><time>2026-05-03T11:19:29.784Z</time></trkpt><trkpt lat="54.3307983" lon="-2.207585"><ele>414.0</ele><time>2026-05-03T11:19:30.784Z</time></trkpt><trkpt lat="54.3306667" lon="-2.20756"><ele>414.0</ele><time>2026-05-03T11:19:31.784Z</time></trkpt><trkpt lat="54.33054" lon="-2.2075333"><ele>412.75</ele><time>2026-05-03T11:19:32.787Z</time></trkpt><trkpt lat="54.33041" lon="-2.20749"><ele>411.5</ele><time>2026-05-03T11:19:33.783Z</time></trkpt><trkpt lat="54.3302767" lon="-2.20744"><ele>410.25</ele><time>2026-05-03T11:19:34.787Z</time></trkpt><trkpt lat="54.330145" lon="-2.2073817"><ele>409.0</ele><time>2026-05-03T11:19:35.789Z</time></trkpt><trkpt lat="54.3300117" lon="-2.207325"><ele>409.0</ele><time>2026-05-03T11:19:36.786Z</time></trkpt><trkpt lat="54.3298767" lon="-2.20729"><ele>409.0</ele><time>2026-05-03T11:19:37.788Z</time></trkpt><trkpt lat="54.3297433" lon="-2.20728"><ele>409.0</ele><time>2026-05-03T11:19:38.787Z</time></trkpt><trkpt lat="54.3296033" lon="-2.2072633"><ele>409.0</ele><time>2026-05-03T11:19:39.788Z</time></trkpt><trkpt lat="54.3294583" lon="-2.2072167"><ele>402.33333333333337</ele><time>2026-05-03T11:19:40.784Z</time></trkpt><trkpt lat="54.3293067" lon="-2.2071433"><ele>395.66666666666663</ele><time>2026-05-03T11:19:41.789Z</time></trkpt><trkpt lat="54.3291633" lon="-2.207055"><ele>389.0</ele><time>2026-05-03T11:19:42.788Z</time></trkpt><trkpt lat="54.3290333" lon="-2.2069583"><ele>389.0</ele><time>2026-05-03T11:19:43.788Z</time></trkpt><trkpt lat="54.3289" lon="-2.20684"><ele>389.0</ele><time>2026-05-03T11:19:44.787Z</time></trkpt><trkpt lat="54.32877" lon="-2.2066883"><ele>389.0</ele><time>2026-05-03T11:19:45.788Z</time></trkpt><trkpt lat="54.3286467" lon="-2.2065267"><ele>385.0</ele><time>2026-05-03T11:19:46.787Z</time></trkpt><trkpt lat="54.3285217" lon="-2.2063633"><ele>381.0</ele><time>2026-05-03T11:19:47.783Z</time></trkpt><trkpt lat="54.3283817" lon="-2.2062033"><ele>377.0</ele><time>2026-05-03T11:19:48.786Z</time></trkpt><trkpt lat="54.3282317" lon="-2.2060367"><ele>377.0</ele><time>2026-05-03T11:19:49.788Z</time></trkpt><trkpt lat="54.328075" lon="-2.2058683"><ele>377.0</ele><time>2026-05-03T11:19:50.786Z</time></trkpt><trkpt lat="54.3279167" lon="-2.2057083"><ele>377.0</ele><time>2026-05-03T11:19:51.787Z</time></trkpt><trkpt lat="54.3277567" lon="-2.205555"><ele>373.33333333333337</ele><time>2026-05-03T11:19:52.786Z</time></trkpt><trkpt lat="54.3276" lon="-2.2054033"><ele>369.6666666666667</ele><time>2026-05-03T11:19:53.786Z</time></trkpt><trkpt lat="54.3274533" lon="-2.2052633"><ele>366.0</ele><time>2026-05-03T11:19:54.787Z</time></trkpt><trkpt lat="54.327325" lon="-2.20514"><ele>361.75</ele><time>2026-05-03T11:19:55.787Z</time></trkpt><trkpt lat="54.3272" lon="-2.2050283"><ele>357.5</ele><time>2026-05-03T11:19:56.785Z</time></trkpt><trkpt lat="54.3270783" lon="-2.20494"><ele>353.25</ele><time>2026-05-03T11:19:57.785Z</time></trkpt><trkpt lat="54.3269667" lon="-2.204875"><ele>349.0</ele><time>2026-05-03T11:19:58.785Z</time></trkpt><trkpt lat="54.3268517" lon="-2.2048317"><ele>349.0</ele><time>2026-05-03T11:19:59.787Z</time></trkpt><trkpt lat="54.3267283" lon="-2.2048217"><ele>349.0</ele><time>2026-05-03T11:20:00.787Z</time></trkpt><trkpt lat="54.3265917" lon="-2.2048483"><ele>349.0</ele><time>2026-05-03T11:20:01.783Z</time></trkpt><trkpt lat="54.326455" lon="-2.20488"><ele>349.0</ele><time>2026-05-03T11:20:02.784Z</time></trkpt><trkpt lat="54.326325" lon="-2.2049033"><ele>345.25</ele><time>2026-05-03T11:20:03.784Z</time></trkpt><trkpt lat="54.3262067" lon="-2.20492"><ele>341.5</ele><time>2026-05-03T11:20:04.785Z</time></trkpt><trkpt lat="54.326095" lon="-2.2049333"><ele>337.75</ele><time>2026-05-03T11:20:05.785Z</time></trkpt><trkpt lat="54.3259867" lon="-2.20491"><ele>334.0</ele><time>2026-05-03T11:20:06.785Z</time></trkpt><trkpt lat="54.3258817" lon="-2.2048433"><ele>336.0</ele><time>2026-05-03T11:20:07.786Z</time></trkpt><trkpt lat="54.32579" lon="-2.2047333"><ele>338.0</ele><time>2026-05-03T11:20:08.785Z</time></trkpt><trkpt lat="54.325695" lon="-2.204565"><ele>340.0</ele><time>2026-05-03T11:20:09.788Z</time></trkpt><trkpt lat="54.32561" lon="-2.2043783"><ele>342.0</ele><time>2026-05-03T11:20:10.786Z</time></trkpt><trkpt lat="54.3255117" lon="-2.20419"><ele>339.5</ele><time>2026-05-03T11:20:11.782Z</time></trkpt><trkpt lat="54.3254067" lon="-2.2040067"><ele>337.0</ele><time>2026-05-03T11:20:12.784Z</time></trkpt><trkpt lat="54.3253" lon="-2.2038333"><ele>334.5</ele><time>2026-05-03T11:20:13.788Z</time></trkpt><trkpt lat="54.325195" lon="-2.20367"><ele>332.0</ele><time>2026-05-03T11:20:14.787Z</time></trkpt><trkpt lat="54.3250933" lon="-2.2035133"><ele>332.0</ele><time>2026-05-03T11:20:15.784Z</time></trkpt><trkpt lat="54.32499" lon="-2.2033617"><ele>332.0</ele><time>2026-05-03T11:20:16.784Z</time></trkpt><trkpt lat="54.3248817" lon="-2.2032183"><ele>332.0</ele><time>2026-05-03T11:20:17.785Z</time></trkpt><trkpt lat="54.324755" lon="-2.2030867"><ele>332.0</ele><time>2026-05-03T11:20:18.785Z</time></trkpt><trkpt lat="54.3246117" lon="-2.2029783"><ele>329.33333333333337</ele><time>2026-05-03T11:20:19.785Z</time></trkpt><trkpt lat="54.3244633" lon="-2.2028867"><ele>326.6666666666667</ele><time>2026-05-03T11:20:20.788Z</time></trkpt><trkpt lat="54.3243083" lon="-2.20282"><ele>324.0</ele><time>2026-05-03T11:20:21.784Z</time></trkpt><trkpt lat="54.324155" lon="-2.2027533"><ele>324.0</ele><time>2026-05-03T11:20:22.784Z</time></trkpt><trkpt lat="54.32401" lon="-2.2026667"><ele>324.0</ele><time>2026-05-03T11:20:23.784Z</time></trkpt><trkpt lat="54.3238683" lon="-2.2025717"><ele>324.0</ele><time>2026-05-03T11:20:24.785Z</time></trkpt><trkpt lat="54.323735" lon="-2.20248"><ele>324.0</ele><time>2026-05-03T11:20:25.784Z</time></trkpt><trkpt lat="54.3236167" lon="-2.2024067"><ele>322.5</ele><time>2026-05-03T11:20:26.787Z</time></trkpt><trkpt lat="54.32351" lon="-2.2023533"><ele>321.0</ele><time>2026-05-03T11:20:27.783Z</time></trkpt><trkpt lat="54.3234" lon="-2.2023217"><ele>319.5</ele><time>2026-05-03T11:20:28.785Z</time></trkpt><trkpt lat="54.3232817" lon="-2.20232"><ele>318.0</ele><time>2026-05-03T11:20:29.784Z</time></trkpt><trkpt lat="54.323155" lon="-2.2023467"><ele>315.2</ele><time>2026-05-03T11:20:30.785Z</time></trkpt><trkpt lat="54.3230283" lon="-2.20238"><ele>312.4</ele><time>2026-05-03T11:20:31.786Z</time></trkpt><trkpt lat="54.3229083" lon="-2.2024133"><ele>309.59999999999997</ele><time>2026-05-03T11:20:32.785Z</time></trkpt><trkpt lat="54.322805" lon="-2.2024317"><ele>306.8</ele><time>2026-05-03T11:20:33.784Z</time></trkpt><trkpt lat="54.3227133" lon="-2.2024333"><ele>304.0</ele><time>2026-05-03T11:20:34.787Z</time></trkpt><trkpt lat="54.3226267" lon="-2.2023983"><ele>303.4</ele><time>2026-05-03T11:20:35.785Z</time></trkpt><trkpt lat="54.3225467" lon="-2.20233"><ele>302.79999999999995</ele><time>2026-05-03T11:20:36.785Z</time></trkpt><trkpt lat="54.3224667" lon="-2.2022167"><ele>302.20000000000005</ele><time>2026-05-03T11:20:37.785Z</time></trkpt><trkpt lat="54.322385" lon="-2.2020683"><ele>301.6</ele><time>2026-05-03T11:20:38.786Z</time></trkpt><trkpt lat="54.3222817" lon="-2.201925"><ele>301.0</ele><time>2026-05-03T11:20:39.785Z</time></trkpt><trkpt lat="54.32218" lon="-2.201795"><ele>301.0</ele><time>2026-05-03T11:20:40.786Z</time></trkpt><trkpt lat="54.3220733" lon="-2.2016667"><ele>301.0</ele><time>2026-05-03T11:20:41.785Z</time></trkpt><trkpt lat="54.3219417" lon="-2.20156"><ele>301.0</ele><time>2026-05-03T11:20:42.786Z</time></trkpt><trkpt lat="54.3218" lon="-2.2014783"><ele>301.0</ele><time>2026-05-03T11:20:43.786Z</time></trkpt><trkpt lat="54.3216467" lon="-2.201415"><ele>300.3333333333333</ele><time>2026-05-03T11:20:44.785Z</time></trkpt><trkpt lat="54.321475" lon="-2.201375"><ele>299.6666666666667</ele><time>2026-05-03T11:20:45.785Z</time></trkpt><trkpt lat="54.321295" lon="-2.2013417"><ele>299.0</ele><time>2026-05-03T11:20:46.785Z</time></trkpt><trkpt lat="54.321125" lon="-2.2013067"><ele>299.0</ele><time>2026-05-03T11:20:47.784Z</time></trkpt><trkpt lat="54.3209717" lon="-2.20126"><ele>299.0</ele><time>2026-05-03T11:20:48.785Z</time></trkpt><trkpt lat="54.3208383" lon="-2.2012183"><ele>299.0</ele><time>2026-05-03T11:20:49.787Z</time></trkpt><trkpt lat="54.3207167" lon="-2.2011733"><ele>299.0</ele><time>2026-05-03T11:20:50.784Z</time></trkpt><trkpt lat="54.3205967" lon="-2.2011233"><ele>298.25</ele><time>2026-05-03T11:20:51.783Z</time></trkpt><trkpt lat="54.3204817" lon="-2.20107"><ele>297.5</ele><time>2026-05-03T11:20:52.784Z</time></trkpt><trkpt lat="54.3203817" lon="-2.200985"><ele>296.75</ele><time>2026-05-03T11:20:53.784Z</time></trkpt><trkpt lat="54.3202983" lon="-2.2008467"><ele>296.0</ele><time>2026-05-03T11:20:54.787Z</time></trkpt><trkpt lat="54.32022" lon="-2.200665"><ele>296.0</ele><time>2026-05-03T11:20:55.788Z</time></trkpt><trkpt lat="54.32014" lon="-2.2004567"><ele>296.0</ele><time>2026-05-03T11:20:56.784Z</time></trkpt><trkpt lat="54.320065" lon="-2.2002233"><ele>296.0</ele><time>2026-05-03T11:20:57.783Z</time></trkpt><trkpt lat="54.3199867" lon="-2.199985"><ele>295.6666666666667</ele><time>2026-05-03T11:20:58.784Z</time></trkpt><trkpt lat="54.3199" lon="-2.199735"><ele>295.3333333333333</ele><time>2026-05-03T11:20:59.787Z</time></trkpt><trkpt lat="54.31981" lon="-2.1994867"><ele>295.0</ele><time>2026-05-03T11:21:00.784Z</time></trkpt><trkpt lat="54.319715" lon="-2.1992317"><ele>294.0</ele><time>2026-05-03T11:21:01.784Z</time></trkpt><trkpt lat="54.3196217" lon="-2.1989883"><ele>293.0</ele><time>2026-05-03T11:21:02.788Z</time></trkpt><trkpt lat="54.3195283" lon="-2.19874"><ele>292.0</ele><time>2026-05-03T11:21:03.783Z</time></trkpt><trkpt lat="54.319435" lon="-2.1984917"><ele>292.0</ele><time>2026-05-03T11:21:04.788Z</time></trkpt><trkpt lat="54.319345" lon="-2.1982467"><ele>292.0</ele><time>2026-05-03T11:21:05.784Z</time></trkpt><trkpt lat="54.3192667" lon="-2.1980267"><ele>292.0</ele><time>2026-05-03T11:21:06.783Z</time></trkpt><trkpt lat="54.319195" lon="-2.1978367"><ele>291.75</ele><time>2026-05-03T11:21:07.784Z</time></trkpt><trkpt lat="54.31912" lon="-2.1976767"><ele>291.5</ele><time>2026-05-03T11:21:08.783Z</time></trkpt><trkpt lat="54.3190333" lon="-2.19755"><ele>291.25</ele><time>2026-05-03T11:21:09.784Z</time></trkpt><trkpt lat="54.31894" lon="-2.1974567"><ele>291.0</ele><time>2026-05-03T11:21:10.783Z</time></trkpt><trkpt lat="54.3188333" lon="-2.1974067"><ele>289.75</ele><time>2026-05-03T11:21:11.784Z</time></trkpt><trkpt lat="54.31871" lon="-2.1973983"><ele>288.5</ele><time>2026-05-03T11:21:12.786Z</time></trkpt><trkpt lat="54.3185667" lon="-2.1974217"><ele>287.25</ele><time>2026-05-03T11:21:13.783Z</time></trkpt><trkpt lat="54.3184117" lon="-2.1974567"><ele>286.0</ele><time>2026-05-03T11:21:14.782Z</time></trkpt><trkpt lat="54.3182383" lon="-2.1974917"><ele>285.0</ele><time>2026-05-03T11:21:15.783Z</time></trkpt><trkpt lat="54.3180633" lon="-2.1975333"><ele>284.0</ele><time>2026-05-03T11:21:16.783Z</time></trkpt><trkpt lat="54.3178933" lon="-2.1975633"><ele>283.0</ele><time>2026-05-03T11:21:17.785Z</time></trkpt><trkpt lat="54.3177417" lon="-2.1975917"><ele>283.0</ele><time>2026-05-03T11:21:18.784Z</time></trkpt><trkpt lat="54.317605" lon="-2.1976033"><ele>283.0</ele><time>2026-05-03T11:21:19.784Z</time></trkpt><trkpt lat="54.3174833" lon="-2.197585"><ele>283.0</ele><time>2026-05-03T11:21:20.783Z</time></trkpt><trkpt lat="54.3173683" lon="-2.1975183"><ele>283.0</ele><time>2026-05-03T11:21:21.784Z</time></trkpt><trkpt lat="54.31726" lon="-2.1974117"><ele>281.75</ele><time>2026-05-03T11:21:22.784Z</time></trkpt><trkpt lat="54.317175" lon="-2.1972483"><ele>280.5</ele><time>2026-05-03T11:21:23.784Z</time></trkpt><trkpt lat="54.3170983" lon="-2.19707"><ele>279.25</ele><time>2026-05-03T11:21:24.784Z</time></trkpt><trkpt lat="54.317025" lon="-2.1968867"><ele>278.0</ele><time>2026-05-03T11:21:25.784Z</time></trkpt><trkpt lat="54.3169583" lon="-2.19668"><ele>279.0</ele><time>2026-05-03T11:21:26.783Z</time></trkpt><trkpt lat="54.3169017" lon="-2.1964367"><ele>280.0</ele><time>2026-05-03T11:21:27.783Z</time></trkpt><trkpt lat="54.3168467" lon="-2.1961883"><ele>281.0</ele><time>2026-05-03T11:21:28.784Z</time></trkpt><trkpt lat="54.3167917" lon="-2.195955"><ele>281.0</ele><time>2026-05-03T11:21:29.784Z</time></trkpt><trkpt lat="54.3167433" lon="-2.19574"><ele>281.0</ele><time>2026-05-03T11:21:30.784Z</time></trkpt><trkpt lat="54.3167" lon="-2.1955433"><ele>281.0</ele><time>2026-05-03T11:21:31.783Z</time></trkpt><trkpt lat="54.316655" lon="-2.19536"><ele>281.0</ele><time>2026-05-03T11:21:32.782Z</time></trkpt><trkpt lat="54.3166" lon="-2.1952083"><ele>281.5</ele><time>2026-05-03T11:21:33.783Z</time></trkpt><trkpt lat="54.3165267" lon="-2.19508"><ele>282.0</ele><time>2026-05-03T11:21:34.786Z</time></trkpt><trkpt lat="54.316425" lon="-2.1949817"><ele>282.5</ele><time>2026-05-03T11:21:35.783Z</time></trkpt><trkpt lat="54.3163033" lon="-2.1949083"><ele>283.0</ele><time>2026-05-03T11:21:36.783Z</time></trkpt><trkpt lat="54.3161633" lon="-2.1948383"><ele>279.3333333333333</ele><time>2026-05-03T11:21:37.783Z</time></trkpt><trkpt lat="54.3160033" lon="-2.194765"><ele>275.6666666666667</ele><time>2026-05-03T11:21:38.785Z</time></trkpt><trkpt lat="54.315835" lon="-2.1946567"><ele>272.0</ele><time>2026-05-03T11:21:39.783Z</time></trkpt><trkpt lat="54.3156767" lon="-2.1945383"><ele>269.0</ele><time>2026-05-03T11:21:40.787Z</time></trkpt><trkpt lat="54.3155267" lon="-2.1944267"><ele>266.0</ele><time>2026-05-03T11:21:41.783Z</time></trkpt><trkpt lat="54.3153883" lon="-2.1943283"><ele>263.0</ele><time>2026-05-03T11:21:42.786Z</time></trkpt><trkpt lat="54.3152583" lon="-2.1942433"><ele>263.0</ele><time>2026-05-03T11:21:43.788Z</time></trkpt><trkpt lat="54.3151383" lon="-2.194175"><ele>263.0</ele><time>2026-05-03T11:21:44.784Z</time></trkpt><trkpt lat="54.3150233" lon="-2.19412"><ele>263.0</ele><time>2026-05-03T11:21:45.785Z</time></trkpt><trkpt lat="54.3149067" lon="-2.19408"><ele>263.0</ele><time>2026-05-03T11:21:46.786Z</time></trkpt><trkpt lat="54.314795" lon="-2.194055"><ele>261.6666666666667</ele><time>2026-05-03T11:21:47.785Z</time></trkpt><trkpt lat="54.3146933" lon="-2.1940417"><ele>260.33333333333337</ele><time>2026-05-03T11:21:48.786Z</time></trkpt><trkpt lat="54.3146033" lon="-2.1940483"><ele>259.0</ele><time>2026-05-03T11:21:49.786Z</time></trkpt><trkpt lat="54.3145183" lon="-2.1940783"><ele>257.6666666666667</ele><time>2026-05-03T11:21:50.785Z</time></trkpt><trkpt lat="54.314445" lon="-2.1941417"><ele>256.3333333333333</ele><time>2026-05-03T11:21:51.786Z</time></trkpt><trkpt lat="54.3143767" lon="-2.1942067"><ele>255.0</ele><time>2026-05-03T11:21:52.786Z</time></trkpt><trkpt lat="54.3143217" lon="-2.1942783"><ele>255.0</ele><time>2026-05-03T11:21:53.785Z</time></trkpt><trkpt lat="54.31423" lon="-2.1943717"><ele>255.0</ele><time>2026-05-03T11:21:55.788Z</time></trkpt><trkpt lat="54.3141483" lon="-2.1943383"><ele>255.0</ele><time>2026-05-03T11:21:57.785Z</time></trkpt><trkpt lat="54.3141133" lon="-2.1941517"><ele>255.0</ele><time>2026-05-03T11:21:59.783Z</time></trkpt><trkpt lat="54.3141067" lon="-2.1940133"><ele>255.0</ele><time>2026-05-03T11:22:00.783Z</time></trkpt><trkpt lat="54.3141083" lon="-2.1938417"><ele>255.2</ele><time>2026-05-03T11:22:01.783Z</time></trkpt><trkpt lat="54.3141017" lon="-2.193665"><ele>255.4</ele><time>2026-05-03T11:22:02.784Z</time></trkpt><trkpt lat="54.31409" lon="-2.1934767"><ele>255.60000000000002</ele><time>2026-05-03T11:22:03.785Z</time></trkpt><trkpt lat="54.3140767" lon="-2.1932817"><ele>255.8</ele><time>2026-05-03T11:22:04.783Z</time></trkpt><trkpt lat="54.3140617" lon="-2.1930867"><ele>256.0</ele><time>2026-05-03T11:22:05.783Z</time></trkpt><trkpt lat="54.31405" lon="-2.1928883"><ele>256.8</ele><time>2026-05-03T11:22:06.784Z</time></trkpt><trkpt lat="54.3140433" lon="-2.1926867"><ele>257.6</ele><time>2026-05-03T11:22:07.783Z</time></trkpt><trkpt lat="54.314035" lon="-2.1925033"><ele>258.4</ele><time>2026-05-03T11:22:08.784Z</time></trkpt><trkpt lat="54.3140283" lon="-2.192325"><ele>259.2</ele><time>2026-05-03T11:22:09.783Z</time></trkpt><trkpt lat="54.3140167" lon="-2.1921517"><ele>260.0</ele><time>2026-05-03T11:22:10.784Z</time></trkpt><trkpt lat="54.3140083" lon="-2.19199"><ele>260.0</ele><time>2026-05-03T11:22:11.785Z</time></trkpt><trkpt lat="54.3139983" lon="-2.19184"><ele>260.0</ele><time>2026-05-03T11:22:12.784Z</time></trkpt><trkpt lat="54.3139867" lon="-2.19171"><ele>260.0</ele><time>2026-05-03T11:22:13.784Z</time></trkpt><trkpt lat="54.3139733" lon="-2.1916"><ele>260.0</ele><time>2026-05-03T11:22:14.784Z</time></trkpt><trkpt lat="54.313935" lon="-2.1914533"><ele>260.0</ele><time>2026-05-03T11:22:16.782Z</time></trkpt><trkpt lat="54.31389" lon="-2.1913683"><ele>260.0</ele><time>2026-05-03T11:22:19.785Z</time></trkpt><trkpt lat="54.3138417" lon="-2.1912967"><ele>257.6</ele><time>2026-05-03T11:22:21.783Z</time></trkpt><trkpt lat="54.3137633" lon="-2.19122"><ele>255.2</ele><time>2026-05-03T11:22:23.784Z</time></trkpt><trkpt lat="54.3136667" lon="-2.19115"><ele>252.8</ele><time>2026-05-03T11:22:25.784Z</time></trkpt><trkpt lat="54.313535" lon="-2.1910683"><ele>250.4</ele><time>2026-05-03T11:22:27.785Z</time></trkpt><trkpt lat="54.31345" lon="-2.191035"><ele>248.0</ele><time>2026-05-03T11:22:28.787Z</time></trkpt><trkpt lat="54.3133433" lon="-2.1910033"><ele>248.0</ele><time>2026-05-03T11:22:29.783Z</time></trkpt><trkpt lat="54.313225" lon="-2.19098"><ele>248.0</ele><time>2026-05-03T11:22:30.783Z</time></trkpt><trkpt lat="54.3131" lon="-2.1909783"><ele>248.0</ele><time>2026-05-03T11:22:31.786Z</time></trkpt><trkpt lat="54.3129717" lon="-2.1909733"><ele>248.0</ele><time>2026-05-03T11:22:32.783Z</time></trkpt><trkpt lat="54.3128483" lon="-2.1909717"><ele>246.25</ele><time>2026-05-03T11:22:33.784Z</time></trkpt><trkpt lat="54.3127333" lon="-2.1909683"><ele>244.5</ele><time>2026-05-03T11:22:34.784Z</time></trkpt><trkpt lat="54.31262" lon="-2.190965"><ele>242.75</ele><time>2026-05-03T11:22:35.784Z</time></trkpt><trkpt lat="54.3125083" lon="-2.19096"><ele>241.0</ele><time>2026-05-03T11:22:36.784Z</time></trkpt><trkpt lat="54.312395" lon="-2.1909567"><ele>241.0</ele><time>2026-05-03T11:22:37.783Z</time></trkpt><trkpt lat="54.3122883" lon="-2.1909433"><ele>241.00000000000003</ele><time>2026-05-03T11:22:38.784Z</time></trkpt><trkpt lat="54.312185" lon="-2.19093"><ele>241.00000000000003</ele><time>2026-05-03T11:22:39.784Z</time></trkpt><trkpt lat="54.3120833" lon="-2.1909133"><ele>241.0</ele><time>2026-05-03T11:22:40.783Z</time></trkpt><trkpt lat="54.311985" lon="-2.1908933"><ele>241.0</ele><time>2026-05-03T11:22:41.783Z</time></trkpt><trkpt lat="54.3118883" lon="-2.1908683"><ele>239.4</ele><time>2026-05-03T11:22:42.784Z</time></trkpt><trkpt lat="54.311795" lon="-2.190835"><ele>237.8</ele><time>2026-05-03T11:22:43.784Z</time></trkpt><trkpt lat="54.3117067" lon="-2.19079"><ele>236.20000000000002</ele><time>2026-05-03T11:22:44.784Z</time></trkpt><trkpt lat="54.3116033" lon="-2.1907483"><ele>234.60000000000002</ele><time>2026-05-03T11:22:45.782Z</time></trkpt><trkpt lat="54.311505" lon="-2.1907033"><ele>233.0</ele><time>2026-05-03T11:22:46.784Z</time></trkpt><trkpt lat="54.3114017" lon="-2.19066"><ele>232.33333333333334</ele><time>2026-05-03T11:22:47.784Z</time></trkpt><trkpt lat="54.3113017" lon="-2.1906133"><ele>231.66666666666669</ele><time>2026-05-03T11:22:48.784Z</time></trkpt><trkpt lat="54.3112083" lon="-2.1905683"><ele>231.0</ele><time>2026-05-03T11:22:49.784Z</time></trkpt><trkpt lat="54.3111217" lon="-2.1905183"><ele>230.33333333333331</ele><time>2026-05-03T11:22:50.782Z</time></trkpt><trkpt lat="54.3110467" lon="-2.190475"><ele>229.66666666666666</ele><time>2026-05-03T11:22:51.784Z</time></trkpt><trkpt lat="54.310975" lon="-2.1904433"><ele>229.0</ele><time>2026-05-03T11:22:52.783Z</time></trkpt><trkpt lat="54.3109" lon="-2.190415"><ele>228.99999999999997</ele><time>2026-05-03T11:22:53.783Z</time></trkpt><trkpt lat="54.3108183" lon="-2.1903833"><ele>229.0</ele><time>2026-05-03T11:22:54.784Z</time></trkpt><trkpt lat="54.3107333" lon="-2.1903567"><ele>229.0</ele><time>2026-05-03T11:22:55.785Z</time></trkpt><trkpt lat="54.31065" lon="-2.1903317"><ele>229.0</ele><time>2026-05-03T11:22:56.786Z</time></trkpt><trkpt lat="54.3105633" lon="-2.1902983"><ele>228.99999999999997</ele><time>2026-05-03T11:22:57.783Z</time></trkpt><trkpt lat="54.3104817" lon="-2.1902567"><ele>229.0</ele><time>2026-05-03T11:22:58.785Z</time></trkpt><trkpt lat="54.3104067" lon="-2.19021"><ele>228.49999999999997</ele><time>2026-05-03T11:22:59.785Z</time></trkpt><trkpt lat="54.3103417" lon="-2.1901567"><ele>228.0</ele><time>2026-05-03T11:23:00.784Z</time></trkpt><trkpt lat="54.3102567" lon="-2.1900617"><ele>227.5</ele><time>2026-05-03T11:23:02.785Z</time></trkpt><trkpt lat="54.3101933" lon="-2.1899767"><ele>227.0</ele><time>2026-05-03T11:23:05.785Z</time></trkpt><trkpt lat="54.310235" lon="-2.1901183"><ele>226.49999999999997</ele><time>2026-05-03T11:23:36.785Z</time></trkpt><trkpt lat="54.3102917" lon="-2.19018"><ele>226.0</ele><time>2026-05-03T11:23:37.787Z</time></trkpt><trkpt lat="54.310375" lon="-2.1902433"><ele>226.0</ele><time>2026-05-03T11:23:38.784Z</time></trkpt><trkpt lat="54.3104867" lon="-2.1903033"><ele>226.0</ele><time>2026-05-03T11:23:39.785Z</time></trkpt><trkpt lat="54.3106083" lon="-2.190345"><ele>226.0</ele><time>2026-05-03T11:23:40.786Z</time></trkpt><trkpt lat="54.3107283" lon="-2.19039"><ele>226.0</ele><time>2026-05-03T11:23:41.783Z</time></trkpt><trkpt lat="54.31084" lon="-2.19044"><ele>226.60000000000002</ele><time>2026-05-03T11:23:42.787Z</time></trkpt><trkpt lat="54.310945" lon="-2.1904917"><ele>227.20000000000002</ele><time>2026-05-03T11:23:43.787Z</time></trkpt><trkpt lat="54.3110417" lon="-2.1905317"><ele>227.79999999999998</ele><time>2026-05-03T11:23:44.784Z</time></trkpt><trkpt lat="54.3111417" lon="-2.1905733"><ele>228.39999999999998</ele><time>2026-05-03T11:23:45.783Z</time></trkpt><trkpt lat="54.311245" lon="-2.19062"><ele>229.0</ele><time>2026-05-03T11:23:46.783Z</time></trkpt><trkpt lat="54.3113583" lon="-2.1906683"><ele>229.79999999999998</ele><time>2026-05-03T11:23:47.784Z</time></trkpt><trkpt lat="54.3114583" lon="-2.190715"><ele>230.59999999999997</ele><time>2026-05-03T11:23:48.784Z</time></trkpt><trkpt lat="54.3115617" lon="-2.190765"><ele>231.4</ele><time>2026-05-03T11:23:49.785Z</time></trkpt><trkpt lat="54.3116633" lon="-2.1908167"><ele>232.2</ele><time>2026-05-03T11:23:50.784Z</time></trkpt><trkpt lat="54.3117617" lon="-2.1908667"><ele>233.0</ele><time>2026-05-03T11:23:51.783Z</time></trkpt><trkpt lat="54.3118667" lon="-2.1909117"><ele>233.0</ele><time>2026-05-03T11:23:52.782Z</time></trkpt><trkpt lat="54.311985" lon="-2.1909383"><ele>233.0</ele><time>2026-05-03T11:23:53.784Z</time></trkpt><trkpt lat="54.3121117" lon="-2.1909667"><ele>233.0</ele><time>2026-05-03T11:23:54.787Z</time></trkpt><trkpt lat="54.3122483" lon="-2.1909833"><ele>233.0</ele><time>2026-05-03T11:23:55.784Z</time></trkpt><trkpt lat="54.3123867" lon="-2.1909917"><ele>235.0</ele><time>2026-05-03T11:23:56.783Z</time></trkpt><trkpt lat="54.312525" lon="-2.190995"><ele>237.0</ele><time>2026-05-03T11:23:57.782Z</time></trkpt><trkpt lat="54.3126633" lon="-2.1910033"><ele>239.0</ele><time>2026-05-03T11:23:58.784Z</time></trkpt><trkpt lat="54.312795" lon="-2.191005"><ele>241.0</ele><time>2026-05-03T11:23:59.786Z</time></trkpt><trkpt lat="54.3129217" lon="-2.1910033"><ele>241.0</ele><time>2026-05-03T11:24:00.783Z</time></trkpt><trkpt lat="54.3130533" lon="-2.19101"><ele>241.0</ele><time>2026-05-03T11:24:01.784Z</time></trkpt><trkpt lat="54.3131783" lon="-2.1910183"><ele>241.0</ele><time>2026-05-03T11:24:02.787Z</time></trkpt><trkpt lat="54.3132967" lon="-2.1910283"><ele>241.0</ele><time>2026-05-03T11:24:03.782Z</time></trkpt><trkpt lat="54.3134067" lon="-2.19105"><ele>242.16666666666666</ele><time>2026-05-03T11:24:04.787Z</time></trkpt><trkpt lat="54.313505" lon="-2.1910817"><ele>243.33333333333331</ele><time>2026-05-03T11:24:05.783Z</time></trkpt><trkpt lat="54.3135917" lon="-2.1911233"><ele>244.5</ele><time>2026-05-03T11:24:06.785Z</time></trkpt><trkpt lat="54.313665" lon="-2.1911717"><ele>245.66666666666669</ele><time>2026-05-03T11:24:07.787Z</time></trkpt><trkpt lat="54.3137283" lon="-2.1912167"><ele>246.83333333333334</ele><time>2026-05-03T11:24:08.786Z</time></trkpt><trkpt lat="54.3138317" lon="-2.191255"><ele>248.0</ele><time>2026-05-03T11:24:10.786Z</time></trkpt><trkpt lat="54.3139033" lon="-2.1912233"><ele>248.0</ele><time>2026-05-03T11:24:12.785Z</time></trkpt><trkpt lat="54.3139217" lon="-2.191085"><ele>248.0</ele><time>2026-05-03T11:24:14.786Z</time></trkpt><trkpt lat="54.31392" lon="-2.19089"><ele>248.0</ele><time>2026-05-03T11:24:16.786Z</time></trkpt><trkpt lat="54.313915" lon="-2.19069"><ele>248.0</ele><time>2026-05-03T11:24:18.785Z</time></trkpt><trkpt lat="54.3139067" lon="-2.190515"><ele>248.0</ele><time>2026-05-03T11:24:20.786Z</time></trkpt><trkpt lat="54.3138933" lon="-2.1903567"><ele>248.0</ele><time>2026-05-03T11:24:22.784Z</time></trkpt><trkpt lat="54.3138867" lon="-2.190215"><ele>248.0</ele><time>2026-05-03T11:24:24.786Z</time></trkpt><trkpt lat="54.313855" lon="-2.190345"><ele>248.0</ele><time>2026-05-03T11:24:59.786Z</time></trkpt><trkpt lat="54.313865" lon="-2.190525"><ele>248.0</ele><time>2026-05-03T11:25:01.785Z</time></trkpt><trkpt lat="54.313885" lon="-2.1907433"><ele>248.0</ele><time>2026-05-03T11:25:03.786Z</time></trkpt><trkpt lat="54.313895" lon="-2.1908517"><ele>248.0</ele><time>2026-05-03T11:25:04.786Z</time></trkpt><trkpt lat="54.3139033" lon="-2.1910467"><ele>248.0</ele><time>2026-05-03T11:25:06.786Z</time></trkpt><trkpt lat="54.3139217" lon="-2.1912533"><ele>248.0</ele><time>2026-05-03T11:25:08.786Z</time></trkpt><trkpt lat="54.3139317" lon="-2.19137"><ele>248.0</ele><time>2026-05-03T11:25:09.785Z</time></trkpt><trkpt lat="54.3139383" lon="-2.19151"><ele>248.0</ele><time>2026-05-03T11:25:10.786Z</time></trkpt><trkpt lat="54.31394" lon="-2.1916483"><ele>250.4</ele><time>2026-05-03T11:25:11.787Z</time></trkpt><trkpt lat="54.31395" lon="-2.1917833"><ele>252.8</ele><time>2026-05-03T11:25:12.787Z</time></trkpt><trkpt lat="54.3139667" lon="-2.1919383"><ele>255.2</ele><time>2026-05-03T11:25:13.782Z</time></trkpt><trkpt lat="54.3139833" lon="-2.1921117"><ele>257.6</ele><time>2026-05-03T11:25:14.787Z</time></trkpt><trkpt lat="54.3139983" lon="-2.192295"><ele>260.0</ele><time>2026-05-03T11:25:15.786Z</time></trkpt><trkpt lat="54.314015" lon="-2.192495"><ele>260.0</ele><time>2026-05-03T11:25:16.782Z</time></trkpt><trkpt lat="54.3140367" lon="-2.1927117"><ele>260.0</ele><time>2026-05-03T11:25:17.785Z</time></trkpt><trkpt lat="54.3140583" lon="-2.192915"><ele>260.0</ele><time>2026-05-03T11:25:18.788Z</time></trkpt><trkpt lat="54.314075" lon="-2.1930983"><ele>260.0</ele><time>2026-05-03T11:25:19.784Z</time></trkpt><trkpt lat="54.3140883" lon="-2.1932783"><ele>259.2</ele><time>2026-05-03T11:25:20.784Z</time></trkpt><trkpt lat="54.3141033" lon="-2.19345"><ele>258.4</ele><time>2026-05-03T11:25:21.783Z</time></trkpt><trkpt lat="54.314115" lon="-2.19361"><ele>257.6</ele><time>2026-05-03T11:25:22.783Z</time></trkpt><trkpt lat="54.3141183" lon="-2.1937567"><ele>256.8</ele><time>2026-05-03T11:25:23.784Z</time></trkpt><trkpt lat="54.314125" lon="-2.1939167"><ele>256.0</ele><time>2026-05-03T11:25:24.787Z</time></trkpt><trkpt lat="54.314135" lon="-2.1941083"><ele>256.0</ele><time>2026-05-03T11:25:25.783Z</time></trkpt><trkpt lat="54.3141417" lon="-2.19432"><ele>256.0</ele><time>2026-05-03T11:25:26.784Z</time></trkpt><trkpt lat="54.314155" lon="-2.1945517"><ele>256.0</ele><time>2026-05-03T11:25:27.787Z</time></trkpt><trkpt lat="54.3141733" lon="-2.1947867"><ele>256.0</ele><time>2026-05-03T11:25:28.783Z</time></trkpt><trkpt lat="54.314205" lon="-2.195025"><ele>256.0</ele><time>2026-05-03T11:25:29.784Z</time></trkpt><trkpt lat="54.3142433" lon="-2.1952533"><ele>256.0</ele><time>2026-05-03T11:25:30.783Z</time></trkpt><trkpt lat="54.3142983" lon="-2.1954767"><ele>256.0</ele><time>2026-05-03T11:25:31.788Z</time></trkpt><trkpt lat="54.31436" lon="-2.1956817"><ele>256.0</ele><time>2026-05-03T11:25:32.785Z</time></trkpt><trkpt lat="54.3144183" lon="-2.1958667"><ele>256.40000000000003</ele><time>2026-05-03T11:25:33.785Z</time></trkpt><trkpt lat="54.314475" lon="-2.1960317"><ele>256.8</ele><time>2026-05-03T11:25:34.783Z</time></trkpt><trkpt lat="54.3145233" lon="-2.1961883"><ele>257.20000000000005</ele><time>2026-05-03T11:25:35.784Z</time></trkpt><trkpt lat="54.3145583" lon="-2.196345"><ele>257.6</ele><time>2026-05-03T11:25:36.784Z</time></trkpt><trkpt lat="54.3146017" lon="-2.1965017"><ele>258.0</ele><time>2026-05-03T11:25:37.784Z</time></trkpt><trkpt lat="54.3146467" lon="-2.19666"><ele>258.0</ele><time>2026-05-03T11:25:38.783Z</time></trkpt><trkpt lat="54.3146917" lon="-2.196815"><ele>258.0</ele><time>2026-05-03T11:25:39.785Z</time></trkpt><trkpt lat="54.3147317" lon="-2.1969683"><ele>258.0</ele><time>2026-05-03T11:25:40.784Z</time></trkpt><trkpt lat="54.31477" lon="-2.1971183"><ele>258.0</ele><time>2026-05-03T11:25:41.784Z</time></trkpt><trkpt lat="54.3148133" lon="-2.1972733"><ele>258.0</ele><time>2026-05-03T11:25:42.786Z</time></trkpt><trkpt lat="54.3148633" lon="-2.1974417"><ele>258.0</ele><time>2026-05-03T11:25:43.783Z</time></trkpt><trkpt lat="54.31491" lon="-2.1976233"><ele>258.0</ele><time>2026-05-03T11:25:44.784Z</time></trkpt><trkpt lat="54.3149583" lon="-2.19781"><ele>258.0</ele><time>2026-05-03T11:25:45.787Z</time></trkpt><trkpt lat="54.31501" lon="-2.1979933"><ele>258.0</ele><time>2026-05-03T11:25:46.787Z</time></trkpt><trkpt lat="54.31506" lon="-2.1981783"><ele>258.0</ele><time>2026-05-03T11:25:47.783Z</time></trkpt><trkpt lat="54.315105" lon="-2.1983617"><ele>258.0</ele><time>2026-05-03T11:25:48.783Z</time></trkpt><trkpt lat="54.3151483" lon="-2.19855"><ele>258.0</ele><time>2026-05-03T11:25:49.783Z</time></trkpt><trkpt lat="54.3151917" lon="-2.1987417"><ele>258.0</ele><time>2026-05-03T11:25:50.783Z</time></trkpt><trkpt lat="54.3152283" lon="-2.1989317"><ele>257.2</ele><time>2026-05-03T11:25:51.783Z</time></trkpt><trkpt lat="54.3152667" lon="-2.1991083"><ele>256.4</ele><time>2026-05-03T11:25:52.786Z</time></trkpt><trkpt lat="54.3153067" lon="-2.199275"><ele>255.59999999999997</ele><time>2026-05-03T11:25:53.787Z</time></trkpt><trkpt lat="54.3153433" lon="-2.1994333"><ele>254.79999999999998</ele><time>2026-05-03T11:25:54.784Z</time></trkpt><trkpt lat="54.315385" lon="-2.19958"><ele>254.0</ele><time>2026-05-03T11:25:55.786Z</time></trkpt><trkpt lat="54.31543" lon="-2.1997167"><ele>254.39999999999998</ele><time>2026-05-03T11:25:56.785Z</time></trkpt><trkpt lat="54.3154683" lon="-2.1998567"><ele>254.79999999999998</ele><time>2026-05-03T11:25:57.782Z</time></trkpt><trkpt lat="54.3155033" lon="-2.2000067"><ele>255.20000000000002</ele><time>2026-05-03T11:25:58.784Z</time></trkpt><trkpt lat="54.31554" lon="-2.200165"><ele>255.60000000000002</ele><time>2026-05-03T11:25:59.784Z</time></trkpt><trkpt lat="54.31557" lon="-2.2003367"><ele>256.0</ele><time>2026-05-03T11:26:00.782Z</time></trkpt><trkpt lat="54.3155967" lon="-2.2005283"><ele>254.75</ele><time>2026-05-03T11:26:01.783Z</time></trkpt><trkpt lat="54.315625" lon="-2.2007117"><ele>253.5</ele><time>2026-05-03T11:26:02.783Z</time></trkpt><trkpt lat="54.3156533" lon="-2.2009"><ele>252.25</ele><time>2026-05-03T11:26:03.787Z</time></trkpt><trkpt lat="54.3156817" lon="-2.2010883"><ele>251.0</ele><time>2026-05-03T11:26:04.782Z</time></trkpt><trkpt lat="54.3157133" lon="-2.201275"><ele>251.0</ele><time>2026-05-03T11:26:05.785Z</time></trkpt><trkpt lat="54.31574" lon="-2.2014533"><ele>251.00000000000003</ele><time>2026-05-03T11:26:06.786Z</time></trkpt><trkpt lat="54.31577" lon="-2.201625"><ele>251.00000000000003</ele><time>2026-05-03T11:26:07.784Z</time></trkpt><trkpt lat="54.3158033" lon="-2.201795"><ele>251.0</ele><time>2026-05-03T11:26:08.787Z</time></trkpt><trkpt lat="54.3158317" lon="-2.2019533"><ele>251.0</ele><time>2026-05-03T11:26:09.783Z</time></trkpt><trkpt lat="54.3158583" lon="-2.2021033"><ele>250.0</ele><time>2026-05-03T11:26:10.787Z</time></trkpt><trkpt lat="54.3158817" lon="-2.2022483"><ele>249.00000000000003</ele><time>2026-05-03T11:26:11.784Z</time></trkpt><trkpt lat="54.3159033" lon="-2.202395"><ele>248.00000000000003</ele><time>2026-05-03T11:26:12.787Z</time></trkpt><trkpt lat="54.3159283" lon="-2.20256"><ele>247.0</ele><time>2026-05-03T11:26:13.783Z</time></trkpt><trkpt lat="54.315955" lon="-2.20273"><ele>246.0</ele><time>2026-05-03T11:26:14.787Z</time></trkpt><trkpt lat="54.3159917" lon="-2.2029183"><ele>245.60000000000002</ele><time>2026-05-03T11:26:15.787Z</time></trkpt><trkpt lat="54.31603" lon="-2.2030967"><ele>245.20000000000002</ele><time>2026-05-03T11:26:16.783Z</time></trkpt><trkpt lat="54.3160733" lon="-2.20327"><ele>244.79999999999998</ele><time>2026-05-03T11:26:17.784Z</time></trkpt><trkpt lat="54.3161167" lon="-2.2034317"><ele>244.39999999999998</ele><time>2026-05-03T11:26:18.783Z</time></trkpt><trkpt lat="54.316155" lon="-2.203585"><ele>244.0</ele><time>2026-05-03T11:26:19.784Z</time></trkpt><trkpt lat="54.3161867" lon="-2.20374"><ele>243.5</ele><time>2026-05-03T11:26:20.783Z</time></trkpt><trkpt lat="54.3162183" lon="-2.20391"><ele>243.0</ele><time>2026-05-03T11:26:21.784Z</time></trkpt><trkpt lat="54.3162467" lon="-2.2040983"><ele>242.5</ele><time>2026-05-03T11:26:22.783Z</time></trkpt><trkpt lat="54.3162783" lon="-2.2043"><ele>242.0</ele><time>2026-05-03T11:26:23.783Z</time></trkpt><trkpt lat="54.3163083" lon="-2.2045167"><ele>241.5</ele><time>2026-05-03T11:26:24.788Z</time></trkpt><trkpt lat="54.3163367" lon="-2.2047367"><ele>241.0</ele><time>2026-05-03T11:26:25.782Z</time></trkpt><trkpt lat="54.3163633" lon="-2.2049483"><ele>240.5</ele><time>2026-05-03T11:26:26.783Z</time></trkpt><trkpt lat="54.316385" lon="-2.2051583"><ele>240.0</ele><time>2026-05-03T11:26:27.786Z</time></trkpt><trkpt lat="54.3164017" lon="-2.2053417"><ele>240.16666666666666</ele><time>2026-05-03T11:26:28.787Z</time></trkpt><trkpt lat="54.31641" lon="-2.205505"><ele>240.33333333333331</ele><time>2026-05-03T11:26:29.783Z</time></trkpt><trkpt lat="54.31641" lon="-2.2056483"><ele>240.5</ele><time>2026-05-03T11:26:30.786Z</time></trkpt><trkpt lat="54.3164017" lon="-2.2057933"><ele>240.66666666666666</ele><time>2026-05-03T11:26:31.784Z</time></trkpt><trkpt lat="54.3163733" lon="-2.205935"><ele>240.83333333333331</ele><time>2026-05-03T11:26:32.784Z</time></trkpt><trkpt lat="54.3163317" lon="-2.2060817"><ele>241.0</ele><time>2026-05-03T11:26:33.784Z</time></trkpt><trkpt lat="54.3162883" lon="-2.20624"><ele>240.60000000000002</ele><time>2026-05-03T11:26:34.784Z</time></trkpt><trkpt lat="54.3162317" lon="-2.2064"><ele>240.20000000000002</ele><time>2026-05-03T11:26:35.784Z</time></trkpt><trkpt lat="54.3161767" lon="-2.206565"><ele>239.79999999999998</ele><time>2026-05-03T11:26:36.784Z</time></trkpt><trkpt lat="54.3161283" lon="-2.206725"><ele>239.39999999999998</ele><time>2026-05-03T11:26:37.784Z</time></trkpt><trkpt lat="54.31608" lon="-2.2068783"><ele>239.0</ele><time>2026-05-03T11:26:38.784Z</time></trkpt><trkpt lat="54.3160333" lon="-2.2070233"><ele>239.0</ele><time>2026-05-03T11:26:39.787Z</time></trkpt><trkpt lat="54.3159817" lon="-2.2071533"><ele>238.99999999999997</ele><time>2026-05-03T11:26:40.786Z</time></trkpt><trkpt lat="54.315925" lon="-2.2072983"><ele>238.99999999999997</ele><time>2026-05-03T11:26:41.786Z</time></trkpt><trkpt lat="54.3158717" lon="-2.2074617"><ele>239.0</ele><time>2026-05-03T11:26:42.783Z</time></trkpt><trkpt lat="54.3158133" lon="-2.2076417"><ele>239.0</ele><time>2026-05-03T11:26:43.783Z</time></trkpt><trkpt lat="54.3157517" lon="-2.20783"><ele>238.5</ele><time>2026-05-03T11:26:44.784Z</time></trkpt><trkpt lat="54.3156917" lon="-2.2080117"><ele>238.0</ele><time>2026-05-03T11:26:45.783Z</time></trkpt><trkpt lat="54.315635" lon="-2.20818"><ele>237.5</ele><time>2026-05-03T11:26:46.783Z</time></trkpt><trkpt lat="54.3155783" lon="-2.208345"><ele>237.0</ele><time>2026-05-03T11:26:47.784Z</time></trkpt><trkpt lat="54.3155167" lon="-2.2085233"><ele>236.33333333333331</ele><time>2026-05-03T11:26:48.787Z</time></trkpt><trkpt lat="54.3154483" lon="-2.2087283"><ele>235.66666666666666</ele><time>2026-05-03T11:26:49.784Z</time></trkpt><trkpt lat="54.3153717" lon="-2.2089533"><ele>235.0</ele><time>2026-05-03T11:26:50.783Z</time></trkpt><trkpt lat="54.3152833" lon="-2.2092017"><ele>234.66666666666666</ele><time>2026-05-03T11:26:51.783Z</time></trkpt><trkpt lat="54.3151883" lon="-2.2094583"><ele>234.33333333333331</ele><time>2026-05-03T11:26:52.783Z</time></trkpt><trkpt lat="54.3150967" lon="-2.2097033"><ele>234.0</ele><time>2026-05-03T11:26:53.784Z</time></trkpt><trkpt lat="54.3150183" lon="-2.20993"><ele>233.75</ele><time>2026-05-03T11:26:54.787Z</time></trkpt><trkpt lat="54.31495" lon="-2.21013"><ele>233.5</ele><time>2026-05-03T11:26:55.785Z</time></trkpt><trkpt lat="54.31488" lon="-2.2103117"><ele>233.25</ele><time>2026-05-03T11:26:56.787Z</time></trkpt><trkpt lat="54.3148083" lon="-2.2104733"><ele>233.0</ele><time>2026-05-03T11:26:57.784Z</time></trkpt><trkpt lat="54.3147417" lon="-2.2106183"><ele>232.8</ele><time>2026-05-03T11:26:58.783Z</time></trkpt><trkpt lat="54.31468" lon="-2.21074"><ele>232.60000000000002</ele><time>2026-05-03T11:26:59.783Z</time></trkpt><trkpt lat="54.3146267" lon="-2.2108367"><ele>232.39999999999998</ele><time>2026-05-03T11:27:00.784Z</time></trkpt><trkpt lat="54.3145583" lon="-2.210965"><ele>232.2</ele><time>2026-05-03T11:27:02.783Z</time></trkpt><trkpt lat="54.314545" lon="-2.2110733"><ele>232.0</ele><time>2026-05-03T11:27:08.782Z</time></trkpt><trkpt lat="54.3145067" lon="-2.2112633"><ele>232.0</ele><time>2026-05-03T11:27:10.783Z</time></trkpt><trkpt lat="54.31449" lon="-2.2114317"><ele>232.0</ele><time>2026-05-03T11:27:11.784Z</time></trkpt><trkpt lat="54.3144783" lon="-2.2116367"><ele>232.0</ele><time>2026-05-03T11:27:12.783Z</time></trkpt><trkpt lat="54.3144683" lon="-2.2118633"><ele>232.0</ele><time>2026-05-03T11:27:13.784Z</time></trkpt><trkpt lat="54.3144617" lon="-2.212105"><ele>233.0</ele><time>2026-05-03T11:27:14.786Z</time></trkpt><trkpt lat="54.3144667" lon="-2.2123567"><ele>234.0</ele><time>2026-05-03T11:27:15.786Z</time></trkpt><trkpt lat="54.3144733" lon="-2.2126117"><ele>235.0</ele><time>2026-05-03T11:27:16.786Z</time></trkpt><trkpt lat="54.3144817" lon="-2.21286"><ele>236.0</ele><time>2026-05-03T11:27:17.784Z</time></trkpt><trkpt lat="54.31449" lon="-2.21309"><ele>236.25</ele><time>2026-05-03T11:27:18.784Z</time></trkpt><trkpt lat="54.3145083" lon="-2.2133233"><ele>236.5</ele><time>2026-05-03T11:27:19.782Z</time></trkpt><trkpt lat="54.3145267" lon="-2.21354"><ele>236.75</ele><time>2026-05-03T11:27:20.783Z</time></trkpt><trkpt lat="54.31455" lon="-2.2137417"><ele>237.0</ele><time>2026-05-03T11:27:21.783Z</time></trkpt><trkpt lat="54.3145617" lon="-2.2139217"><ele>237.0</ele><time>2026-05-03T11:27:22.784Z</time></trkpt><trkpt lat="54.3145717" lon="-2.2141117"><ele>237.0</ele><time>2026-05-03T11:27:23.784Z</time></trkpt><trkpt lat="54.314575" lon="-2.2143083"><ele>237.0</ele><time>2026-05-03T11:27:24.783Z</time></trkpt><trkpt lat="54.3145783" lon="-2.21452"><ele>237.0</ele><time>2026-05-03T11:27:25.782Z</time></trkpt><trkpt lat="54.31458" lon="-2.21473"><ele>236.75</ele><time>2026-05-03T11:27:26.783Z</time></trkpt><trkpt lat="54.3145833" lon="-2.2149383"><ele>236.5</ele><time>2026-05-03T11:27:27.783Z</time></trkpt><trkpt lat="54.3145867" lon="-2.2151417"><ele>236.25</ele><time>2026-05-03T11:27:28.782Z</time></trkpt><trkpt lat="54.3145983" lon="-2.21535"><ele>236.0</ele><time>2026-05-03T11:27:29.783Z</time></trkpt><trkpt lat="54.3146117" lon="-2.215555"><ele>235.8</ele><time>2026-05-03T11:27:30.782Z</time></trkpt><trkpt lat="54.3146233" lon="-2.2157467"><ele>235.60000000000002</ele><time>2026-05-03T11:27:31.784Z</time></trkpt><trkpt lat="54.3146317" lon="-2.2159417"><ele>235.4</ele><time>2026-05-03T11:27:32.784Z</time></trkpt><trkpt lat="54.3146383" lon="-2.21612"><ele>235.2</ele><time>2026-05-03T11:27:33.784Z</time></trkpt><trkpt lat="54.3146333" lon="-2.2162783"><ele>235.0</ele><time>2026-05-03T11:27:34.784Z</time></trkpt><trkpt lat="54.3146217" lon="-2.2164417"><ele>234.4</ele><time>2026-05-03T11:27:35.784Z</time></trkpt><trkpt lat="54.314585" lon="-2.2166133"><ele>233.8</ele><time>2026-05-03T11:27:36.783Z</time></trkpt><trkpt lat="54.31454" lon="-2.2168017"><ele>233.2</ele><time>2026-05-03T11:27:37.782Z</time></trkpt><trkpt lat="54.3144933" lon="-2.2169767"><ele>232.6</ele><time>2026-05-03T11:27:38.784Z</time></trkpt><trkpt lat="54.3144483" lon="-2.2171417"><ele>232.0</ele><time>2026-05-03T11:27:39.783Z</time></trkpt><trkpt lat="54.314415" lon="-2.2173017"><ele>232.0</ele><time>2026-05-03T11:27:40.783Z</time></trkpt><trkpt lat="54.3143883" lon="-2.2174667"><ele>232.0</ele><time>2026-05-03T11:27:41.784Z</time></trkpt><trkpt lat="54.3143767" lon="-2.21764"><ele>232.0</ele><time>2026-05-03T11:27:42.785Z</time></trkpt><trkpt lat="54.31438" lon="-2.2178267"><ele>232.0</ele><time>2026-05-03T11:27:43.787Z</time></trkpt><trkpt lat="54.3144" lon="-2.2180217"><ele>232.0</ele><time>2026-05-03T11:27:44.785Z</time></trkpt><trkpt lat="54.314445" lon="-2.2182167"><ele>232.0</ele><time>2026-05-03T11:27:45.786Z</time></trkpt><trkpt lat="54.3145083" lon="-2.218415"><ele>232.0</ele><time>2026-05-03T11:27:46.786Z</time></trkpt><trkpt lat="54.31457" lon="-2.218625"><ele>232.0</ele><time>2026-05-03T11:27:47.782Z</time></trkpt><trkpt lat="54.31462" lon="-2.21884"><ele>232.0</ele><time>2026-05-03T11:27:48.784Z</time></trkpt><trkpt lat="54.3146617" lon="-2.21906"><ele>232.5</ele><time>2026-05-03T11:27:49.784Z</time></trkpt><trkpt lat="54.3146983" lon="-2.2192683"><ele>233.0</ele><time>2026-05-03T11:27:50.783Z</time></trkpt><trkpt lat="54.3147367" lon="-2.21946"><ele>233.5</ele><time>2026-05-03T11:27:51.783Z</time></trkpt><trkpt lat="54.3147717" lon="-2.219645"><ele>234.0</ele><time>2026-05-03T11:27:52.783Z</time></trkpt><trkpt lat="54.314805" lon="-2.21983"><ele>234.0</ele><time>2026-05-03T11:27:53.782Z</time></trkpt><trkpt lat="54.3148383" lon="-2.2200183"><ele>233.99999999999997</ele><time>2026-05-03T11:27:54.783Z</time></trkpt><trkpt lat="54.3148667" lon="-2.2202117"><ele>233.99999999999997</ele><time>2026-05-03T11:27:55.784Z</time></trkpt><trkpt lat="54.3148883" lon="-2.2203867"><ele>234.0</ele><time>2026-05-03T11:27:56.783Z</time></trkpt><trkpt lat="54.3149017" lon="-2.2205333"><ele>234.0</ele><time>2026-05-03T11:27:57.785Z</time></trkpt><trkpt lat="54.3149" lon="-2.2206467"><ele>234.0</ele><time>2026-05-03T11:27:58.787Z</time></trkpt><trkpt lat="54.314835" lon="-2.22076"><ele>234.0</ele><time>2026-05-03T11:28:00.785Z</time></trkpt><trkpt lat="54.31475" lon="-2.22075"><ele>234.0</ele><time>2026-05-03T11:28:02.786Z</time></trkpt><trkpt lat="54.314685" lon="-2.220685"><ele>234.0</ele><time>2026-05-03T11:28:03.784Z</time></trkpt><trkpt lat="54.314615" lon="-2.2206017"><ele>234.0</ele><time>2026-05-03T11:28:04.787Z</time></trkpt><trkpt lat="54.3145383" lon="-2.22049"><ele>234.0</ele><time>2026-05-03T11:28:05.784Z</time></trkpt><trkpt lat="54.314465" lon="-2.2203567"><ele>234.0</ele><time>2026-05-03T11:28:06.784Z</time></trkpt><trkpt lat="54.3143983" lon="-2.2202133"><ele>233.99999999999997</ele><time>2026-05-03T11:28:07.788Z</time></trkpt><trkpt lat="54.3143433" lon="-2.220075"><ele>233.99999999999997</ele><time>2026-05-03T11:28:08.784Z</time></trkpt><trkpt lat="54.3142933" lon="-2.219955"><ele>234.0</ele><time>2026-05-03T11:28:09.786Z</time></trkpt><trkpt lat="54.31424" lon="-2.2198667"><ele>234.0</ele><time>2026-05-03T11:28:10.79Z</time></trkpt><trkpt lat="54.314135" lon="-2.2198067"><ele>234.2</ele><time>2026-05-03T11:28:12.785Z</time></trkpt><trkpt lat="54.3140217" lon="-2.219905"><ele>234.39999999999998</ele><time>2026-05-03T11:28:14.789Z</time></trkpt><trkpt lat="54.3139467" lon="-2.21998"><ele>234.6</ele><time>2026-05-03T11:28:15.785Z</time></trkpt><trkpt lat="54.313855" lon="-2.2200483"><ele>234.8</ele><time>2026-05-03T11:28:16.785Z</time></trkpt><trkpt lat="54.313735" lon="-2.22012"><ele>235.0</ele><time>2026-05-03T11:28:17.787Z</time></trkpt><trkpt lat="54.31358" lon="-2.2201767"><ele>234.33333333333331</ele><time>2026-05-03T11:28:18.785Z</time></trkpt><trkpt lat="54.3134167" lon="-2.2202317"><ele>233.66666666666669</ele><time>2026-05-03T11:28:19.787Z</time></trkpt><trkpt lat="54.3132533" lon="-2.2202967"><ele>233.0</ele><time>2026-05-03T11:28:20.785Z</time></trkpt><trkpt lat="54.313085" lon="-2.220375"><ele>233.0</ele><time>2026-05-03T11:28:21.784Z</time></trkpt><trkpt lat="54.3129133" lon="-2.22046"><ele>233.0</ele><time>2026-05-03T11:28:22.785Z</time></trkpt><trkpt lat="54.312745" lon="-2.2205467"><ele>233.0</ele><time>2026-05-03T11:28:23.786Z</time></trkpt><trkpt lat="54.3125833" lon="-2.2206233"><ele>233.25</ele><time>2026-05-03T11:28:24.784Z</time></trkpt><trkpt lat="54.3124383" lon="-2.220695"><ele>233.5</ele><time>2026-05-03T11:28:25.787Z</time></trkpt><trkpt lat="54.3123083" lon="-2.2207533"><ele>233.75</ele><time>2026-05-03T11:28:26.785Z</time></trkpt><trkpt lat="54.3121833" lon="-2.2207967"><ele>234.0</ele><time>2026-05-03T11:28:27.784Z</time></trkpt><trkpt lat="54.3120583" lon="-2.2208"><ele>234.2</ele><time>2026-05-03T11:28:28.787Z</time></trkpt><trkpt lat="54.3119333" lon="-2.2207667"><ele>234.39999999999998</ele><time>2026-05-03T11:28:29.785Z</time></trkpt><trkpt lat="54.3118217" lon="-2.22071"><ele>234.6</ele><time>2026-05-03T11:28:30.783Z</time></trkpt><trkpt lat="54.311725" lon="-2.22065"><ele>234.8</ele><time>2026-05-03T11:28:31.784Z</time></trkpt><trkpt lat="54.3116433" lon="-2.2205867"><ele>235.0</ele><time>2026-05-03T11:28:32.784Z</time></trkpt><trkpt lat="54.3115767" lon="-2.2205017"><ele>234.99999999999997</ele><time>2026-05-03T11:28:33.784Z</time></trkpt><trkpt lat="54.3115267" lon="-2.2204"><ele>235.0</ele><time>2026-05-03T11:28:34.784Z</time></trkpt><trkpt lat="54.3114967" lon="-2.22028"><ele>235.0</ele><time>2026-05-03T11:28:35.785Z</time></trkpt><trkpt lat="54.31149" lon="-2.2201617"><ele>235.0</ele><time>2026-05-03T11:28:36.786Z</time></trkpt><trkpt lat="54.3114933" lon="-2.2200133"><ele>234.99999999999997</ele><time>2026-05-03T11:28:37.789Z</time></trkpt><trkpt lat="54.3115217" lon="-2.2198533"><ele>235.0</ele><time>2026-05-03T11:28:38.788Z</time></trkpt><trkpt lat="54.3115717" lon="-2.219665"><ele>235.0</ele><time>2026-05-03T11:28:39.787Z</time></trkpt><trkpt lat="54.3116267" lon="-2.2194633"><ele>235.0</ele><time>2026-05-03T11:28:40.787Z</time></trkpt><trkpt lat="54.31167" lon="-2.2192517"><ele>235.0</ele><time>2026-05-03T11:28:41.783Z</time></trkpt><trkpt lat="54.311685" lon="-2.2190433"><ele>235.0</ele><time>2026-05-03T11:28:42.786Z</time></trkpt><trkpt lat="54.3116833" lon="-2.2188267"><ele>235.0</ele><time>2026-05-03T11:28:43.784Z</time></trkpt><trkpt lat="54.3116667" lon="-2.2186017"><ele>235.0</ele><time>2026-05-03T11:28:44.787Z</time></trkpt><trkpt lat="54.3116583" lon="-2.2183883"><ele>235.0</ele><time>2026-05-03T11:28:45.783Z</time></trkpt><trkpt lat="54.3116533" lon="-2.2181933"><ele>235.0</ele><time>2026-05-03T11:28:46.784Z</time></trkpt><trkpt lat="54.311635" lon="-2.2180017"><ele>235.0</ele><time>2026-05-03T11:28:47.786Z</time></trkpt><trkpt lat="54.3116033" lon="-2.2178183"><ele>235.0</ele><time>2026-05-03T11:28:48.786Z</time></trkpt><trkpt lat="54.3115683" lon="-2.217635"><ele>235.0</ele><time>2026-05-03T11:28:49.786Z</time></trkpt><trkpt lat="54.3115117" lon="-2.2174817"><ele>235.0</ele><time>2026-05-03T11:28:50.785Z</time></trkpt><trkpt lat="54.3114217" lon="-2.217345"><ele>235.0</ele><time>2026-05-03T11:28:51.786Z</time></trkpt><trkpt lat="54.3113233" lon="-2.217245"><ele>235.0</ele><time>2026-05-03T11:28:52.786Z</time></trkpt><trkpt lat="54.3112233" lon="-2.217175"><ele>235.0</ele><time>2026-05-03T11:28:53.785Z</time></trkpt><trkpt lat="54.3111333" lon="-2.2170983"><ele>235.0</ele><time>2026-05-03T11:28:54.785Z</time></trkpt><trkpt lat="54.31106" lon="-2.216995"><ele>235.0</ele><time>2026-05-03T11:28:55.787Z</time></trkpt><trkpt lat="54.3110033" lon="-2.216845"><ele>235.0</ele><time>2026-05-03T11:28:56.786Z</time></trkpt><trkpt lat="54.3109617" lon="-2.2166633"><ele>235.0</ele><time>2026-05-03T11:28:57.786Z</time></trkpt><trkpt lat="54.3109133" lon="-2.216435"><ele>235.0</ele><time>2026-05-03T11:28:58.789Z</time></trkpt><trkpt lat="54.3108767" lon="-2.2161867"><ele>235.0</ele><time>2026-05-03T11:28:59.783Z</time></trkpt><trkpt lat="54.3108233" lon="-2.2159283"><ele>234.33333333333331</ele><time>2026-05-03T11:29:00.786Z</time></trkpt><trkpt lat="54.3107583" lon="-2.2156733"><ele>233.66666666666669</ele><time>2026-05-03T11:29:01.787Z</time></trkpt><trkpt lat="54.3106783" lon="-2.2154333"><ele>233.0</ele><time>2026-05-03T11:29:02.784Z</time></trkpt><trkpt lat="54.3106067" lon="-2.2152067"><ele>233.0</ele><time>2026-05-03T11:29:03.786Z</time></trkpt><trkpt lat="54.31053" lon="-2.21499"><ele>233.0</ele><time>2026-05-03T11:29:04.786Z</time></trkpt><trkpt lat="54.3104583" lon="-2.214775"><ele>233.0</ele><time>2026-05-03T11:29:05.786Z</time></trkpt><trkpt lat="54.3103883" lon="-2.2145583"><ele>233.0</ele><time>2026-05-03T11:29:06.786Z</time></trkpt><trkpt lat="54.3103317" lon="-2.2143433"><ele>232.75</ele><time>2026-05-03T11:29:07.786Z</time></trkpt><trkpt lat="54.3102867" lon="-2.214115"><ele>232.5</ele><time>2026-05-03T11:29:08.787Z</time></trkpt><trkpt lat="54.31026" lon="-2.21388"><ele>232.25</ele><time>2026-05-03T11:29:09.784Z</time></trkpt><trkpt lat="54.310235" lon="-2.21365"><ele>232.0</ele><time>2026-05-03T11:29:10.785Z</time></trkpt><trkpt lat="54.3102033" lon="-2.2134167"><ele>231.5</ele><time>2026-05-03T11:29:11.788Z</time></trkpt><trkpt lat="54.3101667" lon="-2.2131883"><ele>231.0</ele><time>2026-05-03T11:29:12.786Z</time></trkpt><trkpt lat="54.310125" lon="-2.2129767"><ele>230.5</ele><time>2026-05-03T11:29:13.788Z</time></trkpt><trkpt lat="54.3100683" lon="-2.2127683"><ele>230.0</ele><time>2026-05-03T11:29:14.787Z</time></trkpt><trkpt lat="54.3100067" lon="-2.2125633"><ele>229.75</ele><time>2026-05-03T11:29:15.783Z</time></trkpt><trkpt lat="54.3099483" lon="-2.2123717"><ele>229.5</ele><time>2026-05-03T11:29:16.787Z</time></trkpt><trkpt lat="54.3098883" lon="-2.2121967"><ele>229.25</ele><time>2026-05-03T11:29:17.783Z</time></trkpt><trkpt lat="54.309815" lon="-2.2120467"><ele>229.0</ele><time>2026-05-03T11:29:18.785Z</time></trkpt><trkpt lat="54.309715" lon="-2.21194"><ele>229.0</ele><time>2026-05-03T11:29:19.786Z</time></trkpt><trkpt lat="54.3095983" lon="-2.2118567"><ele>229.0</ele><time>2026-05-03T11:29:20.785Z</time></trkpt><trkpt lat="54.3094767" lon="-2.211755"><ele>229.0</ele><time>2026-05-03T11:29:21.785Z</time></trkpt><trkpt lat="54.3093583" lon="-2.2116317"><ele>229.0</ele><time>2026-05-03T11:29:22.786Z</time></trkpt><trkpt lat="54.30924" lon="-2.21149"><ele>228.66666666666666</ele><time>2026-05-03T11:29:23.786Z</time></trkpt><trkpt lat="54.3091217" lon="-2.2113333"><ele>228.33333333333331</ele><time>2026-05-03T11:29:24.787Z</time></trkpt><trkpt lat="54.309" lon="-2.21117"><ele>228.0</ele><time>2026-05-03T11:29:25.785Z</time></trkpt><trkpt lat="54.3088817" lon="-2.2109883"><ele>229.33333333333331</ele><time>2026-05-03T11:29:26.786Z</time></trkpt><trkpt lat="54.3087767" lon="-2.21079"><ele>230.66666666666666</ele><time>2026-05-03T11:29:27.787Z</time></trkpt><trkpt lat="54.3086767" lon="-2.21058"><ele>232.0</ele><time>2026-05-03T11:29:28.784Z</time></trkpt><trkpt lat="54.30858" lon="-2.2103633"><ele>232.0</ele><time>2026-05-03T11:29:29.784Z</time></trkpt><trkpt lat="54.3084867" lon="-2.2101517"><ele>232.0</ele><time>2026-05-03T11:29:30.788Z</time></trkpt><trkpt lat="54.308405" lon="-2.2099467"><ele>232.0</ele><time>2026-05-03T11:29:31.788Z</time></trkpt><trkpt lat="54.3083283" lon="-2.2097567"><ele>232.0</ele><time>2026-05-03T11:29:32.787Z</time></trkpt><trkpt lat="54.3082433" lon="-2.20957"><ele>231.75</ele><time>2026-05-03T11:29:33.782Z</time></trkpt><trkpt lat="54.308145" lon="-2.2093967"><ele>231.5</ele><time>2026-05-03T11:29:34.783Z</time></trkpt><trkpt lat="54.3080333" lon="-2.209245"><ele>231.25</ele><time>2026-05-03T11:29:35.788Z</time></trkpt><trkpt lat="54.3079217" lon="-2.2090933"><ele>231.0</ele><time>2026-05-03T11:29:36.784Z</time></trkpt><trkpt lat="54.3078167" lon="-2.208925"><ele>233.5</ele><time>2026-05-03T11:29:37.787Z</time></trkpt><trkpt lat="54.30773" lon="-2.2087417"><ele>236.0</ele><time>2026-05-03T11:29:38.786Z</time></trkpt><trkpt lat="54.307665" lon="-2.2085483"><ele>238.5</ele><time>2026-05-03T11:29:39.786Z</time></trkpt><trkpt lat="54.307615" lon="-2.208365"><ele>241.0</ele><time>2026-05-03T11:29:40.787Z</time></trkpt><trkpt lat="54.3075483" lon="-2.2081883"><ele>240.49999999999997</ele><time>2026-05-03T11:29:41.786Z</time></trkpt><trkpt lat="54.3074967" lon="-2.2080383"><ele>240.0</ele><time>2026-05-03T11:29:42.786Z</time></trkpt><trkpt lat="54.3074417" lon="-2.2079183"><ele>239.5</ele><time>2026-05-03T11:29:43.786Z</time></trkpt><trkpt lat="54.3073817" lon="-2.2078067"><ele>239.0</ele><time>2026-05-03T11:29:44.787Z</time></trkpt><trkpt lat="54.30732" lon="-2.2077183"><ele>238.49999999999997</ele><time>2026-05-03T11:29:45.786Z</time></trkpt><trkpt lat="54.3072617" lon="-2.20764"><ele>238.0</ele><time>2026-05-03T11:29:46.785Z</time></trkpt><trkpt lat="54.3072" lon="-2.20758"><ele>239.0</ele><time>2026-05-03T11:29:47.786Z</time></trkpt><trkpt lat="54.30712" lon="-2.2075167"><ele>240.0</ele><time>2026-05-03T11:29:48.787Z</time></trkpt><trkpt lat="54.3070383" lon="-2.20744"><ele>241.0</ele><time>2026-05-03T11:29:49.785Z</time></trkpt><trkpt lat="54.3069467" lon="-2.20736"><ele>242.0</ele><time>2026-05-03T11:29:50.786Z</time></trkpt><trkpt lat="54.30685" lon="-2.20729"><ele>243.0</ele><time>2026-05-03T11:29:51.786Z</time></trkpt><trkpt lat="54.3067467" lon="-2.207215"><ele>243.0</ele><time>2026-05-03T11:29:52.786Z</time></trkpt><trkpt lat="54.306645" lon="-2.2071267"><ele>243.0</ele><time>2026-05-03T11:29:53.786Z</time></trkpt><trkpt lat="54.3065517" lon="-2.2070367"><ele>243.0</ele><time>2026-05-03T11:29:54.787Z</time></trkpt><trkpt lat="54.3064567" lon="-2.20695"><ele>243.0</ele><time>2026-05-03T11:29:55.787Z</time></trkpt><trkpt lat="54.3063683" lon="-2.2068633"><ele>243.0</ele><time>2026-05-03T11:29:56.787Z</time></trkpt><trkpt lat="54.306275" lon="-2.2067817"><ele>243.4</ele><time>2026-05-03T11:29:57.783Z</time></trkpt><trkpt lat="54.3061883" lon="-2.2066933"><ele>243.8</ele><time>2026-05-03T11:29:58.784Z</time></trkpt><trkpt lat="54.306105" lon="-2.2065967"><ele>244.2</ele><time>2026-05-03T11:29:59.783Z</time></trkpt><trkpt lat="54.306035" lon="-2.2065"><ele>244.6</ele><time>2026-05-03T11:30:00.784Z</time></trkpt><trkpt lat="54.3059733" lon="-2.206405"><ele>245.0</ele><time>2026-05-03T11:30:01.785Z</time></trkpt><trkpt lat="54.3059133" lon="-2.2063083"><ele>245.0</ele><time>2026-05-03T11:30:02.788Z</time></trkpt><trkpt lat="54.3058417" lon="-2.2062133"><ele>245.0</ele><time>2026-05-03T11:30:03.784Z</time></trkpt><trkpt lat="54.3057633" lon="-2.206115"><ele>245.0</ele><time>2026-05-03T11:30:04.783Z</time></trkpt><trkpt lat="54.30569" lon="-2.206015"><ele>245.0</ele><time>2026-05-03T11:30:05.784Z</time></trkpt><trkpt lat="54.3056233" lon="-2.2059033"><ele>245.0</ele><time>2026-05-03T11:30:06.783Z</time></trkpt><trkpt lat="54.3055667" lon="-2.205765"><ele>246.5</ele><time>2026-05-03T11:30:07.786Z</time></trkpt><trkpt lat="54.30552" lon="-2.205605"><ele>248.0</ele><time>2026-05-03T11:30:08.783Z</time></trkpt><trkpt lat="54.3054883" lon="-2.20542"><ele>249.5</ele><time>2026-05-03T11:30:09.784Z</time></trkpt><trkpt lat="54.3054617" lon="-2.2052133"><ele>251.0</ele><time>2026-05-03T11:30:10.784Z</time></trkpt><trkpt lat="54.305435" lon="-2.205015"><ele>251.0</ele><time>2026-05-03T11:30:11.784Z</time></trkpt><trkpt lat="54.305405" lon="-2.2048367"><ele>251.00000000000003</ele><time>2026-05-03T11:30:12.784Z</time></trkpt><trkpt lat="54.30537" lon="-2.20468"><ele>251.00000000000003</ele><time>2026-05-03T11:30:13.783Z</time></trkpt><trkpt lat="54.3053183" lon="-2.2045433"><ele>251.0</ele><time>2026-05-03T11:30:14.784Z</time></trkpt><trkpt lat="54.305265" lon="-2.2044167"><ele>251.0</ele><time>2026-05-03T11:30:15.783Z</time></trkpt><trkpt lat="54.3051833" lon="-2.204295"><ele>250.8</ele><time>2026-05-03T11:30:16.785Z</time></trkpt><trkpt lat="54.305095" lon="-2.2041733"><ele>250.60000000000002</ele><time>2026-05-03T11:30:17.783Z</time></trkpt><trkpt lat="54.305" lon="-2.20405"><ele>250.4</ele><time>2026-05-03T11:30:18.784Z</time></trkpt><trkpt lat="54.3049217" lon="-2.2039283"><ele>250.2</ele><time>2026-05-03T11:30:19.783Z</time></trkpt><trkpt lat="54.30485" lon="-2.2038217"><ele>250.0</ele><time>2026-05-03T11:30:20.787Z</time></trkpt><trkpt lat="54.3047883" lon="-2.2037383"><ele>250.33333333333331</ele><time>2026-05-03T11:30:21.783Z</time></trkpt><trkpt lat="54.304725" lon="-2.2036683"><ele>250.66666666666666</ele><time>2026-05-03T11:30:22.783Z</time></trkpt><trkpt lat="54.3046683" lon="-2.2036083"><ele>251.0</ele><time>2026-05-03T11:30:23.783Z</time></trkpt><trkpt lat="54.3045583" lon="-2.2035117"><ele>251.33333333333331</ele><time>2026-05-03T11:30:25.783Z</time></trkpt><trkpt lat="54.3045" lon="-2.2034617"><ele>251.66666666666666</ele><time>2026-05-03T11:30:26.784Z</time></trkpt><trkpt lat="54.30444" lon="-2.2034083"><ele>252.0</ele><time>2026-05-03T11:30:27.783Z</time></trkpt><trkpt lat="54.30436" lon="-2.2033017"><ele>252.0</ele><time>2026-05-03T11:30:29.783Z</time></trkpt><trkpt lat="54.30431" lon="-2.2032083"><ele>252.0</ele><time>2026-05-03T11:30:31.785Z</time></trkpt><trkpt lat="54.3042683" lon="-2.2031167"><ele>252.0</ele><time>2026-05-03T11:30:51.784Z</time></trkpt><trkpt lat="54.304195" lon="-2.203035"><ele>252.0</ele><time>2026-05-03T11:30:59.784Z</time></trkpt><trkpt lat="54.3041283" lon="-2.2030717"><ele>252.0</ele><time>2026-05-03T11:31:21.784Z</time></trkpt><trkpt lat="54.3040883" lon="-2.2031617"><ele>252.0</ele><time>2026-05-03T11:31:59.785Z</time></trkpt><trkpt lat="54.3040533" lon="-2.2033283"><ele>252.0</ele><time>2026-05-03T11:32:01.787Z</time></trkpt><trkpt lat="54.3040133" lon="-2.2034333"><ele>252.0</ele><time>2026-05-03T11:32:02.784Z</time></trkpt><trkpt lat="54.3039617" lon="-2.20354"><ele>252.0</ele><time>2026-05-03T11:32:03.783Z</time></trkpt><trkpt lat="54.3038967" lon="-2.2036483"><ele>252.0</ele><time>2026-05-03T11:32:04.786Z</time></trkpt><trkpt lat="54.303835" lon="-2.203795"><ele>252.0</ele><time>2026-05-03T11:32:05.784Z</time></trkpt><trkpt lat="54.303785" lon="-2.2039683"><ele>254.5</ele><time>2026-05-03T11:32:06.786Z</time></trkpt><trkpt lat="54.3037417" lon="-2.204175"><ele>257.0</ele><time>2026-05-03T11:32:07.785Z</time></trkpt><trkpt lat="54.303705" lon="-2.2043883"><ele>259.5</ele><time>2026-05-03T11:32:08.784Z</time></trkpt><trkpt lat="54.303665" lon="-2.2046217"><ele>262.0</ele><time>2026-05-03T11:32:09.783Z</time></trkpt><trkpt lat="54.3036233" lon="-2.2048483"><ele>262.0</ele><time>2026-05-03T11:32:10.787Z</time></trkpt><trkpt lat="54.30358" lon="-2.205075"><ele>262.0</ele><time>2026-05-03T11:32:11.785Z</time></trkpt><trkpt lat="54.3035333" lon="-2.20531"><ele>262.0</ele><time>2026-05-03T11:32:12.784Z</time></trkpt><trkpt lat="54.3034817" lon="-2.2055517"><ele>262.0</ele><time>2026-05-03T11:32:13.787Z</time></trkpt><trkpt lat="54.3034233" lon="-2.2057933"><ele>262.5</ele><time>2026-05-03T11:32:14.785Z</time></trkpt><trkpt lat="54.3033717" lon="-2.206025"><ele>263.0</ele><time>2026-05-03T11:32:15.786Z</time></trkpt><trkpt lat="54.30333" lon="-2.2062367"><ele>263.5</ele><time>2026-05-03T11:32:16.787Z</time></trkpt><trkpt lat="54.30329" lon="-2.2064383"><ele>264.0</ele><time>2026-05-03T11:32:17.785Z</time></trkpt><trkpt lat="54.3032533" lon="-2.20664"><ele>264.25</ele><time>2026-05-03T11:32:18.788Z</time></trkpt><trkpt lat="54.30321" lon="-2.2068417"><ele>264.5</ele><time>2026-05-03T11:32:19.786Z</time></trkpt><trkpt lat="54.3031667" lon="-2.2070467"><ele>264.75</ele><time>2026-05-03T11:32:20.785Z</time></trkpt><trkpt lat="54.303125" lon="-2.2072533"><ele>265.0</ele><time>2026-05-03T11:32:21.783Z</time></trkpt><trkpt lat="54.303085" lon="-2.2074667"><ele>265.5</ele><time>2026-05-03T11:32:22.787Z</time></trkpt><trkpt lat="54.3030417" lon="-2.2076867"><ele>266.0</ele><time>2026-05-03T11:32:23.784Z</time></trkpt><trkpt lat="54.3030017" lon="-2.207915"><ele>266.5</ele><time>2026-05-03T11:32:24.784Z</time></trkpt><trkpt lat="54.30296" lon="-2.2081417"><ele>267.0</ele><time>2026-05-03T11:32:25.785Z</time></trkpt><trkpt lat="54.3029217" lon="-2.20837"><ele>267.75</ele><time>2026-05-03T11:32:26.785Z</time></trkpt><trkpt lat="54.3028867" lon="-2.2085983"><ele>268.5</ele><time>2026-05-03T11:32:27.785Z</time></trkpt><trkpt lat="54.30285" lon="-2.20882"><ele>269.25</ele><time>2026-05-03T11:32:28.785Z</time></trkpt><trkpt lat="54.302815" lon="-2.2090333"><ele>270.0</ele><time>2026-05-03T11:32:29.788Z</time></trkpt><trkpt lat="54.302775" lon="-2.2092483"><ele>271.5</ele><time>2026-05-03T11:32:30.787Z</time></trkpt><trkpt lat="54.3027233" lon="-2.2094433"><ele>273.0</ele><time>2026-05-03T11:32:31.786Z</time></trkpt><trkpt lat="54.302665" lon="-2.2096233"><ele>274.5</ele><time>2026-05-03T11:32:32.784Z</time></trkpt><trkpt lat="54.3026083" lon="-2.2098017"><ele>276.0</ele><time>2026-05-03T11:32:33.785Z</time></trkpt><trkpt lat="54.3025583" lon="-2.20999"><ele>277.25</ele><time>2026-05-03T11:32:34.786Z</time></trkpt><trkpt lat="54.3025133" lon="-2.2101833"><ele>278.5</ele><time>2026-05-03T11:32:35.784Z</time></trkpt><trkpt lat="54.3024783" lon="-2.2103933"><ele>279.75</ele><time>2026-05-03T11:32:36.784Z</time></trkpt><trkpt lat="54.30246" lon="-2.210615"><ele>281.0</ele><time>2026-05-03T11:32:37.784Z</time></trkpt><trkpt lat="54.3024583" lon="-2.21085"><ele>281.75</ele><time>2026-05-03T11:32:38.785Z</time></trkpt><trkpt lat="54.3024517" lon="-2.211085"><ele>282.5</ele><time>2026-05-03T11:32:39.787Z</time></trkpt><trkpt lat="54.3024383" lon="-2.2113233"><ele>283.25</ele><time>2026-05-03T11:32:40.785Z</time></trkpt><trkpt lat="54.3024267" lon="-2.2115667"><ele>284.0</ele><time>2026-05-03T11:32:41.785Z</time></trkpt><trkpt lat="54.3024133" lon="-2.2118"><ele>284.0</ele><time>2026-05-03T11:32:42.786Z</time></trkpt><trkpt lat="54.3024" lon="-2.212035"><ele>284.0</ele><time>2026-05-03T11:32:43.787Z</time></trkpt><trkpt lat="54.3023967" lon="-2.212265"><ele>284.0</ele><time>2026-05-03T11:32:44.786Z</time></trkpt><trkpt lat="54.3023867" lon="-2.2124867"><ele>284.0</ele><time>2026-05-03T11:32:45.787Z</time></trkpt><trkpt lat="54.302365" lon="-2.2126867"><ele>284.0</ele><time>2026-05-03T11:32:46.788Z</time></trkpt><trkpt lat="54.3023283" lon="-2.2128633"><ele>284.0</ele><time>2026-05-03T11:32:47.785Z</time></trkpt><trkpt lat="54.3022717" lon="-2.213025"><ele>284.0</ele><time>2026-05-03T11:32:48.785Z</time></trkpt><trkpt lat="54.302195" lon="-2.21318"><ele>284.0</ele><time>2026-05-03T11:32:49.785Z</time></trkpt><trkpt lat="54.3021067" lon="-2.2133233"><ele>284.8</ele><time>2026-05-03T11:32:50.784Z</time></trkpt><trkpt lat="54.3020217" lon="-2.213465"><ele>285.59999999999997</ele><time>2026-05-03T11:32:51.787Z</time></trkpt><trkpt lat="54.3019467" lon="-2.2136033"><ele>286.4</ele><time>2026-05-03T11:32:52.785Z</time></trkpt><trkpt lat="54.3018767" lon="-2.213745"><ele>287.2</ele><time>2026-05-03T11:32:53.788Z</time></trkpt><trkpt lat="54.301815" lon="-2.2138883"><ele>288.0</ele><time>2026-05-03T11:32:54.785Z</time></trkpt><trkpt lat="54.30176" lon="-2.2140383"><ele>288.1666666666667</ele><time>2026-05-03T11:32:55.785Z</time></trkpt><trkpt lat="54.30171" lon="-2.2141867"><ele>288.3333333333333</ele><time>2026-05-03T11:32:56.785Z</time></trkpt><trkpt lat="54.3016683" lon="-2.2143267"><ele>288.5</ele><time>2026-05-03T11:32:57.785Z</time></trkpt><trkpt lat="54.30163" lon="-2.214455"><ele>288.66666666666663</ele><time>2026-05-03T11:32:58.785Z</time></trkpt><trkpt lat="54.3015933" lon="-2.2145733"><ele>288.8333333333333</ele><time>2026-05-03T11:32:59.784Z</time></trkpt><trkpt lat="54.3015533" lon="-2.21471"><ele>289.0</ele><time>2026-05-03T11:33:00.784Z</time></trkpt><trkpt lat="54.30151" lon="-2.2148783"><ele>289.25</ele><time>2026-05-03T11:33:01.785Z</time></trkpt><trkpt lat="54.301465" lon="-2.2150717"><ele>289.5</ele><time>2026-05-03T11:33:02.784Z</time></trkpt><trkpt lat="54.3014217" lon="-2.2152983"><ele>289.75</ele><time>2026-05-03T11:33:03.785Z</time></trkpt><trkpt lat="54.3013767" lon="-2.21554"><ele>290.0</ele><time>2026-05-03T11:33:04.791Z</time></trkpt><trkpt lat="54.3013233" lon="-2.2157783"><ele>292.75</ele><time>2026-05-03T11:33:05.787Z</time></trkpt><trkpt lat="54.301265" lon="-2.2160133"><ele>295.5</ele><time>2026-05-03T11:33:06.786Z</time></trkpt><trkpt lat="54.301215" lon="-2.21623"><ele>298.25</ele><time>2026-05-03T11:33:07.787Z</time></trkpt><trkpt lat="54.3011733" lon="-2.2164217"><ele>301.0</ele><time>2026-05-03T11:33:08.786Z</time></trkpt><trkpt lat="54.3011417" lon="-2.2165667"><ele>301.5</ele><time>2026-05-03T11:33:09.788Z</time></trkpt><trkpt lat="54.301125" lon="-2.2166717"><ele>302.0</ele><time>2026-05-03T11:33:10.787Z</time></trkpt><trkpt lat="54.3010983" lon="-2.2168"><ele>302.5</ele><time>2026-05-03T11:33:12.785Z</time></trkpt><trkpt lat="54.3011233" lon="-2.2169183"><ele>303.0</ele><time>2026-05-03T11:42:38.787Z</time></trkpt><trkpt lat="54.3011417" lon="-2.2170267"><ele>303.5</ele><time>2026-05-03T11:42:41.785Z</time></trkpt><trkpt lat="54.30117" lon="-2.2171883"><ele>304.0</ele><time>2026-05-03T11:42:44.786Z</time></trkpt><trkpt lat="54.3011883" lon="-2.2173233"><ele>304.3333333333333</ele><time>2026-05-03T11:42:46.787Z</time></trkpt><trkpt lat="54.30121" lon="-2.2174683"><ele>304.66666666666663</ele><time>2026-05-03T11:42:48.787Z</time></trkpt><trkpt lat="54.3012233" lon="-2.2176067"><ele>305.0</ele><time>2026-05-03T11:42:50.783Z</time></trkpt><trkpt lat="54.301235" lon="-2.2177283"><ele>305.3333333333333</ele><time>2026-05-03T11:42:52.787Z</time></trkpt><trkpt lat="54.3012533" lon="-2.2178533"><ele>305.6666666666667</ele><time>2026-05-03T11:42:54.787Z</time></trkpt><trkpt lat="54.3012667" lon="-2.217975"><ele>306.0</ele><time>2026-05-03T11:42:56.787Z</time></trkpt><trkpt lat="54.301285" lon="-2.2181083"><ele>306.6666666666667</ele><time>2026-05-03T11:42:58.787Z</time></trkpt><trkpt lat="54.3013" lon="-2.2182483"><ele>307.3333333333333</ele><time>2026-05-03T11:43:00.786Z</time></trkpt><trkpt lat="54.30131" lon="-2.2183667"><ele>308.0</ele><time>2026-05-03T11:45:03.787Z</time></trkpt><trkpt lat="54.30133" lon="-2.2184967"><ele>308.66666666666663</ele><time>2026-05-03T11:45:05.785Z</time></trkpt><trkpt lat="54.3013467" lon="-2.218645"><ele>309.3333333333333</ele><time>2026-05-03T11:45:07.787Z</time></trkpt><trkpt lat="54.3013567" lon="-2.2187633"><ele>310.0</ele><time>2026-05-03T11:45:09.787Z</time></trkpt><trkpt lat="54.3013683" lon="-2.2188867"><ele>310.0</ele><time>2026-05-03T11:46:58.785Z</time></trkpt><trkpt lat="54.3013833" lon="-2.219035"><ele>310.0</ele><time>2026-05-03T11:47:00.786Z</time></trkpt><trkpt lat="54.3014017" lon="-2.2192517"><ele>310.0</ele><time>2026-05-03T11:47:02.784Z</time></trkpt><trkpt lat="54.301415" lon="-2.2193767"><ele>310.0</ele><time>2026-05-03T11:47:03.784Z</time></trkpt><trkpt lat="54.301425" lon="-2.2195083"><ele>310.0</ele><time>2026-05-03T11:47:04.788Z</time></trkpt><trkpt lat="54.3014317" lon="-2.219645"><ele>310.0</ele><time>2026-05-03T11:47:05.784Z</time></trkpt><trkpt lat="54.3014367" lon="-2.2197817"><ele>309.66666666666663</ele><time>2026-05-03T11:47:06.783Z</time></trkpt><trkpt lat="54.30144" lon="-2.2199233"><ele>309.3333333333333</ele><time>2026-05-03T11:47:07.784Z</time></trkpt><trkpt lat="54.3014417" lon="-2.2200667"><ele>309.0</ele><time>2026-05-03T11:47:08.784Z</time></trkpt><trkpt lat="54.3014417" lon="-2.2202117"><ele>308.6666666666667</ele><time>2026-05-03T11:47:09.782Z</time></trkpt><trkpt lat="54.3014383" lon="-2.2203433"><ele>308.33333333333337</ele><time>2026-05-03T11:47:10.786Z</time></trkpt><trkpt lat="54.3014333" lon="-2.22046"><ele>308.0</ele><time>2026-05-03T11:47:11.786Z</time></trkpt><trkpt lat="54.3014317" lon="-2.2206367"><ele>308.14285714285717</ele><time>2026-05-03T11:47:13.786Z</time></trkpt><trkpt lat="54.3014217" lon="-2.2207683"><ele>308.2857142857143</ele><time>2026-05-03T11:47:16.784Z</time></trkpt><trkpt lat="54.3014067" lon="-2.2208933"><ele>308.42857142857144</ele><time>2026-05-03T11:47:59.783Z</time></trkpt><trkpt lat="54.3014033" lon="-2.2210217"><ele>308.57142857142856</ele><time>2026-05-03T11:48:01.784Z</time></trkpt><trkpt lat="54.30139" lon="-2.2211333"><ele>308.7142857142857</ele><time>2026-05-03T11:48:03.784Z</time></trkpt><trkpt lat="54.30139" lon="-2.2212617"><ele>308.8571428571429</ele><time>2026-05-03T11:48:05.783Z</time></trkpt><trkpt lat="54.3013867" lon="-2.221395"><ele>309.0</ele><time>2026-05-03T11:48:07.784Z</time></trkpt><trkpt lat="54.3013833" lon="-2.2215267"><ele>309.5714285714286</ele><time>2026-05-03T11:48:09.786Z</time></trkpt><trkpt lat="54.3013767" lon="-2.2216633"><ele>310.14285714285717</ele><time>2026-05-03T11:48:11.787Z</time></trkpt><trkpt lat="54.3013683" lon="-2.2217983"><ele>310.7142857142857</ele><time>2026-05-03T11:48:13.787Z</time></trkpt><trkpt lat="54.3013633" lon="-2.22192"><ele>311.28571428571433</ele><time>2026-05-03T11:48:15.784Z</time></trkpt><trkpt lat="54.301355" lon="-2.2220383"><ele>311.8571428571429</ele><time>2026-05-03T11:48:17.785Z</time></trkpt><trkpt lat="54.3013467" lon="-2.222165"><ele>312.42857142857144</ele><time>2026-05-03T11:48:19.789Z</time></trkpt><trkpt lat="54.3013417" lon="-2.2222833"><ele>313.0</ele><time>2026-05-03T11:48:21.786Z</time></trkpt><trkpt lat="54.3013433" lon="-2.22242"><ele>313.2</ele><time>2026-05-03T11:48:23.782Z</time></trkpt><trkpt lat="54.301335" lon="-2.222575"><ele>313.4</ele><time>2026-05-03T11:48:25.788Z</time></trkpt><trkpt lat="54.301325" lon="-2.2227483"><ele>313.59999999999997</ele><time>2026-05-03T11:48:27.784Z</time></trkpt><trkpt lat="54.3013117" lon="-2.22294"><ele>313.8</ele><time>2026-05-03T11:48:29.785Z</time></trkpt><trkpt lat="54.3012967" lon="-2.2231367"><ele>314.0</ele><time>2026-05-03T11:48:31.784Z</time></trkpt><trkpt lat="54.3012717" lon="-2.2233483"><ele>314.4285714285714</ele><time>2026-05-03T11:48:33.784Z</time></trkpt><trkpt lat="54.3012533" lon="-2.2234667"><ele>314.85714285714283</ele><time>2026-05-03T11:48:34.787Z</time></trkpt><trkpt lat="54.3012317" lon="-2.2235833"><ele>315.2857142857143</ele><time>2026-05-03T11:48:35.783Z</time></trkpt><trkpt lat="54.30121" lon="-2.2236983"><ele>315.71428571428567</ele><time>2026-05-03T11:48:36.783Z</time></trkpt><trkpt lat="54.301185" lon="-2.2238133"><ele>316.1428571428571</ele><time>2026-05-03T11:48:37.784Z</time></trkpt><trkpt lat="54.3011583" lon="-2.2239283"><ele>316.57142857142856</ele><time>2026-05-03T11:48:38.783Z</time></trkpt><trkpt lat="54.3011283" lon="-2.2240417"><ele>317.0</ele><time>2026-05-03T11:48:39.784Z</time></trkpt><trkpt lat="54.3010983" lon="-2.22415"><ele>317.57142857142856</ele><time>2026-05-03T11:48:40.784Z</time></trkpt><trkpt lat="54.30107" lon="-2.22426"><ele>318.1428571428571</ele><time>2026-05-03T11:48:41.784Z</time></trkpt><trkpt lat="54.3010433" lon="-2.224375"><ele>318.71428571428567</ele><time>2026-05-03T11:48:42.787Z</time></trkpt><trkpt lat="54.3010167" lon="-2.22449"><ele>319.2857142857143</ele><time>2026-05-03T11:48:43.785Z</time></trkpt><trkpt lat="54.3009883" lon="-2.224595"><ele>319.85714285714283</ele><time>2026-05-03T11:48:44.787Z</time></trkpt><trkpt lat="54.30096" lon="-2.2246967"><ele>320.4285714285714</ele><time>2026-05-03T11:48:45.784Z</time></trkpt><trkpt lat="54.30093" lon="-2.2248033"><ele>321.0</ele><time>2026-05-03T11:48:46.787Z</time></trkpt><trkpt lat="54.3008983" lon="-2.2249183"><ele>321.6</ele><time>2026-05-03T11:48:47.784Z</time></trkpt><trkpt lat="54.30087" lon="-2.2250283"><ele>322.20000000000005</ele><time>2026-05-03T11:48:48.787Z</time></trkpt><trkpt lat="54.300825" lon="-2.2252017"><ele>322.79999999999995</ele><time>2026-05-03T11:48:50.783Z</time></trkpt><trkpt lat="54.3007817" lon="-2.2253617"><ele>323.4</ele><time>2026-05-03T11:48:52.787Z</time></trkpt><trkpt lat="54.3007317" lon="-2.2255267"><ele>324.0</ele><time>2026-05-03T11:48:54.784Z</time></trkpt><trkpt lat="54.3006883" lon="-2.2256633"><ele>324.3333333333333</ele><time>2026-05-03T11:48:56.784Z</time></trkpt><trkpt lat="54.3006433" lon="-2.225815"><ele>324.6666666666667</ele><time>2026-05-03T11:48:58.787Z</time></trkpt><trkpt lat="54.3006133" lon="-2.2259133"><ele>325.0</ele><time>2026-05-03T11:48:59.784Z</time></trkpt><trkpt lat="54.3005817" lon="-2.2260167"><ele>325.33333333333337</ele><time>2026-05-03T11:49:00.785Z</time></trkpt><trkpt lat="54.300555" lon="-2.2261217"><ele>325.6666666666667</ele><time>2026-05-03T11:49:01.784Z</time></trkpt><trkpt lat="54.3005067" lon="-2.2263033"><ele>326.0</ele><time>2026-05-03T11:49:03.783Z</time></trkpt><trkpt lat="54.3004567" lon="-2.2264967"><ele>327.4</ele><time>2026-05-03T11:49:05.784Z</time></trkpt><trkpt lat="54.3004317" lon="-2.2265967"><ele>328.8</ele><time>2026-05-03T11:49:06.783Z</time></trkpt><trkpt lat="54.30038" lon="-2.2267983"><ele>330.2</ele><time>2026-05-03T11:49:08.784Z</time></trkpt><trkpt lat="54.3003533" lon="-2.2268967"><ele>331.59999999999997</ele><time>2026-05-03T11:49:09.784Z</time></trkpt><trkpt lat="54.300305" lon="-2.2270733"><ele>333.0</ele><time>2026-05-03T11:49:11.784Z</time></trkpt><trkpt lat="54.3002567" lon="-2.2272833"><ele>332.79999999999995</ele><time>2026-05-03T11:49:13.783Z</time></trkpt><trkpt lat="54.30023" lon="-2.227405"><ele>332.6</ele><time>2026-05-03T11:49:14.786Z</time></trkpt><trkpt lat="54.3002" lon="-2.22755"><ele>332.4</ele><time>2026-05-03T11:49:15.783Z</time></trkpt><trkpt lat="54.300175" lon="-2.2277133"><ele>332.20000000000005</ele><time>2026-05-03T11:49:16.783Z</time></trkpt><trkpt lat="54.30015" lon="-2.22788"><ele>332.0</ele><time>2026-05-03T11:49:17.784Z</time></trkpt><trkpt lat="54.300125" lon="-2.2280517"><ele>331.8</ele><time>2026-05-03T11:49:18.784Z</time></trkpt><trkpt lat="54.3001" lon="-2.2282317"><ele>331.6</ele><time>2026-05-03T11:49:19.787Z</time></trkpt><trkpt lat="54.300075" lon="-2.228415"><ele>331.40000000000003</ele><time>2026-05-03T11:49:20.786Z</time></trkpt><trkpt lat="54.30005" lon="-2.2286017"><ele>331.20000000000005</ele><time>2026-05-03T11:49:21.783Z</time></trkpt><trkpt lat="54.3000283" lon="-2.2287967"><ele>331.0</ele><time>2026-05-03T11:49:22.787Z</time></trkpt><trkpt lat="54.300005" lon="-2.229"><ele>330.75</ele><time>2026-05-03T11:49:23.786Z</time></trkpt><trkpt lat="54.2999817" lon="-2.2292083"><ele>330.5</ele><time>2026-05-03T11:49:24.784Z</time></trkpt><trkpt lat="54.299965" lon="-2.2294133"><ele>330.25</ele><time>2026-05-03T11:49:25.787Z</time></trkpt><trkpt lat="54.2999483" lon="-2.2296033"><ele>330.0</ele><time>2026-05-03T11:49:26.787Z</time></trkpt><trkpt lat="54.2999317" lon="-2.22979"><ele>329.6</ele><time>2026-05-03T11:49:27.784Z</time></trkpt><trkpt lat="54.2999183" lon="-2.22997"><ele>329.2</ele><time>2026-05-03T11:49:28.787Z</time></trkpt><trkpt lat="54.2999017" lon="-2.230155"><ele>328.79999999999995</ele><time>2026-05-03T11:49:29.784Z</time></trkpt><trkpt lat="54.2998867" lon="-2.2303467"><ele>328.4</ele><time>2026-05-03T11:49:30.783Z</time></trkpt><trkpt lat="54.29987" lon="-2.2305333"><ele>328.0</ele><time>2026-05-03T11:49:31.787Z</time></trkpt><trkpt lat="54.2998567" lon="-2.2307217"><ele>327.66666666666663</ele><time>2026-05-03T11:49:32.784Z</time></trkpt><trkpt lat="54.2998467" lon="-2.2309067"><ele>327.3333333333333</ele><time>2026-05-03T11:49:33.785Z</time></trkpt><trkpt lat="54.2998383" lon="-2.23107"><ele>327.0</ele><time>2026-05-03T11:49:34.787Z</time></trkpt><trkpt lat="54.2998283" lon="-2.2312117"><ele>326.6666666666667</ele><time>2026-05-03T11:49:35.784Z</time></trkpt><trkpt lat="54.2998167" lon="-2.23133"><ele>326.33333333333337</ele><time>2026-05-03T11:49:36.785Z</time></trkpt><trkpt lat="54.2998" lon="-2.2314483"><ele>326.0</ele><time>2026-05-03T11:49:38.784Z</time></trkpt><trkpt lat="54.2998083" lon="-2.2315833"><ele>325.20000000000005</ele><time>2026-05-03T11:51:02.784Z</time></trkpt><trkpt lat="54.2998017" lon="-2.23171"><ele>324.40000000000003</ele><time>2026-05-03T11:51:04.787Z</time></trkpt><trkpt lat="54.2997983" lon="-2.23185"><ele>323.6</ele><time>2026-05-03T11:51:06.785Z</time></trkpt><trkpt lat="54.299785" lon="-2.2319967"><ele>322.8</ele><time>2026-05-03T11:51:08.787Z</time></trkpt><trkpt lat="54.2997767" lon="-2.2321667"><ele>322.0</ele><time>2026-05-03T11:51:10.783Z</time></trkpt><trkpt lat="54.2997683" lon="-2.2323533"><ele>322.0</ele><time>2026-05-03T11:51:12.783Z</time></trkpt><trkpt lat="54.2997567" lon="-2.2325567"><ele>322.0</ele><time>2026-05-03T11:51:14.783Z</time></trkpt><trkpt lat="54.2997483" lon="-2.232665"><ele>322.0</ele><time>2026-05-03T11:51:15.784Z</time></trkpt><trkpt lat="54.2997417" lon="-2.2327767"><ele>322.0</ele><time>2026-05-03T11:51:16.787Z</time></trkpt><trkpt lat="54.2997333" lon="-2.2328867"><ele>322.0</ele><time>2026-05-03T11:51:17.782Z</time></trkpt><trkpt lat="54.2997233" lon="-2.2330967"><ele>322.0</ele><time>2026-05-03T11:51:19.784Z</time></trkpt><trkpt lat="54.29972" lon="-2.2332083"><ele>322.42857142857144</ele><time>2026-05-03T11:51:20.784Z</time></trkpt><trkpt lat="54.2997167" lon="-2.2333233"><ele>322.8571428571429</ele><time>2026-05-03T11:51:21.784Z</time></trkpt><trkpt lat="54.299715" lon="-2.2334333"><ele>323.2857142857143</ele><time>2026-05-03T11:51:22.783Z</time></trkpt><trkpt lat="54.299715" lon="-2.2335433"><ele>323.7142857142857</ele><time>2026-05-03T11:51:23.783Z</time></trkpt><trkpt lat="54.299715" lon="-2.233655"><ele>324.14285714285717</ele><time>2026-05-03T11:51:24.783Z</time></trkpt><trkpt lat="54.2997167" lon="-2.233765"><ele>324.57142857142856</ele><time>2026-05-03T11:51:25.784Z</time></trkpt><trkpt lat="54.2997167" lon="-2.2339717"><ele>325.0</ele><time>2026-05-03T11:51:27.783Z</time></trkpt><trkpt lat="54.299715" lon="-2.2341583"><ele>325.0</ele><time>2026-05-03T11:51:29.787Z</time></trkpt><trkpt lat="54.299715" lon="-2.234335"><ele>325.0</ele><time>2026-05-03T11:51:31.787Z</time></trkpt><trkpt lat="54.2997117" lon="-2.234515"><ele>325.0</ele><time>2026-05-03T11:51:33.787Z</time></trkpt><trkpt lat="54.2997" lon="-2.23471"><ele>325.0</ele><time>2026-05-03T11:51:35.783Z</time></trkpt><trkpt lat="54.29968" lon="-2.234905"><ele>325.0</ele><time>2026-05-03T11:51:37.784Z</time></trkpt><trkpt lat="54.2996533" lon="-2.2350333"><ele>324.16666666666663</ele><time>2026-05-03T11:51:39.783Z</time></trkpt><trkpt lat="54.29961" lon="-2.2351383"><ele>323.3333333333333</ele><time>2026-05-03T11:51:42.784Z</time></trkpt><trkpt lat="54.2996033" lon="-2.2352567"><ele>322.5</ele><time>2026-05-03T11:57:47.783Z</time></trkpt><trkpt lat="54.2995883" lon="-2.235415"><ele>321.6666666666667</ele><time>2026-05-03T11:57:49.786Z</time></trkpt><trkpt lat="54.2995683" lon="-2.2355467"><ele>320.83333333333337</ele><time>2026-05-03T11:57:50.787Z</time></trkpt><trkpt lat="54.2995367" lon="-2.2357233"><ele>320.0</ele><time>2026-05-03T11:57:51.785Z</time></trkpt><trkpt lat="54.2994883" lon="-2.23597"><ele>318.33333333333337</ele><time>2026-05-03T11:57:52.783Z</time></trkpt><trkpt lat="54.2994483" lon="-2.236225"><ele>316.6666666666667</ele><time>2026-05-03T11:57:53.787Z</time></trkpt><trkpt lat="54.2994127" lon="-2.2364863"><ele>315.0</ele><time>2026-05-03T11:57:54.786Z</time></trkpt><trkpt lat="54.2993745" lon="-2.2367754"><ele>313.6666666666667</ele><time>2026-05-03T11:57:55.787Z</time></trkpt><trkpt lat="54.2993359" lon="-2.237086"><ele>312.33333333333337</ele><time>2026-05-03T11:57:56.784Z</time></trkpt><trkpt lat="54.2992983" lon="-2.2374078"><ele>311.0</ele><time>2026-05-03T11:57:57.787Z</time></trkpt><trkpt lat="54.299262" lon="-2.2377225"><ele>310.0</ele><time>2026-05-03T11:57:58.787Z</time></trkpt><trkpt lat="54.2992227" lon="-2.2380241"><ele>309.0</ele><time>2026-05-03T11:57:59.784Z</time></trkpt><trkpt lat="54.2991837" lon="-2.2383176"><ele>308.0</ele><time>2026-05-03T11:58:00.783Z</time></trkpt><trkpt lat="54.2991481" lon="-2.2386124"><ele>306.33333333333337</ele><time>2026-05-03T11:58:01.784Z</time></trkpt><trkpt lat="54.2991106" lon="-2.2389057"><ele>304.6666666666667</ele><time>2026-05-03T11:58:02.785Z</time></trkpt><trkpt lat="54.2990731" lon="-2.2391948"><ele>303.0</ele><time>2026-05-03T11:58:03.785Z</time></trkpt><trkpt lat="54.2990384" lon="-2.2394725"><ele>301.3333333333333</ele><time>2026-05-03T11:58:04.784Z</time></trkpt><trkpt lat="54.2990041" lon="-2.2397317"><ele>299.66666666666663</ele><time>2026-05-03T11:58:05.785Z</time></trkpt><trkpt lat="54.2989719" lon="-2.2399895"><ele>298.0</ele><time>2026-05-03T11:58:06.786Z</time></trkpt><trkpt lat="54.2989394" lon="-2.2402565"><ele>300.0</ele><time>2026-05-03T11:58:07.784Z</time></trkpt><trkpt lat="54.2989051" lon="-2.2405247"><ele>302.0</ele><time>2026-05-03T11:58:08.784Z</time></trkpt><trkpt lat="54.2988681" lon="-2.2407862"><ele>304.0</ele><time>2026-05-03T11:58:09.784Z</time></trkpt><trkpt lat="54.2988269" lon="-2.2410458"><ele>304.0</ele><time>2026-05-03T11:58:10.784Z</time></trkpt><trkpt lat="54.2987827" lon="-2.2412887"><ele>304.0</ele><time>2026-05-03T11:58:11.785Z</time></trkpt><trkpt lat="54.2987415" lon="-2.2415144"><ele>304.0</ele><time>2026-05-03T11:58:12.784Z</time></trkpt><trkpt lat="54.2987024" lon="-2.2417234"><ele>304.0</ele><time>2026-05-03T11:58:13.785Z</time></trkpt><trkpt lat="54.2986641" lon="-2.2419238"><ele>303.25</ele><time>2026-05-03T11:58:14.782Z</time></trkpt><trkpt lat="54.2986244" lon="-2.2421289"><ele>302.5</ele><time>2026-05-03T11:58:15.784Z</time></trkpt><trkpt lat="54.2985812" lon="-2.2423419"><ele>301.75</ele><time>2026-05-03T11:58:16.784Z</time></trkpt><trkpt lat="54.2985314" lon="-2.2425515"><ele>301.0</ele><time>2026-05-03T11:58:17.784Z</time></trkpt><trkpt lat="54.298471" lon="-2.2427449"><ele>299.75</ele><time>2026-05-03T11:58:18.784Z</time></trkpt><trkpt lat="54.2983969" lon="-2.2429255"><ele>298.5</ele><time>2026-05-03T11:58:19.784Z</time></trkpt><trkpt lat="54.2983082" lon="-2.2430961"><ele>297.25</ele><time>2026-05-03T11:58:20.784Z</time></trkpt><trkpt lat="54.2982061" lon="-2.2432624"><ele>296.0</ele><time>2026-05-03T11:58:21.784Z</time></trkpt><trkpt lat="54.2980944" lon="-2.2434347"><ele>296.6666666666667</ele><time>2026-05-03T11:58:22.784Z</time></trkpt><trkpt lat="54.2979771" lon="-2.2436148"><ele>297.3333333333333</ele><time>2026-05-03T11:58:23.784Z</time></trkpt><trkpt lat="54.2978575" lon="-2.2438035"><ele>298.0</ele><time>2026-05-03T11:58:24.783Z</time></trkpt><trkpt lat="54.2977378" lon="-2.2440045"><ele>296.66666666666663</ele><time>2026-05-03T11:58:25.783Z</time></trkpt><trkpt lat="54.2976127" lon="-2.2442092"><ele>295.3333333333333</ele><time>2026-05-03T11:58:26.783Z</time></trkpt><trkpt lat="54.297485" lon="-2.244425"><ele>294.0</ele><time>2026-05-03T11:58:27.784Z</time></trkpt><trkpt lat="54.297355" lon="-2.2446267"><ele>295.6666666666667</ele><time>2026-05-03T11:58:28.784Z</time></trkpt><trkpt lat="54.2972233" lon="-2.244815"><ele>297.33333333333337</ele><time>2026-05-03T11:58:29.784Z</time></trkpt><trkpt lat="54.2971017" lon="-2.2449967"><ele>299.0</ele><time>2026-05-03T11:58:30.784Z</time></trkpt><trkpt lat="54.296985" lon="-2.2451817"><ele>299.0</ele><time>2026-05-03T11:58:31.785Z</time></trkpt><trkpt lat="54.296885" lon="-2.2453767"><ele>299.0</ele><time>2026-05-03T11:58:32.784Z</time></trkpt><trkpt lat="54.2968033" lon="-2.2456"><ele>299.0</ele><time>2026-05-03T11:58:33.784Z</time></trkpt><trkpt lat="54.2967217" lon="-2.2458383"><ele>297.33333333333337</ele><time>2026-05-03T11:58:34.784Z</time></trkpt><trkpt lat="54.29663" lon="-2.2460833"><ele>295.6666666666667</ele><time>2026-05-03T11:58:35.784Z</time></trkpt><trkpt lat="54.2965283" lon="-2.2463183"><ele>294.0</ele><time>2026-05-03T11:58:36.785Z</time></trkpt><trkpt lat="54.2964283" lon="-2.246545"><ele>293.6666666666667</ele><time>2026-05-03T11:58:37.787Z</time></trkpt><trkpt lat="54.29633" lon="-2.2467817"><ele>293.33333333333337</ele><time>2026-05-03T11:58:38.784Z</time></trkpt><trkpt lat="54.2962417" lon="-2.2470383"><ele>293.0</ele><time>2026-05-03T11:58:39.784Z</time></trkpt><trkpt lat="54.2961667" lon="-2.2473133"><ele>293.0</ele><time>2026-05-03T11:58:40.787Z</time></trkpt><trkpt lat="54.2961133" lon="-2.2476017"><ele>293.0</ele><time>2026-05-03T11:58:41.784Z</time></trkpt><trkpt lat="54.2960533" lon="-2.247875"><ele>293.0</ele><time>2026-05-03T11:58:42.786Z</time></trkpt><trkpt lat="54.295975" lon="-2.24813"><ele>290.33333333333337</ele><time>2026-05-03T11:58:43.784Z</time></trkpt><trkpt lat="54.2958833" lon="-2.2483817"><ele>287.6666666666667</ele><time>2026-05-03T11:58:44.784Z</time></trkpt><trkpt lat="54.2957617" lon="-2.2486267"><ele>285.0</ele><time>2026-05-03T11:58:45.783Z</time></trkpt><trkpt lat="54.2956267" lon="-2.2488683"><ele>285.6666666666667</ele><time>2026-05-03T11:58:46.785Z</time></trkpt><trkpt lat="54.2954883" lon="-2.2491167"><ele>286.33333333333337</ele><time>2026-05-03T11:58:47.785Z</time></trkpt><trkpt lat="54.2953517" lon="-2.2493783"><ele>287.0</ele><time>2026-05-03T11:58:48.784Z</time></trkpt><trkpt lat="54.295215" lon="-2.2496383"><ele>285.6666666666667</ele><time>2026-05-03T11:58:49.785Z</time></trkpt><trkpt lat="54.29508" lon="-2.24989"><ele>284.3333333333333</ele><time>2026-05-03T11:58:50.783Z</time></trkpt><trkpt lat="54.2949517" lon="-2.2501133"><ele>283.0</ele><time>2026-05-03T11:58:51.783Z</time></trkpt><trkpt lat="54.29483" lon="-2.250315"><ele>283.25</ele><time>2026-05-03T11:58:52.784Z</time></trkpt><trkpt lat="54.2947167" lon="-2.2504983"><ele>283.5</ele><time>2026-05-03T11:58:53.786Z</time></trkpt><trkpt lat="54.2946067" lon="-2.25067"><ele>283.75</ele><time>2026-05-03T11:58:54.786Z</time></trkpt><trkpt lat="54.2945033" lon="-2.250835"><ele>284.0</ele><time>2026-05-03T11:58:55.784Z</time></trkpt><trkpt lat="54.2944033" lon="-2.2510017"><ele>283.0</ele><time>2026-05-03T11:58:56.787Z</time></trkpt><trkpt lat="54.2943033" lon="-2.2511683"><ele>282.0</ele><time>2026-05-03T11:58:57.784Z</time></trkpt><trkpt lat="54.2942017" lon="-2.2513383"><ele>281.0</ele><time>2026-05-03T11:58:58.783Z</time></trkpt><trkpt lat="54.2940983" lon="-2.251515"><ele>280.0</ele><time>2026-05-03T11:58:59.785Z</time></trkpt><trkpt lat="54.2939967" lon="-2.2516933"><ele>279.3333333333333</ele><time>2026-05-03T11:59:00.786Z</time></trkpt><trkpt lat="54.2938933" lon="-2.25188"><ele>278.6666666666667</ele><time>2026-05-03T11:59:01.784Z</time></trkpt><trkpt lat="54.2937967" lon="-2.2520883"><ele>278.0</ele><time>2026-05-03T11:59:02.787Z</time></trkpt><trkpt lat="54.29371" lon="-2.2523033"><ele>277.33333333333337</ele><time>2026-05-03T11:59:03.784Z</time></trkpt><trkpt lat="54.293625" lon="-2.2525267"><ele>276.6666666666667</ele><time>2026-05-03T11:59:04.785Z</time></trkpt><trkpt lat="54.29354" lon="-2.252755"><ele>276.0</ele><time>2026-05-03T11:59:05.785Z</time></trkpt><trkpt lat="54.2934433" lon="-2.2529767"><ele>275.0</ele><time>2026-05-03T11:59:06.787Z</time></trkpt><trkpt lat="54.29334" lon="-2.2531883"><ele>274.0</ele><time>2026-05-03T11:59:07.785Z</time></trkpt><trkpt lat="54.29324" lon="-2.2533983"><ele>273.0</ele><time>2026-05-03T11:59:08.787Z</time></trkpt><trkpt lat="54.293135" lon="-2.2536017"><ele>274.0</ele><time>2026-05-03T11:59:09.786Z</time></trkpt><trkpt lat="54.29303" lon="-2.2538067"><ele>275.0</ele><time>2026-05-03T11:59:10.787Z</time></trkpt><trkpt lat="54.292925" lon="-2.2540133"><ele>276.0</ele><time>2026-05-03T11:59:11.784Z</time></trkpt><trkpt lat="54.2928167" lon="-2.254205"><ele>276.0</ele><time>2026-05-03T11:59:12.788Z</time></trkpt><trkpt lat="54.292705" lon="-2.2543817"><ele>276.0</ele><time>2026-05-03T11:59:13.786Z</time></trkpt><trkpt lat="54.292585" lon="-2.25455"><ele>276.0</ele><time>2026-05-03T11:59:14.784Z</time></trkpt><trkpt lat="54.2924567" lon="-2.25471"><ele>276.3333333333333</ele><time>2026-05-03T11:59:15.784Z</time></trkpt><trkpt lat="54.2923183" lon="-2.25486"><ele>276.66666666666663</ele><time>2026-05-03T11:59:16.783Z</time></trkpt><trkpt lat="54.2921783" lon="-2.25499"><ele>277.0</ele><time>2026-05-03T11:59:17.784Z</time></trkpt><trkpt lat="54.2920383" lon="-2.2551083"><ele>277.0</ele><time>2026-05-03T11:59:18.784Z</time></trkpt><trkpt lat="54.291895" lon="-2.2552283"><ele>277.0</ele><time>2026-05-03T11:59:19.784Z</time></trkpt><trkpt lat="54.291755" lon="-2.25535"><ele>277.0</ele><time>2026-05-03T11:59:20.783Z</time></trkpt><trkpt lat="54.2916183" lon="-2.255455"><ele>277.0</ele><time>2026-05-03T11:59:21.784Z</time></trkpt><trkpt lat="54.2914933" lon="-2.25556"><ele>277.0</ele><time>2026-05-03T11:59:22.785Z</time></trkpt><trkpt lat="54.291375" lon="-2.25567"><ele>277.0</ele><time>2026-05-03T11:59:23.783Z</time></trkpt><trkpt lat="54.29127" lon="-2.25579"><ele>277.0</ele><time>2026-05-03T11:59:24.784Z</time></trkpt><trkpt lat="54.2911783" lon="-2.255925"><ele>276.75</ele><time>2026-05-03T11:59:25.784Z</time></trkpt><trkpt lat="54.2910983" lon="-2.25609"><ele>276.5</ele><time>2026-05-03T11:59:26.783Z</time></trkpt><trkpt lat="54.291035" lon="-2.25628"><ele>276.25</ele><time>2026-05-03T11:59:27.783Z</time></trkpt><trkpt lat="54.2909883" lon="-2.2564933"><ele>276.0</ele><time>2026-05-03T11:59:28.785Z</time></trkpt><trkpt lat="54.2909667" lon="-2.2567267"><ele>275.0</ele><time>2026-05-03T11:59:29.784Z</time></trkpt><trkpt lat="54.2909667" lon="-2.2569617"><ele>274.0</ele><time>2026-05-03T11:59:30.787Z</time></trkpt><trkpt lat="54.2909867" lon="-2.2571983"><ele>273.0</ele><time>2026-05-03T11:59:31.789Z</time></trkpt><trkpt lat="54.2910017" lon="-2.2574383"><ele>272.0</ele><time>2026-05-03T11:59:32.787Z</time></trkpt><trkpt lat="54.2910033" lon="-2.257695"><ele>272.0</ele><time>2026-05-03T11:59:33.784Z</time></trkpt><trkpt lat="54.2909833" lon="-2.2579583"><ele>272.0</ele><time>2026-05-03T11:59:34.788Z</time></trkpt><trkpt lat="54.2909467" lon="-2.25823"><ele>272.0</ele><time>2026-05-03T11:59:35.783Z</time></trkpt><trkpt lat="54.29089" lon="-2.2585117"><ele>272.6666666666667</ele><time>2026-05-03T11:59:36.783Z</time></trkpt><trkpt lat="54.2908167" lon="-2.2587867"><ele>273.3333333333333</ele><time>2026-05-03T11:59:37.789Z</time></trkpt><trkpt lat="54.2907267" lon="-2.2590417"><ele>274.0</ele><time>2026-05-03T11:59:38.784Z</time></trkpt><trkpt lat="54.2906183" lon="-2.2592833"><ele>276.0</ele><time>2026-05-03T11:59:39.784Z</time></trkpt><trkpt lat="54.2904933" lon="-2.2594883"><ele>278.0</ele><time>2026-05-03T11:59:40.784Z</time></trkpt><trkpt lat="54.290355" lon="-2.259675"><ele>280.0</ele><time>2026-05-03T11:59:41.784Z</time></trkpt><trkpt lat="54.2902067" lon="-2.25987"><ele>281.0</ele><time>2026-05-03T11:59:42.783Z</time></trkpt><trkpt lat="54.2900483" lon="-2.260075"><ele>282.0</ele><time>2026-05-03T11:59:43.784Z</time></trkpt><trkpt lat="54.2898883" lon="-2.2602867"><ele>283.0</ele><time>2026-05-03T11:59:44.784Z</time></trkpt><trkpt lat="54.28972" lon="-2.26049"><ele>283.3333333333333</ele><time>2026-05-03T11:59:45.783Z</time></trkpt><trkpt lat="54.28955" lon="-2.26068"><ele>283.6666666666667</ele><time>2026-05-03T11:59:46.784Z</time></trkpt><trkpt lat="54.2893717" lon="-2.26086"><ele>284.0</ele><time>2026-05-03T11:59:47.784Z</time></trkpt><trkpt lat="54.2891917" lon="-2.2610267"><ele>284.0</ele><time>2026-05-03T11:59:48.783Z</time></trkpt><trkpt lat="54.2890167" lon="-2.2611867"><ele>284.0</ele><time>2026-05-03T11:59:49.784Z</time></trkpt><trkpt lat="54.28885" lon="-2.26135"><ele>284.0</ele><time>2026-05-03T11:59:50.784Z</time></trkpt><trkpt lat="54.2886917" lon="-2.26152"><ele>283.6666666666667</ele><time>2026-05-03T11:59:51.782Z</time></trkpt><trkpt lat="54.2885433" lon="-2.2616883"><ele>283.3333333333333</ele><time>2026-05-03T11:59:52.784Z</time></trkpt><trkpt lat="54.2884067" lon="-2.2618517"><ele>283.0</ele><time>2026-05-03T11:59:53.783Z</time></trkpt><trkpt lat="54.2882833" lon="-2.262005"><ele>283.0</ele><time>2026-05-03T11:59:54.783Z</time></trkpt><trkpt lat="54.28817" lon="-2.2621567"><ele>283.0</ele><time>2026-05-03T11:59:55.785Z</time></trkpt><trkpt lat="54.2880683" lon="-2.262325"><ele>283.0</ele><time>2026-05-03T11:59:56.786Z</time></trkpt><trkpt lat="54.2879867" lon="-2.2625283"><ele>283.0</ele><time>2026-05-03T11:59:57.783Z</time></trkpt><trkpt lat="54.2879233" lon="-2.26278"><ele>283.0</ele><time>2026-05-03T11:59:58.788Z</time></trkpt><trkpt lat="54.287885" lon="-2.263085"><ele>283.0</ele><time>2026-05-03T11:59:59.783Z</time></trkpt><trkpt lat="54.287855" lon="-2.263405"><ele>283.0</ele><time>2026-05-03T12:00:00.784Z</time></trkpt><trkpt lat="54.2878083" lon="-2.2637283"><ele>282.0</ele><time>2026-05-03T12:00:01.784Z</time></trkpt><trkpt lat="54.2877317" lon="-2.26405"><ele>281.0</ele><time>2026-05-03T12:00:02.784Z</time></trkpt><trkpt lat="54.2876233" lon="-2.264355"><ele>280.0</ele><time>2026-05-03T12:00:03.783Z</time></trkpt><trkpt lat="54.28749" lon="-2.2646267"><ele>280.66666666666663</ele><time>2026-05-03T12:00:04.783Z</time></trkpt><trkpt lat="54.2873433" lon="-2.2648917"><ele>281.3333333333333</ele><time>2026-05-03T12:00:05.785Z</time></trkpt><trkpt lat="54.28719" lon="-2.265165"><ele>282.0</ele><time>2026-05-03T12:00:06.784Z</time></trkpt><trkpt lat="54.28704" lon="-2.2654433"><ele>283.0</ele><time>2026-05-03T12:00:07.784Z</time></trkpt><trkpt lat="54.2868917" lon="-2.2657383"><ele>284.0</ele><time>2026-05-03T12:00:08.784Z</time></trkpt><trkpt lat="54.286745" lon="-2.2660533"><ele>284.0</ele><time>2026-05-03T12:00:09.783Z</time></trkpt><trkpt lat="54.2865983" lon="-2.26638"><ele>284.0</ele><time>2026-05-03T12:00:10.787Z</time></trkpt><trkpt lat="54.2864583" lon="-2.2667167"><ele>285.0</ele><time>2026-05-03T12:00:11.786Z</time></trkpt><trkpt lat="54.2863133" lon="-2.2670617"><ele>286.0</ele><time>2026-05-03T12:00:12.783Z</time></trkpt><trkpt lat="54.2861683" lon="-2.2674033"><ele>286.0</ele><time>2026-05-03T12:00:13.786Z</time></trkpt><trkpt lat="54.286025" lon="-2.2677267"><ele>286.0</ele><time>2026-05-03T12:00:14.783Z</time></trkpt><trkpt lat="54.28589" lon="-2.2680217"><ele>286.0</ele><time>2026-05-03T12:00:15.783Z</time></trkpt><trkpt lat="54.28576" lon="-2.2682933"><ele>286.0</ele><time>2026-05-03T12:00:16.785Z</time></trkpt><trkpt lat="54.2856283" lon="-2.26856"><ele>286.0</ele><time>2026-05-03T12:00:17.784Z</time></trkpt><trkpt lat="54.2855017" lon="-2.2688233"><ele>287.66666666666663</ele><time>2026-05-03T12:00:18.784Z</time></trkpt><trkpt lat="54.2853767" lon="-2.26908"><ele>289.3333333333333</ele><time>2026-05-03T12:00:19.784Z</time></trkpt><trkpt lat="54.285255" lon="-2.26934"><ele>291.0</ele><time>2026-05-03T12:00:20.783Z</time></trkpt><trkpt lat="54.2851333" lon="-2.2695967"><ele>290.6666666666667</ele><time>2026-05-03T12:00:21.784Z</time></trkpt><trkpt lat="54.2850133" lon="-2.2698567"><ele>290.33333333333337</ele><time>2026-05-03T12:00:22.783Z</time></trkpt><trkpt lat="54.2848883" lon="-2.270125"><ele>290.0</ele><time>2026-05-03T12:00:23.785Z</time></trkpt><trkpt lat="54.284765" lon="-2.2704117"><ele>292.33333333333337</ele><time>2026-05-03T12:00:24.784Z</time></trkpt><trkpt lat="54.284645" lon="-2.2707117"><ele>294.6666666666667</ele><time>2026-05-03T12:00:25.787Z</time></trkpt><trkpt lat="54.2845217" lon="-2.2710133"><ele>297.0</ele><time>2026-05-03T12:00:26.786Z</time></trkpt><trkpt lat="54.2843917" lon="-2.2713183"><ele>295.6666666666667</ele><time>2026-05-03T12:00:27.785Z</time></trkpt><trkpt lat="54.2842567" lon="-2.2716267"><ele>294.33333333333337</ele><time>2026-05-03T12:00:28.785Z</time></trkpt><trkpt lat="54.28412" lon="-2.2719283"><ele>293.0</ele><time>2026-05-03T12:00:29.784Z</time></trkpt><trkpt lat="54.283975" lon="-2.2722233"><ele>296.33333333333337</ele><time>2026-05-03T12:00:30.784Z</time></trkpt><trkpt lat="54.2838267" lon="-2.2725083"><ele>299.6666666666667</ele><time>2026-05-03T12:00:31.785Z</time></trkpt><trkpt lat="54.28368" lon="-2.2727833"><ele>303.0</ele><time>2026-05-03T12:00:32.786Z</time></trkpt><trkpt lat="54.2835433" lon="-2.2730417"><ele>301.6666666666667</ele><time>2026-05-03T12:00:33.786Z</time></trkpt><trkpt lat="54.2834133" lon="-2.2732833"><ele>300.33333333333337</ele><time>2026-05-03T12:00:34.784Z</time></trkpt><trkpt lat="54.2832867" lon="-2.273525"><ele>299.0</ele><time>2026-05-03T12:00:35.786Z</time></trkpt><trkpt lat="54.283155" lon="-2.27377"><ele>301.6666666666667</ele><time>2026-05-03T12:00:36.785Z</time></trkpt><trkpt lat="54.2830083" lon="-2.27402"><ele>304.3333333333333</ele><time>2026-05-03T12:00:37.784Z</time></trkpt><trkpt lat="54.2828517" lon="-2.2742783"><ele>307.0</ele><time>2026-05-03T12:00:38.784Z</time></trkpt><trkpt lat="54.2826833" lon="-2.2745417"><ele>303.5</ele><time>2026-05-03T12:00:39.784Z</time></trkpt><trkpt lat="54.2825067" lon="-2.2748083"><ele>300.0</ele><time>2026-05-03T12:00:40.785Z</time></trkpt><trkpt lat="54.2823283" lon="-2.2750683"><ele>303.5</ele><time>2026-05-03T12:00:41.785Z</time></trkpt><trkpt lat="54.2821517" lon="-2.2753267"><ele>307.0</ele><time>2026-05-03T12:00:42.786Z</time></trkpt><trkpt lat="54.2819683" lon="-2.2755667"><ele>304.5</ele><time>2026-05-03T12:00:43.786Z</time></trkpt><trkpt lat="54.2817867" lon="-2.27581"><ele>302.0</ele><time>2026-05-03T12:00:44.785Z</time></trkpt><trkpt lat="54.28161" lon="-2.2760483"><ele>302.0</ele><time>2026-05-03T12:00:45.787Z</time></trkpt><trkpt lat="54.281445" lon="-2.2763067"><ele>302.0</ele><time>2026-05-03T12:00:46.785Z</time></trkpt><trkpt lat="54.2812983" lon="-2.2765767"><ele>302.0</ele><time>2026-05-03T12:00:47.784Z</time></trkpt><trkpt lat="54.2811917" lon="-2.2768533"><ele>304.33333333333337</ele><time>2026-05-03T12:00:48.785Z</time></trkpt><trkpt lat="54.2810917" lon="-2.277125"><ele>306.6666666666667</ele><time>2026-05-03T12:00:49.785Z</time></trkpt><trkpt lat="54.2809917" lon="-2.2773983"><ele>309.0</ele><time>2026-05-03T12:00:50.784Z</time></trkpt><trkpt lat="54.2808783" lon="-2.27767"><ele>309.0</ele><time>2026-05-03T12:00:51.784Z</time></trkpt><trkpt lat="54.2807533" lon="-2.2779467"><ele>309.0</ele><time>2026-05-03T12:00:52.785Z</time></trkpt><trkpt lat="54.2806083" lon="-2.27821"><ele>309.0</ele><time>2026-05-03T12:00:53.787Z</time></trkpt><trkpt lat="54.2804583" lon="-2.2784517"><ele>308.0</ele><time>2026-05-03T12:00:54.783Z</time></trkpt><trkpt lat="54.2803" lon="-2.2786517"><ele>307.0</ele><time>2026-05-03T12:00:55.787Z</time></trkpt><trkpt lat="54.2801433" lon="-2.2788267"><ele>306.0</ele><time>2026-05-03T12:00:56.783Z</time></trkpt><trkpt lat="54.2799933" lon="-2.2790083"><ele>306.0</ele><time>2026-05-03T12:00:57.784Z</time></trkpt><trkpt lat="54.2798667" lon="-2.2792167"><ele>306.0</ele><time>2026-05-03T12:00:58.784Z</time></trkpt><trkpt lat="54.2797533" lon="-2.2794533"><ele>306.0</ele><time>2026-05-03T12:00:59.783Z</time></trkpt><trkpt lat="54.2796267" lon="-2.279685"><ele>308.6666666666667</ele><time>2026-05-03T12:01:00.787Z</time></trkpt><trkpt lat="54.2794733" lon="-2.2798917"><ele>311.33333333333337</ele><time>2026-05-03T12:01:01.787Z</time></trkpt><trkpt lat="54.2793067" lon="-2.2800767"><ele>314.0</ele><time>2026-05-03T12:01:02.785Z</time></trkpt><trkpt lat="54.2791367" lon="-2.28023"><ele>314.0</ele><time>2026-05-03T12:01:03.784Z</time></trkpt><trkpt lat="54.2789717" lon="-2.2803633"><ele>314.0</ele><time>2026-05-03T12:01:04.784Z</time></trkpt><trkpt lat="54.2788283" lon="-2.2804983"><ele>314.0</ele><time>2026-05-03T12:01:05.784Z</time></trkpt><trkpt lat="54.2786933" lon="-2.280665"><ele>318.0</ele><time>2026-05-03T12:01:06.784Z</time></trkpt><trkpt lat="54.2785683" lon="-2.2808667"><ele>322.0</ele><time>2026-05-03T12:01:07.784Z</time></trkpt><trkpt lat="54.2784533" lon="-2.2810633"><ele>326.0</ele><time>2026-05-03T12:01:08.784Z</time></trkpt><trkpt lat="54.2783417" lon="-2.2812433"><ele>326.0</ele><time>2026-05-03T12:01:09.784Z</time></trkpt><trkpt lat="54.2782367" lon="-2.2814033"><ele>326.0</ele><time>2026-05-03T12:01:10.784Z</time></trkpt><trkpt lat="54.2781333" lon="-2.2815483"><ele>326.0</ele><time>2026-05-03T12:01:11.784Z</time></trkpt><trkpt lat="54.2780283" lon="-2.2816933"><ele>326.0</ele><time>2026-05-03T12:01:12.783Z</time></trkpt><trkpt lat="54.2779167" lon="-2.2818267"><ele>329.5</ele><time>2026-05-03T12:01:13.785Z</time></trkpt><trkpt lat="54.2777933" lon="-2.281945"><ele>333.0</ele><time>2026-05-03T12:01:14.784Z</time></trkpt><trkpt lat="54.2776617" lon="-2.2820383"><ele>336.5</ele><time>2026-05-03T12:01:15.783Z</time></trkpt><trkpt lat="54.27752" lon="-2.2821017"><ele>340.0</ele><time>2026-05-03T12:01:16.784Z</time></trkpt><trkpt lat="54.2773783" lon="-2.2821483"><ele>340.0</ele><time>2026-05-03T12:01:17.783Z</time></trkpt><trkpt lat="54.2772283" lon="-2.282195"><ele>340.0</ele><time>2026-05-03T12:01:18.784Z</time></trkpt><trkpt lat="54.2770783" lon="-2.2822417"><ele>340.0</ele><time>2026-05-03T12:01:19.785Z</time></trkpt><trkpt lat="54.276925" lon="-2.2822883"><ele>340.0</ele><time>2026-05-03T12:01:20.784Z</time></trkpt><trkpt lat="54.2767683" lon="-2.282345"><ele>340.0</ele><time>2026-05-03T12:01:21.784Z</time></trkpt><trkpt lat="54.27661" lon="-2.2824267"><ele>340.0</ele><time>2026-05-03T12:01:22.785Z</time></trkpt><trkpt lat="54.2764683" lon="-2.2825417"><ele>343.0</ele><time>2026-05-03T12:01:23.788Z</time></trkpt><trkpt lat="54.27633" lon="-2.2826933"><ele>346.0</ele><time>2026-05-03T12:01:24.783Z</time></trkpt><trkpt lat="54.2762" lon="-2.2828933"><ele>349.0</ele><time>2026-05-03T12:01:25.785Z</time></trkpt><trkpt lat="54.2760717" lon="-2.2831167"><ele>349.0</ele><time>2026-05-03T12:01:26.784Z</time></trkpt><trkpt lat="54.2759517" lon="-2.2833533"><ele>349.0</ele><time>2026-05-03T12:01:27.784Z</time></trkpt><trkpt lat="54.2758267" lon="-2.28361"><ele>349.0</ele><time>2026-05-03T12:01:28.784Z</time></trkpt><trkpt lat="54.2756983" lon="-2.2838767"><ele>351.66666666666663</ele><time>2026-05-03T12:01:29.783Z</time></trkpt><trkpt lat="54.27557" lon="-2.2841317"><ele>354.3333333333333</ele><time>2026-05-03T12:01:30.784Z</time></trkpt><trkpt lat="54.2754467" lon="-2.2843633"><ele>357.0</ele><time>2026-05-03T12:01:31.785Z</time></trkpt><trkpt lat="54.275325" lon="-2.2845883"><ele>353.3333333333333</ele><time>2026-05-03T12:01:32.784Z</time></trkpt><trkpt lat="54.2752083" lon="-2.28482"><ele>349.66666666666663</ele><time>2026-05-03T12:01:33.784Z</time></trkpt><trkpt lat="54.2750933" lon="-2.2850483"><ele>346.0</ele><time>2026-05-03T12:01:34.785Z</time></trkpt><trkpt lat="54.2749783" lon="-2.285275"><ele>346.0</ele><time>2026-05-03T12:01:35.784Z</time></trkpt><trkpt lat="54.2748633" lon="-2.2855067"><ele>346.0</ele><time>2026-05-03T12:01:36.783Z</time></trkpt><trkpt lat="54.274745" lon="-2.2857433"><ele>346.0</ele><time>2026-05-03T12:01:37.785Z</time></trkpt><trkpt lat="54.2746383" lon="-2.2859767"><ele>347.3333333333333</ele><time>2026-05-03T12:01:38.783Z</time></trkpt><trkpt lat="54.2745333" lon="-2.2862017"><ele>348.6666666666667</ele><time>2026-05-03T12:01:39.784Z</time></trkpt><trkpt lat="54.2744267" lon="-2.2864217"><ele>350.0</ele><time>2026-05-03T12:01:40.784Z</time></trkpt><trkpt lat="54.2743267" lon="-2.28664"><ele>350.0</ele><time>2026-05-03T12:01:41.786Z</time></trkpt><trkpt lat="54.274215" lon="-2.2868633"><ele>350.0</ele><time>2026-05-03T12:01:42.786Z</time></trkpt><trkpt lat="54.2740917" lon="-2.28709"><ele>350.0</ele><time>2026-05-03T12:01:43.787Z</time></trkpt><trkpt lat="54.2739683" lon="-2.2873183"><ele>351.6666666666667</ele><time>2026-05-03T12:01:44.783Z</time></trkpt><trkpt lat="54.2738467" lon="-2.2875533"><ele>353.3333333333333</ele><time>2026-05-03T12:01:45.782Z</time></trkpt><trkpt lat="54.2737267" lon="-2.28779"><ele>355.0</ele><time>2026-05-03T12:01:46.787Z</time></trkpt><trkpt lat="54.2736067" lon="-2.28802"><ele>352.0</ele><time>2026-05-03T12:01:47.785Z</time></trkpt><trkpt lat="54.2734917" lon="-2.288235"><ele>349.0</ele><time>2026-05-03T12:01:48.783Z</time></trkpt><trkpt lat="54.2733717" lon="-2.2884283"><ele>346.0</ele><time>2026-05-03T12:01:49.785Z</time></trkpt><trkpt lat="54.2732433" lon="-2.2886017"><ele>348.0</ele><time>2026-05-03T12:01:50.782Z</time></trkpt><trkpt lat="54.273105" lon="-2.2887733"><ele>350.0</ele><time>2026-05-03T12:01:51.782Z</time></trkpt><trkpt lat="54.2729517" lon="-2.2889617"><ele>352.0</ele><time>2026-05-03T12:01:52.784Z</time></trkpt><trkpt lat="54.2727783" lon="-2.2891717"><ele>352.0</ele><time>2026-05-03T12:01:53.784Z</time></trkpt><trkpt lat="54.272585" lon="-2.28939"><ele>352.0</ele><time>2026-05-03T12:01:54.783Z</time></trkpt><trkpt lat="54.2723833" lon="-2.2896083"><ele>351.5</ele><time>2026-05-03T12:01:55.784Z</time></trkpt><trkpt lat="54.2721717" lon="-2.2898233"><ele>351.0</ele><time>2026-05-03T12:01:56.782Z</time></trkpt><trkpt lat="54.2719667" lon="-2.2900333"><ele>351.0</ele><time>2026-05-03T12:01:57.782Z</time></trkpt><trkpt lat="54.27177" lon="-2.2902433"><ele>351.0</ele><time>2026-05-03T12:01:58.784Z</time></trkpt><trkpt lat="54.2715817" lon="-2.2904433"><ele>351.6666666666667</ele><time>2026-05-03T12:01:59.784Z</time></trkpt><trkpt lat="54.2714" lon="-2.2906267"><ele>352.33333333333337</ele><time>2026-05-03T12:02:00.783Z</time></trkpt><trkpt lat="54.27123" lon="-2.29078"><ele>353.0</ele><time>2026-05-03T12:02:01.783Z</time></trkpt><trkpt lat="54.2710583" lon="-2.2909183"><ele>353.0</ele><time>2026-05-03T12:02:02.783Z</time></trkpt><trkpt lat="54.270885" lon="-2.291065"><ele>353.0</ele><time>2026-05-03T12:02:03.783Z</time></trkpt><trkpt lat="54.2707117" lon="-2.2912367"><ele>353.0</ele><time>2026-05-03T12:02:04.784Z</time></trkpt><trkpt lat="54.270545" lon="-2.2914367"><ele>353.6666666666667</ele><time>2026-05-03T12:02:05.783Z</time></trkpt><trkpt lat="54.2703867" lon="-2.2916533"><ele>354.3333333333333</ele><time>2026-05-03T12:02:06.782Z</time></trkpt><trkpt lat="54.2702217" lon="-2.29188"><ele>355.0</ele><time>2026-05-03T12:02:07.785Z</time></trkpt><trkpt lat="54.2700467" lon="-2.2921183"><ele>354.0</ele><time>2026-05-03T12:02:08.787Z</time></trkpt><trkpt lat="54.2698683" lon="-2.2923617"><ele>353.0</ele><time>2026-05-03T12:02:09.784Z</time></trkpt><trkpt lat="54.2696833" lon="-2.2926033"><ele>357.0</ele><time>2026-05-03T12:02:10.786Z</time></trkpt><trkpt lat="54.2694917" lon="-2.29284"><ele>361.0</ele><time>2026-05-03T12:02:11.786Z</time></trkpt><trkpt lat="54.2692983" lon="-2.2930667"><ele>361.0</ele><time>2026-05-03T12:02:12.784Z</time></trkpt><trkpt lat="54.2690983" lon="-2.2932817"><ele>361.0</ele><time>2026-05-03T12:02:13.785Z</time></trkpt><trkpt lat="54.2688883" lon="-2.2934717"><ele>361.0</ele><time>2026-05-03T12:02:14.787Z</time></trkpt><trkpt lat="54.2686717" lon="-2.2936567"><ele>361.0</ele><time>2026-05-03T12:02:15.785Z</time></trkpt><trkpt lat="54.2684567" lon="-2.2938417"><ele>360.5</ele><time>2026-05-03T12:02:16.783Z</time></trkpt><trkpt lat="54.2682383" lon="-2.2940233"><ele>360.0</ele><time>2026-05-03T12:02:17.784Z</time></trkpt><trkpt lat="54.26802" lon="-2.2941967"><ele>360.0</ele><time>2026-05-03T12:02:18.787Z</time></trkpt><trkpt lat="54.2678" lon="-2.2943683"><ele>360.0</ele><time>2026-05-03T12:02:19.784Z</time></trkpt><trkpt lat="54.2675767" lon="-2.2945433"><ele>360.0</ele><time>2026-05-03T12:02:20.784Z</time></trkpt><trkpt lat="54.2673567" lon="-2.29473"><ele>360.0</ele><time>2026-05-03T12:02:21.783Z</time></trkpt><trkpt lat="54.267145" lon="-2.2949217"><ele>362.0</ele><time>2026-05-03T12:02:22.785Z</time></trkpt><trkpt lat="54.266935" lon="-2.2951217"><ele>364.0</ele><time>2026-05-03T12:02:23.784Z</time></trkpt><trkpt lat="54.266725" lon="-2.2953267"><ele>364.0</ele><time>2026-05-03T12:02:24.784Z</time></trkpt><trkpt lat="54.2665183" lon="-2.2955317"><ele>364.0</ele><time>2026-05-03T12:02:25.785Z</time></trkpt><trkpt lat="54.2663117" lon="-2.2957367"><ele>365.0</ele><time>2026-05-03T12:02:26.784Z</time></trkpt><trkpt lat="54.2661033" lon="-2.295935"><ele>366.0</ele><time>2026-05-03T12:02:27.783Z</time></trkpt><trkpt lat="54.2658967" lon="-2.2961233"><ele>366.0</ele><time>2026-05-03T12:02:28.785Z</time></trkpt><trkpt lat="54.2656867" lon="-2.2963067"><ele>366.0</ele><time>2026-05-03T12:02:29.785Z</time></trkpt><trkpt lat="54.2654767" lon="-2.2964817"><ele>366.5</ele><time>2026-05-03T12:02:30.784Z</time></trkpt><trkpt lat="54.2652717" lon="-2.2966583"><ele>367.0</ele><time>2026-05-03T12:02:31.784Z</time></trkpt><trkpt lat="54.265065" lon="-2.2968333"><ele>367.0</ele><time>2026-05-03T12:02:32.784Z</time></trkpt><trkpt lat="54.2648517" lon="-2.29701"><ele>367.0</ele><time>2026-05-03T12:02:33.784Z</time></trkpt><trkpt lat="54.2646367" lon="-2.2971883"><ele>367.5</ele><time>2026-05-03T12:02:34.785Z</time></trkpt><trkpt lat="54.2644217" lon="-2.2973617"><ele>368.0</ele><time>2026-05-03T12:02:35.785Z</time></trkpt><trkpt lat="54.2642083" lon="-2.297535"><ele>368.0</ele><time>2026-05-03T12:02:36.788Z</time></trkpt><trkpt lat="54.263995" lon="-2.29771"><ele>368.0</ele><time>2026-05-03T12:02:37.784Z</time></trkpt><trkpt lat="54.263785" lon="-2.2978817"><ele>368.5</ele><time>2026-05-03T12:02:38.783Z</time></trkpt><trkpt lat="54.263575" lon="-2.298055"><ele>369.0</ele><time>2026-05-03T12:02:39.788Z</time></trkpt><trkpt lat="54.2633617" lon="-2.2982333"><ele>369.0</ele><time>2026-05-03T12:02:40.785Z</time></trkpt><trkpt lat="54.26316" lon="-2.2984283"><ele>369.0</ele><time>2026-05-03T12:02:41.787Z</time></trkpt><trkpt lat="54.2629567" lon="-2.298635"><ele>372.0</ele><time>2026-05-03T12:02:42.785Z</time></trkpt><trkpt lat="54.26276" lon="-2.2988617"><ele>375.0</ele><time>2026-05-03T12:02:43.786Z</time></trkpt><trkpt lat="54.2625683" lon="-2.2990983"><ele>375.0</ele><time>2026-05-03T12:02:44.785Z</time></trkpt><trkpt lat="54.2623817" lon="-2.2993433"><ele>375.0</ele><time>2026-05-03T12:02:45.785Z</time></trkpt><trkpt lat="54.2621983" lon="-2.2996067"><ele>377.6666666666667</ele><time>2026-05-03T12:02:46.785Z</time></trkpt><trkpt lat="54.2620283" lon="-2.2998783"><ele>380.33333333333337</ele><time>2026-05-03T12:02:47.785Z</time></trkpt><trkpt lat="54.2618767" lon="-2.3001417"><ele>383.0</ele><time>2026-05-03T12:02:48.785Z</time></trkpt><trkpt lat="54.2617383" lon="-2.3003883"><ele>383.33333333333337</ele><time>2026-05-03T12:02:49.787Z</time></trkpt><trkpt lat="54.2616033" lon="-2.30062"><ele>383.6666666666667</ele><time>2026-05-03T12:02:50.785Z</time></trkpt><trkpt lat="54.2614667" lon="-2.3008517"><ele>384.0</ele><time>2026-05-03T12:02:51.787Z</time></trkpt><trkpt lat="54.2613183" lon="-2.301075"><ele>385.66666666666663</ele><time>2026-05-03T12:02:52.788Z</time></trkpt><trkpt lat="54.2611583" lon="-2.3012917"><ele>387.3333333333333</ele><time>2026-05-03T12:02:53.784Z</time></trkpt><trkpt lat="54.2609867" lon="-2.3015017"><ele>389.0</ele><time>2026-05-03T12:02:54.788Z</time></trkpt><trkpt lat="54.260805" lon="-2.3017133"><ele>390.5</ele><time>2026-05-03T12:02:55.784Z</time></trkpt><trkpt lat="54.260615" lon="-2.3019283"><ele>392.0</ele><time>2026-05-03T12:02:56.785Z</time></trkpt><trkpt lat="54.2604183" lon="-2.3021383"><ele>392.0</ele><time>2026-05-03T12:02:57.783Z</time></trkpt><trkpt lat="54.26022" lon="-2.3023467"><ele>392.0</ele><time>2026-05-03T12:02:58.785Z</time></trkpt><trkpt lat="54.2600183" lon="-2.30256"><ele>392.0</ele><time>2026-05-03T12:02:59.792Z</time></trkpt><trkpt lat="54.2598217" lon="-2.3027767"><ele>392.0</ele><time>2026-05-03T12:03:00.787Z</time></trkpt><trkpt lat="54.259625" lon="-2.302995"><ele>396.0</ele><time>2026-05-03T12:03:01.79Z</time></trkpt><trkpt lat="54.2594267" lon="-2.3032167"><ele>400.0</ele><time>2026-05-03T12:03:02.787Z</time></trkpt><trkpt lat="54.25923" lon="-2.3034467"><ele>400.0</ele><time>2026-05-03T12:03:03.784Z</time></trkpt><trkpt lat="54.2590317" lon="-2.30369"><ele>400.0</ele><time>2026-05-03T12:03:04.784Z</time></trkpt><trkpt lat="54.258835" lon="-2.30393"><ele>403.5</ele><time>2026-05-03T12:03:05.785Z</time></trkpt><trkpt lat="54.2586383" lon="-2.30417"><ele>407.0</ele><time>2026-05-03T12:03:06.784Z</time></trkpt><trkpt lat="54.25844" lon="-2.304405"><ele>407.0</ele><time>2026-05-03T12:03:07.784Z</time></trkpt><trkpt lat="54.2582433" lon="-2.3046383"><ele>407.0</ele><time>2026-05-03T12:03:08.788Z</time></trkpt><trkpt lat="54.2580483" lon="-2.3048767"><ele>409.5</ele><time>2026-05-03T12:03:09.785Z</time></trkpt><trkpt lat="54.2578633" lon="-2.3051167"><ele>412.0</ele><time>2026-05-03T12:03:10.785Z</time></trkpt><trkpt lat="54.25769" lon="-2.3053717"><ele>410.5</ele><time>2026-05-03T12:03:11.784Z</time></trkpt><trkpt lat="54.2575267" lon="-2.30565"><ele>409.0</ele><time>2026-05-03T12:03:12.784Z</time></trkpt><trkpt lat="54.257365" lon="-2.305955"><ele>412.6666666666667</ele><time>2026-05-03T12:03:13.784Z</time></trkpt><trkpt lat="54.2572117" lon="-2.3062533"><ele>416.33333333333337</ele><time>2026-05-03T12:03:14.787Z</time></trkpt><trkpt lat="54.2570667" lon="-2.30653"><ele>420.0</ele><time>2026-05-03T12:03:15.788Z</time></trkpt><trkpt lat="54.2569317" lon="-2.30679"><ele>420.0</ele><time>2026-05-03T12:03:16.788Z</time></trkpt><trkpt lat="54.2567933" lon="-2.30704"><ele>420.0</ele><time>2026-05-03T12:03:17.784Z</time></trkpt><trkpt lat="54.256645" lon="-2.3072867"><ele>420.0</ele><time>2026-05-03T12:03:18.785Z</time></trkpt><trkpt lat="54.2564833" lon="-2.3075317"><ele>421.66666666666663</ele><time>2026-05-03T12:03:19.785Z</time></trkpt><trkpt lat="54.2563167" lon="-2.30777"><ele>423.3333333333333</ele><time>2026-05-03T12:03:20.784Z</time></trkpt><trkpt lat="54.2561467" lon="-2.3080133"><ele>425.0</ele><time>2026-05-03T12:03:21.785Z</time></trkpt><trkpt lat="54.2559867" lon="-2.30826"><ele>425.0</ele><time>2026-05-03T12:03:22.785Z</time></trkpt><trkpt lat="54.25584" lon="-2.3085217"><ele>425.0</ele><time>2026-05-03T12:03:23.784Z</time></trkpt><trkpt lat="54.2557017" lon="-2.308805"><ele>425.0</ele><time>2026-05-03T12:03:24.784Z</time></trkpt><trkpt lat="54.255575" lon="-2.3091167"><ele>428.0</ele><time>2026-05-03T12:03:25.786Z</time></trkpt><trkpt lat="54.2554667" lon="-2.3094667"><ele>431.0</ele><time>2026-05-03T12:03:26.784Z</time></trkpt><trkpt lat="54.255385" lon="-2.3098667"><ele>431.0</ele><time>2026-05-03T12:03:27.783Z</time></trkpt><trkpt lat="54.25531" lon="-2.3102733"><ele>431.0</ele><time>2026-05-03T12:03:28.786Z</time></trkpt><trkpt lat="54.2552267" lon="-2.310675"><ele>431.5</ele><time>2026-05-03T12:03:29.786Z</time></trkpt><trkpt lat="54.2551383" lon="-2.3110767"><ele>432.0</ele><time>2026-05-03T12:03:30.787Z</time></trkpt><trkpt lat="54.25505" lon="-2.311485"><ele>433.0</ele><time>2026-05-03T12:03:31.785Z</time></trkpt><trkpt lat="54.25496" lon="-2.31188"><ele>434.0</ele><time>2026-05-03T12:03:32.784Z</time></trkpt><trkpt lat="54.25487" lon="-2.3122567"><ele>435.0</ele><time>2026-05-03T12:03:33.784Z</time></trkpt><trkpt lat="54.2547717" lon="-2.312595"><ele>436.0</ele><time>2026-05-03T12:03:34.784Z</time></trkpt><trkpt lat="54.2546467" lon="-2.3128683"><ele>437.0</ele><time>2026-05-03T12:03:35.785Z</time></trkpt><trkpt lat="54.254505" lon="-2.3131067"><ele>437.66666666666663</ele><time>2026-05-03T12:03:36.787Z</time></trkpt><trkpt lat="54.254355" lon="-2.3133117"><ele>438.33333333333337</ele><time>2026-05-03T12:03:37.784Z</time></trkpt><trkpt lat="54.254185" lon="-2.313465"><ele>439.0</ele><time>2026-05-03T12:03:38.788Z</time></trkpt><trkpt lat="54.2540033" lon="-2.313595"><ele>438.0</ele><time>2026-05-03T12:03:39.788Z</time></trkpt><trkpt lat="54.25381" lon="-2.3137433"><ele>437.0</ele><time>2026-05-03T12:03:40.784Z</time></trkpt><trkpt lat="54.2536083" lon="-2.3139217"><ele>436.0</ele><time>2026-05-03T12:03:41.784Z</time></trkpt><trkpt lat="54.2534067" lon="-2.3141217"><ele>436.0</ele><time>2026-05-03T12:03:42.785Z</time></trkpt><trkpt lat="54.2532067" lon="-2.31433"><ele>436.0</ele><time>2026-05-03T12:03:43.785Z</time></trkpt><trkpt lat="54.2529983" lon="-2.3145467"><ele>434.5</ele><time>2026-05-03T12:03:44.784Z</time></trkpt><trkpt lat="54.2527833" lon="-2.31477"><ele>433.0</ele><time>2026-05-03T12:03:45.785Z</time></trkpt><trkpt lat="54.2525683" lon="-2.314995"><ele>433.0</ele><time>2026-05-03T12:03:46.786Z</time></trkpt><trkpt lat="54.2523533" lon="-2.31522"><ele>433.0</ele><time>2026-05-03T12:03:47.785Z</time></trkpt><trkpt lat="54.2521433" lon="-2.3154467"><ele>431.5</ele><time>2026-05-03T12:03:48.786Z</time></trkpt><trkpt lat="54.2519383" lon="-2.315665"><ele>430.0</ele><time>2026-05-03T12:03:49.784Z</time></trkpt><trkpt lat="54.25175" lon="-2.315875"><ele>430.0</ele><time>2026-05-03T12:03:50.786Z</time></trkpt><trkpt lat="54.2515817" lon="-2.3160567"><ele>430.0</ele><time>2026-05-03T12:03:51.784Z</time></trkpt><trkpt lat="54.2514167" lon="-2.3162033"><ele>430.0</ele><time>2026-05-03T12:03:52.785Z</time></trkpt><trkpt lat="54.251255" lon="-2.3163017"><ele>429.6666666666667</ele><time>2026-05-03T12:03:53.784Z</time></trkpt><trkpt lat="54.2510683" lon="-2.3163633"><ele>429.33333333333337</ele><time>2026-05-03T12:03:54.784Z</time></trkpt><trkpt lat="54.2508717" lon="-2.31642"><ele>429.0</ele><time>2026-05-03T12:03:55.786Z</time></trkpt><trkpt lat="54.2506567" lon="-2.316455"><ele>427.66666666666663</ele><time>2026-05-03T12:03:56.785Z</time></trkpt><trkpt lat="54.2504333" lon="-2.3164817"><ele>426.3333333333333</ele><time>2026-05-03T12:03:57.783Z</time></trkpt><trkpt lat="54.2502083" lon="-2.3164917"><ele>425.0</ele><time>2026-05-03T12:03:58.788Z</time></trkpt><trkpt lat="54.2499733" lon="-2.3164733"><ele>422.0</ele><time>2026-05-03T12:03:59.784Z</time></trkpt><trkpt lat="54.2497433" lon="-2.3164333"><ele>419.0</ele><time>2026-05-03T12:04:00.786Z</time></trkpt><trkpt lat="54.2495117" lon="-2.3163783"><ele>419.0</ele><time>2026-05-03T12:04:01.784Z</time></trkpt><trkpt lat="54.2492783" lon="-2.3163483"><ele>419.0</ele><time>2026-05-03T12:04:02.784Z</time></trkpt><trkpt lat="54.2490467" lon="-2.3163367"><ele>416.0</ele><time>2026-05-03T12:04:03.784Z</time></trkpt><trkpt lat="54.2488067" lon="-2.3163433"><ele>413.0</ele><time>2026-05-03T12:04:04.785Z</time></trkpt><trkpt lat="54.24856" lon="-2.3163433"><ele>413.0</ele><time>2026-05-03T12:04:05.785Z</time></trkpt><trkpt lat="54.24831" lon="-2.3163167"><ele>413.0</ele><time>2026-05-03T12:04:06.784Z</time></trkpt><trkpt lat="54.248055" lon="-2.3162717"><ele>412.0</ele><time>2026-05-03T12:04:07.786Z</time></trkpt><trkpt lat="54.2477967" lon="-2.3162233"><ele>411.0</ele><time>2026-05-03T12:04:08.784Z</time></trkpt><trkpt lat="54.2475367" lon="-2.3161683"><ele>411.0</ele><time>2026-05-03T12:04:09.783Z</time></trkpt><trkpt lat="54.2472767" lon="-2.3161133"><ele>411.0</ele><time>2026-05-03T12:04:10.786Z</time></trkpt><trkpt lat="54.2470183" lon="-2.31607"><ele>411.0</ele><time>2026-05-03T12:04:11.787Z</time></trkpt><trkpt lat="54.24676" lon="-2.31604"><ele>411.0</ele><time>2026-05-03T12:04:12.785Z</time></trkpt><trkpt lat="54.246505" lon="-2.3160217"><ele>410.5</ele><time>2026-05-03T12:04:13.785Z</time></trkpt><trkpt lat="54.2462483" lon="-2.316025"><ele>410.0</ele><time>2026-05-03T12:04:14.787Z</time></trkpt><trkpt lat="54.24599" lon="-2.31605"><ele>410.0</ele><time>2026-05-03T12:04:15.784Z</time></trkpt><trkpt lat="54.245735" lon="-2.3160933"><ele>410.0</ele><time>2026-05-03T12:04:16.784Z</time></trkpt><trkpt lat="54.24548" lon="-2.31614"><ele>410.0</ele><time>2026-05-03T12:04:17.784Z</time></trkpt><trkpt lat="54.2452217" lon="-2.316185"><ele>410.0</ele><time>2026-05-03T12:04:18.785Z</time></trkpt><trkpt lat="54.244965" lon="-2.3162267"><ele>409.5</ele><time>2026-05-03T12:04:19.785Z</time></trkpt><trkpt lat="54.244725" lon="-2.3162633"><ele>409.0</ele><time>2026-05-03T12:04:20.783Z</time></trkpt><trkpt lat="54.2444983" lon="-2.3162967"><ele>409.0</ele><time>2026-05-03T12:04:21.784Z</time></trkpt><trkpt lat="54.2442733" lon="-2.316315"><ele>409.0</ele><time>2026-05-03T12:04:22.785Z</time></trkpt><trkpt lat="54.2440417" lon="-2.3163"><ele>407.0</ele><time>2026-05-03T12:04:23.784Z</time></trkpt><trkpt lat="54.2438217" lon="-2.3162517"><ele>405.0</ele><time>2026-05-03T12:04:24.783Z</time></trkpt><trkpt lat="54.2436117" lon="-2.31618"><ele>403.0</ele><time>2026-05-03T12:04:25.785Z</time></trkpt><trkpt lat="54.2434167" lon="-2.316075"><ele>403.0</ele><time>2026-05-03T12:04:26.785Z</time></trkpt><trkpt lat="54.24325" lon="-2.31597"><ele>403.0</ele><time>2026-05-03T12:04:27.784Z</time></trkpt><trkpt lat="54.243105" lon="-2.3158867"><ele>403.0</ele><time>2026-05-03T12:04:28.785Z</time></trkpt><trkpt lat="54.2429583" lon="-2.3158367"><ele>402.0</ele><time>2026-05-03T12:04:29.786Z</time></trkpt><trkpt lat="54.2427933" lon="-2.3158267"><ele>401.0</ele><time>2026-05-03T12:04:30.784Z</time></trkpt><trkpt lat="54.24261" lon="-2.3158467"><ele>400.0</ele><time>2026-05-03T12:04:31.785Z</time></trkpt><trkpt lat="54.24241" lon="-2.3159033"><ele>398.33333333333337</ele><time>2026-05-03T12:04:32.785Z</time></trkpt><trkpt lat="54.2421983" lon="-2.3159733"><ele>396.66666666666663</ele><time>2026-05-03T12:04:33.783Z</time></trkpt><trkpt lat="54.24197" lon="-2.316025"><ele>395.0</ele><time>2026-05-03T12:04:34.784Z</time></trkpt><trkpt lat="54.2417317" lon="-2.3160533"><ele>395.0</ele><time>2026-05-03T12:04:35.785Z</time></trkpt><trkpt lat="54.2414867" lon="-2.316065"><ele>395.0</ele><time>2026-05-03T12:04:36.783Z</time></trkpt><trkpt lat="54.2412367" lon="-2.316075"><ele>391.5</ele><time>2026-05-03T12:04:37.786Z</time></trkpt><trkpt lat="54.240985" lon="-2.316075"><ele>388.0</ele><time>2026-05-03T12:04:38.79Z</time></trkpt><trkpt lat="54.2407367" lon="-2.31605"><ele>384.0</ele><time>2026-05-03T12:04:39.785Z</time></trkpt><trkpt lat="54.240485" lon="-2.315995"><ele>380.0</ele><time>2026-05-03T12:04:40.785Z</time></trkpt><trkpt lat="54.2402317" lon="-2.3159167"><ele>380.0</ele><time>2026-05-03T12:04:41.785Z</time></trkpt><trkpt lat="54.2399783" lon="-2.3158333"><ele>380.0</ele><time>2026-05-03T12:04:42.784Z</time></trkpt><trkpt lat="54.2397183" lon="-2.3157467"><ele>378.0</ele><time>2026-05-03T12:04:43.786Z</time></trkpt><trkpt lat="54.23946" lon="-2.315665"><ele>376.0</ele><time>2026-05-03T12:04:44.785Z</time></trkpt><trkpt lat="54.2392" lon="-2.3155933"><ele>374.5</ele><time>2026-05-03T12:04:45.788Z</time></trkpt><trkpt lat="54.23894" lon="-2.3155467"><ele>373.0</ele><time>2026-05-03T12:04:46.786Z</time></trkpt><trkpt lat="54.23868" lon="-2.3155217"><ele>373.0</ele><time>2026-05-03T12:04:47.784Z</time></trkpt><trkpt lat="54.2384217" lon="-2.31551"><ele>373.0</ele><time>2026-05-03T12:04:48.785Z</time></trkpt><trkpt lat="54.2381633" lon="-2.3154967"><ele>371.5</ele><time>2026-05-03T12:04:49.785Z</time></trkpt><trkpt lat="54.2379017" lon="-2.3154717"><ele>370.0</ele><time>2026-05-03T12:04:50.784Z</time></trkpt><trkpt lat="54.2376383" lon="-2.3154367"><ele>370.0</ele><time>2026-05-03T12:04:51.784Z</time></trkpt><trkpt lat="54.2373733" lon="-2.3154017"><ele>370.0</ele><time>2026-05-03T12:04:52.783Z</time></trkpt><trkpt lat="54.2371083" lon="-2.315365"><ele>368.0</ele><time>2026-05-03T12:04:53.783Z</time></trkpt><trkpt lat="54.2368533" lon="-2.3153217"><ele>366.0</ele><time>2026-05-03T12:04:54.784Z</time></trkpt><trkpt lat="54.2366033" lon="-2.3152917"><ele>363.5</ele><time>2026-05-03T12:04:55.786Z</time></trkpt><trkpt lat="54.2363567" lon="-2.3152817"><ele>361.0</ele><time>2026-05-03T12:04:56.785Z</time></trkpt><trkpt lat="54.2361217" lon="-2.3152833"><ele>361.0</ele><time>2026-05-03T12:04:57.785Z</time></trkpt><trkpt lat="54.235895" lon="-2.3152933"><ele>361.0</ele><time>2026-05-03T12:04:58.784Z</time></trkpt><trkpt lat="54.235675" lon="-2.3153233"><ele>361.0</ele><time>2026-05-03T12:04:59.784Z</time></trkpt><trkpt lat="54.2354567" lon="-2.3154017"><ele>359.5</ele><time>2026-05-03T12:05:00.786Z</time></trkpt><trkpt lat="54.2352367" lon="-2.315515"><ele>358.0</ele><time>2026-05-03T12:05:01.784Z</time></trkpt><trkpt lat="54.2350133" lon="-2.31564"><ele>356.5</ele><time>2026-05-03T12:05:02.784Z</time></trkpt><trkpt lat="54.2347867" lon="-2.31577"><ele>355.0</ele><time>2026-05-03T12:05:03.784Z</time></trkpt><trkpt lat="54.2345633" lon="-2.3159067"><ele>355.0</ele><time>2026-05-03T12:05:04.786Z</time></trkpt><trkpt lat="54.2343467" lon="-2.3160717"><ele>355.0</ele><time>2026-05-03T12:05:05.784Z</time></trkpt><trkpt lat="54.2341367" lon="-2.316265"><ele>354.0</ele><time>2026-05-03T12:05:06.788Z</time></trkpt><trkpt lat="54.233935" lon="-2.3164933"><ele>353.0</ele><time>2026-05-03T12:05:07.785Z</time></trkpt><trkpt lat="54.233745" lon="-2.31675"><ele>353.0</ele><time>2026-05-03T12:05:08.784Z</time></trkpt><trkpt lat="54.2335583" lon="-2.3170333"><ele>353.0</ele><time>2026-05-03T12:05:09.788Z</time></trkpt><trkpt lat="54.2333917" lon="-2.3173267"><ele>352.6666666666667</ele><time>2026-05-03T12:05:10.788Z</time></trkpt><trkpt lat="54.2332433" lon="-2.3176217"><ele>352.3333333333333</ele><time>2026-05-03T12:05:11.787Z</time></trkpt><trkpt lat="54.233125" lon="-2.3179033"><ele>352.0</ele><time>2026-05-03T12:05:12.786Z</time></trkpt><trkpt lat="54.233005" lon="-2.318155"><ele>350.66666666666663</ele><time>2026-05-03T12:05:13.788Z</time></trkpt><trkpt lat="54.2328633" lon="-2.3183733"><ele>349.3333333333333</ele><time>2026-05-03T12:05:14.787Z</time></trkpt><trkpt lat="54.2326917" lon="-2.3185417"><ele>348.0</ele><time>2026-05-03T12:05:15.784Z</time></trkpt><trkpt lat="54.2324967" lon="-2.31868"><ele>348.0</ele><time>2026-05-03T12:05:16.788Z</time></trkpt><trkpt lat="54.2322783" lon="-2.3187833"><ele>348.0</ele><time>2026-05-03T12:05:17.784Z</time></trkpt><trkpt lat="54.232045" lon="-2.3188633"><ele>347.5</ele><time>2026-05-03T12:05:18.784Z</time></trkpt><trkpt lat="54.2317967" lon="-2.3189267"><ele>347.0</ele><time>2026-05-03T12:05:19.785Z</time></trkpt><trkpt lat="54.2315433" lon="-2.3189767"><ele>346.0</ele><time>2026-05-03T12:05:20.788Z</time></trkpt><trkpt lat="54.2312883" lon="-2.3190233"><ele>345.0</ele><time>2026-05-03T12:05:21.786Z</time></trkpt><trkpt lat="54.2310383" lon="-2.3190667"><ele>345.0</ele><time>2026-05-03T12:05:22.787Z</time></trkpt><trkpt lat="54.2307917" lon="-2.3191167"><ele>345.0</ele><time>2026-05-03T12:05:23.785Z</time></trkpt><trkpt lat="54.2305467" lon="-2.3191783"><ele>343.0</ele><time>2026-05-03T12:05:24.787Z</time></trkpt><trkpt lat="54.2303067" lon="-2.3192367"><ele>341.0</ele><time>2026-05-03T12:05:25.788Z</time></trkpt><trkpt lat="54.2300717" lon="-2.3193"><ele>341.0</ele><time>2026-05-03T12:05:26.784Z</time></trkpt><trkpt lat="54.2298567" lon="-2.3193583"><ele>341.0</ele><time>2026-05-03T12:05:27.783Z</time></trkpt><trkpt lat="54.2296683" lon="-2.319425"><ele>341.0</ele><time>2026-05-03T12:05:28.785Z</time></trkpt><trkpt lat="54.229505" lon="-2.3195217"><ele>341.0</ele><time>2026-05-03T12:05:29.784Z</time></trkpt><trkpt lat="54.2293583" lon="-2.31967"><ele>341.0</ele><time>2026-05-03T12:05:30.785Z</time></trkpt><trkpt lat="54.2292317" lon="-2.319875"><ele>341.0</ele><time>2026-05-03T12:05:31.785Z</time></trkpt><trkpt lat="54.2291117" lon="-2.3201567"><ele>340.33333333333337</ele><time>2026-05-03T12:05:32.783Z</time></trkpt><trkpt lat="54.2289817" lon="-2.3204583"><ele>339.6666666666667</ele><time>2026-05-03T12:05:33.784Z</time></trkpt><trkpt lat="54.2288533" lon="-2.3207733"><ele>339.0</ele><time>2026-05-03T12:05:34.785Z</time></trkpt><trkpt lat="54.228715" lon="-2.3210833"><ele>338.0</ele><time>2026-05-03T12:05:35.786Z</time></trkpt><trkpt lat="54.228575" lon="-2.32139"><ele>337.0</ele><time>2026-05-03T12:05:36.787Z</time></trkpt><trkpt lat="54.2284217" lon="-2.3216717"><ele>336.5</ele><time>2026-05-03T12:05:37.785Z</time></trkpt><trkpt lat="54.228235" lon="-2.3219067"><ele>336.0</ele><time>2026-05-03T12:05:38.784Z</time></trkpt><trkpt lat="54.2280183" lon="-2.3221017"><ele>335.5</ele><time>2026-05-03T12:05:39.785Z</time></trkpt><trkpt lat="54.2277933" lon="-2.3222917"><ele>335.0</ele><time>2026-05-03T12:05:40.785Z</time></trkpt><trkpt lat="54.2275667" lon="-2.3224967"><ele>335.0</ele><time>2026-05-03T12:05:41.785Z</time></trkpt><trkpt lat="54.2273417" lon="-2.3227033"><ele>335.0</ele><time>2026-05-03T12:05:42.784Z</time></trkpt><trkpt lat="54.22711" lon="-2.3229017"><ele>334.5</ele><time>2026-05-03T12:05:43.787Z</time></trkpt><trkpt lat="54.2268767" lon="-2.3230933"><ele>334.0</ele><time>2026-05-03T12:05:44.784Z</time></trkpt><trkpt lat="54.2266467" lon="-2.323285"><ele>332.0</ele><time>2026-05-03T12:05:45.784Z</time></trkpt><trkpt lat="54.226415" lon="-2.3234667"><ele>330.0</ele><time>2026-05-03T12:05:46.785Z</time></trkpt><trkpt lat="54.22619" lon="-2.3236317"><ele>330.0</ele><time>2026-05-03T12:05:47.785Z</time></trkpt><trkpt lat="54.2259833" lon="-2.3238117"><ele>330.0</ele><time>2026-05-03T12:05:48.784Z</time></trkpt><trkpt lat="54.2257833" lon="-2.3240333"><ele>328.5</ele><time>2026-05-03T12:05:49.785Z</time></trkpt><trkpt lat="54.2256" lon="-2.324285"><ele>327.0</ele><time>2026-05-03T12:05:50.784Z</time></trkpt><trkpt lat="54.225415" lon="-2.324545"><ele>329.0</ele><time>2026-05-03T12:05:51.785Z</time></trkpt><trkpt lat="54.2252233" lon="-2.324805"><ele>331.0</ele><time>2026-05-03T12:05:52.785Z</time></trkpt><trkpt lat="54.2250317" lon="-2.3250583"><ele>331.0</ele><time>2026-05-03T12:05:53.784Z</time></trkpt><trkpt lat="54.2248417" lon="-2.3252817"><ele>331.0</ele><time>2026-05-03T12:05:54.784Z</time></trkpt><trkpt lat="54.224655" lon="-2.3254833"><ele>331.0</ele><time>2026-05-03T12:05:55.785Z</time></trkpt><trkpt lat="54.22448" lon="-2.3256717"><ele>331.0</ele><time>2026-05-03T12:05:56.787Z</time></trkpt><trkpt lat="54.2243167" lon="-2.3258567"><ele>331.0</ele><time>2026-05-03T12:05:57.784Z</time></trkpt><trkpt lat="54.2241633" lon="-2.3260267"><ele>331.0</ele><time>2026-05-03T12:05:58.783Z</time></trkpt><trkpt lat="54.2240233" lon="-2.326175"><ele>331.0</ele><time>2026-05-03T12:05:59.785Z</time></trkpt><trkpt lat="54.2238733" lon="-2.3262883"><ele>331.0</ele><time>2026-05-03T12:06:00.784Z</time></trkpt><trkpt lat="54.223715" lon="-2.3263483"><ele>331.3333333333333</ele><time>2026-05-03T12:06:01.788Z</time></trkpt><trkpt lat="54.2235383" lon="-2.3263683"><ele>331.6666666666667</ele><time>2026-05-03T12:06:02.783Z</time></trkpt><trkpt lat="54.2233567" lon="-2.3264083"><ele>332.0</ele><time>2026-05-03T12:06:03.784Z</time></trkpt><trkpt lat="54.22316" lon="-2.3264783"><ele>330.6666666666667</ele><time>2026-05-03T12:06:04.783Z</time></trkpt><trkpt lat="54.222955" lon="-2.3265517"><ele>329.3333333333333</ele><time>2026-05-03T12:06:05.785Z</time></trkpt><trkpt lat="54.2227417" lon="-2.3266383"><ele>328.0</ele><time>2026-05-03T12:06:06.785Z</time></trkpt><trkpt lat="54.2225183" lon="-2.3267367"><ele>326.0</ele><time>2026-05-03T12:06:07.784Z</time></trkpt><trkpt lat="54.2222967" lon="-2.3268333"><ele>324.0</ele><time>2026-05-03T12:06:08.783Z</time></trkpt><trkpt lat="54.22208" lon="-2.3269317"><ele>324.0</ele><time>2026-05-03T12:06:09.784Z</time></trkpt><trkpt lat="54.22189" lon="-2.3270217"><ele>324.0</ele><time>2026-05-03T12:06:10.785Z</time></trkpt><trkpt lat="54.2217083" lon="-2.327125"><ele>324.0</ele><time>2026-05-03T12:06:11.784Z</time></trkpt><trkpt lat="54.2215183" lon="-2.32725"><ele>323.0</ele><time>2026-05-03T12:06:12.785Z</time></trkpt><trkpt lat="54.2213217" lon="-2.3274083"><ele>322.0</ele><time>2026-05-03T12:06:13.785Z</time></trkpt><trkpt lat="54.2211217" lon="-2.3275867"><ele>321.0</ele><time>2026-05-03T12:06:14.785Z</time></trkpt><trkpt lat="54.22092" lon="-2.3277883"><ele>321.0</ele><time>2026-05-03T12:06:15.784Z</time></trkpt><trkpt lat="54.2207183" lon="-2.327995"><ele>321.0</ele><time>2026-05-03T12:06:16.784Z</time></trkpt><trkpt lat="54.2205133" lon="-2.328215"><ele>320.0</ele><time>2026-05-03T12:06:17.785Z</time></trkpt><trkpt lat="54.22031" lon="-2.32845"><ele>319.0</ele><time>2026-05-03T12:06:18.784Z</time></trkpt><trkpt lat="54.22011" lon="-2.3287017"><ele>320.0</ele><time>2026-05-03T12:06:19.785Z</time></trkpt><trkpt lat="54.219905" lon="-2.3289617"><ele>321.0</ele><time>2026-05-03T12:06:20.784Z</time></trkpt><trkpt lat="54.2196983" lon="-2.3292283"><ele>321.0</ele><time>2026-05-03T12:06:21.784Z</time></trkpt><trkpt lat="54.2194917" lon="-2.3294917"><ele>321.0</ele><time>2026-05-03T12:06:22.786Z</time></trkpt><trkpt lat="54.2192833" lon="-2.3297617"><ele>321.0</ele><time>2026-05-03T12:06:23.784Z</time></trkpt><trkpt lat="54.2190833" lon="-2.3300117"><ele>321.0</ele><time>2026-05-03T12:06:24.787Z</time></trkpt><trkpt lat="54.2188917" lon="-2.3302467"><ele>321.6666666666667</ele><time>2026-05-03T12:06:25.785Z</time></trkpt><trkpt lat="54.2187083" lon="-2.3304517"><ele>322.33333333333337</ele><time>2026-05-03T12:06:26.787Z</time></trkpt><trkpt lat="54.218525" lon="-2.3306233"><ele>323.0</ele><time>2026-05-03T12:06:27.784Z</time></trkpt><trkpt lat="54.218355" lon="-2.330795"><ele>323.0</ele><time>2026-05-03T12:06:28.783Z</time></trkpt><trkpt lat="54.2181867" lon="-2.3309467"><ele>323.0</ele><time>2026-05-03T12:06:29.784Z</time></trkpt><trkpt lat="54.2180317" lon="-2.3311033"><ele>323.0</ele><time>2026-05-03T12:06:30.784Z</time></trkpt><trkpt lat="54.2178933" lon="-2.3312833"><ele>322.33333333333337</ele><time>2026-05-03T12:06:31.785Z</time></trkpt><trkpt lat="54.2177783" lon="-2.3314933"><ele>321.6666666666667</ele><time>2026-05-03T12:06:32.783Z</time></trkpt><trkpt lat="54.21769" lon="-2.3317633"><ele>321.0</ele><time>2026-05-03T12:06:33.784Z</time></trkpt><trkpt lat="54.2176233" lon="-2.3320583"><ele>321.0</ele><time>2026-05-03T12:06:34.787Z</time></trkpt><trkpt lat="54.2175667" lon="-2.33238"><ele>321.0</ele><time>2026-05-03T12:06:35.787Z</time></trkpt><trkpt lat="54.2175117" lon="-2.33272"><ele>321.0</ele><time>2026-05-03T12:06:36.785Z</time></trkpt><trkpt lat="54.2174583" lon="-2.3330567"><ele>321.0</ele><time>2026-05-03T12:06:37.785Z</time></trkpt><trkpt lat="54.2174033" lon="-2.3333917"><ele>321.0</ele><time>2026-05-03T12:06:38.784Z</time></trkpt><trkpt lat="54.2173567" lon="-2.3337317"><ele>321.0</ele><time>2026-05-03T12:06:39.787Z</time></trkpt><trkpt lat="54.2173267" lon="-2.3340933"><ele>320.0</ele><time>2026-05-03T12:06:40.785Z</time></trkpt><trkpt lat="54.217305" lon="-2.33444"><ele>319.0</ele><time>2026-05-03T12:06:41.788Z</time></trkpt><trkpt lat="54.217285" lon="-2.3347617"><ele>318.0</ele><time>2026-05-03T12:06:42.784Z</time></trkpt><trkpt lat="54.2172683" lon="-2.33507"><ele>318.0</ele><time>2026-05-03T12:06:43.784Z</time></trkpt><trkpt lat="54.217235" lon="-2.335355"><ele>318.0</ele><time>2026-05-03T12:06:44.786Z</time></trkpt><trkpt lat="54.2171667" lon="-2.3356133"><ele>318.0</ele><time>2026-05-03T12:06:45.786Z</time></trkpt><trkpt lat="54.21706" lon="-2.335845"><ele>318.3333333333333</ele><time>2026-05-03T12:06:46.786Z</time></trkpt><trkpt lat="54.2169133" lon="-2.33605"><ele>318.66666666666663</ele><time>2026-05-03T12:06:47.785Z</time></trkpt><trkpt lat="54.216755" lon="-2.33626"><ele>319.0</ele><time>2026-05-03T12:06:48.786Z</time></trkpt><trkpt lat="54.2166083" lon="-2.3365017"><ele>318.0</ele><time>2026-05-03T12:06:49.785Z</time></trkpt><trkpt lat="54.216455" lon="-2.3367417"><ele>317.0</ele><time>2026-05-03T12:06:50.787Z</time></trkpt><trkpt lat="54.2163" lon="-2.336965"><ele>316.0</ele><time>2026-05-03T12:06:51.783Z</time></trkpt><trkpt lat="54.2161567" lon="-2.3371567"><ele>317.3333333333333</ele><time>2026-05-03T12:06:52.784Z</time></trkpt><trkpt lat="54.2160267" lon="-2.3373433"><ele>318.6666666666667</ele><time>2026-05-03T12:06:53.784Z</time></trkpt><trkpt lat="54.2159033" lon="-2.337525"><ele>320.0</ele><time>2026-05-03T12:06:54.783Z</time></trkpt><trkpt lat="54.2157967" lon="-2.3377183"><ele>320.0</ele><time>2026-05-03T12:06:55.784Z</time></trkpt><trkpt lat="54.2157017" lon="-2.3379233"><ele>320.0</ele><time>2026-05-03T12:06:56.786Z</time></trkpt><trkpt lat="54.2156183" lon="-2.33811"><ele>320.0</ele><time>2026-05-03T12:06:57.787Z</time></trkpt><trkpt lat="54.215535" lon="-2.338285"><ele>320.0</ele><time>2026-05-03T12:06:58.786Z</time></trkpt><trkpt lat="54.2154533" lon="-2.338455"><ele>320.0</ele><time>2026-05-03T12:06:59.786Z</time></trkpt><trkpt lat="54.2153833" lon="-2.3386183"><ele>320.0</ele><time>2026-05-03T12:07:00.786Z</time></trkpt><trkpt lat="54.2153183" lon="-2.3387883"><ele>320.0</ele><time>2026-05-03T12:07:01.786Z</time></trkpt><trkpt lat="54.2152667" lon="-2.33897"><ele>320.0</ele><time>2026-05-03T12:07:02.787Z</time></trkpt><trkpt lat="54.2152217" lon="-2.3391617"><ele>320.0</ele><time>2026-05-03T12:07:03.785Z</time></trkpt><trkpt lat="54.2151683" lon="-2.339355"><ele>320.0</ele><time>2026-05-03T12:07:04.784Z</time></trkpt><trkpt lat="54.2151183" lon="-2.3395567"><ele>320.0</ele><time>2026-05-03T12:07:05.788Z</time></trkpt><trkpt lat="54.21506" lon="-2.3397567"><ele>320.0</ele><time>2026-05-03T12:07:06.786Z</time></trkpt><trkpt lat="54.2149917" lon="-2.3399533"><ele>320.25</ele><time>2026-05-03T12:07:07.786Z</time></trkpt><trkpt lat="54.2149217" lon="-2.3401417"><ele>320.5</ele><time>2026-05-03T12:07:08.787Z</time></trkpt><trkpt lat="54.21485" lon="-2.3403333"><ele>320.75</ele><time>2026-05-03T12:07:09.788Z</time></trkpt><trkpt lat="54.2147817" lon="-2.3405267"><ele>321.0</ele><time>2026-05-03T12:07:10.786Z</time></trkpt><trkpt lat="54.214715" lon="-2.3407217"><ele>319.75</ele><time>2026-05-03T12:07:11.787Z</time></trkpt><trkpt lat="54.2146467" lon="-2.34091"><ele>318.5</ele><time>2026-05-03T12:07:12.787Z</time></trkpt><trkpt lat="54.21458" lon="-2.3411033"><ele>317.25</ele><time>2026-05-03T12:07:13.782Z</time></trkpt><trkpt lat="54.214515" lon="-2.3412983"><ele>316.0</ele><time>2026-05-03T12:07:14.784Z</time></trkpt><trkpt lat="54.2144467" lon="-2.341485"><ele>316.0</ele><time>2026-05-03T12:07:15.783Z</time></trkpt><trkpt lat="54.214375" lon="-2.3416633"><ele>316.0</ele><time>2026-05-03T12:07:16.788Z</time></trkpt><trkpt lat="54.2143" lon="-2.3418467"><ele>316.0</ele><time>2026-05-03T12:07:17.784Z</time></trkpt><trkpt lat="54.2142233" lon="-2.3420467"><ele>316.0</ele><time>2026-05-03T12:07:18.787Z</time></trkpt><trkpt lat="54.2141433" lon="-2.3422983"><ele>315.66666666666663</ele><time>2026-05-03T12:07:19.788Z</time></trkpt><trkpt lat="54.21406" lon="-2.3425833"><ele>315.3333333333333</ele><time>2026-05-03T12:07:20.787Z</time></trkpt><trkpt lat="54.21396" lon="-2.342885"><ele>315.0</ele><time>2026-05-03T12:07:21.784Z</time></trkpt><trkpt lat="54.2138567" lon="-2.3432017"><ele>312.3333333333333</ele><time>2026-05-03T12:07:22.786Z</time></trkpt><trkpt lat="54.2137417" lon="-2.34353"><ele>309.66666666666663</ele><time>2026-05-03T12:07:23.784Z</time></trkpt><trkpt lat="54.2136133" lon="-2.3438417"><ele>307.0</ele><time>2026-05-03T12:07:24.786Z</time></trkpt><trkpt lat="54.2134683" lon="-2.34413"><ele>307.0</ele><time>2026-05-03T12:07:25.783Z</time></trkpt><trkpt lat="54.2133317" lon="-2.344395"><ele>307.0</ele><time>2026-05-03T12:07:26.787Z</time></trkpt><trkpt lat="54.2132067" lon="-2.3446567"><ele>307.0</ele><time>2026-05-03T12:07:27.787Z</time></trkpt><trkpt lat="54.2130883" lon="-2.344925"><ele>304.66666666666663</ele><time>2026-05-03T12:07:28.784Z</time></trkpt><trkpt lat="54.21299" lon="-2.3452317"><ele>302.3333333333333</ele><time>2026-05-03T12:07:29.785Z</time></trkpt><trkpt lat="54.2129117" lon="-2.3455683"><ele>300.0</ele><time>2026-05-03T12:07:30.786Z</time></trkpt><trkpt lat="54.2128633" lon="-2.3459433"><ele>300.0</ele><time>2026-05-03T12:07:31.787Z</time></trkpt><trkpt lat="54.2128333" lon="-2.3463333"><ele>300.0</ele><time>2026-05-03T12:07:32.786Z</time></trkpt><trkpt lat="54.2128117" lon="-2.3467333"><ele>301.0</ele><time>2026-05-03T12:07:33.784Z</time></trkpt><trkpt lat="54.2127867" lon="-2.3471333"><ele>302.0</ele><time>2026-05-03T12:07:34.787Z</time></trkpt><trkpt lat="54.212745" lon="-2.3475133"><ele>302.0</ele><time>2026-05-03T12:07:35.787Z</time></trkpt><trkpt lat="54.2126767" lon="-2.3478833"><ele>302.0</ele><time>2026-05-03T12:07:36.786Z</time></trkpt><trkpt lat="54.212595" lon="-2.34825"><ele>303.0</ele><time>2026-05-03T12:07:37.783Z</time></trkpt><trkpt lat="54.2124917" lon="-2.3486183"><ele>304.0</ele><time>2026-05-03T12:07:38.787Z</time></trkpt><trkpt lat="54.212375" lon="-2.3489833"><ele>302.0</ele><time>2026-05-03T12:07:39.784Z</time></trkpt><trkpt lat="54.2122583" lon="-2.349355"><ele>300.0</ele><time>2026-05-03T12:07:40.787Z</time></trkpt><trkpt lat="54.2121417" lon="-2.3497367"><ele>300.0</ele><time>2026-05-03T12:07:41.783Z</time></trkpt><trkpt lat="54.2120333" lon="-2.3501133"><ele>300.0</ele><time>2026-05-03T12:07:42.787Z</time></trkpt><trkpt lat="54.2119267" lon="-2.3504833"><ele>300.5</ele><time>2026-05-03T12:07:43.783Z</time></trkpt><trkpt lat="54.2118183" lon="-2.3508483"><ele>301.0</ele><time>2026-05-03T12:07:44.783Z</time></trkpt><trkpt lat="54.2117133" lon="-2.351205"><ele>301.66666666666663</ele><time>2026-05-03T12:07:45.783Z</time></trkpt><trkpt lat="54.2116117" lon="-2.3515467"><ele>302.3333333333333</ele><time>2026-05-03T12:07:46.784Z</time></trkpt><trkpt lat="54.2115117" lon="-2.351875"><ele>303.0</ele><time>2026-05-03T12:07:47.785Z</time></trkpt><trkpt lat="54.2114167" lon="-2.3521967"><ele>300.6666666666667</ele><time>2026-05-03T12:07:48.784Z</time></trkpt><trkpt lat="54.211325" lon="-2.3525067"><ele>298.33333333333337</ele><time>2026-05-03T12:07:49.784Z</time></trkpt><trkpt lat="54.2112383" lon="-2.35281"><ele>296.0</ele><time>2026-05-03T12:07:50.793Z</time></trkpt><trkpt lat="54.211155" lon="-2.3531033"><ele>296.0</ele><time>2026-05-03T12:07:51.787Z</time></trkpt><trkpt lat="54.2110733" lon="-2.353395"><ele>296.0</ele><time>2026-05-03T12:07:52.784Z</time></trkpt><trkpt lat="54.210995" lon="-2.353685"><ele>296.0</ele><time>2026-05-03T12:07:53.784Z</time></trkpt><trkpt lat="54.2109217" lon="-2.3539683"><ele>296.0</ele><time>2026-05-03T12:07:54.783Z</time></trkpt><trkpt lat="54.2108483" lon="-2.35425"><ele>296.0</ele><time>2026-05-03T12:07:55.786Z</time></trkpt><trkpt lat="54.210775" lon="-2.3545367"><ele>296.0</ele><time>2026-05-03T12:07:56.787Z</time></trkpt><trkpt lat="54.2107033" lon="-2.35483"><ele>294.33333333333337</ele><time>2026-05-03T12:07:57.786Z</time></trkpt><trkpt lat="54.2106317" lon="-2.355115"><ele>292.6666666666667</ele><time>2026-05-03T12:07:58.784Z</time></trkpt><trkpt lat="54.2105567" lon="-2.355405"><ele>291.0</ele><time>2026-05-03T12:07:59.783Z</time></trkpt><trkpt lat="54.21048" lon="-2.35569"><ele>291.0</ele><time>2026-05-03T12:08:00.784Z</time></trkpt><trkpt lat="54.210405" lon="-2.3559667"><ele>291.0</ele><time>2026-05-03T12:08:01.783Z</time></trkpt><trkpt lat="54.21033" lon="-2.3562433"><ele>291.0</ele><time>2026-05-03T12:08:02.787Z</time></trkpt><trkpt lat="54.2102567" lon="-2.356515"><ele>292.0</ele><time>2026-05-03T12:08:03.784Z</time></trkpt><trkpt lat="54.2101867" lon="-2.3567833"><ele>293.0</ele><time>2026-05-03T12:08:04.783Z</time></trkpt><trkpt lat="54.2101167" lon="-2.3570533"><ele>294.0</ele><time>2026-05-03T12:08:05.786Z</time></trkpt><trkpt lat="54.2100483" lon="-2.3573167"><ele>294.3333333333333</ele><time>2026-05-03T12:08:06.783Z</time></trkpt><trkpt lat="54.209985" lon="-2.357565"><ele>294.66666666666663</ele><time>2026-05-03T12:08:07.787Z</time></trkpt><trkpt lat="54.2099283" lon="-2.357795"><ele>295.0</ele><time>2026-05-03T12:08:08.782Z</time></trkpt><trkpt lat="54.20987" lon="-2.3580233"><ele>295.25</ele><time>2026-05-03T12:08:09.788Z</time></trkpt><trkpt lat="54.2098067" lon="-2.3582433"><ele>295.5</ele><time>2026-05-03T12:08:10.783Z</time></trkpt><trkpt lat="54.2097383" lon="-2.3584567"><ele>295.75</ele><time>2026-05-03T12:08:11.783Z</time></trkpt><trkpt lat="54.2096683" lon="-2.3586567"><ele>296.0</ele><time>2026-05-03T12:08:12.787Z</time></trkpt><trkpt lat="54.20959" lon="-2.3588383"><ele>295.6</ele><time>2026-05-03T12:08:13.784Z</time></trkpt><trkpt lat="54.2095117" lon="-2.3589983"><ele>295.20000000000005</ele><time>2026-05-03T12:08:14.784Z</time></trkpt><trkpt lat="54.2094367" lon="-2.359135"><ele>294.79999999999995</ele><time>2026-05-03T12:08:15.784Z</time></trkpt><trkpt lat="54.20937" lon="-2.3592633"><ele>294.4</ele><time>2026-05-03T12:08:16.784Z</time></trkpt><trkpt lat="54.2093033" lon="-2.35938"><ele>294.0</ele><time>2026-05-03T12:08:17.784Z</time></trkpt><trkpt lat="54.20925" lon="-2.359485"><ele>294.0</ele><time>2026-05-03T12:08:18.787Z</time></trkpt><trkpt lat="54.2092067" lon="-2.3595867"><ele>294.0</ele><time>2026-05-03T12:08:19.787Z</time></trkpt><trkpt lat="54.2091683" lon="-2.3596967"><ele>294.0</ele><time>2026-05-03T12:08:20.786Z</time></trkpt><trkpt lat="54.2091367" lon="-2.35981"><ele>294.0</ele><time>2026-05-03T12:08:21.787Z</time></trkpt><trkpt lat="54.2091117" lon="-2.3599167"><ele>294.0</ele><time>2026-05-03T12:08:22.787Z</time></trkpt><trkpt lat="54.2090867" lon="-2.3600217"><ele>294.0</ele><time>2026-05-03T12:08:23.783Z</time></trkpt><trkpt lat="54.2090633" lon="-2.3601217"><ele>294.0</ele><time>2026-05-03T12:08:24.787Z</time></trkpt><trkpt lat="54.2090183" lon="-2.36029"><ele>293.8333333333333</ele><time>2026-05-03T12:08:26.787Z</time></trkpt><trkpt lat="54.2089767" lon="-2.3604167"><ele>293.6666666666667</ele><time>2026-05-03T12:08:28.784Z</time></trkpt><trkpt lat="54.20894" lon="-2.3605533"><ele>293.5</ele><time>2026-05-03T12:08:31.786Z</time></trkpt><trkpt lat="54.208905" lon="-2.3606517"><ele>293.33333333333337</ele><time>2026-05-03T12:08:34.787Z</time></trkpt><trkpt lat="54.2088833" lon="-2.3608017"><ele>293.1666666666667</ele><time>2026-05-03T12:09:36.787Z</time></trkpt><trkpt lat="54.2088517" lon="-2.36097"><ele>293.0</ele><time>2026-05-03T12:09:38.784Z</time></trkpt><trkpt lat="54.208805" lon="-2.361135"><ele>292.99999999999994</ele><time>2026-05-03T12:09:40.783Z</time></trkpt><trkpt lat="54.2087483" lon="-2.36125"><ele>293.0</ele><time>2026-05-03T12:09:42.787Z</time></trkpt><trkpt lat="54.2086967" lon="-2.36132"><ele>293.0</ele><time>2026-05-03T12:09:44.787Z</time></trkpt><trkpt lat="54.208655" lon="-2.3614167"><ele>293.0</ele><time>2026-05-03T12:09:46.784Z</time></trkpt><trkpt lat="54.2086217" lon="-2.3615183"><ele>293.0</ele><time>2026-05-03T12:09:49.783Z</time></trkpt><trkpt lat="54.2085633" lon="-2.3614467"><ele>292.99999999999994</ele><time>2026-05-03T12:24:35.784Z</time></trkpt><trkpt lat="54.2085483" lon="-2.3613333"><ele>293.0</ele><time>2026-05-03T12:24:37.783Z</time></trkpt><trkpt lat="54.2085267" lon="-2.36121"><ele>293.0</ele><time>2026-05-03T12:24:39.784Z</time></trkpt><trkpt lat="54.2085083" lon="-2.3610967"><ele>293.0</ele><time>2026-05-03T12:24:41.783Z</time></trkpt><trkpt lat="54.2084967" lon="-2.3609867"><ele>293.0</ele><time>2026-05-03T12:24:43.786Z</time></trkpt><trkpt lat="54.2084733" lon="-2.360825"><ele>293.0</ele><time>2026-05-03T12:30:06.783Z</time></trkpt><trkpt lat="54.2084417" lon="-2.3607167"><ele>293.0</ele><time>2026-05-03T12:30:07.784Z</time></trkpt><trkpt lat="54.2084" lon="-2.360575"><ele>293.0</ele><time>2026-05-03T12:30:08.783Z</time></trkpt><trkpt lat="54.2083467" lon="-2.3604017"><ele>292.5</ele><time>2026-05-03T12:30:09.783Z</time></trkpt><trkpt lat="54.208295" lon="-2.3602133"><ele>292.0</ele><time>2026-05-03T12:30:10.786Z</time></trkpt><trkpt lat="54.208245" lon="-2.3600233"><ele>291.5</ele><time>2026-05-03T12:30:11.784Z</time></trkpt><trkpt lat="54.2081983" lon="-2.359845"><ele>291.0</ele><time>2026-05-03T12:30:12.786Z</time></trkpt><trkpt lat="54.2081583" lon="-2.3596767"><ele>292.75</ele><time>2026-05-03T12:30:13.784Z</time></trkpt><trkpt lat="54.208125" lon="-2.3595067"><ele>294.5</ele><time>2026-05-03T12:30:14.784Z</time></trkpt><trkpt lat="54.2081" lon="-2.3593317"><ele>296.25</ele><time>2026-05-03T12:30:15.784Z</time></trkpt><trkpt lat="54.2080767" lon="-2.3591333"><ele>298.0</ele><time>2026-05-03T12:30:16.783Z</time></trkpt><trkpt lat="54.208055" lon="-2.3589"><ele>297.25</ele><time>2026-05-03T12:30:17.784Z</time></trkpt><trkpt lat="54.20803" lon="-2.35865"><ele>296.5</ele><time>2026-05-03T12:30:18.785Z</time></trkpt><trkpt lat="54.208005" lon="-2.3584"><ele>295.75</ele><time>2026-05-03T12:30:19.784Z</time></trkpt><trkpt lat="54.2079783" lon="-2.3581633"><ele>295.0</ele><time>2026-05-03T12:30:20.783Z</time></trkpt><trkpt lat="54.2079417" lon="-2.357945"><ele>293.25</ele><time>2026-05-03T12:30:21.783Z</time></trkpt><trkpt lat="54.20789" lon="-2.3577433"><ele>291.5</ele><time>2026-05-03T12:30:22.786Z</time></trkpt><trkpt lat="54.2078317" lon="-2.357555"><ele>289.75</ele><time>2026-05-03T12:30:23.786Z</time></trkpt><trkpt lat="54.2077767" lon="-2.3573783"><ele>288.0</ele><time>2026-05-03T12:30:24.787Z</time></trkpt><trkpt lat="54.2077233" lon="-2.3572133"><ele>287.25</ele><time>2026-05-03T12:30:25.785Z</time></trkpt><trkpt lat="54.2076717" lon="-2.3570617"><ele>286.5</ele><time>2026-05-03T12:30:26.783Z</time></trkpt><trkpt lat="54.2076133" lon="-2.3569017"><ele>285.75</ele><time>2026-05-03T12:30:27.783Z</time></trkpt><trkpt lat="54.2075383" lon="-2.3567233"><ele>285.0</ele><time>2026-05-03T12:30:28.783Z</time></trkpt><trkpt lat="54.2074467" lon="-2.3565117"><ele>284.6666666666667</ele><time>2026-05-03T12:30:29.782Z</time></trkpt><trkpt lat="54.2073467" lon="-2.3562767"><ele>284.33333333333337</ele><time>2026-05-03T12:30:30.79Z</time></trkpt><trkpt lat="54.2072483" lon="-2.3560217"><ele>284.0</ele><time>2026-05-03T12:30:31.786Z</time></trkpt><trkpt lat="54.20716" lon="-2.3557467"><ele>285.6666666666667</ele><time>2026-05-03T12:30:32.783Z</time></trkpt><trkpt lat="54.2070833" lon="-2.3554467"><ele>287.3333333333333</ele><time>2026-05-03T12:30:33.783Z</time></trkpt><trkpt lat="54.2070267" lon="-2.3551333"><ele>289.0</ele><time>2026-05-03T12:30:34.782Z</time></trkpt><trkpt lat="54.2069883" lon="-2.3548517"><ele>288.25</ele><time>2026-05-03T12:30:35.783Z</time></trkpt><trkpt lat="54.2069483" lon="-2.3546133"><ele>287.5</ele><time>2026-05-03T12:30:36.783Z</time></trkpt><trkpt lat="54.2068933" lon="-2.3544"><ele>286.75</ele><time>2026-05-03T12:30:37.783Z</time></trkpt><trkpt lat="54.2068133" lon="-2.3542017"><ele>286.0</ele><time>2026-05-03T12:30:38.782Z</time></trkpt><trkpt lat="54.2067067" lon="-2.3540283"><ele>286.0</ele><time>2026-05-03T12:30:39.783Z</time></trkpt><trkpt lat="54.20657" lon="-2.3538867"><ele>286.0</ele><time>2026-05-03T12:30:40.785Z</time></trkpt><trkpt lat="54.2064267" lon="-2.3537583"><ele>286.0</ele><time>2026-05-03T12:30:41.783Z</time></trkpt><trkpt lat="54.2062433" lon="-2.3536567"><ele>287.0</ele><time>2026-05-03T12:30:42.783Z</time></trkpt><trkpt lat="54.2060617" lon="-2.3535383"><ele>288.0</ele><time>2026-05-03T12:30:43.784Z</time></trkpt><trkpt lat="54.2058767" lon="-2.3533883"><ele>289.0</ele><time>2026-05-03T12:30:44.783Z</time></trkpt><trkpt lat="54.205705" lon="-2.35323"><ele>290.0</ele><time>2026-05-03T12:30:45.783Z</time></trkpt><trkpt lat="54.2055483" lon="-2.3530717"><ele>291.0</ele><time>2026-05-03T12:30:46.786Z</time></trkpt><trkpt lat="54.2053933" lon="-2.3529283"><ele>292.0</ele><time>2026-05-03T12:30:47.782Z</time></trkpt><trkpt lat="54.2052483" lon="-2.352805"><ele>292.0</ele><time>2026-05-03T12:30:48.786Z</time></trkpt><trkpt lat="54.2051133" lon="-2.3526933"><ele>292.0</ele><time>2026-05-03T12:30:49.783Z</time></trkpt><trkpt lat="54.2049967" lon="-2.3525717"><ele>292.0</ele><time>2026-05-03T12:30:50.782Z</time></trkpt><trkpt lat="54.2048933" lon="-2.3524167"><ele>292.0</ele><time>2026-05-03T12:30:51.783Z</time></trkpt><trkpt lat="54.20481" lon="-2.352205"><ele>295.0</ele><time>2026-05-03T12:30:52.782Z</time></trkpt><trkpt lat="54.2047433" lon="-2.351935"><ele>298.0</ele><time>2026-05-03T12:30:53.782Z</time></trkpt><trkpt lat="54.2046683" lon="-2.35166"><ele>301.0</ele><time>2026-05-03T12:30:54.786Z</time></trkpt><trkpt lat="54.20457" lon="-2.3514033"><ele>298.66666666666663</ele><time>2026-05-03T12:30:55.782Z</time></trkpt><trkpt lat="54.2044617" lon="-2.3511917"><ele>296.3333333333333</ele><time>2026-05-03T12:30:56.787Z</time></trkpt><trkpt lat="54.204345" lon="-2.3510433"><ele>294.0</ele><time>2026-05-03T12:30:57.784Z</time></trkpt><trkpt lat="54.204205" lon="-2.3509333"><ele>294.0</ele><time>2026-05-03T12:30:58.783Z</time></trkpt><trkpt lat="54.2040417" lon="-2.350865"><ele>294.0</ele><time>2026-05-03T12:30:59.784Z</time></trkpt><trkpt lat="54.2038817" lon="-2.350795"><ele>294.0</ele><time>2026-05-03T12:31:00.783Z</time></trkpt><trkpt lat="54.2037367" lon="-2.3506933"><ele>294.0</ele><time>2026-05-03T12:31:01.783Z</time></trkpt><trkpt lat="54.203595" lon="-2.3505383"><ele>294.0</ele><time>2026-05-03T12:31:02.783Z</time></trkpt><trkpt lat="54.203455" lon="-2.3503417"><ele>294.0</ele><time>2026-05-03T12:31:03.784Z</time></trkpt><trkpt lat="54.2033117" lon="-2.35012"><ele>294.0</ele><time>2026-05-03T12:31:04.783Z</time></trkpt><trkpt lat="54.203175" lon="-2.349865"><ele>294.0</ele><time>2026-05-03T12:31:05.784Z</time></trkpt><trkpt lat="54.2030417" lon="-2.3495833"><ele>294.0</ele><time>2026-05-03T12:31:06.783Z</time></trkpt><trkpt lat="54.2029083" lon="-2.3492883"><ele>295.0</ele><time>2026-05-03T12:31:07.785Z</time></trkpt><trkpt lat="54.2027817" lon="-2.3489917"><ele>296.0</ele><time>2026-05-03T12:31:08.784Z</time></trkpt><trkpt lat="54.2026583" lon="-2.3486917"><ele>297.0</ele><time>2026-05-03T12:31:09.783Z</time></trkpt><trkpt lat="54.2025417" lon="-2.3483817"><ele>297.0</ele><time>2026-05-03T12:31:10.787Z</time></trkpt><trkpt lat="54.2024367" lon="-2.3480733"><ele>297.0</ele><time>2026-05-03T12:31:11.782Z</time></trkpt><trkpt lat="54.2023483" lon="-2.3478"><ele>297.0</ele><time>2026-05-03T12:31:12.786Z</time></trkpt><trkpt lat="54.2022683" lon="-2.3475583"><ele>300.0</ele><time>2026-05-03T12:31:13.783Z</time></trkpt><trkpt lat="54.2021867" lon="-2.34732"><ele>303.0</ele><time>2026-05-03T12:31:14.782Z</time></trkpt><trkpt lat="54.2021067" lon="-2.3470667"><ele>306.0</ele><time>2026-05-03T12:31:15.781Z</time></trkpt><trkpt lat="54.202025" lon="-2.34682"><ele>306.0</ele><time>2026-05-03T12:31:16.787Z</time></trkpt><trkpt lat="54.201935" lon="-2.3465833"><ele>306.0</ele><time>2026-05-03T12:31:17.782Z</time></trkpt><trkpt lat="54.2018267" lon="-2.3463467"><ele>306.0</ele><time>2026-05-03T12:31:18.782Z</time></trkpt><trkpt lat="54.2016867" lon="-2.3461133"><ele>304.6666666666667</ele><time>2026-05-03T12:31:19.783Z</time></trkpt><trkpt lat="54.2015217" lon="-2.3458867"><ele>303.33333333333337</ele><time>2026-05-03T12:31:20.783Z</time></trkpt><trkpt lat="54.2013433" lon="-2.3456617"><ele>302.0</ele><time>2026-05-03T12:31:21.785Z</time></trkpt><trkpt lat="54.20116" lon="-2.3454417"><ele>302.0</ele><time>2026-05-03T12:31:22.786Z</time></trkpt><trkpt lat="54.2009817" lon="-2.3452317"><ele>302.0</ele><time>2026-05-03T12:31:23.783Z</time></trkpt><trkpt lat="54.2008083" lon="-2.345025"><ele>302.0</ele><time>2026-05-03T12:31:24.786Z</time></trkpt><trkpt lat="54.200635" lon="-2.3448067"><ele>301.33333333333337</ele><time>2026-05-03T12:31:25.787Z</time></trkpt><trkpt lat="54.2004567" lon="-2.3445733"><ele>300.6666666666667</ele><time>2026-05-03T12:31:26.785Z</time></trkpt><trkpt lat="54.2002867" lon="-2.3443283"><ele>300.0</ele><time>2026-05-03T12:31:27.783Z</time></trkpt><trkpt lat="54.2001317" lon="-2.34408"><ele>300.0</ele><time>2026-05-03T12:31:28.782Z</time></trkpt><trkpt lat="54.1999867" lon="-2.3438483"><ele>300.0</ele><time>2026-05-03T12:31:29.783Z</time></trkpt><trkpt lat="54.1998367" lon="-2.3436483"><ele>300.0</ele><time>2026-05-03T12:31:30.783Z</time></trkpt><trkpt lat="54.19967" lon="-2.34349"><ele>300.0</ele><time>2026-05-03T12:31:31.784Z</time></trkpt><trkpt lat="54.19948" lon="-2.343375"><ele>300.0</ele><time>2026-05-03T12:31:32.782Z</time></trkpt><trkpt lat="54.1992717" lon="-2.3432867"><ele>300.0</ele><time>2026-05-03T12:31:33.784Z</time></trkpt><trkpt lat="54.199055" lon="-2.34321"><ele>300.0</ele><time>2026-05-03T12:31:34.782Z</time></trkpt><trkpt lat="54.19884" lon="-2.3431433"><ele>300.0</ele><time>2026-05-03T12:31:35.784Z</time></trkpt><trkpt lat="54.1986333" lon="-2.3430717"><ele>300.0</ele><time>2026-05-03T12:31:36.783Z</time></trkpt><trkpt lat="54.1984333" lon="-2.343005"><ele>300.0</ele><time>2026-05-03T12:31:37.783Z</time></trkpt><trkpt lat="54.1982433" lon="-2.3429283"><ele>300.0</ele><time>2026-05-03T12:31:38.783Z</time></trkpt><trkpt lat="54.1980483" lon="-2.342825"><ele>300.0</ele><time>2026-05-03T12:31:39.783Z</time></trkpt><trkpt lat="54.1978533" lon="-2.34268"><ele>301.0</ele><time>2026-05-03T12:31:40.783Z</time></trkpt><trkpt lat="54.1976633" lon="-2.3424817"><ele>302.0</ele><time>2026-05-03T12:31:41.784Z</time></trkpt><trkpt lat="54.1974767" lon="-2.3422533"><ele>302.33333333333337</ele><time>2026-05-03T12:31:42.783Z</time></trkpt><trkpt lat="54.1972983" lon="-2.34202"><ele>302.6666666666667</ele><time>2026-05-03T12:31:43.787Z</time></trkpt><trkpt lat="54.1971283" lon="-2.3418"><ele>303.0</ele><time>2026-05-03T12:31:44.786Z</time></trkpt><trkpt lat="54.1969633" lon="-2.3415967"><ele>303.0</ele><time>2026-05-03T12:31:45.783Z</time></trkpt><trkpt lat="54.1968183" lon="-2.3414183"><ele>303.0</ele><time>2026-05-03T12:31:46.787Z</time></trkpt><trkpt lat="54.1966833" lon="-2.34128"><ele>303.0</ele><time>2026-05-03T12:31:47.783Z</time></trkpt><trkpt lat="54.1965583" lon="-2.34119"><ele>303.0</ele><time>2026-05-03T12:31:48.787Z</time></trkpt><trkpt lat="54.1964333" lon="-2.3411633"><ele>303.0</ele><time>2026-05-03T12:31:49.787Z</time></trkpt><trkpt lat="54.19631" lon="-2.341195"><ele>303.0</ele><time>2026-05-03T12:31:50.783Z</time></trkpt><trkpt lat="54.1961867" lon="-2.3412833"><ele>303.0</ele><time>2026-05-03T12:31:51.782Z</time></trkpt><trkpt lat="54.1960533" lon="-2.34142"><ele>304.3333333333333</ele><time>2026-05-03T12:31:52.783Z</time></trkpt><trkpt lat="54.1959117" lon="-2.3415667"><ele>305.66666666666663</ele><time>2026-05-03T12:31:53.783Z</time></trkpt><trkpt lat="54.1957617" lon="-2.3417083"><ele>307.0</ele><time>2026-05-03T12:31:54.783Z</time></trkpt><trkpt lat="54.1956133" lon="-2.34181"><ele>308.0</ele><time>2026-05-03T12:31:55.785Z</time></trkpt><trkpt lat="54.1954617" lon="-2.3418583"><ele>309.0</ele><time>2026-05-03T12:31:56.782Z</time></trkpt><trkpt lat="54.195295" lon="-2.3418783"><ele>310.0</ele><time>2026-05-03T12:31:57.783Z</time></trkpt><trkpt lat="54.195115" lon="-2.3418267"><ele>310.0</ele><time>2026-05-03T12:31:58.783Z</time></trkpt><trkpt lat="54.1949233" lon="-2.341765"><ele>310.0</ele><time>2026-05-03T12:31:59.783Z</time></trkpt><trkpt lat="54.1947183" lon="-2.3417033"><ele>310.0</ele><time>2026-05-03T12:32:00.783Z</time></trkpt><trkpt lat="54.1944983" lon="-2.34164"><ele>311.0</ele><time>2026-05-03T12:32:01.784Z</time></trkpt><trkpt lat="54.194265" lon="-2.3415783"><ele>312.0</ele><time>2026-05-03T12:32:02.784Z</time></trkpt><trkpt lat="54.1940217" lon="-2.3415083"><ele>312.0</ele><time>2026-05-03T12:32:03.782Z</time></trkpt><trkpt lat="54.193775" lon="-2.3414317"><ele>312.0</ele><time>2026-05-03T12:32:04.783Z</time></trkpt><trkpt lat="54.1935233" lon="-2.3413567"><ele>310.5</ele><time>2026-05-03T12:32:05.783Z</time></trkpt><trkpt lat="54.1932717" lon="-2.3412833"><ele>309.0</ele><time>2026-05-03T12:32:06.783Z</time></trkpt><trkpt lat="54.1930233" lon="-2.3412133"><ele>309.0</ele><time>2026-05-03T12:32:07.783Z</time></trkpt><trkpt lat="54.192775" lon="-2.3411467"><ele>309.0</ele><time>2026-05-03T12:32:08.782Z</time></trkpt><trkpt lat="54.192525" lon="-2.3410833"><ele>309.0</ele><time>2026-05-03T12:32:09.785Z</time></trkpt><trkpt lat="54.1922717" lon="-2.34101"><ele>309.0</ele><time>2026-05-03T12:32:10.785Z</time></trkpt><trkpt lat="54.192015" lon="-2.3409317"><ele>309.0</ele><time>2026-05-03T12:32:11.782Z</time></trkpt><trkpt lat="54.19176" lon="-2.340855"><ele>309.0</ele><time>2026-05-03T12:32:12.783Z</time></trkpt><trkpt lat="54.191505" lon="-2.3407817"><ele>310.5</ele><time>2026-05-03T12:32:13.785Z</time></trkpt><trkpt lat="54.191255" lon="-2.340715"><ele>312.0</ele><time>2026-05-03T12:32:14.786Z</time></trkpt><trkpt lat="54.1910133" lon="-2.34065"><ele>312.0</ele><time>2026-05-03T12:32:15.785Z</time></trkpt><trkpt lat="54.190775" lon="-2.340585"><ele>312.0</ele><time>2026-05-03T12:32:16.786Z</time></trkpt><trkpt lat="54.1905333" lon="-2.34052"><ele>312.0</ele><time>2026-05-03T12:32:17.785Z</time></trkpt><trkpt lat="54.190295" lon="-2.3404567"><ele>312.0</ele><time>2026-05-03T12:32:18.788Z</time></trkpt><trkpt lat="54.1900733" lon="-2.3404"><ele>312.0</ele><time>2026-05-03T12:32:19.787Z</time></trkpt><trkpt lat="54.18988" lon="-2.3403517"><ele>312.0</ele><time>2026-05-03T12:32:20.786Z</time></trkpt><trkpt lat="54.1897017" lon="-2.3403017"><ele>312.0</ele><time>2026-05-03T12:32:21.783Z</time></trkpt><trkpt lat="54.1895333" lon="-2.3402317"><ele>312.0</ele><time>2026-05-03T12:32:22.785Z</time></trkpt><trkpt lat="54.1893783" lon="-2.34013"><ele>312.0</ele><time>2026-05-03T12:32:23.782Z</time></trkpt><trkpt lat="54.1892317" lon="-2.3400017"><ele>312.0</ele><time>2026-05-03T12:32:24.784Z</time></trkpt><trkpt lat="54.18908" lon="-2.3398467"><ele>310.3333333333333</ele><time>2026-05-03T12:32:25.784Z</time></trkpt><trkpt lat="54.1889183" lon="-2.3396767"><ele>308.66666666666663</ele><time>2026-05-03T12:32:26.787Z</time></trkpt><trkpt lat="54.188755" lon="-2.3394983"><ele>307.0</ele><time>2026-05-03T12:32:27.79Z</time></trkpt><trkpt lat="54.1885917" lon="-2.3393217"><ele>307.0</ele><time>2026-05-03T12:32:28.783Z</time></trkpt><trkpt lat="54.1884267" lon="-2.339145"><ele>307.0</ele><time>2026-05-03T12:32:29.782Z</time></trkpt><trkpt lat="54.188265" lon="-2.3389717"><ele>307.0</ele><time>2026-05-03T12:32:30.782Z</time></trkpt><trkpt lat="54.1881083" lon="-2.3388083"><ele>305.0</ele><time>2026-05-03T12:32:31.783Z</time></trkpt><trkpt lat="54.1879567" lon="-2.338655"><ele>303.0</ele><time>2026-05-03T12:32:32.783Z</time></trkpt><trkpt lat="54.1877933" lon="-2.3385233"><ele>301.0</ele><time>2026-05-03T12:32:33.784Z</time></trkpt><trkpt lat="54.1876117" lon="-2.3384067"><ele>301.0</ele><time>2026-05-03T12:32:34.783Z</time></trkpt><trkpt lat="54.1874117" lon="-2.3382967"><ele>301.0</ele><time>2026-05-03T12:32:35.783Z</time></trkpt><trkpt lat="54.1871917" lon="-2.3381883"><ele>301.0</ele><time>2026-05-03T12:32:36.782Z</time></trkpt><trkpt lat="54.186955" lon="-2.3380833"><ele>298.0</ele><time>2026-05-03T12:32:37.783Z</time></trkpt><trkpt lat="54.186705" lon="-2.3379833"><ele>295.0</ele><time>2026-05-03T12:32:38.782Z</time></trkpt><trkpt lat="54.1864483" lon="-2.3378833"><ele>295.0</ele><time>2026-05-03T12:32:39.782Z</time></trkpt><trkpt lat="54.1861783" lon="-2.3377783"><ele>295.0</ele><time>2026-05-03T12:32:40.786Z</time></trkpt><trkpt lat="54.1859" lon="-2.3376667"><ele>296.0</ele><time>2026-05-03T12:32:41.783Z</time></trkpt><trkpt lat="54.18562" lon="-2.337545"><ele>297.0</ele><time>2026-05-03T12:32:42.787Z</time></trkpt><trkpt lat="54.1853467" lon="-2.3374267"><ele>297.0</ele><time>2026-05-03T12:32:43.785Z</time></trkpt><trkpt lat="54.1850717" lon="-2.3373083"><ele>297.0</ele><time>2026-05-03T12:32:44.787Z</time></trkpt><trkpt lat="54.18479" lon="-2.3371917"><ele>294.0</ele><time>2026-05-03T12:32:45.786Z</time></trkpt><trkpt lat="54.1845017" lon="-2.3370783"><ele>291.0</ele><time>2026-05-03T12:32:46.783Z</time></trkpt><trkpt lat="54.1842067" lon="-2.33697"><ele>292.0</ele><time>2026-05-03T12:32:47.786Z</time></trkpt><trkpt lat="54.1838983" lon="-2.33686"><ele>293.0</ele><time>2026-05-03T12:32:48.785Z</time></trkpt><trkpt lat="54.183585" lon="-2.3367417"><ele>293.0</ele><time>2026-05-03T12:32:49.786Z</time></trkpt><trkpt lat="54.1832717" lon="-2.3366083"><ele>293.0</ele><time>2026-05-03T12:32:50.786Z</time></trkpt><trkpt lat="54.1829517" lon="-2.3364667"><ele>292.5</ele><time>2026-05-03T12:32:51.785Z</time></trkpt><trkpt lat="54.1826217" lon="-2.33633"><ele>292.0</ele><time>2026-05-03T12:32:52.786Z</time></trkpt><trkpt lat="54.1822917" lon="-2.336205"><ele>293.0</ele><time>2026-05-03T12:32:53.786Z</time></trkpt><trkpt lat="54.181965" lon="-2.3360817"><ele>294.0</ele><time>2026-05-03T12:32:54.785Z</time></trkpt><trkpt lat="54.181645" lon="-2.3359533"><ele>296.0</ele><time>2026-05-03T12:32:55.786Z</time></trkpt><trkpt lat="54.1813483" lon="-2.33583"><ele>298.0</ele><time>2026-05-03T12:32:56.786Z</time></trkpt><trkpt lat="54.18107" lon="-2.3357167"><ele>298.0</ele><time>2026-05-03T12:32:57.782Z</time></trkpt><trkpt lat="54.1807967" lon="-2.3356067"><ele>298.0</ele><time>2026-05-03T12:32:58.782Z</time></trkpt><trkpt lat="54.1805283" lon="-2.3355017"><ele>296.5</ele><time>2026-05-03T12:32:59.783Z</time></trkpt><trkpt lat="54.1802583" lon="-2.3353983"><ele>295.0</ele><time>2026-05-03T12:33:00.782Z</time></trkpt><trkpt lat="54.1799967" lon="-2.3352983"><ele>294.5</ele><time>2026-05-03T12:33:01.783Z</time></trkpt><trkpt lat="54.17975" lon="-2.3352017"><ele>294.0</ele><time>2026-05-03T12:33:02.784Z</time></trkpt><trkpt lat="54.1795183" lon="-2.3351083"><ele>294.0</ele><time>2026-05-03T12:33:03.783Z</time></trkpt><trkpt lat="54.179295" lon="-2.3350183"><ele>294.0</ele><time>2026-05-03T12:33:04.782Z</time></trkpt><trkpt lat="54.1790717" lon="-2.3349283"><ele>294.6666666666667</ele><time>2026-05-03T12:33:05.784Z</time></trkpt><trkpt lat="54.1788583" lon="-2.334835"><ele>295.33333333333337</ele><time>2026-05-03T12:33:06.783Z</time></trkpt><trkpt lat="54.178655" lon="-2.33474"><ele>296.0</ele><time>2026-05-03T12:33:07.786Z</time></trkpt><trkpt lat="54.1784583" lon="-2.3346483"><ele>294.6666666666667</ele><time>2026-05-03T12:33:08.785Z</time></trkpt><trkpt lat="54.1782667" lon="-2.3345533"><ele>293.3333333333333</ele><time>2026-05-03T12:33:09.785Z</time></trkpt><trkpt lat="54.1780833" lon="-2.3344667"><ele>292.0</ele><time>2026-05-03T12:33:10.787Z</time></trkpt><trkpt lat="54.17792" lon="-2.3343867"><ele>292.0</ele><time>2026-05-03T12:33:11.784Z</time></trkpt><trkpt lat="54.1777667" lon="-2.33431"><ele>292.0</ele><time>2026-05-03T12:33:12.786Z</time></trkpt><trkpt lat="54.17763" lon="-2.33423"><ele>292.0</ele><time>2026-05-03T12:33:13.783Z</time></trkpt><trkpt lat="54.1775033" lon="-2.334145"><ele>292.0</ele><time>2026-05-03T12:33:14.787Z</time></trkpt><trkpt lat="54.1773967" lon="-2.3340583"><ele>291.75</ele><time>2026-05-03T12:33:15.786Z</time></trkpt><trkpt lat="54.1773117" lon="-2.33396"><ele>291.5</ele><time>2026-05-03T12:33:16.783Z</time></trkpt><trkpt lat="54.1772467" lon="-2.333825"><ele>291.25</ele><time>2026-05-03T12:33:17.782Z</time></trkpt><trkpt lat="54.177195" lon="-2.33365"><ele>291.0</ele><time>2026-05-03T12:33:18.783Z</time></trkpt><trkpt lat="54.17716" lon="-2.33343"><ele>290.0</ele><time>2026-05-03T12:33:19.783Z</time></trkpt><trkpt lat="54.17711" lon="-2.333205"><ele>289.0</ele><time>2026-05-03T12:33:20.783Z</time></trkpt><trkpt lat="54.1770283" lon="-2.3329867"><ele>288.0</ele><time>2026-05-03T12:33:21.784Z</time></trkpt><trkpt lat="54.176915" lon="-2.3327933"><ele>287.0</ele><time>2026-05-03T12:33:22.785Z</time></trkpt><trkpt lat="54.1768" lon="-2.3326267"><ele>286.0</ele><time>2026-05-03T12:33:23.782Z</time></trkpt><trkpt lat="54.17669" lon="-2.3324867"><ele>285.0</ele><time>2026-05-03T12:33:24.787Z</time></trkpt><trkpt lat="54.1765883" lon="-2.33235"><ele>284.0</ele><time>2026-05-03T12:33:25.786Z</time></trkpt><trkpt lat="54.1764917" lon="-2.33221"><ele>283.25</ele><time>2026-05-03T12:33:26.783Z</time></trkpt><trkpt lat="54.1764033" lon="-2.3320483"><ele>282.5</ele><time>2026-05-03T12:33:27.782Z</time></trkpt><trkpt lat="54.17633" lon="-2.3318617"><ele>281.75</ele><time>2026-05-03T12:33:28.788Z</time></trkpt><trkpt lat="54.1762583" lon="-2.3316683"><ele>281.0</ele><time>2026-05-03T12:33:29.784Z</time></trkpt><trkpt lat="54.1761917" lon="-2.331475"><ele>280.25</ele><time>2026-05-03T12:33:30.783Z</time></trkpt><trkpt lat="54.1761217" lon="-2.3312917"><ele>279.5</ele><time>2026-05-03T12:33:31.786Z</time></trkpt><trkpt lat="54.1760583" lon="-2.3311117"><ele>278.75</ele><time>2026-05-03T12:33:32.782Z</time></trkpt><trkpt lat="54.1759833" lon="-2.3309567"><ele>278.0</ele><time>2026-05-03T12:33:33.783Z</time></trkpt><trkpt lat="54.1758917" lon="-2.3308333"><ele>278.0</ele><time>2026-05-03T12:33:34.788Z</time></trkpt><trkpt lat="54.175785" lon="-2.330745"><ele>278.0</ele><time>2026-05-03T12:33:35.788Z</time></trkpt><trkpt lat="54.175655" lon="-2.3306767"><ele>278.0</ele><time>2026-05-03T12:33:36.786Z</time></trkpt><trkpt lat="54.1754967" lon="-2.3306133"><ele>278.0</ele><time>2026-05-03T12:33:37.786Z</time></trkpt><trkpt lat="54.17532" lon="-2.33056"><ele>277.33333333333337</ele><time>2026-05-03T12:33:38.786Z</time></trkpt><trkpt lat="54.175135" lon="-2.3305117"><ele>276.6666666666667</ele><time>2026-05-03T12:33:39.783Z</time></trkpt><trkpt lat="54.174955" lon="-2.3304583"><ele>276.0</ele><time>2026-05-03T12:33:40.786Z</time></trkpt><trkpt lat="54.174775" lon="-2.3303833"><ele>275.3333333333333</ele><time>2026-05-03T12:33:41.783Z</time></trkpt><trkpt lat="54.174595" lon="-2.3302717"><ele>274.66666666666663</ele><time>2026-05-03T12:33:42.782Z</time></trkpt><trkpt lat="54.174415" lon="-2.3301183"><ele>274.0</ele><time>2026-05-03T12:33:43.784Z</time></trkpt><trkpt lat="54.17424" lon="-2.3299133"><ele>273.0</ele><time>2026-05-03T12:33:44.787Z</time></trkpt><trkpt lat="54.1740667" lon="-2.32965"><ele>272.0</ele><time>2026-05-03T12:33:45.787Z</time></trkpt><trkpt lat="54.1738983" lon="-2.329355"><ele>273.0</ele><time>2026-05-03T12:33:46.783Z</time></trkpt><trkpt lat="54.173735" lon="-2.3290567"><ele>274.0</ele><time>2026-05-03T12:33:47.783Z</time></trkpt><trkpt lat="54.173575" lon="-2.328775"><ele>274.0</ele><time>2026-05-03T12:33:48.782Z</time></trkpt><trkpt lat="54.173415" lon="-2.3285233"><ele>274.0</ele><time>2026-05-03T12:33:49.782Z</time></trkpt><trkpt lat="54.17324" lon="-2.3282983"><ele>274.0</ele><time>2026-05-03T12:33:50.782Z</time></trkpt><trkpt lat="54.173045" lon="-2.328095"><ele>273.5</ele><time>2026-05-03T12:33:51.782Z</time></trkpt><trkpt lat="54.172845" lon="-2.3278917"><ele>273.0</ele><time>2026-05-03T12:33:52.784Z</time></trkpt><trkpt lat="54.17265" lon="-2.327665"><ele>273.0</ele><time>2026-05-03T12:33:53.785Z</time></trkpt><trkpt lat="54.1724483" lon="-2.3274333"><ele>273.0</ele><time>2026-05-03T12:33:54.786Z</time></trkpt><trkpt lat="54.1722333" lon="-2.3272217"><ele>272.5</ele><time>2026-05-03T12:33:55.786Z</time></trkpt><trkpt lat="54.17202" lon="-2.3270367"><ele>272.0</ele><time>2026-05-03T12:33:56.786Z</time></trkpt><trkpt lat="54.1718217" lon="-2.3268733"><ele>272.0</ele><time>2026-05-03T12:33:57.786Z</time></trkpt><trkpt lat="54.1716283" lon="-2.326745"><ele>272.0</ele><time>2026-05-03T12:33:58.786Z</time></trkpt><trkpt lat="54.1714267" lon="-2.3266683"><ele>272.0</ele><time>2026-05-03T12:33:59.783Z</time></trkpt><trkpt lat="54.1712183" lon="-2.3266483"><ele>274.0</ele><time>2026-05-03T12:34:00.783Z</time></trkpt><trkpt lat="54.1710083" lon="-2.3266833"><ele>276.0</ele><time>2026-05-03T12:34:01.784Z</time></trkpt><trkpt lat="54.17081" lon="-2.3267867"><ele>278.0</ele><time>2026-05-03T12:34:02.783Z</time></trkpt><trkpt lat="54.1706117" lon="-2.326955"><ele>278.0</ele><time>2026-05-03T12:34:03.783Z</time></trkpt><trkpt lat="54.170405" lon="-2.32711"><ele>278.0</ele><time>2026-05-03T12:34:04.784Z</time></trkpt><trkpt lat="54.1701817" lon="-2.3272483"><ele>279.5</ele><time>2026-05-03T12:34:05.782Z</time></trkpt><trkpt lat="54.169955" lon="-2.3273867"><ele>281.0</ele><time>2026-05-03T12:34:06.785Z</time></trkpt><trkpt lat="54.1697383" lon="-2.3275333"><ele>281.5</ele><time>2026-05-03T12:34:07.786Z</time></trkpt><trkpt lat="54.16953" lon="-2.3276933"><ele>282.0</ele><time>2026-05-03T12:34:08.786Z</time></trkpt><trkpt lat="54.169335" lon="-2.327875"><ele>282.0</ele><time>2026-05-03T12:34:09.784Z</time></trkpt><trkpt lat="54.169165" lon="-2.32805"><ele>282.0</ele><time>2026-05-03T12:34:10.785Z</time></trkpt><trkpt lat="54.168995" lon="-2.3281983"><ele>282.0</ele><time>2026-05-03T12:34:11.783Z</time></trkpt><trkpt lat="54.168815" lon="-2.3283"><ele>285.3333333333333</ele><time>2026-05-03T12:34:12.783Z</time></trkpt><trkpt lat="54.1686417" lon="-2.328365"><ele>288.66666666666663</ele><time>2026-05-03T12:34:13.783Z</time></trkpt><trkpt lat="54.1684817" lon="-2.3284"><ele>292.0</ele><time>2026-05-03T12:34:14.783Z</time></trkpt><trkpt lat="54.168345" lon="-2.32841"><ele>292.0</ele><time>2026-05-03T12:34:15.786Z</time></trkpt><trkpt lat="54.1682317" lon="-2.3283767"><ele>292.0</ele><time>2026-05-03T12:34:16.783Z</time></trkpt><trkpt lat="54.1681333" lon="-2.3283"><ele>292.0</ele><time>2026-05-03T12:34:17.783Z</time></trkpt><trkpt lat="54.1680383" lon="-2.32816"><ele>292.0</ele><time>2026-05-03T12:34:18.783Z</time></trkpt><trkpt lat="54.1679667" lon="-2.3279583"><ele>291.75</ele><time>2026-05-03T12:34:19.784Z</time></trkpt><trkpt lat="54.1678983" lon="-2.3277633"><ele>291.5</ele><time>2026-05-03T12:34:20.783Z</time></trkpt><trkpt lat="54.1678217" lon="-2.3275583"><ele>291.25</ele><time>2026-05-03T12:34:21.782Z</time></trkpt><trkpt lat="54.1677317" lon="-2.32733"><ele>291.0</ele><time>2026-05-03T12:34:22.782Z</time></trkpt><trkpt lat="54.1676167" lon="-2.327085"><ele>291.0</ele><time>2026-05-03T12:34:23.782Z</time></trkpt><trkpt lat="54.167475" lon="-2.3268317"><ele>291.0</ele><time>2026-05-03T12:34:24.782Z</time></trkpt><trkpt lat="54.167315" lon="-2.3265733"><ele>291.0</ele><time>2026-05-03T12:34:25.786Z</time></trkpt><trkpt lat="54.1671383" lon="-2.326305"><ele>290.0</ele><time>2026-05-03T12:34:26.785Z</time></trkpt><trkpt lat="54.1669517" lon="-2.32603"><ele>289.0</ele><time>2026-05-03T12:34:27.783Z</time></trkpt><trkpt lat="54.1667617" lon="-2.325765"><ele>289.0</ele><time>2026-05-03T12:34:28.785Z</time></trkpt><trkpt lat="54.1665683" lon="-2.325525"><ele>289.0</ele><time>2026-05-03T12:34:29.786Z</time></trkpt><trkpt lat="54.1663667" lon="-2.3253233"><ele>289.0</ele><time>2026-05-03T12:34:30.785Z</time></trkpt><trkpt lat="54.1661533" lon="-2.325155"><ele>289.0</ele><time>2026-05-03T12:34:31.783Z</time></trkpt><trkpt lat="54.16593" lon="-2.3250183"><ele>289.0</ele><time>2026-05-03T12:34:32.786Z</time></trkpt><trkpt lat="54.1657133" lon="-2.3249017"><ele>289.0</ele><time>2026-05-03T12:34:33.786Z</time></trkpt><trkpt lat="54.1655033" lon="-2.32476"><ele>288.5</ele><time>2026-05-03T12:34:34.783Z</time></trkpt><trkpt lat="54.165295" lon="-2.32458"><ele>288.0</ele><time>2026-05-03T12:34:35.784Z</time></trkpt><trkpt lat="54.1651017" lon="-2.324375"><ele>288.0</ele><time>2026-05-03T12:34:36.786Z</time></trkpt><trkpt lat="54.1649183" lon="-2.324165"><ele>288.0</ele><time>2026-05-03T12:34:37.783Z</time></trkpt><trkpt lat="54.1647467" lon="-2.3239533"><ele>288.0</ele><time>2026-05-03T12:34:38.787Z</time></trkpt><trkpt lat="54.164595" lon="-2.3237333"><ele>287.3333333333333</ele><time>2026-05-03T12:34:39.783Z</time></trkpt><trkpt lat="54.1644583" lon="-2.3235067"><ele>286.66666666666663</ele><time>2026-05-03T12:34:40.786Z</time></trkpt><trkpt lat="54.1643417" lon="-2.3232683"><ele>286.0</ele><time>2026-05-03T12:34:41.786Z</time></trkpt><trkpt lat="54.1642433" lon="-2.3229933"><ele>285.66666666666663</ele><time>2026-05-03T12:34:42.786Z</time></trkpt><trkpt lat="54.1641717" lon="-2.322695"><ele>285.3333333333333</ele><time>2026-05-03T12:34:43.782Z</time></trkpt><trkpt lat="54.1640983" lon="-2.3224233"><ele>285.0</ele><time>2026-05-03T12:34:44.789Z</time></trkpt><trkpt lat="54.1640067" lon="-2.3221817"><ele>286.6666666666667</ele><time>2026-05-03T12:34:45.783Z</time></trkpt><trkpt lat="54.1638833" lon="-2.32196"><ele>288.33333333333337</ele><time>2026-05-03T12:34:46.786Z</time></trkpt><trkpt lat="54.163725" lon="-2.321735"><ele>290.0</ele><time>2026-05-03T12:34:47.783Z</time></trkpt><trkpt lat="54.1635483" lon="-2.32151"><ele>290.33333333333337</ele><time>2026-05-03T12:34:48.782Z</time></trkpt><trkpt lat="54.1633683" lon="-2.3212917"><ele>290.6666666666667</ele><time>2026-05-03T12:34:49.782Z</time></trkpt><trkpt lat="54.163195" lon="-2.3210983"><ele>291.0</ele><time>2026-05-03T12:34:50.785Z</time></trkpt><trkpt lat="54.1630383" lon="-2.3209267"><ele>291.0</ele><time>2026-05-03T12:34:51.783Z</time></trkpt><trkpt lat="54.1629067" lon="-2.3207717"><ele>291.0</ele><time>2026-05-03T12:34:52.783Z</time></trkpt><trkpt lat="54.1627867" lon="-2.320595"><ele>291.0</ele><time>2026-05-03T12:34:53.786Z</time></trkpt><trkpt lat="54.1626783" lon="-2.320375"><ele>289.0</ele><time>2026-05-03T12:34:54.783Z</time></trkpt><trkpt lat="54.1625767" lon="-2.320125"><ele>287.0</ele><time>2026-05-03T12:34:55.786Z</time></trkpt><trkpt lat="54.162485" lon="-2.3198717"><ele>285.0</ele><time>2026-05-03T12:34:56.785Z</time></trkpt><trkpt lat="54.1623967" lon="-2.3196283"><ele>285.0</ele><time>2026-05-03T12:34:57.785Z</time></trkpt><trkpt lat="54.1623217" lon="-2.3193817"><ele>285.0</ele><time>2026-05-03T12:34:58.785Z</time></trkpt><trkpt lat="54.162265" lon="-2.3191117"><ele>285.0</ele><time>2026-05-03T12:34:59.785Z</time></trkpt><trkpt lat="54.162235" lon="-2.3188217"><ele>283.6666666666667</ele><time>2026-05-03T12:35:00.783Z</time></trkpt><trkpt lat="54.162215" lon="-2.3185333"><ele>282.33333333333337</ele><time>2026-05-03T12:35:01.783Z</time></trkpt><trkpt lat="54.1621767" lon="-2.318235"><ele>281.0</ele><time>2026-05-03T12:35:02.782Z</time></trkpt><trkpt lat="54.1621033" lon="-2.317925"><ele>278.0</ele><time>2026-05-03T12:35:03.782Z</time></trkpt><trkpt lat="54.16199" lon="-2.31759"><ele>275.0</ele><time>2026-05-03T12:35:04.786Z</time></trkpt><trkpt lat="54.1618567" lon="-2.3172383"><ele>272.0</ele><time>2026-05-03T12:35:05.786Z</time></trkpt><trkpt lat="54.161715" lon="-2.316855"><ele>269.0</ele><time>2026-05-03T12:35:06.786Z</time></trkpt><trkpt lat="54.1615617" lon="-2.31645"><ele>269.5</ele><time>2026-05-03T12:35:07.787Z</time></trkpt><trkpt lat="54.1614017" lon="-2.3160483"><ele>270.0</ele><time>2026-05-03T12:35:08.786Z</time></trkpt><trkpt lat="54.16124" lon="-2.3156567"><ele>269.5</ele><time>2026-05-03T12:35:09.786Z</time></trkpt><trkpt lat="54.1610933" lon="-2.315295"><ele>269.0</ele><time>2026-05-03T12:35:10.782Z</time></trkpt><trkpt lat="54.1609583" lon="-2.31495"><ele>268.5</ele><time>2026-05-03T12:35:11.786Z</time></trkpt><trkpt lat="54.160825" lon="-2.31463"><ele>268.0</ele><time>2026-05-03T12:35:12.782Z</time></trkpt><trkpt lat="54.1606817" lon="-2.3143383"><ele>267.5</ele><time>2026-05-03T12:35:13.783Z</time></trkpt><trkpt lat="54.1604983" lon="-2.31408"><ele>267.0</ele><time>2026-05-03T12:35:14.785Z</time></trkpt><trkpt lat="54.1602883" lon="-2.3138567"><ele>264.5</ele><time>2026-05-03T12:35:15.786Z</time></trkpt><trkpt lat="54.1600867" lon="-2.3136383"><ele>262.0</ele><time>2026-05-03T12:35:16.786Z</time></trkpt><trkpt lat="54.1599" lon="-2.3134117"><ele>261.5</ele><time>2026-05-03T12:35:17.786Z</time></trkpt><trkpt lat="54.1597267" lon="-2.31316"><ele>261.0</ele><time>2026-05-03T12:35:18.783Z</time></trkpt><trkpt lat="54.1595633" lon="-2.31287"><ele>261.0</ele><time>2026-05-03T12:35:19.782Z</time></trkpt><trkpt lat="54.1594133" lon="-2.3125283"><ele>261.0</ele><time>2026-05-03T12:35:20.782Z</time></trkpt><trkpt lat="54.1592633" lon="-2.3121683"><ele>260.5</ele><time>2026-05-03T12:35:21.782Z</time></trkpt><trkpt lat="54.1591133" lon="-2.3118233"><ele>260.0</ele><time>2026-05-03T12:35:22.782Z</time></trkpt><trkpt lat="54.1589683" lon="-2.3115083"><ele>259.6666666666667</ele><time>2026-05-03T12:35:23.786Z</time></trkpt><trkpt lat="54.1588233" lon="-2.3112283"><ele>259.3333333333333</ele><time>2026-05-03T12:35:24.783Z</time></trkpt><trkpt lat="54.15865" lon="-2.3109833"><ele>259.0</ele><time>2026-05-03T12:35:25.786Z</time></trkpt><trkpt lat="54.1584433" lon="-2.31077"><ele>258.0</ele><time>2026-05-03T12:35:26.786Z</time></trkpt><trkpt lat="54.158225" lon="-2.3105733"><ele>257.0</ele><time>2026-05-03T12:35:27.783Z</time></trkpt><trkpt lat="54.1580117" lon="-2.3103833"><ele>256.5</ele><time>2026-05-03T12:35:28.785Z</time></trkpt><trkpt lat="54.1578033" lon="-2.3101967"><ele>256.0</ele><time>2026-05-03T12:35:29.786Z</time></trkpt><trkpt lat="54.1576083" lon="-2.3099933"><ele>256.0</ele><time>2026-05-03T12:35:30.785Z</time></trkpt><trkpt lat="54.1574217" lon="-2.3097417"><ele>256.0</ele><time>2026-05-03T12:35:31.782Z</time></trkpt><trkpt lat="54.1572367" lon="-2.30945"><ele>256.0</ele><time>2026-05-03T12:35:32.787Z</time></trkpt><trkpt lat="54.1570467" lon="-2.3091567"><ele>256.0</ele><time>2026-05-03T12:35:33.786Z</time></trkpt><trkpt lat="54.156835" lon="-2.3088833"><ele>256.0</ele><time>2026-05-03T12:35:34.786Z</time></trkpt><trkpt lat="54.1566183" lon="-2.30865"><ele>256.0</ele><time>2026-05-03T12:35:35.786Z</time></trkpt><trkpt lat="54.156405" lon="-2.3084617"><ele>256.0</ele><time>2026-05-03T12:35:36.785Z</time></trkpt><trkpt lat="54.15619" lon="-2.3083067"><ele>256.0</ele><time>2026-05-03T12:35:37.786Z</time></trkpt><trkpt lat="54.155965" lon="-2.308175"><ele>256.5</ele><time>2026-05-03T12:35:38.786Z</time></trkpt><trkpt lat="54.15573" lon="-2.3080583"><ele>257.0</ele><time>2026-05-03T12:35:39.783Z</time></trkpt><trkpt lat="54.155505" lon="-2.307935"><ele>256.0</ele><time>2026-05-03T12:35:40.786Z</time></trkpt><trkpt lat="54.1553033" lon="-2.3078117"><ele>255.0</ele><time>2026-05-03T12:35:41.786Z</time></trkpt><trkpt lat="54.15512" lon="-2.3076883"><ele>254.0</ele><time>2026-05-03T12:35:42.786Z</time></trkpt><trkpt lat="54.154945" lon="-2.30755"><ele>252.0</ele><time>2026-05-03T12:35:43.786Z</time></trkpt><trkpt lat="54.1547717" lon="-2.3073733"><ele>250.0</ele><time>2026-05-03T12:35:44.786Z</time></trkpt><trkpt lat="54.1546" lon="-2.3071567"><ele>248.0</ele><time>2026-05-03T12:35:45.782Z</time></trkpt><trkpt lat="54.1544417" lon="-2.3069117"><ele>247.66666666666669</ele><time>2026-05-03T12:35:46.786Z</time></trkpt><trkpt lat="54.1542883" lon="-2.3066733"><ele>247.33333333333331</ele><time>2026-05-03T12:35:47.784Z</time></trkpt><trkpt lat="54.154145" lon="-2.3064583"><ele>247.0</ele><time>2026-05-03T12:35:48.782Z</time></trkpt><trkpt lat="54.15402" lon="-2.306275"><ele>246.25</ele><time>2026-05-03T12:35:49.782Z</time></trkpt><trkpt lat="54.153915" lon="-2.306115"><ele>245.5</ele><time>2026-05-03T12:35:50.785Z</time></trkpt><trkpt lat="54.1538133" lon="-2.3059683"><ele>244.75</ele><time>2026-05-03T12:35:51.783Z</time></trkpt><trkpt lat="54.1537133" lon="-2.30583"><ele>244.0</ele><time>2026-05-03T12:35:52.784Z</time></trkpt><trkpt lat="54.1536183" lon="-2.30571"><ele>244.0</ele><time>2026-05-03T12:35:53.783Z</time></trkpt><trkpt lat="54.1535233" lon="-2.305605"><ele>243.99999999999997</ele><time>2026-05-03T12:35:54.785Z</time></trkpt><trkpt lat="54.1534317" lon="-2.3055183"><ele>243.99999999999997</ele><time>2026-05-03T12:35:55.785Z</time></trkpt><trkpt lat="54.15334" lon="-2.3054383"><ele>244.0</ele><time>2026-05-03T12:35:56.782Z</time></trkpt><trkpt lat="54.1532467" lon="-2.3053617"><ele>244.0</ele><time>2026-05-03T12:35:57.785Z</time></trkpt><trkpt lat="54.1531533" lon="-2.3052767"><ele>244.16666666666666</ele><time>2026-05-03T12:35:58.786Z</time></trkpt><trkpt lat="54.1530667" lon="-2.3051867"><ele>244.33333333333331</ele><time>2026-05-03T12:35:59.783Z</time></trkpt><trkpt lat="54.152985" lon="-2.3051033"><ele>244.5</ele><time>2026-05-03T12:36:00.785Z</time></trkpt><trkpt lat="54.1529133" lon="-2.305015"><ele>244.66666666666669</ele><time>2026-05-03T12:36:01.783Z</time></trkpt><trkpt lat="54.1528633" lon="-2.304915"><ele>244.83333333333334</ele><time>2026-05-03T12:36:02.784Z</time></trkpt><trkpt lat="54.1528217" lon="-2.3048017"><ele>245.0</ele><time>2026-05-03T12:36:03.783Z</time></trkpt><trkpt lat="54.1527967" lon="-2.3046733"><ele>245.00000000000003</ele><time>2026-05-03T12:36:04.783Z</time></trkpt><trkpt lat="54.1527967" lon="-2.304535"><ele>245.0</ele><time>2026-05-03T12:36:05.783Z</time></trkpt><trkpt lat="54.1527883" lon="-2.3044283"><ele>245.0</ele><time>2026-05-03T12:36:06.784Z</time></trkpt><trkpt lat="54.1527333" lon="-2.30424"><ele>245.0</ele><time>2026-05-03T12:36:08.782Z</time></trkpt><trkpt lat="54.152685" lon="-2.304155"><ele>245.00000000000003</ele><time>2026-05-03T12:36:09.783Z</time></trkpt><trkpt lat="54.15263" lon="-2.3040717"><ele>245.0</ele><time>2026-05-03T12:36:10.783Z</time></trkpt><trkpt lat="54.1525633" lon="-2.3039833"><ele>244.6</ele><time>2026-05-03T12:36:11.783Z</time></trkpt><trkpt lat="54.1524933" lon="-2.3038883"><ele>244.2</ele><time>2026-05-03T12:36:12.783Z</time></trkpt><trkpt lat="54.15242" lon="-2.3037883"><ele>243.8</ele><time>2026-05-03T12:36:13.782Z</time></trkpt><trkpt lat="54.1523417" lon="-2.3036933"><ele>243.4</ele><time>2026-05-03T12:36:14.782Z</time></trkpt><trkpt lat="54.1522617" lon="-2.303585"><ele>243.0</ele><time>2026-05-03T12:36:15.783Z</time></trkpt><trkpt lat="54.1521783" lon="-2.3034667"><ele>243.0</ele><time>2026-05-03T12:36:16.783Z</time></trkpt><trkpt lat="54.152095" lon="-2.303345"><ele>243.0</ele><time>2026-05-03T12:36:17.782Z</time></trkpt><trkpt lat="54.1520133" lon="-2.3032217"><ele>243.0</ele><time>2026-05-03T12:36:18.783Z</time></trkpt><trkpt lat="54.1519283" lon="-2.303095"><ele>243.0</ele><time>2026-05-03T12:36:19.782Z</time></trkpt><trkpt lat="54.1518333" lon="-2.30295"><ele>243.25</ele><time>2026-05-03T12:36:20.784Z</time></trkpt><trkpt lat="54.1517283" lon="-2.30279"><ele>243.5</ele><time>2026-05-03T12:36:21.783Z</time></trkpt><trkpt lat="54.1516217" lon="-2.3026283"><ele>243.75</ele><time>2026-05-03T12:36:22.783Z</time></trkpt><trkpt lat="54.1515267" lon="-2.3024817"><ele>244.0</ele><time>2026-05-03T12:36:23.783Z</time></trkpt><trkpt lat="54.1514367" lon="-2.3023483"><ele>243.39999999999998</ele><time>2026-05-03T12:36:24.783Z</time></trkpt><trkpt lat="54.1513533" lon="-2.30223"><ele>242.79999999999998</ele><time>2026-05-03T12:36:25.786Z</time></trkpt><trkpt lat="54.1512767" lon="-2.3021217"><ele>242.20000000000002</ele><time>2026-05-03T12:36:26.785Z</time></trkpt><trkpt lat="54.1512017" lon="-2.3020217"><ele>241.60000000000002</ele><time>2026-05-03T12:36:27.786Z</time></trkpt><trkpt lat="54.151125" lon="-2.3019233"><ele>241.0</ele><time>2026-05-03T12:36:28.786Z</time></trkpt><trkpt lat="54.1510467" lon="-2.3018183"><ele>241.0</ele><time>2026-05-03T12:36:29.786Z</time></trkpt><trkpt lat="54.1509667" lon="-2.3017117"><ele>241.00000000000003</ele><time>2026-05-03T12:36:30.785Z</time></trkpt><trkpt lat="54.1508917" lon="-2.3016083"><ele>241.00000000000003</ele><time>2026-05-03T12:36:31.783Z</time></trkpt><trkpt lat="54.1508167" lon="-2.3015067"><ele>241.0</ele><time>2026-05-03T12:36:32.783Z</time></trkpt><trkpt lat="54.1507483" lon="-2.3014067"><ele>241.0</ele><time>2026-05-03T12:36:33.783Z</time></trkpt><trkpt lat="54.1506767" lon="-2.3013083"><ele>240.4</ele><time>2026-05-03T12:36:34.784Z</time></trkpt><trkpt lat="54.1506033" lon="-2.3012133"><ele>239.8</ele><time>2026-05-03T12:36:35.783Z</time></trkpt><trkpt lat="54.150525" lon="-2.3011317"><ele>239.20000000000002</ele><time>2026-05-03T12:36:36.786Z</time></trkpt><trkpt lat="54.1504417" lon="-2.3010683"><ele>238.60000000000002</ele><time>2026-05-03T12:36:37.786Z</time></trkpt><trkpt lat="54.150355" lon="-2.3010183"><ele>238.0</ele><time>2026-05-03T12:36:38.787Z</time></trkpt><trkpt lat="54.1502633" lon="-2.3009717"><ele>238.0</ele><time>2026-05-03T12:36:39.788Z</time></trkpt><trkpt lat="54.1501683" lon="-2.30092"><ele>238.0</ele><time>2026-05-03T12:36:40.787Z</time></trkpt><trkpt lat="54.1500733" lon="-2.3008667"><ele>238.0</ele><time>2026-05-03T12:36:41.787Z</time></trkpt><trkpt lat="54.1499733" lon="-2.3008067"><ele>238.0</ele><time>2026-05-03T12:36:42.783Z</time></trkpt><trkpt lat="54.1498733" lon="-2.30075"><ele>238.0</ele><time>2026-05-03T12:36:43.787Z</time></trkpt><trkpt lat="54.1497683" lon="-2.3006917"><ele>238.0</ele><time>2026-05-03T12:36:44.787Z</time></trkpt><trkpt lat="54.1496667" lon="-2.3006317"><ele>238.0</ele><time>2026-05-03T12:36:45.783Z</time></trkpt><trkpt lat="54.1495667" lon="-2.3005733"><ele>238.0</ele><time>2026-05-03T12:36:46.784Z</time></trkpt><trkpt lat="54.1494683" lon="-2.30053"><ele>238.0</ele><time>2026-05-03T12:36:47.785Z</time></trkpt><trkpt lat="54.1493733" lon="-2.3004917"><ele>238.0</ele><time>2026-05-03T12:36:48.784Z</time></trkpt><trkpt lat="54.14928" lon="-2.30046"><ele>237.49999999999997</ele><time>2026-05-03T12:36:49.785Z</time></trkpt><trkpt lat="54.1491917" lon="-2.3004283"><ele>237.0</ele><time>2026-05-03T12:36:50.784Z</time></trkpt><trkpt lat="54.1491183" lon="-2.30039"><ele>236.5</ele><time>2026-05-03T12:36:51.785Z</time></trkpt><trkpt lat="54.1490583" lon="-2.30034"><ele>236.0</ele><time>2026-05-03T12:36:52.787Z</time></trkpt><trkpt lat="54.1489883" lon="-2.3001717"><ele>235.49999999999997</ele><time>2026-05-03T12:36:54.783Z</time></trkpt><trkpt lat="54.14901" lon="-2.300025"><ele>235.0</ele><time>2026-05-03T12:36:55.786Z</time></trkpt><trkpt lat="54.1490433" lon="-2.2998633"><ele>234.4</ele><time>2026-05-03T12:36:56.784Z</time></trkpt><trkpt lat="54.1490783" lon="-2.2996967"><ele>233.8</ele><time>2026-05-03T12:36:57.784Z</time></trkpt><trkpt lat="54.1491133" lon="-2.2995333"><ele>233.2</ele><time>2026-05-03T12:36:58.783Z</time></trkpt><trkpt lat="54.149155" lon="-2.29937"><ele>232.6</ele><time>2026-05-03T12:36:59.784Z</time></trkpt><trkpt lat="54.149195" lon="-2.2991983"><ele>232.0</ele><time>2026-05-03T12:37:00.785Z</time></trkpt><trkpt lat="54.14924" lon="-2.29901"><ele>231.5</ele><time>2026-05-03T12:37:01.788Z</time></trkpt><trkpt lat="54.1492917" lon="-2.2988117"><ele>231.0</ele><time>2026-05-03T12:37:02.784Z</time></trkpt><trkpt lat="54.1493367" lon="-2.2986117"><ele>230.5</ele><time>2026-05-03T12:37:03.782Z</time></trkpt><trkpt lat="54.1493767" lon="-2.2984033"><ele>230.0</ele><time>2026-05-03T12:37:04.786Z</time></trkpt><trkpt lat="54.1494183" lon="-2.29819"><ele>230.5</ele><time>2026-05-03T12:37:05.784Z</time></trkpt><trkpt lat="54.14946" lon="-2.2979817"><ele>231.0</ele><time>2026-05-03T12:37:06.787Z</time></trkpt><trkpt lat="54.149505" lon="-2.2977867"><ele>231.5</ele><time>2026-05-03T12:37:07.787Z</time></trkpt><trkpt lat="54.149545" lon="-2.2976017"><ele>232.0</ele><time>2026-05-03T12:37:08.783Z</time></trkpt><trkpt lat="54.1495817" lon="-2.2974217"><ele>232.39999999999998</ele><time>2026-05-03T12:37:09.785Z</time></trkpt><trkpt lat="54.14962" lon="-2.2972467"><ele>232.79999999999998</ele><time>2026-05-03T12:37:10.787Z</time></trkpt><trkpt lat="54.1496567" lon="-2.2970717"><ele>233.2</ele><time>2026-05-03T12:37:11.787Z</time></trkpt><trkpt lat="54.1496917" lon="-2.2968967"><ele>233.6</ele><time>2026-05-03T12:37:12.787Z</time></trkpt><trkpt lat="54.1497217" lon="-2.29673"><ele>234.0</ele><time>2026-05-03T12:37:13.785Z</time></trkpt><trkpt lat="54.1497467" lon="-2.2965917"><ele>234.0</ele><time>2026-05-03T12:37:14.787Z</time></trkpt><trkpt lat="54.1497567" lon="-2.29648"><ele>234.0</ele><time>2026-05-03T12:37:15.784Z</time></trkpt><trkpt lat="54.1497417" lon="-2.2962883"><ele>234.0</ele><time>2026-05-03T12:37:17.786Z</time></trkpt><trkpt lat="54.149685" lon="-2.2959117"><ele>234.0</ele><time>2026-05-03T12:37:20.185Z</time></trkpt><trkpt lat="54.1496467" lon="-2.2958183"><ele>234.0</ele><time>2026-05-03T12:37:24.283Z</time></trkpt><trkpt lat="54.14954" lon="-2.2957583"><ele>234.0</ele><time>2026-05-03T12:37:26.784Z</time></trkpt><trkpt lat="54.1494717" lon="-2.29577"><ele>234.0</ele><time>2026-05-03T12:37:27.958Z</time></trkpt><trkpt lat="54.1494067" lon="-2.2956983"><ele>234.0</ele><time>2026-05-03T12:37:29.147Z</time></trkpt><trkpt lat="54.1492233" lon="-2.29553"><ele>234.5</ele><time>2026-05-03T12:37:31.784Z</time></trkpt><trkpt lat="54.1490733" lon="-2.29546"><ele>235.0</ele><time>2026-05-03T12:37:32.785Z</time></trkpt><trkpt lat="54.14894" lon="-2.2953933"><ele>235.5</ele><time>2026-05-03T12:37:33.784Z</time></trkpt><trkpt lat="54.1488183" lon="-2.295325"><ele>236.0</ele><time>2026-05-03T12:37:34.786Z</time></trkpt><trkpt lat="54.1486867" lon="-2.295255"><ele>236.25</ele><time>2026-05-03T12:37:35.786Z</time></trkpt><trkpt lat="54.1485633" lon="-2.29519"><ele>236.5</ele><time>2026-05-03T12:37:36.785Z</time></trkpt><trkpt lat="54.148445" lon="-2.2951167"><ele>236.75</ele><time>2026-05-03T12:37:37.786Z</time></trkpt><trkpt lat="54.1483317" lon="-2.2950383"><ele>237.0</ele><time>2026-05-03T12:37:38.789Z</time></trkpt><trkpt lat="54.1482167" lon="-2.2949517"><ele>237.25</ele><time>2026-05-03T12:37:39.785Z</time></trkpt><trkpt lat="54.1481083" lon="-2.29486"><ele>237.5</ele><time>2026-05-03T12:37:40.786Z</time></trkpt><trkpt lat="54.148" lon="-2.2947633"><ele>237.75</ele><time>2026-05-03T12:37:41.785Z</time></trkpt><trkpt lat="54.1478917" lon="-2.2946583"><ele>238.0</ele><time>2026-05-03T12:37:42.785Z</time></trkpt><trkpt lat="54.1477883" lon="-2.2945583"><ele>238.0</ele><time>2026-05-03T12:37:43.786Z</time></trkpt><trkpt lat="54.1476867" lon="-2.2944533"><ele>238.0</ele><time>2026-05-03T12:37:44.786Z</time></trkpt><trkpt lat="54.1475767" lon="-2.2943433"><ele>238.0</ele><time>2026-05-03T12:37:45.785Z</time></trkpt><trkpt lat="54.147465" lon="-2.29424"><ele>238.0</ele><time>2026-05-03T12:37:46.785Z</time></trkpt><trkpt lat="54.14735" lon="-2.2941383"><ele>238.0</ele><time>2026-05-03T12:37:47.786Z</time></trkpt><trkpt lat="54.1472383" lon="-2.2940367"><ele>238.0</ele><time>2026-05-03T12:37:48.785Z</time></trkpt><trkpt lat="54.147125" lon="-2.2939383"><ele>238.0</ele><time>2026-05-03T12:37:49.784Z</time></trkpt><trkpt lat="54.1470067" lon="-2.2938467"><ele>238.0</ele><time>2026-05-03T12:37:50.785Z</time></trkpt><trkpt lat="54.146885" lon="-2.2937667"><ele>237.75</ele><time>2026-05-03T12:37:51.787Z</time></trkpt><trkpt lat="54.14676" lon="-2.293695"><ele>237.5</ele><time>2026-05-03T12:37:52.785Z</time></trkpt><trkpt lat="54.1466317" lon="-2.2936333"><ele>237.25</ele><time>2026-05-03T12:37:53.786Z</time></trkpt><trkpt lat="54.1465033" lon="-2.29357"><ele>237.0</ele><time>2026-05-03T12:37:54.786Z</time></trkpt><trkpt lat="54.1463717" lon="-2.2935117"><ele>237.0</ele><time>2026-05-03T12:37:55.786Z</time></trkpt><trkpt lat="54.1462367" lon="-2.2934517"><ele>237.0</ele><time>2026-05-03T12:37:56.784Z</time></trkpt><trkpt lat="54.146105" lon="-2.293385"><ele>237.0</ele><time>2026-05-03T12:37:57.785Z</time></trkpt><trkpt lat="54.1459717" lon="-2.2933167"><ele>237.0</ele><time>2026-05-03T12:37:58.785Z</time></trkpt><trkpt lat="54.14584" lon="-2.2932517"><ele>237.0</ele><time>2026-05-03T12:37:59.786Z</time></trkpt><trkpt lat="54.1457083" lon="-2.293185"><ele>237.0</ele><time>2026-05-03T12:38:00.785Z</time></trkpt><trkpt lat="54.1455783" lon="-2.2931167"><ele>237.0</ele><time>2026-05-03T12:38:01.786Z</time></trkpt><trkpt lat="54.1454483" lon="-2.2930517"><ele>237.0</ele><time>2026-05-03T12:38:02.786Z</time></trkpt><trkpt lat="54.14532" lon="-2.292995"><ele>237.0</ele><time>2026-05-03T12:38:03.786Z</time></trkpt><trkpt lat="54.1451933" lon="-2.2929533"><ele>237.0</ele><time>2026-05-03T12:38:04.786Z</time></trkpt><trkpt lat="54.1450683" lon="-2.2929217"><ele>237.0</ele><time>2026-05-03T12:38:05.785Z</time></trkpt><trkpt lat="54.1449467" lon="-2.292895"><ele>237.0</ele><time>2026-05-03T12:38:06.784Z</time></trkpt><trkpt lat="54.1448267" lon="-2.29287"><ele>236.8</ele><time>2026-05-03T12:38:07.786Z</time></trkpt><trkpt lat="54.144715" lon="-2.29284"><ele>236.6</ele><time>2026-05-03T12:38:08.785Z</time></trkpt><trkpt lat="54.1446133" lon="-2.292815"><ele>236.40000000000003</ele><time>2026-05-03T12:38:09.785Z</time></trkpt><trkpt lat="54.144515" lon="-2.2927933"><ele>236.20000000000002</ele><time>2026-05-03T12:38:10.785Z</time></trkpt><trkpt lat="54.1444183" lon="-2.2927683"><ele>236.0</ele><time>2026-05-03T12:38:11.785Z</time></trkpt><trkpt lat="54.144335" lon="-2.29274"><ele>236.0</ele><time>2026-05-03T12:38:12.785Z</time></trkpt><trkpt lat="54.1442667" lon="-2.2926917"><ele>236.0</ele><time>2026-05-03T12:38:13.785Z</time></trkpt><trkpt lat="54.14421" lon="-2.29262"><ele>236.0</ele><time>2026-05-03T12:38:14.786Z</time></trkpt><trkpt lat="54.144175" lon="-2.2925267"><ele>236.0</ele><time>2026-05-03T12:38:15.786Z</time></trkpt><trkpt lat="54.14415" lon="-2.29241"><ele>236.0</ele><time>2026-05-03T12:38:16.786Z</time></trkpt><trkpt lat="54.1441333" lon="-2.2922933"><ele>236.0</ele><time>2026-05-03T12:38:17.786Z</time></trkpt><trkpt lat="54.1441283" lon="-2.2921417"><ele>236.0</ele><time>2026-05-03T12:38:18.786Z</time></trkpt><trkpt lat="54.144125" lon="-2.2919783"><ele>235.8</ele><time>2026-05-03T12:38:19.787Z</time></trkpt><trkpt lat="54.14412" lon="-2.2918067"><ele>235.60000000000002</ele><time>2026-05-03T12:38:20.786Z</time></trkpt><trkpt lat="54.1441133" lon="-2.29163"><ele>235.4</ele><time>2026-05-03T12:38:21.785Z</time></trkpt><trkpt lat="54.1441083" lon="-2.291445"><ele>235.2</ele><time>2026-05-03T12:38:22.785Z</time></trkpt><trkpt lat="54.1440967" lon="-2.29126"><ele>235.0</ele><time>2026-05-03T12:38:23.785Z</time></trkpt><trkpt lat="54.1440817" lon="-2.2910767"><ele>234.8</ele><time>2026-05-03T12:38:24.786Z</time></trkpt><trkpt lat="54.1440533" lon="-2.2909033"><ele>234.6</ele><time>2026-05-03T12:38:25.786Z</time></trkpt><trkpt lat="54.1440183" lon="-2.290725"><ele>234.39999999999998</ele><time>2026-05-03T12:38:26.786Z</time></trkpt><trkpt lat="54.143975" lon="-2.2905467"><ele>234.2</ele><time>2026-05-03T12:38:27.786Z</time></trkpt><trkpt lat="54.14392" lon="-2.2903667"><ele>234.0</ele><time>2026-05-03T12:38:28.786Z</time></trkpt><trkpt lat="54.143855" lon="-2.2901983"><ele>234.0</ele><time>2026-05-03T12:38:29.785Z</time></trkpt><trkpt lat="54.1437783" lon="-2.29004"><ele>234.0</ele><time>2026-05-03T12:38:30.787Z</time></trkpt><trkpt lat="54.1436933" lon="-2.2898967"><ele>234.0</ele><time>2026-05-03T12:38:31.787Z</time></trkpt><trkpt lat="54.1435983" lon="-2.2897617"><ele>234.0</ele><time>2026-05-03T12:38:32.786Z</time></trkpt><trkpt lat="54.1434933" lon="-2.2896317"><ele>234.25</ele><time>2026-05-03T12:38:33.786Z</time></trkpt><trkpt lat="54.1433883" lon="-2.289495"><ele>234.5</ele><time>2026-05-03T12:38:34.786Z</time></trkpt><trkpt lat="54.1432833" lon="-2.2893483"><ele>234.75</ele><time>2026-05-03T12:38:35.786Z</time></trkpt><trkpt lat="54.1431767" lon="-2.289205"><ele>235.0</ele><time>2026-05-03T12:38:36.786Z</time></trkpt><trkpt lat="54.1430667" lon="-2.289065"><ele>234.75</ele><time>2026-05-03T12:38:37.786Z</time></trkpt><trkpt lat="54.14295" lon="-2.2889267"><ele>234.5</ele><time>2026-05-03T12:38:38.785Z</time></trkpt><trkpt lat="54.1428217" lon="-2.2887917"><ele>234.25</ele><time>2026-05-03T12:38:39.786Z</time></trkpt><trkpt lat="54.14269" lon="-2.2886567"><ele>234.0</ele><time>2026-05-03T12:38:40.786Z</time></trkpt><trkpt lat="54.1425433" lon="-2.2885267"><ele>233.66666666666669</ele><time>2026-05-03T12:38:41.786Z</time></trkpt><trkpt lat="54.14238" lon="-2.2883967"><ele>233.33333333333334</ele><time>2026-05-03T12:38:42.788Z</time></trkpt><trkpt lat="54.1422033" lon="-2.2882683"><ele>233.0</ele><time>2026-05-03T12:38:43.786Z</time></trkpt><trkpt lat="54.1420117" lon="-2.2881483"><ele>233.33333333333334</ele><time>2026-05-03T12:38:44.787Z</time></trkpt><trkpt lat="54.1418133" lon="-2.288045"><ele>233.66666666666669</ele><time>2026-05-03T12:38:45.786Z</time></trkpt><trkpt lat="54.14161" lon="-2.287955"><ele>234.0</ele><time>2026-05-03T12:38:46.787Z</time></trkpt><trkpt lat="54.1414033" lon="-2.2878767"><ele>234.0</ele><time>2026-05-03T12:38:47.783Z</time></trkpt><trkpt lat="54.1411917" lon="-2.2878117"><ele>234.0</ele><time>2026-05-03T12:38:48.784Z</time></trkpt><trkpt lat="54.1409683" lon="-2.28775"><ele>234.0</ele><time>2026-05-03T12:38:49.789Z</time></trkpt><trkpt lat="54.1407367" lon="-2.287695"><ele>234.0</ele><time>2026-05-03T12:38:50.784Z</time></trkpt><trkpt lat="54.1404983" lon="-2.2876433"><ele>234.0</ele><time>2026-05-03T12:38:51.787Z</time></trkpt><trkpt lat="54.1402533" lon="-2.2875833"><ele>234.0</ele><time>2026-05-03T12:38:52.787Z</time></trkpt><trkpt lat="54.14001" lon="-2.2875167"><ele>234.0</ele><time>2026-05-03T12:38:53.784Z</time></trkpt><trkpt lat="54.139765" lon="-2.287445"><ele>233.5</ele><time>2026-05-03T12:38:54.783Z</time></trkpt><trkpt lat="54.1395233" lon="-2.2873717"><ele>233.0</ele><time>2026-05-03T12:38:55.785Z</time></trkpt><trkpt lat="54.1392817" lon="-2.287295"><ele>232.0</ele><time>2026-05-03T12:38:56.783Z</time></trkpt><trkpt lat="54.1390433" lon="-2.2872133"><ele>231.0</ele><time>2026-05-03T12:38:57.785Z</time></trkpt><trkpt lat="54.13881" lon="-2.287125"><ele>231.0</ele><time>2026-05-03T12:38:58.784Z</time></trkpt><trkpt lat="54.138575" lon="-2.287035"><ele>231.0</ele><time>2026-05-03T12:38:59.784Z</time></trkpt><trkpt lat="54.13834" lon="-2.286945"><ele>229.5</ele><time>2026-05-03T12:39:00.787Z</time></trkpt><trkpt lat="54.1381067" lon="-2.286855"><ele>228.0</ele><time>2026-05-03T12:39:01.785Z</time></trkpt><trkpt lat="54.1378733" lon="-2.2867633"><ele>228.0</ele><time>2026-05-03T12:39:02.783Z</time></trkpt><trkpt lat="54.1376433" lon="-2.286675"><ele>228.0</ele><time>2026-05-03T12:39:03.782Z</time></trkpt><trkpt lat="54.1374133" lon="-2.2865967"><ele>227.5</ele><time>2026-05-03T12:39:04.784Z</time></trkpt><trkpt lat="54.1371867" lon="-2.2865283"><ele>227.0</ele><time>2026-05-03T12:39:05.783Z</time></trkpt><trkpt lat="54.13696" lon="-2.28648"><ele>227.0</ele><time>2026-05-03T12:39:06.787Z</time></trkpt><trkpt lat="54.1367383" lon="-2.28645"><ele>227.0</ele><time>2026-05-03T12:39:07.784Z</time></trkpt><trkpt lat="54.1365267" lon="-2.2864317"><ele>227.0</ele><time>2026-05-03T12:39:08.784Z</time></trkpt><trkpt lat="54.1363183" lon="-2.2864183"><ele>227.33333333333334</ele><time>2026-05-03T12:39:09.784Z</time></trkpt><trkpt lat="54.1361033" lon="-2.2864117"><ele>227.66666666666669</ele><time>2026-05-03T12:39:10.787Z</time></trkpt><trkpt lat="54.1358783" lon="-2.2864117"><ele>228.0</ele><time>2026-05-03T12:39:11.784Z</time></trkpt><trkpt lat="54.1356433" lon="-2.2864283"><ele>228.0</ele><time>2026-05-03T12:39:12.783Z</time></trkpt><trkpt lat="54.1354083" lon="-2.286465"><ele>228.0</ele><time>2026-05-03T12:39:13.785Z</time></trkpt><trkpt lat="54.13517" lon="-2.2865183"><ele>228.0</ele><time>2026-05-03T12:39:14.783Z</time></trkpt><trkpt lat="54.1349283" lon="-2.286585"><ele>228.0</ele><time>2026-05-03T12:39:15.783Z</time></trkpt><trkpt lat="54.1346917" lon="-2.2866533"><ele>228.5</ele><time>2026-05-03T12:39:16.784Z</time></trkpt><trkpt lat="54.1344583" lon="-2.28672"><ele>229.0</ele><time>2026-05-03T12:39:17.784Z</time></trkpt><trkpt lat="54.1342317" lon="-2.286795"><ele>230.5</ele><time>2026-05-03T12:39:18.784Z</time></trkpt><trkpt lat="54.1340117" lon="-2.2869"><ele>232.0</ele><time>2026-05-03T12:39:19.785Z</time></trkpt><trkpt lat="54.13379" lon="-2.287045"><ele>232.0</ele><time>2026-05-03T12:39:20.783Z</time></trkpt><trkpt lat="54.1335683" lon="-2.2872267"><ele>232.0</ele><time>2026-05-03T12:39:21.782Z</time></trkpt><trkpt lat="54.13335" lon="-2.287445"><ele>229.5</ele><time>2026-05-03T12:39:22.784Z</time></trkpt><trkpt lat="54.1331433" lon="-2.2876883"><ele>227.0</ele><time>2026-05-03T12:39:23.784Z</time></trkpt><trkpt lat="54.1329483" lon="-2.2879317"><ele>225.66666666666669</ele><time>2026-05-03T12:39:24.783Z</time></trkpt><trkpt lat="54.1327567" lon="-2.288135"><ele>224.33333333333331</ele><time>2026-05-03T12:39:25.784Z</time></trkpt><trkpt lat="54.132555" lon="-2.2882933"><ele>223.0</ele><time>2026-05-03T12:39:26.782Z</time></trkpt><trkpt lat="54.1323383" lon="-2.2884017"><ele>222.5</ele><time>2026-05-03T12:39:27.784Z</time></trkpt><trkpt lat="54.1321017" lon="-2.2884483"><ele>222.0</ele><time>2026-05-03T12:39:28.783Z</time></trkpt><trkpt lat="54.13185" lon="-2.2884217"><ele>222.0</ele><time>2026-05-03T12:39:29.784Z</time></trkpt><trkpt lat="54.1315917" lon="-2.288375"><ele>222.0</ele><time>2026-05-03T12:39:30.782Z</time></trkpt><trkpt lat="54.1313283" lon="-2.2883233"><ele>222.0</ele><time>2026-05-03T12:39:31.784Z</time></trkpt><trkpt lat="54.13107" lon="-2.288275"><ele>222.0</ele><time>2026-05-03T12:39:32.785Z</time></trkpt><trkpt lat="54.1308183" lon="-2.288225"><ele>222.5</ele><time>2026-05-03T12:39:33.783Z</time></trkpt><trkpt lat="54.1305667" lon="-2.2881817"><ele>223.0</ele><time>2026-05-03T12:39:34.786Z</time></trkpt><trkpt lat="54.1303117" lon="-2.2881517"><ele>223.0</ele><time>2026-05-03T12:39:35.782Z</time></trkpt><trkpt lat="54.1300567" lon="-2.2881517"><ele>223.0</ele><time>2026-05-03T12:39:36.783Z</time></trkpt><trkpt lat="54.1298067" lon="-2.2881933"><ele>223.5</ele><time>2026-05-03T12:39:37.785Z</time></trkpt><trkpt lat="54.1295683" lon="-2.2882617"><ele>224.0</ele><time>2026-05-03T12:39:38.783Z</time></trkpt><trkpt lat="54.12934" lon="-2.28833"><ele>224.0</ele><time>2026-05-03T12:39:39.784Z</time></trkpt><trkpt lat="54.1291217" lon="-2.2883733"><ele>224.0</ele><time>2026-05-03T12:39:40.785Z</time></trkpt><trkpt lat="54.1289" lon="-2.2883667"><ele>224.0</ele><time>2026-05-03T12:39:41.785Z</time></trkpt><trkpt lat="54.1286767" lon="-2.2883133"><ele>225.5</ele><time>2026-05-03T12:39:42.784Z</time></trkpt><trkpt lat="54.1284683" lon="-2.2881717"><ele>227.0</ele><time>2026-05-03T12:39:43.784Z</time></trkpt><trkpt lat="54.12827" lon="-2.2879333"><ele>228.5</ele><time>2026-05-03T12:39:44.784Z</time></trkpt><trkpt lat="54.1280717" lon="-2.2876917"><ele>230.0</ele><time>2026-05-03T12:39:45.784Z</time></trkpt><trkpt lat="54.12787" lon="-2.2874767"><ele>230.0</ele><time>2026-05-03T12:39:46.784Z</time></trkpt><trkpt lat="54.1276717" lon="-2.2872783"><ele>230.0</ele><time>2026-05-03T12:39:47.783Z</time></trkpt><trkpt lat="54.1274717" lon="-2.287095"><ele>233.0</ele><time>2026-05-03T12:39:48.784Z</time></trkpt><trkpt lat="54.1272683" lon="-2.28693"><ele>236.0</ele><time>2026-05-03T12:39:49.785Z</time></trkpt><trkpt lat="54.1270633" lon="-2.2867817"><ele>239.0</ele><time>2026-05-03T12:39:50.784Z</time></trkpt><trkpt lat="54.126865" lon="-2.2866567"><ele>239.0</ele><time>2026-05-03T12:39:51.784Z</time></trkpt><trkpt lat="54.1266783" lon="-2.2865583"><ele>239.0</ele><time>2026-05-03T12:39:52.783Z</time></trkpt><trkpt lat="54.1264967" lon="-2.2864817"><ele>239.0</ele><time>2026-05-03T12:39:53.784Z</time></trkpt><trkpt lat="54.1263183" lon="-2.2864317"><ele>241.66666666666669</ele><time>2026-05-03T12:39:54.785Z</time></trkpt><trkpt lat="54.126155" lon="-2.28637"><ele>244.33333333333331</ele><time>2026-05-03T12:39:55.783Z</time></trkpt><trkpt lat="54.12599" lon="-2.2863167"><ele>247.0</ele><time>2026-05-03T12:39:56.783Z</time></trkpt><trkpt lat="54.1258283" lon="-2.286255"><ele>243.66666666666666</ele><time>2026-05-03T12:39:57.784Z</time></trkpt><trkpt lat="54.12566" lon="-2.286195"><ele>240.33333333333331</ele><time>2026-05-03T12:39:58.786Z</time></trkpt><trkpt lat="54.1254783" lon="-2.286135"><ele>237.0</ele><time>2026-05-03T12:39:59.785Z</time></trkpt><trkpt lat="54.1252917" lon="-2.28607"><ele>237.0</ele><time>2026-05-03T12:40:00.784Z</time></trkpt><trkpt lat="54.125105" lon="-2.286"><ele>237.0</ele><time>2026-05-03T12:40:01.785Z</time></trkpt><trkpt lat="54.1249217" lon="-2.2859367"><ele>237.0</ele><time>2026-05-03T12:40:02.784Z</time></trkpt><trkpt lat="54.1247367" lon="-2.2858883"><ele>236.33333333333331</ele><time>2026-05-03T12:40:03.783Z</time></trkpt><trkpt lat="54.1245533" lon="-2.2858667"><ele>235.66666666666666</ele><time>2026-05-03T12:40:04.783Z</time></trkpt><trkpt lat="54.1243667" lon="-2.2858767"><ele>235.0</ele><time>2026-05-03T12:40:05.783Z</time></trkpt><trkpt lat="54.124185" lon="-2.2859133"><ele>236.0</ele><time>2026-05-03T12:40:06.784Z</time></trkpt><trkpt lat="54.1240067" lon="-2.2859683"><ele>237.0</ele><time>2026-05-03T12:40:07.784Z</time></trkpt><trkpt lat="54.1238333" lon="-2.286025"><ele>238.0</ele><time>2026-05-03T12:40:08.782Z</time></trkpt><trkpt lat="54.1236633" lon="-2.2860817"><ele>238.0</ele><time>2026-05-03T12:40:09.784Z</time></trkpt><trkpt lat="54.1234867" lon="-2.28613"><ele>238.0</ele><time>2026-05-03T12:40:10.784Z</time></trkpt><trkpt lat="54.1233033" lon="-2.2861517"><ele>238.0</ele><time>2026-05-03T12:40:11.784Z</time></trkpt><trkpt lat="54.1231233" lon="-2.28614"><ele>237.0</ele><time>2026-05-03T12:40:12.787Z</time></trkpt><trkpt lat="54.12295" lon="-2.286105"><ele>236.0</ele><time>2026-05-03T12:40:13.785Z</time></trkpt><trkpt lat="54.1227817" lon="-2.286065"><ele>235.0</ele><time>2026-05-03T12:40:14.783Z</time></trkpt><trkpt lat="54.1226233" lon="-2.2860317"><ele>235.0</ele><time>2026-05-03T12:40:15.783Z</time></trkpt><trkpt lat="54.1224733" lon="-2.2860033"><ele>235.0</ele><time>2026-05-03T12:40:16.784Z</time></trkpt><trkpt lat="54.1223267" lon="-2.28598"><ele>235.0</ele><time>2026-05-03T12:40:17.784Z</time></trkpt><trkpt lat="54.1221767" lon="-2.2859667"><ele>235.0</ele><time>2026-05-03T12:40:18.783Z</time></trkpt><trkpt lat="54.1220267" lon="-2.2859767"><ele>234.75</ele><time>2026-05-03T12:40:19.784Z</time></trkpt><trkpt lat="54.1218817" lon="-2.28602"><ele>234.5</ele><time>2026-05-03T12:40:20.782Z</time></trkpt><trkpt lat="54.1217517" lon="-2.28609"><ele>234.25</ele><time>2026-05-03T12:40:21.784Z</time></trkpt><trkpt lat="54.1216283" lon="-2.28618"><ele>234.0</ele><time>2026-05-03T12:40:22.783Z</time></trkpt><trkpt lat="54.121515" lon="-2.2862933"><ele>232.0</ele><time>2026-05-03T12:40:23.784Z</time></trkpt><trkpt lat="54.121405" lon="-2.2864283"><ele>230.0</ele><time>2026-05-03T12:40:24.783Z</time></trkpt><trkpt lat="54.12131" lon="-2.28659"><ele>228.0</ele><time>2026-05-03T12:40:25.783Z</time></trkpt><trkpt lat="54.1212333" lon="-2.2867767"><ele>226.0</ele><time>2026-05-03T12:40:26.783Z</time></trkpt><trkpt lat="54.121165" lon="-2.2869833"><ele>226.0</ele><time>2026-05-03T12:40:27.783Z</time></trkpt><trkpt lat="54.1211033" lon="-2.2871783"><ele>226.00000000000003</ele><time>2026-05-03T12:40:28.783Z</time></trkpt><trkpt lat="54.1210567" lon="-2.28733"><ele>226.00000000000003</ele><time>2026-05-03T12:40:29.783Z</time></trkpt><trkpt lat="54.1210217" lon="-2.2874367"><ele>226.0</ele><time>2026-05-03T12:40:30.783Z</time></trkpt><trkpt lat="54.1209633" lon="-2.2876"><ele>226.0</ele><time>2026-05-03T12:40:32.787Z</time></trkpt><trkpt lat="54.120915" lon="-2.2876767"><ele>225.4</ele><time>2026-05-03T12:40:33.783Z</time></trkpt><trkpt lat="54.120855" lon="-2.2877383"><ele>224.8</ele><time>2026-05-03T12:40:34.785Z</time></trkpt><trkpt lat="54.1207767" lon="-2.287775"><ele>224.20000000000002</ele><time>2026-05-03T12:40:35.786Z</time></trkpt><trkpt lat="54.1206833" lon="-2.287765"><ele>223.60000000000002</ele><time>2026-05-03T12:40:36.785Z</time></trkpt><trkpt lat="54.1205583" lon="-2.2876933"><ele>223.0</ele><time>2026-05-03T12:40:37.786Z</time></trkpt><trkpt lat="54.1204067" lon="-2.2876083"><ele>223.0</ele><time>2026-05-03T12:40:38.786Z</time></trkpt><trkpt lat="54.1202533" lon="-2.28753"><ele>223.0</ele><time>2026-05-03T12:40:39.786Z</time></trkpt><trkpt lat="54.1200817" lon="-2.2874483"><ele>223.0</ele><time>2026-05-03T12:40:40.787Z</time></trkpt><trkpt lat="54.119895" lon="-2.2873483"><ele>225.66666666666666</ele><time>2026-05-03T12:40:41.787Z</time></trkpt><trkpt lat="54.1196983" lon="-2.287215"><ele>228.33333333333331</ele><time>2026-05-03T12:40:42.787Z</time></trkpt><trkpt lat="54.119495" lon="-2.2870533"><ele>231.0</ele><time>2026-05-03T12:40:43.787Z</time></trkpt><trkpt lat="54.1192917" lon="-2.2868817"><ele>231.0</ele><time>2026-05-03T12:40:44.787Z</time></trkpt><trkpt lat="54.11909" lon="-2.286715"><ele>231.0</ele><time>2026-05-03T12:40:45.784Z</time></trkpt><trkpt lat="54.1188817" lon="-2.286555"><ele>234.0</ele><time>2026-05-03T12:40:46.785Z</time></trkpt><trkpt lat="54.1186717" lon="-2.2864117"><ele>237.0</ele><time>2026-05-03T12:40:47.785Z</time></trkpt><trkpt lat="54.1184617" lon="-2.2862933"><ele>240.0</ele><time>2026-05-03T12:40:48.784Z</time></trkpt><trkpt lat="54.118255" lon="-2.2861983"><ele>240.0</ele><time>2026-05-03T12:40:49.786Z</time></trkpt><trkpt lat="54.1180433" lon="-2.2861333"><ele>240.0</ele><time>2026-05-03T12:40:50.786Z</time></trkpt><trkpt lat="54.1178283" lon="-2.2860983"><ele>240.0</ele><time>2026-05-03T12:40:51.786Z</time></trkpt><trkpt lat="54.1176183" lon="-2.28608"><ele>240.0</ele><time>2026-05-03T12:40:52.785Z</time></trkpt><trkpt lat="54.117425" lon="-2.2860917"><ele>240.0</ele><time>2026-05-03T12:40:53.786Z</time></trkpt><trkpt lat="54.1172417" lon="-2.2861167"><ele>240.0</ele><time>2026-05-03T12:40:54.785Z</time></trkpt><trkpt lat="54.1170633" lon="-2.2861717"><ele>240.66666666666669</ele><time>2026-05-03T12:40:55.786Z</time></trkpt><trkpt lat="54.11689" lon="-2.2862667"><ele>241.33333333333334</ele><time>2026-05-03T12:40:56.786Z</time></trkpt><trkpt lat="54.116735" lon="-2.2864067"><ele>242.0</ele><time>2026-05-03T12:40:57.787Z</time></trkpt><trkpt lat="54.11661" lon="-2.2865883"><ele>240.75</ele><time>2026-05-03T12:40:58.784Z</time></trkpt><trkpt lat="54.11651" lon="-2.286775"><ele>239.5</ele><time>2026-05-03T12:40:59.786Z</time></trkpt><trkpt lat="54.1164183" lon="-2.2869517"><ele>238.25</ele><time>2026-05-03T12:41:00.786Z</time></trkpt><trkpt lat="54.1163183" lon="-2.2870983"><ele>237.0</ele><time>2026-05-03T12:41:01.786Z</time></trkpt><trkpt lat="54.116215" lon="-2.2872083"><ele>235.75</ele><time>2026-05-03T12:41:02.784Z</time></trkpt><trkpt lat="54.1161017" lon="-2.2872883"><ele>234.5</ele><time>2026-05-03T12:41:03.785Z</time></trkpt><trkpt lat="54.115965" lon="-2.287335"><ele>233.25</ele><time>2026-05-03T12:41:04.784Z</time></trkpt><trkpt lat="54.1158033" lon="-2.287355"><ele>232.0</ele><time>2026-05-03T12:41:05.787Z</time></trkpt><trkpt lat="54.11561" lon="-2.2873533"><ele>229.5</ele><time>2026-05-03T12:41:06.788Z</time></trkpt><trkpt lat="54.1153867" lon="-2.2873333"><ele>227.0</ele><time>2026-05-03T12:41:07.785Z</time></trkpt><trkpt lat="54.11516" lon="-2.2873033"><ele>227.0</ele><time>2026-05-03T12:41:08.784Z</time></trkpt><trkpt lat="54.114935" lon="-2.2872567"><ele>227.0</ele><time>2026-05-03T12:41:09.784Z</time></trkpt><trkpt lat="54.1147133" lon="-2.287215"><ele>227.0</ele><time>2026-05-03T12:41:10.786Z</time></trkpt><trkpt lat="54.1145067" lon="-2.2871833"><ele>227.0</ele><time>2026-05-03T12:41:11.784Z</time></trkpt><trkpt lat="54.1143183" lon="-2.287155"><ele>227.0</ele><time>2026-05-03T12:41:12.785Z</time></trkpt><trkpt lat="54.11415" lon="-2.2871067"><ele>224.33333333333334</ele><time>2026-05-03T12:41:13.786Z</time></trkpt><trkpt lat="54.1139867" lon="-2.28701"><ele>221.66666666666669</ele><time>2026-05-03T12:41:14.784Z</time></trkpt><trkpt lat="54.11384" lon="-2.2868567"><ele>219.0</ele><time>2026-05-03T12:41:15.784Z</time></trkpt><trkpt lat="54.1137083" lon="-2.2866733"><ele>219.0</ele><time>2026-05-03T12:41:16.785Z</time></trkpt><trkpt lat="54.1135983" lon="-2.286445"><ele>219.0</ele><time>2026-05-03T12:41:17.785Z</time></trkpt><trkpt lat="54.113515" lon="-2.2861583"><ele>219.0</ele><time>2026-05-03T12:41:18.785Z</time></trkpt><trkpt lat="54.1134117" lon="-2.285855"><ele>217.0</ele><time>2026-05-03T12:41:19.786Z</time></trkpt><trkpt lat="54.113295" lon="-2.285545"><ele>215.0</ele><time>2026-05-03T12:41:20.784Z</time></trkpt><trkpt lat="54.1131617" lon="-2.2852333"><ele>213.0</ele><time>2026-05-03T12:41:21.786Z</time></trkpt><trkpt lat="54.1130367" lon="-2.284925"><ele>215.66666666666669</ele><time>2026-05-03T12:41:22.783Z</time></trkpt><trkpt lat="54.1129217" lon="-2.2846333"><ele>218.33333333333334</ele><time>2026-05-03T12:41:23.785Z</time></trkpt><trkpt lat="54.1128117" lon="-2.2843667"><ele>221.0</ele><time>2026-05-03T12:41:24.785Z</time></trkpt><trkpt lat="54.1126983" lon="-2.2841317"><ele>221.0</ele><time>2026-05-03T12:41:25.785Z</time></trkpt><trkpt lat="54.11256" lon="-2.2839417"><ele>221.0</ele><time>2026-05-03T12:41:26.786Z</time></trkpt><trkpt lat="54.1123917" lon="-2.2837867"><ele>221.0</ele><time>2026-05-03T12:41:27.784Z</time></trkpt><trkpt lat="54.112175" lon="-2.283645"><ele>222.0</ele><time>2026-05-03T12:41:28.787Z</time></trkpt><trkpt lat="54.1119183" lon="-2.2835517"><ele>223.0</ele><time>2026-05-03T12:41:29.783Z</time></trkpt><trkpt lat="54.1116467" lon="-2.2834567"><ele>224.0</ele><time>2026-05-03T12:41:30.784Z</time></trkpt><trkpt lat="54.11136" lon="-2.283375"><ele>225.0</ele><time>2026-05-03T12:41:31.783Z</time></trkpt><trkpt lat="54.1110817" lon="-2.2832967"><ele>225.0</ele><time>2026-05-03T12:41:32.783Z</time></trkpt><trkpt lat="54.1108083" lon="-2.2832133"><ele>225.0</ele><time>2026-05-03T12:41:33.784Z</time></trkpt><trkpt lat="54.1105567" lon="-2.2831133"><ele>230.66666666666669</ele><time>2026-05-03T12:41:34.784Z</time></trkpt><trkpt lat="54.1103383" lon="-2.2830033"><ele>236.33333333333334</ele><time>2026-05-03T12:41:35.784Z</time></trkpt><trkpt lat="54.110145" lon="-2.2829"><ele>242.0</ele><time>2026-05-03T12:41:36.785Z</time></trkpt><trkpt lat="54.1099733" lon="-2.2827983"><ele>240.0</ele><time>2026-05-03T12:41:37.785Z</time></trkpt><trkpt lat="54.1098067" lon="-2.28269"><ele>238.0</ele><time>2026-05-03T12:41:38.783Z</time></trkpt><trkpt lat="54.1096333" lon="-2.2825683"><ele>236.0</ele><time>2026-05-03T12:41:39.784Z</time></trkpt><trkpt lat="54.1094567" lon="-2.2824417"><ele>236.0</ele><time>2026-05-03T12:41:40.783Z</time></trkpt><trkpt lat="54.109275" lon="-2.282335"><ele>236.0</ele><time>2026-05-03T12:41:41.784Z</time></trkpt><trkpt lat="54.10909" lon="-2.2822367"><ele>236.0</ele><time>2026-05-03T12:41:42.782Z</time></trkpt><trkpt lat="54.1089017" lon="-2.2821383"><ele>235.0</ele><time>2026-05-03T12:41:43.786Z</time></trkpt><trkpt lat="54.1087" lon="-2.2820417"><ele>234.0</ele><time>2026-05-03T12:41:44.788Z</time></trkpt><trkpt lat="54.1084783" lon="-2.2819583"><ele>233.0</ele><time>2026-05-03T12:41:45.783Z</time></trkpt><trkpt lat="54.1082433" lon="-2.28189"><ele>227.5</ele><time>2026-05-03T12:41:46.783Z</time></trkpt><trkpt lat="54.1080033" lon="-2.2818333"><ele>222.0</ele><time>2026-05-03T12:41:47.784Z</time></trkpt><trkpt lat="54.1077567" lon="-2.2817867"><ele>222.0</ele><time>2026-05-03T12:41:48.783Z</time></trkpt><trkpt lat="54.107515" lon="-2.2817367"><ele>222.0</ele><time>2026-05-03T12:41:49.787Z</time></trkpt><trkpt lat="54.1072783" lon="-2.2816867"><ele>217.5</ele><time>2026-05-03T12:41:50.783Z</time></trkpt><trkpt lat="54.1070367" lon="-2.2816233"><ele>213.0</ele><time>2026-05-03T12:41:51.785Z</time></trkpt><trkpt lat="54.106795" lon="-2.28153"><ele>212.0</ele><time>2026-05-03T12:41:52.783Z</time></trkpt><trkpt lat="54.1065467" lon="-2.2813983"><ele>211.0</ele><time>2026-05-03T12:41:53.784Z</time></trkpt><trkpt lat="54.10629" lon="-2.281245"><ele>211.0</ele><time>2026-05-03T12:41:54.784Z</time></trkpt><trkpt lat="54.10603" lon="-2.281085"><ele>211.0</ele><time>2026-05-03T12:41:55.784Z</time></trkpt><trkpt lat="54.1057733" lon="-2.2809233"><ele>207.5</ele><time>2026-05-03T12:41:56.784Z</time></trkpt><trkpt lat="54.1055167" lon="-2.2807667"><ele>204.0</ele><time>2026-05-03T12:41:57.783Z</time></trkpt><trkpt lat="54.1052733" lon="-2.280605"><ele>204.0</ele><time>2026-05-03T12:41:58.782Z</time></trkpt><trkpt lat="54.1050317" lon="-2.28044"><ele>204.0</ele><time>2026-05-03T12:41:59.784Z</time></trkpt><trkpt lat="54.1047917" lon="-2.28028"><ele>204.0</ele><time>2026-05-03T12:42:00.783Z</time></trkpt><trkpt lat="54.1045517" lon="-2.2801283"><ele>204.0</ele><time>2026-05-03T12:42:01.786Z</time></trkpt><trkpt lat="54.104315" lon="-2.27998"><ele>203.0</ele><time>2026-05-03T12:42:02.783Z</time></trkpt><trkpt lat="54.1040783" lon="-2.2798283"><ele>202.0</ele><time>2026-05-03T12:42:03.782Z</time></trkpt><trkpt lat="54.103845" lon="-2.279665"><ele>202.0</ele><time>2026-05-03T12:42:04.782Z</time></trkpt><trkpt lat="54.1036183" lon="-2.27949"><ele>202.0</ele><time>2026-05-03T12:42:05.786Z</time></trkpt><trkpt lat="54.1033967" lon="-2.2792967"><ele>201.5</ele><time>2026-05-03T12:42:06.784Z</time></trkpt><trkpt lat="54.10318" lon="-2.27909"><ele>201.0</ele><time>2026-05-03T12:42:07.783Z</time></trkpt><trkpt lat="54.1029717" lon="-2.2788717"><ele>201.0</ele><time>2026-05-03T12:42:08.783Z</time></trkpt><trkpt lat="54.1027717" lon="-2.2786467"><ele>201.0</ele><time>2026-05-03T12:42:09.783Z</time></trkpt><trkpt lat="54.102575" lon="-2.2784183"><ele>202.0</ele><time>2026-05-03T12:42:10.784Z</time></trkpt><trkpt lat="54.10238" lon="-2.278185"><ele>203.0</ele><time>2026-05-03T12:42:11.784Z</time></trkpt><trkpt lat="54.10219" lon="-2.27795"><ele>203.0</ele><time>2026-05-03T12:42:12.783Z</time></trkpt><trkpt lat="54.101995" lon="-2.277715"><ele>203.0</ele><time>2026-05-03T12:42:13.782Z</time></trkpt><trkpt lat="54.1017967" lon="-2.277475"><ele>202.5</ele><time>2026-05-03T12:42:14.783Z</time></trkpt><trkpt lat="54.1015933" lon="-2.2772317"><ele>202.0</ele><time>2026-05-03T12:42:15.782Z</time></trkpt><trkpt lat="54.1013883" lon="-2.2769817"><ele>200.5</ele><time>2026-05-03T12:42:16.782Z</time></trkpt><trkpt lat="54.10118" lon="-2.2767283"><ele>199.0</ele><time>2026-05-03T12:42:17.785Z</time></trkpt><trkpt lat="54.1009667" lon="-2.2764617"><ele>198.0</ele><time>2026-05-03T12:42:18.786Z</time></trkpt><trkpt lat="54.1007467" lon="-2.2761867"><ele>197.0</ele><time>2026-05-03T12:42:19.783Z</time></trkpt><trkpt lat="54.1005317" lon="-2.2758967"><ele>198.5</ele><time>2026-05-03T12:42:20.786Z</time></trkpt><trkpt lat="54.1003217" lon="-2.2755883"><ele>200.0</ele><time>2026-05-03T12:42:21.784Z</time></trkpt><trkpt lat="54.1001117" lon="-2.275285"><ele>199.5</ele><time>2026-05-03T12:42:22.783Z</time></trkpt><trkpt lat="54.0999117" lon="-2.2749917"><ele>199.0</ele><time>2026-05-03T12:42:23.784Z</time></trkpt><trkpt lat="54.099715" lon="-2.2747267"><ele>201.0</ele><time>2026-05-03T12:42:24.782Z</time></trkpt><trkpt lat="54.0995167" lon="-2.2744933"><ele>203.0</ele><time>2026-05-03T12:42:25.783Z</time></trkpt><trkpt lat="54.099305" lon="-2.274305"><ele>203.0</ele><time>2026-05-03T12:42:26.786Z</time></trkpt><trkpt lat="54.0990883" lon="-2.27415"><ele>203.0</ele><time>2026-05-03T12:42:27.783Z</time></trkpt><trkpt lat="54.0988683" lon="-2.2740283"><ele>203.5</ele><time>2026-05-03T12:42:28.786Z</time></trkpt><trkpt lat="54.0986467" lon="-2.273935"><ele>204.0</ele><time>2026-05-03T12:42:29.783Z</time></trkpt><trkpt lat="54.0984167" lon="-2.2738617"><ele>205.0</ele><time>2026-05-03T12:42:30.782Z</time></trkpt><trkpt lat="54.098175" lon="-2.2738217"><ele>206.0</ele><time>2026-05-03T12:42:31.787Z</time></trkpt><trkpt lat="54.09793" lon="-2.2738167"><ele>206.0</ele><time>2026-05-03T12:42:32.787Z</time></trkpt><trkpt lat="54.0976883" lon="-2.2738383"><ele>206.0</ele><time>2026-05-03T12:42:33.783Z</time></trkpt><trkpt lat="54.0974433" lon="-2.2738983"><ele>202.5</ele><time>2026-05-03T12:42:34.783Z</time></trkpt><trkpt lat="54.097195" lon="-2.274"><ele>199.0</ele><time>2026-05-03T12:42:35.784Z</time></trkpt><trkpt lat="54.0969567" lon="-2.2741383"><ele>199.0</ele><time>2026-05-03T12:42:36.784Z</time></trkpt><trkpt lat="54.09673" lon="-2.2742917"><ele>199.0</ele><time>2026-05-03T12:42:37.784Z</time></trkpt><trkpt lat="54.0965133" lon="-2.274435"><ele>195.0</ele><time>2026-05-03T12:42:38.782Z</time></trkpt><trkpt lat="54.0962883" lon="-2.274555"><ele>191.0</ele><time>2026-05-03T12:42:39.782Z</time></trkpt><trkpt lat="54.0960517" lon="-2.274625"><ele>191.0</ele><time>2026-05-03T12:42:40.783Z</time></trkpt><trkpt lat="54.0957933" lon="-2.2746283"><ele>191.0</ele><time>2026-05-03T12:42:41.783Z</time></trkpt><trkpt lat="54.095525" lon="-2.2745517"><ele>190.0</ele><time>2026-05-03T12:42:42.783Z</time></trkpt><trkpt lat="54.0952567" lon="-2.2744"><ele>189.0</ele><time>2026-05-03T12:42:43.787Z</time></trkpt><trkpt lat="54.0950017" lon="-2.274245"><ele>188.0</ele><time>2026-05-03T12:42:44.787Z</time></trkpt><trkpt lat="54.09475" lon="-2.2741183"><ele>187.0</ele><time>2026-05-03T12:42:45.784Z</time></trkpt><trkpt lat="54.094495" lon="-2.2740333"><ele>187.0</ele><time>2026-05-03T12:42:46.787Z</time></trkpt><trkpt lat="54.09424" lon="-2.2739733"><ele>187.0</ele><time>2026-05-03T12:42:47.783Z</time></trkpt><trkpt lat="54.0939917" lon="-2.273925"><ele>186.0</ele><time>2026-05-03T12:42:48.783Z</time></trkpt><trkpt lat="54.093745" lon="-2.273885"><ele>185.0</ele><time>2026-05-03T12:42:49.783Z</time></trkpt><trkpt lat="54.093495" lon="-2.27381"><ele>183.0</ele><time>2026-05-03T12:42:50.785Z</time></trkpt><trkpt lat="54.0932383" lon="-2.2737"><ele>181.0</ele><time>2026-05-03T12:42:51.784Z</time></trkpt><trkpt lat="54.0929833" lon="-2.2735683"><ele>181.0</ele><time>2026-05-03T12:42:52.787Z</time></trkpt><trkpt lat="54.0927333" lon="-2.27342"><ele>181.0</ele><time>2026-05-03T12:42:53.783Z</time></trkpt><trkpt lat="54.0925" lon="-2.2732533"><ele>181.0</ele><time>2026-05-03T12:42:54.786Z</time></trkpt><trkpt lat="54.0922833" lon="-2.2730667"><ele>181.0</ele><time>2026-05-03T12:42:55.784Z</time></trkpt><trkpt lat="54.0920833" lon="-2.2728833"><ele>181.0</ele><time>2026-05-03T12:42:56.784Z</time></trkpt><trkpt lat="54.0918833" lon="-2.272715"><ele>181.0</ele><time>2026-05-03T12:42:57.786Z</time></trkpt><trkpt lat="54.0916883" lon="-2.2725683"><ele>181.0</ele><time>2026-05-03T12:42:58.785Z</time></trkpt><trkpt lat="54.0915033" lon="-2.272455"><ele>182.0</ele><time>2026-05-03T12:42:59.786Z</time></trkpt><trkpt lat="54.0913383" lon="-2.2723733"><ele>183.0</ele><time>2026-05-03T12:43:00.784Z</time></trkpt><trkpt lat="54.0911933" lon="-2.2723117"><ele>184.0</ele><time>2026-05-03T12:43:01.784Z</time></trkpt><trkpt lat="54.0910567" lon="-2.272265"><ele>184.0</ele><time>2026-05-03T12:43:02.785Z</time></trkpt><trkpt lat="54.0909217" lon="-2.2722383"><ele>184.0</ele><time>2026-05-03T12:43:03.786Z</time></trkpt><trkpt lat="54.0907867" lon="-2.27223"><ele>184.0</ele><time>2026-05-03T12:43:04.785Z</time></trkpt><trkpt lat="54.09065" lon="-2.2722367"><ele>184.0</ele><time>2026-05-03T12:43:05.786Z</time></trkpt><trkpt lat="54.0905117" lon="-2.2722533"><ele>181.75</ele><time>2026-05-03T12:43:06.784Z</time></trkpt><trkpt lat="54.09037" lon="-2.2722767"><ele>179.5</ele><time>2026-05-03T12:43:07.786Z</time></trkpt><trkpt lat="54.090225" lon="-2.272315"><ele>177.25</ele><time>2026-05-03T12:43:08.785Z</time></trkpt><trkpt lat="54.0900783" lon="-2.2723667"><ele>175.0</ele><time>2026-05-03T12:43:09.783Z</time></trkpt><trkpt lat="54.0899317" lon="-2.2724267"><ele>175.66666666666669</ele><time>2026-05-03T12:43:10.783Z</time></trkpt><trkpt lat="54.089785" lon="-2.2724883"><ele>176.33333333333334</ele><time>2026-05-03T12:43:11.784Z</time></trkpt><trkpt lat="54.0896383" lon="-2.2725517"><ele>177.0</ele><time>2026-05-03T12:43:12.783Z</time></trkpt><trkpt lat="54.08949" lon="-2.2726217"><ele>177.0</ele><time>2026-05-03T12:43:13.783Z</time></trkpt><trkpt lat="54.0893467" lon="-2.2726867"><ele>177.0</ele><time>2026-05-03T12:43:14.783Z</time></trkpt><trkpt lat="54.0892067" lon="-2.2727533"><ele>177.0</ele><time>2026-05-03T12:43:15.783Z</time></trkpt><trkpt lat="54.0890683" lon="-2.2728183"><ele>177.0</ele><time>2026-05-03T12:43:16.782Z</time></trkpt><trkpt lat="54.0889283" lon="-2.2728817"><ele>178.25</ele><time>2026-05-03T12:43:17.784Z</time></trkpt><trkpt lat="54.0887917" lon="-2.272945"><ele>179.5</ele><time>2026-05-03T12:43:18.783Z</time></trkpt><trkpt lat="54.088655" lon="-2.2730083"><ele>180.75</ele><time>2026-05-03T12:43:19.784Z</time></trkpt><trkpt lat="54.0885233" lon="-2.27307"><ele>182.0</ele><time>2026-05-03T12:43:20.783Z</time></trkpt><trkpt lat="54.0883967" lon="-2.27314"><ele>181.5</ele><time>2026-05-03T12:43:21.783Z</time></trkpt><trkpt lat="54.0882683" lon="-2.2732183"><ele>181.0</ele><time>2026-05-03T12:43:22.782Z</time></trkpt><trkpt lat="54.0881417" lon="-2.2733017"><ele>180.5</ele><time>2026-05-03T12:43:23.784Z</time></trkpt><trkpt lat="54.0880067" lon="-2.27339"><ele>180.0</ele><time>2026-05-03T12:43:24.783Z</time></trkpt><trkpt lat="54.08787" lon="-2.2734867"><ele>180.0</ele><time>2026-05-03T12:43:25.783Z</time></trkpt><trkpt lat="54.087735" lon="-2.2735967"><ele>180.0</ele><time>2026-05-03T12:43:26.782Z</time></trkpt><trkpt lat="54.0876" lon="-2.27372"><ele>180.0</ele><time>2026-05-03T12:43:27.783Z</time></trkpt><trkpt lat="54.087475" lon="-2.2738433"><ele>180.0</ele><time>2026-05-03T12:43:28.784Z</time></trkpt><trkpt lat="54.08735" lon="-2.27396"><ele>179.75</ele><time>2026-05-03T12:43:29.785Z</time></trkpt><trkpt lat="54.0872217" lon="-2.2740733"><ele>179.5</ele><time>2026-05-03T12:43:30.783Z</time></trkpt><trkpt lat="54.0870933" lon="-2.2741783"><ele>179.25</ele><time>2026-05-03T12:43:31.784Z</time></trkpt><trkpt lat="54.0869717" lon="-2.2742717"><ele>179.0</ele><time>2026-05-03T12:43:32.783Z</time></trkpt><trkpt lat="54.0868483" lon="-2.274355"><ele>179.0</ele><time>2026-05-03T12:43:33.784Z</time></trkpt><trkpt lat="54.0867267" lon="-2.2744267"><ele>179.0</ele><time>2026-05-03T12:43:34.783Z</time></trkpt><trkpt lat="54.0866067" lon="-2.2744967"><ele>179.0</ele><time>2026-05-03T12:43:35.782Z</time></trkpt><trkpt lat="54.086475" lon="-2.274575"><ele>179.0</ele><time>2026-05-03T12:43:36.783Z</time></trkpt><trkpt lat="54.0863433" lon="-2.2746467"><ele>178.75</ele><time>2026-05-03T12:43:37.783Z</time></trkpt><trkpt lat="54.0862133" lon="-2.2747117"><ele>178.5</ele><time>2026-05-03T12:43:38.782Z</time></trkpt><trkpt lat="54.0860767" lon="-2.2747733"><ele>178.25</ele><time>2026-05-03T12:43:39.783Z</time></trkpt><trkpt lat="54.085935" lon="-2.274835"><ele>178.0</ele><time>2026-05-03T12:43:40.784Z</time></trkpt><trkpt lat="54.0857933" lon="-2.2749"><ele>179.66666666666669</ele><time>2026-05-03T12:43:41.783Z</time></trkpt><trkpt lat="54.08565" lon="-2.2749683"><ele>181.33333333333334</ele><time>2026-05-03T12:43:42.783Z</time></trkpt><trkpt lat="54.085505" lon="-2.2750433"><ele>183.0</ele><time>2026-05-03T12:43:43.784Z</time></trkpt><trkpt lat="54.08536" lon="-2.275125"><ele>183.0</ele><time>2026-05-03T12:43:44.787Z</time></trkpt><trkpt lat="54.085215" lon="-2.275225"><ele>183.0</ele><time>2026-05-03T12:43:45.783Z</time></trkpt><trkpt lat="54.0850717" lon="-2.27533"><ele>183.0</ele><time>2026-05-03T12:43:46.783Z</time></trkpt><trkpt lat="54.0849267" lon="-2.275445"><ele>182.66666666666666</ele><time>2026-05-03T12:43:47.783Z</time></trkpt><trkpt lat="54.0847817" lon="-2.2755683"><ele>182.33333333333331</ele><time>2026-05-03T12:43:48.782Z</time></trkpt><trkpt lat="54.08464" lon="-2.2756917"><ele>182.0</ele><time>2026-05-03T12:43:49.784Z</time></trkpt><trkpt lat="54.0844917" lon="-2.27582"><ele>182.0</ele><time>2026-05-03T12:43:50.783Z</time></trkpt><trkpt lat="54.084345" lon="-2.2759483"><ele>182.0</ele><time>2026-05-03T12:43:51.783Z</time></trkpt><trkpt lat="54.0842067" lon="-2.276065"><ele>182.0</ele><time>2026-05-03T12:43:52.785Z</time></trkpt><trkpt lat="54.0840717" lon="-2.2761767"><ele>182.75</ele><time>2026-05-03T12:43:53.784Z</time></trkpt><trkpt lat="54.0839383" lon="-2.2762533"><ele>183.5</ele><time>2026-05-03T12:43:54.786Z</time></trkpt><trkpt lat="54.0838033" lon="-2.27629"><ele>184.25</ele><time>2026-05-03T12:43:55.782Z</time></trkpt><trkpt lat="54.0836667" lon="-2.27628"><ele>185.0</ele><time>2026-05-03T12:43:56.782Z</time></trkpt><trkpt lat="54.0835367" lon="-2.2762083"><ele>185.0</ele><time>2026-05-03T12:43:57.782Z</time></trkpt><trkpt lat="54.08342" lon="-2.2760733"><ele>185.0</ele><time>2026-05-03T12:43:58.782Z</time></trkpt><trkpt lat="54.0833033" lon="-2.275935"><ele>185.0</ele><time>2026-05-03T12:43:59.785Z</time></trkpt><trkpt lat="54.0831867" lon="-2.275815"><ele>185.0</ele><time>2026-05-03T12:44:00.783Z</time></trkpt><trkpt lat="54.083065" lon="-2.2757283"><ele>186.25</ele><time>2026-05-03T12:44:01.784Z</time></trkpt><trkpt lat="54.082935" lon="-2.2756883"><ele>187.5</ele><time>2026-05-03T12:44:02.783Z</time></trkpt><trkpt lat="54.0828" lon="-2.275685"><ele>188.75</ele><time>2026-05-03T12:44:03.783Z</time></trkpt><trkpt lat="54.0826683" lon="-2.2756983"><ele>190.0</ele><time>2026-05-03T12:44:04.784Z</time></trkpt><trkpt lat="54.0825367" lon="-2.2757217"><ele>189.75</ele><time>2026-05-03T12:44:05.783Z</time></trkpt><trkpt lat="54.082405" lon="-2.27574"><ele>189.5</ele><time>2026-05-03T12:44:06.784Z</time></trkpt><trkpt lat="54.0822783" lon="-2.2757583"><ele>189.25</ele><time>2026-05-03T12:44:07.783Z</time></trkpt><trkpt lat="54.0821383" lon="-2.2757767"><ele>189.0</ele><time>2026-05-03T12:44:08.782Z</time></trkpt><trkpt lat="54.0819967" lon="-2.2757817"><ele>189.0</ele><time>2026-05-03T12:44:09.783Z</time></trkpt><trkpt lat="54.0818533" lon="-2.2757717"><ele>189.0</ele><time>2026-05-03T12:44:10.784Z</time></trkpt><trkpt lat="54.0817083" lon="-2.2757367"><ele>189.0</ele><time>2026-05-03T12:44:11.784Z</time></trkpt><trkpt lat="54.081565" lon="-2.2756717"><ele>189.0</ele><time>2026-05-03T12:44:12.783Z</time></trkpt><trkpt lat="54.0814267" lon="-2.2755933"><ele>189.5</ele><time>2026-05-03T12:44:13.785Z</time></trkpt><trkpt lat="54.0812917" lon="-2.2755167"><ele>190.0</ele><time>2026-05-03T12:44:14.786Z</time></trkpt><trkpt lat="54.0811633" lon="-2.2754533"><ele>190.5</ele><time>2026-05-03T12:44:15.787Z</time></trkpt><trkpt lat="54.081045" lon="-2.2754117"><ele>191.0</ele><time>2026-05-03T12:44:16.786Z</time></trkpt><trkpt lat="54.0809317" lon="-2.2753833"><ele>191.0</ele><time>2026-05-03T12:44:17.783Z</time></trkpt><trkpt lat="54.08082" lon="-2.2753517"><ele>191.0</ele><time>2026-05-03T12:44:18.783Z</time></trkpt><trkpt lat="54.0807083" lon="-2.2753217"><ele>191.0</ele><time>2026-05-03T12:44:19.783Z</time></trkpt><trkpt lat="54.0805917" lon="-2.2752883"><ele>191.0</ele><time>2026-05-03T12:44:20.784Z</time></trkpt><trkpt lat="54.08047" lon="-2.2752633"><ele>190.75</ele><time>2026-05-03T12:44:21.784Z</time></trkpt><trkpt lat="54.08035" lon="-2.2752533"><ele>190.5</ele><time>2026-05-03T12:44:22.783Z</time></trkpt><trkpt lat="54.0802317" lon="-2.27527"><ele>190.25</ele><time>2026-05-03T12:44:23.782Z</time></trkpt><trkpt lat="54.08012" lon="-2.2753133"><ele>190.0</ele><time>2026-05-03T12:44:24.783Z</time></trkpt><trkpt lat="54.0800083" lon="-2.2753683"><ele>189.0</ele><time>2026-05-03T12:44:25.784Z</time></trkpt><trkpt lat="54.0798933" lon="-2.27543"><ele>188.0</ele><time>2026-05-03T12:44:26.783Z</time></trkpt><trkpt lat="54.0797717" lon="-2.2754933"><ele>187.0</ele><time>2026-05-03T12:44:27.785Z</time></trkpt><trkpt lat="54.0796517" lon="-2.2755483"><ele>186.0</ele><time>2026-05-03T12:44:28.783Z</time></trkpt><trkpt lat="54.07953" lon="-2.2755783"><ele>186.0</ele><time>2026-05-03T12:44:29.784Z</time></trkpt><trkpt lat="54.0794133" lon="-2.275595"><ele>186.0</ele><time>2026-05-03T12:44:30.783Z</time></trkpt><trkpt lat="54.0792817" lon="-2.27559"><ele>186.0</ele><time>2026-05-03T12:44:31.785Z</time></trkpt><trkpt lat="54.07917" lon="-2.2755733"><ele>186.0</ele><time>2026-05-03T12:44:32.783Z</time></trkpt><trkpt lat="54.07907" lon="-2.2755583"><ele>185.66666666666666</ele><time>2026-05-03T12:44:33.784Z</time></trkpt><trkpt lat="54.0789817" lon="-2.2755367"><ele>185.33333333333334</ele><time>2026-05-03T12:44:34.782Z</time></trkpt><trkpt lat="54.0788983" lon="-2.2755167"><ele>185.0</ele><time>2026-05-03T12:44:35.786Z</time></trkpt><trkpt lat="54.07882" lon="-2.2754983"><ele>184.66666666666669</ele><time>2026-05-03T12:44:36.784Z</time></trkpt><trkpt lat="54.0787567" lon="-2.275485"><ele>184.33333333333334</ele><time>2026-05-03T12:44:37.783Z</time></trkpt><trkpt lat="54.078655" lon="-2.2754817"><ele>184.0</ele><time>2026-05-03T12:44:39.782Z</time></trkpt><trkpt lat="54.0786117" lon="-2.2753617"><ele>184.0</ele><time>2026-05-03T12:45:14.783Z</time></trkpt><trkpt lat="54.07857" lon="-2.2752767"><ele>184.0</ele><time>2026-05-03T12:45:16.783Z</time></trkpt><trkpt lat="54.07851" lon="-2.2752417"><ele>184.0</ele><time>2026-05-03T12:45:18.782Z</time></trkpt><trkpt lat="54.0784383" lon="-2.2752483"><ele>184.0</ele><time>2026-05-03T12:45:20.782Z</time></trkpt><trkpt lat="54.0783533" lon="-2.2752667"><ele>184.0</ele><time>2026-05-03T12:45:22.783Z</time></trkpt><trkpt lat="54.0782683" lon="-2.2752983"><ele>184.0</ele><time>2026-05-03T12:45:24.783Z</time></trkpt><trkpt lat="54.0781617" lon="-2.2753233"><ele>184.6</ele><time>2026-05-03T12:45:26.783Z</time></trkpt><trkpt lat="54.07807" lon="-2.2753267"><ele>185.2</ele><time>2026-05-03T12:45:28.783Z</time></trkpt><trkpt lat="54.0779517" lon="-2.2753017"><ele>185.79999999999998</ele><time>2026-05-03T12:45:30.785Z</time></trkpt><trkpt lat="54.07783" lon="-2.27527"><ele>186.39999999999998</ele><time>2026-05-03T12:45:32.784Z</time></trkpt><trkpt lat="54.077725" lon="-2.275235"><ele>187.0</ele><time>2026-05-03T12:45:34.783Z</time></trkpt><trkpt lat="54.07761" lon="-2.275195"><ele>187.0</ele><time>2026-05-03T12:45:36.783Z</time></trkpt><trkpt lat="54.0775467" lon="-2.2751783"><ele>187.0</ele><time>2026-05-03T12:45:37.783Z</time></trkpt><trkpt lat="54.0774267" lon="-2.2751433"><ele>187.0</ele><time>2026-05-03T12:45:39.783Z</time></trkpt><trkpt lat="54.07736" lon="-2.27513"><ele>187.0</ele><time>2026-05-03T12:45:40.783Z</time></trkpt><trkpt lat="54.0772933" lon="-2.2751217"><ele>187.0</ele><time>2026-05-03T12:45:41.783Z</time></trkpt><trkpt lat="54.07723" lon="-2.2751167"><ele>187.0</ele><time>2026-05-03T12:45:42.782Z</time></trkpt><trkpt lat="54.0771667" lon="-2.2751283"><ele>187.0</ele><time>2026-05-03T12:45:43.784Z</time></trkpt><trkpt lat="54.0770983" lon="-2.275155"><ele>186.66666666666669</ele><time>2026-05-03T12:45:44.782Z</time></trkpt><trkpt lat="54.077025" lon="-2.2751933"><ele>186.33333333333334</ele><time>2026-05-03T12:45:45.783Z</time></trkpt><trkpt lat="54.0769417" lon="-2.2752383"><ele>186.0</ele><time>2026-05-03T12:45:46.783Z</time></trkpt><trkpt lat="54.0768617" lon="-2.2752867"><ele>185.66666666666666</ele><time>2026-05-03T12:45:47.784Z</time></trkpt><trkpt lat="54.0767917" lon="-2.2753217"><ele>185.33333333333331</ele><time>2026-05-03T12:45:48.783Z</time></trkpt><trkpt lat="54.0767217" lon="-2.2753367"><ele>185.0</ele><time>2026-05-03T12:45:49.785Z</time></trkpt><trkpt lat="54.0766483" lon="-2.2753283"><ele>184.6</ele><time>2026-05-03T12:45:50.782Z</time></trkpt><trkpt lat="54.07656" lon="-2.2752367"><ele>184.2</ele><time>2026-05-03T12:45:52.783Z</time></trkpt><trkpt lat="54.07649" lon="-2.275115"><ele>183.8</ele><time>2026-05-03T12:45:54.783Z</time></trkpt><trkpt lat="54.0764067" lon="-2.2749833"><ele>183.4</ele><time>2026-05-03T12:45:56.782Z</time></trkpt><trkpt lat="54.0763433" lon="-2.2749233"><ele>183.0</ele><time>2026-05-03T12:45:57.782Z</time></trkpt><trkpt lat="54.0762767" lon="-2.2748767"><ele>183.0</ele><time>2026-05-03T12:45:58.783Z</time></trkpt><trkpt lat="54.0762" lon="-2.27484"><ele>183.0</ele><time>2026-05-03T12:45:59.784Z</time></trkpt><trkpt lat="54.076115" lon="-2.2748117"><ele>183.0</ele><time>2026-05-03T12:46:00.784Z</time></trkpt><trkpt lat="54.0760333" lon="-2.2747817"><ele>183.0</ele><time>2026-05-03T12:46:01.782Z</time></trkpt><trkpt lat="54.075955" lon="-2.2747567"><ele>183.0</ele><time>2026-05-03T12:46:02.783Z</time></trkpt><trkpt lat="54.07587" lon="-2.2747433"><ele>183.0</ele><time>2026-05-03T12:46:03.783Z</time></trkpt><trkpt lat="54.0757767" lon="-2.274735"><ele>182.4</ele><time>2026-05-03T12:46:04.783Z</time></trkpt><trkpt lat="54.075665" lon="-2.2747433"><ele>181.8</ele><time>2026-05-03T12:46:05.783Z</time></trkpt><trkpt lat="54.0755617" lon="-2.2747683"><ele>181.2</ele><time>2026-05-03T12:46:06.784Z</time></trkpt><trkpt lat="54.0754633" lon="-2.2747967"><ele>180.6</ele><time>2026-05-03T12:46:07.784Z</time></trkpt><trkpt lat="54.0753633" lon="-2.27483"><ele>180.0</ele><time>2026-05-03T12:46:08.782Z</time></trkpt><trkpt lat="54.0752633" lon="-2.274855"><ele>180.0</ele><time>2026-05-03T12:46:09.787Z</time></trkpt><trkpt lat="54.0751667" lon="-2.274875"><ele>180.0</ele><time>2026-05-03T12:46:10.785Z</time></trkpt><trkpt lat="54.0750783" lon="-2.2748967"><ele>180.0</ele><time>2026-05-03T12:46:11.783Z</time></trkpt><trkpt lat="54.0749983" lon="-2.27492"><ele>180.0</ele><time>2026-05-03T12:46:12.783Z</time></trkpt><trkpt lat="54.0749317" lon="-2.2749467"><ele>180.0</ele><time>2026-05-03T12:46:13.784Z</time></trkpt><trkpt lat="54.0748367" lon="-2.2750117"><ele>180.0</ele><time>2026-05-03T12:46:15.783Z</time></trkpt><trkpt lat="54.074775" lon="-2.27507"><ele>179.8</ele><time>2026-05-03T12:46:17.784Z</time></trkpt><trkpt lat="54.07468" lon="-2.2751183"><ele>179.6</ele><time>2026-05-03T12:46:20.787Z</time></trkpt><trkpt lat="54.074585" lon="-2.2751767"><ele>179.39999999999998</ele><time>2026-05-03T12:46:22.784Z</time></trkpt><trkpt lat="54.07452" lon="-2.2752167"><ele>179.2</ele><time>2026-05-03T12:46:23.785Z</time></trkpt><trkpt lat="54.07444" lon="-2.2752683"><ele>179.0</ele><time>2026-05-03T12:46:24.784Z</time></trkpt><trkpt lat="54.0743333" lon="-2.2753167"><ele>179.0</ele><time>2026-05-03T12:46:25.784Z</time></trkpt><trkpt lat="54.074235" lon="-2.275345"><ele>179.0</ele><time>2026-05-03T12:46:26.785Z</time></trkpt><trkpt lat="54.0741267" lon="-2.27536"><ele>179.0</ele><time>2026-05-03T12:46:27.784Z</time></trkpt><trkpt lat="54.074025" lon="-2.2753717"><ele>179.0</ele><time>2026-05-03T12:46:28.784Z</time></trkpt><trkpt lat="54.073925" lon="-2.2753917"><ele>179.0</ele><time>2026-05-03T12:46:29.784Z</time></trkpt><trkpt lat="54.0738317" lon="-2.2754067"><ele>179.6</ele><time>2026-05-03T12:46:30.783Z</time></trkpt><trkpt lat="54.07371" lon="-2.27544"><ele>180.2</ele><time>2026-05-03T12:46:31.785Z</time></trkpt><trkpt lat="54.0735983" lon="-2.275455"><ele>180.79999999999998</ele><time>2026-05-03T12:46:32.783Z</time></trkpt><trkpt lat="54.0734933" lon="-2.275465"><ele>181.39999999999998</ele><time>2026-05-03T12:46:33.784Z</time></trkpt><trkpt lat="54.0733933" lon="-2.27547"><ele>182.0</ele><time>2026-05-03T12:46:34.784Z</time></trkpt><trkpt lat="54.0733" lon="-2.2754683"><ele>181.8</ele><time>2026-05-03T12:46:35.784Z</time></trkpt><trkpt lat="54.0732067" lon="-2.275465"><ele>181.6</ele><time>2026-05-03T12:46:36.784Z</time></trkpt><trkpt lat="54.07311" lon="-2.275455"><ele>181.4</ele><time>2026-05-03T12:46:37.784Z</time></trkpt><trkpt lat="54.073015" lon="-2.275445"><ele>181.20000000000002</ele><time>2026-05-03T12:46:38.784Z</time></trkpt><trkpt lat="54.0729183" lon="-2.2754383"><ele>181.0</ele><time>2026-05-03T12:46:39.786Z</time></trkpt><trkpt lat="54.072815" lon="-2.2754283"><ele>181.0</ele><time>2026-05-03T12:46:40.784Z</time></trkpt><trkpt lat="54.07271" lon="-2.2754267"><ele>181.0</ele><time>2026-05-03T12:46:41.784Z</time></trkpt><trkpt lat="54.072605" lon="-2.2754233"><ele>181.0</ele><time>2026-05-03T12:46:42.785Z</time></trkpt><trkpt lat="54.0725067" lon="-2.2754183"><ele>181.0</ele><time>2026-05-03T12:46:43.784Z</time></trkpt><trkpt lat="54.0724117" lon="-2.2754083"><ele>181.0</ele><time>2026-05-03T12:46:44.785Z</time></trkpt><trkpt lat="54.072325" lon="-2.2753917"><ele>180.33333333333334</ele><time>2026-05-03T12:46:45.783Z</time></trkpt><trkpt lat="54.0722333" lon="-2.2753717"><ele>179.66666666666669</ele><time>2026-05-03T12:46:46.784Z</time></trkpt><trkpt lat="54.0721583" lon="-2.2753433"><ele>179.0</ele><time>2026-05-03T12:46:47.785Z</time></trkpt><trkpt lat="54.07208" lon="-2.2753183"><ele>178.33333333333334</ele><time>2026-05-03T12:46:48.785Z</time></trkpt><trkpt lat="54.0720017" lon="-2.27529"><ele>177.66666666666666</ele><time>2026-05-03T12:46:49.785Z</time></trkpt><trkpt lat="54.0719233" lon="-2.275265"><ele>177.0</ele><time>2026-05-03T12:46:50.785Z</time></trkpt><trkpt lat="54.0718517" lon="-2.2752367"><ele>177.0</ele><time>2026-05-03T12:46:51.785Z</time></trkpt><trkpt lat="54.0717817" lon="-2.27521"><ele>177.0</ele><time>2026-05-03T12:46:52.783Z</time></trkpt><trkpt lat="54.0717167" lon="-2.275185"><ele>177.0</ele><time>2026-05-03T12:46:53.785Z</time></trkpt><trkpt lat="54.0716033" lon="-2.2751467"><ele>177.0</ele><time>2026-05-03T12:46:55.784Z</time></trkpt><trkpt lat="54.0715133" lon="-2.2751217"><ele>177.0</ele><time>2026-05-03T12:46:57.786Z</time></trkpt><trkpt lat="54.07143" lon="-2.2750783"><ele>177.0</ele><time>2026-05-03T12:47:00.785Z</time></trkpt><trkpt lat="54.0713683" lon="-2.2750267"><ele>176.39999999999998</ele><time>2026-05-03T12:47:03.786Z</time></trkpt><trkpt lat="54.0712883" lon="-2.2749783"><ele>175.79999999999998</ele><time>2026-05-03T12:47:17.783Z</time></trkpt><trkpt lat="54.0712017" lon="-2.2749083"><ele>175.2</ele><time>2026-05-03T12:47:19.783Z</time></trkpt><trkpt lat="54.0711033" lon="-2.2748383"><ele>174.6</ele><time>2026-05-03T12:47:21.782Z</time></trkpt><trkpt lat="54.0709983" lon="-2.27477"><ele>174.0</ele><time>2026-05-03T12:47:23.783Z</time></trkpt><trkpt lat="54.070895" lon="-2.274715"><ele>176.5</ele><time>2026-05-03T12:47:25.782Z</time></trkpt><trkpt lat="54.070785" lon="-2.2746667"><ele>179.0</ele><time>2026-05-03T12:47:27.783Z</time></trkpt><trkpt lat="54.0706833" lon="-2.2746133"><ele>181.5</ele><time>2026-05-03T12:47:29.783Z</time></trkpt><trkpt lat="54.07057" lon="-2.274575"><ele>184.0</ele><time>2026-05-03T12:47:31.783Z</time></trkpt><trkpt lat="54.0704467" lon="-2.274555"><ele>185.0</ele><time>2026-05-03T12:47:33.783Z</time></trkpt><trkpt lat="54.07032" lon="-2.27455"><ele>186.0</ele><time>2026-05-03T12:47:35.782Z</time></trkpt><trkpt lat="54.0702567" lon="-2.2745583"><ele>187.0</ele><time>2026-05-03T12:47:36.783Z</time></trkpt><trkpt lat="54.07013" lon="-2.274595"><ele>188.0</ele><time>2026-05-03T12:47:38.784Z</time></trkpt><trkpt lat="54.0700667" lon="-2.2746133"><ele>189.0</ele><time>2026-05-03T12:47:39.781Z</time></trkpt><trkpt lat="54.070005" lon="-2.274635"><ele>190.0</ele><time>2026-05-03T12:47:40.783Z</time></trkpt><trkpt lat="54.0699417" lon="-2.2746517"><ele>192.2</ele><time>2026-05-03T12:47:41.783Z</time></trkpt><trkpt lat="54.0698283" lon="-2.274685"><ele>194.4</ele><time>2026-05-03T12:47:43.783Z</time></trkpt><trkpt lat="54.0697217" lon="-2.2747083"><ele>196.60000000000002</ele><time>2026-05-03T12:47:45.783Z</time></trkpt><trkpt lat="54.069625" lon="-2.2747"><ele>198.8</ele><time>2026-05-03T12:47:47.784Z</time></trkpt><trkpt lat="54.0695433" lon="-2.2746583"><ele>201.0</ele><time>2026-05-03T12:47:49.783Z</time></trkpt><trkpt lat="54.069455" lon="-2.2746583"><ele>201.0</ele><time>2026-05-03T12:47:51.784Z</time></trkpt><trkpt lat="54.0693517" lon="-2.2747033"><ele>201.0</ele><time>2026-05-03T12:47:53.783Z</time></trkpt><trkpt lat="54.0692917" lon="-2.27474"><ele>201.0</ele><time>2026-05-03T12:47:54.783Z</time></trkpt><trkpt lat="54.0691967" lon="-2.2748317"><ele>201.0</ele><time>2026-05-03T12:47:56.787Z</time></trkpt><trkpt lat="54.0691317" lon="-2.27491"><ele>201.0</ele><time>2026-05-03T12:47:58.783Z</time></trkpt><trkpt lat="54.0690783" lon="-2.27499"><ele>201.0</ele><time>2026-05-03T12:48:00.783Z</time></trkpt><trkpt lat="54.069085" lon="-2.27511"><ele>196.4</ele><time>2026-05-03T12:48:03.783Z</time></trkpt><trkpt lat="54.0691283" lon="-2.2752517"><ele>191.8</ele><time>2026-05-03T12:48:06.783Z</time></trkpt><trkpt lat="54.06917" lon="-2.2753867"><ele>187.20000000000002</ele><time>2026-05-03T12:48:08.784Z</time></trkpt><trkpt lat="54.0692083" lon="-2.2755417"><ele>182.60000000000002</ele><time>2026-05-03T12:48:10.783Z</time></trkpt><trkpt lat="54.06922" lon="-2.275715"><ele>178.0</ele><time>2026-05-03T12:48:12.786Z</time></trkpt><trkpt lat="54.069185" lon="-2.2759017"><ele>175.2</ele><time>2026-05-03T12:48:14.784Z</time></trkpt><trkpt lat="54.0691417" lon="-2.2760917"><ele>172.4</ele><time>2026-05-03T12:48:16.784Z</time></trkpt><trkpt lat="54.0691067" lon="-2.2762683"><ele>169.6</ele><time>2026-05-03T12:48:18.783Z</time></trkpt><trkpt lat="54.0690967" lon="-2.276375"><ele>166.79999999999998</ele><time>2026-05-03T12:48:25.783Z</time></trkpt><trkpt lat="54.0690767" lon="-2.2765233"><ele>164.0</ele><time>2026-05-03T12:48:27.783Z</time></trkpt><trkpt lat="54.0690717" lon="-2.2767033"><ele>163.33333333333331</ele><time>2026-05-03T12:48:29.782Z</time></trkpt><trkpt lat="54.0690533" lon="-2.2768617"><ele>162.66666666666666</ele><time>2026-05-03T12:48:31.784Z</time></trkpt><trkpt lat="54.0690167" lon="-2.276975"><ele>162.0</ele><time>2026-05-03T12:48:33.782Z</time></trkpt><trkpt lat="54.069005" lon="-2.2770817"><ele>161.33333333333334</ele><time>2026-05-03T12:50:54.783Z</time></trkpt><trkpt lat="54.0690383" lon="-2.2772133"><ele>160.66666666666669</ele><time>2026-05-03T12:51:01.784Z</time></trkpt><trkpt lat="54.069125" lon="-2.2772567"><ele>160.0</ele><time>2026-05-03T12:51:03.784Z</time></trkpt><trkpt lat="54.0692217" lon="-2.27731"><ele>159.2</ele><time>2026-05-03T12:51:05.784Z</time></trkpt><trkpt lat="54.0693217" lon="-2.2773567"><ele>158.4</ele><time>2026-05-03T12:51:07.784Z</time></trkpt><trkpt lat="54.0694017" lon="-2.27741"><ele>157.6</ele><time>2026-05-03T12:51:09.784Z</time></trkpt><trkpt lat="54.0694883" lon="-2.2774583"><ele>156.8</ele><time>2026-05-03T12:51:11.784Z</time></trkpt><trkpt lat="54.0696" lon="-2.2775117"><ele>156.0</ele><time>2026-05-03T12:51:13.783Z</time></trkpt><trkpt lat="54.0696617" lon="-2.2775433"><ele>156.0</ele><time>2026-05-03T12:51:14.787Z</time></trkpt><trkpt lat="54.069725" lon="-2.2775717"><ele>156.0</ele><time>2026-05-03T12:51:15.783Z</time></trkpt><trkpt lat="54.0697883" lon="-2.2776017"><ele>156.0</ele><time>2026-05-03T12:51:16.784Z</time></trkpt><trkpt lat="54.06985" lon="-2.277635"><ele>156.0</ele><time>2026-05-03T12:51:17.782Z</time></trkpt><trkpt lat="54.069955" lon="-2.2777067"><ele>156.0</ele><time>2026-05-03T12:51:19.784Z</time></trkpt><trkpt lat="54.0700517" lon="-2.2777783"><ele>156.0</ele><time>2026-05-03T12:51:21.783Z</time></trkpt><trkpt lat="54.0701" lon="-2.2779"><ele>155.66666666666666</ele><time>2026-05-03T12:51:23.784Z</time></trkpt><trkpt lat="54.0701183" lon="-2.27802"><ele>155.33333333333334</ele><time>2026-05-03T12:51:25.784Z</time></trkpt><trkpt lat="54.070155" lon="-2.2781367"><ele>155.0</ele><time>2026-05-03T12:51:28.787Z</time></trkpt><trkpt lat="54.0702233" lon="-2.278115"><ele>154.66666666666669</ele><time>2026-05-03T13:00:13.784Z</time></trkpt><trkpt lat="54.070255" lon="-2.2783183"><ele>154.33333333333334</ele><time>2026-05-03T13:12:42.063Z</time></trkpt><trkpt lat="54.070285" lon="-2.2782133"><ele>154.0</ele><time>2026-05-03T13:14:33.786Z</time></trkpt><trkpt lat="54.0702733" lon="-2.278325"><ele>154.0</ele><time>2026-05-03T13:20:05.783Z</time></trkpt><trkpt lat="54.07034" lon="-2.2783417"><ele>154.0</ele><time>2026-05-03T13:20:10.782Z</time></trkpt><trkpt lat="54.0703567" lon="-2.27822"><ele>154.0</ele><time>2026-05-03T13:20:34.782Z</time></trkpt><trkpt lat="54.0703283" lon="-2.2780867"><ele>154.0</ele><time>2026-05-03T13:20:38.784Z</time></trkpt><trkpt lat="54.0702717" lon="-2.27796"><ele>154.0</ele><time>2026-05-03T13:20:41.783Z</time></trkpt><trkpt lat="54.070225" lon="-2.2778783"><ele>154.0</ele><time>2026-05-03T13:20:44.784Z</time></trkpt><trkpt lat="54.0701733" lon="-2.2778117"><ele>154.0</ele><time>2026-05-03T13:20:47.783Z</time></trkpt><trkpt lat="54.070115" lon="-2.27773"><ele>154.0</ele><time>2026-05-03T13:20:50.782Z</time></trkpt><trkpt lat="54.0700633" lon="-2.277655"><ele>154.0</ele><time>2026-05-03T13:20:53.782Z</time></trkpt><trkpt lat="54.069975" lon="-2.2776217"><ele>154.0</ele><time>2026-05-03T13:21:17.783Z</time></trkpt><trkpt lat="54.069905" lon="-2.27759"><ele>154.0</ele><time>2026-05-03T13:21:19.784Z</time></trkpt><trkpt lat="54.0698367" lon="-2.2775717"><ele>154.0</ele><time>2026-05-03T13:21:21.783Z</time></trkpt><trkpt lat="54.0697567" lon="-2.2775517"><ele>154.0</ele><time>2026-05-03T13:21:25.782Z</time></trkpt><trkpt lat="54.0696867" lon="-2.2775367"><ele>154.4</ele><time>2026-05-03T13:21:29.782Z</time></trkpt><trkpt lat="54.0696217" lon="-2.2775117"><ele>154.8</ele><time>2026-05-03T13:21:33.782Z</time></trkpt><trkpt lat="54.0695183" lon="-2.27745"><ele>155.2</ele><time>2026-05-03T13:21:35.783Z</time></trkpt><trkpt lat="54.069405" lon="-2.2773967"><ele>155.6</ele><time>2026-05-03T13:21:37.785Z</time></trkpt><trkpt lat="54.0692983" lon="-2.2773533"><ele>156.0</ele><time>2026-05-03T13:21:39.783Z</time></trkpt><trkpt lat="54.0691917" lon="-2.2772917"><ele>156.66666666666666</ele><time>2026-05-03T13:21:41.782Z</time></trkpt><trkpt lat="54.0690883" lon="-2.2772"><ele>157.33333333333334</ele><time>2026-05-03T13:21:43.783Z</time></trkpt><trkpt lat="54.0689667" lon="-2.2771333"><ele>158.0</ele><time>2026-05-03T13:21:45.781Z</time></trkpt><trkpt lat="54.0689033" lon="-2.27711"><ele>158.66666666666669</ele><time>2026-05-03T13:21:46.783Z</time></trkpt><trkpt lat="54.0688367" lon="-2.2771083"><ele>159.33333333333334</ele><time>2026-05-03T13:21:47.784Z</time></trkpt><trkpt lat="54.0687717" lon="-2.2771167"><ele>160.0</ele><time>2026-05-03T13:21:48.782Z</time></trkpt><trkpt lat="54.0686467" lon="-2.2771333"><ele>160.0</ele><time>2026-05-03T13:21:50.783Z</time></trkpt><trkpt lat="54.0685817" lon="-2.2771383"><ele>160.0</ele><time>2026-05-03T13:21:51.784Z</time></trkpt><trkpt lat="54.068465" lon="-2.2771467"><ele>160.0</ele><time>2026-05-03T13:21:53.783Z</time></trkpt><trkpt lat="54.068345" lon="-2.277175"><ele>160.0</ele><time>2026-05-03T13:21:55.784Z</time></trkpt><trkpt lat="54.0682167" lon="-2.2772183"><ele>160.0</ele><time>2026-05-03T13:21:57.782Z</time></trkpt><trkpt lat="54.0681433" lon="-2.27724"><ele>159.83333333333334</ele><time>2026-05-03T13:21:58.783Z</time></trkpt><trkpt lat="54.0680717" lon="-2.2772533"><ele>159.66666666666669</ele><time>2026-05-03T13:21:59.784Z</time></trkpt><trkpt lat="54.0679983" lon="-2.277285"><ele>159.5</ele><time>2026-05-03T13:22:00.783Z</time></trkpt><trkpt lat="54.067925" lon="-2.27731"><ele>159.33333333333334</ele><time>2026-05-03T13:22:01.783Z</time></trkpt><trkpt lat="54.067855" lon="-2.27735"><ele>159.16666666666666</ele><time>2026-05-03T13:22:02.783Z</time></trkpt><trkpt lat="54.0677783" lon="-2.2773867"><ele>159.0</ele><time>2026-05-03T13:22:03.782Z</time></trkpt><trkpt lat="54.0676967" lon="-2.27742"><ele>159.0</ele><time>2026-05-03T13:22:04.783Z</time></trkpt><trkpt lat="54.0676167" lon="-2.2774417"><ele>159.0</ele><time>2026-05-03T13:22:05.783Z</time></trkpt><trkpt lat="54.067535" lon="-2.2774683"><ele>159.0</ele><time>2026-05-03T13:22:06.783Z</time></trkpt><trkpt lat="54.0674467" lon="-2.2775033"><ele>159.0</ele><time>2026-05-03T13:22:07.783Z</time></trkpt><trkpt lat="54.0673483" lon="-2.2775467"><ele>159.0</ele><time>2026-05-03T13:22:08.782Z</time></trkpt><trkpt lat="54.0672517" lon="-2.27758"><ele>158.8</ele><time>2026-05-03T13:22:09.783Z</time></trkpt><trkpt lat="54.067155" lon="-2.2776183"><ele>158.60000000000002</ele><time>2026-05-03T13:22:10.783Z</time></trkpt><trkpt lat="54.0670633" lon="-2.27766"><ele>158.4</ele><time>2026-05-03T13:22:11.782Z</time></trkpt><trkpt lat="54.0669783" lon="-2.277715"><ele>158.20000000000002</ele><time>2026-05-03T13:22:12.782Z</time></trkpt><trkpt lat="54.0669017" lon="-2.2777867"><ele>158.0</ele><time>2026-05-03T13:22:13.783Z</time></trkpt><trkpt lat="54.0668383" lon="-2.2778683"><ele>158.0</ele><time>2026-05-03T13:22:14.782Z</time></trkpt><trkpt lat="54.0667833" lon="-2.2779567"><ele>158.0</ele><time>2026-05-03T13:22:15.783Z</time></trkpt><trkpt lat="54.06674" lon="-2.2780667"><ele>158.0</ele><time>2026-05-03T13:22:16.783Z</time></trkpt><trkpt lat="54.0667" lon="-2.2781683"><ele>158.0</ele><time>2026-05-03T13:22:17.786Z</time></trkpt><trkpt lat="54.0666683" lon="-2.27828"><ele>158.0</ele><time>2026-05-03T13:22:18.783Z</time></trkpt><trkpt lat="54.066625" lon="-2.2783833"><ele>158.0</ele><time>2026-05-03T13:22:19.783Z</time></trkpt><trkpt lat="54.0665667" lon="-2.2784783"><ele>158.0</ele><time>2026-05-03T13:22:20.783Z</time></trkpt><trkpt lat="54.0665067" lon="-2.27856"><ele>158.0</ele><time>2026-05-03T13:22:21.784Z</time></trkpt><trkpt lat="54.0664417" lon="-2.2786333"><ele>158.0</ele><time>2026-05-03T13:22:22.782Z</time></trkpt><trkpt lat="54.0663717" lon="-2.2786967"><ele>158.0</ele><time>2026-05-03T13:22:23.783Z</time></trkpt><trkpt lat="54.0663033" lon="-2.2787517"><ele>158.0</ele><time>2026-05-03T13:22:24.782Z</time></trkpt><trkpt lat="54.0662317" lon="-2.2788"><ele>158.0</ele><time>2026-05-03T13:22:25.783Z</time></trkpt><trkpt lat="54.066155" lon="-2.2788517"><ele>158.0</ele><time>2026-05-03T13:22:26.784Z</time></trkpt><trkpt lat="54.0660767" lon="-2.2788983"><ele>158.0</ele><time>2026-05-03T13:22:27.783Z</time></trkpt><trkpt lat="54.0659883" lon="-2.278945"><ele>158.0</ele><time>2026-05-03T13:22:28.781Z</time></trkpt><trkpt lat="54.0659" lon="-2.2789917"><ele>158.0</ele><time>2026-05-03T13:22:29.784Z</time></trkpt><trkpt lat="54.0658083" lon="-2.2790433"><ele>158.0</ele><time>2026-05-03T13:22:30.783Z</time></trkpt><trkpt lat="54.06572" lon="-2.2791067"><ele>158.0</ele><time>2026-05-03T13:22:31.783Z</time></trkpt><trkpt lat="54.0656317" lon="-2.2791833"><ele>158.0</ele><time>2026-05-03T13:22:32.782Z</time></trkpt><trkpt lat="54.0655433" lon="-2.2792767"><ele>158.0</ele><time>2026-05-03T13:22:33.783Z</time></trkpt><trkpt lat="54.065455" lon="-2.279385"><ele>158.0</ele><time>2026-05-03T13:22:34.786Z</time></trkpt><trkpt lat="54.0653683" lon="-2.2795067"><ele>158.0</ele><time>2026-05-03T13:22:35.781Z</time></trkpt><trkpt lat="54.0652883" lon="-2.2796383"><ele>159.0</ele><time>2026-05-03T13:22:36.782Z</time></trkpt><trkpt lat="54.0652183" lon="-2.2797817"><ele>160.0</ele><time>2026-05-03T13:22:37.782Z</time></trkpt><trkpt lat="54.0651533" lon="-2.2799317"><ele>161.0</ele><time>2026-05-03T13:22:38.782Z</time></trkpt><trkpt lat="54.065095" lon="-2.2800833"><ele>162.0</ele><time>2026-05-03T13:22:39.784Z</time></trkpt><trkpt lat="54.0650317" lon="-2.2802467"><ele>163.0</ele><time>2026-05-03T13:22:40.783Z</time></trkpt><trkpt lat="54.0649617" lon="-2.2803967"><ele>162.0</ele><time>2026-05-03T13:22:41.785Z</time></trkpt><trkpt lat="54.06488" lon="-2.28054"><ele>161.0</ele><time>2026-05-03T13:22:42.786Z</time></trkpt><trkpt lat="54.06479" lon="-2.28067"><ele>160.0</ele><time>2026-05-03T13:22:43.783Z</time></trkpt><trkpt lat="54.0646967" lon="-2.2807783"><ele>159.0</ele><time>2026-05-03T13:22:44.783Z</time></trkpt><trkpt lat="54.0645917" lon="-2.2808633"><ele>159.0</ele><time>2026-05-03T13:22:45.783Z</time></trkpt><trkpt lat="54.0644783" lon="-2.2809467"><ele>159.0</ele><time>2026-05-03T13:22:46.782Z</time></trkpt><trkpt lat="54.0643617" lon="-2.2810283"><ele>159.0</ele><time>2026-05-03T13:22:47.784Z</time></trkpt><trkpt lat="54.0642517" lon="-2.2811017"><ele>159.0</ele><time>2026-05-03T13:22:48.784Z</time></trkpt><trkpt lat="54.0641433" lon="-2.28117"><ele>158.25</ele><time>2026-05-03T13:22:49.783Z</time></trkpt><trkpt lat="54.0640367" lon="-2.2812367"><ele>157.5</ele><time>2026-05-03T13:22:50.782Z</time></trkpt><trkpt lat="54.0639317" lon="-2.2812933"><ele>156.75</ele><time>2026-05-03T13:22:51.783Z</time></trkpt><trkpt lat="54.0638233" lon="-2.281355"><ele>156.0</ele><time>2026-05-03T13:22:52.783Z</time></trkpt><trkpt lat="54.0637133" lon="-2.2814217"><ele>155.5</ele><time>2026-05-03T13:22:53.785Z</time></trkpt><trkpt lat="54.0636017" lon="-2.28149"><ele>155.0</ele><time>2026-05-03T13:22:54.782Z</time></trkpt><trkpt lat="54.0634917" lon="-2.281555"><ele>154.5</ele><time>2026-05-03T13:22:55.783Z</time></trkpt><trkpt lat="54.063385" lon="-2.2816167"><ele>154.0</ele><time>2026-05-03T13:22:56.782Z</time></trkpt><trkpt lat="54.063275" lon="-2.281685"><ele>153.0</ele><time>2026-05-03T13:22:57.783Z</time></trkpt><trkpt lat="54.06316" lon="-2.2817533"><ele>152.0</ele><time>2026-05-03T13:22:58.784Z</time></trkpt><trkpt lat="54.0630433" lon="-2.281825"><ele>151.0</ele><time>2026-05-03T13:22:59.784Z</time></trkpt><trkpt lat="54.062925" lon="-2.2819033"><ele>150.0</ele><time>2026-05-03T13:23:00.782Z</time></trkpt><trkpt lat="54.0628117" lon="-2.28198"><ele>150.0</ele><time>2026-05-03T13:23:01.783Z</time></trkpt><trkpt lat="54.0626983" lon="-2.28206"><ele>150.0</ele><time>2026-05-03T13:23:02.783Z</time></trkpt><trkpt lat="54.0625883" lon="-2.28215"><ele>150.0</ele><time>2026-05-03T13:23:03.782Z</time></trkpt><trkpt lat="54.0624867" lon="-2.2822417"><ele>150.0</ele><time>2026-05-03T13:23:04.783Z</time></trkpt><trkpt lat="54.0623883" lon="-2.2823367"><ele>149.4</ele><time>2026-05-03T13:23:05.783Z</time></trkpt><trkpt lat="54.0622983" lon="-2.2824433"><ele>148.8</ele><time>2026-05-03T13:23:06.781Z</time></trkpt><trkpt lat="54.0622083" lon="-2.28255"><ele>148.2</ele><time>2026-05-03T13:23:07.784Z</time></trkpt><trkpt lat="54.0621183" lon="-2.2826633"><ele>147.6</ele><time>2026-05-03T13:23:08.782Z</time></trkpt><trkpt lat="54.0620283" lon="-2.28278"><ele>147.0</ele><time>2026-05-03T13:23:09.782Z</time></trkpt><trkpt lat="54.0619383" lon="-2.2828983"><ele>147.0</ele><time>2026-05-03T13:23:10.782Z</time></trkpt><trkpt lat="54.06185" lon="-2.2830133"><ele>147.0</ele><time>2026-05-03T13:23:11.785Z</time></trkpt><trkpt lat="54.061765" lon="-2.2831267"><ele>147.0</ele><time>2026-05-03T13:23:12.781Z</time></trkpt><trkpt lat="54.061675" lon="-2.283245"><ele>147.0</ele><time>2026-05-03T13:23:13.782Z</time></trkpt><trkpt lat="54.06159" lon="-2.2833583"><ele>147.0</ele><time>2026-05-03T13:23:14.781Z</time></trkpt><trkpt lat="54.061505" lon="-2.2834717"><ele>147.4</ele><time>2026-05-03T13:23:15.783Z</time></trkpt><trkpt lat="54.06142" lon="-2.283585"><ele>147.79999999999998</ele><time>2026-05-03T13:23:16.782Z</time></trkpt><trkpt lat="54.06134" lon="-2.2836967"><ele>148.2</ele><time>2026-05-03T13:23:17.783Z</time></trkpt><trkpt lat="54.061265" lon="-2.283815"><ele>148.6</ele><time>2026-05-03T13:23:18.783Z</time></trkpt><trkpt lat="54.0611867" lon="-2.2839467"><ele>149.0</ele><time>2026-05-03T13:23:19.784Z</time></trkpt><trkpt lat="54.0611117" lon="-2.2840883"><ele>149.0</ele><time>2026-05-03T13:23:20.782Z</time></trkpt><trkpt lat="54.0610467" lon="-2.2842283"><ele>149.0</ele><time>2026-05-03T13:23:21.783Z</time></trkpt><trkpt lat="54.0609833" lon="-2.284375"><ele>149.0</ele><time>2026-05-03T13:23:22.782Z</time></trkpt><trkpt lat="54.0609283" lon="-2.2845283"><ele>149.0</ele><time>2026-05-03T13:23:23.783Z</time></trkpt><trkpt lat="54.060875" lon="-2.2846833"><ele>149.0</ele><time>2026-05-03T13:23:24.782Z</time></trkpt><trkpt lat="54.060825" lon="-2.284845"><ele>148.25</ele><time>2026-05-03T13:23:25.783Z</time></trkpt><trkpt lat="54.060755" lon="-2.28501"><ele>147.5</ele><time>2026-05-03T13:23:26.784Z</time></trkpt><trkpt lat="54.06067" lon="-2.285175"><ele>146.75</ele><time>2026-05-03T13:23:27.784Z</time></trkpt><trkpt lat="54.0605783" lon="-2.285325"><ele>146.0</ele><time>2026-05-03T13:23:28.782Z</time></trkpt><trkpt lat="54.0604883" lon="-2.2854483"><ele>146.0</ele><time>2026-05-03T13:23:29.782Z</time></trkpt><trkpt lat="54.0603933" lon="-2.2855733"><ele>146.0</ele><time>2026-05-03T13:23:30.786Z</time></trkpt><trkpt lat="54.0602933" lon="-2.2857"><ele>146.0</ele><time>2026-05-03T13:23:31.783Z</time></trkpt><trkpt lat="54.0601783" lon="-2.2858433"><ele>146.0</ele><time>2026-05-03T13:23:32.782Z</time></trkpt><trkpt lat="54.0600367" lon="-2.28602"><ele>146.0</ele><time>2026-05-03T13:23:33.783Z</time></trkpt><trkpt lat="54.0598833" lon="-2.286205"><ele>146.0</ele><time>2026-05-03T13:23:34.783Z</time></trkpt><trkpt lat="54.0597183" lon="-2.2864033"><ele>146.0</ele><time>2026-05-03T13:23:35.784Z</time></trkpt><trkpt lat="54.0595533" lon="-2.2866083"><ele>146.33333333333331</ele><time>2026-05-03T13:23:36.786Z</time></trkpt><trkpt lat="54.0593883" lon="-2.2868117"><ele>146.66666666666666</ele><time>2026-05-03T13:23:37.782Z</time></trkpt><trkpt lat="54.05922" lon="-2.2870067"><ele>147.0</ele><time>2026-05-03T13:23:38.783Z</time></trkpt><trkpt lat="54.0590483" lon="-2.287195"><ele>147.33333333333334</ele><time>2026-05-03T13:23:39.782Z</time></trkpt><trkpt lat="54.0588733" lon="-2.2873683"><ele>147.66666666666669</ele><time>2026-05-03T13:23:40.783Z</time></trkpt><trkpt lat="54.0586983" lon="-2.2875383"><ele>148.0</ele><time>2026-05-03T13:23:41.781Z</time></trkpt><trkpt lat="54.0585283" lon="-2.2876933"><ele>148.0</ele><time>2026-05-03T13:23:42.782Z</time></trkpt><trkpt lat="54.0583633" lon="-2.2878367"><ele>148.0</ele><time>2026-05-03T13:23:43.783Z</time></trkpt><trkpt lat="54.0581983" lon="-2.28796"><ele>148.0</ele><time>2026-05-03T13:23:44.786Z</time></trkpt><trkpt lat="54.0580333" lon="-2.288065"><ele>147.33333333333334</ele><time>2026-05-03T13:23:45.783Z</time></trkpt><trkpt lat="54.0578583" lon="-2.28814"><ele>146.66666666666666</ele><time>2026-05-03T13:23:46.784Z</time></trkpt><trkpt lat="54.057675" lon="-2.288165"><ele>146.0</ele><time>2026-05-03T13:23:47.784Z</time></trkpt><trkpt lat="54.0574717" lon="-2.2881433"><ele>146.33333333333331</ele><time>2026-05-03T13:23:48.782Z</time></trkpt><trkpt lat="54.0572667" lon="-2.2881083"><ele>146.66666666666666</ele><time>2026-05-03T13:23:49.785Z</time></trkpt><trkpt lat="54.057065" lon="-2.288065"><ele>147.0</ele><time>2026-05-03T13:23:50.782Z</time></trkpt><trkpt lat="54.05686" lon="-2.288025"><ele>147.0</ele><time>2026-05-03T13:23:51.784Z</time></trkpt><trkpt lat="54.0566517" lon="-2.2879767"><ele>147.0</ele><time>2026-05-03T13:23:52.782Z</time></trkpt><trkpt lat="54.056445" lon="-2.28793"><ele>147.0</ele><time>2026-05-03T13:23:53.784Z</time></trkpt><trkpt lat="54.056245" lon="-2.28791"><ele>146.0</ele><time>2026-05-03T13:23:54.781Z</time></trkpt><trkpt lat="54.0560383" lon="-2.2878917"><ele>145.0</ele><time>2026-05-03T13:23:55.782Z</time></trkpt><trkpt lat="54.0558267" lon="-2.2878617"><ele>144.0</ele><time>2026-05-03T13:23:56.783Z</time></trkpt><trkpt lat="54.0556117" lon="-2.287825"><ele>142.66666666666666</ele><time>2026-05-03T13:23:57.783Z</time></trkpt><trkpt lat="54.055395" lon="-2.287775"><ele>141.33333333333331</ele><time>2026-05-03T13:23:58.783Z</time></trkpt><trkpt lat="54.0551767" lon="-2.287715"><ele>140.0</ele><time>2026-05-03T13:23:59.784Z</time></trkpt><trkpt lat="54.05495" lon="-2.2876533"><ele>140.0</ele><time>2026-05-03T13:24:00.785Z</time></trkpt><trkpt lat="54.0547217" lon="-2.287585"><ele>140.0</ele><time>2026-05-03T13:24:01.787Z</time></trkpt><trkpt lat="54.054495" lon="-2.2875067"><ele>140.0</ele><time>2026-05-03T13:24:02.785Z</time></trkpt><trkpt lat="54.054265" lon="-2.2874317"><ele>140.0</ele><time>2026-05-03T13:24:03.786Z</time></trkpt><trkpt lat="54.0540317" lon="-2.2873567"><ele>141.0</ele><time>2026-05-03T13:24:04.786Z</time></trkpt><trkpt lat="54.0538017" lon="-2.28728"><ele>142.0</ele><time>2026-05-03T13:24:05.786Z</time></trkpt><trkpt lat="54.0535717" lon="-2.2872083"><ele>143.66666666666669</ele><time>2026-05-03T13:24:06.786Z</time></trkpt><trkpt lat="54.0533483" lon="-2.2871433"><ele>145.33333333333334</ele><time>2026-05-03T13:24:07.783Z</time></trkpt><trkpt lat="54.053135" lon="-2.287085"><ele>147.0</ele><time>2026-05-03T13:24:08.785Z</time></trkpt><trkpt lat="54.0529283" lon="-2.2870367"><ele>147.0</ele><time>2026-05-03T13:24:09.783Z</time></trkpt><trkpt lat="54.0527167" lon="-2.2870217"><ele>147.0</ele><time>2026-05-03T13:24:10.783Z</time></trkpt><trkpt lat="54.052505" lon="-2.2870433"><ele>147.0</ele><time>2026-05-03T13:24:11.783Z</time></trkpt><trkpt lat="54.0523183" lon="-2.28709"><ele>145.75</ele><time>2026-05-03T13:24:12.784Z</time></trkpt><trkpt lat="54.0521633" lon="-2.2871533"><ele>144.5</ele><time>2026-05-03T13:24:13.784Z</time></trkpt><trkpt lat="54.0520267" lon="-2.2872417"><ele>143.25</ele><time>2026-05-03T13:24:14.782Z</time></trkpt><trkpt lat="54.0519117" lon="-2.2873167"><ele>142.0</ele><time>2026-05-03T13:24:15.782Z</time></trkpt><trkpt lat="54.0518067" lon="-2.287365"><ele>140.25</ele><time>2026-05-03T13:24:16.784Z</time></trkpt><trkpt lat="54.0517017" lon="-2.2873717"><ele>138.5</ele><time>2026-05-03T13:24:17.782Z</time></trkpt><trkpt lat="54.0515817" lon="-2.2873433"><ele>136.75</ele><time>2026-05-03T13:24:18.782Z</time></trkpt><trkpt lat="54.0514633" lon="-2.2872517"><ele>135.0</ele><time>2026-05-03T13:24:19.784Z</time></trkpt><trkpt lat="54.051345" lon="-2.28711"><ele>135.0</ele><time>2026-05-03T13:24:20.784Z</time></trkpt><trkpt lat="54.0512283" lon="-2.286955"><ele>135.0</ele><time>2026-05-03T13:24:21.782Z</time></trkpt><trkpt lat="54.05111" lon="-2.2867883"><ele>135.0</ele><time>2026-05-03T13:24:22.783Z</time></trkpt><trkpt lat="54.0509883" lon="-2.2866167"><ele>135.0</ele><time>2026-05-03T13:24:23.781Z</time></trkpt><trkpt lat="54.0508583" lon="-2.2864417"><ele>135.0</ele><time>2026-05-03T13:24:24.783Z</time></trkpt><trkpt lat="54.0507167" lon="-2.2862717"><ele>135.0</ele><time>2026-05-03T13:24:25.784Z</time></trkpt><trkpt lat="54.0505667" lon="-2.2860883"><ele>135.0</ele><time>2026-05-03T13:24:26.783Z</time></trkpt><trkpt lat="54.0504183" lon="-2.2859133"><ele>135.0</ele><time>2026-05-03T13:24:27.782Z</time></trkpt><trkpt lat="54.05026" lon="-2.2857367"><ele>135.0</ele><time>2026-05-03T13:24:28.782Z</time></trkpt><trkpt lat="54.050105" lon="-2.28557"><ele>134.66666666666666</ele><time>2026-05-03T13:24:29.784Z</time></trkpt><trkpt lat="54.049945" lon="-2.2854117"><ele>134.33333333333331</ele><time>2026-05-03T13:24:30.783Z</time></trkpt><trkpt lat="54.0497817" lon="-2.2852667"><ele>134.0</ele><time>2026-05-03T13:24:31.786Z</time></trkpt><trkpt lat="54.0496117" lon="-2.28514"><ele>134.0</ele><time>2026-05-03T13:24:32.783Z</time></trkpt><trkpt lat="54.0494417" lon="-2.2850367"><ele>134.0</ele><time>2026-05-03T13:24:33.785Z</time></trkpt><trkpt lat="54.04928" lon="-2.2849483"><ele>134.0</ele><time>2026-05-03T13:24:34.783Z</time></trkpt><trkpt lat="54.0491267" lon="-2.284865"><ele>133.66666666666666</ele><time>2026-05-03T13:24:35.785Z</time></trkpt><trkpt lat="54.0489783" lon="-2.2847933"><ele>133.33333333333334</ele><time>2026-05-03T13:24:36.784Z</time></trkpt><trkpt lat="54.0488267" lon="-2.2847483"><ele>133.0</ele><time>2026-05-03T13:24:37.784Z</time></trkpt><trkpt lat="54.0486617" lon="-2.28475"><ele>133.0</ele><time>2026-05-03T13:24:38.783Z</time></trkpt><trkpt lat="54.048495" lon="-2.284785"><ele>133.0</ele><time>2026-05-03T13:24:39.782Z</time></trkpt><trkpt lat="54.048325" lon="-2.2848117"><ele>133.0</ele><time>2026-05-03T13:24:40.783Z</time></trkpt><trkpt lat="54.04814" lon="-2.28479"><ele>134.0</ele><time>2026-05-03T13:24:41.783Z</time></trkpt><trkpt lat="54.0479483" lon="-2.2847317"><ele>135.0</ele><time>2026-05-03T13:24:42.783Z</time></trkpt><trkpt lat="54.0477583" lon="-2.28463"><ele>136.0</ele><time>2026-05-03T13:24:43.782Z</time></trkpt><trkpt lat="54.0475817" lon="-2.28449"><ele>135.0</ele><time>2026-05-03T13:24:44.782Z</time></trkpt><trkpt lat="54.0474167" lon="-2.28434"><ele>134.0</ele><time>2026-05-03T13:24:45.783Z</time></trkpt><trkpt lat="54.047265" lon="-2.2842083"><ele>133.0</ele><time>2026-05-03T13:24:46.783Z</time></trkpt><trkpt lat="54.0471217" lon="-2.284095"><ele>133.0</ele><time>2026-05-03T13:24:47.783Z</time></trkpt><trkpt lat="54.0469767" lon="-2.2839983"><ele>133.0</ele><time>2026-05-03T13:24:48.784Z</time></trkpt><trkpt lat="54.0468283" lon="-2.2839133"><ele>133.0</ele><time>2026-05-03T13:24:49.784Z</time></trkpt><trkpt lat="54.046685" lon="-2.2838233"><ele>134.33333333333334</ele><time>2026-05-03T13:24:50.785Z</time></trkpt><trkpt lat="54.0465383" lon="-2.2837383"><ele>135.66666666666666</ele><time>2026-05-03T13:24:51.787Z</time></trkpt><trkpt lat="54.0463867" lon="-2.283665"><ele>137.0</ele><time>2026-05-03T13:24:52.786Z</time></trkpt><trkpt lat="54.0462283" lon="-2.28361"><ele>137.0</ele><time>2026-05-03T13:24:53.782Z</time></trkpt><trkpt lat="54.046055" lon="-2.2835983"><ele>137.0</ele><time>2026-05-03T13:24:54.782Z</time></trkpt><trkpt lat="54.04587" lon="-2.2836317"><ele>137.0</ele><time>2026-05-03T13:24:55.783Z</time></trkpt><trkpt lat="54.0456817" lon="-2.283695"><ele>137.33333333333331</ele><time>2026-05-03T13:24:56.783Z</time></trkpt><trkpt lat="54.0454917" lon="-2.283775"><ele>137.66666666666666</ele><time>2026-05-03T13:24:57.783Z</time></trkpt><trkpt lat="54.0452933" lon="-2.2838517"><ele>138.0</ele><time>2026-05-03T13:24:58.784Z</time></trkpt><trkpt lat="54.045095" lon="-2.2839167"><ele>137.0</ele><time>2026-05-03T13:24:59.784Z</time></trkpt><trkpt lat="54.0449017" lon="-2.283965"><ele>136.0</ele><time>2026-05-03T13:25:00.783Z</time></trkpt><trkpt lat="54.0447133" lon="-2.28402"><ele>135.0</ele><time>2026-05-03T13:25:01.784Z</time></trkpt><trkpt lat="54.0445333" lon="-2.2840983"><ele>135.0</ele><time>2026-05-03T13:25:02.783Z</time></trkpt><trkpt lat="54.0443617" lon="-2.284195"><ele>135.0</ele><time>2026-05-03T13:25:03.783Z</time></trkpt><trkpt lat="54.0442017" lon="-2.2843033"><ele>135.0</ele><time>2026-05-03T13:25:04.783Z</time></trkpt><trkpt lat="54.0440467" lon="-2.2844183"><ele>134.66666666666666</ele><time>2026-05-03T13:25:05.782Z</time></trkpt><trkpt lat="54.0438933" lon="-2.2845467"><ele>134.33333333333331</ele><time>2026-05-03T13:25:06.783Z</time></trkpt><trkpt lat="54.0437367" lon="-2.284685"><ele>134.0</ele><time>2026-05-03T13:25:07.783Z</time></trkpt><trkpt lat="54.043575" lon="-2.284815"><ele>134.0</ele><time>2026-05-03T13:25:08.782Z</time></trkpt><trkpt lat="54.0434033" lon="-2.284925"><ele>134.0</ele><time>2026-05-03T13:25:09.783Z</time></trkpt><trkpt lat="54.043215" lon="-2.285005"><ele>134.0</ele><time>2026-05-03T13:25:10.783Z</time></trkpt><trkpt lat="54.0430283" lon="-2.2850667"><ele>136.33333333333331</ele><time>2026-05-03T13:25:11.785Z</time></trkpt><trkpt lat="54.0428567" lon="-2.2851217"><ele>138.66666666666666</ele><time>2026-05-03T13:25:12.783Z</time></trkpt><trkpt lat="54.0426867" lon="-2.2851633"><ele>141.0</ele><time>2026-05-03T13:25:13.784Z</time></trkpt><trkpt lat="54.0425133" lon="-2.2851983"><ele>141.0</ele><time>2026-05-03T13:25:14.782Z</time></trkpt><trkpt lat="54.04234" lon="-2.2852167"><ele>141.0</ele><time>2026-05-03T13:25:15.782Z</time></trkpt><trkpt lat="54.0421767" lon="-2.2852067"><ele>141.0</ele><time>2026-05-03T13:25:16.782Z</time></trkpt><trkpt lat="54.0420167" lon="-2.2851767"><ele>141.0</ele><time>2026-05-03T13:25:17.783Z</time></trkpt><trkpt lat="54.0418683" lon="-2.28513"><ele>141.0</ele><time>2026-05-03T13:25:18.782Z</time></trkpt><trkpt lat="54.041725" lon="-2.2850733"><ele>141.0</ele><time>2026-05-03T13:25:19.782Z</time></trkpt><trkpt lat="54.0415817" lon="-2.2850317"><ele>141.0</ele><time>2026-05-03T13:25:20.784Z</time></trkpt><trkpt lat="54.0414367" lon="-2.2850133"><ele>141.0</ele><time>2026-05-03T13:25:21.783Z</time></trkpt><trkpt lat="54.041285" lon="-2.285035"><ele>141.0</ele><time>2026-05-03T13:25:22.782Z</time></trkpt><trkpt lat="54.0411383" lon="-2.285105"><ele>141.0</ele><time>2026-05-03T13:25:23.783Z</time></trkpt><trkpt lat="54.0410017" lon="-2.285195"><ele>141.0</ele><time>2026-05-03T13:25:24.783Z</time></trkpt><trkpt lat="54.0408717" lon="-2.2852783"><ele>141.0</ele><time>2026-05-03T13:25:25.781Z</time></trkpt><trkpt lat="54.0407283" lon="-2.2853383"><ele>141.0</ele><time>2026-05-03T13:25:26.784Z</time></trkpt><trkpt lat="54.0405833" lon="-2.285375"><ele>141.0</ele><time>2026-05-03T13:25:27.783Z</time></trkpt><trkpt lat="54.0404383" lon="-2.2853983"><ele>140.5</ele><time>2026-05-03T13:25:28.783Z</time></trkpt><trkpt lat="54.0402933" lon="-2.285415"><ele>140.0</ele><time>2026-05-03T13:25:29.783Z</time></trkpt><trkpt lat="54.04015" lon="-2.28543"><ele>139.5</ele><time>2026-05-03T13:25:30.783Z</time></trkpt><trkpt lat="54.040015" lon="-2.2854433"><ele>139.0</ele><time>2026-05-03T13:25:31.784Z</time></trkpt><trkpt lat="54.0398883" lon="-2.2854667"><ele>138.0</ele><time>2026-05-03T13:25:32.783Z</time></trkpt><trkpt lat="54.039765" lon="-2.2854817"><ele>137.0</ele><time>2026-05-03T13:25:33.782Z</time></trkpt><trkpt lat="54.0396333" lon="-2.2854867"><ele>136.0</ele><time>2026-05-03T13:25:34.783Z</time></trkpt><trkpt lat="54.0394967" lon="-2.285485"><ele>135.0</ele><time>2026-05-03T13:25:35.783Z</time></trkpt><trkpt lat="54.0393417" lon="-2.2854683"><ele>135.0</ele><time>2026-05-03T13:25:36.786Z</time></trkpt><trkpt lat="54.039175" lon="-2.285425"><ele>135.0</ele><time>2026-05-03T13:25:37.784Z</time></trkpt><trkpt lat="54.03899" lon="-2.2853617"><ele>135.0</ele><time>2026-05-03T13:25:38.786Z</time></trkpt><trkpt lat="54.038785" lon="-2.28529"><ele>134.0</ele><time>2026-05-03T13:25:39.786Z</time></trkpt><trkpt lat="54.0385717" lon="-2.2852117"><ele>133.0</ele><time>2026-05-03T13:25:40.786Z</time></trkpt><trkpt lat="54.0383733" lon="-2.2851333"><ele>132.0</ele><time>2026-05-03T13:25:41.785Z</time></trkpt><trkpt lat="54.0381817" lon="-2.2850617"><ele>131.33333333333334</ele><time>2026-05-03T13:25:42.786Z</time></trkpt><trkpt lat="54.0379883" lon="-2.284995"><ele>130.66666666666669</ele><time>2026-05-03T13:25:43.787Z</time></trkpt><trkpt lat="54.0377917" lon="-2.284925"><ele>130.0</ele><time>2026-05-03T13:25:44.785Z</time></trkpt><trkpt lat="54.0375917" lon="-2.2848467"><ele>130.0</ele><time>2026-05-03T13:25:45.783Z</time></trkpt><trkpt lat="54.0373817" lon="-2.2847633"><ele>130.0</ele><time>2026-05-03T13:25:46.785Z</time></trkpt><trkpt lat="54.037165" lon="-2.284675"><ele>130.0</ele><time>2026-05-03T13:25:47.784Z</time></trkpt><trkpt lat="54.0369483" lon="-2.284595"><ele>130.0</ele><time>2026-05-03T13:25:48.785Z</time></trkpt><trkpt lat="54.0367383" lon="-2.284525"><ele>130.0</ele><time>2026-05-03T13:25:49.783Z</time></trkpt><trkpt lat="54.0365433" lon="-2.2844633"><ele>130.0</ele><time>2026-05-03T13:25:50.783Z</time></trkpt><trkpt lat="54.03636" lon="-2.2844133"><ele>130.0</ele><time>2026-05-03T13:25:51.784Z</time></trkpt><trkpt lat="54.0361867" lon="-2.2843633"><ele>130.0</ele><time>2026-05-03T13:25:52.783Z</time></trkpt><trkpt lat="54.03601" lon="-2.2842867"><ele>130.0</ele><time>2026-05-03T13:25:53.785Z</time></trkpt><trkpt lat="54.0358333" lon="-2.2841683"><ele>130.33333333333334</ele><time>2026-05-03T13:25:54.784Z</time></trkpt><trkpt lat="54.0356617" lon="-2.284025"><ele>130.66666666666666</ele><time>2026-05-03T13:25:55.785Z</time></trkpt><trkpt lat="54.03549" lon="-2.283885"><ele>131.0</ele><time>2026-05-03T13:25:56.783Z</time></trkpt><trkpt lat="54.0353217" lon="-2.2837583"><ele>131.0</ele><time>2026-05-03T13:25:57.784Z</time></trkpt><trkpt lat="54.0351583" lon="-2.283645"><ele>131.0</ele><time>2026-05-03T13:25:58.782Z</time></trkpt><trkpt lat="54.0350083" lon="-2.2835417"><ele>131.0</ele><time>2026-05-03T13:25:59.784Z</time></trkpt><trkpt lat="54.0348617" lon="-2.2834517"><ele>130.33333333333331</ele><time>2026-05-03T13:26:00.785Z</time></trkpt><trkpt lat="54.0347183" lon="-2.2833617"><ele>129.66666666666666</ele><time>2026-05-03T13:26:01.783Z</time></trkpt><trkpt lat="54.03457" lon="-2.2832817"><ele>129.0</ele><time>2026-05-03T13:26:02.783Z</time></trkpt><trkpt lat="54.0344217" lon="-2.2832067"><ele>129.0</ele><time>2026-05-03T13:26:03.782Z</time></trkpt><trkpt lat="54.03427" lon="-2.2831333"><ele>129.0</ele><time>2026-05-03T13:26:04.786Z</time></trkpt><trkpt lat="54.0341183" lon="-2.283055"><ele>129.0</ele><time>2026-05-03T13:26:05.786Z</time></trkpt><trkpt lat="54.03397" lon="-2.2829817"><ele>130.0</ele><time>2026-05-03T13:26:06.783Z</time></trkpt><trkpt lat="54.03382" lon="-2.282905"><ele>131.0</ele><time>2026-05-03T13:26:07.784Z</time></trkpt><trkpt lat="54.0336633" lon="-2.28282"><ele>132.0</ele><time>2026-05-03T13:26:08.784Z</time></trkpt><trkpt lat="54.0335083" lon="-2.2827317"><ele>132.0</ele><time>2026-05-03T13:26:09.787Z</time></trkpt><trkpt lat="54.0333583" lon="-2.2826417"><ele>132.0</ele><time>2026-05-03T13:26:10.784Z</time></trkpt><trkpt lat="54.0332133" lon="-2.2825533"><ele>132.0</ele><time>2026-05-03T13:26:11.784Z</time></trkpt><trkpt lat="54.033075" lon="-2.2824617"><ele>132.0</ele><time>2026-05-03T13:26:12.784Z</time></trkpt><trkpt lat="54.0329433" lon="-2.2823633"><ele>132.0</ele><time>2026-05-03T13:26:13.784Z</time></trkpt><trkpt lat="54.0328167" lon="-2.2822567"><ele>132.0</ele><time>2026-05-03T13:26:14.782Z</time></trkpt><trkpt lat="54.032685" lon="-2.2821383"><ele>132.0</ele><time>2026-05-03T13:26:15.782Z</time></trkpt><trkpt lat="54.0325517" lon="-2.2820067"><ele>131.0</ele><time>2026-05-03T13:26:16.784Z</time></trkpt><trkpt lat="54.0324167" lon="-2.2818717"><ele>130.0</ele><time>2026-05-03T13:26:17.784Z</time></trkpt><trkpt lat="54.0322783" lon="-2.2817283"><ele>129.0</ele><time>2026-05-03T13:26:18.783Z</time></trkpt><trkpt lat="54.0321417" lon="-2.28157"><ele>129.66666666666666</ele><time>2026-05-03T13:26:19.784Z</time></trkpt><trkpt lat="54.032005" lon="-2.2814083"><ele>130.33333333333331</ele><time>2026-05-03T13:26:20.789Z</time></trkpt><trkpt lat="54.0318733" lon="-2.2812433"><ele>131.0</ele><time>2026-05-03T13:26:21.786Z</time></trkpt><trkpt lat="54.0317467" lon="-2.281065"><ele>130.66666666666666</ele><time>2026-05-03T13:26:22.785Z</time></trkpt><trkpt lat="54.0316283" lon="-2.28087"><ele>130.33333333333334</ele><time>2026-05-03T13:26:23.782Z</time></trkpt><trkpt lat="54.03153" lon="-2.28065"><ele>130.0</ele><time>2026-05-03T13:26:24.786Z</time></trkpt><trkpt lat="54.031445" lon="-2.28041"><ele>130.0</ele><time>2026-05-03T13:26:25.783Z</time></trkpt><trkpt lat="54.031375" lon="-2.2801617"><ele>130.0</ele><time>2026-05-03T13:26:26.783Z</time></trkpt><trkpt lat="54.0313117" lon="-2.2799217"><ele>130.0</ele><time>2026-05-03T13:26:27.783Z</time></trkpt><trkpt lat="54.0312417" lon="-2.2796883"><ele>131.66666666666669</ele><time>2026-05-03T13:26:28.783Z</time></trkpt><trkpt lat="54.03115" lon="-2.279455"><ele>133.33333333333334</ele><time>2026-05-03T13:26:29.782Z</time></trkpt><trkpt lat="54.031045" lon="-2.2792283"><ele>135.0</ele><time>2026-05-03T13:26:30.785Z</time></trkpt><trkpt lat="54.0309233" lon="-2.2790167"><ele>135.0</ele><time>2026-05-03T13:26:31.784Z</time></trkpt><trkpt lat="54.030805" lon="-2.27883"><ele>135.0</ele><time>2026-05-03T13:26:32.786Z</time></trkpt><trkpt lat="54.0306917" lon="-2.278655"><ele>135.0</ele><time>2026-05-03T13:26:33.783Z</time></trkpt><trkpt lat="54.030575" lon="-2.2784817"><ele>135.0</ele><time>2026-05-03T13:26:34.785Z</time></trkpt><trkpt lat="54.0304633" lon="-2.2782967"><ele>135.0</ele><time>2026-05-03T13:26:35.784Z</time></trkpt><trkpt lat="54.030345" lon="-2.278095"><ele>135.0</ele><time>2026-05-03T13:26:36.785Z</time></trkpt><trkpt lat="54.0302233" lon="-2.2778783"><ele>136.0</ele><time>2026-05-03T13:26:37.785Z</time></trkpt><trkpt lat="54.030105" lon="-2.277655"><ele>137.0</ele><time>2026-05-03T13:26:38.786Z</time></trkpt><trkpt lat="54.0299917" lon="-2.27743"><ele>138.0</ele><time>2026-05-03T13:26:39.788Z</time></trkpt><trkpt lat="54.02988" lon="-2.277215"><ele>138.33333333333334</ele><time>2026-05-03T13:26:40.786Z</time></trkpt><trkpt lat="54.029775" lon="-2.277005"><ele>138.66666666666669</ele><time>2026-05-03T13:26:41.787Z</time></trkpt><trkpt lat="54.0296717" lon="-2.2767883"><ele>139.0</ele><time>2026-05-03T13:26:42.784Z</time></trkpt><trkpt lat="54.029575" lon="-2.2765783"><ele>140.33333333333334</ele><time>2026-05-03T13:26:43.787Z</time></trkpt><trkpt lat="54.0294817" lon="-2.2763733"><ele>141.66666666666666</ele><time>2026-05-03T13:26:44.783Z</time></trkpt><trkpt lat="54.0293867" lon="-2.2761617"><ele>143.0</ele><time>2026-05-03T13:26:45.786Z</time></trkpt><trkpt lat="54.02929" lon="-2.2759417"><ele>143.0</ele><time>2026-05-03T13:26:46.785Z</time></trkpt><trkpt lat="54.02919" lon="-2.2757167"><ele>143.0</ele><time>2026-05-03T13:26:47.787Z</time></trkpt><trkpt lat="54.0290883" lon="-2.2754867"><ele>143.0</ele><time>2026-05-03T13:26:48.785Z</time></trkpt><trkpt lat="54.0289883" lon="-2.2752433"><ele>142.33333333333331</ele><time>2026-05-03T13:26:49.786Z</time></trkpt><trkpt lat="54.0288883" lon="-2.27498"><ele>141.66666666666666</ele><time>2026-05-03T13:26:50.784Z</time></trkpt><trkpt lat="54.0288" lon="-2.2747067"><ele>141.0</ele><time>2026-05-03T13:26:51.784Z</time></trkpt><trkpt lat="54.0287267" lon="-2.2744317"><ele>142.66666666666666</ele><time>2026-05-03T13:26:52.783Z</time></trkpt><trkpt lat="54.0286567" lon="-2.27416"><ele>144.33333333333331</ele><time>2026-05-03T13:26:53.784Z</time></trkpt><trkpt lat="54.0285883" lon="-2.2738967"><ele>146.0</ele><time>2026-05-03T13:26:54.785Z</time></trkpt><trkpt lat="54.0285167" lon="-2.2736417"><ele>146.66666666666666</ele><time>2026-05-03T13:26:55.785Z</time></trkpt><trkpt lat="54.0284417" lon="-2.2734"><ele>147.33333333333334</ele><time>2026-05-03T13:26:56.784Z</time></trkpt><trkpt lat="54.0283667" lon="-2.2731733"><ele>148.0</ele><time>2026-05-03T13:26:57.783Z</time></trkpt><trkpt lat="54.0282933" lon="-2.2729633"><ele>148.0</ele><time>2026-05-03T13:26:58.783Z</time></trkpt><trkpt lat="54.0282167" lon="-2.2727733"><ele>148.0</ele><time>2026-05-03T13:26:59.782Z</time></trkpt><trkpt lat="54.0281317" lon="-2.2725967"><ele>148.0</ele><time>2026-05-03T13:27:00.783Z</time></trkpt><trkpt lat="54.0280233" lon="-2.272425"><ele>148.0</ele><time>2026-05-03T13:27:01.783Z</time></trkpt><trkpt lat="54.0279067" lon="-2.2722633"><ele>149.5</ele><time>2026-05-03T13:27:02.786Z</time></trkpt><trkpt lat="54.0277917" lon="-2.272115"><ele>151.0</ele><time>2026-05-03T13:27:03.785Z</time></trkpt><trkpt lat="54.0276867" lon="-2.27198"><ele>152.5</ele><time>2026-05-03T13:27:04.786Z</time></trkpt><trkpt lat="54.0275883" lon="-2.2718533"><ele>154.0</ele><time>2026-05-03T13:27:05.785Z</time></trkpt><trkpt lat="54.0274867" lon="-2.2717217"><ele>154.0</ele><time>2026-05-03T13:27:06.785Z</time></trkpt><trkpt lat="54.0273767" lon="-2.2715917"><ele>154.0</ele><time>2026-05-03T13:27:07.786Z</time></trkpt><trkpt lat="54.0272633" lon="-2.2714617"><ele>154.0</ele><time>2026-05-03T13:27:08.785Z</time></trkpt><trkpt lat="54.0271467" lon="-2.2713283"><ele>154.0</ele><time>2026-05-03T13:27:09.786Z</time></trkpt><trkpt lat="54.0270283" lon="-2.2711933"><ele>154.0</ele><time>2026-05-03T13:27:10.784Z</time></trkpt><trkpt lat="54.0269083" lon="-2.271065"><ele>154.0</ele><time>2026-05-03T13:27:11.784Z</time></trkpt><trkpt lat="54.026785" lon="-2.2709383"><ele>154.0</ele><time>2026-05-03T13:27:12.783Z</time></trkpt><trkpt lat="54.026665" lon="-2.2708033"><ele>154.0</ele><time>2026-05-03T13:27:13.784Z</time></trkpt><trkpt lat="54.026545" lon="-2.2706517"><ele>152.0</ele><time>2026-05-03T13:27:14.784Z</time></trkpt><trkpt lat="54.0264267" lon="-2.2704783"><ele>150.0</ele><time>2026-05-03T13:27:15.784Z</time></trkpt><trkpt lat="54.0263167" lon="-2.2702817"><ele>148.0</ele><time>2026-05-03T13:27:16.786Z</time></trkpt><trkpt lat="54.0262117" lon="-2.270075"><ele>148.0</ele><time>2026-05-03T13:27:17.782Z</time></trkpt><trkpt lat="54.026115" lon="-2.26987"><ele>148.0</ele><time>2026-05-03T13:27:18.783Z</time></trkpt><trkpt lat="54.02603" lon="-2.26967"><ele>148.0</ele><time>2026-05-03T13:27:19.783Z</time></trkpt><trkpt lat="54.0259483" lon="-2.2694833"><ele>148.0</ele><time>2026-05-03T13:27:20.784Z</time></trkpt><trkpt lat="54.0258733" lon="-2.2693067"><ele>147.0</ele><time>2026-05-03T13:27:21.783Z</time></trkpt><trkpt lat="54.0257967" lon="-2.2691367"><ele>146.0</ele><time>2026-05-03T13:27:22.784Z</time></trkpt><trkpt lat="54.0257167" lon="-2.2689683"><ele>145.0</ele><time>2026-05-03T13:27:23.781Z</time></trkpt><trkpt lat="54.0256333" lon="-2.2687917"><ele>144.0</ele><time>2026-05-03T13:27:24.784Z</time></trkpt><trkpt lat="54.0255567" lon="-2.2686"><ele>144.0</ele><time>2026-05-03T13:27:25.782Z</time></trkpt><trkpt lat="54.0254833" lon="-2.2684017"><ele>144.0</ele><time>2026-05-03T13:27:26.783Z</time></trkpt><trkpt lat="54.0254217" lon="-2.2681983"><ele>144.0</ele><time>2026-05-03T13:27:27.784Z</time></trkpt><trkpt lat="54.0253667" lon="-2.268"><ele>144.0</ele><time>2026-05-03T13:27:28.784Z</time></trkpt><trkpt lat="54.0253117" lon="-2.267805"><ele>144.5</ele><time>2026-05-03T13:27:29.787Z</time></trkpt><trkpt lat="54.0252567" lon="-2.2676133"><ele>145.0</ele><time>2026-05-03T13:27:30.783Z</time></trkpt><trkpt lat="54.0252067" lon="-2.267425"><ele>145.5</ele><time>2026-05-03T13:27:31.783Z</time></trkpt><trkpt lat="54.0251533" lon="-2.2672417"><ele>146.0</ele><time>2026-05-03T13:27:32.783Z</time></trkpt><trkpt lat="54.0251" lon="-2.2670533"><ele>146.5</ele><time>2026-05-03T13:27:33.783Z</time></trkpt><trkpt lat="54.0250417" lon="-2.2668567"><ele>147.0</ele><time>2026-05-03T13:27:34.783Z</time></trkpt><trkpt lat="54.0249733" lon="-2.2666433"><ele>147.5</ele><time>2026-05-03T13:27:35.784Z</time></trkpt><trkpt lat="54.0249" lon="-2.2664233"><ele>148.0</ele><time>2026-05-03T13:27:36.784Z</time></trkpt><trkpt lat="54.02481" lon="-2.2662117"><ele>146.33333333333334</ele><time>2026-05-03T13:27:37.782Z</time></trkpt><trkpt lat="54.0247067" lon="-2.2660183"><ele>144.66666666666666</ele><time>2026-05-03T13:27:38.781Z</time></trkpt><trkpt lat="54.0245967" lon="-2.2658383"><ele>143.0</ele><time>2026-05-03T13:27:39.785Z</time></trkpt><trkpt lat="54.0244833" lon="-2.2656567"><ele>142.0</ele><time>2026-05-03T13:27:40.783Z</time></trkpt><trkpt lat="54.024365" lon="-2.2654683"><ele>141.0</ele><time>2026-05-03T13:27:41.783Z</time></trkpt><trkpt lat="54.0242383" lon="-2.2652717"><ele>140.0</ele><time>2026-05-03T13:27:42.783Z</time></trkpt><trkpt lat="54.0241067" lon="-2.2650733"><ele>140.0</ele><time>2026-05-03T13:27:43.784Z</time></trkpt><trkpt lat="54.0239767" lon="-2.264895"><ele>140.0</ele><time>2026-05-03T13:27:44.782Z</time></trkpt><trkpt lat="54.0238567" lon="-2.264735"><ele>140.0</ele><time>2026-05-03T13:27:45.784Z</time></trkpt><trkpt lat="54.0237367" lon="-2.2645933"><ele>139.5</ele><time>2026-05-03T13:27:46.783Z</time></trkpt><trkpt lat="54.02362" lon="-2.2644567"><ele>139.0</ele><time>2026-05-03T13:27:47.785Z</time></trkpt><trkpt lat="54.0235083" lon="-2.2643267"><ele>138.5</ele><time>2026-05-03T13:27:48.783Z</time></trkpt><trkpt lat="54.0234017" lon="-2.264185"><ele>138.0</ele><time>2026-05-03T13:27:49.784Z</time></trkpt><trkpt lat="54.0233017" lon="-2.2640333"><ele>139.25</ele><time>2026-05-03T13:27:50.784Z</time></trkpt><trkpt lat="54.0232033" lon="-2.2638733"><ele>140.5</ele><time>2026-05-03T13:27:51.781Z</time></trkpt><trkpt lat="54.02311" lon="-2.2637117"><ele>141.75</ele><time>2026-05-03T13:27:52.785Z</time></trkpt><trkpt lat="54.0230267" lon="-2.2635467"><ele>143.0</ele><time>2026-05-03T13:27:53.785Z</time></trkpt><trkpt lat="54.02295" lon="-2.263385"><ele>143.0</ele><time>2026-05-03T13:27:54.783Z</time></trkpt><trkpt lat="54.0228767" lon="-2.2632317"><ele>143.0</ele><time>2026-05-03T13:27:55.786Z</time></trkpt><trkpt lat="54.0228083" lon="-2.2630783"><ele>143.0</ele><time>2026-05-03T13:27:56.783Z</time></trkpt><trkpt lat="54.0227433" lon="-2.2629183"><ele>143.0</ele><time>2026-05-03T13:27:57.784Z</time></trkpt><trkpt lat="54.0226883" lon="-2.2627483"><ele>144.25</ele><time>2026-05-03T13:27:58.788Z</time></trkpt><trkpt lat="54.022645" lon="-2.2625683"><ele>145.5</ele><time>2026-05-03T13:27:59.783Z</time></trkpt><trkpt lat="54.0226167" lon="-2.2623783"><ele>146.75</ele><time>2026-05-03T13:28:00.783Z</time></trkpt><trkpt lat="54.0225933" lon="-2.2621867"><ele>148.0</ele><time>2026-05-03T13:28:01.783Z</time></trkpt><trkpt lat="54.0225733" lon="-2.2619967"><ele>148.5</ele><time>2026-05-03T13:28:02.784Z</time></trkpt><trkpt lat="54.0225417" lon="-2.26181"><ele>149.0</ele><time>2026-05-03T13:28:03.786Z</time></trkpt><trkpt lat="54.0225033" lon="-2.2616233"><ele>149.5</ele><time>2026-05-03T13:28:04.782Z</time></trkpt><trkpt lat="54.0224533" lon="-2.261445"><ele>150.0</ele><time>2026-05-03T13:28:05.784Z</time></trkpt><trkpt lat="54.0223967" lon="-2.2612767"><ele>150.0</ele><time>2026-05-03T13:28:06.783Z</time></trkpt><trkpt lat="54.0223317" lon="-2.261125"><ele>150.0</ele><time>2026-05-03T13:28:07.784Z</time></trkpt><trkpt lat="54.0222683" lon="-2.2609967"><ele>150.0</ele><time>2026-05-03T13:28:08.787Z</time></trkpt><trkpt lat="54.0222033" lon="-2.2608833"><ele>150.0</ele><time>2026-05-03T13:28:09.784Z</time></trkpt><trkpt lat="54.022135" lon="-2.2607667"><ele>150.0</ele><time>2026-05-03T13:28:10.783Z</time></trkpt><trkpt lat="54.0220567" lon="-2.2606533"><ele>150.4</ele><time>2026-05-03T13:28:11.781Z</time></trkpt><trkpt lat="54.0219817" lon="-2.2605433"><ele>150.8</ele><time>2026-05-03T13:28:12.785Z</time></trkpt><trkpt lat="54.0219083" lon="-2.2604433"><ele>151.2</ele><time>2026-05-03T13:28:13.783Z</time></trkpt><trkpt lat="54.0218367" lon="-2.2603483"><ele>151.6</ele><time>2026-05-03T13:28:14.785Z</time></trkpt><trkpt lat="54.0217633" lon="-2.2602633"><ele>152.0</ele><time>2026-05-03T13:28:15.781Z</time></trkpt><trkpt lat="54.021695" lon="-2.260175"><ele>151.6</ele><time>2026-05-03T13:28:16.784Z</time></trkpt><trkpt lat="54.0216233" lon="-2.2600883"><ele>151.2</ele><time>2026-05-03T13:28:17.786Z</time></trkpt><trkpt lat="54.0215483" lon="-2.26"><ele>150.8</ele><time>2026-05-03T13:28:18.783Z</time></trkpt><trkpt lat="54.0214733" lon="-2.2599"><ele>150.4</ele><time>2026-05-03T13:28:19.783Z</time></trkpt><trkpt lat="54.0213983" lon="-2.25979"><ele>150.0</ele><time>2026-05-03T13:28:20.784Z</time></trkpt><trkpt lat="54.0212533" lon="-2.2595533"><ele>150.66666666666666</ele><time>2026-05-03T13:28:22.783Z</time></trkpt><trkpt lat="54.0211917" lon="-2.259425"><ele>151.33333333333334</ele><time>2026-05-03T13:28:23.785Z</time></trkpt><trkpt lat="54.0211367" lon="-2.2592933"><ele>152.0</ele><time>2026-05-03T13:28:24.784Z</time></trkpt><trkpt lat="54.0210917" lon="-2.259165"><ele>152.66666666666669</ele><time>2026-05-03T13:28:25.784Z</time></trkpt><trkpt lat="54.0210467" lon="-2.2590417"><ele>153.33333333333334</ele><time>2026-05-03T13:28:26.782Z</time></trkpt><trkpt lat="54.0210017" lon="-2.258925"><ele>154.0</ele><time>2026-05-03T13:28:27.782Z</time></trkpt><trkpt lat="54.0209617" lon="-2.25881"><ele>154.2</ele><time>2026-05-03T13:28:28.788Z</time></trkpt><trkpt lat="54.0209183" lon="-2.258685"><ele>154.4</ele><time>2026-05-03T13:28:29.784Z</time></trkpt><trkpt lat="54.020875" lon="-2.2585417"><ele>154.6</ele><time>2026-05-03T13:28:30.784Z</time></trkpt><trkpt lat="54.020835" lon="-2.25838"><ele>154.8</ele><time>2026-05-03T13:28:31.784Z</time></trkpt><trkpt lat="54.0208" lon="-2.2582033"><ele>155.0</ele><time>2026-05-03T13:28:32.783Z</time></trkpt><trkpt lat="54.0207683" lon="-2.2580117"><ele>154.8</ele><time>2026-05-03T13:28:33.785Z</time></trkpt><trkpt lat="54.0207417" lon="-2.2578167"><ele>154.6</ele><time>2026-05-03T13:28:34.783Z</time></trkpt><trkpt lat="54.0207217" lon="-2.2576317"><ele>154.4</ele><time>2026-05-03T13:28:35.784Z</time></trkpt><trkpt lat="54.0207033" lon="-2.25746"><ele>154.2</ele><time>2026-05-03T13:28:36.784Z</time></trkpt><trkpt lat="54.0206867" lon="-2.257285"><ele>154.0</ele><time>2026-05-03T13:28:37.783Z</time></trkpt><trkpt lat="54.0206617" lon="-2.25711"><ele>154.0</ele><time>2026-05-03T13:28:38.782Z</time></trkpt><trkpt lat="54.02062" lon="-2.25694"><ele>154.0</ele><time>2026-05-03T13:28:39.783Z</time></trkpt><trkpt lat="54.0205717" lon="-2.2567867"><ele>154.0</ele><time>2026-05-03T13:28:40.784Z</time></trkpt><trkpt lat="54.0205133" lon="-2.256645"><ele>154.0</ele><time>2026-05-03T13:28:41.784Z</time></trkpt><trkpt lat="54.020455" lon="-2.256505"><ele>154.0</ele><time>2026-05-03T13:28:42.786Z</time></trkpt><trkpt lat="54.0204" lon="-2.2563667"><ele>154.2</ele><time>2026-05-03T13:28:43.783Z</time></trkpt><trkpt lat="54.02034" lon="-2.256225"><ele>154.4</ele><time>2026-05-03T13:28:44.784Z</time></trkpt><trkpt lat="54.0202783" lon="-2.2560833"><ele>154.6</ele><time>2026-05-03T13:28:45.783Z</time></trkpt><trkpt lat="54.0202083" lon="-2.255945"><ele>154.8</ele><time>2026-05-03T13:28:46.783Z</time></trkpt><trkpt lat="54.02014" lon="-2.2558217"><ele>155.0</ele><time>2026-05-03T13:28:47.783Z</time></trkpt><trkpt lat="54.02007" lon="-2.255715"><ele>155.0</ele><time>2026-05-03T13:28:48.783Z</time></trkpt><trkpt lat="54.0200033" lon="-2.25562"><ele>155.0</ele><time>2026-05-03T13:28:49.784Z</time></trkpt><trkpt lat="54.0199333" lon="-2.2555217"><ele>155.0</ele><time>2026-05-03T13:28:50.784Z</time></trkpt><trkpt lat="54.0198617" lon="-2.2554217"><ele>155.0</ele><time>2026-05-03T13:28:51.783Z</time></trkpt><trkpt lat="54.0197867" lon="-2.2553183"><ele>155.0</ele><time>2026-05-03T13:28:52.784Z</time></trkpt><trkpt lat="54.01971" lon="-2.25521"><ele>154.6</ele><time>2026-05-03T13:28:53.782Z</time></trkpt><trkpt lat="54.019635" lon="-2.2551017"><ele>154.2</ele><time>2026-05-03T13:28:54.783Z</time></trkpt><trkpt lat="54.0195533" lon="-2.2549967"><ele>153.8</ele><time>2026-05-03T13:28:55.785Z</time></trkpt><trkpt lat="54.0194717" lon="-2.2548917"><ele>153.4</ele><time>2026-05-03T13:28:56.783Z</time></trkpt><trkpt lat="54.0193867" lon="-2.254795"><ele>153.0</ele><time>2026-05-03T13:28:57.783Z</time></trkpt><trkpt lat="54.0193083" lon="-2.2546983"><ele>153.0</ele><time>2026-05-03T13:28:58.784Z</time></trkpt><trkpt lat="54.0192333" lon="-2.2546117"><ele>153.0</ele><time>2026-05-03T13:28:59.787Z</time></trkpt><trkpt lat="54.0191633" lon="-2.2545317"><ele>153.0</ele><time>2026-05-03T13:29:00.787Z</time></trkpt><trkpt lat="54.0190883" lon="-2.254455"><ele>153.0</ele><time>2026-05-03T13:29:01.783Z</time></trkpt><trkpt lat="54.0190117" lon="-2.254375"><ele>153.0</ele><time>2026-05-03T13:29:02.783Z</time></trkpt><trkpt lat="54.0189383" lon="-2.2542733"><ele>153.0</ele><time>2026-05-03T13:29:03.785Z</time></trkpt><trkpt lat="54.0188617" lon="-2.2541467"><ele>153.0</ele><time>2026-05-03T13:29:04.786Z</time></trkpt><trkpt lat="54.0187883" lon="-2.2539967"><ele>153.0</ele><time>2026-05-03T13:29:05.783Z</time></trkpt><trkpt lat="54.01872" lon="-2.25383"><ele>153.0</ele><time>2026-05-03T13:29:06.784Z</time></trkpt><trkpt lat="54.018655" lon="-2.2536667"><ele>153.0</ele><time>2026-05-03T13:29:07.784Z</time></trkpt><trkpt lat="54.0185983" lon="-2.253515"><ele>153.0</ele><time>2026-05-03T13:29:08.786Z</time></trkpt><trkpt lat="54.0185417" lon="-2.2533767"><ele>153.0</ele><time>2026-05-03T13:29:09.783Z</time></trkpt><trkpt lat="54.0184883" lon="-2.2532467"><ele>153.0</ele><time>2026-05-03T13:29:10.783Z</time></trkpt><trkpt lat="54.0184367" lon="-2.253115"><ele>153.0</ele><time>2026-05-03T13:29:11.783Z</time></trkpt><trkpt lat="54.0183867" lon="-2.2529867"><ele>153.0</ele><time>2026-05-03T13:29:12.787Z</time></trkpt><trkpt lat="54.0183433" lon="-2.2528667"><ele>152.0</ele><time>2026-05-03T13:29:13.784Z</time></trkpt><trkpt lat="54.018295" lon="-2.2527533"><ele>151.0</ele><time>2026-05-03T13:29:14.783Z</time></trkpt><trkpt lat="54.0182417" lon="-2.252635"><ele>150.0</ele><time>2026-05-03T13:29:15.784Z</time></trkpt><trkpt lat="54.0181733" lon="-2.2525167"><ele>149.0</ele><time>2026-05-03T13:29:16.783Z</time></trkpt><trkpt lat="54.0180983" lon="-2.2523933"><ele>148.0</ele><time>2026-05-03T13:29:17.784Z</time></trkpt><trkpt lat="54.018025" lon="-2.25227"><ele>148.0</ele><time>2026-05-03T13:29:18.784Z</time></trkpt><trkpt lat="54.0179483" lon="-2.2521467"><ele>148.0</ele><time>2026-05-03T13:29:19.784Z</time></trkpt><trkpt lat="54.01786" lon="-2.252035"><ele>148.0</ele><time>2026-05-03T13:29:20.783Z</time></trkpt><trkpt lat="54.0177717" lon="-2.251925"><ele>148.0</ele><time>2026-05-03T13:29:21.784Z</time></trkpt><trkpt lat="54.0176817" lon="-2.2518217"><ele>148.0</ele><time>2026-05-03T13:29:22.783Z</time></trkpt><trkpt lat="54.0175867" lon="-2.2517217"><ele>147.75</ele><time>2026-05-03T13:29:23.786Z</time></trkpt><trkpt lat="54.017485" lon="-2.251635"><ele>147.5</ele><time>2026-05-03T13:29:24.788Z</time></trkpt><trkpt lat="54.0173817" lon="-2.2515483"><ele>147.25</ele><time>2026-05-03T13:29:25.784Z</time></trkpt><trkpt lat="54.0172767" lon="-2.2514667"><ele>147.0</ele><time>2026-05-03T13:29:26.783Z</time></trkpt><trkpt lat="54.017165" lon="-2.2513883"><ele>147.0</ele><time>2026-05-03T13:29:27.785Z</time></trkpt><trkpt lat="54.01705" lon="-2.2513183"><ele>147.0</ele><time>2026-05-03T13:29:28.782Z</time></trkpt><trkpt lat="54.0169433" lon="-2.2512567"><ele>147.0</ele><time>2026-05-03T13:29:29.784Z</time></trkpt><trkpt lat="54.0168467" lon="-2.2511967"><ele>147.0</ele><time>2026-05-03T13:29:30.784Z</time></trkpt><trkpt lat="54.0167633" lon="-2.2511483"><ele>147.0</ele><time>2026-05-03T13:29:31.784Z</time></trkpt><trkpt lat="54.0167" lon="-2.25112"><ele>147.2</ele><time>2026-05-03T13:29:32.785Z</time></trkpt><trkpt lat="54.0165917" lon="-2.2511233"><ele>147.39999999999998</ele><time>2026-05-03T13:29:34.786Z</time></trkpt><trkpt lat="54.01653" lon="-2.25118"><ele>147.60000000000002</ele><time>2026-05-03T13:29:35.782Z</time></trkpt><trkpt lat="54.0164467" lon="-2.25126"><ele>147.8</ele><time>2026-05-03T13:29:36.782Z</time></trkpt><trkpt lat="54.0163317" lon="-2.251345"><ele>148.0</ele><time>2026-05-03T13:29:37.784Z</time></trkpt><trkpt lat="54.0161917" lon="-2.251405"><ele>148.0</ele><time>2026-05-03T13:29:38.784Z</time></trkpt><trkpt lat="54.0160267" lon="-2.2514317"><ele>148.0</ele><time>2026-05-03T13:29:39.782Z</time></trkpt><trkpt lat="54.0158617" lon="-2.2514267"><ele>148.0</ele><time>2026-05-03T13:29:40.782Z</time></trkpt><trkpt lat="54.0157067" lon="-2.2513833"><ele>149.0</ele><time>2026-05-03T13:29:41.781Z</time></trkpt><trkpt lat="54.015555" lon="-2.251325"><ele>150.0</ele><time>2026-05-03T13:29:42.785Z</time></trkpt><trkpt lat="54.0154" lon="-2.2512533"><ele>151.0</ele><time>2026-05-03T13:29:43.783Z</time></trkpt><trkpt lat="54.0152433" lon="-2.2511717"><ele>151.0</ele><time>2026-05-03T13:29:44.783Z</time></trkpt><trkpt lat="54.015085" lon="-2.2510767"><ele>151.0</ele><time>2026-05-03T13:29:45.784Z</time></trkpt><trkpt lat="54.0149333" lon="-2.2509783"><ele>151.0</ele><time>2026-05-03T13:29:46.784Z</time></trkpt><trkpt lat="54.014785" lon="-2.2508767"><ele>151.0</ele><time>2026-05-03T13:29:47.783Z</time></trkpt><trkpt lat="54.0146417" lon="-2.2507583"><ele>151.0</ele><time>2026-05-03T13:29:48.783Z</time></trkpt><trkpt lat="54.0145" lon="-2.25063"><ele>151.0</ele><time>2026-05-03T13:29:49.784Z</time></trkpt><trkpt lat="54.0143567" lon="-2.2504983"><ele>150.66666666666669</ele><time>2026-05-03T13:29:50.782Z</time></trkpt><trkpt lat="54.014215" lon="-2.2503583"><ele>150.33333333333334</ele><time>2026-05-03T13:29:51.784Z</time></trkpt><trkpt lat="54.0140717" lon="-2.2502133"><ele>150.0</ele><time>2026-05-03T13:29:52.784Z</time></trkpt><trkpt lat="54.0139267" lon="-2.250065"><ele>149.66666666666666</ele><time>2026-05-03T13:29:53.784Z</time></trkpt><trkpt lat="54.0137733" lon="-2.24992"><ele>149.33333333333331</ele><time>2026-05-03T13:29:54.789Z</time></trkpt><trkpt lat="54.0136133" lon="-2.2497667"><ele>149.0</ele><time>2026-05-03T13:29:55.784Z</time></trkpt><trkpt lat="54.013445" lon="-2.2496033"><ele>148.66666666666666</ele><time>2026-05-03T13:29:56.784Z</time></trkpt><trkpt lat="54.0132767" lon="-2.2494317"><ele>148.33333333333334</ele><time>2026-05-03T13:29:57.787Z</time></trkpt><trkpt lat="54.0131033" lon="-2.2492633"><ele>148.0</ele><time>2026-05-03T13:29:58.784Z</time></trkpt><trkpt lat="54.01293" lon="-2.2490933"><ele>148.33333333333334</ele><time>2026-05-03T13:29:59.786Z</time></trkpt><trkpt lat="54.0127633" lon="-2.2489167"><ele>148.66666666666666</ele><time>2026-05-03T13:30:00.785Z</time></trkpt><trkpt lat="54.0126033" lon="-2.24874"><ele>149.0</ele><time>2026-05-03T13:30:01.785Z</time></trkpt><trkpt lat="54.0124467" lon="-2.2485633"><ele>148.33333333333331</ele><time>2026-05-03T13:30:02.783Z</time></trkpt><trkpt lat="54.0122917" lon="-2.248385"><ele>147.66666666666666</ele><time>2026-05-03T13:30:03.783Z</time></trkpt><trkpt lat="54.0121367" lon="-2.2482033"><ele>147.0</ele><time>2026-05-03T13:30:04.785Z</time></trkpt><trkpt lat="54.011985" lon="-2.2480167"><ele>147.0</ele><time>2026-05-03T13:30:05.787Z</time></trkpt><trkpt lat="54.0118367" lon="-2.2478367"><ele>147.0</ele><time>2026-05-03T13:30:06.786Z</time></trkpt><trkpt lat="54.0116967" lon="-2.2476567"><ele>147.0</ele><time>2026-05-03T13:30:07.782Z</time></trkpt><trkpt lat="54.01156" lon="-2.2474783"><ele>146.66666666666666</ele><time>2026-05-03T13:30:08.786Z</time></trkpt><trkpt lat="54.0114233" lon="-2.2472983"><ele>146.33333333333331</ele><time>2026-05-03T13:30:09.784Z</time></trkpt><trkpt lat="54.0112867" lon="-2.2471167"><ele>146.0</ele><time>2026-05-03T13:30:10.785Z</time></trkpt><trkpt lat="54.01115" lon="-2.2469367"><ele>146.0</ele><time>2026-05-03T13:30:11.786Z</time></trkpt><trkpt lat="54.011005" lon="-2.2467483"><ele>146.0</ele><time>2026-05-03T13:30:12.785Z</time></trkpt><trkpt lat="54.0108517" lon="-2.24656"><ele>146.0</ele><time>2026-05-03T13:30:13.783Z</time></trkpt><trkpt lat="54.0106967" lon="-2.2463817"><ele>146.33333333333331</ele><time>2026-05-03T13:30:14.789Z</time></trkpt><trkpt lat="54.01054" lon="-2.2462183"><ele>146.66666666666666</ele><time>2026-05-03T13:30:15.783Z</time></trkpt><trkpt lat="54.0103833" lon="-2.24606"><ele>147.0</ele><time>2026-05-03T13:30:16.784Z</time></trkpt><trkpt lat="54.0102283" lon="-2.2459033"><ele>147.0</ele><time>2026-05-03T13:30:17.785Z</time></trkpt><trkpt lat="54.0100717" lon="-2.2457533"><ele>147.0</ele><time>2026-05-03T13:30:18.784Z</time></trkpt><trkpt lat="54.0099183" lon="-2.2456083"><ele>147.0</ele><time>2026-05-03T13:30:19.784Z</time></trkpt><trkpt lat="54.0097733" lon="-2.2454717"><ele>147.33333333333334</ele><time>2026-05-03T13:30:20.784Z</time></trkpt><trkpt lat="54.0096367" lon="-2.2453467"><ele>147.66666666666669</ele><time>2026-05-03T13:30:21.784Z</time></trkpt><trkpt lat="54.0094967" lon="-2.2452317"><ele>148.0</ele><time>2026-05-03T13:30:22.785Z</time></trkpt><trkpt lat="54.00936" lon="-2.2451233"><ele>148.0</ele><time>2026-05-03T13:30:23.785Z</time></trkpt><trkpt lat="54.009225" lon="-2.2450117"><ele>148.0</ele><time>2026-05-03T13:30:24.781Z</time></trkpt><trkpt lat="54.00909" lon="-2.2448767"><ele>148.0</ele><time>2026-05-03T13:30:25.784Z</time></trkpt><trkpt lat="54.0089533" lon="-2.2447283"><ele>147.0</ele><time>2026-05-03T13:30:26.783Z</time></trkpt><trkpt lat="54.0087933" lon="-2.244575"><ele>146.0</ele><time>2026-05-03T13:30:27.784Z</time></trkpt><trkpt lat="54.0086433" lon="-2.2444017"><ele>145.0</ele><time>2026-05-03T13:30:28.781Z</time></trkpt><trkpt lat="54.0085" lon="-2.2442283"><ele>145.0</ele><time>2026-05-03T13:30:29.783Z</time></trkpt><trkpt lat="54.0083617" lon="-2.2440517"><ele>145.0</ele><time>2026-05-03T13:30:30.784Z</time></trkpt><trkpt lat="54.0082267" lon="-2.2438633"><ele>145.0</ele><time>2026-05-03T13:30:31.786Z</time></trkpt><trkpt lat="54.0080917" lon="-2.2436667"><ele>145.0</ele><time>2026-05-03T13:30:32.785Z</time></trkpt><trkpt lat="54.0079567" lon="-2.2434717"><ele>145.0</ele><time>2026-05-03T13:30:33.788Z</time></trkpt><trkpt lat="54.007825" lon="-2.2432783"><ele>145.0</ele><time>2026-05-03T13:30:34.785Z</time></trkpt><trkpt lat="54.0077017" lon="-2.2430983"><ele>145.0</ele><time>2026-05-03T13:30:35.782Z</time></trkpt><trkpt lat="54.00759" lon="-2.2429333"><ele>145.0</ele><time>2026-05-03T13:30:36.785Z</time></trkpt><trkpt lat="54.007485" lon="-2.2427733"><ele>145.0</ele><time>2026-05-03T13:30:37.784Z</time></trkpt><trkpt lat="54.00738" lon="-2.2426217"><ele>145.0</ele><time>2026-05-03T13:30:38.786Z</time></trkpt><trkpt lat="54.0072817" lon="-2.2424867"><ele>145.0</ele><time>2026-05-03T13:30:39.787Z</time></trkpt><trkpt lat="54.0071983" lon="-2.2423683"><ele>145.0</ele><time>2026-05-03T13:30:40.785Z</time></trkpt><trkpt lat="54.007125" lon="-2.2422617"><ele>145.0</ele><time>2026-05-03T13:30:41.787Z</time></trkpt><trkpt lat="54.0070533" lon="-2.242165"><ele>145.0</ele><time>2026-05-03T13:30:42.787Z</time></trkpt><trkpt lat="54.0069883" lon="-2.242075"><ele>145.0</ele><time>2026-05-03T13:30:43.785Z</time></trkpt><trkpt lat="54.0069267" lon="-2.241985"><ele>144.8</ele><time>2026-05-03T13:30:44.787Z</time></trkpt><trkpt lat="54.0068617" lon="-2.2418983"><ele>144.6</ele><time>2026-05-03T13:30:45.787Z</time></trkpt><trkpt lat="54.0067967" lon="-2.2418133"><ele>144.4</ele><time>2026-05-03T13:30:46.785Z</time></trkpt><trkpt lat="54.0067233" lon="-2.2417233"><ele>144.2</ele><time>2026-05-03T13:30:47.781Z</time></trkpt><trkpt lat="54.0066167" lon="-2.241595"><ele>144.0</ele><time>2026-05-03T13:30:48.787Z</time></trkpt><trkpt lat="54.0064867" lon="-2.2414283"><ele>143.33333333333334</ele><time>2026-05-03T13:30:49.784Z</time></trkpt><trkpt lat="54.0063333" lon="-2.2412167"><ele>142.66666666666669</ele><time>2026-05-03T13:30:50.784Z</time></trkpt><trkpt lat="54.0061667" lon="-2.2409817"><ele>142.0</ele><time>2026-05-03T13:30:51.783Z</time></trkpt><trkpt lat="54.005985" lon="-2.2407483"><ele>142.0</ele><time>2026-05-03T13:30:52.784Z</time></trkpt><trkpt lat="54.0058083" lon="-2.2405183"><ele>142.0</ele><time>2026-05-03T13:30:53.783Z</time></trkpt><trkpt lat="54.0056317" lon="-2.2402683"><ele>142.0</ele><time>2026-05-03T13:30:54.783Z</time></trkpt><trkpt lat="54.00545" lon="-2.2399983"><ele>142.0</ele><time>2026-05-03T13:30:55.785Z</time></trkpt><trkpt lat="54.0052667" lon="-2.239715"><ele>141.0</ele><time>2026-05-03T13:30:56.782Z</time></trkpt><trkpt lat="54.0051017" lon="-2.23943"><ele>140.0</ele><time>2026-05-03T13:30:57.782Z</time></trkpt><trkpt lat="54.00494" lon="-2.2391517"><ele>140.0</ele><time>2026-05-03T13:30:58.783Z</time></trkpt><trkpt lat="54.004785" lon="-2.238875"><ele>140.0</ele><time>2026-05-03T13:30:59.784Z</time></trkpt><trkpt lat="54.0046283" lon="-2.2385967"><ele>140.0</ele><time>2026-05-03T13:31:00.783Z</time></trkpt><trkpt lat="54.0044767" lon="-2.2383133"><ele>140.0</ele><time>2026-05-03T13:31:01.784Z</time></trkpt><trkpt lat="54.0043317" lon="-2.238015"><ele>140.5</ele><time>2026-05-03T13:31:02.784Z</time></trkpt><trkpt lat="54.0041967" lon="-2.2377017"><ele>141.0</ele><time>2026-05-03T13:31:03.783Z</time></trkpt><trkpt lat="54.004065" lon="-2.23737"><ele>141.5</ele><time>2026-05-03T13:31:04.785Z</time></trkpt><trkpt lat="54.0039383" lon="-2.2370217"><ele>142.0</ele><time>2026-05-03T13:31:05.787Z</time></trkpt><trkpt lat="54.0038133" lon="-2.23667"><ele>140.5</ele><time>2026-05-03T13:31:06.783Z</time></trkpt><trkpt lat="54.003695" lon="-2.2363083"><ele>139.0</ele><time>2026-05-03T13:31:07.784Z</time></trkpt><trkpt lat="54.0035733" lon="-2.2359517"><ele>137.0</ele><time>2026-05-03T13:31:08.786Z</time></trkpt><trkpt lat="54.0034483" lon="-2.2356"><ele>135.0</ele><time>2026-05-03T13:31:09.784Z</time></trkpt><trkpt lat="54.00332" lon="-2.2352483"><ele>135.0</ele><time>2026-05-03T13:31:10.784Z</time></trkpt><trkpt lat="54.0031933" lon="-2.2348983"><ele>135.0</ele><time>2026-05-03T13:31:11.785Z</time></trkpt><trkpt lat="54.0030633" lon="-2.23455"><ele>134.5</ele><time>2026-05-03T13:31:12.787Z</time></trkpt><trkpt lat="54.0029267" lon="-2.234205"><ele>134.0</ele><time>2026-05-03T13:31:13.786Z</time></trkpt><trkpt lat="54.0027933" lon="-2.2338533"><ele>134.0</ele><time>2026-05-03T13:31:14.787Z</time></trkpt><trkpt lat="54.00266" lon="-2.2335"><ele>134.0</ele><time>2026-05-03T13:31:15.786Z</time></trkpt><trkpt lat="54.0025267" lon="-2.2331483"><ele>134.0</ele><time>2026-05-03T13:31:16.788Z</time></trkpt><trkpt lat="54.0023917" lon="-2.2328033"><ele>134.0</ele><time>2026-05-03T13:31:17.789Z</time></trkpt><trkpt lat="54.002255" lon="-2.232465"><ele>135.0</ele><time>2026-05-03T13:31:18.786Z</time></trkpt><trkpt lat="54.0021167" lon="-2.232125"><ele>136.0</ele><time>2026-05-03T13:31:19.788Z</time></trkpt><trkpt lat="54.0019817" lon="-2.2317817"><ele>137.0</ele><time>2026-05-03T13:31:20.786Z</time></trkpt><trkpt lat="54.0018467" lon="-2.23144"><ele>138.0</ele><time>2026-05-03T13:31:21.787Z</time></trkpt><trkpt lat="54.00172" lon="-2.2310933"><ele>138.0</ele><time>2026-05-03T13:31:22.784Z</time></trkpt><trkpt lat="54.0016" lon="-2.2307433"><ele>138.0</ele><time>2026-05-03T13:31:23.784Z</time></trkpt><trkpt lat="54.0014817" lon="-2.2304"><ele>139.5</ele><time>2026-05-03T13:31:24.784Z</time></trkpt><trkpt lat="54.0013717" lon="-2.23006"><ele>141.0</ele><time>2026-05-03T13:31:25.785Z</time></trkpt><trkpt lat="54.0012683" lon="-2.2297217"><ele>141.66666666666666</ele><time>2026-05-03T13:31:26.786Z</time></trkpt><trkpt lat="54.001175" lon="-2.2293883"><ele>142.33333333333331</ele><time>2026-05-03T13:31:27.784Z</time></trkpt><trkpt lat="54.00108" lon="-2.2290783"><ele>143.0</ele><time>2026-05-03T13:31:28.785Z</time></trkpt><trkpt lat="54.000975" lon="-2.2287967"><ele>143.0</ele><time>2026-05-03T13:31:29.784Z</time></trkpt><trkpt lat="54.00084" lon="-2.22854"><ele>143.0</ele><time>2026-05-03T13:31:30.782Z</time></trkpt><trkpt lat="54.0006917" lon="-2.2282983"><ele>143.0</ele><time>2026-05-03T13:31:31.783Z</time></trkpt><trkpt lat="54.0005433" lon="-2.2280517"><ele>143.0</ele><time>2026-05-03T13:31:32.784Z</time></trkpt><trkpt lat="54.0004" lon="-2.227805"><ele>143.0</ele><time>2026-05-03T13:31:33.784Z</time></trkpt><trkpt lat="54.00027" lon="-2.2275717"><ele>143.0</ele><time>2026-05-03T13:31:34.783Z</time></trkpt><trkpt lat="54.0001383" lon="-2.2273683"><ele>143.0</ele><time>2026-05-03T13:31:35.783Z</time></trkpt><trkpt lat="53.9999917" lon="-2.2272083"><ele>143.0</ele><time>2026-05-03T13:31:36.783Z</time></trkpt><trkpt lat="53.9998183" lon="-2.227085"><ele>143.0</ele><time>2026-05-03T13:31:37.783Z</time></trkpt><trkpt lat="53.9996283" lon="-2.2269967"><ele>143.0</ele><time>2026-05-03T13:31:38.783Z</time></trkpt><trkpt lat="53.9994167" lon="-2.2269183"><ele>143.0</ele><time>2026-05-03T13:31:39.782Z</time></trkpt><trkpt lat="53.99919" lon="-2.2268433"><ele>143.0</ele><time>2026-05-03T13:31:40.783Z</time></trkpt><trkpt lat="53.9989517" lon="-2.2267733"><ele>140.0</ele><time>2026-05-03T13:31:41.785Z</time></trkpt><trkpt lat="53.9987067" lon="-2.2267067"><ele>137.0</ele><time>2026-05-03T13:31:42.786Z</time></trkpt><trkpt lat="53.9984633" lon="-2.2266333"><ele>137.5</ele><time>2026-05-03T13:31:43.787Z</time></trkpt><trkpt lat="53.99822" lon="-2.22655"><ele>138.0</ele><time>2026-05-03T13:31:44.783Z</time></trkpt><trkpt lat="53.99798" lon="-2.2264467"><ele>138.0</ele><time>2026-05-03T13:31:45.783Z</time></trkpt><trkpt lat="53.997745" lon="-2.2263267"><ele>138.0</ele><time>2026-05-03T13:31:46.784Z</time></trkpt><trkpt lat="53.99751" lon="-2.2262017"><ele>137.5</ele><time>2026-05-03T13:31:47.783Z</time></trkpt><trkpt lat="53.99728" lon="-2.2260767"><ele>137.0</ele><time>2026-05-03T13:31:48.788Z</time></trkpt><trkpt lat="53.9970567" lon="-2.2259533"><ele>137.0</ele><time>2026-05-03T13:31:49.787Z</time></trkpt><trkpt lat="53.996835" lon="-2.2258267"><ele>137.0</ele><time>2026-05-03T13:31:50.786Z</time></trkpt><trkpt lat="53.9966117" lon="-2.2256917"><ele>138.0</ele><time>2026-05-03T13:31:51.786Z</time></trkpt><trkpt lat="53.9963833" lon="-2.22556"><ele>139.0</ele><time>2026-05-03T13:31:52.783Z</time></trkpt><trkpt lat="53.996155" lon="-2.2254517"><ele>139.0</ele><time>2026-05-03T13:31:53.783Z</time></trkpt><trkpt lat="53.99593" lon="-2.2253783"><ele>139.0</ele><time>2026-05-03T13:31:54.788Z</time></trkpt><trkpt lat="53.99572" lon="-2.2253183"><ele>139.0</ele><time>2026-05-03T13:31:55.787Z</time></trkpt><trkpt lat="53.995505" lon="-2.2252433"><ele>139.5</ele><time>2026-05-03T13:31:56.784Z</time></trkpt><trkpt lat="53.9952833" lon="-2.225145"><ele>140.0</ele><time>2026-05-03T13:31:57.784Z</time></trkpt><trkpt lat="53.9950633" lon="-2.22504"><ele>139.33333333333331</ele><time>2026-05-03T13:31:58.784Z</time></trkpt><trkpt lat="53.994845" lon="-2.2249383"><ele>138.66666666666666</ele><time>2026-05-03T13:31:59.785Z</time></trkpt><trkpt lat="53.9946367" lon="-2.2248467"><ele>138.0</ele><time>2026-05-03T13:32:00.785Z</time></trkpt><trkpt lat="53.9944333" lon="-2.2247467"><ele>139.33333333333334</ele><time>2026-05-03T13:32:01.785Z</time></trkpt><trkpt lat="53.99423" lon="-2.224625"><ele>140.66666666666669</ele><time>2026-05-03T13:32:02.783Z</time></trkpt><trkpt lat="53.9940267" lon="-2.224475"><ele>142.0</ele><time>2026-05-03T13:32:03.782Z</time></trkpt><trkpt lat="53.9938267" lon="-2.2242867"><ele>142.5</ele><time>2026-05-03T13:32:04.784Z</time></trkpt><trkpt lat="53.9936267" lon="-2.22407"><ele>143.0</ele><time>2026-05-03T13:32:05.783Z</time></trkpt><trkpt lat="53.9934317" lon="-2.2238167"><ele>143.0</ele><time>2026-05-03T13:32:06.784Z</time></trkpt><trkpt lat="53.9932417" lon="-2.2235367"><ele>143.0</ele><time>2026-05-03T13:32:07.785Z</time></trkpt><trkpt lat="53.9930583" lon="-2.2232417"><ele>145.5</ele><time>2026-05-03T13:32:08.786Z</time></trkpt><trkpt lat="53.992885" lon="-2.2229517"><ele>148.0</ele><time>2026-05-03T13:32:09.785Z</time></trkpt><trkpt lat="53.9927183" lon="-2.2226817"><ele>148.0</ele><time>2026-05-03T13:32:10.784Z</time></trkpt><trkpt lat="53.99255" lon="-2.22244"><ele>148.0</ele><time>2026-05-03T13:32:11.783Z</time></trkpt><trkpt lat="53.9923833" lon="-2.2222317"><ele>148.0</ele><time>2026-05-03T13:32:12.783Z</time></trkpt><trkpt lat="53.9922117" lon="-2.2220517"><ele>147.33333333333334</ele><time>2026-05-03T13:32:13.783Z</time></trkpt><trkpt lat="53.99202" lon="-2.2219067"><ele>146.66666666666666</ele><time>2026-05-03T13:32:14.782Z</time></trkpt><trkpt lat="53.9918133" lon="-2.2218017"><ele>146.0</ele><time>2026-05-03T13:32:15.783Z</time></trkpt><trkpt lat="53.99161" lon="-2.2217267"><ele>145.66666666666666</ele><time>2026-05-03T13:32:16.784Z</time></trkpt><trkpt lat="53.9914217" lon="-2.2216733"><ele>145.33333333333334</ele><time>2026-05-03T13:32:17.781Z</time></trkpt><trkpt lat="53.9912333" lon="-2.2216617"><ele>145.0</ele><time>2026-05-03T13:32:18.784Z</time></trkpt><trkpt lat="53.9910467" lon="-2.2217083"><ele>145.0</ele><time>2026-05-03T13:32:19.783Z</time></trkpt><trkpt lat="53.9908567" lon="-2.221805"><ele>145.0</ele><time>2026-05-03T13:32:20.782Z</time></trkpt><trkpt lat="53.9906633" lon="-2.22198"><ele>145.0</ele><time>2026-05-03T13:32:21.784Z</time></trkpt><trkpt lat="53.99047" lon="-2.2221167"><ele>145.0</ele><time>2026-05-03T13:32:22.783Z</time></trkpt><trkpt lat="53.9902717" lon="-2.2222333"><ele>145.0</ele><time>2026-05-03T13:32:23.783Z</time></trkpt><trkpt lat="53.990055" lon="-2.22229"><ele>145.0</ele><time>2026-05-03T13:32:24.785Z</time></trkpt><trkpt lat="53.9898283" lon="-2.2222867"><ele>144.0</ele><time>2026-05-03T13:32:25.784Z</time></trkpt><trkpt lat="53.9895967" lon="-2.2222567"><ele>143.0</ele><time>2026-05-03T13:32:26.786Z</time></trkpt><trkpt lat="53.98936" lon="-2.2222083"><ele>139.5</ele><time>2026-05-03T13:32:27.782Z</time></trkpt><trkpt lat="53.9891333" lon="-2.22216"><ele>136.0</ele><time>2026-05-03T13:32:28.781Z</time></trkpt><trkpt lat="53.9889117" lon="-2.222095"><ele>136.0</ele><time>2026-05-03T13:32:29.783Z</time></trkpt><trkpt lat="53.9886967" lon="-2.222"><ele>136.0</ele><time>2026-05-03T13:32:30.782Z</time></trkpt><trkpt lat="53.9884817" lon="-2.2218683"><ele>134.5</ele><time>2026-05-03T13:32:31.784Z</time></trkpt><trkpt lat="53.9882617" lon="-2.2216733"><ele>133.0</ele><time>2026-05-03T13:32:32.783Z</time></trkpt><trkpt lat="53.9880217" lon="-2.2214633"><ele>133.0</ele><time>2026-05-03T13:32:33.787Z</time></trkpt><trkpt lat="53.987775" lon="-2.2212367"><ele>133.0</ele><time>2026-05-03T13:32:34.783Z</time></trkpt><trkpt lat="53.9875283" lon="-2.2210017"><ele>130.5</ele><time>2026-05-03T13:32:35.784Z</time></trkpt><trkpt lat="53.98728" lon="-2.2207633"><ele>128.0</ele><time>2026-05-03T13:32:36.783Z</time></trkpt><trkpt lat="53.987035" lon="-2.220525"><ele>128.0</ele><time>2026-05-03T13:32:37.786Z</time></trkpt><trkpt lat="53.9867917" lon="-2.2202783"><ele>128.0</ele><time>2026-05-03T13:32:38.784Z</time></trkpt><trkpt lat="53.9865483" lon="-2.2200333"><ele>129.0</ele><time>2026-05-03T13:32:39.782Z</time></trkpt><trkpt lat="53.986305" lon="-2.2197917"><ele>130.0</ele><time>2026-05-03T13:32:40.784Z</time></trkpt><trkpt lat="53.9860633" lon="-2.2195467"><ele>125.5</ele><time>2026-05-03T13:32:41.787Z</time></trkpt><trkpt lat="53.98583" lon="-2.2193033"><ele>121.0</ele><time>2026-05-03T13:32:42.786Z</time></trkpt><trkpt lat="53.9856033" lon="-2.21907"><ele>125.0</ele><time>2026-05-03T13:32:43.785Z</time></trkpt><trkpt lat="53.9853883" lon="-2.21885"><ele>129.0</ele><time>2026-05-03T13:32:44.785Z</time></trkpt><trkpt lat="53.98519" lon="-2.2186467"><ele>127.33333333333334</ele><time>2026-05-03T13:32:45.784Z</time></trkpt><trkpt lat="53.9850017" lon="-2.21845"><ele>125.66666666666667</ele><time>2026-05-03T13:32:46.786Z</time></trkpt><trkpt lat="53.9848267" lon="-2.2182583"><ele>124.0</ele><time>2026-05-03T13:32:47.786Z</time></trkpt><trkpt lat="53.9846533" lon="-2.2180867"><ele>124.0</ele><time>2026-05-03T13:32:48.783Z</time></trkpt><trkpt lat="53.98449" lon="-2.2179433"><ele>124.0</ele><time>2026-05-03T13:32:49.784Z</time></trkpt><trkpt lat="53.9843317" lon="-2.2178283"><ele>124.0</ele><time>2026-05-03T13:32:50.784Z</time></trkpt><trkpt lat="53.9841783" lon="-2.2177333"><ele>123.66666666666667</ele><time>2026-05-03T13:32:51.784Z</time></trkpt><trkpt lat="53.9840267" lon="-2.2176783"><ele>123.33333333333334</ele><time>2026-05-03T13:32:52.786Z</time></trkpt><trkpt lat="53.98387" lon="-2.21769"><ele>123.0</ele><time>2026-05-03T13:32:53.785Z</time></trkpt><trkpt lat="53.98371" lon="-2.21778"><ele>123.0</ele><time>2026-05-03T13:32:54.784Z</time></trkpt><trkpt lat="53.98356" lon="-2.2179433"><ele>123.0</ele><time>2026-05-03T13:32:55.784Z</time></trkpt><trkpt lat="53.9834167" lon="-2.2180883"><ele>123.0</ele><time>2026-05-03T13:32:56.785Z</time></trkpt><trkpt lat="53.98327" lon="-2.2181867"><ele>121.66666666666666</ele><time>2026-05-03T13:32:57.784Z</time></trkpt><trkpt lat="53.983105" lon="-2.2182483"><ele>120.33333333333333</ele><time>2026-05-03T13:32:58.785Z</time></trkpt><trkpt lat="53.982925" lon="-2.2182733"><ele>119.0</ele><time>2026-05-03T13:32:59.785Z</time></trkpt><trkpt lat="53.98273" lon="-2.218265"><ele>119.0</ele><time>2026-05-03T13:33:00.785Z</time></trkpt><trkpt lat="53.9825183" lon="-2.2182433"><ele>119.0</ele><time>2026-05-03T13:33:01.785Z</time></trkpt><trkpt lat="53.9822983" lon="-2.2182117"><ele>119.0</ele><time>2026-05-03T13:33:02.784Z</time></trkpt><trkpt lat="53.982075" lon="-2.2181817"><ele>119.0</ele><time>2026-05-03T13:33:03.784Z</time></trkpt><trkpt lat="53.98185" lon="-2.2181533"><ele>119.0</ele><time>2026-05-03T13:33:04.787Z</time></trkpt><trkpt lat="53.9816167" lon="-2.218135"><ele>119.0</ele><time>2026-05-03T13:33:05.786Z</time></trkpt><trkpt lat="53.98138" lon="-2.2181217"><ele>119.0</ele><time>2026-05-03T13:33:06.783Z</time></trkpt><trkpt lat="53.9811333" lon="-2.218135"><ele>118.0</ele><time>2026-05-03T13:33:07.785Z</time></trkpt><trkpt lat="53.9808833" lon="-2.218185"><ele>117.0</ele><time>2026-05-03T13:33:08.784Z</time></trkpt><trkpt lat="53.980635" lon="-2.2182517"><ele>117.0</ele><time>2026-05-03T13:33:09.787Z</time></trkpt><trkpt lat="53.9803933" lon="-2.2183267"><ele>117.0</ele><time>2026-05-03T13:33:10.783Z</time></trkpt><trkpt lat="53.9801517" lon="-2.2184067"><ele>121.0</ele><time>2026-05-03T13:33:11.783Z</time></trkpt><trkpt lat="53.9799117" lon="-2.2184867"><ele>125.0</ele><time>2026-05-03T13:33:12.783Z</time></trkpt><trkpt lat="53.97969" lon="-2.2185683"><ele>125.0</ele><time>2026-05-03T13:33:13.784Z</time></trkpt><trkpt lat="53.9794783" lon="-2.2186567"><ele>125.0</ele><time>2026-05-03T13:33:14.784Z</time></trkpt><trkpt lat="53.9792733" lon="-2.2187417"><ele>125.0</ele><time>2026-05-03T13:33:15.784Z</time></trkpt><trkpt lat="53.9790783" lon="-2.2188233"><ele>124.0</ele><time>2026-05-03T13:33:16.782Z</time></trkpt><trkpt lat="53.9789" lon="-2.218905"><ele>123.0</ele><time>2026-05-03T13:33:17.785Z</time></trkpt><trkpt lat="53.97874" lon="-2.2189733"><ele>122.0</ele><time>2026-05-03T13:33:18.784Z</time></trkpt><trkpt lat="53.9786017" lon="-2.219035"><ele>122.0</ele><time>2026-05-03T13:33:19.784Z</time></trkpt><trkpt lat="53.9784917" lon="-2.2190933"><ele>121.99999999999999</ele><time>2026-05-03T13:33:20.783Z</time></trkpt><trkpt lat="53.97841" lon="-2.2191417"><ele>121.99999999999999</ele><time>2026-05-03T13:33:21.784Z</time></trkpt><trkpt lat="53.978345" lon="-2.21918"><ele>122.0</ele><time>2026-05-03T13:33:22.783Z</time></trkpt><trkpt lat="53.9782667" lon="-2.2191683"><ele>122.0</ele><time>2026-05-03T13:33:24.783Z</time></trkpt><trkpt lat="53.97832" lon="-2.2190067"><ele>125.0</ele><time>2026-05-03T13:34:01.784Z</time></trkpt><trkpt lat="53.9783017" lon="-2.2188067"><ele>127.99999999999999</ele><time>2026-05-03T13:34:03.783Z</time></trkpt><trkpt lat="53.97828" lon="-2.2186667"><ele>131.0</ele><time>2026-05-03T13:34:04.784Z</time></trkpt><trkpt lat="53.9782483" lon="-2.2185017"><ele>134.0</ele><time>2026-05-03T13:34:05.785Z</time></trkpt><trkpt lat="53.9782067" lon="-2.2183267"><ele>137.0</ele><time>2026-05-03T13:34:06.784Z</time></trkpt><trkpt lat="53.9781433" lon="-2.2181183"><ele>139.0</ele><time>2026-05-03T13:34:07.788Z</time></trkpt><trkpt lat="53.978085" lon="-2.21788"><ele>141.0</ele><time>2026-05-03T13:34:08.784Z</time></trkpt><trkpt lat="53.97802" lon="-2.2176367"><ele>143.0</ele><time>2026-05-03T13:34:09.783Z</time></trkpt><trkpt lat="53.9779483" lon="-2.2173867"><ele>144.0</ele><time>2026-05-03T13:34:10.784Z</time></trkpt><trkpt lat="53.977875" lon="-2.2171467"><ele>145.0</ele><time>2026-05-03T13:34:11.786Z</time></trkpt><trkpt lat="53.9778" lon="-2.2169167"><ele>146.0</ele><time>2026-05-03T13:34:12.784Z</time></trkpt><trkpt lat="53.9777183" lon="-2.2167067"><ele>146.0</ele><time>2026-05-03T13:34:13.785Z</time></trkpt><trkpt lat="53.9776267" lon="-2.21651"><ele>146.0</ele><time>2026-05-03T13:34:14.784Z</time></trkpt><trkpt lat="53.97753" lon="-2.2163283"><ele>146.0</ele><time>2026-05-03T13:34:15.786Z</time></trkpt><trkpt lat="53.9774367" lon="-2.2161633"><ele>146.0</ele><time>2026-05-03T13:34:16.783Z</time></trkpt><trkpt lat="53.9773467" lon="-2.2160117"><ele>148.25</ele><time>2026-05-03T13:34:17.784Z</time></trkpt><trkpt lat="53.9772617" lon="-2.2158683"><ele>150.5</ele><time>2026-05-03T13:34:18.784Z</time></trkpt><trkpt lat="53.97718" lon="-2.2157233"><ele>152.75</ele><time>2026-05-03T13:34:19.784Z</time></trkpt><trkpt lat="53.9771017" lon="-2.2155717"><ele>155.0</ele><time>2026-05-03T13:34:20.783Z</time></trkpt><trkpt lat="53.9770317" lon="-2.21539"><ele>155.0</ele><time>2026-05-03T13:34:21.784Z</time></trkpt><trkpt lat="53.9769667" lon="-2.2151683"><ele>155.0</ele><time>2026-05-03T13:34:22.783Z</time></trkpt><trkpt lat="53.9769033" lon="-2.2149033"><ele>155.0</ele><time>2026-05-03T13:34:23.784Z</time></trkpt><trkpt lat="53.9768367" lon="-2.2146033"><ele>155.66666666666666</ele><time>2026-05-03T13:34:24.784Z</time></trkpt><trkpt lat="53.976765" lon="-2.214275"><ele>156.33333333333334</ele><time>2026-05-03T13:34:25.783Z</time></trkpt><trkpt lat="53.97669" lon="-2.2139467"><ele>157.0</ele><time>2026-05-03T13:34:26.782Z</time></trkpt><trkpt lat="53.976615" lon="-2.213625"><ele>157.33333333333334</ele><time>2026-05-03T13:34:27.784Z</time></trkpt><trkpt lat="53.9765383" lon="-2.2133317"><ele>157.66666666666666</ele><time>2026-05-03T13:34:28.786Z</time></trkpt><trkpt lat="53.9764633" lon="-2.2130683"><ele>158.0</ele><time>2026-05-03T13:34:29.782Z</time></trkpt><trkpt lat="53.97638" lon="-2.2128183"><ele>158.33333333333331</ele><time>2026-05-03T13:34:30.785Z</time></trkpt><trkpt lat="53.9763033" lon="-2.2125783"><ele>158.66666666666666</ele><time>2026-05-03T13:34:31.789Z</time></trkpt><trkpt lat="53.9762317" lon="-2.2123367"><ele>159.0</ele><time>2026-05-03T13:34:32.786Z</time></trkpt><trkpt lat="53.976165" lon="-2.2120967"><ele>159.0</ele><time>2026-05-03T13:34:33.784Z</time></trkpt><trkpt lat="53.9761033" lon="-2.2118533"><ele>159.0</ele><time>2026-05-03T13:34:34.785Z</time></trkpt><trkpt lat="53.97605" lon="-2.2116083"><ele>159.0</ele><time>2026-05-03T13:34:35.784Z</time></trkpt><trkpt lat="53.9760067" lon="-2.2113617"><ele>159.66666666666666</ele><time>2026-05-03T13:34:36.783Z</time></trkpt><trkpt lat="53.97597" lon="-2.2111117"><ele>160.33333333333331</ele><time>2026-05-03T13:34:37.785Z</time></trkpt><trkpt lat="53.975945" lon="-2.21086"><ele>161.0</ele><time>2026-05-03T13:34:38.784Z</time></trkpt><trkpt lat="53.975925" lon="-2.210605"><ele>161.5</ele><time>2026-05-03T13:34:39.783Z</time></trkpt><trkpt lat="53.9759133" lon="-2.2103583"><ele>162.0</ele><time>2026-05-03T13:34:40.783Z</time></trkpt><trkpt lat="53.9759033" lon="-2.2101367"><ele>162.5</ele><time>2026-05-03T13:34:41.786Z</time></trkpt><trkpt lat="53.9758917" lon="-2.209945"><ele>163.0</ele><time>2026-05-03T13:34:42.782Z</time></trkpt><trkpt lat="53.9758833" lon="-2.2097767"><ele>163.33333333333334</ele><time>2026-05-03T13:34:43.783Z</time></trkpt><trkpt lat="53.975875" lon="-2.20965"><ele>163.66666666666669</ele><time>2026-05-03T13:34:44.784Z</time></trkpt><trkpt lat="53.97586" lon="-2.2094833"><ele>164.0</ele><time>2026-05-03T13:34:46.784Z</time></trkpt><trkpt lat="53.9758517" lon="-2.2093517"><ele>164.33333333333334</ele><time>2026-05-03T13:34:49.783Z</time></trkpt><trkpt lat="53.9758433" lon="-2.2091633"><ele>164.66666666666666</ele><time>2026-05-03T13:37:34.783Z</time></trkpt><trkpt lat="53.975825" lon="-2.2090483"><ele>165.0</ele><time>2026-05-03T13:37:35.784Z</time></trkpt><trkpt lat="53.97581" lon="-2.2089167"><ele>165.8</ele><time>2026-05-03T13:37:36.783Z</time></trkpt><trkpt lat="53.9757933" lon="-2.2087733"><ele>166.6</ele><time>2026-05-03T13:37:37.783Z</time></trkpt><trkpt lat="53.9757717" lon="-2.2086233"><ele>167.39999999999998</ele><time>2026-05-03T13:37:38.782Z</time></trkpt><trkpt lat="53.975755" lon="-2.208435"><ele>168.2</ele><time>2026-05-03T13:37:39.784Z</time></trkpt><trkpt lat="53.975735" lon="-2.2082367"><ele>169.0</ele><time>2026-05-03T13:37:40.783Z</time></trkpt><trkpt lat="53.9757167" lon="-2.2080267"><ele>170.0</ele><time>2026-05-03T13:37:41.784Z</time></trkpt><trkpt lat="53.9756967" lon="-2.2078267"><ele>171.0</ele><time>2026-05-03T13:37:42.784Z</time></trkpt><trkpt lat="53.9756767" lon="-2.207625"><ele>172.0</ele><time>2026-05-03T13:37:43.783Z</time></trkpt><trkpt lat="53.975655" lon="-2.207415"><ele>173.0</ele><time>2026-05-03T13:37:44.784Z</time></trkpt><trkpt lat="53.97563" lon="-2.2071983"><ele>174.33333333333331</ele><time>2026-05-03T13:37:45.784Z</time></trkpt><trkpt lat="53.975595" lon="-2.206975"><ele>175.66666666666666</ele><time>2026-05-03T13:37:46.784Z</time></trkpt><trkpt lat="53.9755433" lon="-2.2067217"><ele>177.0</ele><time>2026-05-03T13:37:47.783Z</time></trkpt><trkpt lat="53.975475" lon="-2.2064533"><ele>179.0</ele><time>2026-05-03T13:37:48.783Z</time></trkpt><trkpt lat="53.9754" lon="-2.2061783"><ele>181.0</ele><time>2026-05-03T13:37:49.784Z</time></trkpt><trkpt lat="53.9753183" lon="-2.2058833"><ele>183.0</ele><time>2026-05-03T13:37:50.782Z</time></trkpt><trkpt lat="53.9752367" lon="-2.205585"><ele>184.33333333333334</ele><time>2026-05-03T13:37:51.784Z</time></trkpt><trkpt lat="53.9751583" lon="-2.205295"><ele>185.66666666666669</ele><time>2026-05-03T13:37:52.787Z</time></trkpt><trkpt lat="53.9750883" lon="-2.2050167"><ele>187.0</ele><time>2026-05-03T13:37:53.784Z</time></trkpt><trkpt lat="53.9750217" lon="-2.204755"><ele>187.66666666666669</ele><time>2026-05-03T13:37:54.784Z</time></trkpt><trkpt lat="53.9749583" lon="-2.2044967"><ele>188.33333333333334</ele><time>2026-05-03T13:37:55.783Z</time></trkpt><trkpt lat="53.9749067" lon="-2.2042383"><ele>189.0</ele><time>2026-05-03T13:37:56.784Z</time></trkpt><trkpt lat="53.9748667" lon="-2.2039733"><ele>189.66666666666666</ele><time>2026-05-03T13:37:57.784Z</time></trkpt><trkpt lat="53.9748367" lon="-2.20368"><ele>190.33333333333331</ele><time>2026-05-03T13:37:58.784Z</time></trkpt><trkpt lat="53.9748017" lon="-2.2033733"><ele>191.0</ele><time>2026-05-03T13:37:59.784Z</time></trkpt><trkpt lat="53.9747717" lon="-2.203065"><ele>191.33333333333331</ele><time>2026-05-03T13:38:00.783Z</time></trkpt><trkpt lat="53.974745" lon="-2.2027617"><ele>191.66666666666666</ele><time>2026-05-03T13:38:01.784Z</time></trkpt><trkpt lat="53.9747167" lon="-2.2024833"><ele>192.0</ele><time>2026-05-03T13:38:02.784Z</time></trkpt><trkpt lat="53.9746933" lon="-2.202215"><ele>192.0</ele><time>2026-05-03T13:38:03.783Z</time></trkpt><trkpt lat="53.974675" lon="-2.2019483"><ele>192.0</ele><time>2026-05-03T13:38:04.784Z</time></trkpt><trkpt lat="53.9746583" lon="-2.2016917"><ele>192.0</ele><time>2026-05-03T13:38:05.788Z</time></trkpt><trkpt lat="53.974645" lon="-2.201435"><ele>192.5</ele><time>2026-05-03T13:38:06.784Z</time></trkpt><trkpt lat="53.9746333" lon="-2.2011933"><ele>193.0</ele><time>2026-05-03T13:38:07.786Z</time></trkpt><trkpt lat="53.97462" lon="-2.2009517"><ele>193.5</ele><time>2026-05-03T13:38:08.784Z</time></trkpt><trkpt lat="53.974605" lon="-2.2006967"><ele>194.0</ele><time>2026-05-03T13:38:09.785Z</time></trkpt><trkpt lat="53.9745883" lon="-2.2004267"><ele>194.33333333333334</ele><time>2026-05-03T13:38:10.785Z</time></trkpt><trkpt lat="53.97457" lon="-2.200145"><ele>194.66666666666669</ele><time>2026-05-03T13:38:11.784Z</time></trkpt><trkpt lat="53.97455" lon="-2.19986"><ele>195.0</ele><time>2026-05-03T13:38:12.785Z</time></trkpt><trkpt lat="53.97453" lon="-2.1995933"><ele>195.66666666666669</ele><time>2026-05-03T13:38:13.787Z</time></trkpt><trkpt lat="53.9745117" lon="-2.199315"><ele>196.33333333333334</ele><time>2026-05-03T13:38:14.784Z</time></trkpt><trkpt lat="53.974495" lon="-2.199045"><ele>197.0</ele><time>2026-05-03T13:38:15.784Z</time></trkpt><trkpt lat="53.97449" lon="-2.19877"><ele>197.66666666666669</ele><time>2026-05-03T13:38:16.785Z</time></trkpt><trkpt lat="53.9745" lon="-2.1984917"><ele>198.33333333333331</ele><time>2026-05-03T13:38:17.787Z</time></trkpt><trkpt lat="53.9745267" lon="-2.1982067"><ele>199.0</ele><time>2026-05-03T13:38:18.785Z</time></trkpt><trkpt lat="53.9745733" lon="-2.19791"><ele>199.33333333333331</ele><time>2026-05-03T13:38:19.787Z</time></trkpt><trkpt lat="53.97463" lon="-2.1976"><ele>199.66666666666669</ele><time>2026-05-03T13:38:20.784Z</time></trkpt><trkpt lat="53.9746867" lon="-2.1972817"><ele>200.0</ele><time>2026-05-03T13:38:21.784Z</time></trkpt><trkpt lat="53.9747483" lon="-2.1969567"><ele>200.33333333333334</ele><time>2026-05-03T13:38:22.788Z</time></trkpt><trkpt lat="53.9748" lon="-2.1966367"><ele>200.66666666666669</ele><time>2026-05-03T13:38:23.783Z</time></trkpt><trkpt lat="53.97485" lon="-2.1963133"><ele>201.0</ele><time>2026-05-03T13:38:24.786Z</time></trkpt><trkpt lat="53.9748933" lon="-2.195995"><ele>201.0</ele><time>2026-05-03T13:38:25.783Z</time></trkpt><trkpt lat="53.974925" lon="-2.1956983"><ele>201.0</ele><time>2026-05-03T13:38:26.784Z</time></trkpt><trkpt lat="53.97494" lon="-2.1953967"><ele>201.0</ele><time>2026-05-03T13:38:27.783Z</time></trkpt><trkpt lat="53.9749417" lon="-2.1950933"><ele>200.66666666666669</ele><time>2026-05-03T13:38:28.788Z</time></trkpt><trkpt lat="53.9749333" lon="-2.19478"><ele>200.33333333333334</ele><time>2026-05-03T13:38:29.783Z</time></trkpt><trkpt lat="53.9749233" lon="-2.194465"><ele>200.0</ele><time>2026-05-03T13:38:30.782Z</time></trkpt><trkpt lat="53.9749167" lon="-2.194135"><ele>200.0</ele><time>2026-05-03T13:38:31.788Z</time></trkpt><trkpt lat="53.97491" lon="-2.1937983"><ele>200.0</ele><time>2026-05-03T13:38:32.783Z</time></trkpt><trkpt lat="53.9748983" lon="-2.193465"><ele>200.0</ele><time>2026-05-03T13:38:33.788Z</time></trkpt><trkpt lat="53.974885" lon="-2.1931317"><ele>200.0</ele><time>2026-05-03T13:38:34.787Z</time></trkpt><trkpt lat="53.9748767" lon="-2.1928133"><ele>200.0</ele><time>2026-05-03T13:38:35.783Z</time></trkpt><trkpt lat="53.9748733" lon="-2.192515"><ele>200.0</ele><time>2026-05-03T13:38:36.784Z</time></trkpt><trkpt lat="53.974865" lon="-2.1922383"><ele>200.5</ele><time>2026-05-03T13:38:37.784Z</time></trkpt><trkpt lat="53.97485" lon="-2.191985"><ele>201.0</ele><time>2026-05-03T13:38:38.787Z</time></trkpt><trkpt lat="53.9748233" lon="-2.1917467"><ele>201.5</ele><time>2026-05-03T13:38:39.783Z</time></trkpt><trkpt lat="53.9747833" lon="-2.19153"><ele>202.0</ele><time>2026-05-03T13:38:40.783Z</time></trkpt><trkpt lat="53.9747133" lon="-2.191335"><ele>203.33333333333331</ele><time>2026-05-03T13:38:41.782Z</time></trkpt><trkpt lat="53.9746117" lon="-2.1911483"><ele>204.66666666666669</ele><time>2026-05-03T13:38:42.783Z</time></trkpt><trkpt lat="53.974485" lon="-2.1909733"><ele>206.0</ele><time>2026-05-03T13:38:43.784Z</time></trkpt><trkpt lat="53.9743417" lon="-2.1907833"><ele>206.33333333333334</ele><time>2026-05-03T13:38:44.788Z</time></trkpt><trkpt lat="53.97419" lon="-2.1905717"><ele>206.66666666666669</ele><time>2026-05-03T13:38:45.783Z</time></trkpt><trkpt lat="53.9740417" lon="-2.19035"><ele>207.0</ele><time>2026-05-03T13:38:46.784Z</time></trkpt><trkpt lat="53.9738967" lon="-2.1901267"><ele>205.33333333333331</ele><time>2026-05-03T13:38:47.788Z</time></trkpt><trkpt lat="53.9737583" lon="-2.1899083"><ele>203.66666666666666</ele><time>2026-05-03T13:38:48.783Z</time></trkpt><trkpt lat="53.9736267" lon="-2.1897017"><ele>202.0</ele><time>2026-05-03T13:38:49.784Z</time></trkpt><trkpt lat="53.97352" lon="-2.18951"><ele>201.75</ele><time>2026-05-03T13:38:50.787Z</time></trkpt><trkpt lat="53.9734417" lon="-2.189345"><ele>201.5</ele><time>2026-05-03T13:38:51.787Z</time></trkpt><trkpt lat="53.9733767" lon="-2.189165"><ele>201.25</ele><time>2026-05-03T13:38:52.787Z</time></trkpt><trkpt lat="53.9733117" lon="-2.188945"><ele>201.0</ele><time>2026-05-03T13:38:53.786Z</time></trkpt><trkpt lat="53.9732383" lon="-2.1887067"><ele>198.33333333333331</ele><time>2026-05-03T13:38:54.782Z</time></trkpt><trkpt lat="53.9731517" lon="-2.188465"><ele>195.66666666666666</ele><time>2026-05-03T13:38:55.784Z</time></trkpt><trkpt lat="53.9730583" lon="-2.188215"><ele>193.0</ele><time>2026-05-03T13:38:56.786Z</time></trkpt><trkpt lat="53.9729567" lon="-2.187955"><ele>191.33333333333331</ele><time>2026-05-03T13:38:57.783Z</time></trkpt><trkpt lat="53.97286" lon="-2.187685"><ele>189.66666666666666</ele><time>2026-05-03T13:38:58.783Z</time></trkpt><trkpt lat="53.9727767" lon="-2.18741"><ele>188.0</ele><time>2026-05-03T13:38:59.782Z</time></trkpt><trkpt lat="53.9726967" lon="-2.1871467"><ele>186.75</ele><time>2026-05-03T13:39:00.784Z</time></trkpt><trkpt lat="53.972625" lon="-2.186905"><ele>185.5</ele><time>2026-05-03T13:39:01.783Z</time></trkpt><trkpt lat="53.97256" lon="-2.1866833"><ele>184.25</ele><time>2026-05-03T13:39:02.784Z</time></trkpt><trkpt lat="53.9725" lon="-2.186465"><ele>183.0</ele><time>2026-05-03T13:39:03.782Z</time></trkpt><trkpt lat="53.972455" lon="-2.1862567"><ele>182.75</ele><time>2026-05-03T13:39:04.784Z</time></trkpt><trkpt lat="53.9724283" lon="-2.1860533"><ele>182.5</ele><time>2026-05-03T13:39:05.784Z</time></trkpt><trkpt lat="53.9724217" lon="-2.185825"><ele>182.25</ele><time>2026-05-03T13:39:06.787Z</time></trkpt><trkpt lat="53.9724333" lon="-2.1855683"><ele>182.0</ele><time>2026-05-03T13:39:07.789Z</time></trkpt><trkpt lat="53.9724417" lon="-2.1852967"><ele>181.0</ele><time>2026-05-03T13:39:08.784Z</time></trkpt><trkpt lat="53.9724283" lon="-2.18501"><ele>180.0</ele><time>2026-05-03T13:39:09.784Z</time></trkpt><trkpt lat="53.9723983" lon="-2.1847083"><ele>179.0</ele><time>2026-05-03T13:39:10.783Z</time></trkpt><trkpt lat="53.9723567" lon="-2.1843933"><ele>177.66666666666666</ele><time>2026-05-03T13:39:11.784Z</time></trkpt><trkpt lat="53.9723083" lon="-2.1840667"><ele>176.33333333333334</ele><time>2026-05-03T13:39:12.788Z</time></trkpt><trkpt lat="53.9722617" lon="-2.18374"><ele>175.0</ele><time>2026-05-03T13:39:13.784Z</time></trkpt><trkpt lat="53.972215" lon="-2.1834133"><ele>174.33333333333334</ele><time>2026-05-03T13:39:14.783Z</time></trkpt><trkpt lat="53.9721783" lon="-2.1830767"><ele>173.66666666666666</ele><time>2026-05-03T13:39:15.783Z</time></trkpt><trkpt lat="53.97216" lon="-2.1827333"><ele>173.0</ele><time>2026-05-03T13:39:16.784Z</time></trkpt><trkpt lat="53.9721583" lon="-2.1823733"><ele>174.0</ele><time>2026-05-03T13:39:17.783Z</time></trkpt><trkpt lat="53.9721567" lon="-2.1819833"><ele>175.0</ele><time>2026-05-03T13:39:18.783Z</time></trkpt><trkpt lat="53.97215" lon="-2.1816"><ele>175.0</ele><time>2026-05-03T13:39:19.784Z</time></trkpt><trkpt lat="53.97214" lon="-2.1812217"><ele>175.0</ele><time>2026-05-03T13:39:20.782Z</time></trkpt><trkpt lat="53.9721333" lon="-2.1808683"><ele>175.0</ele><time>2026-05-03T13:39:21.784Z</time></trkpt><trkpt lat="53.9721317" lon="-2.1805667"><ele>175.0</ele><time>2026-05-03T13:39:22.783Z</time></trkpt><trkpt lat="53.972145" lon="-2.180305"><ele>175.0</ele><time>2026-05-03T13:39:23.784Z</time></trkpt><trkpt lat="53.9721767" lon="-2.1800733"><ele>175.0</ele><time>2026-05-03T13:39:24.785Z</time></trkpt><trkpt lat="53.9722333" lon="-2.179865"><ele>175.0</ele><time>2026-05-03T13:39:25.783Z</time></trkpt><trkpt lat="53.9723183" lon="-2.1796533"><ele>175.66666666666669</ele><time>2026-05-03T13:39:26.783Z</time></trkpt><trkpt lat="53.97242" lon="-2.1794417"><ele>176.33333333333334</ele><time>2026-05-03T13:39:27.783Z</time></trkpt><trkpt lat="53.97252" lon="-2.17923"><ele>177.0</ele><time>2026-05-03T13:39:28.79Z</time></trkpt><trkpt lat="53.972615" lon="-2.1790267"><ele>176.5</ele><time>2026-05-03T13:39:29.788Z</time></trkpt><trkpt lat="53.9726917" lon="-2.1788283"><ele>176.0</ele><time>2026-05-03T13:39:30.787Z</time></trkpt><trkpt lat="53.972755" lon="-2.1786367"><ele>175.5</ele><time>2026-05-03T13:39:31.784Z</time></trkpt><trkpt lat="53.972795" lon="-2.1784533"><ele>175.0</ele><time>2026-05-03T13:39:32.787Z</time></trkpt><trkpt lat="53.9728067" lon="-2.1782783"><ele>176.0</ele><time>2026-05-03T13:39:33.782Z</time></trkpt><trkpt lat="53.972795" lon="-2.17811"><ele>177.0</ele><time>2026-05-03T13:39:34.782Z</time></trkpt><trkpt lat="53.97275" lon="-2.1779333"><ele>178.0</ele><time>2026-05-03T13:39:35.784Z</time></trkpt><trkpt lat="53.9726817" lon="-2.1777517"><ele>179.0</ele><time>2026-05-03T13:39:36.784Z</time></trkpt><trkpt lat="53.9726067" lon="-2.177575"><ele>179.0</ele><time>2026-05-03T13:39:37.786Z</time></trkpt><trkpt lat="53.9725283" lon="-2.1774133"><ele>179.0</ele><time>2026-05-03T13:39:38.787Z</time></trkpt><trkpt lat="53.9724483" lon="-2.1772667"><ele>179.0</ele><time>2026-05-03T13:39:39.783Z</time></trkpt><trkpt lat="53.9723733" lon="-2.1771383"><ele>179.0</ele><time>2026-05-03T13:39:40.787Z</time></trkpt><trkpt lat="53.9723017" lon="-2.1770233"><ele>179.0</ele><time>2026-05-03T13:39:41.788Z</time></trkpt><trkpt lat="53.9722383" lon="-2.176915"><ele>178.79999999999998</ele><time>2026-05-03T13:39:42.787Z</time></trkpt><trkpt lat="53.9721767" lon="-2.1768133"><ele>178.6</ele><time>2026-05-03T13:39:43.783Z</time></trkpt><trkpt lat="53.9721233" lon="-2.1767"><ele>178.4</ele><time>2026-05-03T13:39:44.788Z</time></trkpt><trkpt lat="53.972075" lon="-2.1765667"><ele>178.2</ele><time>2026-05-03T13:39:45.782Z</time></trkpt><trkpt lat="53.9720233" lon="-2.1764167"><ele>178.0</ele><time>2026-05-03T13:39:46.782Z</time></trkpt><trkpt lat="53.9719733" lon="-2.1762717"><ele>178.0</ele><time>2026-05-03T13:39:47.783Z</time></trkpt><trkpt lat="53.971915" lon="-2.176165"><ele>178.0</ele><time>2026-05-03T13:39:48.783Z</time></trkpt><trkpt lat="53.97186" lon="-2.1760817"><ele>178.0</ele><time>2026-05-03T13:39:49.784Z</time></trkpt><trkpt lat="53.971755" lon="-2.176005"><ele>178.0</ele><time>2026-05-03T13:39:51.783Z</time></trkpt><trkpt lat="53.971645" lon="-2.175985"><ele>178.0</ele><time>2026-05-03T13:39:53.784Z</time></trkpt><trkpt lat="53.97158" lon="-2.1759783"><ele>178.0</ele><time>2026-05-03T13:39:54.784Z</time></trkpt><trkpt lat="53.9715017" lon="-2.17598"><ele>174.5</ele><time>2026-05-03T13:39:55.785Z</time></trkpt><trkpt lat="53.9714083" lon="-2.1759617"><ele>171.0</ele><time>2026-05-03T13:39:56.784Z</time></trkpt><trkpt lat="53.971285" lon="-2.17593"><ele>167.5</ele><time>2026-05-03T13:39:57.782Z</time></trkpt><trkpt lat="53.9711433" lon="-2.1758733"><ele>164.0</ele><time>2026-05-03T13:39:58.783Z</time></trkpt><trkpt lat="53.97099" lon="-2.1757983"><ele>165.33333333333331</ele><time>2026-05-03T13:39:59.784Z</time></trkpt><trkpt lat="53.970825" lon="-2.1757283"><ele>166.66666666666666</ele><time>2026-05-03T13:40:00.783Z</time></trkpt><trkpt lat="53.9706567" lon="-2.1756833"><ele>168.0</ele><time>2026-05-03T13:40:01.784Z</time></trkpt><trkpt lat="53.9704967" lon="-2.1756517"><ele>168.25</ele><time>2026-05-03T13:40:02.784Z</time></trkpt><trkpt lat="53.9703583" lon="-2.1756067"><ele>168.5</ele><time>2026-05-03T13:40:03.784Z</time></trkpt><trkpt lat="53.9702317" lon="-2.1755267"><ele>168.75</ele><time>2026-05-03T13:40:04.784Z</time></trkpt><trkpt lat="53.9701233" lon="-2.1753967"><ele>169.0</ele><time>2026-05-03T13:40:05.784Z</time></trkpt><trkpt lat="53.97003" lon="-2.1751983"><ele>171.75</ele><time>2026-05-03T13:40:06.783Z</time></trkpt><trkpt lat="53.96994" lon="-2.1750083"><ele>174.5</ele><time>2026-05-03T13:40:07.784Z</time></trkpt><trkpt lat="53.969855" lon="-2.1748433"><ele>177.25</ele><time>2026-05-03T13:40:08.785Z</time></trkpt><trkpt lat="53.96976" lon="-2.1747267"><ele>180.0</ele><time>2026-05-03T13:40:09.784Z</time></trkpt><trkpt lat="53.96965" lon="-2.174645"><ele>180.0</ele><time>2026-05-03T13:40:10.782Z</time></trkpt><trkpt lat="53.9695317" lon="-2.174605"><ele>180.0</ele><time>2026-05-03T13:40:11.782Z</time></trkpt><trkpt lat="53.96943" lon="-2.1745967"><ele>180.0</ele><time>2026-05-03T13:40:12.783Z</time></trkpt><trkpt lat="53.9693433" lon="-2.1746233"><ele>180.0</ele><time>2026-05-03T13:40:13.784Z</time></trkpt><trkpt lat="53.9692683" lon="-2.17467"><ele>180.0</ele><time>2026-05-03T13:40:14.783Z</time></trkpt><trkpt lat="53.969195" lon="-2.1747517"><ele>182.0</ele><time>2026-05-03T13:40:15.783Z</time></trkpt><trkpt lat="53.9691217" lon="-2.1748383"><ele>184.0</ele><time>2026-05-03T13:40:16.783Z</time></trkpt><trkpt lat="53.9690317" lon="-2.1749917"><ele>186.0</ele><time>2026-05-03T13:40:17.784Z</time></trkpt><trkpt lat="53.9689133" lon="-2.175155"><ele>188.0</ele><time>2026-05-03T13:40:18.783Z</time></trkpt><trkpt lat="53.9687683" lon="-2.175305"><ele>188.0</ele><time>2026-05-03T13:40:19.785Z</time></trkpt><trkpt lat="53.9686217" lon="-2.1754483"><ele>188.0</ele><time>2026-05-03T13:40:20.782Z</time></trkpt><trkpt lat="53.9684517" lon="-2.17561"><ele>188.0</ele><time>2026-05-03T13:40:21.784Z</time></trkpt><trkpt lat="53.9682867" lon="-2.1757667"><ele>188.0</ele><time>2026-05-03T13:40:22.782Z</time></trkpt><trkpt lat="53.9681183" lon="-2.1759317"><ele>188.0</ele><time>2026-05-03T13:40:23.785Z</time></trkpt><trkpt lat="53.9679533" lon="-2.17609"><ele>188.0</ele><time>2026-05-03T13:40:24.784Z</time></trkpt><trkpt lat="53.9677767" lon="-2.1762517"><ele>188.0</ele><time>2026-05-03T13:40:25.786Z</time></trkpt><trkpt lat="53.967605" lon="-2.1764033"><ele>188.0</ele><time>2026-05-03T13:40:26.784Z</time></trkpt><trkpt lat="53.96743" lon="-2.1765617"><ele>188.0</ele><time>2026-05-03T13:40:27.783Z</time></trkpt><trkpt lat="53.9672417" lon="-2.1767283"><ele>186.33333333333331</ele><time>2026-05-03T13:40:28.782Z</time></trkpt><trkpt lat="53.9670517" lon="-2.1769033"><ele>184.66666666666666</ele><time>2026-05-03T13:40:29.783Z</time></trkpt><trkpt lat="53.9668567" lon="-2.177065"><ele>183.0</ele><time>2026-05-03T13:40:30.783Z</time></trkpt><trkpt lat="53.9666683" lon="-2.17723"><ele>183.66666666666666</ele><time>2026-05-03T13:40:31.785Z</time></trkpt><trkpt lat="53.9664833" lon="-2.177395"><ele>184.33333333333331</ele><time>2026-05-03T13:40:32.783Z</time></trkpt><trkpt lat="53.966295" lon="-2.1775617"><ele>185.0</ele><time>2026-05-03T13:40:33.788Z</time></trkpt><trkpt lat="53.9661117" lon="-2.177735"><ele>185.0</ele><time>2026-05-03T13:40:34.783Z</time></trkpt><trkpt lat="53.96593" lon="-2.1779067"><ele>185.0</ele><time>2026-05-03T13:40:35.784Z</time></trkpt><trkpt lat="53.96575" lon="-2.17807"><ele>185.0</ele><time>2026-05-03T13:40:36.784Z</time></trkpt><trkpt lat="53.965575" lon="-2.178215"><ele>187.33333333333331</ele><time>2026-05-03T13:40:37.784Z</time></trkpt><trkpt lat="53.96539" lon="-2.17833"><ele>189.66666666666666</ele><time>2026-05-03T13:40:38.783Z</time></trkpt><trkpt lat="53.9651983" lon="-2.1784367"><ele>192.0</ele><time>2026-05-03T13:40:39.783Z</time></trkpt><trkpt lat="53.9649967" lon="-2.1785267"><ele>192.33333333333331</ele><time>2026-05-03T13:40:40.783Z</time></trkpt><trkpt lat="53.96479" lon="-2.1786133"><ele>192.66666666666666</ele><time>2026-05-03T13:40:41.785Z</time></trkpt><trkpt lat="53.9645733" lon="-2.1786833"><ele>193.0</ele><time>2026-05-03T13:40:42.783Z</time></trkpt><trkpt lat="53.9643583" lon="-2.178745"><ele>191.66666666666666</ele><time>2026-05-03T13:40:43.783Z</time></trkpt><trkpt lat="53.96414" lon="-2.1787933"><ele>190.33333333333331</ele><time>2026-05-03T13:40:44.782Z</time></trkpt><trkpt lat="53.9639167" lon="-2.1788283"><ele>189.0</ele><time>2026-05-03T13:40:45.782Z</time></trkpt><trkpt lat="53.96369" lon="-2.17886"><ele>189.0</ele><time>2026-05-03T13:40:46.782Z</time></trkpt><trkpt lat="53.9634667" lon="-2.1788983"><ele>189.0</ele><time>2026-05-03T13:40:47.784Z</time></trkpt><trkpt lat="53.9632433" lon="-2.1789367"><ele>189.0</ele><time>2026-05-03T13:40:48.782Z</time></trkpt><trkpt lat="53.9630233" lon="-2.1789667"><ele>188.33333333333334</ele><time>2026-05-03T13:40:49.784Z</time></trkpt><trkpt lat="53.962805" lon="-2.1789917"><ele>187.66666666666669</ele><time>2026-05-03T13:40:50.782Z</time></trkpt><trkpt lat="53.96259" lon="-2.1790133"><ele>187.0</ele><time>2026-05-03T13:40:51.783Z</time></trkpt><trkpt lat="53.9623717" lon="-2.17904"><ele>188.33333333333334</ele><time>2026-05-03T13:40:52.783Z</time></trkpt><trkpt lat="53.9621517" lon="-2.179075"><ele>189.66666666666666</ele><time>2026-05-03T13:40:53.784Z</time></trkpt><trkpt lat="53.9619333" lon="-2.179115"><ele>191.0</ele><time>2026-05-03T13:40:54.783Z</time></trkpt><trkpt lat="53.9617183" lon="-2.1791467"><ele>193.0</ele><time>2026-05-03T13:40:55.783Z</time></trkpt><trkpt lat="53.96152" lon="-2.1791767"><ele>195.0</ele><time>2026-05-03T13:40:56.783Z</time></trkpt><trkpt lat="53.9613417" lon="-2.1792017"><ele>197.0</ele><time>2026-05-03T13:40:57.783Z</time></trkpt><trkpt lat="53.9612033" lon="-2.1792117"><ele>197.0</ele><time>2026-05-03T13:40:58.784Z</time></trkpt><trkpt lat="53.9610883" lon="-2.1792017"><ele>197.0</ele><time>2026-05-03T13:40:59.782Z</time></trkpt><trkpt lat="53.9609733" lon="-2.1791683"><ele>197.0</ele><time>2026-05-03T13:41:00.783Z</time></trkpt><trkpt lat="53.96086" lon="-2.1791"><ele>197.0</ele><time>2026-05-03T13:41:01.784Z</time></trkpt><trkpt lat="53.96073" lon="-2.1790017"><ele>196.66666666666669</ele><time>2026-05-03T13:41:02.783Z</time></trkpt><trkpt lat="53.9605867" lon="-2.1789067"><ele>196.33333333333331</ele><time>2026-05-03T13:41:03.783Z</time></trkpt><trkpt lat="53.96043" lon="-2.1787967"><ele>196.0</ele><time>2026-05-03T13:41:04.784Z</time></trkpt><trkpt lat="53.96027" lon="-2.17868"><ele>196.0</ele><time>2026-05-03T13:41:05.783Z</time></trkpt><trkpt lat="53.9601" lon="-2.1785733"><ele>196.0</ele><time>2026-05-03T13:41:06.784Z</time></trkpt><trkpt lat="53.9599367" lon="-2.178445"><ele>196.0</ele><time>2026-05-03T13:41:07.783Z</time></trkpt><trkpt lat="53.95977" lon="-2.1783217"><ele>196.66666666666666</ele><time>2026-05-03T13:41:08.782Z</time></trkpt><trkpt lat="53.9595967" lon="-2.1782117"><ele>197.33333333333331</ele><time>2026-05-03T13:41:09.782Z</time></trkpt><trkpt lat="53.9594217" lon="-2.1781083"><ele>198.0</ele><time>2026-05-03T13:41:10.783Z</time></trkpt><trkpt lat="53.9592517" lon="-2.1780033"><ele>197.0</ele><time>2026-05-03T13:41:11.788Z</time></trkpt><trkpt lat="53.95909" lon="-2.177905"><ele>196.0</ele><time>2026-05-03T13:41:12.787Z</time></trkpt><trkpt lat="53.9589383" lon="-2.17781"><ele>195.0</ele><time>2026-05-03T13:41:13.783Z</time></trkpt><trkpt lat="53.9587917" lon="-2.1777133"><ele>195.0</ele><time>2026-05-03T13:41:14.784Z</time></trkpt><trkpt lat="53.9586483" lon="-2.17762"><ele>195.0</ele><time>2026-05-03T13:41:15.788Z</time></trkpt><trkpt lat="53.9585133" lon="-2.17753"><ele>195.0</ele><time>2026-05-03T13:41:16.783Z</time></trkpt><trkpt lat="53.958385" lon="-2.1774183"><ele>195.0</ele><time>2026-05-03T13:41:17.784Z</time></trkpt><trkpt lat="53.9582533" lon="-2.17729"><ele>195.5</ele><time>2026-05-03T13:41:18.783Z</time></trkpt><trkpt lat="53.9581333" lon="-2.17714"><ele>196.0</ele><time>2026-05-03T13:41:19.784Z</time></trkpt><trkpt lat="53.958025" lon="-2.1769733"><ele>196.5</ele><time>2026-05-03T13:41:20.782Z</time></trkpt><trkpt lat="53.9579233" lon="-2.1768133"><ele>197.0</ele><time>2026-05-03T13:41:21.784Z</time></trkpt><trkpt lat="53.9578283" lon="-2.1766683"><ele>197.0</ele><time>2026-05-03T13:41:22.784Z</time></trkpt><trkpt lat="53.9577383" lon="-2.1765233"><ele>197.0</ele><time>2026-05-03T13:41:23.787Z</time></trkpt><trkpt lat="53.9576533" lon="-2.17638"><ele>197.0</ele><time>2026-05-03T13:41:24.783Z</time></trkpt><trkpt lat="53.9575733" lon="-2.176245"><ele>197.0</ele><time>2026-05-03T13:41:25.783Z</time></trkpt><trkpt lat="53.9574967" lon="-2.17611"><ele>197.0</ele><time>2026-05-03T13:41:26.782Z</time></trkpt><trkpt lat="53.9574117" lon="-2.175975"><ele>197.0</ele><time>2026-05-03T13:41:27.784Z</time></trkpt><trkpt lat="53.9573283" lon="-2.17583"><ele>197.0</ele><time>2026-05-03T13:41:28.784Z</time></trkpt><trkpt lat="53.9572333" lon="-2.1756733"><ele>197.0</ele><time>2026-05-03T13:41:29.783Z</time></trkpt><trkpt lat="53.95714" lon="-2.1755117"><ele>196.0</ele><time>2026-05-03T13:41:30.782Z</time></trkpt><trkpt lat="53.9570433" lon="-2.1753517"><ele>195.0</ele><time>2026-05-03T13:41:31.784Z</time></trkpt><trkpt lat="53.95693" lon="-2.175175"><ele>194.0</ele><time>2026-05-03T13:41:32.783Z</time></trkpt><trkpt lat="53.9568" lon="-2.1749917"><ele>193.0</ele><time>2026-05-03T13:41:33.783Z</time></trkpt><trkpt lat="53.9566617" lon="-2.17481"><ele>192.0</ele><time>2026-05-03T13:41:34.783Z</time></trkpt><trkpt lat="53.9565217" lon="-2.17463"><ele>191.0</ele><time>2026-05-03T13:41:35.783Z</time></trkpt><trkpt lat="53.9563883" lon="-2.17446"><ele>191.0</ele><time>2026-05-03T13:41:36.783Z</time></trkpt><trkpt lat="53.9562517" lon="-2.1743033"><ele>191.0</ele><time>2026-05-03T13:41:37.783Z</time></trkpt><trkpt lat="53.9561233" lon="-2.1741567"><ele>191.0</ele><time>2026-05-03T13:41:38.784Z</time></trkpt><trkpt lat="53.9559833" lon="-2.1740217"><ele>188.0</ele><time>2026-05-03T13:41:39.783Z</time></trkpt><trkpt lat="53.9558533" lon="-2.17388"><ele>185.0</ele><time>2026-05-03T13:41:40.786Z</time></trkpt><trkpt lat="53.9557333" lon="-2.1737383"><ele>182.0</ele><time>2026-05-03T13:41:41.783Z</time></trkpt><trkpt lat="53.955615" lon="-2.1736133"><ele>179.0</ele><time>2026-05-03T13:41:42.782Z</time></trkpt><trkpt lat="53.9555217" lon="-2.1734833"><ele>179.0</ele><time>2026-05-03T13:41:43.783Z</time></trkpt><trkpt lat="53.9554333" lon="-2.1733767"><ele>179.0</ele><time>2026-05-03T13:41:44.784Z</time></trkpt><trkpt lat="53.955345" lon="-2.1732817"><ele>179.0</ele><time>2026-05-03T13:41:45.783Z</time></trkpt><trkpt lat="53.9552783" lon="-2.173185"><ele>179.0</ele><time>2026-05-03T13:41:46.783Z</time></trkpt><trkpt lat="53.95522" lon="-2.1730867"><ele>179.0</ele><time>2026-05-03T13:41:47.783Z</time></trkpt><trkpt lat="53.9551733" lon="-2.1729783"><ele>179.2</ele><time>2026-05-03T13:41:48.782Z</time></trkpt><trkpt lat="53.955145" lon="-2.17285"><ele>179.39999999999998</ele><time>2026-05-03T13:41:49.784Z</time></trkpt><trkpt lat="53.95514" lon="-2.1726733"><ele>179.6</ele><time>2026-05-03T13:41:50.783Z</time></trkpt><trkpt lat="53.95515" lon="-2.17246"><ele>179.8</ele><time>2026-05-03T13:41:51.783Z</time></trkpt><trkpt lat="53.9551633" lon="-2.1722367"><ele>180.0</ele><time>2026-05-03T13:41:52.782Z</time></trkpt><trkpt lat="53.9551567" lon="-2.1720267"><ele>180.0</ele><time>2026-05-03T13:41:53.784Z</time></trkpt><trkpt lat="53.955135" lon="-2.1718033"><ele>180.0</ele><time>2026-05-03T13:41:54.783Z</time></trkpt><trkpt lat="53.9550933" lon="-2.1715667"><ele>180.0</ele><time>2026-05-03T13:41:55.784Z</time></trkpt><trkpt lat="53.9550317" lon="-2.1713167"><ele>180.0</ele><time>2026-05-03T13:41:56.782Z</time></trkpt><trkpt lat="53.95496" lon="-2.17104"><ele>180.0</ele><time>2026-05-03T13:41:57.784Z</time></trkpt><trkpt lat="53.954875" lon="-2.1707517"><ele>180.0</ele><time>2026-05-03T13:41:58.783Z</time></trkpt><trkpt lat="53.9547867" lon="-2.1704517"><ele>180.0</ele><time>2026-05-03T13:41:59.783Z</time></trkpt><trkpt lat="53.9547017" lon="-2.170135"><ele>178.33333333333334</ele><time>2026-05-03T13:42:00.783Z</time></trkpt><trkpt lat="53.95461" lon="-2.169825"><ele>176.66666666666669</ele><time>2026-05-03T13:42:01.783Z</time></trkpt><trkpt lat="53.9545267" lon="-2.1695183"><ele>175.0</ele><time>2026-05-03T13:42:02.783Z</time></trkpt><trkpt lat="53.9544383" lon="-2.169215"><ele>175.66666666666669</ele><time>2026-05-03T13:42:03.783Z</time></trkpt><trkpt lat="53.9543567" lon="-2.1689217"><ele>176.33333333333334</ele><time>2026-05-03T13:42:04.782Z</time></trkpt><trkpt lat="53.9542683" lon="-2.168655"><ele>177.0</ele><time>2026-05-03T13:42:05.783Z</time></trkpt><trkpt lat="53.9541867" lon="-2.1683867"><ele>175.66666666666666</ele><time>2026-05-03T13:42:06.783Z</time></trkpt><trkpt lat="53.9541067" lon="-2.1681383"><ele>174.33333333333331</ele><time>2026-05-03T13:42:07.784Z</time></trkpt><trkpt lat="53.9540217" lon="-2.167905"><ele>173.0</ele><time>2026-05-03T13:42:08.782Z</time></trkpt><trkpt lat="53.95393" lon="-2.1676883"><ele>173.0</ele><time>2026-05-03T13:42:09.784Z</time></trkpt><trkpt lat="53.953825" lon="-2.1674733"><ele>173.0</ele><time>2026-05-03T13:42:10.782Z</time></trkpt><trkpt lat="53.9536917" lon="-2.1672733"><ele>173.0</ele><time>2026-05-03T13:42:11.782Z</time></trkpt><trkpt lat="53.9535467" lon="-2.1670717"><ele>172.33333333333331</ele><time>2026-05-03T13:42:12.783Z</time></trkpt><trkpt lat="53.9533967" lon="-2.1668767"><ele>171.66666666666666</ele><time>2026-05-03T13:42:13.782Z</time></trkpt><trkpt lat="53.9532317" lon="-2.16668"><ele>171.0</ele><time>2026-05-03T13:42:14.784Z</time></trkpt><trkpt lat="53.953075" lon="-2.1664883"><ele>168.0</ele><time>2026-05-03T13:42:15.784Z</time></trkpt><trkpt lat="53.9529317" lon="-2.1663017"><ele>165.0</ele><time>2026-05-03T13:42:16.785Z</time></trkpt><trkpt lat="53.952795" lon="-2.1660833"><ele>162.0</ele><time>2026-05-03T13:42:17.784Z</time></trkpt><trkpt lat="53.9526617" lon="-2.1658383"><ele>164.33333333333334</ele><time>2026-05-03T13:42:18.783Z</time></trkpt><trkpt lat="53.9525283" lon="-2.16559"><ele>166.66666666666669</ele><time>2026-05-03T13:42:19.782Z</time></trkpt><trkpt lat="53.9523833" lon="-2.16535"><ele>169.0</ele><time>2026-05-03T13:42:20.784Z</time></trkpt><trkpt lat="53.9522217" lon="-2.1651383"><ele>169.0</ele><time>2026-05-03T13:42:21.783Z</time></trkpt><trkpt lat="53.9520617" lon="-2.164955"><ele>169.0</ele><time>2026-05-03T13:42:22.783Z</time></trkpt><trkpt lat="53.9519067" lon="-2.1647783"><ele>169.0</ele><time>2026-05-03T13:42:23.783Z</time></trkpt><trkpt lat="53.95177" lon="-2.1646217"><ele>170.5</ele><time>2026-05-03T13:42:24.782Z</time></trkpt><trkpt lat="53.951645" lon="-2.164475"><ele>172.0</ele><time>2026-05-03T13:42:25.787Z</time></trkpt><trkpt lat="53.9515217" lon="-2.1643433"><ele>173.5</ele><time>2026-05-03T13:42:26.788Z</time></trkpt><trkpt lat="53.951395" lon="-2.16422"><ele>175.0</ele><time>2026-05-03T13:42:27.787Z</time></trkpt><trkpt lat="53.9512583" lon="-2.16411"><ele>174.75</ele><time>2026-05-03T13:42:28.787Z</time></trkpt><trkpt lat="53.9511167" lon="-2.1640083"><ele>174.5</ele><time>2026-05-03T13:42:29.782Z</time></trkpt><trkpt lat="53.9509767" lon="-2.1639233"><ele>174.25</ele><time>2026-05-03T13:42:30.783Z</time></trkpt><trkpt lat="53.9508517" lon="-2.1638517"><ele>174.0</ele><time>2026-05-03T13:42:31.784Z</time></trkpt><trkpt lat="53.9507417" lon="-2.163785"><ele>174.0</ele><time>2026-05-03T13:42:32.783Z</time></trkpt><trkpt lat="53.9506333" lon="-2.1637317"><ele>174.0</ele><time>2026-05-03T13:42:33.783Z</time></trkpt><trkpt lat="53.95053" lon="-2.1636733"><ele>174.0</ele><time>2026-05-03T13:42:34.783Z</time></trkpt><trkpt lat="53.950435" lon="-2.163615"><ele>174.0</ele><time>2026-05-03T13:42:35.783Z</time></trkpt><trkpt lat="53.95035" lon="-2.1635683"><ele>174.0</ele><time>2026-05-03T13:42:36.783Z</time></trkpt><trkpt lat="53.9502767" lon="-2.1635283"><ele>174.0</ele><time>2026-05-03T13:42:37.783Z</time></trkpt><trkpt lat="53.9502167" lon="-2.163495"><ele>174.0</ele><time>2026-05-03T13:42:38.787Z</time></trkpt><trkpt lat="53.9501417" lon="-2.163455"><ele>174.0</ele><time>2026-05-03T13:42:40.783Z</time></trkpt><trkpt lat="53.9500567" lon="-2.1634483"><ele>174.0</ele><time>2026-05-03T13:42:47.786Z</time></trkpt><trkpt lat="53.9499783" lon="-2.1634333"><ele>174.0</ele><time>2026-05-03T13:42:49.788Z</time></trkpt><trkpt lat="53.9499067" lon="-2.163405"><ele>174.0</ele><time>2026-05-03T13:42:51.785Z</time></trkpt><trkpt lat="53.949835" lon="-2.1633833"><ele>173.33333333333334</ele><time>2026-05-03T13:42:53.783Z</time></trkpt><trkpt lat="53.94977" lon="-2.1633517"><ele>172.66666666666666</ele><time>2026-05-03T13:42:55.783Z</time></trkpt><trkpt lat="53.9497" lon="-2.1633067"><ele>172.0</ele><time>2026-05-03T13:42:57.783Z</time></trkpt><trkpt lat="53.9496233" lon="-2.16325"><ele>171.33333333333331</ele><time>2026-05-03T13:42:59.783Z</time></trkpt><trkpt lat="53.949555" lon="-2.1631767"><ele>170.66666666666666</ele><time>2026-05-03T13:43:01.788Z</time></trkpt><trkpt lat="53.9494933" lon="-2.1630667"><ele>170.0</ele><time>2026-05-03T13:43:03.788Z</time></trkpt><trkpt lat="53.9494467" lon="-2.1629367"><ele>169.83333333333331</ele><time>2026-05-03T13:43:05.783Z</time></trkpt><trkpt lat="53.9494117" lon="-2.1628067"><ele>169.66666666666666</ele><time>2026-05-03T13:43:07.788Z</time></trkpt><trkpt lat="53.949385" lon="-2.1626767"><ele>169.5</ele><time>2026-05-03T13:43:09.783Z</time></trkpt><trkpt lat="53.9493567" lon="-2.1625367"><ele>169.33333333333334</ele><time>2026-05-03T13:43:11.783Z</time></trkpt><trkpt lat="53.9493317" lon="-2.1624017"><ele>169.16666666666669</ele><time>2026-05-03T13:43:13.785Z</time></trkpt><trkpt lat="53.9493" lon="-2.1622533"><ele>169.0</ele><time>2026-05-03T13:43:15.782Z</time></trkpt><trkpt lat="53.9492583" lon="-2.1620383"><ele>168.75</ele><time>2026-05-03T13:43:17.782Z</time></trkpt><trkpt lat="53.9492217" lon="-2.1618883"><ele>168.5</ele><time>2026-05-03T13:43:18.783Z</time></trkpt><trkpt lat="53.9491583" lon="-2.1617217"><ele>168.25</ele><time>2026-05-03T13:43:19.784Z</time></trkpt><trkpt lat="53.9490733" lon="-2.1615467"><ele>168.0</ele><time>2026-05-03T13:43:20.782Z</time></trkpt><trkpt lat="53.94896" lon="-2.1613883"><ele>169.33333333333334</ele><time>2026-05-03T13:43:21.782Z</time></trkpt><trkpt lat="53.9488183" lon="-2.1612433"><ele>170.66666666666669</ele><time>2026-05-03T13:43:22.782Z</time></trkpt><trkpt lat="53.9486617" lon="-2.1610983"><ele>172.0</ele><time>2026-05-03T13:43:23.788Z</time></trkpt><trkpt lat="53.9485067" lon="-2.1609617"><ele>171.33333333333334</ele><time>2026-05-03T13:43:24.788Z</time></trkpt><trkpt lat="53.9483583" lon="-2.1608283"><ele>170.66666666666666</ele><time>2026-05-03T13:43:25.783Z</time></trkpt><trkpt lat="53.9482117" lon="-2.16069"><ele>170.0</ele><time>2026-05-03T13:43:26.782Z</time></trkpt><trkpt lat="53.94806" lon="-2.1605367"><ele>172.0</ele><time>2026-05-03T13:43:27.783Z</time></trkpt><trkpt lat="53.9479083" lon="-2.160375"><ele>174.0</ele><time>2026-05-03T13:43:28.787Z</time></trkpt><trkpt lat="53.9477567" lon="-2.1602033"><ele>176.0</ele><time>2026-05-03T13:43:29.783Z</time></trkpt><trkpt lat="53.9476033" lon="-2.160025"><ele>173.66666666666666</ele><time>2026-05-03T13:43:30.782Z</time></trkpt><trkpt lat="53.9474483" lon="-2.159845"><ele>171.33333333333334</ele><time>2026-05-03T13:43:31.783Z</time></trkpt><trkpt lat="53.947295" lon="-2.1596717"><ele>169.0</ele><time>2026-05-03T13:43:32.786Z</time></trkpt><trkpt lat="53.9471367" lon="-2.159505"><ele>169.0</ele><time>2026-05-03T13:43:33.782Z</time></trkpt><trkpt lat="53.9469817" lon="-2.1593467"><ele>169.0</ele><time>2026-05-03T13:43:34.782Z</time></trkpt><trkpt lat="53.9468267" lon="-2.159215"><ele>169.0</ele><time>2026-05-03T13:43:35.782Z</time></trkpt><trkpt lat="53.94666" lon="-2.1591133"><ele>165.66666666666669</ele><time>2026-05-03T13:43:36.782Z</time></trkpt><trkpt lat="53.9464767" lon="-2.1590383"><ele>162.33333333333334</ele><time>2026-05-03T13:43:37.784Z</time></trkpt><trkpt lat="53.9462817" lon="-2.1589917"><ele>159.0</ele><time>2026-05-03T13:43:38.787Z</time></trkpt><trkpt lat="53.9460817" lon="-2.158955"><ele>158.33333333333334</ele><time>2026-05-03T13:43:39.783Z</time></trkpt><trkpt lat="53.9458817" lon="-2.1589167"><ele>157.66666666666669</ele><time>2026-05-03T13:43:40.787Z</time></trkpt><trkpt lat="53.9456817" lon="-2.158875"><ele>157.0</ele><time>2026-05-03T13:43:41.782Z</time></trkpt><trkpt lat="53.94548" lon="-2.1588283"><ele>154.66666666666669</ele><time>2026-05-03T13:43:42.783Z</time></trkpt><trkpt lat="53.9452783" lon="-2.1587883"><ele>152.33333333333334</ele><time>2026-05-03T13:43:43.782Z</time></trkpt><trkpt lat="53.9450767" lon="-2.1587283"><ele>150.0</ele><time>2026-05-03T13:43:44.786Z</time></trkpt><trkpt lat="53.9448767" lon="-2.1586417"><ele>148.66666666666666</ele><time>2026-05-03T13:43:45.782Z</time></trkpt><trkpt lat="53.944675" lon="-2.1585333"><ele>147.33333333333331</ele><time>2026-05-03T13:43:46.783Z</time></trkpt><trkpt lat="53.9444783" lon="-2.1584117"><ele>146.0</ele><time>2026-05-03T13:43:47.783Z</time></trkpt><trkpt lat="53.9442817" lon="-2.1582733"><ele>146.33333333333331</ele><time>2026-05-03T13:43:48.783Z</time></trkpt><trkpt lat="53.94409" lon="-2.1581233"><ele>146.66666666666666</ele><time>2026-05-03T13:43:49.782Z</time></trkpt><trkpt lat="53.9439067" lon="-2.1579583"><ele>147.0</ele><time>2026-05-03T13:43:50.782Z</time></trkpt><trkpt lat="53.943735" lon="-2.1577967"><ele>147.0</ele><time>2026-05-03T13:43:51.783Z</time></trkpt><trkpt lat="53.9435667" lon="-2.1576617"><ele>147.0</ele><time>2026-05-03T13:43:52.783Z</time></trkpt><trkpt lat="53.9434017" lon="-2.1575667"><ele>147.0</ele><time>2026-05-03T13:43:53.783Z</time></trkpt><trkpt lat="53.9432383" lon="-2.1575133"><ele>146.66666666666666</ele><time>2026-05-03T13:43:54.783Z</time></trkpt><trkpt lat="53.943065" lon="-2.157515"><ele>146.33333333333331</ele><time>2026-05-03T13:43:55.782Z</time></trkpt><trkpt lat="53.9428867" lon="-2.157555"><ele>146.0</ele><time>2026-05-03T13:43:56.787Z</time></trkpt><trkpt lat="53.9427067" lon="-2.157605"><ele>146.66666666666666</ele><time>2026-05-03T13:43:57.783Z</time></trkpt><trkpt lat="53.9425283" lon="-2.1576817"><ele>147.33333333333334</ele><time>2026-05-03T13:43:58.783Z</time></trkpt><trkpt lat="53.9423517" lon="-2.15779"><ele>148.0</ele><time>2026-05-03T13:43:59.783Z</time></trkpt><trkpt lat="53.9421817" lon="-2.15791"><ele>148.0</ele><time>2026-05-03T13:44:00.784Z</time></trkpt><trkpt lat="53.942025" lon="-2.15801"><ele>148.0</ele><time>2026-05-03T13:44:01.784Z</time></trkpt><trkpt lat="53.9418767" lon="-2.1580833"><ele>148.0</ele><time>2026-05-03T13:44:02.783Z</time></trkpt><trkpt lat="53.9417317" lon="-2.158135"><ele>148.33333333333334</ele><time>2026-05-03T13:44:03.783Z</time></trkpt><trkpt lat="53.941585" lon="-2.1581517"><ele>148.66666666666666</ele><time>2026-05-03T13:44:04.788Z</time></trkpt><trkpt lat="53.9414233" lon="-2.1581433"><ele>149.0</ele><time>2026-05-03T13:44:05.783Z</time></trkpt><trkpt lat="53.9412483" lon="-2.15812"><ele>149.0</ele><time>2026-05-03T13:44:06.787Z</time></trkpt><trkpt lat="53.9410733" lon="-2.158085"><ele>149.0</ele><time>2026-05-03T13:44:07.783Z</time></trkpt><trkpt lat="53.9408933" lon="-2.1580467"><ele>149.0</ele><time>2026-05-03T13:44:08.783Z</time></trkpt><trkpt lat="53.940715" lon="-2.1580017"><ele>149.66666666666666</ele><time>2026-05-03T13:44:09.783Z</time></trkpt><trkpt lat="53.9405317" lon="-2.1579417"><ele>150.33333333333334</ele><time>2026-05-03T13:44:10.783Z</time></trkpt><trkpt lat="53.9403467" lon="-2.1578817"><ele>151.0</ele><time>2026-05-03T13:44:11.783Z</time></trkpt><trkpt lat="53.94016" lon="-2.157815"><ele>149.33333333333334</ele><time>2026-05-03T13:44:12.787Z</time></trkpt><trkpt lat="53.9399833" lon="-2.15774"><ele>147.66666666666666</ele><time>2026-05-03T13:44:13.784Z</time></trkpt><trkpt lat="53.9398183" lon="-2.1576517"><ele>146.0</ele><time>2026-05-03T13:44:14.783Z</time></trkpt><trkpt lat="53.9396667" lon="-2.157565"><ele>146.0</ele><time>2026-05-03T13:44:15.781Z</time></trkpt><trkpt lat="53.9395333" lon="-2.157465"><ele>146.0</ele><time>2026-05-03T13:44:16.782Z</time></trkpt><trkpt lat="53.9394183" lon="-2.157365"><ele>146.0</ele><time>2026-05-03T13:44:17.783Z</time></trkpt><trkpt lat="53.9393033" lon="-2.1572567"><ele>146.0</ele><time>2026-05-03T13:44:18.783Z</time></trkpt><trkpt lat="53.9391683" lon="-2.1571467"><ele>144.66666666666666</ele><time>2026-05-03T13:44:19.785Z</time></trkpt><trkpt lat="53.9390117" lon="-2.15703"><ele>143.33333333333334</ele><time>2026-05-03T13:44:20.781Z</time></trkpt><trkpt lat="53.9388333" lon="-2.156925"><ele>142.0</ele><time>2026-05-03T13:44:21.783Z</time></trkpt><trkpt lat="53.938635" lon="-2.1568383"><ele>142.0</ele><time>2026-05-03T13:44:22.782Z</time></trkpt><trkpt lat="53.9384367" lon="-2.1567533"><ele>142.0</ele><time>2026-05-03T13:44:23.783Z</time></trkpt><trkpt lat="53.9382417" lon="-2.1566783"><ele>142.0</ele><time>2026-05-03T13:44:24.783Z</time></trkpt><trkpt lat="53.9380483" lon="-2.1566133"><ele>141.0</ele><time>2026-05-03T13:44:25.783Z</time></trkpt><trkpt lat="53.9378533" lon="-2.1565667"><ele>140.0</ele><time>2026-05-03T13:44:26.782Z</time></trkpt><trkpt lat="53.9376683" lon="-2.1565383"><ele>139.0</ele><time>2026-05-03T13:44:27.783Z</time></trkpt><trkpt lat="53.9374967" lon="-2.15652"><ele>139.33333333333334</ele><time>2026-05-03T13:44:28.783Z</time></trkpt><trkpt lat="53.9373367" lon="-2.15653"><ele>139.66666666666666</ele><time>2026-05-03T13:44:29.783Z</time></trkpt><trkpt lat="53.937185" lon="-2.156565"><ele>140.0</ele><time>2026-05-03T13:44:30.783Z</time></trkpt><trkpt lat="53.937045" lon="-2.156635"><ele>140.0</ele><time>2026-05-03T13:44:31.784Z</time></trkpt><trkpt lat="53.9369033" lon="-2.15675"><ele>140.0</ele><time>2026-05-03T13:44:32.783Z</time></trkpt><trkpt lat="53.93677" lon="-2.1569"><ele>140.0</ele><time>2026-05-03T13:44:33.782Z</time></trkpt><trkpt lat="53.9366383" lon="-2.1570867"><ele>139.33333333333331</ele><time>2026-05-03T13:44:34.782Z</time></trkpt><trkpt lat="53.936515" lon="-2.1572717"><ele>138.66666666666666</ele><time>2026-05-03T13:44:35.783Z</time></trkpt><trkpt lat="53.9363967" lon="-2.1574267"><ele>138.0</ele><time>2026-05-03T13:44:36.782Z</time></trkpt><trkpt lat="53.9362733" lon="-2.1575533"><ele>137.75</ele><time>2026-05-03T13:44:37.783Z</time></trkpt><trkpt lat="53.9361483" lon="-2.1576433"><ele>137.5</ele><time>2026-05-03T13:44:38.782Z</time></trkpt><trkpt lat="53.9360283" lon="-2.1576933"><ele>137.25</ele><time>2026-05-03T13:44:39.786Z</time></trkpt><trkpt lat="53.9358967" lon="-2.1577217"><ele>137.0</ele><time>2026-05-03T13:44:40.782Z</time></trkpt><trkpt lat="53.935745" lon="-2.1577517"><ele>137.0</ele><time>2026-05-03T13:44:41.783Z</time></trkpt><trkpt lat="53.9355733" lon="-2.1577633"><ele>137.0</ele><time>2026-05-03T13:44:42.783Z</time></trkpt><trkpt lat="53.9353867" lon="-2.1577533"><ele>137.0</ele><time>2026-05-03T13:44:43.783Z</time></trkpt><trkpt lat="53.935195" lon="-2.1577283"><ele>137.66666666666666</ele><time>2026-05-03T13:44:44.787Z</time></trkpt><trkpt lat="53.935005" lon="-2.1576883"><ele>138.33333333333334</ele><time>2026-05-03T13:44:45.787Z</time></trkpt><trkpt lat="53.93482" lon="-2.1576317"><ele>139.0</ele><time>2026-05-03T13:44:46.787Z</time></trkpt><trkpt lat="53.9346367" lon="-2.1575683"><ele>139.0</ele><time>2026-05-03T13:44:47.787Z</time></trkpt><trkpt lat="53.9344433" lon="-2.1575083"><ele>139.0</ele><time>2026-05-03T13:44:48.788Z</time></trkpt><trkpt lat="53.934245" lon="-2.1574533"><ele>139.0</ele><time>2026-05-03T13:44:49.783Z</time></trkpt><trkpt lat="53.93405" lon="-2.1573967"><ele>142.66666666666669</ele><time>2026-05-03T13:44:50.786Z</time></trkpt><trkpt lat="53.9338633" lon="-2.1573433"><ele>146.33333333333334</ele><time>2026-05-03T13:44:51.788Z</time></trkpt><trkpt lat="53.93369" lon="-2.1572917"><ele>150.0</ele><time>2026-05-03T13:44:52.788Z</time></trkpt><trkpt lat="53.933525" lon="-2.1572417"><ele>149.5</ele><time>2026-05-03T13:44:53.782Z</time></trkpt><trkpt lat="53.9333733" lon="-2.1571917"><ele>149.0</ele><time>2026-05-03T13:44:54.786Z</time></trkpt><trkpt lat="53.9332333" lon="-2.1571467"><ele>148.5</ele><time>2026-05-03T13:44:55.786Z</time></trkpt><trkpt lat="53.9331033" lon="-2.1571"><ele>148.0</ele><time>2026-05-03T13:44:56.786Z</time></trkpt><trkpt lat="53.932985" lon="-2.1570467"><ele>148.0</ele><time>2026-05-03T13:44:57.786Z</time></trkpt><trkpt lat="53.9328817" lon="-2.15699"><ele>148.0</ele><time>2026-05-03T13:44:58.787Z</time></trkpt><trkpt lat="53.9327867" lon="-2.15693"><ele>148.0</ele><time>2026-05-03T13:44:59.781Z</time></trkpt><trkpt lat="53.9326983" lon="-2.1568717"><ele>148.0</ele><time>2026-05-03T13:45:00.783Z</time></trkpt><trkpt lat="53.9326133" lon="-2.1568083"><ele>148.0</ele><time>2026-05-03T13:45:01.783Z</time></trkpt><trkpt lat="53.9325317" lon="-2.156745"><ele>147.4</ele><time>2026-05-03T13:45:02.786Z</time></trkpt><trkpt lat="53.9324483" lon="-2.1566733"><ele>146.8</ele><time>2026-05-03T13:45:03.783Z</time></trkpt><trkpt lat="53.932355" lon="-2.1565967"><ele>146.2</ele><time>2026-05-03T13:45:04.786Z</time></trkpt><trkpt lat="53.93226" lon="-2.15652"><ele>145.6</ele><time>2026-05-03T13:45:05.787Z</time></trkpt><trkpt lat="53.93217" lon="-2.1564433"><ele>145.0</ele><time>2026-05-03T13:45:06.786Z</time></trkpt><trkpt lat="53.9320867" lon="-2.15637"><ele>145.0</ele><time>2026-05-03T13:45:07.784Z</time></trkpt><trkpt lat="53.9320083" lon="-2.1563033"><ele>145.0</ele><time>2026-05-03T13:45:08.786Z</time></trkpt><trkpt lat="53.931935" lon="-2.15624"><ele>145.0</ele><time>2026-05-03T13:45:09.782Z</time></trkpt><trkpt lat="53.9318617" lon="-2.1561817"><ele>145.0</ele><time>2026-05-03T13:45:10.786Z</time></trkpt><trkpt lat="53.93179" lon="-2.1561283"><ele>145.0</ele><time>2026-05-03T13:45:11.788Z</time></trkpt><trkpt lat="53.9317283" lon="-2.1560833"><ele>145.0</ele><time>2026-05-03T13:45:12.786Z</time></trkpt><trkpt lat="53.93162" lon="-2.15601"><ele>145.0</ele><time>2026-05-03T13:45:14.786Z</time></trkpt><trkpt lat="53.9315517" lon="-2.1559733"><ele>145.0</ele><time>2026-05-03T13:45:16.786Z</time></trkpt><trkpt lat="53.9314367" lon="-2.155975"><ele>145.0</ele><time>2026-05-03T13:47:06.785Z</time></trkpt><trkpt lat="53.9313617" lon="-2.1559933"><ele>145.0</ele><time>2026-05-03T13:47:08.785Z</time></trkpt><trkpt lat="53.9313067" lon="-2.1560867"><ele>145.0</ele><time>2026-05-03T13:47:10.782Z</time></trkpt><trkpt lat="53.931245" lon="-2.1562917"><ele>145.0</ele><time>2026-05-03T13:47:12.787Z</time></trkpt><trkpt lat="53.9312433" lon="-2.1564733"><ele>145.0</ele><time>2026-05-03T13:47:13.782Z</time></trkpt><trkpt lat="53.9312417" lon="-2.1567183"><ele>145.0</ele><time>2026-05-03T13:47:14.782Z</time></trkpt><trkpt lat="53.9312283" lon="-2.1569733"><ele>145.0</ele><time>2026-05-03T13:47:15.783Z</time></trkpt><trkpt lat="53.9312133" lon="-2.1572333"><ele>145.0</ele><time>2026-05-03T13:47:16.782Z</time></trkpt><trkpt lat="53.9311983" lon="-2.1574883"><ele>145.0</ele><time>2026-05-03T13:47:17.784Z</time></trkpt><trkpt lat="53.9311733" lon="-2.1577483"><ele>145.0</ele><time>2026-05-03T13:47:18.783Z</time></trkpt><trkpt lat="53.9311467" lon="-2.1579983"><ele>144.66666666666669</ele><time>2026-05-03T13:47:19.784Z</time></trkpt><trkpt lat="53.9311267" lon="-2.1582583"><ele>144.33333333333334</ele><time>2026-05-03T13:47:20.783Z</time></trkpt><trkpt lat="53.9311033" lon="-2.1585217"><ele>144.0</ele><time>2026-05-03T13:47:21.783Z</time></trkpt><trkpt lat="53.93108" lon="-2.1588"><ele>143.33333333333334</ele><time>2026-05-03T13:47:22.786Z</time></trkpt><trkpt lat="53.9310483" lon="-2.1591083"><ele>142.66666666666669</ele><time>2026-05-03T13:47:23.783Z</time></trkpt><trkpt lat="53.9310133" lon="-2.1594433"><ele>142.0</ele><time>2026-05-03T13:47:24.787Z</time></trkpt><trkpt lat="53.9309783" lon="-2.1598017"><ele>140.66666666666669</ele><time>2026-05-03T13:47:25.787Z</time></trkpt><trkpt lat="53.93094" lon="-2.160175"><ele>139.33333333333334</ele><time>2026-05-03T13:47:26.782Z</time></trkpt><trkpt lat="53.930905" lon="-2.1605467"><ele>138.0</ele><time>2026-05-03T13:47:27.784Z</time></trkpt><trkpt lat="53.9308717" lon="-2.1609133"><ele>142.33333333333334</ele><time>2026-05-03T13:47:28.782Z</time></trkpt><trkpt lat="53.9308383" lon="-2.1612733"><ele>146.66666666666669</ele><time>2026-05-03T13:47:29.784Z</time></trkpt><trkpt lat="53.93081" lon="-2.16163"><ele>151.0</ele><time>2026-05-03T13:47:30.783Z</time></trkpt><trkpt lat="53.9307883" lon="-2.162005"><ele>148.5</ele><time>2026-05-03T13:47:31.783Z</time></trkpt><trkpt lat="53.93075" lon="-2.162395"><ele>146.0</ele><time>2026-05-03T13:47:32.783Z</time></trkpt><trkpt lat="53.93072" lon="-2.16279"><ele>146.0</ele><time>2026-05-03T13:47:33.783Z</time></trkpt><trkpt lat="53.9306817" lon="-2.1631833"><ele>146.0</ele><time>2026-05-03T13:47:34.784Z</time></trkpt><trkpt lat="53.9306383" lon="-2.1635717"><ele>145.0</ele><time>2026-05-03T13:47:35.786Z</time></trkpt><trkpt lat="53.9305917" lon="-2.1639517"><ele>144.0</ele><time>2026-05-03T13:47:36.783Z</time></trkpt><trkpt lat="53.9305417" lon="-2.16433"><ele>143.0</ele><time>2026-05-03T13:47:37.786Z</time></trkpt><trkpt lat="53.9304917" lon="-2.1647033"><ele>142.0</ele><time>2026-05-03T13:47:38.787Z</time></trkpt><trkpt lat="53.9304417" lon="-2.165075"><ele>142.0</ele><time>2026-05-03T13:47:39.787Z</time></trkpt><trkpt lat="53.9303967" lon="-2.1654467"><ele>142.0</ele><time>2026-05-03T13:47:40.786Z</time></trkpt><trkpt lat="53.9303517" lon="-2.1658133"><ele>142.0</ele><time>2026-05-03T13:47:41.783Z</time></trkpt><trkpt lat="53.9303067" lon="-2.1661617"><ele>143.0</ele><time>2026-05-03T13:47:42.784Z</time></trkpt><trkpt lat="53.930255" lon="-2.1665"><ele>144.0</ele><time>2026-05-03T13:47:43.785Z</time></trkpt><trkpt lat="53.930205" lon="-2.16682"><ele>145.0</ele><time>2026-05-03T13:47:44.784Z</time></trkpt><trkpt lat="53.930145" lon="-2.167125"><ele>149.33333333333334</ele><time>2026-05-03T13:47:45.783Z</time></trkpt><trkpt lat="53.9300767" lon="-2.1674067"><ele>153.66666666666666</ele><time>2026-05-03T13:47:46.784Z</time></trkpt><trkpt lat="53.9300033" lon="-2.1676683"><ele>158.0</ele><time>2026-05-03T13:47:47.787Z</time></trkpt><trkpt lat="53.9299283" lon="-2.16793"><ele>158.0</ele><time>2026-05-03T13:47:48.784Z</time></trkpt><trkpt lat="53.9282133" lon="-2.17078"><ele>158.0</ele><time>2026-05-03T13:48:04.023Z</time></trkpt><trkpt lat="53.927965" lon="-2.1709667"><ele>158.0</ele><time>2026-05-03T13:48:05.783Z</time></trkpt><trkpt lat="53.9278633" lon="-2.1711117"><ele>158.0</ele><time>2026-05-03T13:48:06.783Z</time></trkpt><trkpt lat="53.9277567" lon="-2.1712417"><ele>158.0</ele><time>2026-05-03T13:48:07.781Z</time></trkpt><trkpt lat="53.9276483" lon="-2.1713483"><ele>158.0</ele><time>2026-05-03T13:48:08.784Z</time></trkpt><trkpt lat="53.9275267" lon="-2.1714467"><ele>158.0</ele><time>2026-05-03T13:48:09.783Z</time></trkpt><trkpt lat="53.92741" lon="-2.1715217"><ele>158.0</ele><time>2026-05-03T13:48:10.783Z</time></trkpt><trkpt lat="53.9273083" lon="-2.1715983"><ele>158.5</ele><time>2026-05-03T13:48:11.784Z</time></trkpt><trkpt lat="53.9272017" lon="-2.1716783"><ele>159.0</ele><time>2026-05-03T13:48:12.785Z</time></trkpt><trkpt lat="53.9271" lon="-2.1717567"><ele>159.5</ele><time>2026-05-03T13:48:13.784Z</time></trkpt><trkpt lat="53.9269967" lon="-2.1718367"><ele>160.0</ele><time>2026-05-03T13:48:14.784Z</time></trkpt><trkpt lat="53.9268917" lon="-2.17192"><ele>160.0</ele><time>2026-05-03T13:48:15.785Z</time></trkpt><trkpt lat="53.9267867" lon="-2.1720067"><ele>160.0</ele><time>2026-05-03T13:48:16.784Z</time></trkpt><trkpt lat="53.92669" lon="-2.1720933"><ele>160.0</ele><time>2026-05-03T13:48:17.784Z</time></trkpt><trkpt lat="53.926595" lon="-2.1721833"><ele>160.0</ele><time>2026-05-03T13:48:18.785Z</time></trkpt><trkpt lat="53.9264983" lon="-2.172275"><ele>160.0</ele><time>2026-05-03T13:48:19.784Z</time></trkpt><trkpt lat="53.9263967" lon="-2.1723717"><ele>159.25</ele><time>2026-05-03T13:48:20.783Z</time></trkpt><trkpt lat="53.9262867" lon="-2.1724717"><ele>158.5</ele><time>2026-05-03T13:48:21.784Z</time></trkpt><trkpt lat="53.9261783" lon="-2.1725717"><ele>157.75</ele><time>2026-05-03T13:48:22.784Z</time></trkpt><trkpt lat="53.92607" lon="-2.172675"><ele>157.0</ele><time>2026-05-03T13:48:23.784Z</time></trkpt><trkpt lat="53.925965" lon="-2.1727817"><ele>156.5</ele><time>2026-05-03T13:48:24.784Z</time></trkpt><trkpt lat="53.9258617" lon="-2.1728867"><ele>156.0</ele><time>2026-05-03T13:48:25.785Z</time></trkpt><trkpt lat="53.925765" lon="-2.17299"><ele>155.5</ele><time>2026-05-03T13:48:26.783Z</time></trkpt><trkpt lat="53.92567" lon="-2.173095"><ele>155.0</ele><time>2026-05-03T13:48:27.784Z</time></trkpt><trkpt lat="53.9255767" lon="-2.1731967"><ele>154.5</ele><time>2026-05-03T13:48:28.788Z</time></trkpt><trkpt lat="53.9254833" lon="-2.1733033"><ele>154.0</ele><time>2026-05-03T13:48:29.784Z</time></trkpt><trkpt lat="53.9253917" lon="-2.1734233"><ele>153.5</ele><time>2026-05-03T13:48:30.785Z</time></trkpt><trkpt lat="53.9253" lon="-2.1735533"><ele>153.0</ele><time>2026-05-03T13:48:31.784Z</time></trkpt><trkpt lat="53.9252133" lon="-2.1736867"><ele>153.0</ele><time>2026-05-03T13:48:32.785Z</time></trkpt><trkpt lat="53.92513" lon="-2.173825"><ele>153.0</ele><time>2026-05-03T13:48:33.785Z</time></trkpt><trkpt lat="53.9250517" lon="-2.1739733"><ele>153.0</ele><time>2026-05-03T13:48:34.784Z</time></trkpt><trkpt lat="53.9249767" lon="-2.174125"><ele>153.0</ele><time>2026-05-03T13:48:35.785Z</time></trkpt><trkpt lat="53.9249033" lon="-2.1742683"><ele>152.5</ele><time>2026-05-03T13:48:36.783Z</time></trkpt><trkpt lat="53.9248317" lon="-2.1744067"><ele>152.0</ele><time>2026-05-03T13:48:37.785Z</time></trkpt><trkpt lat="53.92476" lon="-2.17455"><ele>151.5</ele><time>2026-05-03T13:48:38.785Z</time></trkpt><trkpt lat="53.92468" lon="-2.1747083"><ele>151.0</ele><time>2026-05-03T13:48:39.785Z</time></trkpt><trkpt lat="53.924595" lon="-2.174875"><ele>151.0</ele><time>2026-05-03T13:48:40.784Z</time></trkpt><trkpt lat="53.9245067" lon="-2.175045"><ele>151.0</ele><time>2026-05-03T13:48:41.783Z</time></trkpt><trkpt lat="53.92442" lon="-2.1752183"><ele>151.0</ele><time>2026-05-03T13:48:42.782Z</time></trkpt><trkpt lat="53.9243283" lon="-2.1754"><ele>151.0</ele><time>2026-05-03T13:48:43.784Z</time></trkpt><trkpt lat="53.924235" lon="-2.175585"><ele>151.5</ele><time>2026-05-03T13:48:44.783Z</time></trkpt><trkpt lat="53.9241433" lon="-2.175765"><ele>152.0</ele><time>2026-05-03T13:48:45.783Z</time></trkpt><trkpt lat="53.9240517" lon="-2.1759333"><ele>152.5</ele><time>2026-05-03T13:48:46.783Z</time></trkpt><trkpt lat="53.9239583" lon="-2.1760983"><ele>153.0</ele><time>2026-05-03T13:48:47.785Z</time></trkpt><trkpt lat="53.9238667" lon="-2.176265"><ele>153.0</ele><time>2026-05-03T13:48:48.784Z</time></trkpt><trkpt lat="53.9237783" lon="-2.17643"><ele>153.0</ele><time>2026-05-03T13:48:49.785Z</time></trkpt><trkpt lat="53.9236933" lon="-2.1765967"><ele>153.0</ele><time>2026-05-03T13:48:50.783Z</time></trkpt><trkpt lat="53.92361" lon="-2.1767583"><ele>153.0</ele><time>2026-05-03T13:48:51.783Z</time></trkpt><trkpt lat="53.9235283" lon="-2.176915"><ele>153.5</ele><time>2026-05-03T13:48:52.783Z</time></trkpt><trkpt lat="53.9234483" lon="-2.1770733"><ele>154.0</ele><time>2026-05-03T13:48:53.784Z</time></trkpt><trkpt lat="53.9233733" lon="-2.1772417"><ele>154.5</ele><time>2026-05-03T13:48:54.783Z</time></trkpt><trkpt lat="53.9233033" lon="-2.1774267"><ele>155.0</ele><time>2026-05-03T13:48:55.785Z</time></trkpt><trkpt lat="53.923245" lon="-2.1776383"><ele>156.0</ele><time>2026-05-03T13:48:56.784Z</time></trkpt><trkpt lat="53.9232033" lon="-2.1778717"><ele>157.0</ele><time>2026-05-03T13:48:57.784Z</time></trkpt><trkpt lat="53.923165" lon="-2.178115"><ele>158.0</ele><time>2026-05-03T13:48:58.785Z</time></trkpt><trkpt lat="53.923125" lon="-2.1783583"><ele>159.0</ele><time>2026-05-03T13:48:59.785Z</time></trkpt><trkpt lat="53.9230883" lon="-2.178605"><ele>159.0</ele><time>2026-05-03T13:49:00.784Z</time></trkpt><trkpt lat="53.923055" lon="-2.1788533"><ele>159.0</ele><time>2026-05-03T13:49:01.783Z</time></trkpt><trkpt lat="53.9230183" lon="-2.1790883"><ele>159.0</ele><time>2026-05-03T13:49:02.784Z</time></trkpt><trkpt lat="53.9229767" lon="-2.1793133"><ele>159.0</ele><time>2026-05-03T13:49:03.784Z</time></trkpt><trkpt lat="53.9229383" lon="-2.1795283"><ele>159.0</ele><time>2026-05-03T13:49:04.785Z</time></trkpt><trkpt lat="53.9228983" lon="-2.1797333"><ele>159.0</ele><time>2026-05-03T13:49:05.784Z</time></trkpt><trkpt lat="53.922855" lon="-2.1799367"><ele>159.0</ele><time>2026-05-03T13:49:06.784Z</time></trkpt><trkpt lat="53.922815" lon="-2.1801367"><ele>159.0</ele><time>2026-05-03T13:49:07.785Z</time></trkpt><trkpt lat="53.9227717" lon="-2.1803367"><ele>158.5</ele><time>2026-05-03T13:49:08.786Z</time></trkpt><trkpt lat="53.9227283" lon="-2.1805417"><ele>158.0</ele><time>2026-05-03T13:49:09.783Z</time></trkpt><trkpt lat="53.922685" lon="-2.18075"><ele>157.5</ele><time>2026-05-03T13:49:10.783Z</time></trkpt><trkpt lat="53.92264" lon="-2.1809517"><ele>157.0</ele><time>2026-05-03T13:49:11.784Z</time></trkpt><trkpt lat="53.9225967" lon="-2.1811483"><ele>155.75</ele><time>2026-05-03T13:49:12.783Z</time></trkpt><trkpt lat="53.922555" lon="-2.1813467"><ele>154.5</ele><time>2026-05-03T13:49:13.784Z</time></trkpt><trkpt lat="53.922515" lon="-2.18155"><ele>153.25</ele><time>2026-05-03T13:49:14.784Z</time></trkpt><trkpt lat="53.9224717" lon="-2.1817517"><ele>152.0</ele><time>2026-05-03T13:49:15.782Z</time></trkpt><trkpt lat="53.92243" lon="-2.18195"><ele>151.0</ele><time>2026-05-03T13:49:16.784Z</time></trkpt><trkpt lat="53.9223883" lon="-2.1821467"><ele>150.0</ele><time>2026-05-03T13:49:17.784Z</time></trkpt><trkpt lat="53.9223467" lon="-2.1823433"><ele>149.0</ele><time>2026-05-03T13:49:18.784Z</time></trkpt><trkpt lat="53.9222967" lon="-2.1825383"><ele>148.0</ele><time>2026-05-03T13:49:19.784Z</time></trkpt><trkpt lat="53.9222467" lon="-2.1827233"><ele>147.6</ele><time>2026-05-03T13:49:20.786Z</time></trkpt><trkpt lat="53.9221967" lon="-2.1829017"><ele>147.20000000000002</ele><time>2026-05-03T13:49:21.782Z</time></trkpt><trkpt lat="53.92214" lon="-2.1830617"><ele>146.8</ele><time>2026-05-03T13:49:22.784Z</time></trkpt><trkpt lat="53.9220933" lon="-2.1831783"><ele>146.4</ele><time>2026-05-03T13:49:23.786Z</time></trkpt><trkpt lat="53.9220483" lon="-2.1832617"><ele>146.0</ele><time>2026-05-03T13:49:24.787Z</time></trkpt><trkpt lat="53.92198" lon="-2.18337"><ele>146.0</ele><time>2026-05-03T13:49:26.785Z</time></trkpt><trkpt lat="53.9219033" lon="-2.1834983"><ele>146.0</ele><time>2026-05-03T13:49:31.785Z</time></trkpt><trkpt lat="53.9218483" lon="-2.1835817"><ele>146.0</ele><time>2026-05-03T13:49:32.785Z</time></trkpt><trkpt lat="53.9217833" lon="-2.1836767"><ele>146.0</ele><time>2026-05-03T13:49:33.783Z</time></trkpt><trkpt lat="53.9217083" lon="-2.1837783"><ele>146.0</ele><time>2026-05-03T13:49:34.784Z</time></trkpt><trkpt lat="53.921625" lon="-2.1838767"><ele>146.0</ele><time>2026-05-03T13:49:35.786Z</time></trkpt><trkpt lat="53.9215367" lon="-2.1839783"><ele>146.0</ele><time>2026-05-03T13:49:36.782Z</time></trkpt><trkpt lat="53.9214433" lon="-2.1840867"><ele>146.0</ele><time>2026-05-03T13:49:37.784Z</time></trkpt><trkpt lat="53.9213417" lon="-2.184205"><ele>146.0</ele><time>2026-05-03T13:49:38.783Z</time></trkpt><trkpt lat="53.921245" lon="-2.184335"><ele>146.0</ele><time>2026-05-03T13:49:39.784Z</time></trkpt><trkpt lat="53.92115" lon="-2.184485"><ele>146.0</ele><time>2026-05-03T13:49:40.786Z</time></trkpt><trkpt lat="53.9210633" lon="-2.18465"><ele>146.0</ele><time>2026-05-03T13:49:41.781Z</time></trkpt><trkpt lat="53.9209817" lon="-2.1848083"><ele>146.0</ele><time>2026-05-03T13:49:42.783Z</time></trkpt><trkpt lat="53.9209017" lon="-2.1849533"><ele>146.4</ele><time>2026-05-03T13:49:43.784Z</time></trkpt><trkpt lat="53.9208233" lon="-2.1850867"><ele>146.8</ele><time>2026-05-03T13:49:44.786Z</time></trkpt><trkpt lat="53.9207467" lon="-2.185215"><ele>147.20000000000002</ele><time>2026-05-03T13:49:45.786Z</time></trkpt><trkpt lat="53.9206683" lon="-2.18535"><ele>147.6</ele><time>2026-05-03T13:49:46.785Z</time></trkpt><trkpt lat="53.9205883" lon="-2.185485"><ele>148.0</ele><time>2026-05-03T13:49:47.786Z</time></trkpt><trkpt lat="53.920505" lon="-2.1856133"><ele>147.8</ele><time>2026-05-03T13:49:48.782Z</time></trkpt><trkpt lat="53.9204167" lon="-2.1857367"><ele>147.60000000000002</ele><time>2026-05-03T13:49:49.784Z</time></trkpt><trkpt lat="53.9203333" lon="-2.1858533"><ele>147.39999999999998</ele><time>2026-05-03T13:49:50.783Z</time></trkpt><trkpt lat="53.9202567" lon="-2.1859533"><ele>147.2</ele><time>2026-05-03T13:49:51.784Z</time></trkpt><trkpt lat="53.92018" lon="-2.1860483"><ele>147.0</ele><time>2026-05-03T13:49:52.786Z</time></trkpt><trkpt lat="53.9201033" lon="-2.18614"><ele>147.6</ele><time>2026-05-03T13:49:53.783Z</time></trkpt><trkpt lat="53.9200283" lon="-2.186235"><ele>148.2</ele><time>2026-05-03T13:49:54.786Z</time></trkpt><trkpt lat="53.919955" lon="-2.1863367"><ele>148.8</ele><time>2026-05-03T13:49:55.784Z</time></trkpt><trkpt lat="53.9198783" lon="-2.1864483"><ele>149.4</ele><time>2026-05-03T13:49:56.784Z</time></trkpt><trkpt lat="53.919805" lon="-2.1865733"><ele>150.0</ele><time>2026-05-03T13:49:57.784Z</time></trkpt><trkpt lat="53.9197283" lon="-2.1867"><ele>150.0</ele><time>2026-05-03T13:49:58.784Z</time></trkpt><trkpt lat="53.9196567" lon="-2.1868233"><ele>150.0</ele><time>2026-05-03T13:49:59.783Z</time></trkpt><trkpt lat="53.9195917" lon="-2.1869417"><ele>150.0</ele><time>2026-05-03T13:50:00.784Z</time></trkpt><trkpt lat="53.9195217" lon="-2.1870633"><ele>150.0</ele><time>2026-05-03T13:50:01.786Z</time></trkpt><trkpt lat="53.9194483" lon="-2.1871933"><ele>150.0</ele><time>2026-05-03T13:50:02.784Z</time></trkpt><trkpt lat="53.9193783" lon="-2.1873317"><ele>149.8</ele><time>2026-05-03T13:50:03.786Z</time></trkpt><trkpt lat="53.9193133" lon="-2.187465"><ele>149.6</ele><time>2026-05-03T13:50:04.785Z</time></trkpt><trkpt lat="53.91925" lon="-2.1875883"><ele>149.4</ele><time>2026-05-03T13:50:05.786Z</time></trkpt><trkpt lat="53.919195" lon="-2.1877"><ele>149.2</ele><time>2026-05-03T13:50:06.784Z</time></trkpt><trkpt lat="53.9191367" lon="-2.1878083"><ele>149.0</ele><time>2026-05-03T13:50:07.784Z</time></trkpt><trkpt lat="53.9190817" lon="-2.1879067"><ele>149.66666666666666</ele><time>2026-05-03T13:50:08.783Z</time></trkpt><trkpt lat="53.9190333" lon="-2.187995"><ele>150.33333333333331</ele><time>2026-05-03T13:50:09.783Z</time></trkpt><trkpt lat="53.9189917" lon="-2.1880867"><ele>151.0</ele><time>2026-05-03T13:50:10.784Z</time></trkpt><trkpt lat="53.9189483" lon="-2.188175"><ele>151.66666666666666</ele><time>2026-05-03T13:50:11.784Z</time></trkpt><trkpt lat="53.918905" lon="-2.1882567"><ele>152.33333333333334</ele><time>2026-05-03T13:50:12.783Z</time></trkpt><trkpt lat="53.918835" lon="-2.1883817"><ele>153.0</ele><time>2026-05-03T13:50:14.783Z</time></trkpt><trkpt lat="53.9187767" lon="-2.18849"><ele>153.0</ele><time>2026-05-03T13:50:17.783Z</time></trkpt><trkpt lat="53.9187233" lon="-2.18857"><ele>153.0</ele><time>2026-05-03T13:50:20.783Z</time></trkpt><trkpt lat="53.9186667" lon="-2.1886417"><ele>153.0</ele><time>2026-05-03T13:50:27.782Z</time></trkpt><trkpt lat="53.9185783" lon="-2.18868"><ele>153.0</ele><time>2026-05-03T13:50:29.782Z</time></trkpt><trkpt lat="53.918445" lon="-2.1886483"><ele>153.0</ele><time>2026-05-03T13:50:31.783Z</time></trkpt><trkpt lat="53.9183667" lon="-2.1886133"><ele>153.0</ele><time>2026-05-03T13:50:32.786Z</time></trkpt><trkpt lat="53.9182867" lon="-2.1885767"><ele>154.0</ele><time>2026-05-03T13:50:33.786Z</time></trkpt><trkpt lat="53.9182033" lon="-2.1885183"><ele>155.0</ele><time>2026-05-03T13:50:34.784Z</time></trkpt><trkpt lat="53.9181" lon="-2.1884483"><ele>156.0</ele><time>2026-05-03T13:50:35.784Z</time></trkpt><trkpt lat="53.918" lon="-2.188355"><ele>157.0</ele><time>2026-05-03T13:50:36.784Z</time></trkpt><trkpt lat="53.9179133" lon="-2.188265"><ele>158.0</ele><time>2026-05-03T13:50:37.784Z</time></trkpt><trkpt lat="53.9178483" lon="-2.1881917"><ele>158.0</ele><time>2026-05-03T13:50:38.783Z</time></trkpt><trkpt lat="53.9177583" lon="-2.18812"><ele>158.0</ele><time>2026-05-03T13:50:40.786Z</time></trkpt><trkpt lat="53.9176833" lon="-2.1881533"><ele>158.0</ele><time>2026-05-03T13:50:42.786Z</time></trkpt><trkpt lat="53.917615" lon="-2.1882517"><ele>158.0</ele><time>2026-05-03T13:50:44.783Z</time></trkpt><trkpt lat="53.917545" lon="-2.1883017"><ele>158.0</ele><time>2026-05-03T13:50:46.786Z</time></trkpt><trkpt lat="53.917445" lon="-2.1882933"><ele>158.0</ele><time>2026-05-03T13:50:48.783Z</time></trkpt><trkpt lat="53.9173217" lon="-2.188265"><ele>158.42857142857144</ele><time>2026-05-03T13:50:50.786Z</time></trkpt><trkpt lat="53.9172583" lon="-2.1882433"><ele>158.85714285714286</ele><time>2026-05-03T13:50:51.783Z</time></trkpt><trkpt lat="53.9171867" lon="-2.188215"><ele>159.28571428571428</ele><time>2026-05-03T13:50:52.783Z</time></trkpt><trkpt lat="53.9171167" lon="-2.1881883"><ele>159.71428571428572</ele><time>2026-05-03T13:50:53.785Z</time></trkpt><trkpt lat="53.917045" lon="-2.1881633"><ele>160.14285714285714</ele><time>2026-05-03T13:50:54.784Z</time></trkpt><trkpt lat="53.9169717" lon="-2.1881483"><ele>160.57142857142858</ele><time>2026-05-03T13:50:55.784Z</time></trkpt><trkpt lat="53.9169017" lon="-2.18813"><ele>161.0</ele><time>2026-05-03T13:50:56.784Z</time></trkpt><trkpt lat="53.91683" lon="-2.1881167"><ele>161.0</ele><time>2026-05-03T13:50:57.784Z</time></trkpt><trkpt lat="53.91676" lon="-2.1881"><ele>161.0</ele><time>2026-05-03T13:50:58.783Z</time></trkpt><trkpt lat="53.9166933" lon="-2.1880783"><ele>161.0</ele><time>2026-05-03T13:50:59.784Z</time></trkpt><trkpt lat="53.9166183" lon="-2.1880667"><ele>161.0</ele><time>2026-05-03T13:51:00.783Z</time></trkpt><trkpt lat="53.9165333" lon="-2.1880667"><ele>161.0</ele><time>2026-05-03T13:51:01.783Z</time></trkpt><trkpt lat="53.9164517" lon="-2.1880683"><ele>161.0</ele><time>2026-05-03T13:51:02.782Z</time></trkpt><trkpt lat="53.9163767" lon="-2.1880733"><ele>161.42857142857142</ele><time>2026-05-03T13:51:03.783Z</time></trkpt><trkpt lat="53.9163017" lon="-2.1881083"><ele>161.85714285714286</ele><time>2026-05-03T13:51:04.784Z</time></trkpt><trkpt lat="53.9162367" lon="-2.18816"><ele>162.28571428571428</ele><time>2026-05-03T13:51:05.784Z</time></trkpt><trkpt lat="53.9161867" lon="-2.1882383"><ele>162.71428571428572</ele><time>2026-05-03T13:51:06.784Z</time></trkpt><trkpt lat="53.9161383" lon="-2.1883267"><ele>163.14285714285714</ele><time>2026-05-03T13:51:07.783Z</time></trkpt><trkpt lat="53.9160967" lon="-2.188415"><ele>163.57142857142856</ele><time>2026-05-03T13:51:08.783Z</time></trkpt><trkpt lat="53.9160583" lon="-2.1885"><ele>164.0</ele><time>2026-05-03T13:51:09.782Z</time></trkpt><trkpt lat="53.9160133" lon="-2.18859"><ele>164.33333333333331</ele><time>2026-05-03T13:51:10.783Z</time></trkpt><trkpt lat="53.9159617" lon="-2.18868"><ele>164.66666666666666</ele><time>2026-05-03T13:51:11.783Z</time></trkpt><trkpt lat="53.9159033" lon="-2.188775"><ele>165.0</ele><time>2026-05-03T13:51:12.783Z</time></trkpt><trkpt lat="53.9158433" lon="-2.1888667"><ele>165.33333333333334</ele><time>2026-05-03T13:51:13.784Z</time></trkpt><trkpt lat="53.9157767" lon="-2.188955"><ele>165.66666666666669</ele><time>2026-05-03T13:51:14.784Z</time></trkpt><trkpt lat="53.9157033" lon="-2.189035"><ele>166.0</ele><time>2026-05-03T13:51:15.783Z</time></trkpt><trkpt lat="53.9156383" lon="-2.1891117"><ele>166.16666666666669</ele><time>2026-05-03T13:51:16.783Z</time></trkpt><trkpt lat="53.91557" lon="-2.1891833"><ele>166.33333333333334</ele><time>2026-05-03T13:51:17.784Z</time></trkpt><trkpt lat="53.9155033" lon="-2.1892533"><ele>166.5</ele><time>2026-05-03T13:51:18.783Z</time></trkpt><trkpt lat="53.9154383" lon="-2.1893217"><ele>166.66666666666666</ele><time>2026-05-03T13:51:19.783Z</time></trkpt><trkpt lat="53.9153717" lon="-2.1893967"><ele>166.83333333333331</ele><time>2026-05-03T13:51:20.782Z</time></trkpt><trkpt lat="53.9152967" lon="-2.1894517"><ele>167.0</ele><time>2026-05-03T13:51:21.783Z</time></trkpt><trkpt lat="53.9152217" lon="-2.1894917"><ele>167.0</ele><time>2026-05-03T13:51:22.785Z</time></trkpt><trkpt lat="53.91514" lon="-2.189515"><ele>167.0</ele><time>2026-05-03T13:51:23.784Z</time></trkpt><trkpt lat="53.91505" lon="-2.1895033"><ele>167.0</ele><time>2026-05-03T13:51:24.784Z</time></trkpt><trkpt lat="53.9149617" lon="-2.1894217"><ele>167.0</ele><time>2026-05-03T13:51:25.783Z</time></trkpt><trkpt lat="53.914865" lon="-2.1893183"><ele>167.0</ele><time>2026-05-03T13:51:26.784Z</time></trkpt><trkpt lat="53.9147667" lon="-2.1892083"><ele>167.0</ele><time>2026-05-03T13:51:27.784Z</time></trkpt><trkpt lat="53.9146733" lon="-2.1891017"><ele>167.0</ele><time>2026-05-03T13:51:28.785Z</time></trkpt><trkpt lat="53.9145767" lon="-2.1890083"><ele>167.0</ele><time>2026-05-03T13:51:29.784Z</time></trkpt><trkpt lat="53.9144817" lon="-2.188915"><ele>167.0</ele><time>2026-05-03T13:51:30.784Z</time></trkpt><trkpt lat="53.914385" lon="-2.1888217"><ele>167.0</ele><time>2026-05-03T13:51:31.782Z</time></trkpt><trkpt lat="53.9142883" lon="-2.188735"><ele>168.75</ele><time>2026-05-03T13:51:32.783Z</time></trkpt><trkpt lat="53.91419" lon="-2.1886467"><ele>170.5</ele><time>2026-05-03T13:51:33.782Z</time></trkpt><trkpt lat="53.9140867" lon="-2.1885583"><ele>172.25</ele><time>2026-05-03T13:51:34.786Z</time></trkpt><trkpt lat="53.9139867" lon="-2.1884683"><ele>174.0</ele><time>2026-05-03T13:51:35.785Z</time></trkpt><trkpt lat="53.91389" lon="-2.188375"><ele>174.0</ele><time>2026-05-03T13:51:36.785Z</time></trkpt><trkpt lat="53.9137917" lon="-2.1882833"><ele>174.0</ele><time>2026-05-03T13:51:37.784Z</time></trkpt><trkpt lat="53.9136867" lon="-2.1881983"><ele>174.0</ele><time>2026-05-03T13:51:38.786Z</time></trkpt><trkpt lat="53.9135817" lon="-2.1881117"><ele>174.0</ele><time>2026-05-03T13:51:39.786Z</time></trkpt><trkpt lat="53.9134733" lon="-2.1880283"><ele>175.0</ele><time>2026-05-03T13:51:40.783Z</time></trkpt><trkpt lat="53.9133733" lon="-2.18793"><ele>176.0</ele><time>2026-05-03T13:51:41.785Z</time></trkpt><trkpt lat="53.9132717" lon="-2.1878317"><ele>177.0</ele><time>2026-05-03T13:51:42.783Z</time></trkpt><trkpt lat="53.91317" lon="-2.18773"><ele>178.0</ele><time>2026-05-03T13:51:43.783Z</time></trkpt><trkpt lat="53.9130633" lon="-2.1876333"><ele>178.0</ele><time>2026-05-03T13:51:44.786Z</time></trkpt><trkpt lat="53.9129617" lon="-2.1875433"><ele>178.0</ele><time>2026-05-03T13:51:45.786Z</time></trkpt><trkpt lat="53.9128583" lon="-2.1874583"><ele>178.0</ele><time>2026-05-03T13:51:46.782Z</time></trkpt><trkpt lat="53.9127567" lon="-2.1873883"><ele>178.0</ele><time>2026-05-03T13:51:47.785Z</time></trkpt><trkpt lat="53.9126533" lon="-2.18733"><ele>178.0</ele><time>2026-05-03T13:51:48.783Z</time></trkpt><trkpt lat="53.91255" lon="-2.1872833"><ele>180.0</ele><time>2026-05-03T13:51:49.783Z</time></trkpt><trkpt lat="53.912445" lon="-2.1872483"><ele>182.0</ele><time>2026-05-03T13:51:50.783Z</time></trkpt><trkpt lat="53.9123367" lon="-2.1872317"><ele>184.0</ele><time>2026-05-03T13:51:51.788Z</time></trkpt><trkpt lat="53.9122267" lon="-2.1872333"><ele>186.0</ele><time>2026-05-03T13:51:52.784Z</time></trkpt><trkpt lat="53.9121133" lon="-2.187255"><ele>188.0</ele><time>2026-05-03T13:51:53.783Z</time></trkpt><trkpt lat="53.912" lon="-2.18729"><ele>188.0</ele><time>2026-05-03T13:51:54.784Z</time></trkpt><trkpt lat="53.9118883" lon="-2.1873367"><ele>188.0</ele><time>2026-05-03T13:51:55.783Z</time></trkpt><trkpt lat="53.91178" lon="-2.1874"><ele>188.0</ele><time>2026-05-03T13:51:56.784Z</time></trkpt><trkpt lat="53.9116717" lon="-2.1874667"><ele>188.0</ele><time>2026-05-03T13:51:57.784Z</time></trkpt><trkpt lat="53.911565" lon="-2.1875383"><ele>189.5</ele><time>2026-05-03T13:51:58.784Z</time></trkpt><trkpt lat="53.9114567" lon="-2.1876167"><ele>191.0</ele><time>2026-05-03T13:51:59.784Z</time></trkpt><trkpt lat="53.91135" lon="-2.1877067"><ele>192.5</ele><time>2026-05-03T13:52:00.787Z</time></trkpt><trkpt lat="53.9112417" lon="-2.187805"><ele>194.0</ele><time>2026-05-03T13:52:01.783Z</time></trkpt><trkpt lat="53.9111333" lon="-2.1879067"><ele>194.0</ele><time>2026-05-03T13:52:02.786Z</time></trkpt><trkpt lat="53.9110233" lon="-2.188"><ele>194.0</ele><time>2026-05-03T13:52:03.781Z</time></trkpt><trkpt lat="53.9109117" lon="-2.1880883"><ele>194.0</ele><time>2026-05-03T13:52:04.784Z</time></trkpt><trkpt lat="53.910805" lon="-2.1881833"><ele>194.0</ele><time>2026-05-03T13:52:05.783Z</time></trkpt><trkpt lat="53.9107083" lon="-2.1882783"><ele>195.79999999999998</ele><time>2026-05-03T13:52:06.784Z</time></trkpt><trkpt lat="53.91061" lon="-2.188375"><ele>197.6</ele><time>2026-05-03T13:52:07.783Z</time></trkpt><trkpt lat="53.910515" lon="-2.1884667"><ele>199.4</ele><time>2026-05-03T13:52:08.784Z</time></trkpt><trkpt lat="53.9104267" lon="-2.18857"><ele>201.2</ele><time>2026-05-03T13:52:09.784Z</time></trkpt><trkpt lat="53.9103333" lon="-2.18867"><ele>203.0</ele><time>2026-05-03T13:52:10.783Z</time></trkpt><trkpt lat="53.91024" lon="-2.188775"><ele>203.0</ele><time>2026-05-03T13:52:11.783Z</time></trkpt><trkpt lat="53.9101383" lon="-2.1888717"><ele>203.0</ele><time>2026-05-03T13:52:12.783Z</time></trkpt><trkpt lat="53.9100283" lon="-2.1889467"><ele>203.0</ele><time>2026-05-03T13:52:13.784Z</time></trkpt><trkpt lat="53.909925" lon="-2.18901"><ele>203.0</ele><time>2026-05-03T13:52:14.783Z</time></trkpt><trkpt lat="53.9098233" lon="-2.1890817"><ele>204.60000000000002</ele><time>2026-05-03T13:52:15.782Z</time></trkpt><trkpt lat="53.90973" lon="-2.1891617"><ele>206.20000000000002</ele><time>2026-05-03T13:52:16.784Z</time></trkpt><trkpt lat="53.9096367" lon="-2.1892333"><ele>207.8</ele><time>2026-05-03T13:52:17.783Z</time></trkpt><trkpt lat="53.9095367" lon="-2.1893033"><ele>209.4</ele><time>2026-05-03T13:52:18.784Z</time></trkpt><trkpt lat="53.90943" lon="-2.1893633"><ele>211.0</ele><time>2026-05-03T13:52:19.784Z</time></trkpt><trkpt lat="53.9093217" lon="-2.189415"><ele>212.0</ele><time>2026-05-03T13:52:20.781Z</time></trkpt><trkpt lat="53.9092133" lon="-2.1894617"><ele>213.0</ele><time>2026-05-03T13:52:21.783Z</time></trkpt><trkpt lat="53.9091067" lon="-2.1895017"><ele>214.00000000000003</ele><time>2026-05-03T13:52:22.787Z</time></trkpt><trkpt lat="53.9089983" lon="-2.189525"><ele>215.0</ele><time>2026-05-03T13:52:23.784Z</time></trkpt><trkpt lat="53.90888" lon="-2.18954"><ele>216.0</ele><time>2026-05-03T13:52:24.784Z</time></trkpt><trkpt lat="53.9087583" lon="-2.1895333"><ele>216.0</ele><time>2026-05-03T13:52:25.783Z</time></trkpt><trkpt lat="53.9086433" lon="-2.1895017"><ele>216.0</ele><time>2026-05-03T13:52:26.784Z</time></trkpt><trkpt lat="53.9085283" lon="-2.189445"><ele>216.0</ele><time>2026-05-03T13:52:27.783Z</time></trkpt><trkpt lat="53.9084083" lon="-2.1893683"><ele>216.0</ele><time>2026-05-03T13:52:28.783Z</time></trkpt><trkpt lat="53.908275" lon="-2.1892967"><ele>215.0</ele><time>2026-05-03T13:52:29.783Z</time></trkpt><trkpt lat="53.9081417" lon="-2.1892317"><ele>214.0</ele><time>2026-05-03T13:52:30.783Z</time></trkpt><trkpt lat="53.9080133" lon="-2.1891717"><ele>213.0</ele><time>2026-05-03T13:52:31.784Z</time></trkpt><trkpt lat="53.90789" lon="-2.18912"><ele>212.0</ele><time>2026-05-03T13:52:32.783Z</time></trkpt><trkpt lat="53.9077717" lon="-2.1890683"><ele>212.0</ele><time>2026-05-03T13:52:33.786Z</time></trkpt><trkpt lat="53.907655" lon="-2.189015"><ele>212.0</ele><time>2026-05-03T13:52:34.785Z</time></trkpt><trkpt lat="53.907545" lon="-2.1889533"><ele>212.0</ele><time>2026-05-03T13:52:35.786Z</time></trkpt><trkpt lat="53.9074417" lon="-2.1888783"><ele>212.0</ele><time>2026-05-03T13:52:36.786Z</time></trkpt><trkpt lat="53.90734" lon="-2.1888017"><ele>213.0</ele><time>2026-05-03T13:52:37.784Z</time></trkpt><trkpt lat="53.90724" lon="-2.18872"><ele>214.0</ele><time>2026-05-03T13:52:38.786Z</time></trkpt><trkpt lat="53.90714" lon="-2.1886283"><ele>215.0</ele><time>2026-05-03T13:52:39.782Z</time></trkpt><trkpt lat="53.907035" lon="-2.1885483"><ele>216.0</ele><time>2026-05-03T13:52:40.786Z</time></trkpt><trkpt lat="53.906925" lon="-2.1884783"><ele>216.0</ele><time>2026-05-03T13:52:41.786Z</time></trkpt><trkpt lat="53.9068133" lon="-2.1884167"><ele>216.0</ele><time>2026-05-03T13:52:42.786Z</time></trkpt><trkpt lat="53.906705" lon="-2.1883633"><ele>216.0</ele><time>2026-05-03T13:52:43.788Z</time></trkpt><trkpt lat="53.9065933" lon="-2.188325"><ele>216.0</ele><time>2026-05-03T13:52:44.786Z</time></trkpt><trkpt lat="53.906485" lon="-2.18829"><ele>216.8</ele><time>2026-05-03T13:52:45.786Z</time></trkpt><trkpt lat="53.9063767" lon="-2.188255"><ele>217.60000000000002</ele><time>2026-05-03T13:52:46.784Z</time></trkpt><trkpt lat="53.9062667" lon="-2.1882267"><ele>218.4</ele><time>2026-05-03T13:52:47.783Z</time></trkpt><trkpt lat="53.9061533" lon="-2.1882033"><ele>219.2</ele><time>2026-05-03T13:52:48.783Z</time></trkpt><trkpt lat="53.9060417" lon="-2.188185"><ele>220.0</ele><time>2026-05-03T13:52:49.782Z</time></trkpt><trkpt lat="53.9059283" lon="-2.18816"><ele>223.0</ele><time>2026-05-03T13:52:50.782Z</time></trkpt><trkpt lat="53.905815" lon="-2.1881233"><ele>226.0</ele><time>2026-05-03T13:52:51.783Z</time></trkpt><trkpt lat="53.905705" lon="-2.1880667"><ele>229.0</ele><time>2026-05-03T13:52:52.784Z</time></trkpt><trkpt lat="53.9055983" lon="-2.1879933"><ele>232.0</ele><time>2026-05-03T13:52:53.784Z</time></trkpt><trkpt lat="53.9054967" lon="-2.1879"><ele>232.0</ele><time>2026-05-03T13:52:54.784Z</time></trkpt><trkpt lat="53.9053967" lon="-2.1877967"><ele>232.0</ele><time>2026-05-03T13:52:55.783Z</time></trkpt><trkpt lat="53.9052983" lon="-2.1876867"><ele>232.0</ele><time>2026-05-03T13:52:56.782Z</time></trkpt><trkpt lat="53.9051967" lon="-2.1875883"><ele>232.0</ele><time>2026-05-03T13:52:57.783Z</time></trkpt><trkpt lat="53.9050917" lon="-2.1874933"><ele>231.25</ele><time>2026-05-03T13:52:58.787Z</time></trkpt><trkpt lat="53.90498" lon="-2.1874"><ele>230.5</ele><time>2026-05-03T13:52:59.786Z</time></trkpt><trkpt lat="53.9048583" lon="-2.18731"><ele>229.75</ele><time>2026-05-03T13:53:00.786Z</time></trkpt><trkpt lat="53.904725" lon="-2.1872333"><ele>229.0</ele><time>2026-05-03T13:53:01.785Z</time></trkpt><trkpt lat="53.9045867" lon="-2.1871583"><ele>229.0</ele><time>2026-05-03T13:53:02.783Z</time></trkpt><trkpt lat="53.9044417" lon="-2.187085"><ele>229.0</ele><time>2026-05-03T13:53:03.786Z</time></trkpt><trkpt lat="53.9042967" lon="-2.18701"><ele>229.0</ele><time>2026-05-03T13:53:04.787Z</time></trkpt><trkpt lat="53.904155" lon="-2.1869333"><ele>230.0</ele><time>2026-05-03T13:53:05.783Z</time></trkpt><trkpt lat="53.9040183" lon="-2.1868433"><ele>231.0</ele><time>2026-05-03T13:53:06.783Z</time></trkpt><trkpt lat="53.90388" lon="-2.1867467"><ele>232.0</ele><time>2026-05-03T13:53:07.786Z</time></trkpt><trkpt lat="53.9037367" lon="-2.186645"><ele>232.0</ele><time>2026-05-03T13:53:08.785Z</time></trkpt><trkpt lat="53.9035917" lon="-2.186545"><ele>232.0</ele><time>2026-05-03T13:53:09.783Z</time></trkpt><trkpt lat="53.9034417" lon="-2.1864433"><ele>232.0</ele><time>2026-05-03T13:53:10.786Z</time></trkpt><trkpt lat="53.90329" lon="-2.1863433"><ele>231.0</ele><time>2026-05-03T13:53:11.788Z</time></trkpt><trkpt lat="53.9031483" lon="-2.1862467"><ele>230.0</ele><time>2026-05-03T13:53:12.786Z</time></trkpt><trkpt lat="53.903015" lon="-2.186155"><ele>229.0</ele><time>2026-05-03T13:53:13.784Z</time></trkpt><trkpt lat="53.90289" lon="-2.1860717"><ele>228.0</ele><time>2026-05-03T13:53:14.784Z</time></trkpt><trkpt lat="53.9027667" lon="-2.185985"><ele>228.0</ele><time>2026-05-03T13:53:15.782Z</time></trkpt><trkpt lat="53.9026433" lon="-2.1858967"><ele>228.0</ele><time>2026-05-03T13:53:16.784Z</time></trkpt><trkpt lat="53.902515" lon="-2.1858017"><ele>228.0</ele><time>2026-05-03T13:53:17.784Z</time></trkpt><trkpt lat="53.9023867" lon="-2.1857067"><ele>228.0</ele><time>2026-05-03T13:53:18.781Z</time></trkpt><trkpt lat="53.902265" lon="-2.1856133"><ele>227.75</ele><time>2026-05-03T13:53:19.786Z</time></trkpt><trkpt lat="53.90215" lon="-2.18552"><ele>227.5</ele><time>2026-05-03T13:53:20.782Z</time></trkpt><trkpt lat="53.90204" lon="-2.185425"><ele>227.25</ele><time>2026-05-03T13:53:21.783Z</time></trkpt><trkpt lat="53.9019333" lon="-2.18534"><ele>227.0</ele><time>2026-05-03T13:53:22.784Z</time></trkpt><trkpt lat="53.9018233" lon="-2.1852533"><ele>229.5</ele><time>2026-05-03T13:53:23.782Z</time></trkpt><trkpt lat="53.9017083" lon="-2.18517"><ele>232.0</ele><time>2026-05-03T13:53:24.785Z</time></trkpt><trkpt lat="53.901585" lon="-2.185085"><ele>234.5</ele><time>2026-05-03T13:53:25.786Z</time></trkpt><trkpt lat="53.9014617" lon="-2.18499"><ele>237.0</ele><time>2026-05-03T13:53:26.786Z</time></trkpt><trkpt lat="53.9013383" lon="-2.1848833"><ele>236.0</ele><time>2026-05-03T13:53:27.783Z</time></trkpt><trkpt lat="53.901205" lon="-2.1847717"><ele>235.0</ele><time>2026-05-03T13:53:28.786Z</time></trkpt><trkpt lat="53.90106" lon="-2.1846367"><ele>234.0</ele><time>2026-05-03T13:53:29.783Z</time></trkpt><trkpt lat="53.9009083" lon="-2.18449"><ele>234.0</ele><time>2026-05-03T13:53:30.784Z</time></trkpt><trkpt lat="53.9007433" lon="-2.18433"><ele>234.0</ele><time>2026-05-03T13:53:31.785Z</time></trkpt><trkpt lat="53.9005767" lon="-2.184155"><ele>234.0</ele><time>2026-05-03T13:53:32.786Z</time></trkpt><trkpt lat="53.9004133" lon="-2.18398"><ele>233.0</ele><time>2026-05-03T13:53:33.782Z</time></trkpt><trkpt lat="53.9002567" lon="-2.1838117"><ele>232.0</ele><time>2026-05-03T13:53:34.786Z</time></trkpt><trkpt lat="53.9001017" lon="-2.183645"><ele>231.0</ele><time>2026-05-03T13:53:35.786Z</time></trkpt><trkpt lat="53.8999517" lon="-2.1834817"><ele>231.0</ele><time>2026-05-03T13:53:36.784Z</time></trkpt><trkpt lat="53.89981" lon="-2.18333"><ele>231.0</ele><time>2026-05-03T13:53:37.784Z</time></trkpt><trkpt lat="53.89968" lon="-2.1831883"><ele>231.0</ele><time>2026-05-03T13:53:38.784Z</time></trkpt><trkpt lat="53.8995483" lon="-2.1830717"><ele>230.0</ele><time>2026-05-03T13:53:39.784Z</time></trkpt><trkpt lat="53.8994167" lon="-2.1829717"><ele>229.0</ele><time>2026-05-03T13:53:40.787Z</time></trkpt><trkpt lat="53.89928" lon="-2.182875"><ele>228.0</ele><time>2026-05-03T13:53:41.784Z</time></trkpt><trkpt lat="53.89915" lon="-2.18275"><ele>227.0</ele><time>2026-05-03T13:53:42.785Z</time></trkpt><trkpt lat="53.8990333" lon="-2.1826167"><ele>227.0</ele><time>2026-05-03T13:53:43.784Z</time></trkpt><trkpt lat="53.898925" lon="-2.1824867"><ele>227.0</ele><time>2026-05-03T13:53:44.785Z</time></trkpt><trkpt lat="53.8988167" lon="-2.182385"><ele>227.0</ele><time>2026-05-03T13:53:45.783Z</time></trkpt><trkpt lat="53.89869" lon="-2.1823033"><ele>227.0</ele><time>2026-05-03T13:53:46.785Z</time></trkpt><trkpt lat="53.8985517" lon="-2.1822383"><ele>224.33333333333334</ele><time>2026-05-03T13:53:47.785Z</time></trkpt><trkpt lat="53.8984017" lon="-2.1821833"><ele>221.66666666666669</ele><time>2026-05-03T13:53:48.784Z</time></trkpt><trkpt lat="53.89825" lon="-2.1821317"><ele>219.0</ele><time>2026-05-03T13:53:49.784Z</time></trkpt><trkpt lat="53.8981" lon="-2.1820867"><ele>219.0</ele><time>2026-05-03T13:53:50.783Z</time></trkpt><trkpt lat="53.8979517" lon="-2.1820383"><ele>219.0</ele><time>2026-05-03T13:53:51.783Z</time></trkpt><trkpt lat="53.8977983" lon="-2.18197"><ele>219.0</ele><time>2026-05-03T13:53:52.787Z</time></trkpt><trkpt lat="53.8976433" lon="-2.1818867"><ele>223.33333333333331</ele><time>2026-05-03T13:53:53.787Z</time></trkpt><trkpt lat="53.8974783" lon="-2.181795"><ele>227.66666666666666</ele><time>2026-05-03T13:53:54.787Z</time></trkpt><trkpt lat="53.8973083" lon="-2.1816967"><ele>232.0</ele><time>2026-05-03T13:53:55.786Z</time></trkpt><trkpt lat="53.8971417" lon="-2.1815867"><ele>230.33333333333331</ele><time>2026-05-03T13:53:56.787Z</time></trkpt><trkpt lat="53.8969767" lon="-2.1814683"><ele>228.66666666666669</ele><time>2026-05-03T13:53:57.783Z</time></trkpt><trkpt lat="53.896815" lon="-2.1813317"><ele>227.0</ele><time>2026-05-03T13:53:58.783Z</time></trkpt><trkpt lat="53.896655" lon="-2.1811667"><ele>227.0</ele><time>2026-05-03T13:53:59.785Z</time></trkpt><trkpt lat="53.896495" lon="-2.1809917"><ele>227.0</ele><time>2026-05-03T13:54:00.787Z</time></trkpt><trkpt lat="53.89633" lon="-2.1808183"><ele>227.0</ele><time>2026-05-03T13:54:01.783Z</time></trkpt><trkpt lat="53.896165" lon="-2.1806517"><ele>225.33333333333334</ele><time>2026-05-03T13:54:02.788Z</time></trkpt><trkpt lat="53.895985" lon="-2.1805183"><ele>223.66666666666669</ele><time>2026-05-03T13:54:03.784Z</time></trkpt><trkpt lat="53.8957983" lon="-2.1804217"><ele>222.0</ele><time>2026-05-03T13:54:04.788Z</time></trkpt><trkpt lat="53.895605" lon="-2.18035"><ele>222.0</ele><time>2026-05-03T13:54:05.782Z</time></trkpt><trkpt lat="53.8954133" lon="-2.1802933"><ele>222.0</ele><time>2026-05-03T13:54:06.783Z</time></trkpt><trkpt lat="53.895225" lon="-2.18024"><ele>222.0</ele><time>2026-05-03T13:54:07.785Z</time></trkpt><trkpt lat="53.8950333" lon="-2.180205"><ele>221.66666666666669</ele><time>2026-05-03T13:54:08.785Z</time></trkpt><trkpt lat="53.8948467" lon="-2.1801817"><ele>221.33333333333334</ele><time>2026-05-03T13:54:09.784Z</time></trkpt><trkpt lat="53.8946517" lon="-2.180175"><ele>221.0</ele><time>2026-05-03T13:54:10.784Z</time></trkpt><trkpt lat="53.89446" lon="-2.1801783"><ele>221.0</ele><time>2026-05-03T13:54:11.784Z</time></trkpt><trkpt lat="53.8942733" lon="-2.180185"><ele>221.0</ele><time>2026-05-03T13:54:12.785Z</time></trkpt><trkpt lat="53.89409" lon="-2.1802117"><ele>221.0</ele><time>2026-05-03T13:54:13.786Z</time></trkpt><trkpt lat="53.8939167" lon="-2.1802483"><ele>220.0</ele><time>2026-05-03T13:54:14.782Z</time></trkpt><trkpt lat="53.8937467" lon="-2.1803217"><ele>219.0</ele><time>2026-05-03T13:54:15.785Z</time></trkpt><trkpt lat="53.893575" lon="-2.18043"><ele>218.0</ele><time>2026-05-03T13:54:16.784Z</time></trkpt><trkpt lat="53.8934033" lon="-2.18056"><ele>220.0</ele><time>2026-05-03T13:54:17.785Z</time></trkpt><trkpt lat="53.8932383" lon="-2.1806967"><ele>222.0</ele><time>2026-05-03T13:54:18.785Z</time></trkpt><trkpt lat="53.8930817" lon="-2.1808317"><ele>224.0</ele><time>2026-05-03T13:54:19.785Z</time></trkpt><trkpt lat="53.8929233" lon="-2.1809717"><ele>224.0</ele><time>2026-05-03T13:54:20.783Z</time></trkpt><trkpt lat="53.8927617" lon="-2.181115"><ele>224.0</ele><time>2026-05-03T13:54:21.785Z</time></trkpt><trkpt lat="53.8925967" lon="-2.1812517"><ele>224.0</ele><time>2026-05-03T13:54:22.785Z</time></trkpt><trkpt lat="53.8924333" lon="-2.181385"><ele>223.66666666666669</ele><time>2026-05-03T13:54:23.785Z</time></trkpt><trkpt lat="53.8922667" lon="-2.1815133"><ele>223.33333333333331</ele><time>2026-05-03T13:54:24.784Z</time></trkpt><trkpt lat="53.892095" lon="-2.1816383"><ele>223.0</ele><time>2026-05-03T13:54:25.785Z</time></trkpt><trkpt lat="53.8919233" lon="-2.18176"><ele>220.66666666666666</ele><time>2026-05-03T13:54:26.784Z</time></trkpt><trkpt lat="53.8917567" lon="-2.181885"><ele>218.33333333333331</ele><time>2026-05-03T13:54:27.784Z</time></trkpt><trkpt lat="53.8915967" lon="-2.18201"><ele>216.0</ele><time>2026-05-03T13:54:28.784Z</time></trkpt><trkpt lat="53.89145" lon="-2.1821433"><ele>216.0</ele><time>2026-05-03T13:54:29.784Z</time></trkpt><trkpt lat="53.8913117" lon="-2.18226"><ele>216.0</ele><time>2026-05-03T13:54:30.785Z</time></trkpt><trkpt lat="53.8911733" lon="-2.1823567"><ele>216.0</ele><time>2026-05-03T13:54:31.785Z</time></trkpt><trkpt lat="53.891025" lon="-2.1824183"><ele>217.0</ele><time>2026-05-03T13:54:32.784Z</time></trkpt><trkpt lat="53.8908733" lon="-2.18247"><ele>218.0</ele><time>2026-05-03T13:54:33.784Z</time></trkpt><trkpt lat="53.89071" lon="-2.1825217"><ele>219.0</ele><time>2026-05-03T13:54:34.784Z</time></trkpt><trkpt lat="53.890535" lon="-2.182575"><ele>219.0</ele><time>2026-05-03T13:54:35.785Z</time></trkpt><trkpt lat="53.89036" lon="-2.18264"><ele>219.0</ele><time>2026-05-03T13:54:36.785Z</time></trkpt><trkpt lat="53.890195" lon="-2.18272"><ele>219.0</ele><time>2026-05-03T13:54:37.783Z</time></trkpt><trkpt lat="53.890025" lon="-2.1828183"><ele>217.33333333333331</ele><time>2026-05-03T13:54:38.785Z</time></trkpt><trkpt lat="53.8898633" lon="-2.1829317"><ele>215.66666666666666</ele><time>2026-05-03T13:54:39.784Z</time></trkpt><trkpt lat="53.8897033" lon="-2.1830517"><ele>214.0</ele><time>2026-05-03T13:54:40.784Z</time></trkpt><trkpt lat="53.8895333" lon="-2.1831533"><ele>214.0</ele><time>2026-05-03T13:54:41.784Z</time></trkpt><trkpt lat="53.889355" lon="-2.183235"><ele>214.0</ele><time>2026-05-03T13:54:42.785Z</time></trkpt><trkpt lat="53.88917" lon="-2.1833017"><ele>214.0</ele><time>2026-05-03T13:54:43.783Z</time></trkpt><trkpt lat="53.8889917" lon="-2.183335"><ele>214.0</ele><time>2026-05-03T13:54:44.783Z</time></trkpt><trkpt lat="53.88882" lon="-2.1833533"><ele>214.0</ele><time>2026-05-03T13:54:45.784Z</time></trkpt><trkpt lat="53.8886683" lon="-2.1833683"><ele>214.0</ele><time>2026-05-03T13:54:46.784Z</time></trkpt><trkpt lat="53.8885167" lon="-2.1834167"><ele>213.33333333333331</ele><time>2026-05-03T13:54:47.785Z</time></trkpt><trkpt lat="53.88836" lon="-2.1835183"><ele>212.66666666666669</ele><time>2026-05-03T13:54:48.784Z</time></trkpt><trkpt lat="53.8882133" lon="-2.18364"><ele>212.0</ele><time>2026-05-03T13:54:49.784Z</time></trkpt><trkpt lat="53.8880833" lon="-2.1837583"><ele>212.0</ele><time>2026-05-03T13:54:50.784Z</time></trkpt><trkpt lat="53.8879633" lon="-2.1838783"><ele>212.0</ele><time>2026-05-03T13:54:51.785Z</time></trkpt><trkpt lat="53.887845" lon="-2.184025"><ele>212.0</ele><time>2026-05-03T13:54:52.787Z</time></trkpt><trkpt lat="53.887735" lon="-2.18421"><ele>212.0</ele><time>2026-05-03T13:54:53.784Z</time></trkpt><trkpt lat="53.8876333" lon="-2.1844133"><ele>213.33333333333334</ele><time>2026-05-03T13:54:54.784Z</time></trkpt><trkpt lat="53.8875233" lon="-2.1846067"><ele>214.66666666666669</ele><time>2026-05-03T13:54:55.785Z</time></trkpt><trkpt lat="53.8874033" lon="-2.18476"><ele>216.0</ele><time>2026-05-03T13:54:56.786Z</time></trkpt><trkpt lat="53.8872717" lon="-2.1848717"><ele>216.25</ele><time>2026-05-03T13:54:57.785Z</time></trkpt><trkpt lat="53.8871317" lon="-2.1849317"><ele>216.5</ele><time>2026-05-03T13:54:58.787Z</time></trkpt><trkpt lat="53.8869833" lon="-2.1849467"><ele>216.75</ele><time>2026-05-03T13:54:59.783Z</time></trkpt><trkpt lat="53.8868383" lon="-2.1849183"><ele>217.0</ele><time>2026-05-03T13:55:00.786Z</time></trkpt><trkpt lat="53.8866967" lon="-2.1848517"><ele>215.66666666666666</ele><time>2026-05-03T13:55:01.787Z</time></trkpt><trkpt lat="53.8865583" lon="-2.18477"><ele>214.33333333333331</ele><time>2026-05-03T13:55:02.786Z</time></trkpt><trkpt lat="53.8864117" lon="-2.1846933"><ele>213.0</ele><time>2026-05-03T13:55:03.786Z</time></trkpt><trkpt lat="53.886255" lon="-2.1846233"><ele>213.0</ele><time>2026-05-03T13:55:04.786Z</time></trkpt><trkpt lat="53.88609" lon="-2.18456"><ele>213.0</ele><time>2026-05-03T13:55:05.782Z</time></trkpt><trkpt lat="53.8859267" lon="-2.1844967"><ele>213.0</ele><time>2026-05-03T13:55:06.787Z</time></trkpt><trkpt lat="53.8857683" lon="-2.1844283"><ele>213.66666666666669</ele><time>2026-05-03T13:55:07.787Z</time></trkpt><trkpt lat="53.8856167" lon="-2.1843417"><ele>214.33333333333334</ele><time>2026-05-03T13:55:08.786Z</time></trkpt><trkpt lat="53.8854667" lon="-2.18425"><ele>215.0</ele><time>2026-05-03T13:55:09.787Z</time></trkpt><trkpt lat="53.8853183" lon="-2.18415"><ele>215.0</ele><time>2026-05-03T13:55:10.786Z</time></trkpt><trkpt lat="53.885175" lon="-2.1840467"><ele>215.0</ele><time>2026-05-03T13:55:11.783Z</time></trkpt><trkpt lat="53.88504" lon="-2.1839483"><ele>215.0</ele><time>2026-05-03T13:55:12.786Z</time></trkpt><trkpt lat="53.8849133" lon="-2.1838667"><ele>215.0</ele><time>2026-05-03T13:55:13.787Z</time></trkpt><trkpt lat="53.8847983" lon="-2.1838017"><ele>215.0</ele><time>2026-05-03T13:55:14.787Z</time></trkpt><trkpt lat="53.884685" lon="-2.1837467"><ele>215.0</ele><time>2026-05-03T13:55:15.787Z</time></trkpt><trkpt lat="53.8845717" lon="-2.1837033"><ele>215.0</ele><time>2026-05-03T13:55:16.787Z</time></trkpt><trkpt lat="53.8844567" lon="-2.183685"><ele>215.0</ele><time>2026-05-03T13:55:17.788Z</time></trkpt><trkpt lat="53.8843417" lon="-2.1836933"><ele>215.0</ele><time>2026-05-03T13:55:18.787Z</time></trkpt><trkpt lat="53.8842267" lon="-2.1837217"><ele>215.0</ele><time>2026-05-03T13:55:19.787Z</time></trkpt><trkpt lat="53.8841117" lon="-2.1837517"><ele>215.0</ele><time>2026-05-03T13:55:20.786Z</time></trkpt><trkpt lat="53.884" lon="-2.183785"><ele>215.0</ele><time>2026-05-03T13:55:21.785Z</time></trkpt><trkpt lat="53.8838883" lon="-2.183825"><ele>215.0</ele><time>2026-05-03T13:55:22.786Z</time></trkpt><trkpt lat="53.8837767" lon="-2.1838767"><ele>215.0</ele><time>2026-05-03T13:55:23.787Z</time></trkpt><trkpt lat="53.883665" lon="-2.183935"><ele>215.0</ele><time>2026-05-03T13:55:24.786Z</time></trkpt><trkpt lat="53.8835633" lon="-2.1839983"><ele>215.0</ele><time>2026-05-03T13:55:25.783Z</time></trkpt><trkpt lat="53.883465" lon="-2.1840617"><ele>215.0</ele><time>2026-05-03T13:55:26.787Z</time></trkpt><trkpt lat="53.88337" lon="-2.1841267"><ele>215.2</ele><time>2026-05-03T13:55:27.786Z</time></trkpt><trkpt lat="53.8832767" lon="-2.1841917"><ele>215.4</ele><time>2026-05-03T13:55:28.786Z</time></trkpt><trkpt lat="53.8831817" lon="-2.1842533"><ele>215.60000000000002</ele><time>2026-05-03T13:55:29.784Z</time></trkpt><trkpt lat="53.8830867" lon="-2.1843117"><ele>215.8</ele><time>2026-05-03T13:55:30.784Z</time></trkpt><trkpt lat="53.882995" lon="-2.184365"><ele>216.0</ele><time>2026-05-03T13:55:31.79Z</time></trkpt><trkpt lat="53.8829117" lon="-2.1844117"><ele>216.0</ele><time>2026-05-03T13:55:32.786Z</time></trkpt><trkpt lat="53.8828383" lon="-2.184455"><ele>216.00000000000003</ele><time>2026-05-03T13:55:33.787Z</time></trkpt><trkpt lat="53.8827717" lon="-2.18449"><ele>216.00000000000003</ele><time>2026-05-03T13:55:34.784Z</time></trkpt><trkpt lat="53.88266" lon="-2.1845333"><ele>216.0</ele><time>2026-05-03T13:55:36.783Z</time></trkpt><trkpt lat="53.8825667" lon="-2.18452"><ele>216.0</ele><time>2026-05-03T13:55:38.786Z</time></trkpt><trkpt lat="53.8824883" lon="-2.1843917"><ele>216.25</ele><time>2026-05-03T13:55:40.784Z</time></trkpt><trkpt lat="53.8824783" lon="-2.184255"><ele>216.5</ele><time>2026-05-03T13:55:41.783Z</time></trkpt><trkpt lat="53.88248" lon="-2.18407"><ele>216.75</ele><time>2026-05-03T13:55:42.784Z</time></trkpt><trkpt lat="53.8824917" lon="-2.1838617"><ele>217.0</ele><time>2026-05-03T13:55:43.785Z</time></trkpt><trkpt lat="53.8824817" lon="-2.1836267"><ele>216.25</ele><time>2026-05-03T13:55:44.785Z</time></trkpt><trkpt lat="53.88247" lon="-2.1833817"><ele>215.5</ele><time>2026-05-03T13:55:45.784Z</time></trkpt><trkpt lat="53.8824433" lon="-2.18316"><ele>214.75</ele><time>2026-05-03T13:55:46.784Z</time></trkpt><trkpt lat="53.8824183" lon="-2.1829283"><ele>214.0</ele><time>2026-05-03T13:55:47.784Z</time></trkpt><trkpt lat="53.88239" lon="-2.1827267"><ele>213.39999999999998</ele><time>2026-05-03T13:55:48.786Z</time></trkpt><trkpt lat="53.8823717" lon="-2.1825417"><ele>212.79999999999998</ele><time>2026-05-03T13:55:49.785Z</time></trkpt><trkpt lat="53.8823633" lon="-2.1823867"><ele>212.2</ele><time>2026-05-03T13:55:50.783Z</time></trkpt><trkpt lat="53.8823633" lon="-2.182225"><ele>211.60000000000002</ele><time>2026-05-03T13:55:51.784Z</time></trkpt><trkpt lat="53.8823933" lon="-2.1820433"><ele>211.0</ele><time>2026-05-03T13:55:52.784Z</time></trkpt><trkpt lat="53.8824317" lon="-2.1818517"><ele>211.0</ele><time>2026-05-03T13:55:53.785Z</time></trkpt><trkpt lat="53.8824633" lon="-2.181675"><ele>211.0</ele><time>2026-05-03T13:55:54.784Z</time></trkpt><trkpt lat="53.88249" lon="-2.1814833"><ele>211.0</ele><time>2026-05-03T13:55:55.787Z</time></trkpt><trkpt lat="53.88251" lon="-2.1812733"><ele>211.0</ele><time>2026-05-03T13:55:56.789Z</time></trkpt><trkpt lat="53.88252" lon="-2.1810567"><ele>210.60000000000002</ele><time>2026-05-03T13:55:57.787Z</time></trkpt><trkpt lat="53.8825217" lon="-2.1808567"><ele>210.2</ele><time>2026-05-03T13:55:58.787Z</time></trkpt><trkpt lat="53.8825267" lon="-2.1806733"><ele>209.8</ele><time>2026-05-03T13:55:59.784Z</time></trkpt><trkpt lat="53.88252" lon="-2.1805117"><ele>209.39999999999998</ele><time>2026-05-03T13:56:00.787Z</time></trkpt><trkpt lat="53.8824933" lon="-2.1803683"><ele>209.0</ele><time>2026-05-03T13:56:01.785Z</time></trkpt><trkpt lat="53.88245" lon="-2.1802367"><ele>208.79999999999998</ele><time>2026-05-03T13:56:02.782Z</time></trkpt><trkpt lat="53.8823883" lon="-2.1801333"><ele>208.6</ele><time>2026-05-03T13:56:03.783Z</time></trkpt><trkpt lat="53.88232" lon="-2.1800467"><ele>208.4</ele><time>2026-05-03T13:56:04.787Z</time></trkpt><trkpt lat="53.88222" lon="-2.1799933"><ele>208.2</ele><time>2026-05-03T13:56:05.783Z</time></trkpt><trkpt lat="53.8820833" lon="-2.179965"><ele>208.0</ele><time>2026-05-03T13:56:06.784Z</time></trkpt><trkpt lat="53.8819383" lon="-2.1799367"><ele>208.0</ele><time>2026-05-03T13:56:07.787Z</time></trkpt><trkpt lat="53.8817717" lon="-2.17991"><ele>208.0</ele><time>2026-05-03T13:56:08.787Z</time></trkpt><trkpt lat="53.8815983" lon="-2.1798717"><ele>208.0</ele><time>2026-05-03T13:56:09.787Z</time></trkpt><trkpt lat="53.881425" lon="-2.17984"><ele>207.0</ele><time>2026-05-03T13:56:10.784Z</time></trkpt><trkpt lat="53.8812633" lon="-2.1798133"><ele>206.0</ele><time>2026-05-03T13:56:11.786Z</time></trkpt><trkpt lat="53.88111" lon="-2.1797983"><ele>205.0</ele><time>2026-05-03T13:56:12.787Z</time></trkpt><trkpt lat="53.8809567" lon="-2.1797633"><ele>203.0</ele><time>2026-05-03T13:56:13.787Z</time></trkpt><trkpt lat="53.8808" lon="-2.1797067"><ele>201.0</ele><time>2026-05-03T13:56:14.785Z</time></trkpt><trkpt lat="53.880635" lon="-2.1796417"><ele>199.0</ele><time>2026-05-03T13:56:15.783Z</time></trkpt><trkpt lat="53.88047" lon="-2.1795867"><ele>199.0</ele><time>2026-05-03T13:56:16.783Z</time></trkpt><trkpt lat="53.8803017" lon="-2.1795567"><ele>199.0</ele><time>2026-05-03T13:56:17.787Z</time></trkpt><trkpt lat="53.8801283" lon="-2.17956"><ele>199.0</ele><time>2026-05-03T13:56:18.787Z</time></trkpt><trkpt lat="53.8799583" lon="-2.1795617"><ele>198.0</ele><time>2026-05-03T13:56:19.785Z</time></trkpt><trkpt lat="53.8797983" lon="-2.1795533"><ele>197.0</ele><time>2026-05-03T13:56:20.783Z</time></trkpt><trkpt lat="53.879665" lon="-2.17955"><ele>196.0</ele><time>2026-05-03T13:56:21.785Z</time></trkpt><trkpt lat="53.8795517" lon="-2.17958"><ele>195.0</ele><time>2026-05-03T13:56:22.787Z</time></trkpt><trkpt lat="53.8794483" lon="-2.1796483"><ele>195.0</ele><time>2026-05-03T13:56:23.783Z</time></trkpt><trkpt lat="53.87936" lon="-2.1797333"><ele>195.0</ele><time>2026-05-03T13:56:24.783Z</time></trkpt><trkpt lat="53.8792883" lon="-2.1798483"><ele>195.0</ele><time>2026-05-03T13:56:25.785Z</time></trkpt><trkpt lat="53.879225" lon="-2.1799417"><ele>195.0</ele><time>2026-05-03T13:56:26.786Z</time></trkpt><trkpt lat="53.87916" lon="-2.180015"><ele>195.0</ele><time>2026-05-03T13:56:27.783Z</time></trkpt><trkpt lat="53.8790883" lon="-2.1800533"><ele>195.0</ele><time>2026-05-03T13:56:28.786Z</time></trkpt><trkpt lat="53.879015" lon="-2.18003"><ele>192.75</ele><time>2026-05-03T13:56:29.784Z</time></trkpt><trkpt lat="53.8789383" lon="-2.17994"><ele>190.5</ele><time>2026-05-03T13:56:30.787Z</time></trkpt><trkpt lat="53.8788717" lon="-2.1798117"><ele>188.25</ele><time>2026-05-03T13:56:31.785Z</time></trkpt><trkpt lat="53.87882" lon="-2.17958"><ele>186.0</ele><time>2026-05-03T13:56:32.782Z</time></trkpt><trkpt lat="53.8787933" lon="-2.1792283"><ele>185.0</ele><time>2026-05-03T13:56:33.784Z</time></trkpt><trkpt lat="53.8787633" lon="-2.1789783"><ele>184.0</ele><time>2026-05-03T13:56:34.783Z</time></trkpt><trkpt lat="53.8787367" lon="-2.1787367"><ele>183.0</ele><time>2026-05-03T13:56:35.784Z</time></trkpt><trkpt lat="53.878695" lon="-2.1785333"><ele>182.0</ele><time>2026-05-03T13:56:36.786Z</time></trkpt><trkpt lat="53.8786383" lon="-2.178345"><ele>181.75</ele><time>2026-05-03T13:56:37.783Z</time></trkpt><trkpt lat="53.8785533" lon="-2.1781783"><ele>181.5</ele><time>2026-05-03T13:56:38.784Z</time></trkpt><trkpt lat="53.8784367" lon="-2.178045"><ele>181.25</ele><time>2026-05-03T13:56:39.784Z</time></trkpt><trkpt lat="53.8782983" lon="-2.1779267"><ele>181.0</ele><time>2026-05-03T13:56:40.787Z</time></trkpt><trkpt lat="53.87814" lon="-2.1778067"><ele>176.66666666666669</ele><time>2026-05-03T13:56:41.783Z</time></trkpt><trkpt lat="53.8779883" lon="-2.1776933"><ele>172.33333333333334</ele><time>2026-05-03T13:56:42.787Z</time></trkpt><trkpt lat="53.8778367" lon="-2.177605"><ele>168.0</ele><time>2026-05-03T13:56:43.787Z</time></trkpt><trkpt lat="53.87769" lon="-2.1775567"><ele>167.5</ele><time>2026-05-03T13:56:44.786Z</time></trkpt><trkpt lat="53.8775517" lon="-2.1775283"><ele>167.0</ele><time>2026-05-03T13:56:45.787Z</time></trkpt><trkpt lat="53.8774167" lon="-2.17752"><ele>166.5</ele><time>2026-05-03T13:56:46.789Z</time></trkpt><trkpt lat="53.8772883" lon="-2.1775417"><ele>166.0</ele><time>2026-05-03T13:56:47.784Z</time></trkpt><trkpt lat="53.8771567" lon="-2.1775917"><ele>166.0</ele><time>2026-05-03T13:56:48.784Z</time></trkpt><trkpt lat="53.8770333" lon="-2.1776417"><ele>166.0</ele><time>2026-05-03T13:56:49.784Z</time></trkpt><trkpt lat="53.8769233" lon="-2.177655"><ele>166.0</ele><time>2026-05-03T13:56:50.786Z</time></trkpt><trkpt lat="53.87684" lon="-2.1776267"><ele>166.0</ele><time>2026-05-03T13:56:51.784Z</time></trkpt><trkpt lat="53.8767583" lon="-2.1775767"><ele>166.0</ele><time>2026-05-03T13:56:52.785Z</time></trkpt><trkpt lat="53.8766883" lon="-2.177485"><ele>166.0</ele><time>2026-05-03T13:56:53.786Z</time></trkpt><trkpt lat="53.87663" lon="-2.1773217"><ele>166.0</ele><time>2026-05-03T13:56:54.784Z</time></trkpt><trkpt lat="53.8766017" lon="-2.1770217"><ele>166.0</ele><time>2026-05-03T13:56:55.783Z</time></trkpt><trkpt lat="53.8765633" lon="-2.1767467"><ele>166.33333333333334</ele><time>2026-05-03T13:56:56.786Z</time></trkpt><trkpt lat="53.8765217" lon="-2.17648"><ele>166.66666666666666</ele><time>2026-05-03T13:56:57.784Z</time></trkpt><trkpt lat="53.8764733" lon="-2.17623"><ele>167.0</ele><time>2026-05-03T13:56:58.785Z</time></trkpt><trkpt lat="53.8764317" lon="-2.1759983"><ele>167.0</ele><time>2026-05-03T13:56:59.782Z</time></trkpt><trkpt lat="53.876405" lon="-2.1757617"><ele>167.0</ele><time>2026-05-03T13:57:00.783Z</time></trkpt><trkpt lat="53.8764017" lon="-2.1754933"><ele>167.0</ele><time>2026-05-03T13:57:01.784Z</time></trkpt><trkpt lat="53.8764233" lon="-2.1752133"><ele>167.0</ele><time>2026-05-03T13:57:02.782Z</time></trkpt><trkpt lat="53.876475" lon="-2.174925"><ele>167.0</ele><time>2026-05-03T13:57:03.784Z</time></trkpt><trkpt lat="53.8765517" lon="-2.1746583"><ele>167.0</ele><time>2026-05-03T13:57:04.784Z</time></trkpt><trkpt lat="53.8766433" lon="-2.1744167"><ele>167.0</ele><time>2026-05-03T13:57:05.784Z</time></trkpt><trkpt lat="53.8767333" lon="-2.174205"><ele>167.0</ele><time>2026-05-03T13:57:06.783Z</time></trkpt><trkpt lat="53.876815" lon="-2.1740017"><ele>167.0</ele><time>2026-05-03T13:57:07.783Z</time></trkpt><trkpt lat="53.8768817" lon="-2.1737883"><ele>167.0</ele><time>2026-05-03T13:57:08.784Z</time></trkpt><trkpt lat="53.8769317" lon="-2.1735683"><ele>166.0</ele><time>2026-05-03T13:57:09.784Z</time></trkpt><trkpt lat="53.8769667" lon="-2.17337"><ele>165.0</ele><time>2026-05-03T13:57:10.783Z</time></trkpt><trkpt lat="53.8769917" lon="-2.1731933"><ele>164.0</ele><time>2026-05-03T13:57:11.784Z</time></trkpt><trkpt lat="53.87701" lon="-2.17303"><ele>163.0</ele><time>2026-05-03T13:57:12.783Z</time></trkpt><trkpt lat="53.8770133" lon="-2.1728683"><ele>162.0</ele><time>2026-05-03T13:57:13.785Z</time></trkpt><trkpt lat="53.87701" lon="-2.1727083"><ele>162.0</ele><time>2026-05-03T13:57:14.787Z</time></trkpt><trkpt lat="53.8769933" lon="-2.1725383"><ele>162.0</ele><time>2026-05-03T13:57:15.787Z</time></trkpt><trkpt lat="53.8769733" lon="-2.17237"><ele>162.0</ele><time>2026-05-03T13:57:16.787Z</time></trkpt><trkpt lat="53.8769483" lon="-2.1722017"><ele>162.0</ele><time>2026-05-03T13:57:17.784Z</time></trkpt><trkpt lat="53.8769233" lon="-2.17203"><ele>162.0</ele><time>2026-05-03T13:57:18.783Z</time></trkpt><trkpt lat="53.8768983" lon="-2.1718533"><ele>161.8</ele><time>2026-05-03T13:57:19.785Z</time></trkpt><trkpt lat="53.8768767" lon="-2.171675"><ele>161.6</ele><time>2026-05-03T13:57:20.784Z</time></trkpt><trkpt lat="53.87686" lon="-2.1715033"><ele>161.4</ele><time>2026-05-03T13:57:21.783Z</time></trkpt><trkpt lat="53.87684" lon="-2.1713433"><ele>161.20000000000002</ele><time>2026-05-03T13:57:22.784Z</time></trkpt><trkpt lat="53.876825" lon="-2.171185"><ele>161.0</ele><time>2026-05-03T13:57:23.787Z</time></trkpt><trkpt lat="53.87682" lon="-2.1710367"><ele>160.83333333333331</ele><time>2026-05-03T13:57:24.784Z</time></trkpt><trkpt lat="53.8768133" lon="-2.1708817"><ele>160.66666666666666</ele><time>2026-05-03T13:57:25.787Z</time></trkpt><trkpt lat="53.876805" lon="-2.1707333"><ele>160.5</ele><time>2026-05-03T13:57:26.786Z</time></trkpt><trkpt lat="53.8768033" lon="-2.170595"><ele>160.33333333333334</ele><time>2026-05-03T13:57:27.784Z</time></trkpt><trkpt lat="53.8768" lon="-2.1704683"><ele>160.16666666666669</ele><time>2026-05-03T13:57:28.786Z</time></trkpt><trkpt lat="53.876795" lon="-2.1703483"><ele>160.0</ele><time>2026-05-03T13:57:29.785Z</time></trkpt><trkpt lat="53.87678" lon="-2.17024"><ele>162.0</ele><time>2026-05-03T13:57:30.783Z</time></trkpt><trkpt lat="53.8767467" lon="-2.170145"><ele>164.0</ele><time>2026-05-03T13:57:31.786Z</time></trkpt><trkpt lat="53.8766917" lon="-2.1700767"><ele>166.0</ele><time>2026-05-03T13:57:32.787Z</time></trkpt><trkpt lat="53.876405" lon="-2.1757617"><ele>165.66666666666669</ele><time>2026-05-03T13:57:00.783Z</time></trkpt><trkpt lat="53.8764017" lon="-2.1754933"><ele>165.33333333333334</ele><time>2026-05-03T13:57:01.784Z</time></trkpt><trkpt lat="53.8764233" lon="-2.1752133"><ele>165.0</ele><time>2026-05-03T13:57:02.782Z</time></trkpt><trkpt lat="53.876475" lon="-2.174925"><ele>165.66666666666666</ele><time>2026-05-03T13:57:03.784Z</time></trkpt><trkpt lat="53.8765517" lon="-2.1746583"><ele>166.33333333333331</ele><time>2026-05-03T13:57:04.784Z</time></trkpt><trkpt lat="53.8766433" lon="-2.1744167"><ele>167.0</ele><time>2026-05-03T13:57:05.784Z</time></trkpt><trkpt lat="53.8767333" lon="-2.174205"><ele>165.75</ele><time>2026-05-03T13:57:06.783Z</time></trkpt><trkpt lat="53.876815" lon="-2.1740017"><ele>164.5</ele><time>2026-05-03T13:57:07.783Z</time></trkpt><trkpt lat="53.8768817" lon="-2.1737883"><ele>163.25</ele><time>2026-05-03T13:57:08.784Z</time></trkpt><trkpt lat="53.8769317" lon="-2.1735683"><ele>162.0</ele><time>2026-05-03T13:57:09.784Z</time></trkpt><trkpt lat="53.8769667" lon="-2.17337"><ele>162.0</ele><time>2026-05-03T13:57:10.783Z</time></trkpt><trkpt lat="53.8769917" lon="-2.1731933"><ele>162.0</ele><time>2026-05-03T13:57:11.784Z</time></trkpt><trkpt lat="53.87701" lon="-2.17303"><ele>162.0</ele><time>2026-05-03T13:57:12.783Z</time></trkpt><trkpt lat="53.8770133" lon="-2.1728683"><ele>162.0</ele><time>2026-05-03T13:57:13.785Z</time></trkpt><trkpt lat="53.87701" lon="-2.1727083"><ele>162.0</ele><time>2026-05-03T13:57:14.787Z</time></trkpt><trkpt lat="53.8769933" lon="-2.1725383"><ele>162.0</ele><time>2026-05-03T13:57:15.787Z</time></trkpt><trkpt lat="53.8769733" lon="-2.17237"><ele>162.0</ele><time>2026-05-03T13:57:16.787Z</time></trkpt><trkpt lat="53.8769483" lon="-2.1722017"><ele>162.0</ele><time>2026-05-03T13:57:17.784Z</time></trkpt><trkpt lat="53.8769233" lon="-2.17203"><ele>162.0</ele><time>2026-05-03T13:57:18.783Z</time></trkpt><trkpt lat="53.8768983" lon="-2.1718533"><ele>162.0</ele><time>2026-05-03T13:57:19.785Z</time></trkpt><trkpt lat="53.8768767" lon="-2.171675"><ele>161.6</ele><time>2026-05-03T13:57:20.784Z</time></trkpt><trkpt lat="53.87686" lon="-2.1715033"><ele>161.2</ele><time>2026-05-03T13:57:21.783Z</time></trkpt><trkpt lat="53.87684" lon="-2.1713433"><ele>160.8</ele><time>2026-05-03T13:57:22.784Z</time></trkpt><trkpt lat="53.876825" lon="-2.171185"><ele>160.4</ele><time>2026-05-03T13:57:23.787Z</time></trkpt><trkpt lat="53.87682" lon="-2.1710367"><ele>160.0</ele><time>2026-05-03T13:57:24.784Z</time></trkpt><trkpt lat="53.8768133" lon="-2.1708817"><ele>160.0</ele><time>2026-05-03T13:57:25.787Z</time></trkpt><trkpt lat="53.876805" lon="-2.1707333"><ele>160.0</ele><time>2026-05-03T13:57:26.786Z</time></trkpt><trkpt lat="53.8768033" lon="-2.170595"><ele>160.0</ele><time>2026-05-03T13:57:27.784Z</time></trkpt><trkpt lat="53.8768" lon="-2.1704683"><ele>160.0</ele><time>2026-05-03T13:57:28.786Z</time></trkpt><trkpt lat="53.876795" lon="-2.1703483"><ele>160.0</ele><time>2026-05-03T13:57:29.785Z</time></trkpt><trkpt lat="53.87678" lon="-2.17024"><ele>160.0</ele><time>2026-05-03T13:57:30.783Z</time></trkpt><trkpt lat="53.8767467" lon="-2.170145"><ele>160.0</ele><time>2026-05-03T13:57:31.786Z</time></trkpt><trkpt lat="53.8766917" lon="-2.1700767"><ele>161.0</ele><time>2026-05-03T13:57:32.787Z</time></trkpt><trkpt lat="53.87662" lon="-2.170015"><ele>162.0</ele><time>2026-05-03T13:57:33.787Z</time></trkpt><trkpt lat="53.87653" lon="-2.1699733"><ele>163.0</ele><time>2026-05-03T13:57:34.787Z</time></trkpt><trkpt lat="53.8764417" lon="-2.1699483"><ele>164.0</ele><time>2026-05-03T13:57:35.787Z</time></trkpt><trkpt lat="53.876365" lon="-2.1699267"><ele>165.0</ele><time>2026-05-03T13:57:36.786Z</time></trkpt><trkpt lat="53.8762933" lon="-2.1699033"><ele>166.0</ele><time>2026-05-03T13:57:37.784Z</time></trkpt><trkpt lat="53.8762333" lon="-2.1698583"><ele>166.4</ele><time>2026-05-03T13:57:38.784Z</time></trkpt><trkpt lat="53.876165" lon="-2.169695"><ele>166.8</ele><time>2026-05-03T13:57:40.787Z</time></trkpt><trkpt lat="53.8761533" lon="-2.1695783"><ele>167.20000000000002</ele><time>2026-05-03T13:57:41.783Z</time></trkpt><trkpt lat="53.8761633" lon="-2.1694433"><ele>167.60000000000002</ele><time>2026-05-03T13:57:42.784Z</time></trkpt><trkpt lat="53.8761983" lon="-2.1692883"><ele>168.0</ele><time>2026-05-03T13:57:43.785Z</time></trkpt><trkpt lat="53.876235" lon="-2.1691567"><ele>168.0</ele><time>2026-05-03T13:57:44.786Z</time></trkpt><trkpt lat="53.87627" lon="-2.1690317"><ele>168.0</ele><time>2026-05-03T13:57:45.783Z</time></trkpt><trkpt lat="53.8763133" lon="-2.1688917"><ele>168.0</ele><time>2026-05-03T13:57:47.783Z</time></trkpt><trkpt lat="53.8763617" lon="-2.1687717"><ele>168.0</ele><time>2026-05-03T13:57:50.785Z</time></trkpt><trkpt lat="53.8764117" lon="-2.1686167"><ele>168.0</ele><time>2026-05-03T13:58:06.782Z</time></trkpt><trkpt lat="53.876435" lon="-2.1684967"><ele>168.0</ele><time>2026-05-03T13:58:07.782Z</time></trkpt><trkpt lat="53.87648" lon="-2.1683067"><ele>169.66666666666666</ele><time>2026-05-03T13:58:09.783Z</time></trkpt><trkpt lat="53.87653" lon="-2.16813"><ele>171.33333333333334</ele><time>2026-05-03T13:58:11.783Z</time></trkpt><trkpt lat="53.8766017" lon="-2.168005"><ele>173.0</ele><time>2026-05-03T13:58:13.782Z</time></trkpt><trkpt lat="53.8766567" lon="-2.1679483"><ele>174.66666666666669</ele><time>2026-05-03T13:58:14.782Z</time></trkpt><trkpt lat="53.8767217" lon="-2.1679"><ele>176.33333333333334</ele><time>2026-05-03T13:58:15.783Z</time></trkpt><trkpt lat="53.876785" lon="-2.1678433"><ele>178.0</ele><time>2026-05-03T13:58:16.783Z</time></trkpt><trkpt lat="53.87685" lon="-2.1677667"><ele>178.0</ele><time>2026-05-03T13:58:17.783Z</time></trkpt><trkpt lat="53.87692" lon="-2.1676667"><ele>178.0</ele><time>2026-05-03T13:58:18.783Z</time></trkpt><trkpt lat="53.8769933" lon="-2.16757"><ele>178.0</ele><time>2026-05-03T13:58:19.784Z</time></trkpt><trkpt lat="53.8770917" lon="-2.16748"><ele>178.0</ele><time>2026-05-03T13:58:20.783Z</time></trkpt><trkpt lat="53.8771983" lon="-2.1673883"><ele>178.0</ele><time>2026-05-03T13:58:21.782Z</time></trkpt><trkpt lat="53.8773067" lon="-2.167295"><ele>179.33333333333334</ele><time>2026-05-03T13:58:22.785Z</time></trkpt><trkpt lat="53.87741" lon="-2.16721"><ele>180.66666666666669</ele><time>2026-05-03T13:58:23.782Z</time></trkpt><trkpt lat="53.8774933" lon="-2.1671333"><ele>182.0</ele><time>2026-05-03T13:58:24.787Z</time></trkpt><trkpt lat="53.877565" lon="-2.1670617"><ele>183.33333333333334</ele><time>2026-05-03T13:58:25.783Z</time></trkpt><trkpt lat="53.8776283" lon="-2.1669817"><ele>184.66666666666666</ele><time>2026-05-03T13:58:26.784Z</time></trkpt><trkpt lat="53.8776783" lon="-2.1668983"><ele>186.0</ele><time>2026-05-03T13:58:27.783Z</time></trkpt><trkpt lat="53.877715" lon="-2.1668033"><ele>186.0</ele><time>2026-05-03T13:58:28.783Z</time></trkpt><trkpt lat="53.8777383" lon="-2.1666917"><ele>186.0</ele><time>2026-05-03T13:58:29.783Z</time></trkpt><trkpt lat="53.8777517" lon="-2.1665517"><ele>186.0</ele><time>2026-05-03T13:58:30.783Z</time></trkpt><trkpt lat="53.8777633" lon="-2.1663783"><ele>186.0</ele><time>2026-05-03T13:58:31.784Z</time></trkpt><trkpt lat="53.877775" lon="-2.16619"><ele>186.0</ele><time>2026-05-03T13:58:32.785Z</time></trkpt><trkpt lat="53.8777867" lon="-2.1659833"><ele>188.0</ele><time>2026-05-03T13:58:33.784Z</time></trkpt><trkpt lat="53.8777917" lon="-2.165755"><ele>190.0</ele><time>2026-05-03T13:58:34.784Z</time></trkpt><trkpt lat="53.87779" lon="-2.1655217"><ele>192.0</ele><time>2026-05-03T13:58:35.784Z</time></trkpt><trkpt lat="53.877785" lon="-2.1652833"><ele>194.0</ele><time>2026-05-03T13:58:36.785Z</time></trkpt><trkpt lat="53.8777867" lon="-2.1650467"><ele>197.0</ele><time>2026-05-03T13:58:37.784Z</time></trkpt><trkpt lat="53.8777783" lon="-2.16481"><ele>200.0</ele><time>2026-05-03T13:58:38.784Z</time></trkpt><trkpt lat="53.8777783" lon="-2.16458"><ele>203.0</ele><time>2026-05-03T13:58:39.786Z</time></trkpt><trkpt lat="53.87778" lon="-2.1643567"><ele>206.0</ele><time>2026-05-03T13:58:40.783Z</time></trkpt><trkpt lat="53.877775" lon="-2.1641167"><ele>207.0</ele><time>2026-05-03T13:58:41.785Z</time></trkpt><trkpt lat="53.877765" lon="-2.1638617"><ele>208.0</ele><time>2026-05-03T13:58:42.787Z</time></trkpt><trkpt lat="53.8777533" lon="-2.1636033"><ele>209.0</ele><time>2026-05-03T13:58:43.787Z</time></trkpt><trkpt lat="53.8777433" lon="-2.1633583"><ele>210.0</ele><time>2026-05-03T13:58:44.787Z</time></trkpt><trkpt lat="53.8777283" lon="-2.16312"><ele>211.25</ele><time>2026-05-03T13:58:45.787Z</time></trkpt><trkpt lat="53.87771" lon="-2.162885"><ele>212.5</ele><time>2026-05-03T13:58:46.787Z</time></trkpt><trkpt lat="53.877685" lon="-2.1626517"><ele>213.75</ele><time>2026-05-03T13:58:47.787Z</time></trkpt><trkpt lat="53.8776617" lon="-2.1624233"><ele>215.0</ele><time>2026-05-03T13:58:48.786Z</time></trkpt><trkpt lat="53.87764" lon="-2.1622"><ele>216.25</ele><time>2026-05-03T13:58:49.784Z</time></trkpt><trkpt lat="53.8776217" lon="-2.16199"><ele>217.5</ele><time>2026-05-03T13:58:50.786Z</time></trkpt><trkpt lat="53.87761" lon="-2.16178"><ele>218.75</ele><time>2026-05-03T13:58:51.783Z</time></trkpt><trkpt lat="53.877605" lon="-2.161555"><ele>220.0</ele><time>2026-05-03T13:58:52.784Z</time></trkpt><trkpt lat="53.8776033" lon="-2.16132"><ele>219.75</ele><time>2026-05-03T13:58:53.784Z</time></trkpt><trkpt lat="53.8776033" lon="-2.1610867"><ele>219.5</ele><time>2026-05-03T13:58:54.787Z</time></trkpt><trkpt lat="53.8776033" lon="-2.1608533"><ele>219.25</ele><time>2026-05-03T13:58:55.784Z</time></trkpt><trkpt lat="53.8776033" lon="-2.1606117"><ele>219.0</ele><time>2026-05-03T13:58:56.784Z</time></trkpt><trkpt lat="53.8776" lon="-2.1603783"><ele>219.0</ele><time>2026-05-03T13:58:57.783Z</time></trkpt><trkpt lat="53.8775967" lon="-2.1601617"><ele>219.0</ele><time>2026-05-03T13:58:58.784Z</time></trkpt><trkpt lat="53.877595" lon="-2.1599483"><ele>219.0</ele><time>2026-05-03T13:58:59.784Z</time></trkpt><trkpt lat="53.8776017" lon="-2.159725"><ele>219.0</ele><time>2026-05-03T13:59:00.786Z</time></trkpt><trkpt lat="53.8776217" lon="-2.1594883"><ele>223.5</ele><time>2026-05-03T13:59:01.784Z</time></trkpt><trkpt lat="53.8776367" lon="-2.159245"><ele>228.0</ele><time>2026-05-03T13:59:02.783Z</time></trkpt><trkpt lat="53.8776333" lon="-2.1590017"><ele>232.5</ele><time>2026-05-03T13:59:03.783Z</time></trkpt><trkpt lat="53.87763" lon="-2.1587533"><ele>237.0</ele><time>2026-05-03T13:59:04.783Z</time></trkpt><trkpt lat="53.8776283" lon="-2.1584933"><ele>237.8</ele><time>2026-05-03T13:59:05.784Z</time></trkpt><trkpt lat="53.8776233" lon="-2.158245"><ele>238.6</ele><time>2026-05-03T13:59:06.786Z</time></trkpt><trkpt lat="53.8776217" lon="-2.1580267"><ele>239.40000000000003</ele><time>2026-05-03T13:59:07.784Z</time></trkpt><trkpt lat="53.8776167" lon="-2.157885"><ele>240.20000000000002</ele><time>2026-05-03T13:59:08.783Z</time></trkpt><trkpt lat="53.8776133" lon="-2.1577633"><ele>241.0</ele><time>2026-05-03T13:59:10.786Z</time></trkpt><trkpt lat="53.8776167" lon="-2.1575783"><ele>241.4</ele><time>2026-05-03T13:59:43.784Z</time></trkpt><trkpt lat="53.8776167" lon="-2.1573967"><ele>241.8</ele><time>2026-05-03T13:59:45.782Z</time></trkpt><trkpt lat="53.87761" lon="-2.1572333"><ele>242.20000000000002</ele><time>2026-05-03T13:59:47.785Z</time></trkpt><trkpt lat="53.8775983" lon="-2.1571067"><ele>242.60000000000002</ele><time>2026-05-03T13:59:49.784Z</time></trkpt><trkpt lat="53.8775983" lon="-2.1569817"><ele>243.0</ele><time>2026-05-03T13:59:52.783Z</time></trkpt><trkpt lat="53.8775733" lon="-2.15681"><ele>243.8</ele><time>2026-05-03T14:03:40.783Z</time></trkpt><trkpt lat="53.8775583" lon="-2.1566417"><ele>244.60000000000002</ele><time>2026-05-03T14:03:42.784Z</time></trkpt><trkpt lat="53.87756" lon="-2.15643"><ele>245.39999999999998</ele><time>2026-05-03T14:03:44.784Z</time></trkpt><trkpt lat="53.8775717" lon="-2.1563233"><ele>246.2</ele><time>2026-05-03T14:03:45.783Z</time></trkpt><trkpt lat="53.87759" lon="-2.156155"><ele>247.0</ele><time>2026-05-03T14:03:47.785Z</time></trkpt><trkpt lat="53.8777983" lon="-2.1564483"><ele>247.0</ele><time>2026-05-03T14:04:14.091Z</time></trkpt><trkpt lat="53.8777383" lon="-2.1564133"><ele>247.0</ele><time>2026-05-03T14:04:19.783Z</time></trkpt><trkpt lat="53.8776717" lon="-2.1563633"><ele>247.0</ele><time>2026-05-03T14:04:26.782Z</time></trkpt><trkpt lat="53.8776283" lon="-2.156265"><ele>247.0</ele><time>2026-05-03T14:04:37.785Z</time></trkpt><trkpt lat="53.87754" lon="-2.1560433"><ele>247.0</ele><time>2026-05-03T14:05:00.783Z</time></trkpt><trkpt lat="53.8775567" lon="-2.1558183"><ele>245.39999999999998</ele><time>2026-05-03T14:05:02.782Z</time></trkpt><trkpt lat="53.8775733" lon="-2.1556433"><ele>243.79999999999998</ele><time>2026-05-03T14:05:03.783Z</time></trkpt><trkpt lat="53.8775783" lon="-2.1554767"><ele>242.2</ele><time>2026-05-03T14:05:04.783Z</time></trkpt><trkpt lat="53.877585" lon="-2.1553067"><ele>240.6</ele><time>2026-05-03T14:05:05.782Z</time></trkpt><trkpt lat="53.877585" lon="-2.1551467"><ele>239.0</ele><time>2026-05-03T14:05:06.783Z</time></trkpt><trkpt lat="53.8775833" lon="-2.1549733"><ele>239.75</ele><time>2026-05-03T14:05:07.783Z</time></trkpt><trkpt lat="53.8775717" lon="-2.1547933"><ele>240.5</ele><time>2026-05-03T14:05:08.783Z</time></trkpt><trkpt lat="53.8775633" lon="-2.154595"><ele>241.25</ele><time>2026-05-03T14:05:09.783Z</time></trkpt><trkpt lat="53.87754" lon="-2.1543817"><ele>242.0</ele><time>2026-05-03T14:05:10.782Z</time></trkpt><trkpt lat="53.87752" lon="-2.15415"><ele>242.75</ele><time>2026-05-03T14:05:11.783Z</time></trkpt><trkpt lat="53.8775017" lon="-2.1539033"><ele>243.5</ele><time>2026-05-03T14:05:12.783Z</time></trkpt><trkpt lat="53.87748" lon="-2.15365"><ele>244.25</ele><time>2026-05-03T14:05:13.783Z</time></trkpt><trkpt lat="53.8774583" lon="-2.15341"><ele>245.0</ele><time>2026-05-03T14:05:14.783Z</time></trkpt><trkpt lat="53.8774417" lon="-2.1531883"><ele>245.5</ele><time>2026-05-03T14:05:15.783Z</time></trkpt><trkpt lat="53.8774167" lon="-2.15298"><ele>246.0</ele><time>2026-05-03T14:05:16.782Z</time></trkpt><trkpt lat="53.8774017" lon="-2.1527683"><ele>246.5</ele><time>2026-05-03T14:05:17.782Z</time></trkpt><trkpt lat="53.8773883" lon="-2.1525933"><ele>247.0</ele><time>2026-05-03T14:05:18.781Z</time></trkpt><trkpt lat="53.8773767" lon="-2.1524217"><ele>246.99999999999997</ele><time>2026-05-03T14:05:19.783Z</time></trkpt><trkpt lat="53.8773733" lon="-2.152265"><ele>247.0</ele><time>2026-05-03T14:05:20.783Z</time></trkpt><trkpt lat="53.8773717" lon="-2.152115"><ele>247.0</ele><time>2026-05-03T14:05:21.783Z</time></trkpt><trkpt lat="53.8773683" lon="-2.1519667"><ele>247.0</ele><time>2026-05-03T14:05:22.783Z</time></trkpt><trkpt lat="53.8773583" lon="-2.151815"><ele>246.99999999999997</ele><time>2026-05-03T14:05:23.783Z</time></trkpt><trkpt lat="53.8773467" lon="-2.1516717"><ele>247.0</ele><time>2026-05-03T14:05:24.783Z</time></trkpt><trkpt lat="53.877335" lon="-2.1515383"><ele>247.16666666666666</ele><time>2026-05-03T14:05:25.783Z</time></trkpt><trkpt lat="53.8773233" lon="-2.1514017"><ele>247.33333333333331</ele><time>2026-05-03T14:05:26.783Z</time></trkpt><trkpt lat="53.87731" lon="-2.1512733"><ele>247.5</ele><time>2026-05-03T14:05:27.783Z</time></trkpt><trkpt lat="53.8772967" lon="-2.1511417"><ele>247.66666666666669</ele><time>2026-05-03T14:05:28.783Z</time></trkpt><trkpt lat="53.8772867" lon="-2.1510183"><ele>247.83333333333334</ele><time>2026-05-03T14:05:29.784Z</time></trkpt><trkpt lat="53.8772783" lon="-2.1509083"><ele>248.0</ele><time>2026-05-03T14:05:30.784Z</time></trkpt><trkpt lat="53.8772667" lon="-2.1507033"><ele>248.00000000000003</ele><time>2026-05-03T14:05:32.782Z</time></trkpt><trkpt lat="53.877255" lon="-2.1505933"><ele>248.0</ele><time>2026-05-03T14:05:33.782Z</time></trkpt><trkpt lat="53.87725" lon="-2.1504733"><ele>248.0</ele><time>2026-05-03T14:05:34.783Z</time></trkpt><trkpt lat="53.8772417" lon="-2.1503433"><ele>248.0</ele><time>2026-05-03T14:05:35.783Z</time></trkpt><trkpt lat="53.8772317" lon="-2.1501983"><ele>248.00000000000003</ele><time>2026-05-03T14:05:36.782Z</time></trkpt><trkpt lat="53.877225" lon="-2.15003"><ele>248.0</ele><time>2026-05-03T14:05:37.783Z</time></trkpt><trkpt lat="53.8772267" lon="-2.14982"><ele>248.0</ele><time>2026-05-03T14:05:38.783Z</time></trkpt><trkpt lat="53.87723" lon="-2.1496017"><ele>248.0</ele><time>2026-05-03T14:05:39.783Z</time></trkpt><trkpt lat="53.877235" lon="-2.1493683"><ele>248.0</ele><time>2026-05-03T14:05:40.782Z</time></trkpt><trkpt lat="53.8772383" lon="-2.1491417"><ele>248.0</ele><time>2026-05-03T14:05:41.784Z</time></trkpt><trkpt lat="53.877265" lon="-2.1489367"><ele>248.0</ele><time>2026-05-03T14:05:42.783Z</time></trkpt><trkpt lat="53.8772617" lon="-2.1487083"><ele>248.0</ele><time>2026-05-03T14:05:43.782Z</time></trkpt><trkpt lat="53.8772667" lon="-2.148465"><ele>248.0</ele><time>2026-05-03T14:05:44.783Z</time></trkpt><trkpt lat="53.877265" lon="-2.1482367"><ele>248.0</ele><time>2026-05-03T14:05:45.783Z</time></trkpt><trkpt lat="53.8772633" lon="-2.148015"><ele>247.5</ele><time>2026-05-03T14:05:46.783Z</time></trkpt><trkpt lat="53.8772633" lon="-2.147815"><ele>247.0</ele><time>2026-05-03T14:05:47.784Z</time></trkpt><trkpt lat="53.8772667" lon="-2.1476167"><ele>246.5</ele><time>2026-05-03T14:05:48.781Z</time></trkpt><trkpt lat="53.8772633" lon="-2.14741"><ele>246.0</ele><time>2026-05-03T14:05:49.783Z</time></trkpt><trkpt lat="53.877265" lon="-2.14721"><ele>245.25</ele><time>2026-05-03T14:05:50.783Z</time></trkpt><trkpt lat="53.8772767" lon="-2.147005"><ele>244.5</ele><time>2026-05-03T14:05:51.783Z</time></trkpt><trkpt lat="53.8772917" lon="-2.1467867"><ele>243.75</ele><time>2026-05-03T14:05:52.785Z</time></trkpt><trkpt lat="53.8773167" lon="-2.1465617"><ele>243.0</ele><time>2026-05-03T14:05:53.783Z</time></trkpt><trkpt lat="53.87734" lon="-2.146335"><ele>242.5</ele><time>2026-05-03T14:05:54.782Z</time></trkpt><trkpt lat="53.8773583" lon="-2.1461"><ele>242.0</ele><time>2026-05-03T14:05:55.783Z</time></trkpt><trkpt lat="53.8773833" lon="-2.14587"><ele>241.5</ele><time>2026-05-03T14:05:56.782Z</time></trkpt><trkpt lat="53.87741" lon="-2.1456283"><ele>241.0</ele><time>2026-05-03T14:05:57.782Z</time></trkpt><trkpt lat="53.8774333" lon="-2.1453883"><ele>241.0</ele><time>2026-05-03T14:05:58.783Z</time></trkpt><trkpt lat="53.877455" lon="-2.145155"><ele>241.0</ele><time>2026-05-03T14:05:59.782Z</time></trkpt><trkpt lat="53.8774817" lon="-2.1449383"><ele>241.0</ele><time>2026-05-03T14:06:00.782Z</time></trkpt><trkpt lat="53.877505" lon="-2.14474"><ele>241.0</ele><time>2026-05-03T14:06:01.783Z</time></trkpt><trkpt lat="53.877525" lon="-2.1445483"><ele>241.0</ele><time>2026-05-03T14:06:02.782Z</time></trkpt><trkpt lat="53.8775383" lon="-2.1443717"><ele>241.00000000000003</ele><time>2026-05-03T14:06:03.783Z</time></trkpt><trkpt lat="53.8775533" lon="-2.144205"><ele>241.00000000000003</ele><time>2026-05-03T14:06:04.783Z</time></trkpt><trkpt lat="53.8775667" lon="-2.14405"><ele>241.0</ele><time>2026-05-03T14:06:05.784Z</time></trkpt><trkpt lat="53.87758" lon="-2.14391"><ele>241.0</ele><time>2026-05-03T14:06:06.783Z</time></trkpt><trkpt lat="53.8775917" lon="-2.1437867"><ele>240.99999999999997</ele><time>2026-05-03T14:06:07.783Z</time></trkpt><trkpt lat="53.877605" lon="-2.143595"><ele>241.0</ele><time>2026-05-03T14:06:09.783Z</time></trkpt><trkpt lat="53.8776083" lon="-2.1434767"><ele>241.0</ele><time>2026-05-03T14:06:11.783Z</time></trkpt><trkpt lat="53.877615" lon="-2.143365"><ele>241.0</ele><time>2026-05-03T14:06:14.783Z</time></trkpt><trkpt lat="53.8775583" lon="-2.143295"><ele>240.99999999999997</ele><time>2026-05-03T14:06:18.782Z</time></trkpt><trkpt lat="53.877475" lon="-2.143305"><ele>241.0</ele><time>2026-05-03T14:06:21.782Z</time></trkpt><trkpt lat="53.8774067" lon="-2.14331"><ele>240.99999999999997</ele><time>2026-05-03T14:06:23.783Z</time></trkpt><trkpt lat="53.8773283" lon="-2.143305"><ele>241.0</ele><time>2026-05-03T14:06:25.783Z</time></trkpt><trkpt lat="53.8772383" lon="-2.1432983"><ele>241.0</ele><time>2026-05-03T14:06:27.781Z</time></trkpt><trkpt lat="53.877125" lon="-2.1432767"><ele>241.0</ele><time>2026-05-03T14:06:29.783Z</time></trkpt><trkpt lat="53.8770483" lon="-2.143265"><ele>240.99999999999997</ele><time>2026-05-03T14:06:30.783Z</time></trkpt><trkpt lat="53.8769633" lon="-2.1432533"><ele>241.0</ele><time>2026-05-03T14:06:31.786Z</time></trkpt><trkpt lat="53.8768783" lon="-2.143245"><ele>240.99999999999997</ele><time>2026-05-03T14:06:32.786Z</time></trkpt><trkpt lat="53.8767967" lon="-2.1432367"><ele>241.0</ele><time>2026-05-03T14:06:33.782Z</time></trkpt><trkpt lat="53.8767117" lon="-2.143235"><ele>241.0</ele><time>2026-05-03T14:06:34.783Z</time></trkpt><trkpt lat="53.8766233" lon="-2.1432367"><ele>241.0</ele><time>2026-05-03T14:06:35.783Z</time></trkpt><trkpt lat="53.8765433" lon="-2.14324"><ele>240.99999999999997</ele><time>2026-05-03T14:06:36.781Z</time></trkpt><trkpt lat="53.8764683" lon="-2.1432567"><ele>241.0</ele><time>2026-05-03T14:06:37.783Z</time></trkpt><trkpt lat="53.8764033" lon="-2.14328"><ele>239.4</ele><time>2026-05-03T14:06:38.783Z</time></trkpt><trkpt lat="53.8763433" lon="-2.143325"><ele>237.8</ele><time>2026-05-03T14:06:39.783Z</time></trkpt><trkpt lat="53.87629" lon="-2.1433833"><ele>236.20000000000002</ele><time>2026-05-03T14:06:40.782Z</time></trkpt><trkpt lat="53.876205" lon="-2.1435267"><ele>234.60000000000002</ele><time>2026-05-03T14:06:42.783Z</time></trkpt><trkpt lat="53.8761317" lon="-2.14368"><ele>233.0</ele><time>2026-05-03T14:06:44.782Z</time></trkpt><trkpt lat="53.8760683" lon="-2.143835"><ele>233.0</ele><time>2026-05-03T14:06:46.783Z</time></trkpt><trkpt lat="53.8759917" lon="-2.1439867"><ele>233.0</ele><time>2026-05-03T14:06:48.783Z</time></trkpt><trkpt lat="53.8758933" lon="-2.144085"><ele>233.0</ele><time>2026-05-03T14:06:50.782Z</time></trkpt><trkpt lat="53.8758217" lon="-2.14411"><ele>233.0</ele><time>2026-05-03T14:06:51.783Z</time></trkpt><trkpt lat="53.8757467" lon="-2.144125"><ele>233.0</ele><time>2026-05-03T14:06:52.783Z</time></trkpt><trkpt lat="53.8756667" lon="-2.1441217"><ele>231.2</ele><time>2026-05-03T14:06:53.783Z</time></trkpt><trkpt lat="53.8755817" lon="-2.144105"><ele>229.4</ele><time>2026-05-03T14:06:54.783Z</time></trkpt><trkpt lat="53.8754867" lon="-2.1440733"><ele>227.59999999999997</ele><time>2026-05-03T14:06:55.786Z</time></trkpt><trkpt lat="53.8753867" lon="-2.144025"><ele>225.79999999999998</ele><time>2026-05-03T14:06:56.786Z</time></trkpt><trkpt lat="53.8752917" lon="-2.1439767"><ele>224.0</ele><time>2026-05-03T14:06:57.781Z</time></trkpt><trkpt lat="53.8752" lon="-2.1439533"><ele>224.0</ele><time>2026-05-03T14:06:58.787Z</time></trkpt><trkpt lat="53.875105" lon="-2.14395"><ele>223.99999999999997</ele><time>2026-05-03T14:06:59.783Z</time></trkpt><trkpt lat="53.875005" lon="-2.1439633"><ele>223.99999999999997</ele><time>2026-05-03T14:07:00.784Z</time></trkpt><trkpt lat="53.874895" lon="-2.1439833"><ele>224.0</ele><time>2026-05-03T14:07:01.784Z</time></trkpt><trkpt lat="53.8747817" lon="-2.1440017"><ele>224.0</ele><time>2026-05-03T14:07:02.785Z</time></trkpt><trkpt lat="53.874665" lon="-2.1440233"><ele>222.75</ele><time>2026-05-03T14:07:03.784Z</time></trkpt><trkpt lat="53.8745433" lon="-2.1440483"><ele>221.5</ele><time>2026-05-03T14:07:04.785Z</time></trkpt><trkpt lat="53.8744133" lon="-2.144075"><ele>220.25</ele><time>2026-05-03T14:07:05.785Z</time></trkpt><trkpt lat="53.87429" lon="-2.1441067"><ele>219.0</ele><time>2026-05-03T14:07:06.785Z</time></trkpt><trkpt lat="53.8741683" lon="-2.144135"><ele>218.66666666666666</ele><time>2026-05-03T14:07:07.784Z</time></trkpt><trkpt lat="53.8740583" lon="-2.1441617"><ele>218.33333333333331</ele><time>2026-05-03T14:07:08.784Z</time></trkpt><trkpt lat="53.873965" lon="-2.144185"><ele>218.0</ele><time>2026-05-03T14:07:09.784Z</time></trkpt><trkpt lat="53.8738883" lon="-2.1442067"><ele>217.66666666666666</ele><time>2026-05-03T14:07:10.784Z</time></trkpt><trkpt lat="53.873825" lon="-2.1442267"><ele>217.33333333333331</ele><time>2026-05-03T14:07:11.783Z</time></trkpt><trkpt lat="53.8737433" lon="-2.1442883"><ele>217.0</ele><time>2026-05-03T14:07:13.785Z</time></trkpt><trkpt lat="53.8736733" lon="-2.1443867"><ele>216.99999999999997</ele><time>2026-05-03T14:07:15.785Z</time></trkpt><trkpt lat="53.8735883" lon="-2.144515"><ele>217.0</ele><time>2026-05-03T14:07:17.786Z</time></trkpt><trkpt lat="53.8735417" lon="-2.1445917"><ele>217.0</ele><time>2026-05-03T14:07:18.785Z</time></trkpt><trkpt lat="53.8734917" lon="-2.144685"><ele>217.0</ele><time>2026-05-03T14:07:19.785Z</time></trkpt><trkpt lat="53.8734367" lon="-2.1447817"><ele>216.99999999999997</ele><time>2026-05-03T14:07:20.783Z</time></trkpt><trkpt lat="53.8733867" lon="-2.14487"><ele>217.0</ele><time>2026-05-03T14:07:21.784Z</time></trkpt><trkpt lat="53.8733367" lon="-2.1449467"><ele>216.6</ele><time>2026-05-03T14:07:22.784Z</time></trkpt><trkpt lat="53.873255" lon="-2.1450433"><ele>216.2</ele><time>2026-05-03T14:07:24.783Z</time></trkpt><trkpt lat="53.87313" lon="-2.1450833"><ele>215.8</ele><time>2026-05-03T14:07:26.784Z</time></trkpt><trkpt lat="53.873035" lon="-2.1450867"><ele>215.4</ele><time>2026-05-03T14:07:27.782Z</time></trkpt><trkpt lat="53.8729267" lon="-2.1450767"><ele>215.0</ele><time>2026-05-03T14:07:28.783Z</time></trkpt><trkpt lat="53.87283" lon="-2.1450667"><ele>215.00000000000003</ele><time>2026-05-03T14:07:29.784Z</time></trkpt><trkpt lat="53.87274" lon="-2.14506"><ele>215.0</ele><time>2026-05-03T14:07:30.785Z</time></trkpt><trkpt lat="53.8726583" lon="-2.1450533"><ele>215.0</ele><time>2026-05-03T14:07:31.784Z</time></trkpt><trkpt lat="53.872585" lon="-2.14505"><ele>215.0</ele><time>2026-05-03T14:07:32.784Z</time></trkpt><trkpt lat="53.872515" lon="-2.1450517"><ele>215.00000000000003</ele><time>2026-05-03T14:07:33.784Z</time></trkpt><trkpt lat="53.87245" lon="-2.1450533"><ele>215.0</ele><time>2026-05-03T14:07:34.783Z</time></trkpt><trkpt lat="53.872325" lon="-2.14504"><ele>214.4</ele><time>2026-05-03T14:07:36.785Z</time></trkpt><trkpt lat="53.8722117" lon="-2.1450217"><ele>213.8</ele><time>2026-05-03T14:07:38.786Z</time></trkpt><trkpt lat="53.8721383" lon="-2.1450217"><ele>213.2</ele><time>2026-05-03T14:07:40.785Z</time></trkpt><trkpt lat="53.8720333" lon="-2.1450067"><ele>212.6</ele><time>2026-05-03T14:07:59.781Z</time></trkpt><trkpt lat="53.8719933" lon="-2.144895"><ele>212.0</ele><time>2026-05-03T14:08:01.783Z</time></trkpt><trkpt lat="53.8719367" lon="-2.1447333"><ele>211.66666666666669</ele><time>2026-05-03T14:08:03.782Z</time></trkpt><trkpt lat="53.8718717" lon="-2.1445967"><ele>211.33333333333334</ele><time>2026-05-03T14:08:05.783Z</time></trkpt><trkpt lat="53.871805" lon="-2.1444983"><ele>211.0</ele><time>2026-05-03T14:08:07.783Z</time></trkpt><trkpt lat="53.8717533" lon="-2.144405"><ele>210.66666666666669</ele><time>2026-05-03T14:08:10.783Z</time></trkpt><trkpt lat="53.871735" lon="-2.1442783"><ele>210.33333333333334</ele><time>2026-05-03T14:08:28.786Z</time></trkpt><trkpt lat="53.871745" lon="-2.1441517"><ele>210.0</ele><time>2026-05-03T14:08:31.783Z</time></trkpt><trkpt lat="53.8717617" lon="-2.144035"><ele>210.0</ele><time>2026-05-03T14:08:33.783Z</time></trkpt><trkpt lat="53.87178" lon="-2.1439167"><ele>210.0</ele><time>2026-05-03T14:08:35.783Z</time></trkpt><trkpt lat="53.8718" lon="-2.1438083"><ele>210.0</ele><time>2026-05-03T14:08:37.784Z</time></trkpt><trkpt lat="53.871825" lon="-2.14371"><ele>210.0</ele><time>2026-05-03T14:08:39.786Z</time></trkpt><trkpt lat="53.8718633" lon="-2.1435733"><ele>210.0</ele><time>2026-05-03T14:08:42.784Z</time></trkpt><trkpt lat="53.871915" lon="-2.1434433"><ele>210.0</ele><time>2026-05-03T14:08:45.784Z</time></trkpt><trkpt lat="53.8719667" lon="-2.1433267"><ele>209.66666666666666</ele><time>2026-05-03T14:08:48.787Z</time></trkpt><trkpt lat="53.8719967" lon="-2.1432067"><ele>209.33333333333331</ele><time>2026-05-03T14:08:51.784Z</time></trkpt><trkpt lat="53.8720017" lon="-2.1430883"><ele>209.0</ele><time>2026-05-03T14:08:54.788Z</time></trkpt><trkpt lat="53.8719767" lon="-2.1429567"><ele>208.66666666666666</ele><time>2026-05-03T14:08:57.784Z</time></trkpt><trkpt lat="53.8719333" lon="-2.1428283"><ele>208.33333333333331</ele><time>2026-05-03T14:09:00.784Z</time></trkpt><trkpt lat="53.8718733" lon="-2.14272"><ele>208.0</ele><time>2026-05-03T14:09:03.784Z</time></trkpt><trkpt lat="53.871795" lon="-2.14268"><ele>207.83333333333331</ele><time>2026-05-03T14:09:05.784Z</time></trkpt><trkpt lat="53.8717317" lon="-2.14266"><ele>207.66666666666666</ele><time>2026-05-03T14:09:06.787Z</time></trkpt><trkpt lat="53.8716633" lon="-2.1426433"><ele>207.5</ele><time>2026-05-03T14:09:07.784Z</time></trkpt><trkpt lat="53.87159" lon="-2.142635"><ele>207.33333333333331</ele><time>2026-05-03T14:09:08.784Z</time></trkpt><trkpt lat="53.87151" lon="-2.1426267"><ele>207.16666666666666</ele><time>2026-05-03T14:09:09.784Z</time></trkpt><trkpt lat="53.871415" lon="-2.1426267"><ele>207.0</ele><time>2026-05-03T14:09:10.784Z</time></trkpt><trkpt lat="53.8713017" lon="-2.1426317"><ele>207.0</ele><time>2026-05-03T14:09:11.784Z</time></trkpt><trkpt lat="53.8711867" lon="-2.142645"><ele>207.0</ele><time>2026-05-03T14:09:12.784Z</time></trkpt><trkpt lat="53.87108" lon="-2.142665"><ele>207.0</ele><time>2026-05-03T14:09:13.783Z</time></trkpt><trkpt lat="53.87098" lon="-2.1426817"><ele>207.0</ele><time>2026-05-03T14:09:14.783Z</time></trkpt><trkpt lat="53.8708933" lon="-2.1427"><ele>207.0</ele><time>2026-05-03T14:09:15.784Z</time></trkpt><trkpt lat="53.87081" lon="-2.1427167"><ele>207.2857142857143</ele><time>2026-05-03T14:09:16.783Z</time></trkpt><trkpt lat="53.8707317" lon="-2.1427367"><ele>207.57142857142858</ele><time>2026-05-03T14:09:17.783Z</time></trkpt><trkpt lat="53.87066" lon="-2.1427567"><ele>207.85714285714286</ele><time>2026-05-03T14:09:18.782Z</time></trkpt><trkpt lat="53.8705883" lon="-2.1427767"><ele>208.14285714285717</ele><time>2026-05-03T14:09:19.783Z</time></trkpt><trkpt lat="53.87052" lon="-2.1427983"><ele>208.42857142857142</ele><time>2026-05-03T14:09:20.783Z</time></trkpt><trkpt lat="53.87045" lon="-2.1428133"><ele>208.71428571428572</ele><time>2026-05-03T14:09:21.784Z</time></trkpt><trkpt lat="53.8703783" lon="-2.1428333"><ele>209.0</ele><time>2026-05-03T14:09:22.783Z</time></trkpt><trkpt lat="53.87031" lon="-2.1428533"><ele>209.00000000000003</ele><time>2026-05-03T14:09:23.783Z</time></trkpt><trkpt lat="53.8702433" lon="-2.1428717"><ele>209.0</ele><time>2026-05-03T14:09:24.784Z</time></trkpt><trkpt lat="53.8701383" lon="-2.1428717"><ele>209.0</ele><time>2026-05-03T14:09:26.783Z</time></trkpt><trkpt lat="53.870045" lon="-2.1428267"><ele>209.0</ele><time>2026-05-03T14:09:28.784Z</time></trkpt><trkpt lat="53.869975" lon="-2.1428033"><ele>209.00000000000003</ele><time>2026-05-03T14:09:30.782Z</time></trkpt><trkpt lat="53.8699117" lon="-2.142785"><ele>209.0</ele><time>2026-05-03T14:09:32.784Z</time></trkpt><trkpt lat="53.8698233" lon="-2.14276"><ele>208.66666666666669</ele><time>2026-05-03T14:09:35.784Z</time></trkpt><trkpt lat="53.86976" lon="-2.1427417"><ele>208.33333333333334</ele><time>2026-05-03T14:09:37.785Z</time></trkpt><trkpt lat="53.8696733" lon="-2.142705"><ele>208.0</ele><time>2026-05-03T14:09:40.784Z</time></trkpt><trkpt lat="53.8696017" lon="-2.142685"><ele>207.66666666666669</ele><time>2026-05-03T14:09:43.784Z</time></trkpt><trkpt lat="53.86954" lon="-2.1426633"><ele>207.33333333333334</ele><time>2026-05-03T14:09:46.784Z</time></trkpt><trkpt lat="53.8694683" lon="-2.142655"><ele>207.0</ele><time>2026-05-03T14:09:51.788Z</time></trkpt><trkpt lat="53.8693633" lon="-2.1426383"><ele>206.83333333333334</ele><time>2026-05-03T14:09:54.783Z</time></trkpt><trkpt lat="53.86926" lon="-2.142625"><ele>206.66666666666669</ele><time>2026-05-03T14:09:56.783Z</time></trkpt><trkpt lat="53.8691433" lon="-2.1426267"><ele>206.5</ele><time>2026-05-03T14:09:58.784Z</time></trkpt><trkpt lat="53.86908" lon="-2.142625"><ele>206.33333333333334</ele><time>2026-05-03T14:09:59.784Z</time></trkpt><trkpt lat="53.86901" lon="-2.142625"><ele>206.16666666666669</ele><time>2026-05-03T14:10:00.784Z</time></trkpt><trkpt lat="53.8689433" lon="-2.14262"><ele>206.0</ele><time>2026-05-03T14:10:01.784Z</time></trkpt><trkpt lat="53.8688683" lon="-2.1426117"><ele>206.00000000000003</ele><time>2026-05-03T14:10:02.783Z</time></trkpt><trkpt lat="53.8687933" lon="-2.14259"><ele>206.0</ele><time>2026-05-03T14:10:03.787Z</time></trkpt><trkpt lat="53.8687233" lon="-2.142555"><ele>206.0</ele><time>2026-05-03T14:10:04.783Z</time></trkpt><trkpt lat="53.8686467" lon="-2.1425167"><ele>206.0</ele><time>2026-05-03T14:10:05.784Z</time></trkpt><trkpt lat="53.86857" lon="-2.1424717"><ele>206.00000000000003</ele><time>2026-05-03T14:10:06.788Z</time></trkpt><trkpt lat="53.868495" lon="-2.1424233"><ele>206.0</ele><time>2026-05-03T14:10:07.783Z</time></trkpt><trkpt lat="53.8684217" lon="-2.1423867"><ele>206.83333333333334</ele><time>2026-05-03T14:10:08.784Z</time></trkpt><trkpt lat="53.8683583" lon="-2.1423533"><ele>207.66666666666669</ele><time>2026-05-03T14:10:09.783Z</time></trkpt><trkpt lat="53.868295" lon="-2.1423217"><ele>208.5</ele><time>2026-05-03T14:10:10.792Z</time></trkpt><trkpt lat="53.8682233" lon="-2.142285"><ele>209.33333333333331</ele><time>2026-05-03T14:10:11.782Z</time></trkpt><trkpt lat="53.8681367" lon="-2.1422367"><ele>210.16666666666666</ele><time>2026-05-03T14:10:12.783Z</time></trkpt><trkpt lat="53.8680383" lon="-2.1421733"><ele>211.0</ele><time>2026-05-03T14:10:13.784Z</time></trkpt><trkpt lat="53.8679317" lon="-2.142115"><ele>210.99999999999997</ele><time>2026-05-03T14:10:14.784Z</time></trkpt><trkpt lat="53.8678283" lon="-2.1420667"><ele>211.0</ele><time>2026-05-03T14:10:15.784Z</time></trkpt><trkpt lat="53.8677333" lon="-2.1420267"><ele>211.0</ele><time>2026-05-03T14:10:16.786Z</time></trkpt><trkpt lat="53.8676483" lon="-2.1419917"><ele>211.0</ele><time>2026-05-03T14:10:17.783Z</time></trkpt><trkpt lat="53.8675767" lon="-2.141955"><ele>210.99999999999997</ele><time>2026-05-03T14:10:18.783Z</time></trkpt><trkpt lat="53.8675033" lon="-2.14193"><ele>211.0</ele><time>2026-05-03T14:10:19.783Z</time></trkpt><trkpt lat="53.8674367" lon="-2.1418983"><ele>210.99999999999997</ele><time>2026-05-03T14:10:20.783Z</time></trkpt><trkpt lat="53.8673667" lon="-2.14188"><ele>211.0</ele><time>2026-05-03T14:10:21.783Z</time></trkpt><trkpt lat="53.8672917" lon="-2.14186"><ele>211.0</ele><time>2026-05-03T14:10:22.783Z</time></trkpt><trkpt lat="53.8672083" lon="-2.14183"><ele>211.0</ele><time>2026-05-03T14:10:23.784Z</time></trkpt><trkpt lat="53.867125" lon="-2.1417933"><ele>210.99999999999997</ele><time>2026-05-03T14:10:24.784Z</time></trkpt><trkpt lat="53.8670467" lon="-2.1417567"><ele>211.0</ele><time>2026-05-03T14:10:25.783Z</time></trkpt><trkpt lat="53.866975" lon="-2.1417117"><ele>210.99999999999997</ele><time>2026-05-03T14:10:26.786Z</time></trkpt><trkpt lat="53.866905" lon="-2.14166"><ele>211.0</ele><time>2026-05-03T14:10:27.783Z</time></trkpt><trkpt lat="53.8668383" lon="-2.1415933"><ele>211.0</ele><time>2026-05-03T14:10:28.784Z</time></trkpt><trkpt lat="53.8667817" lon="-2.1415083"><ele>211.0</ele><time>2026-05-03T14:10:29.784Z</time></trkpt><trkpt lat="53.86674" lon="-2.1413983"><ele>210.99999999999997</ele><time>2026-05-03T14:10:30.784Z</time></trkpt><trkpt lat="53.8667183" lon="-2.141255"><ele>211.0</ele><time>2026-05-03T14:10:31.784Z</time></trkpt><trkpt lat="53.8666933" lon="-2.1411367"><ele>211.99999999999997</ele><time>2026-05-03T14:10:32.784Z</time></trkpt><trkpt lat="53.8666567" lon="-2.1409583"><ele>213.0</ele><time>2026-05-03T14:10:34.783Z</time></trkpt><trkpt lat="53.8666317" lon="-2.14082"><ele>214.0</ele><time>2026-05-03T14:10:36.784Z</time></trkpt><trkpt lat="53.866555" lon="-2.1407"><ele>215.0</ele><time>2026-05-03T14:10:51.788Z</time></trkpt><trkpt lat="53.86649" lon="-2.1406917"><ele>215.99999999999997</ele><time>2026-05-03T14:10:53.785Z</time></trkpt><trkpt lat="53.86642" lon="-2.1406933"><ele>217.0</ele><time>2026-05-03T14:10:55.784Z</time></trkpt><trkpt lat="53.8663533" lon="-2.140685"><ele>216.99999999999997</ele><time>2026-05-03T14:10:57.784Z</time></trkpt><trkpt lat="53.8662917" lon="-2.1406567"><ele>217.0</ele><time>2026-05-03T14:10:59.784Z</time></trkpt><trkpt lat="53.8661867" lon="-2.1406133"><ele>217.0</ele><time>2026-05-03T14:11:02.786Z</time></trkpt><trkpt lat="53.8660733" lon="-2.1405667"><ele>217.0</ele><time>2026-05-03T14:11:04.783Z</time></trkpt><trkpt lat="53.86601" lon="-2.1405467"><ele>216.99999999999997</ele><time>2026-05-03T14:11:05.784Z</time></trkpt><trkpt lat="53.8659467" lon="-2.1405333"><ele>217.0</ele><time>2026-05-03T14:11:06.783Z</time></trkpt><trkpt lat="53.8658817" lon="-2.1405233"><ele>216.99999999999997</ele><time>2026-05-03T14:11:07.783Z</time></trkpt><trkpt lat="53.8658183" lon="-2.140515"><ele>217.0</ele><time>2026-05-03T14:11:08.784Z</time></trkpt><trkpt lat="53.8657" lon="-2.140465"><ele>217.0</ele><time>2026-05-03T14:11:10.786Z</time></trkpt><trkpt lat="53.8656417" lon="-2.140405"><ele>217.0</ele><time>2026-05-03T14:11:11.784Z</time></trkpt><trkpt lat="53.865585" lon="-2.1403317"><ele>216.99999999999997</ele><time>2026-05-03T14:11:12.783Z</time></trkpt><trkpt lat="53.8655183" lon="-2.1402667"><ele>217.0</ele><time>2026-05-03T14:11:13.784Z</time></trkpt><trkpt lat="53.8654467" lon="-2.1402133"><ele>216.99999999999997</ele><time>2026-05-03T14:11:14.784Z</time></trkpt><trkpt lat="53.865375" lon="-2.140165"><ele>217.0</ele><time>2026-05-03T14:11:15.783Z</time></trkpt><trkpt lat="53.865305" lon="-2.1401133"><ele>217.0</ele><time>2026-05-03T14:11:16.783Z</time></trkpt><trkpt lat="53.865225" lon="-2.1400667"><ele>217.0</ele><time>2026-05-03T14:11:17.784Z</time></trkpt><trkpt lat="53.8651483" lon="-2.1400183"><ele>216.99999999999997</ele><time>2026-05-03T14:11:18.782Z</time></trkpt><trkpt lat="53.86507" lon="-2.13996"><ele>217.0</ele><time>2026-05-03T14:11:19.783Z</time></trkpt><trkpt lat="53.86499" lon="-2.139885"><ele>216.83333333333331</ele><time>2026-05-03T14:11:20.783Z</time></trkpt><trkpt lat="53.864915" lon="-2.139795"><ele>216.66666666666666</ele><time>2026-05-03T14:11:21.784Z</time></trkpt><trkpt lat="53.8648517" lon="-2.1396933"><ele>216.5</ele><time>2026-05-03T14:11:22.784Z</time></trkpt><trkpt lat="53.8648033" lon="-2.1395833"><ele>216.33333333333331</ele><time>2026-05-03T14:11:23.784Z</time></trkpt><trkpt lat="53.8647617" lon="-2.1394533"><ele>216.16666666666666</ele><time>2026-05-03T14:11:24.783Z</time></trkpt><trkpt lat="53.8647333" lon="-2.1393017"><ele>216.0</ele><time>2026-05-03T14:11:25.783Z</time></trkpt><trkpt lat="53.86472" lon="-2.13912"><ele>216.4</ele><time>2026-05-03T14:11:26.784Z</time></trkpt><trkpt lat="53.864705" lon="-2.13894"><ele>216.8</ele><time>2026-05-03T14:11:27.785Z</time></trkpt><trkpt lat="53.8646917" lon="-2.13877"><ele>217.20000000000002</ele><time>2026-05-03T14:11:28.784Z</time></trkpt><trkpt lat="53.864675" lon="-2.13861"><ele>217.60000000000002</ele><time>2026-05-03T14:11:29.783Z</time></trkpt><trkpt lat="53.8646633" lon="-2.13846"><ele>218.0</ele><time>2026-05-03T14:11:30.784Z</time></trkpt><trkpt lat="53.8646517" lon="-2.1383167"><ele>218.33333333333334</ele><time>2026-05-03T14:11:31.784Z</time></trkpt><trkpt lat="53.8646383" lon="-2.1381583"><ele>218.66666666666669</ele><time>2026-05-03T14:11:32.784Z</time></trkpt><trkpt lat="53.8646267" lon="-2.1380017"><ele>219.0</ele><time>2026-05-03T14:11:33.784Z</time></trkpt><trkpt lat="53.86462" lon="-2.137855"><ele>219.33333333333331</ele><time>2026-05-03T14:11:34.784Z</time></trkpt><trkpt lat="53.8646183" lon="-2.1377167"><ele>219.66666666666666</ele><time>2026-05-03T14:11:35.784Z</time></trkpt><trkpt lat="53.8646233" lon="-2.13759"><ele>220.0</ele><time>2026-05-03T14:11:36.784Z</time></trkpt><trkpt lat="53.8646283" lon="-2.1374717"><ele>220.2</ele><time>2026-05-03T14:11:37.783Z</time></trkpt><trkpt lat="53.86463" lon="-2.1373433"><ele>220.4</ele><time>2026-05-03T14:11:38.784Z</time></trkpt><trkpt lat="53.8646317" lon="-2.1371983"><ele>220.60000000000002</ele><time>2026-05-03T14:11:39.784Z</time></trkpt><trkpt lat="53.8646333" lon="-2.137035"><ele>220.8</ele><time>2026-05-03T14:11:40.784Z</time></trkpt><trkpt lat="53.8646383" lon="-2.1368517"><ele>221.0</ele><time>2026-05-03T14:11:41.784Z</time></trkpt><trkpt lat="53.8646517" lon="-2.1366417"><ele>221.33333333333334</ele><time>2026-05-03T14:11:42.783Z</time></trkpt><trkpt lat="53.8646717" lon="-2.1364033"><ele>221.66666666666669</ele><time>2026-05-03T14:11:43.784Z</time></trkpt><trkpt lat="53.8646917" lon="-2.1361433"><ele>222.0</ele><time>2026-05-03T14:11:44.783Z</time></trkpt><trkpt lat="53.8647183" lon="-2.135875"><ele>222.5</ele><time>2026-05-03T14:11:45.783Z</time></trkpt><trkpt lat="53.864745" lon="-2.1356117"><ele>223.0</ele><time>2026-05-03T14:11:46.784Z</time></trkpt><trkpt lat="53.8647667" lon="-2.1353617"><ele>223.5</ele><time>2026-05-03T14:11:47.785Z</time></trkpt><trkpt lat="53.8647883" lon="-2.135125"><ele>224.0</ele><time>2026-05-03T14:11:48.784Z</time></trkpt><trkpt lat="53.864805" lon="-2.1349067"><ele>224.50000000000003</ele><time>2026-05-03T14:11:49.784Z</time></trkpt><trkpt lat="53.8648233" lon="-2.1347083"><ele>225.0</ele><time>2026-05-03T14:11:50.783Z</time></trkpt><trkpt lat="53.8648417" lon="-2.13454"><ele>225.5</ele><time>2026-05-03T14:11:51.785Z</time></trkpt><trkpt lat="53.86486" lon="-2.134405"><ele>226.0</ele><time>2026-05-03T14:11:52.785Z</time></trkpt><trkpt lat="53.8648867" lon="-2.1342867"><ele>226.50000000000003</ele><time>2026-05-03T14:11:53.784Z</time></trkpt><trkpt lat="53.8649267" lon="-2.1342"><ele>227.0</ele><time>2026-05-03T14:11:54.784Z</time></trkpt><trkpt lat="53.8649917" lon="-2.134145"><ele>227.0</ele><time>2026-05-03T14:11:55.783Z</time></trkpt><trkpt lat="53.8650683" lon="-2.1340967"><ele>227.0</ele><time>2026-05-03T14:11:56.784Z</time></trkpt><trkpt lat="53.8651617" lon="-2.134095"><ele>227.0</ele><time>2026-05-03T14:11:57.783Z</time></trkpt><trkpt lat="53.865275" lon="-2.1340967"><ele>227.0</ele><time>2026-05-03T14:11:58.783Z</time></trkpt><trkpt lat="53.8653967" lon="-2.134105"><ele>227.0</ele><time>2026-05-03T14:11:59.783Z</time></trkpt><trkpt lat="53.865485" lon="-2.134095"><ele>228.25</ele><time>2026-05-03T14:12:00.784Z</time></trkpt><trkpt lat="53.8655833" lon="-2.134075"><ele>229.5</ele><time>2026-05-03T14:12:01.784Z</time></trkpt><trkpt lat="53.8656617" lon="-2.1340483"><ele>230.75</ele><time>2026-05-03T14:12:02.783Z</time></trkpt><trkpt lat="53.8657317" lon="-2.1339917"><ele>232.0</ele><time>2026-05-03T14:12:03.783Z</time></trkpt><trkpt lat="53.8658883" lon="-2.13356"><ele>232.5</ele><time>2026-05-03T14:12:06.783Z</time></trkpt><trkpt lat="53.8659283" lon="-2.13334"><ele>233.0</ele><time>2026-05-03T14:12:07.784Z</time></trkpt><trkpt lat="53.8659667" lon="-2.1331317"><ele>233.5</ele><time>2026-05-03T14:12:08.783Z</time></trkpt><trkpt lat="53.8660033" lon="-2.132945"><ele>234.0</ele><time>2026-05-03T14:12:09.786Z</time></trkpt><trkpt lat="53.866045" lon="-2.1327783"><ele>234.0</ele><time>2026-05-03T14:12:10.784Z</time></trkpt><trkpt lat="53.8660883" lon="-2.1326083"><ele>233.99999999999997</ele><time>2026-05-03T14:12:11.784Z</time></trkpt><trkpt lat="53.8661317" lon="-2.1324317"><ele>233.99999999999997</ele><time>2026-05-03T14:12:12.785Z</time></trkpt><trkpt lat="53.8661767" lon="-2.132265"><ele>234.0</ele><time>2026-05-03T14:12:13.784Z</time></trkpt><trkpt lat="53.8662233" lon="-2.1320933"><ele>234.0</ele><time>2026-05-03T14:12:14.782Z</time></trkpt><trkpt lat="53.8662717" lon="-2.1319067"><ele>234.0</ele><time>2026-05-03T14:12:15.785Z</time></trkpt><trkpt lat="53.8663233" lon="-2.1317067"><ele>234.0</ele><time>2026-05-03T14:12:16.784Z</time></trkpt><trkpt lat="53.866375" lon="-2.13149"><ele>234.0</ele><time>2026-05-03T14:12:17.784Z</time></trkpt><trkpt lat="53.86641" lon="-2.1312583"><ele>234.0</ele><time>2026-05-03T14:12:18.784Z</time></trkpt><trkpt lat="53.8664417" lon="-2.1310033"><ele>234.0</ele><time>2026-05-03T14:12:19.783Z</time></trkpt><trkpt lat="53.86647" lon="-2.130755"><ele>234.0</ele><time>2026-05-03T14:12:20.783Z</time></trkpt><trkpt lat="53.8664967" lon="-2.1305233"><ele>234.0</ele><time>2026-05-03T14:12:21.783Z</time></trkpt><trkpt lat="53.8665183" lon="-2.130315"><ele>234.0</ele><time>2026-05-03T14:12:22.784Z</time></trkpt><trkpt lat="53.8665383" lon="-2.1301283"><ele>234.2</ele><time>2026-05-03T14:12:23.783Z</time></trkpt><trkpt lat="53.8665617" lon="-2.1299533"><ele>234.39999999999998</ele><time>2026-05-03T14:12:24.783Z</time></trkpt><trkpt lat="53.866585" lon="-2.129785"><ele>234.6</ele><time>2026-05-03T14:12:25.784Z</time></trkpt><trkpt lat="53.8666067" lon="-2.12962"><ele>234.8</ele><time>2026-05-03T14:12:26.784Z</time></trkpt><trkpt lat="53.8666283" lon="-2.1294533"><ele>235.0</ele><time>2026-05-03T14:12:27.784Z</time></trkpt><trkpt lat="53.866655" lon="-2.1292833"><ele>235.0</ele><time>2026-05-03T14:12:28.784Z</time></trkpt><trkpt lat="53.86668" lon="-2.129115"><ele>235.0</ele><time>2026-05-03T14:12:29.784Z</time></trkpt><trkpt lat="53.8667017" lon="-2.1289417"><ele>235.0</ele><time>2026-05-03T14:12:30.783Z</time></trkpt><trkpt lat="53.86672" lon="-2.12877"><ele>235.0</ele><time>2026-05-03T14:12:31.784Z</time></trkpt><trkpt lat="53.86674" lon="-2.1286017"><ele>235.0</ele><time>2026-05-03T14:12:32.784Z</time></trkpt><trkpt lat="53.8667583" lon="-2.1284367"><ele>234.6</ele><time>2026-05-03T14:12:33.783Z</time></trkpt><trkpt lat="53.86677" lon="-2.1282783"><ele>234.2</ele><time>2026-05-03T14:12:34.785Z</time></trkpt><trkpt lat="53.8667733" lon="-2.1281217"><ele>233.8</ele><time>2026-05-03T14:12:35.784Z</time></trkpt><trkpt lat="53.8667683" lon="-2.1279633"><ele>233.4</ele><time>2026-05-03T14:12:36.784Z</time></trkpt><trkpt lat="53.86675" lon="-2.1278067"><ele>233.0</ele><time>2026-05-03T14:12:37.784Z</time></trkpt><trkpt lat="53.86672" lon="-2.1276533"><ele>232.2</ele><time>2026-05-03T14:12:38.783Z</time></trkpt><trkpt lat="53.8666783" lon="-2.1275067"><ele>231.4</ele><time>2026-05-03T14:12:39.783Z</time></trkpt><trkpt lat="53.8666283" lon="-2.1273633"><ele>230.59999999999997</ele><time>2026-05-03T14:12:40.782Z</time></trkpt><trkpt lat="53.86657" lon="-2.1272383"><ele>229.79999999999998</ele><time>2026-05-03T14:12:41.783Z</time></trkpt><trkpt lat="53.8665067" lon="-2.12712"><ele>229.0</ele><time>2026-05-03T14:12:42.782Z</time></trkpt><trkpt lat="53.86643" lon="-2.1270183"><ele>227.25</ele><time>2026-05-03T14:12:43.782Z</time></trkpt><trkpt lat="53.8663483" lon="-2.1269167"><ele>225.5</ele><time>2026-05-03T14:12:44.783Z</time></trkpt><trkpt lat="53.866255" lon="-2.1268017"><ele>223.75</ele><time>2026-05-03T14:12:45.783Z</time></trkpt><trkpt lat="53.8661633" lon="-2.126695"><ele>222.0</ele><time>2026-05-03T14:12:46.782Z</time></trkpt><trkpt lat="53.86606" lon="-2.1265717"><ele>221.75</ele><time>2026-05-03T14:12:47.783Z</time></trkpt><trkpt lat="53.86596" lon="-2.1264533"><ele>221.5</ele><time>2026-05-03T14:12:48.783Z</time></trkpt><trkpt lat="53.865865" lon="-2.1263317"><ele>221.25</ele><time>2026-05-03T14:12:49.783Z</time></trkpt><trkpt lat="53.8657767" lon="-2.1262017"><ele>221.0</ele><time>2026-05-03T14:12:50.784Z</time></trkpt><trkpt lat="53.86569" lon="-2.1260717"><ele>221.0</ele><time>2026-05-03T14:12:51.784Z</time></trkpt><trkpt lat="53.8656067" lon="-2.1259467"><ele>221.00000000000003</ele><time>2026-05-03T14:12:52.784Z</time></trkpt><trkpt lat="53.8655267" lon="-2.1258133"><ele>221.00000000000003</ele><time>2026-05-03T14:12:53.783Z</time></trkpt><trkpt lat="53.8654567" lon="-2.1256733"><ele>221.0</ele><time>2026-05-03T14:12:54.784Z</time></trkpt><trkpt lat="53.8653917" lon="-2.1255217"><ele>221.0</ele><time>2026-05-03T14:12:55.784Z</time></trkpt><trkpt lat="53.8653333" lon="-2.1253683"><ele>219.8</ele><time>2026-05-03T14:12:56.783Z</time></trkpt><trkpt lat="53.8652817" lon="-2.12521"><ele>218.60000000000002</ele><time>2026-05-03T14:12:57.783Z</time></trkpt><trkpt lat="53.86523" lon="-2.1250533"><ele>217.4</ele><time>2026-05-03T14:12:58.782Z</time></trkpt><trkpt lat="53.8651833" lon="-2.1248967"><ele>216.2</ele><time>2026-05-03T14:12:59.783Z</time></trkpt><trkpt lat="53.865135" lon="-2.1247417"><ele>215.0</ele><time>2026-05-03T14:13:00.782Z</time></trkpt><trkpt lat="53.8650833" lon="-2.1245867"><ele>214.6</ele><time>2026-05-03T14:13:01.783Z</time></trkpt><trkpt lat="53.865035" lon="-2.12444"><ele>214.2</ele><time>2026-05-03T14:13:02.782Z</time></trkpt><trkpt lat="53.8649833" lon="-2.12429"><ele>213.8</ele><time>2026-05-03T14:13:03.783Z</time></trkpt><trkpt lat="53.8649317" lon="-2.1241433"><ele>213.4</ele><time>2026-05-03T14:13:04.785Z</time></trkpt><trkpt lat="53.8648817" lon="-2.1239967"><ele>213.0</ele><time>2026-05-03T14:13:05.784Z</time></trkpt><trkpt lat="53.8648333" lon="-2.1238533"><ele>212.5</ele><time>2026-05-03T14:13:06.782Z</time></trkpt><trkpt lat="53.864785" lon="-2.1237167"><ele>212.0</ele><time>2026-05-03T14:13:07.783Z</time></trkpt><trkpt lat="53.86474" lon="-2.1235833"><ele>211.5</ele><time>2026-05-03T14:13:08.787Z</time></trkpt><trkpt lat="53.864695" lon="-2.1234633"><ele>211.0</ele><time>2026-05-03T14:13:09.783Z</time></trkpt><trkpt lat="53.864655" lon="-2.1233567"><ele>210.5</ele><time>2026-05-03T14:13:10.783Z</time></trkpt><trkpt lat="53.8646083" lon="-2.1232533"><ele>210.0</ele><time>2026-05-03T14:13:11.782Z</time></trkpt><trkpt lat="53.86455" lon="-2.12315"><ele>209.4</ele><time>2026-05-03T14:13:12.784Z</time></trkpt><trkpt lat="53.8644817" lon="-2.12304"><ele>208.8</ele><time>2026-05-03T14:13:13.784Z</time></trkpt><trkpt lat="53.864405" lon="-2.1229283"><ele>208.2</ele><time>2026-05-03T14:13:14.784Z</time></trkpt><trkpt lat="53.8643217" lon="-2.12281"><ele>207.6</ele><time>2026-05-03T14:13:15.783Z</time></trkpt><trkpt lat="53.8642333" lon="-2.1226983"><ele>207.0</ele><time>2026-05-03T14:13:16.783Z</time></trkpt><trkpt lat="53.86415" lon="-2.122585"><ele>206.6</ele><time>2026-05-03T14:13:17.784Z</time></trkpt><trkpt lat="53.864065" lon="-2.122485"><ele>206.2</ele><time>2026-05-03T14:13:18.783Z</time></trkpt><trkpt lat="53.86398" lon="-2.122395"><ele>205.8</ele><time>2026-05-03T14:13:19.784Z</time></trkpt><trkpt lat="53.8638933" lon="-2.1223033"><ele>205.4</ele><time>2026-05-03T14:13:20.784Z</time></trkpt><trkpt lat="53.863805" lon="-2.12221"><ele>205.0</ele><time>2026-05-03T14:13:21.783Z</time></trkpt><trkpt lat="53.8637217" lon="-2.12212"><ele>204.4</ele><time>2026-05-03T14:13:22.784Z</time></trkpt><trkpt lat="53.8636433" lon="-2.1220283"><ele>203.8</ele><time>2026-05-03T14:13:23.783Z</time></trkpt><trkpt lat="53.8635567" lon="-2.1219483"><ele>203.2</ele><time>2026-05-03T14:13:24.782Z</time></trkpt><trkpt lat="53.8634767" lon="-2.1218683"><ele>202.6</ele><time>2026-05-03T14:13:25.787Z</time></trkpt><trkpt lat="53.8633983" lon="-2.1217867"><ele>202.0</ele><time>2026-05-03T14:13:26.784Z</time></trkpt><trkpt lat="53.8633217" lon="-2.121695"><ele>201.33333333333331</ele><time>2026-05-03T14:13:27.783Z</time></trkpt><trkpt lat="53.863245" lon="-2.1216"><ele>200.66666666666666</ele><time>2026-05-03T14:13:28.785Z</time></trkpt><trkpt lat="53.8631717" lon="-2.1215033"><ele>200.0</ele><time>2026-05-03T14:13:29.783Z</time></trkpt><trkpt lat="53.86311" lon="-2.1214267"><ele>199.33333333333331</ele><time>2026-05-03T14:13:30.783Z</time></trkpt><trkpt lat="53.8630583" lon="-2.1213583"><ele>198.66666666666666</ele><time>2026-05-03T14:13:31.783Z</time></trkpt><trkpt lat="53.8629967" lon="-2.1212117"><ele>198.0</ele><time>2026-05-03T14:13:33.783Z</time></trkpt><trkpt lat="53.8629567" lon="-2.1211133"><ele>197.5</ele><time>2026-05-03T14:13:34.785Z</time></trkpt><trkpt lat="53.8629133" lon="-2.120995"><ele>197.0</ele><time>2026-05-03T14:13:35.783Z</time></trkpt><trkpt lat="53.86288" lon="-2.1208733"><ele>196.5</ele><time>2026-05-03T14:13:36.784Z</time></trkpt><trkpt lat="53.86285" lon="-2.12075"><ele>196.0</ele><time>2026-05-03T14:13:37.783Z</time></trkpt><trkpt lat="53.8628167" lon="-2.12063"><ele>195.5</ele><time>2026-05-03T14:13:38.783Z</time></trkpt><trkpt lat="53.862785" lon="-2.1205067"><ele>195.0</ele><time>2026-05-03T14:13:39.784Z</time></trkpt><trkpt lat="53.8627583" lon="-2.1203883"><ele>194.5</ele><time>2026-05-03T14:13:40.784Z</time></trkpt><trkpt lat="53.862735" lon="-2.1202733"><ele>194.0</ele><time>2026-05-03T14:13:41.784Z</time></trkpt><trkpt lat="53.8626883" lon="-2.1200883"><ele>193.5</ele><time>2026-05-03T14:13:43.786Z</time></trkpt><trkpt lat="53.862645" lon="-2.1199167"><ele>193.0</ele><time>2026-05-03T14:13:45.784Z</time></trkpt><trkpt lat="53.86261" lon="-2.119805"><ele>192.5</ele><time>2026-05-03T14:13:47.784Z</time></trkpt><trkpt lat="53.86259" lon="-2.1196917"><ele>192.0</ele><time>2026-05-03T14:13:58.783Z</time></trkpt><trkpt lat="53.86474" lon="-2.1235833"><ele>194.5</ele><time>2026-05-03T14:13:08.787Z</time></trkpt><trkpt lat="53.864695" lon="-2.1234633"><ele>197.0</ele><time>2026-05-03T14:13:09.783Z</time></trkpt><trkpt lat="53.864655" lon="-2.1233567"><ele>199.5</ele><time>2026-05-03T14:13:10.783Z</time></trkpt><trkpt lat="53.8646083" lon="-2.1232533"><ele>202.0</ele><time>2026-05-03T14:13:11.782Z</time></trkpt><trkpt lat="53.86455" lon="-2.12315"><ele>204.5</ele><time>2026-05-03T14:13:12.784Z</time></trkpt><trkpt lat="53.8644817" lon="-2.12304"><ele>207.0</ele><time>2026-05-03T14:13:13.784Z</time></trkpt><trkpt lat="53.864405" lon="-2.1229283"><ele>207.0</ele><time>2026-05-03T14:13:14.784Z</time></trkpt><trkpt lat="53.8643217" lon="-2.12281"><ele>207.0</ele><time>2026-05-03T14:13:15.783Z</time></trkpt><trkpt lat="53.8642333" lon="-2.1226983"><ele>207.0</ele><time>2026-05-03T14:13:16.783Z</time></trkpt><trkpt lat="53.86415" lon="-2.122585"><ele>207.0</ele><time>2026-05-03T14:13:17.784Z</time></trkpt><trkpt lat="53.864065" lon="-2.122485"><ele>207.0</ele><time>2026-05-03T14:13:18.783Z</time></trkpt><trkpt lat="53.86398" lon="-2.122395"><ele>206.0</ele><time>2026-05-03T14:13:19.784Z</time></trkpt><trkpt lat="53.8638933" lon="-2.1223033"><ele>205.0</ele><time>2026-05-03T14:13:20.784Z</time></trkpt><trkpt lat="53.863805" lon="-2.12221"><ele>204.0</ele><time>2026-05-03T14:13:21.783Z</time></trkpt><trkpt lat="53.8637217" lon="-2.12212"><ele>203.0</ele><time>2026-05-03T14:13:22.784Z</time></trkpt><trkpt lat="53.8636433" lon="-2.1220283"><ele>202.0</ele><time>2026-05-03T14:13:23.783Z</time></trkpt><trkpt lat="53.8635567" lon="-2.1219483"><ele>202.0</ele><time>2026-05-03T14:13:24.782Z</time></trkpt><trkpt lat="53.8634767" lon="-2.1218683"><ele>202.0</ele><time>2026-05-03T14:13:25.787Z</time></trkpt><trkpt lat="53.8633983" lon="-2.1217867"><ele>202.0</ele><time>2026-05-03T14:13:26.784Z</time></trkpt><trkpt lat="53.8633217" lon="-2.121695"><ele>202.0</ele><time>2026-05-03T14:13:27.783Z</time></trkpt><trkpt lat="53.863245" lon="-2.1216"><ele>202.0</ele><time>2026-05-03T14:13:28.785Z</time></trkpt><trkpt lat="53.8631717" lon="-2.1215033"><ele>200.83333333333331</ele><time>2026-05-03T14:13:29.783Z</time></trkpt><trkpt lat="53.86311" lon="-2.1214267"><ele>199.66666666666666</ele><time>2026-05-03T14:13:30.783Z</time></trkpt><trkpt lat="53.8630583" lon="-2.1213583"><ele>198.5</ele><time>2026-05-03T14:13:31.783Z</time></trkpt><trkpt lat="53.8629967" lon="-2.1212117"><ele>197.33333333333331</ele><time>2026-05-03T14:13:33.783Z</time></trkpt><trkpt lat="53.8629567" lon="-2.1211133"><ele>196.16666666666666</ele><time>2026-05-03T14:13:34.785Z</time></trkpt><trkpt lat="53.8629133" lon="-2.120995"><ele>195.0</ele><time>2026-05-03T14:13:35.783Z</time></trkpt><trkpt lat="53.86288" lon="-2.1208733"><ele>195.0</ele><time>2026-05-03T14:13:36.784Z</time></trkpt><trkpt lat="53.86285" lon="-2.12075"><ele>195.0</ele><time>2026-05-03T14:13:37.783Z</time></trkpt><trkpt lat="53.8628167" lon="-2.12063"><ele>195.0</ele><time>2026-05-03T14:13:38.783Z</time></trkpt><trkpt lat="53.862785" lon="-2.1205067"><ele>195.0</ele><time>2026-05-03T14:13:39.784Z</time></trkpt><trkpt lat="53.8627583" lon="-2.1203883"><ele>195.0</ele><time>2026-05-03T14:13:40.784Z</time></trkpt><trkpt lat="53.862735" lon="-2.1202733"><ele>195.0</ele><time>2026-05-03T14:13:41.784Z</time></trkpt><trkpt lat="53.8626883" lon="-2.1200883"><ele>194.5</ele><time>2026-05-03T14:13:43.786Z</time></trkpt><trkpt lat="53.862645" lon="-2.1199167"><ele>194.0</ele><time>2026-05-03T14:13:45.784Z</time></trkpt><trkpt lat="53.86261" lon="-2.119805"><ele>193.5</ele><time>2026-05-03T14:13:47.784Z</time></trkpt><trkpt lat="53.86259" lon="-2.1196917"><ele>193.0</ele><time>2026-05-03T14:13:58.783Z</time></trkpt><trkpt lat="53.8626183" lon="-2.11958"><ele>192.5</ele><time>2026-05-03T14:14:00.782Z</time></trkpt><trkpt lat="53.8626217" lon="-2.1194433"><ele>192.0</ele><time>2026-05-03T14:14:02.784Z</time></trkpt><trkpt lat="53.8625783" lon="-2.1193217"><ele>191.0</ele><time>2026-05-03T14:14:04.783Z</time></trkpt><trkpt lat="53.8625133" lon="-2.1192183"><ele>190.0</ele><time>2026-05-03T14:14:06.784Z</time></trkpt><trkpt lat="53.86243" lon="-2.11907"><ele>189.0</ele><time>2026-05-03T14:14:08.783Z</time></trkpt><trkpt lat="53.8623883" lon="-2.1189817"><ele>188.0</ele><time>2026-05-03T14:14:09.783Z</time></trkpt><trkpt lat="53.8623467" lon="-2.1188867"><ele>187.0</ele><time>2026-05-03T14:14:10.783Z</time></trkpt><trkpt lat="53.86231" lon="-2.118795"><ele>186.0</ele><time>2026-05-03T14:14:11.783Z</time></trkpt><trkpt lat="53.8622733" lon="-2.1187017"><ele>185.60000000000002</ele><time>2026-05-03T14:14:12.783Z</time></trkpt><trkpt lat="53.8622233" lon="-2.1185283"><ele>185.2</ele><time>2026-05-03T14:14:14.784Z</time></trkpt><trkpt lat="53.8622033" lon="-2.1183633"><ele>184.8</ele><time>2026-05-03T14:14:16.783Z</time></trkpt><trkpt lat="53.8621683" lon="-2.1181517"><ele>184.39999999999998</ele><time>2026-05-03T14:14:18.782Z</time></trkpt><trkpt lat="53.862155" lon="-2.1180383"><ele>184.0</ele><time>2026-05-03T14:14:19.783Z</time></trkpt><trkpt lat="53.8621417" lon="-2.11792"><ele>184.0</ele><time>2026-05-03T14:14:20.783Z</time></trkpt><trkpt lat="53.86213" lon="-2.1178117"><ele>184.0</ele><time>2026-05-03T14:14:21.782Z</time></trkpt><trkpt lat="53.8621183" lon="-2.1176733"><ele>184.0</ele><time>2026-05-03T14:14:23.783Z</time></trkpt><trkpt lat="53.8621367" lon="-2.117825"><ele>184.0</ele><time>2026-05-03T14:15:57.785Z</time></trkpt><trkpt lat="53.8621483" lon="-2.1179867"><ele>184.0</ele><time>2026-05-03T14:15:59.785Z</time></trkpt><trkpt lat="53.8621667" lon="-2.1181433"><ele>184.0</ele><time>2026-05-03T14:16:01.783Z</time></trkpt><trkpt lat="53.862195" lon="-2.1182517"><ele>184.0</ele><time>2026-05-03T14:16:03.784Z</time></trkpt><trkpt lat="53.8621417" lon="-2.1183817"><ele>184.0</ele><time>2026-05-03T14:16:07.785Z</time></trkpt><trkpt lat="53.8620467" lon="-2.1184517"><ele>184.0</ele><time>2026-05-03T14:16:09.785Z</time></trkpt><trkpt lat="53.8619883" lon="-2.1185"><ele>184.0</ele><time>2026-05-03T14:16:10.784Z</time></trkpt><trkpt lat="53.8619233" lon="-2.118555"><ele>184.0</ele><time>2026-05-03T14:16:11.785Z</time></trkpt><trkpt lat="53.86186" lon="-2.1186067"><ele>184.0</ele><time>2026-05-03T14:16:12.786Z</time></trkpt><trkpt lat="53.8618017" lon="-2.1186583"><ele>184.0</ele><time>2026-05-03T14:16:13.783Z</time></trkpt><trkpt lat="53.86174" lon="-2.1187167"><ele>184.0</ele><time>2026-05-03T14:16:14.784Z</time></trkpt><trkpt lat="53.86164" lon="-2.1188233"><ele>184.0</ele><time>2026-05-03T14:16:16.784Z</time></trkpt><trkpt lat="53.8615833" lon="-2.1188733"><ele>184.0</ele><time>2026-05-03T14:16:17.785Z</time></trkpt><trkpt lat="53.8615133" lon="-2.1189483"><ele>184.0</ele><time>2026-05-03T14:16:18.783Z</time></trkpt><trkpt lat="53.86143" lon="-2.1190367"><ele>184.0</ele><time>2026-05-03T14:16:19.785Z</time></trkpt><trkpt lat="53.8613583" lon="-2.119125"><ele>183.66666666666669</ele><time>2026-05-03T14:16:20.784Z</time></trkpt><trkpt lat="53.8612883" lon="-2.119205"><ele>183.33333333333334</ele><time>2026-05-03T14:16:21.785Z</time></trkpt><trkpt lat="53.8612217" lon="-2.1192867"><ele>183.0</ele><time>2026-05-03T14:16:22.783Z</time></trkpt><trkpt lat="53.86116" lon="-2.1193633"><ele>182.66666666666666</ele><time>2026-05-03T14:16:23.782Z</time></trkpt><trkpt lat="53.8611" lon="-2.1194517"><ele>182.33333333333331</ele><time>2026-05-03T14:16:24.785Z</time></trkpt><trkpt lat="53.8610333" lon="-2.1195567"><ele>182.0</ele><time>2026-05-03T14:16:25.784Z</time></trkpt><trkpt lat="53.860965" lon="-2.1196583"><ele>181.83333333333331</ele><time>2026-05-03T14:16:26.783Z</time></trkpt><trkpt lat="53.8608933" lon="-2.1197567"><ele>181.66666666666666</ele><time>2026-05-03T14:16:27.784Z</time></trkpt><trkpt lat="53.8608267" lon="-2.119835"><ele>181.5</ele><time>2026-05-03T14:16:28.783Z</time></trkpt><trkpt lat="53.8607633" lon="-2.1198983"><ele>181.33333333333334</ele><time>2026-05-03T14:16:29.784Z</time></trkpt><trkpt lat="53.8607017" lon="-2.1199517"><ele>181.16666666666669</ele><time>2026-05-03T14:16:30.784Z</time></trkpt><trkpt lat="53.860625" lon="-2.119985"><ele>181.0</ele><time>2026-05-03T14:16:31.785Z</time></trkpt><trkpt lat="53.8605383" lon="-2.1200167"><ele>181.0</ele><time>2026-05-03T14:16:32.784Z</time></trkpt><trkpt lat="53.8604533" lon="-2.120045"><ele>181.0</ele><time>2026-05-03T14:16:33.784Z</time></trkpt><trkpt lat="53.8603733" lon="-2.1200733"><ele>181.0</ele><time>2026-05-03T14:16:34.784Z</time></trkpt><trkpt lat="53.8603033" lon="-2.1201033"><ele>181.0</ele><time>2026-05-03T14:16:35.785Z</time></trkpt><trkpt lat="53.8602433" lon="-2.1201417"><ele>181.0</ele><time>2026-05-03T14:16:36.784Z</time></trkpt><trkpt lat="53.8601767" lon="-2.12021"><ele>181.0</ele><time>2026-05-03T14:16:37.784Z</time></trkpt><trkpt lat="53.8601183" lon="-2.12029"><ele>182.20000000000002</ele><time>2026-05-03T14:16:38.785Z</time></trkpt><trkpt lat="53.8600567" lon="-2.12039"><ele>183.4</ele><time>2026-05-03T14:16:39.786Z</time></trkpt><trkpt lat="53.8599867" lon="-2.1205017"><ele>184.6</ele><time>2026-05-03T14:16:40.784Z</time></trkpt><trkpt lat="53.85992" lon="-2.120615"><ele>185.8</ele><time>2026-05-03T14:16:41.784Z</time></trkpt><trkpt lat="53.85985" lon="-2.120715"><ele>187.0</ele><time>2026-05-03T14:16:42.785Z</time></trkpt><trkpt lat="53.8597883" lon="-2.1208117"><ele>187.39999999999998</ele><time>2026-05-03T14:16:43.785Z</time></trkpt><trkpt lat="53.8597367" lon="-2.1209083"><ele>187.79999999999998</ele><time>2026-05-03T14:16:44.783Z</time></trkpt><trkpt lat="53.8597" lon="-2.1210267"><ele>188.2</ele><time>2026-05-03T14:16:45.784Z</time></trkpt><trkpt lat="53.8596567" lon="-2.12117"><ele>188.6</ele><time>2026-05-03T14:16:46.784Z</time></trkpt><trkpt lat="53.85961" lon="-2.1213333"><ele>189.0</ele><time>2026-05-03T14:16:47.784Z</time></trkpt><trkpt lat="53.8595567" lon="-2.1215267"><ele>189.5</ele><time>2026-05-03T14:16:48.783Z</time></trkpt><trkpt lat="53.859495" lon="-2.1217367"><ele>190.0</ele><time>2026-05-03T14:16:49.785Z</time></trkpt><trkpt lat="53.8594267" lon="-2.1219633"><ele>190.5</ele><time>2026-05-03T14:16:50.784Z</time></trkpt><trkpt lat="53.8593533" lon="-2.1222017"><ele>191.0</ele><time>2026-05-03T14:16:51.785Z</time></trkpt><trkpt lat="53.8592783" lon="-2.1224383"><ele>192.5</ele><time>2026-05-03T14:16:52.785Z</time></trkpt><trkpt lat="53.8592033" lon="-2.122675"><ele>194.0</ele><time>2026-05-03T14:16:53.784Z</time></trkpt><trkpt lat="53.8591367" lon="-2.1228983"><ele>195.5</ele><time>2026-05-03T14:16:54.784Z</time></trkpt><trkpt lat="53.8590733" lon="-2.1231117"><ele>197.0</ele><time>2026-05-03T14:16:55.785Z</time></trkpt><trkpt lat="53.8590133" lon="-2.12331"><ele>197.0</ele><time>2026-05-03T14:16:56.784Z</time></trkpt><trkpt lat="53.858955" lon="-2.1234983"><ele>197.0</ele><time>2026-05-03T14:16:57.783Z</time></trkpt><trkpt lat="53.8588945" lon="-2.1237006"><ele>197.0</ele><time>2026-05-03T14:16:58.784Z</time></trkpt><trkpt lat="53.8588392" lon="-2.1239222"><ele>197.0</ele><time>2026-05-03T14:16:59.785Z</time></trkpt><trkpt lat="53.8587975" lon="-2.1241635"><ele>197.0</ele><time>2026-05-03T14:17:00.784Z</time></trkpt><trkpt lat="53.8587643" lon="-2.1244117"><ele>197.0</ele><time>2026-05-03T14:17:01.787Z</time></trkpt><trkpt lat="53.8587333" lon="-2.1246582"><ele>197.0</ele><time>2026-05-03T14:17:02.784Z</time></trkpt><trkpt lat="53.8586987" lon="-2.1249077"><ele>197.0</ele><time>2026-05-03T14:17:03.785Z</time></trkpt><trkpt lat="53.8586565" lon="-2.1251583"><ele>197.0</ele><time>2026-05-03T14:17:04.783Z</time></trkpt><trkpt lat="53.8586055" lon="-2.1254037"><ele>197.0</ele><time>2026-05-03T14:17:05.783Z</time></trkpt><trkpt lat="53.8585409" lon="-2.1256535"><ele>196.75</ele><time>2026-05-03T14:17:06.784Z</time></trkpt><trkpt lat="53.8584791" lon="-2.1258997"><ele>196.5</ele><time>2026-05-03T14:17:07.785Z</time></trkpt><trkpt lat="53.8584234" lon="-2.1261269"><ele>196.25</ele><time>2026-05-03T14:17:08.787Z</time></trkpt><trkpt lat="53.8583749" lon="-2.1263219"><ele>196.0</ele><time>2026-05-03T14:17:09.783Z</time></trkpt><trkpt lat="53.8583343" lon="-2.1264959"><ele>196.8</ele><time>2026-05-03T14:17:10.783Z</time></trkpt><trkpt lat="53.8582963" lon="-2.126659"><ele>197.60000000000002</ele><time>2026-05-03T14:17:11.784Z</time></trkpt><trkpt lat="53.8582539" lon="-2.1268272"><ele>198.4</ele><time>2026-05-03T14:17:12.785Z</time></trkpt><trkpt lat="53.8582109" lon="-2.1269954"><ele>199.2</ele><time>2026-05-03T14:17:13.785Z</time></trkpt><trkpt lat="53.8581665" lon="-2.1271524"><ele>200.0</ele><time>2026-05-03T14:17:14.783Z</time></trkpt><trkpt lat="53.8581128" lon="-2.1273007"><ele>199.25</ele><time>2026-05-03T14:17:15.784Z</time></trkpt><trkpt lat="53.858041" lon="-2.1274415"><ele>198.5</ele><time>2026-05-03T14:17:16.784Z</time></trkpt><trkpt lat="53.85795" lon="-2.1275759"><ele>197.75</ele><time>2026-05-03T14:17:17.786Z</time></trkpt><trkpt lat="53.857846" lon="-2.1277103"><ele>197.0</ele><time>2026-05-03T14:17:18.784Z</time></trkpt><trkpt lat="53.8577289" lon="-2.127848"><ele>199.0</ele><time>2026-05-03T14:17:19.785Z</time></trkpt><trkpt lat="53.857602" lon="-2.1279925"><ele>201.0</ele><time>2026-05-03T14:17:20.786Z</time></trkpt><trkpt lat="53.8574727" lon="-2.1281521"><ele>203.0</ele><time>2026-05-03T14:17:21.784Z</time></trkpt><trkpt lat="53.8573404" lon="-2.1283233"><ele>203.0</ele><time>2026-05-03T14:17:22.785Z</time></trkpt><trkpt lat="53.8572091" lon="-2.1285002"><ele>203.0</ele><time>2026-05-03T14:17:23.787Z</time></trkpt><trkpt lat="53.8570803" lon="-2.1286849"><ele>203.0</ele><time>2026-05-03T14:17:24.784Z</time></trkpt><trkpt lat="53.8569462" lon="-2.1288736"><ele>203.0</ele><time>2026-05-03T14:17:25.784Z</time></trkpt><trkpt lat="53.8568206" lon="-2.129053"><ele>203.0</ele><time>2026-05-03T14:17:26.783Z</time></trkpt><trkpt lat="53.8567123" lon="-2.1292186"><ele>203.0</ele><time>2026-05-03T14:17:27.784Z</time></trkpt><trkpt lat="53.8566085" lon="-2.1293742"><ele>203.0</ele><time>2026-05-03T14:17:28.787Z</time></trkpt><trkpt lat="53.8565074" lon="-2.1295342"><ele>205.0</ele><time>2026-05-03T14:17:29.783Z</time></trkpt><trkpt lat="53.8564173" lon="-2.129692"><ele>207.0</ele><time>2026-05-03T14:17:30.784Z</time></trkpt><trkpt lat="53.8563533" lon="-2.1298217"><ele>209.0</ele><time>2026-05-03T14:17:31.783Z</time></trkpt><trkpt lat="53.8562917" lon="-2.12993"><ele>211.0</ele><time>2026-05-03T14:17:32.783Z</time></trkpt><trkpt lat="53.8562367" lon="-2.1300133"><ele>213.0</ele><time>2026-05-03T14:17:33.783Z</time></trkpt><trkpt lat="53.8561833" lon="-2.13008"><ele>213.0</ele><time>2026-05-03T14:17:34.782Z</time></trkpt><trkpt lat="53.8560667" lon="-2.1301317"><ele>213.0</ele><time>2026-05-03T14:17:36.783Z</time></trkpt><trkpt lat="53.8559867" lon="-2.1301617"><ele>213.0</ele><time>2026-05-03T14:17:37.784Z</time></trkpt><trkpt lat="53.8558833" lon="-2.13021"><ele>213.0</ele><time>2026-05-03T14:17:38.783Z</time></trkpt><trkpt lat="53.8557733" lon="-2.1302583"><ele>213.0</ele><time>2026-05-03T14:17:39.783Z</time></trkpt><trkpt lat="53.85567" lon="-2.1302917"><ele>214.60000000000002</ele><time>2026-05-03T14:17:40.782Z</time></trkpt><trkpt lat="53.85557" lon="-2.1303067"><ele>216.20000000000002</ele><time>2026-05-03T14:17:41.784Z</time></trkpt><trkpt lat="53.8554733" lon="-2.1303267"><ele>217.8</ele><time>2026-05-03T14:17:42.782Z</time></trkpt><trkpt lat="53.8553867" lon="-2.1303567"><ele>219.4</ele><time>2026-05-03T14:17:43.784Z</time></trkpt><trkpt lat="53.855295" lon="-2.1304217"><ele>221.0</ele><time>2026-05-03T14:17:44.783Z</time></trkpt><trkpt lat="53.855205" lon="-2.130525"><ele>221.0</ele><time>2026-05-03T14:17:45.782Z</time></trkpt><trkpt lat="53.8551017" lon="-2.1306633"><ele>221.0</ele><time>2026-05-03T14:17:46.782Z</time></trkpt><trkpt lat="53.85499" lon="-2.1308183"><ele>221.0</ele><time>2026-05-03T14:17:47.784Z</time></trkpt><trkpt lat="53.854865" lon="-2.1309717"><ele>221.0</ele><time>2026-05-03T14:17:48.782Z</time></trkpt><trkpt lat="53.8547433" lon="-2.131115"><ele>221.0</ele><time>2026-05-03T14:17:49.784Z</time></trkpt><trkpt lat="53.8546317" lon="-2.1312467"><ele>221.0</ele><time>2026-05-03T14:17:50.782Z</time></trkpt><trkpt lat="53.8545333" lon="-2.131365"><ele>221.0</ele><time>2026-05-03T14:17:51.783Z</time></trkpt><trkpt lat="53.8544383" lon="-2.1314817"><ele>221.0</ele><time>2026-05-03T14:17:52.782Z</time></trkpt><trkpt lat="53.8543433" lon="-2.1315867"><ele>220.4</ele><time>2026-05-03T14:17:53.783Z</time></trkpt><trkpt lat="53.854245" lon="-2.13168"><ele>219.8</ele><time>2026-05-03T14:17:54.783Z</time></trkpt><trkpt lat="53.8541467" lon="-2.131765"><ele>219.20000000000002</ele><time>2026-05-03T14:17:55.783Z</time></trkpt><trkpt lat="53.8540583" lon="-2.1318367"><ele>218.60000000000002</ele><time>2026-05-03T14:17:56.783Z</time></trkpt><trkpt lat="53.85398" lon="-2.1319117"><ele>218.0</ele><time>2026-05-03T14:17:57.781Z</time></trkpt><trkpt lat="53.8539083" lon="-2.13198"><ele>218.0</ele><time>2026-05-03T14:17:58.782Z</time></trkpt><trkpt lat="53.8538483" lon="-2.1320417"><ele>218.0</ele><time>2026-05-03T14:17:59.783Z</time></trkpt><trkpt lat="53.853765" lon="-2.1321283"><ele>218.0</ele><time>2026-05-03T14:18:01.783Z</time></trkpt><trkpt lat="53.8536667" lon="-2.1321367"><ele>218.0</ele><time>2026-05-03T14:18:31.784Z</time></trkpt><trkpt lat="53.853605" lon="-2.1320617"><ele>218.0</ele><time>2026-05-03T14:18:33.783Z</time></trkpt><trkpt lat="53.8535217" lon="-2.1319333"><ele>218.00000000000003</ele><time>2026-05-03T14:18:35.784Z</time></trkpt><trkpt lat="53.853475" lon="-2.13186"><ele>218.0</ele><time>2026-05-03T14:18:36.783Z</time></trkpt><trkpt lat="53.8534183" lon="-2.1317817"><ele>218.0</ele><time>2026-05-03T14:18:37.784Z</time></trkpt><trkpt lat="53.8533583" lon="-2.1316967"><ele>218.0</ele><time>2026-05-03T14:18:38.782Z</time></trkpt><trkpt lat="53.853295" lon="-2.1316067"><ele>218.00000000000003</ele><time>2026-05-03T14:18:39.783Z</time></trkpt><trkpt lat="53.853235" lon="-2.131515"><ele>218.0</ele><time>2026-05-03T14:18:40.783Z</time></trkpt><trkpt lat="53.8531733" lon="-2.1314267"><ele>217.50000000000003</ele><time>2026-05-03T14:18:41.784Z</time></trkpt><trkpt lat="53.85311" lon="-2.1313383"><ele>217.0</ele><time>2026-05-03T14:18:42.783Z</time></trkpt><trkpt lat="53.8530467" lon="-2.13125"><ele>216.5</ele><time>2026-05-03T14:18:43.783Z</time></trkpt><trkpt lat="53.8529833" lon="-2.1311567"><ele>216.0</ele><time>2026-05-03T14:18:44.783Z</time></trkpt><trkpt lat="53.8529167" lon="-2.1310617"><ele>215.50000000000003</ele><time>2026-05-03T14:18:45.783Z</time></trkpt><trkpt lat="53.85285" lon="-2.1309667"><ele>215.0</ele><time>2026-05-03T14:18:46.784Z</time></trkpt><trkpt lat="53.8527833" lon="-2.13087"><ele>215.0</ele><time>2026-05-03T14:18:47.784Z</time></trkpt><trkpt lat="53.8527183" lon="-2.1307667"><ele>215.0</ele><time>2026-05-03T14:18:48.783Z</time></trkpt><trkpt lat="53.8526483" lon="-2.130665"><ele>215.0</ele><time>2026-05-03T14:18:49.784Z</time></trkpt><trkpt lat="53.8525767" lon="-2.1305617"><ele>215.0</ele><time>2026-05-03T14:18:50.783Z</time></trkpt><trkpt lat="53.852505" lon="-2.1304567"><ele>215.0</ele><time>2026-05-03T14:18:51.782Z</time></trkpt><trkpt lat="53.8524367" lon="-2.130355"><ele>215.00000000000003</ele><time>2026-05-03T14:18:52.782Z</time></trkpt><trkpt lat="53.85237" lon="-2.1302567"><ele>215.0</ele><time>2026-05-03T14:18:53.784Z</time></trkpt><trkpt lat="53.8523017" lon="-2.1301683"><ele>215.0</ele><time>2026-05-03T14:18:54.783Z</time></trkpt><trkpt lat="53.8522417" lon="-2.1300867"><ele>215.0</ele><time>2026-05-03T14:18:55.783Z</time></trkpt><trkpt lat="53.8521867" lon="-2.1300133"><ele>215.00000000000003</ele><time>2026-05-03T14:18:56.784Z</time></trkpt><trkpt lat="53.8521367" lon="-2.129945"><ele>215.0</ele><time>2026-05-03T14:18:57.783Z</time></trkpt><trkpt lat="53.8520433" lon="-2.12983"><ele>215.2</ele><time>2026-05-03T14:18:59.784Z</time></trkpt><trkpt lat="53.85196" lon="-2.1297283"><ele>215.4</ele><time>2026-05-03T14:19:01.786Z</time></trkpt><trkpt lat="53.8518833" lon="-2.129645"><ele>215.60000000000002</ele><time>2026-05-03T14:19:03.784Z</time></trkpt><trkpt lat="53.8517983" lon="-2.1295733"><ele>215.8</ele><time>2026-05-03T14:19:05.783Z</time></trkpt><trkpt lat="53.851695" lon="-2.1295567"><ele>216.0</ele><time>2026-05-03T14:19:07.788Z</time></trkpt><trkpt lat="53.8515967" lon="-2.1295833"><ele>216.0</ele><time>2026-05-03T14:19:09.784Z</time></trkpt><trkpt lat="53.8515083" lon="-2.12963"><ele>216.00000000000003</ele><time>2026-05-03T14:19:11.784Z</time></trkpt><trkpt lat="53.851435" lon="-2.1296733"><ele>216.00000000000003</ele><time>2026-05-03T14:19:13.784Z</time></trkpt><trkpt lat="53.8513583" lon="-2.1297083"><ele>216.0</ele><time>2026-05-03T14:19:15.783Z</time></trkpt><trkpt lat="53.8512717" lon="-2.12975"><ele>216.0</ele><time>2026-05-03T14:19:17.783Z</time></trkpt><trkpt lat="53.8511617" lon="-2.1298"><ele>216.0</ele><time>2026-05-03T14:19:19.784Z</time></trkpt><trkpt lat="53.8510483" lon="-2.12985"><ele>216.00000000000003</ele><time>2026-05-03T14:19:21.784Z</time></trkpt><trkpt lat="53.85098" lon="-2.129885"><ele>216.00000000000003</ele><time>2026-05-03T14:19:22.783Z</time></trkpt><trkpt lat="53.850895" lon="-2.12993"><ele>216.0</ele><time>2026-05-03T14:19:23.784Z</time></trkpt><trkpt lat="53.8507817" lon="-2.129985"><ele>216.0</ele><time>2026-05-03T14:19:24.784Z</time></trkpt><trkpt lat="53.8506383" lon="-2.13004"><ele>216.0</ele><time>2026-05-03T14:19:25.784Z</time></trkpt><trkpt lat="53.8504833" lon="-2.1300883"><ele>216.0</ele><time>2026-05-03T14:19:26.782Z</time></trkpt><trkpt lat="53.8503333" lon="-2.1301133"><ele>216.0</ele><time>2026-05-03T14:19:27.783Z</time></trkpt><trkpt lat="53.8501933" lon="-2.13012"><ele>216.0</ele><time>2026-05-03T14:19:28.783Z</time></trkpt><trkpt lat="53.850075" lon="-2.1301117"><ele>215.60000000000002</ele><time>2026-05-03T14:19:29.784Z</time></trkpt><trkpt lat="53.8499783" lon="-2.1300933"><ele>215.20000000000002</ele><time>2026-05-03T14:19:30.784Z</time></trkpt><trkpt lat="53.8498983" lon="-2.1300833"><ele>214.79999999999998</ele><time>2026-05-03T14:19:31.785Z</time></trkpt><trkpt lat="53.84983" lon="-2.13008"><ele>214.39999999999998</ele><time>2026-05-03T14:19:32.782Z</time></trkpt><trkpt lat="53.8497233" lon="-2.1301267"><ele>214.0</ele><time>2026-05-03T14:19:34.787Z</time></trkpt><trkpt lat="53.84965" lon="-2.1302817"><ele>214.0</ele><time>2026-05-03T14:19:36.786Z</time></trkpt><trkpt lat="53.8496133" lon="-2.130435"><ele>214.0</ele><time>2026-05-03T14:19:37.784Z</time></trkpt><trkpt lat="53.8495717" lon="-2.1306533"><ele>214.0</ele><time>2026-05-03T14:19:38.783Z</time></trkpt><trkpt lat="53.849515" lon="-2.13089"><ele>214.0</ele><time>2026-05-03T14:19:39.783Z</time></trkpt><trkpt lat="53.8494633" lon="-2.1311367"><ele>214.0</ele><time>2026-05-03T14:19:40.785Z</time></trkpt><trkpt lat="53.8494067" lon="-2.131395"><ele>214.0</ele><time>2026-05-03T14:19:41.784Z</time></trkpt><trkpt lat="53.8493433" lon="-2.1316717"><ele>214.0</ele><time>2026-05-03T14:19:42.787Z</time></trkpt><trkpt lat="53.8492733" lon="-2.131955"><ele>213.66666666666666</ele><time>2026-05-03T14:19:43.784Z</time></trkpt><trkpt lat="53.8492133" lon="-2.1322267"><ele>213.33333333333331</ele><time>2026-05-03T14:19:44.787Z</time></trkpt><trkpt lat="53.8491583" lon="-2.13248"><ele>213.0</ele><time>2026-05-03T14:19:45.782Z</time></trkpt><trkpt lat="53.8491117" lon="-2.1327067"><ele>212.8</ele><time>2026-05-03T14:19:46.782Z</time></trkpt><trkpt lat="53.8490633" lon="-2.1329033"><ele>212.60000000000002</ele><time>2026-05-03T14:19:47.783Z</time></trkpt><trkpt lat="53.849025" lon="-2.1330667"><ele>212.39999999999998</ele><time>2026-05-03T14:19:48.783Z</time></trkpt><trkpt lat="53.8489883" lon="-2.1332217"><ele>212.2</ele><time>2026-05-03T14:19:49.787Z</time></trkpt><trkpt lat="53.8489533" lon="-2.1333683"><ele>212.0</ele><time>2026-05-03T14:19:50.785Z</time></trkpt><trkpt lat="53.84892" lon="-2.1335117"><ele>211.66666666666669</ele><time>2026-05-03T14:19:51.784Z</time></trkpt><trkpt lat="53.8488967" lon="-2.1336517"><ele>211.33333333333334</ele><time>2026-05-03T14:19:52.783Z</time></trkpt><trkpt lat="53.848885" lon="-2.133775"><ele>211.0</ele><time>2026-05-03T14:19:53.783Z</time></trkpt><trkpt lat="53.8488833" lon="-2.1339633"><ele>210.66666666666669</ele><time>2026-05-03T14:19:55.784Z</time></trkpt><trkpt lat="53.8488183" lon="-2.1340833"><ele>210.33333333333334</ele><time>2026-05-03T14:19:57.783Z</time></trkpt><trkpt lat="53.8487417" lon="-2.134085"><ele>210.0</ele><time>2026-05-03T14:19:58.783Z</time></trkpt><trkpt lat="53.8486233" lon="-2.1340483"><ele>210.0</ele><time>2026-05-03T14:19:59.784Z</time></trkpt><trkpt lat="53.8485183" lon="-2.1340167"><ele>210.0</ele><time>2026-05-03T14:20:00.785Z</time></trkpt><trkpt lat="53.84842" lon="-2.13401"><ele>210.0</ele><time>2026-05-03T14:20:01.784Z</time></trkpt><trkpt lat="53.8483367" lon="-2.1340133"><ele>210.0</ele><time>2026-05-03T14:20:02.786Z</time></trkpt><trkpt lat="53.8482667" lon="-2.13403"><ele>210.0</ele><time>2026-05-03T14:20:03.783Z</time></trkpt><trkpt lat="53.848145" lon="-2.1340933"><ele>207.66666666666666</ele><time>2026-05-03T14:20:05.783Z</time></trkpt><trkpt lat="53.84808" lon="-2.1341383"><ele>205.33333333333331</ele><time>2026-05-03T14:20:06.784Z</time></trkpt><trkpt lat="53.848005" lon="-2.134185"><ele>203.0</ele><time>2026-05-03T14:20:07.784Z</time></trkpt><trkpt lat="53.8479267" lon="-2.1342317"><ele>200.66666666666666</ele><time>2026-05-03T14:20:08.782Z</time></trkpt><trkpt lat="53.84785" lon="-2.1342783"><ele>198.33333333333331</ele><time>2026-05-03T14:20:09.783Z</time></trkpt><trkpt lat="53.84776" lon="-2.1343433"><ele>196.0</ele><time>2026-05-03T14:20:10.782Z</time></trkpt><trkpt lat="53.8476717" lon="-2.1344067"><ele>194.8</ele><time>2026-05-03T14:20:11.784Z</time></trkpt><trkpt lat="53.8475817" lon="-2.13447"><ele>193.60000000000002</ele><time>2026-05-03T14:20:12.784Z</time></trkpt><trkpt lat="53.8474867" lon="-2.1345383"><ele>192.4</ele><time>2026-05-03T14:20:13.782Z</time></trkpt><trkpt lat="53.8473867" lon="-2.1346083"><ele>191.2</ele><time>2026-05-03T14:20:14.782Z</time></trkpt><trkpt lat="53.8472917" lon="-2.134675"><ele>190.0</ele><time>2026-05-03T14:20:15.782Z</time></trkpt><trkpt lat="53.8471917" lon="-2.13474"><ele>190.0</ele><time>2026-05-03T14:20:16.782Z</time></trkpt><trkpt lat="53.8470983" lon="-2.1347983"><ele>190.0</ele><time>2026-05-03T14:20:17.782Z</time></trkpt><trkpt lat="53.847005" lon="-2.1348483"><ele>190.0</ele><time>2026-05-03T14:20:18.783Z</time></trkpt><trkpt lat="53.84692" lon="-2.13489"><ele>190.0</ele><time>2026-05-03T14:20:19.783Z</time></trkpt><trkpt lat="53.84684" lon="-2.1349433"><ele>190.0</ele><time>2026-05-03T14:20:20.784Z</time></trkpt><trkpt lat="53.846765" lon="-2.1349967"><ele>188.2</ele><time>2026-05-03T14:20:21.782Z</time></trkpt><trkpt lat="53.8466983" lon="-2.1350567"><ele>186.4</ele><time>2026-05-03T14:20:22.782Z</time></trkpt><trkpt lat="53.846625" lon="-2.1351483"><ele>184.60000000000002</ele><time>2026-05-03T14:20:23.783Z</time></trkpt><trkpt lat="53.8465483" lon="-2.13525"><ele>182.8</ele><time>2026-05-03T14:20:24.782Z</time></trkpt><trkpt lat="53.846465" lon="-2.1353467"><ele>181.0</ele><time>2026-05-03T14:20:25.784Z</time></trkpt><trkpt lat="53.8463833" lon="-2.1354233"><ele>181.0</ele><time>2026-05-03T14:20:26.783Z</time></trkpt><trkpt lat="53.8463083" lon="-2.1354867"><ele>181.0</ele><time>2026-05-03T14:20:27.783Z</time></trkpt><trkpt lat="53.84621" lon="-2.1355433"><ele>181.0</ele><time>2026-05-03T14:20:29.783Z</time></trkpt><trkpt lat="53.8460933" lon="-2.1355217"><ele>181.0</ele><time>2026-05-03T14:20:31.783Z</time></trkpt><trkpt lat="53.846025" lon="-2.1354817"><ele>181.0</ele><time>2026-05-03T14:20:32.783Z</time></trkpt><trkpt lat="53.8459583" lon="-2.1354317"><ele>181.16666666666669</ele><time>2026-05-03T14:20:33.783Z</time></trkpt><trkpt lat="53.8458933" lon="-2.1353683"><ele>181.33333333333334</ele><time>2026-05-03T14:20:34.783Z</time></trkpt><trkpt lat="53.8458183" lon="-2.1352983"><ele>181.5</ele><time>2026-05-03T14:20:35.783Z</time></trkpt><trkpt lat="53.84574" lon="-2.13523"><ele>181.66666666666666</ele><time>2026-05-03T14:20:36.783Z</time></trkpt><trkpt lat="53.84566" lon="-2.13517"><ele>181.83333333333331</ele><time>2026-05-03T14:20:37.783Z</time></trkpt><trkpt lat="53.8455767" lon="-2.1351283"><ele>182.0</ele><time>2026-05-03T14:20:38.783Z</time></trkpt><trkpt lat="53.8454867" lon="-2.1351133"><ele>182.0</ele><time>2026-05-03T14:20:39.783Z</time></trkpt><trkpt lat="53.8453917" lon="-2.1351333"><ele>182.0</ele><time>2026-05-03T14:20:40.782Z</time></trkpt><trkpt lat="53.8453167" lon="-2.1351717"><ele>182.0</ele><time>2026-05-03T14:20:41.784Z</time></trkpt><trkpt lat="53.8452267" lon="-2.135255"><ele>182.0</ele><time>2026-05-03T14:20:42.784Z</time></trkpt><trkpt lat="53.84512" lon="-2.1353983"><ele>182.0</ele><time>2026-05-03T14:20:43.784Z</time></trkpt><trkpt lat="53.845005" lon="-2.13556"><ele>183.0</ele><time>2026-05-03T14:20:44.782Z</time></trkpt><trkpt lat="53.84489" lon="-2.1357267"><ele>184.0</ele><time>2026-05-03T14:20:45.782Z</time></trkpt><trkpt lat="53.8447817" lon="-2.1358867"><ele>185.0</ele><time>2026-05-03T14:20:46.783Z</time></trkpt><trkpt lat="53.844665" lon="-2.1360333"><ele>186.0</ele><time>2026-05-03T14:20:47.786Z</time></trkpt><trkpt lat="53.844535" lon="-2.1361517"><ele>186.0</ele><time>2026-05-03T14:20:48.784Z</time></trkpt><trkpt lat="53.8444033" lon="-2.1362333"><ele>186.0</ele><time>2026-05-03T14:20:49.783Z</time></trkpt><trkpt lat="53.8442883" lon="-2.1362883"><ele>186.0</ele><time>2026-05-03T14:20:50.783Z</time></trkpt><trkpt lat="53.8442067" lon="-2.136325"><ele>186.0</ele><time>2026-05-03T14:20:51.783Z</time></trkpt><trkpt lat="53.8441433" lon="-2.1363483"><ele>186.0</ele><time>2026-05-03T14:20:52.784Z</time></trkpt><trkpt lat="53.8440467" lon="-2.136385"><ele>188.0</ele><time>2026-05-03T14:20:54.783Z</time></trkpt><trkpt lat="53.8439483" lon="-2.1364433"><ele>190.0</ele><time>2026-05-03T14:20:56.782Z</time></trkpt><trkpt lat="53.843865" lon="-2.1364883"><ele>192.0</ele><time>2026-05-03T14:20:58.783Z</time></trkpt><trkpt lat="53.84377" lon="-2.1365317"><ele>194.0</ele><time>2026-05-03T14:21:00.782Z</time></trkpt><trkpt lat="53.84367" lon="-2.136575"><ele>196.0</ele><time>2026-05-03T14:21:02.783Z</time></trkpt><trkpt lat="53.8435933" lon="-2.1366033"><ele>195.99999999999997</ele><time>2026-05-03T14:21:04.783Z</time></trkpt><trkpt lat="53.8435117" lon="-2.1366017"><ele>196.0</ele><time>2026-05-03T14:21:08.784Z</time></trkpt><trkpt lat="53.84346" lon="-2.136665"><ele>196.0</ele><time>2026-05-03T14:21:11.785Z</time></trkpt><trkpt lat="53.8434283" lon="-2.1367983"><ele>196.0</ele><time>2026-05-03T14:21:18.783Z</time></trkpt><trkpt lat="53.8433583" lon="-2.13688"><ele>195.99999999999997</ele><time>2026-05-03T14:21:20.783Z</time></trkpt><trkpt lat="53.843305" lon="-2.1369483"><ele>196.0</ele><time>2026-05-03T14:21:21.783Z</time></trkpt><trkpt lat="53.8432" lon="-2.1370517"><ele>196.5</ele><time>2026-05-03T14:21:22.783Z</time></trkpt><trkpt lat="53.843115" lon="-2.1371433"><ele>197.0</ele><time>2026-05-03T14:21:23.782Z</time></trkpt><trkpt lat="53.8429967" lon="-2.1372617"><ele>197.5</ele><time>2026-05-03T14:21:24.783Z</time></trkpt><trkpt lat="53.8428933" lon="-2.1373583"><ele>198.0</ele><time>2026-05-03T14:21:25.784Z</time></trkpt><trkpt lat="53.842785" lon="-2.137445"><ele>198.0</ele><time>2026-05-03T14:21:26.783Z</time></trkpt><trkpt lat="53.8426683" lon="-2.1374967"><ele>198.0</ele><time>2026-05-03T14:21:27.783Z</time></trkpt><trkpt lat="53.84254" lon="-2.1375083"><ele>198.0</ele><time>2026-05-03T14:21:28.783Z</time></trkpt><trkpt lat="53.8424167" lon="-2.13751"><ele>198.0</ele><time>2026-05-03T14:21:29.784Z</time></trkpt><trkpt lat="53.8422567" lon="-2.1375117"><ele>200.25</ele><time>2026-05-03T14:21:30.783Z</time></trkpt><trkpt lat="53.8420967" lon="-2.1375067"><ele>202.5</ele><time>2026-05-03T14:21:31.784Z</time></trkpt><trkpt lat="53.8419583" lon="-2.1374967"><ele>204.75</ele><time>2026-05-03T14:21:32.783Z</time></trkpt><trkpt lat="53.8418317" lon="-2.1374917"><ele>207.0</ele><time>2026-05-03T14:21:33.784Z</time></trkpt><trkpt lat="53.841715" lon="-2.137485"><ele>208.6</ele><time>2026-05-03T14:21:34.782Z</time></trkpt><trkpt lat="53.841615" lon="-2.137505"><ele>210.2</ele><time>2026-05-03T14:21:35.783Z</time></trkpt><trkpt lat="53.841525" lon="-2.13757"><ele>211.8</ele><time>2026-05-03T14:21:36.783Z</time></trkpt><trkpt lat="53.8414367" lon="-2.1376833"><ele>213.4</ele><time>2026-05-03T14:21:37.783Z</time></trkpt><trkpt lat="53.8413483" lon="-2.137845"><ele>215.0</ele><time>2026-05-03T14:21:38.782Z</time></trkpt><trkpt lat="53.8412533" lon="-2.1380367"><ele>214.66666666666669</ele><time>2026-05-03T14:21:39.783Z</time></trkpt><trkpt lat="53.8411617" lon="-2.1382383"><ele>214.33333333333331</ele><time>2026-05-03T14:21:40.783Z</time></trkpt><trkpt lat="53.8410733" lon="-2.138445"><ele>214.0</ele><time>2026-05-03T14:21:41.784Z</time></trkpt><trkpt lat="53.8409883" lon="-2.1386533"><ele>217.66666666666666</ele><time>2026-05-03T14:21:42.782Z</time></trkpt><trkpt lat="53.8408983" lon="-2.1388783"><ele>221.33333333333331</ele><time>2026-05-03T14:21:43.782Z</time></trkpt><trkpt lat="53.8408117" lon="-2.139125"><ele>225.0</ele><time>2026-05-03T14:21:44.783Z</time></trkpt><trkpt lat="53.8407283" lon="-2.1393817"><ele>225.0</ele><time>2026-05-03T14:21:45.783Z</time></trkpt><trkpt lat="53.84064" lon="-2.1396383"><ele>225.0</ele><time>2026-05-03T14:21:46.784Z</time></trkpt><trkpt lat="53.8405417" lon="-2.1398833"><ele>225.0</ele><time>2026-05-03T14:21:47.784Z</time></trkpt><trkpt lat="53.840445" lon="-2.140105"><ele>224.75</ele><time>2026-05-03T14:21:48.785Z</time></trkpt><trkpt lat="53.840355" lon="-2.140295"><ele>224.5</ele><time>2026-05-03T14:21:49.784Z</time></trkpt><trkpt lat="53.840255" lon="-2.1404633"><ele>224.25</ele><time>2026-05-03T14:21:50.782Z</time></trkpt><trkpt lat="53.8401583" lon="-2.1406033"><ele>224.0</ele><time>2026-05-03T14:21:51.782Z</time></trkpt><trkpt lat="53.8400583" lon="-2.1407267"><ele>226.75</ele><time>2026-05-03T14:21:52.783Z</time></trkpt><trkpt lat="53.8399667" lon="-2.14084"><ele>229.5</ele><time>2026-05-03T14:21:53.785Z</time></trkpt><trkpt lat="53.8398717" lon="-2.1409583"><ele>232.25</ele><time>2026-05-03T14:21:54.782Z</time></trkpt><trkpt lat="53.83977" lon="-2.1410967"><ele>235.0</ele><time>2026-05-03T14:21:55.784Z</time></trkpt><trkpt lat="53.839655" lon="-2.1412517"><ele>235.0</ele><time>2026-05-03T14:21:56.783Z</time></trkpt><trkpt lat="53.8395333" lon="-2.1414133"><ele>235.0</ele><time>2026-05-03T14:21:57.782Z</time></trkpt><trkpt lat="53.8394033" lon="-2.14158"><ele>235.0</ele><time>2026-05-03T14:21:58.783Z</time></trkpt><trkpt lat="53.839265" lon="-2.1417567"><ele>239.33333333333331</ele><time>2026-05-03T14:21:59.784Z</time></trkpt><trkpt lat="53.8391283" lon="-2.1419167"><ele>243.66666666666669</ele><time>2026-05-03T14:22:00.782Z</time></trkpt><trkpt lat="53.839" lon="-2.1420567"><ele>248.0</ele><time>2026-05-03T14:22:01.782Z</time></trkpt><trkpt lat="53.838885" lon="-2.1422017"><ele>248.0</ele><time>2026-05-03T14:22:02.783Z</time></trkpt><trkpt lat="53.838765" lon="-2.1423483"><ele>248.0</ele><time>2026-05-03T14:22:03.783Z</time></trkpt><trkpt lat="53.8386533" lon="-2.14248"><ele>248.0</ele><time>2026-05-03T14:22:04.782Z</time></trkpt><trkpt lat="53.8385467" lon="-2.1425967"><ele>248.0</ele><time>2026-05-03T14:22:05.783Z</time></trkpt><trkpt lat="53.8384383" lon="-2.1427067"><ele>250.5</ele><time>2026-05-03T14:22:06.782Z</time></trkpt><trkpt lat="53.83832" lon="-2.1427917"><ele>253.0</ele><time>2026-05-03T14:22:07.783Z</time></trkpt><trkpt lat="53.83819" lon="-2.1428383"><ele>255.5</ele><time>2026-05-03T14:22:08.783Z</time></trkpt><trkpt lat="53.8380367" lon="-2.1428517"><ele>258.0</ele><time>2026-05-03T14:22:09.784Z</time></trkpt><trkpt lat="53.8378883" lon="-2.1428567"><ele>258.0</ele><time>2026-05-03T14:22:10.783Z</time></trkpt><trkpt lat="53.8377433" lon="-2.142865"><ele>258.0</ele><time>2026-05-03T14:22:11.783Z</time></trkpt><trkpt lat="53.8376083" lon="-2.1428733"><ele>258.0</ele><time>2026-05-03T14:22:12.783Z</time></trkpt><trkpt lat="53.8374883" lon="-2.142885"><ele>258.0</ele><time>2026-05-03T14:22:13.783Z</time></trkpt><trkpt lat="53.8373867" lon="-2.142895"><ele>259.3333333333333</ele><time>2026-05-03T14:22:14.783Z</time></trkpt><trkpt lat="53.837315" lon="-2.14292"><ele>260.6666666666667</ele><time>2026-05-03T14:22:15.784Z</time></trkpt><trkpt lat="53.837255" lon="-2.14297"><ele>262.0</ele><time>2026-05-03T14:22:16.783Z</time></trkpt><trkpt lat="53.8372033" lon="-2.1430417"><ele>263.33333333333337</ele><time>2026-05-03T14:22:17.782Z</time></trkpt><trkpt lat="53.83717" lon="-2.1431583"><ele>264.6666666666667</ele><time>2026-05-03T14:22:18.782Z</time></trkpt><trkpt lat="53.8371533" lon="-2.1433167"><ele>266.0</ele><time>2026-05-03T14:22:19.784Z</time></trkpt><trkpt lat="53.8371417" lon="-2.1435033"><ele>266.0</ele><time>2026-05-03T14:22:20.783Z</time></trkpt><trkpt lat="53.8371317" lon="-2.1437417"><ele>266.0</ele><time>2026-05-03T14:22:21.782Z</time></trkpt><trkpt lat="53.83711" lon="-2.1439967"><ele>266.0</ele><time>2026-05-03T14:22:22.786Z</time></trkpt><trkpt lat="53.8370833" lon="-2.14427"><ele>266.33333333333337</ele><time>2026-05-03T14:22:23.782Z</time></trkpt><trkpt lat="53.8370583" lon="-2.1445567"><ele>266.6666666666667</ele><time>2026-05-03T14:22:24.783Z</time></trkpt><trkpt lat="53.8370267" lon="-2.1448617"><ele>267.0</ele><time>2026-05-03T14:22:25.784Z</time></trkpt><trkpt lat="53.83699" lon="-2.1451833"><ele>267.0</ele><time>2026-05-03T14:22:26.783Z</time></trkpt><trkpt lat="53.8369583" lon="-2.1454983"><ele>267.0</ele><time>2026-05-03T14:22:27.783Z</time></trkpt><trkpt lat="53.8369267" lon="-2.1458033"><ele>267.0</ele><time>2026-05-03T14:22:28.782Z</time></trkpt><trkpt lat="53.8368933" lon="-2.1461167"><ele>267.3333333333333</ele><time>2026-05-03T14:22:29.784Z</time></trkpt><trkpt lat="53.83686" lon="-2.1464333"><ele>267.66666666666663</ele><time>2026-05-03T14:22:30.783Z</time></trkpt><trkpt lat="53.8368267" lon="-2.1467467"><ele>268.0</ele><time>2026-05-03T14:22:31.786Z</time></trkpt><trkpt lat="53.8367917" lon="-2.1470667"><ele>269.3333333333333</ele><time>2026-05-03T14:22:32.786Z</time></trkpt><trkpt lat="53.8367567" lon="-2.1473883"><ele>270.6666666666667</ele><time>2026-05-03T14:22:33.786Z</time></trkpt><trkpt lat="53.8367233" lon="-2.147695"><ele>272.0</ele><time>2026-05-03T14:22:34.786Z</time></trkpt><trkpt lat="53.8366967" lon="-2.14798"><ele>271.6666666666667</ele><time>2026-05-03T14:22:35.787Z</time></trkpt><trkpt lat="53.8366683" lon="-2.1482433"><ele>271.3333333333333</ele><time>2026-05-03T14:22:36.785Z</time></trkpt><trkpt lat="53.8366433" lon="-2.1485"><ele>271.0</ele><time>2026-05-03T14:22:37.783Z</time></trkpt><trkpt lat="53.83662" lon="-2.148745"><ele>271.0</ele><time>2026-05-03T14:22:38.788Z</time></trkpt><trkpt lat="53.8365983" lon="-2.1489733"><ele>271.0</ele><time>2026-05-03T14:22:39.783Z</time></trkpt><trkpt lat="53.8365783" lon="-2.1491967"><ele>271.0</ele><time>2026-05-03T14:22:40.784Z</time></trkpt><trkpt lat="53.8365617" lon="-2.1494117"><ele>271.0</ele><time>2026-05-03T14:22:41.782Z</time></trkpt><trkpt lat="53.8365467" lon="-2.149635"><ele>270.0</ele><time>2026-05-03T14:22:42.786Z</time></trkpt><trkpt lat="53.8365333" lon="-2.14986"><ele>269.0</ele><time>2026-05-03T14:22:43.785Z</time></trkpt><trkpt lat="53.83653" lon="-2.15009"><ele>268.0</ele><time>2026-05-03T14:22:44.786Z</time></trkpt><trkpt lat="53.8365433" lon="-2.1503133"><ele>267.0</ele><time>2026-05-03T14:22:45.782Z</time></trkpt><trkpt lat="53.836575" lon="-2.1505267"><ele>266.0</ele><time>2026-05-03T14:22:46.782Z</time></trkpt><trkpt lat="53.8366183" lon="-2.150725"><ele>265.0</ele><time>2026-05-03T14:22:47.783Z</time></trkpt><trkpt lat="53.8366533" lon="-2.1509133"><ele>264.0</ele><time>2026-05-03T14:22:48.783Z</time></trkpt><trkpt lat="53.8366633" lon="-2.15109"><ele>263.0</ele><time>2026-05-03T14:22:49.782Z</time></trkpt><trkpt lat="53.8366583" lon="-2.1512533"><ele>262.0</ele><time>2026-05-03T14:22:50.783Z</time></trkpt><trkpt lat="53.8366283" lon="-2.1514033"><ele>262.75</ele><time>2026-05-03T14:22:51.783Z</time></trkpt><trkpt lat="53.836565" lon="-2.1515617"><ele>263.5</ele><time>2026-05-03T14:22:52.783Z</time></trkpt><trkpt lat="53.8364767" lon="-2.1517317"><ele>264.25</ele><time>2026-05-03T14:22:53.783Z</time></trkpt><trkpt lat="53.8363783" lon="-2.1519"><ele>265.0</ele><time>2026-05-03T14:22:54.783Z</time></trkpt><trkpt lat="53.8362717" lon="-2.1520833"><ele>265.0</ele><time>2026-05-03T14:22:55.784Z</time></trkpt><trkpt lat="53.8361617" lon="-2.1522817"><ele>265.0</ele><time>2026-05-03T14:22:56.783Z</time></trkpt><trkpt lat="53.8360433" lon="-2.152485"><ele>265.0</ele><time>2026-05-03T14:22:57.783Z</time></trkpt><trkpt lat="53.835915" lon="-2.1526983"><ele>267.66666666666663</ele><time>2026-05-03T14:22:58.782Z</time></trkpt><trkpt lat="53.83578" lon="-2.15292"><ele>270.3333333333333</ele><time>2026-05-03T14:22:59.783Z</time></trkpt><trkpt lat="53.8356433" lon="-2.1531383"><ele>273.0</ele><time>2026-05-03T14:23:00.784Z</time></trkpt><trkpt lat="53.8355033" lon="-2.153365"><ele>274.0</ele><time>2026-05-03T14:23:01.783Z</time></trkpt><trkpt lat="53.8353667" lon="-2.15359"><ele>275.0</ele><time>2026-05-03T14:23:02.782Z</time></trkpt><trkpt lat="53.835205" lon="-2.15381"><ele>276.0</ele><time>2026-05-03T14:23:03.783Z</time></trkpt><trkpt lat="53.835055" lon="-2.1540283"><ele>278.6666666666667</ele><time>2026-05-03T14:23:04.783Z</time></trkpt><trkpt lat="53.834905" lon="-2.1542483"><ele>281.33333333333337</ele><time>2026-05-03T14:23:05.784Z</time></trkpt><trkpt lat="53.834765" lon="-2.154475"><ele>284.0</ele><time>2026-05-03T14:23:06.783Z</time></trkpt><trkpt lat="53.83462" lon="-2.1547033"><ele>284.6666666666667</ele><time>2026-05-03T14:23:07.782Z</time></trkpt><trkpt lat="53.8344717" lon="-2.154935"><ele>285.3333333333333</ele><time>2026-05-03T14:23:08.782Z</time></trkpt><trkpt lat="53.83432" lon="-2.1551717"><ele>286.0</ele><time>2026-05-03T14:23:09.783Z</time></trkpt><trkpt lat="53.834165" lon="-2.1554083"><ele>287.0</ele><time>2026-05-03T14:23:10.783Z</time></trkpt><trkpt lat="53.8340133" lon="-2.155655"><ele>288.0</ele><time>2026-05-03T14:23:11.783Z</time></trkpt><trkpt lat="53.8338517" lon="-2.155895"><ele>289.0</ele><time>2026-05-03T14:23:12.782Z</time></trkpt><trkpt lat="53.8336967" lon="-2.15615"><ele>289.3333333333333</ele><time>2026-05-03T14:23:13.784Z</time></trkpt><trkpt lat="53.8335417" lon="-2.1564083"><ele>289.6666666666667</ele><time>2026-05-03T14:23:14.782Z</time></trkpt><trkpt lat="53.8333867" lon="-2.1566683"><ele>290.0</ele><time>2026-05-03T14:23:15.783Z</time></trkpt><trkpt lat="53.8332383" lon="-2.1569233"><ele>293.0</ele><time>2026-05-03T14:23:16.783Z</time></trkpt><trkpt lat="53.8330933" lon="-2.1571717"><ele>296.0</ele><time>2026-05-03T14:23:17.784Z</time></trkpt><trkpt lat="53.8329517" lon="-2.157415"><ele>299.0</ele><time>2026-05-03T14:23:18.783Z</time></trkpt><trkpt lat="53.8328183" lon="-2.1576367"><ele>300.25</ele><time>2026-05-03T14:23:19.783Z</time></trkpt><trkpt lat="53.8327067" lon="-2.1578333"><ele>301.5</ele><time>2026-05-03T14:23:20.784Z</time></trkpt><trkpt lat="53.83261" lon="-2.1579967"><ele>302.75</ele><time>2026-05-03T14:23:21.785Z</time></trkpt><trkpt lat="53.83252" lon="-2.1581383"><ele>304.0</ele><time>2026-05-03T14:23:22.781Z</time></trkpt><trkpt lat="53.832445" lon="-2.1582683"><ele>306.2</ele><time>2026-05-03T14:23:23.784Z</time></trkpt><trkpt lat="53.83237" lon="-2.15839"><ele>308.4</ele><time>2026-05-03T14:23:24.782Z</time></trkpt><trkpt lat="53.8323033" lon="-2.1585017"><ele>310.6</ele><time>2026-05-03T14:23:25.784Z</time></trkpt><trkpt lat="53.8322417" lon="-2.1586033"><ele>312.8</ele><time>2026-05-03T14:23:26.783Z</time></trkpt><trkpt lat="53.8321833" lon="-2.1586817"><ele>315.0</ele><time>2026-05-03T14:23:27.783Z</time></trkpt><trkpt lat="53.8320867" lon="-2.158765"><ele>315.0</ele><time>2026-05-03T14:23:29.784Z</time></trkpt><trkpt lat="53.8319917" lon="-2.1587233"><ele>315.0</ele><time>2026-05-03T14:23:31.784Z</time></trkpt><trkpt lat="53.8318883" lon="-2.1586417"><ele>315.0</ele><time>2026-05-03T14:23:33.782Z</time></trkpt><trkpt lat="53.8317833" lon="-2.158575"><ele>315.0</ele><time>2026-05-03T14:23:35.785Z</time></trkpt><trkpt lat="53.8316767" lon="-2.1584883"><ele>315.0</ele><time>2026-05-03T14:23:37.783Z</time></trkpt><trkpt lat="53.8316033" lon="-2.158435"><ele>315.0</ele><time>2026-05-03T14:23:38.782Z</time></trkpt><trkpt lat="53.8315117" lon="-2.1583667"><ele>315.0</ele><time>2026-05-03T14:23:39.782Z</time></trkpt><trkpt lat="53.8314033" lon="-2.15829"><ele>315.0</ele><time>2026-05-03T14:23:40.786Z</time></trkpt><trkpt lat="53.831275" lon="-2.158205"><ele>315.0</ele><time>2026-05-03T14:23:41.786Z</time></trkpt><trkpt lat="53.8311183" lon="-2.1581083"><ele>310.6666666666667</ele><time>2026-05-03T14:23:42.786Z</time></trkpt><trkpt lat="53.83094" lon="-2.158005"><ele>306.33333333333337</ele><time>2026-05-03T14:23:43.783Z</time></trkpt><trkpt lat="53.8307533" lon="-2.157885"><ele>302.0</ele><time>2026-05-03T14:23:44.786Z</time></trkpt><trkpt lat="53.8305567" lon="-2.1577533"><ele>302.0</ele><time>2026-05-03T14:23:45.782Z</time></trkpt><trkpt lat="53.8303583" lon="-2.1576167"><ele>302.0</ele><time>2026-05-03T14:23:46.783Z</time></trkpt><trkpt lat="53.8301633" lon="-2.1574833"><ele>302.0</ele><time>2026-05-03T14:23:47.783Z</time></trkpt><trkpt lat="53.8299683" lon="-2.1573533"><ele>299.0</ele><time>2026-05-03T14:23:48.783Z</time></trkpt><trkpt lat="53.8297733" lon="-2.1572233"><ele>296.0</ele><time>2026-05-03T14:23:49.783Z</time></trkpt><trkpt lat="53.82958" lon="-2.1570867"><ele>293.0</ele><time>2026-05-03T14:23:50.783Z</time></trkpt><trkpt lat="53.8293867" lon="-2.1569517"><ele>292.0</ele><time>2026-05-03T14:23:51.783Z</time></trkpt><trkpt lat="53.829205" lon="-2.15682"><ele>291.0</ele><time>2026-05-03T14:23:52.782Z</time></trkpt><trkpt lat="53.8290267" lon="-2.15669"><ele>290.0</ele><time>2026-05-03T14:23:53.782Z</time></trkpt><trkpt lat="53.8288517" lon="-2.1565683"><ele>290.25</ele><time>2026-05-03T14:23:54.785Z</time></trkpt><trkpt lat="53.8286933" lon="-2.15646"><ele>290.5</ele><time>2026-05-03T14:23:55.785Z</time></trkpt><trkpt lat="53.8285567" lon="-2.156365"><ele>290.75</ele><time>2026-05-03T14:23:56.785Z</time></trkpt><trkpt lat="53.8284417" lon="-2.156275"><ele>291.0</ele><time>2026-05-03T14:23:57.783Z</time></trkpt><trkpt lat="53.8283417" lon="-2.1561767"><ele>291.25</ele><time>2026-05-03T14:23:58.784Z</time></trkpt><trkpt lat="53.8282483" lon="-2.1560617"><ele>291.5</ele><time>2026-05-03T14:23:59.783Z</time></trkpt><trkpt lat="53.8281533" lon="-2.1559183"><ele>291.75</ele><time>2026-05-03T14:24:00.783Z</time></trkpt><trkpt lat="53.828055" lon="-2.1557433"><ele>292.0</ele><time>2026-05-03T14:24:01.784Z</time></trkpt><trkpt lat="53.8279517" lon="-2.15555"><ele>292.3333333333333</ele><time>2026-05-03T14:24:02.783Z</time></trkpt><trkpt lat="53.8278433" lon="-2.15535"><ele>292.6666666666667</ele><time>2026-05-03T14:24:03.783Z</time></trkpt><trkpt lat="53.827735" lon="-2.155155"><ele>293.0</ele><time>2026-05-03T14:24:04.782Z</time></trkpt><trkpt lat="53.82763" lon="-2.1549617"><ele>290.33333333333337</ele><time>2026-05-03T14:24:05.782Z</time></trkpt><trkpt lat="53.8275233" lon="-2.15476"><ele>287.6666666666667</ele><time>2026-05-03T14:24:06.784Z</time></trkpt><trkpt lat="53.8274133" lon="-2.1545467"><ele>285.0</ele><time>2026-05-03T14:24:07.784Z</time></trkpt><trkpt lat="53.8273" lon="-2.1543283"><ele>285.0</ele><time>2026-05-03T14:24:08.784Z</time></trkpt><trkpt lat="53.82719" lon="-2.1541233"><ele>285.0</ele><time>2026-05-03T14:24:09.783Z</time></trkpt><trkpt lat="53.82709" lon="-2.1539417"><ele>285.0</ele><time>2026-05-03T14:24:10.783Z</time></trkpt><trkpt lat="53.8269933" lon="-2.15379"><ele>285.0</ele><time>2026-05-03T14:24:11.783Z</time></trkpt><trkpt lat="53.8269017" lon="-2.1536733"><ele>284.75</ele><time>2026-05-03T14:24:12.783Z</time></trkpt><trkpt lat="53.8268033" lon="-2.15361"><ele>284.5</ele><time>2026-05-03T14:24:13.783Z</time></trkpt><trkpt lat="53.8266933" lon="-2.15357"><ele>284.25</ele><time>2026-05-03T14:24:14.784Z</time></trkpt><trkpt lat="53.8265817" lon="-2.153545"><ele>284.0</ele><time>2026-05-03T14:24:15.783Z</time></trkpt><trkpt lat="53.8264567" lon="-2.1535233"><ele>284.0</ele><time>2026-05-03T14:24:16.784Z</time></trkpt><trkpt lat="53.826325" lon="-2.153495"><ele>284.0</ele><time>2026-05-03T14:24:17.784Z</time></trkpt><trkpt lat="53.826185" lon="-2.1534633"><ele>284.0</ele><time>2026-05-03T14:24:18.783Z</time></trkpt><trkpt lat="53.826035" lon="-2.1534233"><ele>284.0</ele><time>2026-05-03T14:24:19.783Z</time></trkpt><trkpt lat="53.825875" lon="-2.1533817"><ele>286.33333333333337</ele><time>2026-05-03T14:24:20.784Z</time></trkpt><trkpt lat="53.8257067" lon="-2.1533383"><ele>288.6666666666667</ele><time>2026-05-03T14:24:21.786Z</time></trkpt><trkpt lat="53.8255433" lon="-2.1532933"><ele>291.0</ele><time>2026-05-03T14:24:22.782Z</time></trkpt><trkpt lat="53.8253917" lon="-2.1532533"><ele>291.0</ele><time>2026-05-03T14:24:23.784Z</time></trkpt><trkpt lat="53.82524" lon="-2.15322"><ele>291.0</ele><time>2026-05-03T14:24:24.786Z</time></trkpt><trkpt lat="53.8250933" lon="-2.1531883"><ele>291.0</ele><time>2026-05-03T14:24:25.786Z</time></trkpt><trkpt lat="53.8249633" lon="-2.1531567"><ele>291.0</ele><time>2026-05-03T14:24:26.787Z</time></trkpt><trkpt lat="53.82485" lon="-2.1531333"><ele>291.6</ele><time>2026-05-03T14:24:27.784Z</time></trkpt><trkpt lat="53.8247583" lon="-2.1530883"><ele>292.20000000000005</ele><time>2026-05-03T14:24:28.783Z</time></trkpt><trkpt lat="53.8246783" lon="-2.1530067"><ele>292.79999999999995</ele><time>2026-05-03T14:24:29.786Z</time></trkpt><trkpt lat="53.8246033" lon="-2.1528833"><ele>293.4</ele><time>2026-05-03T14:24:30.784Z</time></trkpt><trkpt lat="53.8245317" lon="-2.1527"><ele>294.0</ele><time>2026-05-03T14:24:31.784Z</time></trkpt><trkpt lat="53.82447" lon="-2.152485"><ele>293.6666666666667</ele><time>2026-05-03T14:24:32.784Z</time></trkpt><trkpt lat="53.82441" lon="-2.152255"><ele>293.33333333333337</ele><time>2026-05-03T14:24:33.784Z</time></trkpt><trkpt lat="53.824345" lon="-2.1520117"><ele>293.0</ele><time>2026-05-03T14:24:34.785Z</time></trkpt><trkpt lat="53.8242767" lon="-2.1517883"><ele>293.0</ele><time>2026-05-03T14:24:35.783Z</time></trkpt><trkpt lat="53.8242133" lon="-2.1515967"><ele>293.0</ele><time>2026-05-03T14:24:36.783Z</time></trkpt><trkpt lat="53.824145" lon="-2.1514217"><ele>293.0</ele><time>2026-05-03T14:24:37.787Z</time></trkpt><trkpt lat="53.8240817" lon="-2.1512533"><ele>293.0</ele><time>2026-05-03T14:24:38.783Z</time></trkpt><trkpt lat="53.8240233" lon="-2.1511"><ele>293.0</ele><time>2026-05-03T14:24:39.784Z</time></trkpt><trkpt lat="53.8239683" lon="-2.1509633"><ele>293.0</ele><time>2026-05-03T14:24:40.783Z</time></trkpt><trkpt lat="53.823925" lon="-2.1508233"><ele>293.0</ele><time>2026-05-03T14:24:41.785Z</time></trkpt><trkpt lat="53.8239" lon="-2.1506667"><ele>293.0</ele><time>2026-05-03T14:24:42.784Z</time></trkpt><trkpt lat="53.8238967" lon="-2.150475"><ele>293.0</ele><time>2026-05-03T14:24:43.785Z</time></trkpt><trkpt lat="53.8238983" lon="-2.1502533"><ele>293.0</ele><time>2026-05-03T14:24:44.783Z</time></trkpt><trkpt lat="53.8239067" lon="-2.15001"><ele>293.0</ele><time>2026-05-03T14:24:45.784Z</time></trkpt><trkpt lat="53.8239133" lon="-2.14978"><ele>293.0</ele><time>2026-05-03T14:24:46.783Z</time></trkpt><trkpt lat="53.8239133" lon="-2.14956"><ele>293.0</ele><time>2026-05-03T14:24:47.784Z</time></trkpt><trkpt lat="53.8239" lon="-2.1493567"><ele>293.0</ele><time>2026-05-03T14:24:48.784Z</time></trkpt><trkpt lat="53.8238767" lon="-2.149145"><ele>293.0</ele><time>2026-05-03T14:24:49.785Z</time></trkpt><trkpt lat="53.8238383" lon="-2.1489417"><ele>293.0</ele><time>2026-05-03T14:24:50.783Z</time></trkpt><trkpt lat="53.8237733" lon="-2.1487533"><ele>293.0</ele><time>2026-05-03T14:24:51.783Z</time></trkpt><trkpt lat="53.8236967" lon="-2.1485783"><ele>292.75</ele><time>2026-05-03T14:24:52.784Z</time></trkpt><trkpt lat="53.82359" lon="-2.1484417"><ele>292.5</ele><time>2026-05-03T14:24:53.785Z</time></trkpt><trkpt lat="53.8234733" lon="-2.14834"><ele>292.25</ele><time>2026-05-03T14:24:54.784Z</time></trkpt><trkpt lat="53.8233383" lon="-2.1482883"><ele>292.0</ele><time>2026-05-03T14:24:55.784Z</time></trkpt><trkpt lat="53.8231933" lon="-2.148295"><ele>292.0</ele><time>2026-05-03T14:24:56.786Z</time></trkpt><trkpt lat="53.8230467" lon="-2.1483633"><ele>292.0</ele><time>2026-05-03T14:24:57.784Z</time></trkpt><trkpt lat="53.8228967" lon="-2.14848"><ele>292.0</ele><time>2026-05-03T14:24:58.783Z</time></trkpt><trkpt lat="53.8227683" lon="-2.1486167"><ele>291.66666666666663</ele><time>2026-05-03T14:24:59.785Z</time></trkpt><trkpt lat="53.822625" lon="-2.1487517"><ele>291.3333333333333</ele><time>2026-05-03T14:25:00.787Z</time></trkpt><trkpt lat="53.82246" lon="-2.1488583"><ele>291.0</ele><time>2026-05-03T14:25:01.785Z</time></trkpt><trkpt lat="53.8222783" lon="-2.14892"><ele>291.0</ele><time>2026-05-03T14:25:02.784Z</time></trkpt><trkpt lat="53.8220833" lon="-2.148955"><ele>291.0</ele><time>2026-05-03T14:25:03.784Z</time></trkpt><trkpt lat="53.8218833" lon="-2.1489817"><ele>291.0</ele><time>2026-05-03T14:25:04.783Z</time></trkpt><trkpt lat="53.8216817" lon="-2.14901"><ele>291.0</ele><time>2026-05-03T14:25:05.783Z</time></trkpt><trkpt lat="53.821485" lon="-2.1490317"><ele>291.0</ele><time>2026-05-03T14:25:06.783Z</time></trkpt><trkpt lat="53.8212933" lon="-2.14905"><ele>291.0</ele><time>2026-05-03T14:25:07.784Z</time></trkpt><trkpt lat="53.8211067" lon="-2.14907"><ele>291.3333333333333</ele><time>2026-05-03T14:25:08.784Z</time></trkpt><trkpt lat="53.82093" lon="-2.1490867"><ele>291.66666666666663</ele><time>2026-05-03T14:25:09.784Z</time></trkpt><trkpt lat="53.8207533" lon="-2.149095"><ele>292.0</ele><time>2026-05-03T14:25:10.784Z</time></trkpt><trkpt lat="53.8205817" lon="-2.1491067"><ele>292.0</ele><time>2026-05-03T14:25:11.783Z</time></trkpt><trkpt lat="53.8204133" lon="-2.149105"><ele>292.0</ele><time>2026-05-03T14:25:12.784Z</time></trkpt><trkpt lat="53.820255" lon="-2.14909"><ele>292.0</ele><time>2026-05-03T14:25:13.784Z</time></trkpt><trkpt lat="53.8201117" lon="-2.149035"><ele>292.25</ele><time>2026-05-03T14:25:14.784Z</time></trkpt><trkpt lat="53.8199883" lon="-2.1489433"><ele>292.5</ele><time>2026-05-03T14:25:15.786Z</time></trkpt><trkpt lat="53.8198883" lon="-2.1488133"><ele>292.75</ele><time>2026-05-03T14:25:16.786Z</time></trkpt><trkpt lat="53.8198167" lon="-2.1486717"><ele>293.0</ele><time>2026-05-03T14:25:17.786Z</time></trkpt><trkpt lat="53.8197533" lon="-2.1485483"><ele>293.0</ele><time>2026-05-03T14:25:18.785Z</time></trkpt><trkpt lat="53.8197033" lon="-2.1484633"><ele>293.0</ele><time>2026-05-03T14:25:19.784Z</time></trkpt><trkpt lat="53.81958" lon="-2.1484283"><ele>293.0</ele><time>2026-05-03T14:25:21.784Z</time></trkpt><trkpt lat="53.8194967" lon="-2.1484517"><ele>293.0</ele><time>2026-05-03T14:25:22.785Z</time></trkpt><trkpt lat="53.8194067" lon="-2.1484783"><ele>293.0</ele><time>2026-05-03T14:25:23.786Z</time></trkpt><trkpt lat="53.8193" lon="-2.1485167"><ele>294.6666666666667</ele><time>2026-05-03T14:25:24.786Z</time></trkpt><trkpt lat="53.819125" lon="-2.1485767"><ele>296.3333333333333</ele><time>2026-05-03T14:25:25.785Z</time></trkpt><trkpt lat="53.8189717" lon="-2.1486317"><ele>298.0</ele><time>2026-05-03T14:25:26.785Z</time></trkpt><trkpt lat="53.8187933" lon="-2.1487217"><ele>298.0</ele><time>2026-05-03T14:25:27.785Z</time></trkpt><trkpt lat="53.818645" lon="-2.148765"><ele>298.0</ele><time>2026-05-03T14:25:28.785Z</time></trkpt><trkpt lat="53.8185183" lon="-2.1487733"><ele>298.0</ele><time>2026-05-03T14:25:29.786Z</time></trkpt><trkpt lat="53.81837" lon="-2.148745"><ele>298.0</ele><time>2026-05-03T14:25:30.785Z</time></trkpt><trkpt lat="53.8182067" lon="-2.1487"><ele>299.3333333333333</ele><time>2026-05-03T14:25:31.785Z</time></trkpt><trkpt lat="53.8180317" lon="-2.1486433"><ele>300.6666666666667</ele><time>2026-05-03T14:25:32.785Z</time></trkpt><trkpt lat="53.8178533" lon="-2.14858"><ele>302.0</ele><time>2026-05-03T14:25:33.785Z</time></trkpt><trkpt lat="53.81768" lon="-2.1485067"><ele>304.0</ele><time>2026-05-03T14:25:34.787Z</time></trkpt><trkpt lat="53.8175067" lon="-2.1484283"><ele>306.0</ele><time>2026-05-03T14:25:35.785Z</time></trkpt><trkpt lat="53.817335" lon="-2.148345"><ele>308.0</ele><time>2026-05-03T14:25:36.786Z</time></trkpt><trkpt lat="53.81716" lon="-2.1482533"><ele>307.6666666666667</ele><time>2026-05-03T14:25:37.784Z</time></trkpt><trkpt lat="53.8169767" lon="-2.1481583"><ele>307.3333333333333</ele><time>2026-05-03T14:25:38.785Z</time></trkpt><trkpt lat="53.816795" lon="-2.1480583"><ele>307.0</ele><time>2026-05-03T14:25:39.785Z</time></trkpt><trkpt lat="53.8166267" lon="-2.14796"><ele>309.3333333333333</ele><time>2026-05-03T14:25:40.786Z</time></trkpt><trkpt lat="53.8164633" lon="-2.1478733"><ele>311.6666666666667</ele><time>2026-05-03T14:25:41.783Z</time></trkpt><trkpt lat="53.8162967" lon="-2.1477883"><ele>314.0</ele><time>2026-05-03T14:25:42.785Z</time></trkpt><trkpt lat="53.8161233" lon="-2.1477017"><ele>316.33333333333337</ele><time>2026-05-03T14:25:43.786Z</time></trkpt><trkpt lat="53.815935" lon="-2.1476183"><ele>318.6666666666667</ele><time>2026-05-03T14:25:44.788Z</time></trkpt><trkpt lat="53.8157467" lon="-2.14753"><ele>321.0</ele><time>2026-05-03T14:25:45.784Z</time></trkpt><trkpt lat="53.8155733" lon="-2.147445"><ele>320.0</ele><time>2026-05-03T14:25:46.787Z</time></trkpt><trkpt lat="53.81541" lon="-2.1473633"><ele>319.0</ele><time>2026-05-03T14:25:47.787Z</time></trkpt><trkpt lat="53.815255" lon="-2.1472783"><ele>318.0</ele><time>2026-05-03T14:25:48.784Z</time></trkpt><trkpt lat="53.8150983" lon="-2.14717"><ele>320.3333333333333</ele><time>2026-05-03T14:25:49.784Z</time></trkpt><trkpt lat="53.81494" lon="-2.14703"><ele>322.66666666666663</ele><time>2026-05-03T14:25:50.787Z</time></trkpt><trkpt lat="53.81477" lon="-2.1468767"><ele>325.0</ele><time>2026-05-03T14:25:51.787Z</time></trkpt><trkpt lat="53.8146033" lon="-2.1467283"><ele>325.0</ele><time>2026-05-03T14:25:52.787Z</time></trkpt><trkpt lat="53.8144633" lon="-2.1465967"><ele>325.0</ele><time>2026-05-03T14:25:53.786Z</time></trkpt><trkpt lat="53.814345" lon="-2.14648"><ele>325.0</ele><time>2026-05-03T14:25:54.786Z</time></trkpt><trkpt lat="53.8142383" lon="-2.1463783"><ele>325.0</ele><time>2026-05-03T14:25:55.783Z</time></trkpt><trkpt lat="53.8141517" lon="-2.1462933"><ele>325.8</ele><time>2026-05-03T14:25:56.786Z</time></trkpt><trkpt lat="53.8140883" lon="-2.146235"><ele>326.6</ele><time>2026-05-03T14:25:57.787Z</time></trkpt><trkpt lat="53.8140083" lon="-2.1461617"><ele>327.4</ele><time>2026-05-03T14:25:59.787Z</time></trkpt><trkpt lat="53.8139667" lon="-2.1460683"><ele>328.2</ele><time>2026-05-03T14:26:04.787Z</time></trkpt><trkpt lat="53.8139267" lon="-2.1459267"><ele>329.0</ele><time>2026-05-03T14:26:06.783Z</time></trkpt><trkpt lat="53.81388" lon="-2.1457167"><ele>328.6666666666667</ele><time>2026-05-03T14:26:08.785Z</time></trkpt><trkpt lat="53.813855" lon="-2.14559"><ele>328.33333333333337</ele><time>2026-05-03T14:26:09.783Z</time></trkpt><trkpt lat="53.8138283" lon="-2.145465"><ele>328.0</ele><time>2026-05-03T14:26:10.784Z</time></trkpt><trkpt lat="53.8138017" lon="-2.1453367"><ele>327.6666666666667</ele><time>2026-05-03T14:26:11.784Z</time></trkpt><trkpt lat="53.8137767" lon="-2.145215"><ele>327.3333333333333</ele><time>2026-05-03T14:26:12.784Z</time></trkpt><trkpt lat="53.8137533" lon="-2.1450983"><ele>327.0</ele><time>2026-05-03T14:26:13.784Z</time></trkpt><trkpt lat="53.8137317" lon="-2.14499"><ele>327.0</ele><time>2026-05-03T14:26:14.784Z</time></trkpt><trkpt lat="53.8137133" lon="-2.1448833"><ele>327.0</ele><time>2026-05-03T14:26:15.784Z</time></trkpt><trkpt lat="53.813695" lon="-2.14478"><ele>327.0</ele><time>2026-05-03T14:26:16.788Z</time></trkpt><trkpt lat="53.8136733" lon="-2.1446733"><ele>327.0</ele><time>2026-05-03T14:26:17.783Z</time></trkpt><trkpt lat="53.8136533" lon="-2.1445467"><ele>327.0</ele><time>2026-05-03T14:26:18.783Z</time></trkpt><trkpt lat="53.8136333" lon="-2.1443933"><ele>327.0</ele><time>2026-05-03T14:26:19.787Z</time></trkpt><trkpt lat="53.813615" lon="-2.1442383"><ele>326.8333333333333</ele><time>2026-05-03T14:26:20.785Z</time></trkpt><trkpt lat="53.8136" lon="-2.1440933"><ele>326.6666666666667</ele><time>2026-05-03T14:26:21.784Z</time></trkpt><trkpt lat="53.8135833" lon="-2.1439717"><ele>326.5</ele><time>2026-05-03T14:26:22.785Z</time></trkpt><trkpt lat="53.8135667" lon="-2.143855"><ele>326.33333333333337</ele><time>2026-05-03T14:26:23.784Z</time></trkpt><trkpt lat="53.8135217" lon="-2.1437017"><ele>326.1666666666667</ele><time>2026-05-03T14:26:25.784Z</time></trkpt><trkpt lat="53.813455" lon="-2.1436067"><ele>326.0</ele><time>2026-05-03T14:26:27.784Z</time></trkpt><trkpt lat="53.81334" lon="-2.14354"><ele>325.8</ele><time>2026-05-03T14:26:29.785Z</time></trkpt><trkpt lat="53.8132567" lon="-2.1435483"><ele>325.6</ele><time>2026-05-03T14:26:30.787Z</time></trkpt><trkpt lat="53.813155" lon="-2.1436083"><ele>325.4</ele><time>2026-05-03T14:26:31.784Z</time></trkpt><trkpt lat="53.8130533" lon="-2.1436667"><ele>325.2</ele><time>2026-05-03T14:26:32.784Z</time></trkpt><trkpt lat="53.812955" lon="-2.1437183"><ele>325.0</ele><time>2026-05-03T14:26:33.783Z</time></trkpt><trkpt lat="53.8128633" lon="-2.1437683"><ele>325.0</ele><time>2026-05-03T14:26:34.783Z</time></trkpt><trkpt lat="53.8127817" lon="-2.1438133"><ele>325.0</ele><time>2026-05-03T14:26:35.783Z</time></trkpt><trkpt lat="53.8127067" lon="-2.1438433"><ele>325.0</ele><time>2026-05-03T14:26:36.784Z</time></trkpt><trkpt lat="53.81264" lon="-2.143835"><ele>325.0</ele><time>2026-05-03T14:26:37.784Z</time></trkpt><trkpt lat="53.8125733" lon="-2.14379"><ele>325.0</ele><time>2026-05-03T14:26:38.784Z</time></trkpt><trkpt lat="53.81251" lon="-2.143705"><ele>325.0</ele><time>2026-05-03T14:26:39.782Z</time></trkpt><trkpt lat="53.8124417" lon="-2.1435833"><ele>324.66666666666663</ele><time>2026-05-03T14:26:40.784Z</time></trkpt><trkpt lat="53.8123783" lon="-2.1434667"><ele>324.3333333333333</ele><time>2026-05-03T14:26:41.784Z</time></trkpt><trkpt lat="53.81232" lon="-2.1433633"><ele>324.0</ele><time>2026-05-03T14:26:42.784Z</time></trkpt><trkpt lat="53.8122683" lon="-2.1432767"><ele>323.6666666666667</ele><time>2026-05-03T14:26:43.783Z</time></trkpt><trkpt lat="53.8122167" lon="-2.143195"><ele>323.33333333333337</ele><time>2026-05-03T14:26:44.784Z</time></trkpt><trkpt lat="53.812165" lon="-2.1431117"><ele>323.0</ele><time>2026-05-03T14:26:45.784Z</time></trkpt><trkpt lat="53.81211" lon="-2.1430333"><ele>323.0</ele><time>2026-05-03T14:26:46.783Z</time></trkpt><trkpt lat="53.8120433" lon="-2.1429633"><ele>323.0</ele><time>2026-05-03T14:26:47.785Z</time></trkpt><trkpt lat="53.8119617" lon="-2.1429133"><ele>323.0</ele><time>2026-05-03T14:26:48.784Z</time></trkpt><trkpt lat="53.8118833" lon="-2.1428567"><ele>323.0</ele><time>2026-05-03T14:26:49.785Z</time></trkpt><trkpt lat="53.8118033" lon="-2.1428033"><ele>323.0</ele><time>2026-05-03T14:26:50.784Z</time></trkpt><trkpt lat="53.8117233" lon="-2.142765"><ele>323.0</ele><time>2026-05-03T14:26:51.785Z</time></trkpt><trkpt lat="53.8116417" lon="-2.1427433"><ele>318.75</ele><time>2026-05-03T14:26:52.783Z</time></trkpt><trkpt lat="53.8115317" lon="-2.14274"><ele>314.5</ele><time>2026-05-03T14:26:53.783Z</time></trkpt><trkpt lat="53.8114083" lon="-2.1427383"><ele>310.25</ele><time>2026-05-03T14:26:54.783Z</time></trkpt><trkpt lat="53.8112733" lon="-2.1427067"><ele>306.0</ele><time>2026-05-03T14:26:55.783Z</time></trkpt><trkpt lat="53.8111383" lon="-2.1426483"><ele>306.0</ele><time>2026-05-03T14:26:56.787Z</time></trkpt><trkpt lat="53.8109967" lon="-2.1425717"><ele>306.0</ele><time>2026-05-03T14:26:57.782Z</time></trkpt><trkpt lat="53.8108633" lon="-2.1424767"><ele>306.0</ele><time>2026-05-03T14:26:58.783Z</time></trkpt><trkpt lat="53.81074" lon="-2.142375"><ele>306.0</ele><time>2026-05-03T14:26:59.782Z</time></trkpt><trkpt lat="53.810635" lon="-2.14231"><ele>305.5</ele><time>2026-05-03T14:27:00.786Z</time></trkpt><trkpt lat="53.810555" lon="-2.1422583"><ele>305.0</ele><time>2026-05-03T14:27:01.783Z</time></trkpt><trkpt lat="53.810475" lon="-2.1422367"><ele>304.5</ele><time>2026-05-03T14:27:02.783Z</time></trkpt><trkpt lat="53.810395" lon="-2.1422333"><ele>304.0</ele><time>2026-05-03T14:27:03.785Z</time></trkpt><trkpt lat="53.8103083" lon="-2.1422483"><ele>303.5</ele><time>2026-05-03T14:27:04.785Z</time></trkpt><trkpt lat="53.8102083" lon="-2.142285"><ele>303.0</ele><time>2026-05-03T14:27:05.784Z</time></trkpt><trkpt lat="53.8100883" lon="-2.1423317"><ele>302.0</ele><time>2026-05-03T14:27:06.783Z</time></trkpt><trkpt lat="53.8099733" lon="-2.1423667"><ele>301.0</ele><time>2026-05-03T14:27:07.783Z</time></trkpt><trkpt lat="53.809865" lon="-2.1424033"><ele>300.0</ele><time>2026-05-03T14:27:08.784Z</time></trkpt><trkpt lat="53.80976" lon="-2.1424333"><ele>299.0</ele><time>2026-05-03T14:27:09.783Z</time></trkpt><trkpt lat="53.80967" lon="-2.1424483"><ele>298.0</ele><time>2026-05-03T14:27:10.783Z</time></trkpt><trkpt lat="53.8095867" lon="-2.14246"><ele>296.66666666666663</ele><time>2026-05-03T14:27:11.784Z</time></trkpt><trkpt lat="53.8095067" lon="-2.1424683"><ele>295.3333333333333</ele><time>2026-05-03T14:27:12.784Z</time></trkpt><trkpt lat="53.8094333" lon="-2.1424733"><ele>294.0</ele><time>2026-05-03T14:27:13.785Z</time></trkpt><trkpt lat="53.8093633" lon="-2.1424783"><ele>292.6666666666667</ele><time>2026-05-03T14:27:14.784Z</time></trkpt><trkpt lat="53.8092917" lon="-2.1424783"><ele>291.33333333333337</ele><time>2026-05-03T14:27:15.782Z</time></trkpt><trkpt lat="53.809225" lon="-2.14246"><ele>290.0</ele><time>2026-05-03T14:27:16.784Z</time></trkpt><trkpt lat="53.8091067" lon="-2.14237"><ele>290.0</ele><time>2026-05-03T14:27:18.783Z</time></trkpt><trkpt lat="53.8090417" lon="-2.1423017"><ele>290.0</ele><time>2026-05-03T14:27:19.785Z</time></trkpt><trkpt lat="53.8089733" lon="-2.142225"><ele>290.0</ele><time>2026-05-03T14:27:20.784Z</time></trkpt><trkpt lat="53.8088983" lon="-2.14216"><ele>290.0</ele><time>2026-05-03T14:27:21.784Z</time></trkpt><trkpt lat="53.8088167" lon="-2.1421183"><ele>290.0</ele><time>2026-05-03T14:27:22.783Z</time></trkpt><trkpt lat="53.80873" lon="-2.1420917"><ele>290.0</ele><time>2026-05-03T14:27:23.784Z</time></trkpt><trkpt lat="53.808655" lon="-2.14207"><ele>290.0</ele><time>2026-05-03T14:27:24.782Z</time></trkpt><trkpt lat="53.808585" lon="-2.142065"><ele>290.0</ele><time>2026-05-03T14:27:25.784Z</time></trkpt><trkpt lat="53.808475" lon="-2.142075"><ele>290.0</ele><time>2026-05-03T14:27:27.783Z</time></trkpt><trkpt lat="53.8083967" lon="-2.1420883"><ele>290.0</ele><time>2026-05-03T14:27:29.784Z</time></trkpt><trkpt lat="53.8082883" lon="-2.1421033"><ele>290.0</ele><time>2026-05-03T14:27:31.784Z</time></trkpt><trkpt lat="53.8082167" lon="-2.1421133"><ele>290.0</ele><time>2026-05-03T14:27:32.783Z</time></trkpt><trkpt lat="53.80812" lon="-2.1421283"><ele>288.2</ele><time>2026-05-03T14:27:33.784Z</time></trkpt><trkpt lat="53.8080167" lon="-2.142135"><ele>286.4</ele><time>2026-05-03T14:27:34.784Z</time></trkpt><trkpt lat="53.807915" lon="-2.1421183"><ele>284.6</ele><time>2026-05-03T14:27:35.783Z</time></trkpt><trkpt lat="53.80783" lon="-2.1420683"><ele>282.8</ele><time>2026-05-03T14:27:36.787Z</time></trkpt><trkpt lat="53.807755" lon="-2.14199"><ele>281.0</ele><time>2026-05-03T14:27:37.784Z</time></trkpt><trkpt lat="53.807685" lon="-2.1418817"><ele>284.25</ele><time>2026-05-03T14:27:38.784Z</time></trkpt><trkpt lat="53.8076117" lon="-2.1417367"><ele>287.5</ele><time>2026-05-03T14:27:39.783Z</time></trkpt><trkpt lat="53.80754" lon="-2.1415633"><ele>290.75</ele><time>2026-05-03T14:27:40.785Z</time></trkpt><trkpt lat="53.8074733" lon="-2.141385"><ele>294.0</ele><time>2026-05-03T14:27:41.783Z</time></trkpt><trkpt lat="53.807405" lon="-2.1412233"><ele>294.0</ele><time>2026-05-03T14:27:42.784Z</time></trkpt><trkpt lat="53.80733" lon="-2.1410817"><ele>294.0</ele><time>2026-05-03T14:27:43.784Z</time></trkpt><trkpt lat="53.8072483" lon="-2.1409583"><ele>294.0</ele><time>2026-05-03T14:27:44.783Z</time></trkpt><trkpt lat="53.8071617" lon="-2.14085"><ele>294.0</ele><time>2026-05-03T14:27:45.783Z</time></trkpt><trkpt lat="53.8070717" lon="-2.1407583"><ele>294.0</ele><time>2026-05-03T14:27:46.787Z</time></trkpt><trkpt lat="53.8069717" lon="-2.1406767"><ele>292.0</ele><time>2026-05-03T14:27:47.783Z</time></trkpt><trkpt lat="53.80686" lon="-2.140605"><ele>290.0</ele><time>2026-05-03T14:27:48.783Z</time></trkpt><trkpt lat="53.8067383" lon="-2.140545"><ele>288.0</ele><time>2026-05-03T14:27:49.784Z</time></trkpt><trkpt lat="53.8066117" lon="-2.140475"><ele>286.0</ele><time>2026-05-03T14:27:50.784Z</time></trkpt><trkpt lat="53.8064783" lon="-2.1403867"><ele>292.66666666666663</ele><time>2026-05-03T14:27:51.784Z</time></trkpt><trkpt lat="53.806335" lon="-2.1402717"><ele>299.3333333333333</ele><time>2026-05-03T14:27:52.782Z</time></trkpt><trkpt lat="53.8061867" lon="-2.140135"><ele>306.0</ele><time>2026-05-03T14:27:53.783Z</time></trkpt><trkpt lat="53.8060367" lon="-2.1399733"><ele>310.0</ele><time>2026-05-03T14:27:54.785Z</time></trkpt><trkpt lat="53.8058917" lon="-2.1398017"><ele>314.0</ele><time>2026-05-03T14:27:55.785Z</time></trkpt><trkpt lat="53.80576" lon="-2.139635"><ele>318.0</ele><time>2026-05-03T14:27:56.785Z</time></trkpt><trkpt lat="53.805655" lon="-2.1394683"><ele>318.0</ele><time>2026-05-03T14:27:57.785Z</time></trkpt><trkpt lat="53.80557" lon="-2.1393083"><ele>318.0</ele><time>2026-05-03T14:27:58.784Z</time></trkpt><trkpt lat="53.8055" lon="-2.139155"><ele>318.0</ele><time>2026-05-03T14:27:59.783Z</time></trkpt><trkpt lat="53.8054367" lon="-2.1390217"><ele>318.0</ele><time>2026-05-03T14:28:00.784Z</time></trkpt><trkpt lat="53.8053783" lon="-2.138905"><ele>318.0</ele><time>2026-05-03T14:28:01.784Z</time></trkpt><trkpt lat="53.8053317" lon="-2.1387733"><ele>316.25</ele><time>2026-05-03T14:28:02.784Z</time></trkpt><trkpt lat="53.80529" lon="-2.1386017"><ele>314.5</ele><time>2026-05-03T14:28:03.784Z</time></trkpt><trkpt lat="53.80526" lon="-2.13841"><ele>312.75</ele><time>2026-05-03T14:28:04.784Z</time></trkpt><trkpt lat="53.8052483" lon="-2.138195"><ele>311.0</ele><time>2026-05-03T14:28:05.785Z</time></trkpt><trkpt lat="53.8052467" lon="-2.1379983"><ele>310.0</ele><time>2026-05-03T14:28:06.785Z</time></trkpt><trkpt lat="53.8052367" lon="-2.1378283"><ele>309.0</ele><time>2026-05-03T14:28:07.783Z</time></trkpt><trkpt lat="53.8052" lon="-2.137665"><ele>308.0</ele><time>2026-05-03T14:28:08.783Z</time></trkpt><trkpt lat="53.8051367" lon="-2.1374933"><ele>307.0</ele><time>2026-05-03T14:28:09.783Z</time></trkpt><trkpt lat="53.80505" lon="-2.1373067"><ele>313.66666666666663</ele><time>2026-05-03T14:28:10.783Z</time></trkpt><trkpt lat="53.80495" lon="-2.1371117"><ele>320.3333333333333</ele><time>2026-05-03T14:28:11.784Z</time></trkpt><trkpt lat="53.8048333" lon="-2.13694"><ele>327.0</ele><time>2026-05-03T14:28:12.787Z</time></trkpt><trkpt lat="53.8046967" lon="-2.1367933"><ele>327.0</ele><time>2026-05-03T14:28:13.784Z</time></trkpt><trkpt lat="53.8045733" lon="-2.136655"><ele>327.0</ele><time>2026-05-03T14:28:14.786Z</time></trkpt><trkpt lat="53.8044583" lon="-2.1365117"><ele>327.0</ele><time>2026-05-03T14:28:15.783Z</time></trkpt><trkpt lat="53.804355" lon="-2.136345"><ele>327.0</ele><time>2026-05-03T14:28:16.784Z</time></trkpt><trkpt lat="53.80425" lon="-2.1361683"><ele>329.6666666666667</ele><time>2026-05-03T14:28:17.784Z</time></trkpt><trkpt lat="53.804145" lon="-2.1359733"><ele>332.33333333333337</ele><time>2026-05-03T14:28:18.783Z</time></trkpt><trkpt lat="53.8040333" lon="-2.1357667"><ele>335.0</ele><time>2026-05-03T14:28:19.784Z</time></trkpt><trkpt lat="53.803915" lon="-2.1355667"><ele>335.0</ele><time>2026-05-03T14:28:20.783Z</time></trkpt><trkpt lat="53.8037967" lon="-2.1353917"><ele>335.0</ele><time>2026-05-03T14:28:21.784Z</time></trkpt><trkpt lat="53.80368" lon="-2.13525"><ele>335.0</ele><time>2026-05-03T14:28:22.785Z</time></trkpt><trkpt lat="53.80357" lon="-2.135125"><ele>335.0</ele><time>2026-05-03T14:28:23.784Z</time></trkpt><trkpt lat="53.8034633" lon="-2.1349983"><ele>341.25</ele><time>2026-05-03T14:28:24.784Z</time></trkpt><trkpt lat="53.80335" lon="-2.1348683"><ele>347.5</ele><time>2026-05-03T14:28:25.786Z</time></trkpt><trkpt lat="53.80325" lon="-2.134735"><ele>353.75</ele><time>2026-05-03T14:28:26.783Z</time></trkpt><trkpt lat="53.8031717" lon="-2.1346117"><ele>360.0</ele><time>2026-05-03T14:28:27.784Z</time></trkpt><trkpt lat="53.8031083" lon="-2.1345083"><ele>360.0</ele><time>2026-05-03T14:28:28.787Z</time></trkpt><trkpt lat="53.8030683" lon="-2.13442"><ele>360.0</ele><time>2026-05-03T14:28:29.782Z</time></trkpt><trkpt lat="53.8030217" lon="-2.1343"><ele>360.0</ele><time>2026-05-03T14:28:31.785Z</time></trkpt><trkpt lat="53.8029867" lon="-2.13421"><ele>360.0</ele><time>2026-05-03T14:28:34.783Z</time></trkpt><trkpt lat="53.8030383" lon="-2.1343683"><ele>360.0</ele><time>2026-05-03T14:34:19.126Z</time></trkpt><trkpt lat="53.8030133" lon="-2.1342667"><ele>360.0</ele><time>2026-05-03T14:34:27.783Z</time></trkpt><trkpt lat="53.8029633" lon="-2.1341933"><ele>360.0</ele><time>2026-05-03T14:40:58.783Z</time></trkpt><trkpt lat="53.80288" lon="-2.1341467"><ele>360.0</ele><time>2026-05-03T14:41:01.783Z</time></trkpt><trkpt lat="53.8028017" lon="-2.1340967"><ele>360.0</ele><time>2026-05-03T14:41:04.783Z</time></trkpt><trkpt lat="53.8027117" lon="-2.1340183"><ele>360.0</ele><time>2026-05-03T14:41:07.783Z</time></trkpt><trkpt lat="53.80262" lon="-2.13395"><ele>360.0</ele><time>2026-05-03T14:41:09.783Z</time></trkpt><trkpt lat="53.8025583" lon="-2.1339067"><ele>360.0</ele><time>2026-05-03T14:41:10.783Z</time></trkpt><trkpt lat="53.802445" lon="-2.1338583"><ele>362.25</ele><time>2026-05-03T14:41:11.782Z</time></trkpt><trkpt lat="53.80232" lon="-2.1337917"><ele>364.5</ele><time>2026-05-03T14:41:12.782Z</time></trkpt><trkpt lat="53.8021867" lon="-2.1337283"><ele>366.75</ele><time>2026-05-03T14:41:13.783Z</time></trkpt><trkpt lat="53.8020583" lon="-2.1336667"><ele>369.0</ele><time>2026-05-03T14:41:14.783Z</time></trkpt><trkpt lat="53.8019317" lon="-2.1336067"><ele>371.25</ele><time>2026-05-03T14:41:15.782Z</time></trkpt><trkpt lat="53.8018133" lon="-2.133545"><ele>373.5</ele><time>2026-05-03T14:41:16.783Z</time></trkpt><trkpt lat="53.801705" lon="-2.1334583"><ele>375.75</ele><time>2026-05-03T14:41:17.783Z</time></trkpt><trkpt lat="53.8016" lon="-2.1333433"><ele>378.0</ele><time>2026-05-03T14:41:18.784Z</time></trkpt><trkpt lat="53.8015017" lon="-2.1332"><ele>378.25</ele><time>2026-05-03T14:41:19.784Z</time></trkpt><trkpt lat="53.801395" lon="-2.1330433"><ele>378.5</ele><time>2026-05-03T14:41:20.783Z</time></trkpt><trkpt lat="53.8012867" lon="-2.1328767"><ele>378.75</ele><time>2026-05-03T14:41:21.783Z</time></trkpt><trkpt lat="53.801175" lon="-2.1327067"><ele>379.0</ele><time>2026-05-03T14:41:22.783Z</time></trkpt><trkpt lat="53.8010517" lon="-2.1325317"><ele>382.3333333333333</ele><time>2026-05-03T14:41:23.783Z</time></trkpt><trkpt lat="53.8009283" lon="-2.1323533"><ele>385.66666666666663</ele><time>2026-05-03T14:41:24.783Z</time></trkpt><trkpt lat="53.8008133" lon="-2.1321833"><ele>389.0</ele><time>2026-05-03T14:41:25.783Z</time></trkpt><trkpt lat="53.8007117" lon="-2.1320283"><ele>389.0</ele><time>2026-05-03T14:41:26.782Z</time></trkpt><trkpt lat="53.80063" lon="-2.13188"><ele>389.0</ele><time>2026-05-03T14:41:27.781Z</time></trkpt><trkpt lat="53.8005633" lon="-2.1317633"><ele>389.0</ele><time>2026-05-03T14:41:28.783Z</time></trkpt><trkpt lat="53.800515" lon="-2.1316883"><ele>389.0</ele><time>2026-05-03T14:41:29.782Z</time></trkpt><trkpt lat="53.8004467" lon="-2.1315717"><ele>389.0</ele><time>2026-05-03T14:41:31.788Z</time></trkpt><trkpt lat="53.80037" lon="-2.1313967"><ele>389.4</ele><time>2026-05-03T14:41:33.783Z</time></trkpt><trkpt lat="53.8003167" lon="-2.1312833"><ele>389.79999999999995</ele><time>2026-05-03T14:41:34.785Z</time></trkpt><trkpt lat="53.8002567" lon="-2.1311567"><ele>390.20000000000005</ele><time>2026-05-03T14:41:35.783Z</time></trkpt><trkpt lat="53.8001933" lon="-2.1310233"><ele>390.6</ele><time>2026-05-03T14:41:36.786Z</time></trkpt><trkpt lat="53.80013" lon="-2.1308783"><ele>391.0</ele><time>2026-05-03T14:41:37.783Z</time></trkpt><trkpt lat="53.800065" lon="-2.1307233"><ele>391.0</ele><time>2026-05-03T14:41:38.783Z</time></trkpt><trkpt lat="53.8000033" lon="-2.1305567"><ele>391.0</ele><time>2026-05-03T14:41:39.782Z</time></trkpt><trkpt lat="53.7999467" lon="-2.130385"><ele>391.0</ele><time>2026-05-03T14:41:40.783Z</time></trkpt><trkpt lat="53.7998917" lon="-2.1302067"><ele>391.0</ele><time>2026-05-03T14:41:41.786Z</time></trkpt><trkpt lat="53.799835" lon="-2.130015"><ele>390.25</ele><time>2026-05-03T14:41:42.782Z</time></trkpt><trkpt lat="53.799785" lon="-2.1298167"><ele>389.5</ele><time>2026-05-03T14:41:43.783Z</time></trkpt><trkpt lat="53.7997333" lon="-2.1296267"><ele>388.75</ele><time>2026-05-03T14:41:44.782Z</time></trkpt><trkpt lat="53.7996833" lon="-2.12944"><ele>388.0</ele><time>2026-05-03T14:41:45.782Z</time></trkpt><trkpt lat="53.7996267" lon="-2.1292533"><ele>388.0</ele><time>2026-05-03T14:41:46.782Z</time></trkpt><trkpt lat="53.799575" lon="-2.129075"><ele>388.0</ele><time>2026-05-03T14:41:47.783Z</time></trkpt><trkpt lat="53.79953" lon="-2.1288983"><ele>388.0</ele><time>2026-05-03T14:41:48.783Z</time></trkpt><trkpt lat="53.79949" lon="-2.1287083"><ele>388.0</ele><time>2026-05-03T14:41:49.782Z</time></trkpt><trkpt lat="53.7994583" lon="-2.1285033"><ele>387.5</ele><time>2026-05-03T14:41:50.783Z</time></trkpt><trkpt lat="53.7994467" lon="-2.1282717"><ele>387.0</ele><time>2026-05-03T14:41:51.782Z</time></trkpt><trkpt lat="53.7994467" lon="-2.128025"><ele>386.5</ele><time>2026-05-03T14:41:52.782Z</time></trkpt><trkpt lat="53.7994533" lon="-2.1277583"><ele>386.0</ele><time>2026-05-03T14:41:53.782Z</time></trkpt><trkpt lat="53.7994633" lon="-2.1274917"><ele>384.5</ele><time>2026-05-03T14:41:54.783Z</time></trkpt><trkpt lat="53.7994783" lon="-2.1272367"><ele>383.0</ele><time>2026-05-03T14:41:55.784Z</time></trkpt><trkpt lat="53.7994933" lon="-2.1269933"><ele>381.5</ele><time>2026-05-03T14:41:56.783Z</time></trkpt><trkpt lat="53.79951" lon="-2.1267767"><ele>380.0</ele><time>2026-05-03T14:41:57.784Z</time></trkpt><trkpt lat="53.799535" lon="-2.126575"><ele>379.8</ele><time>2026-05-03T14:41:58.783Z</time></trkpt><trkpt lat="53.799555" lon="-2.126395"><ele>379.6</ele><time>2026-05-03T14:41:59.782Z</time></trkpt><trkpt lat="53.7995533" lon="-2.12624"><ele>379.4</ele><time>2026-05-03T14:42:00.781Z</time></trkpt><trkpt lat="53.79954" lon="-2.1260917"><ele>379.2</ele><time>2026-05-03T14:42:01.783Z</time></trkpt><trkpt lat="53.799515" lon="-2.1259517"><ele>379.0</ele><time>2026-05-03T14:42:02.782Z</time></trkpt><trkpt lat="53.7994633" lon="-2.1258183"><ele>380.5</ele><time>2026-05-03T14:42:03.782Z</time></trkpt><trkpt lat="53.7993917" lon="-2.1256817"><ele>382.0</ele><time>2026-05-03T14:42:04.781Z</time></trkpt><trkpt lat="53.7993133" lon="-2.12554"><ele>383.5</ele><time>2026-05-03T14:42:05.783Z</time></trkpt><trkpt lat="53.7992483" lon="-2.1253833"><ele>385.0</ele><time>2026-05-03T14:42:06.787Z</time></trkpt><trkpt lat="53.7991883" lon="-2.125205"><ele>381.0</ele><time>2026-05-03T14:42:07.783Z</time></trkpt><trkpt lat="53.7991267" lon="-2.124995"><ele>377.0</ele><time>2026-05-03T14:42:08.781Z</time></trkpt><trkpt lat="53.79906" lon="-2.1247583"><ele>373.0</ele><time>2026-05-03T14:42:09.782Z</time></trkpt><trkpt lat="53.7989933" lon="-2.1244983"><ele>372.66666666666663</ele><time>2026-05-03T14:42:10.783Z</time></trkpt><trkpt lat="53.7989267" lon="-2.1242283"><ele>372.3333333333333</ele><time>2026-05-03T14:42:11.782Z</time></trkpt><trkpt lat="53.7988617" lon="-2.1239617"><ele>372.0</ele><time>2026-05-03T14:42:12.787Z</time></trkpt><trkpt lat="53.7988017" lon="-2.1237067"><ele>372.5</ele><time>2026-05-03T14:42:13.783Z</time></trkpt><trkpt lat="53.7987383" lon="-2.123475"><ele>373.0</ele><time>2026-05-03T14:42:14.783Z</time></trkpt><trkpt lat="53.79868" lon="-2.1232817"><ele>373.5</ele><time>2026-05-03T14:42:15.782Z</time></trkpt><trkpt lat="53.7986267" lon="-2.1231017"><ele>374.0</ele><time>2026-05-03T14:42:16.783Z</time></trkpt><trkpt lat="53.7985883" lon="-2.1229217"><ele>374.25</ele><time>2026-05-03T14:42:17.782Z</time></trkpt><trkpt lat="53.798555" lon="-2.1227383"><ele>374.5</ele><time>2026-05-03T14:42:18.783Z</time></trkpt><trkpt lat="53.7985367" lon="-2.1225233"><ele>374.75</ele><time>2026-05-03T14:42:19.785Z</time></trkpt><trkpt lat="53.7985233" lon="-2.1222917"><ele>375.0</ele><time>2026-05-03T14:42:20.783Z</time></trkpt><trkpt lat="53.79852" lon="-2.1220417"><ele>375.0</ele><time>2026-05-03T14:42:21.782Z</time></trkpt><trkpt lat="53.79852" lon="-2.1218067"><ele>375.0</ele><time>2026-05-03T14:42:22.781Z</time></trkpt><trkpt lat="53.7985183" lon="-2.12159"><ele>375.0</ele><time>2026-05-03T14:42:23.783Z</time></trkpt><trkpt lat="53.7985017" lon="-2.1213867"><ele>375.0</ele><time>2026-05-03T14:42:24.783Z</time></trkpt><trkpt lat="53.7984733" lon="-2.1211717"><ele>369.3333333333333</ele><time>2026-05-03T14:42:25.785Z</time></trkpt><trkpt lat="53.79843" lon="-2.1209417"><ele>363.66666666666663</ele><time>2026-05-03T14:42:26.782Z</time></trkpt><trkpt lat="53.798365" lon="-2.1207017"><ele>358.0</ele><time>2026-05-03T14:42:27.782Z</time></trkpt><trkpt lat="53.798275" lon="-2.1204517"><ele>358.0</ele><time>2026-05-03T14:42:28.783Z</time></trkpt><trkpt lat="53.7981667" lon="-2.1201967"><ele>358.0</ele><time>2026-05-03T14:42:29.782Z</time></trkpt><trkpt lat="53.7980517" lon="-2.1199417"><ele>358.0</ele><time>2026-05-03T14:42:30.786Z</time></trkpt><trkpt lat="53.7979317" lon="-2.119705"><ele>361.0</ele><time>2026-05-03T14:42:31.783Z</time></trkpt><trkpt lat="53.7978133" lon="-2.1194917"><ele>364.0</ele><time>2026-05-03T14:42:32.781Z</time></trkpt><trkpt lat="53.7977083" lon="-2.1193083"><ele>367.0</ele><time>2026-05-03T14:42:33.783Z</time></trkpt><trkpt lat="53.797615" lon="-2.1191333"><ele>364.5</ele><time>2026-05-03T14:42:34.786Z</time></trkpt><trkpt lat="53.79753" lon="-2.11895"><ele>362.0</ele><time>2026-05-03T14:42:35.782Z</time></trkpt><trkpt lat="53.7974533" lon="-2.118745"><ele>359.5</ele><time>2026-05-03T14:42:36.786Z</time></trkpt><trkpt lat="53.7973817" lon="-2.1185317"><ele>357.0</ele><time>2026-05-03T14:42:37.783Z</time></trkpt><trkpt lat="53.79732" lon="-2.1183317"><ele>359.0</ele><time>2026-05-03T14:42:38.786Z</time></trkpt><trkpt lat="53.7972667" lon="-2.11814"><ele>361.0</ele><time>2026-05-03T14:42:39.781Z</time></trkpt><trkpt lat="53.7972133" lon="-2.1179217"><ele>363.0</ele><time>2026-05-03T14:42:40.786Z</time></trkpt><trkpt lat="53.7971683" lon="-2.1176917"><ele>365.0</ele><time>2026-05-03T14:42:41.783Z</time></trkpt><trkpt lat="53.7971233" lon="-2.117455"><ele>367.6666666666667</ele><time>2026-05-03T14:42:42.782Z</time></trkpt><trkpt lat="53.7970733" lon="-2.1172083"><ele>370.3333333333333</ele><time>2026-05-03T14:42:43.783Z</time></trkpt><trkpt lat="53.7970133" lon="-2.11694"><ele>373.0</ele><time>2026-05-03T14:42:44.782Z</time></trkpt><trkpt lat="53.7969433" lon="-2.1166533"><ele>375.3333333333333</ele><time>2026-05-03T14:42:45.783Z</time></trkpt><trkpt lat="53.7968733" lon="-2.1163683"><ele>377.6666666666667</ele><time>2026-05-03T14:42:46.787Z</time></trkpt><trkpt lat="53.7968017" lon="-2.11608"><ele>380.0</ele><time>2026-05-03T14:42:47.783Z</time></trkpt><trkpt lat="53.7967333" lon="-2.115785"><ele>373.0</ele><time>2026-05-03T14:42:48.786Z</time></trkpt><trkpt lat="53.7966633" lon="-2.1154833"><ele>366.0</ele><time>2026-05-03T14:42:49.787Z</time></trkpt><trkpt lat="53.7965933" lon="-2.1151833"><ele>359.0</ele><time>2026-05-03T14:42:50.784Z</time></trkpt><trkpt lat="53.7965217" lon="-2.1148833"><ele>359.0</ele><time>2026-05-03T14:42:51.784Z</time></trkpt><trkpt lat="53.79645" lon="-2.1145917"><ele>359.0</ele><time>2026-05-03T14:42:52.784Z</time></trkpt><trkpt lat="53.7963783" lon="-2.1143117"><ele>359.0</ele><time>2026-05-03T14:42:53.784Z</time></trkpt><trkpt lat="53.796315" lon="-2.114035"><ele>359.6666666666667</ele><time>2026-05-03T14:42:54.784Z</time></trkpt><trkpt lat="53.7962583" lon="-2.11377"><ele>360.3333333333333</ele><time>2026-05-03T14:42:55.784Z</time></trkpt><trkpt lat="53.7962083" lon="-2.1135283"><ele>361.0</ele><time>2026-05-03T14:42:56.783Z</time></trkpt><trkpt lat="53.7961617" lon="-2.1133"><ele>361.5</ele><time>2026-05-03T14:42:57.783Z</time></trkpt><trkpt lat="53.7961217" lon="-2.1130683"><ele>362.0</ele><time>2026-05-03T14:42:58.783Z</time></trkpt><trkpt lat="53.7960817" lon="-2.1128267"><ele>362.5</ele><time>2026-05-03T14:42:59.785Z</time></trkpt><trkpt lat="53.7960467" lon="-2.1125717"><ele>363.0</ele><time>2026-05-03T14:43:00.783Z</time></trkpt><trkpt lat="53.7960217" lon="-2.1123067"><ele>363.6666666666667</ele><time>2026-05-03T14:43:01.785Z</time></trkpt><trkpt lat="53.7960083" lon="-2.112045"><ele>364.33333333333337</ele><time>2026-05-03T14:43:02.786Z</time></trkpt><trkpt lat="53.7960067" lon="-2.11179"><ele>365.0</ele><time>2026-05-03T14:43:03.785Z</time></trkpt><trkpt lat="53.7960067" lon="-2.1115383"><ele>365.0</ele><time>2026-05-03T14:43:04.784Z</time></trkpt><trkpt lat="53.796005" lon="-2.11128"><ele>365.0</ele><time>2026-05-03T14:43:05.785Z</time></trkpt><trkpt lat="53.796" lon="-2.1110133"><ele>365.0</ele><time>2026-05-03T14:43:06.785Z</time></trkpt><trkpt lat="53.7959933" lon="-2.1107483"><ele>364.0</ele><time>2026-05-03T14:43:07.785Z</time></trkpt><trkpt lat="53.79599" lon="-2.1104933"><ele>363.0</ele><time>2026-05-03T14:43:08.783Z</time></trkpt><trkpt lat="53.795995" lon="-2.1102433"><ele>362.0</ele><time>2026-05-03T14:43:09.783Z</time></trkpt><trkpt lat="53.796005" lon="-2.1100017"><ele>361.0</ele><time>2026-05-03T14:43:10.783Z</time></trkpt><trkpt lat="53.7960167" lon="-2.1097667"><ele>359.75</ele><time>2026-05-03T14:43:11.786Z</time></trkpt><trkpt lat="53.7960317" lon="-2.1095317"><ele>358.5</ele><time>2026-05-03T14:43:12.785Z</time></trkpt><trkpt lat="53.7960483" lon="-2.10929"><ele>357.25</ele><time>2026-05-03T14:43:13.785Z</time></trkpt><trkpt lat="53.7960567" lon="-2.109035"><ele>356.0</ele><time>2026-05-03T14:43:14.783Z</time></trkpt><trkpt lat="53.79605" lon="-2.108775"><ele>356.0</ele><time>2026-05-03T14:43:15.784Z</time></trkpt><trkpt lat="53.7960383" lon="-2.1085"><ele>356.0</ele><time>2026-05-03T14:43:16.784Z</time></trkpt><trkpt lat="53.79602" lon="-2.10823"><ele>356.0</ele><time>2026-05-03T14:43:17.785Z</time></trkpt><trkpt lat="53.7960017" lon="-2.1079833"><ele>352.6666666666667</ele><time>2026-05-03T14:43:18.784Z</time></trkpt><trkpt lat="53.7959883" lon="-2.1077417"><ele>349.3333333333333</ele><time>2026-05-03T14:43:19.785Z</time></trkpt><trkpt lat="53.7959717" lon="-2.107485"><ele>346.0</ele><time>2026-05-03T14:43:20.783Z</time></trkpt><trkpt lat="53.7959717" lon="-2.1072133"><ele>346.0</ele><time>2026-05-03T14:43:21.785Z</time></trkpt><trkpt lat="53.7959817" lon="-2.1069383"><ele>346.0</ele><time>2026-05-03T14:43:22.785Z</time></trkpt><trkpt lat="53.796" lon="-2.1066783"><ele>346.0</ele><time>2026-05-03T14:43:23.785Z</time></trkpt><trkpt lat="53.7960117" lon="-2.106425"><ele>345.66666666666663</ele><time>2026-05-03T14:43:24.784Z</time></trkpt><trkpt lat="53.7960083" lon="-2.10617"><ele>345.3333333333333</ele><time>2026-05-03T14:43:25.784Z</time></trkpt><trkpt lat="53.7959967" lon="-2.1059117"><ele>345.0</ele><time>2026-05-03T14:43:26.785Z</time></trkpt><trkpt lat="53.79598" lon="-2.1056583"><ele>345.0</ele><time>2026-05-03T14:43:27.785Z</time></trkpt><trkpt lat="53.7959667" lon="-2.1054017"><ele>345.0</ele><time>2026-05-03T14:43:28.784Z</time></trkpt><trkpt lat="53.7959433" lon="-2.1051417"><ele>345.0</ele><time>2026-05-03T14:43:29.783Z</time></trkpt><trkpt lat="53.795905" lon="-2.104885"><ele>345.0</ele><time>2026-05-03T14:43:30.785Z</time></trkpt><trkpt lat="53.7958533" lon="-2.1046283"><ele>345.0</ele><time>2026-05-03T14:43:31.786Z</time></trkpt><trkpt lat="53.7957917" lon="-2.1043633"><ele>345.0</ele><time>2026-05-03T14:43:32.784Z</time></trkpt><trkpt lat="53.7957217" lon="-2.1040833"><ele>346.6666666666667</ele><time>2026-05-03T14:43:33.786Z</time></trkpt><trkpt lat="53.7956517" lon="-2.1038033"><ele>348.33333333333337</ele><time>2026-05-03T14:43:34.785Z</time></trkpt><trkpt lat="53.7955817" lon="-2.1035133"><ele>350.0</ele><time>2026-05-03T14:43:35.784Z</time></trkpt><trkpt lat="53.795515" lon="-2.1032267"><ele>351.6666666666667</ele><time>2026-05-03T14:43:36.786Z</time></trkpt><trkpt lat="53.7954567" lon="-2.102945"><ele>353.3333333333333</ele><time>2026-05-03T14:43:37.783Z</time></trkpt><trkpt lat="53.7954033" lon="-2.1026717"><ele>355.0</ele><time>2026-05-03T14:43:38.783Z</time></trkpt><trkpt lat="53.79536" lon="-2.10243"><ele>357.0</ele><time>2026-05-03T14:43:39.782Z</time></trkpt><trkpt lat="53.795325" lon="-2.1022233"><ele>359.0</ele><time>2026-05-03T14:43:40.782Z</time></trkpt><trkpt lat="53.7952867" lon="-2.10205"><ele>361.0</ele><time>2026-05-03T14:43:41.786Z</time></trkpt><trkpt lat="53.7952317" lon="-2.101895"><ele>363.0</ele><time>2026-05-03T14:43:42.785Z</time></trkpt><trkpt lat="53.7951583" lon="-2.1017417"><ele>360.75</ele><time>2026-05-03T14:43:43.782Z</time></trkpt><trkpt lat="53.795075" lon="-2.1016017"><ele>358.5</ele><time>2026-05-03T14:43:44.782Z</time></trkpt><trkpt lat="53.7949783" lon="-2.1014733"><ele>356.25</ele><time>2026-05-03T14:43:45.782Z</time></trkpt><trkpt lat="53.7948833" lon="-2.10135"><ele>354.0</ele><time>2026-05-03T14:43:46.786Z</time></trkpt><trkpt lat="53.794785" lon="-2.1012083"><ele>354.0</ele><time>2026-05-03T14:43:47.787Z</time></trkpt><trkpt lat="53.7946817" lon="-2.10105"><ele>354.0</ele><time>2026-05-03T14:43:48.785Z</time></trkpt><trkpt lat="53.79457" lon="-2.1008617"><ele>354.0</ele><time>2026-05-03T14:43:49.783Z</time></trkpt><trkpt lat="53.7944467" lon="-2.1006667"><ele>350.0</ele><time>2026-05-03T14:43:50.781Z</time></trkpt><trkpt lat="53.7943233" lon="-2.10046"><ele>346.0</ele><time>2026-05-03T14:43:51.785Z</time></trkpt><trkpt lat="53.794195" lon="-2.1002717"><ele>342.0</ele><time>2026-05-03T14:43:52.785Z</time></trkpt><trkpt lat="53.7940667" lon="-2.1000883"><ele>344.0</ele><time>2026-05-03T14:43:53.783Z</time></trkpt><trkpt lat="53.793935" lon="-2.0999"><ele>346.0</ele><time>2026-05-03T14:43:54.782Z</time></trkpt><trkpt lat="53.7937983" lon="-2.0997117"><ele>348.0</ele><time>2026-05-03T14:43:55.783Z</time></trkpt><trkpt lat="53.7936533" lon="-2.0995433"><ele>342.0</ele><time>2026-05-03T14:43:56.783Z</time></trkpt><trkpt lat="53.7935" lon="-2.099385"><ele>336.0</ele><time>2026-05-03T14:43:57.782Z</time></trkpt><trkpt lat="53.7933367" lon="-2.0992317"><ele>330.0</ele><time>2026-05-03T14:43:58.781Z</time></trkpt><trkpt lat="53.793165" lon="-2.0990883"><ele>332.0</ele><time>2026-05-03T14:43:59.783Z</time></trkpt><trkpt lat="53.7930067" lon="-2.098945"><ele>334.0</ele><time>2026-05-03T14:44:00.781Z</time></trkpt><trkpt lat="53.7928633" lon="-2.0988183"><ele>336.0</ele><time>2026-05-03T14:44:01.783Z</time></trkpt><trkpt lat="53.7927433" lon="-2.0987167"><ele>334.25</ele><time>2026-05-03T14:44:02.786Z</time></trkpt><trkpt lat="53.7926433" lon="-2.0986167"><ele>332.5</ele><time>2026-05-03T14:44:03.782Z</time></trkpt><trkpt lat="53.7925467" lon="-2.0985067"><ele>330.75</ele><time>2026-05-03T14:44:04.782Z</time></trkpt><trkpt lat="53.79245" lon="-2.0983717"><ele>329.0</ele><time>2026-05-03T14:44:05.782Z</time></trkpt><trkpt lat="53.7923517" lon="-2.0982017"><ele>329.0</ele><time>2026-05-03T14:44:06.785Z</time></trkpt><trkpt lat="53.7922533" lon="-2.0980117"><ele>329.0</ele><time>2026-05-03T14:44:07.781Z</time></trkpt><trkpt lat="53.79215" lon="-2.0978067"><ele>329.0</ele><time>2026-05-03T14:44:08.787Z</time></trkpt><trkpt lat="53.79205" lon="-2.0975967"><ele>329.5</ele><time>2026-05-03T14:44:09.783Z</time></trkpt><trkpt lat="53.7919567" lon="-2.0973967"><ele>330.0</ele><time>2026-05-03T14:44:10.783Z</time></trkpt><trkpt lat="53.7918683" lon="-2.097205"><ele>330.5</ele><time>2026-05-03T14:44:11.782Z</time></trkpt><trkpt lat="53.7917717" lon="-2.09702"><ele>331.0</ele><time>2026-05-03T14:44:12.784Z</time></trkpt><trkpt lat="53.7916733" lon="-2.0968317"><ele>328.0</ele><time>2026-05-03T14:44:13.783Z</time></trkpt><trkpt lat="53.7915817" lon="-2.0966367"><ele>325.0</ele><time>2026-05-03T14:44:14.783Z</time></trkpt><trkpt lat="53.7914933" lon="-2.09643"><ele>322.0</ele><time>2026-05-03T14:44:15.782Z</time></trkpt><trkpt lat="53.7914067" lon="-2.096205"><ele>322.0</ele><time>2026-05-03T14:44:16.783Z</time></trkpt><trkpt lat="53.7913233" lon="-2.0959633"><ele>322.0</ele><time>2026-05-03T14:44:17.782Z</time></trkpt><trkpt lat="53.7912417" lon="-2.0957"><ele>322.0</ele><time>2026-05-03T14:44:18.782Z</time></trkpt><trkpt lat="53.7911583" lon="-2.0954167"><ele>322.66666666666663</ele><time>2026-05-03T14:44:19.783Z</time></trkpt><trkpt lat="53.79107" lon="-2.0951233"><ele>323.3333333333333</ele><time>2026-05-03T14:44:20.782Z</time></trkpt><trkpt lat="53.7909833" lon="-2.0948217"><ele>324.0</ele><time>2026-05-03T14:44:21.782Z</time></trkpt><trkpt lat="53.7908917" lon="-2.0945283"><ele>322.3333333333333</ele><time>2026-05-03T14:44:22.787Z</time></trkpt><trkpt lat="53.790795" lon="-2.0942333"><ele>320.66666666666663</ele><time>2026-05-03T14:44:23.785Z</time></trkpt><trkpt lat="53.790685" lon="-2.0939383"><ele>319.0</ele><time>2026-05-03T14:44:24.786Z</time></trkpt><trkpt lat="53.7905633" lon="-2.0936483"><ele>319.0</ele><time>2026-05-03T14:44:25.782Z</time></trkpt><trkpt lat="53.790435" lon="-2.0933633"><ele>319.0</ele><time>2026-05-03T14:44:26.781Z</time></trkpt><trkpt lat="53.7903033" lon="-2.0930783"><ele>319.0</ele><time>2026-05-03T14:44:27.783Z</time></trkpt><trkpt lat="53.7901683" lon="-2.092795"><ele>317.3333333333333</ele><time>2026-05-03T14:44:28.783Z</time></trkpt><trkpt lat="53.7900283" lon="-2.0925133"><ele>315.6666666666667</ele><time>2026-05-03T14:44:29.783Z</time></trkpt><trkpt lat="53.7898917" lon="-2.0922333"><ele>314.0</ele><time>2026-05-03T14:44:30.787Z</time></trkpt><trkpt lat="53.7897583" lon="-2.091965"><ele>314.0</ele><time>2026-05-03T14:44:31.783Z</time></trkpt><trkpt lat="53.7896333" lon="-2.09171"><ele>314.0</ele><time>2026-05-03T14:44:32.786Z</time></trkpt><trkpt lat="53.7895217" lon="-2.091475"><ele>314.0</ele><time>2026-05-03T14:44:33.781Z</time></trkpt><trkpt lat="53.789425" lon="-2.0912667"><ele>315.0</ele><time>2026-05-03T14:44:34.783Z</time></trkpt><trkpt lat="53.7893433" lon="-2.09108"><ele>316.0</ele><time>2026-05-03T14:44:35.784Z</time></trkpt><trkpt lat="53.7892717" lon="-2.0909067"><ele>317.0</ele><time>2026-05-03T14:44:36.782Z</time></trkpt><trkpt lat="53.7892067" lon="-2.0907483"><ele>318.0</ele><time>2026-05-03T14:44:37.785Z</time></trkpt><trkpt lat="53.7891317" lon="-2.0905783"><ele>316.0</ele><time>2026-05-03T14:44:38.783Z</time></trkpt><trkpt lat="53.7890567" lon="-2.09038"><ele>314.0</ele><time>2026-05-03T14:44:39.782Z</time></trkpt><trkpt lat="53.78898" lon="-2.09017"><ele>312.0</ele><time>2026-05-03T14:44:40.782Z</time></trkpt><trkpt lat="53.788905" lon="-2.0899483"><ele>310.0</ele><time>2026-05-03T14:44:41.782Z</time></trkpt><trkpt lat="53.7888333" lon="-2.0897233"><ele>310.0</ele><time>2026-05-03T14:44:42.783Z</time></trkpt><trkpt lat="53.7887683" lon="-2.0895"><ele>310.0</ele><time>2026-05-03T14:44:43.783Z</time></trkpt><trkpt lat="53.7887133" lon="-2.0892717"><ele>310.0</ele><time>2026-05-03T14:44:44.782Z</time></trkpt><trkpt lat="53.7886717" lon="-2.0890217"><ele>310.0</ele><time>2026-05-03T14:44:45.782Z</time></trkpt><trkpt lat="53.78864" lon="-2.0887467"><ele>309.66666666666663</ele><time>2026-05-03T14:44:46.782Z</time></trkpt><trkpt lat="53.7886083" lon="-2.0884533"><ele>309.3333333333333</ele><time>2026-05-03T14:44:47.782Z</time></trkpt><trkpt lat="53.7885717" lon="-2.0881483"><ele>309.0</ele><time>2026-05-03T14:44:48.783Z</time></trkpt><trkpt lat="53.7885333" lon="-2.08783"><ele>303.6666666666667</ele><time>2026-05-03T14:44:49.783Z</time></trkpt><trkpt lat="53.7884933" lon="-2.0875033"><ele>298.33333333333337</ele><time>2026-05-03T14:44:50.783Z</time></trkpt><trkpt lat="53.788455" lon="-2.0871817"><ele>293.0</ele><time>2026-05-03T14:44:51.782Z</time></trkpt><trkpt lat="53.788415" lon="-2.0868667"><ele>291.33333333333337</ele><time>2026-05-03T14:44:52.782Z</time></trkpt><trkpt lat="53.7883717" lon="-2.086555"><ele>289.6666666666667</ele><time>2026-05-03T14:44:53.783Z</time></trkpt><trkpt lat="53.7883283" lon="-2.086255"><ele>288.0</ele><time>2026-05-03T14:44:54.782Z</time></trkpt><trkpt lat="53.7882817" lon="-2.08597"><ele>287.0</ele><time>2026-05-03T14:44:55.783Z</time></trkpt><trkpt lat="53.788235" lon="-2.0856883"><ele>286.0</ele><time>2026-05-03T14:44:56.782Z</time></trkpt><trkpt lat="53.7881933" lon="-2.0854083"><ele>285.0</ele><time>2026-05-03T14:44:57.782Z</time></trkpt><trkpt lat="53.7881533" lon="-2.0851333"><ele>285.3333333333333</ele><time>2026-05-03T14:44:58.782Z</time></trkpt><trkpt lat="53.78811" lon="-2.0848617"><ele>285.66666666666663</ele><time>2026-05-03T14:44:59.783Z</time></trkpt><trkpt lat="53.7880567" lon="-2.0845867"><ele>286.0</ele><time>2026-05-03T14:45:00.786Z</time></trkpt><trkpt lat="53.7879933" lon="-2.0843117"><ele>287.66666666666663</ele><time>2026-05-03T14:45:01.782Z</time></trkpt><trkpt lat="53.7879217" lon="-2.0840317"><ele>289.3333333333333</ele><time>2026-05-03T14:45:02.783Z</time></trkpt><trkpt lat="53.787845" lon="-2.0837517"><ele>291.0</ele><time>2026-05-03T14:45:03.783Z</time></trkpt><trkpt lat="53.78776" lon="-2.083495"><ele>291.0</ele><time>2026-05-03T14:45:04.782Z</time></trkpt><trkpt lat="53.7876867" lon="-2.0832733"><ele>291.0</ele><time>2026-05-03T14:45:05.783Z</time></trkpt><trkpt lat="53.78762" lon="-2.0830917"><ele>291.0</ele><time>2026-05-03T14:45:06.782Z</time></trkpt><trkpt lat="53.7875717" lon="-2.0829633"><ele>291.0</ele><time>2026-05-03T14:45:07.782Z</time></trkpt><trkpt lat="53.7875283" lon="-2.0828667"><ele>291.0</ele><time>2026-05-03T14:45:08.783Z</time></trkpt><trkpt lat="53.7874833" lon="-2.0827667"><ele>290.6666666666667</ele><time>2026-05-03T14:45:10.786Z</time></trkpt><trkpt lat="53.7874317" lon="-2.0826833"><ele>290.3333333333333</ele><time>2026-05-03T14:45:13.783Z</time></trkpt><trkpt lat="53.787365" lon="-2.08259"><ele>290.0</ele><time>2026-05-03T14:45:17.783Z</time></trkpt><trkpt lat="53.78731" lon="-2.0825"><ele>289.66666666666663</ele><time>2026-05-03T14:45:20.783Z</time></trkpt><trkpt lat="53.787245" lon="-2.082375"><ele>289.3333333333333</ele><time>2026-05-03T14:45:22.783Z</time></trkpt><trkpt lat="53.7872017" lon="-2.08229"><ele>289.0</ele><time>2026-05-03T14:45:23.782Z</time></trkpt><trkpt lat="53.7871483" lon="-2.0821833"><ele>289.0</ele><time>2026-05-03T14:45:24.783Z</time></trkpt><trkpt lat="53.7870833" lon="-2.0820617"><ele>289.0</ele><time>2026-05-03T14:45:25.783Z</time></trkpt><trkpt lat="53.7870133" lon="-2.0819233"><ele>289.0</ele><time>2026-05-03T14:45:26.786Z</time></trkpt><trkpt lat="53.78694" lon="-2.081775"><ele>289.0</ele><time>2026-05-03T14:45:27.782Z</time></trkpt><trkpt lat="53.7868583" lon="-2.08162"><ele>289.0</ele><time>2026-05-03T14:45:28.782Z</time></trkpt><trkpt lat="53.7867667" lon="-2.0814617"><ele>287.3333333333333</ele><time>2026-05-03T14:45:29.783Z</time></trkpt><trkpt lat="53.7866667" lon="-2.0813017"><ele>285.6666666666667</ele><time>2026-05-03T14:45:30.782Z</time></trkpt><trkpt lat="53.78655" lon="-2.0811367"><ele>284.0</ele><time>2026-05-03T14:45:31.782Z</time></trkpt><trkpt lat="53.7864183" lon="-2.0809633"><ele>284.0</ele><time>2026-05-03T14:45:32.782Z</time></trkpt><trkpt lat="53.78628" lon="-2.080785"><ele>284.0</ele><time>2026-05-03T14:45:33.782Z</time></trkpt><trkpt lat="53.786145" lon="-2.080625"><ele>284.0</ele><time>2026-05-03T14:45:34.782Z</time></trkpt><trkpt lat="53.7860183" lon="-2.080485"><ele>284.5</ele><time>2026-05-03T14:45:35.782Z</time></trkpt><trkpt lat="53.7859083" lon="-2.0803567"><ele>285.0</ele><time>2026-05-03T14:45:36.785Z</time></trkpt><trkpt lat="53.7858067" lon="-2.0802233"><ele>285.5</ele><time>2026-05-03T14:45:37.783Z</time></trkpt><trkpt lat="53.7857033" lon="-2.0800767"><ele>286.0</ele><time>2026-05-03T14:45:38.786Z</time></trkpt><trkpt lat="53.7856" lon="-2.0799217"><ele>285.75</ele><time>2026-05-03T14:45:39.783Z</time></trkpt><trkpt lat="53.7854917" lon="-2.0797583"><ele>285.5</ele><time>2026-05-03T14:45:40.782Z</time></trkpt><trkpt lat="53.7853817" lon="-2.0795867"><ele>285.25</ele><time>2026-05-03T14:45:41.782Z</time></trkpt><trkpt lat="53.785275" lon="-2.0794217"><ele>285.0</ele><time>2026-05-03T14:45:42.782Z</time></trkpt><trkpt lat="53.7851683" lon="-2.0792567"><ele>287.0</ele><time>2026-05-03T14:45:43.783Z</time></trkpt><trkpt lat="53.7850517" lon="-2.0790917"><ele>289.0</ele><time>2026-05-03T14:45:44.782Z</time></trkpt><trkpt lat="53.784925" lon="-2.0789267"><ele>291.0</ele><time>2026-05-03T14:45:45.782Z</time></trkpt><trkpt lat="53.7847917" lon="-2.0787583"><ele>291.0</ele><time>2026-05-03T14:45:46.783Z</time></trkpt><trkpt lat="53.78465" lon="-2.0785933"><ele>291.0</ele><time>2026-05-03T14:45:47.783Z</time></trkpt><trkpt lat="53.7845" lon="-2.0784283"><ele>291.0</ele><time>2026-05-03T14:45:48.783Z</time></trkpt><trkpt lat="53.7843433" lon="-2.078255"><ele>291.3333333333333</ele><time>2026-05-03T14:45:49.782Z</time></trkpt><trkpt lat="53.7841817" lon="-2.0780717"><ele>291.66666666666663</ele><time>2026-05-03T14:45:50.783Z</time></trkpt><trkpt lat="53.784015" lon="-2.0778867"><ele>292.0</ele><time>2026-05-03T14:45:51.782Z</time></trkpt><trkpt lat="53.7838417" lon="-2.0777033"><ele>292.0</ele><time>2026-05-03T14:45:52.783Z</time></trkpt><trkpt lat="53.7836717" lon="-2.0775217"><ele>292.0</ele><time>2026-05-03T14:45:53.782Z</time></trkpt><trkpt lat="53.7835067" lon="-2.07734"><ele>292.0</ele><time>2026-05-03T14:45:54.787Z</time></trkpt><trkpt lat="53.78334" lon="-2.0771583"><ele>292.66666666666663</ele><time>2026-05-03T14:45:55.783Z</time></trkpt><trkpt lat="53.7831767" lon="-2.0769767"><ele>293.3333333333333</ele><time>2026-05-03T14:45:56.782Z</time></trkpt><trkpt lat="53.78301" lon="-2.0767933"><ele>294.0</ele><time>2026-05-03T14:45:57.782Z</time></trkpt><trkpt lat="53.7828467" lon="-2.076605"><ele>295.0</ele><time>2026-05-03T14:45:58.785Z</time></trkpt><trkpt lat="53.78268" lon="-2.0764167"><ele>296.0</ele><time>2026-05-03T14:45:59.781Z</time></trkpt><trkpt lat="53.7825183" lon="-2.07623"><ele>297.0</ele><time>2026-05-03T14:46:00.786Z</time></trkpt><trkpt lat="53.7823617" lon="-2.076045"><ele>297.0</ele><time>2026-05-03T14:46:01.782Z</time></trkpt><trkpt lat="53.7822083" lon="-2.0758667"><ele>297.0</ele><time>2026-05-03T14:46:02.785Z</time></trkpt><trkpt lat="53.782055" lon="-2.0756867"><ele>297.0</ele><time>2026-05-03T14:46:03.783Z</time></trkpt><trkpt lat="53.7819083" lon="-2.075515"><ele>297.6666666666667</ele><time>2026-05-03T14:46:04.783Z</time></trkpt><trkpt lat="53.7817767" lon="-2.0753533"><ele>298.33333333333337</ele><time>2026-05-03T14:46:05.782Z</time></trkpt><trkpt lat="53.7816533" lon="-2.0752033"><ele>299.0</ele><time>2026-05-03T14:46:06.782Z</time></trkpt><trkpt lat="53.7815417" lon="-2.07507"><ele>299.0</ele><time>2026-05-03T14:46:07.783Z</time></trkpt><trkpt lat="53.7814417" lon="-2.0749483"><ele>299.0</ele><time>2026-05-03T14:46:08.784Z</time></trkpt><trkpt lat="53.7813467" lon="-2.074825"><ele>299.0</ele><time>2026-05-03T14:46:09.782Z</time></trkpt><trkpt lat="53.7812517" lon="-2.074685"><ele>299.0</ele><time>2026-05-03T14:46:10.785Z</time></trkpt><trkpt lat="53.7811683" lon="-2.0745267"><ele>299.33333333333337</ele><time>2026-05-03T14:46:11.783Z</time></trkpt><trkpt lat="53.7810833" lon="-2.07434"><ele>299.6666666666667</ele><time>2026-05-03T14:46:12.786Z</time></trkpt><trkpt lat="53.7810017" lon="-2.0741183"><ele>300.0</ele><time>2026-05-03T14:46:13.783Z</time></trkpt><trkpt lat="53.78092" lon="-2.0738717"><ele>300.3333333333333</ele><time>2026-05-03T14:46:14.786Z</time></trkpt><trkpt lat="53.780845" lon="-2.0735983"><ele>300.66666666666663</ele><time>2026-05-03T14:46:15.783Z</time></trkpt><trkpt lat="53.7807733" lon="-2.0733183"><ele>301.0</ele><time>2026-05-03T14:46:16.784Z</time></trkpt><trkpt lat="53.7807017" lon="-2.073035"><ele>301.0</ele><time>2026-05-03T14:46:17.783Z</time></trkpt><trkpt lat="53.7806267" lon="-2.0727483"><ele>301.0</ele><time>2026-05-03T14:46:18.783Z</time></trkpt><trkpt lat="53.78055" lon="-2.0724583"><ele>301.0</ele><time>2026-05-03T14:46:19.784Z</time></trkpt><trkpt lat="53.7804733" lon="-2.0721633"><ele>300.66666666666663</ele><time>2026-05-03T14:46:20.784Z</time></trkpt><trkpt lat="53.7803933" lon="-2.071865"><ele>300.3333333333333</ele><time>2026-05-03T14:46:21.783Z</time></trkpt><trkpt lat="53.7803133" lon="-2.0715683"><ele>300.0</ele><time>2026-05-03T14:46:22.786Z</time></trkpt><trkpt lat="53.780235" lon="-2.071275"><ele>298.6666666666667</ele><time>2026-05-03T14:46:23.783Z</time></trkpt><trkpt lat="53.7801617" lon="-2.0709983"><ele>297.33333333333337</ele><time>2026-05-03T14:46:24.787Z</time></trkpt><trkpt lat="53.7800917" lon="-2.0707367"><ele>296.0</ele><time>2026-05-03T14:46:25.784Z</time></trkpt><trkpt lat="53.7800233" lon="-2.0704867"><ele>294.6666666666667</ele><time>2026-05-03T14:46:26.788Z</time></trkpt><trkpt lat="53.7799517" lon="-2.0702467"><ele>293.3333333333333</ele><time>2026-05-03T14:46:27.783Z</time></trkpt><trkpt lat="53.7798833" lon="-2.07"><ele>292.0</ele><time>2026-05-03T14:46:28.785Z</time></trkpt><trkpt lat="53.779815" lon="-2.0697467"><ele>291.0</ele><time>2026-05-03T14:46:29.784Z</time></trkpt><trkpt lat="53.7797483" lon="-2.0694967"><ele>290.0</ele><time>2026-05-03T14:46:30.784Z</time></trkpt><trkpt lat="53.7796833" lon="-2.0692567"><ele>289.0</ele><time>2026-05-03T14:46:31.783Z</time></trkpt><trkpt lat="53.77962" lon="-2.0690183"><ele>288.0</ele><time>2026-05-03T14:46:32.783Z</time></trkpt><trkpt lat="53.7795583" lon="-2.0687733"><ele>287.0</ele><time>2026-05-03T14:46:33.782Z</time></trkpt><trkpt lat="53.7795017" lon="-2.0685217"><ele>286.0</ele><time>2026-05-03T14:46:34.782Z</time></trkpt><trkpt lat="53.7794467" lon="-2.0682683"><ele>284.66666666666663</ele><time>2026-05-03T14:46:35.784Z</time></trkpt><trkpt lat="53.7794083" lon="-2.0680083"><ele>283.3333333333333</ele><time>2026-05-03T14:46:36.782Z</time></trkpt><trkpt lat="53.7793883" lon="-2.067735"><ele>282.0</ele><time>2026-05-03T14:46:37.784Z</time></trkpt><trkpt lat="53.77938" lon="-2.0674567"><ele>280.3333333333333</ele><time>2026-05-03T14:46:38.783Z</time></trkpt><trkpt lat="53.7793767" lon="-2.0671867"><ele>278.66666666666663</ele><time>2026-05-03T14:46:39.782Z</time></trkpt><trkpt lat="53.7793717" lon="-2.066925"><ele>277.0</ele><time>2026-05-03T14:46:40.783Z</time></trkpt><trkpt lat="53.77937" lon="-2.06668"><ele>275.0</ele><time>2026-05-03T14:46:41.784Z</time></trkpt><trkpt lat="53.7793683" lon="-2.0664483"><ele>273.0</ele><time>2026-05-03T14:46:42.782Z</time></trkpt><trkpt lat="53.779365" lon="-2.0662217"><ele>271.0</ele><time>2026-05-03T14:46:43.784Z</time></trkpt><trkpt lat="53.77936" lon="-2.0660067"><ele>269.0</ele><time>2026-05-03T14:46:44.782Z</time></trkpt><trkpt lat="53.7793567" lon="-2.06581"><ele>266.6666666666667</ele><time>2026-05-03T14:46:45.782Z</time></trkpt><trkpt lat="53.7793583" lon="-2.065635"><ele>264.33333333333337</ele><time>2026-05-03T14:46:46.783Z</time></trkpt><trkpt lat="53.77936" lon="-2.06549"><ele>262.0</ele><time>2026-05-03T14:46:47.783Z</time></trkpt><trkpt lat="53.7793617" lon="-2.06538"><ele>259.6666666666667</ele><time>2026-05-03T14:46:48.785Z</time></trkpt><trkpt lat="53.779335" lon="-2.0652267"><ele>257.3333333333333</ele><time>2026-05-03T14:46:50.784Z</time></trkpt><trkpt lat="53.77926" lon="-2.065175"><ele>255.0</ele><time>2026-05-03T14:46:52.783Z</time></trkpt><trkpt lat="53.77917" lon="-2.065245"><ele>255.0</ele><time>2026-05-03T14:46:54.784Z</time></trkpt><trkpt lat="53.7791117" lon="-2.0654"><ele>255.0</ele><time>2026-05-03T14:46:55.785Z</time></trkpt><trkpt lat="53.7790467" lon="-2.0656117"><ele>255.0</ele><time>2026-05-03T14:46:56.784Z</time></trkpt><trkpt lat="53.7789733" lon="-2.06579"><ele>255.0</ele><time>2026-05-03T14:46:57.783Z</time></trkpt><trkpt lat="53.7789033" lon="-2.0659433"><ele>257.0</ele><time>2026-05-03T14:46:58.783Z</time></trkpt><trkpt lat="53.7788333" lon="-2.0660933"><ele>259.0</ele><time>2026-05-03T14:46:59.784Z</time></trkpt><trkpt lat="53.7787683" lon="-2.0662217"><ele>261.0</ele><time>2026-05-03T14:47:00.783Z</time></trkpt><trkpt lat="53.77872" lon="-2.0663233"><ele>263.0</ele><time>2026-05-03T14:47:01.784Z</time></trkpt><trkpt lat="53.7786567" lon="-2.066445"><ele>265.0</ele><time>2026-05-03T14:47:03.782Z</time></trkpt><trkpt lat="53.7785667" lon="-2.0663617"><ele>265.0</ele><time>2026-05-03T14:47:06.784Z</time></trkpt><trkpt lat="53.77856" lon="-2.0662533"><ele>265.0</ele><time>2026-05-03T14:47:07.784Z</time></trkpt><trkpt lat="53.778575" lon="-2.0660717"><ele>265.0</ele><time>2026-05-03T14:47:08.784Z</time></trkpt><trkpt lat="53.7785817" lon="-2.0658667"><ele>265.0</ele><time>2026-05-03T14:47:09.783Z</time></trkpt><trkpt lat="53.7786033" lon="-2.065655"><ele>265.0</ele><time>2026-05-03T14:47:10.784Z</time></trkpt><trkpt lat="53.7786117" lon="-2.0654817"><ele>263.3333333333333</ele><time>2026-05-03T14:47:11.782Z</time></trkpt><trkpt lat="53.778625" lon="-2.0653217"><ele>261.66666666666663</ele><time>2026-05-03T14:47:12.783Z</time></trkpt><trkpt lat="53.7786317" lon="-2.0651833"><ele>260.0</ele><time>2026-05-03T14:47:13.784Z</time></trkpt><trkpt lat="53.7786317" lon="-2.0650633"><ele>258.3333333333333</ele><time>2026-05-03T14:47:14.782Z</time></trkpt><trkpt lat="53.7786183" lon="-2.0649467"><ele>256.6666666666667</ele><time>2026-05-03T14:47:15.783Z</time></trkpt><trkpt lat="53.77858" lon="-2.0648483"><ele>255.0</ele><time>2026-05-03T14:47:16.782Z</time></trkpt><trkpt lat="53.77852" lon="-2.0647633"><ele>253.0</ele><time>2026-05-03T14:47:17.783Z</time></trkpt><trkpt lat="53.7784333" lon="-2.0647083"><ele>251.0</ele><time>2026-05-03T14:47:18.786Z</time></trkpt><trkpt lat="53.7783483" lon="-2.064645"><ele>249.0</ele><time>2026-05-03T14:47:19.783Z</time></trkpt><trkpt lat="53.77829" lon="-2.0645633"><ele>247.0</ele><time>2026-05-03T14:47:20.784Z</time></trkpt><trkpt lat="53.7782567" lon="-2.0644467"><ele>245.0</ele><time>2026-05-03T14:47:21.783Z</time></trkpt><trkpt lat="53.7782367" lon="-2.0643283"><ele>243.0</ele><time>2026-05-03T14:47:22.783Z</time></trkpt><trkpt lat="53.77825" lon="-2.0641533"><ele>243.0</ele><time>2026-05-03T14:47:23.783Z</time></trkpt><trkpt lat="53.7782983" lon="-2.0639283"><ele>243.0</ele><time>2026-05-03T14:47:24.782Z</time></trkpt><trkpt lat="53.7783183" lon="-2.06373"><ele>243.0</ele><time>2026-05-03T14:47:25.783Z</time></trkpt><trkpt lat="53.7783433" lon="-2.063505"><ele>243.0</ele><time>2026-05-03T14:47:26.784Z</time></trkpt><trkpt lat="53.7783433" lon="-2.06328"><ele>243.0</ele><time>2026-05-03T14:47:27.784Z</time></trkpt><trkpt lat="53.7783283" lon="-2.0630433"><ele>243.0</ele><time>2026-05-03T14:47:28.784Z</time></trkpt><trkpt lat="53.7782783" lon="-2.062805"><ele>243.0</ele><time>2026-05-03T14:47:29.783Z</time></trkpt><trkpt lat="53.7782167" lon="-2.06257"><ele>243.0</ele><time>2026-05-03T14:47:30.783Z</time></trkpt><trkpt lat="53.7781533" lon="-2.0623167"><ele>241.33333333333331</ele><time>2026-05-03T14:47:31.785Z</time></trkpt><trkpt lat="53.7781" lon="-2.0620333"><ele>239.66666666666666</ele><time>2026-05-03T14:47:32.787Z</time></trkpt><trkpt lat="53.778055" lon="-2.0617317"><ele>238.0</ele><time>2026-05-03T14:47:33.782Z</time></trkpt><trkpt lat="53.778015" lon="-2.0614167"><ele>237.0</ele><time>2026-05-03T14:47:34.783Z</time></trkpt><trkpt lat="53.7779733" lon="-2.0610983"><ele>236.0</ele><time>2026-05-03T14:47:35.785Z</time></trkpt><trkpt lat="53.77793" lon="-2.0607933"><ele>235.0</ele><time>2026-05-03T14:47:36.782Z</time></trkpt><trkpt lat="53.7778883" lon="-2.060495"><ele>235.0</ele><time>2026-05-03T14:47:37.784Z</time></trkpt><trkpt lat="53.77785" lon="-2.06021"><ele>235.0</ele><time>2026-05-03T14:47:38.783Z</time></trkpt><trkpt lat="53.77781" lon="-2.0599267"><ele>235.0</ele><time>2026-05-03T14:47:39.783Z</time></trkpt><trkpt lat="53.77776" lon="-2.05964"><ele>235.0</ele><time>2026-05-03T14:47:40.782Z</time></trkpt><trkpt lat="53.7777067" lon="-2.059355"><ele>235.0</ele><time>2026-05-03T14:47:41.783Z</time></trkpt><trkpt lat="53.7776567" lon="-2.0590633"><ele>235.0</ele><time>2026-05-03T14:47:42.782Z</time></trkpt><trkpt lat="53.777605" lon="-2.0587867"><ele>240.75</ele><time>2026-05-03T14:47:43.788Z</time></trkpt><trkpt lat="53.7775567" lon="-2.0585317"><ele>246.5</ele><time>2026-05-03T14:47:44.783Z</time></trkpt><trkpt lat="53.777515" lon="-2.05831"><ele>252.25</ele><time>2026-05-03T14:47:45.785Z</time></trkpt><trkpt lat="53.7774833" lon="-2.0581283"><ele>258.0</ele><time>2026-05-03T14:47:46.784Z</time></trkpt><trkpt lat="53.7774567" lon="-2.057955"><ele>258.0</ele><time>2026-05-03T14:47:47.784Z</time></trkpt><trkpt lat="53.7774317" lon="-2.0577767"><ele>258.0</ele><time>2026-05-03T14:47:48.784Z</time></trkpt><trkpt lat="53.77741" lon="-2.0575817"><ele>258.0</ele><time>2026-05-03T14:47:49.786Z</time></trkpt><trkpt lat="53.777395" lon="-2.0573717"><ele>258.0</ele><time>2026-05-03T14:47:50.784Z</time></trkpt><trkpt lat="53.7773883" lon="-2.05715"><ele>257.75</ele><time>2026-05-03T14:47:51.783Z</time></trkpt><trkpt lat="53.77738" lon="-2.056915"><ele>257.5</ele><time>2026-05-03T14:47:52.784Z</time></trkpt><trkpt lat="53.7773617" lon="-2.0566767"><ele>257.25</ele><time>2026-05-03T14:47:53.785Z</time></trkpt><trkpt lat="53.7773417" lon="-2.056445"><ele>257.0</ele><time>2026-05-03T14:47:54.783Z</time></trkpt><trkpt lat="53.7773183" lon="-2.0562267"><ele>256.75</ele><time>2026-05-03T14:47:55.785Z</time></trkpt><trkpt lat="53.7772833" lon="-2.0560233"><ele>256.5</ele><time>2026-05-03T14:47:56.784Z</time></trkpt><trkpt lat="53.7772367" lon="-2.055825"><ele>256.25</ele><time>2026-05-03T14:47:57.785Z</time></trkpt><trkpt lat="53.77718" lon="-2.055615"><ele>256.0</ele><time>2026-05-03T14:47:58.784Z</time></trkpt><trkpt lat="53.7771117" lon="-2.0553817"><ele>255.33333333333331</ele><time>2026-05-03T14:47:59.785Z</time></trkpt><trkpt lat="53.7770383" lon="-2.055135"><ele>254.66666666666669</ele><time>2026-05-03T14:48:00.784Z</time></trkpt><trkpt lat="53.7769633" lon="-2.0548817"><ele>254.0</ele><time>2026-05-03T14:48:01.785Z</time></trkpt><trkpt lat="53.7768917" lon="-2.0546383"><ele>258.75</ele><time>2026-05-03T14:48:02.786Z</time></trkpt><trkpt lat="53.7768267" lon="-2.0544083"><ele>263.5</ele><time>2026-05-03T14:48:03.784Z</time></trkpt><trkpt lat="53.7767617" lon="-2.054185"><ele>268.25</ele><time>2026-05-03T14:48:04.788Z</time></trkpt><trkpt lat="53.7766983" lon="-2.0539667"><ele>273.0</ele><time>2026-05-03T14:48:05.784Z</time></trkpt><trkpt lat="53.776645" lon="-2.0537417"><ele>273.0</ele><time>2026-05-03T14:48:06.783Z</time></trkpt><trkpt lat="53.7766033" lon="-2.0535017"><ele>273.0</ele><time>2026-05-03T14:48:07.785Z</time></trkpt><trkpt lat="53.7765667" lon="-2.0532633"><ele>273.0</ele><time>2026-05-03T14:48:08.787Z</time></trkpt><trkpt lat="53.77653" lon="-2.0530267"><ele>273.0</ele><time>2026-05-03T14:48:09.788Z</time></trkpt><trkpt lat="53.7764733" lon="-2.052795"><ele>272.3333333333333</ele><time>2026-05-03T14:48:10.785Z</time></trkpt><trkpt lat="53.7763983" lon="-2.0525567"><ele>271.66666666666663</ele><time>2026-05-03T14:48:11.784Z</time></trkpt><trkpt lat="53.7763033" lon="-2.0523117"><ele>271.0</ele><time>2026-05-03T14:48:12.783Z</time></trkpt><trkpt lat="53.7762" lon="-2.0520617"><ele>269.3333333333333</ele><time>2026-05-03T14:48:13.785Z</time></trkpt><trkpt lat="53.7760917" lon="-2.051815"><ele>267.6666666666667</ele><time>2026-05-03T14:48:14.785Z</time></trkpt><trkpt lat="53.7759833" lon="-2.0515667"><ele>266.0</ele><time>2026-05-03T14:48:15.784Z</time></trkpt><trkpt lat="53.7758833" lon="-2.0513233"><ele>267.75</ele><time>2026-05-03T14:48:16.787Z</time></trkpt><trkpt lat="53.7757867" lon="-2.0510983"><ele>269.5</ele><time>2026-05-03T14:48:17.785Z</time></trkpt><trkpt lat="53.7756983" lon="-2.0509017"><ele>271.25</ele><time>2026-05-03T14:48:18.784Z</time></trkpt><trkpt lat="53.7756183" lon="-2.050735"><ele>273.0</ele><time>2026-05-03T14:48:19.784Z</time></trkpt><trkpt lat="53.7755283" lon="-2.0505967"><ele>273.0</ele><time>2026-05-03T14:48:20.783Z</time></trkpt><trkpt lat="53.7754217" lon="-2.050475"><ele>273.0</ele><time>2026-05-03T14:48:21.785Z</time></trkpt><trkpt lat="53.775295" lon="-2.0503633"><ele>273.0</ele><time>2026-05-03T14:48:22.785Z</time></trkpt><trkpt lat="53.775165" lon="-2.0502783"><ele>273.0</ele><time>2026-05-03T14:48:23.785Z</time></trkpt><trkpt lat="53.775045" lon="-2.05021"><ele>274.5</ele><time>2026-05-03T14:48:24.784Z</time></trkpt><trkpt lat="53.7749433" lon="-2.05014"><ele>276.0</ele><time>2026-05-03T14:48:25.783Z</time></trkpt><trkpt lat="53.7748367" lon="-2.0500817"><ele>277.5</ele><time>2026-05-03T14:48:26.784Z</time></trkpt><trkpt lat="53.77472" lon="-2.0500183"><ele>279.0</ele><time>2026-05-03T14:48:27.785Z</time></trkpt><trkpt lat="53.7746" lon="-2.0499317"><ele>279.0</ele><time>2026-05-03T14:48:28.784Z</time></trkpt><trkpt lat="53.7744733" lon="-2.0498383"><ele>279.0</ele><time>2026-05-03T14:48:29.785Z</time></trkpt><trkpt lat="53.7743467" lon="-2.0497267"><ele>279.0</ele><time>2026-05-03T14:48:30.786Z</time></trkpt><trkpt lat="53.774215" lon="-2.0495983"><ele>279.0</ele><time>2026-05-03T14:48:31.783Z</time></trkpt><trkpt lat="53.7740783" lon="-2.049445"><ele>279.3333333333333</ele><time>2026-05-03T14:48:32.783Z</time></trkpt><trkpt lat="53.7739383" lon="-2.0492883"><ele>279.66666666666663</ele><time>2026-05-03T14:48:33.782Z</time></trkpt><trkpt lat="53.7737933" lon="-2.0491417"><ele>280.0</ele><time>2026-05-03T14:48:34.782Z</time></trkpt><trkpt lat="53.7736483" lon="-2.049005"><ele>278.3333333333333</ele><time>2026-05-03T14:48:35.783Z</time></trkpt><trkpt lat="53.77351" lon="-2.048875"><ele>276.6666666666667</ele><time>2026-05-03T14:48:36.784Z</time></trkpt><trkpt lat="53.773375" lon="-2.04875"><ele>275.0</ele><time>2026-05-03T14:48:37.783Z</time></trkpt><trkpt lat="53.7732483" lon="-2.0486367"><ele>275.0</ele><time>2026-05-03T14:48:38.782Z</time></trkpt><trkpt lat="53.7731417" lon="-2.048535"><ele>275.0</ele><time>2026-05-03T14:48:39.782Z</time></trkpt><trkpt lat="53.7730367" lon="-2.0484517"><ele>275.0</ele><time>2026-05-03T14:48:40.784Z</time></trkpt><trkpt lat="53.7729333" lon="-2.0483817"><ele>275.0</ele><time>2026-05-03T14:48:41.782Z</time></trkpt><trkpt lat="53.7728083" lon="-2.048345"><ele>274.0</ele><time>2026-05-03T14:48:42.783Z</time></trkpt><trkpt lat="53.7726667" lon="-2.0483417"><ele>273.0</ele><time>2026-05-03T14:48:43.783Z</time></trkpt><trkpt lat="53.7724933" lon="-2.0483567"><ele>272.0</ele><time>2026-05-03T14:48:44.786Z</time></trkpt><trkpt lat="53.7723033" lon="-2.0483867"><ele>272.0</ele><time>2026-05-03T14:48:45.782Z</time></trkpt><trkpt lat="53.7721033" lon="-2.0484083"><ele>272.0</ele><time>2026-05-03T14:48:46.785Z</time></trkpt><trkpt lat="53.7718917" lon="-2.0484283"><ele>272.0</ele><time>2026-05-03T14:48:47.784Z</time></trkpt><trkpt lat="53.7716767" lon="-2.0484467"><ele>271.33333333333337</ele><time>2026-05-03T14:48:48.786Z</time></trkpt><trkpt lat="53.7714633" lon="-2.0484667"><ele>270.6666666666667</ele><time>2026-05-03T14:48:49.784Z</time></trkpt><trkpt lat="53.7712517" lon="-2.0484917"><ele>270.0</ele><time>2026-05-03T14:48:50.784Z</time></trkpt><trkpt lat="53.7710417" lon="-2.0485183"><ele>269.0</ele><time>2026-05-03T14:48:51.785Z</time></trkpt><trkpt lat="53.7708367" lon="-2.0485367"><ele>268.0</ele><time>2026-05-03T14:48:52.784Z</time></trkpt><trkpt lat="53.7706283" lon="-2.0485533"><ele>267.0</ele><time>2026-05-03T14:48:53.785Z</time></trkpt><trkpt lat="53.7704267" lon="-2.0485733"><ele>267.0</ele><time>2026-05-03T14:48:54.783Z</time></trkpt><trkpt lat="53.770225" lon="-2.04859"><ele>267.0</ele><time>2026-05-03T14:48:55.784Z</time></trkpt><trkpt lat="53.7700233" lon="-2.0486067"><ele>267.0</ele><time>2026-05-03T14:48:56.786Z</time></trkpt><trkpt lat="53.769825" lon="-2.0486233"><ele>266.6666666666667</ele><time>2026-05-03T14:48:57.789Z</time></trkpt><trkpt lat="53.7696267" lon="-2.0486417"><ele>266.33333333333337</ele><time>2026-05-03T14:48:58.786Z</time></trkpt><trkpt lat="53.7694317" lon="-2.0486617"><ele>266.0</ele><time>2026-05-03T14:48:59.784Z</time></trkpt><trkpt lat="53.7692483" lon="-2.0486783"><ele>265.0</ele><time>2026-05-03T14:49:00.784Z</time></trkpt><trkpt lat="53.76908" lon="-2.0487067"><ele>264.0</ele><time>2026-05-03T14:49:01.784Z</time></trkpt><trkpt lat="53.7689233" lon="-2.0487517"><ele>263.0</ele><time>2026-05-03T14:49:02.785Z</time></trkpt><trkpt lat="53.7687683" lon="-2.0488217"><ele>263.0</ele><time>2026-05-03T14:49:03.782Z</time></trkpt><trkpt lat="53.7686217" lon="-2.0489117"><ele>263.0</ele><time>2026-05-03T14:49:04.783Z</time></trkpt><trkpt lat="53.7684767" lon="-2.049005"><ele>263.0</ele><time>2026-05-03T14:49:05.782Z</time></trkpt><trkpt lat="53.7683267" lon="-2.0490767"><ele>262.0</ele><time>2026-05-03T14:49:06.784Z</time></trkpt><trkpt lat="53.76816" lon="-2.049095"><ele>261.0</ele><time>2026-05-03T14:49:07.783Z</time></trkpt><trkpt lat="53.7679833" lon="-2.04908"><ele>260.0</ele><time>2026-05-03T14:49:08.783Z</time></trkpt><trkpt lat="53.7677917" lon="-2.049055"><ele>261.6666666666667</ele><time>2026-05-03T14:49:09.783Z</time></trkpt><trkpt lat="53.7675933" lon="-2.049025"><ele>263.3333333333333</ele><time>2026-05-03T14:49:10.782Z</time></trkpt><trkpt lat="53.7673917" lon="-2.049"><ele>265.0</ele><time>2026-05-03T14:49:11.783Z</time></trkpt><trkpt lat="53.7672017" lon="-2.048975"><ele>265.0</ele><time>2026-05-03T14:49:12.784Z</time></trkpt><trkpt lat="53.7670133" lon="-2.048955"><ele>265.0</ele><time>2026-05-03T14:49:13.782Z</time></trkpt><trkpt lat="53.7668317" lon="-2.0489317"><ele>265.0</ele><time>2026-05-03T14:49:14.783Z</time></trkpt><trkpt lat="53.7666367" lon="-2.0489033"><ele>265.66666666666663</ele><time>2026-05-03T14:49:15.782Z</time></trkpt><trkpt lat="53.7664367" lon="-2.0488733"><ele>266.3333333333333</ele><time>2026-05-03T14:49:16.783Z</time></trkpt><trkpt lat="53.7662333" lon="-2.04884"><ele>267.0</ele><time>2026-05-03T14:49:17.782Z</time></trkpt><trkpt lat="53.7660283" lon="-2.0488083"><ele>267.0</ele><time>2026-05-03T14:49:18.782Z</time></trkpt><trkpt lat="53.7658267" lon="-2.0487767"><ele>267.0</ele><time>2026-05-03T14:49:19.783Z</time></trkpt><trkpt lat="53.7656317" lon="-2.0487467"><ele>267.0</ele><time>2026-05-03T14:49:20.783Z</time></trkpt><trkpt lat="53.7654433" lon="-2.04872"><ele>267.0</ele><time>2026-05-03T14:49:21.783Z</time></trkpt><trkpt lat="53.7652667" lon="-2.0486983"><ele>267.0</ele><time>2026-05-03T14:49:22.783Z</time></trkpt><trkpt lat="53.7651017" lon="-2.048675"><ele>267.0</ele><time>2026-05-03T14:49:23.782Z</time></trkpt><trkpt lat="53.76494" lon="-2.0486483"><ele>267.0</ele><time>2026-05-03T14:49:24.783Z</time></trkpt><trkpt lat="53.7647867" lon="-2.048625"><ele>267.0</ele><time>2026-05-03T14:49:25.783Z</time></trkpt><trkpt lat="53.7646333" lon="-2.0486083"><ele>267.0</ele><time>2026-05-03T14:49:26.783Z</time></trkpt><trkpt lat="53.7644833" lon="-2.0486033"><ele>266.5</ele><time>2026-05-03T14:49:27.782Z</time></trkpt><trkpt lat="53.7643383" lon="-2.048615"><ele>266.0</ele><time>2026-05-03T14:49:28.783Z</time></trkpt><trkpt lat="53.7642" lon="-2.0486467"><ele>265.5</ele><time>2026-05-03T14:49:29.783Z</time></trkpt><trkpt lat="53.764075" lon="-2.0486883"><ele>265.0</ele><time>2026-05-03T14:49:30.783Z</time></trkpt><trkpt lat="53.763965" lon="-2.0487283"><ele>265.0</ele><time>2026-05-03T14:49:31.782Z</time></trkpt><trkpt lat="53.7638717" lon="-2.04876"><ele>265.0</ele><time>2026-05-03T14:49:32.783Z</time></trkpt><trkpt lat="53.7637917" lon="-2.0487817"><ele>265.0</ele><time>2026-05-03T14:49:33.782Z</time></trkpt><trkpt lat="53.76371" lon="-2.04877"><ele>265.0</ele><time>2026-05-03T14:49:34.783Z</time></trkpt><trkpt lat="53.76362" lon="-2.04874"><ele>265.0</ele><time>2026-05-03T14:49:35.783Z</time></trkpt><trkpt lat="53.7635283" lon="-2.0486433"><ele>266.25</ele><time>2026-05-03T14:49:36.785Z</time></trkpt><trkpt lat="53.7634083" lon="-2.0485433"><ele>267.5</ele><time>2026-05-03T14:49:37.782Z</time></trkpt><trkpt lat="53.7632817" lon="-2.0484667"><ele>268.75</ele><time>2026-05-03T14:49:38.785Z</time></trkpt><trkpt lat="53.7631467" lon="-2.048385"><ele>270.0</ele><time>2026-05-03T14:49:39.786Z</time></trkpt><trkpt lat="53.763015" lon="-2.0483017"><ele>269.25</ele><time>2026-05-03T14:49:40.783Z</time></trkpt><trkpt lat="53.7628867" lon="-2.0482033"><ele>268.5</ele><time>2026-05-03T14:49:41.784Z</time></trkpt><trkpt lat="53.7627683" lon="-2.0481183"><ele>267.75</ele><time>2026-05-03T14:49:42.785Z</time></trkpt><trkpt lat="53.762655" lon="-2.048025"><ele>267.0</ele><time>2026-05-03T14:49:43.785Z</time></trkpt><trkpt lat="53.76254" lon="-2.0479083"><ele>268.3333333333333</ele><time>2026-05-03T14:49:44.785Z</time></trkpt><trkpt lat="53.7624183" lon="-2.0477583"><ele>269.66666666666663</ele><time>2026-05-03T14:49:45.785Z</time></trkpt><trkpt lat="53.7622967" lon="-2.0476033"><ele>271.0</ele><time>2026-05-03T14:49:46.785Z</time></trkpt><trkpt lat="53.7621733" lon="-2.0474433"><ele>271.0</ele><time>2026-05-03T14:49:47.786Z</time></trkpt><trkpt lat="53.762045" lon="-2.0472883"><ele>271.0</ele><time>2026-05-03T14:49:48.784Z</time></trkpt><trkpt lat="53.7619133" lon="-2.047135"><ele>271.0</ele><time>2026-05-03T14:49:49.784Z</time></trkpt><trkpt lat="53.7617717" lon="-2.0469617"><ele>271.66666666666663</ele><time>2026-05-03T14:49:50.783Z</time></trkpt><trkpt lat="53.761635" lon="-2.0467817"><ele>272.3333333333333</ele><time>2026-05-03T14:49:51.784Z</time></trkpt><trkpt lat="53.7614917" lon="-2.0466017"><ele>273.0</ele><time>2026-05-03T14:49:52.785Z</time></trkpt><trkpt lat="53.7613517" lon="-2.046425"><ele>273.0</ele><time>2026-05-03T14:49:53.785Z</time></trkpt><trkpt lat="53.7612083" lon="-2.0462483"><ele>273.0</ele><time>2026-05-03T14:49:54.786Z</time></trkpt><trkpt lat="53.7610617" lon="-2.0460717"><ele>273.0</ele><time>2026-05-03T14:49:55.785Z</time></trkpt><trkpt lat="53.7609017" lon="-2.0459033"><ele>272.6666666666667</ele><time>2026-05-03T14:49:56.786Z</time></trkpt><trkpt lat="53.7607467" lon="-2.04574"><ele>272.33333333333337</ele><time>2026-05-03T14:49:57.785Z</time></trkpt><trkpt lat="53.7605917" lon="-2.045585"><ele>272.0</ele><time>2026-05-03T14:49:58.784Z</time></trkpt><trkpt lat="53.760445" lon="-2.0454433"><ele>272.0</ele><time>2026-05-03T14:49:59.785Z</time></trkpt><trkpt lat="53.760305" lon="-2.0453117"><ele>272.0</ele><time>2026-05-03T14:50:00.786Z</time></trkpt><trkpt lat="53.760175" lon="-2.0451733"><ele>272.0</ele><time>2026-05-03T14:50:01.783Z</time></trkpt><trkpt lat="53.7600517" lon="-2.0450067"><ele>272.33333333333337</ele><time>2026-05-03T14:50:02.785Z</time></trkpt><trkpt lat="53.7599267" lon="-2.04481"><ele>272.6666666666667</ele><time>2026-05-03T14:50:03.783Z</time></trkpt><trkpt lat="53.7598033" lon="-2.0446067"><ele>273.0</ele><time>2026-05-03T14:50:04.783Z</time></trkpt><trkpt lat="53.7596817" lon="-2.04441"><ele>273.0</ele><time>2026-05-03T14:50:05.787Z</time></trkpt><trkpt lat="53.75957" lon="-2.0442283"><ele>273.0</ele><time>2026-05-03T14:50:06.783Z</time></trkpt><trkpt lat="53.759455" lon="-2.044055"><ele>273.0</ele><time>2026-05-03T14:50:07.782Z</time></trkpt><trkpt lat="53.7593483" lon="-2.0438667"><ele>274.0</ele><time>2026-05-03T14:50:08.786Z</time></trkpt><trkpt lat="53.7592433" lon="-2.0436567"><ele>275.0</ele><time>2026-05-03T14:50:09.782Z</time></trkpt><trkpt lat="53.7591367" lon="-2.043455"><ele>276.0</ele><time>2026-05-03T14:50:10.783Z</time></trkpt><trkpt lat="53.759035" lon="-2.0432667"><ele>274.25</ele><time>2026-05-03T14:50:11.785Z</time></trkpt><trkpt lat="53.758935" lon="-2.0430983"><ele>272.5</ele><time>2026-05-03T14:50:12.785Z</time></trkpt><trkpt lat="53.7588383" lon="-2.0429433"><ele>270.75</ele><time>2026-05-03T14:50:13.785Z</time></trkpt><trkpt lat="53.7587483" lon="-2.0428017"><ele>269.0</ele><time>2026-05-03T14:50:14.785Z</time></trkpt><trkpt lat="53.7586633" lon="-2.0426717"><ele>269.0</ele><time>2026-05-03T14:50:15.784Z</time></trkpt><trkpt lat="53.7585783" lon="-2.04255"><ele>269.0</ele><time>2026-05-03T14:50:16.783Z</time></trkpt><trkpt lat="53.7585033" lon="-2.0424433"><ele>269.0</ele><time>2026-05-03T14:50:17.784Z</time></trkpt><trkpt lat="53.7584317" lon="-2.0423433"><ele>269.0</ele><time>2026-05-03T14:50:18.784Z</time></trkpt><trkpt lat="53.758365" lon="-2.0422517"><ele>269.0</ele><time>2026-05-03T14:50:19.786Z</time></trkpt><trkpt lat="53.7582983" lon="-2.0421617"><ele>268.6666666666667</ele><time>2026-05-03T14:50:20.785Z</time></trkpt><trkpt lat="53.7582333" lon="-2.0420683"><ele>268.33333333333337</ele><time>2026-05-03T14:50:21.787Z</time></trkpt><trkpt lat="53.75817" lon="-2.04197"><ele>268.0</ele><time>2026-05-03T14:50:22.784Z</time></trkpt><trkpt lat="53.7581067" lon="-2.04187"><ele>267.6666666666667</ele><time>2026-05-03T14:50:23.785Z</time></trkpt><trkpt lat="53.758045" lon="-2.04177"><ele>267.3333333333333</ele><time>2026-05-03T14:50:24.783Z</time></trkpt><trkpt lat="53.757985" lon="-2.0416667"><ele>267.0</ele><time>2026-05-03T14:50:25.783Z</time></trkpt><trkpt lat="53.7579217" lon="-2.04157"><ele>267.0</ele><time>2026-05-03T14:50:26.783Z</time></trkpt><trkpt lat="53.7578617" lon="-2.041475"><ele>267.0</ele><time>2026-05-03T14:50:27.783Z</time></trkpt><trkpt lat="53.7577983" lon="-2.0413817"><ele>267.0</ele><time>2026-05-03T14:50:28.787Z</time></trkpt><trkpt lat="53.7577333" lon="-2.0412883"><ele>267.0</ele><time>2026-05-03T14:50:29.783Z</time></trkpt><trkpt lat="53.7576717" lon="-2.0411933"><ele>267.0</ele><time>2026-05-03T14:50:30.786Z</time></trkpt><trkpt lat="53.7576117" lon="-2.0411033"><ele>267.0</ele><time>2026-05-03T14:50:31.785Z</time></trkpt><trkpt lat="53.7575533" lon="-2.0410167"><ele>268.3333333333333</ele><time>2026-05-03T14:50:32.787Z</time></trkpt><trkpt lat="53.757495" lon="-2.0409317"><ele>269.6666666666667</ele><time>2026-05-03T14:50:33.783Z</time></trkpt><trkpt lat="53.7574367" lon="-2.040845"><ele>271.0</ele><time>2026-05-03T14:50:34.787Z</time></trkpt><trkpt lat="53.7573767" lon="-2.0407583"><ele>272.33333333333337</ele><time>2026-05-03T14:50:35.783Z</time></trkpt><trkpt lat="53.757315" lon="-2.0406683"><ele>273.6666666666667</ele><time>2026-05-03T14:50:36.784Z</time></trkpt><trkpt lat="53.7572483" lon="-2.0405633"><ele>275.0</ele><time>2026-05-03T14:50:37.784Z</time></trkpt><trkpt lat="53.7571767" lon="-2.0404533"><ele>275.0</ele><time>2026-05-03T14:50:38.784Z</time></trkpt><trkpt lat="53.7571067" lon="-2.0403433"><ele>275.0</ele><time>2026-05-03T14:50:39.784Z</time></trkpt><trkpt lat="53.7570333" lon="-2.0402283"><ele>275.0</ele><time>2026-05-03T14:50:40.784Z</time></trkpt><trkpt lat="53.756955" lon="-2.04012"><ele>275.0</ele><time>2026-05-03T14:50:41.787Z</time></trkpt><trkpt lat="53.7568867" lon="-2.0400167"><ele>275.0</ele><time>2026-05-03T14:50:42.785Z</time></trkpt><trkpt lat="53.7568133" lon="-2.0399133"><ele>276.2</ele><time>2026-05-03T14:50:43.783Z</time></trkpt><trkpt lat="53.75673" lon="-2.0397983"><ele>277.4</ele><time>2026-05-03T14:50:44.784Z</time></trkpt><trkpt lat="53.7566433" lon="-2.03968"><ele>278.6</ele><time>2026-05-03T14:50:45.784Z</time></trkpt><trkpt lat="53.7565583" lon="-2.0395683"><ele>279.8</ele><time>2026-05-03T14:50:46.785Z</time></trkpt><trkpt lat="53.7564817" lon="-2.0394567"><ele>281.0</ele><time>2026-05-03T14:50:47.784Z</time></trkpt><trkpt lat="53.7564033" lon="-2.03934"><ele>281.0</ele><time>2026-05-03T14:50:48.787Z</time></trkpt><trkpt lat="53.7563267" lon="-2.0392117"><ele>281.0</ele><time>2026-05-03T14:50:49.782Z</time></trkpt><trkpt lat="53.7562567" lon="-2.03907"><ele>281.0</ele><time>2026-05-03T14:50:50.783Z</time></trkpt><trkpt lat="53.7561833" lon="-2.0389233"><ele>281.0</ele><time>2026-05-03T14:50:51.783Z</time></trkpt><trkpt lat="53.7561117" lon="-2.0387667"><ele>281.0</ele><time>2026-05-03T14:50:52.782Z</time></trkpt><trkpt lat="53.7560417" lon="-2.0386133"><ele>281.5</ele><time>2026-05-03T14:50:53.784Z</time></trkpt><trkpt lat="53.7559733" lon="-2.0384583"><ele>282.0</ele><time>2026-05-03T14:50:54.783Z</time></trkpt><trkpt lat="53.7559" lon="-2.0383083"><ele>282.5</ele><time>2026-05-03T14:50:55.783Z</time></trkpt><trkpt lat="53.75582" lon="-2.038155"><ele>283.0</ele><time>2026-05-03T14:50:56.787Z</time></trkpt><trkpt lat="53.7557433" lon="-2.0379967"><ele>282.0</ele><time>2026-05-03T14:50:57.783Z</time></trkpt><trkpt lat="53.7556683" lon="-2.0378317"><ele>281.0</ele><time>2026-05-03T14:50:58.784Z</time></trkpt><trkpt lat="53.7555933" lon="-2.0376717"><ele>280.0</ele><time>2026-05-03T14:50:59.785Z</time></trkpt><trkpt lat="53.7555217" lon="-2.0375117"><ele>279.0</ele><time>2026-05-03T14:51:00.785Z</time></trkpt><trkpt lat="53.755455" lon="-2.0373533"><ele>278.4</ele><time>2026-05-03T14:51:01.785Z</time></trkpt><trkpt lat="53.7553867" lon="-2.0372"><ele>277.79999999999995</ele><time>2026-05-03T14:51:02.783Z</time></trkpt><trkpt lat="53.7553183" lon="-2.0370517"><ele>277.20000000000005</ele><time>2026-05-03T14:51:03.784Z</time></trkpt><trkpt lat="53.755255" lon="-2.0369017"><ele>276.6</ele><time>2026-05-03T14:51:04.784Z</time></trkpt><trkpt lat="53.7551967" lon="-2.03676"><ele>276.0</ele><time>2026-05-03T14:51:05.784Z</time></trkpt><trkpt lat="53.7551367" lon="-2.0366283"><ele>277.2</ele><time>2026-05-03T14:51:06.784Z</time></trkpt><trkpt lat="53.7550783" lon="-2.0364967"><ele>278.40000000000003</ele><time>2026-05-03T14:51:07.785Z</time></trkpt><trkpt lat="53.75502" lon="-2.03637"><ele>279.6</ele><time>2026-05-03T14:51:08.785Z</time></trkpt><trkpt lat="53.754965" lon="-2.036245"><ele>280.8</ele><time>2026-05-03T14:51:09.786Z</time></trkpt><trkpt lat="53.7549167" lon="-2.0361167"><ele>282.0</ele><time>2026-05-03T14:51:10.784Z</time></trkpt><trkpt lat="53.7548683" lon="-2.0360017"><ele>282.0</ele><time>2026-05-03T14:51:11.785Z</time></trkpt><trkpt lat="53.75483" lon="-2.0358833"><ele>282.0</ele><time>2026-05-03T14:51:12.784Z</time></trkpt><trkpt lat="53.7547917" lon="-2.0357583"><ele>282.0</ele><time>2026-05-03T14:51:13.784Z</time></trkpt><trkpt lat="53.7547567" lon="-2.03563"><ele>282.0</ele><time>2026-05-03T14:51:14.785Z</time></trkpt><trkpt lat="53.7547267" lon="-2.03551"><ele>282.0</ele><time>2026-05-03T14:51:15.784Z</time></trkpt><trkpt lat="53.7546967" lon="-2.035405"><ele>282.0</ele><time>2026-05-03T14:51:16.784Z</time></trkpt><trkpt lat="53.7546567" lon="-2.0352683"><ele>281.5</ele><time>2026-05-03T14:51:18.784Z</time></trkpt><trkpt lat="53.7546167" lon="-2.035125"><ele>281.0</ele><time>2026-05-03T14:51:21.783Z</time></trkpt><trkpt lat="53.7545917" lon="-2.0349633"><ele>280.5</ele><time>2026-05-03T14:51:23.785Z</time></trkpt><trkpt lat="53.7545733" lon="-2.0348417"><ele>280.0</ele><time>2026-05-03T14:51:24.785Z</time></trkpt><trkpt lat="53.75455" lon="-2.0347067"><ele>279.5</ele><time>2026-05-03T14:51:25.785Z</time></trkpt><trkpt lat="53.754525" lon="-2.0345583"><ele>279.0</ele><time>2026-05-03T14:51:26.784Z</time></trkpt><trkpt lat="53.7545017" lon="-2.0344067"><ele>279.0</ele><time>2026-05-03T14:51:27.783Z</time></trkpt><trkpt lat="53.7544767" lon="-2.0342467"><ele>279.0</ele><time>2026-05-03T14:51:28.784Z</time></trkpt><trkpt lat="53.7544483" lon="-2.03408"><ele>279.0</ele><time>2026-05-03T14:51:29.784Z</time></trkpt><trkpt lat="53.7544233" lon="-2.0339083"><ele>279.0</ele><time>2026-05-03T14:51:30.784Z</time></trkpt><trkpt lat="53.7544" lon="-2.03374"><ele>279.0</ele><time>2026-05-03T14:51:31.784Z</time></trkpt><trkpt lat="53.7543717" lon="-2.03357"><ele>279.2</ele><time>2026-05-03T14:51:32.784Z</time></trkpt><trkpt lat="53.7543433" lon="-2.033395"><ele>279.4</ele><time>2026-05-03T14:51:33.784Z</time></trkpt><trkpt lat="53.754315" lon="-2.0332217"><ele>279.6</ele><time>2026-05-03T14:51:34.784Z</time></trkpt><trkpt lat="53.75429" lon="-2.0330433"><ele>279.8</ele><time>2026-05-03T14:51:35.784Z</time></trkpt><trkpt lat="53.7542617" lon="-2.0328583"><ele>280.0</ele><time>2026-05-03T14:51:36.783Z</time></trkpt><trkpt lat="53.7542367" lon="-2.0326717"><ele>279.5</ele><time>2026-05-03T14:51:37.784Z</time></trkpt><trkpt lat="53.75421" lon="-2.03248"><ele>279.0</ele><time>2026-05-03T14:51:38.783Z</time></trkpt><trkpt lat="53.7541767" lon="-2.032285"><ele>278.5</ele><time>2026-05-03T14:51:39.784Z</time></trkpt><trkpt lat="53.7541467" lon="-2.03209"><ele>278.0</ele><time>2026-05-03T14:51:40.787Z</time></trkpt><trkpt lat="53.7541133" lon="-2.0318933"><ele>278.0</ele><time>2026-05-03T14:51:41.783Z</time></trkpt><trkpt lat="53.75408" lon="-2.0316917"><ele>278.0</ele><time>2026-05-03T14:51:42.784Z</time></trkpt><trkpt lat="53.7540467" lon="-2.031485"><ele>278.0</ele><time>2026-05-03T14:51:43.784Z</time></trkpt><trkpt lat="53.7540233" lon="-2.03128"><ele>278.0</ele><time>2026-05-03T14:51:44.784Z</time></trkpt><trkpt lat="53.753995" lon="-2.0310767"><ele>278.25</ele><time>2026-05-03T14:51:45.785Z</time></trkpt><trkpt lat="53.7539667" lon="-2.0308733"><ele>278.5</ele><time>2026-05-03T14:51:46.784Z</time></trkpt><trkpt lat="53.7539333" lon="-2.0306667"><ele>278.75</ele><time>2026-05-03T14:51:47.785Z</time></trkpt><trkpt lat="53.7539" lon="-2.03046"><ele>279.0</ele><time>2026-05-03T14:51:48.785Z</time></trkpt><trkpt lat="53.7538617" lon="-2.0302517"><ele>278.25</ele><time>2026-05-03T14:51:49.783Z</time></trkpt><trkpt lat="53.7538233" lon="-2.030045"><ele>277.5</ele><time>2026-05-03T14:51:50.785Z</time></trkpt><trkpt lat="53.753785" lon="-2.0298467"><ele>276.75</ele><time>2026-05-03T14:51:51.784Z</time></trkpt><trkpt lat="53.753745" lon="-2.0296617"><ele>276.0</ele><time>2026-05-03T14:51:52.785Z</time></trkpt><trkpt lat="53.753705" lon="-2.0294967"><ele>275.5</ele><time>2026-05-03T14:51:53.783Z</time></trkpt><trkpt lat="53.7536617" lon="-2.0293417"><ele>275.0</ele><time>2026-05-03T14:51:54.784Z</time></trkpt><trkpt lat="53.75362" lon="-2.0292017"><ele>274.5</ele><time>2026-05-03T14:51:55.785Z</time></trkpt><trkpt lat="53.753585" lon="-2.0290783"><ele>274.0</ele><time>2026-05-03T14:51:56.784Z</time></trkpt><trkpt lat="53.7535617" lon="-2.0289667"><ele>273.5</ele><time>2026-05-03T14:51:57.783Z</time></trkpt><trkpt lat="53.753545" lon="-2.0288517"><ele>273.0</ele><time>2026-05-03T14:51:58.783Z</time></trkpt><trkpt lat="53.7535767" lon="-2.0286617"><ele>272.8</ele><time>2026-05-03T14:52:00.784Z</time></trkpt><trkpt lat="53.7536217" lon="-2.0285633"><ele>272.6</ele><time>2026-05-03T14:52:01.784Z</time></trkpt><trkpt lat="53.753685" lon="-2.028465"><ele>272.4</ele><time>2026-05-03T14:52:02.786Z</time></trkpt><trkpt lat="53.753755" lon="-2.0283533"><ele>272.2</ele><time>2026-05-03T14:52:03.784Z</time></trkpt><trkpt lat="53.7538317" lon="-2.028245"><ele>272.0</ele><time>2026-05-03T14:52:04.785Z</time></trkpt><trkpt lat="53.753905" lon="-2.0281367"><ele>271.8</ele><time>2026-05-03T14:52:05.785Z</time></trkpt><trkpt lat="53.7539783" lon="-2.0280317"><ele>271.6</ele><time>2026-05-03T14:52:06.787Z</time></trkpt><trkpt lat="53.75405" lon="-2.0279183"><ele>271.40000000000003</ele><time>2026-05-03T14:52:07.783Z</time></trkpt><trkpt lat="53.7541167" lon="-2.02781"><ele>271.2</ele><time>2026-05-03T14:52:08.786Z</time></trkpt><trkpt lat="53.7541783" lon="-2.0277017"><ele>271.0</ele><time>2026-05-03T14:52:09.786Z</time></trkpt><trkpt lat="53.754235" lon="-2.0275783"><ele>270.8</ele><time>2026-05-03T14:52:10.782Z</time></trkpt><trkpt lat="53.7542867" lon="-2.02744"><ele>270.6</ele><time>2026-05-03T14:52:11.784Z</time></trkpt><trkpt lat="53.7543283" lon="-2.02729"><ele>270.4</ele><time>2026-05-03T14:52:12.785Z</time></trkpt><trkpt lat="53.754365" lon="-2.0271317"><ele>270.2</ele><time>2026-05-03T14:52:13.782Z</time></trkpt><trkpt lat="53.7543967" lon="-2.0269733"><ele>270.0</ele><time>2026-05-03T14:52:14.783Z</time></trkpt><trkpt lat="53.7544283" lon="-2.0268167"><ele>268.4</ele><time>2026-05-03T14:52:15.782Z</time></trkpt><trkpt lat="53.754455" lon="-2.0266617"><ele>266.8</ele><time>2026-05-03T14:52:16.782Z</time></trkpt><trkpt lat="53.7544833" lon="-2.0264917"><ele>265.2</ele><time>2026-05-03T14:52:17.783Z</time></trkpt><trkpt lat="53.7545083" lon="-2.0263067"><ele>263.6</ele><time>2026-05-03T14:52:18.782Z</time></trkpt><trkpt lat="53.754535" lon="-2.0261233"><ele>262.0</ele><time>2026-05-03T14:52:19.784Z</time></trkpt><trkpt lat="53.7545617" lon="-2.02594"><ele>262.0</ele><time>2026-05-03T14:52:20.783Z</time></trkpt><trkpt lat="53.7545883" lon="-2.02576"><ele>262.0</ele><time>2026-05-03T14:52:21.782Z</time></trkpt><trkpt lat="53.754615" lon="-2.025585"><ele>262.0</ele><time>2026-05-03T14:52:22.783Z</time></trkpt><trkpt lat="53.7546417" lon="-2.0254133"><ele>262.0</ele><time>2026-05-03T14:52:23.783Z</time></trkpt><trkpt lat="53.75467" lon="-2.0252417"><ele>262.0</ele><time>2026-05-03T14:52:24.783Z</time></trkpt><trkpt lat="53.7546967" lon="-2.025075"><ele>261.66666666666663</ele><time>2026-05-03T14:52:25.784Z</time></trkpt><trkpt lat="53.7547217" lon="-2.024915"><ele>261.3333333333333</ele><time>2026-05-03T14:52:26.783Z</time></trkpt><trkpt lat="53.7547433" lon="-2.024765"><ele>261.0</ele><time>2026-05-03T14:52:27.782Z</time></trkpt><trkpt lat="53.7547667" lon="-2.0246217"><ele>260.6666666666667</ele><time>2026-05-03T14:52:28.783Z</time></trkpt><trkpt lat="53.7547917" lon="-2.024495"><ele>260.33333333333337</ele><time>2026-05-03T14:52:29.782Z</time></trkpt><trkpt lat="53.75482" lon="-2.0243817"><ele>260.0</ele><time>2026-05-03T14:52:30.783Z</time></trkpt><trkpt lat="53.7548633" lon="-2.0242917"><ele>260.0</ele><time>2026-05-03T14:52:31.783Z</time></trkpt><trkpt lat="53.7549217" lon="-2.02422"><ele>260.0</ele><time>2026-05-03T14:52:32.783Z</time></trkpt><trkpt lat="53.7549933" lon="-2.02416"><ele>260.0</ele><time>2026-05-03T14:52:33.782Z</time></trkpt><trkpt lat="53.7550633" lon="-2.0241067"><ele>260.0</ele><time>2026-05-03T14:52:34.782Z</time></trkpt><trkpt lat="53.7551333" lon="-2.024045"><ele>260.0</ele><time>2026-05-03T14:52:35.785Z</time></trkpt><trkpt lat="53.7552033" lon="-2.0239717"><ele>260.0</ele><time>2026-05-03T14:52:36.782Z</time></trkpt><trkpt lat="53.755265" lon="-2.023885"><ele>255.6</ele><time>2026-05-03T14:52:37.783Z</time></trkpt><trkpt lat="53.7553133" lon="-2.023775"><ele>251.2</ele><time>2026-05-03T14:52:38.781Z</time></trkpt><trkpt lat="53.7553417" lon="-2.023645"><ele>246.8</ele><time>2026-05-03T14:52:39.781Z</time></trkpt><trkpt lat="53.7553633" lon="-2.0234967"><ele>242.4</ele><time>2026-05-03T14:52:40.783Z</time></trkpt><trkpt lat="53.75538" lon="-2.02334"><ele>238.0</ele><time>2026-05-03T14:52:41.782Z</time></trkpt><trkpt lat="53.7554" lon="-2.0231683"><ele>238.0</ele><time>2026-05-03T14:52:42.783Z</time></trkpt><trkpt lat="53.75542" lon="-2.0229833"><ele>238.0</ele><time>2026-05-03T14:52:43.784Z</time></trkpt><trkpt lat="53.75544" lon="-2.02279"><ele>238.0</ele><time>2026-05-03T14:52:44.782Z</time></trkpt><trkpt lat="53.75546" lon="-2.0225933"><ele>238.0</ele><time>2026-05-03T14:52:45.782Z</time></trkpt><trkpt lat="53.755485" lon="-2.0223967"><ele>239.0</ele><time>2026-05-03T14:52:46.783Z</time></trkpt><trkpt lat="53.7555083" lon="-2.0222017"><ele>240.0</ele><time>2026-05-03T14:52:47.782Z</time></trkpt><trkpt lat="53.7555333" lon="-2.022005"><ele>241.0</ele><time>2026-05-03T14:52:48.783Z</time></trkpt><trkpt lat="53.7555567" lon="-2.0218133"><ele>242.0</ele><time>2026-05-03T14:52:49.785Z</time></trkpt><trkpt lat="53.7555783" lon="-2.0216317"><ele>242.6</ele><time>2026-05-03T14:52:50.781Z</time></trkpt><trkpt lat="53.7556017" lon="-2.0214567"><ele>243.2</ele><time>2026-05-03T14:52:51.781Z</time></trkpt><trkpt lat="53.7556283" lon="-2.02128"><ele>243.8</ele><time>2026-05-03T14:52:52.783Z</time></trkpt><trkpt lat="53.7556567" lon="-2.0211"><ele>244.4</ele><time>2026-05-03T14:52:53.784Z</time></trkpt><trkpt lat="53.755685" lon="-2.020925"><ele>245.0</ele><time>2026-05-03T14:52:54.783Z</time></trkpt><trkpt lat="53.755715" lon="-2.0207517"><ele>245.5</ele><time>2026-05-03T14:52:55.782Z</time></trkpt><trkpt lat="53.75575" lon="-2.0205833"><ele>246.0</ele><time>2026-05-03T14:52:56.782Z</time></trkpt><trkpt lat="53.7547217" lon="-2.024915"><ele>248.33333333333334</ele><time>2026-05-03T14:52:26.783Z</time></trkpt><trkpt lat="53.7547433" lon="-2.024765"><ele>250.66666666666669</ele><time>2026-05-03T14:52:27.782Z</time></trkpt><trkpt lat="53.7547667" lon="-2.0246217"><ele>253.0</ele><time>2026-05-03T14:52:28.783Z</time></trkpt><trkpt lat="53.7547917" lon="-2.024495"><ele>255.33333333333334</ele><time>2026-05-03T14:52:29.782Z</time></trkpt><trkpt lat="53.75482" lon="-2.0243817"><ele>257.6666666666667</ele><time>2026-05-03T14:52:30.783Z</time></trkpt><trkpt lat="53.7548633" lon="-2.0242917"><ele>260.0</ele><time>2026-05-03T14:52:31.783Z</time></trkpt><trkpt lat="53.7549217" lon="-2.02422"><ele>260.0</ele><time>2026-05-03T14:52:32.783Z</time></trkpt><trkpt lat="53.7549933" lon="-2.02416"><ele>260.0</ele><time>2026-05-03T14:52:33.782Z</time></trkpt><trkpt lat="53.7550633" lon="-2.0241067"><ele>260.0</ele><time>2026-05-03T14:52:34.782Z</time></trkpt><trkpt lat="53.7551333" lon="-2.024045"><ele>260.0</ele><time>2026-05-03T14:52:35.785Z</time></trkpt><trkpt lat="53.7552033" lon="-2.0239717"><ele>260.0</ele><time>2026-05-03T14:52:36.782Z</time></trkpt><trkpt lat="53.755265" lon="-2.023885"><ele>260.0</ele><time>2026-05-03T14:52:37.783Z</time></trkpt><trkpt lat="53.7553133" lon="-2.023775"><ele>255.6</ele><time>2026-05-03T14:52:38.781Z</time></trkpt><trkpt lat="53.7553417" lon="-2.023645"><ele>251.2</ele><time>2026-05-03T14:52:39.781Z</time></trkpt><trkpt lat="53.7553633" lon="-2.0234967"><ele>246.8</ele><time>2026-05-03T14:52:40.783Z</time></trkpt><trkpt lat="53.75538" lon="-2.02334"><ele>242.4</ele><time>2026-05-03T14:52:41.782Z</time></trkpt><trkpt lat="53.7554" lon="-2.0231683"><ele>238.0</ele><time>2026-05-03T14:52:42.783Z</time></trkpt><trkpt lat="53.75542" lon="-2.0229833"><ele>238.0</ele><time>2026-05-03T14:52:43.784Z</time></trkpt><trkpt lat="53.75544" lon="-2.02279"><ele>238.0</ele><time>2026-05-03T14:52:44.782Z</time></trkpt><trkpt lat="53.75546" lon="-2.0225933"><ele>238.0</ele><time>2026-05-03T14:52:45.782Z</time></trkpt><trkpt lat="53.755485" lon="-2.0223967"><ele>238.0</ele><time>2026-05-03T14:52:46.783Z</time></trkpt><trkpt lat="53.7555083" lon="-2.0222017"><ele>239.0</ele><time>2026-05-03T14:52:47.782Z</time></trkpt><trkpt lat="53.7555333" lon="-2.022005"><ele>240.0</ele><time>2026-05-03T14:52:48.783Z</time></trkpt><trkpt lat="53.7555567" lon="-2.0218133"><ele>241.0</ele><time>2026-05-03T14:52:49.785Z</time></trkpt><trkpt lat="53.7555783" lon="-2.0216317"><ele>242.0</ele><time>2026-05-03T14:52:50.781Z</time></trkpt><trkpt lat="53.7556017" lon="-2.0214567"><ele>242.6</ele><time>2026-05-03T14:52:51.781Z</time></trkpt><trkpt lat="53.7556283" lon="-2.02128"><ele>243.2</ele><time>2026-05-03T14:52:52.783Z</time></trkpt><trkpt lat="53.7556567" lon="-2.0211"><ele>243.8</ele><time>2026-05-03T14:52:53.784Z</time></trkpt><trkpt lat="53.755685" lon="-2.020925"><ele>244.4</ele><time>2026-05-03T14:52:54.783Z</time></trkpt><trkpt lat="53.755715" lon="-2.0207517"><ele>245.0</ele><time>2026-05-03T14:52:55.782Z</time></trkpt><trkpt lat="53.75575" lon="-2.0205833"><ele>245.2</ele><time>2026-05-03T14:52:56.782Z</time></trkpt><trkpt lat="53.75579" lon="-2.0204183"><ele>245.4</ele><time>2026-05-03T14:52:57.782Z</time></trkpt><trkpt lat="53.75583" lon="-2.02025"><ele>245.60000000000002</ele><time>2026-05-03T14:52:58.783Z</time></trkpt><trkpt lat="53.7558617" lon="-2.0200783"><ele>245.8</ele><time>2026-05-03T14:52:59.783Z</time></trkpt><trkpt lat="53.7558883" lon="-2.0198967"><ele>246.0</ele><time>2026-05-03T14:53:00.782Z</time></trkpt><trkpt lat="53.7558983" lon="-2.0197133"><ele>245.4</ele><time>2026-05-03T14:53:01.783Z</time></trkpt><trkpt lat="53.7559017" lon="-2.0195267"><ele>244.8</ele><time>2026-05-03T14:53:02.783Z</time></trkpt><trkpt lat="53.7559" lon="-2.0193417"><ele>244.20000000000002</ele><time>2026-05-03T14:53:03.781Z</time></trkpt><trkpt lat="53.7558833" lon="-2.01916"><ele>243.60000000000002</ele><time>2026-05-03T14:53:04.781Z</time></trkpt><trkpt lat="53.7558667" lon="-2.0189783"><ele>243.0</ele><time>2026-05-03T14:53:05.783Z</time></trkpt><trkpt lat="53.755845" lon="-2.0188033"><ele>241.0</ele><time>2026-05-03T14:53:06.782Z</time></trkpt><trkpt lat="53.755815" lon="-2.0186517"><ele>239.0</ele><time>2026-05-03T14:53:07.782Z</time></trkpt><trkpt lat="53.7557767" lon="-2.0185233"><ele>237.0</ele><time>2026-05-03T14:53:08.784Z</time></trkpt><trkpt lat="53.7557267" lon="-2.01841"><ele>235.0</ele><time>2026-05-03T14:53:09.782Z</time></trkpt><trkpt lat="53.7556683" lon="-2.018315"><ele>233.0</ele><time>2026-05-03T14:53:10.783Z</time></trkpt><trkpt lat="53.7556" lon="-2.0182333"><ele>231.0</ele><time>2026-05-03T14:53:11.783Z</time></trkpt><trkpt lat="53.7555217" lon="-2.0181633"><ele>226.75</ele><time>2026-05-03T14:53:12.782Z</time></trkpt><trkpt lat="53.75543" lon="-2.0181183"><ele>222.5</ele><time>2026-05-03T14:53:13.783Z</time></trkpt><trkpt lat="53.7553167" lon="-2.0180967"><ele>218.25</ele><time>2026-05-03T14:53:14.783Z</time></trkpt><trkpt lat="53.7551733" lon="-2.0181067"><ele>214.0</ele><time>2026-05-03T14:53:15.783Z</time></trkpt><trkpt lat="53.7550483" lon="-2.0180783"><ele>214.0</ele><time>2026-05-03T14:53:16.783Z</time></trkpt><trkpt lat="53.7549183" lon="-2.018035"><ele>214.0</ele><time>2026-05-03T14:53:17.782Z</time></trkpt><trkpt lat="53.7547883" lon="-2.01798"><ele>214.0</ele><time>2026-05-03T14:53:18.783Z</time></trkpt><trkpt lat="53.7546667" lon="-2.0179183"><ele>214.0</ele><time>2026-05-03T14:53:19.783Z</time></trkpt><trkpt lat="53.7545433" lon="-2.0178633"><ele>214.0</ele><time>2026-05-03T14:53:20.783Z</time></trkpt><trkpt lat="53.75442" lon="-2.0178283"><ele>214.0</ele><time>2026-05-03T14:53:21.782Z</time></trkpt><trkpt lat="53.7542833" lon="-2.0178033"><ele>214.0</ele><time>2026-05-03T14:53:22.783Z</time></trkpt><trkpt lat="53.75415" lon="-2.0177767"><ele>214.0</ele><time>2026-05-03T14:53:23.781Z</time></trkpt><trkpt lat="53.7540217" lon="-2.017745"><ele>214.0</ele><time>2026-05-03T14:53:24.783Z</time></trkpt><trkpt lat="53.7538833" lon="-2.0177267"><ele>214.0</ele><time>2026-05-03T14:53:25.784Z</time></trkpt><trkpt lat="53.7537383" lon="-2.01772"><ele>214.0</ele><time>2026-05-03T14:53:26.782Z</time></trkpt><trkpt lat="53.7535983" lon="-2.0176983"><ele>214.0</ele><time>2026-05-03T14:53:27.781Z</time></trkpt><trkpt lat="53.7534667" lon="-2.01769"><ele>214.0</ele><time>2026-05-03T14:53:28.783Z</time></trkpt><trkpt lat="53.7533367" lon="-2.017675"><ele>214.0</ele><time>2026-05-03T14:53:29.781Z</time></trkpt><trkpt lat="53.7532083" lon="-2.0176567"><ele>214.0</ele><time>2026-05-03T14:53:30.782Z</time></trkpt><trkpt lat="53.753075" lon="-2.0176483"><ele>214.0</ele><time>2026-05-03T14:53:31.783Z</time></trkpt><trkpt lat="53.7529433" lon="-2.0176367"><ele>214.0</ele><time>2026-05-03T14:53:32.782Z</time></trkpt><trkpt lat="53.75281" lon="-2.017625"><ele>214.0</ele><time>2026-05-03T14:53:33.782Z</time></trkpt><trkpt lat="53.752675" lon="-2.0176067"><ele>214.0</ele><time>2026-05-03T14:53:34.783Z</time></trkpt><trkpt lat="53.7525283" lon="-2.0176"><ele>214.0</ele><time>2026-05-03T14:53:35.782Z</time></trkpt><trkpt lat="53.7523817" lon="-2.017585"><ele>212.5</ele><time>2026-05-03T14:53:36.783Z</time></trkpt><trkpt lat="53.7522333" lon="-2.0175617"><ele>211.0</ele><time>2026-05-03T14:53:37.781Z</time></trkpt><trkpt lat="53.7520867" lon="-2.017525"><ele>209.5</ele><time>2026-05-03T14:53:38.783Z</time></trkpt><trkpt lat="53.7519433" lon="-2.01748"><ele>208.0</ele><time>2026-05-03T14:53:39.782Z</time></trkpt><trkpt lat="53.751805" lon="-2.0174317"><ele>202.25</ele><time>2026-05-03T14:53:40.783Z</time></trkpt><trkpt lat="53.75167" lon="-2.01739"><ele>196.5</ele><time>2026-05-03T14:53:41.783Z</time></trkpt><trkpt lat="53.7515333" lon="-2.0173417"><ele>190.75</ele><time>2026-05-03T14:53:42.782Z</time></trkpt><trkpt lat="53.7513817" lon="-2.01731"><ele>185.0</ele><time>2026-05-03T14:53:43.783Z</time></trkpt><trkpt lat="53.75123" lon="-2.0172783"><ele>185.0</ele><time>2026-05-03T14:53:44.783Z</time></trkpt><trkpt lat="53.7510683" lon="-2.0172433"><ele>185.0</ele><time>2026-05-03T14:53:45.782Z</time></trkpt><trkpt lat="53.7509033" lon="-2.0172167"><ele>185.0</ele><time>2026-05-03T14:53:46.781Z</time></trkpt><trkpt lat="53.7507333" lon="-2.017195"><ele>186.0</ele><time>2026-05-03T14:53:47.783Z</time></trkpt><trkpt lat="53.7505733" lon="-2.0171633"><ele>187.0</ele><time>2026-05-03T14:53:48.782Z</time></trkpt><trkpt lat="53.7504017" lon="-2.0171333"><ele>188.0</ele><time>2026-05-03T14:53:49.782Z</time></trkpt><trkpt lat="53.7502183" lon="-2.0171033"><ele>187.5</ele><time>2026-05-03T14:53:50.781Z</time></trkpt><trkpt lat="53.75007" lon="-2.0170633"><ele>187.0</ele><time>2026-05-03T14:53:51.781Z</time></trkpt><trkpt lat="53.7499283" lon="-2.0170317"><ele>186.5</ele><time>2026-05-03T14:53:52.783Z</time></trkpt><trkpt lat="53.7497867" lon="-2.01702"><ele>186.0</ele><time>2026-05-03T14:53:53.783Z</time></trkpt><trkpt lat="53.749655" lon="-2.01702"><ele>186.0</ele><time>2026-05-03T14:53:54.782Z</time></trkpt><trkpt lat="53.74953" lon="-2.017015"><ele>186.0</ele><time>2026-05-03T14:53:55.783Z</time></trkpt><trkpt lat="53.7494083" lon="-2.017005"><ele>186.0</ele><time>2026-05-03T14:53:56.782Z</time></trkpt><trkpt lat="53.7492833" lon="-2.0170017"><ele>186.0</ele><time>2026-05-03T14:53:57.782Z</time></trkpt><trkpt lat="53.74916" lon="-2.0169933"><ele>186.0</ele><time>2026-05-03T14:53:58.781Z</time></trkpt><trkpt lat="53.749045" lon="-2.0169883"><ele>186.0</ele><time>2026-05-03T14:53:59.782Z</time></trkpt><trkpt lat="53.7489483" lon="-2.016975"><ele>186.0</ele><time>2026-05-03T14:54:00.783Z</time></trkpt><trkpt lat="53.7488467" lon="-2.0169717"><ele>186.0</ele><time>2026-05-03T14:54:01.783Z</time></trkpt><trkpt lat="53.7487633" lon="-2.01697"><ele>186.0</ele><time>2026-05-03T14:54:02.782Z</time></trkpt><trkpt lat="53.7486917" lon="-2.016965"><ele>186.0</ele><time>2026-05-03T14:54:03.782Z</time></trkpt><trkpt lat="53.748625" lon="-2.0169517"><ele>186.0</ele><time>2026-05-03T14:54:04.782Z</time></trkpt><trkpt lat="53.7485367" lon="-2.0169333"><ele>186.0</ele><time>2026-05-03T14:54:06.782Z</time></trkpt><trkpt lat="53.7484183" lon="-2.0170183"><ele>186.0</ele><time>2026-05-03T14:54:18.783Z</time></trkpt><trkpt lat="53.7483033" lon="-2.01705"><ele>186.0</ele><time>2026-05-03T14:54:20.783Z</time></trkpt><trkpt lat="53.748225" lon="-2.0170733"><ele>185.0</ele><time>2026-05-03T14:54:21.782Z</time></trkpt><trkpt lat="53.74812" lon="-2.017085"><ele>184.0</ele><time>2026-05-03T14:54:22.783Z</time></trkpt><trkpt lat="53.7480067" lon="-2.0170933"><ele>183.0</ele><time>2026-05-03T14:54:23.781Z</time></trkpt><trkpt lat="53.7478833" lon="-2.01708"><ele>182.0</ele><time>2026-05-03T14:54:24.781Z</time></trkpt><trkpt lat="53.74773" lon="-2.01704"><ele>178.33333333333331</ele><time>2026-05-03T14:54:25.782Z</time></trkpt><trkpt lat="53.7475683" lon="-2.01701"><ele>174.66666666666666</ele><time>2026-05-03T14:54:26.783Z</time></trkpt><trkpt lat="53.7473933" lon="-2.0169683"><ele>171.0</ele><time>2026-05-03T14:54:27.782Z</time></trkpt><trkpt lat="53.7472133" lon="-2.0168833"><ele>171.0</ele><time>2026-05-03T14:54:28.783Z</time></trkpt><trkpt lat="53.74705" lon="-2.0168"><ele>171.0</ele><time>2026-05-03T14:54:29.782Z</time></trkpt><trkpt lat="53.746885" lon="-2.0167433"><ele>171.0</ele><time>2026-05-03T14:54:30.782Z</time></trkpt><trkpt lat="53.7467133" lon="-2.0167083"><ele>172.33333333333334</ele><time>2026-05-03T14:54:31.783Z</time></trkpt><trkpt lat="53.7465433" lon="-2.0167"><ele>173.66666666666669</ele><time>2026-05-03T14:54:32.783Z</time></trkpt><trkpt lat="53.7463767" lon="-2.0167033"><ele>175.0</ele><time>2026-05-03T14:54:33.783Z</time></trkpt><trkpt lat="53.7462117" lon="-2.0167317"><ele>175.0</ele><time>2026-05-03T14:54:34.783Z</time></trkpt><trkpt lat="53.7460633" lon="-2.0167283"><ele>175.0</ele><time>2026-05-03T14:54:35.783Z</time></trkpt><trkpt lat="53.7459367" lon="-2.0167083"><ele>175.0</ele><time>2026-05-03T14:54:36.783Z</time></trkpt><trkpt lat="53.7458117" lon="-2.0166667"><ele>175.0</ele><time>2026-05-03T14:54:37.782Z</time></trkpt><trkpt lat="53.745695" lon="-2.0166117"><ele>171.0</ele><time>2026-05-03T14:54:38.782Z</time></trkpt><trkpt lat="53.745575" lon="-2.0165433"><ele>167.0</ele><time>2026-05-03T14:54:39.782Z</time></trkpt><trkpt lat="53.745455" lon="-2.01647"><ele>163.0</ele><time>2026-05-03T14:54:40.782Z</time></trkpt><trkpt lat="53.7453433" lon="-2.0164117"><ele>159.0</ele><time>2026-05-03T14:54:41.782Z</time></trkpt><trkpt lat="53.7452367" lon="-2.0163733"><ele>159.5</ele><time>2026-05-03T14:54:42.782Z</time></trkpt><trkpt lat="53.7451183" lon="-2.0163467"><ele>160.0</ele><time>2026-05-03T14:54:43.783Z</time></trkpt><trkpt lat="53.7449883" lon="-2.016325"><ele>160.5</ele><time>2026-05-03T14:54:44.782Z</time></trkpt><trkpt lat="53.7448717" lon="-2.01632"><ele>161.0</ele><time>2026-05-03T14:54:45.782Z</time></trkpt><trkpt lat="53.74475" lon="-2.0163267"><ele>161.0</ele><time>2026-05-03T14:54:46.783Z</time></trkpt><trkpt lat="53.7446283" lon="-2.0163417"><ele>161.0</ele><time>2026-05-03T14:54:47.783Z</time></trkpt><trkpt lat="53.7445167" lon="-2.0163517"><ele>161.0</ele><time>2026-05-03T14:54:48.782Z</time></trkpt><trkpt lat="53.744415" lon="-2.01636"><ele>161.0</ele><time>2026-05-03T14:54:49.783Z</time></trkpt><trkpt lat="53.7443233" lon="-2.0163633"><ele>161.0</ele><time>2026-05-03T14:54:50.783Z</time></trkpt><trkpt lat="53.744235" lon="-2.0163533"><ele>161.0</ele><time>2026-05-03T14:54:51.781Z</time></trkpt><trkpt lat="53.74414" lon="-2.0163267"><ele>161.0</ele><time>2026-05-03T14:54:52.783Z</time></trkpt><trkpt lat="53.7440167" lon="-2.01627"><ele>161.0</ele><time>2026-05-03T14:54:53.783Z</time></trkpt><trkpt lat="53.7438867" lon="-2.0162017"><ele>161.0</ele><time>2026-05-03T14:54:54.783Z</time></trkpt><trkpt lat="53.7437483" lon="-2.016125"><ele>161.0</ele><time>2026-05-03T14:54:55.782Z</time></trkpt><trkpt lat="53.743615" lon="-2.01606"><ele>161.0</ele><time>2026-05-03T14:54:56.781Z</time></trkpt><trkpt lat="53.7434883" lon="-2.0160233"><ele>161.0</ele><time>2026-05-03T14:54:57.782Z</time></trkpt><trkpt lat="53.7433667" lon="-2.0159933"><ele>161.0</ele><time>2026-05-03T14:54:58.785Z</time></trkpt><trkpt lat="53.7432467" lon="-2.0159883"><ele>160.25</ele><time>2026-05-03T14:54:59.782Z</time></trkpt><trkpt lat="53.7431267" lon="-2.0160033"><ele>159.5</ele><time>2026-05-03T14:55:00.783Z</time></trkpt><trkpt lat="53.7430067" lon="-2.0160483"><ele>158.75</ele><time>2026-05-03T14:55:01.782Z</time></trkpt><trkpt lat="53.7428967" lon="-2.0161183"><ele>158.0</ele><time>2026-05-03T14:55:02.783Z</time></trkpt><trkpt lat="53.7428033" lon="-2.016215"><ele>158.0</ele><time>2026-05-03T14:55:03.781Z</time></trkpt><trkpt lat="53.7427217" lon="-2.0163267"><ele>158.0</ele><time>2026-05-03T14:55:04.781Z</time></trkpt><trkpt lat="53.74266" lon="-2.0164617"><ele>158.0</ele><time>2026-05-03T14:55:05.783Z</time></trkpt><trkpt lat="53.7426083" lon="-2.0166433"><ele>158.0</ele><time>2026-05-03T14:55:06.782Z</time></trkpt><trkpt lat="53.74256" lon="-2.0168467"><ele>155.5</ele><time>2026-05-03T14:55:07.783Z</time></trkpt><trkpt lat="53.7425117" lon="-2.0170633"><ele>153.0</ele><time>2026-05-03T14:55:08.782Z</time></trkpt><trkpt lat="53.7424633" lon="-2.01728"><ele>150.5</ele><time>2026-05-03T14:55:09.782Z</time></trkpt><trkpt lat="53.7424167" lon="-2.0174983"><ele>148.0</ele><time>2026-05-03T14:55:10.782Z</time></trkpt><trkpt lat="53.7423717" lon="-2.0177067"><ele>148.0</ele><time>2026-05-03T14:55:11.782Z</time></trkpt><trkpt lat="53.7423267" lon="-2.0179083"><ele>148.0</ele><time>2026-05-03T14:55:12.783Z</time></trkpt><trkpt lat="53.7422683" lon="-2.0181"><ele>148.0</ele><time>2026-05-03T14:55:13.782Z</time></trkpt><trkpt lat="53.7422167" lon="-2.0182833"><ele>148.0</ele><time>2026-05-03T14:55:14.781Z</time></trkpt><trkpt lat="53.7421733" lon="-2.01848"><ele>149.25</ele><time>2026-05-03T14:55:15.781Z</time></trkpt><trkpt lat="53.7421317" lon="-2.0186633"><ele>150.5</ele><time>2026-05-03T14:55:16.782Z</time></trkpt><trkpt lat="53.7420983" lon="-2.018845"><ele>151.75</ele><time>2026-05-03T14:55:17.783Z</time></trkpt><trkpt lat="53.7420783" lon="-2.0190317"><ele>153.0</ele><time>2026-05-03T14:55:18.782Z</time></trkpt><trkpt lat="53.74206" lon="-2.0192183"><ele>153.6</ele><time>2026-05-03T14:55:19.782Z</time></trkpt><trkpt lat="53.74204" lon="-2.0194067"><ele>154.20000000000002</ele><time>2026-05-03T14:55:20.782Z</time></trkpt><trkpt lat="53.7420283" lon="-2.0195967"><ele>154.8</ele><time>2026-05-03T14:55:21.783Z</time></trkpt><trkpt lat="53.7420183" lon="-2.01979"><ele>155.4</ele><time>2026-05-03T14:55:22.782Z</time></trkpt><trkpt lat="53.7420183" lon="-2.01997"><ele>156.0</ele><time>2026-05-03T14:55:23.783Z</time></trkpt><trkpt lat="53.7420117" lon="-2.0201433"><ele>156.0</ele><time>2026-05-03T14:55:24.782Z</time></trkpt><trkpt lat="53.742005" lon="-2.0203033"><ele>156.0</ele><time>2026-05-03T14:55:25.782Z</time></trkpt><trkpt lat="53.7420067" lon="-2.0204383"><ele>156.0</ele><time>2026-05-03T14:55:26.782Z</time></trkpt><trkpt lat="53.7420017" lon="-2.0205483"><ele>156.0</ele><time>2026-05-03T14:55:27.782Z</time></trkpt><trkpt lat="53.7420033" lon="-2.0207183"><ele>156.0</ele><time>2026-05-03T14:55:29.784Z</time></trkpt><trkpt lat="53.7420017" lon="-2.0208417"><ele>156.0</ele><time>2026-05-03T14:55:32.781Z</time></trkpt><trkpt lat="53.74199" lon="-2.02104"><ele>155.0</ele><time>2026-05-03T14:56:15.783Z</time></trkpt><trkpt lat="53.741985" lon="-2.0211833"><ele>154.0</ele><time>2026-05-03T14:56:16.781Z</time></trkpt><trkpt lat="53.74198" lon="-2.0213317"><ele>153.0</ele><time>2026-05-03T14:56:17.782Z</time></trkpt><trkpt lat="53.7419817" lon="-2.021475"><ele>152.0</ele><time>2026-05-03T14:56:18.783Z</time></trkpt><trkpt lat="53.7419883" lon="-2.0216167"><ele>151.0</ele><time>2026-05-03T14:56:19.782Z</time></trkpt><trkpt lat="53.742" lon="-2.0217617"><ele>150.0</ele><time>2026-05-03T14:56:20.782Z</time></trkpt><trkpt lat="53.7420233" lon="-2.0219267"><ele>148.25</ele><time>2026-05-03T14:56:21.782Z</time></trkpt><trkpt lat="53.7420533" lon="-2.0220967"><ele>146.5</ele><time>2026-05-03T14:56:22.781Z</time></trkpt><trkpt lat="53.742085" lon="-2.0222833"><ele>144.75</ele><time>2026-05-03T14:56:23.782Z</time></trkpt><trkpt lat="53.7421217" lon="-2.022475"><ele>143.0</ele><time>2026-05-03T14:56:24.782Z</time></trkpt><trkpt lat="53.7421583" lon="-2.022665"><ele>141.0</ele><time>2026-05-03T14:56:25.781Z</time></trkpt><trkpt lat="53.742195" lon="-2.0228433"><ele>139.0</ele><time>2026-05-03T14:56:26.783Z</time></trkpt><trkpt lat="53.742235" lon="-2.0230067"><ele>137.0</ele><time>2026-05-03T14:56:27.782Z</time></trkpt><trkpt lat="53.7422733" lon="-2.02317"><ele>135.0</ele><time>2026-05-03T14:56:28.783Z</time></trkpt><trkpt lat="53.742305" lon="-2.023335"><ele>133.0</ele><time>2026-05-03T14:56:29.782Z</time></trkpt><trkpt lat="53.74233" lon="-2.0234983"><ele>130.20000000000002</ele><time>2026-05-03T14:56:30.782Z</time></trkpt><trkpt lat="53.74234" lon="-2.0236633"><ele>127.4</ele><time>2026-05-03T14:56:31.781Z</time></trkpt><trkpt lat="53.7423417" lon="-2.0238183"><ele>124.60000000000001</ele><time>2026-05-03T14:56:32.783Z</time></trkpt><trkpt lat="53.7423333" lon="-2.0239667"><ele>121.80000000000001</ele><time>2026-05-03T14:56:33.781Z</time></trkpt><trkpt lat="53.7423083" lon="-2.0241267"><ele>119.0</ele><time>2026-05-03T14:56:34.783Z</time></trkpt><trkpt lat="53.7422783" lon="-2.0242883"><ele>117.2</ele><time>2026-05-03T14:56:35.783Z</time></trkpt><trkpt lat="53.7422433" lon="-2.0244467"><ele>115.4</ele><time>2026-05-03T14:56:36.783Z</time></trkpt><trkpt lat="53.7421983" lon="-2.0245967"><ele>113.6</ele><time>2026-05-03T14:56:37.782Z</time></trkpt><trkpt lat="53.7421433" lon="-2.0247467"><ele>111.8</ele><time>2026-05-03T14:56:38.785Z</time></trkpt><trkpt lat="53.7420833" lon="-2.0248867"><ele>110.0</ele><time>2026-05-03T14:56:39.784Z</time></trkpt><trkpt lat="53.7420217" lon="-2.025025"><ele>109.49999999999999</ele><time>2026-05-03T14:56:40.783Z</time></trkpt><trkpt lat="53.74196" lon="-2.0251433"><ele>109.0</ele><time>2026-05-03T14:56:41.782Z</time></trkpt><trkpt lat="53.7418933" lon="-2.025235"><ele>108.5</ele><time>2026-05-03T14:56:42.783Z</time></trkpt><trkpt lat="53.741835" lon="-2.025305"><ele>108.0</ele><time>2026-05-03T14:56:43.782Z</time></trkpt><trkpt lat="53.7417417" lon="-2.0254067"><ele>107.49999999999999</ele><time>2026-05-03T14:56:45.782Z</time></trkpt><trkpt lat="53.7417067" lon="-2.0255233"><ele>107.0</ele><time>2026-05-03T14:56:47.782Z</time></trkpt><trkpt lat="53.741785" lon="-2.0255483"><ele>107.0</ele><time>2026-05-03T14:56:51.782Z</time></trkpt><trkpt lat="53.74188" lon="-2.0254083"><ele>106.99999999999999</ele><time>2026-05-03T14:56:53.782Z</time></trkpt><trkpt lat="53.74193" lon="-2.0253033"><ele>106.99999999999999</ele><time>2026-05-03T14:56:54.781Z</time></trkpt><trkpt lat="53.7419917" lon="-2.02515"><ele>107.0</ele><time>2026-05-03T14:56:55.782Z</time></trkpt><trkpt lat="53.7420617" lon="-2.0249633"><ele>107.0</ele><time>2026-05-03T14:56:56.783Z</time></trkpt><trkpt lat="53.7421283" lon="-2.0247817"><ele>107.75</ele><time>2026-05-03T14:56:57.782Z</time></trkpt><trkpt lat="53.742205" lon="-2.0245783"><ele>108.5</ele><time>2026-05-03T14:56:58.783Z</time></trkpt><trkpt lat="53.7422567" lon="-2.0243933"><ele>109.25</ele><time>2026-05-03T14:56:59.783Z</time></trkpt><trkpt lat="53.74231" lon="-2.0242017"><ele>110.0</ele><time>2026-05-03T14:57:00.782Z</time></trkpt><trkpt lat="53.7423467" lon="-2.02401"><ele>112.25</ele><time>2026-05-03T14:57:01.781Z</time></trkpt><trkpt lat="53.7423633" lon="-2.02382"><ele>114.5</ele><time>2026-05-03T14:57:02.782Z</time></trkpt><trkpt lat="53.74236" lon="-2.02363"><ele>116.75</ele><time>2026-05-03T14:57:03.781Z</time></trkpt><trkpt lat="53.7423417" lon="-2.02343"><ele>119.0</ele><time>2026-05-03T14:57:04.781Z</time></trkpt><trkpt lat="53.742305" lon="-2.0232383"><ele>122.5</ele><time>2026-05-03T14:57:05.781Z</time></trkpt><trkpt lat="53.742265" lon="-2.0230533"><ele>126.0</ele><time>2026-05-03T14:57:06.793Z</time></trkpt><trkpt lat="53.7422233" lon="-2.022865"><ele>129.5</ele><time>2026-05-03T14:57:07.782Z</time></trkpt><trkpt lat="53.7421833" lon="-2.0226717"><ele>133.0</ele><time>2026-05-03T14:57:08.789Z</time></trkpt><trkpt lat="53.7421383" lon="-2.0224783"><ele>135.0</ele><time>2026-05-03T14:57:09.783Z</time></trkpt><trkpt lat="53.7420983" lon="-2.0222883"><ele>137.0</ele><time>2026-05-03T14:57:10.784Z</time></trkpt><trkpt lat="53.7420683" lon="-2.0221117"><ele>139.0</ele><time>2026-05-03T14:57:11.782Z</time></trkpt><trkpt lat="53.74205" lon="-2.0219617"><ele>141.0</ele><time>2026-05-03T14:57:12.783Z</time></trkpt><trkpt lat="53.74204" lon="-2.0218467"><ele>143.0</ele><time>2026-05-03T14:57:13.783Z</time></trkpt><trkpt lat="53.742035" lon="-2.0217183"><ele>144.75</ele><time>2026-05-03T14:57:15.783Z</time></trkpt><trkpt lat="53.7419833" lon="-2.02161"><ele>146.5</ele><time>2026-05-03T14:57:42.783Z</time></trkpt><trkpt lat="53.74195" lon="-2.021445"><ele>148.25</ele><time>2026-05-03T14:57:44.783Z</time></trkpt><trkpt lat="53.7419483" lon="-2.02133"><ele>150.0</ele><time>2026-05-03T14:57:45.782Z</time></trkpt><trkpt lat="53.74189" lon="-2.02098"><ele>141.25</ele><time>2026-05-03T14:57:47.783Z</time></trkpt><trkpt lat="53.7418617" lon="-2.0208267"><ele>132.5</ele><time>2026-05-03T14:57:48.782Z</time></trkpt><trkpt lat="53.7418233" lon="-2.02063"><ele>123.75</ele><time>2026-05-03T14:57:49.783Z</time></trkpt><trkpt lat="53.741795" lon="-2.0204"><ele>115.0</ele><time>2026-05-03T14:57:50.784Z</time></trkpt><trkpt lat="53.7417533" lon="-2.02006"><ele>115.5</ele><time>2026-05-03T14:57:51.782Z</time></trkpt><trkpt lat="53.7416967" lon="-2.0198133"><ele>116.0</ele><time>2026-05-03T14:57:52.782Z</time></trkpt><trkpt lat="53.7416467" lon="-2.0196183"><ele>116.5</ele><time>2026-05-03T14:57:53.783Z</time></trkpt><trkpt lat="53.741575" lon="-2.019435"><ele>117.0</ele><time>2026-05-03T14:57:54.783Z</time></trkpt><trkpt lat="53.7415133" lon="-2.0192767"><ele>117.0</ele><time>2026-05-03T14:57:55.784Z</time></trkpt><trkpt lat="53.7414683" lon="-2.01913"><ele>116.99999999999999</ele><time>2026-05-03T14:57:56.783Z</time></trkpt><trkpt lat="53.7414217" lon="-2.0189883"><ele>116.99999999999999</ele><time>2026-05-03T14:57:57.784Z</time></trkpt><trkpt lat="53.7413717" lon="-2.0188417"><ele>117.0</ele><time>2026-05-03T14:57:58.783Z</time></trkpt><trkpt lat="53.7413317" lon="-2.018695"><ele>117.0</ele><time>2026-05-03T14:57:59.783Z</time></trkpt><trkpt lat="53.7413033" lon="-2.0185667"><ele>117.0</ele><time>2026-05-03T14:58:00.782Z</time></trkpt><trkpt lat="53.741295" lon="-2.01843"><ele>117.0</ele><time>2026-05-03T14:58:01.784Z</time></trkpt><trkpt lat="53.7413017" lon="-2.0182817"><ele>117.0</ele><time>2026-05-03T14:58:02.783Z</time></trkpt><trkpt lat="53.7413117" lon="-2.0181317"><ele>117.0</ele><time>2026-05-03T14:58:03.782Z</time></trkpt><trkpt lat="53.7413217" lon="-2.0179767"><ele>117.0</ele><time>2026-05-03T14:58:04.783Z</time></trkpt><trkpt lat="53.7413283" lon="-2.0178183"><ele>117.0</ele><time>2026-05-03T14:58:05.784Z</time></trkpt><trkpt lat="53.7413283" lon="-2.01766"><ele>116.5</ele><time>2026-05-03T14:58:06.783Z</time></trkpt><trkpt lat="53.7413283" lon="-2.0175133"><ele>116.0</ele><time>2026-05-03T14:58:07.783Z</time></trkpt><trkpt lat="53.74133" lon="-2.0173767"><ele>115.5</ele><time>2026-05-03T14:58:08.784Z</time></trkpt><trkpt lat="53.7413367" lon="-2.017255"><ele>115.0</ele><time>2026-05-03T14:58:09.783Z</time></trkpt><trkpt lat="53.74135" lon="-2.0171333"><ele>114.5</ele><time>2026-05-03T14:58:10.784Z</time></trkpt><trkpt lat="53.7413567" lon="-2.0170117"><ele>114.0</ele><time>2026-05-03T14:58:11.783Z</time></trkpt><trkpt lat="53.7413633" lon="-2.0168917"><ele>113.83333333333333</ele><time>2026-05-03T14:58:12.783Z</time></trkpt><trkpt lat="53.7413667" lon="-2.01677"><ele>113.66666666666666</ele><time>2026-05-03T14:58:13.782Z</time></trkpt><trkpt lat="53.741375" lon="-2.016645"><ele>113.5</ele><time>2026-05-03T14:58:14.783Z</time></trkpt><trkpt lat="53.741385" lon="-2.0165267"><ele>113.33333333333333</ele><time>2026-05-03T14:58:15.783Z</time></trkpt><trkpt lat="53.7413983" lon="-2.01634"><ele>113.16666666666666</ele><time>2026-05-03T14:58:17.785Z</time></trkpt><trkpt lat="53.74141" lon="-2.0162317"><ele>113.0</ele><time>2026-05-03T14:58:20.783Z</time></trkpt><trkpt lat="53.7413983" lon="-2.0161217"><ele>112.83333333333333</ele><time>2026-05-03T14:58:25.783Z</time></trkpt><trkpt lat="53.7413833" lon="-2.0159583"><ele>112.66666666666666</ele><time>2026-05-03T14:58:29.783Z</time></trkpt><trkpt lat="53.7413933" lon="-2.015795"><ele>112.5</ele><time>2026-05-03T14:58:31.785Z</time></trkpt><trkpt lat="53.7413917" lon="-2.015595"><ele>112.33333333333334</ele><time>2026-05-03T14:58:33.783Z</time></trkpt><trkpt lat="53.7413883" lon="-2.01548"><ele>112.16666666666667</ele><time>2026-05-03T14:58:34.782Z</time></trkpt><trkpt lat="53.741395" lon="-2.01537"><ele>112.0</ele><time>2026-05-03T14:58:35.782Z</time></trkpt><trkpt lat="53.7414" lon="-2.0152517"><ele>111.33333333333334</ele><time>2026-05-03T14:58:36.783Z</time></trkpt><trkpt lat="53.7413983" lon="-2.015135"><ele>110.66666666666667</ele><time>2026-05-03T14:58:37.782Z</time></trkpt><trkpt lat="53.74139" lon="-2.01502"><ele>110.0</ele><time>2026-05-03T14:58:38.782Z</time></trkpt><trkpt lat="53.7413633" lon="-2.0148267"><ele>109.33333333333334</ele><time>2026-05-03T14:58:40.784Z</time></trkpt><trkpt lat="53.7413133" lon="-2.0147"><ele>108.66666666666667</ele><time>2026-05-03T14:58:42.783Z</time></trkpt><trkpt lat="53.74127" lon="-2.0146"><ele>108.0</ele><time>2026-05-03T14:58:44.782Z</time></trkpt><trkpt lat="53.7412383" lon="-2.014465"><ele>107.0</ele><time>2026-05-03T14:58:46.783Z</time></trkpt><trkpt lat="53.741215" lon="-2.0143567"><ele>106.00000000000001</ele><time>2026-05-03T14:58:47.783Z</time></trkpt><trkpt lat="53.741205" lon="-2.0142367"><ele>105.0</ele><time>2026-05-03T14:58:48.782Z</time></trkpt><trkpt lat="53.741195" lon="-2.0141233"><ele>104.0</ele><time>2026-05-03T14:58:49.784Z</time></trkpt><trkpt lat="53.741165" lon="-2.0139217"><ele>103.0</ele><time>2026-05-03T14:58:51.783Z</time></trkpt><trkpt lat="53.74112" lon="-2.0137333"><ele>102.75</ele><time>2026-05-03T14:58:53.785Z</time></trkpt><trkpt lat="53.7410617" lon="-2.01355"><ele>102.5</ele><time>2026-05-03T14:58:55.783Z</time></trkpt><trkpt lat="53.7410067" lon="-2.0133867"><ele>102.25</ele><time>2026-05-03T14:58:57.783Z</time></trkpt><trkpt lat="53.7409533" lon="-2.01322"><ele>102.0</ele><time>2026-05-03T14:58:59.782Z</time></trkpt><trkpt lat="53.7409017" lon="-2.013025"><ele>102.0</ele><time>2026-05-03T14:59:01.784Z</time></trkpt><trkpt lat="53.74088" lon="-2.012925"><ele>102.0</ele><time>2026-05-03T14:59:02.782Z</time></trkpt><trkpt lat="53.7408583" lon="-2.0128217"><ele>102.0</ele><time>2026-05-03T14:59:03.784Z</time></trkpt><trkpt lat="53.7408367" lon="-2.01272"><ele>102.0</ele><time>2026-05-03T14:59:04.783Z</time></trkpt><trkpt lat="53.7408083" lon="-2.0126183"><ele>102.0</ele><time>2026-05-03T14:59:05.783Z</time></trkpt><trkpt lat="53.74078" lon="-2.0125083"><ele>102.0</ele><time>2026-05-03T14:59:06.783Z</time></trkpt><trkpt lat="53.7407517" lon="-2.0123867"><ele>102.0</ele><time>2026-05-03T14:59:07.784Z</time></trkpt><trkpt lat="53.7407233" lon="-2.0122633"><ele>101.83333333333333</ele><time>2026-05-03T14:59:08.783Z</time></trkpt><trkpt lat="53.7406933" lon="-2.012145"><ele>101.66666666666666</ele><time>2026-05-03T14:59:09.784Z</time></trkpt><trkpt lat="53.7406633" lon="-2.0120233"><ele>101.5</ele><time>2026-05-03T14:59:10.784Z</time></trkpt><trkpt lat="53.7406317" lon="-2.0118967"><ele>101.33333333333333</ele><time>2026-05-03T14:59:11.783Z</time></trkpt><trkpt lat="53.7406033" lon="-2.0117683"><ele>101.16666666666666</ele><time>2026-05-03T14:59:12.783Z</time></trkpt><trkpt lat="53.7405733" lon="-2.0116467"><ele>101.0</ele><time>2026-05-03T14:59:13.782Z</time></trkpt><trkpt lat="53.7405483" lon="-2.0115283"><ele>101.66666666666666</ele><time>2026-05-03T14:59:14.784Z</time></trkpt><trkpt lat="53.74052" lon="-2.01141"><ele>102.33333333333333</ele><time>2026-05-03T14:59:15.784Z</time></trkpt><trkpt lat="53.74049" lon="-2.01129"><ele>103.0</ele><time>2026-05-03T14:59:16.783Z</time></trkpt><trkpt lat="53.740455" lon="-2.0111683"><ele>103.66666666666666</ele><time>2026-05-03T14:59:17.783Z</time></trkpt><trkpt lat="53.7404267" lon="-2.01105"><ele>104.33333333333333</ele><time>2026-05-03T14:59:18.782Z</time></trkpt><trkpt lat="53.7403917" lon="-2.0109317"><ele>105.0</ele><time>2026-05-03T14:59:19.783Z</time></trkpt><trkpt lat="53.7403617" lon="-2.010815"><ele>105.0</ele><time>2026-05-03T14:59:20.783Z</time></trkpt><trkpt lat="53.740335" lon="-2.0107017"><ele>105.0</ele><time>2026-05-03T14:59:21.783Z</time></trkpt><trkpt lat="53.7403067" lon="-2.0105817"><ele>105.0</ele><time>2026-05-03T14:59:22.783Z</time></trkpt><trkpt lat="53.7402767" lon="-2.010455"><ele>105.0</ele><time>2026-05-03T14:59:23.782Z</time></trkpt><trkpt lat="53.7402517" lon="-2.0103317"><ele>105.0</ele><time>2026-05-03T14:59:24.782Z</time></trkpt><trkpt lat="53.740235" lon="-2.0102133"><ele>105.0</ele><time>2026-05-03T14:59:25.783Z</time></trkpt><trkpt lat="53.7402133" lon="-2.0100983"><ele>106.42857142857143</ele><time>2026-05-03T14:59:26.784Z</time></trkpt><trkpt lat="53.7401883" lon="-2.009985"><ele>107.85714285714286</ele><time>2026-05-03T14:59:27.783Z</time></trkpt><trkpt lat="53.7401617" lon="-2.0098717"><ele>109.28571428571428</ele><time>2026-05-03T14:59:28.783Z</time></trkpt><trkpt lat="53.7401283" lon="-2.0097633"><ele>110.71428571428571</ele><time>2026-05-03T14:59:29.785Z</time></trkpt><trkpt lat="53.7400883" lon="-2.0096583"><ele>112.14285714285714</ele><time>2026-05-03T14:59:30.783Z</time></trkpt><trkpt lat="53.7400433" lon="-2.0095583"><ele>113.57142857142856</ele><time>2026-05-03T14:59:31.783Z</time></trkpt><trkpt lat="53.739995" lon="-2.009475"><ele>114.99999999999999</ele><time>2026-05-03T14:59:32.783Z</time></trkpt><trkpt lat="53.7399433" lon="-2.0093967"><ele>115.00000000000001</ele><time>2026-05-03T14:59:33.783Z</time></trkpt><trkpt lat="53.7398933" lon="-2.009315"><ele>115.0</ele><time>2026-05-03T14:59:34.783Z</time></trkpt><trkpt lat="53.7398433" lon="-2.0092283"><ele>115.0</ele><time>2026-05-03T14:59:35.782Z</time></trkpt><trkpt lat="53.739785" lon="-2.009135"><ele>115.0</ele><time>2026-05-03T14:59:36.783Z</time></trkpt><trkpt lat="53.739715" lon="-2.0090433"><ele>115.00000000000001</ele><time>2026-05-03T14:59:37.784Z</time></trkpt><trkpt lat="53.7396467" lon="-2.0089533"><ele>115.0</ele><time>2026-05-03T14:59:38.783Z</time></trkpt><trkpt lat="53.7395817" lon="-2.0088633"><ele>115.4</ele><time>2026-05-03T14:59:39.784Z</time></trkpt><trkpt lat="53.739515" lon="-2.0087733"><ele>115.8</ele><time>2026-05-03T14:59:40.784Z</time></trkpt><trkpt lat="53.7394467" lon="-2.00867"><ele>116.19999999999999</ele><time>2026-05-03T14:59:41.783Z</time></trkpt><trkpt lat="53.7393583" lon="-2.0085483"><ele>116.6</ele><time>2026-05-03T14:59:42.782Z</time></trkpt><trkpt lat="53.73926" lon="-2.0083817"><ele>117.0</ele><time>2026-05-03T14:59:43.784Z</time></trkpt><trkpt lat="53.739165" lon="-2.0082017"><ele>117.0</ele><time>2026-05-03T14:59:44.784Z</time></trkpt><trkpt lat="53.73907" lon="-2.008015"><ele>117.0</ele><time>2026-05-03T14:59:45.786Z</time></trkpt><trkpt lat="53.7389833" lon="-2.007845"><ele>117.0</ele><time>2026-05-03T14:59:46.782Z</time></trkpt><trkpt lat="53.7389033" lon="-2.00769"><ele>117.0</ele><time>2026-05-03T14:59:47.783Z</time></trkpt><trkpt lat="53.7388283" lon="-2.0075467"><ele>115.19999999999999</ele><time>2026-05-03T14:59:48.783Z</time></trkpt><trkpt lat="53.7387517" lon="-2.0074067"><ele>113.39999999999999</ele><time>2026-05-03T14:59:49.784Z</time></trkpt><trkpt lat="53.7386733" lon="-2.0072733"><ele>111.60000000000001</ele><time>2026-05-03T14:59:50.782Z</time></trkpt><trkpt lat="53.7385983" lon="-2.0071367"><ele>109.80000000000001</ele><time>2026-05-03T14:59:51.783Z</time></trkpt><trkpt lat="53.7385233" lon="-2.007005"><ele>108.0</ele><time>2026-05-03T14:59:52.783Z</time></trkpt><trkpt lat="53.7384567" lon="-2.0068633"><ele>108.0</ele><time>2026-05-03T14:59:53.784Z</time></trkpt><trkpt lat="53.73839" lon="-2.0067167"><ele>108.0</ele><time>2026-05-03T14:59:54.783Z</time></trkpt><trkpt lat="53.7383233" lon="-2.00657"><ele>108.0</ele><time>2026-05-03T14:59:55.783Z</time></trkpt><trkpt lat="53.7382533" lon="-2.006405"><ele>108.0</ele><time>2026-05-03T14:59:56.785Z</time></trkpt><trkpt lat="53.7381817" lon="-2.00625"><ele>110.0</ele><time>2026-05-03T14:59:57.782Z</time></trkpt><trkpt lat="53.7381117" lon="-2.0060867"><ele>112.0</ele><time>2026-05-03T14:59:58.782Z</time></trkpt><trkpt lat="53.7380483" lon="-2.005915"><ele>114.0</ele><time>2026-05-03T14:59:59.784Z</time></trkpt><trkpt lat="53.7379817" lon="-2.0057533"><ele>116.0</ele><time>2026-05-03T15:00:00.783Z</time></trkpt><trkpt lat="53.73792" lon="-2.0055867"><ele>114.0</ele><time>2026-05-03T15:00:01.783Z</time></trkpt><trkpt lat="53.7378533" lon="-2.0054267"><ele>112.0</ele><time>2026-05-03T15:00:02.784Z</time></trkpt><trkpt lat="53.7377783" lon="-2.005275"><ele>110.0</ele><time>2026-05-03T15:00:03.783Z</time></trkpt><trkpt lat="53.73771" lon="-2.0051217"><ele>108.0</ele><time>2026-05-03T15:00:04.783Z</time></trkpt><trkpt lat="53.737645" lon="-2.0049683"><ele>108.0</ele><time>2026-05-03T15:00:05.784Z</time></trkpt><trkpt lat="53.7375783" lon="-2.004805"><ele>108.0</ele><time>2026-05-03T15:00:06.783Z</time></trkpt><trkpt lat="53.7375033" lon="-2.0046517"><ele>108.0</ele><time>2026-05-03T15:00:07.783Z</time></trkpt><trkpt lat="53.7374433" lon="-2.004485"><ele>108.0</ele><time>2026-05-03T15:00:08.784Z</time></trkpt><trkpt lat="53.7373867" lon="-2.0043033"><ele>111.25</ele><time>2026-05-03T15:00:09.783Z</time></trkpt><trkpt lat="53.7373283" lon="-2.00412"><ele>114.5</ele><time>2026-05-03T15:00:10.785Z</time></trkpt><trkpt lat="53.7372717" lon="-2.0039417"><ele>117.75</ele><time>2026-05-03T15:00:11.782Z</time></trkpt><trkpt lat="53.7372183" lon="-2.00376"><ele>121.0</ele><time>2026-05-03T15:00:12.783Z</time></trkpt><trkpt lat="53.73716" lon="-2.0035817"><ele>121.0</ele><time>2026-05-03T15:00:13.782Z</time></trkpt><trkpt lat="53.7370983" lon="-2.00341"><ele>121.0</ele><time>2026-05-03T15:00:14.783Z</time></trkpt><trkpt lat="53.737035" lon="-2.0032367"><ele>121.0</ele><time>2026-05-03T15:00:15.782Z</time></trkpt><trkpt lat="53.73697" lon="-2.0030617"><ele>121.0</ele><time>2026-05-03T15:00:16.783Z</time></trkpt><trkpt lat="53.736905" lon="-2.0028883"><ele>121.25</ele><time>2026-05-03T15:00:17.783Z</time></trkpt><trkpt lat="53.736835" lon="-2.0027183"><ele>121.5</ele><time>2026-05-03T15:00:18.783Z</time></trkpt><trkpt lat="53.73675" lon="-2.0025733"><ele>121.75</ele><time>2026-05-03T15:00:19.785Z</time></trkpt><trkpt lat="53.7366717" lon="-2.00242"><ele>122.0</ele><time>2026-05-03T15:00:20.784Z</time></trkpt><trkpt lat="53.7365883" lon="-2.0022617"><ele>122.0</ele><time>2026-05-03T15:00:21.784Z</time></trkpt><trkpt lat="53.73652" lon="-2.0020883"><ele>122.0</ele><time>2026-05-03T15:00:22.782Z</time></trkpt><trkpt lat="53.7364433" lon="-2.0019217"><ele>122.0</ele><time>2026-05-03T15:00:23.784Z</time></trkpt><trkpt lat="53.73637" lon="-2.0017483"><ele>122.0</ele><time>2026-05-03T15:00:24.782Z</time></trkpt><trkpt lat="53.7362983" lon="-2.0015733"><ele>124.5</ele><time>2026-05-03T15:00:25.784Z</time></trkpt><trkpt lat="53.736235" lon="-2.0013983"><ele>127.0</ele><time>2026-05-03T15:00:26.785Z</time></trkpt><trkpt lat="53.7361617" lon="-2.0012333"><ele>129.5</ele><time>2026-05-03T15:00:27.784Z</time></trkpt><trkpt lat="53.7360867" lon="-2.001075"><ele>132.0</ele><time>2026-05-03T15:00:28.786Z</time></trkpt><trkpt lat="53.7360233" lon="-2.0009"><ele>127.0</ele><time>2026-05-03T15:00:29.782Z</time></trkpt><trkpt lat="53.73596" lon="-2.0007317"><ele>122.0</ele><time>2026-05-03T15:00:30.784Z</time></trkpt><trkpt lat="53.735895" lon="-2.0005533"><ele>117.0</ele><time>2026-05-03T15:00:31.785Z</time></trkpt><trkpt lat="53.7358233" lon="-2.0003867"><ele>112.0</ele><time>2026-05-03T15:00:32.782Z</time></trkpt><trkpt lat="53.7357517" lon="-2.0002233"><ele>112.0</ele><time>2026-05-03T15:00:33.782Z</time></trkpt><trkpt lat="53.7356867" lon="-2.0000583"><ele>112.0</ele><time>2026-05-03T15:00:34.783Z</time></trkpt><trkpt lat="53.735625" lon="-1.9998933"><ele>112.0</ele><time>2026-05-03T15:00:35.783Z</time></trkpt><trkpt lat="53.7355667" lon="-1.9997333"><ele>112.0</ele><time>2026-05-03T15:00:36.783Z</time></trkpt><trkpt lat="53.73551" lon="-1.99958"><ele>112.0</ele><time>2026-05-03T15:00:37.785Z</time></trkpt><trkpt lat="53.7354517" lon="-1.99944"><ele>111.99999999999999</ele><time>2026-05-03T15:00:38.783Z</time></trkpt><trkpt lat="53.735405" lon="-1.9992917"><ele>111.99999999999999</ele><time>2026-05-03T15:00:39.782Z</time></trkpt><trkpt lat="53.7353617" lon="-1.9991333"><ele>112.0</ele><time>2026-05-03T15:00:40.784Z</time></trkpt><trkpt lat="53.73532" lon="-1.9989717"><ele>112.0</ele><time>2026-05-03T15:00:41.783Z</time></trkpt><trkpt lat="53.73528" lon="-1.99881"><ele>113.6</ele><time>2026-05-03T15:00:42.783Z</time></trkpt><trkpt lat="53.7352433" lon="-1.9986383"><ele>115.19999999999999</ele><time>2026-05-03T15:00:43.785Z</time></trkpt><trkpt lat="53.7352067" lon="-1.9984617"><ele>116.8</ele><time>2026-05-03T15:00:44.783Z</time></trkpt><trkpt lat="53.7351767" lon="-1.998285"><ele>118.4</ele><time>2026-05-03T15:00:45.782Z</time></trkpt><trkpt lat="53.7351533" lon="-1.9981133"><ele>120.0</ele><time>2026-05-03T15:00:46.784Z</time></trkpt><trkpt lat="53.73513" lon="-1.9979433"><ele>116.2</ele><time>2026-05-03T15:00:47.783Z</time></trkpt><trkpt lat="53.7351117" lon="-1.99777"><ele>112.4</ele><time>2026-05-03T15:00:48.782Z</time></trkpt><trkpt lat="53.7350917" lon="-1.997595"><ele>108.6</ele><time>2026-05-03T15:00:49.784Z</time></trkpt><trkpt lat="53.7350783" lon="-1.9974233"><ele>104.8</ele><time>2026-05-03T15:00:50.783Z</time></trkpt><trkpt lat="53.735065" lon="-1.997255"><ele>101.0</ele><time>2026-05-03T15:00:51.782Z</time></trkpt><trkpt lat="53.7350533" lon="-1.9970967"><ele>100.83333333333333</ele><time>2026-05-03T15:00:52.783Z</time></trkpt><trkpt lat="53.7350367" lon="-1.9969467"><ele>100.66666666666666</ele><time>2026-05-03T15:00:53.784Z</time></trkpt><trkpt lat="53.73502" lon="-1.9968017"><ele>100.5</ele><time>2026-05-03T15:00:54.783Z</time></trkpt><trkpt lat="53.7349967" lon="-1.99666"><ele>100.33333333333334</ele><time>2026-05-03T15:00:55.783Z</time></trkpt><trkpt lat="53.73498" lon="-1.9965117"><ele>100.16666666666667</ele><time>2026-05-03T15:00:56.783Z</time></trkpt><trkpt lat="53.73496" lon="-1.9963583"><ele>100.0</ele><time>2026-05-03T15:00:57.783Z</time></trkpt><trkpt lat="53.7349333" lon="-1.9962133"><ele>99.8</ele><time>2026-05-03T15:00:58.783Z</time></trkpt><trkpt lat="53.7349117" lon="-1.9960683"><ele>99.6</ele><time>2026-05-03T15:00:59.784Z</time></trkpt><trkpt lat="53.7348883" lon="-1.99593"><ele>99.4</ele><time>2026-05-03T15:01:00.785Z</time></trkpt><trkpt lat="53.7348667" lon="-1.9958017"><ele>99.2</ele><time>2026-05-03T15:01:01.783Z</time></trkpt><trkpt lat="53.7348417" lon="-1.9956717"><ele>99.0</ele><time>2026-05-03T15:01:02.783Z</time></trkpt><trkpt lat="53.7349067" lon="-1.9961217"><ele>99.0</ele><time>2026-05-03T15:01:04.147Z</time></trkpt><trkpt lat="53.7347467" lon="-1.995705"><ele>99.0</ele><time>2026-05-03T15:01:05.35Z</time></trkpt><trkpt lat="53.7347017" lon="-1.9952467"><ele>100.0</ele><time>2026-05-03T15:01:06.283Z</time></trkpt><trkpt lat="53.7346717" lon="-1.9949783"><ele>101.0</ele><time>2026-05-03T15:01:07.782Z</time></trkpt><trkpt lat="53.73466" lon="-1.9948017"><ele>102.0</ele><time>2026-05-03T15:01:08.783Z</time></trkpt><trkpt lat="53.7346417" lon="-1.99464"><ele>103.0</ele><time>2026-05-03T15:01:09.784Z</time></trkpt><trkpt lat="53.73462" lon="-1.994465"><ele>103.0</ele><time>2026-05-03T15:01:10.784Z</time></trkpt><trkpt lat="53.7346" lon="-1.994295"><ele>103.0</ele><time>2026-05-03T15:01:11.783Z</time></trkpt><trkpt lat="53.7345667" lon="-1.994115"><ele>103.0</ele><time>2026-05-03T15:01:12.783Z</time></trkpt><trkpt lat="53.73453" lon="-1.9939483"><ele>103.0</ele><time>2026-05-03T15:01:13.782Z</time></trkpt><trkpt lat="53.7344983" lon="-1.9937817"><ele>103.0</ele><time>2026-05-03T15:01:14.784Z</time></trkpt><trkpt lat="53.734465" lon="-1.993625"><ele>103.60000000000001</ele><time>2026-05-03T15:01:15.782Z</time></trkpt><trkpt lat="53.7344267" lon="-1.9934733"><ele>104.2</ele><time>2026-05-03T15:01:16.782Z</time></trkpt><trkpt lat="53.7343883" lon="-1.9933183"><ele>104.8</ele><time>2026-05-03T15:01:17.783Z</time></trkpt><trkpt lat="53.734345" lon="-1.993165"><ele>105.4</ele><time>2026-05-03T15:01:18.783Z</time></trkpt><trkpt lat="53.7343017" lon="-1.9930083"><ele>106.0</ele><time>2026-05-03T15:01:19.783Z</time></trkpt><trkpt lat="53.7342617" lon="-1.992855"><ele>104.6</ele><time>2026-05-03T15:01:20.784Z</time></trkpt><trkpt lat="53.7342183" lon="-1.992695"><ele>103.19999999999999</ele><time>2026-05-03T15:01:21.783Z</time></trkpt><trkpt lat="53.7341733" lon="-1.99254"><ele>101.80000000000001</ele><time>2026-05-03T15:01:22.784Z</time></trkpt><trkpt lat="53.7341283" lon="-1.9923817"><ele>100.4</ele><time>2026-05-03T15:01:23.784Z</time></trkpt><trkpt lat="53.7340783" lon="-1.992225"><ele>99.0</ele><time>2026-05-03T15:01:24.783Z</time></trkpt><trkpt lat="53.7340283" lon="-1.9920683"><ele>98.6</ele><time>2026-05-03T15:01:25.784Z</time></trkpt><trkpt lat="53.7339783" lon="-1.9919083"><ele>98.2</ele><time>2026-05-03T15:01:26.784Z</time></trkpt><trkpt lat="53.73393" lon="-1.9917467"><ele>97.8</ele><time>2026-05-03T15:01:27.783Z</time></trkpt><trkpt lat="53.7338833" lon="-1.9915883"><ele>97.39999999999999</ele><time>2026-05-03T15:01:28.783Z</time></trkpt><trkpt lat="53.7338333" lon="-1.9914333"><ele>97.0</ele><time>2026-05-03T15:01:29.784Z</time></trkpt><trkpt lat="53.7337933" lon="-1.99128"><ele>96.8</ele><time>2026-05-03T15:01:30.784Z</time></trkpt><trkpt lat="53.733755" lon="-1.991125"><ele>96.6</ele><time>2026-05-03T15:01:31.784Z</time></trkpt><trkpt lat="53.7337133" lon="-1.9909733"><ele>96.39999999999999</ele><time>2026-05-03T15:01:32.782Z</time></trkpt><trkpt lat="53.7336733" lon="-1.9908283"><ele>96.19999999999999</ele><time>2026-05-03T15:01:33.784Z</time></trkpt><trkpt lat="53.7336333" lon="-1.99068"><ele>96.0</ele><time>2026-05-03T15:01:34.783Z</time></trkpt><trkpt lat="53.7335967" lon="-1.9905317"><ele>96.0</ele><time>2026-05-03T15:01:35.784Z</time></trkpt><trkpt lat="53.73356" lon="-1.9903833"><ele>96.0</ele><time>2026-05-03T15:01:36.786Z</time></trkpt><trkpt lat="53.7335183" lon="-1.990235"><ele>96.0</ele><time>2026-05-03T15:01:37.784Z</time></trkpt><trkpt lat="53.7334717" lon="-1.9900833"><ele>96.0</ele><time>2026-05-03T15:01:38.783Z</time></trkpt><trkpt lat="53.7334267" lon="-1.9899367"><ele>96.0</ele><time>2026-05-03T15:01:39.783Z</time></trkpt><trkpt lat="53.7333767" lon="-1.98979"><ele>96.0</ele><time>2026-05-03T15:01:40.782Z</time></trkpt><trkpt lat="53.7333283" lon="-1.9896417"><ele>96.0</ele><time>2026-05-03T15:01:41.784Z</time></trkpt><trkpt lat="53.73328" lon="-1.9894967"><ele>96.0</ele><time>2026-05-03T15:01:42.783Z</time></trkpt><trkpt lat="53.7332317" lon="-1.9893483"><ele>96.0</ele><time>2026-05-03T15:01:43.784Z</time></trkpt><trkpt lat="53.7331833" lon="-1.9892033"><ele>96.0</ele><time>2026-05-03T15:01:44.783Z</time></trkpt><trkpt lat="53.7331317" lon="-1.9890517"><ele>96.0</ele><time>2026-05-03T15:01:45.783Z</time></trkpt><trkpt lat="53.7330783" lon="-1.9889"><ele>96.0</ele><time>2026-05-03T15:01:46.783Z</time></trkpt><trkpt lat="53.7330233" lon="-1.9887517"><ele>96.0</ele><time>2026-05-03T15:01:47.783Z</time></trkpt><trkpt lat="53.73297" lon="-1.9886017"><ele>96.0</ele><time>2026-05-03T15:01:48.782Z</time></trkpt><trkpt lat="53.73292" lon="-1.9884483"><ele>96.0</ele><time>2026-05-03T15:01:49.784Z</time></trkpt><trkpt lat="53.73287" lon="-1.988305"><ele>96.0</ele><time>2026-05-03T15:01:50.782Z</time></trkpt><trkpt lat="53.7328183" lon="-1.988155"><ele>96.0</ele><time>2026-05-03T15:01:51.783Z</time></trkpt><trkpt lat="53.7327667" lon="-1.9880083"><ele>96.0</ele><time>2026-05-03T15:01:52.786Z</time></trkpt><trkpt lat="53.7327183" lon="-1.98787"><ele>96.0</ele><time>2026-05-03T15:01:53.783Z</time></trkpt><trkpt lat="53.7326767" lon="-1.9877367"><ele>96.0</ele><time>2026-05-03T15:01:54.783Z</time></trkpt><trkpt lat="53.7326383" lon="-1.9876117"><ele>95.66666666666667</ele><time>2026-05-03T15:01:55.783Z</time></trkpt><trkpt lat="53.7326" lon="-1.9874917"><ele>95.33333333333333</ele><time>2026-05-03T15:01:56.783Z</time></trkpt><trkpt lat="53.7325617" lon="-1.9873767"><ele>95.0</ele><time>2026-05-03T15:01:57.783Z</time></trkpt><trkpt lat="53.7325233" lon="-1.9872633"><ele>94.66666666666666</ele><time>2026-05-03T15:01:58.783Z</time></trkpt><trkpt lat="53.7324833" lon="-1.9871517"><ele>94.33333333333333</ele><time>2026-05-03T15:01:59.783Z</time></trkpt><trkpt lat="53.7324433" lon="-1.98704"><ele>94.0</ele><time>2026-05-03T15:02:00.783Z</time></trkpt><trkpt lat="53.732405" lon="-1.9869317"><ele>94.0</ele><time>2026-05-03T15:02:01.784Z</time></trkpt><trkpt lat="53.7323683" lon="-1.9868267"><ele>94.0</ele><time>2026-05-03T15:02:02.784Z</time></trkpt><trkpt lat="53.7323283" lon="-1.9867217"><ele>94.0</ele><time>2026-05-03T15:02:03.782Z</time></trkpt><trkpt lat="53.73229" lon="-1.9866133"><ele>94.0</ele><time>2026-05-03T15:02:04.784Z</time></trkpt><trkpt lat="53.73225" lon="-1.9865017"><ele>94.0</ele><time>2026-05-03T15:02:05.784Z</time></trkpt><trkpt lat="53.7322133" lon="-1.98639"><ele>94.0</ele><time>2026-05-03T15:02:06.784Z</time></trkpt><trkpt lat="53.7321733" lon="-1.9862717"><ele>94.0</ele><time>2026-05-03T15:02:07.785Z</time></trkpt><trkpt lat="53.7321383" lon="-1.98615"><ele>94.0</ele><time>2026-05-03T15:02:08.783Z</time></trkpt><trkpt lat="53.7321083" lon="-1.9860283"><ele>94.0</ele><time>2026-05-03T15:02:09.783Z</time></trkpt><trkpt lat="53.7320783" lon="-1.9859083"><ele>94.0</ele><time>2026-05-03T15:02:10.785Z</time></trkpt><trkpt lat="53.732045" lon="-1.98579"><ele>94.0</ele><time>2026-05-03T15:02:11.783Z</time></trkpt><trkpt lat="53.7320133" lon="-1.9856717"><ele>94.0</ele><time>2026-05-03T15:02:12.782Z</time></trkpt><trkpt lat="53.7319783" lon="-1.985555"><ele>94.0</ele><time>2026-05-03T15:02:13.783Z</time></trkpt><trkpt lat="53.731945" lon="-1.9854417"><ele>94.0</ele><time>2026-05-03T15:02:14.783Z</time></trkpt><trkpt lat="53.7319083" lon="-1.985325"><ele>94.0</ele><time>2026-05-03T15:02:15.783Z</time></trkpt><trkpt lat="53.7318633" lon="-1.98521"><ele>94.0</ele><time>2026-05-03T15:02:16.785Z</time></trkpt><trkpt lat="53.7318167" lon="-1.98509"><ele>94.0</ele><time>2026-05-03T15:02:17.783Z</time></trkpt><trkpt lat="53.7317667" lon="-1.9849833"><ele>94.0</ele><time>2026-05-03T15:02:18.783Z</time></trkpt><trkpt lat="53.7317133" lon="-1.9848833"><ele>94.14285714285714</ele><time>2026-05-03T15:02:19.783Z</time></trkpt><trkpt lat="53.7316617" lon="-1.9847867"><ele>94.28571428571428</ele><time>2026-05-03T15:02:20.783Z</time></trkpt><trkpt lat="53.7316067" lon="-1.9846967"><ele>94.42857142857143</ele><time>2026-05-03T15:02:21.782Z</time></trkpt><trkpt lat="53.73155" lon="-1.98461"><ele>94.57142857142857</ele><time>2026-05-03T15:02:22.783Z</time></trkpt><trkpt lat="53.7314967" lon="-1.98452"><ele>94.71428571428572</ele><time>2026-05-03T15:02:23.785Z</time></trkpt><trkpt lat="53.7314483" lon="-1.9844333"><ele>94.85714285714286</ele><time>2026-05-03T15:02:24.783Z</time></trkpt><trkpt lat="53.731395" lon="-1.98436"><ele>95.0</ele><time>2026-05-03T15:02:25.784Z</time></trkpt><trkpt lat="53.7313033" lon="-1.9842267"><ele>95.0</ele><time>2026-05-03T15:02:27.784Z</time></trkpt><trkpt lat="53.7312283" lon="-1.9840983"><ele>95.0</ele><time>2026-05-03T15:02:29.784Z</time></trkpt><trkpt lat="53.7311667" lon="-1.984025"><ele>95.0</ele><time>2026-05-03T15:02:31.783Z</time></trkpt><trkpt lat="53.7311017" lon="-1.9840383"><ele>95.0</ele><time>2026-05-03T15:02:33.783Z</time></trkpt><trkpt lat="53.7310533" lon="-1.9841683"><ele>95.0</ele><time>2026-05-03T15:02:36.782Z</time></trkpt><trkpt lat="53.7310117" lon="-1.98425"><ele>95.0</ele><time>2026-05-03T15:02:38.783Z</time></trkpt><trkpt lat="53.73096" lon="-1.9843367"><ele>95.16666666666667</ele><time>2026-05-03T15:02:41.783Z</time></trkpt><trkpt lat="53.7309267" lon="-1.98446"><ele>95.33333333333334</ele><time>2026-05-03T15:02:45.783Z</time></trkpt><trkpt lat="53.7309167" lon="-1.9846067"><ele>95.5</ele><time>2026-05-03T15:02:49.783Z</time></trkpt><trkpt lat="53.7309217" lon="-1.9847133"><ele>95.66666666666667</ele><time>2026-05-03T15:02:52.783Z</time></trkpt><trkpt lat="53.7309283" lon="-1.9848283"><ele>95.83333333333333</ele><time>2026-05-03T15:02:55.783Z</time></trkpt><trkpt lat="53.7308767" lon="-1.9849"><ele>96.0</ele><time>2026-05-03T15:02:58.783Z</time></trkpt><trkpt lat="53.7307733" lon="-1.98499"><ele>96.4</ele><time>2026-05-03T15:03:00.782Z</time></trkpt><trkpt lat="53.7306933" lon="-1.9850617"><ele>96.8</ele><time>2026-05-03T15:03:01.783Z</time></trkpt><trkpt lat="53.7306033" lon="-1.985135"><ele>97.2</ele><time>2026-05-03T15:03:02.782Z</time></trkpt><trkpt lat="53.730515" lon="-1.9852133"><ele>97.60000000000001</ele><time>2026-05-03T15:03:03.782Z</time></trkpt><trkpt lat="53.7304117" lon="-1.9852883"><ele>98.0</ele><time>2026-05-03T15:03:04.783Z</time></trkpt><trkpt lat="53.730325" lon="-1.9853533"><ele>97.99999999999999</ele><time>2026-05-03T15:03:05.783Z</time></trkpt><trkpt lat="53.7302567" lon="-1.9854167"><ele>98.0</ele><time>2026-05-03T15:03:06.782Z</time></trkpt><trkpt lat="53.7301917" lon="-1.9854883"><ele>98.0</ele><time>2026-05-03T15:03:07.784Z</time></trkpt><trkpt lat="53.7301217" lon="-1.98554"><ele>98.0</ele><time>2026-05-03T15:03:08.782Z</time></trkpt><trkpt lat="53.7300567" lon="-1.9855967"><ele>97.99999999999999</ele><time>2026-05-03T15:03:09.783Z</time></trkpt><trkpt lat="53.7299967" lon="-1.985655"><ele>98.0</ele><time>2026-05-03T15:03:10.784Z</time></trkpt><trkpt lat="53.7299267" lon="-1.985715"><ele>98.16666666666666</ele><time>2026-05-03T15:03:11.784Z</time></trkpt><trkpt lat="53.7298617" lon="-1.9857733"><ele>98.33333333333333</ele><time>2026-05-03T15:03:12.783Z</time></trkpt><trkpt lat="53.729785" lon="-1.985835"><ele>98.5</ele><time>2026-05-03T15:03:13.784Z</time></trkpt><trkpt lat="53.7297067" lon="-1.9858917"><ele>98.66666666666666</ele><time>2026-05-03T15:03:14.785Z</time></trkpt><trkpt lat="53.7296333" lon="-1.985945"><ele>98.83333333333333</ele><time>2026-05-03T15:03:15.782Z</time></trkpt><trkpt lat="53.7295683" lon="-1.9860033"><ele>99.0</ele><time>2026-05-03T15:03:16.783Z</time></trkpt><trkpt lat="53.729505" lon="-1.9860533"><ele>99.28571428571429</ele><time>2026-05-03T15:03:17.783Z</time></trkpt><trkpt lat="53.72944" lon="-1.9860833"><ele>99.57142857142857</ele><time>2026-05-03T15:03:18.784Z</time></trkpt><trkpt lat="53.72938" lon="-1.986145"><ele>99.85714285714286</ele><time>2026-05-03T15:03:19.784Z</time></trkpt><trkpt lat="53.7293117" lon="-1.9861933"><ele>100.14285714285714</ele><time>2026-05-03T15:03:20.784Z</time></trkpt><trkpt lat="53.7292483" lon="-1.9862517"><ele>100.42857142857142</ele><time>2026-05-03T15:03:21.784Z</time></trkpt><trkpt lat="53.72919" lon="-1.9863183"><ele>100.71428571428571</ele><time>2026-05-03T15:03:22.784Z</time></trkpt><trkpt lat="53.729135" lon="-1.9863933"><ele>101.0</ele><time>2026-05-03T15:03:23.783Z</time></trkpt><trkpt lat="53.7290717" lon="-1.9864717"><ele>101.0</ele><time>2026-05-03T15:03:24.783Z</time></trkpt><trkpt lat="53.7290083" lon="-1.9865533"><ele>101.0</ele><time>2026-05-03T15:03:25.783Z</time></trkpt><trkpt lat="53.728945" lon="-1.9866283"><ele>101.0</ele><time>2026-05-03T15:03:26.782Z</time></trkpt><trkpt lat="53.72889" lon="-1.9866867"><ele>101.0</ele><time>2026-05-03T15:03:27.783Z</time></trkpt><trkpt lat="53.7288283" lon="-1.9867233"><ele>101.0</ele><time>2026-05-03T15:03:28.782Z</time></trkpt><trkpt lat="53.7287533" lon="-1.9867483"><ele>101.0</ele><time>2026-05-03T15:03:29.783Z</time></trkpt><trkpt lat="53.7286783" lon="-1.9867333"><ele>101.0</ele><time>2026-05-03T15:03:30.783Z</time></trkpt><trkpt lat="53.72861" lon="-1.9866967"><ele>101.16666666666666</ele><time>2026-05-03T15:03:31.783Z</time></trkpt><trkpt lat="53.7285417" lon="-1.9866533"><ele>101.33333333333333</ele><time>2026-05-03T15:03:32.783Z</time></trkpt><trkpt lat="53.7284833" lon="-1.9866117"><ele>101.5</ele><time>2026-05-03T15:03:33.784Z</time></trkpt><trkpt lat="53.728415" lon="-1.9865633"><ele>101.66666666666666</ele><time>2026-05-03T15:03:35.784Z</time></trkpt><trkpt lat="53.7283217" lon="-1.986575"><ele>101.83333333333333</ele><time>2026-05-03T15:03:38.782Z</time></trkpt><trkpt lat="53.7282533" lon="-1.9867167"><ele>102.0</ele><time>2026-05-03T15:03:40.783Z</time></trkpt><trkpt lat="53.7282167" lon="-1.98682"><ele>102.0</ele><time>2026-05-03T15:03:41.784Z</time></trkpt><trkpt lat="53.7281767" lon="-1.986925"><ele>102.0</ele><time>2026-05-03T15:03:42.785Z</time></trkpt><trkpt lat="53.728135" lon="-1.9870317"><ele>102.0</ele><time>2026-05-03T15:03:43.783Z</time></trkpt><trkpt lat="53.728095" lon="-1.98714"><ele>102.0</ele><time>2026-05-03T15:03:44.783Z</time></trkpt><trkpt lat="53.7280533" lon="-1.9872417"><ele>102.0</ele><time>2026-05-03T15:03:45.782Z</time></trkpt><trkpt lat="53.7280067" lon="-1.9873367"><ele>102.0</ele><time>2026-05-03T15:03:46.784Z</time></trkpt><trkpt lat="53.72796" lon="-1.9874317"><ele>102.0</ele><time>2026-05-03T15:03:47.783Z</time></trkpt><trkpt lat="53.7279067" lon="-1.9875217"><ele>101.71428571428572</ele><time>2026-05-03T15:03:48.784Z</time></trkpt><trkpt lat="53.7278533" lon="-1.98761"><ele>101.42857142857143</ele><time>2026-05-03T15:03:49.784Z</time></trkpt><trkpt lat="53.7278" lon="-1.9876883"><ele>101.14285714285714</ele><time>2026-05-03T15:03:50.784Z</time></trkpt><trkpt lat="53.7277467" lon="-1.98777"><ele>100.85714285714286</ele><time>2026-05-03T15:03:51.783Z</time></trkpt><trkpt lat="53.72769" lon="-1.9878483"><ele>100.57142857142857</ele><time>2026-05-03T15:03:52.783Z</time></trkpt><trkpt lat="53.7276333" lon="-1.987935"><ele>100.28571428571429</ele><time>2026-05-03T15:03:53.784Z</time></trkpt><trkpt lat="53.727575" lon="-1.9880267"><ele>100.0</ele><time>2026-05-03T15:03:54.785Z</time></trkpt><trkpt lat="53.7275167" lon="-1.9881183"><ele>100.00000000000001</ele><time>2026-05-03T15:03:55.785Z</time></trkpt><trkpt lat="53.7274533" lon="-1.988205"><ele>100.0</ele><time>2026-05-03T15:03:56.783Z</time></trkpt><trkpt lat="53.7273917" lon="-1.9882933"><ele>100.0</ele><time>2026-05-03T15:03:57.784Z</time></trkpt><trkpt lat="53.7273333" lon="-1.9883867"><ele>100.0</ele><time>2026-05-03T15:03:58.784Z</time></trkpt><trkpt lat="53.7272783" lon="-1.9884783"><ele>100.00000000000001</ele><time>2026-05-03T15:03:59.785Z</time></trkpt><trkpt lat="53.7272217" lon="-1.9885717"><ele>100.0</ele><time>2026-05-03T15:04:00.784Z</time></trkpt><trkpt lat="53.7271633" lon="-1.98866"><ele>100.16666666666667</ele><time>2026-05-03T15:04:01.784Z</time></trkpt><trkpt lat="53.7271" lon="-1.988745"><ele>100.33333333333334</ele><time>2026-05-03T15:04:02.784Z</time></trkpt><trkpt lat="53.7270433" lon="-1.9888267"><ele>100.5</ele><time>2026-05-03T15:04:03.784Z</time></trkpt><trkpt lat="53.72698" lon="-1.988905"><ele>100.66666666666666</ele><time>2026-05-03T15:04:04.784Z</time></trkpt><trkpt lat="53.7269183" lon="-1.9889817"><ele>100.83333333333333</ele><time>2026-05-03T15:04:05.785Z</time></trkpt><trkpt lat="53.7268533" lon="-1.9890467"><ele>101.0</ele><time>2026-05-03T15:04:06.785Z</time></trkpt><trkpt lat="53.7267833" lon="-1.9890917"><ele>100.99999999999999</ele><time>2026-05-03T15:04:07.785Z</time></trkpt><trkpt lat="53.7267083" lon="-1.98913"><ele>101.0</ele><time>2026-05-03T15:04:08.785Z</time></trkpt><trkpt lat="53.7266317" lon="-1.9891567"><ele>101.0</ele><time>2026-05-03T15:04:09.784Z</time></trkpt><trkpt lat="53.7265483" lon="-1.989175"><ele>101.0</ele><time>2026-05-03T15:04:10.785Z</time></trkpt><trkpt lat="53.7264667" lon="-1.989195"><ele>100.99999999999999</ele><time>2026-05-03T15:04:11.783Z</time></trkpt><trkpt lat="53.726385" lon="-1.9892033"><ele>101.0</ele><time>2026-05-03T15:04:12.784Z</time></trkpt><trkpt lat="53.72631" lon="-1.9892033"><ele>102.49999999999999</ele><time>2026-05-03T15:04:13.784Z</time></trkpt><trkpt lat="53.7262367" lon="-1.9891967"><ele>104.0</ele><time>2026-05-03T15:04:14.784Z</time></trkpt><trkpt lat="53.7261617" lon="-1.9891967"><ele>105.5</ele><time>2026-05-03T15:04:15.784Z</time></trkpt><trkpt lat="53.7260883" lon="-1.9892"><ele>107.0</ele><time>2026-05-03T15:04:16.785Z</time></trkpt><trkpt lat="53.7260117" lon="-1.9891967"><ele>108.49999999999999</ele><time>2026-05-03T15:04:17.784Z</time></trkpt><trkpt lat="53.72593" lon="-1.9892033"><ele>110.0</ele><time>2026-05-03T15:04:18.784Z</time></trkpt><trkpt lat="53.7258483" lon="-1.9892"><ele>109.99999999999999</ele><time>2026-05-03T15:04:19.783Z</time></trkpt><trkpt lat="53.725765" lon="-1.9891967"><ele>110.0</ele><time>2026-05-03T15:04:20.784Z</time></trkpt><trkpt lat="53.725685" lon="-1.9892"><ele>110.0</ele><time>2026-05-03T15:04:21.784Z</time></trkpt><trkpt lat="53.7256033" lon="-1.9892017"><ele>110.0</ele><time>2026-05-03T15:04:22.783Z</time></trkpt><trkpt lat="53.72552" lon="-1.989205"><ele>109.99999999999999</ele><time>2026-05-03T15:04:23.785Z</time></trkpt><trkpt lat="53.7254417" lon="-1.9892117"><ele>110.0</ele><time>2026-05-03T15:04:24.784Z</time></trkpt><trkpt lat="53.7253617" lon="-1.9892167"><ele>109.99999999999999</ele><time>2026-05-03T15:04:25.785Z</time></trkpt><trkpt lat="53.7252835" lon="-1.9892221"><ele>110.0</ele><time>2026-05-03T15:04:26.785Z</time></trkpt><trkpt lat="53.7252054" lon="-1.9892257"><ele>110.0</ele><time>2026-05-03T15:04:27.783Z</time></trkpt><trkpt lat="53.7251274" lon="-1.9892313"><ele>110.0</ele><time>2026-05-03T15:04:28.784Z</time></trkpt><trkpt lat="53.7250517" lon="-1.9892341"><ele>109.99999999999999</ele><time>2026-05-03T15:04:29.784Z</time></trkpt><trkpt lat="53.724973" lon="-1.989243"><ele>110.0</ele><time>2026-05-03T15:04:30.783Z</time></trkpt><trkpt lat="53.7248919" lon="-1.9892573"><ele>110.49999999999999</ele><time>2026-05-03T15:04:31.784Z</time></trkpt><trkpt lat="53.7248125" lon="-1.9892639"><ele>111.0</ele><time>2026-05-03T15:04:32.784Z</time></trkpt><trkpt lat="53.7247322" lon="-1.9892685"><ele>111.5</ele><time>2026-05-03T15:04:33.786Z</time></trkpt><trkpt lat="53.7246544" lon="-1.989272"><ele>112.0</ele><time>2026-05-03T15:04:34.785Z</time></trkpt><trkpt lat="53.724575" lon="-1.9892755"><ele>112.49999999999999</ele><time>2026-05-03T15:04:35.785Z</time></trkpt><trkpt lat="53.7244908" lon="-1.9892755"><ele>113.0</ele><time>2026-05-03T15:04:36.784Z</time></trkpt><trkpt lat="53.7244043" lon="-1.9892695"><ele>112.2</ele><time>2026-05-03T15:04:37.783Z</time></trkpt><trkpt lat="53.724309" lon="-1.9892687"><ele>111.4</ele><time>2026-05-03T15:04:38.784Z</time></trkpt><trkpt lat="53.7242069" lon="-1.9892684"><ele>110.60000000000001</ele><time>2026-05-03T15:04:39.785Z</time></trkpt><trkpt lat="53.7241069" lon="-1.9892683"><ele>109.80000000000001</ele><time>2026-05-03T15:04:40.785Z</time></trkpt><trkpt lat="53.7240042" lon="-1.9892693"><ele>109.0</ele><time>2026-05-03T15:04:41.785Z</time></trkpt><trkpt lat="53.7239021" lon="-1.9892729"><ele>109.0</ele><time>2026-05-03T15:04:42.783Z</time></trkpt><trkpt lat="53.7238023" lon="-1.989273"><ele>109.0</ele><time>2026-05-03T15:04:43.783Z</time></trkpt><trkpt lat="53.7237037" lon="-1.9892784"><ele>109.0</ele><time>2026-05-03T15:04:44.784Z</time></trkpt><trkpt lat="53.7236056" lon="-1.9892909"><ele>109.0</ele><time>2026-05-03T15:04:45.783Z</time></trkpt><trkpt lat="53.7235061" lon="-1.9893124"><ele>109.0</ele><time>2026-05-03T15:04:46.786Z</time></trkpt><trkpt lat="53.7234013" lon="-1.9893439"><ele>108.25</ele><time>2026-05-03T15:04:47.784Z</time></trkpt><trkpt lat="53.7232898" lon="-1.9893888"><ele>107.5</ele><time>2026-05-03T15:04:48.784Z</time></trkpt><trkpt lat="53.7231775" lon="-1.989447"><ele>106.75</ele><time>2026-05-03T15:04:49.784Z</time></trkpt><trkpt lat="53.7230654" lon="-1.9895118"><ele>106.0</ele><time>2026-05-03T15:04:50.784Z</time></trkpt><trkpt lat="53.7229592" lon="-1.9895719"><ele>106.0</ele><time>2026-05-03T15:04:51.788Z</time></trkpt><trkpt lat="53.7228505" lon="-1.9896172"><ele>106.0</ele><time>2026-05-03T15:04:52.784Z</time></trkpt><trkpt lat="53.7227392" lon="-1.9896276"><ele>106.0</ele><time>2026-05-03T15:04:53.783Z</time></trkpt><trkpt lat="53.7226351" lon="-1.9896168"><ele>106.0</ele><time>2026-05-03T15:04:54.785Z</time></trkpt><trkpt lat="53.7225276" lon="-1.9896128"><ele>106.0</ele><time>2026-05-03T15:04:55.785Z</time></trkpt><trkpt lat="53.7224235" lon="-1.9896376"><ele>106.8</ele><time>2026-05-03T15:04:56.785Z</time></trkpt><trkpt lat="53.7223231" lon="-1.9896883"><ele>107.6</ele><time>2026-05-03T15:04:57.783Z</time></trkpt><trkpt lat="53.7222234" lon="-1.9897498"><ele>108.4</ele><time>2026-05-03T15:04:58.784Z</time></trkpt><trkpt lat="53.7221267" lon="-1.9898133"><ele>109.2</ele><time>2026-05-03T15:04:59.785Z</time></trkpt><trkpt lat="53.72203" lon="-1.989855"><ele>110.0</ele><time>2026-05-03T15:05:00.783Z</time></trkpt><trkpt lat="53.721935" lon="-1.9898833"><ele>111.2</ele><time>2026-05-03T15:05:01.784Z</time></trkpt><trkpt lat="53.7218383" lon="-1.9899067"><ele>112.4</ele><time>2026-05-03T15:05:02.784Z</time></trkpt><trkpt lat="53.7217283" lon="-1.9899117"><ele>113.6</ele><time>2026-05-03T15:05:03.784Z</time></trkpt><trkpt lat="53.7216183" lon="-1.9899183"><ele>114.8</ele><time>2026-05-03T15:05:04.783Z</time></trkpt><trkpt lat="53.7215033" lon="-1.989925"><ele>116.0</ele><time>2026-05-03T15:05:05.784Z</time></trkpt><trkpt lat="53.7213917" lon="-1.989935"><ele>116.0</ele><time>2026-05-03T15:05:06.784Z</time></trkpt><trkpt lat="53.7212783" lon="-1.989945"><ele>116.0</ele><time>2026-05-03T15:05:07.783Z</time></trkpt><trkpt lat="53.7211633" lon="-1.9899567"><ele>116.0</ele><time>2026-05-03T15:05:08.783Z</time></trkpt><trkpt lat="53.7210433" lon="-1.9899683"><ele>116.0</ele><time>2026-05-03T15:05:09.784Z</time></trkpt><trkpt lat="53.7209283" lon="-1.989975"><ele>116.4</ele><time>2026-05-03T15:05:10.783Z</time></trkpt><trkpt lat="53.720815" lon="-1.9899767"><ele>116.8</ele><time>2026-05-03T15:05:11.784Z</time></trkpt><trkpt lat="53.7207017" lon="-1.9899717"><ele>117.20000000000002</ele><time>2026-05-03T15:05:12.783Z</time></trkpt><trkpt lat="53.7205933" lon="-1.9899533"><ele>117.60000000000001</ele><time>2026-05-03T15:05:13.783Z</time></trkpt><trkpt lat="53.7204817" lon="-1.9899333"><ele>118.0</ele><time>2026-05-03T15:05:14.784Z</time></trkpt><trkpt lat="53.7203733" lon="-1.989895"><ele>118.0</ele><time>2026-05-03T15:05:15.784Z</time></trkpt><trkpt lat="53.7202633" lon="-1.989855"><ele>118.0</ele><time>2026-05-03T15:05:16.784Z</time></trkpt><trkpt lat="53.72015" lon="-1.98981"><ele>118.0</ele><time>2026-05-03T15:05:17.783Z</time></trkpt><trkpt lat="53.7200383" lon="-1.98977"><ele>118.0</ele><time>2026-05-03T15:05:18.785Z</time></trkpt><trkpt lat="53.7199333" lon="-1.9897233"><ele>118.2</ele><time>2026-05-03T15:05:19.784Z</time></trkpt><trkpt lat="53.7198267" lon="-1.9896867"><ele>118.4</ele><time>2026-05-03T15:05:20.786Z</time></trkpt><trkpt lat="53.719715" lon="-1.98965"><ele>118.60000000000001</ele><time>2026-05-03T15:05:21.785Z</time></trkpt><trkpt lat="53.7196067" lon="-1.98962"><ele>118.80000000000001</ele><time>2026-05-03T15:05:22.784Z</time></trkpt><trkpt lat="53.719495" lon="-1.989605"><ele>119.0</ele><time>2026-05-03T15:05:23.786Z</time></trkpt><trkpt lat="53.71938" lon="-1.9895967"><ele>137.0</ele><time>2026-05-03T15:05:24.785Z</time></trkpt><trkpt lat="53.716155" lon="-1.9890017"><ele>141.0</ele><time>2026-05-03T15:05:54.785Z</time></trkpt><trkpt lat="53.7155867" lon="-1.9891583"><ele>145.0</ele><time>2026-05-03T15:05:58.705Z</time></trkpt><trkpt lat="53.7154817" lon="-1.9891883"><ele>149.0</ele><time>2026-05-03T15:05:59.784Z</time></trkpt><trkpt lat="53.7132467" lon="-1.98963"><ele>149.0</ele><time>2026-05-03T15:06:21.785Z</time></trkpt><trkpt lat="53.71276" lon="-1.9899717"><ele>149.75</ele><time>2026-05-03T15:06:26.145Z</time></trkpt><trkpt lat="53.7125783" lon="-1.9900567"><ele>150.5</ele><time>2026-05-03T15:06:27.785Z</time></trkpt><trkpt lat="53.7124767" lon="-1.9901133"><ele>151.25</ele><time>2026-05-03T15:06:28.785Z</time></trkpt><trkpt lat="53.712385" lon="-1.9901933"><ele>152.0</ele><time>2026-05-03T15:06:29.785Z</time></trkpt><trkpt lat="53.7122867" lon="-1.990285"><ele>152.0</ele><time>2026-05-03T15:06:30.785Z</time></trkpt><trkpt lat="53.7121933" lon="-1.990385"><ele>152.0</ele><time>2026-05-03T15:06:31.784Z</time></trkpt><trkpt lat="53.7120933" lon="-1.99049"><ele>152.0</ele><time>2026-05-03T15:06:32.784Z</time></trkpt><trkpt lat="53.7119883" lon="-1.9906117"><ele>152.0</ele><time>2026-05-03T15:06:33.783Z</time></trkpt><trkpt lat="53.71189" lon="-1.9907217"><ele>153.0</ele><time>2026-05-03T15:06:34.782Z</time></trkpt><trkpt lat="53.711795" lon="-1.9908583"><ele>154.0</ele><time>2026-05-03T15:06:35.783Z</time></trkpt><trkpt lat="53.7117083" lon="-1.99097"><ele>155.0</ele><time>2026-05-03T15:06:36.782Z</time></trkpt><trkpt lat="53.7116167" lon="-1.99111"><ele>156.0</ele><time>2026-05-03T15:06:37.782Z</time></trkpt><trkpt lat="53.711525" lon="-1.99123"><ele>156.0</ele><time>2026-05-03T15:06:38.782Z</time></trkpt><trkpt lat="53.7114333" lon="-1.991345"><ele>156.0</ele><time>2026-05-03T15:06:39.782Z</time></trkpt><trkpt lat="53.7113417" lon="-1.9914583"><ele>156.0</ele><time>2026-05-03T15:06:40.783Z</time></trkpt><trkpt lat="53.711245" lon="-1.991585"><ele>156.0</ele><time>2026-05-03T15:06:41.781Z</time></trkpt><trkpt lat="53.7111583" lon="-1.9916917"><ele>156.6</ele><time>2026-05-03T15:06:42.782Z</time></trkpt><trkpt lat="53.711065" lon="-1.9917967"><ele>157.2</ele><time>2026-05-03T15:06:43.782Z</time></trkpt><trkpt lat="53.71097" lon="-1.99189"><ele>157.8</ele><time>2026-05-03T15:06:44.782Z</time></trkpt><trkpt lat="53.7108767" lon="-1.99197"><ele>158.4</ele><time>2026-05-03T15:06:45.784Z</time></trkpt><trkpt lat="53.7107783" lon="-1.9920433"><ele>159.0</ele><time>2026-05-03T15:06:46.782Z</time></trkpt><trkpt lat="53.710675" lon="-1.9921217"><ele>159.0</ele><time>2026-05-03T15:06:47.782Z</time></trkpt><trkpt lat="53.71057" lon="-1.9921933"><ele>159.0</ele><time>2026-05-03T15:06:48.784Z</time></trkpt><trkpt lat="53.7104683" lon="-1.9922667"><ele>159.0</ele><time>2026-05-03T15:06:49.783Z</time></trkpt><trkpt lat="53.7103683" lon="-1.9923433"><ele>159.0</ele><time>2026-05-03T15:06:50.782Z</time></trkpt><trkpt lat="53.71027" lon="-1.9924367"><ele>159.0</ele><time>2026-05-03T15:06:51.783Z</time></trkpt><trkpt lat="53.7101683" lon="-1.99252"><ele>159.0</ele><time>2026-05-03T15:06:52.782Z</time></trkpt><trkpt lat="53.7100667" lon="-1.9926017"><ele>159.0</ele><time>2026-05-03T15:06:53.785Z</time></trkpt><trkpt lat="53.7099683" lon="-1.99269"><ele>159.0</ele><time>2026-05-03T15:06:54.782Z</time></trkpt><trkpt lat="53.7098717" lon="-1.99279"><ele>159.0</ele><time>2026-05-03T15:06:55.783Z</time></trkpt><trkpt lat="53.709775" lon="-1.992895"><ele>159.0</ele><time>2026-05-03T15:06:56.783Z</time></trkpt><trkpt lat="53.7096767" lon="-1.9930133"><ele>159.0</ele><time>2026-05-03T15:06:57.783Z</time></trkpt><trkpt lat="53.70958" lon="-1.99312"><ele>159.0</ele><time>2026-05-03T15:06:58.783Z</time></trkpt><trkpt lat="53.70949" lon="-1.993235"><ele>159.0</ele><time>2026-05-03T15:06:59.783Z</time></trkpt><trkpt lat="53.7093983" lon="-1.9933433"><ele>160.6</ele><time>2026-05-03T15:07:00.783Z</time></trkpt><trkpt lat="53.7093083" lon="-1.9934567"><ele>162.2</ele><time>2026-05-03T15:07:01.782Z</time></trkpt><trkpt lat="53.7092267" lon="-1.9935767"><ele>163.79999999999998</ele><time>2026-05-03T15:07:02.782Z</time></trkpt><trkpt lat="53.7091467" lon="-1.99369"><ele>165.4</ele><time>2026-05-03T15:07:03.782Z</time></trkpt><trkpt lat="53.7090667" lon="-1.993805"><ele>167.0</ele><time>2026-05-03T15:07:04.782Z</time></trkpt><trkpt lat="53.7089967" lon="-1.9939333"><ele>167.0</ele><time>2026-05-03T15:07:05.783Z</time></trkpt><trkpt lat="53.7089233" lon="-1.9940617"><ele>167.0</ele><time>2026-05-03T15:07:06.783Z</time></trkpt><trkpt lat="53.7088517" lon="-1.9942"><ele>167.0</ele><time>2026-05-03T15:07:07.782Z</time></trkpt><trkpt lat="53.7087817" lon="-1.9943317"><ele>167.0</ele><time>2026-05-03T15:07:08.782Z</time></trkpt><trkpt lat="53.70871" lon="-1.9944683"><ele>167.0</ele><time>2026-05-03T15:07:09.783Z</time></trkpt><trkpt lat="53.7086433" lon="-1.994605"><ele>167.39999999999998</ele><time>2026-05-03T15:07:10.782Z</time></trkpt><trkpt lat="53.70858" lon="-1.9947483"><ele>167.79999999999998</ele><time>2026-05-03T15:07:11.782Z</time></trkpt><trkpt lat="53.7085033" lon="-1.99489"><ele>168.2</ele><time>2026-05-03T15:07:12.782Z</time></trkpt><trkpt lat="53.7084283" lon="-1.9950317"><ele>168.6</ele><time>2026-05-03T15:07:13.783Z</time></trkpt><trkpt lat="53.708355" lon="-1.9951683"><ele>169.0</ele><time>2026-05-03T15:07:14.782Z</time></trkpt><trkpt lat="53.7082783" lon="-1.99531"><ele>169.0</ele><time>2026-05-03T15:07:15.783Z</time></trkpt><trkpt lat="53.7082" lon="-1.9954483"><ele>169.0</ele><time>2026-05-03T15:07:16.782Z</time></trkpt><trkpt lat="53.7081217" lon="-1.9955867"><ele>169.0</ele><time>2026-05-03T15:07:17.783Z</time></trkpt><trkpt lat="53.7080367" lon="-1.995725"><ele>169.0</ele><time>2026-05-03T15:07:18.783Z</time></trkpt><trkpt lat="53.7079517" lon="-1.995865"><ele>168.5</ele><time>2026-05-03T15:07:19.783Z</time></trkpt><trkpt lat="53.70787" lon="-1.9959983"><ele>168.0</ele><time>2026-05-03T15:07:20.783Z</time></trkpt><trkpt lat="53.7077883" lon="-1.99614"><ele>167.5</ele><time>2026-05-03T15:07:21.783Z</time></trkpt><trkpt lat="53.707705" lon="-1.9962783"><ele>167.0</ele><time>2026-05-03T15:07:22.782Z</time></trkpt><trkpt lat="53.7076267" lon="-1.9964133"><ele>168.39999999999998</ele><time>2026-05-03T15:07:23.783Z</time></trkpt><trkpt lat="53.7075533" lon="-1.9965517"><ele>169.79999999999998</ele><time>2026-05-03T15:07:24.782Z</time></trkpt><trkpt lat="53.7074833" lon="-1.9966967"><ele>171.2</ele><time>2026-05-03T15:07:25.783Z</time></trkpt><trkpt lat="53.7074133" lon="-1.9968367"><ele>172.6</ele><time>2026-05-03T15:07:26.783Z</time></trkpt><trkpt lat="53.7073383" lon="-1.9969767"><ele>174.0</ele><time>2026-05-03T15:07:27.782Z</time></trkpt><trkpt lat="53.7072633" lon="-1.99712"><ele>174.0</ele><time>2026-05-03T15:07:28.783Z</time></trkpt><trkpt lat="53.7071883" lon="-1.9972617"><ele>174.0</ele><time>2026-05-03T15:07:29.783Z</time></trkpt><trkpt lat="53.707115" lon="-1.9973983"><ele>174.0</ele><time>2026-05-03T15:07:30.783Z</time></trkpt><trkpt lat="53.7070383" lon="-1.9975333"><ele>174.0</ele><time>2026-05-03T15:07:31.783Z</time></trkpt><trkpt lat="53.706955" lon="-1.9976617"><ele>174.0</ele><time>2026-05-03T15:07:32.783Z</time></trkpt><trkpt lat="53.7068717" lon="-1.99779"><ele>174.5</ele><time>2026-05-03T15:07:33.782Z</time></trkpt><trkpt lat="53.70679" lon="-1.9979217"><ele>175.0</ele><time>2026-05-03T15:07:34.781Z</time></trkpt><trkpt lat="53.7067133" lon="-1.9980567"><ele>175.5</ele><time>2026-05-03T15:07:35.783Z</time></trkpt><trkpt lat="53.7066367" lon="-1.9981983"><ele>176.0</ele><time>2026-05-03T15:07:36.783Z</time></trkpt><trkpt lat="53.7065667" lon="-1.9983467"><ele>176.0</ele><time>2026-05-03T15:07:37.783Z</time></trkpt><trkpt lat="53.7065033" lon="-1.9985017"><ele>176.0</ele><time>2026-05-03T15:07:38.782Z</time></trkpt><trkpt lat="53.7064433" lon="-1.9986633"><ele>176.0</ele><time>2026-05-03T15:07:39.783Z</time></trkpt><trkpt lat="53.7063833" lon="-1.9988283"><ele>176.0</ele><time>2026-05-03T15:07:40.783Z</time></trkpt><trkpt lat="53.7063233" lon="-1.99899"><ele>176.0</ele><time>2026-05-03T15:07:41.782Z</time></trkpt><trkpt lat="53.7062583" lon="-1.9991467"><ele>176.0</ele><time>2026-05-03T15:07:42.783Z</time></trkpt><trkpt lat="53.7061833" lon="-1.999285"><ele>176.0</ele><time>2026-05-03T15:07:43.783Z</time></trkpt><trkpt lat="53.7061033" lon="-1.9993967"><ele>176.0</ele><time>2026-05-03T15:07:44.783Z</time></trkpt><trkpt lat="53.706015" lon="-1.9994667"><ele>176.0</ele><time>2026-05-03T15:07:45.783Z</time></trkpt><trkpt lat="53.7059317" lon="-1.9995117"><ele>176.20000000000002</ele><time>2026-05-03T15:07:46.782Z</time></trkpt><trkpt lat="53.705835" lon="-1.9995167"><ele>176.4</ele><time>2026-05-03T15:07:47.783Z</time></trkpt><trkpt lat="53.7057233" lon="-1.9994767"><ele>176.6</ele><time>2026-05-03T15:07:48.782Z</time></trkpt><trkpt lat="53.7056117" lon="-1.9994383"><ele>176.8</ele><time>2026-05-03T15:07:49.783Z</time></trkpt><trkpt lat="53.705495" lon="-1.99941"><ele>177.0</ele><time>2026-05-03T15:07:50.782Z</time></trkpt><trkpt lat="53.7053733" lon="-1.9993917"><ele>177.0</ele><time>2026-05-03T15:07:51.781Z</time></trkpt><trkpt lat="53.7052517" lon="-1.999375"><ele>177.0</ele><time>2026-05-03T15:07:52.782Z</time></trkpt><trkpt lat="53.7051267" lon="-1.9993617"><ele>177.0</ele><time>2026-05-03T15:07:53.783Z</time></trkpt><trkpt lat="53.7050033" lon="-1.9993483"><ele>177.0</ele><time>2026-05-03T15:07:54.782Z</time></trkpt><trkpt lat="53.7048767" lon="-1.9993533"><ele>179.25</ele><time>2026-05-03T15:07:55.782Z</time></trkpt><trkpt lat="53.7047583" lon="-1.9993567"><ele>181.5</ele><time>2026-05-03T15:07:56.783Z</time></trkpt><trkpt lat="53.70464" lon="-1.9993733"><ele>183.75</ele><time>2026-05-03T15:07:57.783Z</time></trkpt><trkpt lat="53.7045217" lon="-1.9994"><ele>186.0</ele><time>2026-05-03T15:07:58.782Z</time></trkpt><trkpt lat="53.7044033" lon="-1.9994183"><ele>187.5</ele><time>2026-05-03T15:07:59.781Z</time></trkpt><trkpt lat="53.7042817" lon="-1.9994417"><ele>189.0</ele><time>2026-05-03T15:08:00.783Z</time></trkpt><trkpt lat="53.7041617" lon="-1.9994617"><ele>190.5</ele><time>2026-05-03T15:08:01.783Z</time></trkpt><trkpt lat="53.7040383" lon="-1.999475"><ele>192.0</ele><time>2026-05-03T15:08:02.783Z</time></trkpt><trkpt lat="53.7039217" lon="-1.9994817"><ele>192.0</ele><time>2026-05-03T15:08:03.782Z</time></trkpt><trkpt lat="53.7038033" lon="-1.999495"><ele>192.0</ele><time>2026-05-03T15:08:04.782Z</time></trkpt><trkpt lat="53.7036833" lon="-1.9995033"><ele>192.0</ele><time>2026-05-03T15:08:05.782Z</time></trkpt><trkpt lat="53.703575" lon="-1.9995083"><ele>192.0</ele><time>2026-05-03T15:08:06.783Z</time></trkpt><trkpt lat="53.70347" lon="-1.9995"><ele>192.75</ele><time>2026-05-03T15:08:07.782Z</time></trkpt><trkpt lat="53.7033583" lon="-1.9994817"><ele>193.5</ele><time>2026-05-03T15:08:08.782Z</time></trkpt><trkpt lat="53.7032467" lon="-1.999445"><ele>194.25</ele><time>2026-05-03T15:08:09.782Z</time></trkpt><trkpt lat="53.7031333" lon="-1.999405"><ele>195.0</ele><time>2026-05-03T15:08:10.782Z</time></trkpt><trkpt lat="53.7030167" lon="-1.99935"><ele>195.0</ele><time>2026-05-03T15:08:11.782Z</time></trkpt><trkpt lat="53.7029083" lon="-1.9992883"><ele>195.0</ele><time>2026-05-03T15:08:12.783Z</time></trkpt><trkpt lat="53.7027983" lon="-1.9992167"><ele>195.0</ele><time>2026-05-03T15:08:13.783Z</time></trkpt><trkpt lat="53.7026917" lon="-1.9991467"><ele>195.0</ele><time>2026-05-03T15:08:14.782Z</time></trkpt><trkpt lat="53.7025783" lon="-1.999075"><ele>199.0</ele><time>2026-05-03T15:08:15.782Z</time></trkpt><trkpt lat="53.7024533" lon="-1.9990233"><ele>203.0</ele><time>2026-05-03T15:08:16.783Z</time></trkpt><trkpt lat="53.7023367" lon="-1.998985"><ele>207.0</ele><time>2026-05-03T15:08:17.783Z</time></trkpt><trkpt lat="53.70223" lon="-1.9989617"><ele>211.0</ele><time>2026-05-03T15:08:18.783Z</time></trkpt><trkpt lat="53.7021183" lon="-1.9989533"><ele>211.0</ele><time>2026-05-03T15:08:19.782Z</time></trkpt><trkpt lat="53.702" lon="-1.99895"><ele>211.0</ele><time>2026-05-03T15:08:20.783Z</time></trkpt><trkpt lat="53.701885" lon="-1.9989367"><ele>211.0</ele><time>2026-05-03T15:08:21.783Z</time></trkpt><trkpt lat="53.7017717" lon="-1.998915"><ele>211.0</ele><time>2026-05-03T15:08:22.784Z</time></trkpt><trkpt lat="53.7016633" lon="-1.9988833"><ele>210.60000000000002</ele><time>2026-05-03T15:08:23.782Z</time></trkpt><trkpt lat="53.7015533" lon="-1.9988367"><ele>210.2</ele><time>2026-05-03T15:08:24.782Z</time></trkpt><trkpt lat="53.7014533" lon="-1.99875"><ele>209.8</ele><time>2026-05-03T15:08:25.781Z</time></trkpt><trkpt lat="53.7013717" lon="-1.9986367"><ele>209.39999999999998</ele><time>2026-05-03T15:08:26.783Z</time></trkpt><trkpt lat="53.7013017" lon="-1.998515"><ele>209.0</ele><time>2026-05-03T15:08:27.782Z</time></trkpt><trkpt lat="53.70123" lon="-1.9984067"><ele>209.6</ele><time>2026-05-03T15:08:28.783Z</time></trkpt><trkpt lat="53.701155" lon="-1.9983"><ele>210.2</ele><time>2026-05-03T15:08:29.781Z</time></trkpt><trkpt lat="53.7011" lon="-1.9981467"><ele>210.79999999999998</ele><time>2026-05-03T15:08:30.782Z</time></trkpt><trkpt lat="53.7010083" lon="-1.9980433"><ele>211.39999999999998</ele><time>2026-05-03T15:08:31.783Z</time></trkpt><trkpt lat="53.7009033" lon="-1.9979633"><ele>212.0</ele><time>2026-05-03T15:08:32.783Z</time></trkpt><trkpt lat="53.70079" lon="-1.9978967"><ele>212.0</ele><time>2026-05-03T15:08:33.783Z</time></trkpt><trkpt lat="53.700675" lon="-1.997845"><ele>212.0</ele><time>2026-05-03T15:08:34.783Z</time></trkpt><trkpt lat="53.7005567" lon="-1.99779"><ele>212.0</ele><time>2026-05-03T15:08:35.788Z</time></trkpt><trkpt lat="53.7004383" lon="-1.9977267"><ele>212.0</ele><time>2026-05-03T15:08:36.783Z</time></trkpt><trkpt lat="53.7003233" lon="-1.9976617"><ele>212.5</ele><time>2026-05-03T15:08:37.783Z</time></trkpt><trkpt lat="53.7002067" lon="-1.9976083"><ele>213.0</ele><time>2026-05-03T15:08:38.781Z</time></trkpt><trkpt lat="53.700095" lon="-1.99755"><ele>213.5</ele><time>2026-05-03T15:08:39.782Z</time></trkpt><trkpt lat="53.6999867" lon="-1.9974983"><ele>214.0</ele><time>2026-05-03T15:08:40.784Z</time></trkpt><trkpt lat="53.6998717" lon="-1.997445"><ele>216.5</ele><time>2026-05-03T15:08:41.783Z</time></trkpt><trkpt lat="53.69975" lon="-1.9974033"><ele>219.0</ele><time>2026-05-03T15:08:42.781Z</time></trkpt><trkpt lat="53.6996367" lon="-1.9973517"><ele>221.5</ele><time>2026-05-03T15:08:43.782Z</time></trkpt><trkpt lat="53.6995233" lon="-1.9973083"><ele>224.0</ele><time>2026-05-03T15:08:44.783Z</time></trkpt><trkpt lat="53.6994067" lon="-1.9972583"><ele>224.0</ele><time>2026-05-03T15:08:45.783Z</time></trkpt><trkpt lat="53.6992833" lon="-1.9972183"><ele>224.0</ele><time>2026-05-03T15:08:46.782Z</time></trkpt><trkpt lat="53.6991667" lon="-1.99716"><ele>224.0</ele><time>2026-05-03T15:08:47.781Z</time></trkpt><trkpt lat="53.6990583" lon="-1.9970917"><ele>224.0</ele><time>2026-05-03T15:08:48.783Z</time></trkpt><trkpt lat="53.698945" lon="-1.99703"><ele>224.0</ele><time>2026-05-03T15:08:49.783Z</time></trkpt><trkpt lat="53.69884" lon="-1.9969417"><ele>224.0</ele><time>2026-05-03T15:08:50.783Z</time></trkpt><trkpt lat="53.698735" lon="-1.9968517"><ele>224.0</ele><time>2026-05-03T15:08:51.783Z</time></trkpt><trkpt lat="53.6986383" lon="-1.9967533"><ele>224.0</ele><time>2026-05-03T15:08:52.782Z</time></trkpt><trkpt lat="53.6985417" lon="-1.996655"><ele>226.2</ele><time>2026-05-03T15:08:53.782Z</time></trkpt><trkpt lat="53.6984433" lon="-1.99657"><ele>228.39999999999998</ele><time>2026-05-03T15:08:54.783Z</time></trkpt><trkpt lat="53.6983433" lon="-1.9964767"><ele>230.6</ele><time>2026-05-03T15:08:55.781Z</time></trkpt><trkpt lat="53.6982417" lon="-1.9963933"><ele>232.8</ele><time>2026-05-03T15:08:56.782Z</time></trkpt><trkpt lat="53.69814" lon="-1.9963333"><ele>235.0</ele><time>2026-05-03T15:08:57.783Z</time></trkpt><trkpt lat="53.698045" lon="-1.99631"><ele>235.0</ele><time>2026-05-03T15:08:58.783Z</time></trkpt><trkpt lat="53.6979467" lon="-1.9963183"><ele>235.0</ele><time>2026-05-03T15:08:59.784Z</time></trkpt><trkpt lat="53.6978633" lon="-1.9963267"><ele>235.0</ele><time>2026-05-03T15:09:00.783Z</time></trkpt><trkpt lat="53.6977667" lon="-1.9963683"><ele>235.0</ele><time>2026-05-03T15:09:01.783Z</time></trkpt><trkpt lat="53.6976683" lon="-1.996435"><ele>235.0</ele><time>2026-05-03T15:09:02.782Z</time></trkpt><trkpt lat="53.697565" lon="-1.996515"><ele>235.8</ele><time>2026-05-03T15:09:03.782Z</time></trkpt><trkpt lat="53.6974617" lon="-1.99658"><ele>236.6</ele><time>2026-05-03T15:09:04.782Z</time></trkpt><trkpt lat="53.6973683" lon="-1.9966467"><ele>237.39999999999998</ele><time>2026-05-03T15:09:05.783Z</time></trkpt><trkpt lat="53.6972617" lon="-1.9967033"><ele>238.2</ele><time>2026-05-03T15:09:06.783Z</time></trkpt><trkpt lat="53.697155" lon="-1.9967517"><ele>239.0</ele><time>2026-05-03T15:09:07.783Z</time></trkpt><trkpt lat="53.697035" lon="-1.9967983"><ele>240.0</ele><time>2026-05-03T15:09:08.782Z</time></trkpt><trkpt lat="53.696905" lon="-1.99684"><ele>241.0</ele><time>2026-05-03T15:09:09.781Z</time></trkpt><trkpt lat="53.6967783" lon="-1.99688"><ele>242.0</ele><time>2026-05-03T15:09:10.783Z</time></trkpt><trkpt lat="53.6966617" lon="-1.9969117"><ele>243.0</ele><time>2026-05-03T15:09:11.784Z</time></trkpt><trkpt lat="53.6965517" lon="-1.9969417"><ele>243.0</ele><time>2026-05-03T15:09:12.782Z</time></trkpt><trkpt lat="53.6964533" lon="-1.9970033"><ele>243.0</ele><time>2026-05-03T15:09:13.782Z</time></trkpt><trkpt lat="53.6963583" lon="-1.9970917"><ele>243.0</ele><time>2026-05-03T15:09:14.783Z</time></trkpt><trkpt lat="53.6962667" lon="-1.9971967"><ele>243.0</ele><time>2026-05-03T15:09:15.782Z</time></trkpt><trkpt lat="53.6961783" lon="-1.9973267"><ele>243.0</ele><time>2026-05-03T15:09:16.782Z</time></trkpt><trkpt lat="53.69609" lon="-1.9974733"><ele>244.0</ele><time>2026-05-03T15:09:17.782Z</time></trkpt><trkpt lat="53.696" lon="-1.99762"><ele>245.0</ele><time>2026-05-03T15:09:18.783Z</time></trkpt><trkpt lat="53.6959167" lon="-1.99779"><ele>246.0</ele><time>2026-05-03T15:09:19.782Z</time></trkpt><trkpt lat="53.6958317" lon="-1.997945"><ele>247.0</ele><time>2026-05-03T15:09:20.782Z</time></trkpt><trkpt lat="53.695735" lon="-1.9980817"><ele>247.0</ele><time>2026-05-03T15:09:21.783Z</time></trkpt><trkpt lat="53.695625" lon="-1.9981933"><ele>247.0</ele><time>2026-05-03T15:09:22.782Z</time></trkpt><trkpt lat="53.69551" lon="-1.998285"><ele>247.0</ele><time>2026-05-03T15:09:23.783Z</time></trkpt><trkpt lat="53.6953867" lon="-1.99835"><ele>247.0</ele><time>2026-05-03T15:09:24.781Z</time></trkpt><trkpt lat="53.6952617" lon="-1.9984117"><ele>248.75</ele><time>2026-05-03T15:09:25.783Z</time></trkpt><trkpt lat="53.6951367" lon="-1.998475"><ele>250.5</ele><time>2026-05-03T15:09:26.782Z</time></trkpt><trkpt lat="53.6950133" lon="-1.9985417"><ele>252.25</ele><time>2026-05-03T15:09:27.783Z</time></trkpt><trkpt lat="53.69489" lon="-1.9986117"><ele>254.0</ele><time>2026-05-03T15:09:28.782Z</time></trkpt><trkpt lat="53.694765" lon="-1.9986833"><ele>254.0</ele><time>2026-05-03T15:09:29.782Z</time></trkpt><trkpt lat="53.6946483" lon="-1.9987783"><ele>254.0</ele><time>2026-05-03T15:09:30.782Z</time></trkpt><trkpt lat="53.6945317" lon="-1.998875"><ele>254.0</ele><time>2026-05-03T15:09:31.783Z</time></trkpt><trkpt lat="53.6944133" lon="-1.9989783"><ele>254.0</ele><time>2026-05-03T15:09:32.783Z</time></trkpt><trkpt lat="53.6943" lon="-1.999095"><ele>255.75</ele><time>2026-05-03T15:09:33.783Z</time></trkpt><trkpt lat="53.69419" lon="-1.9992233"><ele>257.5</ele><time>2026-05-03T15:09:34.782Z</time></trkpt><trkpt lat="53.6940767" lon="-1.999355"><ele>259.25</ele><time>2026-05-03T15:09:35.782Z</time></trkpt><trkpt lat="53.693955" lon="-1.9994833"><ele>261.0</ele><time>2026-05-03T15:09:36.781Z</time></trkpt><trkpt lat="53.6938317" lon="-1.9996217"><ele>261.0</ele><time>2026-05-03T15:09:37.781Z</time></trkpt><trkpt lat="53.6937067" lon="-1.9997633"><ele>261.0</ele><time>2026-05-03T15:09:38.783Z</time></trkpt><trkpt lat="53.6935833" lon="-1.9999083"><ele>261.0</ele><time>2026-05-03T15:09:39.782Z</time></trkpt><trkpt lat="53.693455" lon="-2.0000383"><ele>264.0</ele><time>2026-05-03T15:09:40.783Z</time></trkpt><trkpt lat="53.6933333" lon="-2.0001717"><ele>267.0</ele><time>2026-05-03T15:09:41.783Z</time></trkpt><trkpt lat="53.693215" lon="-2.0003067"><ele>270.0</ele><time>2026-05-03T15:09:42.783Z</time></trkpt><trkpt lat="53.6930983" lon="-2.0004433"><ele>273.0</ele><time>2026-05-03T15:09:43.782Z</time></trkpt><trkpt lat="53.692985" lon="-2.000575"><ele>273.0</ele><time>2026-05-03T15:09:44.782Z</time></trkpt><trkpt lat="53.6928817" lon="-2.0006967"><ele>273.0</ele><time>2026-05-03T15:09:45.783Z</time></trkpt><trkpt lat="53.6927917" lon="-2.0008133"><ele>273.0</ele><time>2026-05-03T15:09:46.782Z</time></trkpt><trkpt lat="53.6927083" lon="-2.000915"><ele>273.0</ele><time>2026-05-03T15:09:47.782Z</time></trkpt><trkpt lat="53.6926333" lon="-2.001"><ele>273.0</ele><time>2026-05-03T15:09:48.782Z</time></trkpt><trkpt lat="53.6925633" lon="-2.0010767"><ele>274.6</ele><time>2026-05-03T15:09:49.784Z</time></trkpt><trkpt lat="53.6924933" lon="-2.00116"><ele>276.20000000000005</ele><time>2026-05-03T15:09:50.781Z</time></trkpt><trkpt lat="53.692415" lon="-2.0012467"><ele>277.8</ele><time>2026-05-03T15:09:51.783Z</time></trkpt><trkpt lat="53.6923267" lon="-2.0013433"><ele>279.40000000000003</ele><time>2026-05-03T15:09:52.786Z</time></trkpt><trkpt lat="53.6922317" lon="-2.0014467"><ele>281.0</ele><time>2026-05-03T15:09:53.783Z</time></trkpt><trkpt lat="53.69213" lon="-2.0015667"><ele>281.75</ele><time>2026-05-03T15:09:54.783Z</time></trkpt><trkpt lat="53.6920233" lon="-2.001695"><ele>282.5</ele><time>2026-05-03T15:09:55.782Z</time></trkpt><trkpt lat="53.6919133" lon="-2.0018367"><ele>283.25</ele><time>2026-05-03T15:09:56.783Z</time></trkpt><trkpt lat="53.6917983" lon="-2.0019867"><ele>284.0</ele><time>2026-05-03T15:09:57.782Z</time></trkpt><trkpt lat="53.6916867" lon="-2.0021333"><ele>284.0</ele><time>2026-05-03T15:09:58.783Z</time></trkpt><trkpt lat="53.6915783" lon="-2.002285"><ele>284.0</ele><time>2026-05-03T15:09:59.782Z</time></trkpt><trkpt lat="53.6914717" lon="-2.0024433"><ele>284.0</ele><time>2026-05-03T15:10:00.781Z</time></trkpt><trkpt lat="53.691365" lon="-2.0026083"><ele>284.0</ele><time>2026-05-03T15:10:01.782Z</time></trkpt><trkpt lat="53.6912533" lon="-2.0027733"><ele>283.75</ele><time>2026-05-03T15:10:02.782Z</time></trkpt><trkpt lat="53.6911433" lon="-2.0029433"><ele>283.5</ele><time>2026-05-03T15:10:03.782Z</time></trkpt><trkpt lat="53.691035" lon="-2.0031167"><ele>283.25</ele><time>2026-05-03T15:10:04.783Z</time></trkpt><trkpt lat="53.6909283" lon="-2.0032967"><ele>283.0</ele><time>2026-05-03T15:10:05.783Z</time></trkpt><trkpt lat="53.69082" lon="-2.00348"><ele>283.5</ele><time>2026-05-03T15:10:06.783Z</time></trkpt><trkpt lat="53.690715" lon="-2.0036667"><ele>284.0</ele><time>2026-05-03T15:10:07.782Z</time></trkpt><trkpt lat="53.690615" lon="-2.00385"><ele>284.5</ele><time>2026-05-03T15:10:08.782Z</time></trkpt><trkpt lat="53.690515" lon="-2.0040333"><ele>285.0</ele><time>2026-05-03T15:10:09.783Z</time></trkpt><trkpt lat="53.690415" lon="-2.0042067"><ele>285.0</ele><time>2026-05-03T15:10:10.783Z</time></trkpt><trkpt lat="53.6903083" lon="-2.004375"><ele>285.0</ele><time>2026-05-03T15:10:11.783Z</time></trkpt><trkpt lat="53.6901967" lon="-2.0045517"><ele>285.0</ele><time>2026-05-03T15:10:12.783Z</time></trkpt><trkpt lat="53.6900783" lon="-2.00473"><ele>287.0</ele><time>2026-05-03T15:10:13.782Z</time></trkpt><trkpt lat="53.6899583" lon="-2.0049083"><ele>289.0</ele><time>2026-05-03T15:10:14.782Z</time></trkpt><trkpt lat="53.6898367" lon="-2.0050883"><ele>291.0</ele><time>2026-05-03T15:10:15.783Z</time></trkpt><trkpt lat="53.689715" lon="-2.005265"><ele>291.0</ele><time>2026-05-03T15:10:16.783Z</time></trkpt><trkpt lat="53.6895967" lon="-2.0054333"><ele>291.0</ele><time>2026-05-03T15:10:17.782Z</time></trkpt><trkpt lat="53.6894817" lon="-2.0055883"><ele>291.0</ele><time>2026-05-03T15:10:18.783Z</time></trkpt><trkpt lat="53.68937" lon="-2.0057217"><ele>291.0</ele><time>2026-05-03T15:10:19.782Z</time></trkpt><trkpt lat="53.6892567" lon="-2.0058533"><ele>292.3333333333333</ele><time>2026-05-03T15:10:20.782Z</time></trkpt><trkpt lat="53.6891367" lon="-2.005985"><ele>293.66666666666663</ele><time>2026-05-03T15:10:21.782Z</time></trkpt><trkpt lat="53.689005" lon="-2.006115"><ele>295.0</ele><time>2026-05-03T15:10:22.781Z</time></trkpt><trkpt lat="53.688865" lon="-2.006245"><ele>295.0</ele><time>2026-05-03T15:10:23.782Z</time></trkpt><trkpt lat="53.68872" lon="-2.00637"><ele>295.0</ele><time>2026-05-03T15:10:24.784Z</time></trkpt><trkpt lat="53.6885717" lon="-2.0064967"><ele>295.0</ele><time>2026-05-03T15:10:25.782Z</time></trkpt><trkpt lat="53.68842" lon="-2.0066217"><ele>296.3333333333333</ele><time>2026-05-03T15:10:26.783Z</time></trkpt><trkpt lat="53.6882533" lon="-2.0067417"><ele>297.6666666666667</ele><time>2026-05-03T15:10:27.783Z</time></trkpt><trkpt lat="53.68809" lon="-2.0068567"><ele>299.0</ele><time>2026-05-03T15:10:28.782Z</time></trkpt><trkpt lat="53.687925" lon="-2.0069617"><ele>299.0</ele><time>2026-05-03T15:10:29.783Z</time></trkpt><trkpt lat="53.6877633" lon="-2.00707"><ele>299.0</ele><time>2026-05-03T15:10:30.783Z</time></trkpt><trkpt lat="53.6876017" lon="-2.0071817"><ele>299.0</ele><time>2026-05-03T15:10:31.782Z</time></trkpt><trkpt lat="53.6874433" lon="-2.0072983"><ele>298.33333333333337</ele><time>2026-05-03T15:10:32.783Z</time></trkpt><trkpt lat="53.6872767" lon="-2.007415"><ele>297.6666666666667</ele><time>2026-05-03T15:10:33.782Z</time></trkpt><trkpt lat="53.6871117" lon="-2.0075483"><ele>297.0</ele><time>2026-05-03T15:10:34.782Z</time></trkpt><trkpt lat="53.68695" lon="-2.0076867"><ele>298.6666666666667</ele><time>2026-05-03T15:10:35.783Z</time></trkpt><trkpt lat="53.6868" lon="-2.0078283"><ele>300.33333333333337</ele><time>2026-05-03T15:10:36.783Z</time></trkpt><trkpt lat="53.6866617" lon="-2.0079733"><ele>302.0</ele><time>2026-05-03T15:10:37.782Z</time></trkpt><trkpt lat="53.686535" lon="-2.0081283"><ele>302.0</ele><time>2026-05-03T15:10:38.783Z</time></trkpt><trkpt lat="53.6864233" lon="-2.00831"><ele>302.0</ele><time>2026-05-03T15:10:39.783Z</time></trkpt><trkpt lat="53.68632" lon="-2.0085217"><ele>302.0</ele><time>2026-05-03T15:10:40.782Z</time></trkpt><trkpt lat="53.6862217" lon="-2.0087533"><ele>300.6666666666667</ele><time>2026-05-03T15:10:41.783Z</time></trkpt><trkpt lat="53.6861167" lon="-2.0089967"><ele>299.3333333333333</ele><time>2026-05-03T15:10:42.787Z</time></trkpt><trkpt lat="53.68601" lon="-2.009245"><ele>298.0</ele><time>2026-05-03T15:10:43.783Z</time></trkpt><trkpt lat="53.685905" lon="-2.009495"><ele>300.3333333333333</ele><time>2026-05-03T15:10:44.786Z</time></trkpt><trkpt lat="53.6858" lon="-2.0097483"><ele>302.6666666666667</ele><time>2026-05-03T15:10:45.783Z</time></trkpt><trkpt lat="53.685695" lon="-2.0099967"><ele>305.0</ele><time>2026-05-03T15:10:46.785Z</time></trkpt><trkpt lat="53.6855867" lon="-2.0102417"><ele>305.0</ele><time>2026-05-03T15:10:47.785Z</time></trkpt><trkpt lat="53.6854883" lon="-2.0104783"><ele>305.0</ele><time>2026-05-03T15:10:48.786Z</time></trkpt><trkpt lat="53.6853883" lon="-2.0107033"><ele>305.0</ele><time>2026-05-03T15:10:49.782Z</time></trkpt><trkpt lat="53.68528" lon="-2.0109133"><ele>307.6666666666667</ele><time>2026-05-03T15:10:50.781Z</time></trkpt><trkpt lat="53.6851567" lon="-2.0111133"><ele>310.3333333333333</ele><time>2026-05-03T15:10:51.783Z</time></trkpt><trkpt lat="53.6850183" lon="-2.0113017"><ele>313.0</ele><time>2026-05-03T15:10:52.783Z</time></trkpt><trkpt lat="53.68487" lon="-2.0114833"><ele>311.3333333333333</ele><time>2026-05-03T15:10:53.783Z</time></trkpt><trkpt lat="53.6847183" lon="-2.0116583"><ele>309.6666666666667</ele><time>2026-05-03T15:10:54.782Z</time></trkpt><trkpt lat="53.6845683" lon="-2.0118367"><ele>308.0</ele><time>2026-05-03T15:10:55.782Z</time></trkpt><trkpt lat="53.6844133" lon="-2.0120067"><ele>311.33333333333337</ele><time>2026-05-03T15:10:56.787Z</time></trkpt><trkpt lat="53.6842567" lon="-2.0121683"><ele>314.6666666666667</ele><time>2026-05-03T15:10:57.783Z</time></trkpt><trkpt lat="53.684095" lon="-2.0123183"><ele>318.0</ele><time>2026-05-03T15:10:58.783Z</time></trkpt><trkpt lat="53.6839317" lon="-2.0124733"><ele>318.3333333333333</ele><time>2026-05-03T15:10:59.784Z</time></trkpt><trkpt lat="53.68376" lon="-2.012625"><ele>318.66666666666663</ele><time>2026-05-03T15:11:00.785Z</time></trkpt><trkpt lat="53.6835833" lon="-2.0127717"><ele>319.0</ele><time>2026-05-03T15:11:01.782Z</time></trkpt><trkpt lat="53.6834067" lon="-2.012915"><ele>319.0</ele><time>2026-05-03T15:11:02.782Z</time></trkpt><trkpt lat="53.68323" lon="-2.013055"><ele>319.0</ele><time>2026-05-03T15:11:03.781Z</time></trkpt><trkpt lat="53.6830517" lon="-2.0131817"><ele>319.0</ele><time>2026-05-03T15:11:04.782Z</time></trkpt><trkpt lat="53.6828733" lon="-2.0132967"><ele>319.3333333333333</ele><time>2026-05-03T15:11:05.783Z</time></trkpt><trkpt lat="53.6826983" lon="-2.013405"><ele>319.6666666666667</ele><time>2026-05-03T15:11:06.783Z</time></trkpt><trkpt lat="53.6825233" lon="-2.013515"><ele>320.0</ele><time>2026-05-03T15:11:07.783Z</time></trkpt><trkpt lat="53.68235" lon="-2.0136433"><ele>320.0</ele><time>2026-05-03T15:11:08.786Z</time></trkpt><trkpt lat="53.682175" lon="-2.0137933"><ele>320.0</ele><time>2026-05-03T15:11:09.783Z</time></trkpt><trkpt lat="53.682" lon="-2.0139617"><ele>320.0</ele><time>2026-05-03T15:11:10.782Z</time></trkpt><trkpt lat="53.6818267" lon="-2.01414"><ele>320.6666666666667</ele><time>2026-05-03T15:11:11.783Z</time></trkpt><trkpt lat="53.6816567" lon="-2.0143333"><ele>321.3333333333333</ele><time>2026-05-03T15:11:12.782Z</time></trkpt><trkpt lat="53.6814883" lon="-2.0145267"><ele>322.0</ele><time>2026-05-03T15:11:13.783Z</time></trkpt><trkpt lat="53.68133" lon="-2.0147283"><ele>322.0</ele><time>2026-05-03T15:11:14.785Z</time></trkpt><trkpt lat="53.6811733" lon="-2.0149283"><ele>322.0</ele><time>2026-05-03T15:11:15.783Z</time></trkpt><trkpt lat="53.6810217" lon="-2.01513"><ele>322.0</ele><time>2026-05-03T15:11:16.783Z</time></trkpt><trkpt lat="53.6808733" lon="-2.0153367"><ele>322.66666666666663</ele><time>2026-05-03T15:11:17.783Z</time></trkpt><trkpt lat="53.6807217" lon="-2.01554"><ele>323.3333333333333</ele><time>2026-05-03T15:11:18.782Z</time></trkpt><trkpt lat="53.68059" lon="-2.0157583"><ele>324.0</ele><time>2026-05-03T15:11:19.783Z</time></trkpt><trkpt lat="53.680465" lon="-2.0159917"><ele>324.0</ele><time>2026-05-03T15:11:20.783Z</time></trkpt><trkpt lat="53.6803517" lon="-2.0162483"><ele>324.0</ele><time>2026-05-03T15:11:21.782Z</time></trkpt><trkpt lat="53.680245" lon="-2.0165183"><ele>324.0</ele><time>2026-05-03T15:11:22.786Z</time></trkpt><trkpt lat="53.6801383" lon="-2.0168"><ele>325.6666666666667</ele><time>2026-05-03T15:11:23.783Z</time></trkpt><trkpt lat="53.6800283" lon="-2.0170867"><ele>327.33333333333337</ele><time>2026-05-03T15:11:24.784Z</time></trkpt><trkpt lat="53.6799217" lon="-2.0173683"><ele>329.0</ele><time>2026-05-03T15:11:25.782Z</time></trkpt><trkpt lat="53.6798183" lon="-2.0176483"><ele>329.0</ele><time>2026-05-03T15:11:26.782Z</time></trkpt><trkpt lat="53.6797133" lon="-2.017925"><ele>329.0</ele><time>2026-05-03T15:11:27.787Z</time></trkpt><trkpt lat="53.6796067" lon="-2.0181917"><ele>329.0</ele><time>2026-05-03T15:11:28.783Z</time></trkpt><trkpt lat="53.6794983" lon="-2.0184383"><ele>331.0</ele><time>2026-05-03T15:11:29.782Z</time></trkpt><trkpt lat="53.6793817" lon="-2.0186683"><ele>333.0</ele><time>2026-05-03T15:11:30.782Z</time></trkpt><trkpt lat="53.6792517" lon="-2.0188917"><ele>335.0</ele><time>2026-05-03T15:11:31.784Z</time></trkpt><trkpt lat="53.6791133" lon="-2.0191183"><ele>334.0</ele><time>2026-05-03T15:11:32.782Z</time></trkpt><trkpt lat="53.6789733" lon="-2.0193517"><ele>333.0</ele><time>2026-05-03T15:11:33.783Z</time></trkpt><trkpt lat="53.6788333" lon="-2.0195867"><ele>332.0</ele><time>2026-05-03T15:11:34.782Z</time></trkpt><trkpt lat="53.678695" lon="-2.0198183"><ele>333.6666666666667</ele><time>2026-05-03T15:11:35.783Z</time></trkpt><trkpt lat="53.6785567" lon="-2.02005"><ele>335.3333333333333</ele><time>2026-05-03T15:11:36.782Z</time></trkpt><trkpt lat="53.678415" lon="-2.02028"><ele>337.0</ele><time>2026-05-03T15:11:37.783Z</time></trkpt><trkpt lat="53.6782767" lon="-2.0205117"><ele>337.0</ele><time>2026-05-03T15:11:38.786Z</time></trkpt><trkpt lat="53.678135" lon="-2.0207367"><ele>337.0</ele><time>2026-05-03T15:11:39.783Z</time></trkpt><trkpt lat="53.6779933" lon="-2.02096"><ele>337.0</ele><time>2026-05-03T15:11:40.783Z</time></trkpt><trkpt lat="53.6778517" lon="-2.0211883"><ele>338.66666666666663</ele><time>2026-05-03T15:11:41.782Z</time></trkpt><trkpt lat="53.6777133" lon="-2.0214183"><ele>340.3333333333333</ele><time>2026-05-03T15:11:42.782Z</time></trkpt><trkpt lat="53.6775733" lon="-2.021655"><ele>342.0</ele><time>2026-05-03T15:11:43.785Z</time></trkpt><trkpt lat="53.6774367" lon="-2.021905"><ele>342.0</ele><time>2026-05-03T15:11:44.783Z</time></trkpt><trkpt lat="53.6772967" lon="-2.0221583"><ele>342.0</ele><time>2026-05-03T15:11:45.784Z</time></trkpt><trkpt lat="53.67715" lon="-2.0224183"><ele>342.0</ele><time>2026-05-03T15:11:46.782Z</time></trkpt><trkpt lat="53.6770017" lon="-2.0226733"><ele>343.6666666666667</ele><time>2026-05-03T15:11:47.782Z</time></trkpt><trkpt lat="53.6768583" lon="-2.0229317"><ele>345.33333333333337</ele><time>2026-05-03T15:11:48.783Z</time></trkpt><trkpt lat="53.67672" lon="-2.023175"><ele>347.0</ele><time>2026-05-03T15:11:49.781Z</time></trkpt><trkpt lat="53.67659" lon="-2.0234033"><ele>347.0</ele><time>2026-05-03T15:11:50.782Z</time></trkpt><trkpt lat="53.676465" lon="-2.02362"><ele>347.0</ele><time>2026-05-03T15:11:51.781Z</time></trkpt><trkpt lat="53.676345" lon="-2.0238283"><ele>347.0</ele><time>2026-05-03T15:11:52.785Z</time></trkpt><trkpt lat="53.6762283" lon="-2.0240367"><ele>346.33333333333337</ele><time>2026-05-03T15:11:53.784Z</time></trkpt><trkpt lat="53.6761133" lon="-2.0242433"><ele>345.6666666666667</ele><time>2026-05-03T15:11:54.783Z</time></trkpt><trkpt lat="53.6759967" lon="-2.02445"><ele>345.0</ele><time>2026-05-03T15:11:55.785Z</time></trkpt><trkpt lat="53.6758767" lon="-2.024655"><ele>348.0</ele><time>2026-05-03T15:11:56.783Z</time></trkpt><trkpt lat="53.67575" lon="-2.02486"><ele>351.0</ele><time>2026-05-03T15:11:57.783Z</time></trkpt><trkpt lat="53.6756133" lon="-2.0250633"><ele>354.0</ele><time>2026-05-03T15:11:58.783Z</time></trkpt><trkpt lat="53.6754717" lon="-2.0252617"><ele>354.0</ele><time>2026-05-03T15:11:59.785Z</time></trkpt><trkpt lat="53.675325" lon="-2.0254583"><ele>354.0</ele><time>2026-05-03T15:12:00.784Z</time></trkpt><trkpt lat="53.6751767" lon="-2.0256583"><ele>354.0</ele><time>2026-05-03T15:12:01.785Z</time></trkpt><trkpt lat="53.6750233" lon="-2.02586"><ele>355.3333333333333</ele><time>2026-05-03T15:12:02.786Z</time></trkpt><trkpt lat="53.6748667" lon="-2.0260583"><ele>356.66666666666663</ele><time>2026-05-03T15:12:03.783Z</time></trkpt><trkpt lat="53.674715" lon="-2.0262683"><ele>358.0</ele><time>2026-05-03T15:12:04.785Z</time></trkpt><trkpt lat="53.6745633" lon="-2.0264783"><ele>359.3333333333333</ele><time>2026-05-03T15:12:05.785Z</time></trkpt><trkpt lat="53.6744083" lon="-2.0266817"><ele>360.6666666666667</ele><time>2026-05-03T15:12:06.785Z</time></trkpt><trkpt lat="53.6742517" lon="-2.02688"><ele>362.0</ele><time>2026-05-03T15:12:07.784Z</time></trkpt><trkpt lat="53.6740933" lon="-2.0270767"><ele>362.0</ele><time>2026-05-03T15:12:08.782Z</time></trkpt><trkpt lat="53.6739333" lon="-2.027275"><ele>362.0</ele><time>2026-05-03T15:12:09.782Z</time></trkpt><trkpt lat="53.6737767" lon="-2.0274633"><ele>362.0</ele><time>2026-05-03T15:12:10.784Z</time></trkpt><trkpt lat="53.6736167" lon="-2.0276433"><ele>363.33333333333337</ele><time>2026-05-03T15:12:11.783Z</time></trkpt><trkpt lat="53.67345" lon="-2.027815"><ele>364.6666666666667</ele><time>2026-05-03T15:12:12.784Z</time></trkpt><trkpt lat="53.6732783" lon="-2.0279833"><ele>366.0</ele><time>2026-05-03T15:12:13.785Z</time></trkpt><trkpt lat="53.673105" lon="-2.0281483"><ele>366.0</ele><time>2026-05-03T15:12:14.784Z</time></trkpt><trkpt lat="53.672925" lon="-2.028305"><ele>366.0</ele><time>2026-05-03T15:12:15.783Z</time></trkpt><trkpt lat="53.67274" lon="-2.0284567"><ele>366.0</ele><time>2026-05-03T15:12:16.784Z</time></trkpt><trkpt lat="53.67256" lon="-2.0285967"><ele>366.6666666666667</ele><time>2026-05-03T15:12:17.785Z</time></trkpt><trkpt lat="53.6723883" lon="-2.028735"><ele>367.33333333333337</ele><time>2026-05-03T15:12:18.784Z</time></trkpt><trkpt lat="53.672225" lon="-2.02887"><ele>368.0</ele><time>2026-05-03T15:12:19.784Z</time></trkpt><trkpt lat="53.67207" lon="-2.0289983"><ele>368.6666666666667</ele><time>2026-05-03T15:12:20.784Z</time></trkpt><trkpt lat="53.671915" lon="-2.0291133"><ele>369.3333333333333</ele><time>2026-05-03T15:12:21.784Z</time></trkpt><trkpt lat="53.67176" lon="-2.0292317"><ele>370.0</ele><time>2026-05-03T15:12:22.782Z</time></trkpt><trkpt lat="53.6716033" lon="-2.0293517"><ele>370.0</ele><time>2026-05-03T15:12:23.784Z</time></trkpt><trkpt lat="53.6714433" lon="-2.0294767"><ele>370.0</ele><time>2026-05-03T15:12:24.784Z</time></trkpt><trkpt lat="53.6712817" lon="-2.029605"><ele>370.0</ele><time>2026-05-03T15:12:25.785Z</time></trkpt><trkpt lat="53.6711183" lon="-2.02973"><ele>370.66666666666663</ele><time>2026-05-03T15:12:26.783Z</time></trkpt><trkpt lat="53.6709517" lon="-2.0298533"><ele>371.3333333333333</ele><time>2026-05-03T15:12:27.786Z</time></trkpt><trkpt lat="53.670785" lon="-2.02998"><ele>372.0</ele><time>2026-05-03T15:12:28.782Z</time></trkpt><trkpt lat="53.670615" lon="-2.030105"><ele>372.0</ele><time>2026-05-03T15:12:29.784Z</time></trkpt><trkpt lat="53.6704433" lon="-2.030235"><ele>372.0</ele><time>2026-05-03T15:12:30.783Z</time></trkpt><trkpt lat="53.6702733" lon="-2.030365"><ele>372.0</ele><time>2026-05-03T15:12:31.785Z</time></trkpt><trkpt lat="53.6701033" lon="-2.0304883"><ele>372.3333333333333</ele><time>2026-05-03T15:12:32.785Z</time></trkpt><trkpt lat="53.669935" lon="-2.0306133"><ele>372.66666666666663</ele><time>2026-05-03T15:12:33.783Z</time></trkpt><trkpt lat="53.669765" lon="-2.030735"><ele>373.0</ele><time>2026-05-03T15:12:34.784Z</time></trkpt><trkpt lat="53.6695983" lon="-2.0308533"><ele>374.3333333333333</ele><time>2026-05-03T15:12:35.784Z</time></trkpt><trkpt lat="53.6694283" lon="-2.030975"><ele>375.6666666666667</ele><time>2026-05-03T15:12:36.784Z</time></trkpt><trkpt lat="53.6692583" lon="-2.0311017"><ele>377.0</ele><time>2026-05-03T15:12:37.784Z</time></trkpt><trkpt lat="53.6690883" lon="-2.03123"><ele>377.0</ele><time>2026-05-03T15:12:38.784Z</time></trkpt><trkpt lat="53.668915" lon="-2.0313583"><ele>377.0</ele><time>2026-05-03T15:12:39.785Z</time></trkpt><trkpt lat="53.6687383" lon="-2.0314867"><ele>377.0</ele><time>2026-05-03T15:12:40.782Z</time></trkpt><trkpt lat="53.6685617" lon="-2.03162"><ele>378.0</ele><time>2026-05-03T15:12:41.784Z</time></trkpt><trkpt lat="53.6683883" lon="-2.0317533"><ele>379.0</ele><time>2026-05-03T15:12:42.784Z</time></trkpt><trkpt lat="53.668215" lon="-2.0318817"><ele>380.0</ele><time>2026-05-03T15:12:43.783Z</time></trkpt><trkpt lat="53.668045" lon="-2.0320083"><ele>380.0</ele><time>2026-05-03T15:12:44.783Z</time></trkpt><trkpt lat="53.6678733" lon="-2.032135"><ele>380.0</ele><time>2026-05-03T15:12:45.783Z</time></trkpt><trkpt lat="53.6676983" lon="-2.03226"><ele>380.0</ele><time>2026-05-03T15:12:46.783Z</time></trkpt><trkpt lat="53.6675233" lon="-2.032395"><ele>379.33333333333337</ele><time>2026-05-03T15:12:47.783Z</time></trkpt><trkpt lat="53.6673467" lon="-2.03253"><ele>378.6666666666667</ele><time>2026-05-03T15:12:48.784Z</time></trkpt><trkpt lat="53.66717" lon="-2.03267"><ele>378.0</ele><time>2026-05-03T15:12:49.784Z</time></trkpt><trkpt lat="53.6669967" lon="-2.0328133"><ele>379.0</ele><time>2026-05-03T15:12:50.783Z</time></trkpt><trkpt lat="53.6668217" lon="-2.0329633"><ele>380.0</ele><time>2026-05-03T15:12:51.786Z</time></trkpt><trkpt lat="53.6666483" lon="-2.033115"><ele>381.0</ele><time>2026-05-03T15:12:52.784Z</time></trkpt><trkpt lat="53.6664767" lon="-2.0332683"><ele>380.3333333333333</ele><time>2026-05-03T15:12:53.785Z</time></trkpt><trkpt lat="53.666305" lon="-2.0334333"><ele>379.66666666666663</ele><time>2026-05-03T15:12:54.784Z</time></trkpt><trkpt lat="53.6661383" lon="-2.0336133"><ele>379.0</ele><time>2026-05-03T15:12:55.783Z</time></trkpt><trkpt lat="53.665975" lon="-2.033795"><ele>379.66666666666663</ele><time>2026-05-03T15:12:56.783Z</time></trkpt><trkpt lat="53.665815" lon="-2.03398"><ele>380.3333333333333</ele><time>2026-05-03T15:12:57.784Z</time></trkpt><trkpt lat="53.665655" lon="-2.0341617"><ele>381.0</ele><time>2026-05-03T15:12:58.784Z</time></trkpt><trkpt lat="53.6654967" lon="-2.03434"><ele>381.0</ele><time>2026-05-03T15:12:59.784Z</time></trkpt><trkpt lat="53.66534" lon="-2.034505"><ele>381.0</ele><time>2026-05-03T15:13:00.784Z</time></trkpt><trkpt lat="53.6651883" lon="-2.0346667"><ele>381.0</ele><time>2026-05-03T15:13:01.784Z</time></trkpt><trkpt lat="53.6650367" lon="-2.03482"><ele>382.33333333333337</ele><time>2026-05-03T15:13:02.784Z</time></trkpt><trkpt lat="53.664885" lon="-2.0349717"><ele>383.6666666666667</ele><time>2026-05-03T15:13:03.783Z</time></trkpt><trkpt lat="53.6647333" lon="-2.035115"><ele>385.0</ele><time>2026-05-03T15:13:04.785Z</time></trkpt><trkpt lat="53.6645833" lon="-2.0352583"><ele>385.6666666666667</ele><time>2026-05-03T15:13:05.784Z</time></trkpt><trkpt lat="53.6644317" lon="-2.0354033"><ele>386.33333333333337</ele><time>2026-05-03T15:13:06.784Z</time></trkpt><trkpt lat="53.6642767" lon="-2.0355433"><ele>387.0</ele><time>2026-05-03T15:13:07.784Z</time></trkpt><trkpt lat="53.6641183" lon="-2.0356817"><ele>387.0</ele><time>2026-05-03T15:13:08.782Z</time></trkpt><trkpt lat="53.663955" lon="-2.0358167"><ele>387.0</ele><time>2026-05-03T15:13:09.783Z</time></trkpt><trkpt lat="53.6637867" lon="-2.035945"><ele>387.0</ele><time>2026-05-03T15:13:10.784Z</time></trkpt><trkpt lat="53.6636233" lon="-2.0360717"><ele>387.33333333333337</ele><time>2026-05-03T15:13:11.785Z</time></trkpt><trkpt lat="53.6634583" lon="-2.0362033"><ele>387.6666666666667</ele><time>2026-05-03T15:13:12.785Z</time></trkpt><trkpt lat="53.6632933" lon="-2.036335"><ele>388.0</ele><time>2026-05-03T15:13:13.785Z</time></trkpt><trkpt lat="53.6631333" lon="-2.0364733"><ele>388.0</ele><time>2026-05-03T15:13:14.786Z</time></trkpt><trkpt lat="53.6629717" lon="-2.0366067"><ele>388.0</ele><time>2026-05-03T15:13:15.783Z</time></trkpt><trkpt lat="53.66281" lon="-2.036735"><ele>388.0</ele><time>2026-05-03T15:13:16.785Z</time></trkpt><trkpt lat="53.6626433" lon="-2.0368567"><ele>387.6666666666667</ele><time>2026-05-03T15:13:17.785Z</time></trkpt><trkpt lat="53.6624767" lon="-2.036975"><ele>387.33333333333337</ele><time>2026-05-03T15:13:18.784Z</time></trkpt><trkpt lat="53.6623067" lon="-2.0370867"><ele>387.0</ele><time>2026-05-03T15:13:19.783Z</time></trkpt><trkpt lat="53.662135" lon="-2.0372017"><ele>387.0</ele><time>2026-05-03T15:13:20.783Z</time></trkpt><trkpt lat="53.66196" lon="-2.0373167"><ele>387.0</ele><time>2026-05-03T15:13:21.783Z</time></trkpt><trkpt lat="53.6617867" lon="-2.0374417"><ele>387.0</ele><time>2026-05-03T15:13:22.783Z</time></trkpt><trkpt lat="53.6616067" lon="-2.037565"><ele>387.66666666666663</ele><time>2026-05-03T15:13:23.785Z</time></trkpt><trkpt lat="53.6614283" lon="-2.037695"><ele>388.3333333333333</ele><time>2026-05-03T15:13:24.782Z</time></trkpt><trkpt lat="53.66125" lon="-2.0378233"><ele>389.0</ele><time>2026-05-03T15:13:25.784Z</time></trkpt><trkpt lat="53.6610817" lon="-2.0379383"><ele>390.0</ele><time>2026-05-03T15:13:26.784Z</time></trkpt><trkpt lat="53.6609133" lon="-2.03805"><ele>391.0</ele><time>2026-05-03T15:13:27.783Z</time></trkpt><trkpt lat="53.6607467" lon="-2.0381633"><ele>392.0</ele><time>2026-05-03T15:13:28.784Z</time></trkpt><trkpt lat="53.66058" lon="-2.0382783"><ele>390.3333333333333</ele><time>2026-05-03T15:13:29.784Z</time></trkpt><trkpt lat="53.6604183" lon="-2.0383933"><ele>388.66666666666663</ele><time>2026-05-03T15:13:30.783Z</time></trkpt><trkpt lat="53.660265" lon="-2.038505"><ele>387.0</ele><time>2026-05-03T15:13:31.783Z</time></trkpt><trkpt lat="53.6601183" lon="-2.0386083"><ele>386.75</ele><time>2026-05-03T15:13:32.783Z</time></trkpt><trkpt lat="53.65998" lon="-2.0387017"><ele>386.5</ele><time>2026-05-03T15:13:33.783Z</time></trkpt><trkpt lat="53.6598533" lon="-2.0387883"><ele>386.25</ele><time>2026-05-03T15:13:34.783Z</time></trkpt><trkpt lat="53.659735" lon="-2.0388683"><ele>386.0</ele><time>2026-05-03T15:13:35.783Z</time></trkpt><trkpt lat="53.6596267" lon="-2.0389383"><ele>386.0</ele><time>2026-05-03T15:13:36.783Z</time></trkpt><trkpt lat="53.6595283" lon="-2.039"><ele>386.0</ele><time>2026-05-03T15:13:37.783Z</time></trkpt><trkpt lat="53.6594417" lon="-2.0390567"><ele>386.0</ele><time>2026-05-03T15:13:38.783Z</time></trkpt><trkpt lat="53.65937" lon="-2.0391033"><ele>386.0</ele><time>2026-05-03T15:13:39.784Z</time></trkpt><trkpt lat="53.659275" lon="-2.0391533"><ele>386.0</ele><time>2026-05-03T15:13:41.785Z</time></trkpt><trkpt lat="53.6592017" lon="-2.0391133"><ele>386.4</ele><time>2026-05-03T15:13:44.787Z</time></trkpt><trkpt lat="53.6591883" lon="-2.0390067"><ele>386.8</ele><time>2026-05-03T15:13:46.784Z</time></trkpt><trkpt lat="53.6592067" lon="-2.0387883"><ele>387.2</ele><time>2026-05-03T15:13:48.782Z</time></trkpt><trkpt lat="53.6592217" lon="-2.0386283"><ele>387.59999999999997</ele><time>2026-05-03T15:13:49.784Z</time></trkpt><trkpt lat="53.659235" lon="-2.038435"><ele>388.0</ele><time>2026-05-03T15:13:50.788Z</time></trkpt><trkpt lat="53.65925" lon="-2.038225"><ele>388.25</ele><time>2026-05-03T15:13:51.784Z</time></trkpt><trkpt lat="53.6592617" lon="-2.037995"><ele>388.5</ele><time>2026-05-03T15:13:52.785Z</time></trkpt><trkpt lat="53.6592733" lon="-2.03776"><ele>388.75</ele><time>2026-05-03T15:13:53.785Z</time></trkpt><trkpt lat="53.659285" lon="-2.0375217"><ele>389.0</ele><time>2026-05-03T15:13:54.784Z</time></trkpt><trkpt lat="53.6593017" lon="-2.037275"><ele>389.66666666666663</ele><time>2026-05-03T15:13:55.783Z</time></trkpt><trkpt lat="53.6593183" lon="-2.037015"><ele>390.33333333333337</ele><time>2026-05-03T15:13:56.783Z</time></trkpt><trkpt lat="53.6593383" lon="-2.03675"><ele>391.0</ele><time>2026-05-03T15:13:57.783Z</time></trkpt><trkpt lat="53.659355" lon="-2.0364933"><ele>391.33333333333337</ele><time>2026-05-03T15:13:58.783Z</time></trkpt><trkpt lat="53.6593717" lon="-2.0362417"><ele>391.66666666666663</ele><time>2026-05-03T15:13:59.783Z</time></trkpt><trkpt lat="53.65939" lon="-2.035975"><ele>392.0</ele><time>2026-05-03T15:14:00.787Z</time></trkpt><trkpt lat="53.65941" lon="-2.0356867"><ele>392.0</ele><time>2026-05-03T15:14:01.784Z</time></trkpt><trkpt lat="53.6594333" lon="-2.0353783"><ele>392.0</ele><time>2026-05-03T15:14:02.783Z</time></trkpt><trkpt lat="53.659455" lon="-2.0350483"><ele>392.0</ele><time>2026-05-03T15:14:03.784Z</time></trkpt><trkpt lat="53.6594817" lon="-2.0346967"><ele>391.0</ele><time>2026-05-03T15:14:04.783Z</time></trkpt><trkpt lat="53.6595117" lon="-2.034325"><ele>390.0</ele><time>2026-05-03T15:14:05.783Z</time></trkpt><trkpt lat="53.6595383" lon="-2.0339433"><ele>390.0</ele><time>2026-05-03T15:14:06.783Z</time></trkpt><trkpt lat="53.65957" lon="-2.0335583"><ele>390.0</ele><time>2026-05-03T15:14:07.783Z</time></trkpt><trkpt lat="53.6596033" lon="-2.0331683"><ele>390.0</ele><time>2026-05-03T15:14:08.784Z</time></trkpt><trkpt lat="53.6596417" lon="-2.0327717"><ele>390.0</ele><time>2026-05-03T15:14:09.782Z</time></trkpt><trkpt lat="53.65968" lon="-2.0323733"><ele>389.5</ele><time>2026-05-03T15:14:10.784Z</time></trkpt><trkpt lat="53.6597183" lon="-2.0319717"><ele>389.0</ele><time>2026-05-03T15:14:11.784Z</time></trkpt><trkpt lat="53.6597617" lon="-2.031565"><ele>386.5</ele><time>2026-05-03T15:14:12.782Z</time></trkpt><trkpt lat="53.65981" lon="-2.0311533"><ele>384.0</ele><time>2026-05-03T15:14:13.782Z</time></trkpt><trkpt lat="53.6598583" lon="-2.0307383"><ele>381.0</ele><time>2026-05-03T15:14:14.782Z</time></trkpt><trkpt lat="53.6599133" lon="-2.0303233"><ele>378.0</ele><time>2026-05-03T15:14:15.784Z</time></trkpt><trkpt lat="53.6599667" lon="-2.0299167"><ele>376.5</ele><time>2026-05-03T15:14:16.783Z</time></trkpt><trkpt lat="53.6600183" lon="-2.02951"><ele>375.0</ele><time>2026-05-03T15:14:17.783Z</time></trkpt><trkpt lat="53.6600717" lon="-2.0291083"><ele>374.0</ele><time>2026-05-03T15:14:18.783Z</time></trkpt><trkpt lat="53.6601217" lon="-2.0287333"><ele>373.0</ele><time>2026-05-03T15:14:19.784Z</time></trkpt><trkpt lat="53.660175" lon="-2.0283683"><ele>373.66666666666663</ele><time>2026-05-03T15:14:20.783Z</time></trkpt><trkpt lat="53.66022" lon="-2.0280083"><ele>374.3333333333333</ele><time>2026-05-03T15:14:21.783Z</time></trkpt><trkpt lat="53.6602683" lon="-2.0276583"><ele>375.0</ele><time>2026-05-03T15:14:22.783Z</time></trkpt><trkpt lat="53.6603167" lon="-2.0272967"><ele>375.0</ele><time>2026-05-03T15:14:23.783Z</time></trkpt><trkpt lat="53.6603783" lon="-2.0269367"><ele>375.0</ele><time>2026-05-03T15:14:24.782Z</time></trkpt><trkpt lat="53.6604583" lon="-2.0265867"><ele>375.0</ele><time>2026-05-03T15:14:25.783Z</time></trkpt><trkpt lat="53.6605533" lon="-2.0262333"><ele>372.0</ele><time>2026-05-03T15:14:26.783Z</time></trkpt><trkpt lat="53.66066" lon="-2.0258783"><ele>369.0</ele><time>2026-05-03T15:14:27.783Z</time></trkpt><trkpt lat="53.66077" lon="-2.0255233"><ele>365.0</ele><time>2026-05-03T15:14:28.783Z</time></trkpt><trkpt lat="53.6608833" lon="-2.02517"><ele>361.0</ele><time>2026-05-03T15:14:29.784Z</time></trkpt><trkpt lat="53.6609983" lon="-2.024815"><ele>358.0</ele><time>2026-05-03T15:14:30.783Z</time></trkpt><trkpt lat="53.6611133" lon="-2.0244533"><ele>355.0</ele><time>2026-05-03T15:14:31.784Z</time></trkpt><trkpt lat="53.6612267" lon="-2.02408"><ele>355.0</ele><time>2026-05-03T15:14:32.789Z</time></trkpt><trkpt lat="53.6613383" lon="-2.023705"><ele>355.0</ele><time>2026-05-03T15:14:33.782Z</time></trkpt><trkpt lat="53.6614467" lon="-2.0233283"><ele>352.0</ele><time>2026-05-03T15:14:34.786Z</time></trkpt><trkpt lat="53.6615467" lon="-2.0229483"><ele>349.0</ele><time>2026-05-03T15:14:35.784Z</time></trkpt><trkpt lat="53.66164" lon="-2.0225683"><ele>346.0</ele><time>2026-05-03T15:14:36.783Z</time></trkpt><trkpt lat="53.6617283" lon="-2.022185"><ele>343.0</ele><time>2026-05-03T15:14:37.783Z</time></trkpt><trkpt lat="53.66181" lon="-2.0217967"><ele>345.5</ele><time>2026-05-03T15:14:38.787Z</time></trkpt><trkpt lat="53.6618867" lon="-2.0214017"><ele>348.0</ele><time>2026-05-03T15:14:39.783Z</time></trkpt><trkpt lat="53.6619617" lon="-2.0210117"><ele>345.5</ele><time>2026-05-03T15:14:40.783Z</time></trkpt><trkpt lat="53.6620317" lon="-2.0206267"><ele>343.0</ele><time>2026-05-03T15:14:41.783Z</time></trkpt><trkpt lat="53.6621" lon="-2.0202483"><ele>339.0</ele><time>2026-05-03T15:14:42.785Z</time></trkpt><trkpt lat="53.662165" lon="-2.019875"><ele>335.0</ele><time>2026-05-03T15:14:43.784Z</time></trkpt><trkpt lat="53.6622267" lon="-2.0195183"><ele>335.0</ele><time>2026-05-03T15:14:44.787Z</time></trkpt><trkpt lat="53.66228" lon="-2.0191717"><ele>335.0</ele><time>2026-05-03T15:14:45.784Z</time></trkpt><trkpt lat="53.662335" lon="-2.01884"><ele>335.0</ele><time>2026-05-03T15:14:46.784Z</time></trkpt><trkpt lat="53.6623867" lon="-2.0185233"><ele>332.33333333333337</ele><time>2026-05-03T15:14:47.784Z</time></trkpt><trkpt lat="53.662435" lon="-2.01821"><ele>329.6666666666667</ele><time>2026-05-03T15:14:48.785Z</time></trkpt><trkpt lat="53.6624733" lon="-2.0178883"><ele>327.0</ele><time>2026-05-03T15:14:49.783Z</time></trkpt><trkpt lat="53.6624967" lon="-2.0175583"><ele>326.3333333333333</ele><time>2026-05-03T15:14:50.783Z</time></trkpt><trkpt lat="53.6625033" lon="-2.0172067"><ele>325.66666666666663</ele><time>2026-05-03T15:14:51.783Z</time></trkpt><trkpt lat="53.6624917" lon="-2.01684"><ele>325.0</ele><time>2026-05-03T15:14:52.787Z</time></trkpt><trkpt lat="53.662475" lon="-2.0164667"><ele>324.0</ele><time>2026-05-03T15:14:53.783Z</time></trkpt><trkpt lat="53.662455" lon="-2.01609"><ele>323.0</ele><time>2026-05-03T15:14:54.783Z</time></trkpt><trkpt lat="53.6624317" lon="-2.01571"><ele>322.0</ele><time>2026-05-03T15:14:55.784Z</time></trkpt><trkpt lat="53.6624067" lon="-2.0153333"><ele>321.0</ele><time>2026-05-03T15:14:56.782Z</time></trkpt><trkpt lat="53.662385" lon="-2.01495"><ele>320.6666666666667</ele><time>2026-05-03T15:14:57.783Z</time></trkpt><trkpt lat="53.662365" lon="-2.0145717"><ele>320.33333333333337</ele><time>2026-05-03T15:14:58.783Z</time></trkpt><trkpt lat="53.66235" lon="-2.0142"><ele>320.0</ele><time>2026-05-03T15:14:59.784Z</time></trkpt><trkpt lat="53.6623367" lon="-2.013835"><ele>319.6666666666667</ele><time>2026-05-03T15:15:00.784Z</time></trkpt><trkpt lat="53.6623233" lon="-2.01348"><ele>319.3333333333333</ele><time>2026-05-03T15:15:01.784Z</time></trkpt><trkpt lat="53.6623083" lon="-2.0131217"><ele>319.0</ele><time>2026-05-03T15:15:02.783Z</time></trkpt><trkpt lat="53.6622967" lon="-2.0127567"><ele>316.3333333333333</ele><time>2026-05-03T15:15:03.783Z</time></trkpt><trkpt lat="53.662285" lon="-2.012385"><ele>313.6666666666667</ele><time>2026-05-03T15:15:04.784Z</time></trkpt><trkpt lat="53.6622767" lon="-2.0120133"><ele>311.0</ele><time>2026-05-03T15:15:05.785Z</time></trkpt><trkpt lat="53.662275" lon="-2.0116383"><ele>309.0</ele><time>2026-05-03T15:15:06.784Z</time></trkpt><trkpt lat="53.662285" lon="-2.0112583"><ele>307.0</ele><time>2026-05-03T15:15:07.784Z</time></trkpt><trkpt lat="53.6623033" lon="-2.0108767"><ele>305.0</ele><time>2026-05-03T15:15:08.784Z</time></trkpt><trkpt lat="53.6623267" lon="-2.0104917"><ele>303.0</ele><time>2026-05-03T15:15:09.783Z</time></trkpt><trkpt lat="53.6623533" lon="-2.0100917"><ele>300.5</ele><time>2026-05-03T15:15:10.783Z</time></trkpt><trkpt lat="53.6623833" lon="-2.0096767"><ele>298.0</ele><time>2026-05-03T15:15:11.784Z</time></trkpt><trkpt lat="53.662415" lon="-2.0092683"><ele>296.5</ele><time>2026-05-03T15:15:12.783Z</time></trkpt><trkpt lat="53.6624467" lon="-2.0088767"><ele>295.0</ele><time>2026-05-03T15:15:13.784Z</time></trkpt><trkpt lat="53.6624733" lon="-2.008505"><ele>293.3333333333333</ele><time>2026-05-03T15:15:14.783Z</time></trkpt><trkpt lat="53.66249" lon="-2.00814"><ele>291.6666666666667</ele><time>2026-05-03T15:15:15.783Z</time></trkpt><trkpt lat="53.662495" lon="-2.0077817"><ele>290.0</ele><time>2026-05-03T15:15:16.782Z</time></trkpt><trkpt lat="53.662495" lon="-2.0074367"><ele>289.0</ele><time>2026-05-03T15:15:17.783Z</time></trkpt><trkpt lat="53.6625" lon="-2.0070983"><ele>288.0</ele><time>2026-05-03T15:15:18.782Z</time></trkpt><trkpt lat="53.6625233" lon="-2.00676"><ele>287.0</ele><time>2026-05-03T15:15:19.783Z</time></trkpt><trkpt lat="53.6625567" lon="-2.0064433"><ele>285.0</ele><time>2026-05-03T15:15:20.783Z</time></trkpt><trkpt lat="53.6626033" lon="-2.006145"><ele>283.0</ele><time>2026-05-03T15:15:21.783Z</time></trkpt><trkpt lat="53.66267" lon="-2.0058583"><ele>281.0</ele><time>2026-05-03T15:15:22.783Z</time></trkpt><trkpt lat="53.6627567" lon="-2.005575"><ele>280.0</ele><time>2026-05-03T15:15:23.783Z</time></trkpt><trkpt lat="53.6628633" lon="-2.0052917"><ele>279.0</ele><time>2026-05-03T15:15:24.783Z</time></trkpt><trkpt lat="53.6629883" lon="-2.0050083"><ele>278.0</ele><time>2026-05-03T15:15:25.783Z</time></trkpt><trkpt lat="53.66312" lon="-2.0047317"><ele>278.0</ele><time>2026-05-03T15:15:26.783Z</time></trkpt><trkpt lat="53.66326" lon="-2.004465"><ele>278.0</ele><time>2026-05-03T15:15:27.783Z</time></trkpt><trkpt lat="53.663395" lon="-2.0042117"><ele>278.0</ele><time>2026-05-03T15:15:28.784Z</time></trkpt><trkpt lat="53.6635267" lon="-2.003985"><ele>278.0</ele><time>2026-05-03T15:15:29.784Z</time></trkpt><trkpt lat="53.6636433" lon="-2.0037583"><ele>278.0</ele><time>2026-05-03T15:15:30.783Z</time></trkpt><trkpt lat="53.6637383" lon="-2.00352"><ele>278.0</ele><time>2026-05-03T15:15:31.783Z</time></trkpt><trkpt lat="53.66382" lon="-2.0032767"><ele>278.0</ele><time>2026-05-03T15:15:32.782Z</time></trkpt><trkpt lat="53.6638933" lon="-2.003035"><ele>278.0</ele><time>2026-05-03T15:15:33.784Z</time></trkpt><trkpt lat="53.6639717" lon="-2.0027967"><ele>278.0</ele><time>2026-05-03T15:15:34.787Z</time></trkpt><trkpt lat="53.6640567" lon="-2.002565"><ele>276.6666666666667</ele><time>2026-05-03T15:15:35.783Z</time></trkpt><trkpt lat="53.6641467" lon="-2.0023483"><ele>275.3333333333333</ele><time>2026-05-03T15:15:36.784Z</time></trkpt><trkpt lat="53.6642417" lon="-2.0021483"><ele>274.0</ele><time>2026-05-03T15:15:37.783Z</time></trkpt><trkpt lat="53.6643467" lon="-2.0019517"><ele>275.0</ele><time>2026-05-03T15:15:38.786Z</time></trkpt><trkpt lat="53.6644533" lon="-2.00175"><ele>276.0</ele><time>2026-05-03T15:15:39.781Z</time></trkpt><trkpt lat="53.6645633" lon="-2.0015517"><ele>277.0</ele><time>2026-05-03T15:15:40.782Z</time></trkpt><trkpt lat="53.6646733" lon="-2.00134"><ele>277.0</ele><time>2026-05-03T15:15:41.784Z</time></trkpt><trkpt lat="53.6647817" lon="-2.001115"><ele>277.0</ele><time>2026-05-03T15:15:42.783Z</time></trkpt><trkpt lat="53.6648833" lon="-2.0008883"><ele>277.0</ele><time>2026-05-03T15:15:43.782Z</time></trkpt><trkpt lat="53.6649767" lon="-2.000665"><ele>276.66666666666663</ele><time>2026-05-03T15:15:44.787Z</time></trkpt><trkpt lat="53.66506" lon="-2.0004433"><ele>276.3333333333333</ele><time>2026-05-03T15:15:45.783Z</time></trkpt><trkpt lat="53.665135" lon="-2.0002267"><ele>276.0</ele><time>2026-05-03T15:15:46.787Z</time></trkpt><trkpt lat="53.6652033" lon="-2.00001"><ele>276.0</ele><time>2026-05-03T15:15:47.784Z</time></trkpt><trkpt lat="53.66527" lon="-1.9997983"><ele>276.0</ele><time>2026-05-03T15:15:48.783Z</time></trkpt><trkpt lat="53.6653317" lon="-1.9995983"><ele>276.0</ele><time>2026-05-03T15:15:49.783Z</time></trkpt><trkpt lat="53.665385" lon="-1.9994167"><ele>276.0</ele><time>2026-05-03T15:15:50.783Z</time></trkpt><trkpt lat="53.6654283" lon="-1.9992533"><ele>276.8333333333333</ele><time>2026-05-03T15:15:51.785Z</time></trkpt><trkpt lat="53.665465" lon="-1.9991083"><ele>277.6666666666667</ele><time>2026-05-03T15:15:52.783Z</time></trkpt><trkpt lat="53.6654967" lon="-1.998985"><ele>278.5</ele><time>2026-05-03T15:15:53.783Z</time></trkpt><trkpt lat="53.6655267" lon="-1.998885"><ele>279.33333333333337</ele><time>2026-05-03T15:15:54.782Z</time></trkpt><trkpt lat="53.66549" lon="-1.9987667"><ele>280.1666666666667</ele><time>2026-05-03T15:15:57.783Z</time></trkpt><trkpt lat="53.6654217" lon="-1.9986617"><ele>281.0</ele><time>2026-05-03T15:15:59.787Z</time></trkpt><trkpt lat="53.6653733" lon="-1.9985683"><ele>281.0</ele><time>2026-05-03T15:16:00.787Z</time></trkpt><trkpt lat="53.6653183" lon="-1.9984483"><ele>281.0</ele><time>2026-05-03T15:16:01.783Z</time></trkpt><trkpt lat="53.6652583" lon="-1.99832"><ele>281.0</ele><time>2026-05-03T15:16:02.783Z</time></trkpt><trkpt lat="53.6651967" lon="-1.9981883"><ele>281.0</ele><time>2026-05-03T15:16:03.783Z</time></trkpt><trkpt lat="53.6651417" lon="-1.9980533"><ele>281.0</ele><time>2026-05-03T15:16:04.782Z</time></trkpt><trkpt lat="53.6650917" lon="-1.9979117"><ele>278.6</ele><time>2026-05-03T15:16:05.783Z</time></trkpt><trkpt lat="53.6650383" lon="-1.9977617"><ele>276.20000000000005</ele><time>2026-05-03T15:16:06.783Z</time></trkpt><trkpt lat="53.6649883" lon="-1.9976217"><ele>273.79999999999995</ele><time>2026-05-03T15:16:07.784Z</time></trkpt><trkpt lat="53.6649317" lon="-1.9974883"><ele>271.4</ele><time>2026-05-03T15:16:08.783Z</time></trkpt><trkpt lat="53.66487" lon="-1.9973533"><ele>269.0</ele><time>2026-05-03T15:16:09.783Z</time></trkpt><trkpt lat="53.6647917" lon="-1.9972267"><ele>268.5</ele><time>2026-05-03T15:16:10.783Z</time></trkpt><trkpt lat="53.6647067" lon="-1.997105"><ele>268.0</ele><time>2026-05-03T15:16:11.784Z</time></trkpt><trkpt lat="53.66461" lon="-1.9969733"><ele>267.5</ele><time>2026-05-03T15:16:12.782Z</time></trkpt><trkpt lat="53.6645133" lon="-1.99684"><ele>267.0</ele><time>2026-05-03T15:16:13.784Z</time></trkpt><trkpt lat="53.6644067" lon="-1.996705"><ele>265.5</ele><time>2026-05-03T15:16:14.783Z</time></trkpt><trkpt lat="53.6642967" lon="-1.9965633"><ele>264.0</ele><time>2026-05-03T15:16:15.782Z</time></trkpt><trkpt lat="53.66419" lon="-1.9964233"><ele>262.5</ele><time>2026-05-03T15:16:16.783Z</time></trkpt><trkpt lat="53.6640867" lon="-1.99629"><ele>261.0</ele><time>2026-05-03T15:16:17.783Z</time></trkpt><trkpt lat="53.6639933" lon="-1.996155"><ele>261.0</ele><time>2026-05-03T15:16:18.783Z</time></trkpt><trkpt lat="53.6639017" lon="-1.996025"><ele>261.0</ele><time>2026-05-03T15:16:19.783Z</time></trkpt><trkpt lat="53.663815" lon="-1.9959"><ele>261.0</ele><time>2026-05-03T15:16:20.783Z</time></trkpt><trkpt lat="53.6637383" lon="-1.9957767"><ele>261.0</ele><time>2026-05-03T15:16:21.781Z</time></trkpt><trkpt lat="53.6636767" lon="-1.995655"><ele>261.0</ele><time>2026-05-03T15:16:22.783Z</time></trkpt><trkpt lat="53.6636283" lon="-1.9955317"><ele>262.8</ele><time>2026-05-03T15:16:23.783Z</time></trkpt><trkpt lat="53.66359" lon="-1.9954033"><ele>264.6</ele><time>2026-05-03T15:16:24.782Z</time></trkpt><trkpt lat="53.6635683" lon="-1.9952583"><ele>266.4</ele><time>2026-05-03T15:16:25.784Z</time></trkpt><trkpt lat="53.6635767" lon="-1.9950733"><ele>268.2</ele><time>2026-05-03T15:16:26.782Z</time></trkpt><trkpt lat="53.6635917" lon="-1.9948767"><ele>270.0</ele><time>2026-05-03T15:16:27.782Z</time></trkpt><trkpt lat="53.6636117" lon="-1.9946617"><ele>266.25</ele><time>2026-05-03T15:16:28.783Z</time></trkpt><trkpt lat="53.663635" lon="-1.9944233"><ele>262.5</ele><time>2026-05-03T15:16:29.782Z</time></trkpt><trkpt lat="53.66366" lon="-1.9941767"><ele>258.75</ele><time>2026-05-03T15:16:30.783Z</time></trkpt><trkpt lat="53.6636717" lon="-1.9939333"><ele>255.0</ele><time>2026-05-03T15:16:31.784Z</time></trkpt><trkpt lat="53.6636717" lon="-1.9936933"><ele>255.0</ele><time>2026-05-03T15:16:32.782Z</time></trkpt><trkpt lat="53.6636583" lon="-1.993445"><ele>255.0</ele><time>2026-05-03T15:16:33.782Z</time></trkpt><trkpt lat="53.6636267" lon="-1.9931867"><ele>255.0</ele><time>2026-05-03T15:16:34.784Z</time></trkpt><trkpt lat="53.6635817" lon="-1.9929217"><ele>259.3333333333333</ele><time>2026-05-03T15:16:35.785Z</time></trkpt><trkpt lat="53.66353" lon="-1.9926583"><ele>263.66666666666663</ele><time>2026-05-03T15:16:36.784Z</time></trkpt><trkpt lat="53.663475" lon="-1.9923917"><ele>268.0</ele><time>2026-05-03T15:16:37.783Z</time></trkpt><trkpt lat="53.66341" lon="-1.9921333"><ele>269.0</ele><time>2026-05-03T15:16:38.783Z</time></trkpt><trkpt lat="53.6633333" lon="-1.9918833"><ele>270.0</ele><time>2026-05-03T15:16:39.783Z</time></trkpt><trkpt lat="53.6632567" lon="-1.9916417"><ele>271.0</ele><time>2026-05-03T15:16:40.784Z</time></trkpt><trkpt lat="53.6631683" lon="-1.991415"><ele>271.66666666666663</ele><time>2026-05-03T15:16:41.785Z</time></trkpt><trkpt lat="53.663075" lon="-1.9911883"><ele>272.3333333333333</ele><time>2026-05-03T15:16:42.783Z</time></trkpt><trkpt lat="53.662975" lon="-1.9909533"><ele>273.0</ele><time>2026-05-03T15:16:43.784Z</time></trkpt><trkpt lat="53.6628733" lon="-1.9907083"><ele>276.0</ele><time>2026-05-03T15:16:44.782Z</time></trkpt><trkpt lat="53.6627733" lon="-1.9904567"><ele>279.0</ele><time>2026-05-03T15:16:45.782Z</time></trkpt><trkpt lat="53.6626783" lon="-1.99021"><ele>282.0</ele><time>2026-05-03T15:16:46.781Z</time></trkpt><trkpt lat="53.6625917" lon="-1.9899583"><ele>282.0</ele><time>2026-05-03T15:16:47.784Z</time></trkpt><trkpt lat="53.6625117" lon="-1.9897017"><ele>282.0</ele><time>2026-05-03T15:16:48.783Z</time></trkpt><trkpt lat="53.66243" lon="-1.9894517"><ele>282.0</ele><time>2026-05-03T15:16:49.784Z</time></trkpt><trkpt lat="53.6623517" lon="-1.9892033"><ele>281.6666666666667</ele><time>2026-05-03T15:16:50.788Z</time></trkpt><trkpt lat="53.66227" lon="-1.98895"><ele>281.33333333333337</ele><time>2026-05-03T15:16:51.782Z</time></trkpt><trkpt lat="53.6621867" lon="-1.98869"><ele>281.0</ele><time>2026-05-03T15:16:52.784Z</time></trkpt><trkpt lat="53.662115" lon="-1.9884167"><ele>281.0</ele><time>2026-05-03T15:16:53.782Z</time></trkpt><trkpt lat="53.6620583" lon="-1.988135"><ele>281.0</ele><time>2026-05-03T15:16:54.783Z</time></trkpt><trkpt lat="53.662025" lon="-1.9878433"><ele>281.0</ele><time>2026-05-03T15:16:55.786Z</time></trkpt><trkpt lat="53.6620033" lon="-1.9875383"><ele>282.0</ele><time>2026-05-03T15:16:56.785Z</time></trkpt><trkpt lat="53.6619917" lon="-1.9872433"><ele>283.0</ele><time>2026-05-03T15:16:57.783Z</time></trkpt><trkpt lat="53.661975" lon="-1.986985"><ele>284.0</ele><time>2026-05-03T15:16:58.783Z</time></trkpt><trkpt lat="53.66195" lon="-1.9867717"><ele>288.5</ele><time>2026-05-03T15:16:59.785Z</time></trkpt><trkpt lat="53.6619133" lon="-1.98658"><ele>293.0</ele><time>2026-05-03T15:17:00.782Z</time></trkpt><trkpt lat="53.6618617" lon="-1.9863983"><ele>297.5</ele><time>2026-05-03T15:17:01.783Z</time></trkpt><trkpt lat="53.6617967" lon="-1.98622"><ele>302.0</ele><time>2026-05-03T15:17:02.782Z</time></trkpt><trkpt lat="53.661725" lon="-1.9860633"><ele>302.0</ele><time>2026-05-03T15:17:03.784Z</time></trkpt><trkpt lat="53.661665" lon="-1.98594"><ele>302.0</ele><time>2026-05-03T15:17:04.782Z</time></trkpt><trkpt lat="53.6616067" lon="-1.9858433"><ele>302.0</ele><time>2026-05-03T15:17:05.784Z</time></trkpt><trkpt lat="53.6615383" lon="-1.98576"><ele>302.0</ele><time>2026-05-03T15:17:06.782Z</time></trkpt><trkpt lat="53.6614617" lon="-1.9856883"><ele>302.0</ele><time>2026-05-03T15:17:07.783Z</time></trkpt><trkpt lat="53.6613767" lon="-1.9856517"><ele>302.0</ele><time>2026-05-03T15:17:08.783Z</time></trkpt><trkpt lat="53.6612683" lon="-1.9856567"><ele>302.0</ele><time>2026-05-03T15:17:09.784Z</time></trkpt><trkpt lat="53.6611483" lon="-1.98568"><ele>302.0</ele><time>2026-05-03T15:17:10.786Z</time></trkpt><trkpt lat="53.6610317" lon="-1.9857083"><ele>302.0</ele><time>2026-05-03T15:17:11.783Z</time></trkpt><trkpt lat="53.660915" lon="-1.9857483"><ele>302.0</ele><time>2026-05-03T15:17:12.782Z</time></trkpt><trkpt lat="53.6608083" lon="-1.9857933"><ele>302.1666666666667</ele><time>2026-05-03T15:17:13.783Z</time></trkpt><trkpt lat="53.6607167" lon="-1.985845"><ele>302.33333333333337</ele><time>2026-05-03T15:17:14.784Z</time></trkpt><trkpt lat="53.6606333" lon="-1.985895"><ele>302.5</ele><time>2026-05-03T15:17:15.783Z</time></trkpt><trkpt lat="53.6605633" lon="-1.9859417"><ele>302.6666666666667</ele><time>2026-05-03T15:17:16.783Z</time></trkpt><trkpt lat="53.6605017" lon="-1.98598"><ele>302.8333333333333</ele><time>2026-05-03T15:17:17.783Z</time></trkpt><trkpt lat="53.6604017" lon="-1.986"><ele>303.0</ele><time>2026-05-03T15:17:19.785Z</time></trkpt><trkpt lat="53.660325" lon="-1.9859233"><ele>301.5</ele><time>2026-05-03T15:17:21.781Z</time></trkpt><trkpt lat="53.6603017" lon="-1.9857567"><ele>300.0</ele><time>2026-05-03T15:17:23.784Z</time></trkpt><trkpt lat="53.66032" lon="-1.9855967"><ele>298.5</ele><time>2026-05-03T15:17:24.783Z</time></trkpt><trkpt lat="53.6603433" lon="-1.98542"><ele>297.0</ele><time>2026-05-03T15:17:25.785Z</time></trkpt><trkpt lat="53.6603917" lon="-1.9851833"><ele>295.0</ele><time>2026-05-03T15:17:26.784Z</time></trkpt><trkpt lat="53.660425" lon="-1.9849317"><ele>293.0</ele><time>2026-05-03T15:17:27.784Z</time></trkpt><trkpt lat="53.6604467" lon="-1.984685"><ele>291.0</ele><time>2026-05-03T15:17:28.783Z</time></trkpt><trkpt lat="53.6604717" lon="-1.9844367"><ele>291.0</ele><time>2026-05-03T15:17:29.783Z</time></trkpt><trkpt lat="53.6604983" lon="-1.9841967"><ele>291.0</ele><time>2026-05-03T15:17:30.782Z</time></trkpt><trkpt lat="53.66053" lon="-1.98394"><ele>291.0</ele><time>2026-05-03T15:17:31.782Z</time></trkpt><trkpt lat="53.6605617" lon="-1.9836967"><ele>291.0</ele><time>2026-05-03T15:17:32.784Z</time></trkpt><trkpt lat="53.660585" lon="-1.9834817"><ele>287.25</ele><time>2026-05-03T15:17:33.783Z</time></trkpt><trkpt lat="53.6606" lon="-1.9832683"><ele>283.5</ele><time>2026-05-03T15:17:34.782Z</time></trkpt><trkpt lat="53.660595" lon="-1.9830767"><ele>279.75</ele><time>2026-05-03T15:17:35.783Z</time></trkpt><trkpt lat="53.660575" lon="-1.9828833"><ele>276.0</ele><time>2026-05-03T15:17:36.782Z</time></trkpt><trkpt lat="53.6605367" lon="-1.9826667"><ele>274.3333333333333</ele><time>2026-05-03T15:17:37.782Z</time></trkpt><trkpt lat="53.66048" lon="-1.98244"><ele>272.66666666666663</ele><time>2026-05-03T15:17:38.782Z</time></trkpt><trkpt lat="53.6604217" lon="-1.982195"><ele>271.0</ele><time>2026-05-03T15:17:39.782Z</time></trkpt><trkpt lat="53.6603567" lon="-1.98194"><ele>269.66666666666663</ele><time>2026-05-03T15:17:40.783Z</time></trkpt><trkpt lat="53.660285" lon="-1.981675"><ele>268.3333333333333</ele><time>2026-05-03T15:17:41.783Z</time></trkpt><trkpt lat="53.66021" lon="-1.98141"><ele>267.0</ele><time>2026-05-03T15:17:42.782Z</time></trkpt><trkpt lat="53.6601333" lon="-1.9811467"><ele>264.75</ele><time>2026-05-03T15:17:43.783Z</time></trkpt><trkpt lat="53.6600683" lon="-1.9809133"><ele>262.5</ele><time>2026-05-03T15:17:44.783Z</time></trkpt><trkpt lat="53.6600117" lon="-1.9806867"><ele>260.25</ele><time>2026-05-03T15:17:45.783Z</time></trkpt><trkpt lat="53.6599633" lon="-1.9804633"><ele>258.0</ele><time>2026-05-03T15:17:46.783Z</time></trkpt><trkpt lat="53.6599233" lon="-1.9802417"><ele>256.6666666666667</ele><time>2026-05-03T15:17:47.783Z</time></trkpt><trkpt lat="53.6598967" lon="-1.9800133"><ele>255.33333333333334</ele><time>2026-05-03T15:17:48.783Z</time></trkpt><trkpt lat="53.6598833" lon="-1.9797533"><ele>254.0</ele><time>2026-05-03T15:17:49.783Z</time></trkpt><trkpt lat="53.6598817" lon="-1.9794767"><ele>254.0</ele><time>2026-05-03T15:17:50.783Z</time></trkpt><trkpt lat="53.6598883" lon="-1.9791983"><ele>254.0</ele><time>2026-05-03T15:17:51.783Z</time></trkpt><trkpt lat="53.6598983" lon="-1.9789317"><ele>254.0</ele><time>2026-05-03T15:17:52.783Z</time></trkpt><trkpt lat="53.6599133" lon="-1.978655"><ele>253.25</ele><time>2026-05-03T15:17:53.783Z</time></trkpt><trkpt lat="53.6599333" lon="-1.97839"><ele>252.5</ele><time>2026-05-03T15:17:54.783Z</time></trkpt><trkpt lat="53.6599617" lon="-1.9781433"><ele>251.75</ele><time>2026-05-03T15:17:55.784Z</time></trkpt><trkpt lat="53.6599933" lon="-1.9779167"><ele>251.0</ele><time>2026-05-03T15:17:56.783Z</time></trkpt><trkpt lat="53.6600283" lon="-1.9777017"><ele>249.8</ele><time>2026-05-03T15:17:57.784Z</time></trkpt><trkpt lat="53.6600617" lon="-1.9775"><ele>248.60000000000002</ele><time>2026-05-03T15:17:58.783Z</time></trkpt><trkpt lat="53.6600917" lon="-1.977325"><ele>247.4</ele><time>2026-05-03T15:17:59.783Z</time></trkpt><trkpt lat="53.6601133" lon="-1.977175"><ele>246.2</ele><time>2026-05-03T15:18:00.783Z</time></trkpt><trkpt lat="53.6601283" lon="-1.9770417"><ele>245.0</ele><time>2026-05-03T15:18:01.782Z</time></trkpt><trkpt lat="53.66012" lon="-1.9769133"><ele>245.00000000000003</ele><time>2026-05-03T15:18:02.785Z</time></trkpt><trkpt lat="53.6601033" lon="-1.9767867"><ele>245.0</ele><time>2026-05-03T15:18:03.783Z</time></trkpt><trkpt lat="53.6600733" lon="-1.976665"><ele>245.0</ele><time>2026-05-03T15:18:04.782Z</time></trkpt><trkpt lat="53.6600333" lon="-1.9765567"><ele>245.0</ele><time>2026-05-03T15:18:05.783Z</time></trkpt><trkpt lat="53.6599817" lon="-1.9764483"><ele>245.00000000000003</ele><time>2026-05-03T15:18:06.784Z</time></trkpt><trkpt lat="53.6599167" lon="-1.9763633"><ele>245.0</ele><time>2026-05-03T15:18:07.782Z</time></trkpt><trkpt lat="53.6598517" lon="-1.976285"><ele>244.2</ele><time>2026-05-03T15:18:08.783Z</time></trkpt><trkpt lat="53.65979" lon="-1.976215"><ele>243.4</ele><time>2026-05-03T15:18:09.782Z</time></trkpt><trkpt lat="53.6597317" lon="-1.976155"><ele>242.60000000000002</ele><time>2026-05-03T15:18:10.782Z</time></trkpt><trkpt lat="53.65961" lon="-1.9761033"><ele>241.8</ele><time>2026-05-03T15:18:12.784Z</time></trkpt><trkpt lat="53.659525" lon="-1.9761117"><ele>241.0</ele><time>2026-05-03T15:18:13.783Z</time></trkpt><trkpt lat="53.65943" lon="-1.976155"><ele>239.33333333333331</ele><time>2026-05-03T15:18:14.783Z</time></trkpt><trkpt lat="53.65935" lon="-1.9761917"><ele>237.66666666666666</ele><time>2026-05-03T15:18:15.784Z</time></trkpt><trkpt lat="53.659265" lon="-1.9762183"><ele>236.0</ele><time>2026-05-03T15:18:16.782Z</time></trkpt><trkpt lat="53.6591867" lon="-1.9762083"><ele>234.33333333333331</ele><time>2026-05-03T15:18:17.784Z</time></trkpt><trkpt lat="53.65911" lon="-1.9761717"><ele>232.66666666666666</ele><time>2026-05-03T15:18:18.783Z</time></trkpt><trkpt lat="53.65904" lon="-1.97609"><ele>231.0</ele><time>2026-05-03T15:18:19.784Z</time></trkpt><trkpt lat="53.658985" lon="-1.9759817"><ele>230.5</ele><time>2026-05-03T15:18:20.783Z</time></trkpt><trkpt lat="53.65894" lon="-1.9758333"><ele>230.0</ele><time>2026-05-03T15:18:21.783Z</time></trkpt><trkpt lat="53.658905" lon="-1.97562"><ele>229.5</ele><time>2026-05-03T15:18:22.782Z</time></trkpt><trkpt lat="53.658855" lon="-1.9754017"><ele>229.0</ele><time>2026-05-03T15:18:23.783Z</time></trkpt><trkpt lat="53.6587983" lon="-1.975155"><ele>228.66666666666666</ele><time>2026-05-03T15:18:24.783Z</time></trkpt><trkpt lat="53.6587333" lon="-1.9748967"><ele>228.33333333333331</ele><time>2026-05-03T15:18:25.782Z</time></trkpt><trkpt lat="53.6586667" lon="-1.9746317"><ele>228.0</ele><time>2026-05-03T15:18:26.783Z</time></trkpt><trkpt lat="53.6585883" lon="-1.97437"><ele>231.66666666666669</ele><time>2026-05-03T15:18:27.783Z</time></trkpt><trkpt lat="53.6585083" lon="-1.9741033"><ele>235.33333333333334</ele><time>2026-05-03T15:18:28.783Z</time></trkpt><trkpt lat="53.658425" lon="-1.9738333"><ele>239.0</ele><time>2026-05-03T15:18:29.784Z</time></trkpt><trkpt lat="53.6583433" lon="-1.9735567"><ele>239.33333333333334</ele><time>2026-05-03T15:18:30.783Z</time></trkpt><trkpt lat="53.6582717" lon="-1.9732767"><ele>239.66666666666669</ele><time>2026-05-03T15:18:31.783Z</time></trkpt><trkpt lat="53.6582117" lon="-1.972985"><ele>240.0</ele><time>2026-05-03T15:18:32.784Z</time></trkpt><trkpt lat="53.6581617" lon="-1.9726917"><ele>241.0</ele><time>2026-05-03T15:18:33.783Z</time></trkpt><trkpt lat="53.6581133" lon="-1.972405"><ele>242.0</ele><time>2026-05-03T15:18:34.783Z</time></trkpt><trkpt lat="53.658065" lon="-1.972135"><ele>243.0</ele><time>2026-05-03T15:18:35.784Z</time></trkpt><trkpt lat="53.6580217" lon="-1.9718933"><ele>243.5</ele><time>2026-05-03T15:18:36.782Z</time></trkpt><trkpt lat="53.6579733" lon="-1.97168"><ele>244.0</ele><time>2026-05-03T15:18:37.783Z</time></trkpt><trkpt lat="53.657915" lon="-1.9714783"><ele>244.5</ele><time>2026-05-03T15:18:38.781Z</time></trkpt><trkpt lat="53.657835" lon="-1.971285"><ele>245.0</ele><time>2026-05-03T15:18:39.783Z</time></trkpt><trkpt lat="53.6577367" lon="-1.9710933"><ele>248.33333333333334</ele><time>2026-05-03T15:18:40.783Z</time></trkpt><trkpt lat="53.6576383" lon="-1.9709083"><ele>251.66666666666669</ele><time>2026-05-03T15:18:41.783Z</time></trkpt><trkpt lat="53.65754" lon="-1.9707233"><ele>255.0</ele><time>2026-05-03T15:18:42.782Z</time></trkpt><trkpt lat="53.6574333" lon="-1.9705267"><ele>256.3333333333333</ele><time>2026-05-03T15:18:43.782Z</time></trkpt><trkpt lat="53.6573233" lon="-1.97033"><ele>257.66666666666663</ele><time>2026-05-03T15:18:44.783Z</time></trkpt><trkpt lat="53.6572167" lon="-1.970135"><ele>259.0</ele><time>2026-05-03T15:18:45.783Z</time></trkpt><trkpt lat="53.657115" lon="-1.969935"><ele>259.25</ele><time>2026-05-03T15:18:46.782Z</time></trkpt><trkpt lat="53.65702" lon="-1.9697317"><ele>259.5</ele><time>2026-05-03T15:18:47.784Z</time></trkpt><trkpt lat="53.6569383" lon="-1.9695267"><ele>259.75</ele><time>2026-05-03T15:18:48.782Z</time></trkpt><trkpt lat="53.6568717" lon="-1.969305"><ele>260.0</ele><time>2026-05-03T15:18:49.783Z</time></trkpt><trkpt lat="53.6568217" lon="-1.9690617"><ele>260.75</ele><time>2026-05-03T15:18:50.782Z</time></trkpt><trkpt lat="53.6567733" lon="-1.9688117"><ele>261.5</ele><time>2026-05-03T15:18:51.782Z</time></trkpt><trkpt lat="53.6567333" lon="-1.9685783"><ele>262.25</ele><time>2026-05-03T15:18:52.783Z</time></trkpt><trkpt lat="53.6566983" lon="-1.968375"><ele>263.0</ele><time>2026-05-03T15:18:53.783Z</time></trkpt><trkpt lat="53.6566767" lon="-1.9682033"><ele>263.1666666666667</ele><time>2026-05-03T15:18:54.783Z</time></trkpt><trkpt lat="53.6566717" lon="-1.9680533"><ele>263.33333333333337</ele><time>2026-05-03T15:18:55.782Z</time></trkpt><trkpt lat="53.6566767" lon="-1.9679133"><ele>263.5</ele><time>2026-05-03T15:18:56.782Z</time></trkpt><trkpt lat="53.6566867" lon="-1.9677717"><ele>263.6666666666667</ele><time>2026-05-03T15:18:57.783Z</time></trkpt><trkpt lat="53.6566967" lon="-1.967635"><ele>263.8333333333333</ele><time>2026-05-03T15:18:58.783Z</time></trkpt><trkpt lat="53.6567083" lon="-1.9674933"><ele>264.0</ele><time>2026-05-03T15:18:59.784Z</time></trkpt><trkpt lat="53.6567217" lon="-1.96736"><ele>264.0</ele><time>2026-05-03T15:19:00.782Z</time></trkpt><trkpt lat="53.6567383" lon="-1.96724"><ele>264.0</ele><time>2026-05-03T15:19:01.783Z</time></trkpt><trkpt lat="53.656765" lon="-1.9671283"><ele>264.0</ele><time>2026-05-03T15:19:02.783Z</time></trkpt><trkpt lat="53.6568033" lon="-1.9670217"><ele>264.0</ele><time>2026-05-03T15:19:03.783Z</time></trkpt><trkpt lat="53.6568533" lon="-1.9669117"><ele>264.0</ele><time>2026-05-03T15:19:04.783Z</time></trkpt><trkpt lat="53.6569233" lon="-1.9668283"><ele>264.0</ele><time>2026-05-03T15:19:05.783Z</time></trkpt><trkpt lat="53.6570017" lon="-1.9667533"><ele>262.8333333333333</ele><time>2026-05-03T15:19:06.782Z</time></trkpt><trkpt lat="53.6570867" lon="-1.966685"><ele>261.6666666666667</ele><time>2026-05-03T15:19:07.783Z</time></trkpt><trkpt lat="53.657175" lon="-1.9666183"><ele>260.5</ele><time>2026-05-03T15:19:08.784Z</time></trkpt><trkpt lat="53.6572567" lon="-1.966555"><ele>259.33333333333337</ele><time>2026-05-03T15:19:09.783Z</time></trkpt><trkpt lat="53.657335" lon="-1.966505"><ele>258.1666666666667</ele><time>2026-05-03T15:19:10.783Z</time></trkpt><trkpt lat="53.6574" lon="-1.9664567"><ele>257.0</ele><time>2026-05-03T15:19:11.782Z</time></trkpt><trkpt lat="53.6574633" lon="-1.9664083"><ele>257.0</ele><time>2026-05-03T15:19:12.783Z</time></trkpt><trkpt lat="53.657525" lon="-1.9663617"><ele>257.0</ele><time>2026-05-03T15:19:13.782Z</time></trkpt><trkpt lat="53.6575817" lon="-1.9663133"><ele>257.0</ele><time>2026-05-03T15:19:14.784Z</time></trkpt><trkpt lat="53.6579333" lon="-1.9655033"><ele>255.6</ele><time>2026-05-03T15:19:25.782Z</time></trkpt><trkpt lat="53.6579383" lon="-1.96535"><ele>254.2</ele><time>2026-05-03T15:19:27.785Z</time></trkpt><trkpt lat="53.6579433" lon="-1.9651833"><ele>252.8</ele><time>2026-05-03T15:19:29.784Z</time></trkpt><trkpt lat="53.6579467" lon="-1.965015"><ele>251.4</ele><time>2026-05-03T15:19:31.784Z</time></trkpt><trkpt lat="53.6579617" lon="-1.9648733"><ele>250.0</ele><time>2026-05-03T15:19:33.783Z</time></trkpt><trkpt lat="53.657975" lon="-1.9647317"><ele>250.0</ele><time>2026-05-03T15:19:36.783Z</time></trkpt><trkpt lat="53.657955" lon="-1.964615"><ele>250.0</ele><time>2026-05-03T15:19:40.783Z</time></trkpt><trkpt lat="53.6579667" lon="-1.9647483"><ele>250.0</ele><time>2026-05-03T15:19:58.784Z</time></trkpt><trkpt lat="53.65794" lon="-1.9649467"><ele>250.0</ele><time>2026-05-03T15:20:00.781Z</time></trkpt><trkpt lat="53.6579267" lon="-1.9650933"><ele>250.0</ele><time>2026-05-03T15:20:01.783Z</time></trkpt><trkpt lat="53.657915" lon="-1.9652433"><ele>250.0</ele><time>2026-05-03T15:20:02.784Z</time></trkpt><trkpt lat="53.6579017" lon="-1.9654"><ele>250.0</ele><time>2026-05-03T15:20:03.783Z</time></trkpt><trkpt lat="53.6578833" lon="-1.965565"><ele>250.0</ele><time>2026-05-03T15:20:04.783Z</time></trkpt><trkpt lat="53.6578567" lon="-1.9657217"><ele>250.0</ele><time>2026-05-03T15:20:05.782Z</time></trkpt><trkpt lat="53.6578217" lon="-1.96587"><ele>250.0</ele><time>2026-05-03T15:20:06.783Z</time></trkpt><trkpt lat="53.6577817" lon="-1.965995"><ele>251.16666666666666</ele><time>2026-05-03T15:20:07.783Z</time></trkpt><trkpt lat="53.6577333" lon="-1.966105"><ele>252.33333333333331</ele><time>2026-05-03T15:20:08.782Z</time></trkpt><trkpt lat="53.6576667" lon="-1.9662067"><ele>253.5</ele><time>2026-05-03T15:20:09.784Z</time></trkpt><trkpt lat="53.6575933" lon="-1.9663033"><ele>254.66666666666669</ele><time>2026-05-03T15:20:10.783Z</time></trkpt><trkpt lat="53.6575167" lon="-1.9663883"><ele>255.83333333333334</ele><time>2026-05-03T15:20:11.784Z</time></trkpt><trkpt lat="53.6574433" lon="-1.9664633"><ele>257.0</ele><time>2026-05-03T15:20:12.783Z</time></trkpt><trkpt lat="53.6573633" lon="-1.9665317"><ele>257.0</ele><time>2026-05-03T15:20:13.783Z</time></trkpt><trkpt lat="53.6572783" lon="-1.9666033"><ele>257.0</ele><time>2026-05-03T15:20:14.782Z</time></trkpt><trkpt lat="53.6571917" lon="-1.966675"><ele>257.0</ele><time>2026-05-03T15:20:15.783Z</time></trkpt><trkpt lat="53.6571083" lon="-1.9667483"><ele>257.0</ele><time>2026-05-03T15:20:16.783Z</time></trkpt><trkpt lat="53.6570283" lon="-1.9668117"><ele>257.0</ele><time>2026-05-03T15:20:17.784Z</time></trkpt><trkpt lat="53.6569583" lon="-1.96688"><ele>258.1666666666667</ele><time>2026-05-03T15:20:18.783Z</time></trkpt><trkpt lat="53.6568933" lon="-1.9669517"><ele>259.33333333333337</ele><time>2026-05-03T15:20:19.783Z</time></trkpt><trkpt lat="53.656835" lon="-1.96703"><ele>260.5</ele><time>2026-05-03T15:20:20.783Z</time></trkpt><trkpt lat="53.6567917" lon="-1.9671367"><ele>261.6666666666667</ele><time>2026-05-03T15:20:21.782Z</time></trkpt><trkpt lat="53.65676" lon="-1.9672617"><ele>262.8333333333333</ele><time>2026-05-03T15:20:22.784Z</time></trkpt><trkpt lat="53.656735" lon="-1.9674033"><ele>264.0</ele><time>2026-05-03T15:20:23.783Z</time></trkpt><trkpt lat="53.6567183" lon="-1.9675633"><ele>264.0</ele><time>2026-05-03T15:20:24.783Z</time></trkpt><trkpt lat="53.656705" lon="-1.967725"><ele>264.0</ele><time>2026-05-03T15:20:25.783Z</time></trkpt><trkpt lat="53.65669" lon="-1.9678883"><ele>264.0</ele><time>2026-05-03T15:20:26.783Z</time></trkpt><trkpt lat="53.6566833" lon="-1.9680583"><ele>264.0</ele><time>2026-05-03T15:20:27.782Z</time></trkpt><trkpt lat="53.6566917" lon="-1.96824"><ele>264.0</ele><time>2026-05-03T15:20:28.786Z</time></trkpt><trkpt lat="53.6567133" lon="-1.9684183"><ele>264.0</ele><time>2026-05-03T15:20:29.782Z</time></trkpt><trkpt lat="53.6567433" lon="-1.9686083"><ele>264.0</ele><time>2026-05-03T15:20:30.787Z</time></trkpt><trkpt lat="53.65678" lon="-1.96881"><ele>264.0</ele><time>2026-05-03T15:20:31.786Z</time></trkpt><trkpt lat="53.6568117" lon="-1.9690083"><ele>264.0</ele><time>2026-05-03T15:20:32.782Z</time></trkpt><trkpt lat="53.656845" lon="-1.9692"><ele>264.0</ele><time>2026-05-03T15:20:33.783Z</time></trkpt><trkpt lat="53.656885" lon="-1.9693833"><ele>264.0</ele><time>2026-05-03T15:20:34.786Z</time></trkpt><trkpt lat="53.6569333" lon="-1.96956"><ele>264.0</ele><time>2026-05-03T15:20:35.783Z</time></trkpt><trkpt lat="53.6569933" lon="-1.96973"><ele>264.0</ele><time>2026-05-03T15:20:36.787Z</time></trkpt><trkpt lat="53.6570667" lon="-1.9699017"><ele>262.75</ele><time>2026-05-03T15:20:37.783Z</time></trkpt><trkpt lat="53.6571483" lon="-1.970065"><ele>261.5</ele><time>2026-05-03T15:20:38.782Z</time></trkpt><trkpt lat="53.6572317" lon="-1.9702267"><ele>260.25</ele><time>2026-05-03T15:20:39.783Z</time></trkpt><trkpt lat="53.6573233" lon="-1.9703933"><ele>259.0</ele><time>2026-05-03T15:20:40.787Z</time></trkpt><trkpt lat="53.6574117" lon="-1.9705483"><ele>259.0</ele><time>2026-05-03T15:20:41.784Z</time></trkpt><trkpt lat="53.6575017" lon="-1.970705"><ele>259.0</ele><time>2026-05-03T15:20:42.783Z</time></trkpt><trkpt lat="53.6575883" lon="-1.97086"><ele>259.0</ele><time>2026-05-03T15:20:43.783Z</time></trkpt><trkpt lat="53.6576683" lon="-1.9710167"><ele>259.0</ele><time>2026-05-03T15:20:44.783Z</time></trkpt><trkpt lat="53.6577433" lon="-1.97117"><ele>255.5</ele><time>2026-05-03T15:20:45.782Z</time></trkpt><trkpt lat="53.6578217" lon="-1.97132"><ele>252.0</ele><time>2026-05-03T15:20:46.786Z</time></trkpt><trkpt lat="53.6578967" lon="-1.9714783"><ele>248.5</ele><time>2026-05-03T15:20:47.783Z</time></trkpt><trkpt lat="53.6579533" lon="-1.971645"><ele>245.0</ele><time>2026-05-03T15:20:48.786Z</time></trkpt><trkpt lat="53.6580017" lon="-1.9718233"><ele>244.5</ele><time>2026-05-03T15:20:49.786Z</time></trkpt><trkpt lat="53.6580433" lon="-1.9720183"><ele>244.0</ele><time>2026-05-03T15:20:50.786Z</time></trkpt><trkpt lat="53.65808" lon="-1.972225"><ele>243.5</ele><time>2026-05-03T15:20:51.783Z</time></trkpt><trkpt lat="53.6581183" lon="-1.9724367"><ele>243.0</ele><time>2026-05-03T15:20:52.785Z</time></trkpt><trkpt lat="53.6581583" lon="-1.9726517"><ele>242.25</ele><time>2026-05-03T15:20:53.784Z</time></trkpt><trkpt lat="53.658195" lon="-1.9728583"><ele>241.5</ele><time>2026-05-03T15:20:54.787Z</time></trkpt><trkpt lat="53.6582383" lon="-1.973065"><ele>240.75</ele><time>2026-05-03T15:20:55.785Z</time></trkpt><trkpt lat="53.6582833" lon="-1.9732733"><ele>240.0</ele><time>2026-05-03T15:20:56.783Z</time></trkpt><trkpt lat="53.6583383" lon="-1.9734883"><ele>239.75</ele><time>2026-05-03T15:20:57.786Z</time></trkpt><trkpt lat="53.6584" lon="-1.973705"><ele>239.5</ele><time>2026-05-03T15:20:58.786Z</time></trkpt><trkpt lat="53.658465" lon="-1.9739283"><ele>239.25</ele><time>2026-05-03T15:20:59.782Z</time></trkpt><trkpt lat="53.65853" lon="-1.974155"><ele>239.0</ele><time>2026-05-03T15:21:00.786Z</time></trkpt><trkpt lat="53.6585933" lon="-1.9743717"><ele>236.5</ele><time>2026-05-03T15:21:01.783Z</time></trkpt><trkpt lat="53.658655" lon="-1.974585"><ele>234.0</ele><time>2026-05-03T15:21:02.783Z</time></trkpt><trkpt lat="53.6587117" lon="-1.9747967"><ele>231.5</ele><time>2026-05-03T15:21:03.782Z</time></trkpt><trkpt lat="53.6587633" lon="-1.9750017"><ele>229.0</ele><time>2026-05-03T15:21:04.783Z</time></trkpt><trkpt lat="53.65881" lon="-1.9751967"><ele>229.0</ele><time>2026-05-03T15:21:05.784Z</time></trkpt><trkpt lat="53.6588517" lon="-1.9753767"><ele>228.99999999999997</ele><time>2026-05-03T15:21:06.786Z</time></trkpt><trkpt lat="53.6588883" lon="-1.975545"><ele>228.99999999999997</ele><time>2026-05-03T15:21:07.784Z</time></trkpt><trkpt lat="53.6589217" lon="-1.9756867"><ele>229.0</ele><time>2026-05-03T15:21:08.786Z</time></trkpt><trkpt lat="53.65895" lon="-1.9758167"><ele>229.0</ele><time>2026-05-03T15:21:09.786Z</time></trkpt><trkpt lat="53.6589767" lon="-1.975935"><ele>229.28571428571428</ele><time>2026-05-03T15:21:10.782Z</time></trkpt><trkpt lat="53.6590083" lon="-1.976045"><ele>229.57142857142858</ele><time>2026-05-03T15:21:11.782Z</time></trkpt><trkpt lat="53.659045" lon="-1.9761417"><ele>229.85714285714286</ele><time>2026-05-03T15:21:12.783Z</time></trkpt><trkpt lat="53.65909" lon="-1.9762233"><ele>230.14285714285714</ele><time>2026-05-03T15:21:13.784Z</time></trkpt><trkpt lat="53.65915" lon="-1.976285"><ele>230.42857142857144</ele><time>2026-05-03T15:21:14.785Z</time></trkpt><trkpt lat="53.6592217" lon="-1.9763167"><ele>230.71428571428572</ele><time>2026-05-03T15:21:15.784Z</time></trkpt><trkpt lat="53.6593033" lon="-1.9763183"><ele>231.0</ele><time>2026-05-03T15:21:16.782Z</time></trkpt><trkpt lat="53.6593967" lon="-1.9762783"><ele>232.66666666666666</ele><time>2026-05-03T15:21:17.784Z</time></trkpt><trkpt lat="53.6594967" lon="-1.9762383"><ele>234.33333333333331</ele><time>2026-05-03T15:21:18.786Z</time></trkpt><trkpt lat="53.6595883" lon="-1.97623"><ele>236.0</ele><time>2026-05-03T15:21:19.787Z</time></trkpt><trkpt lat="53.659675" lon="-1.9762583"><ele>237.66666666666666</ele><time>2026-05-03T15:21:20.784Z</time></trkpt><trkpt lat="53.6597517" lon="-1.9763067"><ele>239.33333333333331</ele><time>2026-05-03T15:21:21.783Z</time></trkpt><trkpt lat="53.6598233" lon="-1.9763817"><ele>241.0</ele><time>2026-05-03T15:21:22.784Z</time></trkpt><trkpt lat="53.6599017" lon="-1.9764633"><ele>240.99999999999997</ele><time>2026-05-03T15:21:23.783Z</time></trkpt><trkpt lat="53.6599683" lon="-1.9765517"><ele>241.0</ele><time>2026-05-03T15:21:24.791Z</time></trkpt><trkpt lat="53.6600267" lon="-1.9766517"><ele>241.0</ele><time>2026-05-03T15:21:25.783Z</time></trkpt><trkpt lat="53.6600733" lon="-1.9767783"><ele>241.0</ele><time>2026-05-03T15:21:26.786Z</time></trkpt><trkpt lat="53.6601033" lon="-1.97692"><ele>240.99999999999997</ele><time>2026-05-03T15:21:27.783Z</time></trkpt><trkpt lat="53.6601183" lon="-1.9770667"><ele>241.0</ele><time>2026-05-03T15:21:28.782Z</time></trkpt><trkpt lat="53.660125" lon="-1.977225"><ele>242.0</ele><time>2026-05-03T15:21:29.782Z</time></trkpt><trkpt lat="53.6601167" lon="-1.977385"><ele>243.0</ele><time>2026-05-03T15:21:30.787Z</time></trkpt><trkpt lat="53.6600933" lon="-1.9775617"><ele>244.0</ele><time>2026-05-03T15:21:31.783Z</time></trkpt><trkpt lat="53.6600567" lon="-1.9777583"><ele>245.0</ele><time>2026-05-03T15:21:32.783Z</time></trkpt><trkpt lat="53.6600167" lon="-1.9779783"><ele>246.0</ele><time>2026-05-03T15:21:33.783Z</time></trkpt><trkpt lat="53.65998" lon="-1.9782133"><ele>247.0</ele><time>2026-05-03T15:21:34.783Z</time></trkpt><trkpt lat="53.659945" lon="-1.9784683"><ele>248.0</ele><time>2026-05-03T15:21:35.783Z</time></trkpt><trkpt lat="53.659915" lon="-1.978735"><ele>248.75</ele><time>2026-05-03T15:21:36.787Z</time></trkpt><trkpt lat="53.6598967" lon="-1.97899"><ele>249.5</ele><time>2026-05-03T15:21:37.786Z</time></trkpt><trkpt lat="53.65989" lon="-1.9792383"><ele>250.25</ele><time>2026-05-03T15:21:38.781Z</time></trkpt><trkpt lat="53.6598883" lon="-1.9794733"><ele>251.0</ele><time>2026-05-03T15:21:39.786Z</time></trkpt><trkpt lat="53.6598883" lon="-1.9796833"><ele>251.75</ele><time>2026-05-03T15:21:40.785Z</time></trkpt><trkpt lat="53.659895" lon="-1.9798983"><ele>252.5</ele><time>2026-05-03T15:21:41.783Z</time></trkpt><trkpt lat="53.6599083" lon="-1.9801167"><ele>253.25</ele><time>2026-05-03T15:21:42.783Z</time></trkpt><trkpt lat="53.6599333" lon="-1.98034"><ele>254.0</ele><time>2026-05-03T15:21:43.782Z</time></trkpt><trkpt lat="53.6599667" lon="-1.9805583"><ele>254.5</ele><time>2026-05-03T15:21:44.783Z</time></trkpt><trkpt lat="53.6600117" lon="-1.9807817"><ele>255.0</ele><time>2026-05-03T15:21:45.782Z</time></trkpt><trkpt lat="53.6600667" lon="-1.9810117"><ele>255.5</ele><time>2026-05-03T15:21:46.783Z</time></trkpt><trkpt lat="53.660125" lon="-1.9812533"><ele>256.0</ele><time>2026-05-03T15:21:47.782Z</time></trkpt><trkpt lat="53.6601883" lon="-1.981495"><ele>257.75</ele><time>2026-05-03T15:21:48.783Z</time></trkpt><trkpt lat="53.6602517" lon="-1.981735"><ele>259.5</ele><time>2026-05-03T15:21:49.783Z</time></trkpt><trkpt lat="53.6603133" lon="-1.98196"><ele>261.25</ele><time>2026-05-03T15:21:50.784Z</time></trkpt><trkpt lat="53.660365" lon="-1.9821667"><ele>263.0</ele><time>2026-05-03T15:21:51.782Z</time></trkpt><trkpt lat="53.6604133" lon="-1.982365"><ele>265.6</ele><time>2026-05-03T15:21:52.783Z</time></trkpt><trkpt lat="53.6604583" lon="-1.9825467"><ele>268.20000000000005</ele><time>2026-05-03T15:21:53.786Z</time></trkpt><trkpt lat="53.6604983" lon="-1.9827033"><ele>270.8</ele><time>2026-05-03T15:21:54.785Z</time></trkpt><trkpt lat="53.6605317" lon="-1.9828367"><ele>273.40000000000003</ele><time>2026-05-03T15:21:55.786Z</time></trkpt><trkpt lat="53.6605583" lon="-1.982945"><ele>276.0</ele><time>2026-05-03T15:21:56.787Z</time></trkpt><trkpt lat="53.660595" lon="-1.9831033"><ele>276.0</ele><time>2026-05-03T15:21:58.787Z</time></trkpt><trkpt lat="53.6606133" lon="-1.9832167"><ele>276.0</ele><time>2026-05-03T15:22:00.787Z</time></trkpt><trkpt lat="53.6606167" lon="-1.9833933"><ele>276.0</ele><time>2026-05-03T15:22:02.787Z</time></trkpt><trkpt lat="53.6606083" lon="-1.9835133"><ele>276.0</ele><time>2026-05-03T15:22:03.786Z</time></trkpt><trkpt lat="53.660595" lon="-1.9836483"><ele>276.0</ele><time>2026-05-03T15:22:04.788Z</time></trkpt><trkpt lat="53.660575" lon="-1.9837783"><ele>276.0</ele><time>2026-05-03T15:22:05.786Z</time></trkpt><trkpt lat="53.6605567" lon="-1.9839083"><ele>277.1666666666667</ele><time>2026-05-03T15:22:06.783Z</time></trkpt><trkpt lat="53.6605417" lon="-1.9840333"><ele>278.3333333333333</ele><time>2026-05-03T15:22:07.784Z</time></trkpt><trkpt lat="53.6605267" lon="-1.9841533"><ele>279.5</ele><time>2026-05-03T15:22:08.783Z</time></trkpt><trkpt lat="53.6605183" lon="-1.984275"><ele>280.66666666666663</ele><time>2026-05-03T15:22:09.784Z</time></trkpt><trkpt lat="53.6605167" lon="-1.9844183"><ele>281.8333333333333</ele><time>2026-05-03T15:22:10.787Z</time></trkpt><trkpt lat="53.6605167" lon="-1.9845717"><ele>283.0</ele><time>2026-05-03T15:22:11.784Z</time></trkpt><trkpt lat="53.6605017" lon="-1.9847417"><ele>284.3333333333333</ele><time>2026-05-03T15:22:12.788Z</time></trkpt><trkpt lat="53.660475" lon="-1.984915"><ele>285.66666666666663</ele><time>2026-05-03T15:22:13.787Z</time></trkpt><trkpt lat="53.6604483" lon="-1.9850533"><ele>287.0</ele><time>2026-05-03T15:22:14.787Z</time></trkpt><trkpt lat="53.6604267" lon="-1.985155"><ele>288.3333333333333</ele><time>2026-05-03T15:22:15.784Z</time></trkpt><trkpt lat="53.6604033" lon="-1.9852667"><ele>289.6666666666667</ele><time>2026-05-03T15:22:17.786Z</time></trkpt><trkpt lat="53.6604617" lon="-1.9851717"><ele>291.0</ele><time>2026-05-03T15:22:29.785Z</time></trkpt><trkpt lat="53.66047" lon="-1.98505"><ele>291.0</ele><time>2026-05-03T15:22:31.784Z</time></trkpt><trkpt lat="53.6604967" lon="-1.984805"><ele>291.0</ele><time>2026-05-03T15:22:33.787Z</time></trkpt><trkpt lat="53.66051" lon="-1.984645"><ele>291.0</ele><time>2026-05-03T15:22:34.785Z</time></trkpt><trkpt lat="53.6605233" lon="-1.9844933"><ele>291.0</ele><time>2026-05-03T15:22:35.786Z</time></trkpt><trkpt lat="53.6605333" lon="-1.984335"><ele>291.0</ele><time>2026-05-03T15:22:36.786Z</time></trkpt><trkpt lat="53.6605417" lon="-1.98418"><ele>289.6666666666667</ele><time>2026-05-03T15:22:37.784Z</time></trkpt><trkpt lat="53.660555" lon="-1.9840283"><ele>288.3333333333333</ele><time>2026-05-03T15:22:38.786Z</time></trkpt><trkpt lat="53.6605717" lon="-1.983885"><ele>287.0</ele><time>2026-05-03T15:22:39.784Z</time></trkpt><trkpt lat="53.6605883" lon="-1.9837433"><ele>285.66666666666663</ele><time>2026-05-03T15:22:40.783Z</time></trkpt><trkpt lat="53.660605" lon="-1.9836083"><ele>284.3333333333333</ele><time>2026-05-03T15:22:41.784Z</time></trkpt><trkpt lat="53.6606167" lon="-1.9834783"><ele>283.0</ele><time>2026-05-03T15:22:42.783Z</time></trkpt><trkpt lat="53.6606267" lon="-1.9833667"><ele>281.8333333333333</ele><time>2026-05-03T15:22:43.785Z</time></trkpt><trkpt lat="53.6606367" lon="-1.98321"><ele>280.66666666666663</ele><time>2026-05-03T15:22:45.783Z</time></trkpt><trkpt lat="53.6606333" lon="-1.983075"><ele>279.5</ele><time>2026-05-03T15:22:48.784Z</time></trkpt><trkpt lat="53.66058" lon="-1.9830133"><ele>278.3333333333333</ele><time>2026-05-03T15:26:06.783Z</time></trkpt><trkpt lat="53.6605517" lon="-1.9829017"><ele>277.1666666666667</ele><time>2026-05-03T15:26:09.783Z</time></trkpt><trkpt lat="53.66052" lon="-1.982715"><ele>276.0</ele><time>2026-05-03T15:26:31.785Z</time></trkpt><trkpt lat="53.6604783" lon="-1.9825517"><ele>275.2857142857143</ele><time>2026-05-03T15:26:33.783Z</time></trkpt><trkpt lat="53.6604517" lon="-1.98245"><ele>274.5714285714286</ele><time>2026-05-03T15:26:34.783Z</time></trkpt><trkpt lat="53.660405" lon="-1.9822833"><ele>273.8571428571429</ele><time>2026-05-03T15:26:36.784Z</time></trkpt><trkpt lat="53.66038" lon="-1.982185"><ele>273.14285714285717</ele><time>2026-05-03T15:26:38.783Z</time></trkpt><trkpt lat="53.6603617" lon="-1.9820833"><ele>272.42857142857144</ele><time>2026-05-03T15:26:40.786Z</time></trkpt><trkpt lat="53.66034" lon="-1.981965"><ele>271.7142857142857</ele><time>2026-05-03T15:26:42.784Z</time></trkpt><trkpt lat="53.66031" lon="-1.9818583"><ele>271.0</ele><time>2026-05-03T15:29:16.783Z</time></trkpt><trkpt lat="53.6602733" lon="-1.98174"><ele>268.40000000000003</ele><time>2026-05-03T15:29:18.782Z</time></trkpt><trkpt lat="53.660235" lon="-1.9815917"><ele>265.8</ele><time>2026-05-03T15:29:20.784Z</time></trkpt><trkpt lat="53.6601917" lon="-1.9814433"><ele>263.20000000000005</ele><time>2026-05-03T15:29:22.786Z</time></trkpt><trkpt lat="53.6601483" lon="-1.9812867"><ele>260.6</ele><time>2026-05-03T15:29:24.783Z</time></trkpt><trkpt lat="53.6600983" lon="-1.981125"><ele>258.0</ele><time>2026-05-03T15:29:26.783Z</time></trkpt><trkpt lat="53.660045" lon="-1.9809233"><ele>257.71428571428567</ele><time>2026-05-03T15:29:28.788Z</time></trkpt><trkpt lat="53.6600167" lon="-1.9808117"><ele>257.42857142857144</ele><time>2026-05-03T15:29:29.785Z</time></trkpt><trkpt lat="53.6599933" lon="-1.9806933"><ele>257.1428571428571</ele><time>2026-05-03T15:29:30.785Z</time></trkpt><trkpt lat="53.65997" lon="-1.9805667"><ele>256.85714285714283</ele><time>2026-05-03T15:29:31.784Z</time></trkpt><trkpt lat="53.6599517" lon="-1.98044"><ele>256.57142857142856</ele><time>2026-05-03T15:29:32.783Z</time></trkpt><trkpt lat="53.6599367" lon="-1.9803183"><ele>256.2857142857143</ele><time>2026-05-03T15:29:33.783Z</time></trkpt><trkpt lat="53.6599233" lon="-1.9801983"><ele>256.0</ele><time>2026-05-03T15:29:34.782Z</time></trkpt><trkpt lat="53.6599117" lon="-1.98007"><ele>255.66666666666666</ele><time>2026-05-03T15:29:35.784Z</time></trkpt><trkpt lat="53.6599" lon="-1.9799383"><ele>255.33333333333331</ele><time>2026-05-03T15:29:36.784Z</time></trkpt><trkpt lat="53.6598933" lon="-1.9798083"><ele>255.0</ele><time>2026-05-03T15:29:37.784Z</time></trkpt><trkpt lat="53.6598867" lon="-1.9796733"><ele>254.66666666666669</ele><time>2026-05-03T15:29:38.783Z</time></trkpt><trkpt lat="53.659885" lon="-1.9795283"><ele>254.33333333333334</ele><time>2026-05-03T15:29:39.783Z</time></trkpt><trkpt lat="53.659885" lon="-1.979375"><ele>254.0</ele><time>2026-05-03T15:29:40.786Z</time></trkpt><trkpt lat="53.6598867" lon="-1.97922"><ele>253.39999999999998</ele><time>2026-05-03T15:29:41.783Z</time></trkpt><trkpt lat="53.65989" lon="-1.979065"><ele>252.79999999999998</ele><time>2026-05-03T15:29:42.783Z</time></trkpt><trkpt lat="53.6598917" lon="-1.978905"><ele>252.20000000000002</ele><time>2026-05-03T15:29:43.784Z</time></trkpt><trkpt lat="53.6599" lon="-1.9787417"><ele>251.60000000000002</ele><time>2026-05-03T15:29:44.784Z</time></trkpt><trkpt lat="53.6599167" lon="-1.97857"><ele>251.0</ele><time>2026-05-03T15:29:45.784Z</time></trkpt><trkpt lat="53.6599367" lon="-1.978395"><ele>250.4</ele><time>2026-05-03T15:29:46.783Z</time></trkpt><trkpt lat="53.6599633" lon="-1.9782233"><ele>249.8</ele><time>2026-05-03T15:29:47.787Z</time></trkpt><trkpt lat="53.65999" lon="-1.9780583"><ele>249.20000000000002</ele><time>2026-05-03T15:29:48.784Z</time></trkpt><trkpt lat="53.6600183" lon="-1.9778867"><ele>248.60000000000002</ele><time>2026-05-03T15:29:49.783Z</time></trkpt><trkpt lat="53.660045" lon="-1.9777183"><ele>248.0</ele><time>2026-05-03T15:29:50.784Z</time></trkpt><trkpt lat="53.66007" lon="-1.9775517"><ele>247.50000000000003</ele><time>2026-05-03T15:29:51.782Z</time></trkpt><trkpt lat="53.66009" lon="-1.9774"><ele>247.0</ele><time>2026-05-03T15:29:52.783Z</time></trkpt><trkpt lat="53.660105" lon="-1.9772633"><ele>246.5</ele><time>2026-05-03T15:29:53.784Z</time></trkpt><trkpt lat="53.66011" lon="-1.97714"><ele>246.0</ele><time>2026-05-03T15:29:54.784Z</time></trkpt><trkpt lat="53.6601083" lon="-1.9770233"><ele>245.50000000000003</ele><time>2026-05-03T15:29:55.783Z</time></trkpt><trkpt lat="53.6600967" lon="-1.9769017"><ele>245.0</ele><time>2026-05-03T15:29:56.784Z</time></trkpt><trkpt lat="53.6600767" lon="-1.9767867"><ele>244.42857142857144</ele><time>2026-05-03T15:29:57.785Z</time></trkpt><trkpt lat="53.6600483" lon="-1.9766767"><ele>243.85714285714286</ele><time>2026-05-03T15:29:58.783Z</time></trkpt><trkpt lat="53.6600133" lon="-1.9765767"><ele>243.28571428571428</ele><time>2026-05-03T15:29:59.784Z</time></trkpt><trkpt lat="53.65996" lon="-1.9764817"><ele>242.71428571428572</ele><time>2026-05-03T15:30:00.783Z</time></trkpt><trkpt lat="53.6599" lon="-1.9763883"><ele>242.14285714285717</ele><time>2026-05-03T15:30:01.784Z</time></trkpt><trkpt lat="53.6598417" lon="-1.9763083"><ele>241.57142857142858</ele><time>2026-05-03T15:30:02.783Z</time></trkpt><trkpt lat="53.6597867" lon="-1.976235"><ele>241.0</ele><time>2026-05-03T15:30:03.782Z</time></trkpt><trkpt lat="53.659735" lon="-1.9761717"><ele>240.99999999999997</ele><time>2026-05-03T15:30:04.784Z</time></trkpt><trkpt lat="53.659625" lon="-1.9760917"><ele>241.0</ele><time>2026-05-03T15:30:06.787Z</time></trkpt><trkpt lat="53.6595533" lon="-1.97609"><ele>241.0</ele><time>2026-05-03T15:30:07.784Z</time></trkpt><trkpt lat="53.659475" lon="-1.97612"><ele>241.0</ele><time>2026-05-03T15:30:08.784Z</time></trkpt><trkpt lat="53.6593983" lon="-1.9761617"><ele>240.99999999999997</ele><time>2026-05-03T15:30:09.782Z</time></trkpt><trkpt lat="53.6593267" lon="-1.9761983"><ele>241.0</ele><time>2026-05-03T15:30:10.782Z</time></trkpt><trkpt lat="53.659255" lon="-1.9762283"><ele>239.57142857142858</ele><time>2026-05-03T15:30:11.783Z</time></trkpt><trkpt lat="53.6591883" lon="-1.9762317"><ele>238.14285714285717</ele><time>2026-05-03T15:30:12.785Z</time></trkpt><trkpt lat="53.65912" lon="-1.9761967"><ele>236.71428571428572</ele><time>2026-05-03T15:30:13.782Z</time></trkpt><trkpt lat="53.6590583" lon="-1.976135"><ele>235.28571428571428</ele><time>2026-05-03T15:30:14.787Z</time></trkpt><trkpt lat="53.65901" lon="-1.9760483"><ele>233.85714285714286</ele><time>2026-05-03T15:30:15.783Z</time></trkpt><trkpt lat="53.6589667" lon="-1.9759517"><ele>232.42857142857144</ele><time>2026-05-03T15:30:16.782Z</time></trkpt><trkpt lat="53.6589383" lon="-1.9758233"><ele>231.0</ele><time>2026-05-03T15:30:17.785Z</time></trkpt><trkpt lat="53.658905" lon="-1.9756717"><ele>230.5</ele><time>2026-05-03T15:30:18.782Z</time></trkpt><trkpt lat="53.6588617" lon="-1.9754983"><ele>230.0</ele><time>2026-05-03T15:30:19.783Z</time></trkpt><trkpt lat="53.65882" lon="-1.975315"><ele>229.5</ele><time>2026-05-03T15:30:20.783Z</time></trkpt><trkpt lat="53.6587767" lon="-1.9751183"><ele>229.0</ele><time>2026-05-03T15:30:21.783Z</time></trkpt><trkpt lat="53.6587383" lon="-1.974935"><ele>228.79999999999998</ele><time>2026-05-03T15:30:22.783Z</time></trkpt><trkpt lat="53.6586933" lon="-1.9747633"><ele>228.59999999999997</ele><time>2026-05-03T15:30:23.785Z</time></trkpt><trkpt lat="53.6586533" lon="-1.9746083"><ele>228.4</ele><time>2026-05-03T15:30:24.787Z</time></trkpt><trkpt lat="53.6586067" lon="-1.9744567"><ele>228.2</ele><time>2026-05-03T15:30:25.783Z</time></trkpt><trkpt lat="53.65855" lon="-1.9742967"><ele>228.0</ele><time>2026-05-03T15:30:26.782Z</time></trkpt><trkpt lat="53.658495" lon="-1.97412"><ele>230.75</ele><time>2026-05-03T15:30:27.782Z</time></trkpt><trkpt lat="53.65844" lon="-1.9739283"><ele>233.5</ele><time>2026-05-03T15:30:28.784Z</time></trkpt><trkpt lat="53.658385" lon="-1.973725"><ele>236.25</ele><time>2026-05-03T15:30:29.785Z</time></trkpt><trkpt lat="53.6583333" lon="-1.9735283"><ele>239.0</ele><time>2026-05-03T15:30:30.782Z</time></trkpt><trkpt lat="53.658285" lon="-1.97334"><ele>239.25</ele><time>2026-05-03T15:30:31.783Z</time></trkpt><trkpt lat="53.6582383" lon="-1.973145"><ele>239.5</ele><time>2026-05-03T15:30:32.785Z</time></trkpt><trkpt lat="53.6581933" lon="-1.972935"><ele>239.75</ele><time>2026-05-03T15:30:33.783Z</time></trkpt><trkpt lat="53.6581567" lon="-1.9727133"><ele>240.0</ele><time>2026-05-03T15:30:34.783Z</time></trkpt><trkpt lat="53.6581183" lon="-1.9724917"><ele>240.75</ele><time>2026-05-03T15:30:35.784Z</time></trkpt><trkpt lat="53.6580817" lon="-1.972275"><ele>241.5</ele><time>2026-05-03T15:30:36.782Z</time></trkpt><trkpt lat="53.6580433" lon="-1.9720633"><ele>242.25</ele><time>2026-05-03T15:30:37.783Z</time></trkpt><trkpt lat="53.6580067" lon="-1.971865"><ele>243.0</ele><time>2026-05-03T15:30:38.782Z</time></trkpt><trkpt lat="53.65797" lon="-1.9716933"><ele>243.5</ele><time>2026-05-03T15:30:39.782Z</time></trkpt><trkpt lat="53.6579183" lon="-1.971525"><ele>244.0</ele><time>2026-05-03T15:30:40.789Z</time></trkpt><trkpt lat="53.6578533" lon="-1.9713583"><ele>244.5</ele><time>2026-05-03T15:30:41.784Z</time></trkpt><trkpt lat="53.657775" lon="-1.971195"><ele>245.0</ele><time>2026-05-03T15:30:42.786Z</time></trkpt><trkpt lat="53.6576933" lon="-1.9710333"><ele>247.5</ele><time>2026-05-03T15:30:43.789Z</time></trkpt><trkpt lat="53.65761" lon="-1.970875"><ele>250.0</ele><time>2026-05-03T15:30:44.784Z</time></trkpt><trkpt lat="53.6575283" lon="-1.9707167"><ele>252.5</ele><time>2026-05-03T15:30:45.783Z</time></trkpt><trkpt lat="53.6574383" lon="-1.9705517"><ele>255.0</ele><time>2026-05-03T15:30:46.786Z</time></trkpt><trkpt lat="53.6573467" lon="-1.9703783"><ele>256.0</ele><time>2026-05-03T15:30:47.784Z</time></trkpt><trkpt lat="53.657255" lon="-1.9702083"><ele>257.0</ele><time>2026-05-03T15:30:48.785Z</time></trkpt><trkpt lat="53.65717" lon="-1.9700383"><ele>258.0</ele><time>2026-05-03T15:30:49.787Z</time></trkpt><trkpt lat="53.6570883" lon="-1.969865"><ele>259.0</ele><time>2026-05-03T15:30:50.783Z</time></trkpt><trkpt lat="53.65701" lon="-1.9696833"><ele>260.0</ele><time>2026-05-03T15:30:51.783Z</time></trkpt><trkpt lat="53.6569433" lon="-1.969495"><ele>261.0</ele><time>2026-05-03T15:30:52.783Z</time></trkpt><trkpt lat="53.6568883" lon="-1.9692933"><ele>262.0</ele><time>2026-05-03T15:30:53.784Z</time></trkpt><trkpt lat="53.6568433" lon="-1.96907"><ele>263.0</ele><time>2026-05-03T15:30:54.784Z</time></trkpt><trkpt lat="53.6567967" lon="-1.9688417"><ele>263.0</ele><time>2026-05-03T15:30:55.783Z</time></trkpt><trkpt lat="53.6567583" lon="-1.9686267"><ele>263.0</ele><time>2026-05-03T15:30:56.783Z</time></trkpt><trkpt lat="53.6567267" lon="-1.968425"><ele>263.0</ele><time>2026-05-03T15:30:57.782Z</time></trkpt><trkpt lat="53.6567033" lon="-1.9682383"><ele>263.0</ele><time>2026-05-03T15:30:58.784Z</time></trkpt><trkpt lat="53.65669" lon="-1.9680717"><ele>263.2</ele><time>2026-05-03T15:30:59.782Z</time></trkpt><trkpt lat="53.6566933" lon="-1.9678983"><ele>263.4</ele><time>2026-05-03T15:31:00.785Z</time></trkpt><trkpt lat="53.6567083" lon="-1.96773"><ele>263.59999999999997</ele><time>2026-05-03T15:31:01.783Z</time></trkpt><trkpt lat="53.6567233" lon="-1.9675683"><ele>263.8</ele><time>2026-05-03T15:31:02.782Z</time></trkpt><trkpt lat="53.65674" lon="-1.9674167"><ele>264.0</ele><time>2026-05-03T15:31:03.783Z</time></trkpt><trkpt lat="53.6567567" lon="-1.9672783"><ele>264.0</ele><time>2026-05-03T15:31:04.784Z</time></trkpt><trkpt lat="53.6567833" lon="-1.9671467"><ele>264.0</ele><time>2026-05-03T15:31:05.784Z</time></trkpt><trkpt lat="53.6568233" lon="-1.9670233"><ele>264.0</ele><time>2026-05-03T15:31:06.783Z</time></trkpt><trkpt lat="53.6568767" lon="-1.96692"><ele>264.0</ele><time>2026-05-03T15:31:07.787Z</time></trkpt><trkpt lat="53.6569433" lon="-1.96684"><ele>264.0</ele><time>2026-05-03T15:31:08.783Z</time></trkpt><trkpt lat="53.6570217" lon="-1.96677"><ele>264.0</ele><time>2026-05-03T15:31:09.783Z</time></trkpt><trkpt lat="53.657105" lon="-1.9666933"><ele>262.59999999999997</ele><time>2026-05-03T15:31:10.782Z</time></trkpt><trkpt lat="53.6571967" lon="-1.96662"><ele>261.2</ele><time>2026-05-03T15:31:11.784Z</time></trkpt><trkpt lat="53.6572917" lon="-1.9665467"><ele>259.79999999999995</ele><time>2026-05-03T15:31:12.787Z</time></trkpt><trkpt lat="53.6573883" lon="-1.96647"><ele>258.4</ele><time>2026-05-03T15:31:13.784Z</time></trkpt><trkpt lat="53.65748" lon="-1.9663933"><ele>257.0</ele><time>2026-05-03T15:31:14.783Z</time></trkpt><trkpt lat="53.6575667" lon="-1.966315"><ele>257.0</ele><time>2026-05-03T15:31:15.783Z</time></trkpt><trkpt lat="53.6576483" lon="-1.9662283"><ele>257.0</ele><time>2026-05-03T15:31:16.784Z</time></trkpt><trkpt lat="53.6577183" lon="-1.9661317"><ele>257.0</ele><time>2026-05-03T15:31:17.786Z</time></trkpt><trkpt lat="53.6577783" lon="-1.9660283"><ele>257.0</ele><time>2026-05-03T15:31:18.783Z</time></trkpt><trkpt lat="53.65783" lon="-1.96591"><ele>257.0</ele><time>2026-05-03T15:31:19.783Z</time></trkpt><trkpt lat="53.65787" lon="-1.9657733"><ele>255.83333333333334</ele><time>2026-05-03T15:31:20.786Z</time></trkpt><trkpt lat="53.6579017" lon="-1.9656217"><ele>254.66666666666669</ele><time>2026-05-03T15:31:21.784Z</time></trkpt><trkpt lat="53.6579267" lon="-1.9654683"><ele>253.5</ele><time>2026-05-03T15:31:22.782Z</time></trkpt><trkpt lat="53.657945" lon="-1.9653117"><ele>252.33333333333331</ele><time>2026-05-03T15:31:23.783Z</time></trkpt><trkpt lat="53.6579617" lon="-1.96518"><ele>251.16666666666666</ele><time>2026-05-03T15:31:24.783Z</time></trkpt><trkpt lat="53.6579767" lon="-1.965065"><ele>250.0</ele><time>2026-05-03T15:31:25.786Z</time></trkpt><trkpt lat="53.65799" lon="-1.964955"><ele>249.99999999999997</ele><time>2026-05-03T15:31:26.785Z</time></trkpt><trkpt lat="53.6579833" lon="-1.9647633"><ele>250.0</ele><time>2026-05-03T15:31:28.782Z</time></trkpt><trkpt lat="53.65793" lon="-1.9645983"><ele>250.0</ele><time>2026-05-03T15:31:30.784Z</time></trkpt><trkpt lat="53.657875" lon="-1.9645267"><ele>250.0</ele><time>2026-05-03T15:31:31.784Z</time></trkpt><trkpt lat="53.6578117" lon="-1.9644567"><ele>249.99999999999997</ele><time>2026-05-03T15:31:32.782Z</time></trkpt><trkpt lat="53.657745" lon="-1.9644017"><ele>250.0</ele><time>2026-05-03T15:31:33.784Z</time></trkpt><trkpt lat="53.657685" lon="-1.9643633"><ele>251.8</ele><time>2026-05-03T15:31:34.783Z</time></trkpt><trkpt lat="53.6575533" lon="-1.96436"><ele>253.6</ele><time>2026-05-03T15:31:36.783Z</time></trkpt><trkpt lat="53.65748" lon="-1.9644117"><ele>255.39999999999998</ele><time>2026-05-03T15:31:37.784Z</time></trkpt><trkpt lat="53.6573967" lon="-1.9644883"><ele>257.2</ele><time>2026-05-03T15:31:38.783Z</time></trkpt><trkpt lat="53.657305" lon="-1.9645583"><ele>259.0</ele><time>2026-05-03T15:31:39.783Z</time></trkpt><trkpt lat="53.6572133" lon="-1.9646117"><ele>259.0</ele><time>2026-05-03T15:31:40.782Z</time></trkpt><trkpt lat="53.6571283" lon="-1.96465"><ele>259.0</ele><time>2026-05-03T15:31:41.783Z</time></trkpt><trkpt lat="53.65706" lon="-1.9646733"><ele>259.0</ele><time>2026-05-03T15:31:42.785Z</time></trkpt><trkpt lat="53.656975" lon="-1.9646467"><ele>259.0</ele><time>2026-05-03T15:31:44.783Z</time></trkpt><trkpt lat="53.65692" lon="-1.9645267"><ele>259.0</ele><time>2026-05-03T15:31:46.783Z</time></trkpt><trkpt lat="53.6569033" lon="-1.96435"><ele>259.0</ele><time>2026-05-03T15:31:48.783Z</time></trkpt><trkpt lat="53.6568833" lon="-1.96418"><ele>262.2</ele><time>2026-05-03T15:31:50.784Z</time></trkpt><trkpt lat="53.65684" lon="-1.9640533"><ele>265.4</ele><time>2026-05-03T15:31:52.784Z</time></trkpt><trkpt lat="53.6567667" lon="-1.9639983"><ele>268.6</ele><time>2026-05-03T15:31:54.783Z</time></trkpt><trkpt lat="53.6566483" lon="-1.96398"><ele>271.8</ele><time>2026-05-03T15:31:56.784Z</time></trkpt><trkpt lat="53.6565483" lon="-1.96392"><ele>275.0</ele><time>2026-05-03T15:31:58.783Z</time></trkpt><trkpt lat="53.6564717" lon="-1.9638183"><ele>275.0</ele><time>2026-05-03T15:32:00.783Z</time></trkpt><trkpt lat="53.65643" lon="-1.96365"><ele>275.0</ele><time>2026-05-03T15:32:02.783Z</time></trkpt><trkpt lat="53.6564533" lon="-1.9634867"><ele>275.0</ele><time>2026-05-03T15:32:03.783Z</time></trkpt><trkpt lat="53.6564517" lon="-1.9633267"><ele>275.0</ele><time>2026-05-03T15:32:04.782Z</time></trkpt><trkpt lat="53.6564517" lon="-1.963175"><ele>275.0</ele><time>2026-05-03T15:32:05.784Z</time></trkpt><trkpt lat="53.6564617" lon="-1.96301"><ele>275.6</ele><time>2026-05-03T15:32:06.784Z</time></trkpt><trkpt lat="53.65648" lon="-1.96284"><ele>276.2</ele><time>2026-05-03T15:32:07.783Z</time></trkpt><trkpt lat="53.6565083" lon="-1.9626733"><ele>276.8</ele><time>2026-05-03T15:32:08.785Z</time></trkpt><trkpt lat="53.65654" lon="-1.962515"><ele>277.4</ele><time>2026-05-03T15:32:09.784Z</time></trkpt><trkpt lat="53.6565717" lon="-1.96237"><ele>278.0</ele><time>2026-05-03T15:32:10.783Z</time></trkpt><trkpt lat="53.656605" lon="-1.962235"><ele>278.33333333333337</ele><time>2026-05-03T15:32:11.783Z</time></trkpt><trkpt lat="53.6566383" lon="-1.9621"><ele>278.6666666666667</ele><time>2026-05-03T15:32:12.783Z</time></trkpt><trkpt lat="53.6566667" lon="-1.9619633"><ele>279.0</ele><time>2026-05-03T15:32:13.784Z</time></trkpt><trkpt lat="53.6566783" lon="-1.9618317"><ele>279.3333333333333</ele><time>2026-05-03T15:32:14.786Z</time></trkpt><trkpt lat="53.6566783" lon="-1.96171"><ele>279.66666666666663</ele><time>2026-05-03T15:32:15.784Z</time></trkpt><trkpt lat="53.6566617" lon="-1.96158"><ele>280.0</ele><time>2026-05-03T15:32:16.784Z</time></trkpt><trkpt lat="53.6566367" lon="-1.961445"><ele>280.0</ele><time>2026-05-03T15:32:17.783Z</time></trkpt><trkpt lat="53.6566" lon="-1.9612967"><ele>280.0</ele><time>2026-05-03T15:32:18.782Z</time></trkpt><trkpt lat="53.6565617" lon="-1.9611433"><ele>280.0</ele><time>2026-05-03T15:32:19.783Z</time></trkpt><trkpt lat="53.65652" lon="-1.960995"><ele>280.0</ele><time>2026-05-03T15:32:20.784Z</time></trkpt><trkpt lat="53.6564817" lon="-1.960855"><ele>280.0</ele><time>2026-05-03T15:32:21.782Z</time></trkpt><trkpt lat="53.656445" lon="-1.9607117"><ele>279.2</ele><time>2026-05-03T15:32:22.783Z</time></trkpt><trkpt lat="53.6563967" lon="-1.9605683"><ele>278.4</ele><time>2026-05-03T15:32:23.783Z</time></trkpt><trkpt lat="53.6563467" lon="-1.9604133"><ele>277.6</ele><time>2026-05-03T15:32:24.782Z</time></trkpt><trkpt lat="53.6562983" lon="-1.9602533"><ele>276.8</ele><time>2026-05-03T15:32:25.783Z</time></trkpt><trkpt lat="53.6562583" lon="-1.9601067"><ele>276.0</ele><time>2026-05-03T15:32:26.783Z</time></trkpt><trkpt lat="53.6562283" lon="-1.959975"><ele>275.1666666666667</ele><time>2026-05-03T15:32:27.784Z</time></trkpt><trkpt lat="53.6562083" lon="-1.9598467"><ele>274.3333333333333</ele><time>2026-05-03T15:32:28.782Z</time></trkpt><trkpt lat="53.6562033" lon="-1.9597167"><ele>273.5</ele><time>2026-05-03T15:32:29.784Z</time></trkpt><trkpt lat="53.6561933" lon="-1.9595767"><ele>272.66666666666663</ele><time>2026-05-03T15:32:30.783Z</time></trkpt><trkpt lat="53.65618" lon="-1.95945"><ele>271.8333333333333</ele><time>2026-05-03T15:32:31.784Z</time></trkpt><trkpt lat="53.6561583" lon="-1.959345"><ele>271.0</ele><time>2026-05-03T15:32:32.783Z</time></trkpt><trkpt lat="53.6560933" lon="-1.9591883"><ele>273.6</ele><time>2026-05-03T15:32:34.782Z</time></trkpt><trkpt lat="53.655975" lon="-1.9591233"><ele>276.20000000000005</ele><time>2026-05-03T15:32:36.784Z</time></trkpt><trkpt lat="53.6558967" lon="-1.95911"><ele>278.79999999999995</ele><time>2026-05-03T15:32:37.783Z</time></trkpt><trkpt lat="53.6558133" lon="-1.95909"><ele>281.4</ele><time>2026-05-03T15:32:38.786Z</time></trkpt><trkpt lat="53.6557283" lon="-1.9590617"><ele>284.0</ele><time>2026-05-03T15:32:39.783Z</time></trkpt><trkpt lat="53.6556367" lon="-1.95901"><ele>284.0</ele><time>2026-05-03T15:32:40.783Z</time></trkpt><trkpt lat="53.6555483" lon="-1.958945"><ele>284.0</ele><time>2026-05-03T15:32:41.783Z</time></trkpt><trkpt lat="53.65547" lon="-1.9588667"><ele>284.0</ele><time>2026-05-03T15:32:42.782Z</time></trkpt><trkpt lat="53.6553983" lon="-1.9587867"><ele>284.0</ele><time>2026-05-03T15:32:43.786Z</time></trkpt><trkpt lat="53.655325" lon="-1.9587033"><ele>284.0</ele><time>2026-05-03T15:32:44.783Z</time></trkpt><trkpt lat="53.6552483" lon="-1.9586117"><ele>284.5</ele><time>2026-05-03T15:32:45.783Z</time></trkpt><trkpt lat="53.6551517" lon="-1.9585183"><ele>285.0</ele><time>2026-05-03T15:32:46.783Z</time></trkpt><trkpt lat="53.6550483" lon="-1.9584267"><ele>285.5</ele><time>2026-05-03T15:32:47.783Z</time></trkpt><trkpt lat="53.6549383" lon="-1.958335"><ele>286.0</ele><time>2026-05-03T15:32:48.785Z</time></trkpt><trkpt lat="53.6548217" lon="-1.9582433"><ele>286.0</ele><time>2026-05-03T15:32:49.783Z</time></trkpt><trkpt lat="53.6547083" lon="-1.958145"><ele>286.0</ele><time>2026-05-03T15:32:50.785Z</time></trkpt><trkpt lat="53.65459" lon="-1.9580517"><ele>286.0</ele><time>2026-05-03T15:32:51.786Z</time></trkpt><trkpt lat="53.65448" lon="-1.9579567"><ele>286.0</ele><time>2026-05-03T15:32:52.786Z</time></trkpt><trkpt lat="53.6543717" lon="-1.9578633"><ele>287.75</ele><time>2026-05-03T15:32:53.783Z</time></trkpt><trkpt lat="53.6542617" lon="-1.9577717"><ele>289.5</ele><time>2026-05-03T15:32:54.782Z</time></trkpt><trkpt lat="53.654155" lon="-1.9576733"><ele>291.25</ele><time>2026-05-03T15:32:55.781Z</time></trkpt><trkpt lat="53.654055" lon="-1.957555"><ele>293.0</ele><time>2026-05-03T15:32:56.782Z</time></trkpt><trkpt lat="53.6539567" lon="-1.957435"><ele>289.0</ele><time>2026-05-03T15:32:57.783Z</time></trkpt><trkpt lat="53.65386" lon="-1.957315"><ele>285.0</ele><time>2026-05-03T15:32:58.782Z</time></trkpt><trkpt lat="53.65376" lon="-1.9572"><ele>281.0</ele><time>2026-05-03T15:32:59.787Z</time></trkpt><trkpt lat="53.6536567" lon="-1.957095"><ele>277.0</ele><time>2026-05-03T15:33:00.784Z</time></trkpt><trkpt lat="53.6535583" lon="-1.9569883"><ele>277.0</ele><time>2026-05-03T15:33:01.783Z</time></trkpt><trkpt lat="53.6534667" lon="-1.9568767"><ele>277.0</ele><time>2026-05-03T15:33:02.783Z</time></trkpt><trkpt lat="53.6533783" lon="-1.9567633"><ele>277.0</ele><time>2026-05-03T15:33:03.781Z</time></trkpt><trkpt lat="53.6532967" lon="-1.95665"><ele>277.0</ele><time>2026-05-03T15:33:04.784Z</time></trkpt><trkpt lat="53.6532183" lon="-1.9565383"><ele>277.0</ele><time>2026-05-03T15:33:05.785Z</time></trkpt><trkpt lat="53.65315" lon="-1.9564567"><ele>275.6</ele><time>2026-05-03T15:33:06.782Z</time></trkpt><trkpt lat="53.6530817" lon="-1.9563933"><ele>274.2</ele><time>2026-05-03T15:33:07.783Z</time></trkpt><trkpt lat="53.653015" lon="-1.9563533"><ele>272.8</ele><time>2026-05-03T15:33:08.786Z</time></trkpt><trkpt lat="53.6528883" lon="-1.9563817"><ele>271.4</ele><time>2026-05-03T15:33:10.783Z</time></trkpt><trkpt lat="53.652805" lon="-1.9564483"><ele>270.0</ele><time>2026-05-03T15:33:11.784Z</time></trkpt><trkpt lat="53.6527333" lon="-1.9565483"><ele>270.0</ele><time>2026-05-03T15:33:12.783Z</time></trkpt><trkpt lat="53.6526733" lon="-1.9566483"><ele>270.0</ele><time>2026-05-03T15:33:13.785Z</time></trkpt><trkpt lat="53.6526267" lon="-1.9567617"><ele>270.0</ele><time>2026-05-03T15:33:14.786Z</time></trkpt><trkpt lat="53.6525883" lon="-1.95688"><ele>270.0</ele><time>2026-05-03T15:33:15.783Z</time></trkpt><trkpt lat="53.65255" lon="-1.95697"><ele>270.0</ele><time>2026-05-03T15:33:16.785Z</time></trkpt><trkpt lat="53.6524633" lon="-1.95707"><ele>270.0</ele><time>2026-05-03T15:33:18.783Z</time></trkpt><trkpt lat="53.6523917" lon="-1.9570217"><ele>270.0</ele><time>2026-05-03T15:33:20.784Z</time></trkpt><trkpt lat="53.6523317" lon="-1.956855"><ele>270.0</ele><time>2026-05-03T15:33:22.782Z</time></trkpt><trkpt lat="53.652305" lon="-1.9567067"><ele>270.0</ele><time>2026-05-03T15:33:23.785Z</time></trkpt><trkpt lat="53.65228" lon="-1.95656"><ele>270.0</ele><time>2026-05-03T15:33:24.784Z</time></trkpt><trkpt lat="53.6522583" lon="-1.9564117"><ele>270.0</ele><time>2026-05-03T15:33:25.783Z</time></trkpt><trkpt lat="53.6522767" lon="-1.956235"><ele>270.0</ele><time>2026-05-03T15:33:26.783Z</time></trkpt><trkpt lat="53.6522983" lon="-1.9560617"><ele>270.0</ele><time>2026-05-03T15:33:27.783Z</time></trkpt><trkpt lat="53.6523133" lon="-1.9559117"><ele>270.0</ele><time>2026-05-03T15:33:28.785Z</time></trkpt><trkpt lat="53.652325" lon="-1.9557767"><ele>270.0</ele><time>2026-05-03T15:33:29.783Z</time></trkpt><trkpt lat="53.6523167" lon="-1.95567"><ele>270.0</ele><time>2026-05-03T15:33:30.784Z</time></trkpt><trkpt lat="53.6522667" lon="-1.9555283"><ele>270.0</ele><time>2026-05-03T15:33:32.784Z</time></trkpt><trkpt lat="53.6521917" lon="-1.9554667"><ele>269.6</ele><time>2026-05-03T15:33:34.784Z</time></trkpt><trkpt lat="53.652065" lon="-1.9555067"><ele>269.2</ele><time>2026-05-03T15:33:36.784Z</time></trkpt><trkpt lat="53.651975" lon="-1.9555417"><ele>268.8</ele><time>2026-05-03T15:33:37.784Z</time></trkpt><trkpt lat="53.651875" lon="-1.955575"><ele>268.4</ele><time>2026-05-03T15:33:38.784Z</time></trkpt><trkpt lat="53.6517583" lon="-1.955625"><ele>268.0</ele><time>2026-05-03T15:33:39.784Z</time></trkpt><trkpt lat="53.65164" lon="-1.9556717"><ele>273.0</ele><time>2026-05-03T15:33:40.784Z</time></trkpt><trkpt lat="53.6515167" lon="-1.955725"><ele>278.0</ele><time>2026-05-03T15:33:41.783Z</time></trkpt><trkpt lat="53.6514067" lon="-1.955765"><ele>283.0</ele><time>2026-05-03T15:33:42.784Z</time></trkpt><trkpt lat="53.6512917" lon="-1.9558083"><ele>288.0</ele><time>2026-05-03T15:33:43.785Z</time></trkpt><trkpt lat="53.651185" lon="-1.9558367"><ele>289.6</ele><time>2026-05-03T15:33:44.786Z</time></trkpt><trkpt lat="53.65108" lon="-1.9558517"><ele>291.20000000000005</ele><time>2026-05-03T15:33:45.784Z</time></trkpt><trkpt lat="53.6509717" lon="-1.9558683"><ele>292.8</ele><time>2026-05-03T15:33:46.785Z</time></trkpt><trkpt lat="53.6508683" lon="-1.9558767"><ele>294.40000000000003</ele><time>2026-05-03T15:33:47.785Z</time></trkpt><trkpt lat="53.65077" lon="-1.955885"><ele>296.0</ele><time>2026-05-03T15:33:48.783Z</time></trkpt><trkpt lat="53.6506767" lon="-1.9558833"><ele>296.0</ele><time>2026-05-03T15:33:49.783Z</time></trkpt><trkpt lat="53.65058" lon="-1.9558717"><ele>296.0</ele><time>2026-05-03T15:33:50.783Z</time></trkpt><trkpt lat="53.6504733" lon="-1.9558383"><ele>296.0</ele><time>2026-05-03T15:33:51.784Z</time></trkpt><trkpt lat="53.6503583" lon="-1.9558067"><ele>296.0</ele><time>2026-05-03T15:33:52.787Z</time></trkpt><trkpt lat="53.650225" lon="-1.9557733"><ele>296.0</ele><time>2026-05-03T15:33:53.786Z</time></trkpt><trkpt lat="53.6500917" lon="-1.9557317"><ele>296.0</ele><time>2026-05-03T15:33:54.784Z</time></trkpt><trkpt lat="53.649965" lon="-1.9557017"><ele>296.0</ele><time>2026-05-03T15:33:55.783Z</time></trkpt><trkpt lat="53.64984" lon="-1.9556783"><ele>296.0</ele><time>2026-05-03T15:33:56.784Z</time></trkpt><trkpt lat="53.64972" lon="-1.9556517"><ele>296.0</ele><time>2026-05-03T15:33:57.784Z</time></trkpt><trkpt lat="53.6495933" lon="-1.9556367"><ele>296.0</ele><time>2026-05-03T15:33:58.784Z</time></trkpt><trkpt lat="53.6494683" lon="-1.9556333"><ele>296.0</ele><time>2026-05-03T15:33:59.784Z</time></trkpt><trkpt lat="53.6493467" lon="-1.9556333"><ele>296.0</ele><time>2026-05-03T15:34:00.783Z</time></trkpt><trkpt lat="53.649225" lon="-1.9556317"><ele>296.0</ele><time>2026-05-03T15:34:01.783Z</time></trkpt><trkpt lat="53.649105" lon="-1.9556317"><ele>296.0</ele><time>2026-05-03T15:34:02.785Z</time></trkpt><trkpt lat="53.6489883" lon="-1.9556317"><ele>296.0</ele><time>2026-05-03T15:34:03.786Z</time></trkpt><trkpt lat="53.6488633" lon="-1.9556383"><ele>296.0</ele><time>2026-05-03T15:34:04.784Z</time></trkpt><trkpt lat="53.6487317" lon="-1.955655"><ele>295.0</ele><time>2026-05-03T15:34:05.787Z</time></trkpt><trkpt lat="53.6485933" lon="-1.9556767"><ele>294.0</ele><time>2026-05-03T15:34:06.783Z</time></trkpt><trkpt lat="53.6484567" lon="-1.9557033"><ele>293.0</ele><time>2026-05-03T15:34:07.785Z</time></trkpt><trkpt lat="53.6483267" lon="-1.9557317"><ele>292.0</ele><time>2026-05-03T15:34:08.783Z</time></trkpt><trkpt lat="53.648205" lon="-1.9557667"><ele>292.0</ele><time>2026-05-03T15:34:09.783Z</time></trkpt><trkpt lat="53.6480883" lon="-1.9558083"><ele>292.0</ele><time>2026-05-03T15:34:10.785Z</time></trkpt><trkpt lat="53.647975" lon="-1.955855"><ele>292.0</ele><time>2026-05-03T15:34:11.787Z</time></trkpt><trkpt lat="53.6478633" lon="-1.95592"><ele>292.0</ele><time>2026-05-03T15:34:12.784Z</time></trkpt><trkpt lat="53.6477533" lon="-1.956"><ele>291.75</ele><time>2026-05-03T15:34:13.785Z</time></trkpt><trkpt lat="53.647635" lon="-1.9561017"><ele>291.5</ele><time>2026-05-03T15:34:14.787Z</time></trkpt><trkpt lat="53.6475133" lon="-1.95621"><ele>291.25</ele><time>2026-05-03T15:34:15.783Z</time></trkpt><trkpt lat="53.64739" lon="-1.95631"><ele>291.0</ele><time>2026-05-03T15:34:16.784Z</time></trkpt><trkpt lat="53.6472667" lon="-1.9564033"><ele>291.0</ele><time>2026-05-03T15:34:17.786Z</time></trkpt><trkpt lat="53.6471467" lon="-1.9564867"><ele>291.0</ele><time>2026-05-03T15:34:18.784Z</time></trkpt><trkpt lat="53.6470317" lon="-1.9565683"><ele>291.0</ele><time>2026-05-03T15:34:19.784Z</time></trkpt><trkpt lat="53.6469267" lon="-1.956655"><ele>291.0</ele><time>2026-05-03T15:34:20.784Z</time></trkpt><trkpt lat="53.64683" lon="-1.9567467"><ele>288.0</ele><time>2026-05-03T15:34:21.783Z</time></trkpt><trkpt lat="53.646735" lon="-1.95684"><ele>285.0</ele><time>2026-05-03T15:34:22.784Z</time></trkpt><trkpt lat="53.6454883" lon="-1.957905"><ele>285.0</ele><time>2026-05-03T15:34:36.018Z</time></trkpt><trkpt lat="53.6453767" lon="-1.9581117"><ele>285.0</ele><time>2026-05-03T15:34:37.783Z</time></trkpt><trkpt lat="53.64533" lon="-1.9582133"><ele>285.0</ele><time>2026-05-03T15:34:38.783Z</time></trkpt><trkpt lat="53.6452917" lon="-1.9583533"><ele>285.0</ele><time>2026-05-03T15:34:39.782Z</time></trkpt><trkpt lat="53.645225" lon="-1.958455"><ele>285.0</ele><time>2026-05-03T15:34:40.782Z</time></trkpt><trkpt lat="53.6451567" lon="-1.958545"><ele>283.4</ele><time>2026-05-03T15:34:41.783Z</time></trkpt><trkpt lat="53.6450767" lon="-1.958645"><ele>281.8</ele><time>2026-05-03T15:34:42.782Z</time></trkpt><trkpt lat="53.645005" lon="-1.9587733"><ele>280.2</ele><time>2026-05-03T15:34:43.782Z</time></trkpt><trkpt lat="53.6449267" lon="-1.9588917"><ele>278.6</ele><time>2026-05-03T15:34:44.782Z</time></trkpt><trkpt lat="53.6448417" lon="-1.9589933"><ele>277.0</ele><time>2026-05-03T15:34:45.783Z</time></trkpt><trkpt lat="53.6447567" lon="-1.9590883"><ele>277.6</ele><time>2026-05-03T15:34:46.783Z</time></trkpt><trkpt lat="53.64468" lon="-1.9592017"><ele>278.2</ele><time>2026-05-03T15:34:47.783Z</time></trkpt><trkpt lat="53.6446167" lon="-1.959335"><ele>278.8</ele><time>2026-05-03T15:34:48.784Z</time></trkpt><trkpt lat="53.6445617" lon="-1.9594933"><ele>279.4</ele><time>2026-05-03T15:34:49.783Z</time></trkpt><trkpt lat="53.644515" lon="-1.9596517"><ele>280.0</ele><time>2026-05-03T15:34:50.783Z</time></trkpt><trkpt lat="53.6444717" lon="-1.959805"><ele>277.8333333333333</ele><time>2026-05-03T15:34:51.783Z</time></trkpt><trkpt lat="53.64443" lon="-1.9599533"><ele>275.66666666666663</ele><time>2026-05-03T15:34:52.784Z</time></trkpt><trkpt lat="53.6443867" lon="-1.96008"><ele>273.5</ele><time>2026-05-03T15:34:53.784Z</time></trkpt><trkpt lat="53.6443467" lon="-1.96019"><ele>271.3333333333333</ele><time>2026-05-03T15:34:54.783Z</time></trkpt><trkpt lat="53.6443067" lon="-1.9602767"><ele>269.1666666666667</ele><time>2026-05-03T15:34:55.783Z</time></trkpt><trkpt lat="53.64421" lon="-1.96038"><ele>267.0</ele><time>2026-05-03T15:34:57.783Z</time></trkpt><trkpt lat="53.6440917" lon="-1.9603933"><ele>267.0</ele><time>2026-05-03T15:34:59.783Z</time></trkpt><trkpt lat="53.6440017" lon="-1.96036"><ele>267.0</ele><time>2026-05-03T15:35:01.785Z</time></trkpt><trkpt lat="53.6439283" lon="-1.9604067"><ele>267.0</ele><time>2026-05-03T15:35:03.783Z</time></trkpt><trkpt lat="53.6438467" lon="-1.9606067"><ele>267.0</ele><time>2026-05-03T15:35:05.786Z</time></trkpt><trkpt lat="53.6438" lon="-1.9607883"><ele>267.0</ele><time>2026-05-03T15:35:06.783Z</time></trkpt><trkpt lat="53.643745" lon="-1.961015"><ele>267.5</ele><time>2026-05-03T15:35:07.782Z</time></trkpt><trkpt lat="53.643695" lon="-1.9612283"><ele>268.0</ele><time>2026-05-03T15:35:08.783Z</time></trkpt><trkpt lat="53.643645" lon="-1.9614467"><ele>268.5</ele><time>2026-05-03T15:35:09.783Z</time></trkpt><trkpt lat="53.643595" lon="-1.9616733"><ele>269.0</ele><time>2026-05-03T15:35:10.784Z</time></trkpt><trkpt lat="53.643545" lon="-1.961905"><ele>268.6666666666667</ele><time>2026-05-03T15:35:11.783Z</time></trkpt><trkpt lat="53.6434967" lon="-1.9621483"><ele>268.3333333333333</ele><time>2026-05-03T15:35:12.784Z</time></trkpt><trkpt lat="53.643445" lon="-1.9623983"><ele>268.0</ele><time>2026-05-03T15:35:13.783Z</time></trkpt><trkpt lat="53.6433933" lon="-1.9626467"><ele>268.0</ele><time>2026-05-03T15:35:14.784Z</time></trkpt><trkpt lat="53.6433467" lon="-1.96289"><ele>268.0</ele><time>2026-05-03T15:35:15.782Z</time></trkpt><trkpt lat="53.6432983" lon="-1.9631367"><ele>268.0</ele><time>2026-05-03T15:35:16.783Z</time></trkpt><trkpt lat="53.6432533" lon="-1.9633783"><ele>269.3333333333333</ele><time>2026-05-03T15:35:17.782Z</time></trkpt><trkpt lat="53.6432083" lon="-1.96362"><ele>270.6666666666667</ele><time>2026-05-03T15:35:18.782Z</time></trkpt><trkpt lat="53.6431633" lon="-1.963865"><ele>272.0</ele><time>2026-05-03T15:35:19.783Z</time></trkpt><trkpt lat="53.64312" lon="-1.96411"><ele>273.0</ele><time>2026-05-03T15:35:20.784Z</time></trkpt><trkpt lat="53.6430717" lon="-1.964365"><ele>274.0</ele><time>2026-05-03T15:35:21.783Z</time></trkpt><trkpt lat="53.6430233" lon="-1.9646267"><ele>275.0</ele><time>2026-05-03T15:35:22.783Z</time></trkpt><trkpt lat="53.6429783" lon="-1.9649"><ele>276.33333333333337</ele><time>2026-05-03T15:35:23.783Z</time></trkpt><trkpt lat="53.642935" lon="-1.965175"><ele>277.6666666666667</ele><time>2026-05-03T15:35:24.784Z</time></trkpt><trkpt lat="53.64289" lon="-1.9654567"><ele>279.0</ele><time>2026-05-03T15:35:25.784Z</time></trkpt><trkpt lat="53.642845" lon="-1.965745"><ele>280.3333333333333</ele><time>2026-05-03T15:35:26.784Z</time></trkpt><trkpt lat="53.6428" lon="-1.96605"><ele>281.66666666666663</ele><time>2026-05-03T15:35:27.783Z</time></trkpt><trkpt lat="53.6427517" lon="-1.966365"><ele>283.0</ele><time>2026-05-03T15:35:28.784Z</time></trkpt><trkpt lat="53.6427067" lon="-1.9666883"><ele>280.66666666666663</ele><time>2026-05-03T15:35:29.784Z</time></trkpt><trkpt lat="53.6426633" lon="-1.967015"><ele>278.3333333333333</ele><time>2026-05-03T15:35:30.783Z</time></trkpt><trkpt lat="53.642625" lon="-1.9673567"><ele>276.0</ele><time>2026-05-03T15:35:31.784Z</time></trkpt><trkpt lat="53.6425967" lon="-1.9676933"><ele>276.0</ele><time>2026-05-03T15:35:32.787Z</time></trkpt><trkpt lat="53.6425717" lon="-1.96803"><ele>276.0</ele><time>2026-05-03T15:35:33.785Z</time></trkpt><trkpt lat="53.642545" lon="-1.9683633"><ele>276.0</ele><time>2026-05-03T15:35:34.783Z</time></trkpt><trkpt lat="53.6425233" lon="-1.9686917"><ele>277.0</ele><time>2026-05-03T15:35:35.784Z</time></trkpt><trkpt lat="53.6424933" lon="-1.96901"><ele>278.0</ele><time>2026-05-03T15:35:36.784Z</time></trkpt><trkpt lat="53.64246" lon="-1.9693267"><ele>279.0</ele><time>2026-05-03T15:35:37.783Z</time></trkpt><trkpt lat="53.6424217" lon="-1.96964"><ele>280.6666666666667</ele><time>2026-05-03T15:35:38.783Z</time></trkpt><trkpt lat="53.6423733" lon="-1.9699517"><ele>282.33333333333337</ele><time>2026-05-03T15:35:39.783Z</time></trkpt><trkpt lat="53.642315" lon="-1.9702683"><ele>284.0</ele><time>2026-05-03T15:35:40.787Z</time></trkpt><trkpt lat="53.6422533" lon="-1.9705817"><ele>287.33333333333337</ele><time>2026-05-03T15:35:41.784Z</time></trkpt><trkpt lat="53.6421883" lon="-1.970895"><ele>290.6666666666667</ele><time>2026-05-03T15:35:42.784Z</time></trkpt><trkpt lat="53.642135" lon="-1.9712117"><ele>294.0</ele><time>2026-05-03T15:35:43.783Z</time></trkpt><trkpt lat="53.64209" lon="-1.9715383"><ele>295.0</ele><time>2026-05-03T15:35:44.784Z</time></trkpt><trkpt lat="53.6420433" lon="-1.97187"><ele>296.0</ele><time>2026-05-03T15:35:45.783Z</time></trkpt><trkpt lat="53.642" lon="-1.97221"><ele>297.0</ele><time>2026-05-03T15:35:46.783Z</time></trkpt><trkpt lat="53.6419567" lon="-1.97255"><ele>292.3333333333333</ele><time>2026-05-03T15:35:47.784Z</time></trkpt><trkpt lat="53.64191" lon="-1.97289"><ele>287.66666666666663</ele><time>2026-05-03T15:35:48.783Z</time></trkpt><trkpt lat="53.6418617" lon="-1.9732317"><ele>283.0</ele><time>2026-05-03T15:35:49.784Z</time></trkpt><trkpt lat="53.6418167" lon="-1.97357"><ele>283.0</ele><time>2026-05-03T15:35:50.784Z</time></trkpt><trkpt lat="53.64177" lon="-1.9738983"><ele>283.0</ele><time>2026-05-03T15:35:51.784Z</time></trkpt><trkpt lat="53.6417217" lon="-1.9742117"><ele>283.0</ele><time>2026-05-03T15:35:52.784Z</time></trkpt><trkpt lat="53.6416733" lon="-1.9745183"><ele>283.66666666666663</ele><time>2026-05-03T15:35:53.784Z</time></trkpt><trkpt lat="53.641625" lon="-1.97482"><ele>284.3333333333333</ele><time>2026-05-03T15:35:54.784Z</time></trkpt><trkpt lat="53.641575" lon="-1.97512"><ele>285.0</ele><time>2026-05-03T15:35:55.788Z</time></trkpt><trkpt lat="53.6415267" lon="-1.9754167"><ele>286.6666666666667</ele><time>2026-05-03T15:35:56.787Z</time></trkpt><trkpt lat="53.64148" lon="-1.97571"><ele>288.33333333333337</ele><time>2026-05-03T15:35:57.783Z</time></trkpt><trkpt lat="53.641435" lon="-1.9760033"><ele>290.0</ele><time>2026-05-03T15:35:58.783Z</time></trkpt><trkpt lat="53.6413983" lon="-1.976295"><ele>292.0</ele><time>2026-05-03T15:35:59.783Z</time></trkpt><trkpt lat="53.6413683" lon="-1.9765867"><ele>294.0</ele><time>2026-05-03T15:36:00.783Z</time></trkpt><trkpt lat="53.6413383" lon="-1.97688"><ele>296.0</ele><time>2026-05-03T15:36:01.783Z</time></trkpt><trkpt lat="53.6413083" lon="-1.9771767"><ele>298.0</ele><time>2026-05-03T15:36:02.787Z</time></trkpt><trkpt lat="53.6412817" lon="-1.9774767"><ele>300.0</ele><time>2026-05-03T15:36:03.783Z</time></trkpt><trkpt lat="53.64126" lon="-1.9777783"><ele>302.0</ele><time>2026-05-03T15:36:04.787Z</time></trkpt><trkpt lat="53.641245" lon="-1.9780817"><ele>303.0</ele><time>2026-05-03T15:36:05.783Z</time></trkpt><trkpt lat="53.6412383" lon="-1.978385"><ele>304.0</ele><time>2026-05-03T15:36:06.787Z</time></trkpt><trkpt lat="53.6412417" lon="-1.97869"><ele>305.0</ele><time>2026-05-03T15:36:07.784Z</time></trkpt><trkpt lat="53.6412533" lon="-1.9790033"><ele>305.33333333333337</ele><time>2026-05-03T15:36:08.785Z</time></trkpt><trkpt lat="53.6412667" lon="-1.979315"><ele>305.6666666666667</ele><time>2026-05-03T15:36:09.786Z</time></trkpt><trkpt lat="53.6412817" lon="-1.9796283"><ele>306.0</ele><time>2026-05-03T15:36:10.786Z</time></trkpt><trkpt lat="53.6412933" lon="-1.9799333"><ele>306.0</ele><time>2026-05-03T15:36:11.787Z</time></trkpt><trkpt lat="53.64131" lon="-1.980245"><ele>306.0</ele><time>2026-05-03T15:36:12.786Z</time></trkpt><trkpt lat="53.6413283" lon="-1.9805633"><ele>306.0</ele><time>2026-05-03T15:36:13.787Z</time></trkpt><trkpt lat="53.641345" lon="-1.980875"><ele>306.0</ele><time>2026-05-03T15:36:14.787Z</time></trkpt><trkpt lat="53.6413617" lon="-1.9811867"><ele>306.0</ele><time>2026-05-03T15:36:15.785Z</time></trkpt><trkpt lat="53.6413767" lon="-1.981495"><ele>306.0</ele><time>2026-05-03T15:36:16.787Z</time></trkpt><trkpt lat="53.6413917" lon="-1.9818017"><ele>306.3333333333333</ele><time>2026-05-03T15:36:17.782Z</time></trkpt><trkpt lat="53.6414117" lon="-1.9821083"><ele>306.66666666666663</ele><time>2026-05-03T15:36:18.788Z</time></trkpt><trkpt lat="53.6414283" lon="-1.982415"><ele>307.0</ele><time>2026-05-03T15:36:19.782Z</time></trkpt><trkpt lat="53.641445" lon="-1.9827167"><ele>307.0</ele><time>2026-05-03T15:36:20.784Z</time></trkpt><trkpt lat="53.6414617" lon="-1.983025"><ele>307.0</ele><time>2026-05-03T15:36:21.787Z</time></trkpt><trkpt lat="53.64148" lon="-1.9833283"><ele>307.0</ele><time>2026-05-03T15:36:22.787Z</time></trkpt><trkpt lat="53.6414983" lon="-1.9836283"><ele>306.3333333333333</ele><time>2026-05-03T15:36:23.786Z</time></trkpt><trkpt lat="53.64152" lon="-1.98394"><ele>305.6666666666667</ele><time>2026-05-03T15:36:24.785Z</time></trkpt><trkpt lat="53.641545" lon="-1.9842617"><ele>305.0</ele><time>2026-05-03T15:36:25.789Z</time></trkpt><trkpt lat="53.6415633" lon="-1.984585"><ele>304.0</ele><time>2026-05-03T15:36:26.787Z</time></trkpt><trkpt lat="53.6415717" lon="-1.98491"><ele>303.0</ele><time>2026-05-03T15:36:27.786Z</time></trkpt><trkpt lat="53.641575" lon="-1.98523"><ele>302.0</ele><time>2026-05-03T15:36:28.787Z</time></trkpt><trkpt lat="53.641575" lon="-1.9855517"><ele>302.33333333333337</ele><time>2026-05-03T15:36:29.786Z</time></trkpt><trkpt lat="53.6415717" lon="-1.9858667"><ele>302.6666666666667</ele><time>2026-05-03T15:36:30.787Z</time></trkpt><trkpt lat="53.641565" lon="-1.9861767"><ele>303.0</ele><time>2026-05-03T15:36:31.784Z</time></trkpt><trkpt lat="53.641555" lon="-1.9864917"><ele>303.6666666666667</ele><time>2026-05-03T15:36:32.782Z</time></trkpt><trkpt lat="53.6415417" lon="-1.9868"><ele>304.33333333333337</ele><time>2026-05-03T15:36:33.786Z</time></trkpt><trkpt lat="53.6415217" lon="-1.98711"><ele>305.0</ele><time>2026-05-03T15:36:34.786Z</time></trkpt><trkpt lat="53.6414917" lon="-1.9874167"><ele>305.6666666666667</ele><time>2026-05-03T15:36:35.782Z</time></trkpt><trkpt lat="53.6414533" lon="-1.9877233"><ele>306.3333333333333</ele><time>2026-05-03T15:36:36.783Z</time></trkpt><trkpt lat="53.641405" lon="-1.9880233"><ele>307.0</ele><time>2026-05-03T15:36:37.783Z</time></trkpt><trkpt lat="53.64135" lon="-1.9883183"><ele>308.3333333333333</ele><time>2026-05-03T15:36:38.784Z</time></trkpt><trkpt lat="53.6412867" lon="-1.9886067"><ele>309.6666666666667</ele><time>2026-05-03T15:36:39.784Z</time></trkpt><trkpt lat="53.6412133" lon="-1.9888833"><ele>311.0</ele><time>2026-05-03T15:36:40.785Z</time></trkpt><trkpt lat="53.6411367" lon="-1.9891683"><ele>306.6666666666667</ele><time>2026-05-03T15:36:41.785Z</time></trkpt><trkpt lat="53.6410533" lon="-1.9894483"><ele>302.3333333333333</ele><time>2026-05-03T15:36:42.784Z</time></trkpt><trkpt lat="53.6409633" lon="-1.9897267"><ele>298.0</ele><time>2026-05-03T15:36:43.785Z</time></trkpt><trkpt lat="53.6408683" lon="-1.98999"><ele>300.3333333333333</ele><time>2026-05-03T15:36:44.787Z</time></trkpt><trkpt lat="53.6407633" lon="-1.9902483"><ele>302.6666666666667</ele><time>2026-05-03T15:36:45.784Z</time></trkpt><trkpt lat="53.6406533" lon="-1.9905033"><ele>305.0</ele><time>2026-05-03T15:36:46.783Z</time></trkpt><trkpt lat="53.6405433" lon="-1.9907567"><ele>306.6666666666667</ele><time>2026-05-03T15:36:47.784Z</time></trkpt><trkpt lat="53.640435" lon="-1.99101"><ele>308.3333333333333</ele><time>2026-05-03T15:36:48.783Z</time></trkpt><trkpt lat="53.6403317" lon="-1.991275"><ele>310.0</ele><time>2026-05-03T15:36:49.783Z</time></trkpt><trkpt lat="53.6402333" lon="-1.991545"><ele>305.0</ele><time>2026-05-03T15:36:50.784Z</time></trkpt><trkpt lat="53.6401417" lon="-1.9918217"><ele>300.0</ele><time>2026-05-03T15:36:51.783Z</time></trkpt><trkpt lat="53.6400567" lon="-1.9921"><ele>295.0</ele><time>2026-05-03T15:36:52.783Z</time></trkpt><trkpt lat="53.6399783" lon="-1.9923833"><ele>296.3333333333333</ele><time>2026-05-03T15:36:53.784Z</time></trkpt><trkpt lat="53.6399083" lon="-1.9926717"><ele>297.6666666666667</ele><time>2026-05-03T15:36:54.783Z</time></trkpt><trkpt lat="53.639845" lon="-1.9929683"><ele>299.0</ele><time>2026-05-03T15:36:55.784Z</time></trkpt><trkpt lat="53.63979" lon="-1.9932667"><ele>300.33333333333337</ele><time>2026-05-03T15:36:56.782Z</time></trkpt><trkpt lat="53.6397333" lon="-1.99356"><ele>301.6666666666667</ele><time>2026-05-03T15:36:57.783Z</time></trkpt><trkpt lat="53.6396817" lon="-1.9938417"><ele>303.0</ele><time>2026-05-03T15:36:58.783Z</time></trkpt><trkpt lat="53.6396333" lon="-1.99412"><ele>304.0</ele><time>2026-05-03T15:36:59.784Z</time></trkpt><trkpt lat="53.6395817" lon="-1.9944"><ele>305.0</ele><time>2026-05-03T15:37:00.784Z</time></trkpt><trkpt lat="53.6395367" lon="-1.994685"><ele>306.0</ele><time>2026-05-03T15:37:01.783Z</time></trkpt><trkpt lat="53.6395" lon="-1.994965"><ele>306.25</ele><time>2026-05-03T15:37:02.782Z</time></trkpt><trkpt lat="53.6394767" lon="-1.9952267"><ele>306.5</ele><time>2026-05-03T15:37:03.782Z</time></trkpt><trkpt lat="53.6394567" lon="-1.9954667"><ele>306.75</ele><time>2026-05-03T15:37:04.783Z</time></trkpt><trkpt lat="53.6394317" lon="-1.9956833"><ele>307.0</ele><time>2026-05-03T15:37:05.783Z</time></trkpt><trkpt lat="53.63939" lon="-1.9958883"><ele>303.5</ele><time>2026-05-03T15:37:06.783Z</time></trkpt><trkpt lat="53.6393133" lon="-1.996075"><ele>300.0</ele><time>2026-05-03T15:37:07.782Z</time></trkpt><trkpt lat="53.6392067" lon="-1.996245"><ele>296.5</ele><time>2026-05-03T15:37:08.782Z</time></trkpt><trkpt lat="53.63908" lon="-1.99641"><ele>293.0</ele><time>2026-05-03T15:37:09.784Z</time></trkpt><trkpt lat="53.638945" lon="-1.9965867"><ele>294.6666666666667</ele><time>2026-05-03T15:37:10.784Z</time></trkpt><trkpt lat="53.6388167" lon="-1.99678"><ele>296.3333333333333</ele><time>2026-05-03T15:37:11.784Z</time></trkpt><trkpt lat="53.6386967" lon="-1.9969867"><ele>298.0</ele><time>2026-05-03T15:37:12.782Z</time></trkpt><trkpt lat="53.6385883" lon="-1.9971933"><ele>298.0</ele><time>2026-05-03T15:37:13.783Z</time></trkpt><trkpt lat="53.6384833" lon="-1.9974"><ele>298.0</ele><time>2026-05-03T15:37:14.783Z</time></trkpt><trkpt lat="53.6383733" lon="-1.9975933"><ele>298.0</ele><time>2026-05-03T15:37:15.783Z</time></trkpt><trkpt lat="53.6382567" lon="-1.9977817"><ele>302.0</ele><time>2026-05-03T15:37:16.784Z</time></trkpt><trkpt lat="53.6381367" lon="-1.997965"><ele>306.0</ele><time>2026-05-03T15:37:17.783Z</time></trkpt><trkpt lat="53.6380083" lon="-1.998145"><ele>310.0</ele><time>2026-05-03T15:37:18.783Z</time></trkpt><trkpt lat="53.6378733" lon="-1.9983233"><ele>309.66666666666663</ele><time>2026-05-03T15:37:19.784Z</time></trkpt><trkpt lat="53.637735" lon="-1.9985033"><ele>309.3333333333333</ele><time>2026-05-03T15:37:20.782Z</time></trkpt><trkpt lat="53.6376017" lon="-1.9986833"><ele>309.0</ele><time>2026-05-03T15:37:21.783Z</time></trkpt><trkpt lat="53.6374767" lon="-1.998865"><ele>309.0</ele><time>2026-05-03T15:37:22.783Z</time></trkpt><trkpt lat="53.6373567" lon="-1.9990533"><ele>309.0</ele><time>2026-05-03T15:37:23.783Z</time></trkpt><trkpt lat="53.6372467" lon="-1.9992583"><ele>309.0</ele><time>2026-05-03T15:37:24.783Z</time></trkpt><trkpt lat="53.637145" lon="-1.9994967"><ele>307.0</ele><time>2026-05-03T15:37:25.784Z</time></trkpt><trkpt lat="53.6370567" lon="-1.9997517"><ele>305.0</ele><time>2026-05-03T15:37:26.784Z</time></trkpt><trkpt lat="53.6369833" lon="-2.0000233"><ele>303.0</ele><time>2026-05-03T15:37:27.783Z</time></trkpt><trkpt lat="53.63691" lon="-2.0002883"><ele>303.0</ele><time>2026-05-03T15:37:28.786Z</time></trkpt><trkpt lat="53.63684" lon="-2.0005533"><ele>303.0</ele><time>2026-05-03T15:37:29.783Z</time></trkpt><trkpt lat="53.6367667" lon="-2.0008183"><ele>303.0</ele><time>2026-05-03T15:37:30.783Z</time></trkpt><trkpt lat="53.6366917" lon="-2.0010783"><ele>304.6666666666667</ele><time>2026-05-03T15:37:31.783Z</time></trkpt><trkpt lat="53.63662" lon="-2.0013183"><ele>306.33333333333337</ele><time>2026-05-03T15:37:32.784Z</time></trkpt><trkpt lat="53.63655" lon="-2.00155"><ele>308.0</ele><time>2026-05-03T15:37:33.783Z</time></trkpt><trkpt lat="53.6364817" lon="-2.00178"><ele>310.0</ele><time>2026-05-03T15:37:34.783Z</time></trkpt><trkpt lat="53.6364133" lon="-2.0020017"><ele>312.0</ele><time>2026-05-03T15:37:35.783Z</time></trkpt><trkpt lat="53.63634" lon="-2.0022283"><ele>314.0</ele><time>2026-05-03T15:37:36.784Z</time></trkpt><trkpt lat="53.636265" lon="-2.00245"><ele>312.33333333333337</ele><time>2026-05-03T15:37:37.783Z</time></trkpt><trkpt lat="53.63619" lon="-2.002675"><ele>310.6666666666667</ele><time>2026-05-03T15:37:38.783Z</time></trkpt><trkpt lat="53.636115" lon="-2.0028983"><ele>309.0</ele><time>2026-05-03T15:37:39.782Z</time></trkpt><trkpt lat="53.6360417" lon="-2.0031217"><ele>311.3333333333333</ele><time>2026-05-03T15:37:40.783Z</time></trkpt><trkpt lat="53.63597" lon="-2.00334"><ele>313.66666666666663</ele><time>2026-05-03T15:37:41.783Z</time></trkpt><trkpt lat="53.6358983" lon="-2.0035683"><ele>316.0</ele><time>2026-05-03T15:37:42.787Z</time></trkpt><trkpt lat="53.6358283" lon="-2.0038017"><ele>316.0</ele><time>2026-05-03T15:37:43.785Z</time></trkpt><trkpt lat="53.63576" lon="-2.0040433"><ele>316.0</ele><time>2026-05-03T15:37:44.784Z</time></trkpt><trkpt lat="53.6356933" lon="-2.0042917"><ele>316.0</ele><time>2026-05-03T15:37:45.784Z</time></trkpt><trkpt lat="53.6356367" lon="-2.00454"><ele>318.3333333333333</ele><time>2026-05-03T15:37:46.783Z</time></trkpt><trkpt lat="53.63558" lon="-2.004795"><ele>320.6666666666667</ele><time>2026-05-03T15:37:47.783Z</time></trkpt><trkpt lat="53.6355233" lon="-2.0050567"><ele>323.0</ele><time>2026-05-03T15:37:48.783Z</time></trkpt><trkpt lat="53.6354667" lon="-2.0053167"><ele>322.6666666666667</ele><time>2026-05-03T15:37:49.783Z</time></trkpt><trkpt lat="53.63541" lon="-2.00558"><ele>322.3333333333333</ele><time>2026-05-03T15:37:50.782Z</time></trkpt><trkpt lat="53.6353567" lon="-2.005835"><ele>322.0</ele><time>2026-05-03T15:37:51.783Z</time></trkpt><trkpt lat="53.6353017" lon="-2.0060867"><ele>322.0</ele><time>2026-05-03T15:37:52.782Z</time></trkpt><trkpt lat="53.6352433" lon="-2.006325"><ele>322.0</ele><time>2026-05-03T15:37:53.784Z</time></trkpt><trkpt lat="53.63518" lon="-2.0065617"><ele>322.0</ele><time>2026-05-03T15:37:54.786Z</time></trkpt><trkpt lat="53.6351133" lon="-2.0067983"><ele>322.66666666666663</ele><time>2026-05-03T15:37:55.782Z</time></trkpt><trkpt lat="53.635045" lon="-2.0070383"><ele>323.3333333333333</ele><time>2026-05-03T15:37:56.783Z</time></trkpt><trkpt lat="53.6349767" lon="-2.0072683"><ele>324.0</ele><time>2026-05-03T15:37:57.782Z</time></trkpt><trkpt lat="53.6349067" lon="-2.0075"><ele>326.6666666666667</ele><time>2026-05-03T15:37:58.784Z</time></trkpt><trkpt lat="53.634835" lon="-2.0077267"><ele>329.33333333333337</ele><time>2026-05-03T15:37:59.784Z</time></trkpt><trkpt lat="53.6347617" lon="-2.0079483"><ele>332.0</ele><time>2026-05-03T15:38:00.784Z</time></trkpt><trkpt lat="53.6346783" lon="-2.0081667"><ele>330.33333333333337</ele><time>2026-05-03T15:38:01.783Z</time></trkpt><trkpt lat="53.6345883" lon="-2.0083933"><ele>328.6666666666667</ele><time>2026-05-03T15:38:02.783Z</time></trkpt><trkpt lat="53.6344917" lon="-2.0086267"><ele>327.0</ele><time>2026-05-03T15:38:03.783Z</time></trkpt><trkpt lat="53.6343933" lon="-2.0088483"><ele>327.0</ele><time>2026-05-03T15:38:04.784Z</time></trkpt><trkpt lat="53.6342933" lon="-2.0090683"><ele>327.0</ele><time>2026-05-03T15:38:05.783Z</time></trkpt><trkpt lat="53.6341983" lon="-2.009285"><ele>327.0</ele><time>2026-05-03T15:38:06.784Z</time></trkpt><trkpt lat="53.634105" lon="-2.0095"><ele>329.0</ele><time>2026-05-03T15:38:07.784Z</time></trkpt><trkpt lat="53.63402" lon="-2.00973"><ele>331.0</ele><time>2026-05-03T15:38:08.783Z</time></trkpt><trkpt lat="53.6339417" lon="-2.0099717"><ele>333.0</ele><time>2026-05-03T15:38:09.782Z</time></trkpt><trkpt lat="53.6338733" lon="-2.0102133"><ele>336.0</ele><time>2026-05-03T15:38:10.784Z</time></trkpt><trkpt lat="53.63381" lon="-2.010445"><ele>339.0</ele><time>2026-05-03T15:38:11.787Z</time></trkpt><trkpt lat="53.6337467" lon="-2.010675"><ele>342.0</ele><time>2026-05-03T15:38:12.783Z</time></trkpt><trkpt lat="53.63368" lon="-2.0109033"><ele>340.3333333333333</ele><time>2026-05-03T15:38:13.784Z</time></trkpt><trkpt lat="53.6336083" lon="-2.011135"><ele>338.66666666666663</ele><time>2026-05-03T15:38:14.782Z</time></trkpt><trkpt lat="53.6335367" lon="-2.0113617"><ele>337.0</ele><time>2026-05-03T15:38:15.784Z</time></trkpt><trkpt lat="53.6334667" lon="-2.0116"><ele>338.0</ele><time>2026-05-03T15:38:16.783Z</time></trkpt><trkpt lat="53.6333983" lon="-2.011845"><ele>339.0</ele><time>2026-05-03T15:38:17.786Z</time></trkpt><trkpt lat="53.6333383" lon="-2.0120967"><ele>340.0</ele><time>2026-05-03T15:38:18.783Z</time></trkpt><trkpt lat="53.6332867" lon="-2.0123633"><ele>342.0</ele><time>2026-05-03T15:38:19.783Z</time></trkpt><trkpt lat="53.6332417" lon="-2.012635"><ele>344.0</ele><time>2026-05-03T15:38:20.784Z</time></trkpt><trkpt lat="53.6331983" lon="-2.01291"><ele>346.0</ele><time>2026-05-03T15:38:21.784Z</time></trkpt><trkpt lat="53.6331667" lon="-2.0131833"><ele>346.66666666666663</ele><time>2026-05-03T15:38:22.786Z</time></trkpt><trkpt lat="53.63314" lon="-2.0134483"><ele>347.3333333333333</ele><time>2026-05-03T15:38:23.783Z</time></trkpt><trkpt lat="53.6331083" lon="-2.0137033"><ele>348.0</ele><time>2026-05-03T15:38:24.787Z</time></trkpt><trkpt lat="53.6330733" lon="-2.0139533"><ele>348.3333333333333</ele><time>2026-05-03T15:38:25.786Z</time></trkpt><trkpt lat="53.63303" lon="-2.0142083"><ele>348.66666666666663</ele><time>2026-05-03T15:38:26.783Z</time></trkpt><trkpt lat="53.6329767" lon="-2.0144717"><ele>349.0</ele><time>2026-05-03T15:38:27.784Z</time></trkpt><trkpt lat="53.63291" lon="-2.0147367"><ele>349.0</ele><time>2026-05-03T15:38:28.784Z</time></trkpt><trkpt lat="53.6328283" lon="-2.0149983"><ele>349.0</ele><time>2026-05-03T15:38:29.784Z</time></trkpt><trkpt lat="53.63274" lon="-2.0152567"><ele>349.0</ele><time>2026-05-03T15:38:30.784Z</time></trkpt><trkpt lat="53.6326433" lon="-2.0155183"><ele>349.0</ele><time>2026-05-03T15:38:31.785Z</time></trkpt><trkpt lat="53.6325383" lon="-2.0157717"><ele>349.0</ele><time>2026-05-03T15:38:32.783Z</time></trkpt><trkpt lat="53.6324283" lon="-2.0160217"><ele>349.0</ele><time>2026-05-03T15:38:33.783Z</time></trkpt><trkpt lat="53.632325" lon="-2.0162617"><ele>349.0</ele><time>2026-05-03T15:38:34.784Z</time></trkpt><trkpt lat="53.6322267" lon="-2.0164933"><ele>349.0</ele><time>2026-05-03T15:38:35.785Z</time></trkpt><trkpt lat="53.6321317" lon="-2.0167067"><ele>349.0</ele><time>2026-05-03T15:38:36.784Z</time></trkpt><trkpt lat="53.6320417" lon="-2.0168983"><ele>350.5</ele><time>2026-05-03T15:38:37.785Z</time></trkpt><trkpt lat="53.6319517" lon="-2.0170767"><ele>352.0</ele><time>2026-05-03T15:38:38.784Z</time></trkpt><trkpt lat="53.631865" lon="-2.0172533"><ele>353.5</ele><time>2026-05-03T15:38:39.784Z</time></trkpt><trkpt lat="53.6317783" lon="-2.0174283"><ele>355.0</ele><time>2026-05-03T15:38:40.784Z</time></trkpt><trkpt lat="53.6316883" lon="-2.0176"><ele>356.25</ele><time>2026-05-03T15:38:41.785Z</time></trkpt><trkpt lat="53.631595" lon="-2.0177633"><ele>357.5</ele><time>2026-05-03T15:38:42.785Z</time></trkpt><trkpt lat="53.6315017" lon="-2.01792"><ele>358.75</ele><time>2026-05-03T15:38:43.784Z</time></trkpt><trkpt lat="53.63141" lon="-2.018065"><ele>360.0</ele><time>2026-05-03T15:38:44.79Z</time></trkpt><trkpt lat="53.6313133" lon="-2.0182083"><ele>360.25</ele><time>2026-05-03T15:38:45.783Z</time></trkpt><trkpt lat="53.631215" lon="-2.0183583"><ele>360.5</ele><time>2026-05-03T15:38:46.783Z</time></trkpt><trkpt lat="53.6311117" lon="-2.0185083"><ele>360.75</ele><time>2026-05-03T15:38:47.784Z</time></trkpt><trkpt lat="53.6310017" lon="-2.01866"><ele>361.0</ele><time>2026-05-03T15:38:48.783Z</time></trkpt><trkpt lat="53.6308867" lon="-2.0188083"><ele>362.0</ele><time>2026-05-03T15:38:49.783Z</time></trkpt><trkpt lat="53.630765" lon="-2.0189533"><ele>363.0</ele><time>2026-05-03T15:38:50.783Z</time></trkpt><trkpt lat="53.6306317" lon="-2.0190933"><ele>364.0</ele><time>2026-05-03T15:38:51.784Z</time></trkpt><trkpt lat="53.630495" lon="-2.019235"><ele>364.0</ele><time>2026-05-03T15:38:52.783Z</time></trkpt><trkpt lat="53.63035" lon="-2.0193683"><ele>364.0</ele><time>2026-05-03T15:38:53.783Z</time></trkpt><trkpt lat="53.6302017" lon="-2.0194983"><ele>364.0</ele><time>2026-05-03T15:38:54.783Z</time></trkpt><trkpt lat="53.6300533" lon="-2.019625"><ele>365.3333333333333</ele><time>2026-05-03T15:38:55.782Z</time></trkpt><trkpt lat="53.629895" lon="-2.019745"><ele>366.6666666666667</ele><time>2026-05-03T15:38:56.783Z</time></trkpt><trkpt lat="53.62974" lon="-2.0198617"><ele>368.0</ele><time>2026-05-03T15:38:57.782Z</time></trkpt><trkpt lat="53.6295883" lon="-2.01999"><ele>368.0</ele><time>2026-05-03T15:38:58.783Z</time></trkpt><trkpt lat="53.62943" lon="-2.02013"><ele>368.0</ele><time>2026-05-03T15:38:59.782Z</time></trkpt><trkpt lat="53.6292667" lon="-2.020245"><ele>368.0</ele><time>2026-05-03T15:39:00.783Z</time></trkpt><trkpt lat="53.6291017" lon="-2.0203583"><ele>368.0</ele><time>2026-05-03T15:39:01.783Z</time></trkpt><trkpt lat="53.628945" lon="-2.0204867"><ele>368.0</ele><time>2026-05-03T15:39:02.784Z</time></trkpt><trkpt lat="53.62879" lon="-2.0206133"><ele>368.0</ele><time>2026-05-03T15:39:03.783Z</time></trkpt><trkpt lat="53.6286417" lon="-2.020745"><ele>369.33333333333337</ele><time>2026-05-03T15:39:04.783Z</time></trkpt><trkpt lat="53.6285" lon="-2.0208933"><ele>370.6666666666667</ele><time>2026-05-03T15:39:05.783Z</time></trkpt><trkpt lat="53.6283617" lon="-2.0210517"><ele>372.0</ele><time>2026-05-03T15:39:06.783Z</time></trkpt><trkpt lat="53.628225" lon="-2.0212267"><ele>372.0</ele><time>2026-05-03T15:39:07.782Z</time></trkpt><trkpt lat="53.62809" lon="-2.0214183"><ele>372.0</ele><time>2026-05-03T15:39:08.782Z</time></trkpt><trkpt lat="53.6279583" lon="-2.02162"><ele>372.0</ele><time>2026-05-03T15:39:09.785Z</time></trkpt><trkpt lat="53.6278317" lon="-2.02184"><ele>374.0</ele><time>2026-05-03T15:39:10.783Z</time></trkpt><trkpt lat="53.62771" lon="-2.02208"><ele>376.0</ele><time>2026-05-03T15:39:11.783Z</time></trkpt><trkpt lat="53.6275917" lon="-2.0223283"><ele>378.0</ele><time>2026-05-03T15:39:12.786Z</time></trkpt><trkpt lat="53.6274733" lon="-2.02258"><ele>379.0</ele><time>2026-05-03T15:39:13.783Z</time></trkpt><trkpt lat="53.6273583" lon="-2.0228333"><ele>380.0</ele><time>2026-05-03T15:39:14.787Z</time></trkpt><trkpt lat="53.6272417" lon="-2.023085"><ele>381.0</ele><time>2026-05-03T15:39:15.782Z</time></trkpt><trkpt lat="53.6271267" lon="-2.0233283"><ele>381.6666666666667</ele><time>2026-05-03T15:39:16.787Z</time></trkpt><trkpt lat="53.6270183" lon="-2.0235683"><ele>382.33333333333337</ele><time>2026-05-03T15:39:17.783Z</time></trkpt><trkpt lat="53.626905" lon="-2.023805"><ele>383.0</ele><time>2026-05-03T15:39:18.782Z</time></trkpt><trkpt lat="53.62679" lon="-2.0240467"><ele>386.6666666666667</ele><time>2026-05-03T15:39:19.784Z</time></trkpt><trkpt lat="53.62667" lon="-2.0242833"><ele>390.33333333333337</ele><time>2026-05-03T15:39:20.783Z</time></trkpt><trkpt lat="53.626545" lon="-2.0245083"><ele>394.0</ele><time>2026-05-03T15:39:21.783Z</time></trkpt><trkpt lat="53.6264133" lon="-2.024715"><ele>394.0</ele><time>2026-05-03T15:39:22.783Z</time></trkpt><trkpt lat="53.6262767" lon="-2.0249033"><ele>394.0</ele><time>2026-05-03T15:39:23.783Z</time></trkpt><trkpt lat="53.6261333" lon="-2.025075"><ele>394.0</ele><time>2026-05-03T15:39:24.782Z</time></trkpt><trkpt lat="53.6259883" lon="-2.0252333"><ele>396.33333333333337</ele><time>2026-05-03T15:39:25.783Z</time></trkpt><trkpt lat="53.62584" lon="-2.0253783"><ele>398.66666666666663</ele><time>2026-05-03T15:39:26.783Z</time></trkpt><trkpt lat="53.62569" lon="-2.0255167"><ele>401.0</ele><time>2026-05-03T15:39:27.783Z</time></trkpt><trkpt lat="53.6255367" lon="-2.025645"><ele>401.0</ele><time>2026-05-03T15:39:28.783Z</time></trkpt><trkpt lat="53.6253767" lon="-2.0257617"><ele>401.0</ele><time>2026-05-03T15:39:29.783Z</time></trkpt><trkpt lat="53.6252167" lon="-2.0258883"><ele>401.0</ele><time>2026-05-03T15:39:30.788Z</time></trkpt><trkpt lat="53.625055" lon="-2.0260183"><ele>404.3333333333333</ele><time>2026-05-03T15:39:31.783Z</time></trkpt><trkpt lat="53.6248917" lon="-2.0261533"><ele>407.66666666666663</ele><time>2026-05-03T15:39:32.784Z</time></trkpt><trkpt lat="53.62473" lon="-2.0262933"><ele>411.0</ele><time>2026-05-03T15:39:33.784Z</time></trkpt><trkpt lat="53.624565" lon="-2.026435"><ele>413.0</ele><time>2026-05-03T15:39:34.784Z</time></trkpt><trkpt lat="53.6244" lon="-2.0265833"><ele>415.0</ele><time>2026-05-03T15:39:35.785Z</time></trkpt><trkpt lat="53.6242317" lon="-2.0267367"><ele>417.0</ele><time>2026-05-03T15:39:36.783Z</time></trkpt><trkpt lat="53.624065" lon="-2.0269017"><ele>417.0</ele><time>2026-05-03T15:39:37.783Z</time></trkpt><trkpt lat="53.6239017" lon="-2.0270767"><ele>417.0</ele><time>2026-05-03T15:39:38.783Z</time></trkpt><trkpt lat="53.62374" lon="-2.0272583"><ele>417.0</ele><time>2026-05-03T15:39:39.784Z</time></trkpt><trkpt lat="53.6235817" lon="-2.0274433"><ele>417.66666666666663</ele><time>2026-05-03T15:39:40.784Z</time></trkpt><trkpt lat="53.623425" lon="-2.0276283"><ele>418.3333333333333</ele><time>2026-05-03T15:39:41.784Z</time></trkpt><trkpt lat="53.6232667" lon="-2.0278083"><ele>419.0</ele><time>2026-05-03T15:39:42.783Z</time></trkpt><trkpt lat="53.62311" lon="-2.027985"><ele>419.0</ele><time>2026-05-03T15:39:43.783Z</time></trkpt><trkpt lat="53.6229533" lon="-2.0281567"><ele>419.0</ele><time>2026-05-03T15:39:44.786Z</time></trkpt><trkpt lat="53.622795" lon="-2.0283267"><ele>419.0</ele><time>2026-05-03T15:39:45.783Z</time></trkpt><trkpt lat="53.6226383" lon="-2.0284917"><ele>419.66666666666663</ele><time>2026-05-03T15:39:46.786Z</time></trkpt><trkpt lat="53.6224833" lon="-2.0286383"><ele>420.33333333333337</ele><time>2026-05-03T15:39:47.783Z</time></trkpt><trkpt lat="53.622335" lon="-2.0287717"><ele>421.0</ele><time>2026-05-03T15:39:48.782Z</time></trkpt><trkpt lat="53.6221883" lon="-2.0288867"><ele>421.0</ele><time>2026-05-03T15:39:49.786Z</time></trkpt><trkpt lat="53.6220417" lon="-2.028995"><ele>421.0</ele><time>2026-05-03T15:39:50.783Z</time></trkpt><trkpt lat="53.6218883" lon="-2.029105"><ele>421.0</ele><time>2026-05-03T15:39:51.782Z</time></trkpt><trkpt lat="53.6217333" lon="-2.029215"><ele>420.6666666666667</ele><time>2026-05-03T15:39:52.782Z</time></trkpt><trkpt lat="53.6215767" lon="-2.0293233"><ele>420.33333333333337</ele><time>2026-05-03T15:39:53.784Z</time></trkpt><trkpt lat="53.6214167" lon="-2.0294317"><ele>420.0</ele><time>2026-05-03T15:39:54.783Z</time></trkpt><trkpt lat="53.6212567" lon="-2.0295367"><ele>420.0</ele><time>2026-05-03T15:39:55.783Z</time></trkpt><trkpt lat="53.6211017" lon="-2.0296367"><ele>420.0</ele><time>2026-05-03T15:39:56.783Z</time></trkpt><trkpt lat="53.620945" lon="-2.0297167"><ele>420.0</ele><time>2026-05-03T15:39:57.782Z</time></trkpt><trkpt lat="53.6207867" lon="-2.02978"><ele>420.0</ele><time>2026-05-03T15:39:58.782Z</time></trkpt><trkpt lat="53.6206217" lon="-2.0298267"><ele>420.0</ele><time>2026-05-03T15:39:59.782Z</time></trkpt><trkpt lat="53.620455" lon="-2.0298683"><ele>420.0</ele><time>2026-05-03T15:40:00.787Z</time></trkpt><trkpt lat="53.6202883" lon="-2.0298933"><ele>419.66666666666663</ele><time>2026-05-03T15:40:01.782Z</time></trkpt><trkpt lat="53.620125" lon="-2.0298983"><ele>419.3333333333333</ele><time>2026-05-03T15:40:02.783Z</time></trkpt><trkpt lat="53.619965" lon="-2.0298917"><ele>419.0</ele><time>2026-05-03T15:40:03.786Z</time></trkpt><trkpt lat="53.619805" lon="-2.0298867"><ele>419.0</ele><time>2026-05-03T15:40:04.785Z</time></trkpt><trkpt lat="53.61964" lon="-2.0298867"><ele>419.0</ele><time>2026-05-03T15:40:05.783Z</time></trkpt><trkpt lat="53.619475" lon="-2.029885"><ele>419.0</ele><time>2026-05-03T15:40:06.786Z</time></trkpt><trkpt lat="53.6193083" lon="-2.02988"><ele>419.3333333333333</ele><time>2026-05-03T15:40:07.783Z</time></trkpt><trkpt lat="53.6191433" lon="-2.0298767"><ele>419.66666666666663</ele><time>2026-05-03T15:40:08.782Z</time></trkpt><trkpt lat="53.61898" lon="-2.029875"><ele>420.0</ele><time>2026-05-03T15:40:09.783Z</time></trkpt><trkpt lat="53.6188217" lon="-2.0298767"><ele>420.0</ele><time>2026-05-03T15:40:10.782Z</time></trkpt><trkpt lat="53.618675" lon="-2.0298817"><ele>420.0</ele><time>2026-05-03T15:40:11.79Z</time></trkpt><trkpt lat="53.6185317" lon="-2.02989"><ele>420.0</ele><time>2026-05-03T15:40:12.784Z</time></trkpt><trkpt lat="53.618385" lon="-2.029905"><ele>420.0</ele><time>2026-05-03T15:40:13.784Z</time></trkpt><trkpt lat="53.6182283" lon="-2.0299267"><ele>419.0</ele><time>2026-05-03T15:40:14.786Z</time></trkpt><trkpt lat="53.6180683" lon="-2.0299583"><ele>418.0</ele><time>2026-05-03T15:40:15.783Z</time></trkpt><trkpt lat="53.6179117" lon="-2.03"><ele>417.0</ele><time>2026-05-03T15:40:16.783Z</time></trkpt><trkpt lat="53.6177567" lon="-2.0300533"><ele>414.0</ele><time>2026-05-03T15:40:17.783Z</time></trkpt><trkpt lat="53.617605" lon="-2.03012"><ele>411.0</ele><time>2026-05-03T15:40:18.784Z</time></trkpt><trkpt lat="53.6174617" lon="-2.0302083"><ele>408.0</ele><time>2026-05-03T15:40:19.782Z</time></trkpt><trkpt lat="53.61732" lon="-2.030315"><ele>408.0</ele><time>2026-05-03T15:40:20.783Z</time></trkpt><trkpt lat="53.61719" lon="-2.0304433"><ele>408.0</ele><time>2026-05-03T15:40:21.782Z</time></trkpt><trkpt lat="53.61707" lon="-2.0306017"><ele>408.0</ele><time>2026-05-03T15:40:22.786Z</time></trkpt><trkpt lat="53.6169533" lon="-2.0307783"><ele>408.0</ele><time>2026-05-03T15:40:23.782Z</time></trkpt><trkpt lat="53.6168467" lon="-2.03096"><ele>408.0</ele><time>2026-05-03T15:40:24.782Z</time></trkpt><trkpt lat="53.616745" lon="-2.0311317"><ele>408.0</ele><time>2026-05-03T15:40:25.783Z</time></trkpt><trkpt lat="53.616645" lon="-2.0312917"><ele>408.0</ele><time>2026-05-03T15:40:26.784Z</time></trkpt><trkpt lat="53.6165367" lon="-2.031445"><ele>408.0</ele><time>2026-05-03T15:40:27.782Z</time></trkpt><trkpt lat="53.6164183" lon="-2.0315867"><ele>408.0</ele><time>2026-05-03T15:40:28.782Z</time></trkpt><trkpt lat="53.6162933" lon="-2.0317233"><ele>408.0</ele><time>2026-05-03T15:40:29.783Z</time></trkpt><trkpt lat="53.61617" lon="-2.0318467"><ele>408.0</ele><time>2026-05-03T15:40:30.782Z</time></trkpt><trkpt lat="53.61605" lon="-2.0319633"><ele>407.5</ele><time>2026-05-03T15:40:31.784Z</time></trkpt><trkpt lat="53.615925" lon="-2.032075"><ele>407.0</ele><time>2026-05-03T15:40:32.782Z</time></trkpt><trkpt lat="53.61579" lon="-2.03218"><ele>406.5</ele><time>2026-05-03T15:40:33.783Z</time></trkpt><trkpt lat="53.61565" lon="-2.0322783"><ele>406.0</ele><time>2026-05-03T15:40:34.783Z</time></trkpt><trkpt lat="53.6155033" lon="-2.0323733"><ele>406.0</ele><time>2026-05-03T15:40:35.783Z</time></trkpt><trkpt lat="53.6153567" lon="-2.0324583"><ele>406.0</ele><time>2026-05-03T15:40:36.783Z</time></trkpt><trkpt lat="53.6152183" lon="-2.0325317"><ele>406.0</ele><time>2026-05-03T15:40:37.783Z</time></trkpt><trkpt lat="53.6150817" lon="-2.0325983"><ele>406.0</ele><time>2026-05-03T15:40:38.783Z</time></trkpt><trkpt lat="53.61494" lon="-2.03266"><ele>404.75</ele><time>2026-05-03T15:40:39.783Z</time></trkpt><trkpt lat="53.6147933" lon="-2.032715"><ele>403.5</ele><time>2026-05-03T15:40:40.783Z</time></trkpt><trkpt lat="53.614645" lon="-2.0327567"><ele>402.25</ele><time>2026-05-03T15:40:41.783Z</time></trkpt><trkpt lat="53.6145033" lon="-2.0327883"><ele>401.0</ele><time>2026-05-03T15:40:42.787Z</time></trkpt><trkpt lat="53.6143667" lon="-2.0328117"><ele>401.0</ele><time>2026-05-03T15:40:43.782Z</time></trkpt><trkpt lat="53.6142317" lon="-2.0328267"><ele>401.0</ele><time>2026-05-03T15:40:44.787Z</time></trkpt><trkpt lat="53.61409" lon="-2.0328383"><ele>401.0</ele><time>2026-05-03T15:40:45.786Z</time></trkpt><trkpt lat="53.6139467" lon="-2.0328467"><ele>401.0</ele><time>2026-05-03T15:40:46.783Z</time></trkpt><trkpt lat="53.6138" lon="-2.0328433"><ele>401.3333333333333</ele><time>2026-05-03T15:40:47.782Z</time></trkpt><trkpt lat="53.61365" lon="-2.032835"><ele>401.66666666666663</ele><time>2026-05-03T15:40:48.783Z</time></trkpt><trkpt lat="53.6134967" lon="-2.0328267"><ele>402.0</ele><time>2026-05-03T15:40:49.785Z</time></trkpt><trkpt lat="53.613345" lon="-2.0328117"><ele>402.0</ele><time>2026-05-03T15:40:50.782Z</time></trkpt><trkpt lat="53.61319" lon="-2.032795"><ele>402.0</ele><time>2026-05-03T15:40:51.783Z</time></trkpt><trkpt lat="53.6130383" lon="-2.0327767"><ele>402.0</ele><time>2026-05-03T15:40:52.783Z</time></trkpt><trkpt lat="53.6128933" lon="-2.03276"><ele>401.25</ele><time>2026-05-03T15:40:53.784Z</time></trkpt><trkpt lat="53.612755" lon="-2.0327467"><ele>400.5</ele><time>2026-05-03T15:40:54.784Z</time></trkpt><trkpt lat="53.6126167" lon="-2.0327383"><ele>399.75</ele><time>2026-05-03T15:40:55.784Z</time></trkpt><trkpt lat="53.6124817" lon="-2.032735"><ele>399.0</ele><time>2026-05-03T15:40:56.782Z</time></trkpt><trkpt lat="53.6123483" lon="-2.03274"><ele>399.0</ele><time>2026-05-03T15:40:57.783Z</time></trkpt><trkpt lat="53.6122167" lon="-2.0327483"><ele>399.0</ele><time>2026-05-03T15:40:58.783Z</time></trkpt><trkpt lat="53.6120867" lon="-2.0327467"><ele>399.0</ele><time>2026-05-03T15:40:59.788Z</time></trkpt><trkpt lat="53.6119583" lon="-2.0327233"><ele>399.0</ele><time>2026-05-03T15:41:00.784Z</time></trkpt><trkpt lat="53.6118317" lon="-2.0326767"><ele>398.25</ele><time>2026-05-03T15:41:01.785Z</time></trkpt><trkpt lat="53.6117083" lon="-2.0326083"><ele>397.5</ele><time>2026-05-03T15:41:02.784Z</time></trkpt><trkpt lat="53.6115933" lon="-2.032505"><ele>396.75</ele><time>2026-05-03T15:41:03.783Z</time></trkpt><trkpt lat="53.61148" lon="-2.0323583"><ele>396.0</ele><time>2026-05-03T15:41:04.781Z</time></trkpt><trkpt lat="53.61137" lon="-2.032185"><ele>396.0</ele><time>2026-05-03T15:41:05.783Z</time></trkpt><trkpt lat="53.61126" lon="-2.0320083"><ele>396.0</ele><time>2026-05-03T15:41:06.783Z</time></trkpt><trkpt lat="53.6111483" lon="-2.0318367"><ele>396.0</ele><time>2026-05-03T15:41:07.784Z</time></trkpt><trkpt lat="53.6110333" lon="-2.0316683"><ele>392.33333333333337</ele><time>2026-05-03T15:41:08.786Z</time></trkpt><trkpt lat="53.6109083" lon="-2.0315067"><ele>388.6666666666667</ele><time>2026-05-03T15:41:09.782Z</time></trkpt><trkpt lat="53.6107767" lon="-2.0313717"><ele>385.0</ele><time>2026-05-03T15:41:10.783Z</time></trkpt><trkpt lat="53.61063" lon="-2.0312717"><ele>385.0</ele><time>2026-05-03T15:41:11.782Z</time></trkpt><trkpt lat="53.610475" lon="-2.0312183"><ele>385.0</ele><time>2026-05-03T15:41:12.784Z</time></trkpt><trkpt lat="53.610315" lon="-2.0312183"><ele>385.0</ele><time>2026-05-03T15:41:13.783Z</time></trkpt><trkpt lat="53.61015" lon="-2.0312717"><ele>385.6666666666667</ele><time>2026-05-03T15:41:14.786Z</time></trkpt><trkpt lat="53.609975" lon="-2.0313683"><ele>386.33333333333337</ele><time>2026-05-03T15:41:15.783Z</time></trkpt><trkpt lat="53.6097867" lon="-2.0314817"><ele>387.0</ele><time>2026-05-03T15:41:16.784Z</time></trkpt><trkpt lat="53.6095833" lon="-2.0315983"><ele>384.0</ele><time>2026-05-03T15:41:17.782Z</time></trkpt><trkpt lat="53.60936" lon="-2.031725"><ele>381.0</ele><time>2026-05-03T15:41:18.783Z</time></trkpt><trkpt lat="53.60913" lon="-2.03186"><ele>381.0</ele><time>2026-05-03T15:41:19.783Z</time></trkpt><trkpt lat="53.6088867" lon="-2.03201"><ele>381.0</ele><time>2026-05-03T15:41:20.783Z</time></trkpt><trkpt lat="53.6086333" lon="-2.0321633"><ele>382.0</ele><time>2026-05-03T15:41:21.782Z</time></trkpt><trkpt lat="53.6083783" lon="-2.0323133"><ele>383.0</ele><time>2026-05-03T15:41:22.782Z</time></trkpt><trkpt lat="53.6081283" lon="-2.0324483"><ele>383.0</ele><time>2026-05-03T15:41:23.783Z</time></trkpt><trkpt lat="53.607895" lon="-2.0325717"><ele>383.0</ele><time>2026-05-03T15:41:24.783Z</time></trkpt><trkpt lat="53.6076817" lon="-2.0327017"><ele>383.0</ele><time>2026-05-03T15:41:25.784Z</time></trkpt><trkpt lat="53.6074817" lon="-2.0328267"><ele>383.0</ele><time>2026-05-03T15:41:26.787Z</time></trkpt><trkpt lat="53.6072933" lon="-2.03294"><ele>383.0</ele><time>2026-05-03T15:41:27.784Z</time></trkpt><trkpt lat="53.6071133" lon="-2.03305"><ele>382.0</ele><time>2026-05-03T15:41:28.783Z</time></trkpt><trkpt lat="53.6069383" lon="-2.03316"><ele>381.0</ele><time>2026-05-03T15:41:29.784Z</time></trkpt><trkpt lat="53.606765" lon="-2.033265"><ele>380.0</ele><time>2026-05-03T15:41:30.782Z</time></trkpt><trkpt lat="53.6065917" lon="-2.0333717"><ele>379.0</ele><time>2026-05-03T15:41:31.782Z</time></trkpt><trkpt lat="53.6064167" lon="-2.03348"><ele>378.0</ele><time>2026-05-03T15:41:32.787Z</time></trkpt><trkpt lat="53.6062433" lon="-2.0335867"><ele>377.0</ele><time>2026-05-03T15:41:33.782Z</time></trkpt><trkpt lat="53.6060683" lon="-2.0336933"><ele>376.6666666666667</ele><time>2026-05-03T15:41:34.783Z</time></trkpt><trkpt lat="53.6058933" lon="-2.0338"><ele>376.3333333333333</ele><time>2026-05-03T15:41:35.785Z</time></trkpt><trkpt lat="53.6057183" lon="-2.033905"><ele>376.0</ele><time>2026-05-03T15:41:36.785Z</time></trkpt><trkpt lat="53.605545" lon="-2.0340067"><ele>376.0</ele><time>2026-05-03T15:41:37.781Z</time></trkpt><trkpt lat="53.60537" lon="-2.0341033"><ele>376.0</ele><time>2026-05-03T15:41:38.782Z</time></trkpt><trkpt lat="53.6051933" lon="-2.0342083"><ele>376.0</ele><time>2026-05-03T15:41:39.782Z</time></trkpt><trkpt lat="53.6050167" lon="-2.0343183"><ele>375.0</ele><time>2026-05-03T15:41:40.783Z</time></trkpt><trkpt lat="53.6048433" lon="-2.0344283"><ele>374.0</ele><time>2026-05-03T15:41:41.782Z</time></trkpt><trkpt lat="53.604665" lon="-2.0345333"><ele>373.0</ele><time>2026-05-03T15:41:42.788Z</time></trkpt><trkpt lat="53.6044867" lon="-2.034635"><ele>371.3333333333333</ele><time>2026-05-03T15:41:43.782Z</time></trkpt><trkpt lat="53.60431" lon="-2.0347383"><ele>369.6666666666667</ele><time>2026-05-03T15:41:44.782Z</time></trkpt><trkpt lat="53.6041317" lon="-2.0348467"><ele>368.0</ele><time>2026-05-03T15:41:45.784Z</time></trkpt><trkpt lat="53.6039517" lon="-2.03496"><ele>367.33333333333337</ele><time>2026-05-03T15:41:46.781Z</time></trkpt><trkpt lat="53.6037733" lon="-2.0350783"><ele>366.6666666666667</ele><time>2026-05-03T15:41:47.783Z</time></trkpt><trkpt lat="53.6035983" lon="-2.0352"><ele>366.0</ele><time>2026-05-03T15:41:48.783Z</time></trkpt><trkpt lat="53.6034283" lon="-2.0353217"><ele>366.0</ele><time>2026-05-03T15:41:49.783Z</time></trkpt><trkpt lat="53.6032583" lon="-2.03544"><ele>366.0</ele><time>2026-05-03T15:41:50.783Z</time></trkpt><trkpt lat="53.6030917" lon="-2.0355533"><ele>366.0</ele><time>2026-05-03T15:41:51.783Z</time></trkpt><trkpt lat="53.6029333" lon="-2.0356633"><ele>364.6666666666667</ele><time>2026-05-03T15:41:52.782Z</time></trkpt><trkpt lat="53.6027817" lon="-2.0357667"><ele>363.33333333333337</ele><time>2026-05-03T15:41:53.783Z</time></trkpt><trkpt lat="53.60263" lon="-2.0358567"><ele>362.0</ele><time>2026-05-03T15:41:54.786Z</time></trkpt><trkpt lat="53.6024817" lon="-2.0359383"><ele>361.75</ele><time>2026-05-03T15:41:55.783Z</time></trkpt><trkpt lat="53.6023383" lon="-2.0360167"><ele>361.5</ele><time>2026-05-03T15:41:56.786Z</time></trkpt><trkpt lat="53.6021967" lon="-2.03609"><ele>361.25</ele><time>2026-05-03T15:41:57.783Z</time></trkpt><trkpt lat="53.6020567" lon="-2.03616"><ele>361.0</ele><time>2026-05-03T15:41:58.784Z</time></trkpt><trkpt lat="53.6019183" lon="-2.0362283"><ele>360.0</ele><time>2026-05-03T15:41:59.783Z</time></trkpt><trkpt lat="53.60178" lon="-2.036295"><ele>359.0</ele><time>2026-05-03T15:42:00.783Z</time></trkpt><trkpt lat="53.601635" lon="-2.03636"><ele>358.0</ele><time>2026-05-03T15:42:01.781Z</time></trkpt><trkpt lat="53.6014867" lon="-2.0364283"><ele>357.0</ele><time>2026-05-03T15:42:02.783Z</time></trkpt><trkpt lat="53.60134" lon="-2.0364967"><ele>357.0</ele><time>2026-05-03T15:42:03.783Z</time></trkpt><trkpt lat="53.6011933" lon="-2.03657"><ele>357.0</ele><time>2026-05-03T15:42:04.783Z</time></trkpt><trkpt lat="53.6010483" lon="-2.0366417"><ele>357.0</ele><time>2026-05-03T15:42:05.783Z</time></trkpt><trkpt lat="53.600905" lon="-2.0367067"><ele>354.5</ele><time>2026-05-03T15:42:06.782Z</time></trkpt><trkpt lat="53.600765" lon="-2.036765"><ele>352.0</ele><time>2026-05-03T15:42:07.783Z</time></trkpt><trkpt lat="53.6006233" lon="-2.0368283"><ele>349.5</ele><time>2026-05-03T15:42:08.783Z</time></trkpt><trkpt lat="53.600475" lon="-2.0368833"><ele>347.0</ele><time>2026-05-03T15:42:09.783Z</time></trkpt><trkpt lat="53.600325" lon="-2.0369333"><ele>345.6666666666667</ele><time>2026-05-03T15:42:10.783Z</time></trkpt><trkpt lat="53.60017" lon="-2.0369717"><ele>344.3333333333333</ele><time>2026-05-03T15:42:11.783Z</time></trkpt><trkpt lat="53.6000117" lon="-2.0370033"><ele>343.0</ele><time>2026-05-03T15:42:12.782Z</time></trkpt><trkpt lat="53.5998517" lon="-2.0370317"><ele>343.0</ele><time>2026-05-03T15:42:13.782Z</time></trkpt><trkpt lat="53.5996967" lon="-2.0370583"><ele>343.0</ele><time>2026-05-03T15:42:14.783Z</time></trkpt><trkpt lat="53.5995433" lon="-2.03708"><ele>343.0</ele><time>2026-05-03T15:42:15.783Z</time></trkpt><trkpt lat="53.5993883" lon="-2.0371"><ele>341.0</ele><time>2026-05-03T15:42:16.781Z</time></trkpt><trkpt lat="53.59923" lon="-2.03712"><ele>339.0</ele><time>2026-05-03T15:42:17.783Z</time></trkpt><trkpt lat="53.5990767" lon="-2.0371467"><ele>337.0</ele><time>2026-05-03T15:42:18.782Z</time></trkpt><trkpt lat="53.59892" lon="-2.0371733"><ele>337.0</ele><time>2026-05-03T15:42:19.782Z</time></trkpt><trkpt lat="53.5987633" lon="-2.0372067"><ele>337.0</ele><time>2026-05-03T15:42:20.782Z</time></trkpt><trkpt lat="53.598605" lon="-2.0372367"><ele>337.0</ele><time>2026-05-03T15:42:21.783Z</time></trkpt><trkpt lat="53.5984433" lon="-2.0372683"><ele>334.66666666666663</ele><time>2026-05-03T15:42:22.783Z</time></trkpt><trkpt lat="53.5982767" lon="-2.037295"><ele>332.3333333333333</ele><time>2026-05-03T15:42:23.783Z</time></trkpt><trkpt lat="53.5981017" lon="-2.03733"><ele>330.0</ele><time>2026-05-03T15:42:24.783Z</time></trkpt><trkpt lat="53.5979233" lon="-2.0373617"><ele>328.0</ele><time>2026-05-03T15:42:25.782Z</time></trkpt><trkpt lat="53.59774" lon="-2.0373883"><ele>326.0</ele><time>2026-05-03T15:42:26.785Z</time></trkpt><trkpt lat="53.597555" lon="-2.0374133"><ele>324.0</ele><time>2026-05-03T15:42:27.783Z</time></trkpt><trkpt lat="53.5973733" lon="-2.0374433"><ele>321.6666666666667</ele><time>2026-05-03T15:42:28.782Z</time></trkpt><trkpt lat="53.5971917" lon="-2.03747"><ele>319.33333333333337</ele><time>2026-05-03T15:42:29.783Z</time></trkpt><trkpt lat="53.597015" lon="-2.0374933"><ele>317.0</ele><time>2026-05-03T15:42:30.782Z</time></trkpt><trkpt lat="53.59684" lon="-2.037515"><ele>315.0</ele><time>2026-05-03T15:42:31.782Z</time></trkpt><trkpt lat="53.5966683" lon="-2.03753"><ele>313.0</ele><time>2026-05-03T15:42:32.785Z</time></trkpt><trkpt lat="53.5965033" lon="-2.0375367"><ele>311.0</ele><time>2026-05-03T15:42:33.782Z</time></trkpt><trkpt lat="53.596345" lon="-2.03754"><ele>311.0</ele><time>2026-05-03T15:42:34.783Z</time></trkpt><trkpt lat="53.59619" lon="-2.0375417"><ele>311.0</ele><time>2026-05-03T15:42:35.786Z</time></trkpt><trkpt lat="53.5960367" lon="-2.0375417"><ele>311.0</ele><time>2026-05-03T15:42:36.782Z</time></trkpt><trkpt lat="53.595885" lon="-2.0375383"><ele>309.0</ele><time>2026-05-03T15:42:37.783Z</time></trkpt><trkpt lat="53.5957267" lon="-2.0375367"><ele>307.0</ele><time>2026-05-03T15:42:38.783Z</time></trkpt><trkpt lat="53.595565" lon="-2.0375417"><ele>305.0</ele><time>2026-05-03T15:42:39.782Z</time></trkpt><trkpt lat="53.5953983" lon="-2.0375583"><ele>303.33333333333337</ele><time>2026-05-03T15:42:40.782Z</time></trkpt><trkpt lat="53.59523" lon="-2.0375933"><ele>301.6666666666667</ele><time>2026-05-03T15:42:41.782Z</time></trkpt><trkpt lat="53.5950733" lon="-2.0376483"><ele>300.0</ele><time>2026-05-03T15:42:42.786Z</time></trkpt><trkpt lat="53.5949183" lon="-2.0377167"><ele>300.0</ele><time>2026-05-03T15:42:43.783Z</time></trkpt><trkpt lat="53.5947733" lon="-2.0377933"><ele>300.0</ele><time>2026-05-03T15:42:44.783Z</time></trkpt><trkpt lat="53.5946367" lon="-2.037875"><ele>300.0</ele><time>2026-05-03T15:42:45.783Z</time></trkpt><trkpt lat="53.5945083" lon="-2.0379633"><ele>300.0</ele><time>2026-05-03T15:42:46.783Z</time></trkpt><trkpt lat="53.5943917" lon="-2.038055"><ele>299.0</ele><time>2026-05-03T15:42:47.782Z</time></trkpt><trkpt lat="53.594285" lon="-2.038145"><ele>298.0</ele><time>2026-05-03T15:42:48.782Z</time></trkpt><trkpt lat="53.5941817" lon="-2.0382267"><ele>297.0</ele><time>2026-05-03T15:42:49.783Z</time></trkpt><trkpt lat="53.59409" lon="-2.03831"><ele>296.0</ele><time>2026-05-03T15:42:50.783Z</time></trkpt><trkpt lat="53.5939983" lon="-2.03839"><ele>295.0</ele><time>2026-05-03T15:42:51.782Z</time></trkpt><trkpt lat="53.5939" lon="-2.03847"><ele>293.8</ele><time>2026-05-03T15:42:52.785Z</time></trkpt><trkpt lat="53.5938" lon="-2.0385483"><ele>292.6</ele><time>2026-05-03T15:42:53.782Z</time></trkpt><trkpt lat="53.5937033" lon="-2.0386333"><ele>291.4</ele><time>2026-05-03T15:42:54.783Z</time></trkpt><trkpt lat="53.593605" lon="-2.0387183"><ele>290.2</ele><time>2026-05-03T15:42:55.783Z</time></trkpt><trkpt lat="53.5935083" lon="-2.038805"><ele>289.0</ele><time>2026-05-03T15:42:56.782Z</time></trkpt><trkpt lat="53.5934083" lon="-2.0388983"><ele>288.0</ele><time>2026-05-03T15:42:57.783Z</time></trkpt><trkpt lat="53.5933117" lon="-2.0389967"><ele>287.0</ele><time>2026-05-03T15:42:58.782Z</time></trkpt><trkpt lat="53.5932117" lon="-2.0390967"><ele>286.0</ele><time>2026-05-03T15:42:59.783Z</time></trkpt><trkpt lat="53.59311" lon="-2.0391983"><ele>285.0</ele><time>2026-05-03T15:43:00.783Z</time></trkpt><trkpt lat="53.59301" lon="-2.0393033"><ele>284.25</ele><time>2026-05-03T15:43:01.782Z</time></trkpt><trkpt lat="53.5929117" lon="-2.039405"><ele>283.5</ele><time>2026-05-03T15:43:02.787Z</time></trkpt><trkpt lat="53.592815" lon="-2.039505"><ele>282.75</ele><time>2026-05-03T15:43:03.786Z</time></trkpt><trkpt lat="53.5927167" lon="-2.0395967"><ele>282.0</ele><time>2026-05-03T15:43:04.783Z</time></trkpt><trkpt lat="53.5926183" lon="-2.0396767"><ele>281.3333333333333</ele><time>2026-05-03T15:43:05.783Z</time></trkpt><trkpt lat="53.592525" lon="-2.03975"><ele>280.6666666666667</ele><time>2026-05-03T15:43:06.782Z</time></trkpt><trkpt lat="53.5924383" lon="-2.0398083"><ele>280.0</ele><time>2026-05-03T15:43:07.784Z</time></trkpt><trkpt lat="53.5923533" lon="-2.0398567"><ele>279.33333333333337</ele><time>2026-05-03T15:43:08.782Z</time></trkpt><trkpt lat="53.592275" lon="-2.039895"><ele>278.6666666666667</ele><time>2026-05-03T15:43:09.781Z</time></trkpt><trkpt lat="53.5922033" lon="-2.0399333"><ele>278.0</ele><time>2026-05-03T15:43:10.783Z</time></trkpt><trkpt lat="53.5921367" lon="-2.0399633"><ele>277.6666666666667</ele><time>2026-05-03T15:43:11.783Z</time></trkpt><trkpt lat="53.59203" lon="-2.04001"><ele>277.33333333333337</ele><time>2026-05-03T15:43:13.783Z</time></trkpt><trkpt lat="53.5919517" lon="-2.04"><ele>277.0</ele><time>2026-05-03T15:43:15.785Z</time></trkpt><trkpt lat="53.59189" lon="-2.0399383"><ele>276.6666666666667</ele><time>2026-05-03T15:43:17.783Z</time></trkpt><trkpt lat="53.5918" lon="-2.0399017"><ele>276.3333333333333</ele><time>2026-05-03T15:43:20.783Z</time></trkpt><trkpt lat="53.591715" lon="-2.0398883"><ele>276.0</ele><time>2026-05-03T15:43:22.783Z</time></trkpt><trkpt lat="53.5916083" lon="-2.0398283"><ele>275.3333333333333</ele><time>2026-05-03T15:43:24.784Z</time></trkpt><trkpt lat="53.591545" lon="-2.03978"><ele>274.6666666666667</ele><time>2026-05-03T15:43:25.783Z</time></trkpt><trkpt lat="53.5914783" lon="-2.0397333"><ele>274.0</ele><time>2026-05-03T15:43:26.783Z</time></trkpt><trkpt lat="53.5914133" lon="-2.03969"><ele>273.33333333333337</ele><time>2026-05-03T15:43:27.786Z</time></trkpt><trkpt lat="53.5913067" lon="-2.0396217"><ele>272.6666666666667</ele><time>2026-05-03T15:43:29.784Z</time></trkpt><trkpt lat="53.5912333" lon="-2.03958"><ele>272.0</ele><time>2026-05-03T15:43:31.782Z</time></trkpt><trkpt lat="53.59115" lon="-2.03953"><ele>271.0</ele><time>2026-05-03T15:43:42.783Z</time></trkpt><trkpt lat="53.5910333" lon="-2.0394217"><ele>270.0</ele><time>2026-05-03T15:43:44.783Z</time></trkpt><trkpt lat="53.590935" lon="-2.039325"><ele>269.0</ele><time>2026-05-03T15:43:45.782Z</time></trkpt><trkpt lat="53.59082" lon="-2.0392183"><ele>268.0</ele><time>2026-05-03T15:43:46.783Z</time></trkpt><trkpt lat="53.5907" lon="-2.03913"><ele>268.0</ele><time>2026-05-03T15:43:47.786Z</time></trkpt><trkpt lat="53.5905883" lon="-2.0390467"><ele>268.0</ele><time>2026-05-03T15:43:48.787Z</time></trkpt><trkpt lat="53.5904767" lon="-2.0389667"><ele>268.0</ele><time>2026-05-03T15:43:49.783Z</time></trkpt><trkpt lat="53.5903683" lon="-2.0388967"><ele>268.0</ele><time>2026-05-03T15:43:50.784Z</time></trkpt><trkpt lat="53.5902583" lon="-2.0388217"><ele>265.6</ele><time>2026-05-03T15:43:51.783Z</time></trkpt><trkpt lat="53.5901583" lon="-2.0387533"><ele>263.20000000000005</ele><time>2026-05-03T15:43:52.783Z</time></trkpt><trkpt lat="53.5900583" lon="-2.0386833"><ele>260.8</ele><time>2026-05-03T15:43:53.782Z</time></trkpt><trkpt lat="53.5899617" lon="-2.0386167"><ele>258.40000000000003</ele><time>2026-05-03T15:43:54.784Z</time></trkpt><trkpt lat="53.589865" lon="-2.0385517"><ele>256.0</ele><time>2026-05-03T15:43:55.789Z</time></trkpt><trkpt lat="53.5897733" lon="-2.0384917"><ele>256.0</ele><time>2026-05-03T15:43:56.783Z</time></trkpt><trkpt lat="53.589685" lon="-2.03844"><ele>256.0</ele><time>2026-05-03T15:43:57.783Z</time></trkpt><trkpt lat="53.5895917" lon="-2.038385"><ele>256.0</ele><time>2026-05-03T15:43:58.783Z</time></trkpt><trkpt lat="53.589495" lon="-2.03833"><ele>256.0</ele><time>2026-05-03T15:43:59.784Z</time></trkpt><trkpt lat="53.5893933" lon="-2.038275"><ele>256.0</ele><time>2026-05-03T15:44:00.782Z</time></trkpt><trkpt lat="53.5892917" lon="-2.0382233"><ele>255.8</ele><time>2026-05-03T15:44:01.784Z</time></trkpt><trkpt lat="53.5891883" lon="-2.0381733"><ele>255.60000000000002</ele><time>2026-05-03T15:44:02.783Z</time></trkpt><trkpt lat="53.5890767" lon="-2.0381183"><ele>255.4</ele><time>2026-05-03T15:44:03.783Z</time></trkpt><trkpt lat="53.588965" lon="-2.03808"><ele>255.2</ele><time>2026-05-03T15:44:04.784Z</time></trkpt><trkpt lat="53.588855" lon="-2.03806"><ele>255.0</ele><time>2026-05-03T15:44:05.784Z</time></trkpt><trkpt lat="53.5887483" lon="-2.03806"><ele>256.0</ele><time>2026-05-03T15:44:06.783Z</time></trkpt><trkpt lat="53.58864" lon="-2.03807"><ele>257.0</ele><time>2026-05-03T15:44:07.785Z</time></trkpt><trkpt lat="53.5885267" lon="-2.03809"><ele>258.0</ele><time>2026-05-03T15:44:08.783Z</time></trkpt><trkpt lat="53.5884067" lon="-2.0381117"><ele>259.0</ele><time>2026-05-03T15:44:09.784Z</time></trkpt><trkpt lat="53.5882833" lon="-2.0381367"><ele>259.0</ele><time>2026-05-03T15:44:10.784Z</time></trkpt><trkpt lat="53.5881583" lon="-2.038165"><ele>259.0</ele><time>2026-05-03T15:44:11.783Z</time></trkpt><trkpt lat="53.58804" lon="-2.03819"><ele>259.0</ele><time>2026-05-03T15:44:12.784Z</time></trkpt><trkpt lat="53.58793" lon="-2.0382117"><ele>259.0</ele><time>2026-05-03T15:44:13.783Z</time></trkpt><trkpt lat="53.5878233" lon="-2.03823"><ele>259.0</ele><time>2026-05-03T15:44:14.783Z</time></trkpt><trkpt lat="53.5877183" lon="-2.03825"><ele>259.0</ele><time>2026-05-03T15:44:15.783Z</time></trkpt><trkpt lat="53.5876133" lon="-2.03827"><ele>259.0</ele><time>2026-05-03T15:44:16.783Z</time></trkpt><trkpt lat="53.5875067" lon="-2.0382917"><ele>259.0</ele><time>2026-05-03T15:44:17.784Z</time></trkpt><trkpt lat="53.587395" lon="-2.0383133"><ele>259.0</ele><time>2026-05-03T15:44:18.784Z</time></trkpt><trkpt lat="53.5872817" lon="-2.0383383"><ele>258.25</ele><time>2026-05-03T15:44:19.784Z</time></trkpt><trkpt lat="53.5871683" lon="-2.03836"><ele>257.5</ele><time>2026-05-03T15:44:20.783Z</time></trkpt><trkpt lat="53.587055" lon="-2.0383817"><ele>256.75</ele><time>2026-05-03T15:44:21.783Z</time></trkpt><trkpt lat="53.5869383" lon="-2.0384033"><ele>256.0</ele><time>2026-05-03T15:44:22.784Z</time></trkpt><trkpt lat="53.5868217" lon="-2.038425"><ele>255.75</ele><time>2026-05-03T15:44:23.783Z</time></trkpt><trkpt lat="53.5867033" lon="-2.038445"><ele>255.5</ele><time>2026-05-03T15:44:24.782Z</time></trkpt><trkpt lat="53.586585" lon="-2.038465"><ele>255.25</ele><time>2026-05-03T15:44:25.784Z</time></trkpt><trkpt lat="53.5864583" lon="-2.03849"><ele>255.0</ele><time>2026-05-03T15:44:26.784Z</time></trkpt><trkpt lat="53.58632" lon="-2.0385167"><ele>254.66666666666669</ele><time>2026-05-03T15:44:27.784Z</time></trkpt><trkpt lat="53.5861633" lon="-2.0385467"><ele>254.33333333333334</ele><time>2026-05-03T15:44:28.784Z</time></trkpt><trkpt lat="53.586" lon="-2.0385817"><ele>254.0</ele><time>2026-05-03T15:44:29.784Z</time></trkpt><trkpt lat="53.5858333" lon="-2.0386333"><ele>254.0</ele><time>2026-05-03T15:44:30.786Z</time></trkpt><trkpt lat="53.5856717" lon="-2.03869"><ele>254.0</ele><time>2026-05-03T15:44:31.783Z</time></trkpt><trkpt lat="53.5855083" lon="-2.0387467"><ele>254.0</ele><time>2026-05-03T15:44:32.783Z</time></trkpt><trkpt lat="53.5853383" lon="-2.0388017"><ele>254.66666666666669</ele><time>2026-05-03T15:44:33.784Z</time></trkpt><trkpt lat="53.585175" lon="-2.0388583"><ele>255.33333333333331</ele><time>2026-05-03T15:44:34.783Z</time></trkpt><trkpt lat="53.58501" lon="-2.03892"><ele>256.0</ele><time>2026-05-03T15:44:35.784Z</time></trkpt><trkpt lat="53.584845" lon="-2.0389833"><ele>256.0</ele><time>2026-05-03T15:44:36.782Z</time></trkpt><trkpt lat="53.58468" lon="-2.039045"><ele>256.0</ele><time>2026-05-03T15:44:37.783Z</time></trkpt><trkpt lat="53.5845217" lon="-2.0391033"><ele>256.0</ele><time>2026-05-03T15:44:38.783Z</time></trkpt><trkpt lat="53.5843683" lon="-2.0391583"><ele>256.3333333333333</ele><time>2026-05-03T15:44:39.787Z</time></trkpt><trkpt lat="53.5842167" lon="-2.0392167"><ele>256.6666666666667</ele><time>2026-05-03T15:44:40.784Z</time></trkpt><trkpt lat="53.58407" lon="-2.0392867"><ele>257.0</ele><time>2026-05-03T15:44:41.784Z</time></trkpt><trkpt lat="53.5839233" lon="-2.0393833"><ele>257.0</ele><time>2026-05-03T15:44:42.783Z</time></trkpt><trkpt lat="53.5837767" lon="-2.0395083"><ele>257.0</ele><time>2026-05-03T15:44:43.784Z</time></trkpt><trkpt lat="53.58364" lon="-2.0396517"><ele>257.0</ele><time>2026-05-03T15:44:44.784Z</time></trkpt><trkpt lat="53.583515" lon="-2.0398117"><ele>257.6666666666667</ele><time>2026-05-03T15:44:45.782Z</time></trkpt><trkpt lat="53.5833933" lon="-2.0399683"><ele>258.3333333333333</ele><time>2026-05-03T15:44:46.782Z</time></trkpt><trkpt lat="53.5832733" lon="-2.0401267"><ele>259.0</ele><time>2026-05-03T15:44:47.784Z</time></trkpt><trkpt lat="53.5831483" lon="-2.0402783"><ele>259.0</ele><time>2026-05-03T15:44:48.784Z</time></trkpt><trkpt lat="53.5830183" lon="-2.040415"><ele>259.0</ele><time>2026-05-03T15:44:49.784Z</time></trkpt><trkpt lat="53.5828917" lon="-2.0405317"><ele>259.0</ele><time>2026-05-03T15:44:50.784Z</time></trkpt><trkpt lat="53.58277" lon="-2.04064"><ele>259.0</ele><time>2026-05-03T15:44:51.784Z</time></trkpt><trkpt lat="53.58265" lon="-2.040745"><ele>258.5</ele><time>2026-05-03T15:44:52.784Z</time></trkpt><trkpt lat="53.58253" lon="-2.0408483"><ele>258.0</ele><time>2026-05-03T15:44:53.784Z</time></trkpt><trkpt lat="53.582405" lon="-2.040945"><ele>257.5</ele><time>2026-05-03T15:44:54.783Z</time></trkpt><trkpt lat="53.582275" lon="-2.041045"><ele>257.0</ele><time>2026-05-03T15:44:55.784Z</time></trkpt><trkpt lat="53.582145" lon="-2.04114"><ele>257.0</ele><time>2026-05-03T15:44:56.784Z</time></trkpt><trkpt lat="53.5820167" lon="-2.04123"><ele>257.0</ele><time>2026-05-03T15:44:57.783Z</time></trkpt><trkpt lat="53.5818833" lon="-2.0413133"><ele>257.0</ele><time>2026-05-03T15:44:58.784Z</time></trkpt><trkpt lat="53.581755" lon="-2.0413933"><ele>257.0</ele><time>2026-05-03T15:44:59.784Z</time></trkpt><trkpt lat="53.581625" lon="-2.0414683"><ele>256.75</ele><time>2026-05-03T15:45:00.784Z</time></trkpt><trkpt lat="53.581495" lon="-2.041545"><ele>256.5</ele><time>2026-05-03T15:45:01.784Z</time></trkpt><trkpt lat="53.5813683" lon="-2.04162"><ele>256.25</ele><time>2026-05-03T15:45:02.782Z</time></trkpt><trkpt lat="53.5812433" lon="-2.04169"><ele>256.0</ele><time>2026-05-03T15:45:03.783Z</time></trkpt><trkpt lat="53.5811183" lon="-2.0417517"><ele>256.5</ele><time>2026-05-03T15:45:04.783Z</time></trkpt><trkpt lat="53.5809867" lon="-2.0417867"><ele>257.0</ele><time>2026-05-03T15:45:05.783Z</time></trkpt><trkpt lat="53.5808483" lon="-2.0418133"><ele>257.5</ele><time>2026-05-03T15:45:06.784Z</time></trkpt><trkpt lat="53.58071" lon="-2.041825"><ele>258.0</ele><time>2026-05-03T15:45:07.783Z</time></trkpt><trkpt lat="53.5805617" lon="-2.0418333"><ele>258.0</ele><time>2026-05-03T15:45:08.783Z</time></trkpt><trkpt lat="53.5804183" lon="-2.0418517"><ele>258.0</ele><time>2026-05-03T15:45:09.783Z</time></trkpt><trkpt lat="53.580265" lon="-2.0418717"><ele>258.0</ele><time>2026-05-03T15:45:10.786Z</time></trkpt><trkpt lat="53.580105" lon="-2.0418917"><ele>257.3333333333333</ele><time>2026-05-03T15:45:11.783Z</time></trkpt><trkpt lat="53.5799467" lon="-2.0419133"><ele>256.66666666666663</ele><time>2026-05-03T15:45:12.783Z</time></trkpt><trkpt lat="53.5797967" lon="-2.041925"><ele>256.0</ele><time>2026-05-03T15:45:13.784Z</time></trkpt><trkpt lat="53.5796467" lon="-2.0419367"><ele>255.33333333333331</ele><time>2026-05-03T15:45:14.783Z</time></trkpt><trkpt lat="53.5794933" lon="-2.0419483"><ele>254.66666666666669</ele><time>2026-05-03T15:45:15.782Z</time></trkpt><trkpt lat="53.5793417" lon="-2.04196"><ele>254.0</ele><time>2026-05-03T15:45:16.783Z</time></trkpt><trkpt lat="53.5791783" lon="-2.0419733"><ele>254.0</ele><time>2026-05-03T15:45:17.784Z</time></trkpt><trkpt lat="53.5790233" lon="-2.0419867"><ele>254.0</ele><time>2026-05-03T15:45:18.782Z</time></trkpt><trkpt lat="53.57888" lon="-2.042005"><ele>254.0</ele><time>2026-05-03T15:45:19.783Z</time></trkpt><trkpt lat="53.578745" lon="-2.04202"><ele>254.0</ele><time>2026-05-03T15:45:20.783Z</time></trkpt><trkpt lat="53.57862" lon="-2.0420283"><ele>255.0</ele><time>2026-05-03T15:45:21.782Z</time></trkpt><trkpt lat="53.5784967" lon="-2.0420317"><ele>256.0</ele><time>2026-05-03T15:45:22.783Z</time></trkpt><trkpt lat="53.57837" lon="-2.0420467"><ele>257.0</ele><time>2026-05-03T15:45:23.785Z</time></trkpt><trkpt lat="53.578245" lon="-2.042065"><ele>258.0</ele><time>2026-05-03T15:45:24.785Z</time></trkpt><trkpt lat="53.578125" lon="-2.0420833"><ele>258.0</ele><time>2026-05-03T15:45:25.784Z</time></trkpt><trkpt lat="53.5780033" lon="-2.0420983"><ele>258.0</ele><time>2026-05-03T15:45:26.785Z</time></trkpt><trkpt lat="53.5778833" lon="-2.0421083"><ele>258.0</ele><time>2026-05-03T15:45:27.783Z</time></trkpt><trkpt lat="53.5777567" lon="-2.04212"><ele>258.0</ele><time>2026-05-03T15:45:28.784Z</time></trkpt><trkpt lat="53.5776333" lon="-2.0421367"><ele>259.25</ele><time>2026-05-03T15:45:29.785Z</time></trkpt><trkpt lat="53.57751" lon="-2.04215"><ele>260.5</ele><time>2026-05-03T15:45:30.784Z</time></trkpt><trkpt lat="53.5773817" lon="-2.042165"><ele>261.75</ele><time>2026-05-03T15:45:31.785Z</time></trkpt><trkpt lat="53.5772533" lon="-2.04218"><ele>263.0</ele><time>2026-05-03T15:45:32.783Z</time></trkpt><trkpt lat="53.5771183" lon="-2.042185"><ele>264.25</ele><time>2026-05-03T15:45:33.782Z</time></trkpt><trkpt lat="53.57698" lon="-2.0421883"><ele>265.5</ele><time>2026-05-03T15:45:34.784Z</time></trkpt><trkpt lat="53.5768317" lon="-2.0421783"><ele>266.75</ele><time>2026-05-03T15:45:35.784Z</time></trkpt><trkpt lat="53.5766733" lon="-2.042145"><ele>268.0</ele><time>2026-05-03T15:45:36.783Z</time></trkpt><trkpt lat="53.5765133" lon="-2.0421"><ele>268.0</ele><time>2026-05-03T15:45:37.785Z</time></trkpt><trkpt lat="53.5763617" lon="-2.0420333"><ele>268.0</ele><time>2026-05-03T15:45:38.783Z</time></trkpt><trkpt lat="53.5762133" lon="-2.0419583"><ele>268.0</ele><time>2026-05-03T15:45:39.788Z</time></trkpt><trkpt lat="53.5760783" lon="-2.0418833"><ele>267.75</ele><time>2026-05-03T15:45:40.787Z</time></trkpt><trkpt lat="53.5759533" lon="-2.0418067"><ele>267.5</ele><time>2026-05-03T15:45:41.787Z</time></trkpt><trkpt lat="53.57583" lon="-2.0417317"><ele>267.25</ele><time>2026-05-03T15:45:42.784Z</time></trkpt><trkpt lat="53.5757017" lon="-2.041655"><ele>267.0</ele><time>2026-05-03T15:45:43.784Z</time></trkpt><trkpt lat="53.5755667" lon="-2.0415683"><ele>266.25</ele><time>2026-05-03T15:45:44.784Z</time></trkpt><trkpt lat="53.5754283" lon="-2.0414767"><ele>265.5</ele><time>2026-05-03T15:45:45.783Z</time></trkpt><trkpt lat="53.57529" lon="-2.0413883"><ele>264.75</ele><time>2026-05-03T15:45:46.786Z</time></trkpt><trkpt lat="53.5751517" lon="-2.0412933"><ele>264.0</ele><time>2026-05-03T15:45:47.783Z</time></trkpt><trkpt lat="53.5750167" lon="-2.0412067"><ele>264.0</ele><time>2026-05-03T15:45:48.782Z</time></trkpt><trkpt lat="53.57488" lon="-2.04112"><ele>264.0</ele><time>2026-05-03T15:45:49.783Z</time></trkpt><trkpt lat="53.5747467" lon="-2.0410367"><ele>264.0</ele><time>2026-05-03T15:45:50.783Z</time></trkpt><trkpt lat="53.5746017" lon="-2.0409467"><ele>264.0</ele><time>2026-05-03T15:45:51.784Z</time></trkpt><trkpt lat="53.5744617" lon="-2.0408533"><ele>263.0</ele><time>2026-05-03T15:45:52.784Z</time></trkpt><trkpt lat="53.57434" lon="-2.0407483"><ele>262.0</ele><time>2026-05-03T15:45:53.784Z</time></trkpt><trkpt lat="53.5742067" lon="-2.0406483"><ele>261.0</ele><time>2026-05-03T15:45:54.784Z</time></trkpt><trkpt lat="53.5740733" lon="-2.040545"><ele>260.0</ele><time>2026-05-03T15:45:55.783Z</time></trkpt><trkpt lat="53.5739533" lon="-2.0404533"><ele>260.0</ele><time>2026-05-03T15:45:56.787Z</time></trkpt><trkpt lat="53.57383" lon="-2.04036"><ele>260.0</ele><time>2026-05-03T15:45:57.784Z</time></trkpt><trkpt lat="53.57371" lon="-2.0402667"><ele>260.0</ele><time>2026-05-03T15:45:58.783Z</time></trkpt><trkpt lat="53.5735933" lon="-2.0401733"><ele>260.0</ele><time>2026-05-03T15:45:59.782Z</time></trkpt><trkpt lat="53.5734817" lon="-2.0400833"><ele>260.0</ele><time>2026-05-03T15:46:00.783Z</time></trkpt><trkpt lat="53.5733733" lon="-2.03999"><ele>260.0</ele><time>2026-05-03T15:46:01.787Z</time></trkpt><trkpt lat="53.5732667" lon="-2.0398933"><ele>260.0</ele><time>2026-05-03T15:46:02.786Z</time></trkpt><trkpt lat="53.57316" lon="-2.0398067"><ele>260.0</ele><time>2026-05-03T15:46:03.783Z</time></trkpt><trkpt lat="53.5730567" lon="-2.039725"><ele>260.0</ele><time>2026-05-03T15:46:04.783Z</time></trkpt><trkpt lat="53.5729583" lon="-2.03965"><ele>260.0</ele><time>2026-05-03T15:46:05.784Z</time></trkpt><trkpt lat="53.57286" lon="-2.0395717"><ele>260.0</ele><time>2026-05-03T15:46:06.783Z</time></trkpt><trkpt lat="53.5727617" lon="-2.03949"><ele>260.0</ele><time>2026-05-03T15:46:07.784Z</time></trkpt><trkpt lat="53.57266" lon="-2.039405"><ele>260.0</ele><time>2026-05-03T15:46:08.787Z</time></trkpt><trkpt lat="53.57256" lon="-2.0393133"><ele>259.8</ele><time>2026-05-03T15:46:09.782Z</time></trkpt><trkpt lat="53.5724667" lon="-2.039215"><ele>259.6</ele><time>2026-05-03T15:46:10.783Z</time></trkpt><trkpt lat="53.5723717" lon="-2.0391183"><ele>259.4</ele><time>2026-05-03T15:46:11.782Z</time></trkpt><trkpt lat="53.5722767" lon="-2.0390183"><ele>259.2</ele><time>2026-05-03T15:46:12.785Z</time></trkpt><trkpt lat="53.5721817" lon="-2.0389183"><ele>259.0</ele><time>2026-05-03T15:46:13.783Z</time></trkpt><trkpt lat="53.5720883" lon="-2.0388083"><ele>256.75</ele><time>2026-05-03T15:46:14.783Z</time></trkpt><trkpt lat="53.5719983" lon="-2.038695"><ele>254.5</ele><time>2026-05-03T15:46:15.782Z</time></trkpt><trkpt lat="53.5719083" lon="-2.0385667"><ele>252.25</ele><time>2026-05-03T15:46:16.782Z</time></trkpt><trkpt lat="53.5718233" lon="-2.03843"><ele>250.0</ele><time>2026-05-03T15:46:17.783Z</time></trkpt><trkpt lat="53.5717433" lon="-2.0383"><ele>250.0</ele><time>2026-05-03T15:46:18.783Z</time></trkpt><trkpt lat="53.5716667" lon="-2.0381417"><ele>250.0</ele><time>2026-05-03T15:46:19.784Z</time></trkpt><trkpt lat="53.571605" lon="-2.0379667"><ele>250.0</ele><time>2026-05-03T15:46:20.782Z</time></trkpt><trkpt lat="53.5715583" lon="-2.0377917"><ele>250.0</ele><time>2026-05-03T15:46:21.785Z</time></trkpt><trkpt lat="53.5715267" lon="-2.03761"><ele>249.0</ele><time>2026-05-03T15:46:22.784Z</time></trkpt><trkpt lat="53.5715" lon="-2.0374217"><ele>248.0</ele><time>2026-05-03T15:46:23.784Z</time></trkpt><trkpt lat="53.5714933" lon="-2.03722"><ele>247.0</ele><time>2026-05-03T15:46:24.783Z</time></trkpt><trkpt lat="53.5715033" lon="-2.03702"><ele>246.0</ele><time>2026-05-03T15:46:25.785Z</time></trkpt><trkpt lat="53.5715017" lon="-2.0368217"><ele>245.25</ele><time>2026-05-03T15:46:26.782Z</time></trkpt><trkpt lat="53.5715" lon="-2.0366217"><ele>244.5</ele><time>2026-05-03T15:46:27.782Z</time></trkpt><trkpt lat="53.5714983" lon="-2.03643"><ele>243.75</ele><time>2026-05-03T15:46:28.783Z</time></trkpt><trkpt lat="53.571495" lon="-2.036235"><ele>243.0</ele><time>2026-05-03T15:46:29.784Z</time></trkpt><trkpt lat="53.5715" lon="-2.036045"><ele>243.0</ele><time>2026-05-03T15:46:30.783Z</time></trkpt><trkpt lat="53.5715183" lon="-2.0358567"><ele>243.0</ele><time>2026-05-03T15:46:31.783Z</time></trkpt><trkpt lat="53.571535" lon="-2.035665"><ele>243.0</ele><time>2026-05-03T15:46:32.785Z</time></trkpt><trkpt lat="53.5715333" lon="-2.0354767"><ele>243.0</ele><time>2026-05-03T15:46:33.784Z</time></trkpt><trkpt lat="53.5715167" lon="-2.035275"><ele>243.25</ele><time>2026-05-03T15:46:34.785Z</time></trkpt><trkpt lat="53.5714983" lon="-2.0350833"><ele>243.5</ele><time>2026-05-03T15:46:35.783Z</time></trkpt><trkpt lat="53.57148" lon="-2.03489"><ele>243.75</ele><time>2026-05-03T15:46:36.783Z</time></trkpt><trkpt lat="53.5714583" lon="-2.0346983"><ele>244.0</ele><time>2026-05-03T15:46:37.783Z</time></trkpt><trkpt lat="53.57143" lon="-2.0345017"><ele>244.0</ele><time>2026-05-03T15:46:38.783Z</time></trkpt><trkpt lat="53.57141" lon="-2.0343117"><ele>244.0</ele><time>2026-05-03T15:46:39.783Z</time></trkpt><trkpt lat="53.5713917" lon="-2.0341183"><ele>244.0</ele><time>2026-05-03T15:46:40.783Z</time></trkpt><trkpt lat="53.5713717" lon="-2.0339217"><ele>244.0</ele><time>2026-05-03T15:46:41.783Z</time></trkpt><trkpt lat="53.57135" lon="-2.0337333"><ele>244.0</ele><time>2026-05-03T15:46:42.784Z</time></trkpt><trkpt lat="53.5713217" lon="-2.033545"><ele>244.0</ele><time>2026-05-03T15:46:43.782Z</time></trkpt><trkpt lat="53.57128" lon="-2.033365"><ele>244.0</ele><time>2026-05-03T15:46:44.783Z</time></trkpt><trkpt lat="53.571235" lon="-2.03318"><ele>244.0</ele><time>2026-05-03T15:46:45.783Z</time></trkpt><trkpt lat="53.571185" lon="-2.0329917"><ele>241.75</ele><time>2026-05-03T15:46:46.784Z</time></trkpt><trkpt lat="53.57114" lon="-2.0328133"><ele>239.5</ele><time>2026-05-03T15:46:47.783Z</time></trkpt><trkpt lat="53.571085" lon="-2.0326467"><ele>237.25</ele><time>2026-05-03T15:46:48.784Z</time></trkpt><trkpt lat="53.5710233" lon="-2.032485"><ele>235.0</ele><time>2026-05-03T15:46:49.784Z</time></trkpt><trkpt lat="53.5709633" lon="-2.03232"><ele>235.0</ele><time>2026-05-03T15:46:50.783Z</time></trkpt><trkpt lat="53.5709083" lon="-2.03215"><ele>235.0</ele><time>2026-05-03T15:46:51.783Z</time></trkpt><trkpt lat="53.5708533" lon="-2.0319833"><ele>235.0</ele><time>2026-05-03T15:46:52.784Z</time></trkpt><trkpt lat="53.5707817" lon="-2.0318467"><ele>235.0</ele><time>2026-05-03T15:46:53.784Z</time></trkpt><trkpt lat="53.5707017" lon="-2.0317117"><ele>236.0</ele><time>2026-05-03T15:46:54.784Z</time></trkpt><trkpt lat="53.5706233" lon="-2.031575"><ele>237.0</ele><time>2026-05-03T15:46:55.785Z</time></trkpt><trkpt lat="53.5705367" lon="-2.0314533"><ele>238.0</ele><time>2026-05-03T15:46:56.783Z</time></trkpt><trkpt lat="53.57045" lon="-2.0313183"><ele>239.0</ele><time>2026-05-03T15:46:57.782Z</time></trkpt><trkpt lat="53.5703617" lon="-2.03119"><ele>235.39999999999998</ele><time>2026-05-03T15:46:58.783Z</time></trkpt><trkpt lat="53.570285" lon="-2.0310433"><ele>231.79999999999998</ele><time>2026-05-03T15:46:59.785Z</time></trkpt><trkpt lat="53.5702167" lon="-2.03089"><ele>228.20000000000002</ele><time>2026-05-03T15:47:00.782Z</time></trkpt><trkpt lat="53.5701633" lon="-2.03074"><ele>224.60000000000002</ele><time>2026-05-03T15:47:01.783Z</time></trkpt><trkpt lat="53.57012" lon="-2.030595"><ele>221.0</ele><time>2026-05-03T15:47:02.784Z</time></trkpt><trkpt lat="53.5700833" lon="-2.0304483"><ele>220.83333333333334</ele><time>2026-05-03T15:47:03.784Z</time></trkpt><trkpt lat="53.5700517" lon="-2.0303117"><ele>220.66666666666669</ele><time>2026-05-03T15:47:04.783Z</time></trkpt><trkpt lat="53.5700333" lon="-2.030185"><ele>220.5</ele><time>2026-05-03T15:47:05.784Z</time></trkpt><trkpt lat="53.5700217" lon="-2.030045"><ele>220.33333333333331</ele><time>2026-05-03T15:47:06.784Z</time></trkpt><trkpt lat="53.5700217" lon="-2.029915"><ele>220.16666666666666</ele><time>2026-05-03T15:47:07.782Z</time></trkpt><trkpt lat="53.570025" lon="-2.0297917"><ele>220.0</ele><time>2026-05-03T15:47:08.783Z</time></trkpt><trkpt lat="53.570025" lon="-2.0296683"><ele>219.83333333333331</ele><time>2026-05-03T15:47:09.784Z</time></trkpt><trkpt lat="53.5700233" lon="-2.0295467"><ele>219.66666666666666</ele><time>2026-05-03T15:47:10.783Z</time></trkpt><trkpt lat="53.5700283" lon="-2.0294217"><ele>219.5</ele><time>2026-05-03T15:47:11.783Z</time></trkpt><trkpt lat="53.5700233" lon="-2.0292967"><ele>219.33333333333331</ele><time>2026-05-03T15:47:12.783Z</time></trkpt><trkpt lat="53.570015" lon="-2.0291617"><ele>219.16666666666666</ele><time>2026-05-03T15:47:13.782Z</time></trkpt><trkpt lat="53.5700017" lon="-2.02902"><ele>219.0</ele><time>2026-05-03T15:47:14.782Z</time></trkpt><trkpt lat="53.5699833" lon="-2.0288633"><ele>218.83333333333334</ele><time>2026-05-03T15:47:15.783Z</time></trkpt><trkpt lat="53.5699717" lon="-2.0287133"><ele>218.66666666666669</ele><time>2026-05-03T15:47:16.784Z</time></trkpt><trkpt lat="53.5699533" lon="-2.0285717"><ele>218.5</ele><time>2026-05-03T15:47:17.783Z</time></trkpt><trkpt lat="53.569935" lon="-2.0284333"><ele>218.33333333333334</ele><time>2026-05-03T15:47:18.782Z</time></trkpt><trkpt lat="53.5699167" lon="-2.0283017"><ele>218.16666666666669</ele><time>2026-05-03T15:47:19.784Z</time></trkpt><trkpt lat="53.5698983" lon="-2.0281617"><ele>218.0</ele><time>2026-05-03T15:47:20.782Z</time></trkpt><trkpt lat="53.5698783" lon="-2.0280267"><ele>217.66666666666669</ele><time>2026-05-03T15:47:21.783Z</time></trkpt><trkpt lat="53.5698633" lon="-2.0278883"><ele>217.33333333333334</ele><time>2026-05-03T15:47:22.783Z</time></trkpt><trkpt lat="53.56985" lon="-2.02775"><ele>217.0</ele><time>2026-05-03T15:47:23.785Z</time></trkpt><trkpt lat="53.569835" lon="-2.02761"><ele>216.66666666666669</ele><time>2026-05-03T15:47:24.784Z</time></trkpt><trkpt lat="53.5698183" lon="-2.0274767"><ele>216.33333333333334</ele><time>2026-05-03T15:47:25.783Z</time></trkpt><trkpt lat="53.5698017" lon="-2.02734"><ele>216.0</ele><time>2026-05-03T15:47:26.784Z</time></trkpt><trkpt lat="53.569785" lon="-2.0272033"><ele>215.5</ele><time>2026-05-03T15:47:27.784Z</time></trkpt><trkpt lat="53.5697717" lon="-2.02707"><ele>215.0</ele><time>2026-05-03T15:47:28.783Z</time></trkpt><trkpt lat="53.5697583" lon="-2.0269333"><ele>214.5</ele><time>2026-05-03T15:47:29.784Z</time></trkpt><trkpt lat="53.5697433" lon="-2.0267983"><ele>214.0</ele><time>2026-05-03T15:47:30.784Z</time></trkpt><trkpt lat="53.5697283" lon="-2.0266683"><ele>213.5</ele><time>2026-05-03T15:47:31.783Z</time></trkpt><trkpt lat="53.5697133" lon="-2.02654"><ele>213.0</ele><time>2026-05-03T15:47:32.782Z</time></trkpt><trkpt lat="53.5697017" lon="-2.0264017"><ele>212.83333333333334</ele><time>2026-05-03T15:47:33.782Z</time></trkpt><trkpt lat="53.5696867" lon="-2.026265"><ele>212.66666666666669</ele><time>2026-05-03T15:47:34.782Z</time></trkpt><trkpt lat="53.5696717" lon="-2.02613"><ele>212.5</ele><time>2026-05-03T15:47:35.784Z</time></trkpt><trkpt lat="53.5696583" lon="-2.025995"><ele>212.33333333333334</ele><time>2026-05-03T15:47:36.782Z</time></trkpt><trkpt lat="53.5696417" lon="-2.025865"><ele>212.16666666666669</ele><time>2026-05-03T15:47:37.785Z</time></trkpt><trkpt lat="53.5696233" lon="-2.0257317"><ele>212.0</ele><time>2026-05-03T15:47:38.783Z</time></trkpt><trkpt lat="53.5696067" lon="-2.0255917"><ele>211.66666666666669</ele><time>2026-05-03T15:47:39.783Z</time></trkpt><trkpt lat="53.56959" lon="-2.0254517"><ele>211.33333333333334</ele><time>2026-05-03T15:47:40.783Z</time></trkpt><trkpt lat="53.5695733" lon="-2.0253083"><ele>211.0</ele><time>2026-05-03T15:47:41.784Z</time></trkpt><trkpt lat="53.569555" lon="-2.0251733"><ele>210.66666666666669</ele><time>2026-05-03T15:47:42.784Z</time></trkpt><trkpt lat="53.5695317" lon="-2.0250467"><ele>210.33333333333334</ele><time>2026-05-03T15:47:43.784Z</time></trkpt><trkpt lat="53.5695033" lon="-2.024915"><ele>210.0</ele><time>2026-05-03T15:47:44.784Z</time></trkpt><trkpt lat="53.569475" lon="-2.0247833"><ele>209.5</ele><time>2026-05-03T15:47:45.783Z</time></trkpt><trkpt lat="53.5694417" lon="-2.02466"><ele>209.0</ele><time>2026-05-03T15:47:46.783Z</time></trkpt><trkpt lat="53.5694067" lon="-2.0245333"><ele>208.5</ele><time>2026-05-03T15:47:47.784Z</time></trkpt><trkpt lat="53.56937" lon="-2.0244183"><ele>208.0</ele><time>2026-05-03T15:47:48.784Z</time></trkpt><trkpt lat="53.569335" lon="-2.0243033"><ele>207.5</ele><time>2026-05-03T15:47:49.783Z</time></trkpt><trkpt lat="53.5692967" lon="-2.024195"><ele>207.0</ele><time>2026-05-03T15:47:50.785Z</time></trkpt><trkpt lat="53.5692517" lon="-2.0241017"><ele>207.0</ele><time>2026-05-03T15:47:51.783Z</time></trkpt><trkpt lat="53.5692017" lon="-2.0240133"><ele>207.0</ele><time>2026-05-03T15:47:52.785Z</time></trkpt><trkpt lat="53.5691533" lon="-2.02393"><ele>207.0</ele><time>2026-05-03T15:47:53.784Z</time></trkpt><trkpt lat="53.569105" lon="-2.0238517"><ele>207.0</ele><time>2026-05-03T15:47:54.783Z</time></trkpt><trkpt lat="53.5690633" lon="-2.023765"><ele>207.0</ele><time>2026-05-03T15:47:55.783Z</time></trkpt><trkpt lat="53.569005" lon="-2.0236267"><ele>207.0</ele><time>2026-05-03T15:47:57.782Z</time></trkpt><trkpt lat="53.56902" lon="-2.0234883"><ele>207.0</ele><time>2026-05-03T15:48:00.783Z</time></trkpt><trkpt lat="53.569105" lon="-2.0234083"><ele>207.0</ele><time>2026-05-03T15:48:02.782Z</time></trkpt><trkpt lat="53.5691583" lon="-2.0233517"><ele>207.0</ele><time>2026-05-03T15:48:03.782Z</time></trkpt><trkpt lat="53.5692233" lon="-2.0232983"><ele>207.0</ele><time>2026-05-03T15:48:04.782Z</time></trkpt><trkpt lat="53.5693033" lon="-2.023245"><ele>207.0</ele><time>2026-05-03T15:48:05.783Z</time></trkpt><trkpt lat="53.569395" lon="-2.0231833"><ele>207.0</ele><time>2026-05-03T15:48:06.783Z</time></trkpt><trkpt lat="53.5695" lon="-2.0231017"><ele>209.0</ele><time>2026-05-03T15:48:07.785Z</time></trkpt><trkpt lat="53.5695817" lon="-2.02304"><ele>211.0</ele><time>2026-05-03T15:48:08.784Z</time></trkpt><trkpt lat="53.5696633" lon="-2.022975"><ele>213.0</ele><time>2026-05-03T15:48:09.782Z</time></trkpt><trkpt lat="53.5697267" lon="-2.0229067"><ele>215.0</ele><time>2026-05-03T15:48:10.782Z</time></trkpt><trkpt lat="53.569785" lon="-2.0228267"><ele>217.0</ele><time>2026-05-03T15:48:11.783Z</time></trkpt><trkpt lat="53.5698433" lon="-2.0227483"><ele>219.0</ele><time>2026-05-03T15:48:12.783Z</time></trkpt><trkpt lat="53.5699017" lon="-2.02267"><ele>219.0</ele><time>2026-05-03T15:48:13.783Z</time></trkpt><trkpt lat="53.56996" lon="-2.0226"><ele>219.0</ele><time>2026-05-03T15:48:14.783Z</time></trkpt><trkpt lat="53.5700133" lon="-2.022525"><ele>219.0</ele><time>2026-05-03T15:48:15.782Z</time></trkpt><trkpt lat="53.570065" lon="-2.0224517"><ele>219.0</ele><time>2026-05-03T15:48:16.783Z</time></trkpt><trkpt lat="53.5701183" lon="-2.022375"><ele>219.0</ele><time>2026-05-03T15:48:17.782Z</time></trkpt><trkpt lat="53.57017" lon="-2.0222933"><ele>219.0</ele><time>2026-05-03T15:48:18.783Z</time></trkpt><trkpt lat="53.5702167" lon="-2.0222"><ele>219.0</ele><time>2026-05-03T15:48:19.785Z</time></trkpt><trkpt lat="53.57026" lon="-2.0221"><ele>219.5</ele><time>2026-05-03T15:48:20.783Z</time></trkpt><trkpt lat="53.5703033" lon="-2.0219917"><ele>220.0</ele><time>2026-05-03T15:48:21.787Z</time></trkpt><trkpt lat="53.5703433" lon="-2.0218817"><ele>220.5</ele><time>2026-05-03T15:48:22.782Z</time></trkpt><trkpt lat="53.5703817" lon="-2.021765"><ele>221.0</ele><time>2026-05-03T15:48:23.782Z</time></trkpt><trkpt lat="53.5704217" lon="-2.0216517"><ele>221.5</ele><time>2026-05-03T15:48:24.786Z</time></trkpt><trkpt lat="53.57046" lon="-2.0215367"><ele>222.0</ele><time>2026-05-03T15:48:25.783Z</time></trkpt><trkpt lat="53.5704983" lon="-2.021415"><ele>222.66666666666666</ele><time>2026-05-03T15:48:26.783Z</time></trkpt><trkpt lat="53.57054" lon="-2.0213017"><ele>223.33333333333331</ele><time>2026-05-03T15:48:27.783Z</time></trkpt><trkpt lat="53.57058" lon="-2.0211783"><ele>224.0</ele><time>2026-05-03T15:48:28.784Z</time></trkpt><trkpt lat="53.5706233" lon="-2.02106"><ele>224.66666666666666</ele><time>2026-05-03T15:48:29.783Z</time></trkpt><trkpt lat="53.5706667" lon="-2.0209417"><ele>225.33333333333331</ele><time>2026-05-03T15:48:30.783Z</time></trkpt><trkpt lat="53.5707067" lon="-2.0208233"><ele>226.0</ele><time>2026-05-03T15:48:31.783Z</time></trkpt><trkpt lat="53.5707467" lon="-2.0207083"><ele>226.33333333333331</ele><time>2026-05-03T15:48:32.783Z</time></trkpt><trkpt lat="53.5707867" lon="-2.02059"><ele>226.66666666666666</ele><time>2026-05-03T15:48:33.783Z</time></trkpt><trkpt lat="53.5708283" lon="-2.0204717"><ele>227.0</ele><time>2026-05-03T15:48:34.783Z</time></trkpt><trkpt lat="53.5708717" lon="-2.02035"><ele>227.33333333333331</ele><time>2026-05-03T15:48:35.786Z</time></trkpt><trkpt lat="53.57091" lon="-2.02023"><ele>227.66666666666666</ele><time>2026-05-03T15:48:36.783Z</time></trkpt><trkpt lat="53.5709483" lon="-2.0201183"><ele>228.0</ele><time>2026-05-03T15:48:37.782Z</time></trkpt><trkpt lat="53.570985" lon="-2.02001"><ele>228.16666666666666</ele><time>2026-05-03T15:48:38.783Z</time></trkpt><trkpt lat="53.5710183" lon="-2.0198933"><ele>228.33333333333331</ele><time>2026-05-03T15:48:39.783Z</time></trkpt><trkpt lat="53.571055" lon="-2.0197783"><ele>228.5</ele><time>2026-05-03T15:48:40.783Z</time></trkpt><trkpt lat="53.5710883" lon="-2.0196617"><ele>228.66666666666666</ele><time>2026-05-03T15:48:41.784Z</time></trkpt><trkpt lat="53.571125" lon="-2.01954"><ele>228.83333333333331</ele><time>2026-05-03T15:48:42.787Z</time></trkpt><trkpt lat="53.5711617" lon="-2.01942"><ele>229.0</ele><time>2026-05-03T15:48:43.783Z</time></trkpt><trkpt lat="53.5711983" lon="-2.0193017"><ele>227.83333333333331</ele><time>2026-05-03T15:48:44.788Z</time></trkpt><trkpt lat="53.5712283" lon="-2.0191867"><ele>226.66666666666666</ele><time>2026-05-03T15:48:45.783Z</time></trkpt><trkpt lat="53.571255" lon="-2.0190667"><ele>225.5</ele><time>2026-05-03T15:48:46.786Z</time></trkpt><trkpt lat="53.57128" lon="-2.0189433"><ele>224.33333333333331</ele><time>2026-05-03T15:48:47.783Z</time></trkpt><trkpt lat="53.5713" lon="-2.01882"><ele>223.16666666666666</ele><time>2026-05-03T15:48:48.783Z</time></trkpt><trkpt lat="53.571315" lon="-2.0186933"><ele>222.0</ele><time>2026-05-03T15:48:49.783Z</time></trkpt><trkpt lat="53.5713317" lon="-2.0185683"><ele>221.83333333333334</ele><time>2026-05-03T15:48:50.782Z</time></trkpt><trkpt lat="53.5713483" lon="-2.0184383"><ele>221.66666666666669</ele><time>2026-05-03T15:48:51.783Z</time></trkpt><trkpt lat="53.571365" lon="-2.0183083"><ele>221.5</ele><time>2026-05-03T15:48:52.782Z</time></trkpt><trkpt lat="53.5713767" lon="-2.0181717"><ele>221.33333333333334</ele><time>2026-05-03T15:48:53.783Z</time></trkpt><trkpt lat="53.5713917" lon="-2.0180333"><ele>221.16666666666669</ele><time>2026-05-03T15:48:54.782Z</time></trkpt><trkpt lat="53.5714017" lon="-2.01789"><ele>221.0</ele><time>2026-05-03T15:48:55.784Z</time></trkpt><trkpt lat="53.5714133" lon="-2.0177483"><ele>220.66666666666669</ele><time>2026-05-03T15:48:56.787Z</time></trkpt><trkpt lat="53.571425" lon="-2.017605"><ele>220.33333333333334</ele><time>2026-05-03T15:48:57.782Z</time></trkpt><trkpt lat="53.5714333" lon="-2.017465"><ele>220.0</ele><time>2026-05-03T15:48:58.783Z</time></trkpt><trkpt lat="53.5714417" lon="-2.017325"><ele>219.66666666666669</ele><time>2026-05-03T15:48:59.783Z</time></trkpt><trkpt lat="53.571455" lon="-2.0171867"><ele>219.33333333333334</ele><time>2026-05-03T15:49:00.784Z</time></trkpt><trkpt lat="53.5714667" lon="-2.017055"><ele>219.0</ele><time>2026-05-03T15:49:01.784Z</time></trkpt><trkpt lat="53.57148" lon="-2.0169267"><ele>218.66666666666666</ele><time>2026-05-03T15:49:02.786Z</time></trkpt><trkpt lat="53.5714933" lon="-2.0168017"><ele>218.33333333333331</ele><time>2026-05-03T15:49:03.782Z</time></trkpt><trkpt lat="53.571505" lon="-2.0166817"><ele>218.0</ele><time>2026-05-03T15:49:04.784Z</time></trkpt><trkpt lat="53.5715183" lon="-2.0165633"><ele>217.66666666666666</ele><time>2026-05-03T15:49:05.784Z</time></trkpt><trkpt lat="53.57153" lon="-2.0164383"><ele>217.33333333333331</ele><time>2026-05-03T15:49:06.782Z</time></trkpt><trkpt lat="53.5715467" lon="-2.0162983"><ele>217.0</ele><time>2026-05-03T15:49:07.783Z</time></trkpt><trkpt lat="53.5715617" lon="-2.0161467"><ele>217.0</ele><time>2026-05-03T15:49:08.782Z</time></trkpt><trkpt lat="53.5715767" lon="-2.0159817"><ele>217.0</ele><time>2026-05-03T15:49:09.783Z</time></trkpt><trkpt lat="53.5715933" lon="-2.0158083"><ele>217.0</ele><time>2026-05-03T15:49:10.783Z</time></trkpt><trkpt lat="53.5716183" lon="-2.015625"><ele>217.0</ele><time>2026-05-03T15:49:11.782Z</time></trkpt><trkpt lat="53.5716417" lon="-2.0154383"><ele>217.0</ele><time>2026-05-03T15:49:12.784Z</time></trkpt><trkpt lat="53.5716667" lon="-2.015265"><ele>217.6</ele><time>2026-05-03T15:49:13.783Z</time></trkpt><trkpt lat="53.5716917" lon="-2.0150883"><ele>218.2</ele><time>2026-05-03T15:49:14.782Z</time></trkpt><trkpt lat="53.5717133" lon="-2.0149133"><ele>218.8</ele><time>2026-05-03T15:49:15.783Z</time></trkpt><trkpt lat="53.5717333" lon="-2.0147433"><ele>219.4</ele><time>2026-05-03T15:49:16.783Z</time></trkpt><trkpt lat="53.5717567" lon="-2.0145667"><ele>220.0</ele><time>2026-05-03T15:49:17.783Z</time></trkpt><trkpt lat="53.57178" lon="-2.0143983"><ele>221.0</ele><time>2026-05-03T15:49:18.783Z</time></trkpt><trkpt lat="53.5718033" lon="-2.0142283"><ele>222.0</ele><time>2026-05-03T15:49:19.784Z</time></trkpt><trkpt lat="53.57183" lon="-2.0140617"><ele>223.0</ele><time>2026-05-03T15:49:20.784Z</time></trkpt><trkpt lat="53.571865" lon="-2.0138867"><ele>224.0</ele><time>2026-05-03T15:49:21.783Z</time></trkpt><trkpt lat="53.5719083" lon="-2.0137"><ele>225.0</ele><time>2026-05-03T15:49:22.784Z</time></trkpt><trkpt lat="53.571955" lon="-2.0135167"><ele>227.75</ele><time>2026-05-03T15:49:23.783Z</time></trkpt><trkpt lat="53.5720117" lon="-2.01332"><ele>230.5</ele><time>2026-05-03T15:49:24.784Z</time></trkpt><trkpt lat="53.572065" lon="-2.01313"><ele>233.25</ele><time>2026-05-03T15:49:25.784Z</time></trkpt><trkpt lat="53.572135" lon="-2.0129467"><ele>236.0</ele><time>2026-05-03T15:49:26.784Z</time></trkpt><trkpt lat="53.5722117" lon="-2.01276"><ele>236.0</ele><time>2026-05-03T15:49:27.783Z</time></trkpt><trkpt lat="53.5722933" lon="-2.0125783"><ele>236.0</ele><time>2026-05-03T15:49:28.783Z</time></trkpt><trkpt lat="53.5723783" lon="-2.0123833"><ele>236.0</ele><time>2026-05-03T15:49:29.784Z</time></trkpt><trkpt lat="53.572465" lon="-2.012195"><ele>236.0</ele><time>2026-05-03T15:49:30.783Z</time></trkpt><trkpt lat="53.5725517" lon="-2.0120217"><ele>237.83333333333334</ele><time>2026-05-03T15:49:31.782Z</time></trkpt><trkpt lat="53.57263" lon="-2.0118883"><ele>239.66666666666669</ele><time>2026-05-03T15:49:32.783Z</time></trkpt><trkpt lat="53.5727017" lon="-2.0117917"><ele>241.5</ele><time>2026-05-03T15:49:33.783Z</time></trkpt><trkpt lat="53.5727617" lon="-2.011715"><ele>243.33333333333331</ele><time>2026-05-03T15:49:34.783Z</time></trkpt><trkpt lat="53.5728133" lon="-2.0116533"><ele>245.16666666666666</ele><time>2026-05-03T15:49:35.783Z</time></trkpt><trkpt lat="53.57287" lon="-2.0115617"><ele>247.0</ele><time>2026-05-03T15:49:37.784Z</time></trkpt><trkpt lat="53.57293" lon="-2.0114367"><ele>247.8</ele><time>2026-05-03T15:49:39.782Z</time></trkpt><trkpt lat="53.5729733" lon="-2.0113567"><ele>248.6</ele><time>2026-05-03T15:49:40.783Z</time></trkpt><trkpt lat="53.5730383" lon="-2.0112783"><ele>249.40000000000003</ele><time>2026-05-03T15:49:41.782Z</time></trkpt><trkpt lat="53.573115" lon="-2.0111933"><ele>250.20000000000002</ele><time>2026-05-03T15:49:42.783Z</time></trkpt><trkpt lat="53.5732133" lon="-2.01108"><ele>251.0</ele><time>2026-05-03T15:49:43.782Z</time></trkpt><trkpt lat="53.57332" lon="-2.0109433"><ele>253.0</ele><time>2026-05-03T15:49:44.782Z</time></trkpt><trkpt lat="53.5734383" lon="-2.0108017"><ele>255.0</ele><time>2026-05-03T15:49:45.783Z</time></trkpt><trkpt lat="53.5735617" lon="-2.0106467"><ele>257.0</ele><time>2026-05-03T15:49:46.782Z</time></trkpt><trkpt lat="53.5736933" lon="-2.0104817"><ele>257.0</ele><time>2026-05-03T15:49:47.783Z</time></trkpt><trkpt lat="53.573825" lon="-2.0103083"><ele>257.0</ele><time>2026-05-03T15:49:48.783Z</time></trkpt><trkpt lat="53.57396" lon="-2.01012"><ele>257.0</ele><time>2026-05-03T15:49:49.784Z</time></trkpt><trkpt lat="53.574095" lon="-2.0099233"><ele>261.0</ele><time>2026-05-03T15:49:50.783Z</time></trkpt><trkpt lat="53.57423" lon="-2.009715"><ele>265.0</ele><time>2026-05-03T15:49:51.784Z</time></trkpt><trkpt lat="53.5743633" lon="-2.0094983"><ele>269.0</ele><time>2026-05-03T15:49:52.783Z</time></trkpt><trkpt lat="53.5744917" lon="-2.0092767"><ele>267.6666666666667</ele><time>2026-05-03T15:49:53.784Z</time></trkpt><trkpt lat="53.57462" lon="-2.00905"><ele>266.3333333333333</ele><time>2026-05-03T15:49:54.783Z</time></trkpt><trkpt lat="53.5747417" lon="-2.008815"><ele>265.0</ele><time>2026-05-03T15:49:55.783Z</time></trkpt><trkpt lat="53.57486" lon="-2.0085817"><ele>265.0</ele><time>2026-05-03T15:49:56.782Z</time></trkpt><trkpt lat="53.574975" lon="-2.0083417"><ele>265.0</ele><time>2026-05-03T15:49:57.783Z</time></trkpt><trkpt lat="53.5750833" lon="-2.0081033"><ele>265.0</ele><time>2026-05-03T15:49:58.786Z</time></trkpt><trkpt lat="53.57519" lon="-2.00786"><ele>266.66666666666663</ele><time>2026-05-03T15:49:59.782Z</time></trkpt><trkpt lat="53.575295" lon="-2.0076183"><ele>268.3333333333333</ele><time>2026-05-03T15:50:00.781Z</time></trkpt><trkpt lat="53.5754033" lon="-2.0073733"><ele>270.0</ele><time>2026-05-03T15:50:01.783Z</time></trkpt><trkpt lat="53.575515" lon="-2.0071317"><ele>270.0</ele><time>2026-05-03T15:50:02.782Z</time></trkpt><trkpt lat="53.5756367" lon="-2.0069017"><ele>270.0</ele><time>2026-05-03T15:50:03.783Z</time></trkpt><trkpt lat="53.575765" lon="-2.0066883"><ele>270.0</ele><time>2026-05-03T15:50:04.783Z</time></trkpt><trkpt lat="53.5759033" lon="-2.00651"><ele>270.6666666666667</ele><time>2026-05-03T15:50:05.783Z</time></trkpt><trkpt lat="53.5760417" lon="-2.0063317"><ele>271.33333333333337</ele><time>2026-05-03T15:50:06.782Z</time></trkpt><trkpt lat="53.5761817" lon="-2.0061617"><ele>272.0</ele><time>2026-05-03T15:50:07.782Z</time></trkpt><trkpt lat="53.5763167" lon="-2.0059833"><ele>275.6666666666667</ele><time>2026-05-03T15:50:08.783Z</time></trkpt><trkpt lat="53.5764517" lon="-2.0058067"><ele>279.3333333333333</ele><time>2026-05-03T15:50:09.782Z</time></trkpt><trkpt lat="53.5765867" lon="-2.0056317"><ele>283.0</ele><time>2026-05-03T15:50:10.783Z</time></trkpt><trkpt lat="53.5767233" lon="-2.0054517"><ele>283.0</ele><time>2026-05-03T15:50:11.783Z</time></trkpt><trkpt lat="53.5768583" lon="-2.0052583"><ele>283.0</ele><time>2026-05-03T15:50:12.782Z</time></trkpt><trkpt lat="53.5769867" lon="-2.0050483"><ele>283.0</ele><time>2026-05-03T15:50:13.783Z</time></trkpt><trkpt lat="53.5771117" lon="-2.0048217"><ele>282.0</ele><time>2026-05-03T15:50:14.782Z</time></trkpt><trkpt lat="53.5772233" lon="-2.0045817"><ele>281.0</ele><time>2026-05-03T15:50:15.782Z</time></trkpt><trkpt lat="53.5773283" lon="-2.004325"><ele>280.0</ele><time>2026-05-03T15:50:16.782Z</time></trkpt><trkpt lat="53.5774233" lon="-2.004055"><ele>282.3333333333333</ele><time>2026-05-03T15:50:17.783Z</time></trkpt><trkpt lat="53.57751" lon="-2.0037733"><ele>284.6666666666667</ele><time>2026-05-03T15:50:18.786Z</time></trkpt><trkpt lat="53.5775917" lon="-2.003485"><ele>287.0</ele><time>2026-05-03T15:50:19.783Z</time></trkpt><trkpt lat="53.57767" lon="-2.0032"><ele>288.0</ele><time>2026-05-03T15:50:20.781Z</time></trkpt><trkpt lat="53.5777517" lon="-2.00291"><ele>289.0</ele><time>2026-05-03T15:50:21.783Z</time></trkpt><trkpt lat="53.57784" lon="-2.002625"><ele>290.0</ele><time>2026-05-03T15:50:22.783Z</time></trkpt><trkpt lat="53.57793" lon="-2.0023467"><ele>290.0</ele><time>2026-05-03T15:50:23.782Z</time></trkpt><trkpt lat="53.578025" lon="-2.002075"><ele>290.0</ele><time>2026-05-03T15:50:24.782Z</time></trkpt><trkpt lat="53.5781233" lon="-2.0018117"><ele>290.0</ele><time>2026-05-03T15:50:25.786Z</time></trkpt><trkpt lat="53.5782217" lon="-2.00155"><ele>292.6666666666667</ele><time>2026-05-03T15:50:26.784Z</time></trkpt><trkpt lat="53.5783167" lon="-2.00129"><ele>295.3333333333333</ele><time>2026-05-03T15:50:27.781Z</time></trkpt><trkpt lat="53.5784067" lon="-2.0010233"><ele>298.0</ele><time>2026-05-03T15:50:28.786Z</time></trkpt><trkpt lat="53.5784883" lon="-2.00075"><ele>300.3333333333333</ele><time>2026-05-03T15:50:29.787Z</time></trkpt><trkpt lat="53.5785617" lon="-2.0004683"><ele>302.6666666666667</ele><time>2026-05-03T15:50:30.783Z</time></trkpt><trkpt lat="53.5786217" lon="-2.0001783"><ele>305.0</ele><time>2026-05-03T15:50:31.783Z</time></trkpt><trkpt lat="53.5786767" lon="-1.9998817"><ele>301.0</ele><time>2026-05-03T15:50:32.783Z</time></trkpt><trkpt lat="53.5787267" lon="-1.9995833"><ele>297.0</ele><time>2026-05-03T15:50:33.783Z</time></trkpt><trkpt lat="53.5787683" lon="-1.99928"><ele>293.0</ele><time>2026-05-03T15:50:34.783Z</time></trkpt><trkpt lat="53.5788033" lon="-1.9989717"><ele>293.0</ele><time>2026-05-03T15:50:35.782Z</time></trkpt><trkpt lat="53.5788333" lon="-1.99866"><ele>293.0</ele><time>2026-05-03T15:50:36.782Z</time></trkpt><trkpt lat="53.5788617" lon="-1.9983483"><ele>293.0</ele><time>2026-05-03T15:50:37.783Z</time></trkpt><trkpt lat="53.57889" lon="-1.998035"><ele>293.6666666666667</ele><time>2026-05-03T15:50:38.783Z</time></trkpt><trkpt lat="53.5789217" lon="-1.9977217"><ele>294.3333333333333</ele><time>2026-05-03T15:50:39.783Z</time></trkpt><trkpt lat="53.5789567" lon="-1.9974083"><ele>295.0</ele><time>2026-05-03T15:50:40.782Z</time></trkpt><trkpt lat="53.5789983" lon="-1.9971017"><ele>296.3333333333333</ele><time>2026-05-03T15:50:41.783Z</time></trkpt><trkpt lat="53.5790483" lon="-1.9968083"><ele>297.6666666666667</ele><time>2026-05-03T15:50:42.782Z</time></trkpt><trkpt lat="53.5791033" lon="-1.9965217"><ele>299.0</ele><time>2026-05-03T15:50:43.782Z</time></trkpt><trkpt lat="53.5791717" lon="-1.996245"><ele>300.33333333333337</ele><time>2026-05-03T15:50:44.786Z</time></trkpt><trkpt lat="53.57926" lon="-1.99599"><ele>301.6666666666667</ele><time>2026-05-03T15:50:45.782Z</time></trkpt><trkpt lat="53.5793683" lon="-1.9957517"><ele>303.0</ele><time>2026-05-03T15:50:46.783Z</time></trkpt><trkpt lat="53.5794933" lon="-1.9955367"><ele>302.6666666666667</ele><time>2026-05-03T15:50:47.782Z</time></trkpt><trkpt lat="53.5796183" lon="-1.995325"><ele>302.33333333333337</ele><time>2026-05-03T15:50:48.783Z</time></trkpt><trkpt lat="53.5797383" lon="-1.9951233"><ele>302.0</ele><time>2026-05-03T15:50:49.785Z</time></trkpt><trkpt lat="53.5798467" lon="-1.9949183"><ele>302.0</ele><time>2026-05-03T15:50:50.783Z</time></trkpt><trkpt lat="53.5799533" lon="-1.9946933"><ele>302.0</ele><time>2026-05-03T15:50:51.782Z</time></trkpt><trkpt lat="53.5800617" lon="-1.9944583"><ele>302.0</ele><time>2026-05-03T15:50:52.783Z</time></trkpt><trkpt lat="53.580165" lon="-1.9942067"><ele>303.0</ele><time>2026-05-03T15:50:53.785Z</time></trkpt><trkpt lat="53.58027" lon="-1.99395"><ele>304.0</ele><time>2026-05-03T15:50:54.782Z</time></trkpt><trkpt lat="53.5803733" lon="-1.9936917"><ele>305.0</ele><time>2026-05-03T15:50:55.783Z</time></trkpt><trkpt lat="53.5804733" lon="-1.9934317"><ele>306.0</ele><time>2026-05-03T15:50:56.783Z</time></trkpt><trkpt lat="53.580575" lon="-1.993175"><ele>307.0</ele><time>2026-05-03T15:50:57.782Z</time></trkpt><trkpt lat="53.5806733" lon="-1.9929167"><ele>308.0</ele><time>2026-05-03T15:50:58.783Z</time></trkpt><trkpt lat="53.5807717" lon="-1.9926583"><ele>307.0</ele><time>2026-05-03T15:50:59.782Z</time></trkpt><trkpt lat="53.5808667" lon="-1.9924033"><ele>306.0</ele><time>2026-05-03T15:51:00.783Z</time></trkpt><trkpt lat="53.5809633" lon="-1.9921483"><ele>305.0</ele><time>2026-05-03T15:51:01.783Z</time></trkpt><trkpt lat="53.58106" lon="-1.9918917"><ele>302.33333333333337</ele><time>2026-05-03T15:51:02.782Z</time></trkpt><trkpt lat="53.5811533" lon="-1.9916367"><ele>299.6666666666667</ele><time>2026-05-03T15:51:03.783Z</time></trkpt><trkpt lat="53.5812467" lon="-1.9913817"><ele>297.0</ele><time>2026-05-03T15:51:04.781Z</time></trkpt><trkpt lat="53.5813417" lon="-1.9911317"><ele>302.6666666666667</ele><time>2026-05-03T15:51:05.782Z</time></trkpt><trkpt lat="53.5814367" lon="-1.9908783"><ele>308.33333333333337</ele><time>2026-05-03T15:51:06.783Z</time></trkpt><trkpt lat="53.5815317" lon="-1.9906267"><ele>314.0</ele><time>2026-05-03T15:51:07.782Z</time></trkpt><trkpt lat="53.5816317" lon="-1.9903783"><ele>314.0</ele><time>2026-05-03T15:51:08.784Z</time></trkpt><trkpt lat="53.5817317" lon="-1.9901283"><ele>314.0</ele><time>2026-05-03T15:51:09.782Z</time></trkpt><trkpt lat="53.581835" lon="-1.98988"><ele>314.0</ele><time>2026-05-03T15:51:10.783Z</time></trkpt><trkpt lat="53.5819367" lon="-1.9896367"><ele>317.0</ele><time>2026-05-03T15:51:11.782Z</time></trkpt><trkpt lat="53.58204" lon="-1.989415"><ele>320.0</ele><time>2026-05-03T15:51:12.787Z</time></trkpt><trkpt lat="53.5821417" lon="-1.989205"><ele>323.0</ele><time>2026-05-03T15:51:13.783Z</time></trkpt><trkpt lat="53.58225" lon="-1.98901"><ele>323.0</ele><time>2026-05-03T15:51:14.787Z</time></trkpt><trkpt lat="53.5823667" lon="-1.988825"><ele>323.0</ele><time>2026-05-03T15:51:15.782Z</time></trkpt><trkpt lat="53.5824917" lon="-1.9886433"><ele>323.0</ele><time>2026-05-03T15:51:16.783Z</time></trkpt><trkpt lat="53.58262" lon="-1.9884633"><ele>326.33333333333337</ele><time>2026-05-03T15:51:17.783Z</time></trkpt><trkpt lat="53.5827483" lon="-1.9882833"><ele>329.6666666666667</ele><time>2026-05-03T15:51:18.783Z</time></trkpt><trkpt lat="53.5828767" lon="-1.9881017"><ele>333.0</ele><time>2026-05-03T15:51:19.783Z</time></trkpt><trkpt lat="53.583005" lon="-1.9879267"><ele>333.0</ele><time>2026-05-03T15:51:20.782Z</time></trkpt><trkpt lat="53.5831267" lon="-1.98776"><ele>333.0</ele><time>2026-05-03T15:51:21.781Z</time></trkpt><trkpt lat="53.5832467" lon="-1.9876"><ele>333.0</ele><time>2026-05-03T15:51:22.782Z</time></trkpt><trkpt lat="53.5833617" lon="-1.9874383"><ele>331.0</ele><time>2026-05-03T15:51:23.783Z</time></trkpt><trkpt lat="53.583475" lon="-1.9872867"><ele>329.0</ele><time>2026-05-03T15:51:24.781Z</time></trkpt><trkpt lat="53.58358" lon="-1.9871333"><ele>327.0</ele><time>2026-05-03T15:51:25.782Z</time></trkpt><trkpt lat="53.5836733" lon="-1.986965"><ele>325.0</ele><time>2026-05-03T15:51:26.782Z</time></trkpt><trkpt lat="53.583755" lon="-1.98678"><ele>327.5</ele><time>2026-05-03T15:51:27.783Z</time></trkpt><trkpt lat="53.5838233" lon="-1.986565"><ele>330.0</ele><time>2026-05-03T15:51:28.783Z</time></trkpt><trkpt lat="53.5838767" lon="-1.98633"><ele>332.5</ele><time>2026-05-03T15:51:29.782Z</time></trkpt><trkpt lat="53.5839133" lon="-1.9860867"><ele>335.0</ele><time>2026-05-03T15:51:30.782Z</time></trkpt><trkpt lat="53.5839417" lon="-1.98585"><ele>334.5</ele><time>2026-05-03T15:51:31.782Z</time></trkpt><trkpt lat="53.5839567" lon="-1.9856133"><ele>334.0</ele><time>2026-05-03T15:51:32.783Z</time></trkpt><trkpt lat="53.5839567" lon="-1.9853817"><ele>333.5</ele><time>2026-05-03T15:51:33.783Z</time></trkpt><trkpt lat="53.583935" lon="-1.9851467"><ele>333.0</ele><time>2026-05-03T15:51:34.782Z</time></trkpt><trkpt lat="53.5838883" lon="-1.984915"><ele>333.0</ele><time>2026-05-03T15:51:35.782Z</time></trkpt><trkpt lat="53.5838217" lon="-1.9846917"><ele>333.0</ele><time>2026-05-03T15:51:36.783Z</time></trkpt><trkpt lat="53.58374" lon="-1.9844833"><ele>333.0</ele><time>2026-05-03T15:51:37.782Z</time></trkpt><trkpt lat="53.583655" lon="-1.9842883"><ele>333.0</ele><time>2026-05-03T15:51:38.782Z</time></trkpt><trkpt lat="53.5835633" lon="-1.9841033"><ele>332.75</ele><time>2026-05-03T15:51:39.783Z</time></trkpt><trkpt lat="53.58346" lon="-1.9839233"><ele>332.5</ele><time>2026-05-03T15:51:40.783Z</time></trkpt><trkpt lat="53.5833417" lon="-1.983765"><ele>332.25</ele><time>2026-05-03T15:51:41.783Z</time></trkpt><trkpt lat="53.5832117" lon="-1.9836467"><ele>332.0</ele><time>2026-05-03T15:51:42.783Z</time></trkpt><trkpt lat="53.58306" lon="-1.9835717"><ele>332.0</ele><time>2026-05-03T15:51:43.782Z</time></trkpt><trkpt lat="53.5828967" lon="-1.98352"><ele>332.0</ele><time>2026-05-03T15:51:44.784Z</time></trkpt><trkpt lat="53.5827317" lon="-1.9834867"><ele>332.0</ele><time>2026-05-03T15:51:45.782Z</time></trkpt><trkpt lat="53.58256" lon="-1.9834783"><ele>331.0</ele><time>2026-05-03T15:51:46.783Z</time></trkpt><trkpt lat="53.582395" lon="-1.9834767"><ele>330.0</ele><time>2026-05-03T15:51:47.784Z</time></trkpt><trkpt lat="53.58224" lon="-1.9834717"><ele>329.0</ele><time>2026-05-03T15:51:48.782Z</time></trkpt><trkpt lat="53.58208" lon="-1.9834717"><ele>329.25</ele><time>2026-05-03T15:51:49.782Z</time></trkpt><trkpt lat="53.5819267" lon="-1.983465"><ele>329.5</ele><time>2026-05-03T15:51:50.783Z</time></trkpt><trkpt lat="53.5817833" lon="-1.98346"><ele>329.75</ele><time>2026-05-03T15:51:51.783Z</time></trkpt><trkpt lat="53.5816483" lon="-1.98346"><ele>330.0</ele><time>2026-05-03T15:51:52.784Z</time></trkpt><trkpt lat="53.5815183" lon="-1.9834567"><ele>330.0</ele><time>2026-05-03T15:51:53.783Z</time></trkpt><trkpt lat="53.5813917" lon="-1.9834367"><ele>330.0</ele><time>2026-05-03T15:51:54.787Z</time></trkpt><trkpt lat="53.5812633" lon="-1.9833983"><ele>330.0</ele><time>2026-05-03T15:51:55.782Z</time></trkpt><trkpt lat="53.5811317" lon="-1.9833433"><ele>330.0</ele><time>2026-05-03T15:51:56.783Z</time></trkpt><trkpt lat="53.580995" lon="-1.9832717"><ele>333.5</ele><time>2026-05-03T15:51:57.782Z</time></trkpt><trkpt lat="53.5808633" lon="-1.9831733"><ele>337.0</ele><time>2026-05-03T15:51:58.786Z</time></trkpt><trkpt lat="53.580745" lon="-1.9830683"><ele>340.5</ele><time>2026-05-03T15:51:59.787Z</time></trkpt><trkpt lat="53.5806333" lon="-1.98296"><ele>344.0</ele><time>2026-05-03T15:52:00.787Z</time></trkpt><trkpt lat="53.5805233" lon="-1.98285"><ele>344.0</ele><time>2026-05-03T15:52:01.783Z</time></trkpt><trkpt lat="53.580415" lon="-1.9827383"><ele>344.0</ele><time>2026-05-03T15:52:02.786Z</time></trkpt><trkpt lat="53.5803117" lon="-1.9826283"><ele>344.0</ele><time>2026-05-03T15:52:03.783Z</time></trkpt><trkpt lat="53.580215" lon="-1.9825183"><ele>344.0</ele><time>2026-05-03T15:52:04.786Z</time></trkpt><trkpt lat="53.580125" lon="-1.9824017"><ele>344.79999999999995</ele><time>2026-05-03T15:52:05.786Z</time></trkpt><trkpt lat="53.58004" lon="-1.9822783"><ele>345.59999999999997</ele><time>2026-05-03T15:52:06.782Z</time></trkpt><trkpt lat="53.579965" lon="-1.9821467"><ele>346.4</ele><time>2026-05-03T15:52:07.783Z</time></trkpt><trkpt lat="53.5799083" lon="-1.9820033"><ele>347.2</ele><time>2026-05-03T15:52:08.783Z</time></trkpt><trkpt lat="53.5798717" lon="-1.9818433"><ele>348.0</ele><time>2026-05-03T15:52:09.782Z</time></trkpt><trkpt lat="53.579855" lon="-1.98166"><ele>349.75</ele><time>2026-05-03T15:52:10.782Z</time></trkpt><trkpt lat="53.5798583" lon="-1.9814567"><ele>351.5</ele><time>2026-05-03T15:52:11.781Z</time></trkpt><trkpt lat="53.579875" lon="-1.9812367"><ele>353.25</ele><time>2026-05-03T15:52:12.786Z</time></trkpt><trkpt lat="53.5799033" lon="-1.9810167"><ele>355.0</ele><time>2026-05-03T15:52:13.783Z</time></trkpt><trkpt lat="53.579945" lon="-1.9808033"><ele>355.0</ele><time>2026-05-03T15:52:14.783Z</time></trkpt><trkpt lat="53.5800017" lon="-1.9806"><ele>355.0</ele><time>2026-05-03T15:52:15.782Z</time></trkpt><trkpt lat="53.5800683" lon="-1.9804"><ele>355.0</ele><time>2026-05-03T15:52:16.787Z</time></trkpt><trkpt lat="53.58014" lon="-1.9802017"><ele>355.0</ele><time>2026-05-03T15:52:17.784Z</time></trkpt><trkpt lat="53.5802033" lon="-1.9799967"><ele>355.0</ele><time>2026-05-03T15:52:18.784Z</time></trkpt><trkpt lat="53.5802717" lon="-1.9797833"><ele>355.0</ele><time>2026-05-03T15:52:19.784Z</time></trkpt><trkpt lat="53.5803467" lon="-1.9795583"><ele>355.0</ele><time>2026-05-03T15:52:20.783Z</time></trkpt><trkpt lat="53.5804233" lon="-1.97932"><ele>359.3333333333333</ele><time>2026-05-03T15:52:21.783Z</time></trkpt><trkpt lat="53.5804983" lon="-1.979075"><ele>363.6666666666667</ele><time>2026-05-03T15:52:22.784Z</time></trkpt><trkpt lat="53.58057" lon="-1.9788317"><ele>368.0</ele><time>2026-05-03T15:52:23.783Z</time></trkpt><trkpt lat="53.58064" lon="-1.9785917"><ele>367.6666666666667</ele><time>2026-05-03T15:52:24.783Z</time></trkpt><trkpt lat="53.580705" lon="-1.9783483"><ele>367.3333333333333</ele><time>2026-05-03T15:52:25.783Z</time></trkpt><trkpt lat="53.5807717" lon="-1.9780917"><ele>367.0</ele><time>2026-05-03T15:52:26.782Z</time></trkpt><trkpt lat="53.5808433" lon="-1.9778133"><ele>367.0</ele><time>2026-05-03T15:52:27.783Z</time></trkpt><trkpt lat="53.5809217" lon="-1.9775233"><ele>367.0</ele><time>2026-05-03T15:52:28.787Z</time></trkpt><trkpt lat="53.5810083" lon="-1.9772367"><ele>367.0</ele><time>2026-05-03T15:52:29.784Z</time></trkpt><trkpt lat="53.5810917" lon="-1.97696"><ele>366.3333333333333</ele><time>2026-05-03T15:52:30.786Z</time></trkpt><trkpt lat="53.5811733" lon="-1.9767"><ele>365.6666666666667</ele><time>2026-05-03T15:52:31.783Z</time></trkpt><trkpt lat="53.58125" lon="-1.9764483"><ele>365.0</ele><time>2026-05-03T15:52:32.782Z</time></trkpt><trkpt lat="53.5813233" lon="-1.976205"><ele>369.6666666666667</ele><time>2026-05-03T15:52:33.783Z</time></trkpt><trkpt lat="53.5813983" lon="-1.9759633"><ele>374.3333333333333</ele><time>2026-05-03T15:52:34.782Z</time></trkpt><trkpt lat="53.5814717" lon="-1.975725"><ele>379.0</ele><time>2026-05-03T15:52:35.783Z</time></trkpt><trkpt lat="53.581545" lon="-1.9754833"><ele>379.0</ele><time>2026-05-03T15:52:36.782Z</time></trkpt><trkpt lat="53.581615" lon="-1.975245"><ele>379.0</ele><time>2026-05-03T15:52:37.783Z</time></trkpt><trkpt lat="53.5816883" lon="-1.9750117"><ele>379.0</ele><time>2026-05-03T15:52:38.781Z</time></trkpt><trkpt lat="53.5817617" lon="-1.9747783"><ele>379.0</ele><time>2026-05-03T15:52:39.782Z</time></trkpt><trkpt lat="53.5818367" lon="-1.9745517"><ele>379.0</ele><time>2026-05-03T15:52:40.787Z</time></trkpt><trkpt lat="53.58191" lon="-1.9743267"><ele>379.0</ele><time>2026-05-03T15:52:41.783Z</time></trkpt><trkpt lat="53.5819817" lon="-1.9740983"><ele>381.0</ele><time>2026-05-03T15:52:42.786Z</time></trkpt><trkpt lat="53.5820533" lon="-1.97386"><ele>383.0</ele><time>2026-05-03T15:52:43.783Z</time></trkpt><trkpt lat="53.5821317" lon="-1.9736183"><ele>385.0</ele><time>2026-05-03T15:52:44.787Z</time></trkpt><trkpt lat="53.5822117" lon="-1.9733733"><ele>386.0</ele><time>2026-05-03T15:52:45.782Z</time></trkpt><trkpt lat="53.5822917" lon="-1.9731333"><ele>387.0</ele><time>2026-05-03T15:52:46.782Z</time></trkpt><trkpt lat="53.58237" lon="-1.97289"><ele>388.0</ele><time>2026-05-03T15:52:47.783Z</time></trkpt><trkpt lat="53.5824467" lon="-1.9726517"><ele>389.0</ele><time>2026-05-03T15:52:48.782Z</time></trkpt><trkpt lat="53.5825167" lon="-1.97242"><ele>390.0</ele><time>2026-05-03T15:52:49.783Z</time></trkpt><trkpt lat="53.582585" lon="-1.97219"><ele>391.0</ele><time>2026-05-03T15:52:50.782Z</time></trkpt><trkpt lat="53.5826567" lon="-1.9719567"><ele>391.0</ele><time>2026-05-03T15:52:51.783Z</time></trkpt><trkpt lat="53.5827333" lon="-1.97172"><ele>391.0</ele><time>2026-05-03T15:52:52.783Z</time></trkpt><trkpt lat="53.5828117" lon="-1.971475"><ele>391.0</ele><time>2026-05-03T15:52:53.783Z</time></trkpt><trkpt lat="53.5828883" lon="-1.9712233"><ele>393.0</ele><time>2026-05-03T15:52:54.782Z</time></trkpt><trkpt lat="53.582965" lon="-1.9709833"><ele>395.0</ele><time>2026-05-03T15:52:55.783Z</time></trkpt><trkpt lat="53.5830417" lon="-1.970745"><ele>397.0</ele><time>2026-05-03T15:52:56.783Z</time></trkpt><trkpt lat="53.583115" lon="-1.9704933"><ele>397.0</ele><time>2026-05-03T15:52:57.782Z</time></trkpt><trkpt lat="53.5831867" lon="-1.9702433"><ele>397.0</ele><time>2026-05-03T15:52:58.782Z</time></trkpt><trkpt lat="53.5832617" lon="-1.969995"><ele>397.0</ele><time>2026-05-03T15:52:59.782Z</time></trkpt><trkpt lat="53.58334" lon="-1.9697483"><ele>396.6666666666667</ele><time>2026-05-03T15:53:00.785Z</time></trkpt><trkpt lat="53.5834167" lon="-1.9695083"><ele>396.33333333333337</ele><time>2026-05-03T15:53:01.786Z</time></trkpt><trkpt lat="53.5834967" lon="-1.96927"><ele>396.0</ele><time>2026-05-03T15:53:02.783Z</time></trkpt><trkpt lat="53.58358" lon="-1.9690267"><ele>396.0</ele><time>2026-05-03T15:53:03.783Z</time></trkpt><trkpt lat="53.5836683" lon="-1.9687833"><ele>396.0</ele><time>2026-05-03T15:53:04.786Z</time></trkpt><trkpt lat="53.583765" lon="-1.9685383"><ele>396.0</ele><time>2026-05-03T15:53:05.782Z</time></trkpt><trkpt lat="53.58387" lon="-1.968295"><ele>394.0</ele><time>2026-05-03T15:53:06.786Z</time></trkpt><trkpt lat="53.5839783" lon="-1.9680467"><ele>392.0</ele><time>2026-05-03T15:53:07.785Z</time></trkpt><trkpt lat="53.5840867" lon="-1.9678017"><ele>390.0</ele><time>2026-05-03T15:53:08.781Z</time></trkpt><trkpt lat="53.5841983" lon="-1.96756"><ele>388.33333333333337</ele><time>2026-05-03T15:53:09.781Z</time></trkpt><trkpt lat="53.584315" lon="-1.9673217"><ele>386.6666666666667</ele><time>2026-05-03T15:53:10.782Z</time></trkpt><trkpt lat="53.5844333" lon="-1.9670867"><ele>385.0</ele><time>2026-05-03T15:53:11.783Z</time></trkpt><trkpt lat="53.5845533" lon="-1.9668517"><ele>382.6666666666667</ele><time>2026-05-03T15:53:12.788Z</time></trkpt><trkpt lat="53.5846717" lon="-1.966615"><ele>380.33333333333337</ele><time>2026-05-03T15:53:13.782Z</time></trkpt><trkpt lat="53.58479" lon="-1.966385"><ele>378.0</ele><time>2026-05-03T15:53:14.781Z</time></trkpt><trkpt lat="53.584905" lon="-1.96616"><ele>378.0</ele><time>2026-05-03T15:53:15.781Z</time></trkpt><trkpt lat="53.58502" lon="-1.9659283"><ele>378.0</ele><time>2026-05-03T15:53:16.782Z</time></trkpt><trkpt lat="53.5851433" lon="-1.9656817"><ele>378.0</ele><time>2026-05-03T15:53:17.782Z</time></trkpt><trkpt lat="53.5852667" lon="-1.9654117"><ele>375.6666666666667</ele><time>2026-05-03T15:53:18.783Z</time></trkpt><trkpt lat="53.5854017" lon="-1.9651333"><ele>373.33333333333337</ele><time>2026-05-03T15:53:19.782Z</time></trkpt><trkpt lat="53.5855567" lon="-1.9648417"><ele>371.0</ele><time>2026-05-03T15:53:20.783Z</time></trkpt><trkpt lat="53.5857183" lon="-1.9645333"><ele>368.0</ele><time>2026-05-03T15:53:21.782Z</time></trkpt><trkpt lat="53.58589" lon="-1.9642133"><ele>365.0</ele><time>2026-05-03T15:53:22.785Z</time></trkpt><trkpt lat="53.5860633" lon="-1.9638883"><ele>363.0</ele><time>2026-05-03T15:53:23.782Z</time></trkpt><trkpt lat="53.5862333" lon="-1.9635667"><ele>361.0</ele><time>2026-05-03T15:53:24.782Z</time></trkpt><trkpt lat="53.5863983" lon="-1.963255"><ele>358.0</ele><time>2026-05-03T15:53:25.782Z</time></trkpt><trkpt lat="53.5865533" lon="-1.9629517"><ele>355.0</ele><time>2026-05-03T15:53:26.783Z</time></trkpt><trkpt lat="53.5867033" lon="-1.962665"><ele>353.66666666666663</ele><time>2026-05-03T15:53:27.782Z</time></trkpt><trkpt lat="53.5868433" lon="-1.9623883"><ele>352.3333333333333</ele><time>2026-05-03T15:53:28.784Z</time></trkpt><trkpt lat="53.5869833" lon="-1.96212"><ele>351.0</ele><time>2026-05-03T15:53:29.784Z</time></trkpt><trkpt lat="53.58712" lon="-1.9618483"><ele>348.0</ele><time>2026-05-03T15:53:30.783Z</time></trkpt><trkpt lat="53.5872583" lon="-1.961575"><ele>345.0</ele><time>2026-05-03T15:53:31.783Z</time></trkpt><trkpt lat="53.5873983" lon="-1.9613017"><ele>342.0</ele><time>2026-05-03T15:53:32.784Z</time></trkpt><trkpt lat="53.58754" lon="-1.961025"><ele>343.3333333333333</ele><time>2026-05-03T15:53:33.782Z</time></trkpt><trkpt lat="53.5876833" lon="-1.9607517"><ele>344.66666666666663</ele><time>2026-05-03T15:53:34.784Z</time></trkpt><trkpt lat="53.58783" lon="-1.9604883"><ele>346.0</ele><time>2026-05-03T15:53:35.783Z</time></trkpt><trkpt lat="53.587985" lon="-1.960235"><ele>345.3333333333333</ele><time>2026-05-03T15:53:36.783Z</time></trkpt><trkpt lat="53.5881467" lon="-1.959995"><ele>344.6666666666667</ele><time>2026-05-03T15:53:37.784Z</time></trkpt><trkpt lat="53.588315" lon="-1.9597733"><ele>344.0</ele><time>2026-05-03T15:53:38.783Z</time></trkpt><trkpt lat="53.5884933" lon="-1.9595683"><ele>342.6666666666667</ele><time>2026-05-03T15:53:39.784Z</time></trkpt><trkpt lat="53.5886817" lon="-1.95937"><ele>341.3333333333333</ele><time>2026-05-03T15:53:40.783Z</time></trkpt><trkpt lat="53.5888783" lon="-1.9591833"><ele>340.0</ele><time>2026-05-03T15:53:41.783Z</time></trkpt><trkpt lat="53.589085" lon="-1.9590083"><ele>340.0</ele><time>2026-05-03T15:53:42.784Z</time></trkpt><trkpt lat="53.5893" lon="-1.9588517"><ele>340.0</ele><time>2026-05-03T15:53:43.784Z</time></trkpt><trkpt lat="53.5895233" lon="-1.9587083"><ele>336.5</ele><time>2026-05-03T15:53:44.784Z</time></trkpt><trkpt lat="53.5897583" lon="-1.95859"><ele>333.0</ele><time>2026-05-03T15:53:45.787Z</time></trkpt><trkpt lat="53.59" lon="-1.9585017"><ele>333.0</ele><time>2026-05-03T15:53:46.788Z</time></trkpt><trkpt lat="53.5902417" lon="-1.9584383"><ele>333.0</ele><time>2026-05-03T15:53:47.788Z</time></trkpt><trkpt lat="53.590485" lon="-1.9583867"><ele>333.0</ele><time>2026-05-03T15:53:48.783Z</time></trkpt><trkpt lat="53.5907283" lon="-1.9583333"><ele>333.0</ele><time>2026-05-03T15:53:49.783Z</time></trkpt><trkpt lat="53.5909733" lon="-1.958285"><ele>330.5</ele><time>2026-05-03T15:53:50.784Z</time></trkpt><trkpt lat="53.59122" lon="-1.95823"><ele>328.0</ele><time>2026-05-03T15:53:51.783Z</time></trkpt><trkpt lat="53.5914667" lon="-1.95817"><ele>328.0</ele><time>2026-05-03T15:53:52.783Z</time></trkpt><trkpt lat="53.5917083" lon="-1.9581033"><ele>328.0</ele><time>2026-05-03T15:53:53.784Z</time></trkpt><trkpt lat="53.591945" lon="-1.95803"><ele>324.5</ele><time>2026-05-03T15:53:54.783Z</time></trkpt><trkpt lat="53.59217" lon="-1.95796"><ele>321.0</ele><time>2026-05-03T15:53:55.784Z</time></trkpt><trkpt lat="53.59239" lon="-1.95789"><ele>321.0</ele><time>2026-05-03T15:53:56.785Z</time></trkpt><trkpt lat="53.5926067" lon="-1.957825"><ele>321.0</ele><time>2026-05-03T15:53:57.783Z</time></trkpt><trkpt lat="53.59282" lon="-1.95776"><ele>321.0</ele><time>2026-05-03T15:53:58.784Z</time></trkpt><trkpt lat="53.593035" lon="-1.957695"><ele>319.0</ele><time>2026-05-03T15:53:59.784Z</time></trkpt><trkpt lat="53.59325" lon="-1.957635"><ele>317.0</ele><time>2026-05-03T15:54:00.782Z</time></trkpt><trkpt lat="53.593465" lon="-1.9575767"><ele>315.0</ele><time>2026-05-03T15:54:01.785Z</time></trkpt><trkpt lat="53.5936817" lon="-1.9575233"><ele>315.0</ele><time>2026-05-03T15:54:02.787Z</time></trkpt><trkpt lat="53.5939" lon="-1.9574783"><ele>315.0</ele><time>2026-05-03T15:54:03.783Z</time></trkpt><trkpt lat="53.5941217" lon="-1.9574483"><ele>315.0</ele><time>2026-05-03T15:54:04.786Z</time></trkpt><trkpt lat="53.594345" lon="-1.9574317"><ele>313.6666666666667</ele><time>2026-05-03T15:54:05.784Z</time></trkpt><trkpt lat="53.59457" lon="-1.9574283"><ele>312.33333333333337</ele><time>2026-05-03T15:54:06.784Z</time></trkpt><trkpt lat="53.5947883" lon="-1.9574367"><ele>311.0</ele><time>2026-05-03T15:54:07.783Z</time></trkpt><trkpt lat="53.5949983" lon="-1.95745"><ele>311.0</ele><time>2026-05-03T15:54:08.784Z</time></trkpt><trkpt lat="53.5952" lon="-1.9574617"><ele>311.0</ele><time>2026-05-03T15:54:09.783Z</time></trkpt><trkpt lat="53.59539" lon="-1.9574767"><ele>311.0</ele><time>2026-05-03T15:54:10.785Z</time></trkpt><trkpt lat="53.595575" lon="-1.9574867"><ele>310.33333333333337</ele><time>2026-05-03T15:54:11.786Z</time></trkpt><trkpt lat="53.59576" lon="-1.9574933"><ele>309.6666666666667</ele><time>2026-05-03T15:54:12.783Z</time></trkpt><trkpt lat="53.5959517" lon="-1.9575067"><ele>309.0</ele><time>2026-05-03T15:54:13.784Z</time></trkpt><trkpt lat="53.5961433" lon="-1.957515"><ele>307.6666666666667</ele><time>2026-05-03T15:54:14.787Z</time></trkpt><trkpt lat="53.5963367" lon="-1.9575267"><ele>306.33333333333337</ele><time>2026-05-03T15:54:15.783Z</time></trkpt><trkpt lat="53.5965267" lon="-1.9575383"><ele>305.0</ele><time>2026-05-03T15:54:16.784Z</time></trkpt><trkpt lat="53.5967117" lon="-1.95755"><ele>301.33333333333337</ele><time>2026-05-03T15:54:17.783Z</time></trkpt><trkpt lat="53.59689" lon="-1.9575633"><ele>297.6666666666667</ele><time>2026-05-03T15:54:18.783Z</time></trkpt><trkpt lat="53.5970633" lon="-1.9575767"><ele>294.0</ele><time>2026-05-03T15:54:19.784Z</time></trkpt><trkpt lat="53.59723" lon="-1.9575933"><ele>292.3333333333333</ele><time>2026-05-03T15:54:20.784Z</time></trkpt><trkpt lat="53.59739" lon="-1.957605"><ele>290.66666666666663</ele><time>2026-05-03T15:54:21.783Z</time></trkpt><trkpt lat="53.5975467" lon="-1.9576117"><ele>289.0</ele><time>2026-05-03T15:54:22.783Z</time></trkpt><trkpt lat="53.5977" lon="-1.9576233"><ele>288.0</ele><time>2026-05-03T15:54:23.784Z</time></trkpt><trkpt lat="53.5978433" lon="-1.957635"><ele>287.0</ele><time>2026-05-03T15:54:24.787Z</time></trkpt><trkpt lat="53.5979783" lon="-1.9576517"><ele>286.0</ele><time>2026-05-03T15:54:25.784Z</time></trkpt><trkpt lat="53.5981017" lon="-1.95767"><ele>285.0</ele><time>2026-05-03T15:54:26.782Z</time></trkpt><trkpt lat="53.598215" lon="-1.9576783"><ele>285.0</ele><time>2026-05-03T15:54:27.787Z</time></trkpt><trkpt lat="53.5983183" lon="-1.95769"><ele>285.0</ele><time>2026-05-03T15:54:28.783Z</time></trkpt><trkpt lat="53.598415" lon="-1.9576983"><ele>285.0</ele><time>2026-05-03T15:54:29.783Z</time></trkpt><trkpt lat="53.5984967" lon="-1.9577067"><ele>285.0</ele><time>2026-05-03T15:54:30.79Z</time></trkpt><trkpt lat="53.598565" lon="-1.9577167"><ele>285.0</ele><time>2026-05-03T15:54:31.786Z</time></trkpt><trkpt lat="53.5986633" lon="-1.9577267"><ele>285.0</ele><time>2026-05-03T15:54:33.783Z</time></trkpt><trkpt lat="53.59874" lon="-1.9577267"><ele>285.0</ele><time>2026-05-03T15:54:36.785Z</time></trkpt><trkpt lat="53.5987183" lon="-1.95762"><ele>285.0</ele><time>2026-05-03T15:54:41.786Z</time></trkpt><trkpt lat="53.5986183" lon="-1.9576033"><ele>285.0</ele><time>2026-05-03T15:54:44.783Z</time></trkpt><trkpt lat="53.59851" lon="-1.9575883"><ele>285.0</ele><time>2026-05-03T15:54:46.788Z</time></trkpt><trkpt lat="53.5983767" lon="-1.9575783"><ele>285.0</ele><time>2026-05-03T15:54:48.784Z</time></trkpt><trkpt lat="53.598295" lon="-1.957575"><ele>285.0</ele><time>2026-05-03T15:54:49.784Z</time></trkpt><trkpt lat="53.5982033" lon="-1.9575667"><ele>285.0</ele><time>2026-05-03T15:54:50.787Z</time></trkpt><trkpt lat="53.598105" lon="-1.95756"><ele>285.0</ele><time>2026-05-03T15:54:51.784Z</time></trkpt><trkpt lat="53.598005" lon="-1.957555"><ele>285.0</ele><time>2026-05-03T15:54:52.786Z</time></trkpt><trkpt lat="53.5979117" lon="-1.95755"><ele>285.0</ele><time>2026-05-03T15:54:53.787Z</time></trkpt><trkpt lat="53.5978317" lon="-1.957545"><ele>285.6666666666667</ele><time>2026-05-03T15:54:54.786Z</time></trkpt><trkpt lat="53.597755" lon="-1.9575383"><ele>286.3333333333333</ele><time>2026-05-03T15:54:55.784Z</time></trkpt><trkpt lat="53.5976817" lon="-1.9575317"><ele>287.0</ele><time>2026-05-03T15:54:56.782Z</time></trkpt><trkpt lat="53.597605" lon="-1.9575233"><ele>287.66666666666663</ele><time>2026-05-03T15:54:57.786Z</time></trkpt><trkpt lat="53.59752" lon="-1.9575183"><ele>288.3333333333333</ele><time>2026-05-03T15:54:58.787Z</time></trkpt><trkpt lat="53.5974317" lon="-1.957515"><ele>289.0</ele><time>2026-05-03T15:54:59.787Z</time></trkpt><trkpt lat="53.5973383" lon="-1.9575117"><ele>291.2</ele><time>2026-05-03T15:55:00.787Z</time></trkpt><trkpt lat="53.5972417" lon="-1.95751"><ele>293.4</ele><time>2026-05-03T15:55:01.783Z</time></trkpt><trkpt lat="53.5971433" lon="-1.9575083"><ele>295.6</ele><time>2026-05-03T15:55:02.782Z</time></trkpt><trkpt lat="53.5970383" lon="-1.9575"><ele>297.8</ele><time>2026-05-03T15:55:03.782Z</time></trkpt><trkpt lat="53.5969217" lon="-1.9574867"><ele>300.0</ele><time>2026-05-03T15:55:04.787Z</time></trkpt><trkpt lat="53.5967883" lon="-1.9574733"><ele>301.25</ele><time>2026-05-03T15:55:05.783Z</time></trkpt><trkpt lat="53.5966517" lon="-1.9574617"><ele>302.5</ele><time>2026-05-03T15:55:06.787Z</time></trkpt><trkpt lat="53.59652" lon="-1.9574533"><ele>303.75</ele><time>2026-05-03T15:55:07.783Z</time></trkpt><trkpt lat="53.596395" lon="-1.9574467"><ele>305.0</ele><time>2026-05-03T15:55:08.784Z</time></trkpt><trkpt lat="53.5962817" lon="-1.9574417"><ele>306.0</ele><time>2026-05-03T15:55:09.786Z</time></trkpt><trkpt lat="53.5961683" lon="-1.9574333"><ele>307.0</ele><time>2026-05-03T15:55:10.783Z</time></trkpt><trkpt lat="53.5960417" lon="-1.9574233"><ele>308.0</ele><time>2026-05-03T15:55:11.784Z</time></trkpt><trkpt lat="53.595905" lon="-1.957415"><ele>309.0</ele><time>2026-05-03T15:55:12.786Z</time></trkpt><trkpt lat="53.5957583" lon="-1.95741"><ele>309.0</ele><time>2026-05-03T15:55:13.785Z</time></trkpt><trkpt lat="53.595605" lon="-1.9574033"><ele>309.0</ele><time>2026-05-03T15:55:14.786Z</time></trkpt><trkpt lat="53.5954567" lon="-1.9573983"><ele>309.0</ele><time>2026-05-03T15:55:15.787Z</time></trkpt><trkpt lat="53.59532" lon="-1.9573917"><ele>309.0</ele><time>2026-05-03T15:55:16.785Z</time></trkpt><trkpt lat="53.5951783" lon="-1.9573883"><ele>309.6666666666667</ele><time>2026-05-03T15:55:17.782Z</time></trkpt><trkpt lat="53.5950283" lon="-1.95738"><ele>310.33333333333337</ele><time>2026-05-03T15:55:18.783Z</time></trkpt><trkpt lat="53.5948633" lon="-1.9573733"><ele>311.0</ele><time>2026-05-03T15:55:19.784Z</time></trkpt><trkpt lat="53.5946817" lon="-1.9573667"><ele>312.33333333333337</ele><time>2026-05-03T15:55:20.785Z</time></trkpt><trkpt lat="53.594485" lon="-1.957365"><ele>313.6666666666667</ele><time>2026-05-03T15:55:21.783Z</time></trkpt><trkpt lat="53.5942783" lon="-1.9573733"><ele>315.0</ele><time>2026-05-03T15:55:22.786Z</time></trkpt><trkpt lat="53.5940667" lon="-1.9573933"><ele>315.0</ele><time>2026-05-03T15:55:23.784Z</time></trkpt><trkpt lat="53.5938567" lon="-1.9574233"><ele>315.0</ele><time>2026-05-03T15:55:24.784Z</time></trkpt><trkpt lat="53.5936533" lon="-1.9574667"><ele>315.0</ele><time>2026-05-03T15:55:25.784Z</time></trkpt><trkpt lat="53.59345" lon="-1.957515"><ele>314.6666666666667</ele><time>2026-05-03T15:55:26.785Z</time></trkpt><trkpt lat="53.5932517" lon="-1.95757"><ele>314.33333333333337</ele><time>2026-05-03T15:55:27.784Z</time></trkpt><trkpt lat="53.593055" lon="-1.9576267"><ele>314.0</ele><time>2026-05-03T15:55:28.786Z</time></trkpt><trkpt lat="53.59285" lon="-1.957685"><ele>316.33333333333337</ele><time>2026-05-03T15:55:29.785Z</time></trkpt><trkpt lat="53.5926517" lon="-1.9577433"><ele>318.6666666666667</ele><time>2026-05-03T15:55:30.784Z</time></trkpt><trkpt lat="53.592445" lon="-1.9578033"><ele>321.0</ele><time>2026-05-03T15:55:31.786Z</time></trkpt><trkpt lat="53.5922417" lon="-1.9578633"><ele>321.0</ele><time>2026-05-03T15:55:32.785Z</time></trkpt><trkpt lat="53.5920417" lon="-1.95792"><ele>321.0</ele><time>2026-05-03T15:55:33.785Z</time></trkpt><trkpt lat="53.59184" lon="-1.9579767"><ele>321.0</ele><time>2026-05-03T15:55:34.785Z</time></trkpt><trkpt lat="53.5916333" lon="-1.9580317"><ele>323.3333333333333</ele><time>2026-05-03T15:55:35.784Z</time></trkpt><trkpt lat="53.5914167" lon="-1.9580917"><ele>325.66666666666663</ele><time>2026-05-03T15:55:36.785Z</time></trkpt><trkpt lat="53.5911983" lon="-1.958145"><ele>328.0</ele><time>2026-05-03T15:55:37.785Z</time></trkpt><trkpt lat="53.5909833" lon="-1.958195"><ele>329.66666666666663</ele><time>2026-05-03T15:55:38.785Z</time></trkpt><trkpt lat="53.590775" lon="-1.9582417"><ele>331.3333333333333</ele><time>2026-05-03T15:55:39.788Z</time></trkpt><trkpt lat="53.59058" lon="-1.9582783"><ele>333.0</ele><time>2026-05-03T15:55:40.785Z</time></trkpt><trkpt lat="53.59039" lon="-1.9583183"><ele>333.0</ele><time>2026-05-03T15:55:41.785Z</time></trkpt><trkpt lat="53.5902167" lon="-1.9583617"><ele>333.0</ele><time>2026-05-03T15:55:42.786Z</time></trkpt><trkpt lat="53.5900583" lon="-1.9584133"><ele>333.0</ele><time>2026-05-03T15:55:43.784Z</time></trkpt><trkpt lat="53.5899083" lon="-1.958465"><ele>333.0</ele><time>2026-05-03T15:55:44.784Z</time></trkpt><trkpt lat="53.5897667" lon="-1.9585233"><ele>333.0</ele><time>2026-05-03T15:55:45.785Z</time></trkpt><trkpt lat="53.5896267" lon="-1.9585867"><ele>333.0</ele><time>2026-05-03T15:55:46.785Z</time></trkpt><trkpt lat="53.5894883" lon="-1.9586567"><ele>333.0</ele><time>2026-05-03T15:55:47.784Z</time></trkpt><trkpt lat="53.5893517" lon="-1.9587367"><ele>334.75</ele><time>2026-05-03T15:55:48.786Z</time></trkpt><trkpt lat="53.5892167" lon="-1.9588183"><ele>336.5</ele><time>2026-05-03T15:55:49.784Z</time></trkpt><trkpt lat="53.5890933" lon="-1.958905"><ele>338.25</ele><time>2026-05-03T15:55:50.785Z</time></trkpt><trkpt lat="53.588985" lon="-1.958985"><ele>340.0</ele><time>2026-05-03T15:55:51.785Z</time></trkpt><trkpt lat="53.5888933" lon="-1.9590517"><ele>340.0</ele><time>2026-05-03T15:55:52.785Z</time></trkpt><trkpt lat="53.588815" lon="-1.9591133"><ele>340.0</ele><time>2026-05-03T15:55:53.786Z</time></trkpt><trkpt lat="53.5887533" lon="-1.9591717"><ele>340.0</ele><time>2026-05-03T15:55:54.784Z</time></trkpt><trkpt lat="53.58868" lon="-1.95924"><ele>340.0</ele><time>2026-05-03T15:55:56.786Z</time></trkpt><trkpt lat="53.588595" lon="-1.959345"><ele>340.0</ele><time>2026-05-03T15:56:03.784Z</time></trkpt><trkpt lat="53.58854" lon="-1.9594067"><ele>340.0</ele><time>2026-05-03T15:56:04.784Z</time></trkpt><trkpt lat="53.5884767" lon="-1.9594817"><ele>340.66666666666663</ele><time>2026-05-03T15:56:05.786Z</time></trkpt><trkpt lat="53.588405" lon="-1.95956"><ele>341.3333333333333</ele><time>2026-05-03T15:56:06.785Z</time></trkpt><trkpt lat="53.5883333" lon="-1.95964"><ele>342.0</ele><time>2026-05-03T15:56:07.783Z</time></trkpt><trkpt lat="53.5882633" lon="-1.9597233"><ele>342.6666666666667</ele><time>2026-05-03T15:56:08.783Z</time></trkpt><trkpt lat="53.5881917" lon="-1.959815"><ele>343.33333333333337</ele><time>2026-05-03T15:56:09.783Z</time></trkpt><trkpt lat="53.588125" lon="-1.95991"><ele>344.0</ele><time>2026-05-03T15:56:10.787Z</time></trkpt><trkpt lat="53.58806" lon="-1.9599983"><ele>344.33333333333337</ele><time>2026-05-03T15:56:11.786Z</time></trkpt><trkpt lat="53.5879983" lon="-1.96008"><ele>344.6666666666667</ele><time>2026-05-03T15:56:12.782Z</time></trkpt><trkpt lat="53.5879467" lon="-1.9601467"><ele>345.0</ele><time>2026-05-03T15:56:13.786Z</time></trkpt><trkpt lat="53.5878667" lon="-1.960225"><ele>345.3333333333333</ele><time>2026-05-03T15:56:15.785Z</time></trkpt><trkpt lat="53.5877783" lon="-1.9602033"><ele>345.66666666666663</ele><time>2026-05-03T15:56:18.785Z</time></trkpt><trkpt lat="53.5876967" lon="-1.9600833"><ele>346.0</ele><time>2026-05-03T15:56:53.786Z</time></trkpt><trkpt lat="53.5876417" lon="-1.9600183"><ele>346.4285714285714</ele><time>2026-05-03T15:56:54.783Z</time></trkpt><trkpt lat="53.5875817" lon="-1.9599467"><ele>346.8571428571429</ele><time>2026-05-03T15:56:55.785Z</time></trkpt><trkpt lat="53.5875217" lon="-1.95987"><ele>347.2857142857143</ele><time>2026-05-03T15:56:56.783Z</time></trkpt><trkpt lat="53.587465" lon="-1.9597933"><ele>347.71428571428567</ele><time>2026-05-03T15:56:57.783Z</time></trkpt><trkpt lat="53.58741" lon="-1.95971"><ele>348.1428571428571</ele><time>2026-05-03T15:56:58.783Z</time></trkpt><trkpt lat="53.5873683" lon="-1.9596083"><ele>348.57142857142856</ele><time>2026-05-03T15:56:59.786Z</time></trkpt><trkpt lat="53.5873433" lon="-1.9594917"><ele>349.0</ele><time>2026-05-03T15:57:00.784Z</time></trkpt><trkpt lat="53.587325" lon="-1.959365"><ele>349.0</ele><time>2026-05-03T15:57:01.784Z</time></trkpt><trkpt lat="53.5873183" lon="-1.95921"><ele>349.0</ele><time>2026-05-03T15:57:02.784Z</time></trkpt><trkpt lat="53.5873217" lon="-1.959025"><ele>349.0</ele><time>2026-05-03T15:57:03.783Z</time></trkpt><trkpt lat="53.587325" lon="-1.9588083"><ele>349.0</ele><time>2026-05-03T15:57:04.783Z</time></trkpt><trkpt lat="53.5873233" lon="-1.9585617"><ele>350.0</ele><time>2026-05-03T15:57:05.784Z</time></trkpt><trkpt lat="53.5873217" lon="-1.9582983"><ele>351.0</ele><time>2026-05-03T15:57:06.784Z</time></trkpt><trkpt lat="53.5873167" lon="-1.958025"><ele>352.0</ele><time>2026-05-03T15:57:07.784Z</time></trkpt><trkpt lat="53.587315" lon="-1.95775"><ele>352.0</ele><time>2026-05-03T15:57:08.787Z</time></trkpt><trkpt lat="53.5873167" lon="-1.9574733"><ele>352.0</ele><time>2026-05-03T15:57:09.782Z</time></trkpt><trkpt lat="53.587315" lon="-1.9571833"><ele>352.0</ele><time>2026-05-03T15:57:10.782Z</time></trkpt><trkpt lat="53.58731" lon="-1.9568767"><ele>352.0</ele><time>2026-05-03T15:57:11.783Z</time></trkpt><trkpt lat="53.5873067" lon="-1.95657"><ele>352.0</ele><time>2026-05-03T15:57:12.783Z</time></trkpt><trkpt lat="53.587305" lon="-1.95626"><ele>352.0</ele><time>2026-05-03T15:57:13.783Z</time></trkpt><trkpt lat="53.5873033" lon="-1.9559433"><ele>352.66666666666663</ele><time>2026-05-03T15:57:14.784Z</time></trkpt><trkpt lat="53.5872983" lon="-1.9556267"><ele>353.3333333333333</ele><time>2026-05-03T15:57:15.782Z</time></trkpt><trkpt lat="53.5872967" lon="-1.95531"><ele>354.0</ele><time>2026-05-03T15:57:16.784Z</time></trkpt><trkpt lat="53.5872967" lon="-1.9549983"><ele>354.3333333333333</ele><time>2026-05-03T15:57:17.783Z</time></trkpt><trkpt lat="53.5873017" lon="-1.9546933"><ele>354.66666666666663</ele><time>2026-05-03T15:57:18.782Z</time></trkpt><trkpt lat="53.5873033" lon="-1.9543867"><ele>355.0</ele><time>2026-05-03T15:57:19.783Z</time></trkpt><trkpt lat="53.5873067" lon="-1.9540867"><ele>355.66666666666663</ele><time>2026-05-03T15:57:20.783Z</time></trkpt><trkpt lat="53.58731" lon="-1.9537983"><ele>356.3333333333333</ele><time>2026-05-03T15:57:21.783Z</time></trkpt><trkpt lat="53.5873133" lon="-1.9535067"><ele>357.0</ele><time>2026-05-03T15:57:22.787Z</time></trkpt><trkpt lat="53.5873183" lon="-1.9532133"><ele>358.0</ele><time>2026-05-03T15:57:23.782Z</time></trkpt><trkpt lat="53.5873217" lon="-1.95292"><ele>359.0</ele><time>2026-05-03T15:57:24.783Z</time></trkpt><trkpt lat="53.587325" lon="-1.9526233"><ele>360.0</ele><time>2026-05-03T15:57:25.784Z</time></trkpt><trkpt lat="53.5873267" lon="-1.9523417"><ele>360.5</ele><time>2026-05-03T15:57:26.783Z</time></trkpt><trkpt lat="53.5873267" lon="-1.952085"><ele>361.0</ele><time>2026-05-03T15:57:27.782Z</time></trkpt><trkpt lat="53.5873267" lon="-1.95184"><ele>361.5</ele><time>2026-05-03T15:57:28.786Z</time></trkpt><trkpt lat="53.5873267" lon="-1.9515867"><ele>362.0</ele><time>2026-05-03T15:57:29.782Z</time></trkpt><trkpt lat="53.58733" lon="-1.9513233"><ele>362.0</ele><time>2026-05-03T15:57:30.787Z</time></trkpt><trkpt lat="53.5873333" lon="-1.9510417"><ele>362.0</ele><time>2026-05-03T15:57:31.784Z</time></trkpt><trkpt lat="53.5873417" lon="-1.95074"><ele>362.0</ele><time>2026-05-03T15:57:32.784Z</time></trkpt><trkpt lat="53.5873517" lon="-1.9504233"><ele>362.0</ele><time>2026-05-03T15:57:33.783Z</time></trkpt><trkpt lat="53.58736" lon="-1.95009"><ele>362.0</ele><time>2026-05-03T15:57:34.784Z</time></trkpt><trkpt lat="53.5873767" lon="-1.9497567"><ele>362.0</ele><time>2026-05-03T15:57:35.784Z</time></trkpt><trkpt lat="53.5874017" lon="-1.94941"><ele>359.0</ele><time>2026-05-03T15:57:36.785Z</time></trkpt><trkpt lat="53.587425" lon="-1.94906"><ele>356.0</ele><time>2026-05-03T15:57:37.784Z</time></trkpt><trkpt lat="53.5874417" lon="-1.9487117"><ele>353.0</ele><time>2026-05-03T15:57:38.782Z</time></trkpt><trkpt lat="53.5874533" lon="-1.9483533"><ele>351.0</ele><time>2026-05-03T15:57:39.783Z</time></trkpt><trkpt lat="53.5874633" lon="-1.9479917"><ele>349.0</ele><time>2026-05-03T15:57:40.783Z</time></trkpt><trkpt lat="53.5874783" lon="-1.9476367"><ele>347.0</ele><time>2026-05-03T15:57:41.783Z</time></trkpt><trkpt lat="53.5874883" lon="-1.9473017"><ele>345.6666666666667</ele><time>2026-05-03T15:57:42.783Z</time></trkpt><trkpt lat="53.587495" lon="-1.9469867"><ele>344.3333333333333</ele><time>2026-05-03T15:57:43.784Z</time></trkpt><trkpt lat="53.5874983" lon="-1.9466867"><ele>343.0</ele><time>2026-05-03T15:57:44.784Z</time></trkpt><trkpt lat="53.5875033" lon="-1.9463967"><ele>342.5</ele><time>2026-05-03T15:57:45.784Z</time></trkpt><trkpt lat="53.587515" lon="-1.94612"><ele>342.0</ele><time>2026-05-03T15:57:46.783Z</time></trkpt><trkpt lat="53.5875283" lon="-1.9458733"><ele>341.5</ele><time>2026-05-03T15:57:47.787Z</time></trkpt><trkpt lat="53.5875417" lon="-1.9456583"><ele>341.0</ele><time>2026-05-03T15:57:48.786Z</time></trkpt><trkpt lat="53.587555" lon="-1.9454417"><ele>340.0</ele><time>2026-05-03T15:57:49.783Z</time></trkpt><trkpt lat="53.5875767" lon="-1.9452283"><ele>339.0</ele><time>2026-05-03T15:57:50.783Z</time></trkpt><trkpt lat="53.5876117" lon="-1.9450067"><ele>338.0</ele><time>2026-05-03T15:57:51.783Z</time></trkpt><trkpt lat="53.5876617" lon="-1.9447733"><ele>337.0</ele><time>2026-05-03T15:57:52.783Z</time></trkpt><trkpt lat="53.5877217" lon="-1.9445333"><ele>337.3333333333333</ele><time>2026-05-03T15:57:53.784Z</time></trkpt><trkpt lat="53.5877933" lon="-1.9442817"><ele>337.6666666666667</ele><time>2026-05-03T15:57:54.787Z</time></trkpt><trkpt lat="53.587875" lon="-1.9440233"><ele>338.0</ele><time>2026-05-03T15:57:55.783Z</time></trkpt><trkpt lat="53.5879583" lon="-1.9437683"><ele>338.0</ele><time>2026-05-03T15:57:56.783Z</time></trkpt><trkpt lat="53.5880433" lon="-1.943515"><ele>338.0</ele><time>2026-05-03T15:57:57.783Z</time></trkpt><trkpt lat="53.5881267" lon="-1.9432767"><ele>338.0</ele><time>2026-05-03T15:57:58.783Z</time></trkpt><trkpt lat="53.588215" lon="-1.9430483"><ele>334.0</ele><time>2026-05-03T15:57:59.784Z</time></trkpt><trkpt lat="53.588305" lon="-1.9428233"><ele>330.0</ele><time>2026-05-03T15:58:00.783Z</time></trkpt><trkpt lat="53.588405" lon="-1.9425833"><ele>326.0</ele><time>2026-05-03T15:58:01.783Z</time></trkpt><trkpt lat="53.5885117" lon="-1.942335"><ele>326.33333333333337</ele><time>2026-05-03T15:58:02.783Z</time></trkpt><trkpt lat="53.5886217" lon="-1.94208"><ele>326.6666666666667</ele><time>2026-05-03T15:58:03.782Z</time></trkpt><trkpt lat="53.5887317" lon="-1.94184"><ele>327.0</ele><time>2026-05-03T15:58:04.783Z</time></trkpt><trkpt lat="53.5888433" lon="-1.94161"><ele>323.0</ele><time>2026-05-03T15:58:05.783Z</time></trkpt><trkpt lat="53.5889467" lon="-1.9413833"><ele>319.0</ele><time>2026-05-03T15:58:06.782Z</time></trkpt><trkpt lat="53.589045" lon="-1.9411617"><ele>315.0</ele><time>2026-05-03T15:58:07.784Z</time></trkpt><trkpt lat="53.5891433" lon="-1.9409467"><ele>311.3333333333333</ele><time>2026-05-03T15:58:08.783Z</time></trkpt><trkpt lat="53.5892417" lon="-1.94074"><ele>307.66666666666663</ele><time>2026-05-03T15:58:09.783Z</time></trkpt><trkpt lat="53.5893383" lon="-1.9405383"><ele>304.0</ele><time>2026-05-03T15:58:10.782Z</time></trkpt><trkpt lat="53.58943" lon="-1.940335"><ele>303.25</ele><time>2026-05-03T15:58:11.782Z</time></trkpt><trkpt lat="53.589515" lon="-1.940145"><ele>302.5</ele><time>2026-05-03T15:58:12.786Z</time></trkpt><trkpt lat="53.589595" lon="-1.9399583"><ele>301.75</ele><time>2026-05-03T15:58:13.783Z</time></trkpt><trkpt lat="53.5896733" lon="-1.9397733"><ele>301.0</ele><time>2026-05-03T15:58:14.783Z</time></trkpt><trkpt lat="53.5897533" lon="-1.9395883"><ele>301.0</ele><time>2026-05-03T15:58:15.783Z</time></trkpt><trkpt lat="53.589835" lon="-1.9394067"><ele>301.0</ele><time>2026-05-03T15:58:16.783Z</time></trkpt><trkpt lat="53.5899167" lon="-1.93923"><ele>301.0</ele><time>2026-05-03T15:58:17.782Z</time></trkpt><trkpt lat="53.5899967" lon="-1.93906"><ele>301.0</ele><time>2026-05-03T15:58:18.782Z</time></trkpt><trkpt lat="53.5900767" lon="-1.938895"><ele>299.0</ele><time>2026-05-03T15:58:19.783Z</time></trkpt><trkpt lat="53.5901617" lon="-1.9387217"><ele>297.0</ele><time>2026-05-03T15:58:20.783Z</time></trkpt><trkpt lat="53.59025" lon="-1.9385367"><ele>295.0</ele><time>2026-05-03T15:58:21.784Z</time></trkpt><trkpt lat="53.5903417" lon="-1.9383517"><ele>293.0</ele><time>2026-05-03T15:58:22.783Z</time></trkpt><trkpt lat="53.59044" lon="-1.9381617"><ele>290.6666666666667</ele><time>2026-05-03T15:58:23.782Z</time></trkpt><trkpt lat="53.5905383" lon="-1.9379733"><ele>288.3333333333333</ele><time>2026-05-03T15:58:24.783Z</time></trkpt><trkpt lat="53.5906433" lon="-1.9377883"><ele>286.0</ele><time>2026-05-03T15:58:25.783Z</time></trkpt><trkpt lat="53.5907417" lon="-1.9375917"><ele>283.0</ele><time>2026-05-03T15:58:26.783Z</time></trkpt><trkpt lat="53.5908367" lon="-1.93739"><ele>280.0</ele><time>2026-05-03T15:58:27.783Z</time></trkpt><trkpt lat="53.5909317" lon="-1.9371917"><ele>277.0</ele><time>2026-05-03T15:58:28.783Z</time></trkpt><trkpt lat="53.59102" lon="-1.9369883"><ele>277.0</ele><time>2026-05-03T15:58:29.783Z</time></trkpt><trkpt lat="53.5911067" lon="-1.9367967"><ele>277.0</ele><time>2026-05-03T15:58:30.783Z</time></trkpt><trkpt lat="53.5911933" lon="-1.9366283"><ele>277.0</ele><time>2026-05-03T15:58:31.783Z</time></trkpt><trkpt lat="53.5912767" lon="-1.9364667"><ele>277.0</ele><time>2026-05-03T15:58:32.785Z</time></trkpt><trkpt lat="53.591355" lon="-1.93631"><ele>274.5</ele><time>2026-05-03T15:58:33.782Z</time></trkpt><trkpt lat="53.5914317" lon="-1.9361517"><ele>272.0</ele><time>2026-05-03T15:58:34.782Z</time></trkpt><trkpt lat="53.5915133" lon="-1.9360033"><ele>269.5</ele><time>2026-05-03T15:58:35.784Z</time></trkpt><trkpt lat="53.5915917" lon="-1.9358483"><ele>267.0</ele><time>2026-05-03T15:58:36.782Z</time></trkpt><trkpt lat="53.5916667" lon="-1.9357017"><ele>266.0</ele><time>2026-05-03T15:58:37.784Z</time></trkpt><trkpt lat="53.59174" lon="-1.93557"><ele>265.0</ele><time>2026-05-03T15:58:38.783Z</time></trkpt><trkpt lat="53.591815" lon="-1.93543"><ele>264.0</ele><time>2026-05-03T15:58:39.783Z</time></trkpt><trkpt lat="53.5918917" lon="-1.9352983"><ele>263.0</ele><time>2026-05-03T15:58:40.783Z</time></trkpt><trkpt lat="53.5919667" lon="-1.9351567"><ele>262.0</ele><time>2026-05-03T15:58:41.783Z</time></trkpt><trkpt lat="53.592035" lon="-1.93501"><ele>260.6</ele><time>2026-05-03T15:58:42.782Z</time></trkpt><trkpt lat="53.592105" lon="-1.9348617"><ele>259.2</ele><time>2026-05-03T15:58:43.783Z</time></trkpt><trkpt lat="53.592175" lon="-1.9347183"><ele>257.8</ele><time>2026-05-03T15:58:44.783Z</time></trkpt><trkpt lat="53.5922383" lon="-1.93457"><ele>256.4</ele><time>2026-05-03T15:58:45.784Z</time></trkpt><trkpt lat="53.592305" lon="-1.93442"><ele>255.0</ele><time>2026-05-03T15:58:46.784Z</time></trkpt><trkpt lat="53.5923783" lon="-1.934265"><ele>254.25</ele><time>2026-05-03T15:58:47.783Z</time></trkpt><trkpt lat="53.592445" lon="-1.9341083"><ele>253.5</ele><time>2026-05-03T15:58:48.782Z</time></trkpt><trkpt lat="53.59251" lon="-1.93395"><ele>252.75</ele><time>2026-05-03T15:58:49.783Z</time></trkpt><trkpt lat="53.5925883" lon="-1.933795"><ele>252.0</ele><time>2026-05-03T15:58:50.783Z</time></trkpt><trkpt lat="53.5926733" lon="-1.9336533"><ele>252.0</ele><time>2026-05-03T15:58:51.783Z</time></trkpt><trkpt lat="53.592765" lon="-1.9335217"><ele>252.0</ele><time>2026-05-03T15:58:52.783Z</time></trkpt><trkpt lat="53.5928633" lon="-1.9334083"><ele>252.0</ele><time>2026-05-03T15:58:53.785Z</time></trkpt><trkpt lat="53.5929583" lon="-1.9333133"><ele>252.0</ele><time>2026-05-03T15:58:54.783Z</time></trkpt><trkpt lat="53.5930517" lon="-1.93322"><ele>250.2</ele><time>2026-05-03T15:58:55.783Z</time></trkpt><trkpt lat="53.5931483" lon="-1.93314"><ele>248.39999999999998</ele><time>2026-05-03T15:58:56.782Z</time></trkpt><trkpt lat="53.593245" lon="-1.933065"><ele>246.60000000000002</ele><time>2026-05-03T15:58:57.783Z</time></trkpt><trkpt lat="53.59334" lon="-1.9329967"><ele>244.8</ele><time>2026-05-03T15:58:58.782Z</time></trkpt><trkpt lat="53.59344" lon="-1.932935"><ele>243.0</ele><time>2026-05-03T15:58:59.783Z</time></trkpt><trkpt lat="53.5935383" lon="-1.9328717"><ele>243.0</ele><time>2026-05-03T15:59:00.784Z</time></trkpt><trkpt lat="53.5936383" lon="-1.93281"><ele>243.0</ele><time>2026-05-03T15:59:01.784Z</time></trkpt><trkpt lat="53.5937383" lon="-1.932755"><ele>243.0</ele><time>2026-05-03T15:59:02.783Z</time></trkpt><trkpt lat="53.5938367" lon="-1.9326933"><ele>243.0</ele><time>2026-05-03T15:59:03.783Z</time></trkpt><trkpt lat="53.5939367" lon="-1.93263"><ele>243.0</ele><time>2026-05-03T15:59:04.782Z</time></trkpt><trkpt lat="53.5940367" lon="-1.932565"><ele>241.0</ele><time>2026-05-03T15:59:05.784Z</time></trkpt><trkpt lat="53.5941383" lon="-1.932505"><ele>239.0</ele><time>2026-05-03T15:59:06.784Z</time></trkpt><trkpt lat="53.5942367" lon="-1.93244"><ele>237.0</ele><time>2026-05-03T15:59:07.784Z</time></trkpt><trkpt lat="53.5943333" lon="-1.9323767"><ele>235.0</ele><time>2026-05-03T15:59:08.785Z</time></trkpt><trkpt lat="53.5944283" lon="-1.93231"><ele>233.0</ele><time>2026-05-03T15:59:09.782Z</time></trkpt><trkpt lat="53.5945217" lon="-1.9322483"><ele>232.60000000000002</ele><time>2026-05-03T15:59:10.783Z</time></trkpt><trkpt lat="53.5946133" lon="-1.9321867"><ele>232.20000000000002</ele><time>2026-05-03T15:59:11.783Z</time></trkpt><trkpt lat="53.5947067" lon="-1.9321233"><ele>231.8</ele><time>2026-05-03T15:59:12.783Z</time></trkpt><trkpt lat="53.5947983" lon="-1.9320617"><ele>231.4</ele><time>2026-05-03T15:59:13.783Z</time></trkpt><trkpt lat="53.5948917" lon="-1.932005"><ele>231.0</ele><time>2026-05-03T15:59:14.782Z</time></trkpt><trkpt lat="53.5949867" lon="-1.9319517"><ele>231.0</ele><time>2026-05-03T15:59:15.784Z</time></trkpt><trkpt lat="53.5950833" lon="-1.931895"><ele>231.00000000000003</ele><time>2026-05-03T15:59:16.782Z</time></trkpt><trkpt lat="53.5951817" lon="-1.9318417"><ele>231.00000000000003</ele><time>2026-05-03T15:59:17.783Z</time></trkpt><trkpt lat="53.5952817" lon="-1.9317783"><ele>231.0</ele><time>2026-05-03T15:59:18.783Z</time></trkpt><trkpt lat="53.595385" lon="-1.9317267"><ele>231.0</ele><time>2026-05-03T15:59:19.783Z</time></trkpt><trkpt lat="53.5954783" lon="-1.9316667"><ele>228.4</ele><time>2026-05-03T15:59:20.782Z</time></trkpt><trkpt lat="53.59558" lon="-1.931615"><ele>225.8</ele><time>2026-05-03T15:59:21.783Z</time></trkpt><trkpt lat="53.5956867" lon="-1.9315617"><ele>223.20000000000002</ele><time>2026-05-03T15:59:22.783Z</time></trkpt><trkpt lat="53.5957967" lon="-1.9315183"><ele>220.60000000000002</ele><time>2026-05-03T15:59:23.783Z</time></trkpt><trkpt lat="53.595905" lon="-1.93147"><ele>218.0</ele><time>2026-05-03T15:59:24.783Z</time></trkpt><trkpt lat="53.5960067" lon="-1.93141"><ele>218.0</ele><time>2026-05-03T15:59:25.782Z</time></trkpt><trkpt lat="53.5961083" lon="-1.931345"><ele>218.0</ele><time>2026-05-03T15:59:26.783Z</time></trkpt><trkpt lat="53.5962067" lon="-1.93128"><ele>218.0</ele><time>2026-05-03T15:59:27.781Z</time></trkpt><trkpt lat="53.596305" lon="-1.9312183"><ele>218.0</ele><time>2026-05-03T15:59:28.783Z</time></trkpt><trkpt lat="53.5964033" lon="-1.9311517"><ele>218.0</ele><time>2026-05-03T15:59:29.782Z</time></trkpt><trkpt lat="53.5965" lon="-1.931085"><ele>217.60000000000002</ele><time>2026-05-03T15:59:30.782Z</time></trkpt><trkpt lat="53.5965967" lon="-1.9310183"><ele>217.20000000000002</ele><time>2026-05-03T15:59:31.783Z</time></trkpt><trkpt lat="53.5967" lon="-1.930955"><ele>216.8</ele><time>2026-05-03T15:59:32.786Z</time></trkpt><trkpt lat="53.5968" lon="-1.93089"><ele>216.4</ele><time>2026-05-03T15:59:33.783Z</time></trkpt><trkpt lat="53.5969" lon="-1.93082"><ele>216.0</ele><time>2026-05-03T15:59:34.783Z</time></trkpt><trkpt lat="53.5969917" lon="-1.930755"><ele>213.83333333333334</ele><time>2026-05-03T15:59:35.784Z</time></trkpt><trkpt lat="53.5970617" lon="-1.9307117"><ele>211.66666666666669</ele><time>2026-05-03T15:59:36.784Z</time></trkpt><trkpt lat="53.5971367" lon="-1.9306583"><ele>209.5</ele><time>2026-05-03T15:59:38.783Z</time></trkpt><trkpt lat="53.5972217" lon="-1.9305717"><ele>207.33333333333334</ele><time>2026-05-03T15:59:46.782Z</time></trkpt><trkpt lat="53.5973217" lon="-1.93046"><ele>205.16666666666669</ele><time>2026-05-03T15:59:48.782Z</time></trkpt><trkpt lat="53.5973767" lon="-1.93039"><ele>203.0</ele><time>2026-05-03T15:59:49.783Z</time></trkpt><trkpt lat="53.59744" lon="-1.9303117"><ele>203.0</ele><time>2026-05-03T15:59:50.783Z</time></trkpt><trkpt lat="53.5975033" lon="-1.9302283"><ele>203.0</ele><time>2026-05-03T15:59:51.783Z</time></trkpt><trkpt lat="53.597565" lon="-1.930125"><ele>203.0</ele><time>2026-05-03T15:59:52.783Z</time></trkpt><trkpt lat="53.5976283" lon="-1.930005"><ele>203.0</ele><time>2026-05-03T15:59:53.783Z</time></trkpt><trkpt lat="53.5976917" lon="-1.9298683"><ele>203.0</ele><time>2026-05-03T15:59:54.783Z</time></trkpt><trkpt lat="53.5977533" lon="-1.929725"><ele>202.2</ele><time>2026-05-03T15:59:55.784Z</time></trkpt><trkpt lat="53.59781" lon="-1.9295767"><ele>201.4</ele><time>2026-05-03T15:59:56.784Z</time></trkpt><trkpt lat="53.5978567" lon="-1.929435"><ele>200.6</ele><time>2026-05-03T15:59:57.783Z</time></trkpt><trkpt lat="53.5979033" lon="-1.9292983"><ele>199.79999999999998</ele><time>2026-05-03T15:59:58.783Z</time></trkpt><trkpt lat="53.5979467" lon="-1.92917"><ele>199.0</ele><time>2026-05-03T15:59:59.784Z</time></trkpt><trkpt lat="53.59799" lon="-1.9290483"><ele>198.14285714285714</ele><time>2026-05-03T16:00:00.783Z</time></trkpt><trkpt lat="53.59803" lon="-1.92894"><ele>197.28571428571428</ele><time>2026-05-03T16:00:01.782Z</time></trkpt><trkpt lat="53.598065" lon="-1.9288517"><ele>196.42857142857144</ele><time>2026-05-03T16:00:02.782Z</time></trkpt><trkpt lat="53.5981083" lon="-1.9287367"><ele>195.57142857142856</ele><time>2026-05-03T16:00:04.794Z</time></trkpt><trkpt lat="53.5981767" lon="-1.9286583"><ele>194.71428571428572</ele><time>2026-05-03T16:00:07.783Z</time></trkpt><trkpt lat="53.5982383" lon="-1.9286067"><ele>193.85714285714286</ele><time>2026-05-03T16:00:09.782Z</time></trkpt><trkpt lat="53.598275" lon="-1.9285033"><ele>193.0</ele><time>2026-05-03T16:00:11.782Z</time></trkpt><trkpt lat="53.5982933" lon="-1.9283183"><ele>192.99999999999997</ele><time>2026-05-03T16:00:13.783Z</time></trkpt><trkpt lat="53.59831" lon="-1.928205"><ele>193.0</ele><time>2026-05-03T16:00:14.782Z</time></trkpt><trkpt lat="53.598345" lon="-1.9280817"><ele>193.0</ele><time>2026-05-03T16:00:15.782Z</time></trkpt><trkpt lat="53.5983867" lon="-1.9279583"><ele>193.0</ele><time>2026-05-03T16:00:16.781Z</time></trkpt><trkpt lat="53.5984333" lon="-1.9278267"><ele>192.99999999999997</ele><time>2026-05-03T16:00:17.782Z</time></trkpt><trkpt lat="53.5984767" lon="-1.92769"><ele>193.0</ele><time>2026-05-03T16:00:18.782Z</time></trkpt><trkpt lat="53.5985217" lon="-1.927555"><ele>193.2</ele><time>2026-05-03T16:00:19.783Z</time></trkpt><trkpt lat="53.5985717" lon="-1.927415"><ele>193.4</ele><time>2026-05-03T16:00:20.784Z</time></trkpt><trkpt lat="53.598625" lon="-1.9272733"><ele>193.6</ele><time>2026-05-03T16:00:21.783Z</time></trkpt><trkpt lat="53.59868" lon="-1.9271283"><ele>193.79999999999998</ele><time>2026-05-03T16:00:22.783Z</time></trkpt><trkpt lat="53.5987383" lon="-1.9269767"><ele>194.0</ele><time>2026-05-03T16:00:23.783Z</time></trkpt><trkpt lat="53.5988017" lon="-1.9268133"><ele>193.75</ele><time>2026-05-03T16:00:24.786Z</time></trkpt><trkpt lat="53.5988667" lon="-1.926645"><ele>193.5</ele><time>2026-05-03T16:00:25.784Z</time></trkpt><trkpt lat="53.5989333" lon="-1.926475"><ele>193.25</ele><time>2026-05-03T16:00:26.785Z</time></trkpt><trkpt lat="53.599" lon="-1.9262933"><ele>193.0</ele><time>2026-05-03T16:00:27.783Z</time></trkpt><trkpt lat="53.59907" lon="-1.9261133"><ele>193.0</ele><time>2026-05-03T16:00:28.783Z</time></trkpt><trkpt lat="53.5991417" lon="-1.9259267"><ele>193.0</ele><time>2026-05-03T16:00:29.783Z</time></trkpt><trkpt lat="53.5992117" lon="-1.9257433"><ele>193.0</ele><time>2026-05-03T16:00:30.783Z</time></trkpt><trkpt lat="53.59928" lon="-1.9255817"><ele>193.0</ele><time>2026-05-03T16:00:31.783Z</time></trkpt><trkpt lat="53.5993433" lon="-1.9254333"><ele>193.4</ele><time>2026-05-03T16:00:32.785Z</time></trkpt><trkpt lat="53.59941" lon="-1.9252983"><ele>193.8</ele><time>2026-05-03T16:00:33.784Z</time></trkpt><trkpt lat="53.5994717" lon="-1.9251567"><ele>194.2</ele><time>2026-05-03T16:00:34.782Z</time></trkpt><trkpt lat="53.5995317" lon="-1.925005"><ele>194.6</ele><time>2026-05-03T16:00:35.784Z</time></trkpt><trkpt lat="53.599595" lon="-1.92485"><ele>195.0</ele><time>2026-05-03T16:00:36.783Z</time></trkpt><trkpt lat="53.5996567" lon="-1.92469"><ele>195.0</ele><time>2026-05-03T16:00:37.785Z</time></trkpt><trkpt lat="53.5997217" lon="-1.9245283"><ele>195.0</ele><time>2026-05-03T16:00:38.784Z</time></trkpt><trkpt lat="53.5997867" lon="-1.9243683"><ele>195.0</ele><time>2026-05-03T16:00:39.783Z</time></trkpt><trkpt lat="53.5998567" lon="-1.9242067"><ele>195.0</ele><time>2026-05-03T16:00:40.783Z</time></trkpt><trkpt lat="53.599925" lon="-1.9240367"><ele>196.25</ele><time>2026-05-03T16:00:41.784Z</time></trkpt><trkpt lat="53.6" lon="-1.923855"><ele>197.5</ele><time>2026-05-03T16:00:42.783Z</time></trkpt><trkpt lat="53.6000717" lon="-1.92368"><ele>198.75</ele><time>2026-05-03T16:00:43.785Z</time></trkpt><trkpt lat="53.600145" lon="-1.9234967"><ele>200.0</ele><time>2026-05-03T16:00:44.783Z</time></trkpt><trkpt lat="53.6002183" lon="-1.9233033"><ele>199.75</ele><time>2026-05-03T16:00:45.783Z</time></trkpt><trkpt lat="53.6002983" lon="-1.9231083"><ele>199.5</ele><time>2026-05-03T16:00:46.784Z</time></trkpt><trkpt lat="53.6003833" lon="-1.922915"><ele>199.25</ele><time>2026-05-03T16:00:47.783Z</time></trkpt><trkpt lat="53.60046" lon="-1.9227317"><ele>199.0</ele><time>2026-05-03T16:00:48.784Z</time></trkpt><trkpt lat="53.6005283" lon="-1.92255"><ele>199.0</ele><time>2026-05-03T16:00:49.785Z</time></trkpt><trkpt lat="53.6005933" lon="-1.922375"><ele>199.0</ele><time>2026-05-03T16:00:50.784Z</time></trkpt><trkpt lat="53.6006533" lon="-1.9222133"><ele>199.0</ele><time>2026-05-03T16:00:51.784Z</time></trkpt><trkpt lat="53.60071" lon="-1.922065"><ele>199.0</ele><time>2026-05-03T16:00:52.783Z</time></trkpt><trkpt lat="53.6007767" lon="-1.92192"><ele>199.0</ele><time>2026-05-03T16:00:53.784Z</time></trkpt><trkpt lat="53.6008517" lon="-1.92179"><ele>198.6</ele><time>2026-05-03T16:00:54.782Z</time></trkpt><trkpt lat="53.60093" lon="-1.9216683"><ele>198.2</ele><time>2026-05-03T16:00:55.784Z</time></trkpt><trkpt lat="53.601015" lon="-1.9215533"><ele>197.79999999999998</ele><time>2026-05-03T16:00:56.783Z</time></trkpt><trkpt lat="53.6010917" lon="-1.9214533"><ele>197.39999999999998</ele><time>2026-05-03T16:00:57.786Z</time></trkpt><trkpt lat="53.6011567" lon="-1.9213767"><ele>197.0</ele><time>2026-05-03T16:00:58.783Z</time></trkpt><trkpt lat="53.6012067" lon="-1.92131"><ele>197.00000000000003</ele><time>2026-05-03T16:00:59.784Z</time></trkpt><trkpt lat="53.6012583" lon="-1.9212367"><ele>197.0</ele><time>2026-05-03T16:01:00.783Z</time></trkpt><trkpt lat="53.6013167" lon="-1.9211483"><ele>197.0</ele><time>2026-05-03T16:01:01.783Z</time></trkpt><trkpt lat="53.601385" lon="-1.9210567"><ele>197.0</ele><time>2026-05-03T16:01:02.783Z</time></trkpt><trkpt lat="53.6014583" lon="-1.9209633"><ele>197.00000000000003</ele><time>2026-05-03T16:01:03.782Z</time></trkpt><trkpt lat="53.6015367" lon="-1.9208617"><ele>197.0</ele><time>2026-05-03T16:01:04.783Z</time></trkpt><trkpt lat="53.601615" lon="-1.9207417"><ele>198.75</ele><time>2026-05-03T16:01:05.784Z</time></trkpt><trkpt lat="53.6017" lon="-1.920625"><ele>200.5</ele><time>2026-05-03T16:01:06.783Z</time></trkpt><trkpt lat="53.6017917" lon="-1.9205033"><ele>202.25</ele><time>2026-05-03T16:01:07.783Z</time></trkpt><trkpt lat="53.6018817" lon="-1.92038"><ele>204.0</ele><time>2026-05-03T16:01:08.782Z</time></trkpt><trkpt lat="53.6019733" lon="-1.9202567"><ele>204.25</ele><time>2026-05-03T16:01:09.783Z</time></trkpt><trkpt lat="53.6020667" lon="-1.9201283"><ele>204.5</ele><time>2026-05-03T16:01:10.784Z</time></trkpt><trkpt lat="53.6021667" lon="-1.92001"><ele>204.75</ele><time>2026-05-03T16:01:11.784Z</time></trkpt><trkpt lat="53.6022617" lon="-1.9199033"><ele>205.0</ele><time>2026-05-03T16:01:12.783Z</time></trkpt><trkpt lat="53.6023483" lon="-1.9197883"><ele>205.0</ele><time>2026-05-03T16:01:13.784Z</time></trkpt><trkpt lat="53.6024283" lon="-1.9196783"><ele>205.0</ele><time>2026-05-03T16:01:14.782Z</time></trkpt><trkpt lat="53.602505" lon="-1.919585"><ele>205.0</ele><time>2026-05-03T16:01:15.782Z</time></trkpt><trkpt lat="53.6025683" lon="-1.9195067"><ele>205.0</ele><time>2026-05-03T16:01:16.784Z</time></trkpt><trkpt lat="53.6026633" lon="-1.9194217"><ele>205.0</ele><time>2026-05-03T16:01:18.783Z</time></trkpt><trkpt lat="53.602735" lon="-1.9193533"><ele>205.0</ele><time>2026-05-03T16:01:20.785Z</time></trkpt><trkpt lat="53.6028083" lon="-1.9192617"><ele>205.0</ele><time>2026-05-03T16:01:22.783Z</time></trkpt><trkpt lat="53.6029" lon="-1.919075"><ele>205.0</ele><time>2026-05-03T16:01:24.783Z</time></trkpt><trkpt lat="53.6029567" lon="-1.9189533"><ele>205.0</ele><time>2026-05-03T16:01:25.783Z</time></trkpt><trkpt lat="53.6030217" lon="-1.9188267"><ele>205.0</ele><time>2026-05-03T16:01:26.785Z</time></trkpt><trkpt lat="53.6030883" lon="-1.91869"><ele>205.8</ele><time>2026-05-03T16:01:27.783Z</time></trkpt><trkpt lat="53.6031517" lon="-1.9185417"><ele>206.6</ele><time>2026-05-03T16:01:28.784Z</time></trkpt><trkpt lat="53.60321" lon="-1.9183767"><ele>207.39999999999998</ele><time>2026-05-03T16:01:29.782Z</time></trkpt><trkpt lat="53.6032667" lon="-1.9182133"><ele>208.2</ele><time>2026-05-03T16:01:30.782Z</time></trkpt><trkpt lat="53.6033215" lon="-1.9180564"><ele>209.0</ele><time>2026-05-03T16:01:31.783Z</time></trkpt><trkpt lat="53.6033748" lon="-1.9178916"><ele>211.25</ele><time>2026-05-03T16:01:32.784Z</time></trkpt><trkpt lat="53.6034349" lon="-1.9177206"><ele>213.5</ele><time>2026-05-03T16:01:33.783Z</time></trkpt><trkpt lat="53.6035034" lon="-1.9175407"><ele>215.75</ele><time>2026-05-03T16:01:34.782Z</time></trkpt><trkpt lat="53.6035782" lon="-1.9173514"><ele>218.0</ele><time>2026-05-03T16:01:35.784Z</time></trkpt><trkpt lat="53.6036556" lon="-1.9171591"><ele>218.5</ele><time>2026-05-03T16:01:36.783Z</time></trkpt><trkpt lat="53.6037302" lon="-1.9169751"><ele>219.0</ele><time>2026-05-03T16:01:37.784Z</time></trkpt><trkpt lat="53.6037992" lon="-1.9168017"><ele>219.5</ele><time>2026-05-03T16:01:38.783Z</time></trkpt><trkpt lat="53.6038658" lon="-1.9166338"><ele>220.0</ele><time>2026-05-03T16:01:39.783Z</time></trkpt><trkpt lat="53.603934" lon="-1.9164644"><ele>222.25</ele><time>2026-05-03T16:01:40.784Z</time></trkpt><trkpt lat="53.6039971" lon="-1.9162995"><ele>224.5</ele><time>2026-05-03T16:01:41.784Z</time></trkpt><trkpt lat="53.6040585" lon="-1.9161324"><ele>226.75</ele><time>2026-05-03T16:01:42.784Z</time></trkpt><trkpt lat="53.6041128" lon="-1.9159605"><ele>229.0</ele><time>2026-05-03T16:01:43.784Z</time></trkpt><trkpt lat="53.6041694" lon="-1.9157894"><ele>231.25</ele><time>2026-05-03T16:01:44.782Z</time></trkpt><trkpt lat="53.6042342" lon="-1.9156161"><ele>233.5</ele><time>2026-05-03T16:01:45.783Z</time></trkpt><trkpt lat="53.6042987" lon="-1.9154373"><ele>235.75</ele><time>2026-05-03T16:01:46.786Z</time></trkpt><trkpt lat="53.6043633" lon="-1.9152489"><ele>238.0</ele><time>2026-05-03T16:01:47.785Z</time></trkpt><trkpt lat="53.6044309" lon="-1.9150509"><ele>238.75</ele><time>2026-05-03T16:01:48.783Z</time></trkpt><trkpt lat="53.6045009" lon="-1.9148471"><ele>239.5</ele><time>2026-05-03T16:01:49.783Z</time></trkpt><trkpt lat="53.6045675" lon="-1.9146512"><ele>240.25</ele><time>2026-05-03T16:01:50.783Z</time></trkpt><trkpt lat="53.6046286" lon="-1.9144621"><ele>241.0</ele><time>2026-05-03T16:01:51.783Z</time></trkpt><trkpt lat="53.604682" lon="-1.9142895"><ele>241.99999999999997</ele><time>2026-05-03T16:01:52.784Z</time></trkpt><trkpt lat="53.6047277" lon="-1.9141369"><ele>243.0</ele><time>2026-05-03T16:01:53.784Z</time></trkpt><trkpt lat="53.6047688" lon="-1.9140007"><ele>244.0</ele><time>2026-05-03T16:01:54.783Z</time></trkpt><trkpt lat="53.6048105" lon="-1.9138756"><ele>245.0</ele><time>2026-05-03T16:01:55.784Z</time></trkpt><trkpt lat="53.6048523" lon="-1.9137517"><ele>245.99999999999997</ele><time>2026-05-03T16:01:56.784Z</time></trkpt><trkpt lat="53.6048921" lon="-1.9136277"><ele>247.0</ele><time>2026-05-03T16:01:57.784Z</time></trkpt><trkpt lat="53.6049304" lon="-1.9134972"><ele>248.16666666666666</ele><time>2026-05-03T16:01:58.782Z</time></trkpt><trkpt lat="53.60497" lon="-1.9133619"><ele>249.33333333333331</ele><time>2026-05-03T16:01:59.784Z</time></trkpt><trkpt lat="53.6050102" lon="-1.9132279"><ele>250.5</ele><time>2026-05-03T16:02:00.784Z</time></trkpt><trkpt lat="53.6050502" lon="-1.9130945"><ele>251.66666666666669</ele><time>2026-05-03T16:02:01.784Z</time></trkpt><trkpt lat="53.6050875" lon="-1.9129597"><ele>252.83333333333334</ele><time>2026-05-03T16:02:02.784Z</time></trkpt><trkpt lat="53.6051233" lon="-1.9128274"><ele>254.0</ele><time>2026-05-03T16:02:03.784Z</time></trkpt><trkpt lat="53.6051583" lon="-1.9126967"><ele>255.16666666666669</ele><time>2026-05-03T16:02:04.782Z</time></trkpt><trkpt lat="53.6051883" lon="-1.91256"><ele>256.33333333333337</ele><time>2026-05-03T16:02:05.783Z</time></trkpt><trkpt lat="53.605215" lon="-1.9124183"><ele>257.5</ele><time>2026-05-03T16:02:06.784Z</time></trkpt><trkpt lat="53.6052383" lon="-1.9122717"><ele>258.6666666666667</ele><time>2026-05-03T16:02:07.784Z</time></trkpt><trkpt lat="53.6052617" lon="-1.9121217"><ele>259.8333333333333</ele><time>2026-05-03T16:02:08.783Z</time></trkpt><trkpt lat="53.6052867" lon="-1.9119717"><ele>261.0</ele><time>2026-05-03T16:02:09.783Z</time></trkpt><trkpt lat="53.6053117" lon="-1.91182"><ele>260.0</ele><time>2026-05-03T16:02:10.783Z</time></trkpt><trkpt lat="53.605335" lon="-1.9116683"><ele>259.0</ele><time>2026-05-03T16:02:11.784Z</time></trkpt><trkpt lat="53.60536" lon="-1.9115167"><ele>258.0</ele><time>2026-05-03T16:02:12.784Z</time></trkpt><trkpt lat="53.6053817" lon="-1.9113683"><ele>257.0</ele><time>2026-05-03T16:02:13.784Z</time></trkpt><trkpt lat="53.6054033" lon="-1.91122"><ele>256.0</ele><time>2026-05-03T16:02:14.784Z</time></trkpt><trkpt lat="53.6054283" lon="-1.91107"><ele>255.99999999999997</ele><time>2026-05-03T16:02:15.783Z</time></trkpt><trkpt lat="53.6054583" lon="-1.9109233"><ele>256.0</ele><time>2026-05-03T16:02:16.786Z</time></trkpt><trkpt lat="53.60549" lon="-1.9107783"><ele>256.0</ele><time>2026-05-03T16:02:17.783Z</time></trkpt><trkpt lat="53.6055233" lon="-1.9106467"><ele>256.0</ele><time>2026-05-03T16:02:18.783Z</time></trkpt><trkpt lat="53.6055517" lon="-1.9105233"><ele>255.99999999999997</ele><time>2026-05-03T16:02:19.784Z</time></trkpt><trkpt lat="53.6055767" lon="-1.9104067"><ele>256.0</ele><time>2026-05-03T16:02:20.786Z</time></trkpt><trkpt lat="53.6055983" lon="-1.9102983"><ele>256.42857142857144</ele><time>2026-05-03T16:02:21.783Z</time></trkpt><trkpt lat="53.6056233" lon="-1.91019"><ele>256.85714285714283</ele><time>2026-05-03T16:02:22.786Z</time></trkpt><trkpt lat="53.6056467" lon="-1.910085"><ele>257.2857142857143</ele><time>2026-05-03T16:02:23.783Z</time></trkpt><trkpt lat="53.60567" lon="-1.9099817"><ele>257.7142857142857</ele><time>2026-05-03T16:02:24.785Z</time></trkpt><trkpt lat="53.6056933" lon="-1.909875"><ele>258.1428571428571</ele><time>2026-05-03T16:02:25.786Z</time></trkpt><trkpt lat="53.60572" lon="-1.909765"><ele>258.57142857142856</ele><time>2026-05-03T16:02:26.784Z</time></trkpt><trkpt lat="53.6057467" lon="-1.9096533"><ele>259.0</ele><time>2026-05-03T16:02:27.782Z</time></trkpt><trkpt lat="53.605775" lon="-1.9095333"><ele>259.5</ele><time>2026-05-03T16:02:28.786Z</time></trkpt><trkpt lat="53.6058" lon="-1.9094167"><ele>260.0</ele><time>2026-05-03T16:02:29.785Z</time></trkpt><trkpt lat="53.605825" lon="-1.9092967"><ele>260.5</ele><time>2026-05-03T16:02:30.784Z</time></trkpt><trkpt lat="53.605845" lon="-1.9091667"><ele>261.0</ele><time>2026-05-03T16:02:31.784Z</time></trkpt><trkpt lat="53.6058667" lon="-1.9090417"><ele>261.5</ele><time>2026-05-03T16:02:32.783Z</time></trkpt><trkpt lat="53.6058833" lon="-1.90891"><ele>262.0</ele><time>2026-05-03T16:02:33.782Z</time></trkpt><trkpt lat="53.6059033" lon="-1.9087767"><ele>262.66666666666663</ele><time>2026-05-03T16:02:34.783Z</time></trkpt><trkpt lat="53.6059267" lon="-1.90865"><ele>263.3333333333333</ele><time>2026-05-03T16:02:35.784Z</time></trkpt><trkpt lat="53.6059483" lon="-1.90852"><ele>264.0</ele><time>2026-05-03T16:02:36.783Z</time></trkpt><trkpt lat="53.6059683" lon="-1.9083817"><ele>264.6666666666667</ele><time>2026-05-03T16:02:37.788Z</time></trkpt><trkpt lat="53.6059883" lon="-1.9082417"><ele>265.33333333333337</ele><time>2026-05-03T16:02:38.784Z</time></trkpt><trkpt lat="53.6060083" lon="-1.908095"><ele>266.0</ele><time>2026-05-03T16:02:39.784Z</time></trkpt><trkpt lat="53.6060317" lon="-1.90794"><ele>266.6</ele><time>2026-05-03T16:02:40.783Z</time></trkpt><trkpt lat="53.606055" lon="-1.907785"><ele>267.20000000000005</ele><time>2026-05-03T16:02:41.786Z</time></trkpt><trkpt lat="53.6060767" lon="-1.9076217"><ele>267.79999999999995</ele><time>2026-05-03T16:02:42.786Z</time></trkpt><trkpt lat="53.6060983" lon="-1.9074517"><ele>268.4</ele><time>2026-05-03T16:02:43.784Z</time></trkpt><trkpt lat="53.60612" lon="-1.9072817"><ele>269.0</ele><time>2026-05-03T16:02:44.783Z</time></trkpt><trkpt lat="53.6061417" lon="-1.9071067"><ele>268.0</ele><time>2026-05-03T16:02:45.781Z</time></trkpt><trkpt lat="53.606165" lon="-1.9069267"><ele>267.0</ele><time>2026-05-03T16:02:46.782Z</time></trkpt><trkpt lat="53.6061867" lon="-1.9067383"><ele>266.0</ele><time>2026-05-03T16:02:47.783Z</time></trkpt><trkpt lat="53.6062083" lon="-1.906535"><ele>265.0</ele><time>2026-05-03T16:02:48.782Z</time></trkpt><trkpt lat="53.6062283" lon="-1.9063233"><ele>265.0</ele><time>2026-05-03T16:02:49.784Z</time></trkpt><trkpt lat="53.60625" lon="-1.9061117"><ele>265.0</ele><time>2026-05-03T16:02:50.786Z</time></trkpt><trkpt lat="53.6062717" lon="-1.9058933"><ele>265.0</ele><time>2026-05-03T16:02:51.782Z</time></trkpt><trkpt lat="53.606295" lon="-1.90566"><ele>265.0</ele><time>2026-05-03T16:02:52.784Z</time></trkpt><trkpt lat="53.606315" lon="-1.90541"><ele>265.66666666666663</ele><time>2026-05-03T16:02:53.785Z</time></trkpt><trkpt lat="53.6063367" lon="-1.9051417"><ele>266.3333333333333</ele><time>2026-05-03T16:02:54.784Z</time></trkpt><trkpt lat="53.6063567" lon="-1.904865"><ele>267.0</ele><time>2026-05-03T16:02:55.784Z</time></trkpt><trkpt lat="53.6063783" lon="-1.904585"><ele>267.0</ele><time>2026-05-03T16:02:56.786Z</time></trkpt><trkpt lat="53.6064017" lon="-1.9042967"><ele>267.0</ele><time>2026-05-03T16:02:57.786Z</time></trkpt><trkpt lat="53.6064283" lon="-1.904"><ele>267.0</ele><time>2026-05-03T16:02:58.783Z</time></trkpt><trkpt lat="53.6064583" lon="-1.9036933"><ele>268.3333333333333</ele><time>2026-05-03T16:02:59.783Z</time></trkpt><trkpt lat="53.606485" lon="-1.9033833"><ele>269.66666666666663</ele><time>2026-05-03T16:03:00.783Z</time></trkpt><trkpt lat="53.6065133" lon="-1.9030617"><ele>271.0</ele><time>2026-05-03T16:03:01.782Z</time></trkpt><trkpt lat="53.6065417" lon="-1.902735"><ele>271.3333333333333</ele><time>2026-05-03T16:03:02.784Z</time></trkpt><trkpt lat="53.6065717" lon="-1.902405"><ele>271.6666666666667</ele><time>2026-05-03T16:03:03.783Z</time></trkpt><trkpt lat="53.6066033" lon="-1.90207"><ele>272.0</ele><time>2026-05-03T16:03:04.783Z</time></trkpt><trkpt lat="53.6066383" lon="-1.9017267"><ele>272.6666666666667</ele><time>2026-05-03T16:03:05.784Z</time></trkpt><trkpt lat="53.6066717" lon="-1.9013817"><ele>273.3333333333333</ele><time>2026-05-03T16:03:06.786Z</time></trkpt><trkpt lat="53.6067083" lon="-1.9010333"><ele>274.0</ele><time>2026-05-03T16:03:07.784Z</time></trkpt><trkpt lat="53.6067417" lon="-1.90068"><ele>275.0</ele><time>2026-05-03T16:03:08.786Z</time></trkpt><trkpt lat="53.6067783" lon="-1.9003233"><ele>276.0</ele><time>2026-05-03T16:03:09.785Z</time></trkpt><trkpt lat="53.6068167" lon="-1.8999733"><ele>277.0</ele><time>2026-05-03T16:03:10.784Z</time></trkpt><trkpt lat="53.606855" lon="-1.8996267"><ele>278.3333333333333</ele><time>2026-05-03T16:03:11.784Z</time></trkpt><trkpt lat="53.6068967" lon="-1.89928"><ele>279.6666666666667</ele><time>2026-05-03T16:03:12.783Z</time></trkpt><trkpt lat="53.6069483" lon="-1.8989317"><ele>281.0</ele><time>2026-05-03T16:03:13.783Z</time></trkpt><trkpt lat="53.6070067" lon="-1.8985883"><ele>279.33333333333337</ele><time>2026-05-03T16:03:14.783Z</time></trkpt><trkpt lat="53.6070717" lon="-1.898245"><ele>277.6666666666667</ele><time>2026-05-03T16:03:15.785Z</time></trkpt><trkpt lat="53.60714" lon="-1.897895"><ele>276.0</ele><time>2026-05-03T16:03:16.786Z</time></trkpt><trkpt lat="53.607205" lon="-1.8975367"><ele>276.0</ele><time>2026-05-03T16:03:17.785Z</time></trkpt><trkpt lat="53.6072783" lon="-1.89718"><ele>276.0</ele><time>2026-05-03T16:03:18.782Z</time></trkpt><trkpt lat="53.6073617" lon="-1.8968283"><ele>276.0</ele><time>2026-05-03T16:03:19.783Z</time></trkpt><trkpt lat="53.6074583" lon="-1.8964733"><ele>278.0</ele><time>2026-05-03T16:03:20.784Z</time></trkpt><trkpt lat="53.6075617" lon="-1.8961133"><ele>280.0</ele><time>2026-05-03T16:03:21.783Z</time></trkpt><trkpt lat="53.6076683" lon="-1.8957533"><ele>278.0</ele><time>2026-05-03T16:03:22.783Z</time></trkpt><trkpt lat="53.6077833" lon="-1.8954067"><ele>276.0</ele><time>2026-05-03T16:03:23.785Z</time></trkpt><trkpt lat="53.6079017" lon="-1.89506"><ele>276.0</ele><time>2026-05-03T16:03:24.784Z</time></trkpt><trkpt lat="53.6080183" lon="-1.894705"><ele>276.0</ele><time>2026-05-03T16:03:25.784Z</time></trkpt><trkpt lat="53.608135" lon="-1.8943467"><ele>279.0</ele><time>2026-05-03T16:03:26.784Z</time></trkpt><trkpt lat="53.608255" lon="-1.89399"><ele>282.0</ele><time>2026-05-03T16:03:27.784Z</time></trkpt><trkpt lat="53.6083767" lon="-1.893625"><ele>285.0</ele><time>2026-05-03T16:03:28.787Z</time></trkpt><trkpt lat="53.6085017" lon="-1.8932633"><ele>288.0</ele><time>2026-05-03T16:03:29.782Z</time></trkpt><trkpt lat="53.6086233" lon="-1.8929117"><ele>285.6666666666667</ele><time>2026-05-03T16:03:30.787Z</time></trkpt><trkpt lat="53.60874" lon="-1.8925817"><ele>283.33333333333337</ele><time>2026-05-03T16:03:31.784Z</time></trkpt><trkpt lat="53.608845" lon="-1.8922733"><ele>281.0</ele><time>2026-05-03T16:03:32.786Z</time></trkpt><trkpt lat="53.6089417" lon="-1.8919883"><ele>283.0</ele><time>2026-05-03T16:03:33.784Z</time></trkpt><trkpt lat="53.6090367" lon="-1.8916983"><ele>285.0</ele><time>2026-05-03T16:03:34.787Z</time></trkpt><trkpt lat="53.609125" lon="-1.8913967"><ele>287.0</ele><time>2026-05-03T16:03:35.784Z</time></trkpt><trkpt lat="53.6092067" lon="-1.89109"><ele>288.6666666666667</ele><time>2026-05-03T16:03:36.786Z</time></trkpt><trkpt lat="53.60928" lon="-1.8907717"><ele>290.3333333333333</ele><time>2026-05-03T16:03:37.788Z</time></trkpt><trkpt lat="53.60934" lon="-1.8904433"><ele>292.0</ele><time>2026-05-03T16:03:38.783Z</time></trkpt><trkpt lat="53.6093867" lon="-1.8901217"><ele>293.0</ele><time>2026-05-03T16:03:39.784Z</time></trkpt><trkpt lat="53.60942" lon="-1.8898"><ele>294.0</ele><time>2026-05-03T16:03:40.783Z</time></trkpt><trkpt lat="53.6094483" lon="-1.889485"><ele>295.0</ele><time>2026-05-03T16:03:41.788Z</time></trkpt><trkpt lat="53.6094783" lon="-1.8891717"><ele>294.0</ele><time>2026-05-03T16:03:42.788Z</time></trkpt><trkpt lat="53.6095017" lon="-1.8888433"><ele>293.0</ele><time>2026-05-03T16:03:43.785Z</time></trkpt><trkpt lat="53.609515" lon="-1.8884917"><ele>292.0</ele><time>2026-05-03T16:03:44.783Z</time></trkpt><trkpt lat="53.6095167" lon="-1.8881367"><ele>292.0</ele><time>2026-05-03T16:03:45.785Z</time></trkpt><trkpt lat="53.6095133" lon="-1.8878033"><ele>292.0</ele><time>2026-05-03T16:03:46.787Z</time></trkpt><trkpt lat="53.6095117" lon="-1.8874917"><ele>292.0</ele><time>2026-05-03T16:03:47.784Z</time></trkpt><trkpt lat="53.6095083" lon="-1.887205"><ele>291.75</ele><time>2026-05-03T16:03:48.782Z</time></trkpt><trkpt lat="53.6095" lon="-1.8869433"><ele>291.5</ele><time>2026-05-03T16:03:49.784Z</time></trkpt><trkpt lat="53.6094867" lon="-1.8866983"><ele>291.25</ele><time>2026-05-03T16:03:50.784Z</time></trkpt><trkpt lat="53.6094667" lon="-1.8864633"><ele>291.0</ele><time>2026-05-03T16:03:51.784Z</time></trkpt><trkpt lat="53.6094367" lon="-1.886235"><ele>289.75</ele><time>2026-05-03T16:03:52.786Z</time></trkpt><trkpt lat="53.6093933" lon="-1.8860133"><ele>288.5</ele><time>2026-05-03T16:03:53.785Z</time></trkpt><trkpt lat="53.6093417" lon="-1.8858067"><ele>287.25</ele><time>2026-05-03T16:03:54.783Z</time></trkpt><trkpt lat="53.6092817" lon="-1.88561"><ele>286.0</ele><time>2026-05-03T16:03:55.784Z</time></trkpt><trkpt lat="53.6092167" lon="-1.8854283"><ele>285.5</ele><time>2026-05-03T16:03:56.783Z</time></trkpt><trkpt lat="53.609145" lon="-1.88525"><ele>285.0</ele><time>2026-05-03T16:03:57.784Z</time></trkpt><trkpt lat="53.6090867" lon="-1.8850767"><ele>284.5</ele><time>2026-05-03T16:03:58.783Z</time></trkpt><trkpt lat="53.6090333" lon="-1.8849067"><ele>284.0</ele><time>2026-05-03T16:03:59.785Z</time></trkpt><trkpt lat="53.608975" lon="-1.884735"><ele>283.25</ele><time>2026-05-03T16:04:00.784Z</time></trkpt><trkpt lat="53.608905" lon="-1.8845817"><ele>282.5</ele><time>2026-05-03T16:04:01.785Z</time></trkpt><trkpt lat="53.6088183" lon="-1.8844483"><ele>281.75</ele><time>2026-05-03T16:04:02.784Z</time></trkpt><trkpt lat="53.60872" lon="-1.8843267"><ele>281.0</ele><time>2026-05-03T16:04:03.784Z</time></trkpt><trkpt lat="53.6086067" lon="-1.8842133"><ele>279.75</ele><time>2026-05-03T16:04:04.783Z</time></trkpt><trkpt lat="53.608485" lon="-1.88412"><ele>278.5</ele><time>2026-05-03T16:04:05.784Z</time></trkpt><trkpt lat="53.6083683" lon="-1.8840417"><ele>277.25</ele><time>2026-05-03T16:04:06.785Z</time></trkpt><trkpt lat="53.6082583" lon="-1.8839717"><ele>276.0</ele><time>2026-05-03T16:04:07.783Z</time></trkpt><trkpt lat="53.6081583" lon="-1.8839067"><ele>276.0</ele><time>2026-05-03T16:04:08.783Z</time></trkpt><trkpt lat="53.60807" lon="-1.8838383"><ele>276.0</ele><time>2026-05-03T16:04:09.782Z</time></trkpt><trkpt lat="53.60799" lon="-1.8837567"><ele>276.0</ele><time>2026-05-03T16:04:10.784Z</time></trkpt><trkpt lat="53.607915" lon="-1.8836483"><ele>276.0</ele><time>2026-05-03T16:04:11.785Z</time></trkpt><trkpt lat="53.607825" lon="-1.8835283"><ele>276.0</ele><time>2026-05-03T16:04:12.783Z</time></trkpt><trkpt lat="53.6077267" lon="-1.883395"><ele>274.5</ele><time>2026-05-03T16:04:13.786Z</time></trkpt><trkpt lat="53.6076133" lon="-1.8832633"><ele>273.0</ele><time>2026-05-03T16:04:14.783Z</time></trkpt><trkpt lat="53.6074933" lon="-1.8831433"><ele>271.5</ele><time>2026-05-03T16:04:15.783Z</time></trkpt><trkpt lat="53.607375" lon="-1.8830467"><ele>270.0</ele><time>2026-05-03T16:04:16.783Z</time></trkpt><trkpt lat="53.6072717" lon="-1.8829567"><ele>270.0</ele><time>2026-05-03T16:04:17.782Z</time></trkpt><trkpt lat="53.6071767" lon="-1.8828817"><ele>270.0</ele><time>2026-05-03T16:04:18.783Z</time></trkpt><trkpt lat="53.607095" lon="-1.88281"><ele>270.0</ele><time>2026-05-03T16:04:19.786Z</time></trkpt><trkpt lat="53.60702" lon="-1.882745"><ele>270.0</ele><time>2026-05-03T16:04:20.785Z</time></trkpt><trkpt lat="53.60695" lon="-1.8826567"><ele>270.0</ele><time>2026-05-03T16:04:21.784Z</time></trkpt><trkpt lat="53.6069" lon="-1.8825317"><ele>269.0</ele><time>2026-05-03T16:04:22.783Z</time></trkpt><trkpt lat="53.6068617" lon="-1.8823733"><ele>268.0</ele><time>2026-05-03T16:04:23.785Z</time></trkpt><trkpt lat="53.60682" lon="-1.8822133"><ele>267.0</ele><time>2026-05-03T16:04:24.783Z</time></trkpt><trkpt lat="53.6067617" lon="-1.88206"><ele>266.0</ele><time>2026-05-03T16:04:25.785Z</time></trkpt><trkpt lat="53.606695" lon="-1.881935"><ele>265.0</ele><time>2026-05-03T16:04:26.783Z</time></trkpt><trkpt lat="53.6066267" lon="-1.8818083"><ele>264.25</ele><time>2026-05-03T16:04:27.785Z</time></trkpt><trkpt lat="53.6065733" lon="-1.8816533"><ele>263.5</ele><time>2026-05-03T16:04:28.784Z</time></trkpt><trkpt lat="53.6065317" lon="-1.8814683"><ele>262.75</ele><time>2026-05-03T16:04:29.784Z</time></trkpt><trkpt lat="53.606505" lon="-1.8812583"><ele>262.0</ele><time>2026-05-03T16:04:30.784Z</time></trkpt><trkpt lat="53.6064933" lon="-1.881055"><ele>261.6</ele><time>2026-05-03T16:04:31.784Z</time></trkpt><trkpt lat="53.6064883" lon="-1.8808767"><ele>261.2</ele><time>2026-05-03T16:04:32.784Z</time></trkpt><trkpt lat="53.6064733" lon="-1.88072"><ele>260.8</ele><time>2026-05-03T16:04:33.783Z</time></trkpt><trkpt lat="53.60644" lon="-1.8805933"><ele>260.4</ele><time>2026-05-03T16:04:34.782Z</time></trkpt><trkpt lat="53.606385" lon="-1.8804883"><ele>260.0</ele><time>2026-05-03T16:04:35.785Z</time></trkpt><trkpt lat="53.6063117" lon="-1.8803917"><ele>260.0</ele><time>2026-05-03T16:04:36.784Z</time></trkpt><trkpt lat="53.6062183" lon="-1.8802967"><ele>260.0</ele><time>2026-05-03T16:04:37.783Z</time></trkpt><trkpt lat="53.60611" lon="-1.880205"><ele>260.0</ele><time>2026-05-03T16:04:38.784Z</time></trkpt><trkpt lat="53.6059917" lon="-1.880105"><ele>260.0</ele><time>2026-05-03T16:04:39.783Z</time></trkpt><trkpt lat="53.6058517" lon="-1.8800067"><ele>262.0</ele><time>2026-05-03T16:04:40.784Z</time></trkpt><trkpt lat="53.6057133" lon="-1.8799167"><ele>264.0</ele><time>2026-05-03T16:04:41.784Z</time></trkpt><trkpt lat="53.605585" lon="-1.879835"><ele>266.0</ele><time>2026-05-03T16:04:42.784Z</time></trkpt><trkpt lat="53.60546" lon="-1.8797617"><ele>268.0</ele><time>2026-05-03T16:04:43.784Z</time></trkpt><trkpt lat="53.6053383" lon="-1.8796767"><ele>270.0</ele><time>2026-05-03T16:04:44.782Z</time></trkpt><trkpt lat="53.6052133" lon="-1.8795783"><ele>272.0</ele><time>2026-05-03T16:04:45.782Z</time></trkpt><trkpt lat="53.605085" lon="-1.87944"><ele>274.0</ele><time>2026-05-03T16:04:46.783Z</time></trkpt><trkpt lat="53.6049483" lon="-1.8792717"><ele>274.3333333333333</ele><time>2026-05-03T16:04:47.783Z</time></trkpt><trkpt lat="53.6048133" lon="-1.879075"><ele>274.6666666666667</ele><time>2026-05-03T16:04:48.783Z</time></trkpt><trkpt lat="53.60468" lon="-1.8788533"><ele>275.0</ele><time>2026-05-03T16:04:49.784Z</time></trkpt><trkpt lat="53.604555" lon="-1.8786283"><ele>277.33333333333337</ele><time>2026-05-03T16:04:50.783Z</time></trkpt><trkpt lat="53.6044383" lon="-1.8784067"><ele>279.6666666666667</ele><time>2026-05-03T16:04:51.784Z</time></trkpt><trkpt lat="53.604325" lon="-1.8781917"><ele>282.0</ele><time>2026-05-03T16:04:52.785Z</time></trkpt><trkpt lat="53.6042167" lon="-1.877975"><ele>282.0</ele><time>2026-05-03T16:04:53.783Z</time></trkpt><trkpt lat="53.6041083" lon="-1.8777583"><ele>282.0</ele><time>2026-05-03T16:04:54.783Z</time></trkpt><trkpt lat="53.604005" lon="-1.8775367"><ele>282.0</ele><time>2026-05-03T16:04:55.782Z</time></trkpt><trkpt lat="53.6039067" lon="-1.877315"><ele>283.0</ele><time>2026-05-03T16:04:56.785Z</time></trkpt><trkpt lat="53.60382" lon="-1.8771033"><ele>284.0</ele><time>2026-05-03T16:04:57.784Z</time></trkpt><trkpt lat="53.6037483" lon="-1.876905"><ele>285.0</ele><time>2026-05-03T16:04:58.782Z</time></trkpt><trkpt lat="53.6036833" lon="-1.8767117"><ele>286.0</ele><time>2026-05-03T16:04:59.783Z</time></trkpt><trkpt lat="53.6036233" lon="-1.876515"><ele>287.0</ele><time>2026-05-03T16:05:00.785Z</time></trkpt><trkpt lat="53.6035633" lon="-1.8763083"><ele>288.0</ele><time>2026-05-03T16:05:01.784Z</time></trkpt><trkpt lat="53.6035017" lon="-1.8760933"><ele>289.0</ele><time>2026-05-03T16:05:02.784Z</time></trkpt><trkpt lat="53.6034317" lon="-1.8758617"><ele>290.0</ele><time>2026-05-03T16:05:03.784Z</time></trkpt><trkpt lat="53.603355" lon="-1.8756233"><ele>290.33333333333337</ele><time>2026-05-03T16:05:04.784Z</time></trkpt><trkpt lat="53.603275" lon="-1.875385"><ele>290.6666666666667</ele><time>2026-05-03T16:05:05.782Z</time></trkpt><trkpt lat="53.6031883" lon="-1.8751417"><ele>291.0</ele><time>2026-05-03T16:05:06.785Z</time></trkpt><trkpt lat="53.6031067" lon="-1.874915"><ele>291.0</ele><time>2026-05-03T16:05:07.783Z</time></trkpt><trkpt lat="53.6030267" lon="-1.8746983"><ele>291.0</ele><time>2026-05-03T16:05:08.786Z</time></trkpt><trkpt lat="53.6029483" lon="-1.8744917"><ele>291.0</ele><time>2026-05-03T16:05:09.784Z</time></trkpt><trkpt lat="53.6028683" lon="-1.874285"><ele>291.0</ele><time>2026-05-03T16:05:10.783Z</time></trkpt><trkpt lat="53.6027833" lon="-1.8740817"><ele>290.25</ele><time>2026-05-03T16:05:11.783Z</time></trkpt><trkpt lat="53.6026983" lon="-1.8738883"><ele>289.5</ele><time>2026-05-03T16:05:12.784Z</time></trkpt><trkpt lat="53.6026133" lon="-1.8737017"><ele>288.75</ele><time>2026-05-03T16:05:13.783Z</time></trkpt><trkpt lat="53.6025233" lon="-1.87351"><ele>288.0</ele><time>2026-05-03T16:05:14.782Z</time></trkpt><trkpt lat="53.602435" lon="-1.8733117"><ele>287.3333333333333</ele><time>2026-05-03T16:05:15.784Z</time></trkpt><trkpt lat="53.6023467" lon="-1.8731083"><ele>286.66666666666663</ele><time>2026-05-03T16:05:16.785Z</time></trkpt><trkpt lat="53.602255" lon="-1.8729"><ele>286.0</ele><time>2026-05-03T16:05:17.784Z</time></trkpt><trkpt lat="53.602165" lon="-1.8726967"><ele>285.5</ele><time>2026-05-03T16:05:18.785Z</time></trkpt><trkpt lat="53.6020833" lon="-1.872505"><ele>285.0</ele><time>2026-05-03T16:05:19.783Z</time></trkpt><trkpt lat="53.6020033" lon="-1.872315"><ele>284.5</ele><time>2026-05-03T16:05:20.783Z</time></trkpt><trkpt lat="53.6019233" lon="-1.8721283"><ele>284.0</ele><time>2026-05-03T16:05:21.783Z</time></trkpt><trkpt lat="53.601845" lon="-1.87194"><ele>282.5</ele><time>2026-05-03T16:05:22.784Z</time></trkpt><trkpt lat="53.6017667" lon="-1.8717467"><ele>281.0</ele><time>2026-05-03T16:05:23.784Z</time></trkpt><trkpt lat="53.6016883" lon="-1.8715483"><ele>279.5</ele><time>2026-05-03T16:05:24.785Z</time></trkpt><trkpt lat="53.6016133" lon="-1.871345"><ele>278.0</ele><time>2026-05-03T16:05:25.789Z</time></trkpt><trkpt lat="53.6015317" lon="-1.8711367"><ele>277.5</ele><time>2026-05-03T16:05:26.784Z</time></trkpt><trkpt lat="53.60145" lon="-1.8709267"><ele>277.0</ele><time>2026-05-03T16:05:27.784Z</time></trkpt><trkpt lat="53.601375" lon="-1.8707217"><ele>276.5</ele><time>2026-05-03T16:05:28.783Z</time></trkpt><trkpt lat="53.6013033" lon="-1.8705133"><ele>276.0</ele><time>2026-05-03T16:05:29.784Z</time></trkpt><trkpt lat="53.6012317" lon="-1.8703167"><ele>276.0</ele><time>2026-05-03T16:05:30.783Z</time></trkpt><trkpt lat="53.6011667" lon="-1.8701333"><ele>276.0</ele><time>2026-05-03T16:05:31.782Z</time></trkpt><trkpt lat="53.6010967" lon="-1.8699683"><ele>276.0</ele><time>2026-05-03T16:05:32.785Z</time></trkpt><trkpt lat="53.601035" lon="-1.8698017"><ele>276.0</ele><time>2026-05-03T16:05:33.784Z</time></trkpt><trkpt lat="53.6009717" lon="-1.8696417"><ele>274.0</ele><time>2026-05-03T16:05:34.784Z</time></trkpt><trkpt lat="53.6009117" lon="-1.869485"><ele>272.0</ele><time>2026-05-03T16:05:35.783Z</time></trkpt><trkpt lat="53.600855" lon="-1.869325"><ele>270.0</ele><time>2026-05-03T16:05:36.784Z</time></trkpt><trkpt lat="53.600805" lon="-1.8691683"><ele>268.0</ele><time>2026-05-03T16:05:37.785Z</time></trkpt><trkpt lat="53.600765" lon="-1.8690217"><ele>266.0</ele><time>2026-05-03T16:05:38.784Z</time></trkpt><trkpt lat="53.60072" lon="-1.868875"><ele>265.6</ele><time>2026-05-03T16:05:39.783Z</time></trkpt><trkpt lat="53.6006717" lon="-1.8687333"><ele>265.20000000000005</ele><time>2026-05-03T16:05:40.784Z</time></trkpt><trkpt lat="53.6006267" lon="-1.8686"><ele>264.79999999999995</ele><time>2026-05-03T16:05:41.785Z</time></trkpt><trkpt lat="53.6005817" lon="-1.86847"><ele>264.4</ele><time>2026-05-03T16:05:42.784Z</time></trkpt><trkpt lat="53.6005317" lon="-1.8683383"><ele>264.0</ele><time>2026-05-03T16:05:43.785Z</time></trkpt><trkpt lat="53.600485" lon="-1.8682017"><ele>263.8</ele><time>2026-05-03T16:05:44.782Z</time></trkpt><trkpt lat="53.600445" lon="-1.8680633"><ele>263.59999999999997</ele><time>2026-05-03T16:05:45.784Z</time></trkpt><trkpt lat="53.6004017" lon="-1.8679083"><ele>263.4</ele><time>2026-05-03T16:05:46.784Z</time></trkpt><trkpt lat="53.600355" lon="-1.8677533"><ele>263.2</ele><time>2026-05-03T16:05:47.784Z</time></trkpt><trkpt lat="53.6003017" lon="-1.8675883"><ele>263.0</ele><time>2026-05-03T16:05:48.782Z</time></trkpt><trkpt lat="53.6002467" lon="-1.86741"><ele>261.25</ele><time>2026-05-03T16:05:49.784Z</time></trkpt><trkpt lat="53.6001917" lon="-1.8672317"><ele>259.5</ele><time>2026-05-03T16:05:50.784Z</time></trkpt><trkpt lat="53.6001333" lon="-1.86704"><ele>257.75</ele><time>2026-05-03T16:05:51.783Z</time></trkpt><trkpt lat="53.6000717" lon="-1.8668533"><ele>256.0</ele><time>2026-05-03T16:05:52.783Z</time></trkpt><trkpt lat="53.6000117" lon="-1.866675"><ele>255.60000000000002</ele><time>2026-05-03T16:05:53.784Z</time></trkpt><trkpt lat="53.5999533" lon="-1.866505"><ele>255.20000000000002</ele><time>2026-05-03T16:05:54.784Z</time></trkpt><trkpt lat="53.599895" lon="-1.8663467"><ele>254.79999999999998</ele><time>2026-05-03T16:05:55.784Z</time></trkpt><trkpt lat="53.5998383" lon="-1.866185"><ele>254.39999999999998</ele><time>2026-05-03T16:05:56.782Z</time></trkpt><trkpt lat="53.5997767" lon="-1.86603"><ele>254.0</ele><time>2026-05-03T16:05:57.783Z</time></trkpt><trkpt lat="53.5997133" lon="-1.8658867"><ele>253.6</ele><time>2026-05-03T16:05:58.783Z</time></trkpt><trkpt lat="53.599655" lon="-1.86574"><ele>253.2</ele><time>2026-05-03T16:05:59.783Z</time></trkpt><trkpt lat="53.5995933" lon="-1.8655817"><ele>252.79999999999998</ele><time>2026-05-03T16:06:00.785Z</time></trkpt><trkpt lat="53.5995283" lon="-1.865425"><ele>252.39999999999998</ele><time>2026-05-03T16:06:01.784Z</time></trkpt><trkpt lat="53.599465" lon="-1.865265"><ele>252.0</ele><time>2026-05-03T16:06:02.784Z</time></trkpt><trkpt lat="53.5994067" lon="-1.86511"><ele>250.8</ele><time>2026-05-03T16:06:03.783Z</time></trkpt><trkpt lat="53.5993483" lon="-1.86496"><ele>249.6</ele><time>2026-05-03T16:06:04.783Z</time></trkpt><trkpt lat="53.5992833" lon="-1.8648167"><ele>248.40000000000003</ele><time>2026-05-03T16:06:05.783Z</time></trkpt><trkpt lat="53.5992233" lon="-1.8646783"><ele>247.20000000000002</ele><time>2026-05-03T16:06:06.784Z</time></trkpt><trkpt lat="53.5991617" lon="-1.86454"><ele>246.0</ele><time>2026-05-03T16:06:07.783Z</time></trkpt><trkpt lat="53.5990967" lon="-1.864395"><ele>245.75</ele><time>2026-05-03T16:06:08.784Z</time></trkpt><trkpt lat="53.599025" lon="-1.8642417"><ele>245.5</ele><time>2026-05-03T16:06:09.784Z</time></trkpt><trkpt lat="53.5989517" lon="-1.864085"><ele>245.25</ele><time>2026-05-03T16:06:10.784Z</time></trkpt><trkpt lat="53.5988767" lon="-1.86393"><ele>245.0</ele><time>2026-05-03T16:06:11.784Z</time></trkpt><trkpt lat="53.598805" lon="-1.8637833"><ele>245.0</ele><time>2026-05-03T16:06:12.784Z</time></trkpt><trkpt lat="53.598735" lon="-1.8636417"><ele>245.0</ele><time>2026-05-03T16:06:13.784Z</time></trkpt><trkpt lat="53.598665" lon="-1.8635033"><ele>245.0</ele><time>2026-05-03T16:06:14.783Z</time></trkpt><trkpt lat="53.5985917" lon="-1.86336"><ele>245.0</ele><time>2026-05-03T16:06:15.784Z</time></trkpt><trkpt lat="53.59852" lon="-1.8632133"><ele>245.0</ele><time>2026-05-03T16:06:16.784Z</time></trkpt><trkpt lat="53.5984467" lon="-1.86307"><ele>244.0</ele><time>2026-05-03T16:06:17.785Z</time></trkpt><trkpt lat="53.5983783" lon="-1.8629317"><ele>243.0</ele><time>2026-05-03T16:06:18.782Z</time></trkpt><trkpt lat="53.598305" lon="-1.8627867"><ele>242.0</ele><time>2026-05-03T16:06:19.783Z</time></trkpt><trkpt lat="53.5982367" lon="-1.8626483"><ele>241.0</ele><time>2026-05-03T16:06:20.784Z</time></trkpt><trkpt lat="53.5981633" lon="-1.8625033"><ele>240.0</ele><time>2026-05-03T16:06:21.784Z</time></trkpt><trkpt lat="53.5980867" lon="-1.8623583"><ele>239.2</ele><time>2026-05-03T16:06:22.785Z</time></trkpt><trkpt lat="53.5980133" lon="-1.8622183"><ele>238.4</ele><time>2026-05-03T16:06:23.784Z</time></trkpt><trkpt lat="53.5979383" lon="-1.8620733"><ele>237.60000000000002</ele><time>2026-05-03T16:06:24.783Z</time></trkpt><trkpt lat="53.5978667" lon="-1.86193"><ele>236.8</ele><time>2026-05-03T16:06:25.785Z</time></trkpt><trkpt lat="53.597795" lon="-1.861795"><ele>236.0</ele><time>2026-05-03T16:06:26.783Z</time></trkpt><trkpt lat="53.5977267" lon="-1.861665"><ele>235.0</ele><time>2026-05-03T16:06:27.784Z</time></trkpt><trkpt lat="53.5976517" lon="-1.8615333"><ele>234.00000000000003</ele><time>2026-05-03T16:06:28.784Z</time></trkpt><trkpt lat="53.5975833" lon="-1.86141"><ele>233.00000000000003</ele><time>2026-05-03T16:06:29.785Z</time></trkpt><trkpt lat="53.5975217" lon="-1.8612933"><ele>232.0</ele><time>2026-05-03T16:06:30.784Z</time></trkpt><trkpt lat="53.5974617" lon="-1.8611833"><ele>231.0</ele><time>2026-05-03T16:06:31.785Z</time></trkpt><trkpt lat="53.5973967" lon="-1.86107"><ele>231.0</ele><time>2026-05-03T16:06:32.784Z</time></trkpt><trkpt lat="53.5973267" lon="-1.86095"><ele>231.00000000000003</ele><time>2026-05-03T16:06:33.783Z</time></trkpt><trkpt lat="53.5972533" lon="-1.8608133"><ele>231.00000000000003</ele><time>2026-05-03T16:06:34.783Z</time></trkpt><trkpt lat="53.5971817" lon="-1.860675"><ele>231.0</ele><time>2026-05-03T16:06:35.785Z</time></trkpt><trkpt lat="53.5971117" lon="-1.860545"><ele>231.0</ele><time>2026-05-03T16:06:36.783Z</time></trkpt><trkpt lat="53.5970433" lon="-1.8604167"><ele>229.8</ele><time>2026-05-03T16:06:37.783Z</time></trkpt><trkpt lat="53.5969767" lon="-1.8602867"><ele>228.60000000000002</ele><time>2026-05-03T16:06:38.784Z</time></trkpt><trkpt lat="53.5969067" lon="-1.8601583"><ele>227.4</ele><time>2026-05-03T16:06:39.784Z</time></trkpt><trkpt lat="53.5968367" lon="-1.8600283"><ele>226.2</ele><time>2026-05-03T16:06:40.782Z</time></trkpt><trkpt lat="53.596765" lon="-1.859895"><ele>225.0</ele><time>2026-05-03T16:06:41.784Z</time></trkpt><trkpt lat="53.5966917" lon="-1.8597617"><ele>224.4</ele><time>2026-05-03T16:06:42.783Z</time></trkpt><trkpt lat="53.5966217" lon="-1.8596267"><ele>223.8</ele><time>2026-05-03T16:06:43.784Z</time></trkpt><trkpt lat="53.5965533" lon="-1.85949"><ele>223.2</ele><time>2026-05-03T16:06:44.784Z</time></trkpt><trkpt lat="53.5964817" lon="-1.8593617"><ele>222.6</ele><time>2026-05-03T16:06:45.785Z</time></trkpt><trkpt lat="53.5964167" lon="-1.8592383"><ele>222.0</ele><time>2026-05-03T16:06:46.784Z</time></trkpt><trkpt lat="53.5963533" lon="-1.8591183"><ele>221.39999999999998</ele><time>2026-05-03T16:06:47.784Z</time></trkpt><trkpt lat="53.5962867" lon="-1.8589917"><ele>220.79999999999998</ele><time>2026-05-03T16:06:48.784Z</time></trkpt><trkpt lat="53.5962217" lon="-1.8588683"><ele>220.2</ele><time>2026-05-03T16:06:49.783Z</time></trkpt><trkpt lat="53.59616" lon="-1.858745"><ele>219.6</ele><time>2026-05-03T16:06:50.788Z</time></trkpt><trkpt lat="53.5961" lon="-1.85862"><ele>219.0</ele><time>2026-05-03T16:06:51.784Z</time></trkpt><trkpt lat="53.59604" lon="-1.8585"><ele>217.6</ele><time>2026-05-03T16:06:52.785Z</time></trkpt><trkpt lat="53.5959783" lon="-1.85838"><ele>216.2</ele><time>2026-05-03T16:06:53.785Z</time></trkpt><trkpt lat="53.5959167" lon="-1.858265"><ele>214.79999999999998</ele><time>2026-05-03T16:06:54.784Z</time></trkpt><trkpt lat="53.5958583" lon="-1.8581533"><ele>213.39999999999998</ele><time>2026-05-03T16:06:55.784Z</time></trkpt><trkpt lat="53.5957983" lon="-1.85804"><ele>212.0</ele><time>2026-05-03T16:06:56.783Z</time></trkpt><trkpt lat="53.59574" lon="-1.8579267"><ele>212.00000000000003</ele><time>2026-05-03T16:06:57.784Z</time></trkpt><trkpt lat="53.5956833" lon="-1.85782"><ele>212.0</ele><time>2026-05-03T16:06:58.782Z</time></trkpt><trkpt lat="53.5956383" lon="-1.8577133"><ele>212.0</ele><time>2026-05-03T16:06:59.786Z</time></trkpt><trkpt lat="53.5956" lon="-1.8575917"><ele>212.0</ele><time>2026-05-03T16:07:00.785Z</time></trkpt><trkpt lat="53.5955417" lon="-1.8574683"><ele>212.00000000000003</ele><time>2026-05-03T16:07:01.784Z</time></trkpt><trkpt lat="53.5954833" lon="-1.857345"><ele>212.0</ele><time>2026-05-03T16:07:02.785Z</time></trkpt><trkpt lat="53.5954283" lon="-1.8572283"><ele>211.83333333333334</ele><time>2026-05-03T16:07:03.785Z</time></trkpt><trkpt lat="53.5953733" lon="-1.8571133"><ele>211.66666666666669</ele><time>2026-05-03T16:07:04.783Z</time></trkpt><trkpt lat="53.5953233" lon="-1.8570083"><ele>211.5</ele><time>2026-05-03T16:07:05.784Z</time></trkpt><trkpt lat="53.59528" lon="-1.8569167"><ele>211.33333333333331</ele><time>2026-05-03T16:07:06.785Z</time></trkpt><trkpt lat="53.595205" lon="-1.8567783"><ele>211.16666666666666</ele><time>2026-05-03T16:07:08.784Z</time></trkpt><trkpt lat="53.5951383" lon="-1.856655"><ele>211.0</ele><time>2026-05-03T16:07:10.784Z</time></trkpt><trkpt lat="53.5950567" lon="-1.8565017"><ele>209.0</ele><time>2026-05-03T16:07:12.784Z</time></trkpt><trkpt lat="53.59498" lon="-1.85635"><ele>207.0</ele><time>2026-05-03T16:07:14.783Z</time></trkpt><trkpt lat="53.59491" lon="-1.856195"><ele>205.0</ele><time>2026-05-03T16:07:16.784Z</time></trkpt><trkpt lat="53.594835" lon="-1.8560433"><ele>203.0</ele><time>2026-05-03T16:07:18.785Z</time></trkpt><trkpt lat="53.59476" lon="-1.8558733"><ele>202.4</ele><time>2026-05-03T16:07:20.784Z</time></trkpt><trkpt lat="53.5946767" lon="-1.8557133"><ele>201.8</ele><time>2026-05-03T16:07:22.783Z</time></trkpt><trkpt lat="53.59463" lon="-1.855635"><ele>201.2</ele><time>2026-05-03T16:07:23.784Z</time></trkpt><trkpt lat="53.594545" lon="-1.85547"><ele>200.6</ele><time>2026-05-03T16:07:25.783Z</time></trkpt><trkpt lat="53.594495" lon="-1.8553833"><ele>200.0</ele><time>2026-05-03T16:07:26.784Z</time></trkpt><trkpt lat="53.5944417" lon="-1.8552917"><ele>198.50000000000003</ele><time>2026-05-03T16:07:27.783Z</time></trkpt><trkpt lat="53.5943983" lon="-1.855195"><ele>197.0</ele><time>2026-05-03T16:07:28.784Z</time></trkpt><trkpt lat="53.5943633" lon="-1.8550983"><ele>195.5</ele><time>2026-05-03T16:07:29.783Z</time></trkpt><trkpt lat="53.59431" lon="-1.8549117"><ele>194.0</ele><time>2026-05-03T16:07:31.784Z</time></trkpt><trkpt lat="53.5942917" lon="-1.8547867"><ele>192.5</ele><time>2026-05-03T16:07:32.784Z</time></trkpt><trkpt lat="53.5942733" lon="-1.85466"><ele>191.0</ele><time>2026-05-03T16:07:33.782Z</time></trkpt><trkpt lat="53.594255" lon="-1.854535"><ele>190.5</ele><time>2026-05-03T16:07:34.784Z</time></trkpt><trkpt lat="53.59424" lon="-1.8544083"><ele>190.0</ele><time>2026-05-03T16:07:35.787Z</time></trkpt><trkpt lat="53.5942283" lon="-1.8542667"><ele>189.5</ele><time>2026-05-03T16:07:36.783Z</time></trkpt><trkpt lat="53.594215" lon="-1.8541183"><ele>189.0</ele><time>2026-05-03T16:07:37.784Z</time></trkpt><trkpt lat="53.594205" lon="-1.853965"><ele>188.5</ele><time>2026-05-03T16:07:38.786Z</time></trkpt><trkpt lat="53.5941917" lon="-1.8538117"><ele>188.0</ele><time>2026-05-03T16:07:39.782Z</time></trkpt><trkpt lat="53.5941783" lon="-1.8536633"><ele>187.66666666666666</ele><time>2026-05-03T16:07:40.784Z</time></trkpt><trkpt lat="53.59417" lon="-1.8535133"><ele>187.33333333333331</ele><time>2026-05-03T16:07:41.783Z</time></trkpt><trkpt lat="53.594155" lon="-1.8533633"><ele>187.0</ele><time>2026-05-03T16:07:42.783Z</time></trkpt><trkpt lat="53.5941433" lon="-1.8532267"><ele>186.66666666666666</ele><time>2026-05-03T16:07:43.783Z</time></trkpt><trkpt lat="53.5941283" lon="-1.8530983"><ele>186.33333333333334</ele><time>2026-05-03T16:07:44.783Z</time></trkpt><trkpt lat="53.5941183" lon="-1.8529883"><ele>186.0</ele><time>2026-05-03T16:07:45.785Z</time></trkpt><trkpt lat="53.5940967" lon="-1.8528"><ele>184.4</ele><time>2026-05-03T16:07:47.784Z</time></trkpt><trkpt lat="53.5940783" lon="-1.8525967"><ele>182.8</ele><time>2026-05-03T16:07:49.784Z</time></trkpt><trkpt lat="53.594065" lon="-1.8523983"><ele>181.20000000000002</ele><time>2026-05-03T16:07:51.784Z</time></trkpt><trkpt lat="53.594055" lon="-1.8522517"><ele>179.60000000000002</ele><time>2026-05-03T16:07:53.783Z</time></trkpt><trkpt lat="53.5940333" lon="-1.8521183"><ele>178.0</ele><time>2026-05-03T16:07:56.784Z</time></trkpt><trkpt lat="53.5940317" lon="-1.8520067"><ele>178.0</ele><time>2026-05-03T16:07:59.784Z</time></trkpt><trkpt lat="53.5940667" lon="-1.8518733"><ele>178.0</ele><time>2026-05-03T16:08:52.783Z</time></trkpt><trkpt lat="53.5940467" lon="-1.8516867"><ele>178.0</ele><time>2026-05-03T16:08:54.784Z</time></trkpt><trkpt lat="53.593985" lon="-1.8515067"><ele>178.0</ele><time>2026-05-03T16:08:56.783Z</time></trkpt><trkpt lat="53.5938867" lon="-1.8513933"><ele>178.0</ele><time>2026-05-03T16:08:58.783Z</time></trkpt><trkpt lat="53.5938233" lon="-1.851345"><ele>177.16666666666669</ele><time>2026-05-03T16:08:59.783Z</time></trkpt><trkpt lat="53.59375" lon="-1.851305"><ele>176.33333333333334</ele><time>2026-05-03T16:09:00.783Z</time></trkpt><trkpt lat="53.5936783" lon="-1.8512767"><ele>175.5</ele><time>2026-05-03T16:09:01.783Z</time></trkpt><trkpt lat="53.5936" lon="-1.851255"><ele>174.66666666666666</ele><time>2026-05-03T16:09:02.783Z</time></trkpt><trkpt lat="53.5935133" lon="-1.8512417"><ele>173.83333333333331</ele><time>2026-05-03T16:09:03.784Z</time></trkpt><trkpt lat="53.5934183" lon="-1.8512317"><ele>173.0</ele><time>2026-05-03T16:09:04.784Z</time></trkpt><trkpt lat="53.59332" lon="-1.851225"><ele>172.8</ele><time>2026-05-03T16:09:05.785Z</time></trkpt><trkpt lat="53.5932217" lon="-1.85122"><ele>172.60000000000002</ele><time>2026-05-03T16:09:06.783Z</time></trkpt><trkpt lat="53.5931217" lon="-1.8512133"><ele>172.39999999999998</ele><time>2026-05-03T16:09:07.784Z</time></trkpt><trkpt lat="53.5930217" lon="-1.8512083"><ele>172.2</ele><time>2026-05-03T16:09:08.784Z</time></trkpt><trkpt lat="53.5929233" lon="-1.8512017"><ele>172.0</ele><time>2026-05-03T16:09:09.784Z</time></trkpt><trkpt lat="53.5928217" lon="-1.8511917"><ele>173.83333333333334</ele><time>2026-05-03T16:09:10.785Z</time></trkpt><trkpt lat="53.592725" lon="-1.8511817"><ele>175.66666666666669</ele><time>2026-05-03T16:09:11.783Z</time></trkpt><trkpt lat="53.5926317" lon="-1.8511667"><ele>177.5</ele><time>2026-05-03T16:09:12.783Z</time></trkpt><trkpt lat="53.59254" lon="-1.851155"><ele>179.33333333333334</ele><time>2026-05-03T16:09:13.783Z</time></trkpt><trkpt lat="53.5924567" lon="-1.8511333"><ele>181.16666666666666</ele><time>2026-05-03T16:09:14.788Z</time></trkpt><trkpt lat="53.5923817" lon="-1.8510983"><ele>183.0</ele><time>2026-05-03T16:09:15.783Z</time></trkpt><trkpt lat="53.59231" lon="-1.8510633"><ele>183.0</ele><time>2026-05-03T16:09:16.784Z</time></trkpt><trkpt lat="53.5922417" lon="-1.8510167"><ele>183.0</ele><time>2026-05-03T16:09:17.784Z</time></trkpt><trkpt lat="53.5921783" lon="-1.8509667"><ele>183.0</ele><time>2026-05-03T16:09:18.784Z</time></trkpt><trkpt lat="53.5921183" lon="-1.8509017"><ele>183.0</ele><time>2026-05-03T16:09:19.785Z</time></trkpt><trkpt lat="53.592055" lon="-1.8508383"><ele>183.0</ele><time>2026-05-03T16:09:20.784Z</time></trkpt><trkpt lat="53.592" lon="-1.8507667"><ele>183.0</ele><time>2026-05-03T16:09:21.786Z</time></trkpt><trkpt lat="53.5919417" lon="-1.8506967"><ele>183.0</ele><time>2026-05-03T16:09:22.784Z</time></trkpt><trkpt lat="53.59188" lon="-1.8506233"><ele>183.33333333333334</ele><time>2026-05-03T16:09:23.782Z</time></trkpt><trkpt lat="53.5918117" lon="-1.8505517"><ele>183.66666666666666</ele><time>2026-05-03T16:09:24.784Z</time></trkpt><trkpt lat="53.5917417" lon="-1.8504817"><ele>184.0</ele><time>2026-05-03T16:09:25.785Z</time></trkpt><trkpt lat="53.5916683" lon="-1.8504133"><ele>184.33333333333331</ele><time>2026-05-03T16:09:26.784Z</time></trkpt><trkpt lat="53.5915983" lon="-1.8503533"><ele>184.66666666666666</ele><time>2026-05-03T16:09:27.784Z</time></trkpt><trkpt lat="53.5915317" lon="-1.8502983"><ele>185.0</ele><time>2026-05-03T16:09:28.784Z</time></trkpt><trkpt lat="53.591465" lon="-1.8502433"><ele>185.0</ele><time>2026-05-03T16:09:29.785Z</time></trkpt><trkpt lat="53.5913933" lon="-1.85019"><ele>185.0</ele><time>2026-05-03T16:09:30.782Z</time></trkpt><trkpt lat="53.5913167" lon="-1.8501367"><ele>185.0</ele><time>2026-05-03T16:09:31.784Z</time></trkpt><trkpt lat="53.5912417" lon="-1.85008"><ele>185.0</ele><time>2026-05-03T16:09:32.783Z</time></trkpt><trkpt lat="53.5911617" lon="-1.8500233"><ele>185.0</ele><time>2026-05-03T16:09:33.783Z</time></trkpt><trkpt lat="53.5910817" lon="-1.8499567"><ele>185.0</ele><time>2026-05-03T16:09:34.783Z</time></trkpt><trkpt lat="53.5910067" lon="-1.8498817"><ele>185.66666666666666</ele><time>2026-05-03T16:09:35.784Z</time></trkpt><trkpt lat="53.590935" lon="-1.8497967"><ele>186.33333333333331</ele><time>2026-05-03T16:09:36.784Z</time></trkpt><trkpt lat="53.5908683" lon="-1.849715"><ele>187.0</ele><time>2026-05-03T16:09:37.784Z</time></trkpt><trkpt lat="53.590815" lon="-1.8496133"><ele>187.66666666666666</ele><time>2026-05-03T16:09:38.783Z</time></trkpt><trkpt lat="53.5907717" lon="-1.8494967"><ele>188.33333333333334</ele><time>2026-05-03T16:09:39.784Z</time></trkpt><trkpt lat="53.5907333" lon="-1.849375"><ele>189.0</ele><time>2026-05-03T16:09:40.783Z</time></trkpt><trkpt lat="53.5907" lon="-1.849255"><ele>189.0</ele><time>2026-05-03T16:09:41.785Z</time></trkpt><trkpt lat="53.5906617" lon="-1.8491267"><ele>189.0</ele><time>2026-05-03T16:09:42.783Z</time></trkpt><trkpt lat="53.5906217" lon="-1.8489983"><ele>189.0</ele><time>2026-05-03T16:09:43.785Z</time></trkpt><trkpt lat="53.5905767" lon="-1.8488683"><ele>189.0</ele><time>2026-05-03T16:09:44.784Z</time></trkpt><trkpt lat="53.59053" lon="-1.8487417"><ele>189.0</ele><time>2026-05-03T16:09:45.783Z</time></trkpt><trkpt lat="53.59048" lon="-1.84862"><ele>189.0</ele><time>2026-05-03T16:09:46.783Z</time></trkpt><trkpt lat="53.5904217" lon="-1.8485033"><ele>188.83333333333334</ele><time>2026-05-03T16:09:47.783Z</time></trkpt><trkpt lat="53.5903633" lon="-1.848385"><ele>188.66666666666666</ele><time>2026-05-03T16:09:48.783Z</time></trkpt><trkpt lat="53.5903067" lon="-1.848275"><ele>188.5</ele><time>2026-05-03T16:09:49.783Z</time></trkpt><trkpt lat="53.5902517" lon="-1.848165"><ele>188.33333333333331</ele><time>2026-05-03T16:09:50.785Z</time></trkpt><trkpt lat="53.5901933" lon="-1.8480583"><ele>188.16666666666666</ele><time>2026-05-03T16:09:51.783Z</time></trkpt><trkpt lat="53.59014" lon="-1.8479617"><ele>188.0</ele><time>2026-05-03T16:09:52.784Z</time></trkpt><trkpt lat="53.59009" lon="-1.8478667"><ele>188.5</ele><time>2026-05-03T16:09:53.785Z</time></trkpt><trkpt lat="53.5900433" lon="-1.8477667"><ele>189.0</ele><time>2026-05-03T16:09:54.784Z</time></trkpt><trkpt lat="53.58999" lon="-1.8476683"><ele>189.5</ele><time>2026-05-03T16:09:55.784Z</time></trkpt><trkpt lat="53.5899317" lon="-1.8475633"><ele>190.0</ele><time>2026-05-03T16:09:56.786Z</time></trkpt><trkpt lat="53.5898733" lon="-1.8474567"><ele>190.5</ele><time>2026-05-03T16:09:57.782Z</time></trkpt><trkpt lat="53.5898133" lon="-1.8473533"><ele>191.0</ele><time>2026-05-03T16:09:58.783Z</time></trkpt><trkpt lat="53.5897533" lon="-1.847245"><ele>191.0</ele><time>2026-05-03T16:09:59.783Z</time></trkpt><trkpt lat="53.589695" lon="-1.8471467"><ele>191.0</ele><time>2026-05-03T16:10:00.784Z</time></trkpt><trkpt lat="53.5896367" lon="-1.8470467"><ele>191.0</ele><time>2026-05-03T16:10:01.785Z</time></trkpt><trkpt lat="53.589575" lon="-1.84694"><ele>191.0</ele><time>2026-05-03T16:10:02.784Z</time></trkpt><trkpt lat="53.58951" lon="-1.8468317"><ele>191.0</ele><time>2026-05-03T16:10:03.784Z</time></trkpt><trkpt lat="53.5894417" lon="-1.8467233"><ele>191.0</ele><time>2026-05-03T16:10:04.783Z</time></trkpt><trkpt lat="53.5893733" lon="-1.8466083"><ele>191.33333333333331</ele><time>2026-05-03T16:10:05.784Z</time></trkpt><trkpt lat="53.5893017" lon="-1.8464967"><ele>191.66666666666666</ele><time>2026-05-03T16:10:06.784Z</time></trkpt><trkpt lat="53.58924" lon="-1.8463917"><ele>192.0</ele><time>2026-05-03T16:10:07.785Z</time></trkpt><trkpt lat="53.5891767" lon="-1.84629"><ele>192.33333333333331</ele><time>2026-05-03T16:10:08.787Z</time></trkpt><trkpt lat="53.589115" lon="-1.8461967"><ele>192.66666666666666</ele><time>2026-05-03T16:10:09.783Z</time></trkpt><trkpt lat="53.5890483" lon="-1.8461083"><ele>193.0</ele><time>2026-05-03T16:10:10.783Z</time></trkpt><trkpt lat="53.5889867" lon="-1.8460183"><ele>192.8</ele><time>2026-05-03T16:10:11.784Z</time></trkpt><trkpt lat="53.58893" lon="-1.8459367"><ele>192.60000000000002</ele><time>2026-05-03T16:10:12.784Z</time></trkpt><trkpt lat="53.5888617" lon="-1.8458333"><ele>192.39999999999998</ele><time>2026-05-03T16:10:13.785Z</time></trkpt><trkpt lat="53.5887917" lon="-1.8457283"><ele>192.2</ele><time>2026-05-03T16:10:14.783Z</time></trkpt><trkpt lat="53.5887217" lon="-1.8456133"><ele>192.0</ele><time>2026-05-03T16:10:15.784Z</time></trkpt><trkpt lat="53.5886533" lon="-1.84551"><ele>190.6</ele><time>2026-05-03T16:10:16.784Z</time></trkpt><trkpt lat="53.5885883" lon="-1.8453867"><ele>189.2</ele><time>2026-05-03T16:10:17.784Z</time></trkpt><trkpt lat="53.5885233" lon="-1.84526"><ele>187.8</ele><time>2026-05-03T16:10:18.783Z</time></trkpt><trkpt lat="53.5884583" lon="-1.845125"><ele>186.4</ele><time>2026-05-03T16:10:19.784Z</time></trkpt><trkpt lat="53.5883883" lon="-1.8449717"><ele>185.0</ele><time>2026-05-03T16:10:20.784Z</time></trkpt><trkpt lat="53.5883183" lon="-1.8448"><ele>184.25</ele><time>2026-05-03T16:10:21.783Z</time></trkpt><trkpt lat="53.5882517" lon="-1.8446183"><ele>183.5</ele><time>2026-05-03T16:10:22.783Z</time></trkpt><trkpt lat="53.5881833" lon="-1.8444283"><ele>182.75</ele><time>2026-05-03T16:10:23.783Z</time></trkpt><trkpt lat="53.588115" lon="-1.8442483"><ele>182.0</ele><time>2026-05-03T16:10:24.784Z</time></trkpt><trkpt lat="53.58805" lon="-1.8440717"><ele>182.0</ele><time>2026-05-03T16:10:25.785Z</time></trkpt><trkpt lat="53.587985" lon="-1.843895"><ele>182.0</ele><time>2026-05-03T16:10:26.784Z</time></trkpt><trkpt lat="53.58793" lon="-1.8437217"><ele>182.0</ele><time>2026-05-03T16:10:27.783Z</time></trkpt><trkpt lat="53.5878667" lon="-1.8435533"><ele>182.0</ele><time>2026-05-03T16:10:28.783Z</time></trkpt><trkpt lat="53.5878083" lon="-1.8433933"><ele>183.8</ele><time>2026-05-03T16:10:29.784Z</time></trkpt><trkpt lat="53.5877433" lon="-1.8432433"><ele>185.6</ele><time>2026-05-03T16:10:30.784Z</time></trkpt><trkpt lat="53.5876683" lon="-1.8431333"><ele>187.4</ele><time>2026-05-03T16:10:31.783Z</time></trkpt><trkpt lat="53.5875933" lon="-1.84304"><ele>189.20000000000002</ele><time>2026-05-03T16:10:32.784Z</time></trkpt><trkpt lat="53.5875083" lon="-1.8429667"><ele>191.0</ele><time>2026-05-03T16:10:33.784Z</time></trkpt><trkpt lat="53.58741" lon="-1.8429167"><ele>191.0</ele><time>2026-05-03T16:10:34.784Z</time></trkpt><trkpt lat="53.5872933" lon="-1.8428867"><ele>191.0</ele><time>2026-05-03T16:10:35.783Z</time></trkpt><trkpt lat="53.587185" lon="-1.84285"><ele>191.0</ele><time>2026-05-03T16:10:36.783Z</time></trkpt><trkpt lat="53.5870867" lon="-1.84281"><ele>191.0</ele><time>2026-05-03T16:10:37.784Z</time></trkpt><trkpt lat="53.5869817" lon="-1.84277"><ele>191.0</ele><time>2026-05-03T16:10:38.784Z</time></trkpt><trkpt lat="53.5868983" lon="-1.8427317"><ele>191.83333333333331</ele><time>2026-05-03T16:10:39.782Z</time></trkpt><trkpt lat="53.5868217" lon="-1.8426867"><ele>192.66666666666666</ele><time>2026-05-03T16:10:40.782Z</time></trkpt><trkpt lat="53.5867567" lon="-1.8426417"><ele>193.5</ele><time>2026-05-03T16:10:41.783Z</time></trkpt><trkpt lat="53.5866617" lon="-1.8425717"><ele>194.33333333333331</ele><time>2026-05-03T16:10:43.784Z</time></trkpt><trkpt lat="53.586575" lon="-1.8425383"><ele>195.16666666666666</ele><time>2026-05-03T16:10:51.784Z</time></trkpt><trkpt lat="53.586495" lon="-1.842445"><ele>196.0</ele><time>2026-05-03T16:10:53.783Z</time></trkpt><trkpt lat="53.5864333" lon="-1.8422967"><ele>196.33333333333331</ele><time>2026-05-03T16:10:55.784Z</time></trkpt><trkpt lat="53.5863983" lon="-1.84219"><ele>196.66666666666666</ele><time>2026-05-03T16:10:56.783Z</time></trkpt><trkpt lat="53.5863767" lon="-1.8420667"><ele>197.0</ele><time>2026-05-03T16:10:57.783Z</time></trkpt><trkpt lat="53.5863583" lon="-1.8419333"><ele>197.33333333333331</ele><time>2026-05-03T16:10:58.785Z</time></trkpt><trkpt lat="53.5863367" lon="-1.8417683"><ele>197.66666666666666</ele><time>2026-05-03T16:10:59.782Z</time></trkpt><trkpt lat="53.5863283" lon="-1.8415933"><ele>198.0</ele><time>2026-05-03T16:11:00.782Z</time></trkpt><trkpt lat="53.586315" lon="-1.8414233"><ele>200.0</ele><time>2026-05-03T16:11:01.784Z</time></trkpt><trkpt lat="53.5863017" lon="-1.8412317"><ele>202.0</ele><time>2026-05-03T16:11:02.784Z</time></trkpt><trkpt lat="53.5862783" lon="-1.84103"><ele>204.0</ele><time>2026-05-03T16:11:03.784Z</time></trkpt><trkpt lat="53.5862367" lon="-1.840815"><ele>206.0</ele><time>2026-05-03T16:11:04.783Z</time></trkpt><trkpt lat="53.5862017" lon="-1.8406017"><ele>207.25</ele><time>2026-05-03T16:11:05.784Z</time></trkpt><trkpt lat="53.5861567" lon="-1.8403767"><ele>208.5</ele><time>2026-05-03T16:11:06.784Z</time></trkpt><trkpt lat="53.5861083" lon="-1.84015"><ele>209.75</ele><time>2026-05-03T16:11:07.784Z</time></trkpt><trkpt lat="53.5860617" lon="-1.839925"><ele>211.0</ele><time>2026-05-03T16:11:08.783Z</time></trkpt><trkpt lat="53.5860183" lon="-1.8397083"><ele>211.60000000000002</ele><time>2026-05-03T16:11:09.783Z</time></trkpt><trkpt lat="53.5859617" lon="-1.8394817"><ele>212.2</ele><time>2026-05-03T16:11:10.781Z</time></trkpt><trkpt lat="53.5859317" lon="-1.8393083"><ele>212.79999999999998</ele><time>2026-05-03T16:11:11.784Z</time></trkpt><trkpt lat="53.58591" lon="-1.8391533"><ele>213.39999999999998</ele><time>2026-05-03T16:11:12.784Z</time></trkpt><trkpt lat="53.585895" lon="-1.83902"><ele>214.0</ele><time>2026-05-03T16:11:13.783Z</time></trkpt><trkpt lat="53.58588" lon="-1.8389083"><ele>215.33333333333331</ele><time>2026-05-03T16:11:14.784Z</time></trkpt><trkpt lat="53.5858567" lon="-1.8387767"><ele>216.66666666666666</ele><time>2026-05-03T16:11:16.784Z</time></trkpt><trkpt lat="53.5858383" lon="-1.83867"><ele>218.0</ele><time>2026-05-03T16:11:19.784Z</time></trkpt><trkpt lat="53.585785" lon="-1.8385967"><ele>219.33333333333331</ele><time>2026-05-03T16:11:21.782Z</time></trkpt><trkpt lat="53.5856717" lon="-1.8385233"><ele>220.66666666666666</ele><time>2026-05-03T16:11:23.784Z</time></trkpt><trkpt lat="53.5855733" lon="-1.8384867"><ele>222.0</ele><time>2026-05-03T16:11:24.781Z</time></trkpt><trkpt lat="53.5854633" lon="-1.8384383"><ele>225.25</ele><time>2026-05-03T16:11:25.783Z</time></trkpt><trkpt lat="53.5853433" lon="-1.83839"><ele>228.5</ele><time>2026-05-03T16:11:26.784Z</time></trkpt><trkpt lat="53.5852117" lon="-1.8383417"><ele>231.75</ele><time>2026-05-03T16:11:27.784Z</time></trkpt><trkpt lat="53.5850667" lon="-1.8382933"><ele>235.0</ele><time>2026-05-03T16:11:28.784Z</time></trkpt><trkpt lat="53.58492" lon="-1.838235"><ele>235.0</ele><time>2026-05-03T16:11:29.783Z</time></trkpt><trkpt lat="53.5847617" lon="-1.8381883"><ele>235.0</ele><time>2026-05-03T16:11:30.786Z</time></trkpt><trkpt lat="53.5846083" lon="-1.8381283"><ele>235.0</ele><time>2026-05-03T16:11:31.784Z</time></trkpt><trkpt lat="53.5844667" lon="-1.83805"><ele>236.0</ele><time>2026-05-03T16:11:32.784Z</time></trkpt><trkpt lat="53.5843283" lon="-1.8379617"><ele>237.0</ele><time>2026-05-03T16:11:33.784Z</time></trkpt><trkpt lat="53.5841833" lon="-1.8378717"><ele>238.0</ele><time>2026-05-03T16:11:34.782Z</time></trkpt><trkpt lat="53.5840383" lon="-1.837765"><ele>238.0</ele><time>2026-05-03T16:11:35.785Z</time></trkpt><trkpt lat="53.5838883" lon="-1.8376667"><ele>238.0</ele><time>2026-05-03T16:11:36.784Z</time></trkpt><trkpt lat="53.5837467" lon="-1.8375433"><ele>238.0</ele><time>2026-05-03T16:11:37.783Z</time></trkpt><trkpt lat="53.5836017" lon="-1.8374233"><ele>242.0</ele><time>2026-05-03T16:11:38.783Z</time></trkpt><trkpt lat="53.5834583" lon="-1.8372917"><ele>246.0</ele><time>2026-05-03T16:11:39.783Z</time></trkpt><trkpt lat="53.5833167" lon="-1.83715"><ele>250.0</ele><time>2026-05-03T16:11:40.784Z</time></trkpt><trkpt lat="53.58317" lon="-1.8369883"><ele>250.0</ele><time>2026-05-03T16:11:41.784Z</time></trkpt><trkpt lat="53.583025" lon="-1.8368183"><ele>250.0</ele><time>2026-05-03T16:11:42.782Z</time></trkpt><trkpt lat="53.5828833" lon="-1.836645"><ele>250.0</ele><time>2026-05-03T16:11:43.784Z</time></trkpt><trkpt lat="53.5827467" lon="-1.8364667"><ele>253.66666666666666</ele><time>2026-05-03T16:11:44.783Z</time></trkpt><trkpt lat="53.582615" lon="-1.8362767"><ele>257.3333333333333</ele><time>2026-05-03T16:11:45.783Z</time></trkpt><trkpt lat="53.5824833" lon="-1.8360883"><ele>261.0</ele><time>2026-05-03T16:11:46.784Z</time></trkpt><trkpt lat="53.5823483" lon="-1.8358917"><ele>263.0</ele><time>2026-05-03T16:11:47.782Z</time></trkpt><trkpt lat="53.5822133" lon="-1.8356883"><ele>265.0</ele><time>2026-05-03T16:11:48.782Z</time></trkpt><trkpt lat="53.58208" lon="-1.8354667"><ele>267.0</ele><time>2026-05-03T16:11:49.783Z</time></trkpt><trkpt lat="53.58194" lon="-1.8352333"><ele>269.6666666666667</ele><time>2026-05-03T16:11:50.781Z</time></trkpt><trkpt lat="53.5818017" lon="-1.8349967"><ele>272.33333333333337</ele><time>2026-05-03T16:11:51.783Z</time></trkpt><trkpt lat="53.58166" lon="-1.8347617"><ele>275.0</ele><time>2026-05-03T16:11:52.782Z</time></trkpt><trkpt lat="53.58151" lon="-1.83453"><ele>276.33333333333337</ele><time>2026-05-03T16:11:53.784Z</time></trkpt><trkpt lat="53.5813567" lon="-1.8343033"><ele>277.6666666666667</ele><time>2026-05-03T16:11:54.787Z</time></trkpt><trkpt lat="53.581205" lon="-1.8340817"><ele>279.0</ele><time>2026-05-03T16:11:55.784Z</time></trkpt><trkpt lat="53.5810583" lon="-1.8338683"><ele>280.3333333333333</ele><time>2026-05-03T16:11:56.784Z</time></trkpt><trkpt lat="53.580905" lon="-1.8336667"><ele>281.66666666666663</ele><time>2026-05-03T16:11:57.784Z</time></trkpt><trkpt lat="53.5807433" lon="-1.8334733"><ele>283.0</ele><time>2026-05-03T16:11:58.784Z</time></trkpt><trkpt lat="53.5805883" lon="-1.8332767"><ele>284.66666666666663</ele><time>2026-05-03T16:11:59.784Z</time></trkpt><trkpt lat="53.5804317" lon="-1.8330883"><ele>286.3333333333333</ele><time>2026-05-03T16:12:00.783Z</time></trkpt><trkpt lat="53.58027" lon="-1.832905"><ele>288.0</ele><time>2026-05-03T16:12:01.784Z</time></trkpt><trkpt lat="53.5801067" lon="-1.8327267"><ele>290.0</ele><time>2026-05-03T16:12:02.784Z</time></trkpt><trkpt lat="53.5799417" lon="-1.83255"><ele>292.0</ele><time>2026-05-03T16:12:03.783Z</time></trkpt><trkpt lat="53.57977" lon="-1.8323817"><ele>294.0</ele><time>2026-05-03T16:12:04.781Z</time></trkpt><trkpt lat="53.5795967" lon="-1.8322133"><ele>294.0</ele><time>2026-05-03T16:12:05.784Z</time></trkpt><trkpt lat="53.57942" lon="-1.83205"><ele>294.0</ele><time>2026-05-03T16:12:06.782Z</time></trkpt><trkpt lat="53.57924" lon="-1.8318883"><ele>294.0</ele><time>2026-05-03T16:12:07.784Z</time></trkpt><trkpt lat="53.5790633" lon="-1.8317283"><ele>295.6666666666667</ele><time>2026-05-03T16:12:08.781Z</time></trkpt><trkpt lat="53.5788867" lon="-1.8315717"><ele>297.33333333333337</ele><time>2026-05-03T16:12:09.782Z</time></trkpt><trkpt lat="53.5787167" lon="-1.83142"><ele>299.0</ele><time>2026-05-03T16:12:10.783Z</time></trkpt><trkpt lat="53.5785517" lon="-1.831275"><ele>299.33333333333337</ele><time>2026-05-03T16:12:11.783Z</time></trkpt><trkpt lat="53.578395" lon="-1.8311433"><ele>299.6666666666667</ele><time>2026-05-03T16:12:12.783Z</time></trkpt><trkpt lat="53.5782467" lon="-1.83102"><ele>300.0</ele><time>2026-05-03T16:12:13.783Z</time></trkpt><trkpt lat="53.5781067" lon="-1.8309033"><ele>301.0</ele><time>2026-05-03T16:12:14.783Z</time></trkpt><trkpt lat="53.5779783" lon="-1.8308017"><ele>302.0</ele><time>2026-05-03T16:12:15.782Z</time></trkpt><trkpt lat="53.5778633" lon="-1.8307033"><ele>303.0</ele><time>2026-05-03T16:12:16.783Z</time></trkpt><trkpt lat="53.5777583" lon="-1.8306133"><ele>304.0</ele><time>2026-05-03T16:12:17.782Z</time></trkpt><trkpt lat="53.57766" lon="-1.8305333"><ele>305.0</ele><time>2026-05-03T16:12:18.781Z</time></trkpt><trkpt lat="53.5775567" lon="-1.8304567"><ele>306.0</ele><time>2026-05-03T16:12:19.783Z</time></trkpt><trkpt lat="53.577445" lon="-1.8303733"><ele>307.0</ele><time>2026-05-03T16:12:20.784Z</time></trkpt><trkpt lat="53.5773317" lon="-1.8302833"><ele>308.0</ele><time>2026-05-03T16:12:21.782Z</time></trkpt><trkpt lat="53.5772117" lon="-1.8302033"><ele>308.5</ele><time>2026-05-03T16:12:22.781Z</time></trkpt><trkpt lat="53.5770833" lon="-1.83012"><ele>309.0</ele><time>2026-05-03T16:12:23.783Z</time></trkpt><trkpt lat="53.576955" lon="-1.8300383"><ele>309.5</ele><time>2026-05-03T16:12:24.787Z</time></trkpt><trkpt lat="53.5768233" lon="-1.8299583"><ele>310.0</ele><time>2026-05-03T16:12:25.783Z</time></trkpt><trkpt lat="53.5766933" lon="-1.8298783"><ele>311.75</ele><time>2026-05-03T16:12:26.782Z</time></trkpt><trkpt lat="53.5765583" lon="-1.8298017"><ele>313.5</ele><time>2026-05-03T16:12:27.781Z</time></trkpt><trkpt lat="53.5764183" lon="-1.829725"><ele>315.25</ele><time>2026-05-03T16:12:28.783Z</time></trkpt><trkpt lat="53.5762783" lon="-1.8296433"><ele>317.0</ele><time>2026-05-03T16:12:29.784Z</time></trkpt><trkpt lat="53.57614" lon="-1.8295567"><ele>319.25</ele><time>2026-05-03T16:12:30.783Z</time></trkpt><trkpt lat="53.576" lon="-1.829475"><ele>321.5</ele><time>2026-05-03T16:12:31.787Z</time></trkpt><trkpt lat="53.57586" lon="-1.8294"><ele>323.75</ele><time>2026-05-03T16:12:32.782Z</time></trkpt><trkpt lat="53.5757183" lon="-1.82933"><ele>326.0</ele><time>2026-05-03T16:12:33.783Z</time></trkpt><trkpt lat="53.5755733" lon="-1.8292683"><ele>326.0</ele><time>2026-05-03T16:12:34.783Z</time></trkpt><trkpt lat="53.5754317" lon="-1.82922"><ele>326.0</ele><time>2026-05-03T16:12:35.784Z</time></trkpt><trkpt lat="53.5752967" lon="-1.829175"><ele>326.0</ele><time>2026-05-03T16:12:36.781Z</time></trkpt><trkpt lat="53.5751567" lon="-1.829135"><ele>326.0</ele><time>2026-05-03T16:12:37.786Z</time></trkpt><trkpt lat="53.575015" lon="-1.8291033"><ele>327.0</ele><time>2026-05-03T16:12:38.786Z</time></trkpt><trkpt lat="53.574875" lon="-1.8290783"><ele>328.0</ele><time>2026-05-03T16:12:39.782Z</time></trkpt><trkpt lat="53.5747333" lon="-1.82906"><ele>329.0</ele><time>2026-05-03T16:12:40.786Z</time></trkpt><trkpt lat="53.5745867" lon="-1.8290533"><ele>330.0</ele><time>2026-05-03T16:12:41.782Z</time></trkpt><trkpt lat="53.5744383" lon="-1.82905"><ele>331.0</ele><time>2026-05-03T16:12:42.782Z</time></trkpt><trkpt lat="53.57429" lon="-1.82905"><ele>332.0</ele><time>2026-05-03T16:12:43.786Z</time></trkpt><trkpt lat="53.5741417" lon="-1.82905"><ele>333.0</ele><time>2026-05-03T16:12:44.783Z</time></trkpt><trkpt lat="53.573995" lon="-1.8290567"><ele>334.0</ele><time>2026-05-03T16:12:45.787Z</time></trkpt><trkpt lat="53.5738483" lon="-1.829065"><ele>334.0</ele><time>2026-05-03T16:12:46.782Z</time></trkpt><trkpt lat="53.5737" lon="-1.8290783"><ele>334.0</ele><time>2026-05-03T16:12:47.783Z</time></trkpt><trkpt lat="53.57355" lon="-1.8290933"><ele>334.0</ele><time>2026-05-03T16:12:48.785Z</time></trkpt><trkpt lat="53.573405" lon="-1.8291167"><ele>334.0</ele><time>2026-05-03T16:12:49.783Z</time></trkpt><trkpt lat="53.5732617" lon="-1.82914"><ele>333.25</ele><time>2026-05-03T16:12:50.787Z</time></trkpt><trkpt lat="53.573125" lon="-1.8291633"><ele>332.5</ele><time>2026-05-03T16:12:51.782Z</time></trkpt><trkpt lat="53.5729917" lon="-1.8291883"><ele>331.75</ele><time>2026-05-03T16:12:52.786Z</time></trkpt><trkpt lat="53.57286" lon="-1.8292133"><ele>331.0</ele><time>2026-05-03T16:12:53.786Z</time></trkpt><trkpt lat="53.572735" lon="-1.829235"><ele>330.8</ele><time>2026-05-03T16:12:54.781Z</time></trkpt><trkpt lat="53.5726133" lon="-1.829255"><ele>330.6</ele><time>2026-05-03T16:12:55.783Z</time></trkpt><trkpt lat="53.5725017" lon="-1.8292733"><ele>330.4</ele><time>2026-05-03T16:12:56.788Z</time></trkpt><trkpt lat="53.5724017" lon="-1.829285"><ele>330.2</ele><time>2026-05-03T16:12:57.782Z</time></trkpt><trkpt lat="53.5723133" lon="-1.8293"><ele>330.0</ele><time>2026-05-03T16:12:58.787Z</time></trkpt><trkpt lat="53.5722333" lon="-1.829315"><ele>330.0</ele><time>2026-05-03T16:12:59.786Z</time></trkpt><trkpt lat="53.5721583" lon="-1.8293483"><ele>330.0</ele><time>2026-05-03T16:13:00.782Z</time></trkpt><trkpt lat="53.5720933" lon="-1.8293983"><ele>330.0</ele><time>2026-05-03T16:13:01.783Z</time></trkpt><trkpt lat="53.571995" lon="-1.8295083"><ele>330.0</ele><time>2026-05-03T16:13:03.786Z</time></trkpt><trkpt lat="53.5719167" lon="-1.8295933"><ele>330.0</ele><time>2026-05-03T16:13:05.783Z</time></trkpt><trkpt lat="53.5718367" lon="-1.829645"><ele>330.0</ele><time>2026-05-03T16:13:08.782Z</time></trkpt><trkpt lat="53.5717567" lon="-1.8296967"><ele>329.0</ele><time>2026-05-03T16:13:13.782Z</time></trkpt><trkpt lat="53.5716483" lon="-1.8297967"><ele>328.0</ele><time>2026-05-03T16:13:15.783Z</time></trkpt><trkpt lat="53.5715833" lon="-1.8298533"><ele>327.0</ele><time>2026-05-03T16:13:16.787Z</time></trkpt><trkpt lat="53.5715217" lon="-1.8298983"><ele>326.0</ele><time>2026-05-03T16:13:17.783Z</time></trkpt><trkpt lat="53.5714067" lon="-1.8299233"><ele>325.0</ele><time>2026-05-03T16:13:19.787Z</time></trkpt><trkpt lat="53.5713167" lon="-1.829805"><ele>325.0</ele><time>2026-05-03T16:13:21.785Z</time></trkpt><trkpt lat="53.5712767" lon="-1.8297"><ele>325.0</ele><time>2026-05-03T16:13:22.783Z</time></trkpt><trkpt lat="53.5712317" lon="-1.8295917"><ele>325.0</ele><time>2026-05-03T16:13:23.782Z</time></trkpt><trkpt lat="53.5711817" lon="-1.82949"><ele>325.0</ele><time>2026-05-03T16:13:24.783Z</time></trkpt><trkpt lat="53.5711283" lon="-1.8294067"><ele>325.0</ele><time>2026-05-03T16:13:25.782Z</time></trkpt><trkpt lat="53.571065" lon="-1.8293433"><ele>325.0</ele><time>2026-05-03T16:13:26.782Z</time></trkpt><trkpt lat="53.5709917" lon="-1.8293083"><ele>325.2</ele><time>2026-05-03T16:13:27.786Z</time></trkpt><trkpt lat="53.5709" lon="-1.829305"><ele>325.4</ele><time>2026-05-03T16:13:28.786Z</time></trkpt><trkpt lat="53.570805" lon="-1.8293217"><ele>325.6</ele><time>2026-05-03T16:13:29.786Z</time></trkpt><trkpt lat="53.5707117" lon="-1.829345"><ele>325.8</ele><time>2026-05-03T16:13:30.782Z</time></trkpt><trkpt lat="53.5706183" lon="-1.829375"><ele>326.0</ele><time>2026-05-03T16:13:31.782Z</time></trkpt><trkpt lat="53.57052" lon="-1.829415"><ele>326.0</ele><time>2026-05-03T16:13:32.786Z</time></trkpt><trkpt lat="53.5704117" lon="-1.8294717"><ele>326.0</ele><time>2026-05-03T16:13:33.782Z</time></trkpt><trkpt lat="53.5703" lon="-1.8295367"><ele>326.0</ele><time>2026-05-03T16:13:34.783Z</time></trkpt><trkpt lat="53.5701833" lon="-1.8296167"><ele>326.0</ele><time>2026-05-03T16:13:35.786Z</time></trkpt><trkpt lat="53.570065" lon="-1.8297117"><ele>328.25</ele><time>2026-05-03T16:13:36.783Z</time></trkpt><trkpt lat="53.56994" lon="-1.829815"><ele>330.5</ele><time>2026-05-03T16:13:37.783Z</time></trkpt><trkpt lat="53.5698117" lon="-1.8299333"><ele>332.75</ele><time>2026-05-03T16:13:38.783Z</time></trkpt><trkpt lat="53.5696783" lon="-1.8300633"><ele>335.0</ele><time>2026-05-03T16:13:39.783Z</time></trkpt><trkpt lat="53.5695383" lon="-1.8302067"><ele>335.33333333333337</ele><time>2026-05-03T16:13:40.783Z</time></trkpt><trkpt lat="53.5693933" lon="-1.8303517"><ele>335.6666666666667</ele><time>2026-05-03T16:13:41.784Z</time></trkpt><trkpt lat="53.56925" lon="-1.8304983"><ele>336.0</ele><time>2026-05-03T16:13:42.783Z</time></trkpt><trkpt lat="53.5691067" lon="-1.8306467"><ele>336.0</ele><time>2026-05-03T16:13:43.783Z</time></trkpt><trkpt lat="53.5689617" lon="-1.830795"><ele>336.0</ele><time>2026-05-03T16:13:44.781Z</time></trkpt><trkpt lat="53.56881" lon="-1.8309467"><ele>336.0</ele><time>2026-05-03T16:13:45.783Z</time></trkpt><trkpt lat="53.568655" lon="-1.8310983"><ele>337.6666666666667</ele><time>2026-05-03T16:13:46.782Z</time></trkpt><trkpt lat="53.5684983" lon="-1.83125"><ele>339.33333333333337</ele><time>2026-05-03T16:13:47.783Z</time></trkpt><trkpt lat="53.5683483" lon="-1.8314"><ele>341.0</ele><time>2026-05-03T16:13:48.787Z</time></trkpt><trkpt lat="53.568205" lon="-1.8315433"><ele>341.0</ele><time>2026-05-03T16:13:49.786Z</time></trkpt><trkpt lat="53.5680683" lon="-1.831675"><ele>341.0</ele><time>2026-05-03T16:13:50.783Z</time></trkpt><trkpt lat="53.5679383" lon="-1.8318"><ele>341.0</ele><time>2026-05-03T16:13:51.788Z</time></trkpt><trkpt lat="53.567815" lon="-1.8319167"><ele>341.0</ele><time>2026-05-03T16:13:52.785Z</time></trkpt><trkpt lat="53.5676933" lon="-1.8320333"><ele>342.33333333333337</ele><time>2026-05-03T16:13:53.783Z</time></trkpt><trkpt lat="53.567565" lon="-1.8321433"><ele>343.6666666666667</ele><time>2026-05-03T16:13:54.783Z</time></trkpt><trkpt lat="53.5674267" lon="-1.8322567"><ele>345.0</ele><time>2026-05-03T16:13:55.783Z</time></trkpt><trkpt lat="53.5672833" lon="-1.8323583"><ele>345.0</ele><time>2026-05-03T16:13:56.782Z</time></trkpt><trkpt lat="53.567135" lon="-1.832445"><ele>345.0</ele><time>2026-05-03T16:13:57.787Z</time></trkpt><trkpt lat="53.5669833" lon="-1.8325167"><ele>345.0</ele><time>2026-05-03T16:13:58.783Z</time></trkpt><trkpt lat="53.5668283" lon="-1.83257"><ele>344.5</ele><time>2026-05-03T16:13:59.787Z</time></trkpt><trkpt lat="53.5666767" lon="-1.8326"><ele>344.0</ele><time>2026-05-03T16:14:00.783Z</time></trkpt><trkpt lat="53.5665383" lon="-1.83261"><ele>343.5</ele><time>2026-05-03T16:14:01.783Z</time></trkpt><trkpt lat="53.566415" lon="-1.8326033"><ele>343.0</ele><time>2026-05-03T16:14:02.785Z</time></trkpt><trkpt lat="53.5663033" lon="-1.8325817"><ele>343.0</ele><time>2026-05-03T16:14:03.782Z</time></trkpt><trkpt lat="53.5662017" lon="-1.8325483"><ele>343.0</ele><time>2026-05-03T16:14:04.785Z</time></trkpt><trkpt lat="53.5661" lon="-1.8324983"><ele>343.0</ele><time>2026-05-03T16:14:05.785Z</time></trkpt><trkpt lat="53.5659933" lon="-1.8324283"><ele>343.0</ele><time>2026-05-03T16:14:06.785Z</time></trkpt><trkpt lat="53.5658833" lon="-1.8323433"><ele>343.0</ele><time>2026-05-03T16:14:07.782Z</time></trkpt><trkpt lat="53.5657633" lon="-1.832235"><ele>340.75</ele><time>2026-05-03T16:14:08.787Z</time></trkpt><trkpt lat="53.5656483" lon="-1.8321183"><ele>338.5</ele><time>2026-05-03T16:14:09.786Z</time></trkpt><trkpt lat="53.5655333" lon="-1.832005"><ele>336.25</ele><time>2026-05-03T16:14:10.787Z</time></trkpt><trkpt lat="53.565425" lon="-1.8318967"><ele>334.0</ele><time>2026-05-03T16:14:11.783Z</time></trkpt><trkpt lat="53.565325" lon="-1.8317967"><ele>332.16666666666663</ele><time>2026-05-03T16:14:12.783Z</time></trkpt><trkpt lat="53.5652383" lon="-1.8317117"><ele>330.3333333333333</ele><time>2026-05-03T16:14:13.782Z</time></trkpt><trkpt lat="53.5651617" lon="-1.8316417"><ele>328.5</ele><time>2026-05-03T16:14:14.783Z</time></trkpt><trkpt lat="53.5650867" lon="-1.831595"><ele>326.6666666666667</ele><time>2026-05-03T16:14:15.782Z</time></trkpt><trkpt lat="53.565015" lon="-1.8315617"><ele>324.83333333333337</ele><time>2026-05-03T16:14:16.783Z</time></trkpt><trkpt lat="53.56495" lon="-1.8315617"><ele>323.0</ele><time>2026-05-03T16:14:17.783Z</time></trkpt><trkpt lat="53.56488" lon="-1.8316017"><ele>323.0</ele><time>2026-05-03T16:14:18.785Z</time></trkpt><trkpt lat="53.5648" lon="-1.831665"><ele>323.0</ele><time>2026-05-03T16:14:19.783Z</time></trkpt><trkpt lat="53.5647167" lon="-1.8317417"><ele>323.0</ele><time>2026-05-03T16:14:20.788Z</time></trkpt><trkpt lat="53.5646267" lon="-1.8318283"><ele>323.0</ele><time>2026-05-03T16:14:21.783Z</time></trkpt><trkpt lat="53.5645367" lon="-1.83191"><ele>323.0</ele><time>2026-05-03T16:14:22.783Z</time></trkpt><trkpt lat="53.564445" lon="-1.831985"><ele>320.5</ele><time>2026-05-03T16:14:23.784Z</time></trkpt><trkpt lat="53.56435" lon="-1.8320333"><ele>318.0</ele><time>2026-05-03T16:14:24.782Z</time></trkpt><trkpt lat="53.5642417" lon="-1.8320583"><ele>315.5</ele><time>2026-05-03T16:14:25.786Z</time></trkpt><trkpt lat="53.5641217" lon="-1.832065"><ele>313.0</ele><time>2026-05-03T16:14:26.786Z</time></trkpt><trkpt lat="53.5639983" lon="-1.83206"><ele>313.0</ele><time>2026-05-03T16:14:27.783Z</time></trkpt><trkpt lat="53.5638733" lon="-1.83205"><ele>313.0</ele><time>2026-05-03T16:14:28.783Z</time></trkpt><trkpt lat="53.56376" lon="-1.8320333"><ele>313.0</ele><time>2026-05-03T16:14:29.783Z</time></trkpt><trkpt lat="53.5636567" lon="-1.8320133"><ele>313.0</ele><time>2026-05-03T16:14:30.783Z</time></trkpt><trkpt lat="53.56357" lon="-1.8319983"><ele>313.0</ele><time>2026-05-03T16:14:31.783Z</time></trkpt><trkpt lat="53.563495" lon="-1.8319817"><ele>311.2</ele><time>2026-05-03T16:14:32.782Z</time></trkpt><trkpt lat="53.5634267" lon="-1.831965"><ele>309.4</ele><time>2026-05-03T16:14:33.784Z</time></trkpt><trkpt lat="53.563325" lon="-1.831935"><ele>307.59999999999997</ele><time>2026-05-03T16:14:35.783Z</time></trkpt><trkpt lat="53.563255" lon="-1.8319067"><ele>305.8</ele><time>2026-05-03T16:14:37.783Z</time></trkpt><trkpt lat="53.5631583" lon="-1.8318683"><ele>304.0</ele><time>2026-05-03T16:14:49.786Z</time></trkpt><trkpt lat="53.5630467" lon="-1.831825"><ele>304.16666666666663</ele><time>2026-05-03T16:14:51.786Z</time></trkpt><trkpt lat="53.562975" lon="-1.8318033"><ele>304.3333333333333</ele><time>2026-05-03T16:14:52.786Z</time></trkpt><trkpt lat="53.5629083" lon="-1.8317817"><ele>304.5</ele><time>2026-05-03T16:14:53.782Z</time></trkpt><trkpt lat="53.562845" lon="-1.8317633"><ele>304.6666666666667</ele><time>2026-05-03T16:14:54.781Z</time></trkpt><trkpt lat="53.56274" lon="-1.831765"><ele>304.83333333333337</ele><time>2026-05-03T16:14:56.782Z</time></trkpt><trkpt lat="53.5626433" lon="-1.8317933"><ele>305.0</ele><time>2026-05-03T16:14:58.783Z</time></trkpt><trkpt lat="53.56256" lon="-1.831875"><ele>302.83333333333337</ele><time>2026-05-03T16:15:00.782Z</time></trkpt><trkpt lat="53.5625067" lon="-1.8320317"><ele>300.6666666666667</ele><time>2026-05-03T16:15:02.787Z</time></trkpt><trkpt lat="53.5624917" lon="-1.8322333"><ele>298.5</ele><time>2026-05-03T16:15:04.782Z</time></trkpt><trkpt lat="53.56249" lon="-1.8323467"><ele>296.3333333333333</ele><time>2026-05-03T16:15:05.783Z</time></trkpt><trkpt lat="53.56249" lon="-1.8324667"><ele>294.16666666666663</ele><time>2026-05-03T16:15:06.782Z</time></trkpt><trkpt lat="53.5624917" lon="-1.832605"><ele>292.0</ele><time>2026-05-03T16:15:07.783Z</time></trkpt><trkpt lat="53.56249" lon="-1.8327567"><ele>290.66666666666663</ele><time>2026-05-03T16:15:08.787Z</time></trkpt><trkpt lat="53.562485" lon="-1.83291"><ele>289.3333333333333</ele><time>2026-05-03T16:15:09.782Z</time></trkpt><trkpt lat="53.562475" lon="-1.83306"><ele>288.0</ele><time>2026-05-03T16:15:10.781Z</time></trkpt><trkpt lat="53.5624633" lon="-1.8332083"><ele>286.6666666666667</ele><time>2026-05-03T16:15:11.783Z</time></trkpt><trkpt lat="53.5624583" lon="-1.8333517"><ele>285.33333333333337</ele><time>2026-05-03T16:15:12.785Z</time></trkpt><trkpt lat="53.5624567" lon="-1.833485"><ele>284.0</ele><time>2026-05-03T16:15:13.782Z</time></trkpt><trkpt lat="53.562455" lon="-1.8336117"><ele>282.85714285714283</ele><time>2026-05-03T16:15:14.783Z</time></trkpt><trkpt lat="53.562455" lon="-1.83372"><ele>281.71428571428567</ele><time>2026-05-03T16:15:15.783Z</time></trkpt><trkpt lat="53.5624417" lon="-1.8338683"><ele>280.57142857142856</ele><time>2026-05-03T16:15:17.783Z</time></trkpt><trkpt lat="53.562405" lon="-1.833965"><ele>279.42857142857144</ele><time>2026-05-03T16:15:19.783Z</time></trkpt><trkpt lat="53.5623217" lon="-1.834045"><ele>278.28571428571433</ele><time>2026-05-03T16:15:21.782Z</time></trkpt><trkpt lat="53.5622583" lon="-1.8340733"><ele>277.14285714285717</ele><time>2026-05-03T16:15:22.782Z</time></trkpt><trkpt lat="53.5621967" lon="-1.8341"><ele>276.0</ele><time>2026-05-03T16:15:23.782Z</time></trkpt><trkpt lat="53.5621283" lon="-1.8341083"><ele>276.0</ele><time>2026-05-03T16:15:24.783Z</time></trkpt><trkpt lat="53.56205" lon="-1.8340983"><ele>276.0</ele><time>2026-05-03T16:15:25.783Z</time></trkpt><trkpt lat="53.561975" lon="-1.83408"><ele>276.0</ele><time>2026-05-03T16:15:26.781Z</time></trkpt><trkpt lat="53.5619033" lon="-1.8340667"><ele>276.0</ele><time>2026-05-03T16:15:27.783Z</time></trkpt><trkpt lat="53.5618383" lon="-1.8340633"><ele>276.0</ele><time>2026-05-03T16:15:28.785Z</time></trkpt><trkpt lat="53.561715" lon="-1.83411"><ele>276.0</ele><time>2026-05-03T16:15:30.781Z</time></trkpt><trkpt lat="53.5616117" lon="-1.8342183"><ele>273.8</ele><time>2026-05-03T16:15:32.787Z</time></trkpt><trkpt lat="53.56156" lon="-1.8342833"><ele>271.6</ele><time>2026-05-03T16:15:33.783Z</time></trkpt><trkpt lat="53.5614633" lon="-1.8343933"><ele>269.4</ele><time>2026-05-03T16:15:35.783Z</time></trkpt><trkpt lat="53.5613667" lon="-1.8344767"><ele>267.2</ele><time>2026-05-03T16:15:37.783Z</time></trkpt><trkpt lat="53.5612533" lon="-1.834535"><ele>265.0</ele><time>2026-05-03T16:15:39.786Z</time></trkpt><trkpt lat="53.56119" lon="-1.834555"><ele>262.85714285714283</ele><time>2026-05-03T16:15:40.786Z</time></trkpt><trkpt lat="53.561125" lon="-1.8345717"><ele>260.7142857142857</ele><time>2026-05-03T16:15:41.786Z</time></trkpt><trkpt lat="53.5610533" lon="-1.8345833"><ele>258.57142857142856</ele><time>2026-05-03T16:15:42.786Z</time></trkpt><trkpt lat="53.5609783" lon="-1.8345967"><ele>256.42857142857144</ele><time>2026-05-03T16:15:43.786Z</time></trkpt><trkpt lat="53.5609" lon="-1.8345983"><ele>254.28571428571428</ele><time>2026-05-03T16:15:44.786Z</time></trkpt><trkpt lat="53.56082" lon="-1.83458"><ele>252.14285714285714</ele><time>2026-05-03T16:15:45.782Z</time></trkpt><trkpt lat="53.5607483" lon="-1.8345433"><ele>250.0</ele><time>2026-05-03T16:15:46.789Z</time></trkpt><trkpt lat="53.5606817" lon="-1.8345"><ele>249.99999999999997</ele><time>2026-05-03T16:15:47.783Z</time></trkpt><trkpt lat="53.5606183" lon="-1.8344467"><ele>250.0</ele><time>2026-05-03T16:15:48.785Z</time></trkpt><trkpt lat="53.5605583" lon="-1.8343733"><ele>250.0</ele><time>2026-05-03T16:15:49.784Z</time></trkpt><trkpt lat="53.5605017" lon="-1.834275"><ele>250.0</ele><time>2026-05-03T16:15:50.784Z</time></trkpt><trkpt lat="53.560445" lon="-1.8341533"><ele>249.99999999999997</ele><time>2026-05-03T16:15:51.784Z</time></trkpt><trkpt lat="53.5603917" lon="-1.83401"><ele>250.0</ele><time>2026-05-03T16:15:52.784Z</time></trkpt><trkpt lat="53.5603383" lon="-1.8338517"><ele>249.4</ele><time>2026-05-03T16:15:53.788Z</time></trkpt><trkpt lat="53.56029" lon="-1.8336983"><ele>248.8</ele><time>2026-05-03T16:15:54.784Z</time></trkpt><trkpt lat="53.5602483" lon="-1.833565"><ele>248.2</ele><time>2026-05-03T16:15:55.784Z</time></trkpt><trkpt lat="53.560215" lon="-1.8334483"><ele>247.6</ele><time>2026-05-03T16:15:56.784Z</time></trkpt><trkpt lat="53.5601683" lon="-1.8332683"><ele>247.0</ele><time>2026-05-03T16:15:58.783Z</time></trkpt><trkpt lat="53.5601317" lon="-1.8331667"><ele>247.0</ele><time>2026-05-03T16:16:00.784Z</time></trkpt><trkpt lat="53.5600817" lon="-1.833025"><ele>247.0</ele><time>2026-05-03T16:17:17.784Z</time></trkpt><trkpt lat="53.5600133" lon="-1.8328683"><ele>247.0</ele><time>2026-05-03T16:17:19.784Z</time></trkpt><trkpt lat="53.5599183" lon="-1.8327333"><ele>247.0</ele><time>2026-05-03T16:17:21.783Z</time></trkpt><trkpt lat="53.5598617" lon="-1.83268"><ele>247.0</ele><time>2026-05-03T16:17:22.784Z</time></trkpt><trkpt lat="53.5597967" lon="-1.8326333"><ele>247.49999999999997</ele><time>2026-05-03T16:17:23.784Z</time></trkpt><trkpt lat="53.559725" lon="-1.8326"><ele>248.0</ele><time>2026-05-03T16:17:24.783Z</time></trkpt><trkpt lat="53.5596483" lon="-1.8325667"><ele>248.5</ele><time>2026-05-03T16:17:25.784Z</time></trkpt><trkpt lat="53.559565" lon="-1.83253"><ele>249.0</ele><time>2026-05-03T16:17:26.784Z</time></trkpt><trkpt lat="53.559485" lon="-1.8324917"><ele>249.49999999999997</ele><time>2026-05-03T16:17:27.784Z</time></trkpt><trkpt lat="53.5594133" lon="-1.83246"><ele>250.0</ele><time>2026-05-03T16:17:28.784Z</time></trkpt><trkpt lat="53.5593467" lon="-1.8324367"><ele>247.71428571428572</ele><time>2026-05-03T16:17:29.783Z</time></trkpt><trkpt lat="53.5592833" lon="-1.8324083"><ele>245.42857142857144</ele><time>2026-05-03T16:17:30.787Z</time></trkpt><trkpt lat="53.5592183" lon="-1.8323783"><ele>243.14285714285717</ele><time>2026-05-03T16:17:31.783Z</time></trkpt><trkpt lat="53.5591533" lon="-1.832345"><ele>240.85714285714286</ele><time>2026-05-03T16:17:32.784Z</time></trkpt><trkpt lat="53.559095" lon="-1.8323017"><ele>238.5714285714286</ele><time>2026-05-03T16:17:33.786Z</time></trkpt><trkpt lat="53.55904" lon="-1.8322483"><ele>236.2857142857143</ele><time>2026-05-03T16:17:34.787Z</time></trkpt><trkpt lat="53.5589867" lon="-1.8321833"><ele>234.0</ele><time>2026-05-03T16:17:35.787Z</time></trkpt><trkpt lat="53.5589383" lon="-1.8321117"><ele>234.0</ele><time>2026-05-03T16:17:36.784Z</time></trkpt><trkpt lat="53.558895" lon="-1.832025"><ele>234.00000000000003</ele><time>2026-05-03T16:17:37.783Z</time></trkpt><trkpt lat="53.558855" lon="-1.83192"><ele>234.0</ele><time>2026-05-03T16:17:38.784Z</time></trkpt><trkpt lat="53.5588167" lon="-1.8318017"><ele>234.0</ele><time>2026-05-03T16:17:39.784Z</time></trkpt><trkpt lat="53.55878" lon="-1.8316883"><ele>234.00000000000003</ele><time>2026-05-03T16:17:40.783Z</time></trkpt><trkpt lat="53.5587483" lon="-1.83158"><ele>234.0</ele><time>2026-05-03T16:17:41.784Z</time></trkpt><trkpt lat="53.5587233" lon="-1.83146"><ele>234.0</ele><time>2026-05-03T16:17:42.783Z</time></trkpt><trkpt lat="53.5587017" lon="-1.8313283"><ele>232.0</ele><time>2026-05-03T16:17:43.784Z</time></trkpt><trkpt lat="53.5586833" lon="-1.8311833"><ele>229.99999999999997</ele><time>2026-05-03T16:17:44.784Z</time></trkpt><trkpt lat="53.558675" lon="-1.8310267"><ele>227.99999999999997</ele><time>2026-05-03T16:17:45.783Z</time></trkpt><trkpt lat="53.5586733" lon="-1.8308583"><ele>226.0</ele><time>2026-05-03T16:17:46.783Z</time></trkpt><trkpt lat="53.558685" lon="-1.8306767"><ele>224.0</ele><time>2026-05-03T16:17:47.785Z</time></trkpt><trkpt lat="53.558695" lon="-1.83049"><ele>223.5</ele><time>2026-05-03T16:17:48.782Z</time></trkpt><trkpt lat="53.5587033" lon="-1.8303017"><ele>223.0</ele><time>2026-05-03T16:17:49.784Z</time></trkpt><trkpt lat="53.5587067" lon="-1.8301"><ele>222.5</ele><time>2026-05-03T16:17:50.783Z</time></trkpt><trkpt lat="53.5587017" lon="-1.8298683"><ele>222.0</ele><time>2026-05-03T16:17:51.782Z</time></trkpt><trkpt lat="53.558695" lon="-1.829635"><ele>222.0</ele><time>2026-05-03T16:17:52.782Z</time></trkpt><trkpt lat="53.558685" lon="-1.8294133"><ele>222.0</ele><time>2026-05-03T16:17:53.784Z</time></trkpt><trkpt lat="53.5586767" lon="-1.8292"><ele>222.0</ele><time>2026-05-03T16:17:54.783Z</time></trkpt><trkpt lat="53.55867" lon="-1.828985"><ele>222.0</ele><time>2026-05-03T16:17:55.785Z</time></trkpt><trkpt lat="53.558665" lon="-1.828805"><ele>221.8</ele><time>2026-05-03T16:17:56.786Z</time></trkpt><trkpt lat="53.5586567" lon="-1.8286333"><ele>221.6</ele><time>2026-05-03T16:17:57.783Z</time></trkpt><trkpt lat="53.55865" lon="-1.82845"><ele>221.40000000000003</ele><time>2026-05-03T16:17:58.784Z</time></trkpt><trkpt lat="53.5586417" lon="-1.828255"><ele>221.20000000000002</ele><time>2026-05-03T16:17:59.783Z</time></trkpt><trkpt lat="53.5586433" lon="-1.8280683"><ele>221.0</ele><time>2026-05-03T16:18:00.783Z</time></trkpt><trkpt lat="53.5586467" lon="-1.8278917"><ele>220.8</ele><time>2026-05-03T16:18:01.784Z</time></trkpt><trkpt lat="53.5586567" lon="-1.8277267"><ele>220.60000000000002</ele><time>2026-05-03T16:18:02.784Z</time></trkpt><trkpt lat="53.5586617" lon="-1.8275633"><ele>220.4</ele><time>2026-05-03T16:18:03.784Z</time></trkpt><trkpt lat="53.5586617" lon="-1.82741"><ele>220.2</ele><time>2026-05-03T16:18:04.786Z</time></trkpt><trkpt lat="53.5586433" lon="-1.8272633"><ele>220.0</ele><time>2026-05-03T16:18:05.784Z</time></trkpt><trkpt lat="53.5586133" lon="-1.8271033"><ele>220.0</ele><time>2026-05-03T16:18:06.783Z</time></trkpt><trkpt lat="53.5585783" lon="-1.826935"><ele>220.0</ele><time>2026-05-03T16:18:07.784Z</time></trkpt><trkpt lat="53.5585433" lon="-1.8267567"><ele>220.0</ele><time>2026-05-03T16:18:08.787Z</time></trkpt><trkpt lat="53.5585117" lon="-1.826595"><ele>220.0</ele><time>2026-05-03T16:18:09.784Z</time></trkpt><trkpt lat="53.558485" lon="-1.8264583"><ele>220.0</ele><time>2026-05-03T16:18:10.784Z</time></trkpt><trkpt lat="53.5584617" lon="-1.8263467"><ele>220.2</ele><time>2026-05-03T16:18:11.785Z</time></trkpt><trkpt lat="53.5584417" lon="-1.8261933"><ele>220.4</ele><time>2026-05-03T16:18:13.784Z</time></trkpt><trkpt lat="53.558415" lon="-1.8260933"><ele>220.60000000000002</ele><time>2026-05-03T16:18:15.784Z</time></trkpt><trkpt lat="53.55839" lon="-1.82597"><ele>220.8</ele><time>2026-05-03T16:18:17.784Z</time></trkpt><trkpt lat="53.5583667" lon="-1.825745"><ele>221.0</ele><time>2026-05-03T16:18:19.782Z</time></trkpt><trkpt lat="53.5583417" lon="-1.825575"><ele>221.0</ele><time>2026-05-03T16:18:20.784Z</time></trkpt><trkpt lat="53.5583117" lon="-1.8253733"><ele>221.0</ele><time>2026-05-03T16:18:21.782Z</time></trkpt><trkpt lat="53.5582867" lon="-1.8251817"><ele>221.0</ele><time>2026-05-03T16:18:22.787Z</time></trkpt><trkpt lat="53.55826" lon="-1.8249833"><ele>221.0</ele><time>2026-05-03T16:18:23.782Z</time></trkpt><trkpt lat="53.558245" lon="-1.8248167"><ele>220.83333333333334</ele><time>2026-05-03T16:18:24.787Z</time></trkpt><trkpt lat="53.55823" lon="-1.824665"><ele>220.66666666666669</ele><time>2026-05-03T16:18:25.783Z</time></trkpt><trkpt lat="53.558215" lon="-1.8245217"><ele>220.5</ele><time>2026-05-03T16:18:26.783Z</time></trkpt><trkpt lat="53.5581983" lon="-1.82439"><ele>220.33333333333331</ele><time>2026-05-03T16:18:27.783Z</time></trkpt><trkpt lat="53.55819" lon="-1.8242767"><ele>220.16666666666666</ele><time>2026-05-03T16:18:28.784Z</time></trkpt><trkpt lat="53.558195" lon="-1.82408"><ele>220.0</ele><time>2026-05-03T16:18:30.784Z</time></trkpt><trkpt lat="53.5582433" lon="-1.8238717"><ele>219.83333333333331</ele><time>2026-05-03T16:18:32.782Z</time></trkpt><trkpt lat="53.5582767" lon="-1.82376"><ele>219.66666666666666</ele><time>2026-05-03T16:18:33.786Z</time></trkpt><trkpt lat="53.5583067" lon="-1.8236517"><ele>219.5</ele><time>2026-05-03T16:18:34.783Z</time></trkpt><trkpt lat="53.5583333" lon="-1.8235417"><ele>219.33333333333331</ele><time>2026-05-03T16:18:35.783Z</time></trkpt><trkpt lat="53.558355" lon="-1.8234217"><ele>219.16666666666666</ele><time>2026-05-03T16:18:36.784Z</time></trkpt><trkpt lat="53.55837" lon="-1.8232883"><ele>219.0</ele><time>2026-05-03T16:18:37.786Z</time></trkpt><trkpt lat="53.5583783" lon="-1.82315"><ele>218.83333333333334</ele><time>2026-05-03T16:18:38.787Z</time></trkpt><trkpt lat="53.5583833" lon="-1.82301"><ele>218.66666666666669</ele><time>2026-05-03T16:18:39.783Z</time></trkpt><trkpt lat="53.5583867" lon="-1.822875"><ele>218.5</ele><time>2026-05-03T16:18:40.782Z</time></trkpt><trkpt lat="53.5583833" lon="-1.8227433"><ele>218.33333333333334</ele><time>2026-05-03T16:18:41.787Z</time></trkpt><trkpt lat="53.5583733" lon="-1.822615"><ele>218.16666666666669</ele><time>2026-05-03T16:18:42.782Z</time></trkpt><trkpt lat="53.5583583" lon="-1.8224833"><ele>218.0</ele><time>2026-05-03T16:18:43.783Z</time></trkpt><trkpt lat="53.55834" lon="-1.8223583"><ele>217.83333333333334</ele><time>2026-05-03T16:18:44.783Z</time></trkpt><trkpt lat="53.5583183" lon="-1.8222433"><ele>217.66666666666669</ele><time>2026-05-03T16:18:45.782Z</time></trkpt><trkpt lat="53.558295" lon="-1.8221417"><ele>217.5</ele><time>2026-05-03T16:18:46.783Z</time></trkpt><trkpt lat="53.55826" lon="-1.8220383"><ele>217.33333333333331</ele><time>2026-05-03T16:18:47.784Z</time></trkpt><trkpt lat="53.558215" lon="-1.82193"><ele>217.16666666666666</ele><time>2026-05-03T16:18:48.783Z</time></trkpt><trkpt lat="53.5581533" lon="-1.8218233"><ele>217.0</ele><time>2026-05-03T16:18:49.784Z</time></trkpt><trkpt lat="53.5580933" lon="-1.821715"><ele>216.66666666666666</ele><time>2026-05-03T16:18:50.782Z</time></trkpt><trkpt lat="53.5580317" lon="-1.821615"><ele>216.33333333333331</ele><time>2026-05-03T16:18:51.783Z</time></trkpt><trkpt lat="53.557975" lon="-1.8215217"><ele>216.0</ele><time>2026-05-03T16:18:52.782Z</time></trkpt><trkpt lat="53.5579267" lon="-1.8214267"><ele>215.66666666666669</ele><time>2026-05-03T16:18:53.784Z</time></trkpt><trkpt lat="53.55788" lon="-1.82133"><ele>215.33333333333334</ele><time>2026-05-03T16:18:54.783Z</time></trkpt><trkpt lat="53.557835" lon="-1.82124"><ele>215.0</ele><time>2026-05-03T16:18:55.784Z</time></trkpt><trkpt lat="53.5577967" lon="-1.8211467"><ele>211.83333333333334</ele><time>2026-05-03T16:18:56.783Z</time></trkpt><trkpt lat="53.557765" lon="-1.821055"><ele>208.66666666666669</ele><time>2026-05-03T16:18:57.784Z</time></trkpt><trkpt lat="53.5577417" lon="-1.8209483"><ele>205.5</ele><time>2026-05-03T16:18:58.784Z</time></trkpt><trkpt lat="53.5577383" lon="-1.8207983"><ele>202.33333333333331</ele><time>2026-05-03T16:18:59.782Z</time></trkpt><trkpt lat="53.5577317" lon="-1.8206533"><ele>199.16666666666666</ele><time>2026-05-03T16:19:00.787Z</time></trkpt><trkpt lat="53.557725" lon="-1.82049"><ele>196.0</ele><time>2026-05-03T16:19:01.787Z</time></trkpt><trkpt lat="53.557725" lon="-1.82033"><ele>195.66666666666666</ele><time>2026-05-03T16:19:02.783Z</time></trkpt><trkpt lat="53.5577283" lon="-1.8201767"><ele>195.33333333333331</ele><time>2026-05-03T16:19:03.787Z</time></trkpt><trkpt lat="53.5577367" lon="-1.8200317"><ele>195.0</ele><time>2026-05-03T16:19:04.785Z</time></trkpt><trkpt lat="53.5577433" lon="-1.81989"><ele>194.66666666666669</ele><time>2026-05-03T16:19:05.787Z</time></trkpt><trkpt lat="53.5577483" lon="-1.8197517"><ele>194.33333333333334</ele><time>2026-05-03T16:19:06.783Z</time></trkpt><trkpt lat="53.557755" lon="-1.8196217"><ele>194.0</ele><time>2026-05-03T16:19:07.783Z</time></trkpt><trkpt lat="53.5577617" lon="-1.8195033"><ele>193.50000000000003</ele><time>2026-05-03T16:19:08.787Z</time></trkpt><trkpt lat="53.5577683" lon="-1.8193883"><ele>193.0</ele><time>2026-05-03T16:19:09.787Z</time></trkpt><trkpt lat="53.5577733" lon="-1.819275"><ele>192.5</ele><time>2026-05-03T16:19:10.783Z</time></trkpt><trkpt lat="53.557775" lon="-1.8191633"><ele>192.0</ele><time>2026-05-03T16:19:11.787Z</time></trkpt><trkpt lat="53.5577733" lon="-1.8189617"><ele>191.5</ele><time>2026-05-03T16:19:13.784Z</time></trkpt><trkpt lat="53.5577733" lon="-1.81879"><ele>191.0</ele><time>2026-05-03T16:19:15.782Z</time></trkpt><trkpt lat="53.5577967" lon="-1.8186567"><ele>190.5</ele><time>2026-05-03T16:19:17.782Z</time></trkpt><trkpt lat="53.5577983" lon="-1.818545"><ele>190.0</ele><time>2026-05-03T16:19:20.784Z</time></trkpt><trkpt lat="53.5577333" lon="-1.8185517"><ele>189.5</ele><time>2026-05-03T16:19:27.783Z</time></trkpt><trkpt lat="53.557715" lon="-1.8186583"><ele>189.0</ele><time>2026-05-03T16:19:29.784Z</time></trkpt><trkpt lat="53.5576767" lon="-1.8188483"><ele>188.5</ele><time>2026-05-03T16:19:31.783Z</time></trkpt><trkpt lat="53.5576567" lon="-1.8189583"><ele>188.0</ele><time>2026-05-03T16:19:32.784Z</time></trkpt><trkpt lat="53.55763" lon="-1.8190617"><ele>188.0</ele><time>2026-05-03T16:19:33.787Z</time></trkpt><trkpt lat="53.5575983" lon="-1.8191567"><ele>188.0</ele><time>2026-05-03T16:19:34.783Z</time></trkpt><trkpt lat="53.5575567" lon="-1.819245"><ele>188.0</ele><time>2026-05-03T16:19:35.783Z</time></trkpt><trkpt lat="53.5574983" lon="-1.81933"><ele>188.0</ele><time>2026-05-03T16:19:36.783Z</time></trkpt><trkpt lat="53.5574267" lon="-1.819405"><ele>188.0</ele><time>2026-05-03T16:19:37.782Z</time></trkpt><trkpt lat="53.5573483" lon="-1.8194583"><ele>188.0</ele><time>2026-05-03T16:19:38.784Z</time></trkpt><trkpt lat="53.557255" lon="-1.8194867"><ele>187.60000000000002</ele><time>2026-05-03T16:19:39.783Z</time></trkpt><trkpt lat="53.5571567" lon="-1.8194917"><ele>187.20000000000002</ele><time>2026-05-03T16:19:40.783Z</time></trkpt><trkpt lat="53.5570483" lon="-1.819485"><ele>186.8</ele><time>2026-05-03T16:19:41.785Z</time></trkpt><trkpt lat="53.5569483" lon="-1.8194833"><ele>186.4</ele><time>2026-05-03T16:19:42.783Z</time></trkpt><trkpt lat="53.5568583" lon="-1.8194883"><ele>186.0</ele><time>2026-05-03T16:19:43.784Z</time></trkpt><trkpt lat="53.55677" lon="-1.8195"><ele>186.0</ele><time>2026-05-03T16:19:44.783Z</time></trkpt><trkpt lat="53.5566867" lon="-1.819525"><ele>186.0</ele><time>2026-05-03T16:19:45.782Z</time></trkpt><trkpt lat="53.556615" lon="-1.81958"><ele>186.0</ele><time>2026-05-03T16:19:46.783Z</time></trkpt><trkpt lat="53.5565517" lon="-1.8196583"><ele>186.0</ele><time>2026-05-03T16:19:47.784Z</time></trkpt><trkpt lat="53.5564883" lon="-1.81976"><ele>186.0</ele><time>2026-05-03T16:19:48.783Z</time></trkpt><trkpt lat="53.55642" lon="-1.8198883"><ele>186.0</ele><time>2026-05-03T16:19:49.784Z</time></trkpt><trkpt lat="53.55635" lon="-1.8200417"><ele>188.25</ele><time>2026-05-03T16:19:50.784Z</time></trkpt><trkpt lat="53.5562733" lon="-1.8202033"><ele>190.5</ele><time>2026-05-03T16:19:51.783Z</time></trkpt><trkpt lat="53.5562017" lon="-1.82037"><ele>192.75</ele><time>2026-05-03T16:19:52.783Z</time></trkpt><trkpt lat="53.5561333" lon="-1.8205433"><ele>195.0</ele><time>2026-05-03T16:19:53.783Z</time></trkpt><trkpt lat="53.5560717" lon="-1.8207167"><ele>195.5</ele><time>2026-05-03T16:19:54.783Z</time></trkpt><trkpt lat="53.556015" lon="-1.8208933"><ele>196.0</ele><time>2026-05-03T16:19:55.782Z</time></trkpt><trkpt lat="53.5559667" lon="-1.82107"><ele>196.5</ele><time>2026-05-03T16:19:56.783Z</time></trkpt><trkpt lat="53.55591" lon="-1.8212283"><ele>197.0</ele><time>2026-05-03T16:19:57.784Z</time></trkpt><trkpt lat="53.55586" lon="-1.821395"><ele>198.25</ele><time>2026-05-03T16:19:58.782Z</time></trkpt><trkpt lat="53.5558067" lon="-1.82157"><ele>199.5</ele><time>2026-05-03T16:19:59.784Z</time></trkpt><trkpt lat="53.555755" lon="-1.8217517"><ele>200.75</ele><time>2026-05-03T16:20:00.782Z</time></trkpt><trkpt lat="53.55571" lon="-1.8219467"><ele>202.0</ele><time>2026-05-03T16:20:01.782Z</time></trkpt><trkpt lat="53.55566" lon="-1.8221383"><ele>204.5</ele><time>2026-05-03T16:20:02.783Z</time></trkpt><trkpt lat="53.5556117" lon="-1.82233"><ele>207.0</ele><time>2026-05-03T16:20:03.783Z</time></trkpt><trkpt lat="53.5555717" lon="-1.8225217"><ele>209.5</ele><time>2026-05-03T16:20:04.783Z</time></trkpt><trkpt lat="53.5555317" lon="-1.82271"><ele>212.0</ele><time>2026-05-03T16:20:05.784Z</time></trkpt><trkpt lat="53.5554967" lon="-1.822895"><ele>213.5</ele><time>2026-05-03T16:20:06.784Z</time></trkpt><trkpt lat="53.5554683" lon="-1.8230767"><ele>215.0</ele><time>2026-05-03T16:20:07.782Z</time></trkpt><trkpt lat="53.5554483" lon="-1.8232717"><ele>216.5</ele><time>2026-05-03T16:20:08.785Z</time></trkpt><trkpt lat="53.555435" lon="-1.8234783"><ele>218.0</ele><time>2026-05-03T16:20:09.783Z</time></trkpt><trkpt lat="53.5554233" lon="-1.82369"><ele>219.0</ele><time>2026-05-03T16:20:10.782Z</time></trkpt><trkpt lat="53.5554167" lon="-1.8239133"><ele>220.0</ele><time>2026-05-03T16:20:11.784Z</time></trkpt><trkpt lat="53.5554117" lon="-1.8241533"><ele>221.0</ele><time>2026-05-03T16:20:12.785Z</time></trkpt><trkpt lat="53.555405" lon="-1.8244117"><ele>222.0</ele><time>2026-05-03T16:20:13.782Z</time></trkpt><trkpt lat="53.5553967" lon="-1.8246767"><ele>222.66666666666669</ele><time>2026-05-03T16:20:14.783Z</time></trkpt><trkpt lat="53.55539" lon="-1.824935"><ele>223.33333333333334</ele><time>2026-05-03T16:20:15.783Z</time></trkpt><trkpt lat="53.5553867" lon="-1.8252017"><ele>224.0</ele><time>2026-05-03T16:20:16.783Z</time></trkpt><trkpt lat="53.5553717" lon="-1.82544"><ele>225.5</ele><time>2026-05-03T16:20:17.784Z</time></trkpt><trkpt lat="53.55534" lon="-1.8256667"><ele>227.0</ele><time>2026-05-03T16:20:18.782Z</time></trkpt><trkpt lat="53.5553" lon="-1.8258867"><ele>228.5</ele><time>2026-05-03T16:20:19.783Z</time></trkpt><trkpt lat="53.5552533" lon="-1.8261067"><ele>230.0</ele><time>2026-05-03T16:20:20.782Z</time></trkpt><trkpt lat="53.5552033" lon="-1.82633"><ele>230.0</ele><time>2026-05-03T16:20:21.785Z</time></trkpt><trkpt lat="53.55516" lon="-1.8265667"><ele>230.0</ele><time>2026-05-03T16:20:22.782Z</time></trkpt><trkpt lat="53.5551133" lon="-1.8268117"><ele>230.0</ele><time>2026-05-03T16:20:23.783Z</time></trkpt><trkpt lat="53.5550667" lon="-1.8270417"><ele>230.0</ele><time>2026-05-03T16:20:24.782Z</time></trkpt><trkpt lat="53.5550267" lon="-1.8272567"><ele>231.0</ele><time>2026-05-03T16:20:25.783Z</time></trkpt><trkpt lat="53.55499" lon="-1.827455"><ele>232.0</ele><time>2026-05-03T16:20:26.783Z</time></trkpt><trkpt lat="53.5549417" lon="-1.8276417"><ele>233.0</ele><time>2026-05-03T16:20:27.783Z</time></trkpt><trkpt lat="53.5548783" lon="-1.82782"><ele>234.0</ele><time>2026-05-03T16:20:28.783Z</time></trkpt><trkpt lat="53.5548167" lon="-1.8279817"><ele>234.75</ele><time>2026-05-03T16:20:29.783Z</time></trkpt><trkpt lat="53.5547533" lon="-1.8281283"><ele>235.5</ele><time>2026-05-03T16:20:30.783Z</time></trkpt><trkpt lat="53.5546917" lon="-1.8282567"><ele>236.25</ele><time>2026-05-03T16:20:31.784Z</time></trkpt><trkpt lat="53.5545883" lon="-1.8283917"><ele>237.0</ele><time>2026-05-03T16:20:32.784Z</time></trkpt><trkpt lat="53.5544667" lon="-1.8285167"><ele>239.0</ele><time>2026-05-03T16:20:33.783Z</time></trkpt><trkpt lat="53.5543267" lon="-1.828625"><ele>241.0</ele><time>2026-05-03T16:20:34.783Z</time></trkpt><trkpt lat="53.5541767" lon="-1.828745"><ele>243.0</ele><time>2026-05-03T16:20:35.784Z</time></trkpt><trkpt lat="53.55403" lon="-1.8289033"><ele>243.0</ele><time>2026-05-03T16:20:36.783Z</time></trkpt><trkpt lat="53.5538717" lon="-1.829075"><ele>243.0</ele><time>2026-05-03T16:20:37.783Z</time></trkpt><trkpt lat="53.5537167" lon="-1.8292717"><ele>243.0</ele><time>2026-05-03T16:20:38.783Z</time></trkpt><trkpt lat="53.5535617" lon="-1.8294733"><ele>244.0</ele><time>2026-05-03T16:20:39.782Z</time></trkpt><trkpt lat="53.5534083" lon="-1.8296883"><ele>245.0</ele><time>2026-05-03T16:20:40.782Z</time></trkpt><trkpt lat="53.5532617" lon="-1.8299067"><ele>246.0</ele><time>2026-05-03T16:20:41.782Z</time></trkpt><trkpt lat="53.5531233" lon="-1.830125"><ele>247.66666666666669</ele><time>2026-05-03T16:20:42.783Z</time></trkpt><trkpt lat="53.55299" lon="-1.8303483"><ele>249.33333333333334</ele><time>2026-05-03T16:20:43.783Z</time></trkpt><trkpt lat="53.55286" lon="-1.8305783"><ele>251.0</ele><time>2026-05-03T16:20:44.783Z</time></trkpt><trkpt lat="53.5527367" lon="-1.8308233"><ele>253.33333333333334</ele><time>2026-05-03T16:20:45.783Z</time></trkpt><trkpt lat="53.5526167" lon="-1.83108"><ele>255.66666666666669</ele><time>2026-05-03T16:20:46.783Z</time></trkpt><trkpt lat="53.5525083" lon="-1.831335"><ele>258.0</ele><time>2026-05-03T16:20:47.784Z</time></trkpt><trkpt lat="53.5524" lon="-1.8315867"><ele>260.0</ele><time>2026-05-03T16:20:48.783Z</time></trkpt><trkpt lat="53.5523083" lon="-1.8318517"><ele>262.0</ele><time>2026-05-03T16:20:49.783Z</time></trkpt><trkpt lat="53.5522133" lon="-1.83213"><ele>264.0</ele><time>2026-05-03T16:20:50.782Z</time></trkpt><trkpt lat="53.5521083" lon="-1.832385"><ele>266.3333333333333</ele><time>2026-05-03T16:20:51.784Z</time></trkpt><trkpt lat="53.5520033" lon="-1.832655"><ele>268.66666666666663</ele><time>2026-05-03T16:20:52.782Z</time></trkpt><trkpt lat="53.5518967" lon="-1.83291"><ele>271.0</ele><time>2026-05-03T16:20:53.783Z</time></trkpt><trkpt lat="53.551785" lon="-1.8331383"><ele>271.0</ele><time>2026-05-03T16:20:54.783Z</time></trkpt><trkpt lat="53.5516717" lon="-1.8333467"><ele>271.0</ele><time>2026-05-03T16:20:55.783Z</time></trkpt><trkpt lat="53.5515567" lon="-1.833555"><ele>271.0</ele><time>2026-05-03T16:20:56.783Z</time></trkpt><trkpt lat="53.551445" lon="-1.8337783"><ele>273.0</ele><time>2026-05-03T16:20:57.783Z</time></trkpt><trkpt lat="53.5513383" lon="-1.834025"><ele>275.0</ele><time>2026-05-03T16:20:58.788Z</time></trkpt><trkpt lat="53.5512333" lon="-1.83428"><ele>277.0</ele><time>2026-05-03T16:20:59.783Z</time></trkpt><trkpt lat="53.5511383" lon="-1.8345433"><ele>279.0</ele><time>2026-05-03T16:21:00.788Z</time></trkpt><trkpt lat="53.551055" lon="-1.83479"><ele>281.0</ele><time>2026-05-03T16:21:01.783Z</time></trkpt><trkpt lat="53.5509783" lon="-1.8350183"><ele>283.0</ele><time>2026-05-03T16:21:02.782Z</time></trkpt><trkpt lat="53.55091" lon="-1.8352183"><ele>284.0</ele><time>2026-05-03T16:21:03.782Z</time></trkpt><trkpt lat="53.550845" lon="-1.8353833"><ele>285.0</ele><time>2026-05-03T16:21:04.782Z</time></trkpt><trkpt lat="53.5507933" lon="-1.8355333"><ele>286.0</ele><time>2026-05-03T16:21:05.784Z</time></trkpt><trkpt lat="53.5507483" lon="-1.8356583"><ele>287.0</ele><time>2026-05-03T16:21:06.784Z</time></trkpt><trkpt lat="53.55071" lon="-1.8357717"><ele>288.0</ele><time>2026-05-03T16:21:07.784Z</time></trkpt><trkpt lat="53.5506733" lon="-1.8358767"><ele>288.0</ele><time>2026-05-03T16:21:08.784Z</time></trkpt><trkpt lat="53.5506367" lon="-1.8359667"><ele>288.0</ele><time>2026-05-03T16:21:09.782Z</time></trkpt><trkpt lat="53.5505683" lon="-1.8361333"><ele>288.0</ele><time>2026-05-03T16:21:11.782Z</time></trkpt><trkpt lat="53.5505067" lon="-1.8363"><ele>288.0</ele><time>2026-05-03T16:21:13.783Z</time></trkpt><trkpt lat="53.550455" lon="-1.8364483"><ele>288.0</ele><time>2026-05-03T16:21:15.783Z</time></trkpt><trkpt lat="53.5504267" lon="-1.8365667"><ele>288.7142857142857</ele><time>2026-05-03T16:21:17.784Z</time></trkpt><trkpt lat="53.550385" lon="-1.8367117"><ele>289.42857142857144</ele><time>2026-05-03T16:21:19.784Z</time></trkpt><trkpt lat="53.5503517" lon="-1.8368067"><ele>290.1428571428571</ele><time>2026-05-03T16:21:20.783Z</time></trkpt><trkpt lat="53.550325" lon="-1.8369167"><ele>290.8571428571429</ele><time>2026-05-03T16:21:21.783Z</time></trkpt><trkpt lat="53.5503033" lon="-1.8370283"><ele>291.57142857142856</ele><time>2026-05-03T16:21:22.783Z</time></trkpt><trkpt lat="53.5503" lon="-1.8371417"><ele>292.2857142857143</ele><time>2026-05-03T16:21:23.783Z</time></trkpt><trkpt lat="53.5502967" lon="-1.83726"><ele>293.0</ele><time>2026-05-03T16:21:24.783Z</time></trkpt><trkpt lat="53.550295" lon="-1.83737"><ele>294.0</ele><time>2026-05-03T16:21:25.783Z</time></trkpt><trkpt lat="53.55025" lon="-1.8375433"><ele>295.0</ele><time>2026-05-03T16:21:27.783Z</time></trkpt><trkpt lat="53.5501767" lon="-1.837695"><ele>296.0</ele><time>2026-05-03T16:21:29.782Z</time></trkpt><trkpt lat="53.5501283" lon="-1.83778"><ele>297.0</ele><time>2026-05-03T16:21:30.783Z</time></trkpt><trkpt lat="53.5500667" lon="-1.8378667"><ele>298.0</ele><time>2026-05-03T16:21:31.784Z</time></trkpt><trkpt lat="53.550005" lon="-1.8379617"><ele>298.6</ele><time>2026-05-03T16:21:32.782Z</time></trkpt><trkpt lat="53.549935" lon="-1.8380483"><ele>299.20000000000005</ele><time>2026-05-03T16:21:33.783Z</time></trkpt><trkpt lat="53.5498483" lon="-1.8381233"><ele>299.8</ele><time>2026-05-03T16:21:34.782Z</time></trkpt><trkpt lat="53.5497567" lon="-1.8382017"><ele>300.40000000000003</ele><time>2026-05-03T16:21:35.783Z</time></trkpt><trkpt lat="53.5496733" lon="-1.8382733"><ele>301.0</ele><time>2026-05-03T16:21:36.783Z</time></trkpt><trkpt lat="53.54958" lon="-1.838355"><ele>301.0</ele><time>2026-05-03T16:21:37.784Z</time></trkpt><trkpt lat="53.5494833" lon="-1.8384483"><ele>301.0</ele><time>2026-05-03T16:21:38.782Z</time></trkpt><trkpt lat="53.5493833" lon="-1.838525"><ele>301.0</ele><time>2026-05-03T16:21:39.782Z</time></trkpt><trkpt lat="53.5492867" lon="-1.8386183"><ele>301.0</ele><time>2026-05-03T16:21:40.787Z</time></trkpt><trkpt lat="53.5491883" lon="-1.8387167"><ele>301.0</ele><time>2026-05-03T16:21:41.783Z</time></trkpt><trkpt lat="53.5490983" lon="-1.8388083"><ele>301.0</ele><time>2026-05-03T16:21:42.786Z</time></trkpt><trkpt lat="53.5490217" lon="-1.8388867"><ele>301.0</ele><time>2026-05-03T16:21:43.782Z</time></trkpt><trkpt lat="53.5489583" lon="-1.8389683"><ele>301.0</ele><time>2026-05-03T16:21:44.783Z</time></trkpt><trkpt lat="53.548905" lon="-1.8390533"><ele>301.0</ele><time>2026-05-03T16:21:45.783Z</time></trkpt><trkpt lat="53.5488483" lon="-1.8391517"><ele>301.0</ele><time>2026-05-03T16:21:46.782Z</time></trkpt><trkpt lat="53.5487883" lon="-1.8392533"><ele>301.0</ele><time>2026-05-03T16:21:47.783Z</time></trkpt><trkpt lat="53.54872" lon="-1.8393617"><ele>301.0</ele><time>2026-05-03T16:21:48.783Z</time></trkpt><trkpt lat="53.5486483" lon="-1.8394717"><ele>301.0</ele><time>2026-05-03T16:21:49.782Z</time></trkpt><trkpt lat="53.54857" lon="-1.8395917"><ele>301.0</ele><time>2026-05-03T16:21:50.782Z</time></trkpt><trkpt lat="53.54849" lon="-1.83972"><ele>301.0</ele><time>2026-05-03T16:21:51.782Z</time></trkpt><trkpt lat="53.5483983" lon="-1.8398467"><ele>301.0</ele><time>2026-05-03T16:21:52.783Z</time></trkpt><trkpt lat="53.5483033" lon="-1.83998"><ele>301.0</ele><time>2026-05-03T16:21:53.783Z</time></trkpt><trkpt lat="53.5482183" lon="-1.840125"><ele>301.0</ele><time>2026-05-03T16:21:54.782Z</time></trkpt><trkpt lat="53.5481333" lon="-1.8402933"><ele>301.0</ele><time>2026-05-03T16:21:55.784Z</time></trkpt><trkpt lat="53.5480533" lon="-1.8404883"><ele>301.0</ele><time>2026-05-03T16:21:56.783Z</time></trkpt><trkpt lat="53.5479717" lon="-1.8406933"><ele>302.0</ele><time>2026-05-03T16:21:57.783Z</time></trkpt><trkpt lat="53.5478983" lon="-1.8409267"><ele>303.0</ele><time>2026-05-03T16:21:58.783Z</time></trkpt><trkpt lat="53.547825" lon="-1.8411733"><ele>304.0</ele><time>2026-05-03T16:21:59.783Z</time></trkpt><trkpt lat="53.5477583" lon="-1.8414117"><ele>304.0</ele><time>2026-05-03T16:22:00.786Z</time></trkpt><trkpt lat="53.547705" lon="-1.8416383"><ele>304.0</ele><time>2026-05-03T16:22:01.787Z</time></trkpt><trkpt lat="53.5476533" lon="-1.8418433"><ele>304.0</ele><time>2026-05-03T16:22:02.783Z</time></trkpt><trkpt lat="53.5476017" lon="-1.84204"><ele>304.0</ele><time>2026-05-03T16:22:03.784Z</time></trkpt><trkpt lat="53.54755" lon="-1.8422383"><ele>305.5</ele><time>2026-05-03T16:22:04.787Z</time></trkpt><trkpt lat="53.5474983" lon="-1.8424433"><ele>307.0</ele><time>2026-05-03T16:22:05.782Z</time></trkpt><trkpt lat="53.5474483" lon="-1.8426467"><ele>308.5</ele><time>2026-05-03T16:22:06.783Z</time></trkpt><trkpt lat="53.5474" lon="-1.84284"><ele>310.0</ele><time>2026-05-03T16:22:07.783Z</time></trkpt><trkpt lat="53.5473483" lon="-1.843025"><ele>311.0</ele><time>2026-05-03T16:22:08.782Z</time></trkpt><trkpt lat="53.547295" lon="-1.8431967"><ele>312.0</ele><time>2026-05-03T16:22:09.783Z</time></trkpt><trkpt lat="53.54724" lon="-1.8433633"><ele>313.0</ele><time>2026-05-03T16:22:10.782Z</time></trkpt><trkpt lat="53.5471933" lon="-1.8435383"><ele>314.0</ele><time>2026-05-03T16:22:11.784Z</time></trkpt><trkpt lat="53.5471533" lon="-1.8437267"><ele>315.0</ele><time>2026-05-03T16:22:12.783Z</time></trkpt><trkpt lat="53.547125" lon="-1.8439417"><ele>316.0</ele><time>2026-05-03T16:22:13.784Z</time></trkpt><trkpt lat="53.5471033" lon="-1.844185"><ele>317.0</ele><time>2026-05-03T16:22:14.783Z</time></trkpt><trkpt lat="53.547085" lon="-1.8444467"><ele>318.0</ele><time>2026-05-03T16:22:15.783Z</time></trkpt><trkpt lat="53.54707" lon="-1.844715"><ele>318.25</ele><time>2026-05-03T16:22:16.783Z</time></trkpt><trkpt lat="53.5470667" lon="-1.8449733"><ele>318.5</ele><time>2026-05-03T16:22:17.784Z</time></trkpt><trkpt lat="53.54706" lon="-1.8452033"><ele>318.75</ele><time>2026-05-03T16:22:18.784Z</time></trkpt><trkpt lat="53.54705" lon="-1.8454017"><ele>319.0</ele><time>2026-05-03T16:22:19.784Z</time></trkpt><trkpt lat="53.5470367" lon="-1.84557"><ele>319.0</ele><time>2026-05-03T16:22:20.783Z</time></trkpt><trkpt lat="53.5470183" lon="-1.8457267"><ele>319.0</ele><time>2026-05-03T16:22:21.786Z</time></trkpt><trkpt lat="53.5469917" lon="-1.8458733"><ele>319.0</ele><time>2026-05-03T16:22:22.783Z</time></trkpt><trkpt lat="53.5469583" lon="-1.8460183"><ele>319.0</ele><time>2026-05-03T16:22:23.783Z</time></trkpt><trkpt lat="53.5469183" lon="-1.8461583"><ele>319.0</ele><time>2026-05-03T16:22:24.783Z</time></trkpt><trkpt lat="53.546865" lon="-1.846295"><ele>319.0</ele><time>2026-05-03T16:22:25.783Z</time></trkpt><trkpt lat="53.5468017" lon="-1.8464317"><ele>319.0</ele><time>2026-05-03T16:22:26.783Z</time></trkpt><trkpt lat="53.54674" lon="-1.8465717"><ele>319.0</ele><time>2026-05-03T16:22:27.784Z</time></trkpt><trkpt lat="53.5466683" lon="-1.846705"><ele>319.0</ele><time>2026-05-03T16:22:28.782Z</time></trkpt><trkpt lat="53.5465933" lon="-1.8468417"><ele>319.0</ele><time>2026-05-03T16:22:29.783Z</time></trkpt><trkpt lat="53.5465233" lon="-1.84698"><ele>318.8</ele><time>2026-05-03T16:22:30.783Z</time></trkpt><trkpt lat="53.5464483" lon="-1.8471117"><ele>318.59999999999997</ele><time>2026-05-03T16:22:31.783Z</time></trkpt><trkpt lat="53.5463683" lon="-1.8472267"><ele>318.4</ele><time>2026-05-03T16:22:32.782Z</time></trkpt><trkpt lat="53.54628" lon="-1.8473233"><ele>318.2</ele><time>2026-05-03T16:22:33.782Z</time></trkpt><trkpt lat="53.546185" lon="-1.8474133"><ele>318.0</ele><time>2026-05-03T16:22:34.782Z</time></trkpt><trkpt lat="53.546085" lon="-1.8474933"><ele>318.0</ele><time>2026-05-03T16:22:35.786Z</time></trkpt><trkpt lat="53.5459783" lon="-1.8475717"><ele>318.0</ele><time>2026-05-03T16:22:36.787Z</time></trkpt><trkpt lat="53.545865" lon="-1.8476467"><ele>318.0</ele><time>2026-05-03T16:22:37.786Z</time></trkpt><trkpt lat="53.5457483" lon="-1.8477167"><ele>318.0</ele><time>2026-05-03T16:22:38.786Z</time></trkpt><trkpt lat="53.54563" lon="-1.8477833"><ele>318.75</ele><time>2026-05-03T16:22:39.786Z</time></trkpt><trkpt lat="53.5455183" lon="-1.8478517"><ele>319.5</ele><time>2026-05-03T16:22:40.786Z</time></trkpt><trkpt lat="53.54541" lon="-1.8479133"><ele>320.25</ele><time>2026-05-03T16:22:41.786Z</time></trkpt><trkpt lat="53.5452983" lon="-1.8479683"><ele>321.0</ele><time>2026-05-03T16:22:42.786Z</time></trkpt><trkpt lat="53.5451867" lon="-1.8480117"><ele>321.0</ele><time>2026-05-03T16:22:43.783Z</time></trkpt><trkpt lat="53.54508" lon="-1.8480433"><ele>321.0</ele><time>2026-05-03T16:22:44.782Z</time></trkpt><trkpt lat="53.5449817" lon="-1.8480683"><ele>321.0</ele><time>2026-05-03T16:22:45.783Z</time></trkpt><trkpt lat="53.5448917" lon="-1.8480867"><ele>321.0</ele><time>2026-05-03T16:22:46.783Z</time></trkpt><trkpt lat="53.54481" lon="-1.8480883"><ele>321.0</ele><time>2026-05-03T16:22:47.783Z</time></trkpt><trkpt lat="53.54473" lon="-1.8480633"><ele>321.0</ele><time>2026-05-03T16:22:48.784Z</time></trkpt><trkpt lat="53.5446667" lon="-1.848005"><ele>321.0</ele><time>2026-05-03T16:22:49.783Z</time></trkpt><trkpt lat="53.5446167" lon="-1.84791"><ele>321.0</ele><time>2026-05-03T16:22:50.782Z</time></trkpt><trkpt lat="53.5445817" lon="-1.8477633"><ele>321.0</ele><time>2026-05-03T16:22:51.783Z</time></trkpt><trkpt lat="53.54456" lon="-1.8476117"><ele>321.0</ele><time>2026-05-03T16:22:52.783Z</time></trkpt><trkpt lat="53.5445583" lon="-1.8473883"><ele>321.6</ele><time>2026-05-03T16:22:53.782Z</time></trkpt><trkpt lat="53.5445517" lon="-1.8471867"><ele>322.20000000000005</ele><time>2026-05-03T16:22:54.787Z</time></trkpt><trkpt lat="53.544535" lon="-1.8470183"><ele>322.79999999999995</ele><time>2026-05-03T16:22:55.783Z</time></trkpt><trkpt lat="53.5444983" lon="-1.84689"><ele>323.4</ele><time>2026-05-03T16:22:56.782Z</time></trkpt><trkpt lat="53.54445" lon="-1.8467867"><ele>324.0</ele><time>2026-05-03T16:22:57.782Z</time></trkpt><trkpt lat="53.5443917" lon="-1.84671"><ele>324.0</ele><time>2026-05-03T16:22:58.783Z</time></trkpt><trkpt lat="53.544325" lon="-1.846675"><ele>324.0</ele><time>2026-05-03T16:22:59.783Z</time></trkpt><trkpt lat="53.54425" lon="-1.8466917"><ele>324.0</ele><time>2026-05-03T16:23:00.783Z</time></trkpt><trkpt lat="53.5441667" lon="-1.8467467"><ele>324.0</ele><time>2026-05-03T16:23:01.784Z</time></trkpt><trkpt lat="53.5440883" lon="-1.84681"><ele>324.0</ele><time>2026-05-03T16:23:02.784Z</time></trkpt><trkpt lat="53.5440067" lon="-1.8468717"><ele>324.0</ele><time>2026-05-03T16:23:03.783Z</time></trkpt><trkpt lat="53.5439233" lon="-1.846915"><ele>324.0</ele><time>2026-05-03T16:23:04.786Z</time></trkpt><trkpt lat="53.5438333" lon="-1.84692"><ele>324.0</ele><time>2026-05-03T16:23:05.783Z</time></trkpt><trkpt lat="53.5437417" lon="-1.84689"><ele>324.0</ele><time>2026-05-03T16:23:06.786Z</time></trkpt><trkpt lat="53.54366" lon="-1.8468233"><ele>324.0</ele><time>2026-05-03T16:23:07.782Z</time></trkpt><trkpt lat="53.5435917" lon="-1.84672"><ele>324.0</ele><time>2026-05-03T16:23:08.787Z</time></trkpt><trkpt lat="53.543535" lon="-1.8465467"><ele>327.75</ele><time>2026-05-03T16:23:09.783Z</time></trkpt><trkpt lat="53.54348" lon="-1.8463417"><ele>331.5</ele><time>2026-05-03T16:23:10.786Z</time></trkpt><trkpt lat="53.5434283" lon="-1.8461167"><ele>335.25</ele><time>2026-05-03T16:23:11.782Z</time></trkpt><trkpt lat="53.5433817" lon="-1.8458667"><ele>339.0</ele><time>2026-05-03T16:23:12.792Z</time></trkpt><trkpt lat="53.5433417" lon="-1.845605"><ele>339.5</ele><time>2026-05-03T16:23:13.784Z</time></trkpt><trkpt lat="53.5432983" lon="-1.8453533"><ele>340.0</ele><time>2026-05-03T16:23:14.786Z</time></trkpt><trkpt lat="53.54325" lon="-1.8451183"><ele>340.5</ele><time>2026-05-03T16:23:15.783Z</time></trkpt><trkpt lat="53.5432067" lon="-1.844905"><ele>341.0</ele><time>2026-05-03T16:23:16.783Z</time></trkpt><trkpt lat="53.543165" lon="-1.84471"><ele>341.0</ele><time>2026-05-03T16:23:17.783Z</time></trkpt><trkpt lat="53.543115" lon="-1.844535"><ele>341.0</ele><time>2026-05-03T16:23:18.787Z</time></trkpt><trkpt lat="53.5430583" lon="-1.84438"><ele>341.0</ele><time>2026-05-03T16:23:19.782Z</time></trkpt><trkpt lat="53.5429967" lon="-1.8442467"><ele>341.0</ele><time>2026-05-03T16:23:20.784Z</time></trkpt><trkpt lat="53.5429333" lon="-1.8441483"><ele>341.0</ele><time>2026-05-03T16:23:21.782Z</time></trkpt><trkpt lat="53.5428667" lon="-1.8440833"><ele>343.33333333333337</ele><time>2026-05-03T16:23:22.783Z</time></trkpt><trkpt lat="53.5427967" lon="-1.8440483"><ele>345.6666666666667</ele><time>2026-05-03T16:23:23.783Z</time></trkpt><trkpt lat="53.5427283" lon="-1.844075"><ele>348.0</ele><time>2026-05-03T16:23:24.785Z</time></trkpt><trkpt lat="53.5426683" lon="-1.8441433"><ele>350.3333333333333</ele><time>2026-05-03T16:23:25.784Z</time></trkpt><trkpt lat="53.5426167" lon="-1.844275"><ele>352.66666666666663</ele><time>2026-05-03T16:23:26.784Z</time></trkpt><trkpt lat="53.5425717" lon="-1.8444467"><ele>355.0</ele><time>2026-05-03T16:23:27.783Z</time></trkpt><trkpt lat="53.5425383" lon="-1.8446817"><ele>355.66666666666663</ele><time>2026-05-03T16:23:28.784Z</time></trkpt><trkpt lat="53.5424983" lon="-1.8449133"><ele>356.3333333333333</ele><time>2026-05-03T16:23:29.784Z</time></trkpt><trkpt lat="53.5424517" lon="-1.84516"><ele>357.0</ele><time>2026-05-03T16:23:30.784Z</time></trkpt><trkpt lat="53.5423967" lon="-1.8454367"><ele>357.3333333333333</ele><time>2026-05-03T16:23:31.783Z</time></trkpt><trkpt lat="53.5423367" lon="-1.8457117"><ele>357.66666666666663</ele><time>2026-05-03T16:23:32.787Z</time></trkpt><trkpt lat="53.5422817" lon="-1.84599"><ele>358.0</ele><time>2026-05-03T16:23:33.783Z</time></trkpt><trkpt lat="53.5422283" lon="-1.8462567"><ele>358.25</ele><time>2026-05-03T16:23:34.783Z</time></trkpt><trkpt lat="53.5421783" lon="-1.8464967"><ele>358.5</ele><time>2026-05-03T16:23:35.783Z</time></trkpt><trkpt lat="53.542135" lon="-1.8467133"><ele>358.75</ele><time>2026-05-03T16:23:36.787Z</time></trkpt><trkpt lat="53.5420917" lon="-1.8469233"><ele>359.0</ele><time>2026-05-03T16:23:37.784Z</time></trkpt><trkpt lat="53.5420467" lon="-1.847135"><ele>362.5</ele><time>2026-05-03T16:23:38.787Z</time></trkpt><trkpt lat="53.542005" lon="-1.847355"><ele>366.0</ele><time>2026-05-03T16:23:39.783Z</time></trkpt><trkpt lat="53.5419583" lon="-1.8475683"><ele>369.5</ele><time>2026-05-03T16:23:40.786Z</time></trkpt><trkpt lat="53.5419117" lon="-1.84778"><ele>373.0</ele><time>2026-05-03T16:23:41.788Z</time></trkpt><trkpt lat="53.5418667" lon="-1.84799"><ele>373.5</ele><time>2026-05-03T16:23:42.782Z</time></trkpt><trkpt lat="53.541825" lon="-1.848185"><ele>374.0</ele><time>2026-05-03T16:23:43.782Z</time></trkpt><trkpt lat="53.54178" lon="-1.84837"><ele>374.5</ele><time>2026-05-03T16:23:44.782Z</time></trkpt><trkpt lat="53.5417283" lon="-1.8485483"><ele>375.0</ele><time>2026-05-03T16:23:45.783Z</time></trkpt><trkpt lat="53.5416683" lon="-1.848715"><ele>375.6</ele><time>2026-05-03T16:23:46.783Z</time></trkpt><trkpt lat="53.5416033" lon="-1.84887"><ele>376.2</ele><time>2026-05-03T16:23:47.783Z</time></trkpt><trkpt lat="53.541535" lon="-1.8490017"><ele>376.79999999999995</ele><time>2026-05-03T16:23:48.782Z</time></trkpt><trkpt lat="53.5414617" lon="-1.8491"><ele>377.4</ele><time>2026-05-03T16:23:49.782Z</time></trkpt><trkpt lat="53.5413783" lon="-1.8491567"><ele>378.0</ele><time>2026-05-03T16:23:50.782Z</time></trkpt><trkpt lat="53.5412933" lon="-1.8491783"><ele>381.0</ele><time>2026-05-03T16:23:51.783Z</time></trkpt><trkpt lat="53.541195" lon="-1.84917"><ele>384.0</ele><time>2026-05-03T16:23:52.783Z</time></trkpt><trkpt lat="53.54109" lon="-1.8491167"><ele>387.0</ele><time>2026-05-03T16:23:53.786Z</time></trkpt><trkpt lat="53.5409817" lon="-1.8490183"><ele>390.0</ele><time>2026-05-03T16:23:54.787Z</time></trkpt><trkpt lat="53.5408683" lon="-1.8488933"><ele>390.0</ele><time>2026-05-03T16:23:55.783Z</time></trkpt><trkpt lat="53.5407583" lon="-1.848755"><ele>390.0</ele><time>2026-05-03T16:23:56.786Z</time></trkpt><trkpt lat="53.540655" lon="-1.8486233"><ele>390.0</ele><time>2026-05-03T16:23:57.782Z</time></trkpt><trkpt lat="53.54055" lon="-1.8485017"><ele>390.0</ele><time>2026-05-03T16:23:58.783Z</time></trkpt><trkpt lat="53.5404417" lon="-1.8484017"><ele>393.0</ele><time>2026-05-03T16:23:59.783Z</time></trkpt><trkpt lat="53.54034" lon="-1.8483267"><ele>396.0</ele><time>2026-05-03T16:24:00.784Z</time></trkpt><trkpt lat="53.5402267" lon="-1.848275"><ele>399.0</ele><time>2026-05-03T16:24:01.784Z</time></trkpt><trkpt lat="53.5401033" lon="-1.8482433"><ele>402.0</ele><time>2026-05-03T16:24:02.783Z</time></trkpt><trkpt lat="53.539965" lon="-1.8482317"><ele>402.0</ele><time>2026-05-03T16:24:03.787Z</time></trkpt><trkpt lat="53.53982" lon="-1.8482333"><ele>402.0</ele><time>2026-05-03T16:24:04.786Z</time></trkpt><trkpt lat="53.53968" lon="-1.8482467"><ele>402.0</ele><time>2026-05-03T16:24:05.787Z</time></trkpt><trkpt lat="53.5395467" lon="-1.8482633"><ele>402.0</ele><time>2026-05-03T16:24:06.782Z</time></trkpt><trkpt lat="53.5394183" lon="-1.8482817"><ele>404.25</ele><time>2026-05-03T16:24:07.783Z</time></trkpt><trkpt lat="53.5392983" lon="-1.84831"><ele>406.5</ele><time>2026-05-03T16:24:08.783Z</time></trkpt><trkpt lat="53.539185" lon="-1.8483517"><ele>408.75</ele><time>2026-05-03T16:24:09.783Z</time></trkpt><trkpt lat="53.53907" lon="-1.8484167"><ele>411.0</ele><time>2026-05-03T16:24:10.782Z</time></trkpt><trkpt lat="53.5389533" lon="-1.84851"><ele>413.0</ele><time>2026-05-03T16:24:11.784Z</time></trkpt><trkpt lat="53.5388333" lon="-1.8486233"><ele>415.0</ele><time>2026-05-03T16:24:12.786Z</time></trkpt><trkpt lat="53.5387133" lon="-1.8487567"><ele>417.0</ele><time>2026-05-03T16:24:13.785Z</time></trkpt><trkpt lat="53.5385967" lon="-1.8489117"><ele>419.0</ele><time>2026-05-03T16:24:14.787Z</time></trkpt><trkpt lat="53.5384867" lon="-1.84908"><ele>419.25</ele><time>2026-05-03T16:24:15.786Z</time></trkpt><trkpt lat="53.5383867" lon="-1.8492467"><ele>419.5</ele><time>2026-05-03T16:24:16.787Z</time></trkpt><trkpt lat="53.538295" lon="-1.84941"><ele>419.75</ele><time>2026-05-03T16:24:17.787Z</time></trkpt><trkpt lat="53.53821" lon="-1.8495667"><ele>420.0</ele><time>2026-05-03T16:24:18.787Z</time></trkpt><trkpt lat="53.538125" lon="-1.84973"><ele>423.0</ele><time>2026-05-03T16:24:19.783Z</time></trkpt><trkpt lat="53.5380367" lon="-1.8498917"><ele>426.0</ele><time>2026-05-03T16:24:20.783Z</time></trkpt><trkpt lat="53.5379417" lon="-1.85006"><ele>429.0</ele><time>2026-05-03T16:24:21.787Z</time></trkpt><trkpt lat="53.5378467" lon="-1.8502367"><ele>432.0</ele><time>2026-05-03T16:24:22.787Z</time></trkpt><trkpt lat="53.5377517" lon="-1.8504117"><ele>434.25</ele><time>2026-05-03T16:24:23.782Z</time></trkpt><trkpt lat="53.5376583" lon="-1.8505783"><ele>436.5</ele><time>2026-05-03T16:24:24.783Z</time></trkpt><trkpt lat="53.5375617" lon="-1.8507433"><ele>438.75</ele><time>2026-05-03T16:24:25.783Z</time></trkpt><trkpt lat="53.5374583" lon="-1.8509083"><ele>441.0</ele><time>2026-05-03T16:24:26.787Z</time></trkpt><trkpt lat="53.53735" lon="-1.8510667"><ele>443.0</ele><time>2026-05-03T16:24:27.783Z</time></trkpt><trkpt lat="53.537235" lon="-1.8512133"><ele>445.0</ele><time>2026-05-03T16:24:28.783Z</time></trkpt><trkpt lat="53.5371183" lon="-1.8513417"><ele>447.0</ele><time>2026-05-03T16:24:29.782Z</time></trkpt><trkpt lat="53.5370033" lon="-1.8514717"><ele>449.0</ele><time>2026-05-03T16:24:30.787Z</time></trkpt><trkpt lat="53.5368917" lon="-1.8516133"><ele>449.0</ele><time>2026-05-03T16:24:31.782Z</time></trkpt><trkpt lat="53.53679" lon="-1.851765"><ele>449.0</ele><time>2026-05-03T16:24:32.787Z</time></trkpt><trkpt lat="53.5366917" lon="-1.85192"><ele>449.0</ele><time>2026-05-03T16:24:33.787Z</time></trkpt><trkpt lat="53.5365967" lon="-1.8520667"><ele>449.0</ele><time>2026-05-03T16:24:34.786Z</time></trkpt><trkpt lat="53.5365067" lon="-1.8522183"><ele>452.75</ele><time>2026-05-03T16:24:35.787Z</time></trkpt><trkpt lat="53.5364133" lon="-1.8523633"><ele>456.5</ele><time>2026-05-03T16:24:36.782Z</time></trkpt><trkpt lat="53.5363217" lon="-1.8525033"><ele>460.25</ele><time>2026-05-03T16:24:37.782Z</time></trkpt><trkpt lat="53.53623" lon="-1.852645"><ele>464.0</ele><time>2026-05-03T16:24:38.787Z</time></trkpt><trkpt lat="53.5361433" lon="-1.8527917"><ele>465.25</ele><time>2026-05-03T16:24:39.786Z</time></trkpt><trkpt lat="53.536055" lon="-1.8529283"><ele>466.5</ele><time>2026-05-03T16:24:40.786Z</time></trkpt><trkpt lat="53.5359633" lon="-1.853065"><ele>467.75</ele><time>2026-05-03T16:24:41.787Z</time></trkpt><trkpt lat="53.5358733" lon="-1.8531967"><ele>469.0</ele><time>2026-05-03T16:24:42.786Z</time></trkpt><trkpt lat="53.5357783" lon="-1.8533267"><ele>469.0</ele><time>2026-05-03T16:24:43.786Z</time></trkpt><trkpt lat="53.535675" lon="-1.8534533"><ele>469.0</ele><time>2026-05-03T16:24:44.786Z</time></trkpt><trkpt lat="53.5355633" lon="-1.853575"><ele>469.0</ele><time>2026-05-03T16:24:45.782Z</time></trkpt><trkpt lat="53.5354517" lon="-1.8536967"><ele>469.0</ele><time>2026-05-03T16:24:46.783Z</time></trkpt><trkpt lat="53.5353383" lon="-1.8538117"><ele>471.25</ele><time>2026-05-03T16:24:47.787Z</time></trkpt><trkpt lat="53.53522" lon="-1.8539183"><ele>473.5</ele><time>2026-05-03T16:24:48.783Z</time></trkpt><trkpt lat="53.53509" lon="-1.8540133"><ele>475.75</ele><time>2026-05-03T16:24:49.783Z</time></trkpt><trkpt lat="53.53496" lon="-1.854095"><ele>478.0</ele><time>2026-05-03T16:24:50.783Z</time></trkpt><trkpt lat="53.534835" lon="-1.8541683"><ele>478.0</ele><time>2026-05-03T16:24:51.783Z</time></trkpt><trkpt lat="53.5347133" lon="-1.8542533"><ele>478.0</ele><time>2026-05-03T16:24:52.785Z</time></trkpt><trkpt lat="53.5345967" lon="-1.85435"><ele>478.0</ele><time>2026-05-03T16:24:53.786Z</time></trkpt><trkpt lat="53.534485" lon="-1.8544433"><ele>478.0</ele><time>2026-05-03T16:24:54.786Z</time></trkpt><trkpt lat="53.534375" lon="-1.8545317"><ele>482.75</ele><time>2026-05-03T16:24:55.782Z</time></trkpt><trkpt lat="53.53426" lon="-1.8545983"><ele>487.5</ele><time>2026-05-03T16:24:56.781Z</time></trkpt><trkpt lat="53.5341433" lon="-1.8546333"><ele>492.25</ele><time>2026-05-03T16:24:57.787Z</time></trkpt><trkpt lat="53.5340267" lon="-1.8546483"><ele>497.0</ele><time>2026-05-03T16:24:58.783Z</time></trkpt><trkpt lat="53.53391" lon="-1.8546533"><ele>497.0</ele><time>2026-05-03T16:24:59.785Z</time></trkpt><trkpt lat="53.5337883" lon="-1.8546517"><ele>497.0</ele><time>2026-05-03T16:25:00.786Z</time></trkpt><trkpt lat="53.5336683" lon="-1.8546483"><ele>497.0</ele><time>2026-05-03T16:25:01.783Z</time></trkpt><trkpt lat="53.533545" lon="-1.8546333"><ele>497.0</ele><time>2026-05-03T16:25:02.786Z</time></trkpt><trkpt lat="53.53342" lon="-1.8546067"><ele>499.0</ele><time>2026-05-03T16:25:03.783Z</time></trkpt><trkpt lat="53.5332933" lon="-1.85457"><ele>501.0</ele><time>2026-05-03T16:25:04.782Z</time></trkpt><trkpt lat="53.53316" lon="-1.854525"><ele>503.0</ele><time>2026-05-03T16:25:05.782Z</time></trkpt><trkpt lat="53.5330283" lon="-1.8544667"><ele>505.0</ele><time>2026-05-03T16:25:06.782Z</time></trkpt><trkpt lat="53.5329067" lon="-1.8544083"><ele>504.8</ele><time>2026-05-03T16:25:07.782Z</time></trkpt><trkpt lat="53.5327933" lon="-1.854345"><ele>504.6</ele><time>2026-05-03T16:25:08.786Z</time></trkpt><trkpt lat="53.5326833" lon="-1.8542783"><ele>504.4</ele><time>2026-05-03T16:25:09.786Z</time></trkpt><trkpt lat="53.5325833" lon="-1.8542183"><ele>504.2</ele><time>2026-05-03T16:25:10.785Z</time></trkpt><trkpt lat="53.5324817" lon="-1.8541633"><ele>504.0</ele><time>2026-05-03T16:25:11.783Z</time></trkpt><trkpt lat="53.532375" lon="-1.854115"><ele>504.0</ele><time>2026-05-03T16:25:12.786Z</time></trkpt><trkpt lat="53.5322683" lon="-1.8540767"><ele>504.0</ele><time>2026-05-03T16:25:13.785Z</time></trkpt><trkpt lat="53.5321583" lon="-1.8540583"><ele>504.0</ele><time>2026-05-03T16:25:14.787Z</time></trkpt><trkpt lat="53.5320483" lon="-1.854055"><ele>504.0</ele><time>2026-05-03T16:25:15.783Z</time></trkpt><trkpt lat="53.5319383" lon="-1.8540667"><ele>504.0</ele><time>2026-05-03T16:25:16.783Z</time></trkpt><trkpt lat="53.5318267" lon="-1.85409"><ele>507.0</ele><time>2026-05-03T16:25:17.783Z</time></trkpt><trkpt lat="53.5317117" lon="-1.85413"><ele>510.0</ele><time>2026-05-03T16:25:18.786Z</time></trkpt><trkpt lat="53.5315967" lon="-1.8541817"><ele>513.0</ele><time>2026-05-03T16:25:19.783Z</time></trkpt><trkpt lat="53.5314817" lon="-1.8542433"><ele>516.0</ele><time>2026-05-03T16:25:20.783Z</time></trkpt><trkpt lat="53.5313633" lon="-1.8543117"><ele>516.75</ele><time>2026-05-03T16:25:21.783Z</time></trkpt><trkpt lat="53.5312433" lon="-1.8543883"><ele>517.5</ele><time>2026-05-03T16:25:22.787Z</time></trkpt><trkpt lat="53.53112" lon="-1.8544683"><ele>518.25</ele><time>2026-05-03T16:25:23.782Z</time></trkpt><trkpt lat="53.5310033" lon="-1.85455"><ele>519.0</ele><time>2026-05-03T16:25:24.788Z</time></trkpt><trkpt lat="53.5308867" lon="-1.8546283"><ele>519.25</ele><time>2026-05-03T16:25:25.786Z</time></trkpt><trkpt lat="53.5307683" lon="-1.8546983"><ele>519.5</ele><time>2026-05-03T16:25:26.786Z</time></trkpt><trkpt lat="53.530645" lon="-1.8547817"><ele>519.75</ele><time>2026-05-03T16:25:27.783Z</time></trkpt><trkpt lat="53.5305217" lon="-1.8548817"><ele>520.0</ele><time>2026-05-03T16:25:28.786Z</time></trkpt><trkpt lat="53.530405" lon="-1.855005"><ele>521.25</ele><time>2026-05-03T16:25:29.785Z</time></trkpt><trkpt lat="53.530295" lon="-1.8551533"><ele>522.5</ele><time>2026-05-03T16:25:30.786Z</time></trkpt><trkpt lat="53.5301917" lon="-1.8553083"><ele>523.75</ele><time>2026-05-03T16:25:31.787Z</time></trkpt><trkpt lat="53.53009" lon="-1.8554633"><ele>525.0</ele><time>2026-05-03T16:25:32.783Z</time></trkpt><trkpt lat="53.529995" lon="-1.8556183"><ele>525.0</ele><time>2026-05-03T16:25:33.783Z</time></trkpt><trkpt lat="53.5299033" lon="-1.855765"><ele>525.0</ele><time>2026-05-03T16:25:34.787Z</time></trkpt><trkpt lat="53.5298183" lon="-1.8558983"><ele>525.0</ele><time>2026-05-03T16:25:35.782Z</time></trkpt><trkpt lat="53.529735" lon="-1.8560283"><ele>525.0</ele><time>2026-05-03T16:25:36.784Z</time></trkpt><trkpt lat="53.5296533" lon="-1.8561617"><ele>525.0</ele><time>2026-05-03T16:25:37.787Z</time></trkpt><trkpt lat="53.52957" lon="-1.8563017"><ele>525.0</ele><time>2026-05-03T16:25:38.786Z</time></trkpt><trkpt lat="53.529485" lon="-1.8564417"><ele>525.0</ele><time>2026-05-03T16:25:39.785Z</time></trkpt><trkpt lat="53.5293967" lon="-1.856585"><ele>525.0</ele><time>2026-05-03T16:25:40.783Z</time></trkpt><trkpt lat="53.5293067" lon="-1.8567367"><ele>525.25</ele><time>2026-05-03T16:25:41.787Z</time></trkpt><trkpt lat="53.5292183" lon="-1.8568817"><ele>525.5</ele><time>2026-05-03T16:25:42.786Z</time></trkpt><trkpt lat="53.5291367" lon="-1.8570217"><ele>525.75</ele><time>2026-05-03T16:25:43.783Z</time></trkpt><trkpt lat="53.5290583" lon="-1.85715"><ele>526.0</ele><time>2026-05-03T16:25:44.787Z</time></trkpt><trkpt lat="53.528975" lon="-1.8572517"><ele>526.0</ele><time>2026-05-03T16:25:45.782Z</time></trkpt><trkpt lat="53.528885" lon="-1.8573433"><ele>526.0</ele><time>2026-05-03T16:25:46.784Z</time></trkpt><trkpt lat="53.528785" lon="-1.8574217"><ele>526.0</ele><time>2026-05-03T16:25:47.786Z</time></trkpt><trkpt lat="53.5286733" lon="-1.8574983"><ele>526.0</ele><time>2026-05-03T16:25:48.785Z</time></trkpt><trkpt lat="53.52855" lon="-1.8575733"><ele>523.0</ele><time>2026-05-03T16:25:49.786Z</time></trkpt><trkpt lat="53.5284317" lon="-1.8576367"><ele>520.0</ele><time>2026-05-03T16:25:50.786Z</time></trkpt><trkpt lat="53.528315" lon="-1.8576833"><ele>517.0</ele><time>2026-05-03T16:25:51.787Z</time></trkpt><trkpt lat="53.5282017" lon="-1.857725"><ele>514.0</ele><time>2026-05-03T16:25:52.787Z</time></trkpt><trkpt lat="53.5280917" lon="-1.857755"><ele>514.0</ele><time>2026-05-03T16:25:53.783Z</time></trkpt><trkpt lat="53.5279817" lon="-1.8577683"><ele>514.0</ele><time>2026-05-03T16:25:54.787Z</time></trkpt><trkpt lat="53.5278683" lon="-1.8577617"><ele>514.0</ele><time>2026-05-03T16:25:55.784Z</time></trkpt><trkpt lat="53.5277533" lon="-1.85773"><ele>514.0</ele><time>2026-05-03T16:25:56.782Z</time></trkpt><trkpt lat="53.5276417" lon="-1.8576617"><ele>512.0</ele><time>2026-05-03T16:25:57.787Z</time></trkpt><trkpt lat="53.5275317" lon="-1.8575717"><ele>510.0</ele><time>2026-05-03T16:25:58.786Z</time></trkpt><trkpt lat="53.5274283" lon="-1.8574683"><ele>508.0</ele><time>2026-05-03T16:25:59.786Z</time></trkpt><trkpt lat="53.52733" lon="-1.8573683"><ele>506.0</ele><time>2026-05-03T16:26:00.784Z</time></trkpt><trkpt lat="53.5272317" lon="-1.85726"><ele>506.0</ele><time>2026-05-03T16:26:01.783Z</time></trkpt><trkpt lat="53.5271333" lon="-1.8571517"><ele>506.0</ele><time>2026-05-03T16:26:02.786Z</time></trkpt><trkpt lat="53.527035" lon="-1.8570367"><ele>506.0</ele><time>2026-05-03T16:26:03.783Z</time></trkpt><trkpt lat="53.52694" lon="-1.8569117"><ele>506.0</ele><time>2026-05-03T16:26:04.787Z</time></trkpt><trkpt lat="53.5268467" lon="-1.8567883"><ele>504.25</ele><time>2026-05-03T16:26:05.782Z</time></trkpt><trkpt lat="53.5267467" lon="-1.8566733"><ele>502.5</ele><time>2026-05-03T16:26:06.782Z</time></trkpt><trkpt lat="53.52664" lon="-1.8565617"><ele>500.75</ele><time>2026-05-03T16:26:07.782Z</time></trkpt><trkpt lat="53.5265367" lon="-1.8564483"><ele>499.0</ele><time>2026-05-03T16:26:08.782Z</time></trkpt><trkpt lat="53.526435" lon="-1.8563217"><ele>499.0</ele><time>2026-05-03T16:26:09.783Z</time></trkpt><trkpt lat="53.526335" lon="-1.8561833"><ele>499.0</ele><time>2026-05-03T16:26:10.783Z</time></trkpt><trkpt lat="53.5262367" lon="-1.85604"><ele>499.0</ele><time>2026-05-03T16:26:11.783Z</time></trkpt><trkpt lat="53.5261383" lon="-1.855895"><ele>499.0</ele><time>2026-05-03T16:26:12.783Z</time></trkpt><trkpt lat="53.5260367" lon="-1.85575"><ele>495.75</ele><time>2026-05-03T16:26:13.784Z</time></trkpt><trkpt lat="53.525935" lon="-1.8556117"><ele>492.5</ele><time>2026-05-03T16:26:14.783Z</time></trkpt><trkpt lat="53.5258333" lon="-1.8554817"><ele>489.25</ele><time>2026-05-03T16:26:15.782Z</time></trkpt><trkpt lat="53.5257317" lon="-1.8553617"><ele>486.0</ele><time>2026-05-03T16:26:16.783Z</time></trkpt><trkpt lat="53.525635" lon="-1.8552417"><ele>489.0</ele><time>2026-05-03T16:26:17.782Z</time></trkpt><trkpt lat="53.5255383" lon="-1.8551133"><ele>492.0</ele><time>2026-05-03T16:26:18.782Z</time></trkpt><trkpt lat="53.5254383" lon="-1.85497"><ele>495.0</ele><time>2026-05-03T16:26:19.782Z</time></trkpt><trkpt lat="53.5253317" lon="-1.8548017"><ele>498.0</ele><time>2026-05-03T16:26:20.784Z</time></trkpt><trkpt lat="53.52522" lon="-1.8546167"><ele>492.0</ele><time>2026-05-03T16:26:21.783Z</time></trkpt><trkpt lat="53.5251017" lon="-1.8544233"><ele>486.0</ele><time>2026-05-03T16:26:22.782Z</time></trkpt><trkpt lat="53.5249917" lon="-1.854225"><ele>480.0</ele><time>2026-05-03T16:26:23.783Z</time></trkpt><trkpt lat="53.5248867" lon="-1.8540183"><ele>480.0</ele><time>2026-05-03T16:26:24.782Z</time></trkpt><trkpt lat="53.52479" lon="-1.853805"><ele>480.0</ele><time>2026-05-03T16:26:25.783Z</time></trkpt><trkpt lat="53.5246983" lon="-1.8535933"><ele>480.0</ele><time>2026-05-03T16:26:26.783Z</time></trkpt><trkpt lat="53.5246067" lon="-1.8533933"><ele>475.25</ele><time>2026-05-03T16:26:27.783Z</time></trkpt><trkpt lat="53.524515" lon="-1.853195"><ele>470.5</ele><time>2026-05-03T16:26:28.783Z</time></trkpt><trkpt lat="53.5244183" lon="-1.8530017"><ele>465.75</ele><time>2026-05-03T16:26:29.788Z</time></trkpt><trkpt lat="53.5243217" lon="-1.8528183"><ele>461.0</ele><time>2026-05-03T16:26:30.782Z</time></trkpt><trkpt lat="53.524225" lon="-1.8526417"><ele>462.75</ele><time>2026-05-03T16:26:31.784Z</time></trkpt><trkpt lat="53.52412" lon="-1.8524733"><ele>464.5</ele><time>2026-05-03T16:26:32.783Z</time></trkpt><trkpt lat="53.52401" lon="-1.8523217"><ele>466.25</ele><time>2026-05-03T16:26:33.783Z</time></trkpt><trkpt lat="53.5238967" lon="-1.8521833"><ele>468.0</ele><time>2026-05-03T16:26:34.783Z</time></trkpt><trkpt lat="53.5237783" lon="-1.8520633"><ele>464.66666666666663</ele><time>2026-05-03T16:26:35.783Z</time></trkpt><trkpt lat="53.52365" lon="-1.851955"><ele>461.3333333333333</ele><time>2026-05-03T16:26:36.781Z</time></trkpt><trkpt lat="53.52351" lon="-1.8518567"><ele>458.0</ele><time>2026-05-03T16:26:37.783Z</time></trkpt><trkpt lat="53.5233533" lon="-1.851765"><ele>458.0</ele><time>2026-05-03T16:26:38.783Z</time></trkpt><trkpt lat="53.523185" lon="-1.8516783"><ele>458.0</ele><time>2026-05-03T16:26:39.782Z</time></trkpt><trkpt lat="53.523015" lon="-1.8516033"><ele>458.0</ele><time>2026-05-03T16:26:40.783Z</time></trkpt><trkpt lat="53.5228467" lon="-1.85154"><ele>454.66666666666663</ele><time>2026-05-03T16:26:41.782Z</time></trkpt><trkpt lat="53.52267" lon="-1.8514983"><ele>451.33333333333337</ele><time>2026-05-03T16:26:42.787Z</time></trkpt><trkpt lat="53.5224783" lon="-1.85149"><ele>448.0</ele><time>2026-05-03T16:26:43.781Z</time></trkpt><trkpt lat="53.522275" lon="-1.8515033"><ele>448.0</ele><time>2026-05-03T16:26:44.786Z</time></trkpt><trkpt lat="53.5220667" lon="-1.8515217"><ele>448.0</ele><time>2026-05-03T16:26:45.782Z</time></trkpt><trkpt lat="53.52185" lon="-1.8515383"><ele>448.0</ele><time>2026-05-03T16:26:46.787Z</time></trkpt><trkpt lat="53.5216233" lon="-1.85155"><ele>445.0</ele><time>2026-05-03T16:26:47.786Z</time></trkpt><trkpt lat="53.5213933" lon="-1.8515583"><ele>442.0</ele><time>2026-05-03T16:26:48.783Z</time></trkpt><trkpt lat="53.5211667" lon="-1.8515767"><ele>440.0</ele><time>2026-05-03T16:26:49.786Z</time></trkpt><trkpt lat="53.52095" lon="-1.8516"><ele>438.0</ele><time>2026-05-03T16:26:50.783Z</time></trkpt><trkpt lat="53.5207433" lon="-1.8516217"><ele>436.0</ele><time>2026-05-03T16:26:51.783Z</time></trkpt><trkpt lat="53.5205517" lon="-1.8516317"><ele>433.33333333333337</ele><time>2026-05-03T16:26:52.786Z</time></trkpt><trkpt lat="53.5203667" lon="-1.85163"><ele>430.66666666666663</ele><time>2026-05-03T16:26:53.783Z</time></trkpt><trkpt lat="53.5201833" lon="-1.8516033"><ele>428.0</ele><time>2026-05-03T16:26:54.783Z</time></trkpt><trkpt lat="53.5199967" lon="-1.8515433"><ele>428.0</ele><time>2026-05-03T16:26:55.787Z</time></trkpt><trkpt lat="53.5198033" lon="-1.85148"><ele>428.0</ele><time>2026-05-03T16:26:56.782Z</time></trkpt><trkpt lat="53.519605" lon="-1.8514317"><ele>428.0</ele><time>2026-05-03T16:26:57.783Z</time></trkpt><trkpt lat="53.5194033" lon="-1.8513967"><ele>425.3333333333333</ele><time>2026-05-03T16:26:58.782Z</time></trkpt><trkpt lat="53.5192083" lon="-1.8513633"><ele>422.66666666666663</ele><time>2026-05-03T16:26:59.782Z</time></trkpt><trkpt lat="53.5190167" lon="-1.851345"><ele>420.0</ele><time>2026-05-03T16:27:00.783Z</time></trkpt><trkpt lat="53.51882" lon="-1.851345"><ele>418.0</ele><time>2026-05-03T16:27:01.783Z</time></trkpt><trkpt lat="53.5186183" lon="-1.8513617"><ele>416.0</ele><time>2026-05-03T16:27:02.783Z</time></trkpt><trkpt lat="53.5184167" lon="-1.85139"><ele>414.0</ele><time>2026-05-03T16:27:03.783Z</time></trkpt><trkpt lat="53.5182167" lon="-1.85142"><ele>414.0</ele><time>2026-05-03T16:27:04.782Z</time></trkpt><trkpt lat="53.5180167" lon="-1.8514483"><ele>414.0</ele><time>2026-05-03T16:27:05.782Z</time></trkpt><trkpt lat="53.5178133" lon="-1.8514733"><ele>414.0</ele><time>2026-05-03T16:27:06.783Z</time></trkpt><trkpt lat="53.5176067" lon="-1.851505"><ele>412.0</ele><time>2026-05-03T16:27:07.782Z</time></trkpt><trkpt lat="53.5173967" lon="-1.8515433"><ele>410.0</ele><time>2026-05-03T16:27:08.782Z</time></trkpt><trkpt lat="53.5171817" lon="-1.851595"><ele>408.0</ele><time>2026-05-03T16:27:09.783Z</time></trkpt><trkpt lat="53.516955" lon="-1.8516633"><ele>404.5</ele><time>2026-05-03T16:27:10.782Z</time></trkpt><trkpt lat="53.51672" lon="-1.8517433"><ele>401.0</ele><time>2026-05-03T16:27:11.783Z</time></trkpt><trkpt lat="53.51648" lon="-1.8518267"><ele>399.5</ele><time>2026-05-03T16:27:12.783Z</time></trkpt><trkpt lat="53.5162383" lon="-1.851905"><ele>398.0</ele><time>2026-05-03T16:27:13.783Z</time></trkpt><trkpt lat="53.516" lon="-1.8519833"><ele>395.0</ele><time>2026-05-03T16:27:14.783Z</time></trkpt><trkpt lat="53.51576" lon="-1.8520567"><ele>392.0</ele><time>2026-05-03T16:27:15.783Z</time></trkpt><trkpt lat="53.51552" lon="-1.8521317"><ele>390.5</ele><time>2026-05-03T16:27:16.782Z</time></trkpt><trkpt lat="53.51528" lon="-1.852215"><ele>389.0</ele><time>2026-05-03T16:27:17.782Z</time></trkpt><trkpt lat="53.5150517" lon="-1.852305"><ele>389.0</ele><time>2026-05-03T16:27:18.783Z</time></trkpt><trkpt lat="53.5148383" lon="-1.8523867"><ele>389.0</ele><time>2026-05-03T16:27:19.783Z</time></trkpt><trkpt lat="53.5146317" lon="-1.8524633"><ele>389.0</ele><time>2026-05-03T16:27:20.783Z</time></trkpt><trkpt lat="53.5144217" lon="-1.8525317"><ele>388.3333333333333</ele><time>2026-05-03T16:27:21.782Z</time></trkpt><trkpt lat="53.51421" lon="-1.8525967"><ele>387.66666666666663</ele><time>2026-05-03T16:27:22.783Z</time></trkpt><trkpt lat="53.5140083" lon="-1.85266"><ele>387.0</ele><time>2026-05-03T16:27:23.783Z</time></trkpt><trkpt lat="53.5138267" lon="-1.8527217"><ele>382.3333333333333</ele><time>2026-05-03T16:27:24.783Z</time></trkpt><trkpt lat="53.513665" lon="-1.85278"><ele>377.66666666666663</ele><time>2026-05-03T16:27:25.782Z</time></trkpt><trkpt lat="53.5135217" lon="-1.8528317"><ele>373.0</ele><time>2026-05-03T16:27:26.782Z</time></trkpt><trkpt lat="53.5133817" lon="-1.8528667"><ele>373.0</ele><time>2026-05-03T16:27:27.783Z</time></trkpt><trkpt lat="53.51323" lon="-1.8528783"><ele>373.0</ele><time>2026-05-03T16:27:28.782Z</time></trkpt><trkpt lat="53.5130633" lon="-1.8528583"><ele>373.0</ele><time>2026-05-03T16:27:29.783Z</time></trkpt><trkpt lat="53.512885" lon="-1.8528133"><ele>368.66666666666663</ele><time>2026-05-03T16:27:30.782Z</time></trkpt><trkpt lat="53.512695" lon="-1.8527667"><ele>364.3333333333333</ele><time>2026-05-03T16:27:31.786Z</time></trkpt><trkpt lat="53.51249" lon="-1.8527367"><ele>360.0</ele><time>2026-05-03T16:27:32.786Z</time></trkpt><trkpt lat="53.512285" lon="-1.8527267"><ele>360.0</ele><time>2026-05-03T16:27:33.782Z</time></trkpt><trkpt lat="53.5120833" lon="-1.8527367"><ele>360.0</ele><time>2026-05-03T16:27:34.783Z</time></trkpt><trkpt lat="53.5118883" lon="-1.852755"><ele>360.0</ele><time>2026-05-03T16:27:35.783Z</time></trkpt><trkpt lat="53.5117" lon="-1.85278"><ele>357.0</ele><time>2026-05-03T16:27:36.787Z</time></trkpt><trkpt lat="53.5115117" lon="-1.852815"><ele>354.0</ele><time>2026-05-03T16:27:37.783Z</time></trkpt><trkpt lat="53.5113183" lon="-1.85287"><ele>351.0</ele><time>2026-05-03T16:27:38.782Z</time></trkpt><trkpt lat="53.5111083" lon="-1.8529333"><ele>349.5</ele><time>2026-05-03T16:27:39.781Z</time></trkpt><trkpt lat="53.5108867" lon="-1.8529883"><ele>348.0</ele><time>2026-05-03T16:27:40.783Z</time></trkpt><trkpt lat="53.5106567" lon="-1.8530267"><ele>348.0</ele><time>2026-05-03T16:27:41.787Z</time></trkpt><trkpt lat="53.51043" lon="-1.8530633"><ele>348.0</ele><time>2026-05-03T16:27:42.781Z</time></trkpt><trkpt lat="53.5102033" lon="-1.8530933"><ele>345.0</ele><time>2026-05-03T16:27:43.783Z</time></trkpt><trkpt lat="53.5099767" lon="-1.8531267"><ele>342.0</ele><time>2026-05-03T16:27:44.783Z</time></trkpt><trkpt lat="53.5097583" lon="-1.853165"><ele>339.0</ele><time>2026-05-03T16:27:45.785Z</time></trkpt><trkpt lat="53.5095633" lon="-1.8532183"><ele>337.6666666666667</ele><time>2026-05-03T16:27:46.786Z</time></trkpt><trkpt lat="53.509385" lon="-1.8532783"><ele>336.33333333333337</ele><time>2026-05-03T16:27:47.783Z</time></trkpt><trkpt lat="53.5092067" lon="-1.8533333"><ele>335.0</ele><time>2026-05-03T16:27:48.782Z</time></trkpt><trkpt lat="53.5090267" lon="-1.8533783"><ele>335.0</ele><time>2026-05-03T16:27:49.783Z</time></trkpt><trkpt lat="53.50885" lon="-1.8534117"><ele>335.0</ele><time>2026-05-03T16:27:50.783Z</time></trkpt><trkpt lat="53.50867" lon="-1.8534317"><ele>335.0</ele><time>2026-05-03T16:27:51.783Z</time></trkpt><trkpt lat="53.5084917" lon="-1.85344"><ele>332.6666666666667</ele><time>2026-05-03T16:27:52.783Z</time></trkpt><trkpt lat="53.508325" lon="-1.8534367"><ele>330.3333333333333</ele><time>2026-05-03T16:27:53.783Z</time></trkpt><trkpt lat="53.5081583" lon="-1.85342"><ele>328.0</ele><time>2026-05-03T16:27:54.783Z</time></trkpt><trkpt lat="53.5079867" lon="-1.8533833"><ele>322.3333333333333</ele><time>2026-05-03T16:27:55.782Z</time></trkpt><trkpt lat="53.507815" lon="-1.8533317"><ele>316.6666666666667</ele><time>2026-05-03T16:27:56.782Z</time></trkpt><trkpt lat="53.5076417" lon="-1.8532533"><ele>311.0</ele><time>2026-05-03T16:27:57.786Z</time></trkpt><trkpt lat="53.507465" lon="-1.8531483"><ele>311.0</ele><time>2026-05-03T16:27:58.783Z</time></trkpt><trkpt lat="53.5072917" lon="-1.8530233"><ele>311.0</ele><time>2026-05-03T16:27:59.784Z</time></trkpt><trkpt lat="53.507125" lon="-1.85289"><ele>311.0</ele><time>2026-05-03T16:28:00.782Z</time></trkpt><trkpt lat="53.5069667" lon="-1.8527567"><ele>310.6666666666667</ele><time>2026-05-03T16:28:01.784Z</time></trkpt><trkpt lat="53.50681" lon="-1.852635"><ele>310.3333333333333</ele><time>2026-05-03T16:28:02.784Z</time></trkpt><trkpt lat="53.5066583" lon="-1.8525183"><ele>310.0</ele><time>2026-05-03T16:28:03.784Z</time></trkpt><trkpt lat="53.5064933" lon="-1.8524167"><ele>310.0</ele><time>2026-05-03T16:28:04.784Z</time></trkpt><trkpt lat="53.5063233" lon="-1.85233"><ele>310.0</ele><time>2026-05-03T16:28:05.784Z</time></trkpt><trkpt lat="53.506145" lon="-1.852255"><ele>310.0</ele><time>2026-05-03T16:28:06.784Z</time></trkpt><trkpt lat="53.50597" lon="-1.85219"><ele>302.66666666666663</ele><time>2026-05-03T16:28:07.784Z</time></trkpt><trkpt lat="53.5058033" lon="-1.8521267"><ele>295.3333333333333</ele><time>2026-05-03T16:28:08.786Z</time></trkpt><trkpt lat="53.505635" lon="-1.8520683"><ele>288.0</ele><time>2026-05-03T16:28:09.782Z</time></trkpt><trkpt lat="53.5054533" lon="-1.85202"><ele>283.6666666666667</ele><time>2026-05-03T16:28:10.783Z</time></trkpt><trkpt lat="53.5052633" lon="-1.8519967"><ele>279.33333333333337</ele><time>2026-05-03T16:28:11.783Z</time></trkpt><trkpt lat="53.5050683" lon="-1.851985"><ele>275.0</ele><time>2026-05-03T16:28:12.783Z</time></trkpt><trkpt lat="53.50488" lon="-1.8519817"><ele>275.0</ele><time>2026-05-03T16:28:13.782Z</time></trkpt><trkpt lat="53.5046983" lon="-1.851985"><ele>275.0</ele><time>2026-05-03T16:28:14.782Z</time></trkpt><trkpt lat="53.5045267" lon="-1.852"><ele>275.0</ele><time>2026-05-03T16:28:15.783Z</time></trkpt><trkpt lat="53.5043667" lon="-1.8520283"><ele>272.6666666666667</ele><time>2026-05-03T16:28:16.783Z</time></trkpt><trkpt lat="53.5042133" lon="-1.8520733"><ele>270.3333333333333</ele><time>2026-05-03T16:28:17.782Z</time></trkpt><trkpt lat="53.50406" lon="-1.8521333"><ele>268.0</ele><time>2026-05-03T16:28:18.781Z</time></trkpt><trkpt lat="53.5039067" lon="-1.852215"><ele>268.0</ele><time>2026-05-03T16:28:19.782Z</time></trkpt><trkpt lat="53.503755" lon="-1.8523267"><ele>268.0</ele><time>2026-05-03T16:28:20.783Z</time></trkpt><trkpt lat="53.5036033" lon="-1.852475"><ele>268.0</ele><time>2026-05-03T16:28:21.782Z</time></trkpt><trkpt lat="53.5034517" lon="-1.8526467"><ele>267.66666666666663</ele><time>2026-05-03T16:28:22.783Z</time></trkpt><trkpt lat="53.5033117" lon="-1.8528567"><ele>267.3333333333333</ele><time>2026-05-03T16:28:23.783Z</time></trkpt><trkpt lat="53.5031817" lon="-1.85309"><ele>267.0</ele><time>2026-05-03T16:28:24.783Z</time></trkpt><trkpt lat="53.5030583" lon="-1.8533533"><ele>267.0</ele><time>2026-05-03T16:28:25.789Z</time></trkpt><trkpt lat="53.5029367" lon="-1.8536317"><ele>267.0</ele><time>2026-05-03T16:28:26.783Z</time></trkpt><trkpt lat="53.502815" lon="-1.853915"><ele>267.0</ele><time>2026-05-03T16:28:27.783Z</time></trkpt><trkpt lat="53.50269" lon="-1.85419"><ele>272.0</ele><time>2026-05-03T16:28:28.784Z</time></trkpt><trkpt lat="53.5025617" lon="-1.8544683"><ele>277.0</ele><time>2026-05-03T16:28:29.783Z</time></trkpt><trkpt lat="53.5024317" lon="-1.85474"><ele>282.0</ele><time>2026-05-03T16:28:30.783Z</time></trkpt><trkpt lat="53.502295" lon="-1.8550017"><ele>278.3333333333333</ele><time>2026-05-03T16:28:31.784Z</time></trkpt><trkpt lat="53.5021567" lon="-1.85524"><ele>274.66666666666663</ele><time>2026-05-03T16:28:32.783Z</time></trkpt><trkpt lat="53.502035" lon="-1.8554633"><ele>271.0</ele><time>2026-05-03T16:28:33.784Z</time></trkpt><trkpt lat="53.5019167" lon="-1.85566"><ele>271.0</ele><time>2026-05-03T16:28:34.784Z</time></trkpt><trkpt lat="53.5018067" lon="-1.8558383"><ele>271.0</ele><time>2026-05-03T16:28:35.784Z</time></trkpt><trkpt lat="53.5017" lon="-1.8560167"><ele>271.0</ele><time>2026-05-03T16:28:36.783Z</time></trkpt><trkpt lat="53.50161" lon="-1.856195"><ele>271.0</ele><time>2026-05-03T16:28:37.784Z</time></trkpt><trkpt lat="53.5015333" lon="-1.85637"><ele>274.25</ele><time>2026-05-03T16:28:38.788Z</time></trkpt><trkpt lat="53.5014717" lon="-1.8565417"><ele>277.5</ele><time>2026-05-03T16:28:39.787Z</time></trkpt><trkpt lat="53.50142" lon="-1.8567183"><ele>280.75</ele><time>2026-05-03T16:28:40.783Z</time></trkpt><trkpt lat="53.5013717" lon="-1.8569"><ele>284.0</ele><time>2026-05-03T16:28:41.783Z</time></trkpt><trkpt lat="53.5013217" lon="-1.8570917"><ele>286.75</ele><time>2026-05-03T16:28:42.787Z</time></trkpt><trkpt lat="53.5012633" lon="-1.857295"><ele>289.5</ele><time>2026-05-03T16:28:43.783Z</time></trkpt><trkpt lat="53.501195" lon="-1.8575133"><ele>292.25</ele><time>2026-05-03T16:28:44.787Z</time></trkpt><trkpt lat="53.5011217" lon="-1.85775"><ele>295.0</ele><time>2026-05-03T16:28:45.787Z</time></trkpt><trkpt lat="53.501055" lon="-1.8579883"><ele>290.5</ele><time>2026-05-03T16:28:46.784Z</time></trkpt><trkpt lat="53.5009933" lon="-1.85822"><ele>286.0</ele><time>2026-05-03T16:28:47.784Z</time></trkpt><trkpt lat="53.5009333" lon="-1.8584333"><ele>281.5</ele><time>2026-05-03T16:28:48.784Z</time></trkpt><trkpt lat="53.5008733" lon="-1.8586267"><ele>277.0</ele><time>2026-05-03T16:28:49.784Z</time></trkpt><trkpt lat="53.50081" lon="-1.8588083"><ele>277.0</ele><time>2026-05-03T16:28:50.783Z</time></trkpt><trkpt lat="53.50073" lon="-1.85898"><ele>277.0</ele><time>2026-05-03T16:28:51.784Z</time></trkpt><trkpt lat="53.5006183" lon="-1.859155"><ele>277.0</ele><time>2026-05-03T16:28:52.784Z</time></trkpt><trkpt lat="53.50048" lon="-1.8593367"><ele>271.0</ele><time>2026-05-03T16:28:53.784Z</time></trkpt><trkpt lat="53.5003283" lon="-1.859535"><ele>265.0</ele><time>2026-05-03T16:28:54.783Z</time></trkpt><trkpt lat="53.5001667" lon="-1.85976"><ele>259.0</ele><time>2026-05-03T16:28:55.783Z</time></trkpt><trkpt lat="53.4999983" lon="-1.8600083"><ele>259.3333333333333</ele><time>2026-05-03T16:28:56.784Z</time></trkpt><trkpt lat="53.4998217" lon="-1.86026"><ele>259.6666666666667</ele><time>2026-05-03T16:28:57.784Z</time></trkpt><trkpt lat="53.499655" lon="-1.86048"><ele>260.0</ele><time>2026-05-03T16:28:58.789Z</time></trkpt><trkpt lat="53.4994917" lon="-1.8607033"><ele>260.0</ele><time>2026-05-03T16:28:59.787Z</time></trkpt><trkpt lat="53.4993217" lon="-1.8609333"><ele>260.0</ele><time>2026-05-03T16:29:00.784Z</time></trkpt><trkpt lat="53.4991483" lon="-1.8611683"><ele>260.0</ele><time>2026-05-03T16:29:01.787Z</time></trkpt><trkpt lat="53.49898" lon="-1.8614133"><ele>263.33333333333337</ele><time>2026-05-03T16:29:02.787Z</time></trkpt><trkpt lat="53.49882" lon="-1.8616417"><ele>266.6666666666667</ele><time>2026-05-03T16:29:03.786Z</time></trkpt><trkpt lat="53.4986817" lon="-1.8618567"><ele>270.0</ele><time>2026-05-03T16:29:04.788Z</time></trkpt><trkpt lat="53.498555" lon="-1.8620517"><ele>270.0</ele><time>2026-05-03T16:29:05.788Z</time></trkpt><trkpt lat="53.49843" lon="-1.8622233"><ele>270.0</ele><time>2026-05-03T16:29:06.783Z</time></trkpt><trkpt lat="53.498305" lon="-1.8623633"><ele>270.0</ele><time>2026-05-03T16:29:07.784Z</time></trkpt><trkpt lat="53.4981683" lon="-1.8624717"><ele>270.0</ele><time>2026-05-03T16:29:08.784Z</time></trkpt><trkpt lat="53.4980133" lon="-1.8625517"><ele>270.0</ele><time>2026-05-03T16:29:09.784Z</time></trkpt><trkpt lat="53.49784" lon="-1.8626133"><ele>270.0</ele><time>2026-05-03T16:29:10.783Z</time></trkpt><trkpt lat="53.4976517" lon="-1.8626617"><ele>271.0</ele><time>2026-05-03T16:29:11.784Z</time></trkpt><trkpt lat="53.4974567" lon="-1.8627067"><ele>272.0</ele><time>2026-05-03T16:29:12.784Z</time></trkpt><trkpt lat="53.4972567" lon="-1.8627367"><ele>273.0</ele><time>2026-05-03T16:29:13.783Z</time></trkpt><trkpt lat="53.49706" lon="-1.8627583"><ele>273.0</ele><time>2026-05-03T16:29:14.783Z</time></trkpt><trkpt lat="53.4968783" lon="-1.8627783"><ele>273.0</ele><time>2026-05-03T16:29:15.785Z</time></trkpt><trkpt lat="53.4967117" lon="-1.8627917"><ele>273.0</ele><time>2026-05-03T16:29:16.784Z</time></trkpt><trkpt lat="53.4965617" lon="-1.8628033"><ele>273.0</ele><time>2026-05-03T16:29:17.784Z</time></trkpt><trkpt lat="53.4964283" lon="-1.8628183"><ele>273.0</ele><time>2026-05-03T16:29:18.783Z</time></trkpt><trkpt lat="53.4963067" lon="-1.862835"><ele>273.0</ele><time>2026-05-03T16:29:19.784Z</time></trkpt><trkpt lat="53.4961817" lon="-1.86287"><ele>273.0</ele><time>2026-05-03T16:29:20.786Z</time></trkpt><trkpt lat="53.4960517" lon="-1.8629283"><ele>270.5</ele><time>2026-05-03T16:29:21.783Z</time></trkpt><trkpt lat="53.49591" lon="-1.8630133"><ele>268.0</ele><time>2026-05-03T16:29:22.784Z</time></trkpt><trkpt lat="53.4957683" lon="-1.8631117"><ele>265.5</ele><time>2026-05-03T16:29:23.792Z</time></trkpt><trkpt lat="53.4956417" lon="-1.8632117"><ele>263.0</ele><time>2026-05-03T16:29:24.786Z</time></trkpt><trkpt lat="53.49553" lon="-1.863305"><ele>263.0</ele><time>2026-05-03T16:29:25.786Z</time></trkpt><trkpt lat="53.4954283" lon="-1.86339"><ele>263.0</ele><time>2026-05-03T16:29:26.786Z</time></trkpt><trkpt lat="53.495345" lon="-1.863485"><ele>263.0</ele><time>2026-05-03T16:29:27.786Z</time></trkpt><trkpt lat="53.4952733" lon="-1.86359"><ele>263.0</ele><time>2026-05-03T16:29:28.784Z</time></trkpt><trkpt lat="53.4952167" lon="-1.8637167"><ele>263.0</ele><time>2026-05-03T16:29:29.784Z</time></trkpt><trkpt lat="53.49517" lon="-1.8638717"><ele>261.83333333333337</ele><time>2026-05-03T16:29:30.782Z</time></trkpt><trkpt lat="53.495135" lon="-1.8640383"><ele>260.6666666666667</ele><time>2026-05-03T16:29:31.784Z</time></trkpt><trkpt lat="53.495105" lon="-1.864195"><ele>259.5</ele><time>2026-05-03T16:29:32.787Z</time></trkpt><trkpt lat="53.4950833" lon="-1.864335"><ele>258.3333333333333</ele><time>2026-05-03T16:29:33.787Z</time></trkpt><trkpt lat="53.4950683" lon="-1.864445"><ele>257.16666666666663</ele><time>2026-05-03T16:29:34.787Z</time></trkpt><trkpt lat="53.4950517" lon="-1.8645783"><ele>256.0</ele><time>2026-05-03T16:29:36.786Z</time></trkpt><trkpt lat="53.4950283" lon="-1.8646867"><ele>256.0</ele><time>2026-05-03T16:29:46.785Z</time></trkpt><trkpt lat="53.4950083" lon="-1.86479"><ele>256.0</ele><time>2026-05-03T16:29:47.785Z</time></trkpt><trkpt lat="53.4950017" lon="-1.8649033"><ele>256.0</ele><time>2026-05-03T16:29:48.786Z</time></trkpt><trkpt lat="53.4950117" lon="-1.865105"><ele>256.0</ele><time>2026-05-03T16:29:50.785Z</time></trkpt><trkpt lat="53.4950317" lon="-1.8653033"><ele>256.0</ele><time>2026-05-03T16:29:52.788Z</time></trkpt><trkpt lat="53.49506" lon="-1.8655017"><ele>255.60000000000002</ele><time>2026-05-03T16:29:54.787Z</time></trkpt><trkpt lat="53.4950817" lon="-1.8657"><ele>255.20000000000002</ele><time>2026-05-03T16:29:56.787Z</time></trkpt><trkpt lat="53.4951067" lon="-1.8659033"><ele>254.79999999999998</ele><time>2026-05-03T16:29:58.785Z</time></trkpt><trkpt lat="53.49512" lon="-1.86601"><ele>254.39999999999998</ele><time>2026-05-03T16:29:59.784Z</time></trkpt><trkpt lat="53.495135" lon="-1.8661233"><ele>254.0</ele><time>2026-05-03T16:30:00.783Z</time></trkpt><trkpt lat="53.4951483" lon="-1.8662433"><ele>253.50000000000003</ele><time>2026-05-03T16:30:01.785Z</time></trkpt><trkpt lat="53.4951633" lon="-1.8663633"><ele>253.0</ele><time>2026-05-03T16:30:02.785Z</time></trkpt><trkpt lat="53.49518" lon="-1.8664867"><ele>252.5</ele><time>2026-05-03T16:30:03.784Z</time></trkpt><trkpt lat="53.495195" lon="-1.866615"><ele>252.0</ele><time>2026-05-03T16:30:04.785Z</time></trkpt><trkpt lat="53.4952133" lon="-1.8667533"><ele>251.50000000000003</ele><time>2026-05-03T16:30:05.786Z</time></trkpt><trkpt lat="53.4952333" lon="-1.8669083"><ele>251.0</ele><time>2026-05-03T16:30:06.786Z</time></trkpt><trkpt lat="53.4952567" lon="-1.86709"><ele>249.75</ele><time>2026-05-03T16:30:07.786Z</time></trkpt><trkpt lat="53.4952867" lon="-1.867305"><ele>248.5</ele><time>2026-05-03T16:30:08.784Z</time></trkpt><trkpt lat="53.4953183" lon="-1.8675467"><ele>247.25</ele><time>2026-05-03T16:30:09.785Z</time></trkpt><trkpt lat="53.495355" lon="-1.8678133"><ele>246.0</ele><time>2026-05-03T16:30:10.785Z</time></trkpt><trkpt lat="53.4953967" lon="-1.8680983"><ele>252.0</ele><time>2026-05-03T16:30:11.783Z</time></trkpt><trkpt lat="53.4954417" lon="-1.8683883"><ele>258.0</ele><time>2026-05-03T16:30:12.787Z</time></trkpt><trkpt lat="53.4954917" lon="-1.86867"><ele>264.0</ele><time>2026-05-03T16:30:13.786Z</time></trkpt><trkpt lat="53.495535" lon="-1.8689283"><ele>264.0</ele><time>2026-05-03T16:30:14.787Z</time></trkpt><trkpt lat="53.4955633" lon="-1.869185"><ele>264.0</ele><time>2026-05-03T16:30:15.786Z</time></trkpt><trkpt lat="53.49557" lon="-1.8694533"><ele>264.0</ele><time>2026-05-03T16:30:16.787Z</time></trkpt><trkpt lat="53.4955533" lon="-1.869735"><ele>265.0</ele><time>2026-05-03T16:30:17.785Z</time></trkpt><trkpt lat="53.4955283" lon="-1.8700333"><ele>266.0</ele><time>2026-05-03T16:30:18.786Z</time></trkpt><trkpt lat="53.4954983" lon="-1.87032"><ele>267.0</ele><time>2026-05-03T16:30:19.784Z</time></trkpt><trkpt lat="53.4954633" lon="-1.870585"><ele>267.3333333333333</ele><time>2026-05-03T16:30:20.786Z</time></trkpt><trkpt lat="53.4954317" lon="-1.8708467"><ele>267.66666666666663</ele><time>2026-05-03T16:30:21.786Z</time></trkpt><trkpt lat="53.4954133" lon="-1.8711133"><ele>268.0</ele><time>2026-05-03T16:30:22.782Z</time></trkpt><trkpt lat="53.4954067" lon="-1.871395"><ele>261.3333333333333</ele><time>2026-05-03T16:30:23.785Z</time></trkpt><trkpt lat="53.495415" lon="-1.8716783"><ele>254.66666666666669</ele><time>2026-05-03T16:30:24.787Z</time></trkpt><trkpt lat="53.4954167" lon="-1.8719467"><ele>248.0</ele><time>2026-05-03T16:30:25.786Z</time></trkpt><trkpt lat="53.495395" lon="-1.872205"><ele>248.0</ele><time>2026-05-03T16:30:26.788Z</time></trkpt><trkpt lat="53.49534" lon="-1.872455"><ele>248.0</ele><time>2026-05-03T16:30:27.785Z</time></trkpt><trkpt lat="53.49525" lon="-1.8727083"><ele>248.0</ele><time>2026-05-03T16:30:28.784Z</time></trkpt><trkpt lat="53.4951283" lon="-1.87296"><ele>249.66666666666669</ele><time>2026-05-03T16:30:29.784Z</time></trkpt><trkpt lat="53.4950033" lon="-1.8732117"><ele>251.33333333333331</ele><time>2026-05-03T16:30:30.785Z</time></trkpt><trkpt lat="53.4948933" lon="-1.873465"><ele>253.0</ele><time>2026-05-03T16:30:31.786Z</time></trkpt><trkpt lat="53.4947967" lon="-1.8737267"><ele>255.33333333333331</ele><time>2026-05-03T16:30:32.785Z</time></trkpt><trkpt lat="53.49472" lon="-1.87402"><ele>257.6666666666667</ele><time>2026-05-03T16:30:33.783Z</time></trkpt><trkpt lat="53.4946617" lon="-1.8743383"><ele>260.0</ele><time>2026-05-03T16:30:34.784Z</time></trkpt><trkpt lat="53.49461" lon="-1.8746683"><ele>256.0</ele><time>2026-05-03T16:30:35.785Z</time></trkpt><trkpt lat="53.4945533" lon="-1.8750033"><ele>252.0</ele><time>2026-05-03T16:30:36.784Z</time></trkpt><trkpt lat="53.494485" lon="-1.8753467"><ele>248.0</ele><time>2026-05-03T16:30:37.785Z</time></trkpt><trkpt lat="53.4944017" lon="-1.8756733"><ele>251.0</ele><time>2026-05-03T16:30:38.784Z</time></trkpt><trkpt lat="53.4943017" lon="-1.8759917"><ele>254.0</ele><time>2026-05-03T16:30:39.785Z</time></trkpt><trkpt lat="53.49419" lon="-1.8763133"><ele>257.0</ele><time>2026-05-03T16:30:40.786Z</time></trkpt><trkpt lat="53.49407" lon="-1.8766333"><ele>260.0</ele><time>2026-05-03T16:30:41.785Z</time></trkpt><trkpt lat="53.4939583" lon="-1.87694"><ele>263.0</ele><time>2026-05-03T16:30:42.786Z</time></trkpt><trkpt lat="53.493855" lon="-1.8772133"><ele>266.0</ele><time>2026-05-03T16:30:43.783Z</time></trkpt><trkpt lat="53.4937617" lon="-1.8774533"><ele>263.5</ele><time>2026-05-03T16:30:44.787Z</time></trkpt><trkpt lat="53.4936783" lon="-1.8776467"><ele>261.0</ele><time>2026-05-03T16:30:45.787Z</time></trkpt><trkpt lat="53.4935983" lon="-1.8778033"><ele>258.5</ele><time>2026-05-03T16:30:46.785Z</time></trkpt><trkpt lat="53.4935167" lon="-1.8779283"><ele>256.0</ele><time>2026-05-03T16:30:47.785Z</time></trkpt><trkpt lat="53.493435" lon="-1.8780317"><ele>256.0</ele><time>2026-05-03T16:30:48.784Z</time></trkpt><trkpt lat="53.49335" lon="-1.878125"><ele>256.0</ele><time>2026-05-03T16:30:49.785Z</time></trkpt><trkpt lat="53.4932733" lon="-1.8782217"><ele>256.0</ele><time>2026-05-03T16:30:50.787Z</time></trkpt><trkpt lat="53.4931983" lon="-1.8783317"><ele>256.0</ele><time>2026-05-03T16:30:51.787Z</time></trkpt><trkpt lat="53.4931233" lon="-1.878445"><ele>256.0</ele><time>2026-05-03T16:30:52.787Z</time></trkpt><trkpt lat="53.493045" lon="-1.878555"><ele>258.0</ele><time>2026-05-03T16:30:53.784Z</time></trkpt><trkpt lat="53.4929617" lon="-1.8786667"><ele>260.0</ele><time>2026-05-03T16:30:54.787Z</time></trkpt><trkpt lat="53.4928767" lon="-1.8787767"><ele>262.0</ele><time>2026-05-03T16:30:55.783Z</time></trkpt><trkpt lat="53.4927883" lon="-1.87888"><ele>264.0</ele><time>2026-05-03T16:30:56.787Z</time></trkpt><trkpt lat="53.4927017" lon="-1.8789817"><ele>266.0</ele><time>2026-05-03T16:30:57.782Z</time></trkpt><trkpt lat="53.4926183" lon="-1.8790833"><ele>264.6666666666667</ele><time>2026-05-03T16:30:58.784Z</time></trkpt><trkpt lat="53.49254" lon="-1.8791867"><ele>263.33333333333337</ele><time>2026-05-03T16:30:59.785Z</time></trkpt><trkpt lat="53.4924617" lon="-1.8792817"><ele>262.0</ele><time>2026-05-03T16:31:00.784Z</time></trkpt><trkpt lat="53.4923883" lon="-1.8793733"><ele>260.6666666666667</ele><time>2026-05-03T16:31:01.786Z</time></trkpt><trkpt lat="53.49232" lon="-1.8794583"><ele>259.3333333333333</ele><time>2026-05-03T16:31:02.787Z</time></trkpt><trkpt lat="53.4922583" lon="-1.8795333"><ele>258.0</ele><time>2026-05-03T16:31:03.783Z</time></trkpt><trkpt lat="53.4922017" lon="-1.8795933"><ele>258.0</ele><time>2026-05-03T16:31:04.783Z</time></trkpt><trkpt lat="53.4921017" lon="-1.879655"><ele>258.0</ele><time>2026-05-03T16:31:06.783Z</time></trkpt><trkpt lat="53.4920017" lon="-1.8795733"><ele>258.0</ele><time>2026-05-03T16:31:08.782Z</time></trkpt><trkpt lat="53.4919483" lon="-1.8795017"><ele>258.0</ele><time>2026-05-03T16:31:09.783Z</time></trkpt><trkpt lat="53.4918917" lon="-1.8794217"><ele>258.0</ele><time>2026-05-03T16:31:10.783Z</time></trkpt><trkpt lat="53.4918317" lon="-1.8793267"><ele>258.0</ele><time>2026-05-03T16:31:11.783Z</time></trkpt><trkpt lat="53.49176" lon="-1.8792267"><ele>254.5</ele><time>2026-05-03T16:31:12.783Z</time></trkpt><trkpt lat="53.49165" lon="-1.8791167"><ele>251.0</ele><time>2026-05-03T16:31:13.784Z</time></trkpt><trkpt lat="53.491535" lon="-1.8790083"><ele>247.5</ele><time>2026-05-03T16:31:14.787Z</time></trkpt><trkpt lat="53.4914017" lon="-1.8788983"><ele>244.0</ele><time>2026-05-03T16:31:15.783Z</time></trkpt><trkpt lat="53.4912783" lon="-1.8788017"><ele>243.6</ele><time>2026-05-03T16:31:16.784Z</time></trkpt><trkpt lat="53.491175" lon="-1.878715"><ele>243.2</ele><time>2026-05-03T16:31:17.785Z</time></trkpt><trkpt lat="53.49108" lon="-1.8786417"><ele>242.79999999999998</ele><time>2026-05-03T16:31:18.79Z</time></trkpt><trkpt lat="53.49098" lon="-1.87857"><ele>242.39999999999998</ele><time>2026-05-03T16:31:19.787Z</time></trkpt><trkpt lat="53.4908783" lon="-1.87851"><ele>242.0</ele><time>2026-05-03T16:31:20.787Z</time></trkpt><trkpt lat="53.49077" lon="-1.8784767"><ele>242.0</ele><time>2026-05-03T16:31:21.787Z</time></trkpt><trkpt lat="53.490655" lon="-1.8784883"><ele>242.0</ele><time>2026-05-03T16:31:22.787Z</time></trkpt><trkpt lat="53.49054" lon="-1.878535"><ele>242.0</ele><time>2026-05-03T16:31:23.783Z</time></trkpt><trkpt lat="53.4904267" lon="-1.8786317"><ele>242.0</ele><time>2026-05-03T16:31:24.787Z</time></trkpt><trkpt lat="53.4903183" lon="-1.8787917"><ele>241.66666666666669</ele><time>2026-05-03T16:31:25.786Z</time></trkpt><trkpt lat="53.4902167" lon="-1.8790117"><ele>241.33333333333331</ele><time>2026-05-03T16:31:26.786Z</time></trkpt><trkpt lat="53.4901217" lon="-1.879265"><ele>241.0</ele><time>2026-05-03T16:31:27.783Z</time></trkpt><trkpt lat="53.4900217" lon="-1.87953"><ele>239.66666666666666</ele><time>2026-05-03T16:31:28.784Z</time></trkpt><trkpt lat="53.489915" lon="-1.8797967"><ele>238.33333333333331</ele><time>2026-05-03T16:31:29.783Z</time></trkpt><trkpt lat="53.48981" lon="-1.8800583"><ele>237.0</ele><time>2026-05-03T16:31:30.784Z</time></trkpt><trkpt lat="53.4897" lon="-1.8803167"><ele>237.0</ele><time>2026-05-03T16:31:31.784Z</time></trkpt><trkpt lat="53.4895933" lon="-1.8805733"><ele>237.0</ele><time>2026-05-03T16:31:32.783Z</time></trkpt><trkpt lat="53.4894733" lon="-1.8808267"><ele>237.0</ele><time>2026-05-03T16:31:33.783Z</time></trkpt><trkpt lat="53.4893317" lon="-1.8810833"><ele>237.33333333333331</ele><time>2026-05-03T16:31:34.783Z</time></trkpt><trkpt lat="53.4891817" lon="-1.8813417"><ele>237.66666666666666</ele><time>2026-05-03T16:31:35.784Z</time></trkpt><trkpt lat="53.4890283" lon="-1.8816017"><ele>238.0</ele><time>2026-05-03T16:31:36.783Z</time></trkpt><trkpt lat="53.48888" lon="-1.8818567"><ele>239.0</ele><time>2026-05-03T16:31:37.784Z</time></trkpt><trkpt lat="53.48873" lon="-1.8821333"><ele>240.0</ele><time>2026-05-03T16:31:38.783Z</time></trkpt><trkpt lat="53.48858" lon="-1.882425"><ele>237.5</ele><time>2026-05-03T16:31:39.782Z</time></trkpt><trkpt lat="53.4884367" lon="-1.88273"><ele>235.0</ele><time>2026-05-03T16:31:40.783Z</time></trkpt><trkpt lat="53.4883017" lon="-1.8830317"><ele>235.0</ele><time>2026-05-03T16:31:41.783Z</time></trkpt><trkpt lat="53.4881783" lon="-1.88332"><ele>235.0</ele><time>2026-05-03T16:31:42.783Z</time></trkpt><trkpt lat="53.4880617" lon="-1.8836267"><ele>235.0</ele><time>2026-05-03T16:31:43.783Z</time></trkpt><trkpt lat="53.487955" lon="-1.8839467"><ele>236.0</ele><time>2026-05-03T16:31:44.783Z</time></trkpt><trkpt lat="53.487855" lon="-1.8842767"><ele>237.0</ele><time>2026-05-03T16:31:45.782Z</time></trkpt><trkpt lat="53.4877583" lon="-1.8846167"><ele>238.0</ele><time>2026-05-03T16:31:46.783Z</time></trkpt><trkpt lat="53.48767" lon="-1.884965"><ele>236.33333333333331</ele><time>2026-05-03T16:31:47.783Z</time></trkpt><trkpt lat="53.4876" lon="-1.88532"><ele>234.66666666666669</ele><time>2026-05-03T16:31:48.782Z</time></trkpt><trkpt lat="53.4875267" lon="-1.88564"><ele>233.0</ele><time>2026-05-03T16:31:49.784Z</time></trkpt><trkpt lat="53.4874517" lon="-1.8859233"><ele>233.0</ele><time>2026-05-03T16:31:50.783Z</time></trkpt><trkpt lat="53.4873867" lon="-1.8861833"><ele>233.0</ele><time>2026-05-03T16:31:51.783Z</time></trkpt><trkpt lat="53.48733" lon="-1.8864333"><ele>233.0</ele><time>2026-05-03T16:31:52.784Z</time></trkpt><trkpt lat="53.4872767" lon="-1.8866917"><ele>231.0</ele><time>2026-05-03T16:31:53.783Z</time></trkpt><trkpt lat="53.487235" lon="-1.8869367"><ele>229.0</ele><time>2026-05-03T16:31:54.783Z</time></trkpt><trkpt lat="53.4872183" lon="-1.8871733"><ele>227.0</ele><time>2026-05-03T16:31:55.784Z</time></trkpt><trkpt lat="53.4872133" lon="-1.8873983"><ele>225.0</ele><time>2026-05-03T16:31:56.782Z</time></trkpt><trkpt lat="53.4872117" lon="-1.8875833"><ele>226.5</ele><time>2026-05-03T16:31:57.782Z</time></trkpt><trkpt lat="53.487205" lon="-1.88777"><ele>228.0</ele><time>2026-05-03T16:31:58.783Z</time></trkpt><trkpt lat="53.4871767" lon="-1.887965"><ele>229.5</ele><time>2026-05-03T16:31:59.783Z</time></trkpt><trkpt lat="53.4871317" lon="-1.8881933"><ele>231.0</ele><time>2026-05-03T16:32:00.783Z</time></trkpt><trkpt lat="53.4870517" lon="-1.888435"><ele>231.0</ele><time>2026-05-03T16:32:01.784Z</time></trkpt><trkpt lat="53.48697" lon="-1.888705"><ele>231.0</ele><time>2026-05-03T16:32:02.783Z</time></trkpt><trkpt lat="53.4868917" lon="-1.8889917"><ele>231.0</ele><time>2026-05-03T16:32:03.783Z</time></trkpt><trkpt lat="53.4868" lon="-1.88926"><ele>227.66666666666669</ele><time>2026-05-03T16:32:04.782Z</time></trkpt><trkpt lat="53.4867033" lon="-1.8895117"><ele>224.33333333333334</ele><time>2026-05-03T16:32:05.783Z</time></trkpt><trkpt lat="53.4866" lon="-1.8897617"><ele>221.0</ele><time>2026-05-03T16:32:06.783Z</time></trkpt><trkpt lat="53.48648" lon="-1.8900033"><ele>221.33333333333334</ele><time>2026-05-03T16:32:07.783Z</time></trkpt><trkpt lat="53.4863517" lon="-1.890245"><ele>221.66666666666669</ele><time>2026-05-03T16:32:08.782Z</time></trkpt><trkpt lat="53.4862167" lon="-1.8905"><ele>222.0</ele><time>2026-05-03T16:32:09.783Z</time></trkpt><trkpt lat="53.4860833" lon="-1.8907567"><ele>219.0</ele><time>2026-05-03T16:32:10.783Z</time></trkpt><trkpt lat="53.4859567" lon="-1.891005"><ele>216.0</ele><time>2026-05-03T16:32:11.784Z</time></trkpt><trkpt lat="53.4858333" lon="-1.8912617"><ele>213.0</ele><time>2026-05-03T16:32:12.784Z</time></trkpt><trkpt lat="53.485715" lon="-1.8915267"><ele>211.0</ele><time>2026-05-03T16:32:13.783Z</time></trkpt><trkpt lat="53.485605" lon="-1.8918117"><ele>209.0</ele><time>2026-05-03T16:32:14.782Z</time></trkpt><trkpt lat="53.4855033" lon="-1.8921017"><ele>207.0</ele><time>2026-05-03T16:32:15.783Z</time></trkpt><trkpt lat="53.485415" lon="-1.8923767"><ele>209.25</ele><time>2026-05-03T16:32:16.783Z</time></trkpt><trkpt lat="53.4853383" lon="-1.8926283"><ele>211.5</ele><time>2026-05-03T16:32:17.784Z</time></trkpt><trkpt lat="53.4852767" lon="-1.892855"><ele>213.75</ele><time>2026-05-03T16:32:18.782Z</time></trkpt><trkpt lat="53.4852267" lon="-1.8930517"><ele>216.0</ele><time>2026-05-03T16:32:19.783Z</time></trkpt><trkpt lat="53.4851767" lon="-1.893215"><ele>216.0</ele><time>2026-05-03T16:32:20.782Z</time></trkpt><trkpt lat="53.485125" lon="-1.8933583"><ele>216.00000000000003</ele><time>2026-05-03T16:32:21.783Z</time></trkpt><trkpt lat="53.48506" lon="-1.8934667"><ele>216.00000000000003</ele><time>2026-05-03T16:32:22.783Z</time></trkpt><trkpt lat="53.4849817" lon="-1.8935583"><ele>216.0</ele><time>2026-05-03T16:32:23.784Z</time></trkpt><trkpt lat="53.4848967" lon="-1.8936567"><ele>216.0</ele><time>2026-05-03T16:32:24.783Z</time></trkpt><trkpt lat="53.4847767" lon="-1.8937233"><ele>216.25</ele><time>2026-05-03T16:32:25.783Z</time></trkpt><trkpt lat="53.4846467" lon="-1.8938233"><ele>216.5</ele><time>2026-05-03T16:32:26.783Z</time></trkpt><trkpt lat="53.484525" lon="-1.8939583"><ele>216.75</ele><time>2026-05-03T16:32:27.782Z</time></trkpt><trkpt lat="53.4844067" lon="-1.8941017"><ele>217.0</ele><time>2026-05-03T16:32:28.783Z</time></trkpt><trkpt lat="53.4842967" lon="-1.8942783"><ele>216.33333333333331</ele><time>2026-05-03T16:32:29.784Z</time></trkpt><trkpt lat="53.48419" lon="-1.8944883"><ele>215.66666666666669</ele><time>2026-05-03T16:32:30.782Z</time></trkpt><trkpt lat="53.48409" lon="-1.89473"><ele>215.0</ele><time>2026-05-03T16:32:31.784Z</time></trkpt><trkpt lat="53.4839917" lon="-1.8949867"><ele>216.0</ele><time>2026-05-03T16:32:32.783Z</time></trkpt><trkpt lat="53.4839033" lon="-1.8952483"><ele>217.0</ele><time>2026-05-03T16:32:33.783Z</time></trkpt><trkpt lat="53.4838083" lon="-1.8955183"><ele>218.0</ele><time>2026-05-03T16:32:34.783Z</time></trkpt><trkpt lat="53.483715" lon="-1.8957783"><ele>217.33333333333334</ele><time>2026-05-03T16:32:35.782Z</time></trkpt><trkpt lat="53.48362" lon="-1.8960417"><ele>216.66666666666669</ele><time>2026-05-03T16:32:36.782Z</time></trkpt><trkpt lat="53.4835183" lon="-1.8963083"><ele>216.0</ele><time>2026-05-03T16:32:37.783Z</time></trkpt><trkpt lat="53.48341" lon="-1.896585"><ele>215.0</ele><time>2026-05-03T16:32:38.783Z</time></trkpt><trkpt lat="53.4832867" lon="-1.8968733"><ele>214.0</ele><time>2026-05-03T16:32:39.786Z</time></trkpt><trkpt lat="53.4831417" lon="-1.8971767"><ele>213.0</ele><time>2026-05-03T16:32:40.786Z</time></trkpt><trkpt lat="53.482985" lon="-1.8974833"><ele>210.5</ele><time>2026-05-03T16:32:41.784Z</time></trkpt><trkpt lat="53.4828283" lon="-1.8977983"><ele>208.0</ele><time>2026-05-03T16:32:42.782Z</time></trkpt><trkpt lat="53.4826717" lon="-1.8981167"><ele>205.5</ele><time>2026-05-03T16:32:43.782Z</time></trkpt><trkpt lat="53.4825183" lon="-1.8984317"><ele>203.0</ele><time>2026-05-03T16:32:44.782Z</time></trkpt><trkpt lat="53.4823617" lon="-1.8987433"><ele>203.0</ele><time>2026-05-03T16:32:45.782Z</time></trkpt><trkpt lat="53.4822033" lon="-1.8990483"><ele>203.0</ele><time>2026-05-03T16:32:46.783Z</time></trkpt><trkpt lat="53.4820517" lon="-1.8993517"><ele>202.33333333333334</ele><time>2026-05-03T16:32:47.784Z</time></trkpt><trkpt lat="53.48191" lon="-1.8996467"><ele>201.66666666666669</ele><time>2026-05-03T16:32:48.783Z</time></trkpt><trkpt lat="53.48178" lon="-1.899925"><ele>201.0</ele><time>2026-05-03T16:32:49.782Z</time></trkpt><trkpt lat="53.4816583" lon="-1.9001733"><ele>200.66666666666669</ele><time>2026-05-03T16:32:50.783Z</time></trkpt><trkpt lat="53.4815533" lon="-1.9003883"><ele>200.33333333333334</ele><time>2026-05-03T16:32:51.783Z</time></trkpt><trkpt lat="53.4814533" lon="-1.900585"><ele>200.0</ele><time>2026-05-03T16:32:52.784Z</time></trkpt><trkpt lat="53.4813467" lon="-1.9007717"><ele>200.66666666666669</ele><time>2026-05-03T16:32:53.783Z</time></trkpt><trkpt lat="53.4812267" lon="-1.9009417"><ele>201.33333333333331</ele><time>2026-05-03T16:32:54.783Z</time></trkpt><trkpt lat="53.4810783" lon="-1.9010933"><ele>202.0</ele><time>2026-05-03T16:32:55.782Z</time></trkpt><trkpt lat="53.4809217" lon="-1.9012117"><ele>202.0</ele><time>2026-05-03T16:32:56.783Z</time></trkpt><trkpt lat="53.4807633" lon="-1.9013033"><ele>202.0</ele><time>2026-05-03T16:32:57.782Z</time></trkpt><trkpt lat="53.48061" lon="-1.9013833"><ele>202.0</ele><time>2026-05-03T16:32:58.787Z</time></trkpt><trkpt lat="53.4804717" lon="-1.9014667"><ele>202.25</ele><time>2026-05-03T16:32:59.783Z</time></trkpt><trkpt lat="53.4803483" lon="-1.9015733"><ele>202.5</ele><time>2026-05-03T16:33:00.787Z</time></trkpt><trkpt lat="53.4802417" lon="-1.9016967"><ele>202.75</ele><time>2026-05-03T16:33:01.783Z</time></trkpt><trkpt lat="53.4801417" lon="-1.9018367"><ele>203.0</ele><time>2026-05-03T16:33:02.782Z</time></trkpt><trkpt lat="53.4800517" lon="-1.9019983"><ele>203.0</ele><time>2026-05-03T16:33:03.786Z</time></trkpt><trkpt lat="53.479975" lon="-1.9021983"><ele>203.0</ele><time>2026-05-03T16:33:04.786Z</time></trkpt><trkpt lat="53.4799083" lon="-1.90243"><ele>203.0</ele><time>2026-05-03T16:33:05.783Z</time></trkpt><trkpt lat="53.479855" lon="-1.9027017"><ele>203.0</ele><time>2026-05-03T16:33:06.787Z</time></trkpt><trkpt lat="53.47981" lon="-1.9030083"><ele>203.0</ele><time>2026-05-03T16:33:07.782Z</time></trkpt><trkpt lat="53.4797783" lon="-1.90334"><ele>203.0</ele><time>2026-05-03T16:33:08.786Z</time></trkpt><trkpt lat="53.47976" lon="-1.9036733"><ele>203.0</ele><time>2026-05-03T16:33:09.783Z</time></trkpt><trkpt lat="53.4797633" lon="-1.9039983"><ele>203.0</ele><time>2026-05-03T16:33:10.782Z</time></trkpt><trkpt lat="53.479785" lon="-1.90431"><ele>203.0</ele><time>2026-05-03T16:33:11.784Z</time></trkpt><trkpt lat="53.4798283" lon="-1.9046117"><ele>203.0</ele><time>2026-05-03T16:33:12.783Z</time></trkpt><trkpt lat="53.4798917" lon="-1.904915"><ele>203.0</ele><time>2026-05-03T16:33:13.784Z</time></trkpt><trkpt lat="53.4799717" lon="-1.905205"><ele>203.0</ele><time>2026-05-03T16:33:14.785Z</time></trkpt><trkpt lat="53.480045" lon="-1.905485"><ele>204.33333333333334</ele><time>2026-05-03T16:33:15.783Z</time></trkpt><trkpt lat="53.4800967" lon="-1.9057433"><ele>205.66666666666669</ele><time>2026-05-03T16:33:16.787Z</time></trkpt><trkpt lat="53.4801317" lon="-1.9060133"><ele>207.0</ele><time>2026-05-03T16:33:17.784Z</time></trkpt><trkpt lat="53.4801467" lon="-1.9063017"><ele>207.0</ele><time>2026-05-03T16:33:18.784Z</time></trkpt><trkpt lat="53.4801367" lon="-1.9065933"><ele>207.0</ele><time>2026-05-03T16:33:19.784Z</time></trkpt><trkpt lat="53.4801033" lon="-1.9068983"><ele>207.0</ele><time>2026-05-03T16:33:20.785Z</time></trkpt><trkpt lat="53.4800483" lon="-1.9072117"><ele>207.0</ele><time>2026-05-03T16:33:21.783Z</time></trkpt><trkpt lat="53.4799717" lon="-1.9075367"><ele>207.0</ele><time>2026-05-03T16:33:22.786Z</time></trkpt><trkpt lat="53.479875" lon="-1.907865"><ele>207.0</ele><time>2026-05-03T16:33:23.787Z</time></trkpt><trkpt lat="53.4797767" lon="-1.90817"><ele>205.66666666666669</ele><time>2026-05-03T16:33:24.787Z</time></trkpt><trkpt lat="53.4796883" lon="-1.908455"><ele>204.33333333333334</ele><time>2026-05-03T16:33:25.783Z</time></trkpt><trkpt lat="53.4796183" lon="-1.9087283"><ele>203.0</ele><time>2026-05-03T16:33:26.784Z</time></trkpt><trkpt lat="53.47958" lon="-1.909015"><ele>208.33333333333334</ele><time>2026-05-03T16:33:27.786Z</time></trkpt><trkpt lat="53.4795733" lon="-1.9093283"><ele>213.66666666666669</ele><time>2026-05-03T16:33:28.784Z</time></trkpt><trkpt lat="53.4795667" lon="-1.90966"><ele>219.0</ele><time>2026-05-03T16:33:29.783Z</time></trkpt><trkpt lat="53.4795517" lon="-1.91001"><ele>219.33333333333331</ele><time>2026-05-03T16:33:30.783Z</time></trkpt><trkpt lat="53.4795317" lon="-1.9103767"><ele>219.66666666666666</ele><time>2026-05-03T16:33:31.785Z</time></trkpt><trkpt lat="53.479515" lon="-1.9107483"><ele>220.0</ele><time>2026-05-03T16:33:32.785Z</time></trkpt><trkpt lat="53.4794967" lon="-1.9111167"><ele>220.0</ele><time>2026-05-03T16:33:33.785Z</time></trkpt><trkpt lat="53.47948" lon="-1.9114717"><ele>220.0</ele><time>2026-05-03T16:33:34.785Z</time></trkpt><trkpt lat="53.4794583" lon="-1.9117983"><ele>220.0</ele><time>2026-05-03T16:33:35.787Z</time></trkpt><trkpt lat="53.479445" lon="-1.9121067"><ele>219.66666666666666</ele><time>2026-05-03T16:33:36.782Z</time></trkpt><trkpt lat="53.4794283" lon="-1.9124"><ele>219.33333333333331</ele><time>2026-05-03T16:33:37.782Z</time></trkpt><trkpt lat="53.4794183" lon="-1.9126783"><ele>219.0</ele><time>2026-05-03T16:33:38.783Z</time></trkpt><trkpt lat="53.4794033" lon="-1.9129367"><ele>219.0</ele><time>2026-05-03T16:33:39.783Z</time></trkpt><trkpt lat="53.4793883" lon="-1.9131767"><ele>219.0</ele><time>2026-05-03T16:33:40.782Z</time></trkpt><trkpt lat="53.4793733" lon="-1.9133933"><ele>219.0</ele><time>2026-05-03T16:33:41.784Z</time></trkpt><trkpt lat="53.4793483" lon="-1.91361"><ele>219.0</ele><time>2026-05-03T16:33:42.786Z</time></trkpt><trkpt lat="53.4793033" lon="-1.91381"><ele>218.75</ele><time>2026-05-03T16:33:43.785Z</time></trkpt><trkpt lat="53.4792467" lon="-1.914005"><ele>218.5</ele><time>2026-05-03T16:33:44.784Z</time></trkpt><trkpt lat="53.4791783" lon="-1.914185"><ele>218.25</ele><time>2026-05-03T16:33:45.783Z</time></trkpt><trkpt lat="53.4791167" lon="-1.9143667"><ele>218.0</ele><time>2026-05-03T16:33:46.784Z</time></trkpt><trkpt lat="53.4790717" lon="-1.9145533"><ele>218.5</ele><time>2026-05-03T16:33:47.785Z</time></trkpt><trkpt lat="53.4790517" lon="-1.91475"><ele>219.0</ele><time>2026-05-03T16:33:48.784Z</time></trkpt><trkpt lat="53.47906" lon="-1.9149717"><ele>219.5</ele><time>2026-05-03T16:33:49.785Z</time></trkpt><trkpt lat="53.4790783" lon="-1.9152133"><ele>220.0</ele><time>2026-05-03T16:33:50.784Z</time></trkpt><trkpt lat="53.4790967" lon="-1.9154783"><ele>220.0</ele><time>2026-05-03T16:33:51.783Z</time></trkpt><trkpt lat="53.4791183" lon="-1.9157617"><ele>220.0</ele><time>2026-05-03T16:33:52.785Z</time></trkpt><trkpt lat="53.4791383" lon="-1.9160567"><ele>220.0</ele><time>2026-05-03T16:33:53.785Z</time></trkpt><trkpt lat="53.4791583" lon="-1.9163517"><ele>220.0</ele><time>2026-05-03T16:33:54.785Z</time></trkpt><trkpt lat="53.479175" lon="-1.9166533"><ele>220.0</ele><time>2026-05-03T16:33:55.787Z</time></trkpt><trkpt lat="53.4791817" lon="-1.9169667"><ele>220.0</ele><time>2026-05-03T16:33:56.782Z</time></trkpt><trkpt lat="53.4791767" lon="-1.9172917"><ele>221.33333333333331</ele><time>2026-05-03T16:33:57.783Z</time></trkpt><trkpt lat="53.479165" lon="-1.91762"><ele>222.66666666666669</ele><time>2026-05-03T16:33:58.782Z</time></trkpt><trkpt lat="53.4791517" lon="-1.9179567"><ele>224.0</ele><time>2026-05-03T16:33:59.788Z</time></trkpt><trkpt lat="53.479135" lon="-1.9182833"><ele>224.0</ele><time>2026-05-03T16:34:00.783Z</time></trkpt><trkpt lat="53.47912" lon="-1.9186167"><ele>224.0</ele><time>2026-05-03T16:34:01.783Z</time></trkpt><trkpt lat="53.4791033" lon="-1.9189533"><ele>224.0</ele><time>2026-05-03T16:34:02.783Z</time></trkpt><trkpt lat="53.4790867" lon="-1.9192883"><ele>223.33333333333334</ele><time>2026-05-03T16:34:03.782Z</time></trkpt><trkpt lat="53.47907" lon="-1.91963"><ele>222.66666666666669</ele><time>2026-05-03T16:34:04.786Z</time></trkpt><trkpt lat="53.4790533" lon="-1.919975"><ele>222.0</ele><time>2026-05-03T16:34:05.783Z</time></trkpt><trkpt lat="53.4790317" lon="-1.9203233"><ele>222.0</ele><time>2026-05-03T16:34:06.784Z</time></trkpt><trkpt lat="53.4790133" lon="-1.9206717"><ele>222.0</ele><time>2026-05-03T16:34:07.785Z</time></trkpt><trkpt lat="53.4789967" lon="-1.9210133"><ele>222.0</ele><time>2026-05-03T16:34:08.784Z</time></trkpt><trkpt lat="53.47898" lon="-1.921345"><ele>222.33333333333331</ele><time>2026-05-03T16:34:09.784Z</time></trkpt><trkpt lat="53.4789667" lon="-1.9216633"><ele>222.66666666666666</ele><time>2026-05-03T16:34:10.786Z</time></trkpt><trkpt lat="53.4789517" lon="-1.9219583"><ele>223.0</ele><time>2026-05-03T16:34:11.787Z</time></trkpt><trkpt lat="53.4789367" lon="-1.92223"><ele>223.25</ele><time>2026-05-03T16:34:12.787Z</time></trkpt><trkpt lat="53.4789167" lon="-1.92247"><ele>223.5</ele><time>2026-05-03T16:34:13.786Z</time></trkpt><trkpt lat="53.478885" lon="-1.922695"><ele>223.75</ele><time>2026-05-03T16:34:14.786Z</time></trkpt><trkpt lat="53.47884" lon="-1.922925"><ele>224.0</ele><time>2026-05-03T16:34:15.783Z</time></trkpt><trkpt lat="53.4787717" lon="-1.9231633"><ele>228.33333333333334</ele><time>2026-05-03T16:34:16.783Z</time></trkpt><trkpt lat="53.4786883" lon="-1.9234017"><ele>232.66666666666669</ele><time>2026-05-03T16:34:17.784Z</time></trkpt><trkpt lat="53.47859" lon="-1.923635"><ele>237.0</ele><time>2026-05-03T16:34:18.782Z</time></trkpt><trkpt lat="53.478475" lon="-1.9238717"><ele>237.0</ele><time>2026-05-03T16:34:19.783Z</time></trkpt><trkpt lat="53.4783433" lon="-1.9240983"><ele>237.0</ele><time>2026-05-03T16:34:20.783Z</time></trkpt><trkpt lat="53.4782" lon="-1.9243333"><ele>237.0</ele><time>2026-05-03T16:34:21.783Z</time></trkpt><trkpt lat="53.4780517" lon="-1.9245767"><ele>237.66666666666669</ele><time>2026-05-03T16:34:22.784Z</time></trkpt><trkpt lat="53.4779017" lon="-1.9248233"><ele>238.33333333333334</ele><time>2026-05-03T16:34:23.786Z</time></trkpt><trkpt lat="53.4777567" lon="-1.92509"><ele>239.0</ele><time>2026-05-03T16:34:24.786Z</time></trkpt><trkpt lat="53.4776133" lon="-1.9253583"><ele>239.0</ele><time>2026-05-03T16:34:25.787Z</time></trkpt><trkpt lat="53.4774783" lon="-1.9256367"><ele>239.0</ele><time>2026-05-03T16:34:26.787Z</time></trkpt><trkpt lat="53.47735" lon="-1.925915"><ele>239.0</ele><time>2026-05-03T16:34:27.785Z</time></trkpt><trkpt lat="53.4772267" lon="-1.9261867"><ele>238.0</ele><time>2026-05-03T16:34:28.784Z</time></trkpt><trkpt lat="53.477115" lon="-1.9264517"><ele>237.0</ele><time>2026-05-03T16:34:29.784Z</time></trkpt><trkpt lat="53.4770167" lon="-1.9267117"><ele>236.0</ele><time>2026-05-03T16:34:30.785Z</time></trkpt><trkpt lat="53.476925" lon="-1.9269667"><ele>240.66666666666669</ele><time>2026-05-03T16:34:31.785Z</time></trkpt><trkpt lat="53.47684" lon="-1.927215"><ele>245.33333333333331</ele><time>2026-05-03T16:34:32.784Z</time></trkpt><trkpt lat="53.4767583" lon="-1.9274633"><ele>250.0</ele><time>2026-05-03T16:34:33.784Z</time></trkpt><trkpt lat="53.4766733" lon="-1.927705"><ele>250.0</ele><time>2026-05-03T16:34:34.786Z</time></trkpt><trkpt lat="53.4765933" lon="-1.92795"><ele>250.0</ele><time>2026-05-03T16:34:35.787Z</time></trkpt><trkpt lat="53.47651" lon="-1.9281933"><ele>250.0</ele><time>2026-05-03T16:34:36.785Z</time></trkpt><trkpt lat="53.4764283" lon="-1.928445"><ele>249.66666666666666</ele><time>2026-05-03T16:34:37.787Z</time></trkpt><trkpt lat="53.4763417" lon="-1.92871"><ele>249.33333333333331</ele><time>2026-05-03T16:34:38.783Z</time></trkpt><trkpt lat="53.4762567" lon="-1.92899"><ele>249.0</ele><time>2026-05-03T16:34:39.783Z</time></trkpt><trkpt lat="53.476175" lon="-1.92928"><ele>251.33333333333331</ele><time>2026-05-03T16:34:40.786Z</time></trkpt><trkpt lat="53.4760967" lon="-1.929575"><ele>253.66666666666666</ele><time>2026-05-03T16:34:41.787Z</time></trkpt><trkpt lat="53.4760083" lon="-1.929865"><ele>256.0</ele><time>2026-05-03T16:34:42.787Z</time></trkpt><trkpt lat="53.4759183" lon="-1.9301633"><ele>256.0</ele><time>2026-05-03T16:34:43.786Z</time></trkpt><trkpt lat="53.475825" lon="-1.93046"><ele>256.0</ele><time>2026-05-03T16:34:44.782Z</time></trkpt><trkpt lat="53.4757267" lon="-1.9307583"><ele>256.0</ele><time>2026-05-03T16:34:45.786Z</time></trkpt><trkpt lat="53.4756267" lon="-1.9310483"><ele>255.66666666666666</ele><time>2026-05-03T16:34:46.782Z</time></trkpt><trkpt lat="53.4755283" lon="-1.93132"><ele>255.33333333333331</ele><time>2026-05-03T16:34:47.783Z</time></trkpt><trkpt lat="53.4754333" lon="-1.9315633"><ele>255.0</ele><time>2026-05-03T16:34:48.783Z</time></trkpt><trkpt lat="53.475335" lon="-1.931785"><ele>255.0</ele><time>2026-05-03T16:34:49.782Z</time></trkpt><trkpt lat="53.4752283" lon="-1.9319867"><ele>255.0</ele><time>2026-05-03T16:34:50.783Z</time></trkpt><trkpt lat="53.4751083" lon="-1.9321767"><ele>255.0</ele><time>2026-05-03T16:34:51.782Z</time></trkpt><trkpt lat="53.474975" lon="-1.9323533"><ele>255.0</ele><time>2026-05-03T16:34:52.782Z</time></trkpt><trkpt lat="53.4748367" lon="-1.9325183"><ele>255.0</ele><time>2026-05-03T16:34:53.783Z</time></trkpt><trkpt lat="53.4746917" lon="-1.93268"><ele>255.0</ele><time>2026-05-03T16:34:54.782Z</time></trkpt><trkpt lat="53.4745467" lon="-1.9328417"><ele>256.0</ele><time>2026-05-03T16:34:55.782Z</time></trkpt><trkpt lat="53.4744033" lon="-1.933005"><ele>257.0</ele><time>2026-05-03T16:34:56.783Z</time></trkpt><trkpt lat="53.4742583" lon="-1.9331683"><ele>258.0</ele><time>2026-05-03T16:34:57.783Z</time></trkpt><trkpt lat="53.474105" lon="-1.9333367"><ele>258.6666666666667</ele><time>2026-05-03T16:34:58.781Z</time></trkpt><trkpt lat="53.4739483" lon="-1.9335083"><ele>259.33333333333337</ele><time>2026-05-03T16:34:59.783Z</time></trkpt><trkpt lat="53.47379" lon="-1.9336783"><ele>260.0</ele><time>2026-05-03T16:35:00.783Z</time></trkpt><trkpt lat="53.4736317" lon="-1.9338517"><ele>260.0</ele><time>2026-05-03T16:35:01.783Z</time></trkpt><trkpt lat="53.473475" lon="-1.9340167"><ele>260.0</ele><time>2026-05-03T16:35:02.783Z</time></trkpt><trkpt lat="53.47332" lon="-1.9341817"><ele>260.0</ele><time>2026-05-03T16:35:03.783Z</time></trkpt><trkpt lat="53.4731633" lon="-1.934345"><ele>260.0</ele><time>2026-05-03T16:35:04.786Z</time></trkpt><trkpt lat="53.4730067" lon="-1.93451"><ele>260.0</ele><time>2026-05-03T16:35:05.787Z</time></trkpt><trkpt lat="53.4728583" lon="-1.934665"><ele>260.0</ele><time>2026-05-03T16:35:06.787Z</time></trkpt><trkpt lat="53.472705" lon="-1.93481"><ele>260.0</ele><time>2026-05-03T16:35:07.783Z</time></trkpt><trkpt lat="53.4725417" lon="-1.93494"><ele>260.0</ele><time>2026-05-03T16:35:08.784Z</time></trkpt><trkpt lat="53.4723683" lon="-1.9350517"><ele>260.0</ele><time>2026-05-03T16:35:09.784Z</time></trkpt><trkpt lat="53.4721983" lon="-1.935155"><ele>256.6666666666667</ele><time>2026-05-03T16:35:10.786Z</time></trkpt><trkpt lat="53.4720333" lon="-1.9352517"><ele>253.33333333333331</ele><time>2026-05-03T16:35:11.786Z</time></trkpt><trkpt lat="53.47188" lon="-1.93533"><ele>250.0</ele><time>2026-05-03T16:35:12.787Z</time></trkpt><trkpt lat="53.4717417" lon="-1.9353933"><ele>250.0</ele><time>2026-05-03T16:35:13.786Z</time></trkpt><trkpt lat="53.4716167" lon="-1.93544"><ele>250.0</ele><time>2026-05-03T16:35:14.786Z</time></trkpt><trkpt lat="53.47149" lon="-1.93546"><ele>250.0</ele><time>2026-05-03T16:35:15.784Z</time></trkpt><trkpt lat="53.4713517" lon="-1.93545"><ele>250.0</ele><time>2026-05-03T16:35:16.784Z</time></trkpt><trkpt lat="53.471225" lon="-1.93541"><ele>253.6</ele><time>2026-05-03T16:35:17.783Z</time></trkpt><trkpt lat="53.47111" lon="-1.93534"><ele>257.2</ele><time>2026-05-03T16:35:18.783Z</time></trkpt><trkpt lat="53.4710167" lon="-1.9352683"><ele>260.8</ele><time>2026-05-03T16:35:19.784Z</time></trkpt><trkpt lat="53.4709367" lon="-1.9352133"><ele>264.4</ele><time>2026-05-03T16:35:20.785Z</time></trkpt><trkpt lat="53.47086" lon="-1.9351767"><ele>268.0</ele><time>2026-05-03T16:35:21.783Z</time></trkpt><trkpt lat="53.4707867" lon="-1.9351683"><ele>268.0</ele><time>2026-05-03T16:35:22.783Z</time></trkpt><trkpt lat="53.4707217" lon="-1.935195"><ele>268.0</ele><time>2026-05-03T16:35:23.785Z</time></trkpt><trkpt lat="53.4706567" lon="-1.9352633"><ele>268.0</ele><time>2026-05-03T16:35:24.787Z</time></trkpt><trkpt lat="53.47062" lon="-1.9353883"><ele>268.0</ele><time>2026-05-03T16:35:25.787Z</time></trkpt><trkpt lat="53.4706133" lon="-1.935535"><ele>268.0</ele><time>2026-05-03T16:35:26.782Z</time></trkpt><trkpt lat="53.4706383" lon="-1.9357117"><ele>268.0</ele><time>2026-05-03T16:35:27.782Z</time></trkpt><trkpt lat="53.4707133" lon="-1.9359433"><ele>270.0</ele><time>2026-05-03T16:35:28.783Z</time></trkpt><trkpt lat="53.47078" lon="-1.93619"><ele>272.0</ele><time>2026-05-03T16:35:29.783Z</time></trkpt><trkpt lat="53.47086" lon="-1.9364733"><ele>274.0</ele><time>2026-05-03T16:35:30.783Z</time></trkpt><trkpt lat="53.4709717" lon="-1.9368083"><ele>275.66666666666663</ele><time>2026-05-03T16:35:31.783Z</time></trkpt><trkpt lat="53.47107" lon="-1.9371233"><ele>277.3333333333333</ele><time>2026-05-03T16:35:32.782Z</time></trkpt><trkpt lat="53.4711533" lon="-1.93741"><ele>279.0</ele><time>2026-05-03T16:35:33.784Z</time></trkpt><trkpt lat="53.4712233" lon="-1.9376683"><ele>271.5</ele><time>2026-05-03T16:35:34.783Z</time></trkpt><trkpt lat="53.47128" lon="-1.9379017"><ele>264.0</ele><time>2026-05-03T16:35:35.783Z</time></trkpt><trkpt lat="53.4713117" lon="-1.93811"><ele>256.5</ele><time>2026-05-03T16:35:36.783Z</time></trkpt><trkpt lat="53.4713317" lon="-1.938325"><ele>249.0</ele><time>2026-05-03T16:35:37.783Z</time></trkpt><trkpt lat="53.4713233" lon="-1.9385367"><ele>248.0</ele><time>2026-05-03T16:35:38.786Z</time></trkpt><trkpt lat="53.4712917" lon="-1.9387433"><ele>247.0</ele><time>2026-05-03T16:35:39.782Z</time></trkpt><trkpt lat="53.4712217" lon="-1.9389583"><ele>246.0</ele><time>2026-05-03T16:35:40.782Z</time></trkpt><trkpt lat="53.4711267" lon="-1.9391917"><ele>245.0</ele><time>2026-05-03T16:35:41.783Z</time></trkpt><trkpt lat="53.4710267" lon="-1.9394483"><ele>247.33333333333334</ele><time>2026-05-03T16:35:42.784Z</time></trkpt><trkpt lat="53.470925" lon="-1.9397067"><ele>249.66666666666669</ele><time>2026-05-03T16:35:43.783Z</time></trkpt><trkpt lat="53.470815" lon="-1.93995"><ele>252.0</ele><time>2026-05-03T16:35:44.783Z</time></trkpt><trkpt lat="53.470685" lon="-1.9401833"><ele>252.0</ele><time>2026-05-03T16:35:45.783Z</time></trkpt><trkpt lat="53.47054" lon="-1.9404067"><ele>252.0</ele><time>2026-05-03T16:35:46.783Z</time></trkpt><trkpt lat="53.4703983" lon="-1.9405983"><ele>252.0</ele><time>2026-05-03T16:35:47.783Z</time></trkpt><trkpt lat="53.47027" lon="-1.9407483"><ele>252.33333333333331</ele><time>2026-05-03T16:35:48.782Z</time></trkpt><trkpt lat="53.4701433" lon="-1.9408517"><ele>252.66666666666666</ele><time>2026-05-03T16:35:49.783Z</time></trkpt><trkpt lat="53.4700017" lon="-1.940915"><ele>253.0</ele><time>2026-05-03T16:35:50.781Z</time></trkpt><trkpt lat="53.469835" lon="-1.9409433"><ele>253.0</ele><time>2026-05-03T16:35:51.784Z</time></trkpt><trkpt lat="53.469645" lon="-1.9409533"><ele>253.0</ele><time>2026-05-03T16:35:52.783Z</time></trkpt><trkpt lat="53.4694383" lon="-1.94097"><ele>253.0</ele><time>2026-05-03T16:35:53.783Z</time></trkpt><trkpt lat="53.469225" lon="-1.9409917"><ele>253.66666666666666</ele><time>2026-05-03T16:35:54.782Z</time></trkpt><trkpt lat="53.46901" lon="-1.9410117"><ele>254.33333333333331</ele><time>2026-05-03T16:35:55.786Z</time></trkpt><trkpt lat="53.4688083" lon="-1.94102"><ele>255.0</ele><time>2026-05-03T16:35:56.782Z</time></trkpt><trkpt lat="53.4686067" lon="-1.9410217"><ele>255.66666666666669</ele><time>2026-05-03T16:35:57.783Z</time></trkpt><trkpt lat="53.4684083" lon="-1.9410033"><ele>256.33333333333337</ele><time>2026-05-03T16:35:58.783Z</time></trkpt><trkpt lat="53.46821" lon="-1.940975"><ele>257.0</ele><time>2026-05-03T16:35:59.782Z</time></trkpt><trkpt lat="53.4680117" lon="-1.940975"><ele>257.6666666666667</ele><time>2026-05-03T16:36:00.787Z</time></trkpt><trkpt lat="53.4678133" lon="-1.9410033"><ele>258.3333333333333</ele><time>2026-05-03T16:36:01.782Z</time></trkpt><trkpt lat="53.4676183" lon="-1.941055"><ele>259.0</ele><time>2026-05-03T16:36:02.783Z</time></trkpt><trkpt lat="53.46743" lon="-1.9411367"><ele>259.0</ele><time>2026-05-03T16:36:03.784Z</time></trkpt><trkpt lat="53.4672417" lon="-1.9412283"><ele>259.0</ele><time>2026-05-03T16:36:04.784Z</time></trkpt><trkpt lat="53.46705" lon="-1.9413317"><ele>259.0</ele><time>2026-05-03T16:36:05.785Z</time></trkpt><trkpt lat="53.4668567" lon="-1.9414333"><ele>260.3333333333333</ele><time>2026-05-03T16:36:06.786Z</time></trkpt><trkpt lat="53.46666" lon="-1.94154"><ele>261.6666666666667</ele><time>2026-05-03T16:36:07.783Z</time></trkpt><trkpt lat="53.4664617" lon="-1.9416333"><ele>263.0</ele><time>2026-05-03T16:36:08.782Z</time></trkpt><trkpt lat="53.4662583" lon="-1.94171"><ele>262.0</ele><time>2026-05-03T16:36:09.782Z</time></trkpt><trkpt lat="53.46605" lon="-1.9417683"><ele>261.0</ele><time>2026-05-03T16:36:10.783Z</time></trkpt><trkpt lat="53.4658367" lon="-1.941815"><ele>260.0</ele><time>2026-05-03T16:36:11.783Z</time></trkpt><trkpt lat="53.4656217" lon="-1.9418667"><ele>259.33333333333337</ele><time>2026-05-03T16:36:12.783Z</time></trkpt><trkpt lat="53.4654067" lon="-1.94192"><ele>258.6666666666667</ele><time>2026-05-03T16:36:13.782Z</time></trkpt><trkpt lat="53.465195" lon="-1.941965"><ele>258.0</ele><time>2026-05-03T16:36:14.783Z</time></trkpt><trkpt lat="53.4649917" lon="-1.9420217"><ele>258.0</ele><time>2026-05-03T16:36:15.786Z</time></trkpt><trkpt lat="53.4648033" lon="-1.9420817"><ele>258.0</ele><time>2026-05-03T16:36:16.783Z</time></trkpt><trkpt lat="53.464625" lon="-1.9421333"><ele>258.0</ele><time>2026-05-03T16:36:17.783Z</time></trkpt><trkpt lat="53.46446" lon="-1.94218"><ele>258.25</ele><time>2026-05-03T16:36:18.785Z</time></trkpt><trkpt lat="53.4643033" lon="-1.9422217"><ele>258.5</ele><time>2026-05-03T16:36:19.784Z</time></trkpt><trkpt lat="53.4641617" lon="-1.9422667"><ele>258.75</ele><time>2026-05-03T16:36:20.785Z</time></trkpt><trkpt lat="53.4640317" lon="-1.9423133"><ele>259.0</ele><time>2026-05-03T16:36:21.786Z</time></trkpt><trkpt lat="53.4639083" lon="-1.942365"><ele>259.0</ele><time>2026-05-03T16:36:22.783Z</time></trkpt><trkpt lat="53.46379" lon="-1.9424217"><ele>259.0</ele><time>2026-05-03T16:36:23.787Z</time></trkpt><trkpt lat="53.4636767" lon="-1.9424933"><ele>259.0</ele><time>2026-05-03T16:36:24.783Z</time></trkpt><trkpt lat="53.4635683" lon="-1.94258"><ele>259.0</ele><time>2026-05-03T16:36:25.783Z</time></trkpt><trkpt lat="53.46346" lon="-1.942675"><ele>258.0</ele><time>2026-05-03T16:36:26.783Z</time></trkpt><trkpt lat="53.4633533" lon="-1.942775"><ele>257.0</ele><time>2026-05-03T16:36:27.785Z</time></trkpt><trkpt lat="53.463245" lon="-1.9428717"><ele>256.0</ele><time>2026-05-03T16:36:28.787Z</time></trkpt><trkpt lat="53.46314" lon="-1.9429733"><ele>255.0</ele><time>2026-05-03T16:36:29.783Z</time></trkpt><trkpt lat="53.463035" lon="-1.9430733"><ele>254.5</ele><time>2026-05-03T16:36:30.784Z</time></trkpt><trkpt lat="53.46293" lon="-1.9431783"><ele>254.0</ele><time>2026-05-03T16:36:31.784Z</time></trkpt><trkpt lat="53.4628233" lon="-1.94327"><ele>253.5</ele><time>2026-05-03T16:36:32.785Z</time></trkpt><trkpt lat="53.46271" lon="-1.94335"><ele>253.0</ele><time>2026-05-03T16:36:33.784Z</time></trkpt><trkpt lat="53.4625983" lon="-1.9434333"><ele>252.75</ele><time>2026-05-03T16:36:34.784Z</time></trkpt><trkpt lat="53.4624817" lon="-1.9435117"><ele>252.5</ele><time>2026-05-03T16:36:35.785Z</time></trkpt><trkpt lat="53.4623633" lon="-1.94357"><ele>252.25</ele><time>2026-05-03T16:36:36.786Z</time></trkpt><trkpt lat="53.46224" lon="-1.9436117"><ele>252.0</ele><time>2026-05-03T16:36:37.783Z</time></trkpt><trkpt lat="53.4621167" lon="-1.9436367"><ele>251.75</ele><time>2026-05-03T16:36:38.787Z</time></trkpt><trkpt lat="53.461985" lon="-1.9436533"><ele>251.5</ele><time>2026-05-03T16:36:39.783Z</time></trkpt><trkpt lat="53.461855" lon="-1.9436717"><ele>251.25</ele><time>2026-05-03T16:36:40.786Z</time></trkpt><trkpt lat="53.4617217" lon="-1.9436933"><ele>251.0</ele><time>2026-05-03T16:36:41.782Z</time></trkpt><trkpt lat="53.4615833" lon="-1.94371"><ele>251.0</ele><time>2026-05-03T16:36:42.786Z</time></trkpt><trkpt lat="53.4614483" lon="-1.9437283"><ele>251.0</ele><time>2026-05-03T16:36:43.782Z</time></trkpt><trkpt lat="53.4613117" lon="-1.9437483"><ele>251.0</ele><time>2026-05-03T16:36:44.783Z</time></trkpt><trkpt lat="53.4611783" lon="-1.94377"><ele>251.0</ele><time>2026-05-03T16:36:45.787Z</time></trkpt><trkpt lat="53.4610433" lon="-1.9437917"><ele>250.75</ele><time>2026-05-03T16:36:46.782Z</time></trkpt><trkpt lat="53.4609083" lon="-1.9438117"><ele>250.5</ele><time>2026-05-03T16:36:47.784Z</time></trkpt><trkpt lat="53.4607733" lon="-1.943835"><ele>250.25</ele><time>2026-05-03T16:36:48.783Z</time></trkpt><trkpt lat="53.4606367" lon="-1.9438567"><ele>250.0</ele><time>2026-05-03T16:36:49.783Z</time></trkpt><trkpt lat="53.4604967" lon="-1.9438767"><ele>249.25</ele><time>2026-05-03T16:36:50.784Z</time></trkpt><trkpt lat="53.4603567" lon="-1.943885"><ele>248.5</ele><time>2026-05-03T16:36:51.787Z</time></trkpt><trkpt lat="53.4602167" lon="-1.9439017"><ele>247.75</ele><time>2026-05-03T16:36:52.784Z</time></trkpt><trkpt lat="53.4600833" lon="-1.9439233"><ele>247.0</ele><time>2026-05-03T16:36:53.783Z</time></trkpt><trkpt lat="53.4599533" lon="-1.9439417"><ele>247.0</ele><time>2026-05-03T16:36:54.784Z</time></trkpt><trkpt lat="53.4598283" lon="-1.9439583"><ele>247.0</ele><time>2026-05-03T16:36:55.783Z</time></trkpt><trkpt lat="53.4597067" lon="-1.9439717"><ele>247.0</ele><time>2026-05-03T16:36:56.784Z</time></trkpt><trkpt lat="53.4595833" lon="-1.9439867"><ele>247.0</ele><time>2026-05-03T16:36:57.785Z</time></trkpt><trkpt lat="53.4594567" lon="-1.94401"><ele>246.5</ele><time>2026-05-03T16:36:58.783Z</time></trkpt><trkpt lat="53.4593267" lon="-1.9440467"><ele>246.0</ele><time>2026-05-03T16:36:59.784Z</time></trkpt><trkpt lat="53.4591967" lon="-1.94409"><ele>245.5</ele><time>2026-05-03T16:37:00.782Z</time></trkpt><trkpt lat="53.4590633" lon="-1.94413"><ele>245.0</ele><time>2026-05-03T16:37:01.783Z</time></trkpt><trkpt lat="53.45893" lon="-1.9441783"><ele>245.5</ele><time>2026-05-03T16:37:02.783Z</time></trkpt><trkpt lat="53.458795" lon="-1.9442317"><ele>246.0</ele><time>2026-05-03T16:37:03.782Z</time></trkpt><trkpt lat="53.4586617" lon="-1.9442867"><ele>246.5</ele><time>2026-05-03T16:37:04.782Z</time></trkpt><trkpt lat="53.4585283" lon="-1.944345"><ele>247.0</ele><time>2026-05-03T16:37:05.782Z</time></trkpt><trkpt lat="53.4583917" lon="-1.9444017"><ele>246.0</ele><time>2026-05-03T16:37:06.783Z</time></trkpt><trkpt lat="53.4582567" lon="-1.9444517"><ele>245.0</ele><time>2026-05-03T16:37:07.782Z</time></trkpt><trkpt lat="53.45812" lon="-1.9444983"><ele>244.0</ele><time>2026-05-03T16:37:08.782Z</time></trkpt><trkpt lat="53.457985" lon="-1.944535"><ele>243.0</ele><time>2026-05-03T16:37:09.783Z</time></trkpt><trkpt lat="53.4578517" lon="-1.9445783"><ele>241.75</ele><time>2026-05-03T16:37:10.782Z</time></trkpt><trkpt lat="53.457725" lon="-1.9446233"><ele>240.5</ele><time>2026-05-03T16:37:11.782Z</time></trkpt><trkpt lat="53.457585" lon="-1.9446767"><ele>239.25</ele><time>2026-05-03T16:37:12.781Z</time></trkpt><trkpt lat="53.45745" lon="-1.9447333"><ele>238.0</ele><time>2026-05-03T16:37:13.783Z</time></trkpt><trkpt lat="53.4573167" lon="-1.9447833"><ele>238.0</ele><time>2026-05-03T16:37:14.783Z</time></trkpt><trkpt lat="53.4571867" lon="-1.9448283"><ele>238.0</ele><time>2026-05-03T16:37:15.783Z</time></trkpt><trkpt lat="53.457065" lon="-1.9448767"><ele>238.0</ele><time>2026-05-03T16:37:16.782Z</time></trkpt><trkpt lat="53.45695" lon="-1.9449233"><ele>238.0</ele><time>2026-05-03T16:37:17.784Z</time></trkpt><trkpt lat="53.4568317" lon="-1.9449733"><ele>237.75</ele><time>2026-05-03T16:37:18.782Z</time></trkpt><trkpt lat="53.4567167" lon="-1.94503"><ele>237.5</ele><time>2026-05-03T16:37:19.782Z</time></trkpt><trkpt lat="53.4565983" lon="-1.9450767"><ele>237.25</ele><time>2026-05-03T16:37:20.782Z</time></trkpt><trkpt lat="53.456485" lon="-1.9451183"><ele>237.0</ele><time>2026-05-03T16:37:21.782Z</time></trkpt><trkpt lat="53.4563733" lon="-1.9451567"><ele>235.5</ele><time>2026-05-03T16:37:22.783Z</time></trkpt><trkpt lat="53.456265" lon="-1.945195"><ele>234.0</ele><time>2026-05-03T16:37:23.783Z</time></trkpt><trkpt lat="53.45616" lon="-1.9452317"><ele>232.5</ele><time>2026-05-03T16:37:24.783Z</time></trkpt><trkpt lat="53.4560483" lon="-1.94527"><ele>231.0</ele><time>2026-05-03T16:37:25.782Z</time></trkpt><trkpt lat="53.45593" lon="-1.9453133"><ele>231.0</ele><time>2026-05-03T16:37:26.781Z</time></trkpt><trkpt lat="53.4558083" lon="-1.9453567"><ele>231.0</ele><time>2026-05-03T16:37:27.783Z</time></trkpt><trkpt lat="53.4556833" lon="-1.9453967"><ele>231.0</ele><time>2026-05-03T16:37:28.782Z</time></trkpt><trkpt lat="53.4555533" lon="-1.9454467"><ele>231.0</ele><time>2026-05-03T16:37:29.783Z</time></trkpt><trkpt lat="53.4554317" lon="-1.9454933"><ele>230.0</ele><time>2026-05-03T16:37:30.783Z</time></trkpt><trkpt lat="53.4553167" lon="-1.945535"><ele>229.00000000000003</ele><time>2026-05-03T16:37:31.782Z</time></trkpt><trkpt lat="53.4552083" lon="-1.9455683"><ele>228.00000000000003</ele><time>2026-05-03T16:37:32.782Z</time></trkpt><trkpt lat="53.4551" lon="-1.9456067"><ele>227.0</ele><time>2026-05-03T16:37:33.783Z</time></trkpt><trkpt lat="53.454995" lon="-1.9456367"><ele>226.0</ele><time>2026-05-03T16:37:34.783Z</time></trkpt><trkpt lat="53.4548933" lon="-1.9456633"><ele>226.0</ele><time>2026-05-03T16:37:35.783Z</time></trkpt><trkpt lat="53.4548" lon="-1.9456833"><ele>226.00000000000003</ele><time>2026-05-03T16:37:36.783Z</time></trkpt><trkpt lat="53.4546983" lon="-1.945695"><ele>226.00000000000003</ele><time>2026-05-03T16:37:37.782Z</time></trkpt><trkpt lat="53.454585" lon="-1.9456917"><ele>226.0</ele><time>2026-05-03T16:37:38.783Z</time></trkpt><trkpt lat="53.4544583" lon="-1.94568"><ele>226.0</ele><time>2026-05-03T16:37:39.782Z</time></trkpt><trkpt lat="53.4543233" lon="-1.9456517"><ele>226.0</ele><time>2026-05-03T16:37:40.786Z</time></trkpt><trkpt lat="53.4541783" lon="-1.9456117"><ele>226.0</ele><time>2026-05-03T16:37:41.782Z</time></trkpt><trkpt lat="53.45403" lon="-1.9455633"><ele>226.0</ele><time>2026-05-03T16:37:42.783Z</time></trkpt><trkpt lat="53.4538867" lon="-1.9455217"><ele>226.0</ele><time>2026-05-03T16:37:43.784Z</time></trkpt><trkpt lat="53.453735" lon="-1.945495"><ele>226.0</ele><time>2026-05-03T16:37:44.782Z</time></trkpt><trkpt lat="53.45358" lon="-1.945475"><ele>226.0</ele><time>2026-05-03T16:37:45.782Z</time></trkpt><trkpt lat="53.4534283" lon="-1.9454583"><ele>226.0</ele><time>2026-05-03T16:37:46.783Z</time></trkpt><trkpt lat="53.4532783" lon="-1.9454483"><ele>226.0</ele><time>2026-05-03T16:37:47.784Z</time></trkpt><trkpt lat="53.4531283" lon="-1.9454517"><ele>226.0</ele><time>2026-05-03T16:37:48.782Z</time></trkpt><trkpt lat="53.452975" lon="-1.9454583"><ele>226.0</ele><time>2026-05-03T16:37:49.784Z</time></trkpt><trkpt lat="53.45282" lon="-1.945475"><ele>223.0</ele><time>2026-05-03T16:37:50.783Z</time></trkpt><trkpt lat="53.45267" lon="-1.9454783"><ele>220.0</ele><time>2026-05-03T16:37:51.784Z</time></trkpt><trkpt lat="53.452525" lon="-1.9454783"><ele>217.0</ele><time>2026-05-03T16:37:52.784Z</time></trkpt><trkpt lat="53.452385" lon="-1.94548"><ele>214.0</ele><time>2026-05-03T16:37:53.784Z</time></trkpt><trkpt lat="53.45225" lon="-1.9454783"><ele>214.0</ele><time>2026-05-03T16:37:54.784Z</time></trkpt><trkpt lat="53.4521283" lon="-1.9454667"><ele>214.0</ele><time>2026-05-03T16:37:55.785Z</time></trkpt><trkpt lat="53.452005" lon="-1.9454583"><ele>214.0</ele><time>2026-05-03T16:37:56.783Z</time></trkpt><trkpt lat="53.451885" lon="-1.9454483"><ele>214.0</ele><time>2026-05-03T16:37:57.783Z</time></trkpt><trkpt lat="53.4517667" lon="-1.945445"><ele>211.75</ele><time>2026-05-03T16:37:58.785Z</time></trkpt><trkpt lat="53.4516533" lon="-1.94545"><ele>209.5</ele><time>2026-05-03T16:37:59.784Z</time></trkpt><trkpt lat="53.4515367" lon="-1.945455"><ele>207.25</ele><time>2026-05-03T16:38:00.783Z</time></trkpt><trkpt lat="53.45142" lon="-1.94546"><ele>205.0</ele><time>2026-05-03T16:38:01.785Z</time></trkpt><trkpt lat="53.45131" lon="-1.94546"><ele>203.75</ele><time>2026-05-03T16:38:02.783Z</time></trkpt><trkpt lat="53.4512" lon="-1.9454567"><ele>202.5</ele><time>2026-05-03T16:38:03.782Z</time></trkpt><trkpt lat="53.4510883" lon="-1.945455"><ele>201.25</ele><time>2026-05-03T16:38:04.784Z</time></trkpt><trkpt lat="53.450975" lon="-1.94545"><ele>200.0</ele><time>2026-05-03T16:38:05.787Z</time></trkpt><trkpt lat="53.4508583" lon="-1.9454467"><ele>200.0</ele><time>2026-05-03T16:38:06.783Z</time></trkpt><trkpt lat="53.4507417" lon="-1.9454467"><ele>200.0</ele><time>2026-05-03T16:38:07.788Z</time></trkpt><trkpt lat="53.450625" lon="-1.9454417"><ele>200.0</ele><time>2026-05-03T16:38:08.784Z</time></trkpt><trkpt lat="53.4505167" lon="-1.9454333"><ele>200.0</ele><time>2026-05-03T16:38:09.785Z</time></trkpt><trkpt lat="53.450405" lon="-1.9454267"><ele>198.8</ele><time>2026-05-03T16:38:10.784Z</time></trkpt><trkpt lat="53.4502967" lon="-1.94542"><ele>197.6</ele><time>2026-05-03T16:38:11.784Z</time></trkpt><trkpt lat="53.4501867" lon="-1.94542"><ele>196.39999999999998</ele><time>2026-05-03T16:38:12.784Z</time></trkpt><trkpt lat="53.4500783" lon="-1.9454133"><ele>195.2</ele><time>2026-05-03T16:38:13.783Z</time></trkpt><trkpt lat="53.4499667" lon="-1.945405"><ele>194.0</ele><time>2026-05-03T16:38:14.787Z</time></trkpt><trkpt lat="53.4498517" lon="-1.9454067"><ele>194.0</ele><time>2026-05-03T16:38:15.783Z</time></trkpt><trkpt lat="53.4497367" lon="-1.9454217"><ele>194.0</ele><time>2026-05-03T16:38:16.783Z</time></trkpt><trkpt lat="53.44962" lon="-1.945455"><ele>194.0</ele><time>2026-05-03T16:38:17.783Z</time></trkpt><trkpt lat="53.4495033" lon="-1.9455117"><ele>194.0</ele><time>2026-05-03T16:38:18.782Z</time></trkpt><trkpt lat="53.4493883" lon="-1.945565"><ele>191.75</ele><time>2026-05-03T16:38:19.785Z</time></trkpt><trkpt lat="53.4492733" lon="-1.94562"><ele>189.5</ele><time>2026-05-03T16:38:20.785Z</time></trkpt><trkpt lat="53.4491583" lon="-1.945675"><ele>187.25</ele><time>2026-05-03T16:38:21.783Z</time></trkpt><trkpt lat="53.449045" lon="-1.9457233"><ele>185.0</ele><time>2026-05-03T16:38:22.781Z</time></trkpt><trkpt lat="53.44893" lon="-1.9457667"><ele>185.0</ele><time>2026-05-03T16:38:23.782Z</time></trkpt><trkpt lat="53.4488233" lon="-1.945815"><ele>185.0</ele><time>2026-05-03T16:38:24.782Z</time></trkpt><trkpt lat="53.4487167" lon="-1.945865"><ele>185.0</ele><time>2026-05-03T16:38:25.783Z</time></trkpt><trkpt lat="53.44862" lon="-1.94592"><ele>185.0</ele><time>2026-05-03T16:38:26.782Z</time></trkpt><trkpt lat="53.44852" lon="-1.9459683"><ele>185.0</ele><time>2026-05-03T16:38:27.782Z</time></trkpt><trkpt lat="53.44842" lon="-1.9460117"><ele>183.4</ele><time>2026-05-03T16:38:28.783Z</time></trkpt><trkpt lat="53.44831" lon="-1.9460533"><ele>181.8</ele><time>2026-05-03T16:38:29.782Z</time></trkpt><trkpt lat="53.4482" lon="-1.9460917"><ele>180.2</ele><time>2026-05-03T16:38:30.782Z</time></trkpt><trkpt lat="53.4480933" lon="-1.94614"><ele>178.6</ele><time>2026-05-03T16:38:31.782Z</time></trkpt><trkpt lat="53.447985" lon="-1.9461983"><ele>177.0</ele><time>2026-05-03T16:38:32.782Z</time></trkpt><trkpt lat="53.447875" lon="-1.946245"><ele>177.0</ele><time>2026-05-03T16:38:33.782Z</time></trkpt><trkpt lat="53.4477667" lon="-1.9463017"><ele>177.0</ele><time>2026-05-03T16:38:34.783Z</time></trkpt><trkpt lat="53.4476617" lon="-1.9463533"><ele>177.0</ele><time>2026-05-03T16:38:35.782Z</time></trkpt><trkpt lat="53.4475567" lon="-1.9464067"><ele>177.0</ele><time>2026-05-03T16:38:36.782Z</time></trkpt><trkpt lat="53.447455" lon="-1.9464667"><ele>177.0</ele><time>2026-05-03T16:38:37.782Z</time></trkpt><trkpt lat="53.44736" lon="-1.9465417"><ele>177.0</ele><time>2026-05-03T16:38:38.783Z</time></trkpt><trkpt lat="53.4472667" lon="-1.9466167"><ele>177.0</ele><time>2026-05-03T16:38:39.784Z</time></trkpt><trkpt lat="53.447175" lon="-1.9466817"><ele>177.0</ele><time>2026-05-03T16:38:40.782Z</time></trkpt><trkpt lat="53.4470917" lon="-1.946745"><ele>177.0</ele><time>2026-05-03T16:38:41.783Z</time></trkpt><trkpt lat="53.4470133" lon="-1.9468133"><ele>177.0</ele><time>2026-05-03T16:38:42.783Z</time></trkpt><trkpt lat="53.4469317" lon="-1.9468867"><ele>176.33333333333334</ele><time>2026-05-03T16:38:43.782Z</time></trkpt><trkpt lat="53.4468583" lon="-1.94696"><ele>175.66666666666666</ele><time>2026-05-03T16:38:44.781Z</time></trkpt><trkpt lat="53.4467883" lon="-1.947035"><ele>175.0</ele><time>2026-05-03T16:38:45.783Z</time></trkpt><trkpt lat="53.44672" lon="-1.9471067"><ele>174.33333333333331</ele><time>2026-05-03T16:38:46.782Z</time></trkpt><trkpt lat="53.44665" lon="-1.94718"><ele>173.66666666666666</ele><time>2026-05-03T16:38:47.783Z</time></trkpt><trkpt lat="53.446575" lon="-1.9472617"><ele>173.0</ele><time>2026-05-03T16:38:48.782Z</time></trkpt><trkpt lat="53.4464933" lon="-1.9473383"><ele>173.0</ele><time>2026-05-03T16:38:49.783Z</time></trkpt><trkpt lat="53.4464083" lon="-1.9474167"><ele>173.0</ele><time>2026-05-03T16:38:50.783Z</time></trkpt><trkpt lat="53.4463217" lon="-1.9474817"><ele>173.0</ele><time>2026-05-03T16:38:51.782Z</time></trkpt><trkpt lat="53.4462367" lon="-1.94754"><ele>173.0</ele><time>2026-05-03T16:38:52.783Z</time></trkpt><trkpt lat="53.4461467" lon="-1.9475867"><ele>173.0</ele><time>2026-05-03T16:38:53.783Z</time></trkpt><trkpt lat="53.4460517" lon="-1.9476417"><ele>172.2</ele><time>2026-05-03T16:38:54.783Z</time></trkpt><trkpt lat="53.4459567" lon="-1.9476917"><ele>171.4</ele><time>2026-05-03T16:38:55.783Z</time></trkpt><trkpt lat="53.4458567" lon="-1.9477383"><ele>170.6</ele><time>2026-05-03T16:38:56.784Z</time></trkpt><trkpt lat="53.4457517" lon="-1.9477867"><ele>169.79999999999998</ele><time>2026-05-03T16:38:57.783Z</time></trkpt><trkpt lat="53.4456433" lon="-1.94784"><ele>169.0</ele><time>2026-05-03T16:38:58.784Z</time></trkpt><trkpt lat="53.445535" lon="-1.9478883"><ele>168.39999999999998</ele><time>2026-05-03T16:38:59.788Z</time></trkpt><trkpt lat="53.4454283" lon="-1.9479367"><ele>167.8</ele><time>2026-05-03T16:39:00.782Z</time></trkpt><trkpt lat="53.445325" lon="-1.947985"><ele>167.2</ele><time>2026-05-03T16:39:01.785Z</time></trkpt><trkpt lat="53.4452217" lon="-1.9480317"><ele>166.60000000000002</ele><time>2026-05-03T16:39:02.785Z</time></trkpt><trkpt lat="53.4451183" lon="-1.9480783"><ele>166.0</ele><time>2026-05-03T16:39:03.786Z</time></trkpt><trkpt lat="53.44502" lon="-1.94812"><ele>166.0</ele><time>2026-05-03T16:39:04.785Z</time></trkpt><trkpt lat="53.44492" lon="-1.9481583"><ele>166.0</ele><time>2026-05-03T16:39:05.785Z</time></trkpt><trkpt lat="53.4448217" lon="-1.9482"><ele>166.0</ele><time>2026-05-03T16:39:06.785Z</time></trkpt><trkpt lat="53.44472" lon="-1.9482433"><ele>166.0</ele><time>2026-05-03T16:39:07.784Z</time></trkpt><trkpt lat="53.4446217" lon="-1.9482817"><ele>166.0</ele><time>2026-05-03T16:39:08.785Z</time></trkpt><trkpt lat="53.4445267" lon="-1.94832"><ele>165.4</ele><time>2026-05-03T16:39:09.786Z</time></trkpt><trkpt lat="53.4444383" lon="-1.9483567"><ele>164.8</ele><time>2026-05-03T16:39:10.785Z</time></trkpt><trkpt lat="53.4443617" lon="-1.9483917"><ele>164.20000000000002</ele><time>2026-05-03T16:39:11.784Z</time></trkpt><trkpt lat="53.4442967" lon="-1.9484183"><ele>163.60000000000002</ele><time>2026-05-03T16:39:12.784Z</time></trkpt><trkpt lat="53.44418" lon="-1.948475"><ele>163.0</ele><time>2026-05-03T16:39:14.785Z</time></trkpt><trkpt lat="53.44406" lon="-1.948525"><ele>162.4</ele><time>2026-05-03T16:39:16.787Z</time></trkpt><trkpt lat="53.4439367" lon="-1.9485783"><ele>161.8</ele><time>2026-05-03T16:39:18.784Z</time></trkpt><trkpt lat="53.4438733" lon="-1.9486033"><ele>161.2</ele><time>2026-05-03T16:39:19.785Z</time></trkpt><trkpt lat="53.4437667" lon="-1.94864"><ele>160.6</ele><time>2026-05-03T16:39:21.784Z</time></trkpt><trkpt lat="53.44369" lon="-1.9486583"><ele>160.0</ele><time>2026-05-03T16:39:23.784Z</time></trkpt><trkpt lat="53.4436083" lon="-1.9486567"><ele>159.2</ele><time>2026-05-03T16:39:26.783Z</time></trkpt><trkpt lat="53.4435283" lon="-1.9487133"><ele>158.4</ele><time>2026-05-03T16:40:00.789Z</time></trkpt><trkpt lat="53.443445" lon="-1.9487417"><ele>157.6</ele><time>2026-05-03T16:40:02.784Z</time></trkpt><trkpt lat="53.4433633" lon="-1.9487367"><ele>156.8</ele><time>2026-05-03T16:40:04.785Z</time></trkpt><trkpt lat="53.44331" lon="-1.9486433"><ele>156.0</ele><time>2026-05-03T16:40:06.785Z</time></trkpt><trkpt lat="53.443305" lon="-1.948425"><ele>156.2</ele><time>2026-05-03T16:40:08.786Z</time></trkpt><trkpt lat="53.4433133" lon="-1.9482667"><ele>156.39999999999998</ele><time>2026-05-03T16:40:09.786Z</time></trkpt><trkpt lat="53.4433167" lon="-1.9480917"><ele>156.6</ele><time>2026-05-03T16:40:10.787Z</time></trkpt><trkpt lat="53.4433167" lon="-1.9479367"><ele>156.79999999999998</ele><time>2026-05-03T16:40:11.787Z</time></trkpt><trkpt lat="53.4433167" lon="-1.9477817"><ele>157.0</ele><time>2026-05-03T16:40:12.783Z</time></trkpt><trkpt lat="53.443315" lon="-1.9476233"><ele>157.2</ele><time>2026-05-03T16:40:13.787Z</time></trkpt><trkpt lat="53.443315" lon="-1.9474533"><ele>157.39999999999998</ele><time>2026-05-03T16:40:14.785Z</time></trkpt><trkpt lat="53.44332" lon="-1.947285"><ele>157.60000000000002</ele><time>2026-05-03T16:40:15.787Z</time></trkpt><trkpt lat="53.4433267" lon="-1.947115"><ele>157.8</ele><time>2026-05-03T16:40:16.784Z</time></trkpt><trkpt lat="53.4433317" lon="-1.946945"><ele>158.0</ele><time>2026-05-03T16:40:17.784Z</time></trkpt><trkpt lat="53.4433367" lon="-1.9467717"><ele>158.20000000000002</ele><time>2026-05-03T16:40:18.783Z</time></trkpt><trkpt lat="53.44334" lon="-1.9465967"><ele>158.4</ele><time>2026-05-03T16:40:19.784Z</time></trkpt><trkpt lat="53.4433467" lon="-1.9464183"><ele>158.60000000000002</ele><time>2026-05-03T16:40:20.786Z</time></trkpt><trkpt lat="53.4433517" lon="-1.9462467"><ele>158.8</ele><time>2026-05-03T16:40:21.782Z</time></trkpt><trkpt lat="53.44336" lon="-1.9461"><ele>159.0</ele><time>2026-05-03T16:40:22.784Z</time></trkpt><trkpt lat="53.44337" lon="-1.945985"><ele>158.83333333333334</ele><time>2026-05-03T16:40:23.784Z</time></trkpt><trkpt lat="53.4433767" lon="-1.9458133"><ele>158.66666666666666</ele><time>2026-05-03T16:40:25.784Z</time></trkpt><trkpt lat="53.44339" lon="-1.945645"><ele>158.5</ele><time>2026-05-03T16:41:19.784Z</time></trkpt><trkpt lat="53.4433983" lon="-1.94553"><ele>158.33333333333331</ele><time>2026-05-03T16:41:20.784Z</time></trkpt><trkpt lat="53.4434117" lon="-1.9453933"><ele>158.16666666666666</ele><time>2026-05-03T16:41:21.786Z</time></trkpt><trkpt lat="53.4434333" lon="-1.9452433"><ele>158.0</ele><time>2026-05-03T16:41:22.784Z</time></trkpt><trkpt lat="53.44346" lon="-1.9450767"><ele>158.0</ele><time>2026-05-03T16:41:23.787Z</time></trkpt><trkpt lat="53.443495" lon="-1.9449083"><ele>158.0</ele><time>2026-05-03T16:41:24.787Z</time></trkpt><trkpt lat="53.4435383" lon="-1.944745"><ele>158.0</ele><time>2026-05-03T16:41:25.788Z</time></trkpt><trkpt lat="53.4435867" lon="-1.944585"><ele>158.0</ele><time>2026-05-03T16:41:26.786Z</time></trkpt><trkpt lat="53.44364" lon="-1.9444183"><ele>158.0</ele><time>2026-05-03T16:41:27.787Z</time></trkpt><trkpt lat="53.4437" lon="-1.9442417"><ele>158.20000000000002</ele><time>2026-05-03T16:41:28.788Z</time></trkpt><trkpt lat="53.4437583" lon="-1.9440717"><ele>158.4</ele><time>2026-05-03T16:41:29.782Z</time></trkpt><trkpt lat="53.44381" lon="-1.9439133"><ele>158.60000000000002</ele><time>2026-05-03T16:41:30.784Z</time></trkpt><trkpt lat="53.4438583" lon="-1.9437667"><ele>158.8</ele><time>2026-05-03T16:41:31.784Z</time></trkpt><trkpt lat="53.4439083" lon="-1.9436283"><ele>159.0</ele><time>2026-05-03T16:41:32.784Z</time></trkpt><trkpt lat="53.4439567" lon="-1.9434933"><ele>159.5</ele><time>2026-05-03T16:41:33.783Z</time></trkpt><trkpt lat="53.4440067" lon="-1.943365"><ele>160.0</ele><time>2026-05-03T16:41:34.784Z</time></trkpt><trkpt lat="53.444055" lon="-1.943235"><ele>160.5</ele><time>2026-05-03T16:41:35.783Z</time></trkpt><trkpt lat="53.4441017" lon="-1.9431067"><ele>161.0</ele><time>2026-05-03T16:41:36.783Z</time></trkpt><trkpt lat="53.4441517" lon="-1.9429867"><ele>161.5</ele><time>2026-05-03T16:41:37.783Z</time></trkpt><trkpt lat="53.4441983" lon="-1.94287"><ele>162.0</ele><time>2026-05-03T16:41:38.784Z</time></trkpt><trkpt lat="53.444245" lon="-1.94276"><ele>162.0</ele><time>2026-05-03T16:41:39.784Z</time></trkpt><trkpt lat="53.4442883" lon="-1.9426483"><ele>162.0</ele><time>2026-05-03T16:41:40.787Z</time></trkpt><trkpt lat="53.4443283" lon="-1.942545"><ele>162.0</ele><time>2026-05-03T16:41:41.787Z</time></trkpt><trkpt lat="53.44438" lon="-1.9424"><ele>162.0</ele><time>2026-05-03T16:41:43.787Z</time></trkpt><trkpt lat="53.4444367" lon="-1.9422683"><ele>162.0</ele><time>2026-05-03T16:41:46.784Z</time></trkpt><trkpt lat="53.44447" lon="-1.9421383"><ele>162.0</ele><time>2026-05-03T16:41:48.784Z</time></trkpt><trkpt lat="53.4444783" lon="-1.9419883"><ele>161.6</ele><time>2026-05-03T16:41:50.787Z</time></trkpt><trkpt lat="53.44449" lon="-1.9418517"><ele>161.2</ele><time>2026-05-03T16:41:52.786Z</time></trkpt><trkpt lat="53.4445133" lon="-1.941725"><ele>160.8</ele><time>2026-05-03T16:41:54.785Z</time></trkpt><trkpt lat="53.44454" lon="-1.9415717"><ele>160.4</ele><time>2026-05-03T16:41:56.786Z</time></trkpt><trkpt lat="53.4445567" lon="-1.94139"><ele>160.0</ele><time>2026-05-03T16:41:58.787Z</time></trkpt><trkpt lat="53.44458" lon="-1.9411617"><ele>159.8</ele><time>2026-05-03T16:42:00.786Z</time></trkpt><trkpt lat="53.4445917" lon="-1.9410117"><ele>159.6</ele><time>2026-05-03T16:42:01.787Z</time></trkpt><trkpt lat="53.4446083" lon="-1.9408567"><ele>159.4</ele><time>2026-05-03T16:42:02.784Z</time></trkpt><trkpt lat="53.444625" lon="-1.9406983"><ele>159.2</ele><time>2026-05-03T16:42:03.786Z</time></trkpt><trkpt lat="53.4446433" lon="-1.9405417"><ele>159.0</ele><time>2026-05-03T16:42:04.783Z</time></trkpt><trkpt lat="53.4446617" lon="-1.94039"><ele>159.4</ele><time>2026-05-03T16:42:05.788Z</time></trkpt><trkpt lat="53.4446817" lon="-1.94023"><ele>159.8</ele><time>2026-05-03T16:42:06.785Z</time></trkpt><trkpt lat="53.4447083" lon="-1.9400617"><ele>160.20000000000002</ele><time>2026-05-03T16:42:07.784Z</time></trkpt><trkpt lat="53.4447317" lon="-1.9398883"><ele>160.60000000000002</ele><time>2026-05-03T16:42:08.787Z</time></trkpt><trkpt lat="53.4447483" lon="-1.939715"><ele>161.0</ele><time>2026-05-03T16:42:09.786Z</time></trkpt><trkpt lat="53.4447567" lon="-1.9395383"><ele>161.75</ele><time>2026-05-03T16:42:10.787Z</time></trkpt><trkpt lat="53.4447617" lon="-1.93936"><ele>162.5</ele><time>2026-05-03T16:42:11.785Z</time></trkpt><trkpt lat="53.44476" lon="-1.9391667"><ele>163.25</ele><time>2026-05-03T16:42:12.786Z</time></trkpt><trkpt lat="53.4447583" lon="-1.93896"><ele>164.0</ele><time>2026-05-03T16:42:13.787Z</time></trkpt><trkpt lat="53.4447583" lon="-1.93874"><ele>164.25</ele><time>2026-05-03T16:42:14.786Z</time></trkpt><trkpt lat="53.4447567" lon="-1.9385083"><ele>164.5</ele><time>2026-05-03T16:42:15.785Z</time></trkpt><trkpt lat="53.4447583" lon="-1.93826"><ele>164.75</ele><time>2026-05-03T16:42:16.786Z</time></trkpt><trkpt lat="53.44476" lon="-1.9379983"><ele>165.0</ele><time>2026-05-03T16:42:17.786Z</time></trkpt><trkpt lat="53.444765" lon="-1.93774"><ele>165.33333333333334</ele><time>2026-05-03T16:42:18.784Z</time></trkpt><trkpt lat="53.44477" lon="-1.9374783"><ele>165.66666666666669</ele><time>2026-05-03T16:42:19.785Z</time></trkpt><trkpt lat="53.4447783" lon="-1.9372067"><ele>166.0</ele><time>2026-05-03T16:42:20.784Z</time></trkpt><trkpt lat="53.444785" lon="-1.9369233"><ele>166.33333333333334</ele><time>2026-05-03T16:42:21.785Z</time></trkpt><trkpt lat="53.44479" lon="-1.9366383"><ele>166.66666666666666</ele><time>2026-05-03T16:42:22.786Z</time></trkpt><trkpt lat="53.4447917" lon="-1.93635"><ele>167.0</ele><time>2026-05-03T16:42:23.788Z</time></trkpt><trkpt lat="53.4447967" lon="-1.9360733"><ele>167.25</ele><time>2026-05-03T16:42:24.784Z</time></trkpt><trkpt lat="53.4448" lon="-1.93581"><ele>167.5</ele><time>2026-05-03T16:42:25.784Z</time></trkpt><trkpt lat="53.4448067" lon="-1.9355683"><ele>167.75</ele><time>2026-05-03T16:42:26.783Z</time></trkpt><trkpt lat="53.4448117" lon="-1.935345"><ele>168.0</ele><time>2026-05-03T16:42:27.784Z</time></trkpt><trkpt lat="53.4447183" lon="-1.93297"><ele>169.33333333333334</ele><time>2026-05-03T16:42:38.782Z</time></trkpt><trkpt lat="53.444715" lon="-1.93274"><ele>170.66666666666669</ele><time>2026-05-03T16:42:39.783Z</time></trkpt><trkpt lat="53.4447033" lon="-1.93249"><ele>172.0</ele><time>2026-05-03T16:42:40.783Z</time></trkpt><trkpt lat="53.4446833" lon="-1.93221"><ele>172.33333333333334</ele><time>2026-05-03T16:42:41.784Z</time></trkpt><trkpt lat="53.4446583" lon="-1.9319383"><ele>172.66666666666666</ele><time>2026-05-03T16:42:42.783Z</time></trkpt><trkpt lat="53.4446333" lon="-1.9316817"><ele>173.0</ele><time>2026-05-03T16:42:43.786Z</time></trkpt><trkpt lat="53.4446083" lon="-1.9314333"><ele>173.25</ele><time>2026-05-03T16:42:44.782Z</time></trkpt><trkpt lat="53.4445867" lon="-1.9311917"><ele>173.5</ele><time>2026-05-03T16:42:45.783Z</time></trkpt><trkpt lat="53.4445683" lon="-1.9309533"><ele>173.75</ele><time>2026-05-03T16:42:46.783Z</time></trkpt><trkpt lat="53.4445517" lon="-1.9307267"><ele>174.0</ele><time>2026-05-03T16:42:47.783Z</time></trkpt><trkpt lat="53.4445383" lon="-1.9305067"><ele>174.5</ele><time>2026-05-03T16:42:48.783Z</time></trkpt><trkpt lat="53.444525" lon="-1.930295"><ele>175.0</ele><time>2026-05-03T16:42:49.784Z</time></trkpt><trkpt lat="53.4445133" lon="-1.930085"><ele>175.5</ele><time>2026-05-03T16:42:50.783Z</time></trkpt><trkpt lat="53.4445017" lon="-1.92988"><ele>176.0</ele><time>2026-05-03T16:42:51.784Z</time></trkpt><trkpt lat="53.4444917" lon="-1.929675"><ele>176.5</ele><time>2026-05-03T16:42:52.782Z</time></trkpt><trkpt lat="53.4444817" lon="-1.92948"><ele>177.0</ele><time>2026-05-03T16:42:53.783Z</time></trkpt><trkpt lat="53.4444733" lon="-1.9292833"><ele>177.5</ele><time>2026-05-03T16:42:54.782Z</time></trkpt><trkpt lat="53.44447" lon="-1.9290883"><ele>178.0</ele><time>2026-05-03T16:42:55.784Z</time></trkpt><trkpt lat="53.4444667" lon="-1.928895"><ele>178.75</ele><time>2026-05-03T16:42:56.783Z</time></trkpt><trkpt lat="53.44446" lon="-1.9287017"><ele>179.5</ele><time>2026-05-03T16:42:57.783Z</time></trkpt><trkpt lat="53.444455" lon="-1.9285117"><ele>180.25</ele><time>2026-05-03T16:42:58.783Z</time></trkpt><trkpt lat="53.4444483" lon="-1.9283233"><ele>181.0</ele><time>2026-05-03T16:42:59.784Z</time></trkpt><trkpt lat="53.444445" lon="-1.9281333"><ele>181.25</ele><time>2026-05-03T16:43:00.783Z</time></trkpt><trkpt lat="53.4444417" lon="-1.9279383"><ele>181.5</ele><time>2026-05-03T16:43:01.786Z</time></trkpt><trkpt lat="53.4444383" lon="-1.9277417"><ele>181.75</ele><time>2026-05-03T16:43:02.783Z</time></trkpt><trkpt lat="53.444435" lon="-1.9275383"><ele>182.0</ele><time>2026-05-03T16:43:03.784Z</time></trkpt><trkpt lat="53.4444317" lon="-1.9273317"><ele>182.75</ele><time>2026-05-03T16:43:04.783Z</time></trkpt><trkpt lat="53.4444317" lon="-1.9271233"><ele>183.5</ele><time>2026-05-03T16:43:05.784Z</time></trkpt><trkpt lat="53.4444267" lon="-1.92691"><ele>184.25</ele><time>2026-05-03T16:43:06.784Z</time></trkpt><trkpt lat="53.4444233" lon="-1.9266967"><ele>185.0</ele><time>2026-05-03T16:43:07.785Z</time></trkpt><trkpt lat="53.4444167" lon="-1.9264833"><ele>186.5</ele><time>2026-05-03T16:43:08.783Z</time></trkpt><trkpt lat="53.44441" lon="-1.9262767"><ele>188.0</ele><time>2026-05-03T16:43:09.784Z</time></trkpt><trkpt lat="53.4444017" lon="-1.9260817"><ele>189.5</ele><time>2026-05-03T16:43:10.783Z</time></trkpt><trkpt lat="53.4443933" lon="-1.9258967"><ele>191.0</ele><time>2026-05-03T16:43:11.784Z</time></trkpt><trkpt lat="53.444385" lon="-1.92571"><ele>192.25</ele><time>2026-05-03T16:43:12.783Z</time></trkpt><trkpt lat="53.4443817" lon="-1.9255117"><ele>193.5</ele><time>2026-05-03T16:43:13.784Z</time></trkpt><trkpt lat="53.4443783" lon="-1.925295"><ele>194.75</ele><time>2026-05-03T16:43:14.783Z</time></trkpt><trkpt lat="53.4443717" lon="-1.92507"><ele>196.0</ele><time>2026-05-03T16:43:15.783Z</time></trkpt><trkpt lat="53.4443683" lon="-1.9248217"><ele>196.66666666666666</ele><time>2026-05-03T16:43:16.783Z</time></trkpt><trkpt lat="53.4443567" lon="-1.9245567"><ele>197.33333333333331</ele><time>2026-05-03T16:43:17.783Z</time></trkpt><trkpt lat="53.4443533" lon="-1.9242767"><ele>198.0</ele><time>2026-05-03T16:43:18.782Z</time></trkpt><trkpt lat="53.44435" lon="-1.9239917"><ele>199.66666666666669</ele><time>2026-05-03T16:43:19.784Z</time></trkpt><trkpt lat="53.4443533" lon="-1.9237033"><ele>201.33333333333334</ele><time>2026-05-03T16:43:20.782Z</time></trkpt><trkpt lat="53.444365" lon="-1.9234067"><ele>203.0</ele><time>2026-05-03T16:43:21.784Z</time></trkpt><trkpt lat="53.4443867" lon="-1.923105"><ele>204.33333333333334</ele><time>2026-05-03T16:43:22.782Z</time></trkpt><trkpt lat="53.44442" lon="-1.922805"><ele>205.66666666666669</ele><time>2026-05-03T16:43:23.783Z</time></trkpt><trkpt lat="53.4444633" lon="-1.9225017"><ele>207.0</ele><time>2026-05-03T16:43:24.783Z</time></trkpt><trkpt lat="53.4445267" lon="-1.9222"><ele>207.66666666666669</ele><time>2026-05-03T16:43:25.782Z</time></trkpt><trkpt lat="53.4445933" lon="-1.9219"><ele>208.33333333333334</ele><time>2026-05-03T16:43:26.783Z</time></trkpt><trkpt lat="53.4446583" lon="-1.9216067"><ele>209.0</ele><time>2026-05-03T16:43:27.782Z</time></trkpt><trkpt lat="53.44472" lon="-1.921315"><ele>215.0</ele><time>2026-05-03T16:43:28.783Z</time></trkpt><trkpt lat="53.4447833" lon="-1.9210167"><ele>221.0</ele><time>2026-05-03T16:43:29.784Z</time></trkpt><trkpt lat="53.4448383" lon="-1.920725"><ele>227.0</ele><time>2026-05-03T16:43:30.783Z</time></trkpt><trkpt lat="53.4449033" lon="-1.920435"><ele>227.33333333333334</ele><time>2026-05-03T16:43:31.784Z</time></trkpt><trkpt lat="53.444975" lon="-1.92015"><ele>227.66666666666669</ele><time>2026-05-03T16:43:32.782Z</time></trkpt><trkpt lat="53.4450517" lon="-1.9198583"><ele>228.0</ele><time>2026-05-03T16:43:33.782Z</time></trkpt><trkpt lat="53.445125" lon="-1.919565"><ele>228.0</ele><time>2026-05-03T16:43:34.787Z</time></trkpt><trkpt lat="53.445205" lon="-1.91927"><ele>228.0</ele><time>2026-05-03T16:43:35.782Z</time></trkpt><trkpt lat="53.4452967" lon="-1.91899"><ele>228.0</ele><time>2026-05-03T16:43:36.784Z</time></trkpt><trkpt lat="53.4453817" lon="-1.9187133"><ele>233.0</ele><time>2026-05-03T16:43:37.783Z</time></trkpt><trkpt lat="53.4454717" lon="-1.9184433"><ele>238.0</ele><time>2026-05-03T16:43:38.783Z</time></trkpt><trkpt lat="53.4455567" lon="-1.9181783"><ele>243.0</ele><time>2026-05-03T16:43:39.784Z</time></trkpt><trkpt lat="53.4456317" lon="-1.917915"><ele>243.0</ele><time>2026-05-03T16:43:40.782Z</time></trkpt><trkpt lat="53.44571" lon="-1.917685"><ele>243.0</ele><time>2026-05-03T16:43:41.783Z</time></trkpt><trkpt lat="53.44578" lon="-1.9174733"><ele>243.0</ele><time>2026-05-03T16:43:42.784Z</time></trkpt><trkpt lat="53.4458467" lon="-1.9172783"><ele>243.0</ele><time>2026-05-03T16:43:43.784Z</time></trkpt><trkpt lat="53.4458867" lon="-1.91713"><ele>241.60000000000002</ele><time>2026-05-03T16:43:44.783Z</time></trkpt><trkpt lat="53.44592" lon="-1.916975"><ele>240.20000000000002</ele><time>2026-05-03T16:43:45.782Z</time></trkpt><trkpt lat="53.44593" lon="-1.9168217"><ele>238.8</ele><time>2026-05-03T16:43:46.783Z</time></trkpt><trkpt lat="53.4459167" lon="-1.9166767"><ele>237.4</ele><time>2026-05-03T16:43:47.783Z</time></trkpt><trkpt lat="53.4458733" lon="-1.9165333"><ele>236.0</ele><time>2026-05-03T16:43:48.783Z</time></trkpt><trkpt lat="53.4457833" lon="-1.9163867"><ele>236.0</ele><time>2026-05-03T16:43:49.782Z</time></trkpt><trkpt lat="53.4456967" lon="-1.9162533"><ele>236.0</ele><time>2026-05-03T16:43:50.787Z</time></trkpt><trkpt lat="53.4455083" lon="-1.916185"><ele>236.0</ele><time>2026-05-03T16:43:51.783Z</time></trkpt><trkpt lat="53.4453233" lon="-1.9161"><ele>236.0</ele><time>2026-05-03T16:43:52.782Z</time></trkpt><trkpt lat="53.445145" lon="-1.9160383"><ele>236.0</ele><time>2026-05-03T16:43:53.783Z</time></trkpt><trkpt lat="53.44497" lon="-1.9160133"><ele>236.0</ele><time>2026-05-03T16:43:54.786Z</time></trkpt><trkpt lat="53.4447817" lon="-1.9160167"><ele>237.33333333333334</ele><time>2026-05-03T16:43:55.782Z</time></trkpt><trkpt lat="53.4445967" lon="-1.916025"><ele>238.66666666666669</ele><time>2026-05-03T16:43:56.787Z</time></trkpt><trkpt lat="53.4444033" lon="-1.9160667"><ele>240.0</ele><time>2026-05-03T16:43:57.787Z</time></trkpt><trkpt lat="53.4442117" lon="-1.9161433"><ele>240.0</ele><time>2026-05-03T16:43:58.782Z</time></trkpt><trkpt lat="53.44402" lon="-1.9162483"><ele>240.0</ele><time>2026-05-03T16:43:59.783Z</time></trkpt><trkpt lat="53.4438317" lon="-1.91637"><ele>240.0</ele><time>2026-05-03T16:44:00.785Z</time></trkpt><trkpt lat="53.4436417" lon="-1.9164867"><ele>240.0</ele><time>2026-05-03T16:44:01.783Z</time></trkpt><trkpt lat="53.4434567" lon="-1.9166033"><ele>240.0</ele><time>2026-05-03T16:44:02.787Z</time></trkpt><trkpt lat="53.44327" lon="-1.9167183"><ele>240.0</ele><time>2026-05-03T16:44:03.787Z</time></trkpt><trkpt lat="53.4430783" lon="-1.9168233"><ele>242.66666666666669</ele><time>2026-05-03T16:44:04.786Z</time></trkpt><trkpt lat="53.4428917" lon="-1.9169133"><ele>245.33333333333334</ele><time>2026-05-03T16:44:05.783Z</time></trkpt><trkpt lat="53.4427233" lon="-1.916985"><ele>248.0</ele><time>2026-05-03T16:44:06.786Z</time></trkpt><trkpt lat="53.4425717" lon="-1.9170117"><ele>248.0</ele><time>2026-05-03T16:44:07.787Z</time></trkpt><trkpt lat="53.4424233" lon="-1.9169883"><ele>248.0</ele><time>2026-05-03T16:44:08.786Z</time></trkpt><trkpt lat="53.4422767" lon="-1.9169083"><ele>248.0</ele><time>2026-05-03T16:44:09.786Z</time></trkpt><trkpt lat="53.4421483" lon="-1.91679"><ele>246.5</ele><time>2026-05-03T16:44:10.787Z</time></trkpt><trkpt lat="53.44205" lon="-1.9166467"><ele>245.0</ele><time>2026-05-03T16:44:11.783Z</time></trkpt><trkpt lat="53.4419833" lon="-1.91648"><ele>243.5</ele><time>2026-05-03T16:44:12.786Z</time></trkpt><trkpt lat="53.4419433" lon="-1.916275"><ele>242.0</ele><time>2026-05-03T16:44:13.782Z</time></trkpt><trkpt lat="53.4419383" lon="-1.9160317"><ele>244.33333333333334</ele><time>2026-05-03T16:44:14.783Z</time></trkpt><trkpt lat="53.441955" lon="-1.9157467"><ele>246.66666666666669</ele><time>2026-05-03T16:44:15.788Z</time></trkpt><trkpt lat="53.4419583" lon="-1.9154517"><ele>249.0</ele><time>2026-05-03T16:44:16.785Z</time></trkpt><trkpt lat="53.4419433" lon="-1.9151417"><ele>251.0</ele><time>2026-05-03T16:44:17.783Z</time></trkpt><trkpt lat="53.4419133" lon="-1.914825"><ele>253.0</ele><time>2026-05-03T16:44:18.787Z</time></trkpt><trkpt lat="53.44186" lon="-1.9145017"><ele>255.0</ele><time>2026-05-03T16:44:19.783Z</time></trkpt><trkpt lat="53.441795" lon="-1.9141767"><ele>258.3333333333333</ele><time>2026-05-03T16:44:20.784Z</time></trkpt><trkpt lat="53.4417217" lon="-1.9138517"><ele>261.66666666666663</ele><time>2026-05-03T16:44:21.786Z</time></trkpt><trkpt lat="53.44165" lon="-1.9135283"><ele>265.0</ele><time>2026-05-03T16:44:22.785Z</time></trkpt><trkpt lat="53.4415933" lon="-1.9132217"><ele>268.3333333333333</ele><time>2026-05-03T16:44:23.787Z</time></trkpt><trkpt lat="53.441545" lon="-1.912925"><ele>271.6666666666667</ele><time>2026-05-03T16:44:24.785Z</time></trkpt><trkpt lat="53.4415067" lon="-1.9126367"><ele>275.0</ele><time>2026-05-03T16:44:25.783Z</time></trkpt><trkpt lat="53.4414967" lon="-1.9123617"><ele>278.0</ele><time>2026-05-03T16:44:26.783Z</time></trkpt><trkpt lat="53.4415183" lon="-1.9121"><ele>281.0</ele><time>2026-05-03T16:44:27.785Z</time></trkpt><trkpt lat="53.441575" lon="-1.9118483"><ele>284.0</ele><time>2026-05-03T16:44:28.784Z</time></trkpt><trkpt lat="53.4416433" lon="-1.9115983"><ele>284.6666666666667</ele><time>2026-05-03T16:44:29.787Z</time></trkpt><trkpt lat="53.441705" lon="-1.911335"><ele>285.3333333333333</ele><time>2026-05-03T16:44:30.786Z</time></trkpt><trkpt lat="53.44176" lon="-1.9110667"><ele>286.0</ele><time>2026-05-03T16:44:31.789Z</time></trkpt><trkpt lat="53.4418083" lon="-1.9108033"><ele>286.0</ele><time>2026-05-03T16:44:32.787Z</time></trkpt><trkpt lat="53.4418467" lon="-1.91054"><ele>286.0</ele><time>2026-05-03T16:44:33.787Z</time></trkpt><trkpt lat="53.441875" lon="-1.9102783"><ele>286.0</ele><time>2026-05-03T16:44:34.787Z</time></trkpt><trkpt lat="53.441895" lon="-1.9100117"><ele>287.0</ele><time>2026-05-03T16:44:35.787Z</time></trkpt><trkpt lat="53.4419" lon="-1.9097367"><ele>288.0</ele><time>2026-05-03T16:44:36.786Z</time></trkpt><trkpt lat="53.441885" lon="-1.9094517"><ele>289.0</ele><time>2026-05-03T16:44:37.787Z</time></trkpt><trkpt lat="53.4418467" lon="-1.9091617"><ele>290.66666666666663</ele><time>2026-05-03T16:44:38.786Z</time></trkpt><trkpt lat="53.44178" lon="-1.908875"><ele>292.3333333333333</ele><time>2026-05-03T16:44:39.785Z</time></trkpt><trkpt lat="53.4416983" lon="-1.9085933"><ele>294.0</ele><time>2026-05-03T16:44:40.782Z</time></trkpt><trkpt lat="53.4416117" lon="-1.908325"><ele>296.0</ele><time>2026-05-03T16:44:41.784Z</time></trkpt><trkpt lat="53.4415183" lon="-1.9080717"><ele>298.0</ele><time>2026-05-03T16:44:42.782Z</time></trkpt><trkpt lat="53.441415" lon="-1.9078183"><ele>300.0</ele><time>2026-05-03T16:44:43.783Z</time></trkpt><trkpt lat="53.4413067" lon="-1.9075733"><ele>301.3333333333333</ele><time>2026-05-03T16:44:44.782Z</time></trkpt><trkpt lat="53.4411867" lon="-1.9073333"><ele>302.66666666666663</ele><time>2026-05-03T16:44:45.783Z</time></trkpt><trkpt lat="53.4410683" lon="-1.907085"><ele>304.0</ele><time>2026-05-03T16:44:46.787Z</time></trkpt><trkpt lat="53.4409483" lon="-1.9068433"><ele>306.66666666666663</ele><time>2026-05-03T16:44:47.782Z</time></trkpt><trkpt lat="53.4408283" lon="-1.9066067"><ele>309.3333333333333</ele><time>2026-05-03T16:44:48.787Z</time></trkpt><trkpt lat="53.4407067" lon="-1.90638"><ele>312.0</ele><time>2026-05-03T16:44:49.787Z</time></trkpt><trkpt lat="53.440575" lon="-1.906165"><ele>313.0</ele><time>2026-05-03T16:44:50.786Z</time></trkpt><trkpt lat="53.4404367" lon="-1.9059617"><ele>314.0</ele><time>2026-05-03T16:44:51.792Z</time></trkpt><trkpt lat="53.440285" lon="-1.9057683"><ele>315.0</ele><time>2026-05-03T16:44:52.783Z</time></trkpt><trkpt lat="53.4401267" lon="-1.90559"><ele>315.0</ele><time>2026-05-03T16:44:53.784Z</time></trkpt><trkpt lat="53.4399633" lon="-1.9054167"><ele>315.0</ele><time>2026-05-03T16:44:54.787Z</time></trkpt><trkpt lat="53.4398" lon="-1.90524"><ele>315.0</ele><time>2026-05-03T16:44:55.783Z</time></trkpt><trkpt lat="53.43964" lon="-1.90507"><ele>316.3333333333333</ele><time>2026-05-03T16:44:56.787Z</time></trkpt><trkpt lat="53.4394817" lon="-1.9049"><ele>317.66666666666663</ele><time>2026-05-03T16:44:57.783Z</time></trkpt><trkpt lat="53.4393217" lon="-1.9047267"><ele>319.0</ele><time>2026-05-03T16:44:58.786Z</time></trkpt><trkpt lat="53.4391633" lon="-1.904545"><ele>319.0</ele><time>2026-05-03T16:44:59.783Z</time></trkpt><trkpt lat="53.439015" lon="-1.904345"><ele>319.0</ele><time>2026-05-03T16:45:00.783Z</time></trkpt><trkpt lat="53.438885" lon="-1.9041283"><ele>319.0</ele><time>2026-05-03T16:45:01.787Z</time></trkpt><trkpt lat="53.4387633" lon="-1.903895"><ele>318.66666666666663</ele><time>2026-05-03T16:45:02.783Z</time></trkpt><trkpt lat="53.4386517" lon="-1.9036417"><ele>318.3333333333333</ele><time>2026-05-03T16:45:03.783Z</time></trkpt><trkpt lat="53.4385533" lon="-1.9033667"><ele>318.0</ele><time>2026-05-03T16:45:04.787Z</time></trkpt><trkpt lat="53.4384633" lon="-1.9030883"><ele>323.0</ele><time>2026-05-03T16:45:05.784Z</time></trkpt><trkpt lat="53.4383717" lon="-1.90281"><ele>328.0</ele><time>2026-05-03T16:45:06.782Z</time></trkpt><trkpt lat="53.43828" lon="-1.9025317"><ele>333.0</ele><time>2026-05-03T16:45:07.783Z</time></trkpt><trkpt lat="53.4381917" lon="-1.902265"><ele>336.0</ele><time>2026-05-03T16:45:08.787Z</time></trkpt><trkpt lat="53.4381067" lon="-1.902015"><ele>339.0</ele><time>2026-05-03T16:45:09.783Z</time></trkpt><trkpt lat="53.4380333" lon="-1.9017617"><ele>342.0</ele><time>2026-05-03T16:45:10.783Z</time></trkpt><trkpt lat="53.4379817" lon="-1.9015"><ele>341.3333333333333</ele><time>2026-05-03T16:45:11.783Z</time></trkpt><trkpt lat="53.4379533" lon="-1.90122"><ele>340.66666666666663</ele><time>2026-05-03T16:45:12.782Z</time></trkpt><trkpt lat="53.4379367" lon="-1.9009283"><ele>340.0</ele><time>2026-05-03T16:45:13.787Z</time></trkpt><trkpt lat="53.4379167" lon="-1.9006217"><ele>340.0</ele><time>2026-05-03T16:45:14.782Z</time></trkpt><trkpt lat="53.43788" lon="-1.9003183"><ele>340.0</ele><time>2026-05-03T16:45:15.787Z</time></trkpt><trkpt lat="53.4378217" lon="-1.9000217"><ele>340.0</ele><time>2026-05-03T16:45:16.787Z</time></trkpt><trkpt lat="53.4377533" lon="-1.8997333"><ele>342.66666666666663</ele><time>2026-05-03T16:45:17.787Z</time></trkpt><trkpt lat="53.43768" lon="-1.8994517"><ele>345.3333333333333</ele><time>2026-05-03T16:45:18.783Z</time></trkpt><trkpt lat="53.4376033" lon="-1.89918"><ele>348.0</ele><time>2026-05-03T16:45:19.782Z</time></trkpt><trkpt lat="53.4375217" lon="-1.89891"><ele>350.6666666666667</ele><time>2026-05-03T16:45:20.783Z</time></trkpt><trkpt lat="53.43744" lon="-1.898645"><ele>353.33333333333337</ele><time>2026-05-03T16:45:21.783Z</time></trkpt><trkpt lat="53.4373533" lon="-1.8983767"><ele>356.0</ele><time>2026-05-03T16:45:22.786Z</time></trkpt><trkpt lat="53.4372667" lon="-1.8981067"><ele>357.0</ele><time>2026-05-03T16:45:23.783Z</time></trkpt><trkpt lat="53.43718" lon="-1.897835"><ele>358.0</ele><time>2026-05-03T16:45:24.787Z</time></trkpt><trkpt lat="53.437095" lon="-1.8975617"><ele>359.0</ele><time>2026-05-03T16:45:25.784Z</time></trkpt><trkpt lat="53.4370067" lon="-1.8972917"><ele>359.0</ele><time>2026-05-03T16:45:26.782Z</time></trkpt><trkpt lat="53.436905" lon="-1.8970283"><ele>359.0</ele><time>2026-05-03T16:45:27.783Z</time></trkpt><trkpt lat="53.4367967" lon="-1.89677"><ele>359.0</ele><time>2026-05-03T16:45:28.787Z</time></trkpt><trkpt lat="53.436685" lon="-1.896525"><ele>362.33333333333337</ele><time>2026-05-03T16:45:29.781Z</time></trkpt><trkpt lat="53.4365733" lon="-1.8962917"><ele>365.6666666666667</ele><time>2026-05-03T16:45:30.784Z</time></trkpt><trkpt lat="53.436455" lon="-1.8960633"><ele>369.0</ele><time>2026-05-03T16:45:31.784Z</time></trkpt><trkpt lat="53.4363283" lon="-1.8958417"><ele>370.6666666666667</ele><time>2026-05-03T16:45:32.783Z</time></trkpt><trkpt lat="53.4361883" lon="-1.89565"><ele>372.33333333333337</ele><time>2026-05-03T16:45:33.787Z</time></trkpt><trkpt lat="53.4360367" lon="-1.8954883"><ele>374.0</ele><time>2026-05-03T16:45:34.788Z</time></trkpt><trkpt lat="53.4358833" lon="-1.895355"><ele>374.0</ele><time>2026-05-03T16:45:35.783Z</time></trkpt><trkpt lat="53.4357317" lon="-1.8952583"><ele>374.0</ele><time>2026-05-03T16:45:36.787Z</time></trkpt><trkpt lat="53.4355717" lon="-1.8952067"><ele>374.0</ele><time>2026-05-03T16:45:37.786Z</time></trkpt><trkpt lat="53.4354017" lon="-1.8952117"><ele>376.6666666666667</ele><time>2026-05-03T16:45:38.786Z</time></trkpt><trkpt lat="53.4352317" lon="-1.895265"><ele>379.3333333333333</ele><time>2026-05-03T16:45:39.786Z</time></trkpt><trkpt lat="53.43506" lon="-1.895355"><ele>382.0</ele><time>2026-05-03T16:45:40.784Z</time></trkpt><trkpt lat="53.434885" lon="-1.8954583"><ele>382.0</ele><time>2026-05-03T16:45:41.783Z</time></trkpt><trkpt lat="53.4347067" lon="-1.8955683"><ele>382.0</ele><time>2026-05-03T16:45:42.782Z</time></trkpt><trkpt lat="53.4345283" lon="-1.8956733"><ele>382.0</ele><time>2026-05-03T16:45:43.783Z</time></trkpt><trkpt lat="53.4343483" lon="-1.8957633"><ele>384.66666666666663</ele><time>2026-05-03T16:45:44.783Z</time></trkpt><trkpt lat="53.4341667" lon="-1.89583"><ele>387.3333333333333</ele><time>2026-05-03T16:45:45.784Z</time></trkpt><trkpt lat="53.4339867" lon="-1.8958717"><ele>390.0</ele><time>2026-05-03T16:45:46.785Z</time></trkpt><trkpt lat="53.433815" lon="-1.8958783"><ele>392.33333333333337</ele><time>2026-05-03T16:45:47.786Z</time></trkpt><trkpt lat="53.4336483" lon="-1.89584"><ele>394.6666666666667</ele><time>2026-05-03T16:45:48.786Z</time></trkpt><trkpt lat="53.4334817" lon="-1.89575"><ele>397.0</ele><time>2026-05-03T16:45:49.785Z</time></trkpt><trkpt lat="53.433315" lon="-1.8956133"><ele>397.0</ele><time>2026-05-03T16:45:50.784Z</time></trkpt><trkpt lat="53.4331533" lon="-1.895455"><ele>397.0</ele><time>2026-05-03T16:45:51.782Z</time></trkpt><trkpt lat="53.4329967" lon="-1.8952767"><ele>397.0</ele><time>2026-05-03T16:45:52.787Z</time></trkpt><trkpt lat="53.43284" lon="-1.8950967"><ele>398.6666666666667</ele><time>2026-05-03T16:45:53.783Z</time></trkpt><trkpt lat="53.4326833" lon="-1.8949183"><ele>400.33333333333337</ele><time>2026-05-03T16:45:54.782Z</time></trkpt><trkpt lat="53.4325283" lon="-1.8947433"><ele>402.0</ele><time>2026-05-03T16:45:55.784Z</time></trkpt><trkpt lat="53.43237" lon="-1.8945733"><ele>402.0</ele><time>2026-05-03T16:45:56.783Z</time></trkpt><trkpt lat="53.432205" lon="-1.8944083"><ele>402.0</ele><time>2026-05-03T16:45:57.782Z</time></trkpt><trkpt lat="53.4320317" lon="-1.8942567"><ele>402.0</ele><time>2026-05-03T16:45:58.783Z</time></trkpt><trkpt lat="53.4318567" lon="-1.89411"><ele>403.33333333333337</ele><time>2026-05-03T16:45:59.787Z</time></trkpt><trkpt lat="53.4316833" lon="-1.8939633"><ele>404.6666666666667</ele><time>2026-05-03T16:46:00.783Z</time></trkpt><trkpt lat="53.4315167" lon="-1.89382"><ele>406.0</ele><time>2026-05-03T16:46:01.783Z</time></trkpt><trkpt lat="53.4313583" lon="-1.8936667"><ele>405.0</ele><time>2026-05-03T16:46:02.783Z</time></trkpt><trkpt lat="53.4312183" lon="-1.8934767"><ele>404.0</ele><time>2026-05-03T16:46:03.782Z</time></trkpt><trkpt lat="53.43109" lon="-1.893255"><ele>403.0</ele><time>2026-05-03T16:46:04.784Z</time></trkpt><trkpt lat="53.4309717" lon="-1.8930083"><ele>403.0</ele><time>2026-05-03T16:46:05.783Z</time></trkpt><trkpt lat="53.4308517" lon="-1.892735"><ele>403.0</ele><time>2026-05-03T16:46:06.786Z</time></trkpt><trkpt lat="53.430735" lon="-1.8924533"><ele>403.0</ele><time>2026-05-03T16:46:07.787Z</time></trkpt><trkpt lat="53.4306283" lon="-1.8921683"><ele>404.6666666666667</ele><time>2026-05-03T16:46:08.783Z</time></trkpt><trkpt lat="53.4305333" lon="-1.8918767"><ele>406.33333333333337</ele><time>2026-05-03T16:46:09.782Z</time></trkpt><trkpt lat="53.4304467" lon="-1.8915767"><ele>408.0</ele><time>2026-05-03T16:46:10.786Z</time></trkpt><trkpt lat="53.4303667" lon="-1.8912767"><ele>408.0</ele><time>2026-05-03T16:46:11.783Z</time></trkpt><trkpt lat="53.4302883" lon="-1.8909717"><ele>408.0</ele><time>2026-05-03T16:46:12.782Z</time></trkpt><trkpt lat="53.430205" lon="-1.8906667"><ele>408.0</ele><time>2026-05-03T16:46:13.787Z</time></trkpt><trkpt lat="53.4301183" lon="-1.8903617"><ele>417.33333333333337</ele><time>2026-05-03T16:46:14.782Z</time></trkpt><trkpt lat="53.4300283" lon="-1.8900567"><ele>426.6666666666667</ele><time>2026-05-03T16:46:15.782Z</time></trkpt><trkpt lat="53.429935" lon="-1.8897567"><ele>436.0</ele><time>2026-05-03T16:46:16.784Z</time></trkpt><trkpt lat="53.42984" lon="-1.88946"><ele>432.33333333333337</ele><time>2026-05-03T16:46:17.783Z</time></trkpt><trkpt lat="53.429745" lon="-1.8891717"><ele>428.66666666666663</ele><time>2026-05-03T16:46:18.783Z</time></trkpt><trkpt lat="53.429635" lon="-1.888905"><ele>425.0</ele><time>2026-05-03T16:46:19.783Z</time></trkpt><trkpt lat="53.4295133" lon="-1.8886583"><ele>425.0</ele><time>2026-05-03T16:46:20.783Z</time></trkpt><trkpt lat="53.429385" lon="-1.8884333"><ele>425.0</ele><time>2026-05-03T16:46:21.783Z</time></trkpt><trkpt lat="53.4292583" lon="-1.8882117"><ele>425.0</ele><time>2026-05-03T16:46:22.783Z</time></trkpt><trkpt lat="53.4291383" lon="-1.8879867"><ele>429.66666666666663</ele><time>2026-05-03T16:46:23.783Z</time></trkpt><trkpt lat="53.4290333" lon="-1.8877433"><ele>434.33333333333337</ele><time>2026-05-03T16:46:24.783Z</time></trkpt><trkpt lat="53.4289417" lon="-1.88749"><ele>439.0</ele><time>2026-05-03T16:46:25.782Z</time></trkpt><trkpt lat="53.4288667" lon="-1.8872183"><ele>442.33333333333337</ele><time>2026-05-03T16:46:26.783Z</time></trkpt><trkpt lat="53.42881" lon="-1.8869267"><ele>445.66666666666663</ele><time>2026-05-03T16:46:27.782Z</time></trkpt><trkpt lat="53.4287767" lon="-1.8866233"><ele>449.0</ele><time>2026-05-03T16:46:28.783Z</time></trkpt><trkpt lat="53.42876" lon="-1.88631"><ele>449.0</ele><time>2026-05-03T16:46:29.784Z</time></trkpt><trkpt lat="53.4287667" lon="-1.8859867"><ele>449.0</ele><time>2026-05-03T16:46:30.788Z</time></trkpt><trkpt lat="53.4287933" lon="-1.8856667"><ele>449.0</ele><time>2026-05-03T16:46:31.782Z</time></trkpt><trkpt lat="53.4288217" lon="-1.8853567"><ele>456.3333333333333</ele><time>2026-05-03T16:46:32.786Z</time></trkpt><trkpt lat="53.4288383" lon="-1.8850433"><ele>463.66666666666663</ele><time>2026-05-03T16:46:33.786Z</time></trkpt><trkpt lat="53.42884" lon="-1.8847283"><ele>471.0</ele><time>2026-05-03T16:46:34.783Z</time></trkpt><trkpt lat="53.4288333" lon="-1.8844083"><ele>472.33333333333337</ele><time>2026-05-03T16:46:35.785Z</time></trkpt><trkpt lat="53.4288317" lon="-1.884095"><ele>473.6666666666667</ele><time>2026-05-03T16:46:36.787Z</time></trkpt><trkpt lat="53.4288433" lon="-1.8837817"><ele>475.0</ele><time>2026-05-03T16:46:37.784Z</time></trkpt><trkpt lat="53.428875" lon="-1.88347"><ele>476.0</ele><time>2026-05-03T16:46:38.787Z</time></trkpt><trkpt lat="53.4289217" lon="-1.8831617"><ele>477.0</ele><time>2026-05-03T16:46:39.783Z</time></trkpt><trkpt lat="53.42898" lon="-1.88286"><ele>478.0</ele><time>2026-05-03T16:46:40.786Z</time></trkpt><trkpt lat="53.4290517" lon="-1.8825633"><ele>478.33333333333337</ele><time>2026-05-03T16:46:41.786Z</time></trkpt><trkpt lat="53.4291383" lon="-1.8822683"><ele>478.66666666666663</ele><time>2026-05-03T16:46:42.783Z</time></trkpt><trkpt lat="53.4292283" lon="-1.8819733"><ele>479.0</ele><time>2026-05-03T16:46:43.786Z</time></trkpt><trkpt lat="53.4293183" lon="-1.8816767"><ele>479.3333333333333</ele><time>2026-05-03T16:46:44.782Z</time></trkpt><trkpt lat="53.42941" lon="-1.8813733"><ele>479.66666666666663</ele><time>2026-05-03T16:46:45.783Z</time></trkpt><trkpt lat="53.4294967" lon="-1.8810633"><ele>480.0</ele><time>2026-05-03T16:46:46.783Z</time></trkpt><trkpt lat="53.4295833" lon="-1.8807533"><ele>483.33333333333337</ele><time>2026-05-03T16:46:47.782Z</time></trkpt><trkpt lat="53.4296683" lon="-1.880445"><ele>486.6666666666667</ele><time>2026-05-03T16:46:48.785Z</time></trkpt><trkpt lat="53.4297517" lon="-1.88014"><ele>490.0</ele><time>2026-05-03T16:46:49.783Z</time></trkpt><trkpt lat="53.4298317" lon="-1.8798283"><ele>490.0</ele><time>2026-05-03T16:46:50.786Z</time></trkpt><trkpt lat="53.4299083" lon="-1.879515"><ele>490.0</ele><time>2026-05-03T16:46:51.785Z</time></trkpt><trkpt lat="53.42999" lon="-1.8792017"><ele>490.0</ele><time>2026-05-03T16:46:52.785Z</time></trkpt><trkpt lat="53.4300817" lon="-1.878895"><ele>489.6666666666667</ele><time>2026-05-03T16:46:53.785Z</time></trkpt><trkpt lat="53.4301867" lon="-1.8785967"><ele>489.33333333333337</ele><time>2026-05-03T16:46:54.781Z</time></trkpt><trkpt lat="53.4303017" lon="-1.8783133"><ele>489.0</ele><time>2026-05-03T16:46:55.783Z</time></trkpt><trkpt lat="53.430425" lon="-1.8780317"><ele>490.66666666666663</ele><time>2026-05-03T16:46:56.785Z</time></trkpt><trkpt lat="53.4305533" lon="-1.8777567"><ele>492.3333333333333</ele><time>2026-05-03T16:46:57.786Z</time></trkpt><trkpt lat="53.4306883" lon="-1.8774967"><ele>494.0</ele><time>2026-05-03T16:46:58.785Z</time></trkpt><trkpt lat="53.43083" lon="-1.8772333"><ele>494.0</ele><time>2026-05-03T16:46:59.783Z</time></trkpt><trkpt lat="53.43098" lon="-1.8769917"><ele>494.0</ele><time>2026-05-03T16:47:00.786Z</time></trkpt><trkpt lat="53.4311283" lon="-1.8767567"><ele>494.0</ele><time>2026-05-03T16:47:01.784Z</time></trkpt><trkpt lat="53.4312717" lon="-1.8765333"><ele>495.3333333333333</ele><time>2026-05-03T16:47:02.786Z</time></trkpt><trkpt lat="53.4314083" lon="-1.8763117"><ele>496.66666666666663</ele><time>2026-05-03T16:47:03.786Z</time></trkpt><trkpt lat="53.4315433" lon="-1.8761"><ele>498.0</ele><time>2026-05-03T16:47:04.783Z</time></trkpt><trkpt lat="53.4316767" lon="-1.87588"><ele>498.33333333333337</ele><time>2026-05-03T16:47:05.782Z</time></trkpt><trkpt lat="53.4318117" lon="-1.8756583"><ele>498.6666666666667</ele><time>2026-05-03T16:47:06.787Z</time></trkpt><trkpt lat="53.431945" lon="-1.8754433"><ele>499.0</ele><time>2026-05-03T16:47:07.782Z</time></trkpt><trkpt lat="53.43208" lon="-1.8752317"><ele>499.6666666666667</ele><time>2026-05-03T16:47:08.782Z</time></trkpt><trkpt lat="53.4322133" lon="-1.875025"><ele>500.33333333333337</ele><time>2026-05-03T16:47:09.786Z</time></trkpt><trkpt lat="53.432345" lon="-1.8748167"><ele>501.0</ele><time>2026-05-03T16:47:10.784Z</time></trkpt><trkpt lat="53.4324717" lon="-1.8746067"><ele>501.0</ele><time>2026-05-03T16:47:11.783Z</time></trkpt><trkpt lat="53.43259" lon="-1.8743883"><ele>501.0</ele><time>2026-05-03T16:47:12.787Z</time></trkpt><trkpt lat="53.4326983" lon="-1.87415"><ele>501.0</ele><time>2026-05-03T16:47:13.789Z</time></trkpt><trkpt lat="53.43279" lon="-1.8738967"><ele>501.66666666666663</ele><time>2026-05-03T16:47:14.785Z</time></trkpt><trkpt lat="53.4328617" lon="-1.8736267"><ele>502.3333333333333</ele><time>2026-05-03T16:47:15.787Z</time></trkpt><trkpt lat="53.4329167" lon="-1.8733533"><ele>503.0</ele><time>2026-05-03T16:47:16.786Z</time></trkpt><trkpt lat="53.43295" lon="-1.8730617"><ele>503.0</ele><time>2026-05-03T16:47:17.786Z</time></trkpt><trkpt lat="53.4329633" lon="-1.87276"><ele>503.0</ele><time>2026-05-03T16:47:18.786Z</time></trkpt><trkpt lat="53.432965" lon="-1.872465"><ele>503.0</ele><time>2026-05-03T16:47:19.788Z</time></trkpt><trkpt lat="53.4329617" lon="-1.8721767"><ele>503.66666666666663</ele><time>2026-05-03T16:47:20.785Z</time></trkpt><trkpt lat="53.4329583" lon="-1.8718883"><ele>504.33333333333337</ele><time>2026-05-03T16:47:21.786Z</time></trkpt><trkpt lat="53.4329567" lon="-1.8716"><ele>505.0</ele><time>2026-05-03T16:47:22.786Z</time></trkpt><trkpt lat="53.4329533" lon="-1.8713133"><ele>505.33333333333337</ele><time>2026-05-03T16:47:23.786Z</time></trkpt><trkpt lat="53.4329483" lon="-1.8710217"><ele>505.66666666666663</ele><time>2026-05-03T16:47:24.786Z</time></trkpt><trkpt lat="53.4329467" lon="-1.8707333"><ele>506.0</ele><time>2026-05-03T16:47:25.786Z</time></trkpt><trkpt lat="53.4329433" lon="-1.8704383"><ele>507.0</ele><time>2026-05-03T16:47:26.786Z</time></trkpt><trkpt lat="53.43294" lon="-1.8701417"><ele>508.0</ele><time>2026-05-03T16:47:27.786Z</time></trkpt><trkpt lat="53.4329367" lon="-1.8698467"><ele>509.0</ele><time>2026-05-03T16:47:28.786Z</time></trkpt><trkpt lat="53.4329333" lon="-1.8695533"><ele>509.66666666666663</ele><time>2026-05-03T16:47:29.783Z</time></trkpt><trkpt lat="53.4329283" lon="-1.8692617"><ele>510.33333333333337</ele><time>2026-05-03T16:47:30.786Z</time></trkpt><trkpt lat="53.432925" lon="-1.8689683"><ele>511.0</ele><time>2026-05-03T16:47:31.786Z</time></trkpt><trkpt lat="53.432925" lon="-1.8686667"><ele>511.0</ele><time>2026-05-03T16:47:32.786Z</time></trkpt><trkpt lat="53.432925" lon="-1.86836"><ele>511.0</ele><time>2026-05-03T16:47:33.787Z</time></trkpt><trkpt lat="53.4329233" lon="-1.868055"><ele>511.0</ele><time>2026-05-03T16:47:34.786Z</time></trkpt><trkpt lat="53.4329233" lon="-1.867755"><ele>511.0</ele><time>2026-05-03T16:47:35.785Z</time></trkpt><trkpt lat="53.4329217" lon="-1.867455"><ele>511.0</ele><time>2026-05-03T16:47:36.785Z</time></trkpt><trkpt lat="53.4329233" lon="-1.8671433"><ele>511.0</ele><time>2026-05-03T16:47:37.783Z</time></trkpt><trkpt lat="53.4329267" lon="-1.866825"><ele>510.0</ele><time>2026-05-03T16:47:38.782Z</time></trkpt><trkpt lat="53.4329267" lon="-1.8665017"><ele>509.0</ele><time>2026-05-03T16:47:39.785Z</time></trkpt><trkpt lat="53.4329267" lon="-1.86618"><ele>508.0</ele><time>2026-05-03T16:47:40.786Z</time></trkpt><trkpt lat="53.4329233" lon="-1.865855"><ele>507.0</ele><time>2026-05-03T16:47:41.785Z</time></trkpt><trkpt lat="53.4329183" lon="-1.8655233"><ele>506.0</ele><time>2026-05-03T16:47:42.786Z</time></trkpt><trkpt lat="53.43292" lon="-1.8651967"><ele>505.0</ele><time>2026-05-03T16:47:43.783Z</time></trkpt><trkpt lat="53.43292" lon="-1.8648617"><ele>503.6666666666667</ele><time>2026-05-03T16:47:44.786Z</time></trkpt><trkpt lat="53.43292" lon="-1.8645333"><ele>502.33333333333337</ele><time>2026-05-03T16:47:45.786Z</time></trkpt><trkpt lat="53.4329183" lon="-1.8642067"><ele>501.0</ele><time>2026-05-03T16:47:46.786Z</time></trkpt><trkpt lat="53.4329167" lon="-1.8638783"><ele>499.33333333333337</ele><time>2026-05-03T16:47:47.786Z</time></trkpt><trkpt lat="53.4329167" lon="-1.8635517"><ele>497.6666666666667</ele><time>2026-05-03T16:47:48.782Z</time></trkpt><trkpt lat="53.4329133" lon="-1.863225"><ele>496.0</ele><time>2026-05-03T16:47:49.785Z</time></trkpt><trkpt lat="53.4329117" lon="-1.862905"><ele>493.6666666666667</ele><time>2026-05-03T16:47:50.785Z</time></trkpt><trkpt lat="53.43291" lon="-1.86258"><ele>491.33333333333337</ele><time>2026-05-03T16:47:51.786Z</time></trkpt><trkpt lat="53.4329033" lon="-1.862255"><ele>489.0</ele><time>2026-05-03T16:47:52.785Z</time></trkpt><trkpt lat="53.43289" lon="-1.861925"><ele>488.0</ele><time>2026-05-03T16:47:53.786Z</time></trkpt><trkpt lat="53.4328717" lon="-1.8616067"><ele>487.0</ele><time>2026-05-03T16:47:54.785Z</time></trkpt><trkpt lat="53.432845" lon="-1.8613"><ele>486.0</ele><time>2026-05-03T16:47:55.786Z</time></trkpt><trkpt lat="53.4328183" lon="-1.861"><ele>485.33333333333337</ele><time>2026-05-03T16:47:56.786Z</time></trkpt><trkpt lat="53.4327867" lon="-1.8607017"><ele>484.6666666666667</ele><time>2026-05-03T16:47:57.786Z</time></trkpt><trkpt lat="53.4327567" lon="-1.8604017"><ele>484.0</ele><time>2026-05-03T16:47:58.785Z</time></trkpt><trkpt lat="53.4327317" lon="-1.8600967"><ele>482.33333333333337</ele><time>2026-05-03T16:47:59.783Z</time></trkpt><trkpt lat="53.43271" lon="-1.8597883"><ele>480.66666666666663</ele><time>2026-05-03T16:48:00.786Z</time></trkpt><trkpt lat="53.4326933" lon="-1.8594867"><ele>479.0</ele><time>2026-05-03T16:48:01.782Z</time></trkpt><trkpt lat="53.4326833" lon="-1.85919"><ele>477.0</ele><time>2026-05-03T16:48:02.786Z</time></trkpt><trkpt lat="53.4326783" lon="-1.8589033"><ele>475.0</ele><time>2026-05-03T16:48:03.789Z</time></trkpt><trkpt lat="53.43268" lon="-1.8586217"><ele>473.0</ele><time>2026-05-03T16:48:04.782Z</time></trkpt><trkpt lat="53.432685" lon="-1.8583467"><ele>471.75</ele><time>2026-05-03T16:48:05.785Z</time></trkpt><trkpt lat="53.4326983" lon="-1.85809"><ele>470.5</ele><time>2026-05-03T16:48:06.786Z</time></trkpt><trkpt lat="53.4327133" lon="-1.85785"><ele>469.25</ele><time>2026-05-03T16:48:07.782Z</time></trkpt><trkpt lat="53.4327267" lon="-1.8576233"><ele>468.0</ele><time>2026-05-03T16:48:08.787Z</time></trkpt><trkpt lat="53.43273" lon="-1.85742"><ele>466.6666666666667</ele><time>2026-05-03T16:48:09.782Z</time></trkpt><trkpt lat="53.432725" lon="-1.8572567"><ele>465.33333333333337</ele><time>2026-05-03T16:48:10.783Z</time></trkpt><trkpt lat="53.4327167" lon="-1.8571367"><ele>464.0</ele><time>2026-05-03T16:48:11.786Z</time></trkpt><trkpt lat="53.432695" lon="-1.8570267"><ele>462.6666666666667</ele><time>2026-05-03T16:48:12.786Z</time></trkpt><trkpt lat="53.4326283" lon="-1.85686"><ele>461.33333333333337</ele><time>2026-05-03T16:48:14.786Z</time></trkpt><trkpt lat="53.4325883" lon="-1.8567783"><ele>460.0</ele><time>2026-05-03T16:48:15.783Z</time></trkpt><trkpt lat="53.4325433" lon="-1.8567033"><ele>459.83333333333337</ele><time>2026-05-03T16:48:16.783Z</time></trkpt><trkpt lat="53.4324717" lon="-1.8565867"><ele>459.6666666666667</ele><time>2026-05-03T16:48:18.785Z</time></trkpt><trkpt lat="53.4324267" lon="-1.85648"><ele>459.5</ele><time>2026-05-03T16:48:21.783Z</time></trkpt><trkpt lat="53.4323567" lon="-1.856355"><ele>459.33333333333337</ele><time>2026-05-03T16:48:31.783Z</time></trkpt><trkpt lat="53.4323233" lon="-1.8562383"><ele>459.1666666666667</ele><time>2026-05-03T16:48:32.783Z</time></trkpt><trkpt lat="53.4323" lon="-1.8560967"><ele>459.0</ele><time>2026-05-03T16:48:33.783Z</time></trkpt><trkpt lat="53.432285" lon="-1.8559433"><ele>459.5</ele><time>2026-05-03T16:48:34.786Z</time></trkpt><trkpt lat="53.4322983" lon="-1.855765"><ele>460.0</ele><time>2026-05-03T16:48:35.783Z</time></trkpt><trkpt lat="53.4323217" lon="-1.8555783"><ele>460.5</ele><time>2026-05-03T16:48:36.786Z</time></trkpt><trkpt lat="53.432355" lon="-1.855385"><ele>461.0</ele><time>2026-05-03T16:48:37.782Z</time></trkpt><trkpt lat="53.4323933" lon="-1.8551833"><ele>459.75</ele><time>2026-05-03T16:48:38.786Z</time></trkpt><trkpt lat="53.432435" lon="-1.8549833"><ele>458.5</ele><time>2026-05-03T16:48:39.786Z</time></trkpt><trkpt lat="53.4324817" lon="-1.8547883"><ele>457.25</ele><time>2026-05-03T16:48:40.794Z</time></trkpt><trkpt lat="53.4325267" lon="-1.8545817"><ele>456.0</ele><time>2026-05-03T16:48:41.783Z</time></trkpt><trkpt lat="53.4325733" lon="-1.8543683"><ele>453.75</ele><time>2026-05-03T16:48:42.786Z</time></trkpt><trkpt lat="53.4326167" lon="-1.8541417"><ele>451.5</ele><time>2026-05-03T16:48:43.786Z</time></trkpt><trkpt lat="53.4326583" lon="-1.853905"><ele>449.25</ele><time>2026-05-03T16:48:44.786Z</time></trkpt><trkpt lat="53.432695" lon="-1.8536483"><ele>447.0</ele><time>2026-05-03T16:48:45.786Z</time></trkpt><trkpt lat="53.4327283" lon="-1.8533883"><ele>446.33333333333337</ele><time>2026-05-03T16:48:46.785Z</time></trkpt><trkpt lat="53.432765" lon="-1.85313"><ele>445.6666666666667</ele><time>2026-05-03T16:48:47.782Z</time></trkpt><trkpt lat="53.4328" lon="-1.85287"><ele>445.0</ele><time>2026-05-03T16:48:48.786Z</time></trkpt><trkpt lat="53.4328233" lon="-1.8526033"><ele>444.0</ele><time>2026-05-03T16:48:49.785Z</time></trkpt><trkpt lat="53.4328333" lon="-1.8523317"><ele>443.0</ele><time>2026-05-03T16:48:50.786Z</time></trkpt><trkpt lat="53.4328367" lon="-1.8520483"><ele>442.0</ele><time>2026-05-03T16:48:51.783Z</time></trkpt><trkpt lat="53.432835" lon="-1.8517583"><ele>441.6666666666667</ele><time>2026-05-03T16:48:52.782Z</time></trkpt><trkpt lat="53.4328317" lon="-1.8514617"><ele>441.33333333333337</ele><time>2026-05-03T16:48:53.786Z</time></trkpt><trkpt lat="53.43283" lon="-1.8511583"><ele>441.0</ele><time>2026-05-03T16:48:54.786Z</time></trkpt><trkpt lat="53.4328367" lon="-1.8508617"><ele>439.0</ele><time>2026-05-03T16:48:55.782Z</time></trkpt><trkpt lat="53.4328483" lon="-1.8505867"><ele>437.0</ele><time>2026-05-03T16:48:56.786Z</time></trkpt><trkpt lat="53.4328517" lon="-1.8503233"><ele>435.0</ele><time>2026-05-03T16:48:57.782Z</time></trkpt><trkpt lat="53.4328383" lon="-1.850065"><ele>431.33333333333337</ele><time>2026-05-03T16:48:58.786Z</time></trkpt><trkpt lat="53.432795" lon="-1.84982"><ele>427.6666666666667</ele><time>2026-05-03T16:48:59.785Z</time></trkpt><trkpt lat="53.4327233" lon="-1.8495683"><ele>424.0</ele><time>2026-05-03T16:49:00.788Z</time></trkpt><trkpt lat="53.4326467" lon="-1.8493217"><ele>424.6666666666667</ele><time>2026-05-03T16:49:01.784Z</time></trkpt><trkpt lat="53.43257" lon="-1.8490717"><ele>425.33333333333337</ele><time>2026-05-03T16:49:02.782Z</time></trkpt><trkpt lat="53.4324917" lon="-1.84882"><ele>426.0</ele><time>2026-05-03T16:49:03.781Z</time></trkpt><trkpt lat="53.4324117" lon="-1.8485717"><ele>429.0</ele><time>2026-05-03T16:49:04.785Z</time></trkpt><trkpt lat="53.4323317" lon="-1.848325"><ele>432.0</ele><time>2026-05-03T16:49:05.783Z</time></trkpt><trkpt lat="53.4322567" lon="-1.84808"><ele>435.0</ele><time>2026-05-03T16:49:06.783Z</time></trkpt><trkpt lat="53.432185" lon="-1.8478367"><ele>431.0</ele><time>2026-05-03T16:49:07.783Z</time></trkpt><trkpt lat="53.4321183" lon="-1.8475983"><ele>427.0</ele><time>2026-05-03T16:49:08.782Z</time></trkpt><trkpt lat="53.4320583" lon="-1.8473717"><ele>423.0</ele><time>2026-05-03T16:49:09.782Z</time></trkpt><trkpt lat="53.4320067" lon="-1.8471567"><ele>419.0</ele><time>2026-05-03T16:49:10.783Z</time></trkpt><trkpt lat="53.4319633" lon="-1.8469533"><ele>419.25</ele><time>2026-05-03T16:49:11.783Z</time></trkpt><trkpt lat="53.4319033" lon="-1.8467717"><ele>419.5</ele><time>2026-05-03T16:49:12.783Z</time></trkpt><trkpt lat="53.4318217" lon="-1.8466183"><ele>419.75</ele><time>2026-05-03T16:49:13.782Z</time></trkpt><trkpt lat="53.431705" lon="-1.8464867"><ele>420.0</ele><time>2026-05-03T16:49:14.786Z</time></trkpt><trkpt lat="53.4315783" lon="-1.8463633"><ele>420.0</ele><time>2026-05-03T16:49:15.782Z</time></trkpt><trkpt lat="53.4314417" lon="-1.8462367"><ele>420.0</ele><time>2026-05-03T16:49:16.783Z</time></trkpt><trkpt lat="53.4312933" lon="-1.846115"><ele>420.0</ele><time>2026-05-03T16:49:17.786Z</time></trkpt><trkpt lat="53.431135" lon="-1.846"><ele>422.66666666666663</ele><time>2026-05-03T16:49:18.783Z</time></trkpt><trkpt lat="53.4309733" lon="-1.8459167"><ele>425.3333333333333</ele><time>2026-05-03T16:49:19.787Z</time></trkpt><trkpt lat="53.4308117" lon="-1.84584"><ele>428.0</ele><time>2026-05-03T16:49:20.782Z</time></trkpt><trkpt lat="53.43065" lon="-1.8457667"><ele>428.0</ele><time>2026-05-03T16:49:21.783Z</time></trkpt><trkpt lat="53.4304883" lon="-1.8457133"><ele>428.0</ele><time>2026-05-03T16:49:22.783Z</time></trkpt><trkpt lat="53.4303167" lon="-1.8456883"><ele>428.0</ele><time>2026-05-03T16:49:23.782Z</time></trkpt><trkpt lat="53.4301417" lon="-1.845685"><ele>425.66666666666663</ele><time>2026-05-03T16:49:24.783Z</time></trkpt><trkpt lat="53.429955" lon="-1.8457067"><ele>423.33333333333337</ele><time>2026-05-03T16:49:25.783Z</time></trkpt><trkpt lat="53.4297583" lon="-1.8457417"><ele>421.0</ele><time>2026-05-03T16:49:26.786Z</time></trkpt><trkpt lat="53.4295633" lon="-1.8457667"><ele>420.0</ele><time>2026-05-03T16:49:27.782Z</time></trkpt><trkpt lat="53.429365" lon="-1.8457833"><ele>419.0</ele><time>2026-05-03T16:49:28.782Z</time></trkpt><trkpt lat="53.42917" lon="-1.8457817"><ele>418.0</ele><time>2026-05-03T16:49:29.783Z</time></trkpt><trkpt lat="53.4289717" lon="-1.845755"><ele>416.0</ele><time>2026-05-03T16:49:30.781Z</time></trkpt><trkpt lat="53.4287767" lon="-1.8457067"><ele>414.0</ele><time>2026-05-03T16:49:31.784Z</time></trkpt><trkpt lat="53.4285783" lon="-1.8456467"><ele>412.0</ele><time>2026-05-03T16:49:32.782Z</time></trkpt><trkpt lat="53.428375" lon="-1.8455817"><ele>412.0</ele><time>2026-05-03T16:49:33.782Z</time></trkpt><trkpt lat="53.42818" lon="-1.8455"><ele>412.0</ele><time>2026-05-03T16:49:34.782Z</time></trkpt><trkpt lat="53.4279883" lon="-1.84541"><ele>412.0</ele><time>2026-05-03T16:49:35.782Z</time></trkpt><trkpt lat="53.4277967" lon="-1.8453217"><ele>414.0</ele><time>2026-05-03T16:49:36.784Z</time></trkpt><trkpt lat="53.4276017" lon="-1.845225"><ele>416.0</ele><time>2026-05-03T16:49:37.782Z</time></trkpt><trkpt lat="53.4274117" lon="-1.8451183"><ele>418.0</ele><time>2026-05-03T16:49:38.784Z</time></trkpt><trkpt lat="53.427225" lon="-1.8450083"><ele>414.33333333333337</ele><time>2026-05-03T16:49:39.783Z</time></trkpt><trkpt lat="53.4270333" lon="-1.8449"><ele>410.66666666666663</ele><time>2026-05-03T16:49:40.783Z</time></trkpt><trkpt lat="53.4268417" lon="-1.844795"><ele>407.0</ele><time>2026-05-03T16:49:41.783Z</time></trkpt><trkpt lat="53.4266567" lon="-1.8446783"><ele>407.0</ele><time>2026-05-03T16:49:42.783Z</time></trkpt><trkpt lat="53.42648" lon="-1.8445517"><ele>407.0</ele><time>2026-05-03T16:49:43.784Z</time></trkpt><trkpt lat="53.426315" lon="-1.84441"><ele>407.0</ele><time>2026-05-03T16:49:44.783Z</time></trkpt><trkpt lat="53.4261533" lon="-1.8442767"><ele>408.66666666666663</ele><time>2026-05-03T16:49:45.783Z</time></trkpt><trkpt lat="53.4260017" lon="-1.84415"><ele>410.33333333333337</ele><time>2026-05-03T16:49:46.783Z</time></trkpt><trkpt lat="53.4258533" lon="-1.8440317"><ele>412.0</ele><time>2026-05-03T16:49:47.783Z</time></trkpt><trkpt lat="53.425715" lon="-1.8439167"><ele>412.0</ele><time>2026-05-03T16:49:48.782Z</time></trkpt><trkpt lat="53.4255783" lon="-1.84381"><ele>412.0</ele><time>2026-05-03T16:49:49.783Z</time></trkpt><trkpt lat="53.425445" lon="-1.8437"><ele>412.0</ele><time>2026-05-03T16:49:50.783Z</time></trkpt><trkpt lat="53.4253117" lon="-1.843595"><ele>412.0</ele><time>2026-05-03T16:49:51.782Z</time></trkpt><trkpt lat="53.42518" lon="-1.84349"><ele>411.75</ele><time>2026-05-03T16:49:52.784Z</time></trkpt><trkpt lat="53.42505" lon="-1.8433767"><ele>411.5</ele><time>2026-05-03T16:49:53.782Z</time></trkpt><trkpt lat="53.42492" lon="-1.8432667"><ele>411.25</ele><time>2026-05-03T16:49:54.783Z</time></trkpt><trkpt lat="53.4247833" lon="-1.843165"><ele>411.0</ele><time>2026-05-03T16:49:55.782Z</time></trkpt><trkpt lat="53.4246433" lon="-1.8430567"><ele>408.66666666666663</ele><time>2026-05-03T16:49:56.783Z</time></trkpt><trkpt lat="53.42449" lon="-1.8429483"><ele>406.3333333333333</ele><time>2026-05-03T16:49:57.783Z</time></trkpt><trkpt lat="53.424335" lon="-1.8428333"><ele>404.0</ele><time>2026-05-03T16:49:58.783Z</time></trkpt><trkpt lat="53.4241683" lon="-1.8427217"><ele>403.0</ele><time>2026-05-03T16:49:59.783Z</time></trkpt><trkpt lat="53.4239983" lon="-1.842615"><ele>402.0</ele><time>2026-05-03T16:50:00.783Z</time></trkpt><trkpt lat="53.42382" lon="-1.8425183"><ele>401.0</ele><time>2026-05-03T16:50:01.783Z</time></trkpt><trkpt lat="53.4236417" lon="-1.842435"><ele>401.0</ele><time>2026-05-03T16:50:02.783Z</time></trkpt><trkpt lat="53.4234817" lon="-1.842325"><ele>401.0</ele><time>2026-05-03T16:50:03.783Z</time></trkpt><trkpt lat="53.4233267" lon="-1.8422217"><ele>401.0</ele><time>2026-05-03T16:50:04.782Z</time></trkpt><trkpt lat="53.4231783" lon="-1.8421167"><ele>401.0</ele><time>2026-05-03T16:50:05.783Z</time></trkpt><trkpt lat="53.4230383" lon="-1.8419883"><ele>401.0</ele><time>2026-05-03T16:50:06.783Z</time></trkpt><trkpt lat="53.4229183" lon="-1.8418333"><ele>401.0</ele><time>2026-05-03T16:50:07.782Z</time></trkpt><trkpt lat="53.422785" lon="-1.8416967"><ele>399.0</ele><time>2026-05-03T16:50:08.784Z</time></trkpt><trkpt lat="53.4226517" lon="-1.8415533"><ele>397.0</ele><time>2026-05-03T16:50:09.783Z</time></trkpt><trkpt lat="53.42252" lon="-1.8413917"><ele>395.0</ele><time>2026-05-03T16:50:10.782Z</time></trkpt><trkpt lat="53.4223933" lon="-1.84121"><ele>395.0</ele><time>2026-05-03T16:50:11.783Z</time></trkpt><trkpt lat="53.4222583" lon="-1.841065"><ele>395.0</ele><time>2026-05-03T16:50:12.783Z</time></trkpt><trkpt lat="53.4221133" lon="-1.8408983"><ele>395.0</ele><time>2026-05-03T16:50:13.783Z</time></trkpt><trkpt lat="53.4219717" lon="-1.8407033"><ele>395.0</ele><time>2026-05-03T16:50:14.783Z</time></trkpt><trkpt lat="53.4218283" lon="-1.8404983"><ele>395.0</ele><time>2026-05-03T16:50:15.783Z</time></trkpt><trkpt lat="53.4216783" lon="-1.84029"><ele>395.0</ele><time>2026-05-03T16:50:16.783Z</time></trkpt><trkpt lat="53.421525" lon="-1.8400917"><ele>395.0</ele><time>2026-05-03T16:50:17.782Z</time></trkpt><trkpt lat="53.4213717" lon="-1.8398983"><ele>395.0</ele><time>2026-05-03T16:50:18.783Z</time></trkpt><trkpt lat="53.4212217" lon="-1.8397017"><ele>395.0</ele><time>2026-05-03T16:50:19.783Z</time></trkpt><trkpt lat="53.4210533" lon="-1.8395133"><ele>392.0</ele><time>2026-05-03T16:50:20.783Z</time></trkpt><trkpt lat="53.4208983" lon="-1.839315"><ele>389.0</ele><time>2026-05-03T16:50:21.784Z</time></trkpt><trkpt lat="53.42076" lon="-1.8390967"><ele>386.0</ele><time>2026-05-03T16:50:22.783Z</time></trkpt><trkpt lat="53.4206283" lon="-1.8388617"><ele>386.0</ele><time>2026-05-03T16:50:23.782Z</time></trkpt><trkpt lat="53.420505" lon="-1.83861"><ele>386.0</ele><time>2026-05-03T16:50:24.783Z</time></trkpt><trkpt lat="53.4203783" lon="-1.838385"><ele>386.0</ele><time>2026-05-03T16:50:25.783Z</time></trkpt><trkpt lat="53.4202517" lon="-1.8381633"><ele>382.0</ele><time>2026-05-03T16:50:26.781Z</time></trkpt><trkpt lat="53.42014" lon="-1.8379433"><ele>378.0</ele><time>2026-05-03T16:50:27.783Z</time></trkpt><trkpt lat="53.420025" lon="-1.8377383"><ele>374.0</ele><time>2026-05-03T16:50:28.782Z</time></trkpt><trkpt lat="53.4199" lon="-1.8375533"><ele>374.0</ele><time>2026-05-03T16:50:29.781Z</time></trkpt><trkpt lat="53.4197717" lon="-1.837385"><ele>374.0</ele><time>2026-05-03T16:50:30.782Z</time></trkpt><trkpt lat="53.4196233" lon="-1.8372533"><ele>374.0</ele><time>2026-05-03T16:50:31.782Z</time></trkpt><trkpt lat="53.41945" lon="-1.8371667"><ele>371.0</ele><time>2026-05-03T16:50:32.785Z</time></trkpt><trkpt lat="53.419265" lon="-1.8371317"><ele>368.0</ele><time>2026-05-03T16:50:33.786Z</time></trkpt><trkpt lat="53.4190817" lon="-1.837135"><ele>365.0</ele><time>2026-05-03T16:50:34.784Z</time></trkpt><trkpt lat="53.4189033" lon="-1.8371483"><ele>365.0</ele><time>2026-05-03T16:50:35.783Z</time></trkpt><trkpt lat="53.4187317" lon="-1.837165"><ele>365.0</ele><time>2026-05-03T16:50:36.781Z</time></trkpt><trkpt lat="53.4185633" lon="-1.837175"><ele>365.0</ele><time>2026-05-03T16:50:37.783Z</time></trkpt><trkpt lat="53.4183917" lon="-1.8371767"><ele>365.0</ele><time>2026-05-03T16:50:38.784Z</time></trkpt><trkpt lat="53.418215" lon="-1.83718"><ele>365.0</ele><time>2026-05-03T16:50:39.782Z</time></trkpt><trkpt lat="53.418035" lon="-1.8371833"><ele>365.0</ele><time>2026-05-03T16:50:40.782Z</time></trkpt><trkpt lat="53.4178517" lon="-1.837185"><ele>363.33333333333337</ele><time>2026-05-03T16:50:41.782Z</time></trkpt><trkpt lat="53.4176683" lon="-1.83719"><ele>361.6666666666667</ele><time>2026-05-03T16:50:42.783Z</time></trkpt><trkpt lat="53.4174833" lon="-1.837195"><ele>360.0</ele><time>2026-05-03T16:50:43.783Z</time></trkpt><trkpt lat="53.4173017" lon="-1.8371983"><ele>359.0</ele><time>2026-05-03T16:50:44.783Z</time></trkpt><trkpt lat="53.4171183" lon="-1.837205"><ele>358.0</ele><time>2026-05-03T16:50:45.782Z</time></trkpt><trkpt lat="53.4169383" lon="-1.837215"><ele>357.0</ele><time>2026-05-03T16:50:46.783Z</time></trkpt><trkpt lat="53.4167617" lon="-1.83723"><ele>357.0</ele><time>2026-05-03T16:50:47.783Z</time></trkpt><trkpt lat="53.4165883" lon="-1.8372367"><ele>357.0</ele><time>2026-05-03T16:50:48.783Z</time></trkpt><trkpt lat="53.416415" lon="-1.8372417"><ele>357.0</ele><time>2026-05-03T16:50:49.782Z</time></trkpt><trkpt lat="53.416245" lon="-1.8372467"><ele>357.6666666666667</ele><time>2026-05-03T16:50:50.782Z</time></trkpt><trkpt lat="53.4160833" lon="-1.8372583"><ele>358.33333333333337</ele><time>2026-05-03T16:50:51.783Z</time></trkpt><trkpt lat="53.4159283" lon="-1.837275"><ele>359.0</ele><time>2026-05-03T16:50:52.783Z</time></trkpt><trkpt lat="53.4157733" lon="-1.8372917"><ele>359.0</ele><time>2026-05-03T16:50:53.784Z</time></trkpt><trkpt lat="53.4156283" lon="-1.8373117"><ele>359.0</ele><time>2026-05-03T16:50:54.782Z</time></trkpt><trkpt lat="53.4154867" lon="-1.837325"><ele>359.0</ele><time>2026-05-03T16:50:55.784Z</time></trkpt><trkpt lat="53.4153467" lon="-1.83734"><ele>359.0</ele><time>2026-05-03T16:50:56.783Z</time></trkpt><trkpt lat="53.4152067" lon="-1.837355"><ele>358.5</ele><time>2026-05-03T16:50:57.783Z</time></trkpt><trkpt lat="53.4150633" lon="-1.8373633"><ele>358.0</ele><time>2026-05-03T16:50:58.783Z</time></trkpt><trkpt lat="53.4149167" lon="-1.83736"><ele>357.5</ele><time>2026-05-03T16:50:59.782Z</time></trkpt><trkpt lat="53.4147683" lon="-1.837335"><ele>357.0</ele><time>2026-05-03T16:51:00.783Z</time></trkpt><trkpt lat="53.41462" lon="-1.8372817"><ele>355.3333333333333</ele><time>2026-05-03T16:51:01.782Z</time></trkpt><trkpt lat="53.4144767" lon="-1.8372117"><ele>353.66666666666663</ele><time>2026-05-03T16:51:02.783Z</time></trkpt><trkpt lat="53.4143117" lon="-1.8371333"><ele>352.0</ele><time>2026-05-03T16:51:03.783Z</time></trkpt><trkpt lat="53.4141517" lon="-1.8370283"><ele>352.0</ele><time>2026-05-03T16:51:04.783Z</time></trkpt><trkpt lat="53.414005" lon="-1.83691"><ele>352.0</ele><time>2026-05-03T16:51:05.782Z</time></trkpt><trkpt lat="53.4138667" lon="-1.8367917"><ele>352.0</ele><time>2026-05-03T16:51:06.782Z</time></trkpt><trkpt lat="53.4137267" lon="-1.8366683"><ele>350.0</ele><time>2026-05-03T16:51:07.783Z</time></trkpt><trkpt lat="53.41358" lon="-1.8365317"><ele>348.0</ele><time>2026-05-03T16:51:08.783Z</time></trkpt><trkpt lat="53.4134367" lon="-1.8363833"><ele>346.0</ele><time>2026-05-03T16:51:09.782Z</time></trkpt><trkpt lat="53.4132967" lon="-1.8362"><ele>346.0</ele><time>2026-05-03T16:51:10.783Z</time></trkpt><trkpt lat="53.4131617" lon="-1.8359917"><ele>346.0</ele><time>2026-05-03T16:51:11.783Z</time></trkpt><trkpt lat="53.4130217" lon="-1.835775"><ele>346.0</ele><time>2026-05-03T16:51:12.782Z</time></trkpt><trkpt lat="53.4128883" lon="-1.8355417"><ele>343.0</ele><time>2026-05-03T16:51:13.783Z</time></trkpt><trkpt lat="53.41276" lon="-1.835315"><ele>340.0</ele><time>2026-05-03T16:51:14.783Z</time></trkpt><trkpt lat="53.4126333" lon="-1.83508"><ele>337.0</ele><time>2026-05-03T16:51:15.783Z</time></trkpt><trkpt lat="53.412515" lon="-1.8348367"><ele>337.0</ele><time>2026-05-03T16:51:16.782Z</time></trkpt><trkpt lat="53.412405" lon="-1.834595"><ele>337.0</ele><time>2026-05-03T16:51:17.781Z</time></trkpt><trkpt lat="53.4123" lon="-1.83434"><ele>337.0</ele><time>2026-05-03T16:51:18.783Z</time></trkpt><trkpt lat="53.412205" lon="-1.834075"><ele>334.3333333333333</ele><time>2026-05-03T16:51:19.784Z</time></trkpt><trkpt lat="53.41211" lon="-1.8338333"><ele>331.6666666666667</ele><time>2026-05-03T16:51:20.785Z</time></trkpt><trkpt lat="53.412015" lon="-1.8336083"><ele>329.0</ele><time>2026-05-03T16:51:21.783Z</time></trkpt><trkpt lat="53.4119283" lon="-1.8333983"><ele>329.0</ele><time>2026-05-03T16:51:22.784Z</time></trkpt><trkpt lat="53.411835" lon="-1.83321"><ele>329.0</ele><time>2026-05-03T16:51:23.784Z</time></trkpt><trkpt lat="53.4117533" lon="-1.8330133"><ele>329.0</ele><time>2026-05-03T16:51:24.783Z</time></trkpt><trkpt lat="53.411685" lon="-1.8328"><ele>329.0</ele><time>2026-05-03T16:51:25.784Z</time></trkpt><trkpt lat="53.411615" lon="-1.83255"><ele>331.33333333333337</ele><time>2026-05-03T16:51:26.782Z</time></trkpt><trkpt lat="53.4115467" lon="-1.8322883"><ele>333.6666666666667</ele><time>2026-05-03T16:51:27.784Z</time></trkpt><trkpt lat="53.4114833" lon="-1.8320317"><ele>336.0</ele><time>2026-05-03T16:51:28.783Z</time></trkpt><trkpt lat="53.411425" lon="-1.8317833"><ele>338.0</ele><time>2026-05-03T16:51:29.783Z</time></trkpt><trkpt lat="53.4113617" lon="-1.831545"><ele>340.0</ele><time>2026-05-03T16:51:30.785Z</time></trkpt><trkpt lat="53.4112783" lon="-1.8313233"><ele>342.0</ele><time>2026-05-03T16:51:31.784Z</time></trkpt><trkpt lat="53.4111767" lon="-1.8311267"><ele>340.0</ele><time>2026-05-03T16:51:32.783Z</time></trkpt><trkpt lat="53.4110533" lon="-1.8309533"><ele>338.0</ele><time>2026-05-03T16:51:33.784Z</time></trkpt><trkpt lat="53.4109117" lon="-1.8308"><ele>336.0</ele><time>2026-05-03T16:51:34.784Z</time></trkpt><trkpt lat="53.4107633" lon="-1.8306483"><ele>336.0</ele><time>2026-05-03T16:51:35.784Z</time></trkpt><trkpt lat="53.4105983" lon="-1.83051"><ele>336.0</ele><time>2026-05-03T16:51:36.783Z</time></trkpt><trkpt lat="53.41042" lon="-1.8303817"><ele>336.0</ele><time>2026-05-03T16:51:37.785Z</time></trkpt><trkpt lat="53.4102633" lon="-1.83025"><ele>333.3333333333333</ele><time>2026-05-03T16:51:38.783Z</time></trkpt><trkpt lat="53.4101267" lon="-1.8300967"><ele>330.66666666666663</ele><time>2026-05-03T16:51:39.784Z</time></trkpt><trkpt lat="53.4099933" lon="-1.8299133"><ele>328.0</ele><time>2026-05-03T16:51:40.784Z</time></trkpt><trkpt lat="53.4098617" lon="-1.8297017"><ele>328.0</ele><time>2026-05-03T16:51:41.783Z</time></trkpt><trkpt lat="53.409715" lon="-1.8294933"><ele>328.0</ele><time>2026-05-03T16:51:42.783Z</time></trkpt><trkpt lat="53.4095683" lon="-1.8293033"><ele>328.0</ele><time>2026-05-03T16:51:43.784Z</time></trkpt><trkpt lat="53.40941" lon="-1.8291217"><ele>327.3333333333333</ele><time>2026-05-03T16:51:44.783Z</time></trkpt><trkpt lat="53.4092517" lon="-1.8289317"><ele>326.6666666666667</ele><time>2026-05-03T16:51:45.783Z</time></trkpt><trkpt lat="53.4090967" lon="-1.8287317"><ele>326.0</ele><time>2026-05-03T16:51:46.784Z</time></trkpt><trkpt lat="53.4089283" lon="-1.8285567"><ele>324.0</ele><time>2026-05-03T16:51:47.785Z</time></trkpt><trkpt lat="53.4087567" lon="-1.8284"><ele>322.0</ele><time>2026-05-03T16:51:48.784Z</time></trkpt><trkpt lat="53.408575" lon="-1.8282583"><ele>320.0</ele><time>2026-05-03T16:51:49.785Z</time></trkpt><trkpt lat="53.40839" lon="-1.828125"><ele>320.0</ele><time>2026-05-03T16:51:50.784Z</time></trkpt><trkpt lat="53.40821" lon="-1.8280033"><ele>320.0</ele><time>2026-05-03T16:51:51.784Z</time></trkpt><trkpt lat="53.4080383" lon="-1.8278983"><ele>320.0</ele><time>2026-05-03T16:51:52.784Z</time></trkpt><trkpt lat="53.4078733" lon="-1.8278067"><ele>318.33333333333337</ele><time>2026-05-03T16:51:53.784Z</time></trkpt><trkpt lat="53.40771" lon="-1.8277217"><ele>316.6666666666667</ele><time>2026-05-03T16:51:54.784Z</time></trkpt><trkpt lat="53.407555" lon="-1.827655"><ele>315.0</ele><time>2026-05-03T16:51:55.785Z</time></trkpt><trkpt lat="53.4074133" lon="-1.8275717"><ele>315.0</ele><time>2026-05-03T16:51:56.784Z</time></trkpt><trkpt lat="53.4072833" lon="-1.8274617"><ele>315.0</ele><time>2026-05-03T16:51:57.782Z</time></trkpt><trkpt lat="53.4071617" lon="-1.827335"><ele>315.0</ele><time>2026-05-03T16:51:58.783Z</time></trkpt><trkpt lat="53.4070583" lon="-1.82716"><ele>315.0</ele><time>2026-05-03T16:51:59.787Z</time></trkpt><trkpt lat="53.406965" lon="-1.82696"><ele>311.0</ele><time>2026-05-03T16:52:00.784Z</time></trkpt><trkpt lat="53.40689" lon="-1.8267267"><ele>307.0</ele><time>2026-05-03T16:52:01.783Z</time></trkpt><trkpt lat="53.406815" lon="-1.8264817"><ele>303.0</ele><time>2026-05-03T16:52:02.783Z</time></trkpt><trkpt lat="53.40673" lon="-1.82627"><ele>303.0</ele><time>2026-05-03T16:52:03.784Z</time></trkpt><trkpt lat="53.40663" lon="-1.8260817"><ele>303.0</ele><time>2026-05-03T16:52:04.784Z</time></trkpt><trkpt lat="53.4065167" lon="-1.8259033"><ele>303.0</ele><time>2026-05-03T16:52:05.784Z</time></trkpt><trkpt lat="53.4064117" lon="-1.8257217"><ele>300.6666666666667</ele><time>2026-05-03T16:52:06.783Z</time></trkpt><trkpt lat="53.406315" lon="-1.8255267"><ele>298.33333333333337</ele><time>2026-05-03T16:52:07.783Z</time></trkpt><trkpt lat="53.40623" lon="-1.825315"><ele>296.0</ele><time>2026-05-03T16:52:08.784Z</time></trkpt><trkpt lat="53.4061517" lon="-1.82508"><ele>296.0</ele><time>2026-05-03T16:52:09.783Z</time></trkpt><trkpt lat="53.4060783" lon="-1.8248117"><ele>296.0</ele><time>2026-05-03T16:52:10.783Z</time></trkpt><trkpt lat="53.4060167" lon="-1.8245133"><ele>296.0</ele><time>2026-05-03T16:52:11.785Z</time></trkpt><trkpt lat="53.40596" lon="-1.8241917"><ele>296.6666666666667</ele><time>2026-05-03T16:52:12.783Z</time></trkpt><trkpt lat="53.4058933" lon="-1.8238567"><ele>297.3333333333333</ele><time>2026-05-03T16:52:13.785Z</time></trkpt><trkpt lat="53.405825" lon="-1.8235417"><ele>298.0</ele><time>2026-05-03T16:52:14.787Z</time></trkpt><trkpt lat="53.405755" lon="-1.8232483"><ele>300.3333333333333</ele><time>2026-05-03T16:52:15.787Z</time></trkpt><trkpt lat="53.405685" lon="-1.82295"><ele>302.6666666666667</ele><time>2026-05-03T16:52:16.786Z</time></trkpt><trkpt lat="53.4056167" lon="-1.8226417"><ele>305.0</ele><time>2026-05-03T16:52:17.783Z</time></trkpt><trkpt lat="53.4055417" lon="-1.82234"><ele>303.0</ele><time>2026-05-03T16:52:18.783Z</time></trkpt><trkpt lat="53.40546" lon="-1.822035"><ele>301.0</ele><time>2026-05-03T16:52:19.782Z</time></trkpt><trkpt lat="53.40538" lon="-1.8217183"><ele>299.0</ele><time>2026-05-03T16:52:20.784Z</time></trkpt><trkpt lat="53.4053083" lon="-1.8214017"><ele>299.0</ele><time>2026-05-03T16:52:21.782Z</time></trkpt><trkpt lat="53.405245" lon="-1.8210783"><ele>299.0</ele><time>2026-05-03T16:52:22.783Z</time></trkpt><trkpt lat="53.4051817" lon="-1.8207617"><ele>299.0</ele><time>2026-05-03T16:52:23.784Z</time></trkpt><trkpt lat="53.4051033" lon="-1.8204617"><ele>301.33333333333337</ele><time>2026-05-03T16:52:24.783Z</time></trkpt><trkpt lat="53.4050033" lon="-1.82018"><ele>303.6666666666667</ele><time>2026-05-03T16:52:25.783Z</time></trkpt><trkpt lat="53.40489" lon="-1.81992"><ele>306.0</ele><time>2026-05-03T16:52:26.783Z</time></trkpt><trkpt lat="53.404785" lon="-1.819675"><ele>306.0</ele><time>2026-05-03T16:52:27.783Z</time></trkpt><trkpt lat="53.4046967" lon="-1.8194283"><ele>306.0</ele><time>2026-05-03T16:52:28.783Z</time></trkpt><trkpt lat="53.404635" lon="-1.8191633"><ele>306.0</ele><time>2026-05-03T16:52:29.783Z</time></trkpt><trkpt lat="53.4046083" lon="-1.8188717"><ele>306.0</ele><time>2026-05-03T16:52:30.787Z</time></trkpt><trkpt lat="53.4045917" lon="-1.818565"><ele>306.0</ele><time>2026-05-03T16:52:31.786Z</time></trkpt><trkpt lat="53.4045683" lon="-1.8182533"><ele>306.0</ele><time>2026-05-03T16:52:32.786Z</time></trkpt><trkpt lat="53.4045433" lon="-1.8179383"><ele>308.6666666666667</ele><time>2026-05-03T16:52:33.787Z</time></trkpt><trkpt lat="53.4045133" lon="-1.8176133"><ele>311.33333333333337</ele><time>2026-05-03T16:52:34.785Z</time></trkpt><trkpt lat="53.40447" lon="-1.8172833"><ele>314.0</ele><time>2026-05-03T16:52:35.787Z</time></trkpt><trkpt lat="53.404415" lon="-1.816955"><ele>313.33333333333337</ele><time>2026-05-03T16:52:36.786Z</time></trkpt><trkpt lat="53.40436" lon="-1.816645"><ele>312.6666666666667</ele><time>2026-05-03T16:52:37.787Z</time></trkpt><trkpt lat="53.4043167" lon="-1.81635"><ele>312.0</ele><time>2026-05-03T16:52:38.783Z</time></trkpt><trkpt lat="53.404295" lon="-1.8160833"><ele>312.25</ele><time>2026-05-03T16:52:39.783Z</time></trkpt><trkpt lat="53.4042867" lon="-1.81584"><ele>312.5</ele><time>2026-05-03T16:52:40.786Z</time></trkpt><trkpt lat="53.40427" lon="-1.815615"><ele>312.75</ele><time>2026-05-03T16:52:41.786Z</time></trkpt><trkpt lat="53.4042383" lon="-1.8154133"><ele>313.0</ele><time>2026-05-03T16:52:42.783Z</time></trkpt><trkpt lat="53.40418" lon="-1.8152233"><ele>314.5</ele><time>2026-05-03T16:52:43.786Z</time></trkpt><trkpt lat="53.4040883" lon="-1.8150433"><ele>316.0</ele><time>2026-05-03T16:52:44.783Z</time></trkpt><trkpt lat="53.4039783" lon="-1.8148783"><ele>317.5</ele><time>2026-05-03T16:52:45.782Z</time></trkpt><trkpt lat="53.4038483" lon="-1.8147317"><ele>319.0</ele><time>2026-05-03T16:52:46.783Z</time></trkpt><trkpt lat="53.4037083" lon="-1.8145933"><ele>316.66666666666663</ele><time>2026-05-03T16:52:47.782Z</time></trkpt><trkpt lat="53.4035717" lon="-1.8144667"><ele>314.3333333333333</ele><time>2026-05-03T16:52:48.782Z</time></trkpt><trkpt lat="53.40344" lon="-1.8143317"><ele>312.0</ele><time>2026-05-03T16:52:49.784Z</time></trkpt><trkpt lat="53.403335" lon="-1.81415"><ele>312.0</ele><time>2026-05-03T16:52:50.785Z</time></trkpt><trkpt lat="53.4032283" lon="-1.8139467"><ele>312.0</ele><time>2026-05-03T16:52:51.783Z</time></trkpt><trkpt lat="53.40313" lon="-1.813725"><ele>312.0</ele><time>2026-05-03T16:52:52.784Z</time></trkpt><trkpt lat="53.4030433" lon="-1.813485"><ele>308.0</ele><time>2026-05-03T16:52:53.783Z</time></trkpt><trkpt lat="53.4029683" lon="-1.8132133"><ele>304.0</ele><time>2026-05-03T16:52:54.783Z</time></trkpt><trkpt lat="53.402905" lon="-1.8129133"><ele>300.0</ele><time>2026-05-03T16:52:55.784Z</time></trkpt><trkpt lat="53.4028517" lon="-1.8125883"><ele>300.0</ele><time>2026-05-03T16:52:56.783Z</time></trkpt><trkpt lat="53.4027917" lon="-1.8122567"><ele>300.0</ele><time>2026-05-03T16:52:57.783Z</time></trkpt><trkpt lat="53.4027317" lon="-1.81193"><ele>300.0</ele><time>2026-05-03T16:52:58.783Z</time></trkpt><trkpt lat="53.4026617" lon="-1.811625"><ele>301.0</ele><time>2026-05-03T16:52:59.783Z</time></trkpt><trkpt lat="53.402585" lon="-1.8113433"><ele>302.0</ele><time>2026-05-03T16:53:00.786Z</time></trkpt><trkpt lat="53.4025183" lon="-1.8110567"><ele>303.0</ele><time>2026-05-03T16:53:01.785Z</time></trkpt><trkpt lat="53.402465" lon="-1.810765"><ele>303.6666666666667</ele><time>2026-05-03T16:53:02.784Z</time></trkpt><trkpt lat="53.4024217" lon="-1.8104567"><ele>304.33333333333337</ele><time>2026-05-03T16:53:03.783Z</time></trkpt><trkpt lat="53.4024" lon="-1.8101467"><ele>305.0</ele><time>2026-05-03T16:53:04.786Z</time></trkpt><trkpt lat="53.4023783" lon="-1.8098283"><ele>305.33333333333337</ele><time>2026-05-03T16:53:05.782Z</time></trkpt><trkpt lat="53.40234" lon="-1.809505"><ele>305.6666666666667</ele><time>2026-05-03T16:53:06.786Z</time></trkpt><trkpt lat="53.4022883" lon="-1.8091767"><ele>306.0</ele><time>2026-05-03T16:53:07.787Z</time></trkpt><trkpt lat="53.4022367" lon="-1.8088417"><ele>306.0</ele><time>2026-05-03T16:53:08.784Z</time></trkpt><trkpt lat="53.40219" lon="-1.8085033"><ele>306.0</ele><time>2026-05-03T16:53:09.784Z</time></trkpt><trkpt lat="53.4021483" lon="-1.8081667"><ele>306.0</ele><time>2026-05-03T16:53:10.784Z</time></trkpt><trkpt lat="53.4021133" lon="-1.80785"><ele>299.3333333333333</ele><time>2026-05-03T16:53:11.784Z</time></trkpt><trkpt lat="53.4020983" lon="-1.8075383"><ele>292.66666666666663</ele><time>2026-05-03T16:53:12.784Z</time></trkpt><trkpt lat="53.4021017" lon="-1.807225"><ele>286.0</ele><time>2026-05-03T16:53:13.783Z</time></trkpt><trkpt lat="53.402145" lon="-1.80691"><ele>290.0</ele><time>2026-05-03T16:53:14.783Z</time></trkpt><trkpt lat="53.4021883" lon="-1.8065883"><ele>294.0</ele><time>2026-05-03T16:53:15.783Z</time></trkpt><trkpt lat="53.4022283" lon="-1.8062517"><ele>298.0</ele><time>2026-05-03T16:53:16.787Z</time></trkpt><trkpt lat="53.4022683" lon="-1.805915"><ele>298.0</ele><time>2026-05-03T16:53:17.787Z</time></trkpt><trkpt lat="53.402305" lon="-1.8055733"><ele>298.0</ele><time>2026-05-03T16:53:18.786Z</time></trkpt><trkpt lat="53.402345" lon="-1.8052383"><ele>298.0</ele><time>2026-05-03T16:53:19.786Z</time></trkpt><trkpt lat="53.4023867" lon="-1.804905"><ele>297.0</ele><time>2026-05-03T16:53:20.787Z</time></trkpt><trkpt lat="53.4024233" lon="-1.8045717"><ele>296.0</ele><time>2026-05-03T16:53:21.787Z</time></trkpt><trkpt lat="53.4024517" lon="-1.80424"><ele>295.0</ele><time>2026-05-03T16:53:22.787Z</time></trkpt><trkpt lat="53.4024717" lon="-1.8039133"><ele>293.66666666666663</ele><time>2026-05-03T16:53:23.786Z</time></trkpt><trkpt lat="53.4024833" lon="-1.8035883"><ele>292.3333333333333</ele><time>2026-05-03T16:53:24.786Z</time></trkpt><trkpt lat="53.4024917" lon="-1.8032683"><ele>291.0</ele><time>2026-05-03T16:53:25.783Z</time></trkpt><trkpt lat="53.4024933" lon="-1.80295"><ele>287.6666666666667</ele><time>2026-05-03T16:53:26.786Z</time></trkpt><trkpt lat="53.402495" lon="-1.8026383"><ele>284.33333333333337</ele><time>2026-05-03T16:53:27.783Z</time></trkpt><trkpt lat="53.4024983" lon="-1.8023283"><ele>281.0</ele><time>2026-05-03T16:53:28.782Z</time></trkpt><trkpt lat="53.4025017" lon="-1.8020217"><ele>280.33333333333337</ele><time>2026-05-03T16:53:29.783Z</time></trkpt><trkpt lat="53.4025033" lon="-1.80171"><ele>279.6666666666667</ele><time>2026-05-03T16:53:30.782Z</time></trkpt><trkpt lat="53.4025017" lon="-1.8013917"><ele>279.0</ele><time>2026-05-03T16:53:31.783Z</time></trkpt><trkpt lat="53.4025067" lon="-1.801075"><ele>278.3333333333333</ele><time>2026-05-03T16:53:32.783Z</time></trkpt><trkpt lat="53.4025067" lon="-1.8007617"><ele>277.66666666666663</ele><time>2026-05-03T16:53:33.783Z</time></trkpt><trkpt lat="53.4025017" lon="-1.80045"><ele>277.0</ele><time>2026-05-03T16:53:34.783Z</time></trkpt><trkpt lat="53.4024733" lon="-1.80013"><ele>277.0</ele><time>2026-05-03T16:53:35.784Z</time></trkpt><trkpt lat="53.4024333" lon="-1.7998133"><ele>277.0</ele><time>2026-05-03T16:53:36.782Z</time></trkpt><trkpt lat="53.4023867" lon="-1.799505"><ele>277.0</ele><time>2026-05-03T16:53:37.786Z</time></trkpt><trkpt lat="53.4023467" lon="-1.7992233"><ele>277.3333333333333</ele><time>2026-05-03T16:53:38.786Z</time></trkpt><trkpt lat="53.4023167" lon="-1.7989583"><ele>277.6666666666667</ele><time>2026-05-03T16:53:39.783Z</time></trkpt><trkpt lat="53.402295" lon="-1.798705"><ele>278.0</ele><time>2026-05-03T16:53:40.787Z</time></trkpt><trkpt lat="53.4022817" lon="-1.7984433"><ele>277.0</ele><time>2026-05-03T16:53:41.787Z</time></trkpt><trkpt lat="53.4022767" lon="-1.79817"><ele>276.0</ele><time>2026-05-03T16:53:42.782Z</time></trkpt><trkpt lat="53.4022917" lon="-1.7978883"><ele>275.0</ele><time>2026-05-03T16:53:43.787Z</time></trkpt><trkpt lat="53.4023117" lon="-1.7975917"><ele>274.0</ele><time>2026-05-03T16:53:44.783Z</time></trkpt><trkpt lat="53.4023267" lon="-1.7972817"><ele>273.0</ele><time>2026-05-03T16:53:45.787Z</time></trkpt><trkpt lat="53.40234" lon="-1.79697"><ele>272.0</ele><time>2026-05-03T16:53:46.783Z</time></trkpt><trkpt lat="53.402355" lon="-1.796655"><ele>271.0</ele><time>2026-05-03T16:53:47.785Z</time></trkpt><trkpt lat="53.4023767" lon="-1.7963383"><ele>270.0</ele><time>2026-05-03T16:53:48.783Z</time></trkpt><trkpt lat="53.4024017" lon="-1.7960333"><ele>269.0</ele><time>2026-05-03T16:53:49.783Z</time></trkpt><trkpt lat="53.4024233" lon="-1.79574"><ele>267.6666666666667</ele><time>2026-05-03T16:53:50.784Z</time></trkpt><trkpt lat="53.4024417" lon="-1.7954467"><ele>266.3333333333333</ele><time>2026-05-03T16:53:51.788Z</time></trkpt><trkpt lat="53.4024633" lon="-1.7951617"><ele>265.0</ele><time>2026-05-03T16:53:52.787Z</time></trkpt><trkpt lat="53.402485" lon="-1.7948733"><ele>263.66666666666663</ele><time>2026-05-03T16:53:53.782Z</time></trkpt><trkpt lat="53.402505" lon="-1.7945833"><ele>262.3333333333333</ele><time>2026-05-03T16:53:54.787Z</time></trkpt><trkpt lat="53.4025267" lon="-1.7942933"><ele>261.0</ele><time>2026-05-03T16:53:55.782Z</time></trkpt><trkpt lat="53.4025467" lon="-1.79399"><ele>260.0</ele><time>2026-05-03T16:53:56.786Z</time></trkpt><trkpt lat="53.4025633" lon="-1.7936933"><ele>259.0</ele><time>2026-05-03T16:53:57.781Z</time></trkpt><trkpt lat="53.40258" lon="-1.793415"><ele>258.0</ele><time>2026-05-03T16:53:58.783Z</time></trkpt><trkpt lat="53.4025967" lon="-1.7931483"><ele>257.3333333333333</ele><time>2026-05-03T16:53:59.785Z</time></trkpt><trkpt lat="53.40261" lon="-1.7928883"><ele>256.66666666666663</ele><time>2026-05-03T16:54:00.783Z</time></trkpt><trkpt lat="53.4026233" lon="-1.7926317"><ele>256.0</ele><time>2026-05-03T16:54:01.783Z</time></trkpt><trkpt lat="53.4026367" lon="-1.7923733"><ele>255.66666666666666</ele><time>2026-05-03T16:54:02.782Z</time></trkpt><trkpt lat="53.4026483" lon="-1.792105"><ele>255.33333333333331</ele><time>2026-05-03T16:54:03.783Z</time></trkpt><trkpt lat="53.40266" lon="-1.79183"><ele>255.0</ele><time>2026-05-03T16:54:04.783Z</time></trkpt><trkpt lat="53.40267" lon="-1.7915567"><ele>254.0</ele><time>2026-05-03T16:54:05.787Z</time></trkpt><trkpt lat="53.4026817" lon="-1.7912883"><ele>253.0</ele><time>2026-05-03T16:54:06.787Z</time></trkpt><trkpt lat="53.40269" lon="-1.79102"><ele>252.0</ele><time>2026-05-03T16:54:07.783Z</time></trkpt><trkpt lat="53.4027017" lon="-1.7907517"><ele>250.66666666666669</ele><time>2026-05-03T16:54:08.783Z</time></trkpt><trkpt lat="53.4027117" lon="-1.7904783"><ele>249.33333333333334</ele><time>2026-05-03T16:54:09.787Z</time></trkpt><trkpt lat="53.4027267" lon="-1.7902017"><ele>248.0</ele><time>2026-05-03T16:54:10.785Z</time></trkpt><trkpt lat="53.4027417" lon="-1.78993"><ele>247.0</ele><time>2026-05-03T16:54:11.782Z</time></trkpt><trkpt lat="53.40276" lon="-1.789665"><ele>246.0</ele><time>2026-05-03T16:54:12.782Z</time></trkpt><trkpt lat="53.4027733" lon="-1.7894117"><ele>245.0</ele><time>2026-05-03T16:54:13.783Z</time></trkpt><trkpt lat="53.4027933" lon="-1.7891733"><ele>244.25</ele><time>2026-05-03T16:54:14.788Z</time></trkpt><trkpt lat="53.4028117" lon="-1.788945"><ele>243.5</ele><time>2026-05-03T16:54:15.784Z</time></trkpt><trkpt lat="53.4028267" lon="-1.7887283"><ele>242.75</ele><time>2026-05-03T16:54:16.787Z</time></trkpt><trkpt lat="53.4028283" lon="-1.78852"><ele>242.0</ele><time>2026-05-03T16:54:17.786Z</time></trkpt><trkpt lat="53.4028183" lon="-1.7883167"><ele>241.8</ele><time>2026-05-03T16:54:18.783Z</time></trkpt><trkpt lat="53.4028017" lon="-1.788115"><ele>241.6</ele><time>2026-05-03T16:54:19.787Z</time></trkpt><trkpt lat="53.4027883" lon="-1.7879267"><ele>241.40000000000003</ele><time>2026-05-03T16:54:20.787Z</time></trkpt><trkpt lat="53.40277" lon="-1.7877433"><ele>241.20000000000002</ele><time>2026-05-03T16:54:21.787Z</time></trkpt><trkpt lat="53.4027517" lon="-1.7875717"><ele>241.0</ele><time>2026-05-03T16:54:22.787Z</time></trkpt><trkpt lat="53.40273" lon="-1.7874133"><ele>240.99999999999997</ele><time>2026-05-03T16:54:23.787Z</time></trkpt><trkpt lat="53.4027017" lon="-1.787275"><ele>241.0</ele><time>2026-05-03T16:54:24.782Z</time></trkpt><trkpt lat="53.40268" lon="-1.7871533"><ele>241.0</ele><time>2026-05-03T16:54:25.782Z</time></trkpt><trkpt lat="53.4026583" lon="-1.78705"><ele>241.0</ele><time>2026-05-03T16:54:26.782Z</time></trkpt><trkpt lat="53.40263" lon="-1.7868967"><ele>240.99999999999997</ele><time>2026-05-03T16:54:28.782Z</time></trkpt><trkpt lat="53.40259" lon="-1.786795"><ele>241.0</ele><time>2026-05-03T16:54:41.784Z</time></trkpt><trkpt lat="53.4025533" lon="-1.7866067"><ele>242.0</ele><time>2026-05-03T16:54:43.784Z</time></trkpt><trkpt lat="53.4025317" lon="-1.7864633"><ele>243.0</ele><time>2026-05-03T16:54:44.781Z</time></trkpt><trkpt lat="53.4024967" lon="-1.7862917"><ele>244.0</ele><time>2026-05-03T16:54:45.783Z</time></trkpt><trkpt lat="53.4024583" lon="-1.7860883"><ele>245.0</ele><time>2026-05-03T16:54:46.785Z</time></trkpt><trkpt lat="53.4024067" lon="-1.78588"><ele>245.75</ele><time>2026-05-03T16:54:47.784Z</time></trkpt><trkpt lat="53.402335" lon="-1.785675"><ele>246.5</ele><time>2026-05-03T16:54:48.787Z</time></trkpt><trkpt lat="53.4022533" lon="-1.7854783"><ele>247.25</ele><time>2026-05-03T16:54:49.784Z</time></trkpt><trkpt lat="53.4021533" lon="-1.7852933"><ele>248.0</ele><time>2026-05-03T16:54:50.786Z</time></trkpt><trkpt lat="53.402035" lon="-1.7851267"><ele>248.0</ele><time>2026-05-03T16:54:51.787Z</time></trkpt><trkpt lat="53.4019133" lon="-1.78497"><ele>248.0</ele><time>2026-05-03T16:54:52.786Z</time></trkpt><trkpt lat="53.4017967" lon="-1.784825"><ele>248.0</ele><time>2026-05-03T16:54:53.783Z</time></trkpt><trkpt lat="53.4016933" lon="-1.7846683"><ele>248.0</ele><time>2026-05-03T16:54:54.783Z</time></trkpt><trkpt lat="53.401605" lon="-1.784485"><ele>250.33333333333334</ele><time>2026-05-03T16:54:55.784Z</time></trkpt><trkpt lat="53.401535" lon="-1.7842683"><ele>252.66666666666669</ele><time>2026-05-03T16:54:56.783Z</time></trkpt><trkpt lat="53.401485" lon="-1.784015"><ele>255.0</ele><time>2026-05-03T16:54:57.783Z</time></trkpt><trkpt lat="53.401455" lon="-1.78374"><ele>255.0</ele><time>2026-05-03T16:54:58.786Z</time></trkpt><trkpt lat="53.4014417" lon="-1.7834533"><ele>255.0</ele><time>2026-05-03T16:54:59.787Z</time></trkpt><trkpt lat="53.4014433" lon="-1.7831633"><ele>255.0</ele><time>2026-05-03T16:55:00.783Z</time></trkpt><trkpt lat="53.4014617" lon="-1.7828733"><ele>254.33333333333331</ele><time>2026-05-03T16:55:01.783Z</time></trkpt><trkpt lat="53.4015" lon="-1.7825983"><ele>253.66666666666666</ele><time>2026-05-03T16:55:02.786Z</time></trkpt><trkpt lat="53.4015467" lon="-1.7823417"><ele>253.0</ele><time>2026-05-03T16:55:03.782Z</time></trkpt><trkpt lat="53.4015817" lon="-1.7821033"><ele>253.0</ele><time>2026-05-03T16:55:04.787Z</time></trkpt><trkpt lat="53.4016017" lon="-1.781865"><ele>253.0</ele><time>2026-05-03T16:55:05.783Z</time></trkpt><trkpt lat="53.4016033" lon="-1.7816317"><ele>253.0</ele><time>2026-05-03T16:55:06.783Z</time></trkpt><trkpt lat="53.4015783" lon="-1.781405"><ele>253.0</ele><time>2026-05-03T16:55:07.784Z</time></trkpt><trkpt lat="53.40152" lon="-1.781175"><ele>256.0</ele><time>2026-05-03T16:55:08.782Z</time></trkpt><trkpt lat="53.401435" lon="-1.7809567"><ele>259.0</ele><time>2026-05-03T16:55:09.783Z</time></trkpt><trkpt lat="53.401325" lon="-1.780755"><ele>262.0</ele><time>2026-05-03T16:55:10.783Z</time></trkpt><trkpt lat="53.4012067" lon="-1.7805567"><ele>259.0</ele><time>2026-05-03T16:55:11.784Z</time></trkpt><trkpt lat="53.4010983" lon="-1.7803633"><ele>256.0</ele><time>2026-05-03T16:55:12.783Z</time></trkpt><trkpt lat="53.400995" lon="-1.7801733"><ele>253.0</ele><time>2026-05-03T16:55:13.784Z</time></trkpt><trkpt lat="53.4009083" lon="-1.7799567"><ele>253.0</ele><time>2026-05-03T16:55:14.783Z</time></trkpt><trkpt lat="53.400825" lon="-1.7797217"><ele>253.0</ele><time>2026-05-03T16:55:15.783Z</time></trkpt><trkpt lat="53.4007483" lon="-1.7794583"><ele>253.0</ele><time>2026-05-03T16:55:16.784Z</time></trkpt><trkpt lat="53.4006833" lon="-1.7791767"><ele>251.66666666666666</ele><time>2026-05-03T16:55:17.784Z</time></trkpt><trkpt lat="53.4006167" lon="-1.7788983"><ele>250.33333333333331</ele><time>2026-05-03T16:55:18.783Z</time></trkpt><trkpt lat="53.40054" lon="-1.7786333"><ele>249.0</ele><time>2026-05-03T16:55:19.784Z</time></trkpt><trkpt lat="53.4004533" lon="-1.7783817"><ele>249.0</ele><time>2026-05-03T16:55:20.787Z</time></trkpt><trkpt lat="53.400375" lon="-1.7781333"><ele>249.0</ele><time>2026-05-03T16:55:21.783Z</time></trkpt><trkpt lat="53.4003" lon="-1.7778767"><ele>249.0</ele><time>2026-05-03T16:55:22.784Z</time></trkpt><trkpt lat="53.4002533" lon="-1.7776167"><ele>249.33333333333331</ele><time>2026-05-03T16:55:23.784Z</time></trkpt><trkpt lat="53.4002167" lon="-1.7773483"><ele>249.66666666666666</ele><time>2026-05-03T16:55:24.786Z</time></trkpt><trkpt lat="53.4001817" lon="-1.7770767"><ele>250.0</ele><time>2026-05-03T16:55:25.784Z</time></trkpt><trkpt lat="53.4001483" lon="-1.776805"><ele>250.0</ele><time>2026-05-03T16:55:26.783Z</time></trkpt><trkpt lat="53.4001217" lon="-1.776515"><ele>250.0</ele><time>2026-05-03T16:55:27.784Z</time></trkpt><trkpt lat="53.4001017" lon="-1.7762133"><ele>250.0</ele><time>2026-05-03T16:55:28.786Z</time></trkpt><trkpt lat="53.4000933" lon="-1.7759017"><ele>250.0</ele><time>2026-05-03T16:55:29.787Z</time></trkpt><trkpt lat="53.4000867" lon="-1.7755917"><ele>250.0</ele><time>2026-05-03T16:55:30.783Z</time></trkpt><trkpt lat="53.4000733" lon="-1.7752683"><ele>250.0</ele><time>2026-05-03T16:55:31.782Z</time></trkpt><trkpt lat="53.4000483" lon="-1.7749383"><ele>249.66666666666666</ele><time>2026-05-03T16:55:32.781Z</time></trkpt><trkpt lat="53.4" lon="-1.7746133"><ele>249.33333333333331</ele><time>2026-05-03T16:55:33.787Z</time></trkpt><trkpt lat="53.399935" lon="-1.7743083"><ele>249.0</ele><time>2026-05-03T16:55:34.785Z</time></trkpt><trkpt lat="53.39986" lon="-1.7740183"><ele>249.66666666666669</ele><time>2026-05-03T16:55:35.787Z</time></trkpt><trkpt lat="53.3997783" lon="-1.773745"><ele>250.33333333333334</ele><time>2026-05-03T16:55:36.786Z</time></trkpt><trkpt lat="53.39969" lon="-1.7734967"><ele>251.0</ele><time>2026-05-03T16:55:37.783Z</time></trkpt><trkpt lat="53.3996" lon="-1.773265"><ele>249.33333333333334</ele><time>2026-05-03T16:55:38.787Z</time></trkpt><trkpt lat="53.3995067" lon="-1.7730383"><ele>247.66666666666669</ele><time>2026-05-03T16:55:39.783Z</time></trkpt><trkpt lat="53.399415" lon="-1.7728033"><ele>246.0</ele><time>2026-05-03T16:55:40.782Z</time></trkpt><trkpt lat="53.3993317" lon="-1.772555"><ele>246.0</ele><time>2026-05-03T16:55:41.784Z</time></trkpt><trkpt lat="53.39926" lon="-1.7722967"><ele>246.0</ele><time>2026-05-03T16:55:42.783Z</time></trkpt><trkpt lat="53.3992067" lon="-1.7720383"><ele>246.0</ele><time>2026-05-03T16:55:43.782Z</time></trkpt><trkpt lat="53.3991767" lon="-1.7717667"><ele>247.33333333333331</ele><time>2026-05-03T16:55:44.784Z</time></trkpt><trkpt lat="53.3991717" lon="-1.7714833"><ele>248.66666666666666</ele><time>2026-05-03T16:55:45.782Z</time></trkpt><trkpt lat="53.399165" lon="-1.7711917"><ele>250.0</ele><time>2026-05-03T16:55:46.783Z</time></trkpt><trkpt lat="53.3991583" lon="-1.7709133"><ele>251.0</ele><time>2026-05-03T16:55:47.783Z</time></trkpt><trkpt lat="53.3991317" lon="-1.770635"><ele>252.0</ele><time>2026-05-03T16:55:48.787Z</time></trkpt><trkpt lat="53.3990883" lon="-1.7703533"><ele>253.0</ele><time>2026-05-03T16:55:49.784Z</time></trkpt><trkpt lat="53.3990283" lon="-1.770075"><ele>254.0</ele><time>2026-05-03T16:55:50.784Z</time></trkpt><trkpt lat="53.39896" lon="-1.7697967"><ele>255.0</ele><time>2026-05-03T16:55:51.783Z</time></trkpt><trkpt lat="53.3988833" lon="-1.76952"><ele>256.0</ele><time>2026-05-03T16:55:52.785Z</time></trkpt><trkpt lat="53.3988017" lon="-1.769245"><ele>255.33333333333331</ele><time>2026-05-03T16:55:53.786Z</time></trkpt><trkpt lat="53.3987167" lon="-1.768985"><ele>254.66666666666669</ele><time>2026-05-03T16:55:54.784Z</time></trkpt><trkpt lat="53.3986283" lon="-1.7687367"><ele>254.0</ele><time>2026-05-03T16:55:55.786Z</time></trkpt><trkpt lat="53.398535" lon="-1.7685017"><ele>254.0</ele><time>2026-05-03T16:55:56.784Z</time></trkpt><trkpt lat="53.3984433" lon="-1.7682733"><ele>254.0</ele><time>2026-05-03T16:55:57.785Z</time></trkpt><trkpt lat="53.398355" lon="-1.7680433"><ele>254.0</ele><time>2026-05-03T16:55:58.784Z</time></trkpt><trkpt lat="53.3982683" lon="-1.7678"><ele>255.33333333333334</ele><time>2026-05-03T16:55:59.785Z</time></trkpt><trkpt lat="53.3981933" lon="-1.7675383"><ele>256.6666666666667</ele><time>2026-05-03T16:56:00.786Z</time></trkpt><trkpt lat="53.3981267" lon="-1.767255"><ele>258.0</ele><time>2026-05-03T16:56:01.785Z</time></trkpt><trkpt lat="53.39806" lon="-1.7669533"><ele>255.0</ele><time>2026-05-03T16:56:02.784Z</time></trkpt><trkpt lat="53.397995" lon="-1.766655"><ele>252.0</ele><time>2026-05-03T16:56:03.786Z</time></trkpt><trkpt lat="53.3979317" lon="-1.7663583"><ele>249.0</ele><time>2026-05-03T16:56:04.785Z</time></trkpt><trkpt lat="53.3978717" lon="-1.7660617"><ele>250.66666666666669</ele><time>2026-05-03T16:56:05.785Z</time></trkpt><trkpt lat="53.3978083" lon="-1.765765"><ele>252.33333333333334</ele><time>2026-05-03T16:56:06.786Z</time></trkpt><trkpt lat="53.3977383" lon="-1.7654583"><ele>254.0</ele><time>2026-05-03T16:56:07.785Z</time></trkpt><trkpt lat="53.3976567" lon="-1.7651467"><ele>255.66666666666669</ele><time>2026-05-03T16:56:08.786Z</time></trkpt><trkpt lat="53.39757" lon="-1.7648417"><ele>257.3333333333333</ele><time>2026-05-03T16:56:09.785Z</time></trkpt><trkpt lat="53.3974867" lon="-1.7645367"><ele>259.0</ele><time>2026-05-03T16:56:10.785Z</time></trkpt><trkpt lat="53.3973917" lon="-1.7642283"><ele>258.3333333333333</ele><time>2026-05-03T16:56:11.785Z</time></trkpt><trkpt lat="53.3972983" lon="-1.7639433"><ele>257.6666666666667</ele><time>2026-05-03T16:56:12.789Z</time></trkpt><trkpt lat="53.3971817" lon="-1.7636633"><ele>257.0</ele><time>2026-05-03T16:56:13.784Z</time></trkpt><trkpt lat="53.3970467" lon="-1.7633983"><ele>257.0</ele><time>2026-05-03T16:56:14.785Z</time></trkpt><trkpt lat="53.3969117" lon="-1.763155"><ele>257.0</ele><time>2026-05-03T16:56:15.785Z</time></trkpt><trkpt lat="53.3967767" lon="-1.762915"><ele>257.0</ele><time>2026-05-03T16:56:16.785Z</time></trkpt><trkpt lat="53.3966433" lon="-1.762675"><ele>259.33333333333337</ele><time>2026-05-03T16:56:17.785Z</time></trkpt><trkpt lat="53.3965117" lon="-1.7624267"><ele>261.6666666666667</ele><time>2026-05-03T16:56:18.784Z</time></trkpt><trkpt lat="53.3963867" lon="-1.762165"><ele>264.0</ele><time>2026-05-03T16:56:19.785Z</time></trkpt><trkpt lat="53.3962717" lon="-1.7618967"><ele>261.0</ele><time>2026-05-03T16:56:20.785Z</time></trkpt><trkpt lat="53.39616" lon="-1.7616217"><ele>258.0</ele><time>2026-05-03T16:56:21.785Z</time></trkpt><trkpt lat="53.3960467" lon="-1.76134"><ele>255.0</ele><time>2026-05-03T16:56:22.784Z</time></trkpt><trkpt lat="53.3959233" lon="-1.7610317"><ele>255.0</ele><time>2026-05-03T16:56:23.785Z</time></trkpt><trkpt lat="53.395805" lon="-1.7607317"><ele>255.0</ele><time>2026-05-03T16:56:24.785Z</time></trkpt><trkpt lat="53.3957017" lon="-1.7604167"><ele>255.0</ele><time>2026-05-03T16:56:25.786Z</time></trkpt><trkpt lat="53.395615" lon="-1.7601117"><ele>256.3333333333333</ele><time>2026-05-03T16:56:26.786Z</time></trkpt><trkpt lat="53.395535" lon="-1.7598117"><ele>257.66666666666663</ele><time>2026-05-03T16:56:27.785Z</time></trkpt><trkpt lat="53.3954433" lon="-1.7595083"><ele>259.0</ele><time>2026-05-03T16:56:28.785Z</time></trkpt><trkpt lat="53.3953767" lon="-1.7592433"><ele>258.0</ele><time>2026-05-03T16:56:29.785Z</time></trkpt><trkpt lat="53.3953217" lon="-1.7589917"><ele>257.0</ele><time>2026-05-03T16:56:30.787Z</time></trkpt><trkpt lat="53.3952683" lon="-1.7587533"><ele>256.0</ele><time>2026-05-03T16:56:31.783Z</time></trkpt><trkpt lat="53.3952133" lon="-1.7585417"><ele>255.0</ele><time>2026-05-03T16:56:32.784Z</time></trkpt><trkpt lat="53.3951367" lon="-1.758345"><ele>255.0</ele><time>2026-05-03T16:56:33.787Z</time></trkpt><trkpt lat="53.3950417" lon="-1.758175"><ele>255.0</ele><time>2026-05-03T16:56:34.783Z</time></trkpt><trkpt lat="53.39493" lon="-1.7580167"><ele>255.0</ele><time>2026-05-03T16:56:35.785Z</time></trkpt><trkpt lat="53.3947983" lon="-1.7578717"><ele>255.0</ele><time>2026-05-03T16:56:36.783Z</time></trkpt><trkpt lat="53.3946617" lon="-1.7577117"><ele>253.33333333333331</ele><time>2026-05-03T16:56:37.782Z</time></trkpt><trkpt lat="53.39453" lon="-1.7575433"><ele>251.66666666666666</ele><time>2026-05-03T16:56:38.783Z</time></trkpt><trkpt lat="53.394405" lon="-1.7573533"><ele>250.0</ele><time>2026-05-03T16:56:39.782Z</time></trkpt><trkpt lat="53.3942833" lon="-1.7571267"><ele>250.0</ele><time>2026-05-03T16:56:40.783Z</time></trkpt><trkpt lat="53.3941583" lon="-1.7568733"><ele>250.0</ele><time>2026-05-03T16:56:41.784Z</time></trkpt><trkpt lat="53.3940217" lon="-1.7566367"><ele>250.0</ele><time>2026-05-03T16:56:42.783Z</time></trkpt><trkpt lat="53.3939017" lon="-1.7563783"><ele>248.0</ele><time>2026-05-03T16:56:43.784Z</time></trkpt><trkpt lat="53.3937717" lon="-1.7561217"><ele>246.0</ele><time>2026-05-03T16:56:44.783Z</time></trkpt><trkpt lat="53.3936567" lon="-1.7558583"><ele>244.0</ele><time>2026-05-03T16:56:45.782Z</time></trkpt><trkpt lat="53.393535" lon="-1.75559"><ele>244.0</ele><time>2026-05-03T16:56:46.784Z</time></trkpt><trkpt lat="53.3934167" lon="-1.75532"><ele>244.0</ele><time>2026-05-03T16:56:47.783Z</time></trkpt><trkpt lat="53.3932917" lon="-1.7550517"><ele>244.0</ele><time>2026-05-03T16:56:48.783Z</time></trkpt><trkpt lat="53.3931733" lon="-1.7547783"><ele>241.33333333333331</ele><time>2026-05-03T16:56:49.783Z</time></trkpt><trkpt lat="53.3930417" lon="-1.75453"><ele>238.66666666666669</ele><time>2026-05-03T16:56:50.783Z</time></trkpt><trkpt lat="53.3929217" lon="-1.7542767"><ele>236.0</ele><time>2026-05-03T16:56:51.783Z</time></trkpt><trkpt lat="53.3928067" lon="-1.7540167"><ele>236.0</ele><time>2026-05-03T16:56:52.784Z</time></trkpt><trkpt lat="53.39271" lon="-1.75377"><ele>236.0</ele><time>2026-05-03T16:56:53.783Z</time></trkpt><trkpt lat="53.3926033" lon="-1.7535217"><ele>236.0</ele><time>2026-05-03T16:56:54.783Z</time></trkpt><trkpt lat="53.392515" lon="-1.753285"><ele>238.25</ele><time>2026-05-03T16:56:55.783Z</time></trkpt><trkpt lat="53.392435" lon="-1.753065"><ele>240.5</ele><time>2026-05-03T16:56:56.783Z</time></trkpt><trkpt lat="53.3923333" lon="-1.75288"><ele>242.75</ele><time>2026-05-03T16:56:57.783Z</time></trkpt><trkpt lat="53.3922517" lon="-1.752705"><ele>245.0</ele><time>2026-05-03T16:56:58.783Z</time></trkpt><trkpt lat="53.392125" lon="-1.752555"><ele>245.0</ele><time>2026-05-03T16:56:59.784Z</time></trkpt><trkpt lat="53.39198" lon="-1.75243"><ele>245.0</ele><time>2026-05-03T16:57:00.784Z</time></trkpt><trkpt lat="53.39182" lon="-1.752335"><ele>245.0</ele><time>2026-05-03T16:57:01.783Z</time></trkpt><trkpt lat="53.39164" lon="-1.7522583"><ele>245.0</ele><time>2026-05-03T16:57:02.783Z</time></trkpt><trkpt lat="53.3914617" lon="-1.7522"><ele>245.0</ele><time>2026-05-03T16:57:03.782Z</time></trkpt><trkpt lat="53.3912833" lon="-1.7521633"><ele>245.0</ele><time>2026-05-03T16:57:04.783Z</time></trkpt><trkpt lat="53.3910933" lon="-1.7521483"><ele>243.0</ele><time>2026-05-03T16:57:05.784Z</time></trkpt><trkpt lat="53.3908983" lon="-1.752145"><ele>241.0</ele><time>2026-05-03T16:57:06.783Z</time></trkpt><trkpt lat="53.3907117" lon="-1.7521583"><ele>239.0</ele><time>2026-05-03T16:57:07.783Z</time></trkpt><trkpt lat="53.3905217" lon="-1.7521917"><ele>239.0</ele><time>2026-05-03T16:57:08.783Z</time></trkpt><trkpt lat="53.39033" lon="-1.7522433"><ele>239.0</ele><time>2026-05-03T16:57:09.784Z</time></trkpt><trkpt lat="53.3901417" lon="-1.7522967"><ele>239.0</ele><time>2026-05-03T16:57:10.783Z</time></trkpt><trkpt lat="53.38995" lon="-1.7523633"><ele>239.0</ele><time>2026-05-03T16:57:11.784Z</time></trkpt><trkpt lat="53.389765" lon="-1.752435"><ele>239.0</ele><time>2026-05-03T16:57:12.782Z</time></trkpt><trkpt lat="53.38959" lon="-1.752485"><ele>239.0</ele><time>2026-05-03T16:57:13.782Z</time></trkpt><trkpt lat="53.3894167" lon="-1.7525333"><ele>239.0</ele><time>2026-05-03T16:57:14.782Z</time></trkpt><trkpt lat="53.3892383" lon="-1.752575"><ele>239.0</ele><time>2026-05-03T16:57:15.783Z</time></trkpt><trkpt lat="53.3890567" lon="-1.7526067"><ele>239.0</ele><time>2026-05-03T16:57:16.784Z</time></trkpt><trkpt lat="53.388875" lon="-1.7526283"><ele>240.0</ele><time>2026-05-03T16:57:17.784Z</time></trkpt><trkpt lat="53.3887033" lon="-1.7526433"><ele>241.0</ele><time>2026-05-03T16:57:18.783Z</time></trkpt><trkpt lat="53.388545" lon="-1.75266"><ele>242.0</ele><time>2026-05-03T16:57:19.785Z</time></trkpt><trkpt lat="53.3883933" lon="-1.75268"><ele>237.25</ele><time>2026-05-03T16:57:20.784Z</time></trkpt><trkpt lat="53.3882483" lon="-1.7527133"><ele>232.5</ele><time>2026-05-03T16:57:21.783Z</time></trkpt><trkpt lat="53.3881083" lon="-1.7527533"><ele>227.75</ele><time>2026-05-03T16:57:22.782Z</time></trkpt><trkpt lat="53.3879567" lon="-1.752785"><ele>223.0</ele><time>2026-05-03T16:57:23.784Z</time></trkpt><trkpt lat="53.3877933" lon="-1.7528183"><ele>223.0</ele><time>2026-05-03T16:57:24.784Z</time></trkpt><trkpt lat="53.3876217" lon="-1.7528583"><ele>223.0</ele><time>2026-05-03T16:57:25.783Z</time></trkpt><trkpt lat="53.3874533" lon="-1.7529117"><ele>223.0</ele><time>2026-05-03T16:57:26.783Z</time></trkpt><trkpt lat="53.387285" lon="-1.7529683"><ele>224.33333333333331</ele><time>2026-05-03T16:57:27.784Z</time></trkpt><trkpt lat="53.3871267" lon="-1.7530233"><ele>225.66666666666669</ele><time>2026-05-03T16:57:28.783Z</time></trkpt><trkpt lat="53.3869617" lon="-1.75307"><ele>227.0</ele><time>2026-05-03T16:57:29.783Z</time></trkpt><trkpt lat="53.3867983" lon="-1.7530983"><ele>227.0</ele><time>2026-05-03T16:57:30.782Z</time></trkpt><trkpt lat="53.38663" lon="-1.75312"><ele>227.0</ele><time>2026-05-03T16:57:31.787Z</time></trkpt><trkpt lat="53.386455" lon="-1.7531317"><ele>227.0</ele><time>2026-05-03T16:57:32.784Z</time></trkpt><trkpt lat="53.3862767" lon="-1.7531433"><ele>225.66666666666669</ele><time>2026-05-03T16:57:33.783Z</time></trkpt><trkpt lat="53.3860933" lon="-1.75314"><ele>224.33333333333331</ele><time>2026-05-03T16:57:34.783Z</time></trkpt><trkpt lat="53.3859033" lon="-1.75312"><ele>223.0</ele><time>2026-05-03T16:57:35.782Z</time></trkpt><trkpt lat="53.3857117" lon="-1.753075"><ele>223.0</ele><time>2026-05-03T16:57:36.783Z</time></trkpt><trkpt lat="53.3855167" lon="-1.753015"><ele>223.0</ele><time>2026-05-03T16:57:37.783Z</time></trkpt><trkpt lat="53.385325" lon="-1.75295"><ele>223.0</ele><time>2026-05-03T16:57:38.782Z</time></trkpt><trkpt lat="53.3851333" lon="-1.752885"><ele>221.0</ele><time>2026-05-03T16:57:39.783Z</time></trkpt><trkpt lat="53.3849417" lon="-1.7528067"><ele>219.0</ele><time>2026-05-03T16:57:40.783Z</time></trkpt><trkpt lat="53.3847483" lon="-1.7527117"><ele>217.0</ele><time>2026-05-03T16:57:41.782Z</time></trkpt><trkpt lat="53.384555" lon="-1.752595"><ele>217.0</ele><time>2026-05-03T16:57:42.783Z</time></trkpt><trkpt lat="53.3843733" lon="-1.752475"><ele>217.0</ele><time>2026-05-03T16:57:43.783Z</time></trkpt><trkpt lat="53.384195" lon="-1.7523367"><ele>217.0</ele><time>2026-05-03T16:57:44.782Z</time></trkpt><trkpt lat="53.3840167" lon="-1.752195"><ele>217.33333333333331</ele><time>2026-05-03T16:57:45.783Z</time></trkpt><trkpt lat="53.3838417" lon="-1.7520367"><ele>217.66666666666669</ele><time>2026-05-03T16:57:46.784Z</time></trkpt><trkpt lat="53.3836683" lon="-1.75187"><ele>218.0</ele><time>2026-05-03T16:57:47.783Z</time></trkpt><trkpt lat="53.3834983" lon="-1.7516983"><ele>218.0</ele><time>2026-05-03T16:57:48.783Z</time></trkpt><trkpt lat="53.3833367" lon="-1.751515"><ele>218.0</ele><time>2026-05-03T16:57:49.782Z</time></trkpt><trkpt lat="53.3831767" lon="-1.7513283"><ele>218.0</ele><time>2026-05-03T16:57:50.783Z</time></trkpt><trkpt lat="53.3830233" lon="-1.7511267"><ele>216.33333333333334</ele><time>2026-05-03T16:57:51.783Z</time></trkpt><trkpt lat="53.3828733" lon="-1.7509167"><ele>214.66666666666669</ele><time>2026-05-03T16:57:52.783Z</time></trkpt><trkpt lat="53.382725" lon="-1.7507"><ele>213.0</ele><time>2026-05-03T16:57:53.783Z</time></trkpt><trkpt lat="53.3825833" lon="-1.7504717"><ele>213.0</ele><time>2026-05-03T16:57:54.783Z</time></trkpt><trkpt lat="53.382455" lon="-1.7502083"><ele>213.0</ele><time>2026-05-03T16:57:55.784Z</time></trkpt><trkpt lat="53.38233" lon="-1.7499367"><ele>213.0</ele><time>2026-05-03T16:57:56.782Z</time></trkpt><trkpt lat="53.3822117" lon="-1.7496633"><ele>211.66666666666669</ele><time>2026-05-03T16:57:57.782Z</time></trkpt><trkpt lat="53.3821017" lon="-1.74939"><ele>210.33333333333334</ele><time>2026-05-03T16:57:58.781Z</time></trkpt><trkpt lat="53.382005" lon="-1.749115"><ele>209.0</ele><time>2026-05-03T16:57:59.784Z</time></trkpt><trkpt lat="53.3819167" lon="-1.7488417"><ele>209.0</ele><time>2026-05-03T16:58:00.783Z</time></trkpt><trkpt lat="53.3818367" lon="-1.7485617"><ele>209.0</ele><time>2026-05-03T16:58:01.783Z</time></trkpt><trkpt lat="53.3817633" lon="-1.74828"><ele>209.0</ele><time>2026-05-03T16:58:02.782Z</time></trkpt><trkpt lat="53.3816967" lon="-1.7479933"><ele>210.66666666666669</ele><time>2026-05-03T16:58:03.783Z</time></trkpt><trkpt lat="53.38163" lon="-1.7477083"><ele>212.33333333333331</ele><time>2026-05-03T16:58:04.781Z</time></trkpt><trkpt lat="53.3815617" lon="-1.7474267"><ele>214.0</ele><time>2026-05-03T16:58:05.784Z</time></trkpt><trkpt lat="53.3814967" lon="-1.7471467"><ele>213.0</ele><time>2026-05-03T16:58:06.783Z</time></trkpt><trkpt lat="53.38143" lon="-1.7468667"><ele>212.0</ele><time>2026-05-03T16:58:07.784Z</time></trkpt><trkpt lat="53.3813633" lon="-1.746585"><ele>211.0</ele><time>2026-05-03T16:58:08.782Z</time></trkpt><trkpt lat="53.3813" lon="-1.746305"><ele>210.66666666666666</ele><time>2026-05-03T16:58:09.783Z</time></trkpt><trkpt lat="53.3812367" lon="-1.7460233"><ele>210.33333333333331</ele><time>2026-05-03T16:58:10.784Z</time></trkpt><trkpt lat="53.3811717" lon="-1.7457417"><ele>210.0</ele><time>2026-05-03T16:58:11.783Z</time></trkpt><trkpt lat="53.381105" lon="-1.7454583"><ele>210.66666666666669</ele><time>2026-05-03T16:58:12.786Z</time></trkpt><trkpt lat="53.3810367" lon="-1.745175"><ele>211.33333333333334</ele><time>2026-05-03T16:58:13.784Z</time></trkpt><trkpt lat="53.3809683" lon="-1.7448867"><ele>212.0</ele><time>2026-05-03T16:58:14.783Z</time></trkpt><trkpt lat="53.3808967" lon="-1.744595"><ele>213.0</ele><time>2026-05-03T16:58:15.783Z</time></trkpt><trkpt lat="53.3808267" lon="-1.744305"><ele>214.0</ele><time>2026-05-03T16:58:16.783Z</time></trkpt><trkpt lat="53.3807583" lon="-1.7440167"><ele>215.0</ele><time>2026-05-03T16:58:17.783Z</time></trkpt><trkpt lat="53.3806883" lon="-1.7437267"><ele>215.66666666666669</ele><time>2026-05-03T16:58:18.782Z</time></trkpt><trkpt lat="53.3806183" lon="-1.74344"><ele>216.33333333333331</ele><time>2026-05-03T16:58:19.782Z</time></trkpt><trkpt lat="53.3805483" lon="-1.74316"><ele>217.0</ele><time>2026-05-03T16:58:20.783Z</time></trkpt><trkpt lat="53.38048" lon="-1.7428817"><ele>215.33333333333331</ele><time>2026-05-03T16:58:21.782Z</time></trkpt><trkpt lat="53.38041" lon="-1.7426117"><ele>213.66666666666669</ele><time>2026-05-03T16:58:22.783Z</time></trkpt><trkpt lat="53.3803433" lon="-1.7423433"><ele>212.0</ele><time>2026-05-03T16:58:23.783Z</time></trkpt><trkpt lat="53.3802767" lon="-1.742075"><ele>214.0</ele><time>2026-05-03T16:58:24.782Z</time></trkpt><trkpt lat="53.3802117" lon="-1.7418067"><ele>216.0</ele><time>2026-05-03T16:58:25.783Z</time></trkpt><trkpt lat="53.3801483" lon="-1.7415417"><ele>218.0</ele><time>2026-05-03T16:58:26.784Z</time></trkpt><trkpt lat="53.3800817" lon="-1.7412667"><ele>220.33333333333334</ele><time>2026-05-03T16:58:27.783Z</time></trkpt><trkpt lat="53.3800167" lon="-1.740985"><ele>222.66666666666669</ele><time>2026-05-03T16:58:28.783Z</time></trkpt><trkpt lat="53.3799517" lon="-1.7407083"><ele>225.0</ele><time>2026-05-03T16:58:29.782Z</time></trkpt><trkpt lat="53.3798867" lon="-1.7404317"><ele>228.33333333333331</ele><time>2026-05-03T16:58:30.787Z</time></trkpt><trkpt lat="53.3798133" lon="-1.740155"><ele>231.66666666666666</ele><time>2026-05-03T16:58:31.783Z</time></trkpt><trkpt lat="53.3797433" lon="-1.73988"><ele>235.0</ele><time>2026-05-03T16:58:32.783Z</time></trkpt><trkpt lat="53.3796767" lon="-1.7396017"><ele>227.66666666666666</ele><time>2026-05-03T16:58:33.783Z</time></trkpt><trkpt lat="53.3796067" lon="-1.73932"><ele>220.33333333333331</ele><time>2026-05-03T16:58:34.782Z</time></trkpt><trkpt lat="53.3795367" lon="-1.7390383"><ele>213.0</ele><time>2026-05-03T16:58:35.784Z</time></trkpt><trkpt lat="53.379465" lon="-1.738755"><ele>214.66666666666669</ele><time>2026-05-03T16:58:36.785Z</time></trkpt><trkpt lat="53.379395" lon="-1.7384717"><ele>216.33333333333334</ele><time>2026-05-03T16:58:37.784Z</time></trkpt><trkpt lat="53.3793233" lon="-1.7381817"><ele>218.0</ele><time>2026-05-03T16:58:38.782Z</time></trkpt><trkpt lat="53.3792483" lon="-1.7378917"><ele>219.66666666666669</ele><time>2026-05-03T16:58:39.782Z</time></trkpt><trkpt lat="53.3791733" lon="-1.737595"><ele>221.33333333333331</ele><time>2026-05-03T16:58:40.782Z</time></trkpt><trkpt lat="53.3791" lon="-1.737295"><ele>223.0</ele><time>2026-05-03T16:58:41.784Z</time></trkpt><trkpt lat="53.3790317" lon="-1.7370017"><ele>226.33333333333331</ele><time>2026-05-03T16:58:42.783Z</time></trkpt><trkpt lat="53.3789567" lon="-1.7367183"><ele>229.66666666666669</ele><time>2026-05-03T16:58:43.781Z</time></trkpt><trkpt lat="53.378885" lon="-1.736445"><ele>233.0</ele><time>2026-05-03T16:58:44.782Z</time></trkpt><trkpt lat="53.3788217" lon="-1.73618"><ele>226.33333333333334</ele><time>2026-05-03T16:58:45.782Z</time></trkpt><trkpt lat="53.3787583" lon="-1.735935"><ele>219.66666666666669</ele><time>2026-05-03T16:58:46.782Z</time></trkpt><trkpt lat="53.3786967" lon="-1.7357017"><ele>213.0</ele><time>2026-05-03T16:58:47.783Z</time></trkpt><trkpt lat="53.3786333" lon="-1.7354767"><ele>213.0</ele><time>2026-05-03T16:58:48.783Z</time></trkpt><trkpt lat="53.378565" lon="-1.735265"><ele>213.0</ele><time>2026-05-03T16:58:49.783Z</time></trkpt><trkpt lat="53.3784917" lon="-1.7350433"><ele>213.0</ele><time>2026-05-03T16:58:50.782Z</time></trkpt><trkpt lat="53.3784083" lon="-1.7348117"><ele>215.33333333333331</ele><time>2026-05-03T16:58:51.783Z</time></trkpt><trkpt lat="53.3783017" lon="-1.7345517"><ele>217.66666666666666</ele><time>2026-05-03T16:58:52.783Z</time></trkpt><trkpt lat="53.3781833" lon="-1.7342933"><ele>220.0</ele><time>2026-05-03T16:58:53.783Z</time></trkpt><trkpt lat="53.3780533" lon="-1.734045"><ele>221.66666666666666</ele><time>2026-05-03T16:58:54.783Z</time></trkpt><trkpt lat="53.37792" lon="-1.7337883"><ele>223.33333333333331</ele><time>2026-05-03T16:58:55.784Z</time></trkpt><trkpt lat="53.3777767" lon="-1.7335433"><ele>225.0</ele><time>2026-05-03T16:58:56.783Z</time></trkpt><trkpt lat="53.377635" lon="-1.7332883"><ele>225.0</ele><time>2026-05-03T16:58:57.782Z</time></trkpt><trkpt lat="53.37749" lon="-1.733045"><ele>225.0</ele><time>2026-05-03T16:58:58.783Z</time></trkpt><trkpt lat="53.37734" lon="-1.7327867"><ele>225.0</ele><time>2026-05-03T16:58:59.784Z</time></trkpt><trkpt lat="53.3771933" lon="-1.732535"><ele>227.0</ele><time>2026-05-03T16:59:00.782Z</time></trkpt><trkpt lat="53.37705" lon="-1.7322833"><ele>229.0</ele><time>2026-05-03T16:59:01.782Z</time></trkpt><trkpt lat="53.376905" lon="-1.7320517"><ele>231.0</ele><time>2026-05-03T16:59:02.783Z</time></trkpt><trkpt lat="53.3767617" lon="-1.7318333"><ele>231.0</ele><time>2026-05-03T16:59:03.782Z</time></trkpt><trkpt lat="53.37663" lon="-1.7316217"><ele>231.0</ele><time>2026-05-03T16:59:04.783Z</time></trkpt><trkpt lat="53.3764983" lon="-1.7314133"><ele>231.0</ele><time>2026-05-03T16:59:05.782Z</time></trkpt><trkpt lat="53.3763667" lon="-1.73121"><ele>228.33333333333331</ele><time>2026-05-03T16:59:06.782Z</time></trkpt><trkpt lat="53.3762317" lon="-1.731"><ele>225.66666666666666</ele><time>2026-05-03T16:59:07.782Z</time></trkpt><trkpt lat="53.3761033" lon="-1.7307883"><ele>223.0</ele><time>2026-05-03T16:59:08.783Z</time></trkpt><trkpt lat="53.3759783" lon="-1.730575"><ele>223.0</ele><time>2026-05-03T16:59:09.783Z</time></trkpt><trkpt lat="53.3758433" lon="-1.7303533"><ele>223.0</ele><time>2026-05-03T16:59:10.783Z</time></trkpt><trkpt lat="53.375705" lon="-1.7301233"><ele>223.0</ele><time>2026-05-03T16:59:11.782Z</time></trkpt><trkpt lat="53.37557" lon="-1.7298867"><ele>224.0</ele><time>2026-05-03T16:59:12.782Z</time></trkpt><trkpt lat="53.3754283" lon="-1.7296467"><ele>225.0</ele><time>2026-05-03T16:59:13.783Z</time></trkpt><trkpt lat="53.3752833" lon="-1.7293983"><ele>226.0</ele><time>2026-05-03T16:59:14.786Z</time></trkpt><trkpt lat="53.37514" lon="-1.729135"><ele>226.0</ele><time>2026-05-03T16:59:15.783Z</time></trkpt><trkpt lat="53.3749917" lon="-1.72887"><ele>226.0</ele><time>2026-05-03T16:59:16.783Z</time></trkpt><trkpt lat="53.3748417" lon="-1.728615"><ele>226.0</ele><time>2026-05-03T16:59:17.784Z</time></trkpt><trkpt lat="53.3747" lon="-1.7283583"><ele>224.33333333333331</ele><time>2026-05-03T16:59:18.782Z</time></trkpt><trkpt lat="53.3745567" lon="-1.7281"><ele>222.66666666666669</ele><time>2026-05-03T16:59:19.782Z</time></trkpt><trkpt lat="53.37442" lon="-1.7278517"><ele>221.0</ele><time>2026-05-03T16:59:20.784Z</time></trkpt><trkpt lat="53.37429" lon="-1.7276167"><ele>221.0</ele><time>2026-05-03T16:59:21.783Z</time></trkpt><trkpt lat="53.3741633" lon="-1.72739"><ele>221.0</ele><time>2026-05-03T16:59:22.783Z</time></trkpt><trkpt lat="53.3740433" lon="-1.72716"><ele>221.0</ele><time>2026-05-03T16:59:23.783Z</time></trkpt><trkpt lat="53.3739233" lon="-1.7269333"><ele>218.0</ele><time>2026-05-03T16:59:24.783Z</time></trkpt><trkpt lat="53.3738033" lon="-1.7267033"><ele>215.0</ele><time>2026-05-03T16:59:25.783Z</time></trkpt><trkpt lat="53.3736917" lon="-1.7264583"><ele>212.0</ele><time>2026-05-03T16:59:26.783Z</time></trkpt><trkpt lat="53.3735833" lon="-1.7262167"><ele>214.66666666666669</ele><time>2026-05-03T16:59:27.783Z</time></trkpt><trkpt lat="53.3734933" lon="-1.7259617"><ele>217.33333333333331</ele><time>2026-05-03T16:59:28.783Z</time></trkpt><trkpt lat="53.3734333" lon="-1.72569"><ele>220.0</ele><time>2026-05-03T16:59:29.783Z</time></trkpt><trkpt lat="53.3733717" lon="-1.7254067"><ele>220.66666666666666</ele><time>2026-05-03T16:59:30.783Z</time></trkpt><trkpt lat="53.3733417" lon="-1.7251017"><ele>221.33333333333331</ele><time>2026-05-03T16:59:31.783Z</time></trkpt><trkpt lat="53.3733183" lon="-1.72479"><ele>222.0</ele><time>2026-05-03T16:59:32.782Z</time></trkpt><trkpt lat="53.373315" lon="-1.7244783"><ele>222.33333333333331</ele><time>2026-05-03T16:59:33.783Z</time></trkpt><trkpt lat="53.3733583" lon="-1.724175"><ele>222.66666666666666</ele><time>2026-05-03T16:59:34.782Z</time></trkpt><trkpt lat="53.3734183" lon="-1.723875"><ele>223.0</ele><time>2026-05-03T16:59:35.783Z</time></trkpt><trkpt lat="53.3735383" lon="-1.72358"><ele>221.0</ele><time>2026-05-03T16:59:36.783Z</time></trkpt><trkpt lat="53.3736717" lon="-1.72334"><ele>219.0</ele><time>2026-05-03T16:59:37.785Z</time></trkpt><trkpt lat="53.373765" lon="-1.7230367"><ele>217.0</ele><time>2026-05-03T16:59:38.781Z</time></trkpt><trkpt lat="53.3738733" lon="-1.7227583"><ele>223.33333333333331</ele><time>2026-05-03T16:59:39.783Z</time></trkpt><trkpt lat="53.3739717" lon="-1.7224767"><ele>229.66666666666669</ele><time>2026-05-03T16:59:40.786Z</time></trkpt><trkpt lat="53.3740683" lon="-1.7221983"><ele>236.0</ele><time>2026-05-03T16:59:41.782Z</time></trkpt><trkpt lat="53.37416" lon="-1.721915"><ele>231.66666666666669</ele><time>2026-05-03T16:59:42.786Z</time></trkpt><trkpt lat="53.37425" lon="-1.721635"><ele>227.33333333333331</ele><time>2026-05-03T16:59:43.782Z</time></trkpt><trkpt lat="53.37433" lon="-1.7213467"><ele>223.0</ele><time>2026-05-03T16:59:44.782Z</time></trkpt><trkpt lat="53.3743983" lon="-1.7210483"><ele>220.66666666666666</ele><time>2026-05-03T16:59:45.787Z</time></trkpt><trkpt lat="53.3744683" lon="-1.7207617"><ele>218.33333333333331</ele><time>2026-05-03T16:59:46.785Z</time></trkpt><trkpt lat="53.3745317" lon="-1.72047"><ele>216.0</ele><time>2026-05-03T16:59:47.784Z</time></trkpt><trkpt lat="53.374595" lon="-1.720185"><ele>215.66666666666669</ele><time>2026-05-03T16:59:48.784Z</time></trkpt><trkpt lat="53.3746533" lon="-1.7199017"><ele>215.33333333333334</ele><time>2026-05-03T16:59:49.783Z</time></trkpt><trkpt lat="53.3747067" lon="-1.7196167"><ele>215.0</ele><time>2026-05-03T16:59:50.783Z</time></trkpt><trkpt lat="53.374755" lon="-1.7193283"><ele>221.33333333333334</ele><time>2026-05-03T16:59:51.781Z</time></trkpt><trkpt lat="53.374805" lon="-1.7190417"><ele>227.66666666666669</ele><time>2026-05-03T16:59:52.783Z</time></trkpt><trkpt lat="53.3748383" lon="-1.7187367"><ele>234.0</ele><time>2026-05-03T16:59:53.785Z</time></trkpt><trkpt lat="53.3748767" lon="-1.7184333"><ele>234.0</ele><time>2026-05-03T16:59:54.783Z</time></trkpt><trkpt lat="53.3749067" lon="-1.7181267"><ele>234.0</ele><time>2026-05-03T16:59:55.783Z</time></trkpt><trkpt lat="53.374945" lon="-1.717825"><ele>234.0</ele><time>2026-05-03T16:59:56.786Z</time></trkpt><trkpt lat="53.3749733" lon="-1.717525"><ele>232.0</ele><time>2026-05-03T16:59:57.782Z</time></trkpt><trkpt lat="53.3749917" lon="-1.7172283"><ele>230.0</ele><time>2026-05-03T16:59:58.783Z</time></trkpt><trkpt lat="53.375" lon="-1.7169217"><ele>228.0</ele><time>2026-05-03T16:59:59.784Z</time></trkpt><trkpt lat="53.375" lon="-1.7166133"><ele>227.33333333333331</ele><time>2026-05-03T17:00:00.782Z</time></trkpt><trkpt lat="53.3749917" lon="-1.7163067"><ele>226.66666666666666</ele><time>2026-05-03T17:00:01.785Z</time></trkpt><trkpt lat="53.3749817" lon="-1.7159967"><ele>226.0</ele><time>2026-05-03T17:00:02.784Z</time></trkpt><trkpt lat="53.3749567" lon="-1.7156883"><ele>224.33333333333331</ele><time>2026-05-03T17:00:03.781Z</time></trkpt><trkpt lat="53.37492" lon="-1.715385"><ele>222.66666666666669</ele><time>2026-05-03T17:00:04.784Z</time></trkpt><trkpt lat="53.3748767" lon="-1.715095"><ele>221.0</ele><time>2026-05-03T17:00:05.784Z</time></trkpt><trkpt lat="53.3748333" lon="-1.7148217"><ele>220.66666666666669</ele><time>2026-05-03T17:00:06.784Z</time></trkpt><trkpt lat="53.37479" lon="-1.7145583"><ele>220.33333333333331</ele><time>2026-05-03T17:00:07.784Z</time></trkpt><trkpt lat="53.3747533" lon="-1.71431"><ele>220.0</ele><time>2026-05-03T17:00:08.783Z</time></trkpt><trkpt lat="53.37472" lon="-1.7140567"><ele>218.66666666666666</ele><time>2026-05-03T17:00:09.783Z</time></trkpt><trkpt lat="53.3746967" lon="-1.7137883"><ele>217.33333333333331</ele><time>2026-05-03T17:00:10.783Z</time></trkpt><trkpt lat="53.37468" lon="-1.7135083"><ele>216.0</ele><time>2026-05-03T17:00:11.785Z</time></trkpt><trkpt lat="53.374675" lon="-1.71322"><ele>214.0</ele><time>2026-05-03T17:00:12.784Z</time></trkpt><trkpt lat="53.3746783" lon="-1.7129333"><ele>212.0</ele><time>2026-05-03T17:00:13.785Z</time></trkpt><trkpt lat="53.37468" lon="-1.7126417"><ele>210.0</ele><time>2026-05-03T17:00:14.786Z</time></trkpt><trkpt lat="53.3746817" lon="-1.7123483"><ele>209.66666666666669</ele><time>2026-05-03T17:00:15.787Z</time></trkpt><trkpt lat="53.3746783" lon="-1.712045"><ele>209.33333333333334</ele><time>2026-05-03T17:00:16.787Z</time></trkpt><trkpt lat="53.3746767" lon="-1.7117333"><ele>209.0</ele><time>2026-05-03T17:00:17.786Z</time></trkpt><trkpt lat="53.3746767" lon="-1.7114283"><ele>209.0</ele><time>2026-05-03T17:00:18.786Z</time></trkpt><trkpt lat="53.3746783" lon="-1.7111217"><ele>209.0</ele><time>2026-05-03T17:00:19.786Z</time></trkpt><trkpt lat="53.3746783" lon="-1.7108117"><ele>209.0</ele><time>2026-05-03T17:00:20.786Z</time></trkpt><trkpt lat="53.3746783" lon="-1.7105017"><ele>209.0</ele><time>2026-05-03T17:00:21.786Z</time></trkpt><trkpt lat="53.37468" lon="-1.710195"><ele>209.0</ele><time>2026-05-03T17:00:22.785Z</time></trkpt><trkpt lat="53.3746767" lon="-1.7098883"><ele>209.0</ele><time>2026-05-03T17:00:23.787Z</time></trkpt><trkpt lat="53.37467" lon="-1.7095767"><ele>209.33333333333334</ele><time>2026-05-03T17:00:24.786Z</time></trkpt><trkpt lat="53.374665" lon="-1.7092667"><ele>209.66666666666669</ele><time>2026-05-03T17:00:25.786Z</time></trkpt><trkpt lat="53.3746617" lon="-1.70896"><ele>210.0</ele><time>2026-05-03T17:00:26.786Z</time></trkpt><trkpt lat="53.3746517" lon="-1.708655"><ele>210.33333333333331</ele><time>2026-05-03T17:00:27.781Z</time></trkpt><trkpt lat="53.3746367" lon="-1.7083517"><ele>210.66666666666666</ele><time>2026-05-03T17:00:28.783Z</time></trkpt><trkpt lat="53.3746167" lon="-1.7080517"><ele>211.0</ele><time>2026-05-03T17:00:29.782Z</time></trkpt><trkpt lat="53.3745933" lon="-1.70775"><ele>211.66666666666666</ele><time>2026-05-03T17:00:30.783Z</time></trkpt><trkpt lat="53.374565" lon="-1.7074483"><ele>212.33333333333331</ele><time>2026-05-03T17:00:31.783Z</time></trkpt><trkpt lat="53.374535" lon="-1.707145"><ele>213.0</ele><time>2026-05-03T17:00:32.783Z</time></trkpt><trkpt lat="53.3745033" lon="-1.7068383"><ele>214.0</ele><time>2026-05-03T17:00:33.783Z</time></trkpt><trkpt lat="53.3744733" lon="-1.7065333"><ele>215.0</ele><time>2026-05-03T17:00:34.782Z</time></trkpt><trkpt lat="53.37444" lon="-1.7062333"><ele>216.0</ele><time>2026-05-03T17:00:35.782Z</time></trkpt><trkpt lat="53.374405" lon="-1.7059283"><ele>216.33333333333331</ele><time>2026-05-03T17:00:36.781Z</time></trkpt><trkpt lat="53.3743667" lon="-1.7056233"><ele>216.66666666666666</ele><time>2026-05-03T17:00:37.782Z</time></trkpt><trkpt lat="53.3743217" lon="-1.7053217"><ele>217.0</ele><time>2026-05-03T17:00:38.783Z</time></trkpt><trkpt lat="53.374275" lon="-1.7050217"><ele>217.33333333333331</ele><time>2026-05-03T17:00:39.782Z</time></trkpt><trkpt lat="53.3742267" lon="-1.7047233"><ele>217.66666666666669</ele><time>2026-05-03T17:00:40.782Z</time></trkpt><trkpt lat="53.3741783" lon="-1.704415"><ele>218.0</ele><time>2026-05-03T17:00:41.783Z</time></trkpt><trkpt lat="53.3741383" lon="-1.7041017"><ele>219.0</ele><time>2026-05-03T17:00:42.783Z</time></trkpt><trkpt lat="53.3741067" lon="-1.7037867"><ele>220.0</ele><time>2026-05-03T17:00:43.783Z</time></trkpt><trkpt lat="53.37408" lon="-1.7034717"><ele>221.0</ele><time>2026-05-03T17:00:44.783Z</time></trkpt><trkpt lat="53.3740567" lon="-1.7031633"><ele>221.66666666666669</ele><time>2026-05-03T17:00:45.786Z</time></trkpt><trkpt lat="53.374025" lon="-1.7028583"><ele>222.33333333333331</ele><time>2026-05-03T17:00:46.783Z</time></trkpt><trkpt lat="53.3739733" lon="-1.702555"><ele>223.0</ele><time>2026-05-03T17:00:47.782Z</time></trkpt><trkpt lat="53.3739017" lon="-1.7022517"><ele>219.66666666666666</ele><time>2026-05-03T17:00:48.782Z</time></trkpt><trkpt lat="53.3738167" lon="-1.701965"><ele>216.33333333333331</ele><time>2026-05-03T17:00:49.784Z</time></trkpt><trkpt lat="53.3737167" lon="-1.7016867"><ele>213.0</ele><time>2026-05-03T17:00:50.783Z</time></trkpt><trkpt lat="53.37361" lon="-1.701415"><ele>213.0</ele><time>2026-05-03T17:00:51.784Z</time></trkpt><trkpt lat="53.373505" lon="-1.7011467"><ele>213.0</ele><time>2026-05-03T17:00:52.783Z</time></trkpt><trkpt lat="53.37341" lon="-1.7008767"><ele>213.0</ele><time>2026-05-03T17:00:53.785Z</time></trkpt><trkpt lat="53.3733267" lon="-1.7006033"><ele>214.66666666666669</ele><time>2026-05-03T17:00:54.783Z</time></trkpt><trkpt lat="53.3732633" lon="-1.70032"><ele>216.33333333333334</ele><time>2026-05-03T17:00:55.783Z</time></trkpt><trkpt lat="53.3732217" lon="-1.7000267"><ele>218.0</ele><time>2026-05-03T17:00:56.783Z</time></trkpt><trkpt lat="53.3732017" lon="-1.6997183"><ele>217.66666666666669</ele><time>2026-05-03T17:00:57.783Z</time></trkpt><trkpt lat="53.37323" lon="-1.6993883"><ele>217.33333333333331</ele><time>2026-05-03T17:00:58.783Z</time></trkpt><trkpt lat="53.37328" lon="-1.699075"><ele>217.0</ele><time>2026-05-03T17:00:59.782Z</time></trkpt><trkpt lat="53.3733567" lon="-1.698795"><ele>215.75</ele><time>2026-05-03T17:01:00.781Z</time></trkpt><trkpt lat="53.3734367" lon="-1.6985517"><ele>214.5</ele><time>2026-05-03T17:01:01.784Z</time></trkpt><trkpt lat="53.3735067" lon="-1.6983517"><ele>213.25</ele><time>2026-05-03T17:01:02.782Z</time></trkpt><trkpt lat="53.373575" lon="-1.6982"><ele>212.0</ele><time>2026-05-03T17:01:03.786Z</time></trkpt><trkpt lat="53.3736317" lon="-1.6980683"><ele>212.0</ele><time>2026-05-03T17:01:04.782Z</time></trkpt><trkpt lat="53.3736867" lon="-1.6979533"><ele>212.0</ele><time>2026-05-03T17:01:05.783Z</time></trkpt><trkpt lat="53.3737333" lon="-1.6978517"><ele>212.0</ele><time>2026-05-03T17:01:06.783Z</time></trkpt><trkpt lat="53.373765" lon="-1.6977417"><ele>212.0</ele><time>2026-05-03T17:01:07.783Z</time></trkpt><trkpt lat="53.37378" lon="-1.6975533"><ele>212.0</ele><time>2026-05-03T17:01:09.783Z</time></trkpt><trkpt lat="53.3736933" lon="-1.6974"><ele>211.25</ele><time>2026-05-03T17:01:11.783Z</time></trkpt><trkpt lat="53.37361" lon="-1.697325"><ele>210.5</ele><time>2026-05-03T17:01:12.783Z</time></trkpt><trkpt lat="53.3735083" lon="-1.6972483"><ele>209.75</ele><time>2026-05-03T17:01:13.783Z</time></trkpt><trkpt lat="53.3733767" lon="-1.6971633"><ele>209.0</ele><time>2026-05-03T17:01:14.786Z</time></trkpt><trkpt lat="53.3732317" lon="-1.6970683"><ele>209.0</ele><time>2026-05-03T17:01:15.782Z</time></trkpt><trkpt lat="53.3730767" lon="-1.696955"><ele>209.0</ele><time>2026-05-03T17:01:16.782Z</time></trkpt><trkpt lat="53.37291" lon="-1.6968333"><ele>209.0</ele><time>2026-05-03T17:01:17.783Z</time></trkpt><trkpt lat="53.372735" lon="-1.6967133"><ele>209.33333333333334</ele><time>2026-05-03T17:01:18.783Z</time></trkpt><trkpt lat="53.3725667" lon="-1.6965967"><ele>209.66666666666669</ele><time>2026-05-03T17:01:19.782Z</time></trkpt><trkpt lat="53.37241" lon="-1.69648"><ele>210.0</ele><time>2026-05-03T17:01:20.782Z</time></trkpt><trkpt lat="53.3722667" lon="-1.6963767"><ele>211.25</ele><time>2026-05-03T17:01:21.782Z</time></trkpt><trkpt lat="53.3721267" lon="-1.696305"><ele>212.5</ele><time>2026-05-03T17:01:22.783Z</time></trkpt><trkpt lat="53.3719917" lon="-1.6962833"><ele>213.75</ele><time>2026-05-03T17:01:23.783Z</time></trkpt><trkpt lat="53.37185" lon="-1.6963083"><ele>215.0</ele><time>2026-05-03T17:01:24.782Z</time></trkpt><trkpt lat="53.3717017" lon="-1.69637"><ele>215.0</ele><time>2026-05-03T17:01:25.783Z</time></trkpt><trkpt lat="53.3715533" lon="-1.6964783"><ele>215.0</ele><time>2026-05-03T17:01:26.782Z</time></trkpt><trkpt lat="53.371405" lon="-1.6966267"><ele>215.0</ele><time>2026-05-03T17:01:27.783Z</time></trkpt><trkpt lat="53.37126" lon="-1.6967817"><ele>213.66666666666669</ele><time>2026-05-03T17:01:28.783Z</time></trkpt><trkpt lat="53.3711117" lon="-1.696965"><ele>212.33333333333331</ele><time>2026-05-03T17:01:29.784Z</time></trkpt><trkpt lat="53.3709567" lon="-1.6971483"><ele>211.0</ele><time>2026-05-03T17:01:30.781Z</time></trkpt><trkpt lat="53.3707983" lon="-1.697335"><ele>211.0</ele><time>2026-05-03T17:01:31.783Z</time></trkpt><trkpt lat="53.3706333" lon="-1.6974967"><ele>211.0</ele><time>2026-05-03T17:01:32.782Z</time></trkpt><trkpt lat="53.3704667" lon="-1.69765"><ele>211.0</ele><time>2026-05-03T17:01:33.783Z</time></trkpt><trkpt lat="53.3702967" lon="-1.6977833"><ele>210.33333333333331</ele><time>2026-05-03T17:01:34.783Z</time></trkpt><trkpt lat="53.3701217" lon="-1.6978967"><ele>209.66666666666669</ele><time>2026-05-03T17:01:35.781Z</time></trkpt><trkpt lat="53.3699417" lon="-1.6979917"><ele>209.0</ele><time>2026-05-03T17:01:36.781Z</time></trkpt><trkpt lat="53.3697633" lon="-1.6980733"><ele>209.66666666666669</ele><time>2026-05-03T17:01:37.783Z</time></trkpt><trkpt lat="53.3695883" lon="-1.698135"><ele>210.33333333333331</ele><time>2026-05-03T17:01:38.783Z</time></trkpt><trkpt lat="53.3693983" lon="-1.6981833"><ele>211.0</ele><time>2026-05-03T17:01:39.783Z</time></trkpt><trkpt lat="53.3692117" lon="-1.6982033"><ele>211.0</ele><time>2026-05-03T17:01:40.786Z</time></trkpt><trkpt lat="53.3690167" lon="-1.6981983"><ele>211.0</ele><time>2026-05-03T17:01:41.784Z</time></trkpt><trkpt lat="53.368825" lon="-1.6981817"><ele>211.0</ele><time>2026-05-03T17:01:42.784Z</time></trkpt><trkpt lat="53.368635" lon="-1.6981667"><ele>211.0</ele><time>2026-05-03T17:01:43.783Z</time></trkpt><trkpt lat="53.3684483" lon="-1.698145"><ele>211.0</ele><time>2026-05-03T17:01:44.782Z</time></trkpt><trkpt lat="53.3682617" lon="-1.6981267"><ele>211.0</ele><time>2026-05-03T17:01:45.782Z</time></trkpt><trkpt lat="53.3680767" lon="-1.6981"><ele>211.0</ele><time>2026-05-03T17:01:46.782Z</time></trkpt><trkpt lat="53.3678967" lon="-1.6980683"><ele>211.0</ele><time>2026-05-03T17:01:47.783Z</time></trkpt><trkpt lat="53.36771" lon="-1.6980483"><ele>211.0</ele><time>2026-05-03T17:01:48.785Z</time></trkpt><trkpt lat="53.367525" lon="-1.6980267"><ele>211.0</ele><time>2026-05-03T17:01:49.783Z</time></trkpt><trkpt lat="53.36734" lon="-1.6980167"><ele>211.0</ele><time>2026-05-03T17:01:50.783Z</time></trkpt><trkpt lat="53.36715" lon="-1.6980267"><ele>211.0</ele><time>2026-05-03T17:01:51.784Z</time></trkpt><trkpt lat="53.3669633" lon="-1.698035"><ele>211.0</ele><time>2026-05-03T17:01:52.782Z</time></trkpt><trkpt lat="53.3667767" lon="-1.6980517"><ele>211.0</ele><time>2026-05-03T17:01:53.783Z</time></trkpt><trkpt lat="53.3665917" lon="-1.6980767"><ele>211.0</ele><time>2026-05-03T17:01:54.783Z</time></trkpt><trkpt lat="53.3664067" lon="-1.6981067"><ele>211.33333333333331</ele><time>2026-05-03T17:01:55.783Z</time></trkpt><trkpt lat="53.3662217" lon="-1.6981333"><ele>211.66666666666669</ele><time>2026-05-03T17:01:56.785Z</time></trkpt><trkpt lat="53.366045" lon="-1.69817"><ele>212.0</ele><time>2026-05-03T17:01:57.782Z</time></trkpt><trkpt lat="53.3658733" lon="-1.6982167"><ele>212.0</ele><time>2026-05-03T17:01:58.783Z</time></trkpt><trkpt lat="53.365695" lon="-1.6982933"><ele>212.0</ele><time>2026-05-03T17:01:59.782Z</time></trkpt><trkpt lat="53.36552" lon="-1.6983833"><ele>212.0</ele><time>2026-05-03T17:02:00.784Z</time></trkpt><trkpt lat="53.3653433" lon="-1.6985"><ele>209.0</ele><time>2026-05-03T17:02:01.785Z</time></trkpt><trkpt lat="53.365165" lon="-1.6986383"><ele>206.0</ele><time>2026-05-03T17:02:02.783Z</time></trkpt><trkpt lat="53.3649967" lon="-1.6987583"><ele>203.0</ele><time>2026-05-03T17:02:03.785Z</time></trkpt><trkpt lat="53.364825" lon="-1.6988467"><ele>202.66666666666669</ele><time>2026-05-03T17:02:04.783Z</time></trkpt><trkpt lat="53.3646517" lon="-1.6989133"><ele>202.33333333333331</ele><time>2026-05-03T17:02:05.785Z</time></trkpt><trkpt lat="53.36447" lon="-1.6989367"><ele>202.0</ele><time>2026-05-03T17:02:06.782Z</time></trkpt><trkpt lat="53.364275" lon="-1.69893"><ele>202.0</ele><time>2026-05-03T17:02:07.785Z</time></trkpt><trkpt lat="53.364075" lon="-1.6989017"><ele>202.0</ele><time>2026-05-03T17:02:08.784Z</time></trkpt><trkpt lat="53.3638817" lon="-1.698865"><ele>202.0</ele><time>2026-05-03T17:02:09.783Z</time></trkpt><trkpt lat="53.3636983" lon="-1.698825"><ele>201.66666666666666</ele><time>2026-05-03T17:02:10.783Z</time></trkpt><trkpt lat="53.3635117" lon="-1.6987917"><ele>201.33333333333331</ele><time>2026-05-03T17:02:11.784Z</time></trkpt><trkpt lat="53.3633367" lon="-1.698755"><ele>201.0</ele><time>2026-05-03T17:02:12.783Z</time></trkpt><trkpt lat="53.3631517" lon="-1.698715"><ele>201.0</ele><time>2026-05-03T17:02:13.784Z</time></trkpt><trkpt lat="53.3629683" lon="-1.698665"><ele>201.0</ele><time>2026-05-03T17:02:14.785Z</time></trkpt><trkpt lat="53.3627867" lon="-1.6986133"><ele>201.0</ele><time>2026-05-03T17:02:15.783Z</time></trkpt><trkpt lat="53.3625983" lon="-1.6985633"><ele>204.0</ele><time>2026-05-03T17:02:16.782Z</time></trkpt><trkpt lat="53.36242" lon="-1.6985167"><ele>207.0</ele><time>2026-05-03T17:02:17.785Z</time></trkpt><trkpt lat="53.3622433" lon="-1.6984767"><ele>210.0</ele><time>2026-05-03T17:02:18.784Z</time></trkpt><trkpt lat="53.3620783" lon="-1.698445"><ele>210.0</ele><time>2026-05-03T17:02:19.784Z</time></trkpt><trkpt lat="53.3619217" lon="-1.6984367"><ele>210.0</ele><time>2026-05-03T17:02:20.785Z</time></trkpt><trkpt lat="53.3617667" lon="-1.6984433"><ele>210.0</ele><time>2026-05-03T17:02:21.783Z</time></trkpt><trkpt lat="53.3616167" lon="-1.6984567"><ele>210.0</ele><time>2026-05-03T17:02:22.784Z</time></trkpt><trkpt lat="53.36147" lon="-1.69847"><ele>210.0</ele><time>2026-05-03T17:02:23.783Z</time></trkpt><trkpt lat="53.3613233" lon="-1.69849"><ele>210.0</ele><time>2026-05-03T17:02:24.785Z</time></trkpt><trkpt lat="53.361175" lon="-1.69851"><ele>210.0</ele><time>2026-05-03T17:02:25.786Z</time></trkpt><trkpt lat="53.361025" lon="-1.6985167"><ele>209.25</ele><time>2026-05-03T17:02:26.783Z</time></trkpt><trkpt lat="53.3608733" lon="-1.698535"><ele>208.5</ele><time>2026-05-03T17:02:27.784Z</time></trkpt><trkpt lat="53.3607267" lon="-1.6985433"><ele>207.75</ele><time>2026-05-03T17:02:28.783Z</time></trkpt><trkpt lat="53.36058" lon="-1.6985817"><ele>207.0</ele><time>2026-05-03T17:02:29.785Z</time></trkpt><trkpt lat="53.3604367" lon="-1.6986"><ele>204.75</ele><time>2026-05-03T17:02:30.785Z</time></trkpt><trkpt lat="53.3602867" lon="-1.698625"><ele>202.5</ele><time>2026-05-03T17:02:31.784Z</time></trkpt><trkpt lat="53.3601467" lon="-1.6986383"><ele>200.25</ele><time>2026-05-03T17:02:32.784Z</time></trkpt><trkpt lat="53.3600033" lon="-1.69866"><ele>198.0</ele><time>2026-05-03T17:02:33.784Z</time></trkpt><trkpt lat="53.3598617" lon="-1.6986867"><ele>198.0</ele><time>2026-05-03T17:02:34.784Z</time></trkpt><trkpt lat="53.3597267" lon="-1.69871"><ele>198.0</ele><time>2026-05-03T17:02:35.784Z</time></trkpt><trkpt lat="53.3595967" lon="-1.6987317"><ele>198.0</ele><time>2026-05-03T17:02:36.782Z</time></trkpt><trkpt lat="53.3594633" lon="-1.69876"><ele>198.0</ele><time>2026-05-03T17:02:37.784Z</time></trkpt><trkpt lat="53.3593233" lon="-1.698785"><ele>197.5</ele><time>2026-05-03T17:02:38.784Z</time></trkpt><trkpt lat="53.3591867" lon="-1.6988117"><ele>197.0</ele><time>2026-05-03T17:02:39.785Z</time></trkpt><trkpt lat="53.3590417" lon="-1.698825"><ele>196.5</ele><time>2026-05-03T17:02:40.783Z</time></trkpt><trkpt lat="53.358895" lon="-1.6988367"><ele>196.0</ele><time>2026-05-03T17:02:41.785Z</time></trkpt><trkpt lat="53.3587483" lon="-1.6988467"><ele>194.66666666666666</ele><time>2026-05-03T17:02:42.785Z</time></trkpt><trkpt lat="53.3585967" lon="-1.6988467"><ele>193.33333333333331</ele><time>2026-05-03T17:02:43.785Z</time></trkpt><trkpt lat="53.3584367" lon="-1.6988267"><ele>192.0</ele><time>2026-05-03T17:02:44.785Z</time></trkpt><trkpt lat="53.3582733" lon="-1.6987867"><ele>192.0</ele><time>2026-05-03T17:02:45.783Z</time></trkpt><trkpt lat="53.358105" lon="-1.6987333"><ele>192.0</ele><time>2026-05-03T17:02:46.785Z</time></trkpt><trkpt lat="53.3579433" lon="-1.698665"><ele>192.0</ele><time>2026-05-03T17:02:47.783Z</time></trkpt><trkpt lat="53.3577817" lon="-1.6985833"><ele>192.0</ele><time>2026-05-03T17:02:48.785Z</time></trkpt><trkpt lat="53.3576217" lon="-1.69849"><ele>192.0</ele><time>2026-05-03T17:02:49.784Z</time></trkpt><trkpt lat="53.3574667" lon="-1.6983867"><ele>192.0</ele><time>2026-05-03T17:02:50.788Z</time></trkpt><trkpt lat="53.3573217" lon="-1.698265"><ele>188.66666666666666</ele><time>2026-05-03T17:02:51.783Z</time></trkpt><trkpt lat="53.3571767" lon="-1.6981317"><ele>185.33333333333331</ele><time>2026-05-03T17:02:52.785Z</time></trkpt><trkpt lat="53.35704" lon="-1.6979983"><ele>182.0</ele><time>2026-05-03T17:02:53.785Z</time></trkpt><trkpt lat="53.356905" lon="-1.69786"><ele>185.0</ele><time>2026-05-03T17:02:54.785Z</time></trkpt><trkpt lat="53.3567717" lon="-1.697715"><ele>188.0</ele><time>2026-05-03T17:02:55.786Z</time></trkpt><trkpt lat="53.3566383" lon="-1.6975617"><ele>191.0</ele><time>2026-05-03T17:02:56.783Z</time></trkpt><trkpt lat="53.3565033" lon="-1.6974083"><ele>188.33333333333331</ele><time>2026-05-03T17:02:57.784Z</time></trkpt><trkpt lat="53.356355" lon="-1.69727"><ele>185.66666666666666</ele><time>2026-05-03T17:02:58.785Z</time></trkpt><trkpt lat="53.3561983" lon="-1.6971483"><ele>183.0</ele><time>2026-05-03T17:02:59.785Z</time></trkpt><trkpt lat="53.35604" lon="-1.6970383"><ele>183.0</ele><time>2026-05-03T17:03:00.785Z</time></trkpt><trkpt lat="53.3558717" lon="-1.6969367"><ele>183.0</ele><time>2026-05-03T17:03:01.785Z</time></trkpt><trkpt lat="53.3556967" lon="-1.6968383"><ele>183.0</ele><time>2026-05-03T17:03:02.784Z</time></trkpt><trkpt lat="53.3555233" lon="-1.6967417"><ele>183.33333333333334</ele><time>2026-05-03T17:03:03.785Z</time></trkpt><trkpt lat="53.3553517" lon="-1.6966333"><ele>183.66666666666669</ele><time>2026-05-03T17:03:04.784Z</time></trkpt><trkpt lat="53.355185" lon="-1.6965117"><ele>184.0</ele><time>2026-05-03T17:03:05.785Z</time></trkpt><trkpt lat="53.3550217" lon="-1.6963783"><ele>184.0</ele><time>2026-05-03T17:03:06.785Z</time></trkpt><trkpt lat="53.354855" lon="-1.6962467"><ele>184.0</ele><time>2026-05-03T17:03:07.784Z</time></trkpt><trkpt lat="53.3546883" lon="-1.6961183"><ele>184.0</ele><time>2026-05-03T17:03:08.784Z</time></trkpt><trkpt lat="53.35452" lon="-1.6959883"><ele>184.66666666666669</ele><time>2026-05-03T17:03:09.784Z</time></trkpt><trkpt lat="53.35435" lon="-1.6958517"><ele>185.33333333333334</ele><time>2026-05-03T17:03:10.784Z</time></trkpt><trkpt lat="53.35418" lon="-1.6957117"><ele>186.0</ele><time>2026-05-03T17:03:11.785Z</time></trkpt><trkpt lat="53.3540167" lon="-1.6955683"><ele>187.0</ele><time>2026-05-03T17:03:12.783Z</time></trkpt><trkpt lat="53.3538617" lon="-1.6954317"><ele>188.0</ele><time>2026-05-03T17:03:13.785Z</time></trkpt><trkpt lat="53.3537117" lon="-1.6952917"><ele>189.0</ele><time>2026-05-03T17:03:14.784Z</time></trkpt><trkpt lat="53.353565" lon="-1.6951433"><ele>189.0</ele><time>2026-05-03T17:03:15.784Z</time></trkpt><trkpt lat="53.3534217" lon="-1.694985"><ele>189.0</ele><time>2026-05-03T17:03:16.784Z</time></trkpt><trkpt lat="53.35328" lon="-1.6948267"><ele>189.0</ele><time>2026-05-03T17:03:17.784Z</time></trkpt><trkpt lat="53.353135" lon="-1.6946583"><ele>188.66666666666666</ele><time>2026-05-03T17:03:18.784Z</time></trkpt><trkpt lat="53.3530017" lon="-1.6944933"><ele>188.33333333333331</ele><time>2026-05-03T17:03:19.785Z</time></trkpt><trkpt lat="53.3528783" lon="-1.6943217"><ele>188.0</ele><time>2026-05-03T17:03:20.782Z</time></trkpt><trkpt lat="53.35276" lon="-1.6941383"><ele>188.0</ele><time>2026-05-03T17:03:21.783Z</time></trkpt><trkpt lat="53.3526467" lon="-1.6939317"><ele>188.0</ele><time>2026-05-03T17:03:22.784Z</time></trkpt><trkpt lat="53.35253" lon="-1.6937033"><ele>188.0</ele><time>2026-05-03T17:03:23.784Z</time></trkpt><trkpt lat="53.3524167" lon="-1.6934717"><ele>188.66666666666666</ele><time>2026-05-03T17:03:24.786Z</time></trkpt><trkpt lat="53.35232" lon="-1.6932483"><ele>189.33333333333334</ele><time>2026-05-03T17:03:25.784Z</time></trkpt><trkpt lat="53.3522267" lon="-1.6930333"><ele>190.0</ele><time>2026-05-03T17:03:26.783Z</time></trkpt><trkpt lat="53.3521417" lon="-1.6928317"><ele>189.0</ele><time>2026-05-03T17:03:27.784Z</time></trkpt><trkpt lat="53.35206" lon="-1.6926417"><ele>188.0</ele><time>2026-05-03T17:03:28.784Z</time></trkpt><trkpt lat="53.351985" lon="-1.6924617"><ele>187.0</ele><time>2026-05-03T17:03:29.785Z</time></trkpt><trkpt lat="53.351915" lon="-1.692285"><ele>186.0</ele><time>2026-05-03T17:03:30.786Z</time></trkpt><trkpt lat="53.35185" lon="-1.6921133"><ele>186.0</ele><time>2026-05-03T17:03:31.783Z</time></trkpt><trkpt lat="53.3517833" lon="-1.6919483"><ele>186.0</ele><time>2026-05-03T17:03:32.783Z</time></trkpt><trkpt lat="53.3517183" lon="-1.6917883"><ele>186.0</ele><time>2026-05-03T17:03:33.784Z</time></trkpt><trkpt lat="53.3516467" lon="-1.6916267"><ele>186.0</ele><time>2026-05-03T17:03:34.783Z</time></trkpt><trkpt lat="53.3515767" lon="-1.6914617"><ele>187.25</ele><time>2026-05-03T17:03:35.783Z</time></trkpt><trkpt lat="53.3515033" lon="-1.6912967"><ele>188.5</ele><time>2026-05-03T17:03:36.783Z</time></trkpt><trkpt lat="53.3514317" lon="-1.691135"><ele>189.75</ele><time>2026-05-03T17:03:37.784Z</time></trkpt><trkpt lat="53.3513567" lon="-1.6909833"><ele>191.0</ele><time>2026-05-03T17:03:38.783Z</time></trkpt><trkpt lat="53.3512817" lon="-1.6908417"><ele>192.25</ele><time>2026-05-03T17:03:39.783Z</time></trkpt><trkpt lat="53.3511917" lon="-1.69071"><ele>193.5</ele><time>2026-05-03T17:03:40.782Z</time></trkpt><trkpt lat="53.3510933" lon="-1.69059"><ele>194.75</ele><time>2026-05-03T17:03:41.783Z</time></trkpt><trkpt lat="53.3509883" lon="-1.6904883"><ele>196.0</ele><time>2026-05-03T17:03:42.784Z</time></trkpt><trkpt lat="53.3508833" lon="-1.6904017"><ele>196.0</ele><time>2026-05-03T17:03:43.786Z</time></trkpt><trkpt lat="53.35078" lon="-1.690315"><ele>196.0</ele><time>2026-05-03T17:03:44.784Z</time></trkpt><trkpt lat="53.3506767" lon="-1.6902267"><ele>196.0</ele><time>2026-05-03T17:03:45.783Z</time></trkpt><trkpt lat="53.3505733" lon="-1.6901317"><ele>196.0</ele><time>2026-05-03T17:03:46.783Z</time></trkpt><trkpt lat="53.3504667" lon="-1.690035"><ele>194.75</ele><time>2026-05-03T17:03:47.784Z</time></trkpt><trkpt lat="53.3503667" lon="-1.6899233"><ele>193.5</ele><time>2026-05-03T17:03:48.785Z</time></trkpt><trkpt lat="53.350275" lon="-1.68979"><ele>192.25</ele><time>2026-05-03T17:03:49.784Z</time></trkpt><trkpt lat="53.3501883" lon="-1.6896533"><ele>191.0</ele><time>2026-05-03T17:03:50.783Z</time></trkpt><trkpt lat="53.3501067" lon="-1.689505"><ele>191.5</ele><time>2026-05-03T17:03:51.784Z</time></trkpt><trkpt lat="53.350025" lon="-1.689375"><ele>192.0</ele><time>2026-05-03T17:03:52.784Z</time></trkpt><trkpt lat="53.349955" lon="-1.68927"><ele>192.5</ele><time>2026-05-03T17:03:53.783Z</time></trkpt><trkpt lat="53.3498867" lon="-1.6891983"><ele>193.0</ele><time>2026-05-03T17:03:54.784Z</time></trkpt><trkpt lat="53.3498133" lon="-1.6891533"><ele>193.50000000000003</ele><time>2026-05-03T17:03:55.783Z</time></trkpt><trkpt lat="53.34974" lon="-1.6891383"><ele>194.0</ele><time>2026-05-03T17:03:56.783Z</time></trkpt><trkpt lat="53.34966" lon="-1.6891517"><ele>192.83333333333334</ele><time>2026-05-03T17:03:57.784Z</time></trkpt><trkpt lat="53.3495767" lon="-1.6891817"><ele>191.66666666666669</ele><time>2026-05-03T17:03:58.784Z</time></trkpt><trkpt lat="53.349495" lon="-1.6892283"><ele>190.5</ele><time>2026-05-03T17:03:59.784Z</time></trkpt><trkpt lat="53.3494167" lon="-1.689285"><ele>189.33333333333334</ele><time>2026-05-03T17:04:00.784Z</time></trkpt><trkpt lat="53.34934" lon="-1.68934"><ele>188.16666666666669</ele><time>2026-05-03T17:04:01.784Z</time></trkpt><trkpt lat="53.3492667" lon="-1.6893967"><ele>187.0</ele><time>2026-05-03T17:04:02.783Z</time></trkpt><trkpt lat="53.3491933" lon="-1.6894483"><ele>186.33333333333334</ele><time>2026-05-03T17:04:03.782Z</time></trkpt><trkpt lat="53.34912" lon="-1.689495"><ele>185.66666666666669</ele><time>2026-05-03T17:04:04.783Z</time></trkpt><trkpt lat="53.3490467" lon="-1.6895383"><ele>185.0</ele><time>2026-05-03T17:04:05.784Z</time></trkpt><trkpt lat="53.34897" lon="-1.6895633"><ele>184.33333333333334</ele><time>2026-05-03T17:04:06.783Z</time></trkpt><trkpt lat="53.3489" lon="-1.6895683"><ele>183.66666666666666</ele><time>2026-05-03T17:04:07.784Z</time></trkpt><trkpt lat="53.3488233" lon="-1.689565"><ele>183.0</ele><time>2026-05-03T17:04:08.783Z</time></trkpt><trkpt lat="53.34874" lon="-1.6895367"><ele>182.60000000000002</ele><time>2026-05-03T17:04:09.783Z</time></trkpt><trkpt lat="53.3486517" lon="-1.6894967"><ele>182.20000000000002</ele><time>2026-05-03T17:04:10.784Z</time></trkpt><trkpt lat="53.3485783" lon="-1.68945"><ele>181.8</ele><time>2026-05-03T17:04:11.784Z</time></trkpt><trkpt lat="53.3484833" lon="-1.6894183"><ele>181.4</ele><time>2026-05-03T17:04:12.784Z</time></trkpt><trkpt lat="53.3483833" lon="-1.6893967"><ele>181.0</ele><time>2026-05-03T17:04:13.784Z</time></trkpt><trkpt lat="53.34829" lon="-1.6893933"><ele>181.0</ele><time>2026-05-03T17:04:14.787Z</time></trkpt><trkpt lat="53.3481917" lon="-1.6894017"><ele>181.0</ele><time>2026-05-03T17:04:15.787Z</time></trkpt><trkpt lat="53.34809" lon="-1.6894183"><ele>181.0</ele><time>2026-05-03T17:04:16.783Z</time></trkpt><trkpt lat="53.3479917" lon="-1.6894367"><ele>181.0</ele><time>2026-05-03T17:04:17.785Z</time></trkpt><trkpt lat="53.3478933" lon="-1.6894583"><ele>181.0</ele><time>2026-05-03T17:04:18.783Z</time></trkpt><trkpt lat="53.347805" lon="-1.6894783"><ele>179.4</ele><time>2026-05-03T17:04:19.782Z</time></trkpt><trkpt lat="53.3477183" lon="-1.6895167"><ele>177.8</ele><time>2026-05-03T17:04:20.784Z</time></trkpt><trkpt lat="53.347635" lon="-1.6895633"><ele>176.20000000000002</ele><time>2026-05-03T17:04:21.783Z</time></trkpt><trkpt lat="53.3475533" lon="-1.6896233"><ele>174.60000000000002</ele><time>2026-05-03T17:04:22.784Z</time></trkpt><trkpt lat="53.34747" lon="-1.6896883"><ele>173.0</ele><time>2026-05-03T17:04:23.783Z</time></trkpt><trkpt lat="53.34739" lon="-1.6897617"><ele>173.0</ele><time>2026-05-03T17:04:24.784Z</time></trkpt><trkpt lat="53.3473083" lon="-1.6898233"><ele>173.0</ele><time>2026-05-03T17:04:25.783Z</time></trkpt><trkpt lat="53.3472267" lon="-1.6898833"><ele>173.0</ele><time>2026-05-03T17:04:26.784Z</time></trkpt><trkpt lat="53.3471417" lon="-1.68995"><ele>173.0</ele><time>2026-05-03T17:04:27.783Z</time></trkpt><trkpt lat="53.34706" lon="-1.69001"><ele>173.0</ele><time>2026-05-03T17:04:28.784Z</time></trkpt><trkpt lat="53.3469767" lon="-1.6900733"><ele>172.60000000000002</ele><time>2026-05-03T17:04:29.785Z</time></trkpt><trkpt lat="53.3468917" lon="-1.6901233"><ele>172.20000000000002</ele><time>2026-05-03T17:04:30.783Z</time></trkpt><trkpt lat="53.3468117" lon="-1.6901833"><ele>171.8</ele><time>2026-05-03T17:04:31.784Z</time></trkpt><trkpt lat="53.34673" lon="-1.6902433"><ele>171.4</ele><time>2026-05-03T17:04:32.783Z</time></trkpt><trkpt lat="53.3466417" lon="-1.6903017"><ele>171.0</ele><time>2026-05-03T17:04:33.784Z</time></trkpt><trkpt lat="53.3465517" lon="-1.69036"><ele>170.20000000000002</ele><time>2026-05-03T17:04:34.784Z</time></trkpt><trkpt lat="53.3464583" lon="-1.6904217"><ele>169.4</ele><time>2026-05-03T17:04:35.784Z</time></trkpt><trkpt lat="53.3463633" lon="-1.6904817"><ele>168.6</ele><time>2026-05-03T17:04:36.783Z</time></trkpt><trkpt lat="53.3462667" lon="-1.6905467"><ele>167.8</ele><time>2026-05-03T17:04:37.783Z</time></trkpt><trkpt lat="53.3461733" lon="-1.69062"><ele>167.0</ele><time>2026-05-03T17:04:38.784Z</time></trkpt><trkpt lat="53.3460783" lon="-1.6907"><ele>166.2</ele><time>2026-05-03T17:04:39.784Z</time></trkpt><trkpt lat="53.34598" lon="-1.6907783"><ele>165.39999999999998</ele><time>2026-05-03T17:04:40.782Z</time></trkpt><trkpt lat="53.3458783" lon="-1.69086"><ele>164.60000000000002</ele><time>2026-05-03T17:04:41.783Z</time></trkpt><trkpt lat="53.3457783" lon="-1.690935"><ele>163.8</ele><time>2026-05-03T17:04:42.783Z</time></trkpt><trkpt lat="53.34568" lon="-1.6910017"><ele>163.0</ele><time>2026-05-03T17:04:43.785Z</time></trkpt><trkpt lat="53.345585" lon="-1.69107"><ele>161.4</ele><time>2026-05-03T17:04:44.784Z</time></trkpt><trkpt lat="53.3454883" lon="-1.69114"><ele>159.8</ele><time>2026-05-03T17:04:45.784Z</time></trkpt><trkpt lat="53.3453883" lon="-1.6912033"><ele>158.2</ele><time>2026-05-03T17:04:46.784Z</time></trkpt><trkpt lat="53.3452833" lon="-1.6912783"><ele>156.6</ele><time>2026-05-03T17:04:47.782Z</time></trkpt><trkpt lat="53.3451817" lon="-1.6913433"><ele>155.0</ele><time>2026-05-03T17:04:48.785Z</time></trkpt><trkpt lat="53.3450783" lon="-1.69141"><ele>155.0</ele><time>2026-05-03T17:04:49.783Z</time></trkpt><trkpt lat="53.3449783" lon="-1.691485"><ele>155.0</ele><time>2026-05-03T17:04:50.784Z</time></trkpt><trkpt lat="53.344875" lon="-1.691555"><ele>155.0</ele><time>2026-05-03T17:04:51.784Z</time></trkpt><trkpt lat="53.3447683" lon="-1.691625"><ele>155.0</ele><time>2026-05-03T17:04:52.783Z</time></trkpt><trkpt lat="53.3446567" lon="-1.6916917"><ele>154.25</ele><time>2026-05-03T17:04:53.783Z</time></trkpt><trkpt lat="53.3445467" lon="-1.6917567"><ele>153.5</ele><time>2026-05-03T17:04:54.783Z</time></trkpt><trkpt lat="53.3444367" lon="-1.69182"><ele>152.75</ele><time>2026-05-03T17:04:55.784Z</time></trkpt><trkpt lat="53.3443267" lon="-1.6918733"><ele>152.0</ele><time>2026-05-03T17:04:56.783Z</time></trkpt><trkpt lat="53.3442083" lon="-1.6919133"><ele>151.75</ele><time>2026-05-03T17:04:57.783Z</time></trkpt><trkpt lat="53.3440933" lon="-1.69195"><ele>151.5</ele><time>2026-05-03T17:04:58.782Z</time></trkpt><trkpt lat="53.3439733" lon="-1.6919483"><ele>151.25</ele><time>2026-05-03T17:04:59.783Z</time></trkpt><trkpt lat="53.3438567" lon="-1.6919467"><ele>151.0</ele><time>2026-05-03T17:05:00.785Z</time></trkpt><trkpt lat="53.343735" lon="-1.691935"><ele>151.0</ele><time>2026-05-03T17:05:01.784Z</time></trkpt><trkpt lat="53.343615" lon="-1.6919133"><ele>151.0</ele><time>2026-05-03T17:05:02.783Z</time></trkpt><trkpt lat="53.343495" lon="-1.691895"><ele>151.0</ele><time>2026-05-03T17:05:03.783Z</time></trkpt><trkpt lat="53.3433767" lon="-1.6918733"><ele>151.0</ele><time>2026-05-03T17:05:04.783Z</time></trkpt><trkpt lat="53.3432617" lon="-1.69185"><ele>151.0</ele><time>2026-05-03T17:05:05.784Z</time></trkpt><trkpt lat="53.3431533" lon="-1.6918283"><ele>151.0</ele><time>2026-05-03T17:05:06.783Z</time></trkpt><trkpt lat="53.3430517" lon="-1.691805"><ele>151.0</ele><time>2026-05-03T17:05:07.784Z</time></trkpt><trkpt lat="53.34296" lon="-1.6917833"><ele>151.0</ele><time>2026-05-03T17:05:08.783Z</time></trkpt><trkpt lat="53.3428767" lon="-1.6917633"><ele>151.0</ele><time>2026-05-03T17:05:09.784Z</time></trkpt><trkpt lat="53.3428067" lon="-1.69175"><ele>151.0</ele><time>2026-05-03T17:05:10.784Z</time></trkpt><trkpt lat="53.3427033" lon="-1.6917433"><ele>151.0</ele><time>2026-05-03T17:05:12.784Z</time></trkpt><trkpt lat="53.34265" lon="-1.6918717"><ele>151.0</ele><time>2026-05-03T17:05:15.784Z</time></trkpt><trkpt lat="53.3426617" lon="-1.692"><ele>151.0</ele><time>2026-05-03T17:05:17.784Z</time></trkpt><trkpt lat="53.342695" lon="-1.6921683"><ele>151.0</ele><time>2026-05-03T17:05:19.784Z</time></trkpt><trkpt lat="53.34272" lon="-1.69227"><ele>151.0</ele><time>2026-05-03T17:05:20.783Z</time></trkpt><trkpt lat="53.34275" lon="-1.692375"><ele>151.00000000000003</ele><time>2026-05-03T17:05:21.784Z</time></trkpt><trkpt lat="53.3427667" lon="-1.6924817"><ele>151.0</ele><time>2026-05-03T17:05:22.784Z</time></trkpt><trkpt lat="53.3427817" lon="-1.692585"><ele>151.0</ele><time>2026-05-03T17:05:23.783Z</time></trkpt><trkpt lat="53.3428033" lon="-1.6926983"><ele>151.0</ele><time>2026-05-03T17:05:24.785Z</time></trkpt><trkpt lat="53.34283" lon="-1.692815"><ele>151.0</ele><time>2026-05-03T17:05:25.784Z</time></trkpt><trkpt lat="53.34286" lon="-1.6929433"><ele>151.00000000000003</ele><time>2026-05-03T17:05:26.782Z</time></trkpt><trkpt lat="53.3428833" lon="-1.693075"><ele>151.0</ele><time>2026-05-03T17:05:27.783Z</time></trkpt><trkpt lat="53.3429117" lon="-1.693215"><ele>151.0</ele><time>2026-05-03T17:05:28.784Z</time></trkpt><trkpt lat="53.34294" lon="-1.6933667"><ele>151.0</ele><time>2026-05-03T17:05:29.783Z</time></trkpt><trkpt lat="53.342975" lon="-1.6935267"><ele>151.0</ele><time>2026-05-03T17:05:30.783Z</time></trkpt><trkpt lat="53.3430067" lon="-1.69368"><ele>151.0</ele><time>2026-05-03T17:05:31.784Z</time></trkpt><trkpt lat="53.3430333" lon="-1.6938133"><ele>151.0</ele><time>2026-05-03T17:05:32.783Z</time></trkpt><trkpt lat="53.3430633" lon="-1.6939417"><ele>151.0</ele><time>2026-05-03T17:05:33.783Z</time></trkpt><trkpt lat="53.3430967" lon="-1.6940617"><ele>151.0</ele><time>2026-05-03T17:05:34.782Z</time></trkpt><trkpt lat="53.343125" lon="-1.6941733"><ele>151.0</ele><time>2026-05-03T17:05:35.785Z</time></trkpt><trkpt lat="53.3431483" lon="-1.6942733"><ele>151.0</ele><time>2026-05-03T17:05:36.782Z</time></trkpt><trkpt lat="53.343175" lon="-1.694435"><ele>151.0</ele><time>2026-05-03T17:05:38.783Z</time></trkpt><trkpt lat="53.3432033" lon="-1.6945733"><ele>151.0</ele><time>2026-05-03T17:05:40.782Z</time></trkpt><trkpt lat="53.3432283" lon="-1.6947133"><ele>151.0</ele><time>2026-05-03T17:05:42.783Z</time></trkpt><trkpt lat="53.3432517" lon="-1.6948483"><ele>151.0</ele><time>2026-05-03T17:05:44.787Z</time></trkpt><trkpt lat="53.3432767" lon="-1.695"><ele>151.0</ele><time>2026-05-03T17:05:46.783Z</time></trkpt><trkpt lat="53.3433067" lon="-1.69515"><ele>151.0</ele><time>2026-05-03T17:05:48.786Z</time></trkpt><trkpt lat="53.3433417" lon="-1.6953083"><ele>151.0</ele><time>2026-05-03T17:05:50.785Z</time></trkpt><trkpt lat="53.34337" lon="-1.6954633"><ele>151.2</ele><time>2026-05-03T17:05:52.786Z</time></trkpt><trkpt lat="53.3433983" lon="-1.6956183"><ele>151.39999999999998</ele><time>2026-05-03T17:05:54.785Z</time></trkpt><trkpt lat="53.34343" lon="-1.695785"><ele>151.6</ele><time>2026-05-03T17:05:56.783Z</time></trkpt><trkpt lat="53.3434617" lon="-1.6959967"><ele>151.79999999999998</ele><time>2026-05-03T17:05:58.787Z</time></trkpt><trkpt lat="53.34348" lon="-1.69612"><ele>152.0</ele><time>2026-05-03T17:05:59.783Z</time></trkpt><trkpt lat="53.3435083" lon="-1.6962633"><ele>152.25</ele><time>2026-05-03T17:06:00.784Z</time></trkpt><trkpt lat="53.343535" lon="-1.696435"><ele>152.5</ele><time>2026-05-03T17:06:01.783Z</time></trkpt><trkpt lat="53.3435583" lon="-1.69663"><ele>152.75</ele><time>2026-05-03T17:06:02.787Z</time></trkpt><trkpt lat="53.34358" lon="-1.6968483"><ele>153.0</ele><time>2026-05-03T17:06:03.782Z</time></trkpt><trkpt lat="53.3436067" lon="-1.697065"><ele>153.8</ele><time>2026-05-03T17:06:04.783Z</time></trkpt><trkpt lat="53.3436317" lon="-1.6972733"><ele>154.60000000000002</ele><time>2026-05-03T17:06:05.784Z</time></trkpt><trkpt lat="53.3436567" lon="-1.69747"><ele>155.39999999999998</ele><time>2026-05-03T17:06:06.783Z</time></trkpt><trkpt lat="53.34367" lon="-1.6976383"><ele>156.2</ele><time>2026-05-03T17:06:07.783Z</time></trkpt><trkpt lat="53.34368" lon="-1.6977767"><ele>157.0</ele><time>2026-05-03T17:06:08.784Z</time></trkpt><trkpt lat="53.3436767" lon="-1.697905"><ele>157.66666666666669</ele><time>2026-05-03T17:06:09.783Z</time></trkpt><trkpt lat="53.3436583" lon="-1.69802"><ele>158.33333333333334</ele><time>2026-05-03T17:06:10.783Z</time></trkpt><trkpt lat="53.3436183" lon="-1.6981217"><ele>159.0</ele><time>2026-05-03T17:06:11.783Z</time></trkpt><trkpt lat="53.343555" lon="-1.6982233"><ele>159.66666666666666</ele><time>2026-05-03T17:06:12.782Z</time></trkpt><trkpt lat="53.3434767" lon="-1.6983033"><ele>160.33333333333331</ele><time>2026-05-03T17:06:13.782Z</time></trkpt><trkpt lat="53.3434117" lon="-1.6983717"><ele>161.0</ele><time>2026-05-03T17:06:14.785Z</time></trkpt><trkpt lat="53.3433317" lon="-1.6985033"><ele>161.4</ele><time>2026-05-03T17:06:16.783Z</time></trkpt><trkpt lat="53.3433" lon="-1.6986617"><ele>161.8</ele><time>2026-05-03T17:06:18.785Z</time></trkpt><trkpt lat="53.3433083" lon="-1.6988717"><ele>162.20000000000002</ele><time>2026-05-03T17:06:20.783Z</time></trkpt><trkpt lat="53.3433083" lon="-1.6990133"><ele>162.60000000000002</ele><time>2026-05-03T17:06:21.782Z</time></trkpt><trkpt lat="53.3433" lon="-1.699165"><ele>163.0</ele><time>2026-05-03T17:06:22.782Z</time></trkpt><trkpt lat="53.3432933" lon="-1.6993167"><ele>162.66666666666669</ele><time>2026-05-03T17:06:23.783Z</time></trkpt><trkpt lat="53.3432917" lon="-1.6994517"><ele>162.33333333333334</ele><time>2026-05-03T17:06:24.782Z</time></trkpt><trkpt lat="53.343295" lon="-1.6995767"><ele>162.0</ele><time>2026-05-03T17:06:25.783Z</time></trkpt><trkpt lat="53.3432983" lon="-1.6996867"><ele>161.66666666666666</ele><time>2026-05-03T17:06:26.782Z</time></trkpt><trkpt lat="53.343305" lon="-1.69985"><ele>161.33333333333331</ele><time>2026-05-03T17:06:28.784Z</time></trkpt><trkpt lat="53.3433167" lon="-1.69998"><ele>161.0</ele><time>2026-05-03T17:06:30.785Z</time></trkpt><trkpt lat="53.3433217" lon="-1.7001133"><ele>161.0</ele><time>2026-05-03T17:06:32.784Z</time></trkpt><trkpt lat="53.3433183" lon="-1.7002483"><ele>161.0</ele><time>2026-05-03T17:06:34.783Z</time></trkpt><trkpt lat="53.3433267" lon="-1.7003983"><ele>161.0</ele><time>2026-05-03T17:06:36.786Z</time></trkpt><trkpt lat="53.3433383" lon="-1.7005467"><ele>161.0</ele><time>2026-05-03T17:06:38.784Z</time></trkpt><trkpt lat="53.343355" lon="-1.7007283"><ele>161.0</ele><time>2026-05-03T17:06:40.784Z</time></trkpt><trkpt lat="53.343365" lon="-1.700835"><ele>161.0</ele><time>2026-05-03T17:06:41.784Z</time></trkpt><trkpt lat="53.3433767" lon="-1.70102"><ele>161.0</ele><time>2026-05-03T17:06:43.784Z</time></trkpt><trkpt lat="53.3433883" lon="-1.70121"><ele>161.0</ele><time>2026-05-03T17:06:45.784Z</time></trkpt><trkpt lat="53.3433983" lon="-1.70138"><ele>161.0</ele><time>2026-05-03T17:06:47.784Z</time></trkpt><trkpt lat="53.343385" lon="-1.701505"><ele>161.0</ele><time>2026-05-03T17:06:49.784Z</time></trkpt><trkpt lat="53.34337" lon="-1.7016383"><ele>161.0</ele><time>2026-05-03T17:06:51.784Z</time></trkpt><trkpt lat="53.3433833" lon="-1.701815"><ele>161.0</ele><time>2026-05-03T17:06:53.784Z</time></trkpt><trkpt lat="53.3434067" lon="-1.702025"><ele>161.0</ele><time>2026-05-03T17:06:55.784Z</time></trkpt><trkpt lat="53.34343" lon="-1.7021483"><ele>161.0</ele><time>2026-05-03T17:06:56.784Z</time></trkpt><trkpt lat="53.3434467" lon="-1.70228"><ele>161.0</ele><time>2026-05-03T17:06:57.783Z</time></trkpt><trkpt lat="53.3434667" lon="-1.7024183"><ele>161.0</ele><time>2026-05-03T17:06:58.783Z</time></trkpt><trkpt lat="53.3434883" lon="-1.7025567"><ele>161.0</ele><time>2026-05-03T17:06:59.784Z</time></trkpt><trkpt lat="53.3435017" lon="-1.7026767"><ele>161.0</ele><time>2026-05-03T17:07:00.784Z</time></trkpt><trkpt lat="53.3435117" lon="-1.7027833"><ele>161.0</ele><time>2026-05-03T17:07:01.786Z</time></trkpt><trkpt lat="53.343535" lon="-1.7029"><ele>161.0</ele><time>2026-05-03T17:07:02.784Z</time></trkpt><trkpt lat="53.343565" lon="-1.7031017"><ele>161.0</ele><time>2026-05-03T17:07:04.783Z</time></trkpt><trkpt lat="53.3435817" lon="-1.7033033"><ele>161.0</ele><time>2026-05-03T17:07:06.784Z</time></trkpt><trkpt lat="53.3436" lon="-1.703465"><ele>161.0</ele><time>2026-05-03T17:07:08.784Z</time></trkpt><trkpt lat="53.3436383" lon="-1.703585"><ele>161.0</ele><time>2026-05-03T17:07:15.783Z</time></trkpt><trkpt lat="53.3437167" lon="-1.7035633"><ele>161.0</ele><time>2026-05-03T17:07:18.784Z</time></trkpt><trkpt lat="53.3437883" lon="-1.703545"><ele>161.0</ele><time>2026-05-03T17:07:20.783Z</time></trkpt><trkpt lat="53.343885" lon="-1.70348"><ele>161.0</ele><time>2026-05-03T17:07:22.783Z</time></trkpt><trkpt lat="53.3439517" lon="-1.7034467"><ele>162.75</ele><time>2026-05-03T17:07:23.784Z</time></trkpt><trkpt lat="53.3440383" lon="-1.7033967"><ele>164.5</ele><time>2026-05-03T17:07:24.783Z</time></trkpt><trkpt lat="53.344155" lon="-1.7033133"><ele>166.25</ele><time>2026-05-03T17:07:25.784Z</time></trkpt><trkpt lat="53.3442767" lon="-1.7032233"><ele>168.0</ele><time>2026-05-03T17:07:26.783Z</time></trkpt><trkpt lat="53.3444083" lon="-1.7031283"><ele>168.0</ele><time>2026-05-03T17:07:27.784Z</time></trkpt><trkpt lat="53.34453" lon="-1.7030233"><ele>168.0</ele><time>2026-05-03T17:07:28.782Z</time></trkpt><trkpt lat="53.3446483" lon="-1.702925"><ele>168.0</ele><time>2026-05-03T17:07:29.783Z</time></trkpt><trkpt lat="53.3447683" lon="-1.7028217"><ele>168.0</ele><time>2026-05-03T17:07:30.783Z</time></trkpt><trkpt lat="53.3448917" lon="-1.702725"><ele>171.0</ele><time>2026-05-03T17:07:31.785Z</time></trkpt><trkpt lat="53.345005" lon="-1.702645"><ele>174.0</ele><time>2026-05-03T17:07:32.784Z</time></trkpt><trkpt lat="53.34512" lon="-1.7025867"><ele>177.0</ele><time>2026-05-03T17:07:33.783Z</time></trkpt><trkpt lat="53.345235" lon="-1.70252"><ele>180.0</ele><time>2026-05-03T17:07:34.784Z</time></trkpt><trkpt lat="53.3453483" lon="-1.7024517"><ele>180.0</ele><time>2026-05-03T17:07:35.783Z</time></trkpt><trkpt lat="53.3454667" lon="-1.7023783"><ele>180.0</ele><time>2026-05-03T17:07:36.784Z</time></trkpt><trkpt lat="53.34559" lon="-1.7023033"><ele>180.0</ele><time>2026-05-03T17:07:37.784Z</time></trkpt><trkpt lat="53.3457" lon="-1.702235"><ele>180.0</ele><time>2026-05-03T17:07:38.783Z</time></trkpt><trkpt lat="53.34581" lon="-1.7021917"><ele>180.6</ele><time>2026-05-03T17:07:39.783Z</time></trkpt><trkpt lat="53.34591" lon="-1.7021683"><ele>181.2</ele><time>2026-05-03T17:07:40.782Z</time></trkpt><trkpt lat="53.3460217" lon="-1.7021783"><ele>181.8</ele><time>2026-05-03T17:07:41.785Z</time></trkpt><trkpt lat="53.3461367" lon="-1.7021883"><ele>182.4</ele><time>2026-05-03T17:07:42.786Z</time></trkpt><trkpt lat="53.3462517" lon="-1.7022217"><ele>183.0</ele><time>2026-05-03T17:07:43.786Z</time></trkpt><trkpt lat="53.346365" lon="-1.7022667"><ele>184.60000000000002</ele><time>2026-05-03T17:07:44.783Z</time></trkpt><trkpt lat="53.34647" lon="-1.7023083"><ele>186.20000000000002</ele><time>2026-05-03T17:07:45.785Z</time></trkpt><trkpt lat="53.3465683" lon="-1.702345"><ele>187.8</ele><time>2026-05-03T17:07:46.785Z</time></trkpt><trkpt lat="53.3466617" lon="-1.7023767"><ele>189.4</ele><time>2026-05-03T17:07:47.786Z</time></trkpt><trkpt lat="53.3467617" lon="-1.7023867"><ele>191.0</ele><time>2026-05-03T17:07:48.785Z</time></trkpt><trkpt lat="53.346865" lon="-1.7023883"><ele>191.0</ele><time>2026-05-03T17:07:49.786Z</time></trkpt><trkpt lat="53.3469617" lon="-1.7023867"><ele>191.0</ele><time>2026-05-03T17:07:50.789Z</time></trkpt><trkpt lat="53.3470533" lon="-1.7023683"><ele>191.0</ele><time>2026-05-03T17:07:51.787Z</time></trkpt><trkpt lat="53.3471367" lon="-1.7023533"><ele>191.0</ele><time>2026-05-03T17:07:52.785Z</time></trkpt><trkpt lat="53.3472317" lon="-1.7023433"><ele>191.0</ele><time>2026-05-03T17:07:53.785Z</time></trkpt><trkpt lat="53.3473283" lon="-1.7023517"><ele>192.66666666666666</ele><time>2026-05-03T17:07:54.786Z</time></trkpt><trkpt lat="53.3474217" lon="-1.702375"><ele>194.33333333333331</ele><time>2026-05-03T17:07:55.786Z</time></trkpt><trkpt lat="53.3475017" lon="-1.70241"><ele>196.0</ele><time>2026-05-03T17:07:56.785Z</time></trkpt><trkpt lat="53.3475633" lon="-1.702445"><ele>197.66666666666666</ele><time>2026-05-03T17:07:57.783Z</time></trkpt><trkpt lat="53.3476567" lon="-1.7025717"><ele>199.33333333333334</ele><time>2026-05-03T17:07:59.784Z</time></trkpt><trkpt lat="53.3477" lon="-1.702655"><ele>201.0</ele><time>2026-05-03T17:08:00.784Z</time></trkpt><trkpt lat="53.3477417" lon="-1.702775"><ele>201.75</ele><time>2026-05-03T17:08:01.784Z</time></trkpt><trkpt lat="53.347795" lon="-1.702945"><ele>202.5</ele><time>2026-05-03T17:08:02.783Z</time></trkpt><trkpt lat="53.3478533" lon="-1.70311"><ele>203.25</ele><time>2026-05-03T17:08:03.783Z</time></trkpt><trkpt lat="53.3479183" lon="-1.703275"><ele>204.0</ele><time>2026-05-03T17:08:04.783Z</time></trkpt><trkpt lat="53.347995" lon="-1.7034433"><ele>206.0</ele><time>2026-05-03T17:08:05.784Z</time></trkpt><trkpt lat="53.34807" lon="-1.703615"><ele>208.0</ele><time>2026-05-03T17:08:06.783Z</time></trkpt><trkpt lat="53.3481483" lon="-1.7037883"><ele>210.0</ele><time>2026-05-03T17:08:07.784Z</time></trkpt><trkpt lat="53.3482217" lon="-1.703955"><ele>212.0</ele><time>2026-05-03T17:08:08.782Z</time></trkpt><trkpt lat="53.348295" lon="-1.704115"><ele>212.0</ele><time>2026-05-03T17:08:09.783Z</time></trkpt><trkpt lat="53.3483733" lon="-1.7042933"><ele>212.0</ele><time>2026-05-03T17:08:10.782Z</time></trkpt><trkpt lat="53.34845" lon="-1.7044833"><ele>212.0</ele><time>2026-05-03T17:08:11.785Z</time></trkpt><trkpt lat="53.3485283" lon="-1.7046583"><ele>212.0</ele><time>2026-05-03T17:08:12.784Z</time></trkpt><trkpt lat="53.348595" lon="-1.7048083"><ele>212.16666666666669</ele><time>2026-05-03T17:08:13.783Z</time></trkpt><trkpt lat="53.3486483" lon="-1.7049417"><ele>212.33333333333334</ele><time>2026-05-03T17:08:14.783Z</time></trkpt><trkpt lat="53.3486983" lon="-1.705065"><ele>212.5</ele><time>2026-05-03T17:08:15.783Z</time></trkpt><trkpt lat="53.3487517" lon="-1.70519"><ele>212.66666666666669</ele><time>2026-05-03T17:08:16.785Z</time></trkpt><trkpt lat="53.3487983" lon="-1.7053117"><ele>212.83333333333334</ele><time>2026-05-03T17:08:17.785Z</time></trkpt><trkpt lat="53.348835" lon="-1.7054367"><ele>213.0</ele><time>2026-05-03T17:08:18.784Z</time></trkpt><trkpt lat="53.3488583" lon="-1.705585"><ele>213.75</ele><time>2026-05-03T17:08:19.784Z</time></trkpt><trkpt lat="53.3488833" lon="-1.705775"><ele>214.5</ele><time>2026-05-03T17:08:20.783Z</time></trkpt><trkpt lat="53.3489133" lon="-1.7059933"><ele>215.25</ele><time>2026-05-03T17:08:21.787Z</time></trkpt><trkpt lat="53.348955" lon="-1.7062433"><ele>216.0</ele><time>2026-05-03T17:08:22.783Z</time></trkpt><trkpt lat="53.3490033" lon="-1.70649"><ele>216.0</ele><time>2026-05-03T17:08:23.786Z</time></trkpt><trkpt lat="53.349055" lon="-1.7067383"><ele>216.0</ele><time>2026-05-03T17:08:24.783Z</time></trkpt><trkpt lat="53.349105" lon="-1.70698"><ele>216.0</ele><time>2026-05-03T17:08:25.784Z</time></trkpt><trkpt lat="53.3491483" lon="-1.7072083"><ele>216.0</ele><time>2026-05-03T17:08:26.786Z</time></trkpt><trkpt lat="53.3491917" lon="-1.7074317"><ele>216.0</ele><time>2026-05-03T17:08:27.782Z</time></trkpt><trkpt lat="53.34923" lon="-1.7076233"><ele>216.0</ele><time>2026-05-03T17:08:28.786Z</time></trkpt><trkpt lat="53.3492717" lon="-1.707805"><ele>216.0</ele><time>2026-05-03T17:08:29.782Z</time></trkpt><trkpt lat="53.34931" lon="-1.7079683"><ele>216.20000000000002</ele><time>2026-05-03T17:08:30.785Z</time></trkpt><trkpt lat="53.3493483" lon="-1.7081117"><ele>216.40000000000003</ele><time>2026-05-03T17:08:31.786Z</time></trkpt><trkpt lat="53.3494" lon="-1.7082533"><ele>216.6</ele><time>2026-05-03T17:08:32.784Z</time></trkpt><trkpt lat="53.3494683" lon="-1.7084017"><ele>216.8</ele><time>2026-05-03T17:08:33.785Z</time></trkpt><trkpt lat="53.349545" lon="-1.7085517"><ele>217.0</ele><time>2026-05-03T17:08:34.785Z</time></trkpt><trkpt lat="53.34962" lon="-1.7086983"><ele>216.39999999999998</ele><time>2026-05-03T17:08:35.786Z</time></trkpt><trkpt lat="53.3496917" lon="-1.7088383"><ele>215.79999999999998</ele><time>2026-05-03T17:08:36.785Z</time></trkpt><trkpt lat="53.3497583" lon="-1.7089617"><ele>215.2</ele><time>2026-05-03T17:08:37.785Z</time></trkpt><trkpt lat="53.3498333" lon="-1.7090667"><ele>214.6</ele><time>2026-05-03T17:08:38.784Z</time></trkpt><trkpt lat="53.3499133" lon="-1.7091683"><ele>214.0</ele><time>2026-05-03T17:08:39.786Z</time></trkpt><trkpt lat="53.3499933" lon="-1.7092517"><ele>215.83333333333331</ele><time>2026-05-03T17:08:40.786Z</time></trkpt><trkpt lat="53.35006" lon="-1.7093333"><ele>217.66666666666666</ele><time>2026-05-03T17:08:41.785Z</time></trkpt><trkpt lat="53.3501133" lon="-1.709415"><ele>219.5</ele><time>2026-05-03T17:08:42.785Z</time></trkpt><trkpt lat="53.350155" lon="-1.7095183"><ele>221.33333333333331</ele><time>2026-05-03T17:08:43.786Z</time></trkpt><trkpt lat="53.3501867" lon="-1.7096383"><ele>223.16666666666666</ele><time>2026-05-03T17:08:44.785Z</time></trkpt><trkpt lat="53.350205" lon="-1.7097667"><ele>225.0</ele><time>2026-05-03T17:08:45.785Z</time></trkpt><trkpt lat="53.35022" lon="-1.709925"><ele>225.0</ele><time>2026-05-03T17:08:46.786Z</time></trkpt><trkpt lat="53.3502083" lon="-1.7101267"><ele>225.0</ele><time>2026-05-03T17:08:47.787Z</time></trkpt><trkpt lat="53.3501883" lon="-1.7103583"><ele>225.0</ele><time>2026-05-03T17:08:48.787Z</time></trkpt><trkpt lat="53.350165" lon="-1.7106067"><ele>225.0</ele><time>2026-05-03T17:08:49.784Z</time></trkpt><trkpt lat="53.3501533" lon="-1.7108583"><ele>224.75</ele><time>2026-05-03T17:08:50.786Z</time></trkpt><trkpt lat="53.3501467" lon="-1.7111017"><ele>224.5</ele><time>2026-05-03T17:08:51.782Z</time></trkpt><trkpt lat="53.3501367" lon="-1.7113367"><ele>224.25</ele><time>2026-05-03T17:08:52.783Z</time></trkpt><trkpt lat="53.3501383" lon="-1.7115667"><ele>224.0</ele><time>2026-05-03T17:08:53.783Z</time></trkpt><trkpt lat="53.350155" lon="-1.7117967"><ele>224.0</ele><time>2026-05-03T17:08:54.785Z</time></trkpt><trkpt lat="53.35018" lon="-1.712025"><ele>224.0</ele><time>2026-05-03T17:08:55.784Z</time></trkpt><trkpt lat="53.3502083" lon="-1.712255"><ele>224.0</ele><time>2026-05-03T17:08:56.783Z</time></trkpt><trkpt lat="53.3502333" lon="-1.71248"><ele>224.0</ele><time>2026-05-03T17:08:57.782Z</time></trkpt><trkpt lat="53.3502517" lon="-1.712695"><ele>223.79999999999998</ele><time>2026-05-03T17:08:58.783Z</time></trkpt><trkpt lat="53.3502683" lon="-1.7128933"><ele>223.59999999999997</ele><time>2026-05-03T17:08:59.784Z</time></trkpt><trkpt lat="53.3502867" lon="-1.713075"><ele>223.4</ele><time>2026-05-03T17:09:00.783Z</time></trkpt><trkpt lat="53.3503083" lon="-1.7132367"><ele>223.2</ele><time>2026-05-03T17:09:01.783Z</time></trkpt><trkpt lat="53.350335" lon="-1.7133833"><ele>223.0</ele><time>2026-05-03T17:09:02.783Z</time></trkpt><trkpt lat="53.35037" lon="-1.7135317"><ele>222.2</ele><time>2026-05-03T17:09:03.782Z</time></trkpt><trkpt lat="53.3504083" lon="-1.7136917"><ele>221.4</ele><time>2026-05-03T17:09:04.783Z</time></trkpt><trkpt lat="53.3504517" lon="-1.7138517"><ele>220.59999999999997</ele><time>2026-05-03T17:09:05.783Z</time></trkpt><trkpt lat="53.350495" lon="-1.714015"><ele>219.79999999999998</ele><time>2026-05-03T17:09:06.785Z</time></trkpt><trkpt lat="53.3505367" lon="-1.7141633"><ele>219.0</ele><time>2026-05-03T17:09:07.784Z</time></trkpt><trkpt lat="53.350585" lon="-1.7143217"><ele>220.0</ele><time>2026-05-03T17:09:08.783Z</time></trkpt><trkpt lat="53.350625" lon="-1.7144783"><ele>220.99999999999997</ele><time>2026-05-03T17:09:09.783Z</time></trkpt><trkpt lat="53.3506617" lon="-1.7146383"><ele>221.99999999999997</ele><time>2026-05-03T17:09:10.784Z</time></trkpt><trkpt lat="53.3506933" lon="-1.7148"><ele>223.0</ele><time>2026-05-03T17:09:11.782Z</time></trkpt><trkpt lat="53.3507167" lon="-1.7149533"><ele>224.0</ele><time>2026-05-03T17:09:12.786Z</time></trkpt><trkpt lat="53.350735" lon="-1.7150967"><ele>224.0</ele><time>2026-05-03T17:09:13.784Z</time></trkpt><trkpt lat="53.3507567" lon="-1.7152367"><ele>223.99999999999997</ele><time>2026-05-03T17:09:14.787Z</time></trkpt><trkpt lat="53.3507833" lon="-1.7153733"><ele>223.99999999999997</ele><time>2026-05-03T17:09:15.784Z</time></trkpt><trkpt lat="53.3508183" lon="-1.7155133"><ele>224.0</ele><time>2026-05-03T17:09:16.784Z</time></trkpt><trkpt lat="53.35086" lon="-1.7156617"><ele>224.0</ele><time>2026-05-03T17:09:17.783Z</time></trkpt><trkpt lat="53.3509067" lon="-1.7158033"><ele>224.0</ele><time>2026-05-03T17:09:18.783Z</time></trkpt><trkpt lat="53.350965" lon="-1.7159383"><ele>223.99999999999997</ele><time>2026-05-03T17:09:19.783Z</time></trkpt><trkpt lat="53.351025" lon="-1.7160683"><ele>223.99999999999997</ele><time>2026-05-03T17:09:20.783Z</time></trkpt><trkpt lat="53.35108" lon="-1.716185"><ele>224.0</ele><time>2026-05-03T17:09:21.783Z</time></trkpt><trkpt lat="53.3511283" lon="-1.7162917"><ele>224.0</ele><time>2026-05-03T17:09:22.783Z</time></trkpt><trkpt lat="53.3511817" lon="-1.7164067"><ele>224.00000000000003</ele><time>2026-05-03T17:09:23.783Z</time></trkpt><trkpt lat="53.3512267" lon="-1.7165017"><ele>224.0</ele><time>2026-05-03T17:09:24.783Z</time></trkpt><trkpt lat="53.351275" lon="-1.7165867"><ele>224.0</ele><time>2026-05-03T17:09:25.785Z</time></trkpt><trkpt lat="53.3513817" lon="-1.7166967"><ele>224.0</ele><time>2026-05-03T17:09:27.784Z</time></trkpt><trkpt lat="53.3514383" lon="-1.716745"><ele>224.00000000000003</ele><time>2026-05-03T17:09:28.784Z</time></trkpt><trkpt lat="53.3515267" lon="-1.7168367"><ele>224.0</ele><time>2026-05-03T17:09:30.783Z</time></trkpt><trkpt lat="53.3515783" lon="-1.716995"><ele>225.39999999999998</ele><time>2026-05-03T17:09:32.783Z</time></trkpt><trkpt lat="53.351595" lon="-1.7171283"><ele>226.79999999999998</ele><time>2026-05-03T17:09:33.783Z</time></trkpt><trkpt lat="53.351605" lon="-1.71731"><ele>228.20000000000002</ele><time>2026-05-03T17:09:34.783Z</time></trkpt><trkpt lat="53.35162" lon="-1.71753"><ele>229.60000000000002</ele><time>2026-05-03T17:09:35.784Z</time></trkpt><trkpt lat="53.3516367" lon="-1.7177333"><ele>231.0</ele><time>2026-05-03T17:09:36.787Z</time></trkpt><trkpt lat="53.35165" lon="-1.7179367"><ele>231.75</ele><time>2026-05-03T17:09:37.782Z</time></trkpt><trkpt lat="53.3516567" lon="-1.7181317"><ele>232.5</ele><time>2026-05-03T17:09:38.785Z</time></trkpt><trkpt lat="53.3516583" lon="-1.7183317"><ele>233.25</ele><time>2026-05-03T17:09:39.783Z</time></trkpt><trkpt lat="53.3516633" lon="-1.71852"><ele>234.0</ele><time>2026-05-03T17:09:40.785Z</time></trkpt><trkpt lat="53.351675" lon="-1.718695"><ele>234.0</ele><time>2026-05-03T17:09:41.783Z</time></trkpt><trkpt lat="53.3516933" lon="-1.718855"><ele>233.99999999999997</ele><time>2026-05-03T17:09:42.783Z</time></trkpt><trkpt lat="53.3517183" lon="-1.719015"><ele>233.99999999999997</ele><time>2026-05-03T17:09:43.787Z</time></trkpt><trkpt lat="53.3517433" lon="-1.71918"><ele>234.0</ele><time>2026-05-03T17:09:44.786Z</time></trkpt><trkpt lat="53.3517667" lon="-1.71936"><ele>234.0</ele><time>2026-05-03T17:09:45.783Z</time></trkpt><trkpt lat="53.3517833" lon="-1.71953"><ele>233.6</ele><time>2026-05-03T17:09:46.783Z</time></trkpt><trkpt lat="53.3517983" lon="-1.7196883"><ele>233.2</ele><time>2026-05-03T17:09:47.783Z</time></trkpt><trkpt lat="53.3518067" lon="-1.7198333"><ele>232.79999999999998</ele><time>2026-05-03T17:09:48.782Z</time></trkpt><trkpt lat="53.3518133" lon="-1.719955"><ele>232.39999999999998</ele><time>2026-05-03T17:09:49.783Z</time></trkpt><trkpt lat="53.35184" lon="-1.720135"><ele>232.0</ele><time>2026-05-03T17:09:51.782Z</time></trkpt><trkpt lat="53.3518733" lon="-1.7202967"><ele>231.66666666666666</ele><time>2026-05-03T17:09:53.785Z</time></trkpt><trkpt lat="53.3518967" lon="-1.7204667"><ele>231.33333333333331</ele><time>2026-05-03T17:09:55.784Z</time></trkpt><trkpt lat="53.3519067" lon="-1.720575"><ele>231.0</ele><time>2026-05-03T17:09:56.783Z</time></trkpt><trkpt lat="53.3519083" lon="-1.7206833"><ele>230.66666666666669</ele><time>2026-05-03T17:09:57.783Z</time></trkpt><trkpt lat="53.3518967" lon="-1.72079"><ele>230.33333333333334</ele><time>2026-05-03T17:09:58.783Z</time></trkpt><trkpt lat="53.3518817" lon="-1.7209067"><ele>230.0</ele><time>2026-05-03T17:09:59.782Z</time></trkpt><trkpt lat="53.3518417" lon="-1.721025"><ele>230.33333333333334</ele><time>2026-05-03T17:10:00.783Z</time></trkpt><trkpt lat="53.3517933" lon="-1.7211383"><ele>230.66666666666669</ele><time>2026-05-03T17:10:01.782Z</time></trkpt><trkpt lat="53.3517667" lon="-1.7212633"><ele>231.0</ele><time>2026-05-03T17:10:02.783Z</time></trkpt><trkpt lat="53.35173" lon="-1.7213717"><ele>231.33333333333331</ele><time>2026-05-03T17:10:03.784Z</time></trkpt><trkpt lat="53.35171" lon="-1.7214833"><ele>231.66666666666666</ele><time>2026-05-03T17:10:04.783Z</time></trkpt><trkpt lat="53.3517033" lon="-1.7216117"><ele>232.0</ele><time>2026-05-03T17:10:05.783Z</time></trkpt><trkpt lat="53.35171" lon="-1.7217583"><ele>231.75</ele><time>2026-05-03T17:10:06.783Z</time></trkpt><trkpt lat="53.351735" lon="-1.721945"><ele>231.5</ele><time>2026-05-03T17:10:07.782Z</time></trkpt><trkpt lat="53.3517567" lon="-1.7221333"><ele>231.25</ele><time>2026-05-03T17:10:08.787Z</time></trkpt><trkpt lat="53.3517833" lon="-1.72232"><ele>231.0</ele><time>2026-05-03T17:10:09.783Z</time></trkpt><trkpt lat="53.3518083" lon="-1.7224983"><ele>231.0</ele><time>2026-05-03T17:10:10.785Z</time></trkpt><trkpt lat="53.3518333" lon="-1.7226617"><ele>231.00000000000003</ele><time>2026-05-03T17:10:11.786Z</time></trkpt><trkpt lat="53.3518533" lon="-1.722805"><ele>231.00000000000003</ele><time>2026-05-03T17:10:12.784Z</time></trkpt><trkpt lat="53.3518833" lon="-1.72295"><ele>231.0</ele><time>2026-05-03T17:10:13.783Z</time></trkpt><trkpt lat="53.3519167" lon="-1.7230933"><ele>231.0</ele><time>2026-05-03T17:10:14.786Z</time></trkpt><trkpt lat="53.3519467" lon="-1.723225"><ele>230.20000000000002</ele><time>2026-05-03T17:10:15.783Z</time></trkpt><trkpt lat="53.3519733" lon="-1.7233567"><ele>229.40000000000003</ele><time>2026-05-03T17:10:16.783Z</time></trkpt><trkpt lat="53.3519983" lon="-1.7235"><ele>228.6</ele><time>2026-05-03T17:10:17.783Z</time></trkpt><trkpt lat="53.3520233" lon="-1.7236517"><ele>227.8</ele><time>2026-05-03T17:10:18.782Z</time></trkpt><trkpt lat="53.352045" lon="-1.72381"><ele>227.0</ele><time>2026-05-03T17:10:19.783Z</time></trkpt><trkpt lat="53.3520717" lon="-1.7239633"><ele>227.2</ele><time>2026-05-03T17:10:20.783Z</time></trkpt><trkpt lat="53.352105" lon="-1.7241317"><ele>227.39999999999998</ele><time>2026-05-03T17:10:21.783Z</time></trkpt><trkpt lat="53.3521533" lon="-1.7242967"><ele>227.60000000000002</ele><time>2026-05-03T17:10:22.783Z</time></trkpt><trkpt lat="53.3522" lon="-1.72447"><ele>227.8</ele><time>2026-05-03T17:10:23.783Z</time></trkpt><trkpt lat="53.3522433" lon="-1.72463"><ele>228.0</ele><time>2026-05-03T17:10:24.782Z</time></trkpt><trkpt lat="53.3522817" lon="-1.7247833"><ele>228.0</ele><time>2026-05-03T17:10:25.783Z</time></trkpt><trkpt lat="53.352325" lon="-1.724925"><ele>228.0</ele><time>2026-05-03T17:10:26.782Z</time></trkpt><trkpt lat="53.352365" lon="-1.725055"><ele>228.0</ele><time>2026-05-03T17:10:27.785Z</time></trkpt><trkpt lat="53.35241" lon="-1.7251883"><ele>228.0</ele><time>2026-05-03T17:10:28.783Z</time></trkpt><trkpt lat="53.35245" lon="-1.72532"><ele>228.0</ele><time>2026-05-03T17:10:29.783Z</time></trkpt><trkpt lat="53.3524833" lon="-1.725445"><ele>228.0</ele><time>2026-05-03T17:10:30.783Z</time></trkpt><trkpt lat="53.35251" lon="-1.725565"><ele>228.0</ele><time>2026-05-03T17:10:31.783Z</time></trkpt><trkpt lat="53.352545" lon="-1.7256967"><ele>228.0</ele><time>2026-05-03T17:10:32.783Z</time></trkpt><trkpt lat="53.35258" lon="-1.7258383"><ele>228.0</ele><time>2026-05-03T17:10:33.783Z</time></trkpt><trkpt lat="53.3526017" lon="-1.7259867"><ele>228.0</ele><time>2026-05-03T17:10:34.783Z</time></trkpt><trkpt lat="53.3526233" lon="-1.726105"><ele>228.0</ele><time>2026-05-03T17:10:35.783Z</time></trkpt><trkpt lat="53.3526467" lon="-1.7262233"><ele>228.0</ele><time>2026-05-03T17:10:36.783Z</time></trkpt><trkpt lat="53.3526683" lon="-1.7263433"><ele>227.8</ele><time>2026-05-03T17:10:37.783Z</time></trkpt><trkpt lat="53.3526817" lon="-1.72646"><ele>227.60000000000002</ele><time>2026-05-03T17:10:38.783Z</time></trkpt><trkpt lat="53.352715" lon="-1.7266483"><ele>227.39999999999998</ele><time>2026-05-03T17:10:40.784Z</time></trkpt><trkpt lat="53.352725" lon="-1.7268183"><ele>227.2</ele><time>2026-05-03T17:10:42.784Z</time></trkpt><trkpt lat="53.35271" lon="-1.7270067"><ele>227.0</ele><time>2026-05-03T17:10:44.783Z</time></trkpt><trkpt lat="53.352685" lon="-1.72717"><ele>226.83333333333334</ele><time>2026-05-03T17:10:46.783Z</time></trkpt><trkpt lat="53.35266" lon="-1.7273133"><ele>226.66666666666669</ele><time>2026-05-03T17:10:48.784Z</time></trkpt><trkpt lat="53.3526233" lon="-1.7274217"><ele>226.5</ele><time>2026-05-03T17:10:50.783Z</time></trkpt><trkpt lat="53.352575" lon="-1.727515"><ele>226.33333333333331</ele><time>2026-05-03T17:10:52.782Z</time></trkpt><trkpt lat="53.3525217" lon="-1.7276067"><ele>226.16666666666666</ele><time>2026-05-03T17:10:54.783Z</time></trkpt><trkpt lat="53.3524417" lon="-1.7276517"><ele>226.0</ele><time>2026-05-03T17:10:57.782Z</time></trkpt><trkpt lat="53.3523817" lon="-1.7276983"><ele>226.20000000000002</ele><time>2026-05-03T17:10:58.783Z</time></trkpt><trkpt lat="53.3523133" lon="-1.7277567"><ele>226.40000000000003</ele><time>2026-05-03T17:10:59.784Z</time></trkpt><trkpt lat="53.352195" lon="-1.7278567"><ele>226.6</ele><time>2026-05-03T17:11:01.783Z</time></trkpt><trkpt lat="53.3521417" lon="-1.72794"><ele>226.8</ele><time>2026-05-03T17:11:02.783Z</time></trkpt><trkpt lat="53.3521" lon="-1.728055"><ele>227.0</ele><time>2026-05-03T17:11:03.782Z</time></trkpt><trkpt lat="53.3520617" lon="-1.7281867"><ele>224.6</ele><time>2026-05-03T17:11:04.784Z</time></trkpt><trkpt lat="53.3520333" lon="-1.72832"><ele>222.2</ele><time>2026-05-03T17:11:05.784Z</time></trkpt><trkpt lat="53.3520017" lon="-1.7284833"><ele>219.8</ele><time>2026-05-03T17:11:06.782Z</time></trkpt><trkpt lat="53.3519617" lon="-1.7286867"><ele>217.4</ele><time>2026-05-03T17:11:07.784Z</time></trkpt><trkpt lat="53.3519283" lon="-1.728865"><ele>215.0</ele><time>2026-05-03T17:11:08.782Z</time></trkpt><trkpt lat="53.3518883" lon="-1.72907"><ele>215.0</ele><time>2026-05-03T17:11:09.784Z</time></trkpt><trkpt lat="53.3518617" lon="-1.7292483"><ele>215.0</ele><time>2026-05-03T17:11:10.784Z</time></trkpt><trkpt lat="53.3518517" lon="-1.7294083"><ele>215.0</ele><time>2026-05-03T17:11:11.784Z</time></trkpt><trkpt lat="53.351845" lon="-1.7295567"><ele>215.0</ele><time>2026-05-03T17:11:12.783Z</time></trkpt><trkpt lat="53.35184" lon="-1.72967"><ele>215.0</ele><time>2026-05-03T17:11:13.782Z</time></trkpt><trkpt lat="53.3518067" lon="-1.729825"><ele>214.8</ele><time>2026-05-03T17:11:15.784Z</time></trkpt><trkpt lat="53.3517467" lon="-1.729935"><ele>214.6</ele><time>2026-05-03T17:11:17.783Z</time></trkpt><trkpt lat="53.35169" lon="-1.7299817"><ele>214.39999999999998</ele><time>2026-05-03T17:11:18.781Z</time></trkpt><trkpt lat="53.35156" lon="-1.730005"><ele>214.2</ele><time>2026-05-03T17:11:19.784Z</time></trkpt><trkpt lat="53.3514533" lon="-1.730115"><ele>214.0</ele><time>2026-05-03T17:11:20.782Z</time></trkpt><trkpt lat="53.3513433" lon="-1.7302367"><ele>212.25</ele><time>2026-05-03T17:11:21.784Z</time></trkpt><trkpt lat="53.351245" lon="-1.7303517"><ele>210.5</ele><time>2026-05-03T17:11:22.782Z</time></trkpt><trkpt lat="53.3511567" lon="-1.730475"><ele>208.75</ele><time>2026-05-03T17:11:23.785Z</time></trkpt><trkpt lat="53.3510833" lon="-1.7306067"><ele>207.0</ele><time>2026-05-03T17:11:24.782Z</time></trkpt><trkpt lat="53.3510067" lon="-1.7307383"><ele>207.0</ele><time>2026-05-03T17:11:25.783Z</time></trkpt><trkpt lat="53.350915" lon="-1.7308433"><ele>207.0</ele><time>2026-05-03T17:11:26.783Z</time></trkpt><trkpt lat="53.3508167" lon="-1.7309433"><ele>207.0</ele><time>2026-05-03T17:11:27.782Z</time></trkpt><trkpt lat="53.3507017" lon="-1.731035"><ele>207.0</ele><time>2026-05-03T17:11:28.785Z</time></trkpt><trkpt lat="53.3505683" lon="-1.731115"><ele>204.25</ele><time>2026-05-03T17:11:29.783Z</time></trkpt><trkpt lat="53.350425" lon="-1.7311983"><ele>201.5</ele><time>2026-05-03T17:11:30.783Z</time></trkpt><trkpt lat="53.3502883" lon="-1.73131"><ele>198.75</ele><time>2026-05-03T17:11:31.782Z</time></trkpt><trkpt lat="53.3501583" lon="-1.7314"><ele>196.0</ele><time>2026-05-03T17:11:32.783Z</time></trkpt><trkpt lat="53.35002" lon="-1.7315517"><ele>196.0</ele><time>2026-05-03T17:11:33.784Z</time></trkpt><trkpt lat="53.3498867" lon="-1.7317"><ele>196.0</ele><time>2026-05-03T17:11:34.782Z</time></trkpt><trkpt lat="53.3497467" lon="-1.7318683"><ele>196.0</ele><time>2026-05-03T17:11:35.783Z</time></trkpt><trkpt lat="53.3496167" lon="-1.732025"><ele>192.75</ele><time>2026-05-03T17:11:36.783Z</time></trkpt><trkpt lat="53.3494917" lon="-1.7321767"><ele>189.5</ele><time>2026-05-03T17:11:37.782Z</time></trkpt><trkpt lat="53.34937" lon="-1.732315"><ele>186.25</ele><time>2026-05-03T17:11:38.782Z</time></trkpt><trkpt lat="53.3492483" lon="-1.7324417"><ele>183.0</ele><time>2026-05-03T17:11:39.782Z</time></trkpt><trkpt lat="53.3491267" lon="-1.732575"><ele>183.0</ele><time>2026-05-03T17:11:40.782Z</time></trkpt><trkpt lat="53.3490067" lon="-1.7327017"><ele>183.0</ele><time>2026-05-03T17:11:41.784Z</time></trkpt><trkpt lat="53.3488933" lon="-1.732825"><ele>183.0</ele><time>2026-05-03T17:11:42.783Z</time></trkpt><trkpt lat="53.3487867" lon="-1.73296"><ele>183.0</ele><time>2026-05-03T17:11:43.785Z</time></trkpt><trkpt lat="53.3486817" lon="-1.7330983"><ele>181.25</ele><time>2026-05-03T17:11:44.782Z</time></trkpt><trkpt lat="53.3485717" lon="-1.733255"><ele>179.5</ele><time>2026-05-03T17:11:45.782Z</time></trkpt><trkpt lat="53.3484667" lon="-1.7334067"><ele>177.75</ele><time>2026-05-03T17:11:46.783Z</time></trkpt><trkpt lat="53.348365" lon="-1.7335783"><ele>176.0</ele><time>2026-05-03T17:11:47.783Z</time></trkpt><trkpt lat="53.34827" lon="-1.7337683"><ele>175.5</ele><time>2026-05-03T17:11:48.782Z</time></trkpt><trkpt lat="53.3481817" lon="-1.7339617"><ele>175.0</ele><time>2026-05-03T17:11:49.782Z</time></trkpt><trkpt lat="53.3480967" lon="-1.7341417"><ele>174.5</ele><time>2026-05-03T17:11:50.783Z</time></trkpt><trkpt lat="53.348015" lon="-1.7343333"><ele>174.0</ele><time>2026-05-03T17:11:51.782Z</time></trkpt><trkpt lat="53.3479383" lon="-1.7345133"><ele>172.75</ele><time>2026-05-03T17:11:52.783Z</time></trkpt><trkpt lat="53.3478433" lon="-1.7346917"><ele>171.5</ele><time>2026-05-03T17:11:53.783Z</time></trkpt><trkpt lat="53.34774" lon="-1.7348467"><ele>170.25</ele><time>2026-05-03T17:11:54.782Z</time></trkpt><trkpt lat="53.3476267" lon="-1.734985"><ele>169.0</ele><time>2026-05-03T17:11:55.784Z</time></trkpt><trkpt lat="53.347505" lon="-1.7350967"><ele>169.0</ele><time>2026-05-03T17:11:56.782Z</time></trkpt><trkpt lat="53.3473817" lon="-1.73519"><ele>169.0</ele><time>2026-05-03T17:11:57.783Z</time></trkpt><trkpt lat="53.3472517" lon="-1.7352517"><ele>169.0</ele><time>2026-05-03T17:11:58.783Z</time></trkpt><trkpt lat="53.3471217" lon="-1.7352967"><ele>169.0</ele><time>2026-05-03T17:11:59.783Z</time></trkpt><trkpt lat="53.3470033" lon="-1.7353283"><ele>168.39999999999998</ele><time>2026-05-03T17:12:00.783Z</time></trkpt><trkpt lat="53.3469067" lon="-1.7353667"><ele>167.8</ele><time>2026-05-03T17:12:01.785Z</time></trkpt><trkpt lat="53.3468233" lon="-1.735415"><ele>167.2</ele><time>2026-05-03T17:12:02.784Z</time></trkpt><trkpt lat="53.3467483" lon="-1.7354867"><ele>166.60000000000002</ele><time>2026-05-03T17:12:03.783Z</time></trkpt><trkpt lat="53.3466833" lon="-1.7355983"><ele>166.0</ele><time>2026-05-03T17:12:04.783Z</time></trkpt><trkpt lat="53.34665" lon="-1.7357517"><ele>166.0</ele><time>2026-05-03T17:12:05.782Z</time></trkpt><trkpt lat="53.346635" lon="-1.7359267"><ele>166.0</ele><time>2026-05-03T17:12:06.786Z</time></trkpt><trkpt lat="53.34664" lon="-1.7361083"><ele>166.0</ele><time>2026-05-03T17:12:07.785Z</time></trkpt><trkpt lat="53.3466633" lon="-1.7362667"><ele>166.0</ele><time>2026-05-03T17:12:08.785Z</time></trkpt><trkpt lat="53.3466917" lon="-1.7364083"><ele>166.0</ele><time>2026-05-03T17:12:09.784Z</time></trkpt><trkpt lat="53.3467167" lon="-1.736545"><ele>166.0</ele><time>2026-05-03T17:12:10.783Z</time></trkpt><trkpt lat="53.3467283" lon="-1.7366767"><ele>166.0</ele><time>2026-05-03T17:12:11.784Z</time></trkpt><trkpt lat="53.3467217" lon="-1.7367833"><ele>166.0</ele><time>2026-05-03T17:12:12.782Z</time></trkpt><trkpt lat="53.3466333" lon="-1.7369183"><ele>166.0</ele><time>2026-05-03T17:12:14.784Z</time></trkpt><trkpt lat="53.34658" lon="-1.7369883"><ele>166.0</ele><time>2026-05-03T17:12:15.782Z</time></trkpt><trkpt lat="53.346485" lon="-1.7370933"><ele>166.0</ele><time>2026-05-03T17:12:17.782Z</time></trkpt><trkpt lat="53.3464383" lon="-1.73719"><ele>165.83333333333334</ele><time>2026-05-03T17:12:32.783Z</time></trkpt><trkpt lat="53.34646" lon="-1.7372933"><ele>165.66666666666669</ele><time>2026-05-03T17:12:33.781Z</time></trkpt><trkpt lat="53.3465017" lon="-1.7374133"><ele>165.5</ele><time>2026-05-03T17:12:34.785Z</time></trkpt><trkpt lat="53.3465517" lon="-1.7375467"><ele>165.33333333333334</ele><time>2026-05-03T17:12:35.787Z</time></trkpt><trkpt lat="53.3466067" lon="-1.7376833"><ele>165.16666666666666</ele><time>2026-05-03T17:12:36.786Z</time></trkpt><trkpt lat="53.3466617" lon="-1.7378283"><ele>165.0</ele><time>2026-05-03T17:12:37.783Z</time></trkpt><trkpt lat="53.3467183" lon="-1.7379717"><ele>165.0</ele><time>2026-05-03T17:12:38.782Z</time></trkpt><trkpt lat="53.346775" lon="-1.7381133"><ele>165.0</ele><time>2026-05-03T17:12:39.782Z</time></trkpt><trkpt lat="53.3468317" lon="-1.73825"><ele>165.0</ele><time>2026-05-03T17:12:40.783Z</time></trkpt><trkpt lat="53.346885" lon="-1.7383767"><ele>165.0</ele><time>2026-05-03T17:12:41.782Z</time></trkpt><trkpt lat="53.34694" lon="-1.7385117"><ele>165.0</ele><time>2026-05-03T17:12:42.783Z</time></trkpt><trkpt lat="53.34699" lon="-1.7386467"><ele>165.6</ele><time>2026-05-03T17:12:43.784Z</time></trkpt><trkpt lat="53.3470367" lon="-1.7387733"><ele>166.2</ele><time>2026-05-03T17:12:44.787Z</time></trkpt><trkpt lat="53.3470817" lon="-1.7389083"><ele>166.8</ele><time>2026-05-03T17:12:45.783Z</time></trkpt><trkpt lat="53.34712" lon="-1.7390483"><ele>167.4</ele><time>2026-05-03T17:12:46.784Z</time></trkpt><trkpt lat="53.3471617" lon="-1.7392083"><ele>168.0</ele><time>2026-05-03T17:12:47.784Z</time></trkpt><trkpt lat="53.3472017" lon="-1.7393833"><ele>168.4</ele><time>2026-05-03T17:12:48.786Z</time></trkpt><trkpt lat="53.34724" lon="-1.7395667"><ele>168.8</ele><time>2026-05-03T17:12:49.786Z</time></trkpt><trkpt lat="53.3472717" lon="-1.7397333"><ele>169.2</ele><time>2026-05-03T17:12:50.787Z</time></trkpt><trkpt lat="53.3473017" lon="-1.7398917"><ele>169.6</ele><time>2026-05-03T17:12:51.782Z</time></trkpt><trkpt lat="53.3473267" lon="-1.7400417"><ele>170.0</ele><time>2026-05-03T17:12:52.783Z</time></trkpt><trkpt lat="53.3473517" lon="-1.74019"><ele>170.0</ele><time>2026-05-03T17:12:53.786Z</time></trkpt><trkpt lat="53.347375" lon="-1.7403383"><ele>170.0</ele><time>2026-05-03T17:12:54.787Z</time></trkpt><trkpt lat="53.3474033" lon="-1.7404883"><ele>170.0</ele><time>2026-05-03T17:12:55.784Z</time></trkpt><trkpt lat="53.3474317" lon="-1.7406417"><ele>170.0</ele><time>2026-05-03T17:12:56.783Z</time></trkpt><trkpt lat="53.3474617" lon="-1.7407883"><ele>170.0</ele><time>2026-05-03T17:12:57.783Z</time></trkpt><trkpt lat="53.347495" lon="-1.7409317"><ele>170.0</ele><time>2026-05-03T17:12:58.783Z</time></trkpt><trkpt lat="53.3475317" lon="-1.74107"><ele>170.0</ele><time>2026-05-03T17:12:59.784Z</time></trkpt><trkpt lat="53.347575" lon="-1.7412"><ele>170.0</ele><time>2026-05-03T17:13:00.785Z</time></trkpt><trkpt lat="53.3476283" lon="-1.7413167"><ele>170.0</ele><time>2026-05-03T17:13:01.783Z</time></trkpt><trkpt lat="53.3476933" lon="-1.741425"><ele>170.0</ele><time>2026-05-03T17:13:02.782Z</time></trkpt><trkpt lat="53.3477667" lon="-1.7415083"><ele>170.0</ele><time>2026-05-03T17:13:03.782Z</time></trkpt><trkpt lat="53.3478467" lon="-1.7415817"><ele>170.0</ele><time>2026-05-03T17:13:04.783Z</time></trkpt><trkpt lat="53.347925" lon="-1.7416583"><ele>170.0</ele><time>2026-05-03T17:13:05.783Z</time></trkpt><trkpt lat="53.34799" lon="-1.7417533"><ele>170.0</ele><time>2026-05-03T17:13:06.783Z</time></trkpt><trkpt lat="53.3480383" lon="-1.741875"><ele>170.0</ele><time>2026-05-03T17:13:07.784Z</time></trkpt><trkpt lat="53.3480683" lon="-1.7420083"><ele>170.0</ele><time>2026-05-03T17:13:08.782Z</time></trkpt><trkpt lat="53.34809" lon="-1.7421367"><ele>170.0</ele><time>2026-05-03T17:13:09.781Z</time></trkpt><trkpt lat="53.348105" lon="-1.74227"><ele>170.0</ele><time>2026-05-03T17:13:10.782Z</time></trkpt><trkpt lat="53.3481183" lon="-1.7423983"><ele>170.0</ele><time>2026-05-03T17:13:11.784Z</time></trkpt><trkpt lat="53.3481367" lon="-1.74253"><ele>170.0</ele><time>2026-05-03T17:13:12.783Z</time></trkpt><trkpt lat="53.34815" lon="-1.7426417"><ele>170.0</ele><time>2026-05-03T17:13:13.783Z</time></trkpt><trkpt lat="53.3481683" lon="-1.7428333"><ele>170.0</ele><time>2026-05-03T17:13:15.785Z</time></trkpt><trkpt lat="53.348175" lon="-1.7430033"><ele>170.0</ele><time>2026-05-03T17:13:17.782Z</time></trkpt><trkpt lat="53.348165" lon="-1.74312"><ele>170.0</ele><time>2026-05-03T17:13:19.783Z</time></trkpt><trkpt lat="53.348175" lon="-1.7432267"><ele>170.0</ele><time>2026-05-03T17:15:35.785Z</time></trkpt><trkpt lat="53.3481067" lon="-1.7431767"><ele>170.0</ele><time>2026-05-03T17:16:13.786Z</time></trkpt><trkpt lat="53.3480367" lon="-1.7432267"><ele>170.0</ele><time>2026-05-03T17:16:16.785Z</time></trkpt><trkpt lat="53.3479417" lon="-1.74324"><ele>170.0</ele><time>2026-05-03T17:16:19.786Z</time></trkpt><trkpt lat="53.3478417" lon="-1.7432383"><ele>170.0</ele><time>2026-05-03T17:16:21.786Z</time></trkpt><trkpt lat="53.34773" lon="-1.7432183"><ele>169.75</ele><time>2026-05-03T17:16:23.787Z</time></trkpt><trkpt lat="53.3476083" lon="-1.7431833"><ele>169.5</ele><time>2026-05-03T17:16:25.786Z</time></trkpt><trkpt lat="53.3474867" lon="-1.7431517"><ele>169.25</ele><time>2026-05-03T17:16:27.786Z</time></trkpt><trkpt lat="53.3473633" lon="-1.7431217"><ele>169.0</ele><time>2026-05-03T17:16:29.787Z</time></trkpt><trkpt lat="53.3472433" lon="-1.7431317"><ele>168.6</ele><time>2026-05-03T17:16:31.787Z</time></trkpt><trkpt lat="53.3471467" lon="-1.7431833"><ele>168.2</ele><time>2026-05-03T17:16:33.787Z</time></trkpt><trkpt lat="53.3470533" lon="-1.74323"><ele>167.79999999999998</ele><time>2026-05-03T17:16:35.787Z</time></trkpt><trkpt lat="53.346955" lon="-1.7432617"><ele>167.39999999999998</ele><time>2026-05-03T17:16:37.788Z</time></trkpt><trkpt lat="53.3468517" lon="-1.7433"><ele>167.0</ele><time>2026-05-03T17:16:39.785Z</time></trkpt><trkpt lat="53.3467633" lon="-1.7433483"><ele>167.0</ele><time>2026-05-03T17:16:41.785Z</time></trkpt><trkpt lat="53.3466917" lon="-1.7433883"><ele>167.0</ele><time>2026-05-03T17:16:43.788Z</time></trkpt><trkpt lat="53.34662" lon="-1.74343"><ele>167.0</ele><time>2026-05-03T17:16:45.785Z</time></trkpt><trkpt lat="53.3465483" lon="-1.743475"><ele>167.0</ele><time>2026-05-03T17:16:47.786Z</time></trkpt><trkpt lat="53.3464617" lon="-1.7435133"><ele>167.0</ele><time>2026-05-03T17:16:49.784Z</time></trkpt><trkpt lat="53.346365" lon="-1.74355"><ele>167.0</ele><time>2026-05-03T17:16:51.785Z</time></trkpt><trkpt lat="53.3462983" lon="-1.7435833"><ele>169.0</ele><time>2026-05-03T17:16:53.785Z</time></trkpt><trkpt lat="53.3462117" lon="-1.74372"><ele>171.0</ele><time>2026-05-03T17:19:18.784Z</time></trkpt><trkpt lat="53.346135" lon="-1.74381"><ele>173.0</ele><time>2026-05-03T17:19:20.782Z</time></trkpt><trkpt lat="53.3460383" lon="-1.7438967"><ele>175.0</ele><time>2026-05-03T17:19:22.786Z</time></trkpt><trkpt lat="53.345955" lon="-1.7439733"><ele>177.0</ele><time>2026-05-03T17:19:24.783Z</time></trkpt><trkpt lat="53.3458683" lon="-1.74405"><ele>177.0</ele><time>2026-05-03T17:19:26.782Z</time></trkpt><trkpt lat="53.3457417" lon="-1.7441517"><ele>177.0</ele><time>2026-05-03T17:19:28.784Z</time></trkpt><trkpt lat="53.3456567" lon="-1.74423"><ele>177.0</ele><time>2026-05-03T17:19:29.784Z</time></trkpt><trkpt lat="53.3455567" lon="-1.744335"><ele>177.0</ele><time>2026-05-03T17:19:30.783Z</time></trkpt><trkpt lat="53.3454667" lon="-1.7444517"><ele>181.25</ele><time>2026-05-03T17:19:31.783Z</time></trkpt><trkpt lat="53.3453833" lon="-1.744595"><ele>185.5</ele><time>2026-05-03T17:19:32.782Z</time></trkpt><trkpt lat="53.345315" lon="-1.7447633"><ele>189.75</ele><time>2026-05-03T17:19:33.783Z</time></trkpt><trkpt lat="53.34525" lon="-1.7449583"><ele>194.0</ele><time>2026-05-03T17:19:34.782Z</time></trkpt><trkpt lat="53.34519" lon="-1.7451717"><ele>194.25</ele><time>2026-05-03T17:19:35.783Z</time></trkpt><trkpt lat="53.3451267" lon="-1.7453883"><ele>194.5</ele><time>2026-05-03T17:19:36.783Z</time></trkpt><trkpt lat="53.34506" lon="-1.74562"><ele>194.75</ele><time>2026-05-03T17:19:37.784Z</time></trkpt><trkpt lat="53.3449967" lon="-1.7458467"><ele>195.0</ele><time>2026-05-03T17:19:38.784Z</time></trkpt><trkpt lat="53.3449383" lon="-1.74608"><ele>193.66666666666666</ele><time>2026-05-03T17:19:39.782Z</time></trkpt><trkpt lat="53.3448783" lon="-1.746315"><ele>192.33333333333331</ele><time>2026-05-03T17:19:40.784Z</time></trkpt><trkpt lat="53.344835" lon="-1.7465667"><ele>191.0</ele><time>2026-05-03T17:19:41.783Z</time></trkpt><trkpt lat="53.3447933" lon="-1.7468283"><ele>190.33333333333331</ele><time>2026-05-03T17:19:42.784Z</time></trkpt><trkpt lat="53.3447517" lon="-1.7470883"><ele>189.66666666666666</ele><time>2026-05-03T17:19:43.783Z</time></trkpt><trkpt lat="53.3447133" lon="-1.747365"><ele>189.0</ele><time>2026-05-03T17:19:44.783Z</time></trkpt><trkpt lat="53.3446683" lon="-1.74766"><ele>195.33333333333331</ele><time>2026-05-03T17:19:45.784Z</time></trkpt><trkpt lat="53.34461" lon="-1.7479633"><ele>201.66666666666666</ele><time>2026-05-03T17:19:46.783Z</time></trkpt><trkpt lat="53.3445467" lon="-1.748255"><ele>208.0</ele><time>2026-05-03T17:19:47.784Z</time></trkpt><trkpt lat="53.3444717" lon="-1.7485267"><ele>206.0</ele><time>2026-05-03T17:19:48.783Z</time></trkpt><trkpt lat="53.344395" lon="-1.7487833"><ele>204.0</ele><time>2026-05-03T17:19:49.784Z</time></trkpt><trkpt lat="53.3443167" lon="-1.7490367"><ele>202.0</ele><time>2026-05-03T17:19:50.783Z</time></trkpt><trkpt lat="53.3442483" lon="-1.7492983"><ele>200.33333333333331</ele><time>2026-05-03T17:19:51.782Z</time></trkpt><trkpt lat="53.34419" lon="-1.7495867"><ele>198.66666666666669</ele><time>2026-05-03T17:19:52.784Z</time></trkpt><trkpt lat="53.34414" lon="-1.7498733"><ele>197.0</ele><time>2026-05-03T17:19:53.783Z</time></trkpt><trkpt lat="53.344095" lon="-1.750145"><ele>195.0</ele><time>2026-05-03T17:19:54.784Z</time></trkpt><trkpt lat="53.3440533" lon="-1.750405"><ele>193.0</ele><time>2026-05-03T17:19:55.784Z</time></trkpt><trkpt lat="53.344005" lon="-1.7506483"><ele>191.0</ele><time>2026-05-03T17:19:56.783Z</time></trkpt><trkpt lat="53.3439417" lon="-1.75088"><ele>193.0</ele><time>2026-05-03T17:19:57.783Z</time></trkpt><trkpt lat="53.3438667" lon="-1.7510967"><ele>195.0</ele><time>2026-05-03T17:19:58.783Z</time></trkpt><trkpt lat="53.3437717" lon="-1.7512917"><ele>197.0</ele><time>2026-05-03T17:19:59.783Z</time></trkpt><trkpt lat="53.34366" lon="-1.7514633"><ele>197.0</ele><time>2026-05-03T17:20:00.782Z</time></trkpt><trkpt lat="53.34353" lon="-1.7516167"><ele>197.0</ele><time>2026-05-03T17:20:01.783Z</time></trkpt><trkpt lat="53.3433867" lon="-1.7517667"><ele>197.0</ele><time>2026-05-03T17:20:02.784Z</time></trkpt><trkpt lat="53.3432367" lon="-1.7518967"><ele>195.33333333333334</ele><time>2026-05-03T17:20:03.784Z</time></trkpt><trkpt lat="53.3430733" lon="-1.7520217"><ele>193.66666666666669</ele><time>2026-05-03T17:20:04.783Z</time></trkpt><trkpt lat="53.34291" lon="-1.7521417"><ele>192.0</ele><time>2026-05-03T17:20:05.783Z</time></trkpt><trkpt lat="53.34275" lon="-1.7522617"><ele>192.0</ele><time>2026-05-03T17:20:06.783Z</time></trkpt><trkpt lat="53.3425983" lon="-1.7524033"><ele>192.0</ele><time>2026-05-03T17:20:07.783Z</time></trkpt><trkpt lat="53.342455" lon="-1.7525567"><ele>192.0</ele><time>2026-05-03T17:20:08.783Z</time></trkpt><trkpt lat="53.3423133" lon="-1.752725"><ele>190.33333333333334</ele><time>2026-05-03T17:20:09.784Z</time></trkpt><trkpt lat="53.3421733" lon="-1.752895"><ele>188.66666666666669</ele><time>2026-05-03T17:20:10.784Z</time></trkpt><trkpt lat="53.3420383" lon="-1.7530667"><ele>187.0</ele><time>2026-05-03T17:20:11.783Z</time></trkpt><trkpt lat="53.3419133" lon="-1.7532333"><ele>187.0</ele><time>2026-05-03T17:20:12.784Z</time></trkpt><trkpt lat="53.3418" lon="-1.7533883"><ele>187.0</ele><time>2026-05-03T17:20:13.784Z</time></trkpt><trkpt lat="53.341705" lon="-1.75352"><ele>187.0</ele><time>2026-05-03T17:20:14.782Z</time></trkpt><trkpt lat="53.34164" lon="-1.7536567"><ele>187.0</ele><time>2026-05-03T17:20:15.782Z</time></trkpt><trkpt lat="53.3415883" lon="-1.7538033"><ele>186.8</ele><time>2026-05-03T17:20:16.783Z</time></trkpt><trkpt lat="53.3415483" lon="-1.7539667"><ele>186.6</ele><time>2026-05-03T17:20:17.782Z</time></trkpt><trkpt lat="53.3415067" lon="-1.7541183"><ele>186.4</ele><time>2026-05-03T17:20:18.782Z</time></trkpt><trkpt lat="53.3414483" lon="-1.7542333"><ele>186.20000000000002</ele><time>2026-05-03T17:20:19.783Z</time></trkpt><trkpt lat="53.34139" lon="-1.75433"><ele>186.0</ele><time>2026-05-03T17:20:20.784Z</time></trkpt><trkpt lat="53.3413333" lon="-1.7544133"><ele>186.8</ele><time>2026-05-03T17:20:21.783Z</time></trkpt><trkpt lat="53.3412533" lon="-1.754525"><ele>187.60000000000002</ele><time>2026-05-03T17:20:23.783Z</time></trkpt><trkpt lat="53.3411883" lon="-1.7546483"><ele>188.4</ele><time>2026-05-03T17:20:27.783Z</time></trkpt><trkpt lat="53.34112" lon="-1.7547933"><ele>189.2</ele><time>2026-05-03T17:20:29.784Z</time></trkpt><trkpt lat="53.341065" lon="-1.7548883"><ele>190.0</ele><time>2026-05-03T17:20:30.783Z</time></trkpt><trkpt lat="53.341005" lon="-1.7550033"><ele>190.0</ele><time>2026-05-03T17:20:31.783Z</time></trkpt><trkpt lat="53.340935" lon="-1.7551217"><ele>190.0</ele><time>2026-05-03T17:20:32.782Z</time></trkpt><trkpt lat="53.340865" lon="-1.755245"><ele>190.0</ele><time>2026-05-03T17:20:33.783Z</time></trkpt><trkpt lat="53.34079" lon="-1.7553717"><ele>190.0</ele><time>2026-05-03T17:20:34.784Z</time></trkpt><trkpt lat="53.3407083" lon="-1.7555017"><ele>190.0</ele><time>2026-05-03T17:20:35.783Z</time></trkpt><trkpt lat="53.3406283" lon="-1.7556367"><ele>190.8</ele><time>2026-05-03T17:20:36.783Z</time></trkpt><trkpt lat="53.3405467" lon="-1.755755"><ele>191.6</ele><time>2026-05-03T17:20:37.782Z</time></trkpt><trkpt lat="53.3404633" lon="-1.7558567"><ele>192.39999999999998</ele><time>2026-05-03T17:20:38.784Z</time></trkpt><trkpt lat="53.3403783" lon="-1.7559533"><ele>193.2</ele><time>2026-05-03T17:20:39.784Z</time></trkpt><trkpt lat="53.3403" lon="-1.7560367"><ele>194.0</ele><time>2026-05-03T17:20:40.782Z</time></trkpt><trkpt lat="53.3402333" lon="-1.7561233"><ele>194.00000000000003</ele><time>2026-05-03T17:20:41.783Z</time></trkpt><trkpt lat="53.3401767" lon="-1.75622"><ele>194.0</ele><time>2026-05-03T17:20:42.782Z</time></trkpt><trkpt lat="53.34013" lon="-1.7563267"><ele>194.0</ele><time>2026-05-03T17:20:43.783Z</time></trkpt><trkpt lat="53.34009" lon="-1.756435"><ele>194.0</ele><time>2026-05-03T17:20:44.787Z</time></trkpt><trkpt lat="53.340055" lon="-1.7565517"><ele>194.00000000000003</ele><time>2026-05-03T17:20:45.784Z</time></trkpt><trkpt lat="53.3400233" lon="-1.756665"><ele>194.0</ele><time>2026-05-03T17:20:46.786Z</time></trkpt><trkpt lat="53.3399883" lon="-1.7567683"><ele>194.0</ele><time>2026-05-03T17:20:47.785Z</time></trkpt><trkpt lat="53.339945" lon="-1.7568733"><ele>194.0</ele><time>2026-05-03T17:20:48.787Z</time></trkpt><trkpt lat="53.3398883" lon="-1.7569867"><ele>194.0</ele><time>2026-05-03T17:20:49.784Z</time></trkpt><trkpt lat="53.3398167" lon="-1.7571133"><ele>194.0</ele><time>2026-05-03T17:20:50.786Z</time></trkpt><trkpt lat="53.33974" lon="-1.757255"><ele>194.0</ele><time>2026-05-03T17:20:51.784Z</time></trkpt><trkpt lat="53.339665" lon="-1.7574033"><ele>195.2</ele><time>2026-05-03T17:20:52.784Z</time></trkpt><trkpt lat="53.33959" lon="-1.7575567"><ele>196.39999999999998</ele><time>2026-05-03T17:20:53.787Z</time></trkpt><trkpt lat="53.33952" lon="-1.7577"><ele>197.6</ele><time>2026-05-03T17:20:54.785Z</time></trkpt><trkpt lat="53.339455" lon="-1.7578383"><ele>198.8</ele><time>2026-05-03T17:20:55.784Z</time></trkpt><trkpt lat="53.339395" lon="-1.7579717"><ele>200.0</ele><time>2026-05-03T17:20:56.786Z</time></trkpt><trkpt lat="53.3393367" lon="-1.7580933"><ele>200.33333333333334</ele><time>2026-05-03T17:20:57.785Z</time></trkpt><trkpt lat="53.33928" lon="-1.7582033"><ele>200.66666666666669</ele><time>2026-05-03T17:20:58.784Z</time></trkpt><trkpt lat="53.339235" lon="-1.7583133"><ele>201.0</ele><time>2026-05-03T17:20:59.784Z</time></trkpt><trkpt lat="53.339195" lon="-1.7584167"><ele>201.33333333333331</ele><time>2026-05-03T17:21:00.784Z</time></trkpt><trkpt lat="53.33916" lon="-1.7585317"><ele>201.66666666666666</ele><time>2026-05-03T17:21:01.787Z</time></trkpt><trkpt lat="53.339135" lon="-1.7586567"><ele>202.0</ele><time>2026-05-03T17:21:02.785Z</time></trkpt><trkpt lat="53.3391083" lon="-1.7587683"><ele>202.49999999999997</ele><time>2026-05-03T17:21:03.785Z</time></trkpt><trkpt lat="53.3390783" lon="-1.75887"><ele>203.0</ele><time>2026-05-03T17:21:04.784Z</time></trkpt><trkpt lat="53.3390417" lon="-1.7589683"><ele>203.5</ele><time>2026-05-03T17:21:05.786Z</time></trkpt><trkpt lat="53.3389983" lon="-1.75906"><ele>204.0</ele><time>2026-05-03T17:21:06.786Z</time></trkpt><trkpt lat="53.3389433" lon="-1.7591583"><ele>204.49999999999997</ele><time>2026-05-03T17:21:07.787Z</time></trkpt><trkpt lat="53.338865" lon="-1.7592583"><ele>205.0</ele><time>2026-05-03T17:21:08.785Z</time></trkpt><trkpt lat="53.3387783" lon="-1.7593717"><ele>208.49999999999997</ele><time>2026-05-03T17:21:09.784Z</time></trkpt><trkpt lat="53.3387033" lon="-1.7594683"><ele>212.0</ele><time>2026-05-03T17:21:10.783Z</time></trkpt><trkpt lat="53.3386367" lon="-1.7595583"><ele>215.5</ele><time>2026-05-03T17:21:11.785Z</time></trkpt><trkpt lat="53.338585" lon="-1.7596333"><ele>219.0</ele><time>2026-05-03T17:21:12.785Z</time></trkpt><trkpt lat="53.3385717" lon="-1.7597417"><ele>222.49999999999997</ele><time>2026-05-03T17:21:14.786Z</time></trkpt><trkpt lat="53.3386067" lon="-1.7598467"><ele>226.0</ele><time>2026-05-03T17:21:16.785Z</time></trkpt><trkpt lat="53.33869" lon="-1.759965"><ele>226.0</ele><time>2026-05-03T17:21:18.785Z</time></trkpt><trkpt lat="53.338775" lon="-1.7600567"><ele>226.00000000000003</ele><time>2026-05-03T17:21:19.785Z</time></trkpt><trkpt lat="53.33884" lon="-1.76014"><ele>226.00000000000003</ele><time>2026-05-03T17:21:20.785Z</time></trkpt><trkpt lat="53.338905" lon="-1.760255"><ele>226.0</ele><time>2026-05-03T17:21:21.784Z</time></trkpt><trkpt lat="53.3389667" lon="-1.760395"><ele>226.0</ele><time>2026-05-03T17:21:22.786Z</time></trkpt><trkpt lat="53.33902" lon="-1.7605683"><ele>225.5</ele><time>2026-05-03T17:21:23.786Z</time></trkpt><trkpt lat="53.3390733" lon="-1.76077"><ele>225.0</ele><time>2026-05-03T17:21:24.784Z</time></trkpt><trkpt lat="53.339125" lon="-1.7609983"><ele>224.5</ele><time>2026-05-03T17:21:25.785Z</time></trkpt><trkpt lat="53.339165" lon="-1.7612283"><ele>224.0</ele><time>2026-05-03T17:21:26.785Z</time></trkpt><trkpt lat="53.339195" lon="-1.761455"><ele>227.5</ele><time>2026-05-03T17:21:27.785Z</time></trkpt><trkpt lat="53.339245" lon="-1.761685"><ele>231.0</ele><time>2026-05-03T17:21:28.784Z</time></trkpt><trkpt lat="53.3393033" lon="-1.76191"><ele>234.5</ele><time>2026-05-03T17:21:29.785Z</time></trkpt><trkpt lat="53.3393633" lon="-1.7621233"><ele>238.0</ele><time>2026-05-03T17:21:30.784Z</time></trkpt><trkpt lat="53.3394183" lon="-1.76231"><ele>235.8</ele><time>2026-05-03T17:21:31.785Z</time></trkpt><trkpt lat="53.3394783" lon="-1.7624667"><ele>233.60000000000002</ele><time>2026-05-03T17:21:32.785Z</time></trkpt><trkpt lat="53.33954" lon="-1.7626117"><ele>231.39999999999998</ele><time>2026-05-03T17:21:33.784Z</time></trkpt><trkpt lat="53.3396083" lon="-1.762755"><ele>229.2</ele><time>2026-05-03T17:21:34.785Z</time></trkpt><trkpt lat="53.33968" lon="-1.7628983"><ele>227.0</ele><time>2026-05-03T17:21:35.786Z</time></trkpt><trkpt lat="53.339735" lon="-1.763035"><ele>227.00000000000003</ele><time>2026-05-03T17:21:36.785Z</time></trkpt><trkpt lat="53.3397833" lon="-1.76317"><ele>227.0</ele><time>2026-05-03T17:21:37.784Z</time></trkpt><trkpt lat="53.33982" lon="-1.763315"><ele>227.0</ele><time>2026-05-03T17:21:38.785Z</time></trkpt><trkpt lat="53.3398517" lon="-1.763465"><ele>227.0</ele><time>2026-05-03T17:21:39.785Z</time></trkpt><trkpt lat="53.3398733" lon="-1.763605"><ele>227.00000000000003</ele><time>2026-05-03T17:21:40.785Z</time></trkpt><trkpt lat="53.3398867" lon="-1.7637317"><ele>227.0</ele><time>2026-05-03T17:21:41.785Z</time></trkpt><trkpt lat="53.3398967" lon="-1.7638517"><ele>227.2857142857143</ele><time>2026-05-03T17:21:42.786Z</time></trkpt><trkpt lat="53.339895" lon="-1.7639617"><ele>227.5714285714286</ele><time>2026-05-03T17:21:43.783Z</time></trkpt><trkpt lat="53.3398867" lon="-1.7640667"><ele>227.85714285714286</ele><time>2026-05-03T17:21:44.785Z</time></trkpt><trkpt lat="53.3398617" lon="-1.764165"><ele>228.14285714285717</ele><time>2026-05-03T17:21:45.785Z</time></trkpt><trkpt lat="53.3398267" lon="-1.764265"><ele>228.42857142857144</ele><time>2026-05-03T17:21:46.785Z</time></trkpt><trkpt lat="53.3397783" lon="-1.7643667"><ele>228.71428571428572</ele><time>2026-05-03T17:21:47.784Z</time></trkpt><trkpt lat="53.33973" lon="-1.764485"><ele>229.0</ele><time>2026-05-03T17:21:48.784Z</time></trkpt><trkpt lat="53.33969" lon="-1.7646133"><ele>233.0</ele><time>2026-05-03T17:21:49.785Z</time></trkpt><trkpt lat="53.33965" lon="-1.764765"><ele>236.99999999999997</ele><time>2026-05-03T17:21:50.786Z</time></trkpt><trkpt lat="53.339615" lon="-1.7649167"><ele>240.99999999999997</ele><time>2026-05-03T17:21:51.784Z</time></trkpt><trkpt lat="53.339575" lon="-1.7650633"><ele>245.0</ele><time>2026-05-03T17:21:52.785Z</time></trkpt><trkpt lat="53.339545" lon="-1.7652"><ele>249.0</ele><time>2026-05-03T17:21:53.787Z</time></trkpt><trkpt lat="53.3395183" lon="-1.7653317"><ele>249.0</ele><time>2026-05-03T17:21:54.785Z</time></trkpt><trkpt lat="53.3395" lon="-1.7654483"><ele>248.99999999999997</ele><time>2026-05-03T17:21:55.785Z</time></trkpt><trkpt lat="53.339485" lon="-1.765575"><ele>248.99999999999997</ele><time>2026-05-03T17:21:56.784Z</time></trkpt><trkpt lat="53.3394817" lon="-1.765715"><ele>249.0</ele><time>2026-05-03T17:21:57.785Z</time></trkpt><trkpt lat="53.3394783" lon="-1.765895"><ele>249.0</ele><time>2026-05-03T17:21:58.786Z</time></trkpt><trkpt lat="53.3395083" lon="-1.7660783"><ele>250.25</ele><time>2026-05-03T17:21:59.785Z</time></trkpt><trkpt lat="53.3395267" lon="-1.7662633"><ele>251.5</ele><time>2026-05-03T17:22:00.784Z</time></trkpt><trkpt lat="53.3395567" lon="-1.7664633"><ele>252.75</ele><time>2026-05-03T17:22:01.785Z</time></trkpt><trkpt lat="53.3395867" lon="-1.7666867"><ele>254.0</ele><time>2026-05-03T17:22:02.787Z</time></trkpt><trkpt lat="53.339615" lon="-1.7669067"><ele>255.0</ele><time>2026-05-03T17:22:03.785Z</time></trkpt><trkpt lat="53.3396467" lon="-1.767145"><ele>256.0</ele><time>2026-05-03T17:22:04.784Z</time></trkpt><trkpt lat="53.3396883" lon="-1.7673933"><ele>257.0</ele><time>2026-05-03T17:22:05.785Z</time></trkpt><trkpt lat="53.3397267" lon="-1.7676183"><ele>258.0</ele><time>2026-05-03T17:22:06.785Z</time></trkpt><trkpt lat="53.33977" lon="-1.76783"><ele>248.75</ele><time>2026-05-03T17:22:07.784Z</time></trkpt><trkpt lat="53.3398183" lon="-1.76804"><ele>239.5</ele><time>2026-05-03T17:22:08.785Z</time></trkpt><trkpt lat="53.3398517" lon="-1.768235"><ele>230.25</ele><time>2026-05-03T17:22:09.785Z</time></trkpt><trkpt lat="53.3398783" lon="-1.7684183"><ele>221.0</ele><time>2026-05-03T17:22:10.785Z</time></trkpt><trkpt lat="53.3399083" lon="-1.7686017"><ele>221.0</ele><time>2026-05-03T17:22:11.787Z</time></trkpt><trkpt lat="53.339925" lon="-1.76879"><ele>221.00000000000003</ele><time>2026-05-03T17:22:12.784Z</time></trkpt><trkpt lat="53.33995" lon="-1.7689667"><ele>221.00000000000003</ele><time>2026-05-03T17:22:13.785Z</time></trkpt><trkpt lat="53.339975" lon="-1.76913"><ele>221.0</ele><time>2026-05-03T17:22:14.783Z</time></trkpt><trkpt lat="53.3399967" lon="-1.76929"><ele>221.0</ele><time>2026-05-03T17:22:15.785Z</time></trkpt><trkpt lat="53.34001" lon="-1.769445"><ele>221.00000000000003</ele><time>2026-05-03T17:22:16.785Z</time></trkpt><trkpt lat="53.3400283" lon="-1.76958"><ele>221.0</ele><time>2026-05-03T17:22:17.784Z</time></trkpt><trkpt lat="53.3400383" lon="-1.7697033"><ele>221.0</ele><time>2026-05-03T17:22:18.785Z</time></trkpt><trkpt lat="53.340055" lon="-1.7698167"><ele>221.0</ele><time>2026-05-03T17:22:19.786Z</time></trkpt><trkpt lat="53.3400817" lon="-1.76992"><ele>221.0</ele><time>2026-05-03T17:22:20.786Z</time></trkpt><trkpt lat="53.340115" lon="-1.7700383"><ele>221.00000000000003</ele><time>2026-05-03T17:22:21.784Z</time></trkpt><trkpt lat="53.34015" lon="-1.7701533"><ele>221.0</ele><time>2026-05-03T17:22:22.783Z</time></trkpt><trkpt lat="53.3401883" lon="-1.7702883"><ele>221.0</ele><time>2026-05-03T17:22:23.783Z</time></trkpt><trkpt lat="53.3402367" lon="-1.7704467"><ele>221.00000000000003</ele><time>2026-05-03T17:22:24.785Z</time></trkpt><trkpt lat="53.3402867" lon="-1.7706067"><ele>221.00000000000003</ele><time>2026-05-03T17:22:25.785Z</time></trkpt><trkpt lat="53.34033" lon="-1.7707683"><ele>221.0</ele><time>2026-05-03T17:22:26.785Z</time></trkpt><trkpt lat="53.3403767" lon="-1.7709383"><ele>221.0</ele><time>2026-05-03T17:22:27.783Z</time></trkpt><trkpt lat="53.340425" lon="-1.7711083"><ele>222.8</ele><time>2026-05-03T17:22:28.785Z</time></trkpt><trkpt lat="53.3404633" lon="-1.771275"><ele>224.60000000000002</ele><time>2026-05-03T17:22:29.786Z</time></trkpt><trkpt lat="53.3404983" lon="-1.7714417"><ele>226.4</ele><time>2026-05-03T17:22:30.784Z</time></trkpt><trkpt lat="53.340535" lon="-1.7716133"><ele>228.2</ele><time>2026-05-03T17:22:31.786Z</time></trkpt><trkpt lat="53.3405783" lon="-1.77178"><ele>230.0</ele><time>2026-05-03T17:22:32.787Z</time></trkpt><trkpt lat="53.3406333" lon="-1.7719583"><ele>226.2</ele><time>2026-05-03T17:22:33.785Z</time></trkpt><trkpt lat="53.3406817" lon="-1.7721283"><ele>222.4</ele><time>2026-05-03T17:22:34.786Z</time></trkpt><trkpt lat="53.34073" lon="-1.7722883"><ele>218.60000000000002</ele><time>2026-05-03T17:22:35.786Z</time></trkpt><trkpt lat="53.3407767" lon="-1.7724283"><ele>214.8</ele><time>2026-05-03T17:22:36.784Z</time></trkpt><trkpt lat="53.340815" lon="-1.7725483"><ele>211.0</ele><time>2026-05-03T17:22:37.786Z</time></trkpt><trkpt lat="53.3408533" lon="-1.77266"><ele>212.42857142857144</ele><time>2026-05-03T17:22:38.785Z</time></trkpt><trkpt lat="53.3408917" lon="-1.77276"><ele>213.85714285714286</ele><time>2026-05-03T17:22:39.784Z</time></trkpt><trkpt lat="53.3409317" lon="-1.77286"><ele>215.28571428571428</ele><time>2026-05-03T17:22:40.787Z</time></trkpt><trkpt lat="53.3409733" lon="-1.7729633"><ele>216.71428571428572</ele><time>2026-05-03T17:22:41.784Z</time></trkpt><trkpt lat="53.341015" lon="-1.7730667"><ele>218.14285714285714</ele><time>2026-05-03T17:22:42.784Z</time></trkpt><trkpt lat="53.341055" lon="-1.773165"><ele>219.57142857142858</ele><time>2026-05-03T17:22:43.786Z</time></trkpt><trkpt lat="53.341095" lon="-1.7732633"><ele>221.0</ele><time>2026-05-03T17:22:44.783Z</time></trkpt><trkpt lat="53.3411367" lon="-1.7733683"><ele>221.00000000000003</ele><time>2026-05-03T17:22:45.784Z</time></trkpt><trkpt lat="53.3411767" lon="-1.7734733"><ele>221.0</ele><time>2026-05-03T17:22:46.786Z</time></trkpt><trkpt lat="53.3412183" lon="-1.7735817"><ele>221.0</ele><time>2026-05-03T17:22:47.786Z</time></trkpt><trkpt lat="53.3412533" lon="-1.773695"><ele>221.0</ele><time>2026-05-03T17:22:48.787Z</time></trkpt><trkpt lat="53.3412917" lon="-1.7738117"><ele>221.00000000000003</ele><time>2026-05-03T17:22:49.785Z</time></trkpt><trkpt lat="53.34132" lon="-1.7739283"><ele>221.0</ele><time>2026-05-03T17:22:50.785Z</time></trkpt><trkpt lat="53.3413467" lon="-1.7740567"><ele>222.33333333333334</ele><time>2026-05-03T17:22:51.786Z</time></trkpt><trkpt lat="53.3413683" lon="-1.7741917"><ele>223.66666666666669</ele><time>2026-05-03T17:22:52.785Z</time></trkpt><trkpt lat="53.3413883" lon="-1.77433"><ele>225.0</ele><time>2026-05-03T17:22:53.785Z</time></trkpt><trkpt lat="53.3414" lon="-1.7744633"><ele>226.33333333333331</ele><time>2026-05-03T17:22:54.785Z</time></trkpt><trkpt lat="53.3414067" lon="-1.7745833"><ele>227.66666666666666</ele><time>2026-05-03T17:22:55.785Z</time></trkpt><trkpt lat="53.341415" lon="-1.7747033"><ele>229.0</ele><time>2026-05-03T17:22:56.784Z</time></trkpt><trkpt lat="53.34142" lon="-1.77482"><ele>225.33333333333331</ele><time>2026-05-03T17:22:57.786Z</time></trkpt><trkpt lat="53.3414183" lon="-1.7749433"><ele>221.66666666666666</ele><time>2026-05-03T17:22:58.783Z</time></trkpt><trkpt lat="53.3414183" lon="-1.7750717"><ele>218.0</ele><time>2026-05-03T17:22:59.785Z</time></trkpt><trkpt lat="53.3414183" lon="-1.775185"><ele>214.33333333333331</ele><time>2026-05-03T17:23:00.785Z</time></trkpt><trkpt lat="53.34146" lon="-1.7753767"><ele>210.66666666666666</ele><time>2026-05-03T17:23:02.785Z</time></trkpt><trkpt lat="53.341505" lon="-1.775465"><ele>207.0</ele><time>2026-05-03T17:23:03.784Z</time></trkpt><trkpt lat="53.341565" lon="-1.7755317"><ele>207.00000000000003</ele><time>2026-05-03T17:23:04.784Z</time></trkpt><trkpt lat="53.3416283" lon="-1.775585"><ele>207.0</ele><time>2026-05-03T17:23:05.784Z</time></trkpt><trkpt lat="53.3416883" lon="-1.775635"><ele>207.0</ele><time>2026-05-03T17:23:06.784Z</time></trkpt><trkpt lat="53.3417417" lon="-1.775695"><ele>207.0</ele><time>2026-05-03T17:23:07.785Z</time></trkpt><trkpt lat="53.3417867" lon="-1.7757733"><ele>207.0</ele><time>2026-05-03T17:23:08.784Z</time></trkpt><trkpt lat="53.34183" lon="-1.7758633"><ele>207.00000000000003</ele><time>2026-05-03T17:23:09.784Z</time></trkpt><trkpt lat="53.341865" lon="-1.775965"><ele>207.0</ele><time>2026-05-03T17:23:10.786Z</time></trkpt><trkpt lat="53.3418967" lon="-1.77606"><ele>207.0</ele><time>2026-05-03T17:23:11.784Z</time></trkpt><trkpt lat="53.3419367" lon="-1.7761433"><ele>207.0</ele><time>2026-05-03T17:23:12.784Z</time></trkpt><trkpt lat="53.34198" lon="-1.77622"><ele>207.0</ele><time>2026-05-03T17:23:13.783Z</time></trkpt><trkpt lat="53.3421117" lon="-1.7762833"><ele>207.0</ele><time>2026-05-03T17:23:15.783Z</time></trkpt><trkpt lat="53.34219" lon="-1.7762817"><ele>207.0</ele><time>2026-05-03T17:23:16.785Z</time></trkpt><trkpt lat="53.3422817" lon="-1.7762683"><ele>207.0</ele><time>2026-05-03T17:23:17.785Z</time></trkpt><trkpt lat="53.34237" lon="-1.776275"><ele>204.8</ele><time>2026-05-03T17:23:18.785Z</time></trkpt><trkpt lat="53.3424583" lon="-1.7762767"><ele>202.6</ele><time>2026-05-03T17:23:19.786Z</time></trkpt><trkpt lat="53.3425517" lon="-1.7762667"><ele>200.4</ele><time>2026-05-03T17:23:20.785Z</time></trkpt><trkpt lat="53.3426467" lon="-1.7762617"><ele>198.20000000000002</ele><time>2026-05-03T17:23:21.784Z</time></trkpt><trkpt lat="53.34274" lon="-1.7762517"><ele>196.0</ele><time>2026-05-03T17:23:22.786Z</time></trkpt><trkpt lat="53.3428317" lon="-1.7762483"><ele>195.99999999999997</ele><time>2026-05-03T17:23:23.784Z</time></trkpt><trkpt lat="53.3429183" lon="-1.7762433"><ele>196.0</ele><time>2026-05-03T17:23:24.784Z</time></trkpt><trkpt lat="53.3429967" lon="-1.7762383"><ele>196.0</ele><time>2026-05-03T17:23:25.784Z</time></trkpt><trkpt lat="53.343065" lon="-1.7762383"><ele>196.0</ele><time>2026-05-03T17:23:26.785Z</time></trkpt><trkpt lat="53.3431383" lon="-1.776235"><ele>195.99999999999997</ele><time>2026-05-03T17:23:28.784Z</time></trkpt><trkpt lat="53.34318" lon="-1.77635"><ele>196.0</ele><time>2026-05-03T17:23:32.783Z</time></trkpt><trkpt lat="53.3431933" lon="-1.7765417"><ele>195.20000000000002</ele><time>2026-05-03T17:23:34.783Z</time></trkpt><trkpt lat="53.3431933" lon="-1.776665"><ele>194.4</ele><time>2026-05-03T17:23:35.785Z</time></trkpt><trkpt lat="53.3431817" lon="-1.77678"><ele>193.6</ele><time>2026-05-03T17:23:36.786Z</time></trkpt><trkpt lat="53.3431717" lon="-1.7769867"><ele>192.8</ele><time>2026-05-03T17:23:38.785Z</time></trkpt><trkpt lat="53.3431667" lon="-1.7771767"><ele>192.0</ele><time>2026-05-03T17:23:40.785Z</time></trkpt><trkpt lat="53.34316" lon="-1.7773617"><ele>191.83333333333334</ele><time>2026-05-03T17:23:42.785Z</time></trkpt><trkpt lat="53.3431583" lon="-1.7775633"><ele>191.66666666666666</ele><time>2026-05-03T17:23:44.786Z</time></trkpt><trkpt lat="53.343155" lon="-1.7776783"><ele>191.5</ele><time>2026-05-03T17:23:45.785Z</time></trkpt><trkpt lat="53.3431517" lon="-1.7777967"><ele>191.33333333333331</ele><time>2026-05-03T17:23:46.784Z</time></trkpt><trkpt lat="53.3431483" lon="-1.7779217"><ele>191.16666666666666</ele><time>2026-05-03T17:23:47.785Z</time></trkpt><trkpt lat="53.343145" lon="-1.77805"><ele>191.0</ele><time>2026-05-03T17:23:48.785Z</time></trkpt><trkpt lat="53.3431417" lon="-1.77818"><ele>191.0</ele><time>2026-05-03T17:23:49.785Z</time></trkpt><trkpt lat="53.3431367" lon="-1.7783133"><ele>191.0</ele><time>2026-05-03T17:23:50.783Z</time></trkpt><trkpt lat="53.3431233" lon="-1.77845"><ele>191.0</ele><time>2026-05-03T17:23:51.784Z</time></trkpt><trkpt lat="53.34311" lon="-1.77859"><ele>191.0</ele><time>2026-05-03T17:23:52.786Z</time></trkpt><trkpt lat="53.34309" lon="-1.7787267"><ele>191.0</ele><time>2026-05-03T17:23:53.786Z</time></trkpt><trkpt lat="53.3430633" lon="-1.7788617"><ele>191.0</ele><time>2026-05-03T17:23:54.785Z</time></trkpt><trkpt lat="53.3430317" lon="-1.7789917"><ele>191.60000000000002</ele><time>2026-05-03T17:23:55.785Z</time></trkpt><trkpt lat="53.3430033" lon="-1.7791283"><ele>192.2</ele><time>2026-05-03T17:23:56.786Z</time></trkpt><trkpt lat="53.342975" lon="-1.779275"><ele>192.8</ele><time>2026-05-03T17:23:57.787Z</time></trkpt><trkpt lat="53.3429483" lon="-1.7794233"><ele>193.39999999999998</ele><time>2026-05-03T17:23:58.783Z</time></trkpt><trkpt lat="53.34292" lon="-1.7795783"><ele>194.0</ele><time>2026-05-03T17:23:59.785Z</time></trkpt><trkpt lat="53.3428933" lon="-1.7797383"><ele>194.79999999999998</ele><time>2026-05-03T17:24:00.785Z</time></trkpt><trkpt lat="53.3428683" lon="-1.7799033"><ele>195.6</ele><time>2026-05-03T17:24:01.786Z</time></trkpt><trkpt lat="53.3428467" lon="-1.7800767"><ele>196.4</ele><time>2026-05-03T17:24:02.786Z</time></trkpt><trkpt lat="53.3428233" lon="-1.78025"><ele>197.2</ele><time>2026-05-03T17:24:03.787Z</time></trkpt><trkpt lat="53.3428" lon="-1.7804267"><ele>198.0</ele><time>2026-05-03T17:24:04.785Z</time></trkpt><trkpt lat="53.3427783" lon="-1.7806"><ele>198.0</ele><time>2026-05-03T17:24:05.785Z</time></trkpt><trkpt lat="53.3427567" lon="-1.7807717"><ele>198.0</ele><time>2026-05-03T17:24:06.785Z</time></trkpt><trkpt lat="53.3427333" lon="-1.7809433"><ele>198.0</ele><time>2026-05-03T17:24:07.787Z</time></trkpt><trkpt lat="53.3427083" lon="-1.781115"><ele>198.0</ele><time>2026-05-03T17:24:08.785Z</time></trkpt><trkpt lat="53.3426817" lon="-1.7812867"><ele>198.0</ele><time>2026-05-03T17:24:09.785Z</time></trkpt><trkpt lat="53.342655" lon="-1.78146"><ele>198.2</ele><time>2026-05-03T17:24:10.783Z</time></trkpt><trkpt lat="53.3426333" lon="-1.7816367"><ele>198.4</ele><time>2026-05-03T17:24:11.787Z</time></trkpt><trkpt lat="53.3426067" lon="-1.78181"><ele>198.6</ele><time>2026-05-03T17:24:12.786Z</time></trkpt><trkpt lat="53.3425783" lon="-1.7819883"><ele>198.79999999999998</ele><time>2026-05-03T17:24:13.785Z</time></trkpt><trkpt lat="53.3425517" lon="-1.7821683"><ele>199.0</ele><time>2026-05-03T17:24:14.787Z</time></trkpt><trkpt lat="53.3425283" lon="-1.7823517"><ele>199.0</ele><time>2026-05-03T17:24:15.785Z</time></trkpt><trkpt lat="53.3425083" lon="-1.7825367"><ele>199.0</ele><time>2026-05-03T17:24:16.785Z</time></trkpt><trkpt lat="53.3424933" lon="-1.7827217"><ele>199.0</ele><time>2026-05-03T17:24:17.785Z</time></trkpt><trkpt lat="53.3424867" lon="-1.7829117"><ele>199.0</ele><time>2026-05-03T17:24:18.786Z</time></trkpt><trkpt lat="53.3424783" lon="-1.7831033"><ele>199.6</ele><time>2026-05-03T17:24:19.787Z</time></trkpt><trkpt lat="53.342475" lon="-1.7832967"><ele>200.2</ele><time>2026-05-03T17:24:20.789Z</time></trkpt><trkpt lat="53.3424767" lon="-1.7834783"><ele>200.79999999999998</ele><time>2026-05-03T17:24:21.783Z</time></trkpt><trkpt lat="53.342475" lon="-1.7836333"><ele>201.39999999999998</ele><time>2026-05-03T17:24:22.785Z</time></trkpt><trkpt lat="53.34247" lon="-1.7837683"><ele>202.0</ele><time>2026-05-03T17:24:23.788Z</time></trkpt><trkpt lat="53.34246" lon="-1.783895"><ele>202.49999999999997</ele><time>2026-05-03T17:24:24.786Z</time></trkpt><trkpt lat="53.3424333" lon="-1.7840117"><ele>203.0</ele><time>2026-05-03T17:24:25.784Z</time></trkpt><trkpt lat="53.3424083" lon="-1.7841417"><ele>203.5</ele><time>2026-05-03T17:24:26.784Z</time></trkpt><trkpt lat="53.3423883" lon="-1.7842883"><ele>204.0</ele><time>2026-05-03T17:24:27.785Z</time></trkpt><trkpt lat="53.342375" lon="-1.7844483"><ele>204.49999999999997</ele><time>2026-05-03T17:24:28.785Z</time></trkpt><trkpt lat="53.34236" lon="-1.7846133"><ele>205.0</ele><time>2026-05-03T17:24:29.784Z</time></trkpt><trkpt lat="53.34235" lon="-1.7847883"><ele>205.5</ele><time>2026-05-03T17:24:30.785Z</time></trkpt><trkpt lat="53.3423367" lon="-1.7849683"><ele>206.0</ele><time>2026-05-03T17:24:31.786Z</time></trkpt><trkpt lat="53.3423217" lon="-1.7851533"><ele>206.5</ele><time>2026-05-03T17:24:32.785Z</time></trkpt><trkpt lat="53.3423067" lon="-1.78534"><ele>207.0</ele><time>2026-05-03T17:24:33.785Z</time></trkpt><trkpt lat="53.3422917" lon="-1.785535"><ele>207.75</ele><time>2026-05-03T17:24:34.784Z</time></trkpt><trkpt lat="53.342275" lon="-1.7857383"><ele>208.5</ele><time>2026-05-03T17:24:35.785Z</time></trkpt><trkpt lat="53.34226" lon="-1.7859667"><ele>209.25</ele><time>2026-05-03T17:24:36.786Z</time></trkpt><trkpt lat="53.3422383" lon="-1.7862033"><ele>210.0</ele><time>2026-05-03T17:24:37.784Z</time></trkpt><trkpt lat="53.3422167" lon="-1.786435"><ele>211.25</ele><time>2026-05-03T17:24:38.785Z</time></trkpt><trkpt lat="53.3421883" lon="-1.78666"><ele>212.5</ele><time>2026-05-03T17:24:39.785Z</time></trkpt><trkpt lat="53.3421583" lon="-1.786885"><ele>213.75</ele><time>2026-05-03T17:24:40.787Z</time></trkpt><trkpt lat="53.34213" lon="-1.7871"><ele>215.0</ele><time>2026-05-03T17:24:41.782Z</time></trkpt><trkpt lat="53.3421067" lon="-1.7872983"><ele>215.8</ele><time>2026-05-03T17:24:42.783Z</time></trkpt><trkpt lat="53.342085" lon="-1.7874767"><ele>216.6</ele><time>2026-05-03T17:24:43.783Z</time></trkpt><trkpt lat="53.342065" lon="-1.78765"><ele>217.39999999999998</ele><time>2026-05-03T17:24:44.783Z</time></trkpt><trkpt lat="53.3420467" lon="-1.7878067"><ele>218.2</ele><time>2026-05-03T17:24:45.783Z</time></trkpt><trkpt lat="53.3420333" lon="-1.7879417"><ele>219.0</ele><time>2026-05-03T17:24:46.783Z</time></trkpt><trkpt lat="53.34202" lon="-1.7880483"><ele>219.83333333333334</ele><time>2026-05-03T17:24:47.784Z</time></trkpt><trkpt lat="53.3419983" lon="-1.7882017"><ele>220.66666666666669</ele><time>2026-05-03T17:24:49.782Z</time></trkpt><trkpt lat="53.3419767" lon="-1.7883433"><ele>221.5</ele><time>2026-05-03T17:24:51.785Z</time></trkpt><trkpt lat="53.341955" lon="-1.7884767"><ele>222.33333333333334</ele><time>2026-05-03T17:24:53.785Z</time></trkpt><trkpt lat="53.3419183" lon="-1.7886467"><ele>223.16666666666669</ele><time>2026-05-03T17:24:55.784Z</time></trkpt><trkpt lat="53.3418983" lon="-1.78876"><ele>224.0</ele><time>2026-05-03T17:24:56.786Z</time></trkpt><trkpt lat="53.3418717" lon="-1.7889"><ele>225.0</ele><time>2026-05-03T17:24:57.785Z</time></trkpt><trkpt lat="53.3418417" lon="-1.7890867"><ele>226.0</ele><time>2026-05-03T17:24:58.784Z</time></trkpt><trkpt lat="53.3418017" lon="-1.7893167"><ele>227.0</ele><time>2026-05-03T17:24:59.784Z</time></trkpt><trkpt lat="53.34176" lon="-1.78957"><ele>228.0</ele><time>2026-05-03T17:25:00.785Z</time></trkpt><trkpt lat="53.34172" lon="-1.789845"><ele>229.25</ele><time>2026-05-03T17:25:01.786Z</time></trkpt><trkpt lat="53.3416833" lon="-1.790105"><ele>230.5</ele><time>2026-05-03T17:25:02.785Z</time></trkpt><trkpt lat="53.3416533" lon="-1.7903433"><ele>231.75</ele><time>2026-05-03T17:25:03.785Z</time></trkpt><trkpt lat="53.3416267" lon="-1.7905633"><ele>233.0</ele><time>2026-05-03T17:25:04.784Z</time></trkpt><trkpt lat="53.3416" lon="-1.7907717"><ele>234.60000000000002</ele><time>2026-05-03T17:25:05.785Z</time></trkpt><trkpt lat="53.3415783" lon="-1.7909717"><ele>236.20000000000002</ele><time>2026-05-03T17:25:06.785Z</time></trkpt><trkpt lat="53.341555" lon="-1.791155"><ele>237.8</ele><time>2026-05-03T17:25:07.787Z</time></trkpt><trkpt lat="53.341535" lon="-1.791325"><ele>239.4</ele><time>2026-05-03T17:25:08.785Z</time></trkpt><trkpt lat="53.3415167" lon="-1.7914783"><ele>241.0</ele><time>2026-05-03T17:25:09.785Z</time></trkpt><trkpt lat="53.3414983" lon="-1.7916133"><ele>241.99999999999997</ele><time>2026-05-03T17:25:10.786Z</time></trkpt><trkpt lat="53.3414833" lon="-1.7917433"><ele>243.0</ele><time>2026-05-03T17:25:11.782Z</time></trkpt><trkpt lat="53.3414667" lon="-1.791875"><ele>244.0</ele><time>2026-05-03T17:25:12.785Z</time></trkpt><trkpt lat="53.3414483" lon="-1.792015"><ele>245.0</ele><time>2026-05-03T17:25:13.785Z</time></trkpt><trkpt lat="53.341425" lon="-1.7921617"><ele>245.99999999999997</ele><time>2026-05-03T17:25:14.786Z</time></trkpt><trkpt lat="53.3414067" lon="-1.7923067"><ele>247.0</ele><time>2026-05-03T17:25:15.785Z</time></trkpt><trkpt lat="53.3413867" lon="-1.7924467"><ele>251.85714285714286</ele><time>2026-05-03T17:25:16.784Z</time></trkpt><trkpt lat="53.3413683" lon="-1.7925833"><ele>256.7142857142857</ele><time>2026-05-03T17:25:17.786Z</time></trkpt><trkpt lat="53.34135" lon="-1.7927067"><ele>261.57142857142856</ele><time>2026-05-03T17:25:18.787Z</time></trkpt><trkpt lat="53.3413383" lon="-1.79282"><ele>266.42857142857144</ele><time>2026-05-03T17:25:19.786Z</time></trkpt><trkpt lat="53.3413267" lon="-1.7929267"><ele>271.2857142857143</ele><time>2026-05-03T17:25:20.785Z</time></trkpt><trkpt lat="53.341315" lon="-1.7930317"><ele>276.14285714285717</ele><time>2026-05-03T17:25:21.783Z</time></trkpt><trkpt lat="53.3413033" lon="-1.7931367"><ele>281.0</ele><time>2026-05-03T17:25:22.784Z</time></trkpt><trkpt lat="53.3412883" lon="-1.7932433"><ele>281.00000000000006</ele><time>2026-05-03T17:25:23.785Z</time></trkpt><trkpt lat="53.3412683" lon="-1.79335"><ele>281.0</ele><time>2026-05-03T17:25:24.786Z</time></trkpt><trkpt lat="53.3412417" lon="-1.7934517"><ele>281.0</ele><time>2026-05-03T17:25:25.786Z</time></trkpt><trkpt lat="53.34121" lon="-1.7935617"><ele>281.0</ele><time>2026-05-03T17:25:26.783Z</time></trkpt><trkpt lat="53.3411733" lon="-1.7936717"><ele>281.0</ele><time>2026-05-03T17:25:27.784Z</time></trkpt><trkpt lat="53.3411333" lon="-1.7937767"><ele>281.00000000000006</ele><time>2026-05-03T17:25:28.786Z</time></trkpt><trkpt lat="53.3410917" lon="-1.7938833"><ele>281.0</ele><time>2026-05-03T17:25:29.786Z</time></trkpt><trkpt lat="53.3410517" lon="-1.793995"><ele>281.1666666666667</ele><time>2026-05-03T17:25:30.785Z</time></trkpt><trkpt lat="53.3410017" lon="-1.7941217"><ele>281.33333333333337</ele><time>2026-05-03T17:25:31.786Z</time></trkpt><trkpt lat="53.3409483" lon="-1.794255"><ele>281.5</ele><time>2026-05-03T17:25:32.784Z</time></trkpt><trkpt lat="53.3409" lon="-1.7943817"><ele>281.6666666666667</ele><time>2026-05-03T17:25:33.784Z</time></trkpt><trkpt lat="53.340855" lon="-1.794495"><ele>281.8333333333333</ele><time>2026-05-03T17:25:34.784Z</time></trkpt><trkpt lat="53.3408133" lon="-1.7945983"><ele>282.0</ele><time>2026-05-03T17:25:35.784Z</time></trkpt><trkpt lat="53.3407717" lon="-1.794705"><ele>283.1666666666667</ele><time>2026-05-03T17:25:36.784Z</time></trkpt><trkpt lat="53.3407283" lon="-1.7948167"><ele>284.3333333333333</ele><time>2026-05-03T17:25:37.785Z</time></trkpt><trkpt lat="53.34068" lon="-1.7949333"><ele>285.5</ele><time>2026-05-03T17:25:38.784Z</time></trkpt><trkpt lat="53.3406283" lon="-1.79504"><ele>286.66666666666663</ele><time>2026-05-03T17:25:39.784Z</time></trkpt><trkpt lat="53.3405733" lon="-1.7951433"><ele>287.8333333333333</ele><time>2026-05-03T17:25:40.785Z</time></trkpt><trkpt lat="53.3405133" lon="-1.79525"><ele>289.0</ele><time>2026-05-03T17:25:41.784Z</time></trkpt><trkpt lat="53.3404483" lon="-1.79537"><ele>296.2</ele><time>2026-05-03T17:25:42.785Z</time></trkpt><trkpt lat="53.3403767" lon="-1.7955033"><ele>303.4</ele><time>2026-05-03T17:25:43.784Z</time></trkpt><trkpt lat="53.34031" lon="-1.79564"><ele>310.6</ele><time>2026-05-03T17:25:44.785Z</time></trkpt><trkpt lat="53.340255" lon="-1.7957683"><ele>317.8</ele><time>2026-05-03T17:25:45.784Z</time></trkpt><trkpt lat="53.3402067" lon="-1.7958817"><ele>325.0</ele><time>2026-05-03T17:25:46.784Z</time></trkpt><trkpt lat="53.3401667" lon="-1.7959917"><ele>324.66666666666663</ele><time>2026-05-03T17:25:47.786Z</time></trkpt><trkpt lat="53.3401317" lon="-1.7961033"><ele>324.3333333333333</ele><time>2026-05-03T17:25:48.783Z</time></trkpt><trkpt lat="53.3400983" lon="-1.796225"><ele>324.0</ele><time>2026-05-03T17:25:49.785Z</time></trkpt><trkpt lat="53.3400617" lon="-1.796355"><ele>323.6666666666667</ele><time>2026-05-03T17:25:50.785Z</time></trkpt><trkpt lat="53.340025" lon="-1.7964767"><ele>323.33333333333337</ele><time>2026-05-03T17:25:51.787Z</time></trkpt><trkpt lat="53.34" lon="-1.7965833"><ele>323.0</ele><time>2026-05-03T17:25:52.785Z</time></trkpt><trkpt lat="53.3399633" lon="-1.796785"><ele>322.83333333333337</ele><time>2026-05-03T17:25:54.784Z</time></trkpt><trkpt lat="53.3399367" lon="-1.7969917"><ele>322.6666666666667</ele><time>2026-05-03T17:25:56.786Z</time></trkpt><trkpt lat="53.3399283" lon="-1.7970983"><ele>322.5</ele><time>2026-05-03T17:25:57.784Z</time></trkpt><trkpt lat="53.3399267" lon="-1.79721"><ele>322.3333333333333</ele><time>2026-05-03T17:25:58.784Z</time></trkpt><trkpt lat="53.339935" lon="-1.7973217"><ele>322.16666666666663</ele><time>2026-05-03T17:25:59.785Z</time></trkpt><trkpt lat="53.339955" lon="-1.7974417"><ele>322.0</ele><time>2026-05-03T17:26:00.785Z</time></trkpt><trkpt lat="53.339985" lon="-1.7975517"><ele>322.0</ele><time>2026-05-03T17:26:01.783Z</time></trkpt><trkpt lat="53.3400267" lon="-1.7976517"><ele>322.0</ele><time>2026-05-03T17:26:02.784Z</time></trkpt><trkpt lat="53.3400717" lon="-1.7977517"><ele>322.0</ele><time>2026-05-03T17:26:03.784Z</time></trkpt><trkpt lat="53.3401267" lon="-1.7978383"><ele>322.0</ele><time>2026-05-03T17:26:04.784Z</time></trkpt><trkpt lat="53.3401833" lon="-1.79792"><ele>322.0</ele><time>2026-05-03T17:26:05.785Z</time></trkpt><trkpt lat="53.3402383" lon="-1.7980067"><ele>322.0</ele><time>2026-05-03T17:26:06.784Z</time></trkpt><trkpt lat="53.3402983" lon="-1.7981067"><ele>324.16666666666663</ele><time>2026-05-03T17:26:07.785Z</time></trkpt><trkpt lat="53.3403567" lon="-1.7982117"><ele>326.3333333333333</ele><time>2026-05-03T17:26:08.785Z</time></trkpt><trkpt lat="53.340415" lon="-1.798325"><ele>328.5</ele><time>2026-05-03T17:26:09.784Z</time></trkpt><trkpt lat="53.34047" lon="-1.7984383"><ele>330.6666666666667</ele><time>2026-05-03T17:26:10.785Z</time></trkpt><trkpt lat="53.3405217" lon="-1.7985533"><ele>332.83333333333337</ele><time>2026-05-03T17:26:11.784Z</time></trkpt><trkpt lat="53.3405667" lon="-1.79867"><ele>335.0</ele><time>2026-05-03T17:26:12.785Z</time></trkpt><trkpt lat="53.34061" lon="-1.7987983"><ele>335.0</ele><time>2026-05-03T17:26:13.785Z</time></trkpt><trkpt lat="53.3406433" lon="-1.7989333"><ele>335.0</ele><time>2026-05-03T17:26:14.785Z</time></trkpt><trkpt lat="53.340675" lon="-1.799065"><ele>335.0</ele><time>2026-05-03T17:26:15.786Z</time></trkpt><trkpt lat="53.3407017" lon="-1.7991867"><ele>335.0</ele><time>2026-05-03T17:26:16.784Z</time></trkpt><trkpt lat="53.3407317" lon="-1.7993017"><ele>335.0</ele><time>2026-05-03T17:26:17.784Z</time></trkpt><trkpt lat="53.3407617" lon="-1.7994083"><ele>335.0</ele><time>2026-05-03T17:26:18.785Z</time></trkpt><trkpt lat="53.3407933" lon="-1.7995117"><ele>336.2</ele><time>2026-05-03T17:26:19.784Z</time></trkpt><trkpt lat="53.34083" lon="-1.7996217"><ele>337.4</ele><time>2026-05-03T17:26:20.785Z</time></trkpt><trkpt lat="53.3408717" lon="-1.7997283"><ele>338.6</ele><time>2026-05-03T17:26:21.785Z</time></trkpt><trkpt lat="53.340925" lon="-1.7998433"><ele>339.8</ele><time>2026-05-03T17:26:22.783Z</time></trkpt><trkpt lat="53.3409883" lon="-1.79998"><ele>341.0</ele><time>2026-05-03T17:26:23.783Z</time></trkpt><trkpt lat="53.34108" lon="-1.8001667"><ele>346.0</ele><time>2026-05-03T17:26:24.785Z</time></trkpt><trkpt lat="53.34119" lon="-1.8003917"><ele>351.0</ele><time>2026-05-03T17:26:25.785Z</time></trkpt><trkpt lat="53.3413117" lon="-1.8006267"><ele>356.0</ele><time>2026-05-03T17:26:26.786Z</time></trkpt><trkpt lat="53.341435" lon="-1.8008517"><ele>358.25</ele><time>2026-05-03T17:26:27.782Z</time></trkpt><trkpt lat="53.3415583" lon="-1.8010517"><ele>360.5</ele><time>2026-05-03T17:26:28.783Z</time></trkpt><trkpt lat="53.3416583" lon="-1.8012167"><ele>362.75</ele><time>2026-05-03T17:26:29.785Z</time></trkpt><trkpt lat="53.3417417" lon="-1.8013617"><ele>365.0</ele><time>2026-05-03T17:26:30.783Z</time></trkpt><trkpt lat="53.34181" lon="-1.801485"><ele>365.0</ele><time>2026-05-03T17:26:31.784Z</time></trkpt><trkpt lat="53.3418767" lon="-1.8016317"><ele>365.0</ele><time>2026-05-03T17:26:32.786Z</time></trkpt><trkpt lat="53.3419433" lon="-1.8017967"><ele>365.0</ele><time>2026-05-03T17:26:33.784Z</time></trkpt><trkpt lat="53.3420067" lon="-1.8019517"><ele>365.0</ele><time>2026-05-03T17:26:34.785Z</time></trkpt><trkpt lat="53.3420583" lon="-1.802085"><ele>365.0</ele><time>2026-05-03T17:26:35.785Z</time></trkpt><trkpt lat="53.342105" lon="-1.8022017"><ele>366.00000000000006</ele><time>2026-05-03T17:26:36.783Z</time></trkpt><trkpt lat="53.3421467" lon="-1.8023033"><ele>367.0</ele><time>2026-05-03T17:26:37.783Z</time></trkpt><trkpt lat="53.3421867" lon="-1.8023983"><ele>368.0</ele><time>2026-05-03T17:26:38.784Z</time></trkpt><trkpt lat="53.34223" lon="-1.8025067"><ele>369.0</ele><time>2026-05-03T17:26:39.784Z</time></trkpt><trkpt lat="53.34227" lon="-1.8026267"><ele>370.0</ele><time>2026-05-03T17:26:40.784Z</time></trkpt><trkpt lat="53.3423017" lon="-1.802735"><ele>371.00000000000006</ele><time>2026-05-03T17:26:41.785Z</time></trkpt><trkpt lat="53.342325" lon="-1.8028417"><ele>372.0</ele><time>2026-05-03T17:26:42.786Z</time></trkpt><trkpt lat="53.34234" lon="-1.8029467"><ele>374.1666666666667</ele><time>2026-05-03T17:26:43.789Z</time></trkpt><trkpt lat="53.3423567" lon="-1.8030533"><ele>376.33333333333337</ele><time>2026-05-03T17:26:44.784Z</time></trkpt><trkpt lat="53.3423717" lon="-1.803165"><ele>378.5</ele><time>2026-05-03T17:26:45.784Z</time></trkpt><trkpt lat="53.3423883" lon="-1.8032967"><ele>380.6666666666667</ele><time>2026-05-03T17:26:46.786Z</time></trkpt><trkpt lat="53.3424" lon="-1.80344"><ele>382.83333333333337</ele><time>2026-05-03T17:26:47.782Z</time></trkpt><trkpt lat="53.3424133" lon="-1.8035867"><ele>385.0</ele><time>2026-05-03T17:26:48.784Z</time></trkpt><trkpt lat="53.34242" lon="-1.8037183"><ele>386.8</ele><time>2026-05-03T17:26:49.783Z</time></trkpt><trkpt lat="53.3424267" lon="-1.8038283"><ele>388.6</ele><time>2026-05-03T17:26:50.784Z</time></trkpt><trkpt lat="53.3424433" lon="-1.80402"><ele>390.4</ele><time>2026-05-03T17:26:52.783Z</time></trkpt><trkpt lat="53.3424633" lon="-1.804195"><ele>392.2</ele><time>2026-05-03T17:26:54.782Z</time></trkpt><trkpt lat="53.3424783" lon="-1.804365"><ele>394.0</ele><time>2026-05-03T17:26:56.783Z</time></trkpt><trkpt lat="53.3424983" lon="-1.804505"><ele>394.33333333333337</ele><time>2026-05-03T17:26:58.783Z</time></trkpt><trkpt lat="53.342525" lon="-1.804655"><ele>394.6666666666667</ele><time>2026-05-03T17:27:00.782Z</time></trkpt><trkpt lat="53.3425433" lon="-1.8047867"><ele>395.0</ele><time>2026-05-03T17:27:02.783Z</time></trkpt><trkpt lat="53.3425617" lon="-1.804905"><ele>395.33333333333337</ele><time>2026-05-03T17:27:04.783Z</time></trkpt><trkpt lat="53.3425767" lon="-1.805045"><ele>395.6666666666667</ele><time>2026-05-03T17:27:06.786Z</time></trkpt><trkpt lat="53.342585" lon="-1.80515"><ele>396.0</ele><time>2026-05-03T17:27:08.783Z</time></trkpt><trkpt lat="53.342595" lon="-1.80531"><ele>396.0</ele><time>2026-05-03T17:27:11.783Z</time></trkpt><trkpt lat="53.3425917" lon="-1.80546"><ele>396.0</ele><time>2026-05-03T17:27:13.784Z</time></trkpt><trkpt lat="53.3425583" lon="-1.805665"><ele>396.0</ele><time>2026-05-03T17:27:15.785Z</time></trkpt><trkpt lat="53.342535" lon="-1.8057783"><ele>396.0</ele><time>2026-05-03T17:27:16.783Z</time></trkpt><trkpt lat="53.34251" lon="-1.8058883"><ele>396.0</ele><time>2026-05-03T17:27:17.783Z</time></trkpt><trkpt lat="53.3424833" lon="-1.8059917"><ele>396.0</ele><time>2026-05-03T17:27:18.783Z</time></trkpt><trkpt lat="53.34245" lon="-1.8061367"><ele>396.20000000000005</ele><time>2026-05-03T17:27:20.782Z</time></trkpt><trkpt lat="53.342415" lon="-1.8062833"><ele>396.40000000000003</ele><time>2026-05-03T17:27:23.783Z</time></trkpt><trkpt lat="53.3423683" lon="-1.8064983"><ele>396.6</ele><time>2026-05-03T17:27:25.783Z</time></trkpt><trkpt lat="53.34233" lon="-1.8066383"><ele>396.8</ele><time>2026-05-03T17:27:26.782Z</time></trkpt><trkpt lat="53.34229" lon="-1.8067917"><ele>397.0</ele><time>2026-05-03T17:27:27.784Z</time></trkpt><trkpt lat="53.3422433" lon="-1.806955"><ele>399.0</ele><time>2026-05-03T17:27:28.787Z</time></trkpt><trkpt lat="53.3421933" lon="-1.80714"><ele>401.0</ele><time>2026-05-03T17:27:29.782Z</time></trkpt><trkpt lat="53.3421383" lon="-1.8073333"><ele>403.0</ele><time>2026-05-03T17:27:30.783Z</time></trkpt><trkpt lat="53.3420833" lon="-1.80753"><ele>405.0</ele><time>2026-05-03T17:27:31.784Z</time></trkpt><trkpt lat="53.3420283" lon="-1.8077267"><ele>405.0</ele><time>2026-05-03T17:27:32.784Z</time></trkpt><trkpt lat="53.341975" lon="-1.8079283"><ele>405.0</ele><time>2026-05-03T17:27:33.782Z</time></trkpt><trkpt lat="53.341925" lon="-1.8081217"><ele>405.0</ele><time>2026-05-03T17:27:34.783Z</time></trkpt><trkpt lat="53.3418717" lon="-1.8083133"><ele>405.0</ele><time>2026-05-03T17:27:35.786Z</time></trkpt><trkpt lat="53.3418183" lon="-1.8085033"><ele>405.25</ele><time>2026-05-03T17:27:36.782Z</time></trkpt><trkpt lat="53.341765" lon="-1.8086867"><ele>405.5</ele><time>2026-05-03T17:27:37.782Z</time></trkpt><trkpt lat="53.34171" lon="-1.8088683"><ele>405.75</ele><time>2026-05-03T17:27:38.783Z</time></trkpt><trkpt lat="53.3416517" lon="-1.8090467"><ele>406.0</ele><time>2026-05-03T17:27:39.783Z</time></trkpt><trkpt lat="53.3415983" lon="-1.8092083"><ele>406.33333333333337</ele><time>2026-05-03T17:27:40.783Z</time></trkpt><trkpt lat="53.3415467" lon="-1.8093583"><ele>406.6666666666667</ele><time>2026-05-03T17:27:41.783Z</time></trkpt><trkpt lat="53.341495" lon="-1.8094983"><ele>407.0</ele><time>2026-05-03T17:27:42.783Z</time></trkpt><trkpt lat="53.341445" lon="-1.8096217"><ele>407.33333333333337</ele><time>2026-05-03T17:27:43.783Z</time></trkpt><trkpt lat="53.3414017" lon="-1.8097267"><ele>407.6666666666667</ele><time>2026-05-03T17:27:44.783Z</time></trkpt><trkpt lat="53.3413633" lon="-1.8098183"><ele>408.0</ele><time>2026-05-03T17:27:45.783Z</time></trkpt><trkpt lat="53.341305" lon="-1.809955"><ele>409.59999999999997</ele><time>2026-05-03T17:27:47.784Z</time></trkpt><trkpt lat="53.3412483" lon="-1.8100367"><ele>411.2</ele><time>2026-05-03T17:27:49.783Z</time></trkpt><trkpt lat="53.3411767" lon="-1.8101717"><ele>412.8</ele><time>2026-05-03T17:27:51.783Z</time></trkpt><trkpt lat="53.3411267" lon="-1.8102817"><ele>414.4</ele><time>2026-05-03T17:27:52.784Z</time></trkpt><trkpt lat="53.3410633" lon="-1.8104233"><ele>416.0</ele><time>2026-05-03T17:27:53.783Z</time></trkpt><trkpt lat="53.3409917" lon="-1.8105967"><ele>416.0</ele><time>2026-05-03T17:27:54.782Z</time></trkpt><trkpt lat="53.340925" lon="-1.8107633"><ele>416.0</ele><time>2026-05-03T17:27:55.783Z</time></trkpt><trkpt lat="53.3408533" lon="-1.8109283"><ele>416.0</ele><time>2026-05-03T17:27:56.783Z</time></trkpt><trkpt lat="53.3407717" lon="-1.81109"><ele>416.0</ele><time>2026-05-03T17:27:57.783Z</time></trkpt><trkpt lat="53.340675" lon="-1.8112433"><ele>416.25</ele><time>2026-05-03T17:27:58.787Z</time></trkpt><trkpt lat="53.3405733" lon="-1.8113933"><ele>416.5</ele><time>2026-05-03T17:27:59.786Z</time></trkpt><trkpt lat="53.3404683" lon="-1.8115367"><ele>416.75</ele><time>2026-05-03T17:28:00.783Z</time></trkpt><trkpt lat="53.3403633" lon="-1.8116867"><ele>417.0</ele><time>2026-05-03T17:28:01.783Z</time></trkpt><trkpt lat="53.3402583" lon="-1.811845"><ele>415.33333333333337</ele><time>2026-05-03T17:28:02.784Z</time></trkpt><trkpt lat="53.34015" lon="-1.8120133"><ele>413.6666666666667</ele><time>2026-05-03T17:28:03.783Z</time></trkpt><trkpt lat="53.3400383" lon="-1.8121867"><ele>412.0</ele><time>2026-05-03T17:28:04.782Z</time></trkpt><trkpt lat="53.339925" lon="-1.8123633"><ele>412.0</ele><time>2026-05-03T17:28:05.782Z</time></trkpt><trkpt lat="53.33981" lon="-1.812555"><ele>412.0</ele><time>2026-05-03T17:28:06.782Z</time></trkpt><trkpt lat="53.3396933" lon="-1.8127683"><ele>412.0</ele><time>2026-05-03T17:28:07.783Z</time></trkpt><trkpt lat="53.339585" lon="-1.813015"><ele>413.33333333333337</ele><time>2026-05-03T17:28:08.783Z</time></trkpt><trkpt lat="53.3394967" lon="-1.8132833"><ele>414.66666666666663</ele><time>2026-05-03T17:28:09.782Z</time></trkpt><trkpt lat="53.33942" lon="-1.813565"><ele>416.0</ele><time>2026-05-03T17:28:10.783Z</time></trkpt><trkpt lat="53.3393483" lon="-1.8138583"><ele>416.0</ele><time>2026-05-03T17:28:11.782Z</time></trkpt><trkpt lat="53.3392717" lon="-1.8141567"><ele>416.0</ele><time>2026-05-03T17:28:12.783Z</time></trkpt><trkpt lat="53.3391883" lon="-1.8144567"><ele>416.0</ele><time>2026-05-03T17:28:13.784Z</time></trkpt><trkpt lat="53.3391067" lon="-1.8147483"><ele>416.0</ele><time>2026-05-03T17:28:14.783Z</time></trkpt><trkpt lat="53.339025" lon="-1.8150417"><ele>416.0</ele><time>2026-05-03T17:28:15.781Z</time></trkpt><trkpt lat="53.3389417" lon="-1.81533"><ele>416.0</ele><time>2026-05-03T17:28:16.785Z</time></trkpt><trkpt lat="53.3388583" lon="-1.8156117"><ele>415.66666666666663</ele><time>2026-05-03T17:28:17.784Z</time></trkpt><trkpt lat="53.3387733" lon="-1.8158933"><ele>415.33333333333337</ele><time>2026-05-03T17:28:18.782Z</time></trkpt><trkpt lat="53.33869" lon="-1.8161733"><ele>415.0</ele><time>2026-05-03T17:28:19.783Z</time></trkpt><trkpt lat="53.3386083" lon="-1.81645"><ele>414.6666666666667</ele><time>2026-05-03T17:28:20.783Z</time></trkpt><trkpt lat="53.3385267" lon="-1.81672"><ele>414.33333333333337</ele><time>2026-05-03T17:28:21.783Z</time></trkpt><trkpt lat="53.338445" lon="-1.816995"><ele>414.0</ele><time>2026-05-03T17:28:22.784Z</time></trkpt><trkpt lat="53.338365" lon="-1.8172717"><ele>414.0</ele><time>2026-05-03T17:28:23.783Z</time></trkpt><trkpt lat="53.33828" lon="-1.8175533"><ele>414.0</ele><time>2026-05-03T17:28:24.783Z</time></trkpt><trkpt lat="53.338195" lon="-1.817835"><ele>414.0</ele><time>2026-05-03T17:28:25.783Z</time></trkpt><trkpt lat="53.3381083" lon="-1.818115"><ele>414.0</ele><time>2026-05-03T17:28:26.783Z</time></trkpt><trkpt lat="53.3380183" lon="-1.818395"><ele>414.0</ele><time>2026-05-03T17:28:27.784Z</time></trkpt><trkpt lat="53.3379217" lon="-1.8186717"><ele>414.0</ele><time>2026-05-03T17:28:28.782Z</time></trkpt><trkpt lat="53.3378167" lon="-1.81894"><ele>414.0</ele><time>2026-05-03T17:28:29.784Z</time></trkpt><trkpt lat="53.337705" lon="-1.819205"><ele>414.0</ele><time>2026-05-03T17:28:30.788Z</time></trkpt><trkpt lat="53.3375867" lon="-1.8194717"><ele>414.0</ele><time>2026-05-03T17:28:31.785Z</time></trkpt><trkpt lat="53.3374667" lon="-1.819735"><ele>413.33333333333337</ele><time>2026-05-03T17:28:32.785Z</time></trkpt><trkpt lat="53.3373417" lon="-1.819995"><ele>412.6666666666667</ele><time>2026-05-03T17:28:33.785Z</time></trkpt><trkpt lat="53.3372117" lon="-1.8202583"><ele>412.0</ele><time>2026-05-03T17:28:34.786Z</time></trkpt><trkpt lat="53.3370833" lon="-1.8205233"><ele>412.0</ele><time>2026-05-03T17:28:35.787Z</time></trkpt><trkpt lat="53.3369567" lon="-1.8207967"><ele>412.0</ele><time>2026-05-03T17:28:36.785Z</time></trkpt><trkpt lat="53.3368283" lon="-1.8210783"><ele>412.0</ele><time>2026-05-03T17:28:37.786Z</time></trkpt><trkpt lat="53.3367067" lon="-1.8213683"><ele>412.0</ele><time>2026-05-03T17:28:38.785Z</time></trkpt><trkpt lat="53.3365933" lon="-1.8216633"><ele>412.0</ele><time>2026-05-03T17:28:39.782Z</time></trkpt><trkpt lat="53.3364867" lon="-1.8219633"><ele>412.0</ele><time>2026-05-03T17:28:40.786Z</time></trkpt><trkpt lat="53.3363833" lon="-1.8222683"><ele>412.0</ele><time>2026-05-03T17:28:41.786Z</time></trkpt><trkpt lat="53.3362767" lon="-1.8225733"><ele>412.0</ele><time>2026-05-03T17:28:42.785Z</time></trkpt><trkpt lat="53.33617" lon="-1.8228783"><ele>412.0</ele><time>2026-05-03T17:28:43.784Z</time></trkpt><trkpt lat="53.3360617" lon="-1.8231867"><ele>406.33333333333337</ele><time>2026-05-03T17:28:44.785Z</time></trkpt><trkpt lat="53.3359483" lon="-1.823495"><ele>400.66666666666663</ele><time>2026-05-03T17:28:45.788Z</time></trkpt><trkpt lat="53.3358383" lon="-1.8238033"><ele>395.0</ele><time>2026-05-03T17:28:46.784Z</time></trkpt><trkpt lat="53.33573" lon="-1.8241083"><ele>393.3333333333333</ele><time>2026-05-03T17:28:47.785Z</time></trkpt><trkpt lat="53.335625" lon="-1.8244133"><ele>391.66666666666663</ele><time>2026-05-03T17:28:48.784Z</time></trkpt><trkpt lat="53.3355167" lon="-1.8247233"><ele>390.0</ele><time>2026-05-03T17:28:49.785Z</time></trkpt><trkpt lat="53.3354067" lon="-1.8250283"><ele>391.33333333333337</ele><time>2026-05-03T17:28:50.785Z</time></trkpt><trkpt lat="53.335295" lon="-1.825335"><ele>392.6666666666667</ele><time>2026-05-03T17:28:51.785Z</time></trkpt><trkpt lat="53.3351883" lon="-1.8256367"><ele>394.0</ele><time>2026-05-03T17:28:52.786Z</time></trkpt><trkpt lat="53.33508" lon="-1.8259467"><ele>392.0</ele><time>2026-05-03T17:28:53.785Z</time></trkpt><trkpt lat="53.334975" lon="-1.8262517"><ele>390.0</ele><time>2026-05-03T17:28:54.786Z</time></trkpt><trkpt lat="53.3348717" lon="-1.82655"><ele>388.0</ele><time>2026-05-03T17:28:55.786Z</time></trkpt><trkpt lat="53.3347733" lon="-1.8268267"><ele>391.6666666666667</ele><time>2026-05-03T17:28:56.784Z</time></trkpt><trkpt lat="53.3346783" lon="-1.8270767"><ele>395.33333333333337</ele><time>2026-05-03T17:28:57.784Z</time></trkpt><trkpt lat="53.3345717" lon="-1.8272967"><ele>399.0</ele><time>2026-05-03T17:28:58.785Z</time></trkpt><trkpt lat="53.3344467" lon="-1.8274917"><ele>397.66666666666663</ele><time>2026-05-03T17:28:59.784Z</time></trkpt><trkpt lat="53.3342983" lon="-1.8276617"><ele>396.3333333333333</ele><time>2026-05-03T17:29:00.787Z</time></trkpt><trkpt lat="53.33414" lon="-1.8278133"><ele>395.0</ele><time>2026-05-03T17:29:01.784Z</time></trkpt><trkpt lat="53.3339767" lon="-1.8279683"><ele>396.66666666666663</ele><time>2026-05-03T17:29:02.784Z</time></trkpt><trkpt lat="53.3338133" lon="-1.8281267"><ele>398.33333333333337</ele><time>2026-05-03T17:29:03.785Z</time></trkpt><trkpt lat="53.3336533" lon="-1.8282917"><ele>400.0</ele><time>2026-05-03T17:29:04.787Z</time></trkpt><trkpt lat="53.3334933" lon="-1.8284517"><ele>399.0</ele><time>2026-05-03T17:29:05.783Z</time></trkpt><trkpt lat="53.33333" lon="-1.8286117"><ele>398.0</ele><time>2026-05-03T17:29:06.783Z</time></trkpt><trkpt lat="53.333165" lon="-1.8287767"><ele>397.0</ele><time>2026-05-03T17:29:07.783Z</time></trkpt><trkpt lat="53.332995" lon="-1.82895"><ele>397.33333333333337</ele><time>2026-05-03T17:29:08.783Z</time></trkpt><trkpt lat="53.3328183" lon="-1.8291283"><ele>397.66666666666663</ele><time>2026-05-03T17:29:09.783Z</time></trkpt><trkpt lat="53.3326383" lon="-1.829315"><ele>398.0</ele><time>2026-05-03T17:29:10.783Z</time></trkpt><trkpt lat="53.332465" lon="-1.8295"><ele>398.0</ele><time>2026-05-03T17:29:11.784Z</time></trkpt><trkpt lat="53.3323033" lon="-1.8296767"><ele>398.0</ele><time>2026-05-03T17:29:12.785Z</time></trkpt><trkpt lat="53.3321667" lon="-1.8298367"><ele>398.0</ele><time>2026-05-03T17:29:13.783Z</time></trkpt><trkpt lat="53.33205" lon="-1.829995"><ele>395.0</ele><time>2026-05-03T17:29:14.782Z</time></trkpt><trkpt lat="53.3319517" lon="-1.8301767"><ele>392.0</ele><time>2026-05-03T17:29:15.783Z</time></trkpt><trkpt lat="53.331865" lon="-1.8303883"><ele>389.0</ele><time>2026-05-03T17:29:16.783Z</time></trkpt><trkpt lat="53.331775" lon="-1.83064"><ele>389.0</ele><time>2026-05-03T17:29:17.783Z</time></trkpt><trkpt lat="53.3316833" lon="-1.8309217"><ele>389.0</ele><time>2026-05-03T17:29:18.783Z</time></trkpt><trkpt lat="53.331595" lon="-1.831225"><ele>389.0</ele><time>2026-05-03T17:29:19.782Z</time></trkpt><trkpt lat="53.331505" lon="-1.831525"><ele>388.66666666666663</ele><time>2026-05-03T17:29:20.783Z</time></trkpt><trkpt lat="53.33142" lon="-1.8318233"><ele>388.33333333333337</ele><time>2026-05-03T17:29:21.783Z</time></trkpt><trkpt lat="53.3313367" lon="-1.8321133"><ele>388.0</ele><time>2026-05-03T17:29:22.782Z</time></trkpt><trkpt lat="53.3312517" lon="-1.8323967"><ele>383.6666666666667</ele><time>2026-05-03T17:29:23.783Z</time></trkpt><trkpt lat="53.3311667" lon="-1.8326767"><ele>379.33333333333337</ele><time>2026-05-03T17:29:24.784Z</time></trkpt><trkpt lat="53.33108" lon="-1.832955"><ele>375.0</ele><time>2026-05-03T17:29:25.784Z</time></trkpt><trkpt lat="53.3309933" lon="-1.8332317"><ele>375.0</ele><time>2026-05-03T17:29:26.783Z</time></trkpt><trkpt lat="53.330905" lon="-1.8335083"><ele>375.0</ele><time>2026-05-03T17:29:27.782Z</time></trkpt><trkpt lat="53.3308167" lon="-1.83378"><ele>375.0</ele><time>2026-05-03T17:29:28.782Z</time></trkpt><trkpt lat="53.3307267" lon="-1.8340533"><ele>374.3333333333333</ele><time>2026-05-03T17:29:29.783Z</time></trkpt><trkpt lat="53.330635" lon="-1.834325"><ele>373.66666666666663</ele><time>2026-05-03T17:29:30.783Z</time></trkpt><trkpt lat="53.33054" lon="-1.8345967"><ele>373.0</ele><time>2026-05-03T17:29:31.786Z</time></trkpt><trkpt lat="53.3304483" lon="-1.8348683"><ele>373.3333333333333</ele><time>2026-05-03T17:29:32.783Z</time></trkpt><trkpt lat="53.330355" lon="-1.8351417"><ele>373.6666666666667</ele><time>2026-05-03T17:29:33.784Z</time></trkpt><trkpt lat="53.330265" lon="-1.8354117"><ele>374.0</ele><time>2026-05-03T17:29:34.788Z</time></trkpt><trkpt lat="53.3301783" lon="-1.8356783"><ele>374.0</ele><time>2026-05-03T17:29:35.785Z</time></trkpt><trkpt lat="53.3300933" lon="-1.8359483"><ele>374.0</ele><time>2026-05-03T17:29:36.784Z</time></trkpt><trkpt lat="53.3300117" lon="-1.836235"><ele>374.0</ele><time>2026-05-03T17:29:37.785Z</time></trkpt><trkpt lat="53.3299367" lon="-1.8365367"><ele>373.6666666666667</ele><time>2026-05-03T17:29:38.785Z</time></trkpt><trkpt lat="53.329875" lon="-1.836845"><ele>373.3333333333333</ele><time>2026-05-03T17:29:39.784Z</time></trkpt><trkpt lat="53.3298117" lon="-1.8371467"><ele>373.0</ele><time>2026-05-03T17:29:40.786Z</time></trkpt><trkpt lat="53.3297467" lon="-1.8374433"><ele>373.3333333333333</ele><time>2026-05-03T17:29:41.784Z</time></trkpt><trkpt lat="53.3296783" lon="-1.837735"><ele>373.6666666666667</ele><time>2026-05-03T17:29:42.786Z</time></trkpt><trkpt lat="53.3296083" lon="-1.8380233"><ele>374.0</ele><time>2026-05-03T17:29:43.785Z</time></trkpt><trkpt lat="53.329535" lon="-1.83831"><ele>372.33333333333337</ele><time>2026-05-03T17:29:44.785Z</time></trkpt><trkpt lat="53.3294617" lon="-1.8386017"><ele>370.6666666666667</ele><time>2026-05-03T17:29:45.785Z</time></trkpt><trkpt lat="53.32939" lon="-1.8388967"><ele>369.0</ele><time>2026-05-03T17:29:46.783Z</time></trkpt><trkpt lat="53.3293233" lon="-1.8392"><ele>368.3333333333333</ele><time>2026-05-03T17:29:47.786Z</time></trkpt><trkpt lat="53.3292633" lon="-1.8395133"><ele>367.66666666666663</ele><time>2026-05-03T17:29:48.786Z</time></trkpt><trkpt lat="53.3292083" lon="-1.83985"><ele>367.0</ele><time>2026-05-03T17:29:49.786Z</time></trkpt><trkpt lat="53.3291533" lon="-1.8401983"><ele>366.66666666666663</ele><time>2026-05-03T17:29:50.785Z</time></trkpt><trkpt lat="53.3290983" lon="-1.8405483"><ele>366.3333333333333</ele><time>2026-05-03T17:29:51.786Z</time></trkpt><trkpt lat="53.3290483" lon="-1.8408917"><ele>366.0</ele><time>2026-05-03T17:29:52.786Z</time></trkpt><trkpt lat="53.329" lon="-1.84123"><ele>365.6666666666667</ele><time>2026-05-03T17:29:53.785Z</time></trkpt><trkpt lat="53.3289517" lon="-1.8415633"><ele>365.33333333333337</ele><time>2026-05-03T17:29:54.785Z</time></trkpt><trkpt lat="53.32891" lon="-1.8418983"><ele>365.0</ele><time>2026-05-03T17:29:55.787Z</time></trkpt><trkpt lat="53.328875" lon="-1.842235"><ele>363.6666666666667</ele><time>2026-05-03T17:29:56.788Z</time></trkpt><trkpt lat="53.3288433" lon="-1.8425683"><ele>362.3333333333333</ele><time>2026-05-03T17:29:57.783Z</time></trkpt><trkpt lat="53.328815" lon="-1.8428967"><ele>361.0</ele><time>2026-05-03T17:29:58.785Z</time></trkpt><trkpt lat="53.3287833" lon="-1.8432283"><ele>360.66666666666663</ele><time>2026-05-03T17:29:59.786Z</time></trkpt><trkpt lat="53.3287417" lon="-1.84356"><ele>360.3333333333333</ele><time>2026-05-03T17:30:00.785Z</time></trkpt><trkpt lat="53.3286983" lon="-1.843885"><ele>360.0</ele><time>2026-05-03T17:30:01.784Z</time></trkpt><trkpt lat="53.328655" lon="-1.8442"><ele>359.6666666666667</ele><time>2026-05-03T17:30:02.785Z</time></trkpt><trkpt lat="53.32861" lon="-1.844505"><ele>359.33333333333337</ele><time>2026-05-03T17:30:03.786Z</time></trkpt><trkpt lat="53.328565" lon="-1.8448133"><ele>359.0</ele><time>2026-05-03T17:30:04.784Z</time></trkpt><trkpt lat="53.3285283" lon="-1.84513"><ele>358.33333333333337</ele><time>2026-05-03T17:30:05.786Z</time></trkpt><trkpt lat="53.3284933" lon="-1.8454617"><ele>357.6666666666667</ele><time>2026-05-03T17:30:06.785Z</time></trkpt><trkpt lat="53.3284683" lon="-1.8458017"><ele>357.0</ele><time>2026-05-03T17:30:07.785Z</time></trkpt><trkpt lat="53.32846" lon="-1.84615"><ele>355.6666666666667</ele><time>2026-05-03T17:30:08.786Z</time></trkpt><trkpt lat="53.32846" lon="-1.8464983"><ele>354.33333333333337</ele><time>2026-05-03T17:30:09.784Z</time></trkpt><trkpt lat="53.328465" lon="-1.8468383"><ele>353.0</ele><time>2026-05-03T17:30:10.786Z</time></trkpt><trkpt lat="53.3284683" lon="-1.847165"><ele>351.0</ele><time>2026-05-03T17:30:11.783Z</time></trkpt><trkpt lat="53.328465" lon="-1.84748"><ele>349.0</ele><time>2026-05-03T17:30:12.784Z</time></trkpt><trkpt lat="53.3284617" lon="-1.84779"><ele>347.0</ele><time>2026-05-03T17:30:13.784Z</time></trkpt><trkpt lat="53.328465" lon="-1.84811"><ele>344.6666666666667</ele><time>2026-05-03T17:30:14.785Z</time></trkpt><trkpt lat="53.3284667" lon="-1.848435"><ele>342.3333333333333</ele><time>2026-05-03T17:30:15.786Z</time></trkpt><trkpt lat="53.3284633" lon="-1.848765"><ele>340.0</ele><time>2026-05-03T17:30:16.786Z</time></trkpt><trkpt lat="53.3284533" lon="-1.8490967"><ele>337.0</ele><time>2026-05-03T17:30:17.786Z</time></trkpt><trkpt lat="53.32843" lon="-1.849435"><ele>334.0</ele><time>2026-05-03T17:30:18.785Z</time></trkpt><trkpt lat="53.3283933" lon="-1.84977"><ele>331.0</ele><time>2026-05-03T17:30:19.785Z</time></trkpt><trkpt lat="53.3283433" lon="-1.8501"><ele>330.0</ele><time>2026-05-03T17:30:20.786Z</time></trkpt><trkpt lat="53.3282817" lon="-1.85043"><ele>329.0</ele><time>2026-05-03T17:30:21.786Z</time></trkpt><trkpt lat="53.32821" lon="-1.85076"><ele>328.0</ele><time>2026-05-03T17:30:22.785Z</time></trkpt><trkpt lat="53.3281383" lon="-1.8510867"><ele>327.66666666666663</ele><time>2026-05-03T17:30:23.786Z</time></trkpt><trkpt lat="53.3280717" lon="-1.851405"><ele>327.3333333333333</ele><time>2026-05-03T17:30:24.785Z</time></trkpt><trkpt lat="53.3280183" lon="-1.8517167"><ele>327.0</ele><time>2026-05-03T17:30:25.784Z</time></trkpt><trkpt lat="53.327985" lon="-1.85203"><ele>334.6666666666667</ele><time>2026-05-03T17:30:26.785Z</time></trkpt><trkpt lat="53.3279733" lon="-1.852335"><ele>342.33333333333337</ele><time>2026-05-03T17:30:27.784Z</time></trkpt><trkpt lat="53.3279817" lon="-1.8526333"><ele>350.0</ele><time>2026-05-03T17:30:28.785Z</time></trkpt><trkpt lat="53.328" lon="-1.85293"><ele>350.33333333333337</ele><time>2026-05-03T17:30:29.785Z</time></trkpt><trkpt lat="53.3280083" lon="-1.8532133"><ele>350.6666666666667</ele><time>2026-05-03T17:30:30.786Z</time></trkpt><trkpt lat="53.328005" lon="-1.853505"><ele>351.0</ele><time>2026-05-03T17:30:31.785Z</time></trkpt><trkpt lat="53.327985" lon="-1.8538133"><ele>348.6666666666667</ele><time>2026-05-03T17:30:32.786Z</time></trkpt><trkpt lat="53.3279483" lon="-1.8541317"><ele>346.33333333333337</ele><time>2026-05-03T17:30:33.784Z</time></trkpt><trkpt lat="53.327905" lon="-1.85445"><ele>344.0</ele><time>2026-05-03T17:30:34.784Z</time></trkpt><trkpt lat="53.3278483" lon="-1.8547533"><ele>343.0</ele><time>2026-05-03T17:30:35.785Z</time></trkpt><trkpt lat="53.32779" lon="-1.8550567"><ele>342.0</ele><time>2026-05-03T17:30:36.786Z</time></trkpt><trkpt lat="53.3277333" lon="-1.85536"><ele>341.0</ele><time>2026-05-03T17:30:37.784Z</time></trkpt><trkpt lat="53.3276633" lon="-1.8556517"><ele>340.33333333333337</ele><time>2026-05-03T17:30:38.784Z</time></trkpt><trkpt lat="53.3275733" lon="-1.8559383"><ele>339.6666666666667</ele><time>2026-05-03T17:30:39.784Z</time></trkpt><trkpt lat="53.3274667" lon="-1.8562217"><ele>339.0</ele><time>2026-05-03T17:30:40.783Z</time></trkpt><trkpt lat="53.327345" lon="-1.8565"><ele>339.0</ele><time>2026-05-03T17:30:41.784Z</time></trkpt><trkpt lat="53.3272117" lon="-1.85677"><ele>339.0</ele><time>2026-05-03T17:30:42.783Z</time></trkpt><trkpt lat="53.327075" lon="-1.8570467"><ele>339.0</ele><time>2026-05-03T17:30:43.785Z</time></trkpt><trkpt lat="53.3269467" lon="-1.85732"><ele>339.0</ele><time>2026-05-03T17:30:44.786Z</time></trkpt><trkpt lat="53.3268283" lon="-1.8575783"><ele>339.0</ele><time>2026-05-03T17:30:45.784Z</time></trkpt><trkpt lat="53.3267217" lon="-1.8578267"><ele>339.0</ele><time>2026-05-03T17:30:46.785Z</time></trkpt><trkpt lat="53.32662" lon="-1.8580667"><ele>339.3333333333333</ele><time>2026-05-03T17:30:47.787Z</time></trkpt><trkpt lat="53.3265283" lon="-1.8583133"><ele>339.66666666666663</ele><time>2026-05-03T17:30:48.787Z</time></trkpt><trkpt lat="53.3264533" lon="-1.8585733"><ele>340.0</ele><time>2026-05-03T17:30:49.782Z</time></trkpt><trkpt lat="53.3263967" lon="-1.858855"><ele>347.3333333333333</ele><time>2026-05-03T17:30:50.782Z</time></trkpt><trkpt lat="53.32636" lon="-1.8591517"><ele>354.6666666666667</ele><time>2026-05-03T17:30:51.783Z</time></trkpt><trkpt lat="53.3263333" lon="-1.8594583"><ele>362.0</ele><time>2026-05-03T17:30:52.782Z</time></trkpt><trkpt lat="53.3263033" lon="-1.8597683"><ele>362.0</ele><time>2026-05-03T17:30:53.784Z</time></trkpt><trkpt lat="53.3262733" lon="-1.8600833"><ele>362.0</ele><time>2026-05-03T17:30:54.785Z</time></trkpt><trkpt lat="53.3262283" lon="-1.8603933"><ele>362.0</ele><time>2026-05-03T17:30:55.783Z</time></trkpt><trkpt lat="53.3261733" lon="-1.8607"><ele>361.6666666666667</ele><time>2026-05-03T17:30:56.783Z</time></trkpt><trkpt lat="53.32611" lon="-1.8610067"><ele>361.3333333333333</ele><time>2026-05-03T17:30:57.783Z</time></trkpt><trkpt lat="53.3260417" lon="-1.86131"><ele>361.0</ele><time>2026-05-03T17:30:58.783Z</time></trkpt><trkpt lat="53.325965" lon="-1.8616"><ele>361.66666666666663</ele><time>2026-05-03T17:30:59.783Z</time></trkpt><trkpt lat="53.3258767" lon="-1.8618767"><ele>362.3333333333333</ele><time>2026-05-03T17:31:00.785Z</time></trkpt><trkpt lat="53.3257867" lon="-1.86213"><ele>363.0</ele><time>2026-05-03T17:31:01.784Z</time></trkpt><trkpt lat="53.3256967" lon="-1.8623667"><ele>363.0</ele><time>2026-05-03T17:31:02.783Z</time></trkpt><trkpt lat="53.3256117" lon="-1.8625883"><ele>363.0</ele><time>2026-05-03T17:31:03.783Z</time></trkpt><trkpt lat="53.32552" lon="-1.8627933"><ele>363.0</ele><time>2026-05-03T17:31:04.782Z</time></trkpt><trkpt lat="53.3254233" lon="-1.8629833"><ele>362.3333333333333</ele><time>2026-05-03T17:31:05.783Z</time></trkpt><trkpt lat="53.3253117" lon="-1.8631617"><ele>361.66666666666663</ele><time>2026-05-03T17:31:06.783Z</time></trkpt><trkpt lat="53.3251783" lon="-1.8633417"><ele>361.0</ele><time>2026-05-03T17:31:07.784Z</time></trkpt><trkpt lat="53.325035" lon="-1.8635267"><ele>361.0</ele><time>2026-05-03T17:31:08.782Z</time></trkpt><trkpt lat="53.3248833" lon="-1.8637133"><ele>361.0</ele><time>2026-05-03T17:31:09.782Z</time></trkpt><trkpt lat="53.3247267" lon="-1.8639"><ele>361.0</ele><time>2026-05-03T17:31:10.784Z</time></trkpt><trkpt lat="53.3245667" lon="-1.864085"><ele>363.3333333333333</ele><time>2026-05-03T17:31:11.783Z</time></trkpt><trkpt lat="53.3244133" lon="-1.86426"><ele>365.6666666666667</ele><time>2026-05-03T17:31:12.784Z</time></trkpt><trkpt lat="53.3242717" lon="-1.8644167"><ele>368.0</ele><time>2026-05-03T17:31:13.783Z</time></trkpt><trkpt lat="53.3241417" lon="-1.8645533"><ele>368.0</ele><time>2026-05-03T17:31:14.782Z</time></trkpt><trkpt lat="53.3240233" lon="-1.8646783"><ele>368.0</ele><time>2026-05-03T17:31:15.783Z</time></trkpt><trkpt lat="53.323915" lon="-1.86479"><ele>368.0</ele><time>2026-05-03T17:31:16.783Z</time></trkpt><trkpt lat="53.3238167" lon="-1.8648967"><ele>368.0</ele><time>2026-05-03T17:31:17.783Z</time></trkpt><trkpt lat="53.32372" lon="-1.864995"><ele>369.2</ele><time>2026-05-03T17:31:18.782Z</time></trkpt><trkpt lat="53.3236167" lon="-1.8650867"><ele>370.4</ele><time>2026-05-03T17:31:19.784Z</time></trkpt><trkpt lat="53.3235233" lon="-1.86518"><ele>371.59999999999997</ele><time>2026-05-03T17:31:20.784Z</time></trkpt><trkpt lat="53.3234367" lon="-1.8652633"><ele>372.79999999999995</ele><time>2026-05-03T17:31:21.782Z</time></trkpt><trkpt lat="53.32336" lon="-1.865335"><ele>374.0</ele><time>2026-05-03T17:31:22.783Z</time></trkpt><trkpt lat="53.3232917" lon="-1.8653967"><ele>374.0</ele><time>2026-05-03T17:31:23.783Z</time></trkpt><trkpt lat="53.3232017" lon="-1.865485"><ele>374.0</ele><time>2026-05-03T17:31:25.784Z</time></trkpt><trkpt lat="53.32313" lon="-1.8654833"><ele>374.0</ele><time>2026-05-03T17:31:27.783Z</time></trkpt><trkpt lat="53.3230817" lon="-1.8653567"><ele>374.0</ele><time>2026-05-03T17:31:30.782Z</time></trkpt><trkpt lat="53.3230133" lon="-1.8652533"><ele>374.0</ele><time>2026-05-03T17:31:36.783Z</time></trkpt><trkpt lat="53.3229183" lon="-1.8652783"><ele>372.6</ele><time>2026-05-03T17:31:38.783Z</time></trkpt><trkpt lat="53.3227983" lon="-1.865305"><ele>371.2</ele><time>2026-05-03T17:31:40.783Z</time></trkpt><trkpt lat="53.3227133" lon="-1.8652967"><ele>369.8</ele><time>2026-05-03T17:31:41.782Z</time></trkpt><trkpt lat="53.3226083" lon="-1.865285"><ele>368.40000000000003</ele><time>2026-05-03T17:31:42.787Z</time></trkpt><trkpt lat="53.3225" lon="-1.865275"><ele>367.0</ele><time>2026-05-03T17:31:43.787Z</time></trkpt><trkpt lat="53.3223817" lon="-1.865265"><ele>367.0</ele><time>2026-05-03T17:31:44.783Z</time></trkpt><trkpt lat="53.3222533" lon="-1.8652533"><ele>367.0</ele><time>2026-05-03T17:31:45.784Z</time></trkpt><trkpt lat="53.3221233" lon="-1.86524"><ele>367.0</ele><time>2026-05-03T17:31:46.785Z</time></trkpt><trkpt lat="53.3219883" lon="-1.86523"><ele>367.0</ele><time>2026-05-03T17:31:47.787Z</time></trkpt><trkpt lat="53.3218467" lon="-1.8652267"><ele>364.3333333333333</ele><time>2026-05-03T17:31:48.786Z</time></trkpt><trkpt lat="53.3216967" lon="-1.8652267"><ele>361.6666666666667</ele><time>2026-05-03T17:31:49.783Z</time></trkpt><trkpt lat="53.3215417" lon="-1.8652417"><ele>359.0</ele><time>2026-05-03T17:31:50.787Z</time></trkpt><trkpt lat="53.3213833" lon="-1.8652667"><ele>358.0</ele><time>2026-05-03T17:31:51.786Z</time></trkpt><trkpt lat="53.321225" lon="-1.8653033"><ele>357.0</ele><time>2026-05-03T17:31:52.787Z</time></trkpt><trkpt lat="53.3210667" lon="-1.86535"><ele>356.0</ele><time>2026-05-03T17:31:53.783Z</time></trkpt><trkpt lat="53.3209117" lon="-1.8654133"><ele>356.0</ele><time>2026-05-03T17:31:54.785Z</time></trkpt><trkpt lat="53.3207617" lon="-1.86549"><ele>356.0</ele><time>2026-05-03T17:31:55.784Z</time></trkpt><trkpt lat="53.3206133" lon="-1.86558"><ele>356.0</ele><time>2026-05-03T17:31:56.785Z</time></trkpt><trkpt lat="53.320465" lon="-1.865695"><ele>355.33333333333337</ele><time>2026-05-03T17:31:57.785Z</time></trkpt><trkpt lat="53.3203133" lon="-1.8658233"><ele>354.6666666666667</ele><time>2026-05-03T17:31:58.784Z</time></trkpt><trkpt lat="53.3201617" lon="-1.8659633"><ele>354.0</ele><time>2026-05-03T17:31:59.785Z</time></trkpt><trkpt lat="53.3200083" lon="-1.8660983"><ele>354.0</ele><time>2026-05-03T17:32:00.782Z</time></trkpt><trkpt lat="53.31985" lon="-1.8662333"><ele>354.0</ele><time>2026-05-03T17:32:01.784Z</time></trkpt><trkpt lat="53.3196933" lon="-1.86637"><ele>354.0</ele><time>2026-05-03T17:32:02.784Z</time></trkpt><trkpt lat="53.3195333" lon="-1.866505"><ele>355.3333333333333</ele><time>2026-05-03T17:32:03.786Z</time></trkpt><trkpt lat="53.31937" lon="-1.866635"><ele>356.66666666666663</ele><time>2026-05-03T17:32:04.786Z</time></trkpt><trkpt lat="53.3192033" lon="-1.86676"><ele>358.0</ele><time>2026-05-03T17:32:05.788Z</time></trkpt><trkpt lat="53.3190333" lon="-1.866875"><ele>355.3333333333333</ele><time>2026-05-03T17:32:06.784Z</time></trkpt><trkpt lat="53.3188617" lon="-1.86698"><ele>352.6666666666667</ele><time>2026-05-03T17:32:07.783Z</time></trkpt><trkpt lat="53.3186917" lon="-1.867075"><ele>350.0</ele><time>2026-05-03T17:32:08.784Z</time></trkpt><trkpt lat="53.3185167" lon="-1.867165"><ele>350.0</ele><time>2026-05-03T17:32:09.784Z</time></trkpt><trkpt lat="53.3183383" lon="-1.86725"><ele>350.0</ele><time>2026-05-03T17:32:10.786Z</time></trkpt><trkpt lat="53.3181567" lon="-1.8673367"><ele>350.0</ele><time>2026-05-03T17:32:11.785Z</time></trkpt><trkpt lat="53.31798" lon="-1.8674333"><ele>350.6666666666667</ele><time>2026-05-03T17:32:12.785Z</time></trkpt><trkpt lat="53.317805" lon="-1.8675433"><ele>351.3333333333333</ele><time>2026-05-03T17:32:13.785Z</time></trkpt><trkpt lat="53.3176383" lon="-1.867675"><ele>352.0</ele><time>2026-05-03T17:32:14.784Z</time></trkpt><trkpt lat="53.3174767" lon="-1.8678233"><ele>352.3333333333333</ele><time>2026-05-03T17:32:15.785Z</time></trkpt><trkpt lat="53.3173183" lon="-1.8679917"><ele>352.6666666666667</ele><time>2026-05-03T17:32:16.784Z</time></trkpt><trkpt lat="53.3171667" lon="-1.8681833"><ele>353.0</ele><time>2026-05-03T17:32:17.785Z</time></trkpt><trkpt lat="53.3170217" lon="-1.8683933"><ele>350.33333333333337</ele><time>2026-05-03T17:32:18.786Z</time></trkpt><trkpt lat="53.316885" lon="-1.8686183"><ele>347.6666666666667</ele><time>2026-05-03T17:32:19.784Z</time></trkpt><trkpt lat="53.3167533" lon="-1.86885"><ele>345.0</ele><time>2026-05-03T17:32:20.783Z</time></trkpt><trkpt lat="53.3166233" lon="-1.8690917"><ele>346.0</ele><time>2026-05-03T17:32:21.783Z</time></trkpt><trkpt lat="53.3164933" lon="-1.86934"><ele>347.0</ele><time>2026-05-03T17:32:22.786Z</time></trkpt><trkpt lat="53.3163683" lon="-1.8695967"><ele>348.0</ele><time>2026-05-03T17:32:23.784Z</time></trkpt><trkpt lat="53.3162467" lon="-1.8698633"><ele>345.3333333333333</ele><time>2026-05-03T17:32:24.786Z</time></trkpt><trkpt lat="53.3161317" lon="-1.8701383"><ele>342.66666666666663</ele><time>2026-05-03T17:32:25.784Z</time></trkpt><trkpt lat="53.31602" lon="-1.87042"><ele>340.0</ele><time>2026-05-03T17:32:26.784Z</time></trkpt><trkpt lat="53.31591" lon="-1.8707083"><ele>341.3333333333333</ele><time>2026-05-03T17:32:27.786Z</time></trkpt><trkpt lat="53.3157933" lon="-1.871"><ele>342.6666666666667</ele><time>2026-05-03T17:32:28.786Z</time></trkpt><trkpt lat="53.315675" lon="-1.8712917"><ele>344.0</ele><time>2026-05-03T17:32:29.786Z</time></trkpt><trkpt lat="53.3155533" lon="-1.87159"><ele>342.33333333333337</ele><time>2026-05-03T17:32:30.786Z</time></trkpt><trkpt lat="53.3154333" lon="-1.8718917"><ele>340.6666666666667</ele><time>2026-05-03T17:32:31.785Z</time></trkpt><trkpt lat="53.3153133" lon="-1.8721817"><ele>339.0</ele><time>2026-05-03T17:32:32.784Z</time></trkpt><trkpt lat="53.3151983" lon="-1.872465"><ele>336.3333333333333</ele><time>2026-05-03T17:32:33.784Z</time></trkpt><trkpt lat="53.3150867" lon="-1.8727433"><ele>333.66666666666663</ele><time>2026-05-03T17:32:34.786Z</time></trkpt><trkpt lat="53.3149783" lon="-1.8730167"><ele>331.0</ele><time>2026-05-03T17:32:35.786Z</time></trkpt><trkpt lat="53.314875" lon="-1.8732817"><ele>331.0</ele><time>2026-05-03T17:32:36.785Z</time></trkpt><trkpt lat="53.314775" lon="-1.873545"><ele>331.0</ele><time>2026-05-03T17:32:37.785Z</time></trkpt><trkpt lat="53.3146817" lon="-1.873815"><ele>331.0</ele><time>2026-05-03T17:32:38.784Z</time></trkpt><trkpt lat="53.3145933" lon="-1.8740883"><ele>329.66666666666663</ele><time>2026-05-03T17:32:39.784Z</time></trkpt><trkpt lat="53.31451" lon="-1.874365"><ele>328.3333333333333</ele><time>2026-05-03T17:32:40.785Z</time></trkpt><trkpt lat="53.31443" lon="-1.874645"><ele>327.0</ele><time>2026-05-03T17:32:41.786Z</time></trkpt><trkpt lat="53.3143517" lon="-1.8749233"><ele>326.3333333333333</ele><time>2026-05-03T17:32:42.785Z</time></trkpt><trkpt lat="53.314275" lon="-1.8752017"><ele>325.66666666666663</ele><time>2026-05-03T17:32:43.786Z</time></trkpt><trkpt lat="53.3142" lon="-1.8754717"><ele>325.0</ele><time>2026-05-03T17:32:44.786Z</time></trkpt><trkpt lat="53.3141317" lon="-1.8757467"><ele>324.66666666666663</ele><time>2026-05-03T17:32:45.784Z</time></trkpt><trkpt lat="53.3140667" lon="-1.8760283"><ele>324.3333333333333</ele><time>2026-05-03T17:32:46.786Z</time></trkpt><trkpt lat="53.3140067" lon="-1.8763117"><ele>324.0</ele><time>2026-05-03T17:32:47.785Z</time></trkpt><trkpt lat="53.31395" lon="-1.8765917"><ele>325.6666666666667</ele><time>2026-05-03T17:32:48.784Z</time></trkpt><trkpt lat="53.31389" lon="-1.87687"><ele>327.33333333333337</ele><time>2026-05-03T17:32:49.786Z</time></trkpt><trkpt lat="53.31383" lon="-1.8771483"><ele>329.0</ele><time>2026-05-03T17:32:50.785Z</time></trkpt><trkpt lat="53.313775" lon="-1.8774367"><ele>327.6666666666667</ele><time>2026-05-03T17:32:51.787Z</time></trkpt><trkpt lat="53.3137183" lon="-1.877725"><ele>326.3333333333333</ele><time>2026-05-03T17:32:52.786Z</time></trkpt><trkpt lat="53.3136583" lon="-1.8780117"><ele>325.0</ele><time>2026-05-03T17:32:53.785Z</time></trkpt><trkpt lat="53.3135917" lon="-1.8782983"><ele>323.0</ele><time>2026-05-03T17:32:54.785Z</time></trkpt><trkpt lat="53.313515" lon="-1.8785817"><ele>321.0</ele><time>2026-05-03T17:32:55.786Z</time></trkpt><trkpt lat="53.3134333" lon="-1.8788667"><ele>319.0</ele><time>2026-05-03T17:32:56.783Z</time></trkpt><trkpt lat="53.313345" lon="-1.8791467"><ele>318.0</ele><time>2026-05-03T17:32:57.784Z</time></trkpt><trkpt lat="53.3132483" lon="-1.8794267"><ele>317.0</ele><time>2026-05-03T17:32:58.784Z</time></trkpt><trkpt lat="53.3131533" lon="-1.8797133"><ele>316.0</ele><time>2026-05-03T17:32:59.785Z</time></trkpt><trkpt lat="53.31306" lon="-1.88001"><ele>317.0</ele><time>2026-05-03T17:33:00.785Z</time></trkpt><trkpt lat="53.3129683" lon="-1.88031"><ele>318.0</ele><time>2026-05-03T17:33:01.787Z</time></trkpt><trkpt lat="53.3128817" lon="-1.880625"><ele>319.0</ele><time>2026-05-03T17:33:02.786Z</time></trkpt><trkpt lat="53.3128083" lon="-1.88095"><ele>319.0</ele><time>2026-05-03T17:33:03.785Z</time></trkpt><trkpt lat="53.31275" lon="-1.881285"><ele>319.0</ele><time>2026-05-03T17:33:04.785Z</time></trkpt><trkpt lat="53.3126983" lon="-1.88162"><ele>319.0</ele><time>2026-05-03T17:33:05.786Z</time></trkpt><trkpt lat="53.3126533" lon="-1.8819533"><ele>318.3333333333333</ele><time>2026-05-03T17:33:06.785Z</time></trkpt><trkpt lat="53.3126" lon="-1.882275"><ele>317.6666666666667</ele><time>2026-05-03T17:33:07.785Z</time></trkpt><trkpt lat="53.312545" lon="-1.88258"><ele>317.0</ele><time>2026-05-03T17:33:08.786Z</time></trkpt><trkpt lat="53.3124933" lon="-1.8828783"><ele>317.0</ele><time>2026-05-03T17:33:09.785Z</time></trkpt><trkpt lat="53.3124367" lon="-1.883155"><ele>317.0</ele><time>2026-05-03T17:33:10.786Z</time></trkpt><trkpt lat="53.3123817" lon="-1.883425"><ele>317.0</ele><time>2026-05-03T17:33:11.788Z</time></trkpt><trkpt lat="53.312325" lon="-1.883685"><ele>316.6666666666667</ele><time>2026-05-03T17:33:12.785Z</time></trkpt><trkpt lat="53.3122733" lon="-1.8839467"><ele>316.3333333333333</ele><time>2026-05-03T17:33:13.785Z</time></trkpt><trkpt lat="53.31222" lon="-1.8842067"><ele>316.0</ele><time>2026-05-03T17:33:14.783Z</time></trkpt><trkpt lat="53.312165" lon="-1.884455"><ele>316.0</ele><time>2026-05-03T17:33:15.786Z</time></trkpt><trkpt lat="53.31211" lon="-1.8846917"><ele>316.0</ele><time>2026-05-03T17:33:16.785Z</time></trkpt><trkpt lat="53.3120567" lon="-1.8849317"><ele>316.0</ele><time>2026-05-03T17:33:17.786Z</time></trkpt><trkpt lat="53.3120117" lon="-1.88517"><ele>315.40000000000003</ele><time>2026-05-03T17:33:18.785Z</time></trkpt><trkpt lat="53.3119767" lon="-1.8853933"><ele>314.8</ele><time>2026-05-03T17:33:19.786Z</time></trkpt><trkpt lat="53.31195" lon="-1.8855933"><ele>314.20000000000005</ele><time>2026-05-03T17:33:20.784Z</time></trkpt><trkpt lat="53.31193" lon="-1.8857567"><ele>313.6</ele><time>2026-05-03T17:33:21.786Z</time></trkpt><trkpt lat="53.3119183" lon="-1.8858933"><ele>313.0</ele><time>2026-05-03T17:33:22.784Z</time></trkpt><trkpt lat="53.3119067" lon="-1.886005"><ele>313.0</ele><time>2026-05-03T17:33:23.786Z</time></trkpt><trkpt lat="53.311865" lon="-1.88612"><ele>313.0</ele><time>2026-05-03T17:33:25.785Z</time></trkpt><trkpt lat="53.3118067" lon="-1.8861983"><ele>313.0</ele><time>2026-05-03T17:33:27.784Z</time></trkpt><trkpt lat="53.3116983" lon="-1.886285"><ele>313.0</ele><time>2026-05-03T17:33:29.784Z</time></trkpt><trkpt lat="53.3116083" lon="-1.8862833"><ele>313.0</ele><time>2026-05-03T17:33:30.785Z</time></trkpt><trkpt lat="53.31152" lon="-1.8862767"><ele>313.0</ele><time>2026-05-03T17:33:31.785Z</time></trkpt><trkpt lat="53.311415" lon="-1.88627"><ele>313.0</ele><time>2026-05-03T17:33:32.786Z</time></trkpt><trkpt lat="53.311275" lon="-1.886255"><ele>313.0</ele><time>2026-05-03T17:33:33.785Z</time></trkpt><trkpt lat="53.3111567" lon="-1.8862633"><ele>313.0</ele><time>2026-05-03T17:33:34.786Z</time></trkpt><trkpt lat="53.3110333" lon="-1.8862667"><ele>314.25</ele><time>2026-05-03T17:33:35.784Z</time></trkpt><trkpt lat="53.3108967" lon="-1.8862667"><ele>315.5</ele><time>2026-05-03T17:33:36.786Z</time></trkpt><trkpt lat="53.3107567" lon="-1.8862733"><ele>316.75</ele><time>2026-05-03T17:33:37.785Z</time></trkpt><trkpt lat="53.3106183" lon="-1.88628"><ele>318.0</ele><time>2026-05-03T17:33:38.786Z</time></trkpt><trkpt lat="53.3104767" lon="-1.886265"><ele>318.5</ele><time>2026-05-03T17:33:39.786Z</time></trkpt><trkpt lat="53.3103433" lon="-1.886225"><ele>319.0</ele><time>2026-05-03T17:33:40.784Z</time></trkpt><trkpt lat="53.3102133" lon="-1.8861467"><ele>319.5</ele><time>2026-05-03T17:33:41.786Z</time></trkpt><trkpt lat="53.3100883" lon="-1.8860517"><ele>320.0</ele><time>2026-05-03T17:33:42.785Z</time></trkpt><trkpt lat="53.3099617" lon="-1.8859533"><ele>320.75</ele><time>2026-05-03T17:33:43.785Z</time></trkpt><trkpt lat="53.3098317" lon="-1.8858517"><ele>321.5</ele><time>2026-05-03T17:33:44.785Z</time></trkpt><trkpt lat="53.3097017" lon="-1.885755"><ele>322.25</ele><time>2026-05-03T17:33:45.786Z</time></trkpt><trkpt lat="53.3095717" lon="-1.8856633"><ele>323.0</ele><time>2026-05-03T17:33:46.785Z</time></trkpt><trkpt lat="53.309445" lon="-1.8855717"><ele>323.0</ele><time>2026-05-03T17:33:47.786Z</time></trkpt><trkpt lat="53.3093083" lon="-1.8854733"><ele>323.0</ele><time>2026-05-03T17:33:48.785Z</time></trkpt><trkpt lat="53.3091567" lon="-1.8853633"><ele>323.0</ele><time>2026-05-03T17:33:49.785Z</time></trkpt><trkpt lat="53.309" lon="-1.8852417"><ele>323.33333333333337</ele><time>2026-05-03T17:33:50.785Z</time></trkpt><trkpt lat="53.3088383" lon="-1.88513"><ele>323.6666666666667</ele><time>2026-05-03T17:33:51.786Z</time></trkpt><trkpt lat="53.3086817" lon="-1.88502"><ele>324.0</ele><time>2026-05-03T17:33:52.786Z</time></trkpt><trkpt lat="53.308525" lon="-1.8849167"><ele>323.6666666666667</ele><time>2026-05-03T17:33:53.786Z</time></trkpt><trkpt lat="53.30837" lon="-1.8848233"><ele>323.33333333333337</ele><time>2026-05-03T17:33:54.786Z</time></trkpt><trkpt lat="53.3082167" lon="-1.88473"><ele>323.0</ele><time>2026-05-03T17:33:55.782Z</time></trkpt><trkpt lat="53.308065" lon="-1.88464"><ele>323.0</ele><time>2026-05-03T17:33:56.786Z</time></trkpt><trkpt lat="53.3079133" lon="-1.8845483"><ele>323.0</ele><time>2026-05-03T17:33:57.786Z</time></trkpt><trkpt lat="53.3077633" lon="-1.8844533"><ele>323.0</ele><time>2026-05-03T17:33:58.786Z</time></trkpt><trkpt lat="53.3076183" lon="-1.88436"><ele>323.0</ele><time>2026-05-03T17:33:59.785Z</time></trkpt><trkpt lat="53.3074767" lon="-1.8842783"><ele>323.0</ele><time>2026-05-03T17:34:00.782Z</time></trkpt><trkpt lat="53.30734" lon="-1.8842167"><ele>323.0</ele><time>2026-05-03T17:34:01.785Z</time></trkpt><trkpt lat="53.307205" lon="-1.8841783"><ele>323.0</ele><time>2026-05-03T17:34:02.785Z</time></trkpt><trkpt lat="53.3070717" lon="-1.88417"><ele>323.5</ele><time>2026-05-03T17:34:03.786Z</time></trkpt><trkpt lat="53.30694" lon="-1.8841817"><ele>324.0</ele><time>2026-05-03T17:34:04.785Z</time></trkpt><trkpt lat="53.30681" lon="-1.88421"><ele>324.5</ele><time>2026-05-03T17:34:05.783Z</time></trkpt><trkpt lat="53.3066833" lon="-1.8842517"><ele>325.0</ele><time>2026-05-03T17:34:06.786Z</time></trkpt><trkpt lat="53.3065633" lon="-1.8842967"><ele>325.0</ele><time>2026-05-03T17:34:07.786Z</time></trkpt><trkpt lat="53.3064467" lon="-1.88434"><ele>325.0</ele><time>2026-05-03T17:34:08.783Z</time></trkpt><trkpt lat="53.306335" lon="-1.8843883"><ele>325.0</ele><time>2026-05-03T17:34:09.784Z</time></trkpt><trkpt lat="53.3062283" lon="-1.8844267"><ele>325.0</ele><time>2026-05-03T17:34:10.786Z</time></trkpt><trkpt lat="53.30612" lon="-1.8844583"><ele>326.0</ele><time>2026-05-03T17:34:11.784Z</time></trkpt><trkpt lat="53.30601" lon="-1.8844917"><ele>327.0</ele><time>2026-05-03T17:34:12.784Z</time></trkpt><trkpt lat="53.3058983" lon="-1.88453"><ele>328.0</ele><time>2026-05-03T17:34:13.786Z</time></trkpt><trkpt lat="53.3057817" lon="-1.8845733"><ele>329.0</ele><time>2026-05-03T17:34:14.785Z</time></trkpt><trkpt lat="53.3056683" lon="-1.8846183"><ele>329.5</ele><time>2026-05-03T17:34:15.783Z</time></trkpt><trkpt lat="53.305555" lon="-1.8846583"><ele>330.0</ele><time>2026-05-03T17:34:16.787Z</time></trkpt><trkpt lat="53.3054417" lon="-1.884695"><ele>330.5</ele><time>2026-05-03T17:34:17.784Z</time></trkpt><trkpt lat="53.3053317" lon="-1.8847283"><ele>331.0</ele><time>2026-05-03T17:34:18.786Z</time></trkpt><trkpt lat="53.3052183" lon="-1.884765"><ele>331.0</ele><time>2026-05-03T17:34:19.786Z</time></trkpt><trkpt lat="53.305105" lon="-1.8848017"><ele>331.0</ele><time>2026-05-03T17:34:20.783Z</time></trkpt><trkpt lat="53.3049933" lon="-1.8848383"><ele>331.0</ele><time>2026-05-03T17:34:21.784Z</time></trkpt><trkpt lat="53.30488" lon="-1.8848767"><ele>331.0</ele><time>2026-05-03T17:34:22.786Z</time></trkpt><trkpt lat="53.3047683" lon="-1.8849133"><ele>331.75</ele><time>2026-05-03T17:34:23.785Z</time></trkpt><trkpt lat="53.3046567" lon="-1.884955"><ele>332.5</ele><time>2026-05-03T17:34:24.786Z</time></trkpt><trkpt lat="53.3045433" lon="-1.8849933"><ele>333.25</ele><time>2026-05-03T17:34:25.786Z</time></trkpt><trkpt lat="53.30443" lon="-1.8850317"><ele>334.0</ele><time>2026-05-03T17:34:26.785Z</time></trkpt><trkpt lat="53.304315" lon="-1.8850717"><ele>334.0</ele><time>2026-05-03T17:34:27.784Z</time></trkpt><trkpt lat="53.3042017" lon="-1.8851067"><ele>334.0</ele><time>2026-05-03T17:34:28.786Z</time></trkpt><trkpt lat="53.304085" lon="-1.8851383"><ele>334.0</ele><time>2026-05-03T17:34:29.784Z</time></trkpt><trkpt lat="53.3039717" lon="-1.885175"><ele>334.0</ele><time>2026-05-03T17:34:30.786Z</time></trkpt><trkpt lat="53.3038583" lon="-1.8852083"><ele>334.0</ele><time>2026-05-03T17:34:31.786Z</time></trkpt><trkpt lat="53.3037433" lon="-1.8852483"><ele>334.0</ele><time>2026-05-03T17:34:32.786Z</time></trkpt><trkpt lat="53.3036217" lon="-1.8852733"><ele>334.0</ele><time>2026-05-03T17:34:33.785Z</time></trkpt><trkpt lat="53.3035117" lon="-1.88532"><ele>334.0</ele><time>2026-05-03T17:34:34.786Z</time></trkpt><trkpt lat="53.3034" lon="-1.8853733"><ele>334.0</ele><time>2026-05-03T17:34:35.786Z</time></trkpt><trkpt lat="53.3032883" lon="-1.88543"><ele>334.0</ele><time>2026-05-03T17:34:36.785Z</time></trkpt><trkpt lat="53.3031783" lon="-1.8854817"><ele>334.0</ele><time>2026-05-03T17:34:37.787Z</time></trkpt><trkpt lat="53.3030683" lon="-1.8855367"><ele>334.0</ele><time>2026-05-03T17:34:38.787Z</time></trkpt><trkpt lat="53.30296" lon="-1.8855883"><ele>334.25</ele><time>2026-05-03T17:34:39.785Z</time></trkpt><trkpt lat="53.30285" lon="-1.8856417"><ele>334.5</ele><time>2026-05-03T17:34:40.784Z</time></trkpt><trkpt lat="53.3027417" lon="-1.885695"><ele>334.75</ele><time>2026-05-03T17:34:41.786Z</time></trkpt><trkpt lat="53.3026317" lon="-1.8857467"><ele>335.0</ele><time>2026-05-03T17:34:42.786Z</time></trkpt><trkpt lat="53.30252" lon="-1.8857967"><ele>335.0</ele><time>2026-05-03T17:34:43.786Z</time></trkpt><trkpt lat="53.3024117" lon="-1.8858483"><ele>335.0</ele><time>2026-05-03T17:34:44.784Z</time></trkpt><trkpt lat="53.302305" lon="-1.8858983"><ele>335.0</ele><time>2026-05-03T17:34:45.783Z</time></trkpt><trkpt lat="53.302195" lon="-1.8859483"><ele>335.0</ele><time>2026-05-03T17:34:46.785Z</time></trkpt><trkpt lat="53.30208" lon="-1.8859983"><ele>335.0</ele><time>2026-05-03T17:34:47.786Z</time></trkpt><trkpt lat="53.3019667" lon="-1.88605"><ele>335.0</ele><time>2026-05-03T17:34:48.785Z</time></trkpt><trkpt lat="53.3018517" lon="-1.8860983"><ele>335.0</ele><time>2026-05-03T17:34:49.786Z</time></trkpt><trkpt lat="53.3017383" lon="-1.8861483"><ele>335.0</ele><time>2026-05-03T17:34:50.786Z</time></trkpt><trkpt lat="53.3016267" lon="-1.8861933"><ele>335.0</ele><time>2026-05-03T17:34:51.786Z</time></trkpt><trkpt lat="53.301515" lon="-1.8862367"><ele>335.0</ele><time>2026-05-03T17:34:52.786Z</time></trkpt><trkpt lat="53.3014033" lon="-1.8862883"><ele>335.0</ele><time>2026-05-03T17:34:53.786Z</time></trkpt><trkpt lat="53.3012917" lon="-1.8863433"><ele>335.0</ele><time>2026-05-03T17:34:54.783Z</time></trkpt><trkpt lat="53.3011783" lon="-1.8864"><ele>335.0</ele><time>2026-05-03T17:34:55.784Z</time></trkpt><trkpt lat="53.3010633" lon="-1.8864483"><ele>335.0</ele><time>2026-05-03T17:34:56.784Z</time></trkpt><trkpt lat="53.300955" lon="-1.8865017"><ele>335.0</ele><time>2026-05-03T17:34:57.785Z</time></trkpt><trkpt lat="53.30085" lon="-1.8865617"><ele>335.0</ele><time>2026-05-03T17:34:58.785Z</time></trkpt><trkpt lat="53.30074" lon="-1.88661"><ele>335.0</ele><time>2026-05-03T17:34:59.786Z</time></trkpt><trkpt lat="53.300635" lon="-1.8866583"><ele>335.0</ele><time>2026-05-03T17:35:00.784Z</time></trkpt><trkpt lat="53.3005267" lon="-1.8866983"><ele>335.0</ele><time>2026-05-03T17:35:01.785Z</time></trkpt><trkpt lat="53.3004183" lon="-1.8867367"><ele>335.0</ele><time>2026-05-03T17:35:02.786Z</time></trkpt><trkpt lat="53.3003067" lon="-1.886775"><ele>335.0</ele><time>2026-05-03T17:35:03.786Z</time></trkpt><trkpt lat="53.3002" lon="-1.886825"><ele>335.0</ele><time>2026-05-03T17:35:04.786Z</time></trkpt><trkpt lat="53.30009" lon="-1.8868717"><ele>335.0</ele><time>2026-05-03T17:35:05.786Z</time></trkpt><trkpt lat="53.2999783" lon="-1.8869233"><ele>335.0</ele><time>2026-05-03T17:35:06.785Z</time></trkpt><trkpt lat="53.299865" lon="-1.8869717"><ele>335.0</ele><time>2026-05-03T17:35:07.786Z</time></trkpt><trkpt lat="53.2997517" lon="-1.8870217"><ele>334.4</ele><time>2026-05-03T17:35:08.784Z</time></trkpt><trkpt lat="53.2996383" lon="-1.887065"><ele>333.8</ele><time>2026-05-03T17:35:09.786Z</time></trkpt><trkpt lat="53.29953" lon="-1.88711"><ele>333.20000000000005</ele><time>2026-05-03T17:35:10.785Z</time></trkpt><trkpt lat="53.2994233" lon="-1.8871567"><ele>332.6</ele><time>2026-05-03T17:35:11.785Z</time></trkpt><trkpt lat="53.2993183" lon="-1.8872"><ele>332.0</ele><time>2026-05-03T17:35:12.785Z</time></trkpt><trkpt lat="53.29921" lon="-1.88724"><ele>332.0</ele><time>2026-05-03T17:35:13.787Z</time></trkpt><trkpt lat="53.299105" lon="-1.8872817"><ele>332.0</ele><time>2026-05-03T17:35:14.783Z</time></trkpt><trkpt lat="53.299" lon="-1.8873283"><ele>332.0</ele><time>2026-05-03T17:35:15.785Z</time></trkpt><trkpt lat="53.2988967" lon="-1.8873833"><ele>332.0</ele><time>2026-05-03T17:35:16.786Z</time></trkpt><trkpt lat="53.2987883" lon="-1.8874383"><ele>332.0</ele><time>2026-05-03T17:35:17.785Z</time></trkpt><trkpt lat="53.2986783" lon="-1.8874917"><ele>331.40000000000003</ele><time>2026-05-03T17:35:18.785Z</time></trkpt><trkpt lat="53.2985767" lon="-1.88754"><ele>330.8</ele><time>2026-05-03T17:35:19.784Z</time></trkpt><trkpt lat="53.2984817" lon="-1.8875933"><ele>330.2</ele><time>2026-05-03T17:35:20.783Z</time></trkpt><trkpt lat="53.2983867" lon="-1.8876433"><ele>329.6</ele><time>2026-05-03T17:35:21.786Z</time></trkpt><trkpt lat="53.298285" lon="-1.8876917"><ele>329.0</ele><time>2026-05-03T17:35:22.786Z</time></trkpt><trkpt lat="53.2981783" lon="-1.8877417"><ele>329.6</ele><time>2026-05-03T17:35:23.786Z</time></trkpt><trkpt lat="53.29807" lon="-1.8877917"><ele>330.2</ele><time>2026-05-03T17:35:24.785Z</time></trkpt><trkpt lat="53.2979683" lon="-1.8878367"><ele>330.8</ele><time>2026-05-03T17:35:25.785Z</time></trkpt><trkpt lat="53.2978783" lon="-1.88788"><ele>331.40000000000003</ele><time>2026-05-03T17:35:26.785Z</time></trkpt><trkpt lat="53.2977917" lon="-1.8879183"><ele>332.0</ele><time>2026-05-03T17:35:27.786Z</time></trkpt><trkpt lat="53.2977083" lon="-1.8879517"><ele>332.0</ele><time>2026-05-03T17:35:28.786Z</time></trkpt><trkpt lat="53.2976333" lon="-1.88798"><ele>332.0</ele><time>2026-05-03T17:35:29.786Z</time></trkpt><trkpt lat="53.2975683" lon="-1.888"><ele>332.0</ele><time>2026-05-03T17:35:30.784Z</time></trkpt><trkpt lat="53.297455" lon="-1.8880433"><ele>332.0</ele><time>2026-05-03T17:35:32.786Z</time></trkpt><trkpt lat="53.2973533" lon="-1.88808"><ele>332.0</ele><time>2026-05-03T17:35:34.786Z</time></trkpt><trkpt lat="53.29728" lon="-1.8881183"><ele>332.0</ele><time>2026-05-03T17:35:36.786Z</time></trkpt><trkpt lat="53.297295" lon="-1.8882317"><ele>332.0</ele><time>2026-05-03T17:35:41.783Z</time></trkpt><trkpt lat="53.2973667" lon="-1.8881833"><ele>332.0</ele><time>2026-05-03T17:35:44.786Z</time></trkpt><trkpt lat="53.2974667" lon="-1.8881233"><ele>332.0</ele><time>2026-05-03T17:35:46.787Z</time></trkpt><trkpt lat="53.2975733" lon="-1.8880733"><ele>332.0</ele><time>2026-05-03T17:35:48.786Z</time></trkpt><trkpt lat="53.2976783" lon="-1.8880333"><ele>332.0</ele><time>2026-05-03T17:35:50.786Z</time></trkpt><trkpt lat="53.29778" lon="-1.88799"><ele>332.0</ele><time>2026-05-03T17:35:52.785Z</time></trkpt><trkpt lat="53.2978533" lon="-1.887945"><ele>332.0</ele><time>2026-05-03T17:35:54.785Z</time></trkpt><trkpt lat="53.2978883" lon="-1.8878083"><ele>332.0</ele><time>2026-05-03T17:35:57.782Z</time></trkpt><trkpt lat="53.29785" lon="-1.8876733"><ele>332.0</ele><time>2026-05-03T17:35:59.784Z</time></trkpt><trkpt lat="53.2978083" lon="-1.88758"><ele>332.0</ele><time>2026-05-03T17:36:00.785Z</time></trkpt><trkpt lat="53.29775" lon="-1.88746"><ele>332.0</ele><time>2026-05-03T17:36:01.785Z</time></trkpt><trkpt lat="53.2976683" lon="-1.8873267"><ele>332.0</ele><time>2026-05-03T17:36:02.784Z</time></trkpt><trkpt lat="53.2975833" lon="-1.8871917"><ele>332.0</ele><time>2026-05-03T17:36:03.785Z</time></trkpt><trkpt lat="53.2975" lon="-1.887065"><ele>332.0</ele><time>2026-05-03T17:36:04.784Z</time></trkpt><trkpt lat="53.2974233" lon="-1.88694"><ele>332.0</ele><time>2026-05-03T17:36:05.786Z</time></trkpt><trkpt lat="53.2973583" lon="-1.886815"><ele>332.0</ele><time>2026-05-03T17:36:06.786Z</time></trkpt><trkpt lat="53.2972983" lon="-1.8866817"><ele>332.5</ele><time>2026-05-03T17:36:07.783Z</time></trkpt><trkpt lat="53.2972283" lon="-1.8865367"><ele>333.0</ele><time>2026-05-03T17:36:08.787Z</time></trkpt><trkpt lat="53.2971317" lon="-1.8863867"><ele>333.5</ele><time>2026-05-03T17:36:09.783Z</time></trkpt><trkpt lat="53.2970217" lon="-1.8862433"><ele>334.0</ele><time>2026-05-03T17:36:10.783Z</time></trkpt><trkpt lat="53.2969133" lon="-1.8860983"><ele>334.0</ele><time>2026-05-03T17:36:11.787Z</time></trkpt><trkpt lat="53.296825" lon="-1.88596"><ele>334.0</ele><time>2026-05-03T17:36:12.789Z</time></trkpt><trkpt lat="53.2967433" lon="-1.8858433"><ele>334.0</ele><time>2026-05-03T17:36:13.785Z</time></trkpt><trkpt lat="53.2966617" lon="-1.8857633"><ele>334.0</ele><time>2026-05-03T17:36:14.785Z</time></trkpt><trkpt lat="53.2965633" lon="-1.88571"><ele>334.0</ele><time>2026-05-03T17:36:15.784Z</time></trkpt><trkpt lat="53.2964467" lon="-1.8856867"><ele>334.0</ele><time>2026-05-03T17:36:16.784Z</time></trkpt><trkpt lat="53.29631" lon="-1.88569"><ele>334.0</ele><time>2026-05-03T17:36:17.786Z</time></trkpt><trkpt lat="53.29616" lon="-1.8857"><ele>334.0</ele><time>2026-05-03T17:36:18.787Z</time></trkpt><trkpt lat="53.296015" lon="-1.88571"><ele>334.0</ele><time>2026-05-03T17:36:19.783Z</time></trkpt><trkpt lat="53.2958817" lon="-1.88571"><ele>334.0</ele><time>2026-05-03T17:36:20.782Z</time></trkpt><trkpt lat="53.2957683" lon="-1.885705"><ele>334.0</ele><time>2026-05-03T17:36:21.783Z</time></trkpt><trkpt lat="53.2956617" lon="-1.88568"><ele>334.0</ele><time>2026-05-03T17:36:22.783Z</time></trkpt><trkpt lat="53.2955667" lon="-1.885625"><ele>334.0</ele><time>2026-05-03T17:36:23.785Z</time></trkpt><trkpt lat="53.2954867" lon="-1.8855433"><ele>334.0</ele><time>2026-05-03T17:36:24.783Z</time></trkpt><trkpt lat="53.2954183" lon="-1.8854267"><ele>334.75</ele><time>2026-05-03T17:36:25.786Z</time></trkpt><trkpt lat="53.295355" lon="-1.8852833"><ele>335.5</ele><time>2026-05-03T17:36:26.783Z</time></trkpt><trkpt lat="53.2952867" lon="-1.8851367"><ele>336.25</ele><time>2026-05-03T17:36:27.784Z</time></trkpt><trkpt lat="53.2951967" lon="-1.8850033"><ele>337.0</ele><time>2026-05-03T17:36:28.786Z</time></trkpt><trkpt lat="53.2950817" lon="-1.8848967"><ele>338.0</ele><time>2026-05-03T17:36:29.785Z</time></trkpt><trkpt lat="53.2949567" lon="-1.8848167"><ele>339.0</ele><time>2026-05-03T17:36:30.784Z</time></trkpt><trkpt lat="53.2948183" lon="-1.88476"><ele>340.0</ele><time>2026-05-03T17:36:31.786Z</time></trkpt><trkpt lat="53.29467" lon="-1.884705"><ele>341.0</ele><time>2026-05-03T17:36:32.788Z</time></trkpt><trkpt lat="53.2945133" lon="-1.8846433"><ele>342.33333333333337</ele><time>2026-05-03T17:36:33.782Z</time></trkpt><trkpt lat="53.2943533" lon="-1.884575"><ele>343.6666666666667</ele><time>2026-05-03T17:36:34.786Z</time></trkpt><trkpt lat="53.2941917" lon="-1.88451"><ele>345.0</ele><time>2026-05-03T17:36:35.782Z</time></trkpt><trkpt lat="53.294025" lon="-1.8844433"><ele>347.0</ele><time>2026-05-03T17:36:36.783Z</time></trkpt><trkpt lat="53.2938617" lon="-1.8843767"><ele>349.0</ele><time>2026-05-03T17:36:37.786Z</time></trkpt><trkpt lat="53.2937" lon="-1.884315"><ele>351.0</ele><time>2026-05-03T17:36:38.787Z</time></trkpt><trkpt lat="53.2935633" lon="-1.884255"><ele>351.5</ele><time>2026-05-03T17:36:39.787Z</time></trkpt><trkpt lat="53.2934533" lon="-1.88421"><ele>352.0</ele><time>2026-05-03T17:36:40.786Z</time></trkpt><trkpt lat="53.2933433" lon="-1.88416"><ele>352.5</ele><time>2026-05-03T17:36:41.785Z</time></trkpt><trkpt lat="53.2932267" lon="-1.88411"><ele>353.0</ele><time>2026-05-03T17:36:42.787Z</time></trkpt><trkpt lat="53.2930967" lon="-1.8840583"><ele>353.75</ele><time>2026-05-03T17:36:43.787Z</time></trkpt><trkpt lat="53.292965" lon="-1.88401"><ele>354.5</ele><time>2026-05-03T17:36:44.784Z</time></trkpt><trkpt lat="53.2928283" lon="-1.8839683"><ele>355.25</ele><time>2026-05-03T17:36:45.787Z</time></trkpt><trkpt lat="53.29269" lon="-1.883925"><ele>356.0</ele><time>2026-05-03T17:36:46.782Z</time></trkpt><trkpt lat="53.2925433" lon="-1.8838767"><ele>356.0</ele><time>2026-05-03T17:36:47.785Z</time></trkpt><trkpt lat="53.29239" lon="-1.8838233"><ele>356.0</ele><time>2026-05-03T17:36:48.785Z</time></trkpt><trkpt lat="53.292235" lon="-1.8837633"><ele>356.0</ele><time>2026-05-03T17:36:49.787Z</time></trkpt><trkpt lat="53.2920833" lon="-1.8836983"><ele>356.33333333333337</ele><time>2026-05-03T17:36:50.782Z</time></trkpt><trkpt lat="53.2919317" lon="-1.8836217"><ele>356.6666666666667</ele><time>2026-05-03T17:36:51.786Z</time></trkpt><trkpt lat="53.2917817" lon="-1.883525"><ele>357.0</ele><time>2026-05-03T17:36:52.784Z</time></trkpt><trkpt lat="53.29164" lon="-1.88341"><ele>357.3333333333333</ele><time>2026-05-03T17:36:53.785Z</time></trkpt><trkpt lat="53.291495" lon="-1.883255"><ele>357.66666666666663</ele><time>2026-05-03T17:36:54.787Z</time></trkpt><trkpt lat="53.2913417" lon="-1.8830717"><ele>358.0</ele><time>2026-05-03T17:36:55.786Z</time></trkpt><trkpt lat="53.2911883" lon="-1.8828733"><ele>358.0</ele><time>2026-05-03T17:36:56.782Z</time></trkpt><trkpt lat="53.2910333" lon="-1.8826667"><ele>358.0</ele><time>2026-05-03T17:36:57.783Z</time></trkpt><trkpt lat="53.2908767" lon="-1.8824583"><ele>358.0</ele><time>2026-05-03T17:36:58.782Z</time></trkpt><trkpt lat="53.2907233" lon="-1.8822533"><ele>359.3333333333333</ele><time>2026-05-03T17:36:59.782Z</time></trkpt><trkpt lat="53.290575" lon="-1.8820583"><ele>360.6666666666667</ele><time>2026-05-03T17:37:00.783Z</time></trkpt><trkpt lat="53.29043" lon="-1.8818617"><ele>362.0</ele><time>2026-05-03T17:37:01.783Z</time></trkpt><trkpt lat="53.2902883" lon="-1.8816717"><ele>363.6666666666667</ele><time>2026-05-03T17:37:02.783Z</time></trkpt><trkpt lat="53.2901483" lon="-1.8814817"><ele>365.3333333333333</ele><time>2026-05-03T17:37:03.782Z</time></trkpt><trkpt lat="53.2900033" lon="-1.8812967"><ele>367.0</ele><time>2026-05-03T17:37:04.783Z</time></trkpt><trkpt lat="53.2898583" lon="-1.8811183"><ele>367.66666666666663</ele><time>2026-05-03T17:37:05.783Z</time></trkpt><trkpt lat="53.2897117" lon="-1.8809467"><ele>368.3333333333333</ele><time>2026-05-03T17:37:06.783Z</time></trkpt><trkpt lat="53.2895717" lon="-1.8807833"><ele>369.0</ele><time>2026-05-03T17:37:07.788Z</time></trkpt><trkpt lat="53.2894333" lon="-1.8806267"><ele>370.0</ele><time>2026-05-03T17:37:08.782Z</time></trkpt><trkpt lat="53.289295" lon="-1.88047"><ele>371.0</ele><time>2026-05-03T17:37:09.784Z</time></trkpt><trkpt lat="53.289165" lon="-1.8803183"><ele>372.0</ele><time>2026-05-03T17:37:10.787Z</time></trkpt><trkpt lat="53.2890417" lon="-1.8801717"><ele>372.6666666666667</ele><time>2026-05-03T17:37:11.782Z</time></trkpt><trkpt lat="53.28892" lon="-1.8800317"><ele>373.33333333333337</ele><time>2026-05-03T17:37:12.785Z</time></trkpt><trkpt lat="53.28879" lon="-1.879895"><ele>374.0</ele><time>2026-05-03T17:37:13.785Z</time></trkpt><trkpt lat="53.28865" lon="-1.8797617"><ele>374.0</ele><time>2026-05-03T17:37:14.784Z</time></trkpt><trkpt lat="53.2884983" lon="-1.87963"><ele>374.0</ele><time>2026-05-03T17:37:15.784Z</time></trkpt><trkpt lat="53.2883333" lon="-1.8795033"><ele>374.0</ele><time>2026-05-03T17:37:16.786Z</time></trkpt><trkpt lat="53.28817" lon="-1.87939"><ele>373.6666666666667</ele><time>2026-05-03T17:37:17.784Z</time></trkpt><trkpt lat="53.2880017" lon="-1.879285"><ele>373.3333333333333</ele><time>2026-05-03T17:37:18.784Z</time></trkpt><trkpt lat="53.2878333" lon="-1.8791917"><ele>373.0</ele><time>2026-05-03T17:37:19.787Z</time></trkpt><trkpt lat="53.2876633" lon="-1.8791033"><ele>373.0</ele><time>2026-05-03T17:37:20.785Z</time></trkpt><trkpt lat="53.2874933" lon="-1.8790183"><ele>373.0</ele><time>2026-05-03T17:37:21.784Z</time></trkpt><trkpt lat="53.28733" lon="-1.878935"><ele>373.0</ele><time>2026-05-03T17:37:22.784Z</time></trkpt><trkpt lat="53.2871717" lon="-1.878855"><ele>371.66666666666663</ele><time>2026-05-03T17:37:23.788Z</time></trkpt><trkpt lat="53.2870217" lon="-1.878765"><ele>370.3333333333333</ele><time>2026-05-03T17:37:24.787Z</time></trkpt><trkpt lat="53.28687" lon="-1.87868"><ele>369.0</ele><time>2026-05-03T17:37:25.783Z</time></trkpt><trkpt lat="53.2867117" lon="-1.8785917"><ele>369.0</ele><time>2026-05-03T17:37:26.786Z</time></trkpt><trkpt lat="53.2865483" lon="-1.8784883"><ele>369.0</ele><time>2026-05-03T17:37:27.787Z</time></trkpt><trkpt lat="53.28638" lon="-1.8783733"><ele>369.0</ele><time>2026-05-03T17:37:28.784Z</time></trkpt><trkpt lat="53.2862067" lon="-1.87825"><ele>368.6666666666667</ele><time>2026-05-03T17:37:29.787Z</time></trkpt><trkpt lat="53.2860267" lon="-1.8781267"><ele>368.33333333333337</ele><time>2026-05-03T17:37:30.787Z</time></trkpt><trkpt lat="53.2858467" lon="-1.8780033"><ele>368.0</ele><time>2026-05-03T17:37:31.787Z</time></trkpt><trkpt lat="53.285665" lon="-1.8778817"><ele>366.33333333333337</ele><time>2026-05-03T17:37:32.783Z</time></trkpt><trkpt lat="53.2854867" lon="-1.8777567"><ele>364.6666666666667</ele><time>2026-05-03T17:37:33.787Z</time></trkpt><trkpt lat="53.285305" lon="-1.8776267"><ele>363.0</ele><time>2026-05-03T17:37:34.787Z</time></trkpt><trkpt lat="53.2851217" lon="-1.8774983"><ele>363.0</ele><time>2026-05-03T17:37:35.786Z</time></trkpt><trkpt lat="53.284945" lon="-1.8773767"><ele>363.0</ele><time>2026-05-03T17:37:36.787Z</time></trkpt><trkpt lat="53.2847833" lon="-1.8772667"><ele>363.0</ele><time>2026-05-03T17:37:37.783Z</time></trkpt><trkpt lat="53.2846383" lon="-1.8771717"><ele>362.79999999999995</ele><time>2026-05-03T17:37:38.787Z</time></trkpt><trkpt lat="53.2845167" lon="-1.8770967"><ele>362.6</ele><time>2026-05-03T17:37:39.787Z</time></trkpt><trkpt lat="53.2844117" lon="-1.877035"><ele>362.4</ele><time>2026-05-03T17:37:40.783Z</time></trkpt><trkpt lat="53.284325" lon="-1.87698"><ele>362.20000000000005</ele><time>2026-05-03T17:37:41.784Z</time></trkpt><trkpt lat="53.28425" lon="-1.8769333"><ele>362.0</ele><time>2026-05-03T17:37:42.784Z</time></trkpt><trkpt lat="53.2841917" lon="-1.8768933"><ele>362.0</ele><time>2026-05-03T17:37:43.786Z</time></trkpt><trkpt lat="53.284115" lon="-1.876845"><ele>362.0</ele><time>2026-05-03T17:37:45.784Z</time></trkpt><trkpt lat="53.2840483" lon="-1.876795"><ele>362.0</ele><time>2026-05-03T17:37:47.785Z</time></trkpt><trkpt lat="53.283935" lon="-1.8767017"><ele>362.0</ele><time>2026-05-03T17:37:49.786Z</time></trkpt><trkpt lat="53.283865" lon="-1.876635"><ele>362.0</ele><time>2026-05-03T17:37:50.786Z</time></trkpt><trkpt lat="53.2837883" lon="-1.87655"><ele>361.75</ele><time>2026-05-03T17:37:51.784Z</time></trkpt><trkpt lat="53.2837017" lon="-1.87645"><ele>361.5</ele><time>2026-05-03T17:37:52.785Z</time></trkpt><trkpt lat="53.2836033" lon="-1.87634"><ele>361.25</ele><time>2026-05-03T17:37:53.786Z</time></trkpt><trkpt lat="53.2834917" lon="-1.8762217"><ele>361.0</ele><time>2026-05-03T17:37:54.785Z</time></trkpt><trkpt lat="53.28337" lon="-1.8761017"><ele>361.0</ele><time>2026-05-03T17:37:55.786Z</time></trkpt><trkpt lat="53.28324" lon="-1.8759783"><ele>361.0</ele><time>2026-05-03T17:37:56.785Z</time></trkpt><trkpt lat="53.2831067" lon="-1.8758533"><ele>361.0</ele><time>2026-05-03T17:37:57.785Z</time></trkpt><trkpt lat="53.2829767" lon="-1.8757333"><ele>361.0</ele><time>2026-05-03T17:37:58.787Z</time></trkpt><trkpt lat="53.28285" lon="-1.8756133"><ele>361.0</ele><time>2026-05-03T17:37:59.783Z</time></trkpt><trkpt lat="53.2827267" lon="-1.875495"><ele>361.0</ele><time>2026-05-03T17:38:00.787Z</time></trkpt><trkpt lat="53.2826" lon="-1.8753783"><ele>361.0</ele><time>2026-05-03T17:38:01.785Z</time></trkpt><trkpt lat="53.282465" lon="-1.8752717"><ele>361.0</ele><time>2026-05-03T17:38:02.785Z</time></trkpt><trkpt lat="53.2823183" lon="-1.87517"><ele>361.0</ele><time>2026-05-03T17:38:03.784Z</time></trkpt><trkpt lat="53.2821683" lon="-1.87507"><ele>361.0</ele><time>2026-05-03T17:38:04.785Z</time></trkpt><trkpt lat="53.2820233" lon="-1.8749717"><ele>361.3333333333333</ele><time>2026-05-03T17:38:05.786Z</time></trkpt><trkpt lat="53.2818817" lon="-1.8748717"><ele>361.6666666666667</ele><time>2026-05-03T17:38:06.783Z</time></trkpt><trkpt lat="53.2817333" lon="-1.8747683"><ele>362.0</ele><time>2026-05-03T17:38:07.786Z</time></trkpt><trkpt lat="53.2815767" lon="-1.8746633"><ele>361.0</ele><time>2026-05-03T17:38:08.786Z</time></trkpt><trkpt lat="53.2814133" lon="-1.8745517"><ele>360.0</ele><time>2026-05-03T17:38:09.787Z</time></trkpt><trkpt lat="53.28125" lon="-1.87444"><ele>359.0</ele><time>2026-05-03T17:38:10.787Z</time></trkpt><trkpt lat="53.2810933" lon="-1.87433"><ele>360.6666666666667</ele><time>2026-05-03T17:38:11.787Z</time></trkpt><trkpt lat="53.280945" lon="-1.874215"><ele>362.3333333333333</ele><time>2026-05-03T17:38:12.786Z</time></trkpt><trkpt lat="53.2808033" lon="-1.87409"><ele>364.0</ele><time>2026-05-03T17:38:13.783Z</time></trkpt><trkpt lat="53.2806567" lon="-1.8739467"><ele>362.0</ele><time>2026-05-03T17:38:14.783Z</time></trkpt><trkpt lat="53.280505" lon="-1.8737933"><ele>360.0</ele><time>2026-05-03T17:38:15.786Z</time></trkpt><trkpt lat="53.280355" lon="-1.873645"><ele>358.0</ele><time>2026-05-03T17:38:16.783Z</time></trkpt><trkpt lat="53.2802033" lon="-1.8734883"><ele>358.3333333333333</ele><time>2026-05-03T17:38:17.785Z</time></trkpt><trkpt lat="53.2800383" lon="-1.873315"><ele>358.6666666666667</ele><time>2026-05-03T17:38:18.787Z</time></trkpt><trkpt lat="53.279865" lon="-1.8731283"><ele>359.0</ele><time>2026-05-03T17:38:19.787Z</time></trkpt><trkpt lat="53.2796833" lon="-1.87294"><ele>358.6666666666667</ele><time>2026-05-03T17:38:20.787Z</time></trkpt><trkpt lat="53.27949" lon="-1.8727483"><ele>358.3333333333333</ele><time>2026-05-03T17:38:21.783Z</time></trkpt><trkpt lat="53.2793" lon="-1.8725667"><ele>358.0</ele><time>2026-05-03T17:38:22.787Z</time></trkpt><trkpt lat="53.27911" lon="-1.8723933"><ele>356.66666666666663</ele><time>2026-05-03T17:38:23.783Z</time></trkpt><trkpt lat="53.2789283" lon="-1.8722167"><ele>355.3333333333333</ele><time>2026-05-03T17:38:24.786Z</time></trkpt><trkpt lat="53.278745" lon="-1.8720283"><ele>354.0</ele><time>2026-05-03T17:38:25.784Z</time></trkpt><trkpt lat="53.2785583" lon="-1.8718483"><ele>354.3333333333333</ele><time>2026-05-03T17:38:26.784Z</time></trkpt><trkpt lat="53.2783633" lon="-1.87169"><ele>354.66666666666663</ele><time>2026-05-03T17:38:27.784Z</time></trkpt><trkpt lat="53.27817" lon="-1.871525"><ele>355.0</ele><time>2026-05-03T17:38:28.791Z</time></trkpt><trkpt lat="53.2779717" lon="-1.8713467"><ele>355.0</ele><time>2026-05-03T17:38:29.784Z</time></trkpt><trkpt lat="53.277775" lon="-1.8711667"><ele>355.0</ele><time>2026-05-03T17:38:30.785Z</time></trkpt><trkpt lat="53.2775783" lon="-1.870985"><ele>355.0</ele><time>2026-05-03T17:38:31.785Z</time></trkpt><trkpt lat="53.2773867" lon="-1.8708117"><ele>356.3333333333333</ele><time>2026-05-03T17:38:32.786Z</time></trkpt><trkpt lat="53.2771983" lon="-1.87065"><ele>357.6666666666667</ele><time>2026-05-03T17:38:33.784Z</time></trkpt><trkpt lat="53.2770067" lon="-1.8704867"><ele>359.0</ele><time>2026-05-03T17:38:34.785Z</time></trkpt><trkpt lat="53.27681" lon="-1.8703183"><ele>359.0</ele><time>2026-05-03T17:38:35.784Z</time></trkpt><trkpt lat="53.27662" lon="-1.87014"><ele>359.0</ele><time>2026-05-03T17:38:36.787Z</time></trkpt><trkpt lat="53.27644" lon="-1.86996"><ele>359.0</ele><time>2026-05-03T17:38:37.788Z</time></trkpt><trkpt lat="53.276275" lon="-1.86979"><ele>359.0</ele><time>2026-05-03T17:38:38.783Z</time></trkpt><trkpt lat="53.2761117" lon="-1.8696167"><ele>359.0</ele><time>2026-05-03T17:38:39.788Z</time></trkpt><trkpt lat="53.27594" lon="-1.8694383"><ele>359.0</ele><time>2026-05-03T17:38:40.787Z</time></trkpt><trkpt lat="53.2757617" lon="-1.86926"><ele>357.6666666666667</ele><time>2026-05-03T17:38:41.782Z</time></trkpt><trkpt lat="53.27558" lon="-1.8690767"><ele>356.3333333333333</ele><time>2026-05-03T17:38:42.786Z</time></trkpt><trkpt lat="53.275405" lon="-1.868895"><ele>355.0</ele><time>2026-05-03T17:38:43.783Z</time></trkpt><trkpt lat="53.27524" lon="-1.8687183"><ele>355.0</ele><time>2026-05-03T17:38:44.787Z</time></trkpt><trkpt lat="53.275085" lon="-1.86855"><ele>355.0</ele><time>2026-05-03T17:38:45.787Z</time></trkpt><trkpt lat="53.2749383" lon="-1.86839"><ele>355.0</ele><time>2026-05-03T17:38:46.787Z</time></trkpt><trkpt lat="53.2748" lon="-1.86824"><ele>354.75</ele><time>2026-05-03T17:38:47.783Z</time></trkpt><trkpt lat="53.27467" lon="-1.8680967"><ele>354.5</ele><time>2026-05-03T17:38:48.788Z</time></trkpt><trkpt lat="53.2745483" lon="-1.8679617"><ele>354.25</ele><time>2026-05-03T17:38:49.783Z</time></trkpt><trkpt lat="53.274435" lon="-1.8678383"><ele>354.0</ele><time>2026-05-03T17:38:50.786Z</time></trkpt><trkpt lat="53.2743317" lon="-1.867725"><ele>354.0</ele><time>2026-05-03T17:38:51.782Z</time></trkpt><trkpt lat="53.274255" lon="-1.8676367"><ele>354.0</ele><time>2026-05-03T17:38:52.783Z</time></trkpt><trkpt lat="53.2741967" lon="-1.8675717"><ele>354.0</ele><time>2026-05-03T17:38:53.783Z</time></trkpt><trkpt lat="53.2741267" lon="-1.8675083"><ele>354.0</ele><time>2026-05-03T17:38:55.783Z</time></trkpt><trkpt lat="53.2740717" lon="-1.8675967"><ele>354.0</ele><time>2026-05-03T17:38:59.783Z</time></trkpt><trkpt lat="53.274055" lon="-1.86778"><ele>354.0</ele><time>2026-05-03T17:39:01.784Z</time></trkpt><trkpt lat="53.274055" lon="-1.8679383"><ele>354.0</ele><time>2026-05-03T17:39:02.783Z</time></trkpt><trkpt lat="53.2740383" lon="-1.8681"><ele>354.0</ele><time>2026-05-03T17:39:03.783Z</time></trkpt><trkpt lat="53.2740683" lon="-1.8684183"><ele>354.0</ele><time>2026-05-03T17:39:04.783Z</time></trkpt><trkpt lat="53.274135" lon="-1.8688033"><ele>353.5</ele><time>2026-05-03T17:39:05.784Z</time></trkpt><trkpt lat="53.274195" lon="-1.8692067"><ele>353.0</ele><time>2026-05-03T17:39:06.783Z</time></trkpt><trkpt lat="53.2742483" lon="-1.8696083"><ele>352.6666666666667</ele><time>2026-05-03T17:39:07.782Z</time></trkpt><trkpt lat="53.27428" lon="-1.8699617"><ele>352.3333333333333</ele><time>2026-05-03T17:39:08.786Z</time></trkpt><trkpt lat="53.2743033" lon="-1.8703083"><ele>352.0</ele><time>2026-05-03T17:39:09.782Z</time></trkpt><trkpt lat="53.2743233" lon="-1.8706367"><ele>352.0</ele><time>2026-05-03T17:39:10.782Z</time></trkpt><trkpt lat="53.2743367" lon="-1.8709633"><ele>352.0</ele><time>2026-05-03T17:39:11.783Z</time></trkpt><trkpt lat="53.2743467" lon="-1.87127"><ele>352.0</ele><time>2026-05-03T17:39:12.783Z</time></trkpt><trkpt lat="53.2743517" lon="-1.87156"><ele>351.3333333333333</ele><time>2026-05-03T17:39:13.783Z</time></trkpt><trkpt lat="53.2743333" lon="-1.871835"><ele>350.6666666666667</ele><time>2026-05-03T17:39:14.783Z</time></trkpt><trkpt lat="53.27431" lon="-1.8721033"><ele>350.0</ele><time>2026-05-03T17:39:15.782Z</time></trkpt><trkpt lat="53.274285" lon="-1.8723567"><ele>350.0</ele><time>2026-05-03T17:39:16.782Z</time></trkpt><trkpt lat="53.2742717" lon="-1.8726067"><ele>350.0</ele><time>2026-05-03T17:39:17.783Z</time></trkpt><trkpt lat="53.2742633" lon="-1.8728733"><ele>350.0</ele><time>2026-05-03T17:39:18.783Z</time></trkpt><trkpt lat="53.274275" lon="-1.8731567"><ele>349.0</ele><time>2026-05-03T17:39:19.783Z</time></trkpt><trkpt lat="53.274285" lon="-1.8734433"><ele>348.0</ele><time>2026-05-03T17:39:20.783Z</time></trkpt><trkpt lat="53.274295" lon="-1.8737367"><ele>347.0</ele><time>2026-05-03T17:39:21.783Z</time></trkpt><trkpt lat="53.2743" lon="-1.87403"><ele>346.6666666666667</ele><time>2026-05-03T17:39:22.783Z</time></trkpt><trkpt lat="53.2743" lon="-1.8743233"><ele>346.3333333333333</ele><time>2026-05-03T17:39:23.782Z</time></trkpt><trkpt lat="53.2742933" lon="-1.8746083"><ele>346.0</ele><time>2026-05-03T17:39:24.782Z</time></trkpt><trkpt lat="53.27428" lon="-1.87489"><ele>345.3333333333333</ele><time>2026-05-03T17:39:25.784Z</time></trkpt><trkpt lat="53.2742517" lon="-1.875175"><ele>344.6666666666667</ele><time>2026-05-03T17:39:26.783Z</time></trkpt><trkpt lat="53.2741983" lon="-1.8754617"><ele>344.0</ele><time>2026-05-03T17:39:27.782Z</time></trkpt><trkpt lat="53.27412" lon="-1.8757567"><ele>343.0</ele><time>2026-05-03T17:39:28.783Z</time></trkpt><trkpt lat="53.274025" lon="-1.8760467"><ele>342.0</ele><time>2026-05-03T17:39:29.784Z</time></trkpt><trkpt lat="53.2739167" lon="-1.87633"><ele>341.0</ele><time>2026-05-03T17:39:30.783Z</time></trkpt><trkpt lat="53.2738083" lon="-1.8766117"><ele>341.0</ele><time>2026-05-03T17:39:31.783Z</time></trkpt><trkpt lat="53.2737" lon="-1.8769"><ele>341.0</ele><time>2026-05-03T17:39:32.783Z</time></trkpt><trkpt lat="53.273595" lon="-1.877185"><ele>341.0</ele><time>2026-05-03T17:39:33.783Z</time></trkpt><trkpt lat="53.2734983" lon="-1.8774717"><ele>340.0</ele><time>2026-05-03T17:39:34.784Z</time></trkpt><trkpt lat="53.2734033" lon="-1.8777633"><ele>339.0</ele><time>2026-05-03T17:39:35.783Z</time></trkpt><trkpt lat="53.2733133" lon="-1.8780617"><ele>338.0</ele><time>2026-05-03T17:39:36.783Z</time></trkpt><trkpt lat="53.2732283" lon="-1.87836"><ele>337.0</ele><time>2026-05-03T17:39:37.782Z</time></trkpt><trkpt lat="53.2731517" lon="-1.87866"><ele>336.0</ele><time>2026-05-03T17:39:38.783Z</time></trkpt><trkpt lat="53.27308" lon="-1.87897"><ele>335.0</ele><time>2026-05-03T17:39:39.783Z</time></trkpt><trkpt lat="53.2730183" lon="-1.8792783"><ele>335.0</ele><time>2026-05-03T17:39:40.782Z</time></trkpt><trkpt lat="53.2729667" lon="-1.8795833"><ele>335.0</ele><time>2026-05-03T17:39:41.783Z</time></trkpt><trkpt lat="53.27292" lon="-1.87986"><ele>335.0</ele><time>2026-05-03T17:39:42.782Z</time></trkpt><trkpt lat="53.2728767" lon="-1.8801133"><ele>335.0</ele><time>2026-05-03T17:39:43.784Z</time></trkpt><trkpt lat="53.272835" lon="-1.8803567"><ele>335.0</ele><time>2026-05-03T17:39:44.783Z</time></trkpt><trkpt lat="53.272785" lon="-1.88056"><ele>335.0</ele><time>2026-05-03T17:39:45.783Z</time></trkpt><trkpt lat="53.27273" lon="-1.880735"><ele>335.0</ele><time>2026-05-03T17:39:46.783Z</time></trkpt><trkpt lat="53.2726633" lon="-1.88088"><ele>335.5</ele><time>2026-05-03T17:39:47.783Z</time></trkpt><trkpt lat="53.272585" lon="-1.88101"><ele>336.0</ele><time>2026-05-03T17:39:48.783Z</time></trkpt><trkpt lat="53.2725033" lon="-1.8811433"><ele>336.5</ele><time>2026-05-03T17:39:49.783Z</time></trkpt><trkpt lat="53.2724167" lon="-1.8813"><ele>337.0</ele><time>2026-05-03T17:39:50.782Z</time></trkpt><trkpt lat="53.2723217" lon="-1.881465"><ele>336.3333333333333</ele><time>2026-05-03T17:39:51.782Z</time></trkpt><trkpt lat="53.2722167" lon="-1.88165"><ele>335.6666666666667</ele><time>2026-05-03T17:39:52.781Z</time></trkpt><trkpt lat="53.2720967" lon="-1.8818483"><ele>335.0</ele><time>2026-05-03T17:39:53.783Z</time></trkpt><trkpt lat="53.271975" lon="-1.88207"><ele>334.6666666666667</ele><time>2026-05-03T17:39:54.783Z</time></trkpt><trkpt lat="53.2718483" lon="-1.8823083"><ele>334.3333333333333</ele><time>2026-05-03T17:39:55.783Z</time></trkpt><trkpt lat="53.2717183" lon="-1.8825517"><ele>334.0</ele><time>2026-05-03T17:39:56.783Z</time></trkpt><trkpt lat="53.2715783" lon="-1.8828083"><ele>333.3333333333333</ele><time>2026-05-03T17:39:57.783Z</time></trkpt><trkpt lat="53.271435" lon="-1.88307"><ele>332.6666666666667</ele><time>2026-05-03T17:39:58.782Z</time></trkpt><trkpt lat="53.271295" lon="-1.88333"><ele>332.0</ele><time>2026-05-03T17:39:59.783Z</time></trkpt><trkpt lat="53.2711567" lon="-1.8835933"><ele>332.0</ele><time>2026-05-03T17:40:00.783Z</time></trkpt><trkpt lat="53.2710167" lon="-1.8838567"><ele>332.0</ele><time>2026-05-03T17:40:01.783Z</time></trkpt><trkpt lat="53.2708833" lon="-1.8841083"><ele>332.0</ele><time>2026-05-03T17:40:02.782Z</time></trkpt><trkpt lat="53.270755" lon="-1.88435"><ele>332.0</ele><time>2026-05-03T17:40:03.783Z</time></trkpt><trkpt lat="53.2706417" lon="-1.8846"><ele>332.0</ele><time>2026-05-03T17:40:04.787Z</time></trkpt><trkpt lat="53.2705417" lon="-1.884865"><ele>332.0</ele><time>2026-05-03T17:40:05.783Z</time></trkpt><trkpt lat="53.270455" lon="-1.885155"><ele>331.33333333333337</ele><time>2026-05-03T17:40:06.783Z</time></trkpt><trkpt lat="53.270365" lon="-1.8854683"><ele>330.6666666666667</ele><time>2026-05-03T17:40:07.783Z</time></trkpt><trkpt lat="53.270275" lon="-1.885795"><ele>330.0</ele><time>2026-05-03T17:40:08.783Z</time></trkpt><trkpt lat="53.2701867" lon="-1.8861217"><ele>330.0</ele><time>2026-05-03T17:40:09.783Z</time></trkpt><trkpt lat="53.270095" lon="-1.8864517"><ele>330.0</ele><time>2026-05-03T17:40:10.783Z</time></trkpt><trkpt lat="53.27" lon="-1.8867817"><ele>330.0</ele><time>2026-05-03T17:40:11.783Z</time></trkpt><trkpt lat="53.2699017" lon="-1.8871033"><ele>330.0</ele><time>2026-05-03T17:40:12.783Z</time></trkpt><trkpt lat="53.2697833" lon="-1.887405"><ele>330.0</ele><time>2026-05-03T17:40:13.787Z</time></trkpt><trkpt lat="53.269655" lon="-1.88769"><ele>330.0</ele><time>2026-05-03T17:40:14.783Z</time></trkpt><trkpt lat="53.2695233" lon="-1.8879567"><ele>330.0</ele><time>2026-05-03T17:40:15.785Z</time></trkpt><trkpt lat="53.2693933" lon="-1.8882133"><ele>330.0</ele><time>2026-05-03T17:40:16.783Z</time></trkpt><trkpt lat="53.2692717" lon="-1.8884533"><ele>330.0</ele><time>2026-05-03T17:40:17.783Z</time></trkpt><trkpt lat="53.26915" lon="-1.888675"><ele>329.6666666666667</ele><time>2026-05-03T17:40:18.783Z</time></trkpt><trkpt lat="53.2690233" lon="-1.8888683"><ele>329.33333333333337</ele><time>2026-05-03T17:40:19.783Z</time></trkpt><trkpt lat="53.2688767" lon="-1.8890367"><ele>329.0</ele><time>2026-05-03T17:40:20.782Z</time></trkpt><trkpt lat="53.2687133" lon="-1.8891833"><ele>329.33333333333337</ele><time>2026-05-03T17:40:21.782Z</time></trkpt><trkpt lat="53.2685383" lon="-1.88931"><ele>329.6666666666667</ele><time>2026-05-03T17:40:22.783Z</time></trkpt><trkpt lat="53.2683517" lon="-1.8894133"><ele>330.0</ele><time>2026-05-03T17:40:23.784Z</time></trkpt><trkpt lat="53.2681517" lon="-1.8894833"><ele>330.0</ele><time>2026-05-03T17:40:24.783Z</time></trkpt><trkpt lat="53.26794" lon="-1.88952"><ele>330.0</ele><time>2026-05-03T17:40:25.783Z</time></trkpt><trkpt lat="53.267725" lon="-1.8895283"><ele>330.0</ele><time>2026-05-03T17:40:26.784Z</time></trkpt><trkpt lat="53.2675183" lon="-1.8895217"><ele>330.0</ele><time>2026-05-03T17:40:27.782Z</time></trkpt><trkpt lat="53.2673183" lon="-1.88951"><ele>330.0</ele><time>2026-05-03T17:40:28.787Z</time></trkpt><trkpt lat="53.2671417" lon="-1.8895117"><ele>330.0</ele><time>2026-05-03T17:40:29.782Z</time></trkpt><trkpt lat="53.2669783" lon="-1.889525"><ele>329.5</ele><time>2026-05-03T17:40:30.783Z</time></trkpt><trkpt lat="53.2668367" lon="-1.889555"><ele>329.0</ele><time>2026-05-03T17:40:31.782Z</time></trkpt><trkpt lat="53.2667017" lon="-1.889605"><ele>328.5</ele><time>2026-05-03T17:40:32.787Z</time></trkpt><trkpt lat="53.2665733" lon="-1.8896683"><ele>328.0</ele><time>2026-05-03T17:40:33.782Z</time></trkpt><trkpt lat="53.2664533" lon="-1.8897433"><ele>327.75</ele><time>2026-05-03T17:40:34.787Z</time></trkpt><trkpt lat="53.2663367" lon="-1.8898233"><ele>327.5</ele><time>2026-05-03T17:40:35.783Z</time></trkpt><trkpt lat="53.266225" lon="-1.8899133"><ele>327.25</ele><time>2026-05-03T17:40:36.781Z</time></trkpt><trkpt lat="53.266115" lon="-1.8900117"><ele>327.0</ele><time>2026-05-03T17:40:37.783Z</time></trkpt><trkpt lat="53.2660067" lon="-1.8901083"><ele>327.0</ele><time>2026-05-03T17:40:38.783Z</time></trkpt><trkpt lat="53.2659017" lon="-1.8902167"><ele>327.0</ele><time>2026-05-03T17:40:39.782Z</time></trkpt><trkpt lat="53.265805" lon="-1.8903333"><ele>327.0</ele><time>2026-05-03T17:40:40.783Z</time></trkpt><trkpt lat="53.265715" lon="-1.8904583"><ele>327.0</ele><time>2026-05-03T17:40:41.784Z</time></trkpt><trkpt lat="53.265625" lon="-1.89059"><ele>326.5</ele><time>2026-05-03T17:40:42.783Z</time></trkpt><trkpt lat="53.2655383" lon="-1.89073"><ele>326.0</ele><time>2026-05-03T17:40:43.786Z</time></trkpt><trkpt lat="53.265455" lon="-1.8908683"><ele>325.5</ele><time>2026-05-03T17:40:44.783Z</time></trkpt><trkpt lat="53.2653733" lon="-1.8910133"><ele>325.0</ele><time>2026-05-03T17:40:45.783Z</time></trkpt><trkpt lat="53.2652933" lon="-1.8911517"><ele>324.75</ele><time>2026-05-03T17:40:46.783Z</time></trkpt><trkpt lat="53.265215" lon="-1.891295"><ele>324.5</ele><time>2026-05-03T17:40:47.783Z</time></trkpt><trkpt lat="53.2651383" lon="-1.8914333"><ele>324.25</ele><time>2026-05-03T17:40:48.783Z</time></trkpt><trkpt lat="53.26506" lon="-1.8915667"><ele>324.0</ele><time>2026-05-03T17:40:49.784Z</time></trkpt><trkpt lat="53.2649783" lon="-1.8917017"><ele>324.2</ele><time>2026-05-03T17:40:50.783Z</time></trkpt><trkpt lat="53.2649083" lon="-1.8918417"><ele>324.4</ele><time>2026-05-03T17:40:51.782Z</time></trkpt><trkpt lat="53.2648417" lon="-1.8919783"><ele>324.6</ele><time>2026-05-03T17:40:52.782Z</time></trkpt><trkpt lat="53.26479" lon="-1.8921217"><ele>324.8</ele><time>2026-05-03T17:40:53.783Z</time></trkpt><trkpt lat="53.2647467" lon="-1.8922667"><ele>325.0</ele><time>2026-05-03T17:40:54.783Z</time></trkpt><trkpt lat="53.2647083" lon="-1.8924033"><ele>325.0</ele><time>2026-05-03T17:40:55.784Z</time></trkpt><trkpt lat="53.2646717" lon="-1.89255"><ele>325.0</ele><time>2026-05-03T17:40:56.783Z</time></trkpt><trkpt lat="53.264645" lon="-1.8927017"><ele>325.0</ele><time>2026-05-03T17:40:57.783Z</time></trkpt><trkpt lat="53.2646267" lon="-1.8928583"><ele>325.0</ele><time>2026-05-03T17:40:58.781Z</time></trkpt><trkpt lat="53.2646133" lon="-1.8930233"><ele>325.0</ele><time>2026-05-03T17:40:59.782Z</time></trkpt><trkpt lat="53.2646033" lon="-1.8931883"><ele>324.4</ele><time>2026-05-03T17:41:00.782Z</time></trkpt><trkpt lat="53.2645883" lon="-1.8933467"><ele>323.8</ele><time>2026-05-03T17:41:01.783Z</time></trkpt><trkpt lat="53.2645783" lon="-1.8935133"><ele>323.20000000000005</ele><time>2026-05-03T17:41:02.781Z</time></trkpt><trkpt lat="53.2645633" lon="-1.893665"><ele>322.6</ele><time>2026-05-03T17:41:03.783Z</time></trkpt><trkpt lat="53.26455" lon="-1.8938183"><ele>322.0</ele><time>2026-05-03T17:41:04.783Z</time></trkpt><trkpt lat="53.26454" lon="-1.893985"><ele>321.0</ele><time>2026-05-03T17:41:05.784Z</time></trkpt><trkpt lat="53.2645233" lon="-1.8941583"><ele>320.0</ele><time>2026-05-03T17:41:06.782Z</time></trkpt><trkpt lat="53.2645" lon="-1.8943417"><ele>319.0</ele><time>2026-05-03T17:41:07.782Z</time></trkpt><trkpt lat="53.2644783" lon="-1.8945317"><ele>318.0</ele><time>2026-05-03T17:41:08.783Z</time></trkpt><trkpt lat="53.2644567" lon="-1.8947367"><ele>318.0</ele><time>2026-05-03T17:41:09.787Z</time></trkpt><trkpt lat="53.2644317" lon="-1.8949467"><ele>318.0</ele><time>2026-05-03T17:41:10.783Z</time></trkpt><trkpt lat="53.2644083" lon="-1.8951667"><ele>318.0</ele><time>2026-05-03T17:41:11.782Z</time></trkpt><trkpt lat="53.2643833" lon="-1.8953967"><ele>318.0</ele><time>2026-05-03T17:41:12.782Z</time></trkpt><trkpt lat="53.264355" lon="-1.895635"><ele>319.0</ele><time>2026-05-03T17:41:13.783Z</time></trkpt><trkpt lat="53.2643183" lon="-1.895885"><ele>320.0</ele><time>2026-05-03T17:41:14.784Z</time></trkpt><trkpt lat="53.2642767" lon="-1.8961367"><ele>321.0</ele><time>2026-05-03T17:41:15.782Z</time></trkpt><trkpt lat="53.2642333" lon="-1.896365"><ele>322.0</ele><time>2026-05-03T17:41:16.782Z</time></trkpt><trkpt lat="53.2641933" lon="-1.8965717"><ele>323.0</ele><time>2026-05-03T17:41:17.783Z</time></trkpt><trkpt lat="53.2641583" lon="-1.8967617"><ele>324.0</ele><time>2026-05-03T17:41:18.782Z</time></trkpt><trkpt lat="53.2641267" lon="-1.8969517"><ele>325.0</ele><time>2026-05-03T17:41:19.783Z</time></trkpt><trkpt lat="53.2640967" lon="-1.8971333"><ele>325.5</ele><time>2026-05-03T17:41:20.782Z</time></trkpt><trkpt lat="53.264065" lon="-1.8973133"><ele>326.0</ele><time>2026-05-03T17:41:21.782Z</time></trkpt><trkpt lat="53.2640317" lon="-1.8974917"><ele>326.5</ele><time>2026-05-03T17:41:22.783Z</time></trkpt><trkpt lat="53.2639983" lon="-1.8976783"><ele>327.0</ele><time>2026-05-03T17:41:23.784Z</time></trkpt><trkpt lat="53.26396" lon="-1.8978583"><ele>327.0</ele><time>2026-05-03T17:41:24.782Z</time></trkpt><trkpt lat="53.2639233" lon="-1.8980433"><ele>327.0</ele><time>2026-05-03T17:41:25.781Z</time></trkpt><trkpt lat="53.263885" lon="-1.89824"><ele>327.0</ele><time>2026-05-03T17:41:26.783Z</time></trkpt><trkpt lat="53.2638467" lon="-1.8984283"><ele>327.0</ele><time>2026-05-03T17:41:27.786Z</time></trkpt><trkpt lat="53.2638083" lon="-1.8986183"><ele>327.0</ele><time>2026-05-03T17:41:28.783Z</time></trkpt><trkpt lat="53.2637667" lon="-1.8988083"><ele>327.0</ele><time>2026-05-03T17:41:29.782Z</time></trkpt><trkpt lat="53.2637267" lon="-1.899"><ele>327.0</ele><time>2026-05-03T17:41:30.782Z</time></trkpt><trkpt lat="53.2636883" lon="-1.8991983"><ele>327.0</ele><time>2026-05-03T17:41:31.783Z</time></trkpt><trkpt lat="53.2636467" lon="-1.8993967"><ele>327.0</ele><time>2026-05-03T17:41:32.783Z</time></trkpt><trkpt lat="53.26361" lon="-1.89959"><ele>327.0</ele><time>2026-05-03T17:41:33.783Z</time></trkpt><trkpt lat="53.2635683" lon="-1.8997717"><ele>327.0</ele><time>2026-05-03T17:41:34.782Z</time></trkpt><trkpt lat="53.26353" lon="-1.8999417"><ele>327.0</ele><time>2026-05-03T17:41:35.782Z</time></trkpt><trkpt lat="53.2634967" lon="-1.9000933"><ele>327.0</ele><time>2026-05-03T17:41:36.782Z</time></trkpt><trkpt lat="53.26348" lon="-1.90023"><ele>327.0</ele><time>2026-05-03T17:41:37.782Z</time></trkpt><trkpt lat="53.2634733" lon="-1.9003417"><ele>327.0</ele><time>2026-05-03T17:41:38.783Z</time></trkpt><trkpt lat="53.2634883" lon="-1.900515"><ele>327.0</ele><time>2026-05-03T17:41:40.783Z</time></trkpt><trkpt lat="53.263485" lon="-1.900635"><ele>327.0</ele><time>2026-05-03T17:41:50.783Z</time></trkpt><trkpt lat="53.2634133" lon="-1.9008117"><ele>327.0</ele><time>2026-05-03T17:41:52.782Z</time></trkpt><trkpt lat="53.2633533" lon="-1.9009317"><ele>326.8</ele><time>2026-05-03T17:41:53.783Z</time></trkpt><trkpt lat="53.26329" lon="-1.9010667"><ele>326.6</ele><time>2026-05-03T17:41:54.782Z</time></trkpt><trkpt lat="53.2632267" lon="-1.9012067"><ele>326.40000000000003</ele><time>2026-05-03T17:41:55.782Z</time></trkpt><trkpt lat="53.2631617" lon="-1.9013383"><ele>326.20000000000005</ele><time>2026-05-03T17:41:56.783Z</time></trkpt><trkpt lat="53.2630983" lon="-1.9014617"><ele>326.0</ele><time>2026-05-03T17:41:57.783Z</time></trkpt><trkpt lat="53.26303" lon="-1.9015833"><ele>325.6</ele><time>2026-05-03T17:41:58.782Z</time></trkpt><trkpt lat="53.262965" lon="-1.9016983"><ele>325.20000000000005</ele><time>2026-05-03T17:41:59.783Z</time></trkpt><trkpt lat="53.2628983" lon="-1.90181"><ele>324.79999999999995</ele><time>2026-05-03T17:42:00.783Z</time></trkpt><trkpt lat="53.2628317" lon="-1.901935"><ele>324.4</ele><time>2026-05-03T17:42:01.782Z</time></trkpt><trkpt lat="53.262765" lon="-1.9020717"><ele>324.0</ele><time>2026-05-03T17:42:02.782Z</time></trkpt><trkpt lat="53.2626967" lon="-1.9022083"><ele>323.4</ele><time>2026-05-03T17:42:03.783Z</time></trkpt><trkpt lat="53.2626317" lon="-1.9023483"><ele>322.79999999999995</ele><time>2026-05-03T17:42:04.782Z</time></trkpt><trkpt lat="53.2625667" lon="-1.90249"><ele>322.20000000000005</ele><time>2026-05-03T17:42:05.783Z</time></trkpt><trkpt lat="53.2625083" lon="-1.9026433"><ele>321.6</ele><time>2026-05-03T17:42:06.784Z</time></trkpt><trkpt lat="53.262455" lon="-1.9027983"><ele>321.0</ele><time>2026-05-03T17:42:07.783Z</time></trkpt><trkpt lat="53.26241" lon="-1.90295"><ele>320.40000000000003</ele><time>2026-05-03T17:42:08.783Z</time></trkpt><trkpt lat="53.2623783" lon="-1.90311"><ele>319.8</ele><time>2026-05-03T17:42:09.783Z</time></trkpt><trkpt lat="53.26236" lon="-1.903285"><ele>319.20000000000005</ele><time>2026-05-03T17:42:10.783Z</time></trkpt><trkpt lat="53.2623483" lon="-1.9034683"><ele>318.6</ele><time>2026-05-03T17:42:11.785Z</time></trkpt><trkpt lat="53.2623333" lon="-1.9036367"><ele>318.0</ele><time>2026-05-03T17:42:12.783Z</time></trkpt><trkpt lat="53.2623233" lon="-1.9038117"><ele>317.2</ele><time>2026-05-03T17:42:13.783Z</time></trkpt><trkpt lat="53.262315" lon="-1.903995"><ele>316.4</ele><time>2026-05-03T17:42:14.782Z</time></trkpt><trkpt lat="53.26231" lon="-1.9041817"><ele>315.59999999999997</ele><time>2026-05-03T17:42:15.782Z</time></trkpt><trkpt lat="53.2623033" lon="-1.904365"><ele>314.8</ele><time>2026-05-03T17:42:16.783Z</time></trkpt><trkpt lat="53.2622917" lon="-1.9045433"><ele>314.0</ele><time>2026-05-03T17:42:17.785Z</time></trkpt><trkpt lat="53.2622733" lon="-1.9047167"><ele>313.4</ele><time>2026-05-03T17:42:18.783Z</time></trkpt><trkpt lat="53.2622417" lon="-1.9048867"><ele>312.79999999999995</ele><time>2026-05-03T17:42:19.782Z</time></trkpt><trkpt lat="53.2621933" lon="-1.9050467"><ele>312.20000000000005</ele><time>2026-05-03T17:42:20.783Z</time></trkpt><trkpt lat="53.2621317" lon="-1.905195"><ele>311.6</ele><time>2026-05-03T17:42:21.782Z</time></trkpt><trkpt lat="53.26206" lon="-1.9053317"><ele>311.0</ele><time>2026-05-03T17:42:22.782Z</time></trkpt><trkpt lat="53.2619783" lon="-1.9054567"><ele>309.2</ele><time>2026-05-03T17:42:23.782Z</time></trkpt><trkpt lat="53.26189" lon="-1.9055617"><ele>307.40000000000003</ele><time>2026-05-03T17:42:24.786Z</time></trkpt><trkpt lat="53.261785" lon="-1.90563"><ele>305.6</ele><time>2026-05-03T17:42:25.784Z</time></trkpt><trkpt lat="53.26168" lon="-1.9056817"><ele>303.8</ele><time>2026-05-03T17:42:26.782Z</time></trkpt><trkpt lat="53.261575" lon="-1.9057017"><ele>302.0</ele><time>2026-05-03T17:42:27.781Z</time></trkpt><trkpt lat="53.2614617" lon="-1.9057"><ele>301.0</ele><time>2026-05-03T17:42:28.781Z</time></trkpt><trkpt lat="53.26135" lon="-1.9056933"><ele>300.0</ele><time>2026-05-03T17:42:29.783Z</time></trkpt><trkpt lat="53.261235" lon="-1.9056733"><ele>299.0</ele><time>2026-05-03T17:42:30.783Z</time></trkpt><trkpt lat="53.26112" lon="-1.9056383"><ele>298.0</ele><time>2026-05-03T17:42:31.783Z</time></trkpt><trkpt lat="53.2610017" lon="-1.9056033"><ele>298.0</ele><time>2026-05-03T17:42:32.782Z</time></trkpt><trkpt lat="53.260885" lon="-1.905565"><ele>298.0</ele><time>2026-05-03T17:42:33.782Z</time></trkpt><trkpt lat="53.2607733" lon="-1.90553"><ele>298.0</ele><time>2026-05-03T17:42:34.783Z</time></trkpt><trkpt lat="53.2606633" lon="-1.9054967"><ele>298.0</ele><time>2026-05-03T17:42:35.783Z</time></trkpt><trkpt lat="53.260555" lon="-1.905465"><ele>296.75</ele><time>2026-05-03T17:42:36.782Z</time></trkpt><trkpt lat="53.2604433" lon="-1.9054317"><ele>295.5</ele><time>2026-05-03T17:42:37.782Z</time></trkpt><trkpt lat="53.2603267" lon="-1.9054083"><ele>294.25</ele><time>2026-05-03T17:42:38.783Z</time></trkpt><trkpt lat="53.2602067" lon="-1.905395"><ele>293.0</ele><time>2026-05-03T17:42:39.782Z</time></trkpt><trkpt lat="53.2600867" lon="-1.9053867"><ele>293.0</ele><time>2026-05-03T17:42:40.782Z</time></trkpt><trkpt lat="53.2599733" lon="-1.905385"><ele>293.0</ele><time>2026-05-03T17:42:41.783Z</time></trkpt><trkpt lat="53.2598667" lon="-1.9053917"><ele>293.0</ele><time>2026-05-03T17:42:42.782Z</time></trkpt><trkpt lat="53.2597683" lon="-1.905405"><ele>293.0</ele><time>2026-05-03T17:42:43.783Z</time></trkpt><trkpt lat="53.2596767" lon="-1.9054183"><ele>293.0</ele><time>2026-05-03T17:42:44.782Z</time></trkpt><trkpt lat="53.259595" lon="-1.9054583"><ele>292.6666666666667</ele><time>2026-05-03T17:42:45.782Z</time></trkpt><trkpt lat="53.25953" lon="-1.9055067"><ele>292.33333333333337</ele><time>2026-05-03T17:42:46.784Z</time></trkpt><trkpt lat="53.25948" lon="-1.905575"><ele>292.0</ele><time>2026-05-03T17:42:47.784Z</time></trkpt><trkpt lat="53.25943" lon="-1.9056567"><ele>291.6666666666667</ele><time>2026-05-03T17:42:48.784Z</time></trkpt><trkpt lat="53.25939" lon="-1.9057467"><ele>291.3333333333333</ele><time>2026-05-03T17:42:49.782Z</time></trkpt><trkpt lat="53.2593417" lon="-1.9059217"><ele>291.0</ele><time>2026-05-03T17:42:51.784Z</time></trkpt><trkpt lat="53.25931" lon="-1.906055"><ele>291.57142857142856</ele><time>2026-05-03T17:42:53.784Z</time></trkpt><trkpt lat="53.2592767" lon="-1.9061583"><ele>292.1428571428571</ele><time>2026-05-03T17:42:56.784Z</time></trkpt><trkpt lat="53.2592367" lon="-1.906245"><ele>292.7142857142857</ele><time>2026-05-03T17:42:58.782Z</time></trkpt><trkpt lat="53.259185" lon="-1.906385"><ele>293.2857142857143</ele><time>2026-05-03T17:43:00.783Z</time></trkpt><trkpt lat="53.2591733" lon="-1.9064983"><ele>293.8571428571429</ele><time>2026-05-03T17:43:01.784Z</time></trkpt><trkpt lat="53.2591717" lon="-1.90662"><ele>294.42857142857144</ele><time>2026-05-03T17:43:02.784Z</time></trkpt><trkpt lat="53.2591783" lon="-1.90674"><ele>295.0</ele><time>2026-05-03T17:43:03.784Z</time></trkpt><trkpt lat="53.2591933" lon="-1.90686"><ele>295.25</ele><time>2026-05-03T17:43:04.784Z</time></trkpt><trkpt lat="53.2592117" lon="-1.90697"><ele>295.5</ele><time>2026-05-03T17:43:05.784Z</time></trkpt><trkpt lat="53.259285" lon="-1.9072283"><ele>295.75</ele><time>2026-05-03T17:43:07.784Z</time></trkpt><trkpt lat="53.2593033" lon="-1.9074183"><ele>296.0</ele><time>2026-05-03T17:43:09.783Z</time></trkpt><trkpt lat="53.25931" lon="-1.907595"><ele>296.0</ele><time>2026-05-03T17:43:11.784Z</time></trkpt><trkpt lat="53.2593283" lon="-1.9077733"><ele>296.0</ele><time>2026-05-03T17:43:13.784Z</time></trkpt><trkpt lat="53.259395" lon="-1.907925"><ele>296.0</ele><time>2026-05-03T17:43:15.784Z</time></trkpt><trkpt lat="53.2595" lon="-1.90801"><ele>296.0</ele><time>2026-05-03T17:43:17.784Z</time></trkpt><trkpt lat="53.25956" lon="-1.9080633"><ele>296.0</ele><time>2026-05-03T17:43:18.783Z</time></trkpt><trkpt lat="53.259615" lon="-1.908115"><ele>296.0</ele><time>2026-05-03T17:43:19.784Z</time></trkpt><trkpt lat="53.259725" lon="-1.908225"><ele>296.0</ele><time>2026-05-03T17:43:21.784Z</time></trkpt><trkpt lat="53.2597833" lon="-1.908295"><ele>296.0</ele><time>2026-05-03T17:43:22.784Z</time></trkpt><trkpt lat="53.25984" lon="-1.90837"><ele>296.0</ele><time>2026-05-03T17:43:23.783Z</time></trkpt><trkpt lat="53.259895" lon="-1.908445"><ele>296.0</ele><time>2026-05-03T17:43:24.783Z</time></trkpt><trkpt lat="53.25997" lon="-1.908555"><ele>296.0</ele><time>2026-05-03T17:43:26.784Z</time></trkpt><trkpt lat="53.2600283" lon="-1.9086367"><ele>295.2</ele><time>2026-05-03T17:43:28.784Z</time></trkpt><trkpt lat="53.2601167" lon="-1.908775"><ele>294.40000000000003</ele><time>2026-05-03T17:43:30.783Z</time></trkpt><trkpt lat="53.2601733" lon="-1.908865"><ele>293.6</ele><time>2026-05-03T17:43:31.784Z</time></trkpt><trkpt lat="53.2602283" lon="-1.908965"><ele>292.8</ele><time>2026-05-03T17:43:32.782Z</time></trkpt><trkpt lat="53.2602833" lon="-1.9090783"><ele>292.0</ele><time>2026-05-03T17:43:33.784Z</time></trkpt><trkpt lat="53.2603383" lon="-1.9091967"><ele>292.0</ele><time>2026-05-03T17:43:34.784Z</time></trkpt><trkpt lat="53.2603783" lon="-1.9093183"><ele>292.0</ele><time>2026-05-03T17:43:35.785Z</time></trkpt><trkpt lat="53.2604133" lon="-1.9094433"><ele>292.0</ele><time>2026-05-03T17:43:36.783Z</time></trkpt><trkpt lat="53.2604433" lon="-1.9095817"><ele>292.0</ele><time>2026-05-03T17:43:37.784Z</time></trkpt><trkpt lat="53.260465" lon="-1.909735"><ele>292.0</ele><time>2026-05-03T17:43:38.784Z</time></trkpt><trkpt lat="53.26048" lon="-1.9098967"><ele>292.0</ele><time>2026-05-03T17:43:39.785Z</time></trkpt><trkpt lat="53.2604883" lon="-1.9100517"><ele>292.3333333333333</ele><time>2026-05-03T17:43:40.783Z</time></trkpt><trkpt lat="53.26049" lon="-1.9102033"><ele>292.66666666666663</ele><time>2026-05-03T17:43:41.784Z</time></trkpt><trkpt lat="53.2604917" lon="-1.910355"><ele>293.0</ele><time>2026-05-03T17:43:42.783Z</time></trkpt><trkpt lat="53.26049" lon="-1.910495"><ele>293.3333333333333</ele><time>2026-05-03T17:43:43.785Z</time></trkpt><trkpt lat="53.260485" lon="-1.9106267"><ele>293.6666666666667</ele><time>2026-05-03T17:43:44.786Z</time></trkpt><trkpt lat="53.2604767" lon="-1.9107617"><ele>294.0</ele><time>2026-05-03T17:43:45.784Z</time></trkpt><trkpt lat="53.260465" lon="-1.9108983"><ele>294.5</ele><time>2026-05-03T17:43:46.784Z</time></trkpt><trkpt lat="53.2604517" lon="-1.9110367"><ele>295.0</ele><time>2026-05-03T17:43:47.784Z</time></trkpt><trkpt lat="53.2604417" lon="-1.911175"><ele>295.5</ele><time>2026-05-03T17:43:48.783Z</time></trkpt><trkpt lat="53.2604367" lon="-1.9113167"><ele>296.0</ele><time>2026-05-03T17:43:49.784Z</time></trkpt><trkpt lat="53.26043" lon="-1.9114533"><ele>296.5</ele><time>2026-05-03T17:43:50.784Z</time></trkpt><trkpt lat="53.2604233" lon="-1.911585"><ele>297.0</ele><time>2026-05-03T17:43:51.783Z</time></trkpt><trkpt lat="53.260415" lon="-1.9117167"><ele>297.1666666666667</ele><time>2026-05-03T17:43:52.784Z</time></trkpt><trkpt lat="53.260405" lon="-1.9118417"><ele>297.3333333333333</ele><time>2026-05-03T17:43:53.784Z</time></trkpt><trkpt lat="53.2603983" lon="-1.9119667"><ele>297.5</ele><time>2026-05-03T17:43:54.785Z</time></trkpt><trkpt lat="53.2603917" lon="-1.9120967"><ele>297.66666666666663</ele><time>2026-05-03T17:43:55.785Z</time></trkpt><trkpt lat="53.260385" lon="-1.9122283"><ele>297.8333333333333</ele><time>2026-05-03T17:43:56.784Z</time></trkpt><trkpt lat="53.26038" lon="-1.9123667"><ele>298.0</ele><time>2026-05-03T17:43:57.784Z</time></trkpt><trkpt lat="53.260375" lon="-1.9125117"><ele>298.16666666666663</ele><time>2026-05-03T17:43:58.783Z</time></trkpt><trkpt lat="53.26037" lon="-1.9126617"><ele>298.3333333333333</ele><time>2026-05-03T17:43:59.784Z</time></trkpt><trkpt lat="53.2603667" lon="-1.91281"><ele>298.5</ele><time>2026-05-03T17:44:00.784Z</time></trkpt><trkpt lat="53.260365" lon="-1.912955"><ele>298.6666666666667</ele><time>2026-05-03T17:44:01.784Z</time></trkpt><trkpt lat="53.26036" lon="-1.9130917"><ele>298.83333333333337</ele><time>2026-05-03T17:44:02.783Z</time></trkpt><trkpt lat="53.2603483" lon="-1.91323"><ele>299.0</ele><time>2026-05-03T17:44:03.783Z</time></trkpt><trkpt lat="53.2603383" lon="-1.9133667"><ele>299.2</ele><time>2026-05-03T17:44:04.783Z</time></trkpt><trkpt lat="53.26033" lon="-1.9134933"><ele>299.4</ele><time>2026-05-03T17:44:05.785Z</time></trkpt><trkpt lat="53.2603233" lon="-1.91361"><ele>299.6</ele><time>2026-05-03T17:44:06.784Z</time></trkpt><trkpt lat="53.2603117" lon="-1.9137783"><ele>299.8</ele><time>2026-05-03T17:44:08.784Z</time></trkpt><trkpt lat="53.2603083" lon="-1.913945"><ele>300.0</ele><time>2026-05-03T17:44:10.785Z</time></trkpt><trkpt lat="53.2602733" lon="-1.9141267"><ele>300.6</ele><time>2026-05-03T17:44:12.783Z</time></trkpt><trkpt lat="53.260225" lon="-1.914265"><ele>301.2</ele><time>2026-05-03T17:44:14.784Z</time></trkpt><trkpt lat="53.2601717" lon="-1.914345"><ele>301.8</ele><time>2026-05-03T17:44:18.784Z</time></trkpt><trkpt lat="53.2600767" lon="-1.9144017"><ele>302.4</ele><time>2026-05-03T17:44:29.785Z</time></trkpt><trkpt lat="53.259965" lon="-1.91445"><ele>303.0</ele><time>2026-05-03T17:44:31.784Z</time></trkpt><trkpt lat="53.2598383" lon="-1.9145083"><ele>302.6666666666667</ele><time>2026-05-03T17:44:33.784Z</time></trkpt><trkpt lat="53.2597817" lon="-1.9145667"><ele>302.3333333333333</ele><time>2026-05-03T17:44:34.783Z</time></trkpt><trkpt lat="53.2597317" lon="-1.9146483"><ele>302.0</ele><time>2026-05-03T17:44:35.784Z</time></trkpt><trkpt lat="53.25969" lon="-1.9147483"><ele>301.66666666666663</ele><time>2026-05-03T17:44:36.785Z</time></trkpt><trkpt lat="53.2596433" lon="-1.91486"><ele>301.3333333333333</ele><time>2026-05-03T17:44:37.786Z</time></trkpt><trkpt lat="53.2595967" lon="-1.915005"><ele>301.0</ele><time>2026-05-03T17:44:38.785Z</time></trkpt><trkpt lat="53.2595517" lon="-1.9151617"><ele>301.0</ele><time>2026-05-03T17:44:39.785Z</time></trkpt><trkpt lat="53.259505" lon="-1.915325"><ele>301.0</ele><time>2026-05-03T17:44:40.789Z</time></trkpt><trkpt lat="53.2594517" lon="-1.91549"><ele>301.0</ele><time>2026-05-03T17:44:41.785Z</time></trkpt><trkpt lat="53.2593967" lon="-1.915645"><ele>301.0</ele><time>2026-05-03T17:44:42.785Z</time></trkpt><trkpt lat="53.259345" lon="-1.915795"><ele>301.0</ele><time>2026-05-03T17:44:43.785Z</time></trkpt><trkpt lat="53.2592967" lon="-1.9159417"><ele>301.40000000000003</ele><time>2026-05-03T17:44:44.786Z</time></trkpt><trkpt lat="53.259245" lon="-1.916075"><ele>301.8</ele><time>2026-05-03T17:44:45.783Z</time></trkpt><trkpt lat="53.2591833" lon="-1.9162017"><ele>302.20000000000005</ele><time>2026-05-03T17:44:46.783Z</time></trkpt><trkpt lat="53.2591117" lon="-1.916325"><ele>302.6</ele><time>2026-05-03T17:44:47.785Z</time></trkpt><trkpt lat="53.2590317" lon="-1.9164583"><ele>303.0</ele><time>2026-05-03T17:44:48.785Z</time></trkpt><trkpt lat="53.258945" lon="-1.9165917"><ele>303.0</ele><time>2026-05-03T17:44:49.784Z</time></trkpt><trkpt lat="53.2588567" lon="-1.91673"><ele>303.0</ele><time>2026-05-03T17:44:50.784Z</time></trkpt><trkpt lat="53.2587783" lon="-1.91688"><ele>303.0</ele><time>2026-05-03T17:44:51.785Z</time></trkpt><trkpt lat="53.258705" lon="-1.9170617"><ele>303.0</ele><time>2026-05-03T17:44:52.784Z</time></trkpt><trkpt lat="53.2586367" lon="-1.9172517"><ele>303.0</ele><time>2026-05-03T17:44:53.783Z</time></trkpt><trkpt lat="53.2585717" lon="-1.917455"><ele>303.0</ele><time>2026-05-03T17:44:54.784Z</time></trkpt><trkpt lat="53.2585117" lon="-1.9176783"><ele>303.0</ele><time>2026-05-03T17:44:55.783Z</time></trkpt><trkpt lat="53.258445" lon="-1.91789"><ele>303.0</ele><time>2026-05-03T17:44:56.783Z</time></trkpt><trkpt lat="53.2583833" lon="-1.9181033"><ele>303.3333333333333</ele><time>2026-05-03T17:44:57.783Z</time></trkpt><trkpt lat="53.2583233" lon="-1.9183233"><ele>303.66666666666663</ele><time>2026-05-03T17:44:58.784Z</time></trkpt><trkpt lat="53.2582583" lon="-1.918555"><ele>304.0</ele><time>2026-05-03T17:44:59.784Z</time></trkpt><trkpt lat="53.258195" lon="-1.9188"><ele>304.0</ele><time>2026-05-03T17:45:00.784Z</time></trkpt><trkpt lat="53.25814" lon="-1.9190367"><ele>304.0</ele><time>2026-05-03T17:45:01.784Z</time></trkpt><trkpt lat="53.25809" lon="-1.9192583"><ele>304.0</ele><time>2026-05-03T17:45:02.784Z</time></trkpt><trkpt lat="53.258045" lon="-1.91947"><ele>304.0</ele><time>2026-05-03T17:45:03.784Z</time></trkpt><trkpt lat="53.2580033" lon="-1.9196733"><ele>303.75</ele><time>2026-05-03T17:45:04.784Z</time></trkpt><trkpt lat="53.2579667" lon="-1.91987"><ele>303.5</ele><time>2026-05-03T17:45:05.783Z</time></trkpt><trkpt lat="53.2579317" lon="-1.9200617"><ele>303.25</ele><time>2026-05-03T17:45:06.782Z</time></trkpt><trkpt lat="53.2579017" lon="-1.9202517"><ele>303.0</ele><time>2026-05-03T17:45:07.785Z</time></trkpt><trkpt lat="53.257875" lon="-1.9204483"><ele>303.0</ele><time>2026-05-03T17:45:08.783Z</time></trkpt><trkpt lat="53.2578717" lon="-1.92067"><ele>303.0</ele><time>2026-05-03T17:45:09.784Z</time></trkpt><trkpt lat="53.2578483" lon="-1.920885"><ele>303.0</ele><time>2026-05-03T17:45:10.785Z</time></trkpt><trkpt lat="53.257845" lon="-1.9211233"><ele>303.0</ele><time>2026-05-03T17:45:11.783Z</time></trkpt><trkpt lat="53.2578017" lon="-1.9213233"><ele>303.75</ele><time>2026-05-03T17:45:12.784Z</time></trkpt><trkpt lat="53.2577683" lon="-1.9215267"><ele>304.5</ele><time>2026-05-03T17:45:13.784Z</time></trkpt><trkpt lat="53.25773" lon="-1.9217333"><ele>305.25</ele><time>2026-05-03T17:45:14.785Z</time></trkpt><trkpt lat="53.257695" lon="-1.9219433"><ele>306.0</ele><time>2026-05-03T17:45:15.783Z</time></trkpt><trkpt lat="53.257665" lon="-1.9221517"><ele>306.0</ele><time>2026-05-03T17:45:16.783Z</time></trkpt><trkpt lat="53.257635" lon="-1.9223617"><ele>306.0</ele><time>2026-05-03T17:45:17.784Z</time></trkpt><trkpt lat="53.2576033" lon="-1.9225783"><ele>306.0</ele><time>2026-05-03T17:45:18.784Z</time></trkpt><trkpt lat="53.2575783" lon="-1.92279"><ele>306.0</ele><time>2026-05-03T17:45:19.784Z</time></trkpt><trkpt lat="53.2575467" lon="-1.9229917"><ele>306.0</ele><time>2026-05-03T17:45:20.784Z</time></trkpt><trkpt lat="53.2575233" lon="-1.9232067"><ele>306.0</ele><time>2026-05-03T17:45:21.784Z</time></trkpt><trkpt lat="53.2575" lon="-1.9234183"><ele>306.0</ele><time>2026-05-03T17:45:22.783Z</time></trkpt><trkpt lat="53.2574833" lon="-1.9236433"><ele>306.0</ele><time>2026-05-03T17:45:23.784Z</time></trkpt><trkpt lat="53.25746" lon="-1.9238567"><ele>306.25</ele><time>2026-05-03T17:45:24.783Z</time></trkpt><trkpt lat="53.257435" lon="-1.9240633"><ele>306.5</ele><time>2026-05-03T17:45:25.785Z</time></trkpt><trkpt lat="53.2574083" lon="-1.9242517"><ele>306.75</ele><time>2026-05-03T17:45:26.783Z</time></trkpt><trkpt lat="53.257385" lon="-1.9244333"><ele>307.0</ele><time>2026-05-03T17:45:27.782Z</time></trkpt><trkpt lat="53.2573633" lon="-1.9246183"><ele>307.25</ele><time>2026-05-03T17:45:28.783Z</time></trkpt><trkpt lat="53.257335" lon="-1.924795"><ele>307.5</ele><time>2026-05-03T17:45:29.783Z</time></trkpt><trkpt lat="53.2573033" lon="-1.9249783"><ele>307.75</ele><time>2026-05-03T17:45:30.784Z</time></trkpt><trkpt lat="53.257265" lon="-1.9251633"><ele>308.0</ele><time>2026-05-03T17:45:31.785Z</time></trkpt><trkpt lat="53.2572217" lon="-1.9253483"><ele>308.5</ele><time>2026-05-03T17:45:32.784Z</time></trkpt><trkpt lat="53.2571683" lon="-1.925525"><ele>309.0</ele><time>2026-05-03T17:45:33.784Z</time></trkpt><trkpt lat="53.2571117" lon="-1.9257"><ele>309.5</ele><time>2026-05-03T17:45:34.783Z</time></trkpt><trkpt lat="53.257055" lon="-1.925875"><ele>310.0</ele><time>2026-05-03T17:45:35.783Z</time></trkpt><trkpt lat="53.2569983" lon="-1.9260567"><ele>310.0</ele><time>2026-05-03T17:45:36.784Z</time></trkpt><trkpt lat="53.2569433" lon="-1.9262367"><ele>310.0</ele><time>2026-05-03T17:45:37.784Z</time></trkpt><trkpt lat="53.256875" lon="-1.926405"><ele>310.0</ele><time>2026-05-03T17:45:38.785Z</time></trkpt><trkpt lat="53.2568067" lon="-1.9265717"><ele>310.0</ele><time>2026-05-03T17:45:39.784Z</time></trkpt><trkpt lat="53.25674" lon="-1.9267383"><ele>310.25</ele><time>2026-05-03T17:45:40.784Z</time></trkpt><trkpt lat="53.256675" lon="-1.9269083"><ele>310.5</ele><time>2026-05-03T17:45:41.784Z</time></trkpt><trkpt lat="53.2566167" lon="-1.92708"><ele>310.75</ele><time>2026-05-03T17:45:42.783Z</time></trkpt><trkpt lat="53.25656" lon="-1.9272567"><ele>311.0</ele><time>2026-05-03T17:45:43.784Z</time></trkpt><trkpt lat="53.2564983" lon="-1.9274333"><ele>311.75</ele><time>2026-05-03T17:45:44.784Z</time></trkpt><trkpt lat="53.2564383" lon="-1.92761"><ele>312.5</ele><time>2026-05-03T17:45:45.783Z</time></trkpt><trkpt lat="53.2563817" lon="-1.9277867"><ele>313.25</ele><time>2026-05-03T17:45:46.785Z</time></trkpt><trkpt lat="53.2563233" lon="-1.9279583"><ele>314.0</ele><time>2026-05-03T17:45:47.784Z</time></trkpt><trkpt lat="53.2562633" lon="-1.9281267"><ele>314.0</ele><time>2026-05-03T17:45:48.784Z</time></trkpt><trkpt lat="53.2562067" lon="-1.928305"><ele>314.0</ele><time>2026-05-03T17:45:49.785Z</time></trkpt><trkpt lat="53.2561467" lon="-1.9284817"><ele>314.0</ele><time>2026-05-03T17:45:50.783Z</time></trkpt><trkpt lat="53.2560883" lon="-1.92866"><ele>314.0</ele><time>2026-05-03T17:45:51.784Z</time></trkpt><trkpt lat="53.2560367" lon="-1.92884"><ele>314.0</ele><time>2026-05-03T17:45:52.783Z</time></trkpt><trkpt lat="53.2559817" lon="-1.9290233"><ele>314.0</ele><time>2026-05-03T17:45:53.788Z</time></trkpt><trkpt lat="53.2559233" lon="-1.9292017"><ele>314.0</ele><time>2026-05-03T17:45:54.784Z</time></trkpt><trkpt lat="53.2558583" lon="-1.9293717"><ele>314.0</ele><time>2026-05-03T17:45:55.783Z</time></trkpt><trkpt lat="53.2557983" lon="-1.92954"><ele>314.0</ele><time>2026-05-03T17:45:56.785Z</time></trkpt><trkpt lat="53.255735" lon="-1.9297017"><ele>314.0</ele><time>2026-05-03T17:45:57.784Z</time></trkpt><trkpt lat="53.25568" lon="-1.9298717"><ele>314.0</ele><time>2026-05-03T17:45:58.785Z</time></trkpt><trkpt lat="53.2556233" lon="-1.930045"><ele>314.0</ele><time>2026-05-03T17:45:59.783Z</time></trkpt><trkpt lat="53.2555667" lon="-1.9302233"><ele>315.5</ele><time>2026-05-03T17:46:00.783Z</time></trkpt><trkpt lat="53.2555117" lon="-1.93041"><ele>317.0</ele><time>2026-05-03T17:46:01.784Z</time></trkpt><trkpt lat="53.255455" lon="-1.9305983"><ele>318.5</ele><time>2026-05-03T17:46:02.784Z</time></trkpt><trkpt lat="53.255395" lon="-1.9307833"><ele>320.0</ele><time>2026-05-03T17:46:03.784Z</time></trkpt><trkpt lat="53.2553383" lon="-1.9309667"><ele>320.5</ele><time>2026-05-03T17:46:04.783Z</time></trkpt><trkpt lat="53.25528" lon="-1.9311483"><ele>321.0</ele><time>2026-05-03T17:46:05.784Z</time></trkpt><trkpt lat="53.25522" lon="-1.9313267"><ele>321.5</ele><time>2026-05-03T17:46:06.784Z</time></trkpt><trkpt lat="53.25516" lon="-1.9315033"><ele>322.0</ele><time>2026-05-03T17:46:07.783Z</time></trkpt><trkpt lat="53.2551017" lon="-1.9316867"><ele>322.5</ele><time>2026-05-03T17:46:08.782Z</time></trkpt><trkpt lat="53.2550383" lon="-1.9318633"><ele>323.0</ele><time>2026-05-03T17:46:09.784Z</time></trkpt><trkpt lat="53.2549783" lon="-1.932035"><ele>323.5</ele><time>2026-05-03T17:46:10.785Z</time></trkpt><trkpt lat="53.2549183" lon="-1.9321983"><ele>324.0</ele><time>2026-05-03T17:46:11.782Z</time></trkpt><trkpt lat="53.2548567" lon="-1.932355"><ele>324.0</ele><time>2026-05-03T17:46:12.783Z</time></trkpt><trkpt lat="53.2547917" lon="-1.93251"><ele>324.0</ele><time>2026-05-03T17:46:13.784Z</time></trkpt><trkpt lat="53.254715" lon="-1.932665"><ele>324.0</ele><time>2026-05-03T17:46:14.784Z</time></trkpt><trkpt lat="53.2546333" lon="-1.9328117"><ele>324.0</ele><time>2026-05-03T17:46:15.784Z</time></trkpt><trkpt lat="53.2545467" lon="-1.9329517"><ele>325.0</ele><time>2026-05-03T17:46:16.784Z</time></trkpt><trkpt lat="53.2544533" lon="-1.9330883"><ele>326.0</ele><time>2026-05-03T17:46:17.785Z</time></trkpt><trkpt lat="53.25436" lon="-1.9332217"><ele>327.0</ele><time>2026-05-03T17:46:18.787Z</time></trkpt><trkpt lat="53.2542567" lon="-1.9333467"><ele>328.0</ele><time>2026-05-03T17:46:19.784Z</time></trkpt><trkpt lat="53.2541533" lon="-1.9334633"><ele>328.0</ele><time>2026-05-03T17:46:20.783Z</time></trkpt><trkpt lat="53.254055" lon="-1.9335783"><ele>328.0</ele><time>2026-05-03T17:46:21.783Z</time></trkpt><trkpt lat="53.2539617" lon="-1.9336983"><ele>328.0</ele><time>2026-05-03T17:46:22.783Z</time></trkpt><trkpt lat="53.2538667" lon="-1.9338083"><ele>328.0</ele><time>2026-05-03T17:46:23.784Z</time></trkpt><trkpt lat="53.2537783" lon="-1.93393"><ele>328.75</ele><time>2026-05-03T17:46:24.784Z</time></trkpt><trkpt lat="53.2536967" lon="-1.9340583"><ele>329.5</ele><time>2026-05-03T17:46:25.784Z</time></trkpt><trkpt lat="53.253605" lon="-1.9341767"><ele>330.25</ele><time>2026-05-03T17:46:26.784Z</time></trkpt><trkpt lat="53.253515" lon="-1.9343033"><ele>331.0</ele><time>2026-05-03T17:46:27.784Z</time></trkpt><trkpt lat="53.2534233" lon="-1.9344267"><ele>331.0</ele><time>2026-05-03T17:46:28.783Z</time></trkpt><trkpt lat="53.2533533" lon="-1.9345583"><ele>331.0</ele><time>2026-05-03T17:46:29.782Z</time></trkpt><trkpt lat="53.2532667" lon="-1.9346767"><ele>331.0</ele><time>2026-05-03T17:46:30.783Z</time></trkpt><trkpt lat="53.253185" lon="-1.9347783"><ele>331.0</ele><time>2026-05-03T17:46:31.783Z</time></trkpt><trkpt lat="53.25311" lon="-1.934885"><ele>331.0</ele><time>2026-05-03T17:46:32.785Z</time></trkpt><trkpt lat="53.25304" lon="-1.9349783"><ele>332.16666666666663</ele><time>2026-05-03T17:46:33.784Z</time></trkpt><trkpt lat="53.2529867" lon="-1.935065"><ele>333.3333333333333</ele><time>2026-05-03T17:46:34.783Z</time></trkpt><trkpt lat="53.2529067" lon="-1.935155"><ele>334.5</ele><time>2026-05-03T17:46:36.783Z</time></trkpt><trkpt lat="53.2528317" lon="-1.93528"><ele>335.6666666666667</ele><time>2026-05-03T17:47:00.784Z</time></trkpt><trkpt lat="53.252785" lon="-1.9353617"><ele>336.83333333333337</ele><time>2026-05-03T17:47:01.784Z</time></trkpt><trkpt lat="53.2527183" lon="-1.9354583"><ele>338.0</ele><time>2026-05-03T17:47:02.782Z</time></trkpt><trkpt lat="53.25264" lon="-1.9355617"><ele>338.0</ele><time>2026-05-03T17:47:03.784Z</time></trkpt><trkpt lat="53.2525667" lon="-1.935665"><ele>338.0</ele><time>2026-05-03T17:47:04.783Z</time></trkpt><trkpt lat="53.2524867" lon="-1.9357717"><ele>338.0</ele><time>2026-05-03T17:47:05.784Z</time></trkpt><trkpt lat="53.2523833" lon="-1.935875"><ele>338.0</ele><time>2026-05-03T17:47:06.783Z</time></trkpt><trkpt lat="53.2522783" lon="-1.93599"><ele>338.0</ele><time>2026-05-03T17:47:07.783Z</time></trkpt><trkpt lat="53.252155" lon="-1.9361133"><ele>339.25</ele><time>2026-05-03T17:47:08.783Z</time></trkpt><trkpt lat="53.2520467" lon="-1.9362317"><ele>340.5</ele><time>2026-05-03T17:47:09.783Z</time></trkpt><trkpt lat="53.2519517" lon="-1.936345"><ele>341.75</ele><time>2026-05-03T17:47:10.784Z</time></trkpt><trkpt lat="53.25186" lon="-1.9364567"><ele>343.0</ele><time>2026-05-03T17:47:11.782Z</time></trkpt><trkpt lat="53.2517633" lon="-1.9365783"><ele>343.0</ele><time>2026-05-03T17:47:12.784Z</time></trkpt><trkpt lat="53.2516567" lon="-1.9367133"><ele>343.0</ele><time>2026-05-03T17:47:13.784Z</time></trkpt><trkpt lat="53.2515433" lon="-1.9368483"><ele>343.0</ele><time>2026-05-03T17:47:14.783Z</time></trkpt><trkpt lat="53.251425" lon="-1.9370033"><ele>343.0</ele><time>2026-05-03T17:47:15.784Z</time></trkpt><trkpt lat="53.2513" lon="-1.93716"><ele>343.0</ele><time>2026-05-03T17:47:16.784Z</time></trkpt><trkpt lat="53.2511767" lon="-1.9373217"><ele>343.0</ele><time>2026-05-03T17:47:17.784Z</time></trkpt><trkpt lat="53.2510533" lon="-1.9374833"><ele>343.0</ele><time>2026-05-03T17:47:18.783Z</time></trkpt><trkpt lat="53.2509317" lon="-1.93764"><ele>343.0</ele><time>2026-05-03T17:47:19.784Z</time></trkpt><trkpt lat="53.2508133" lon="-1.9377867"><ele>343.0</ele><time>2026-05-03T17:47:20.785Z</time></trkpt><trkpt lat="53.2507" lon="-1.9379267"><ele>343.0</ele><time>2026-05-03T17:47:21.786Z</time></trkpt><trkpt lat="53.2505933" lon="-1.9380533"><ele>343.0</ele><time>2026-05-03T17:47:22.784Z</time></trkpt><trkpt lat="53.25049" lon="-1.93817"><ele>342.25</ele><time>2026-05-03T17:47:23.785Z</time></trkpt><trkpt lat="53.25038" lon="-1.93828"><ele>341.5</ele><time>2026-05-03T17:47:24.786Z</time></trkpt><trkpt lat="53.2502683" lon="-1.9383867"><ele>340.75</ele><time>2026-05-03T17:47:25.783Z</time></trkpt><trkpt lat="53.2501483" lon="-1.93849"><ele>340.0</ele><time>2026-05-03T17:47:26.783Z</time></trkpt><trkpt lat="53.250025" lon="-1.93858"><ele>340.0</ele><time>2026-05-03T17:47:27.784Z</time></trkpt><trkpt lat="53.2498983" lon="-1.938655"><ele>340.0</ele><time>2026-05-03T17:47:28.784Z</time></trkpt><trkpt lat="53.2497667" lon="-1.93872"><ele>340.0</ele><time>2026-05-03T17:47:29.784Z</time></trkpt><trkpt lat="53.249635" lon="-1.9387817"><ele>340.0</ele><time>2026-05-03T17:47:30.782Z</time></trkpt><trkpt lat="53.2495" lon="-1.9388283"><ele>342.5</ele><time>2026-05-03T17:47:31.783Z</time></trkpt><trkpt lat="53.249365" lon="-1.9388617"><ele>345.0</ele><time>2026-05-03T17:47:32.783Z</time></trkpt><trkpt lat="53.2492283" lon="-1.938895"><ele>347.5</ele><time>2026-05-03T17:47:33.783Z</time></trkpt><trkpt lat="53.249095" lon="-1.9389233"><ele>350.0</ele><time>2026-05-03T17:47:34.785Z</time></trkpt><trkpt lat="53.2489633" lon="-1.9389533"><ele>351.25</ele><time>2026-05-03T17:47:35.784Z</time></trkpt><trkpt lat="53.2488383" lon="-1.938985"><ele>352.5</ele><time>2026-05-03T17:47:36.784Z</time></trkpt><trkpt lat="53.248715" lon="-1.9390117"><ele>353.75</ele><time>2026-05-03T17:47:37.786Z</time></trkpt><trkpt lat="53.2485917" lon="-1.939025"><ele>355.0</ele><time>2026-05-03T17:47:38.783Z</time></trkpt><trkpt lat="53.2484683" lon="-1.9390217"><ele>355.0</ele><time>2026-05-03T17:47:39.784Z</time></trkpt><trkpt lat="53.248345" lon="-1.9390133"><ele>355.0</ele><time>2026-05-03T17:47:40.782Z</time></trkpt><trkpt lat="53.24822" lon="-1.93901"><ele>355.0</ele><time>2026-05-03T17:47:41.784Z</time></trkpt><trkpt lat="53.2480967" lon="-1.9389983"><ele>355.0</ele><time>2026-05-03T17:47:42.783Z</time></trkpt><trkpt lat="53.247975" lon="-1.9389833"><ele>355.6</ele><time>2026-05-03T17:47:43.783Z</time></trkpt><trkpt lat="53.2478583" lon="-1.9389783"><ele>356.2</ele><time>2026-05-03T17:47:44.784Z</time></trkpt><trkpt lat="53.2477517" lon="-1.938975"><ele>356.79999999999995</ele><time>2026-05-03T17:47:45.784Z</time></trkpt><trkpt lat="53.2476567" lon="-1.93898"><ele>357.4</ele><time>2026-05-03T17:47:46.783Z</time></trkpt><trkpt lat="53.2475767" lon="-1.9389867"><ele>358.0</ele><time>2026-05-03T17:47:47.784Z</time></trkpt><trkpt lat="53.2475083" lon="-1.9389833"><ele>358.0</ele><time>2026-05-03T17:47:48.783Z</time></trkpt><trkpt lat="53.2474383" lon="-1.9389517"><ele>358.0</ele><time>2026-05-03T17:47:50.784Z</time></trkpt><trkpt lat="53.2473883" lon="-1.9388767"><ele>358.0</ele><time>2026-05-03T17:47:52.784Z</time></trkpt><trkpt lat="53.2473317" lon="-1.93883"><ele>358.0</ele><time>2026-05-03T17:47:55.784Z</time></trkpt><trkpt lat="53.2472783" lon="-1.938935"><ele>358.0</ele><time>2026-05-03T17:53:58.783Z</time></trkpt><trkpt lat="53.2471983" lon="-1.939055"><ele>358.0</ele><time>2026-05-03T17:54:01.783Z</time></trkpt><trkpt lat="53.2470983" lon="-1.9391283"><ele>358.4</ele><time>2026-05-03T17:54:03.784Z</time></trkpt><trkpt lat="53.2470183" lon="-1.9391733"><ele>358.79999999999995</ele><time>2026-05-03T17:54:04.783Z</time></trkpt><trkpt lat="53.2469167" lon="-1.9392317"><ele>359.2</ele><time>2026-05-03T17:54:05.784Z</time></trkpt><trkpt lat="53.2468183" lon="-1.9392833"><ele>359.6</ele><time>2026-05-03T17:54:06.783Z</time></trkpt><trkpt lat="53.2467217" lon="-1.9393383"><ele>360.0</ele><time>2026-05-03T17:54:07.784Z</time></trkpt><trkpt lat="53.246625" lon="-1.9393983"><ele>360.0</ele><time>2026-05-03T17:54:08.783Z</time></trkpt><trkpt lat="53.2465283" lon="-1.93946"><ele>360.0</ele><time>2026-05-03T17:54:09.783Z</time></trkpt><trkpt lat="53.24644" lon="-1.939515"><ele>360.0</ele><time>2026-05-03T17:54:10.783Z</time></trkpt><trkpt lat="53.24635" lon="-1.939565"><ele>360.0</ele><time>2026-05-03T17:54:11.785Z</time></trkpt><trkpt lat="53.246265" lon="-1.93962"><ele>360.0</ele><time>2026-05-03T17:54:12.784Z</time></trkpt><trkpt lat="53.2461767" lon="-1.93967"><ele>361.3333333333333</ele><time>2026-05-03T17:54:13.783Z</time></trkpt><trkpt lat="53.2460967" lon="-1.939725"><ele>362.6666666666667</ele><time>2026-05-03T17:54:14.783Z</time></trkpt><trkpt lat="53.24602" lon="-1.9397717"><ele>364.0</ele><time>2026-05-03T17:54:15.783Z</time></trkpt><trkpt lat="53.245945" lon="-1.9398217"><ele>365.33333333333337</ele><time>2026-05-03T17:54:16.783Z</time></trkpt><trkpt lat="53.24587" lon="-1.9398667"><ele>366.6666666666667</ele><time>2026-05-03T17:54:17.783Z</time></trkpt><trkpt lat="53.2458" lon="-1.939915"><ele>368.0</ele><time>2026-05-03T17:54:18.784Z</time></trkpt><trkpt lat="53.2457267" lon="-1.9399883"><ele>367.33333333333337</ele><time>2026-05-03T17:54:19.784Z</time></trkpt><trkpt lat="53.2456583" lon="-1.9400617"><ele>366.6666666666667</ele><time>2026-05-03T17:54:20.783Z</time></trkpt><trkpt lat="53.2456" lon="-1.940155"><ele>366.0</ele><time>2026-05-03T17:54:21.783Z</time></trkpt><trkpt lat="53.2455533" lon="-1.9402617"><ele>365.3333333333333</ele><time>2026-05-03T17:54:22.785Z</time></trkpt><trkpt lat="53.2455183" lon="-1.9403783"><ele>364.66666666666663</ele><time>2026-05-03T17:54:23.785Z</time></trkpt><trkpt lat="53.2454867" lon="-1.9404983"><ele>364.0</ele><time>2026-05-03T17:54:24.785Z</time></trkpt><trkpt lat="53.2454533" lon="-1.9406217"><ele>365.5</ele><time>2026-05-03T17:54:25.784Z</time></trkpt><trkpt lat="53.24542" lon="-1.9407467"><ele>367.0</ele><time>2026-05-03T17:54:26.784Z</time></trkpt><trkpt lat="53.2453833" lon="-1.94087"><ele>368.5</ele><time>2026-05-03T17:54:27.782Z</time></trkpt><trkpt lat="53.2453533" lon="-1.9409917"><ele>370.0</ele><time>2026-05-03T17:54:28.784Z</time></trkpt><trkpt lat="53.245325" lon="-1.94111"><ele>371.5</ele><time>2026-05-03T17:54:29.783Z</time></trkpt><trkpt lat="53.2452983" lon="-1.9412233"><ele>373.0</ele><time>2026-05-03T17:54:30.783Z</time></trkpt><trkpt lat="53.2452617" lon="-1.9413933"><ele>373.4</ele><time>2026-05-03T17:54:32.784Z</time></trkpt><trkpt lat="53.2452383" lon="-1.9415333"><ele>373.79999999999995</ele><time>2026-05-03T17:54:50.784Z</time></trkpt><trkpt lat="53.2452183" lon="-1.9416917"><ele>374.2</ele><time>2026-05-03T17:54:52.784Z</time></trkpt><trkpt lat="53.24521" lon="-1.9418267"><ele>374.6</ele><time>2026-05-03T17:54:53.782Z</time></trkpt><trkpt lat="53.2452" lon="-1.9419833"><ele>375.0</ele><time>2026-05-03T17:54:54.785Z</time></trkpt><trkpt lat="53.2451917" lon="-1.9421733"><ele>375.75</ele><time>2026-05-03T17:54:55.784Z</time></trkpt><trkpt lat="53.2451817" lon="-1.942365"><ele>376.5</ele><time>2026-05-03T17:54:56.783Z</time></trkpt><trkpt lat="53.2451733" lon="-1.942555"><ele>377.25</ele><time>2026-05-03T17:54:57.782Z</time></trkpt><trkpt lat="53.2451667" lon="-1.942745"><ele>378.0</ele><time>2026-05-03T17:54:58.783Z</time></trkpt><trkpt lat="53.245165" lon="-1.942935"><ele>379.25</ele><time>2026-05-03T17:54:59.784Z</time></trkpt><trkpt lat="53.2451817" lon="-1.943125"><ele>380.5</ele><time>2026-05-03T17:55:00.786Z</time></trkpt><trkpt lat="53.2452083" lon="-1.9433133"><ele>381.75</ele><time>2026-05-03T17:55:01.783Z</time></trkpt><trkpt lat="53.245235" lon="-1.9434967"><ele>383.0</ele><time>2026-05-03T17:55:02.784Z</time></trkpt><trkpt lat="53.2452667" lon="-1.94368"><ele>384.4</ele><time>2026-05-03T17:55:03.783Z</time></trkpt><trkpt lat="53.2452967" lon="-1.9438517"><ele>385.79999999999995</ele><time>2026-05-03T17:55:04.784Z</time></trkpt><trkpt lat="53.245325" lon="-1.9440183"><ele>387.2</ele><time>2026-05-03T17:55:05.784Z</time></trkpt><trkpt lat="53.2453517" lon="-1.94418"><ele>388.6</ele><time>2026-05-03T17:55:06.783Z</time></trkpt><trkpt lat="53.245375" lon="-1.9443467"><ele>390.0</ele><time>2026-05-03T17:55:07.786Z</time></trkpt><trkpt lat="53.2454" lon="-1.944525"><ele>391.5</ele><time>2026-05-03T17:55:08.785Z</time></trkpt><trkpt lat="53.2454283" lon="-1.944715"><ele>393.0</ele><time>2026-05-03T17:55:09.782Z</time></trkpt><trkpt lat="53.24547" lon="-1.944915"><ele>394.5</ele><time>2026-05-03T17:55:10.784Z</time></trkpt><trkpt lat="53.24551" lon="-1.9451217"><ele>396.0</ele><time>2026-05-03T17:55:11.783Z</time></trkpt><trkpt lat="53.2455617" lon="-1.9453433"><ele>394.33333333333337</ele><time>2026-05-03T17:55:12.785Z</time></trkpt><trkpt lat="53.245615" lon="-1.94557"><ele>392.6666666666667</ele><time>2026-05-03T17:55:13.784Z</time></trkpt><trkpt lat="53.24567" lon="-1.945805"><ele>391.0</ele><time>2026-05-03T17:55:14.784Z</time></trkpt><trkpt lat="53.2457267" lon="-1.946045"><ele>391.0</ele><time>2026-05-03T17:55:15.784Z</time></trkpt><trkpt lat="53.245785" lon="-1.9462933"><ele>391.0</ele><time>2026-05-03T17:55:16.785Z</time></trkpt><trkpt lat="53.24584" lon="-1.9465417"><ele>391.0</ele><time>2026-05-03T17:55:17.784Z</time></trkpt><trkpt lat="53.24589" lon="-1.946785"><ele>393.33333333333337</ele><time>2026-05-03T17:55:18.784Z</time></trkpt><trkpt lat="53.2459267" lon="-1.94703"><ele>395.66666666666663</ele><time>2026-05-03T17:55:19.784Z</time></trkpt><trkpt lat="53.2459467" lon="-1.9472833"><ele>398.0</ele><time>2026-05-03T17:55:20.784Z</time></trkpt><trkpt lat="53.245955" lon="-1.94755"><ele>399.3333333333333</ele><time>2026-05-03T17:55:21.784Z</time></trkpt><trkpt lat="53.2459517" lon="-1.9478317"><ele>400.66666666666663</ele><time>2026-05-03T17:55:22.782Z</time></trkpt><trkpt lat="53.2459433" lon="-1.9481183"><ele>402.0</ele><time>2026-05-03T17:55:23.784Z</time></trkpt><trkpt lat="53.2459267" lon="-1.9484033"><ele>402.66666666666663</ele><time>2026-05-03T17:55:24.782Z</time></trkpt><trkpt lat="53.2459083" lon="-1.94869"><ele>403.3333333333333</ele><time>2026-05-03T17:55:25.783Z</time></trkpt><trkpt lat="53.2458933" lon="-1.9489783"><ele>404.0</ele><time>2026-05-03T17:55:26.783Z</time></trkpt><trkpt lat="53.2458867" lon="-1.94927"><ele>403.66666666666663</ele><time>2026-05-03T17:55:27.783Z</time></trkpt><trkpt lat="53.24589" lon="-1.94956"><ele>403.33333333333337</ele><time>2026-05-03T17:55:28.784Z</time></trkpt><trkpt lat="53.2459017" lon="-1.9498483"><ele>403.0</ele><time>2026-05-03T17:55:29.784Z</time></trkpt><trkpt lat="53.245915" lon="-1.950125"><ele>403.0</ele><time>2026-05-03T17:55:30.784Z</time></trkpt><trkpt lat="53.245915" lon="-1.9503683"><ele>403.0</ele><time>2026-05-03T17:55:31.783Z</time></trkpt><trkpt lat="53.2459067" lon="-1.9505883"><ele>403.0</ele><time>2026-05-03T17:55:32.784Z</time></trkpt><trkpt lat="53.245875" lon="-1.9507833"><ele>403.0</ele><time>2026-05-03T17:55:33.783Z</time></trkpt><trkpt lat="53.2458233" lon="-1.95096"><ele>402.25</ele><time>2026-05-03T17:55:34.783Z</time></trkpt><trkpt lat="53.2457333" lon="-1.9511133"><ele>401.5</ele><time>2026-05-03T17:55:35.786Z</time></trkpt><trkpt lat="53.2456033" lon="-1.951235"><ele>400.75</ele><time>2026-05-03T17:55:36.783Z</time></trkpt><trkpt lat="53.2454533" lon="-1.9513417"><ele>400.0</ele><time>2026-05-03T17:55:37.785Z</time></trkpt><trkpt lat="53.2452933" lon="-1.9514467"><ele>404.0</ele><time>2026-05-03T17:55:38.783Z</time></trkpt><trkpt lat="53.2451317" lon="-1.9515533"><ele>408.0</ele><time>2026-05-03T17:55:39.783Z</time></trkpt><trkpt lat="53.2449683" lon="-1.9516617"><ele>412.0</ele><time>2026-05-03T17:55:40.784Z</time></trkpt><trkpt lat="53.2448017" lon="-1.9517733"><ele>413.6666666666667</ele><time>2026-05-03T17:55:41.784Z</time></trkpt><trkpt lat="53.244635" lon="-1.9518883"><ele>415.33333333333337</ele><time>2026-05-03T17:55:42.784Z</time></trkpt><trkpt lat="53.2444767" lon="-1.952005"><ele>417.0</ele><time>2026-05-03T17:55:43.784Z</time></trkpt><trkpt lat="53.2443283" lon="-1.9521183"><ele>417.0</ele><time>2026-05-03T17:55:44.783Z</time></trkpt><trkpt lat="53.2441883" lon="-1.9522183"><ele>417.0</ele><time>2026-05-03T17:55:45.781Z</time></trkpt><trkpt lat="53.2440583" lon="-1.952305"><ele>417.0</ele><time>2026-05-03T17:55:46.784Z</time></trkpt><trkpt lat="53.243935" lon="-1.9523683"><ele>417.0</ele><time>2026-05-03T17:55:47.784Z</time></trkpt><trkpt lat="53.2438167" lon="-1.9523817"><ele>419.25</ele><time>2026-05-03T17:55:48.785Z</time></trkpt><trkpt lat="53.243695" lon="-1.9523483"><ele>421.5</ele><time>2026-05-03T17:55:49.784Z</time></trkpt><trkpt lat="53.2435733" lon="-1.9522717"><ele>423.75</ele><time>2026-05-03T17:55:50.783Z</time></trkpt><trkpt lat="53.243445" lon="-1.9521733"><ele>426.0</ele><time>2026-05-03T17:55:51.783Z</time></trkpt><trkpt lat="53.243305" lon="-1.9520933"><ele>426.0</ele><time>2026-05-03T17:55:52.784Z</time></trkpt><trkpt lat="53.24316" lon="-1.9520483"><ele>426.0</ele><time>2026-05-03T17:55:53.782Z</time></trkpt><trkpt lat="53.2430133" lon="-1.952055"><ele>426.0</ele><time>2026-05-03T17:55:54.786Z</time></trkpt><trkpt lat="53.2428717" lon="-1.9521"><ele>426.0</ele><time>2026-05-03T17:55:55.783Z</time></trkpt><trkpt lat="53.2427367" lon="-1.952155"><ele>427.75</ele><time>2026-05-03T17:55:56.783Z</time></trkpt><trkpt lat="53.2426083" lon="-1.9522083"><ele>429.5</ele><time>2026-05-03T17:55:57.783Z</time></trkpt><trkpt lat="53.2424817" lon="-1.9522433"><ele>431.25</ele><time>2026-05-03T17:55:58.783Z</time></trkpt><trkpt lat="53.2423517" lon="-1.9522533"><ele>433.0</ele><time>2026-05-03T17:55:59.783Z</time></trkpt><trkpt lat="53.242225" lon="-1.9522367"><ele>433.0</ele><time>2026-05-03T17:56:00.787Z</time></trkpt><trkpt lat="53.2421" lon="-1.952185"><ele>433.0</ele><time>2026-05-03T17:56:01.782Z</time></trkpt><trkpt lat="53.24198" lon="-1.9521"><ele>433.0</ele><time>2026-05-03T17:56:02.782Z</time></trkpt><trkpt lat="53.2418733" lon="-1.9519883"><ele>433.0</ele><time>2026-05-03T17:56:03.784Z</time></trkpt><trkpt lat="53.2417883" lon="-1.9518683"><ele>433.0</ele><time>2026-05-03T17:56:04.783Z</time></trkpt><trkpt lat="53.2417233" lon="-1.951735"><ele>432.99999999999994</ele><time>2026-05-03T17:56:05.784Z</time></trkpt><trkpt lat="53.2416783" lon="-1.95158"><ele>432.99999999999994</ele><time>2026-05-03T17:56:06.783Z</time></trkpt><trkpt lat="53.24166" lon="-1.95139"><ele>433.0</ele><time>2026-05-03T17:56:07.782Z</time></trkpt><trkpt lat="53.2416467" lon="-1.9512067"><ele>433.0</ele><time>2026-05-03T17:56:08.783Z</time></trkpt><trkpt lat="53.241625" lon="-1.9510283"><ele>434.5</ele><time>2026-05-03T17:56:09.783Z</time></trkpt><trkpt lat="53.241585" lon="-1.9508517"><ele>436.0</ele><time>2026-05-03T17:56:10.785Z</time></trkpt><trkpt lat="53.24153" lon="-1.9506733"><ele>437.5</ele><time>2026-05-03T17:56:11.784Z</time></trkpt><trkpt lat="53.2414633" lon="-1.9505167"><ele>439.0</ele><time>2026-05-03T17:56:12.787Z</time></trkpt><trkpt lat="53.241385" lon="-1.95038"><ele>439.75</ele><time>2026-05-03T17:56:13.783Z</time></trkpt><trkpt lat="53.241295" lon="-1.9502533"><ele>440.5</ele><time>2026-05-03T17:56:14.783Z</time></trkpt><trkpt lat="53.2412033" lon="-1.95013"><ele>441.25</ele><time>2026-05-03T17:56:15.782Z</time></trkpt><trkpt lat="53.24111" lon="-1.9500217"><ele>442.0</ele><time>2026-05-03T17:56:16.782Z</time></trkpt><trkpt lat="53.2410117" lon="-1.9499467"><ele>442.75</ele><time>2026-05-03T17:56:17.782Z</time></trkpt><trkpt lat="53.2409033" lon="-1.9499167"><ele>443.5</ele><time>2026-05-03T17:56:18.784Z</time></trkpt><trkpt lat="53.24079" lon="-1.9499383"><ele>444.25</ele><time>2026-05-03T17:56:19.783Z</time></trkpt><trkpt lat="53.2406767" lon="-1.95001"><ele>445.0</ele><time>2026-05-03T17:56:20.783Z</time></trkpt><trkpt lat="53.240555" lon="-1.9501283"><ele>446.5</ele><time>2026-05-03T17:56:21.783Z</time></trkpt><trkpt lat="53.2404383" lon="-1.9502667"><ele>448.0</ele><time>2026-05-03T17:56:22.786Z</time></trkpt><trkpt lat="53.2403167" lon="-1.9504117"><ele>449.5</ele><time>2026-05-03T17:56:23.782Z</time></trkpt><trkpt lat="53.240195" lon="-1.9505667"><ele>451.0</ele><time>2026-05-03T17:56:24.785Z</time></trkpt><trkpt lat="53.24007" lon="-1.950735"><ele>450.0</ele><time>2026-05-03T17:56:25.783Z</time></trkpt><trkpt lat="53.23995" lon="-1.950905"><ele>449.0</ele><time>2026-05-03T17:56:26.786Z</time></trkpt><trkpt lat="53.239835" lon="-1.951075"><ele>448.0</ele><time>2026-05-03T17:56:27.783Z</time></trkpt><trkpt lat="53.2397183" lon="-1.951245"><ele>451.33333333333337</ele><time>2026-05-03T17:56:28.783Z</time></trkpt><trkpt lat="53.2396" lon="-1.9514233"><ele>454.66666666666663</ele><time>2026-05-03T17:56:29.783Z</time></trkpt><trkpt lat="53.2394833" lon="-1.951605"><ele>458.0</ele><time>2026-05-03T17:56:30.784Z</time></trkpt><trkpt lat="53.23937" lon="-1.951785"><ele>458.0</ele><time>2026-05-03T17:56:31.784Z</time></trkpt><trkpt lat="53.2392667" lon="-1.95195"><ele>458.0</ele><time>2026-05-03T17:56:32.786Z</time></trkpt><trkpt lat="53.2391783" lon="-1.952115"><ele>458.0</ele><time>2026-05-03T17:56:33.782Z</time></trkpt><trkpt lat="53.2391" lon="-1.952285"><ele>458.0</ele><time>2026-05-03T17:56:34.784Z</time></trkpt><trkpt lat="53.239035" lon="-1.9524717"><ele>458.0</ele><time>2026-05-03T17:56:35.783Z</time></trkpt><trkpt lat="53.2389933" lon="-1.9526783"><ele>458.0</ele><time>2026-05-03T17:56:36.783Z</time></trkpt><trkpt lat="53.23898" lon="-1.95292"><ele>458.0</ele><time>2026-05-03T17:56:37.786Z</time></trkpt><trkpt lat="53.23899" lon="-1.9531967"><ele>458.0</ele><time>2026-05-03T17:56:38.787Z</time></trkpt><trkpt lat="53.2390067" lon="-1.95348"><ele>459.66666666666663</ele><time>2026-05-03T17:56:39.783Z</time></trkpt><trkpt lat="53.2390283" lon="-1.9537633"><ele>461.33333333333337</ele><time>2026-05-03T17:56:40.785Z</time></trkpt><trkpt lat="53.2390467" lon="-1.95403"><ele>463.0</ele><time>2026-05-03T17:56:41.784Z</time></trkpt><trkpt lat="53.239065" lon="-1.9542967"><ele>464.0</ele><time>2026-05-03T17:56:42.785Z</time></trkpt><trkpt lat="53.2390833" lon="-1.9545667"><ele>465.0</ele><time>2026-05-03T17:56:43.786Z</time></trkpt><trkpt lat="53.2390983" lon="-1.9548417"><ele>466.0</ele><time>2026-05-03T17:56:44.786Z</time></trkpt><trkpt lat="53.2391033" lon="-1.9551067"><ele>466.33333333333337</ele><time>2026-05-03T17:56:45.785Z</time></trkpt><trkpt lat="53.2390883" lon="-1.9553617"><ele>466.66666666666663</ele><time>2026-05-03T17:56:46.784Z</time></trkpt><trkpt lat="53.23905" lon="-1.95562"><ele>467.0</ele><time>2026-05-03T17:56:47.785Z</time></trkpt><trkpt lat="53.2389983" lon="-1.95588"><ele>470.66666666666663</ele><time>2026-05-03T17:56:48.785Z</time></trkpt><trkpt lat="53.2389367" lon="-1.956135"><ele>474.33333333333337</ele><time>2026-05-03T17:56:49.786Z</time></trkpt><trkpt lat="53.2388767" lon="-1.9563917"><ele>478.0</ele><time>2026-05-03T17:56:50.784Z</time></trkpt><trkpt lat="53.2388183" lon="-1.9566517"><ele>478.6666666666667</ele><time>2026-05-03T17:56:51.786Z</time></trkpt><trkpt lat="53.2387817" lon="-1.956915"><ele>479.33333333333337</ele><time>2026-05-03T17:56:52.791Z</time></trkpt><trkpt lat="53.238775" lon="-1.9571833"><ele>480.0</ele><time>2026-05-03T17:56:53.786Z</time></trkpt><trkpt lat="53.2387933" lon="-1.9574483"><ele>481.66666666666663</ele><time>2026-05-03T17:56:54.784Z</time></trkpt><trkpt lat="53.23883" lon="-1.9577167"><ele>483.3333333333333</ele><time>2026-05-03T17:56:55.784Z</time></trkpt><trkpt lat="53.2388917" lon="-1.9579733"><ele>485.0</ele><time>2026-05-03T17:56:56.783Z</time></trkpt><trkpt lat="53.2389633" lon="-1.9582067"><ele>484.5</ele><time>2026-05-03T17:56:57.784Z</time></trkpt><trkpt lat="53.2390367" lon="-1.9584267"><ele>484.0</ele><time>2026-05-03T17:56:58.783Z</time></trkpt><trkpt lat="53.2391083" lon="-1.9586433"><ele>483.5</ele><time>2026-05-03T17:56:59.785Z</time></trkpt><trkpt lat="53.23917" lon="-1.9588667"><ele>483.0</ele><time>2026-05-03T17:57:00.783Z</time></trkpt><trkpt lat="53.239215" lon="-1.9590967"><ele>484.25</ele><time>2026-05-03T17:57:01.782Z</time></trkpt><trkpt lat="53.239245" lon="-1.9593333"><ele>485.5</ele><time>2026-05-03T17:57:02.782Z</time></trkpt><trkpt lat="53.239255" lon="-1.9595733"><ele>486.75</ele><time>2026-05-03T17:57:03.783Z</time></trkpt><trkpt lat="53.2392483" lon="-1.9598117"><ele>488.0</ele><time>2026-05-03T17:57:04.784Z</time></trkpt><trkpt lat="53.2392167" lon="-1.9600433"><ele>489.0</ele><time>2026-05-03T17:57:05.784Z</time></trkpt><trkpt lat="53.23916" lon="-1.9602683"><ele>490.0</ele><time>2026-05-03T17:57:06.787Z</time></trkpt><trkpt lat="53.23908" lon="-1.9604917"><ele>491.0</ele><time>2026-05-03T17:57:07.784Z</time></trkpt><trkpt lat="53.2389867" lon="-1.96071"><ele>492.3333333333333</ele><time>2026-05-03T17:57:08.785Z</time></trkpt><trkpt lat="53.2388917" lon="-1.96093"><ele>493.66666666666663</ele><time>2026-05-03T17:57:09.784Z</time></trkpt><trkpt lat="53.2388117" lon="-1.9611633"><ele>495.0</ele><time>2026-05-03T17:57:10.787Z</time></trkpt><trkpt lat="53.2387417" lon="-1.9614083"><ele>495.0</ele><time>2026-05-03T17:57:11.783Z</time></trkpt><trkpt lat="53.23868" lon="-1.9616567"><ele>495.0</ele><time>2026-05-03T17:57:12.783Z</time></trkpt><trkpt lat="53.238625" lon="-1.9619"><ele>495.0</ele><time>2026-05-03T17:57:13.785Z</time></trkpt><trkpt lat="53.2385767" lon="-1.9621283"><ele>495.25</ele><time>2026-05-03T17:57:14.784Z</time></trkpt><trkpt lat="53.2385317" lon="-1.9623483"><ele>495.5</ele><time>2026-05-03T17:57:15.783Z</time></trkpt><trkpt lat="53.2384833" lon="-1.9625633"><ele>495.75</ele><time>2026-05-03T17:57:16.784Z</time></trkpt><trkpt lat="53.23844" lon="-1.96278"><ele>496.0</ele><time>2026-05-03T17:57:17.782Z</time></trkpt><trkpt lat="53.23839" lon="-1.9629967"><ele>495.33333333333337</ele><time>2026-05-03T17:57:18.784Z</time></trkpt><trkpt lat="53.2383333" lon="-1.9632217"><ele>494.66666666666663</ele><time>2026-05-03T17:57:19.782Z</time></trkpt><trkpt lat="53.23827" lon="-1.96346"><ele>494.0</ele><time>2026-05-03T17:57:20.784Z</time></trkpt><trkpt lat="53.2382017" lon="-1.96371"><ele>494.3333333333333</ele><time>2026-05-03T17:57:21.783Z</time></trkpt><trkpt lat="53.2381317" lon="-1.96396"><ele>494.66666666666663</ele><time>2026-05-03T17:57:22.783Z</time></trkpt><trkpt lat="53.2380567" lon="-1.9642083"><ele>495.0</ele><time>2026-05-03T17:57:23.784Z</time></trkpt><trkpt lat="53.2379767" lon="-1.9644583"><ele>493.0</ele><time>2026-05-03T17:57:24.783Z</time></trkpt><trkpt lat="53.2378917" lon="-1.9647167"><ele>491.0</ele><time>2026-05-03T17:57:25.782Z</time></trkpt><trkpt lat="53.2378017" lon="-1.9649833"><ele>489.0</ele><time>2026-05-03T17:57:26.783Z</time></trkpt><trkpt lat="53.2377167" lon="-1.9652483"><ele>487.66666666666663</ele><time>2026-05-03T17:57:27.783Z</time></trkpt><trkpt lat="53.2376267" lon="-1.9655133"><ele>486.3333333333333</ele><time>2026-05-03T17:57:28.784Z</time></trkpt><trkpt lat="53.237535" lon="-1.9657783"><ele>485.0</ele><time>2026-05-03T17:57:29.784Z</time></trkpt><trkpt lat="53.2374417" lon="-1.9660317"><ele>484.66666666666663</ele><time>2026-05-03T17:57:30.787Z</time></trkpt><trkpt lat="53.237345" lon="-1.9662833"><ele>484.33333333333337</ele><time>2026-05-03T17:57:31.784Z</time></trkpt><trkpt lat="53.2372517" lon="-1.9665333"><ele>484.0</ele><time>2026-05-03T17:57:32.784Z</time></trkpt><trkpt lat="53.2371617" lon="-1.9667867"><ele>483.33333333333337</ele><time>2026-05-03T17:57:33.784Z</time></trkpt><trkpt lat="53.2370717" lon="-1.9670417"><ele>482.66666666666663</ele><time>2026-05-03T17:57:34.784Z</time></trkpt><trkpt lat="53.2369783" lon="-1.9673033"><ele>482.0</ele><time>2026-05-03T17:57:35.785Z</time></trkpt><trkpt lat="53.236875" lon="-1.96756"><ele>481.3333333333333</ele><time>2026-05-03T17:57:36.786Z</time></trkpt><trkpt lat="53.23676" lon="-1.9678067"><ele>480.66666666666663</ele><time>2026-05-03T17:57:37.784Z</time></trkpt><trkpt lat="53.2366417" lon="-1.9680567"><ele>480.0</ele><time>2026-05-03T17:57:38.785Z</time></trkpt><trkpt lat="53.2365167" lon="-1.9683133"><ele>478.33333333333337</ele><time>2026-05-03T17:57:39.784Z</time></trkpt><trkpt lat="53.2363917" lon="-1.968575"><ele>476.6666666666667</ele><time>2026-05-03T17:57:40.783Z</time></trkpt><trkpt lat="53.2362667" lon="-1.9688417"><ele>475.0</ele><time>2026-05-03T17:57:41.783Z</time></trkpt><trkpt lat="53.2361467" lon="-1.9691033"><ele>474.33333333333337</ele><time>2026-05-03T17:57:42.785Z</time></trkpt><trkpt lat="53.2360267" lon="-1.9693683"><ele>473.66666666666663</ele><time>2026-05-03T17:57:43.784Z</time></trkpt><trkpt lat="53.2359067" lon="-1.9696283"><ele>473.0</ele><time>2026-05-03T17:57:44.784Z</time></trkpt><trkpt lat="53.23579" lon="-1.9698783"><ele>472.66666666666663</ele><time>2026-05-03T17:57:45.784Z</time></trkpt><trkpt lat="53.2356733" lon="-1.970125"><ele>472.33333333333337</ele><time>2026-05-03T17:57:46.784Z</time></trkpt><trkpt lat="53.2355583" lon="-1.970375"><ele>472.0</ele><time>2026-05-03T17:57:47.784Z</time></trkpt><trkpt lat="53.2354383" lon="-1.97063"><ele>471.0</ele><time>2026-05-03T17:57:48.784Z</time></trkpt><trkpt lat="53.2353167" lon="-1.9708917"><ele>470.0</ele><time>2026-05-03T17:57:49.784Z</time></trkpt><trkpt lat="53.2351933" lon="-1.97116"><ele>469.0</ele><time>2026-05-03T17:57:50.783Z</time></trkpt><trkpt lat="53.2350717" lon="-1.9714267"><ele>469.0</ele><time>2026-05-03T17:57:51.783Z</time></trkpt><trkpt lat="53.23495" lon="-1.97169"><ele>469.0</ele><time>2026-05-03T17:57:52.783Z</time></trkpt><trkpt lat="53.2348267" lon="-1.9719533"><ele>469.0</ele><time>2026-05-03T17:57:53.783Z</time></trkpt><trkpt lat="53.2347" lon="-1.9722217"><ele>468.6666666666667</ele><time>2026-05-03T17:57:54.783Z</time></trkpt><trkpt lat="53.2345733" lon="-1.97249"><ele>468.33333333333337</ele><time>2026-05-03T17:57:55.784Z</time></trkpt><trkpt lat="53.2344483" lon="-1.9727617"><ele>468.0</ele><time>2026-05-03T17:57:56.784Z</time></trkpt><trkpt lat="53.2343217" lon="-1.9730333"><ele>468.0</ele><time>2026-05-03T17:57:57.783Z</time></trkpt><trkpt lat="53.2341967" lon="-1.973305"><ele>468.0</ele><time>2026-05-03T17:57:58.783Z</time></trkpt><trkpt lat="53.23407" lon="-1.973575"><ele>468.0</ele><time>2026-05-03T17:57:59.784Z</time></trkpt><trkpt lat="53.2339433" lon="-1.9738467"><ele>467.33333333333337</ele><time>2026-05-03T17:58:00.783Z</time></trkpt><trkpt lat="53.2338167" lon="-1.9741183"><ele>466.6666666666667</ele><time>2026-05-03T17:58:01.783Z</time></trkpt><trkpt lat="53.2336883" lon="-1.97439"><ele>466.0</ele><time>2026-05-03T17:58:02.784Z</time></trkpt><trkpt lat="53.23356" lon="-1.9746617"><ele>466.0</ele><time>2026-05-03T17:58:03.783Z</time></trkpt><trkpt lat="53.2334283" lon="-1.9749367"><ele>466.0</ele><time>2026-05-03T17:58:04.782Z</time></trkpt><trkpt lat="53.2332933" lon="-1.9752117"><ele>466.0</ele><time>2026-05-03T17:58:05.783Z</time></trkpt><trkpt lat="53.23316" lon="-1.9754883"><ele>465.33333333333337</ele><time>2026-05-03T17:58:06.782Z</time></trkpt><trkpt lat="53.23303" lon="-1.9757633"><ele>464.66666666666663</ele><time>2026-05-03T17:58:07.784Z</time></trkpt><trkpt lat="53.2328967" lon="-1.9760383"><ele>464.0</ele><time>2026-05-03T17:58:08.782Z</time></trkpt><trkpt lat="53.232765" lon="-1.9763033"><ele>468.0</ele><time>2026-05-03T17:58:09.785Z</time></trkpt><trkpt lat="53.232095" lon="-1.9775783"><ele>468.0</ele><time>2026-05-03T17:58:15.366Z</time></trkpt><trkpt lat="53.2317917" lon="-1.9781183"><ele>468.0</ele><time>2026-05-03T17:58:17.782Z</time></trkpt><trkpt lat="53.231665" lon="-1.978365"><ele>468.66666666666663</ele><time>2026-05-03T17:58:18.782Z</time></trkpt><trkpt lat="53.231535" lon="-1.978615"><ele>469.3333333333333</ele><time>2026-05-03T17:58:19.783Z</time></trkpt><trkpt lat="53.2314117" lon="-1.9788367"><ele>470.0</ele><time>2026-05-03T17:58:20.782Z</time></trkpt><trkpt lat="53.2312967" lon="-1.9790567"><ele>470.66666666666663</ele><time>2026-05-03T17:58:21.783Z</time></trkpt><trkpt lat="53.23119" lon="-1.9792633"><ele>471.33333333333337</ele><time>2026-05-03T17:58:22.784Z</time></trkpt><trkpt lat="53.231085" lon="-1.9794667"><ele>472.0</ele><time>2026-05-03T17:58:23.784Z</time></trkpt><trkpt lat="53.23098" lon="-1.97967"><ele>472.0</ele><time>2026-05-03T17:58:24.784Z</time></trkpt><trkpt lat="53.230875" lon="-1.9798783"><ele>472.0</ele><time>2026-05-03T17:58:25.784Z</time></trkpt><trkpt lat="53.23077" lon="-1.9800967"><ele>472.0</ele><time>2026-05-03T17:58:26.784Z</time></trkpt><trkpt lat="53.2306633" lon="-1.980325"><ele>470.6666666666667</ele><time>2026-05-03T17:58:27.782Z</time></trkpt><trkpt lat="53.2305567" lon="-1.9805617"><ele>469.33333333333337</ele><time>2026-05-03T17:58:28.784Z</time></trkpt><trkpt lat="53.2304517" lon="-1.98081"><ele>468.0</ele><time>2026-05-03T17:58:29.784Z</time></trkpt><trkpt lat="53.2303483" lon="-1.9810667"><ele>468.0</ele><time>2026-05-03T17:58:30.783Z</time></trkpt><trkpt lat="53.23025" lon="-1.9813333"><ele>468.0</ele><time>2026-05-03T17:58:31.783Z</time></trkpt><trkpt lat="53.23016" lon="-1.9816067"><ele>468.0</ele><time>2026-05-03T17:58:32.784Z</time></trkpt><trkpt lat="53.2300783" lon="-1.98189"><ele>468.66666666666663</ele><time>2026-05-03T17:58:33.783Z</time></trkpt><trkpt lat="53.2299983" lon="-1.9821767"><ele>469.3333333333333</ele><time>2026-05-03T17:58:34.783Z</time></trkpt><trkpt lat="53.2299183" lon="-1.98246"><ele>470.0</ele><time>2026-05-03T17:58:35.785Z</time></trkpt><trkpt lat="53.2298317" lon="-1.9827417"><ele>468.3333333333333</ele><time>2026-05-03T17:58:36.784Z</time></trkpt><trkpt lat="53.2297383" lon="-1.983015"><ele>466.66666666666663</ele><time>2026-05-03T17:58:37.785Z</time></trkpt><trkpt lat="53.2296417" lon="-1.983275"><ele>465.0</ele><time>2026-05-03T17:58:38.786Z</time></trkpt><trkpt lat="53.2295383" lon="-1.98353"><ele>465.0</ele><time>2026-05-03T17:58:39.784Z</time></trkpt><trkpt lat="53.229435" lon="-1.9837817"><ele>465.0</ele><time>2026-05-03T17:58:40.782Z</time></trkpt><trkpt lat="53.229325" lon="-1.984025"><ele>465.0</ele><time>2026-05-03T17:58:41.784Z</time></trkpt><trkpt lat="53.2292033" lon="-1.9842633"><ele>465.33333333333337</ele><time>2026-05-03T17:58:42.783Z</time></trkpt><trkpt lat="53.2290667" lon="-1.98448"><ele>465.6666666666667</ele><time>2026-05-03T17:58:43.784Z</time></trkpt><trkpt lat="53.2289167" lon="-1.98468"><ele>466.0</ele><time>2026-05-03T17:58:44.784Z</time></trkpt><trkpt lat="53.228755" lon="-1.9848683"><ele>468.0</ele><time>2026-05-03T17:58:45.783Z</time></trkpt><trkpt lat="53.2285817" lon="-1.9850483"><ele>470.0</ele><time>2026-05-03T17:58:46.784Z</time></trkpt><trkpt lat="53.2284117" lon="-1.9852167"><ele>472.0</ele><time>2026-05-03T17:58:47.785Z</time></trkpt><trkpt lat="53.22825" lon="-1.9853667"><ele>470.33333333333337</ele><time>2026-05-03T17:58:48.783Z</time></trkpt><trkpt lat="53.2280933" lon="-1.9855167"><ele>468.66666666666663</ele><time>2026-05-03T17:58:49.784Z</time></trkpt><trkpt lat="53.227945" lon="-1.9856683"><ele>467.0</ele><time>2026-05-03T17:58:50.784Z</time></trkpt><trkpt lat="53.2277967" lon="-1.9858333"><ele>469.0</ele><time>2026-05-03T17:58:51.783Z</time></trkpt><trkpt lat="53.2276533" lon="-1.9860133"><ele>471.0</ele><time>2026-05-03T17:58:52.783Z</time></trkpt><trkpt lat="53.2275133" lon="-1.986195"><ele>473.0</ele><time>2026-05-03T17:58:53.784Z</time></trkpt><trkpt lat="53.2273683" lon="-1.9863817"><ele>468.0</ele><time>2026-05-03T17:58:54.784Z</time></trkpt><trkpt lat="53.2272267" lon="-1.9865617"><ele>463.0</ele><time>2026-05-03T17:58:55.784Z</time></trkpt><trkpt lat="53.227095" lon="-1.9867333"><ele>458.0</ele><time>2026-05-03T17:58:56.782Z</time></trkpt><trkpt lat="53.2269817" lon="-1.98689"><ele>458.0</ele><time>2026-05-03T17:58:57.783Z</time></trkpt><trkpt lat="53.22688" lon="-1.9870483"><ele>458.0</ele><time>2026-05-03T17:58:58.784Z</time></trkpt><trkpt lat="53.2267967" lon="-1.9872367"><ele>458.0</ele><time>2026-05-03T17:58:59.783Z</time></trkpt><trkpt lat="53.2267233" lon="-1.987455"><ele>458.0</ele><time>2026-05-03T17:59:00.783Z</time></trkpt><trkpt lat="53.2266533" lon="-1.9877033"><ele>460.0</ele><time>2026-05-03T17:59:01.784Z</time></trkpt><trkpt lat="53.226585" lon="-1.9879633"><ele>462.0</ele><time>2026-05-03T17:59:02.784Z</time></trkpt><trkpt lat="53.22651" lon="-1.9882217"><ele>464.0</ele><time>2026-05-03T17:59:03.782Z</time></trkpt><trkpt lat="53.2264167" lon="-1.9884833"><ele>461.0</ele><time>2026-05-03T17:59:04.782Z</time></trkpt><trkpt lat="53.226315" lon="-1.988745"><ele>458.0</ele><time>2026-05-03T17:59:05.783Z</time></trkpt><trkpt lat="53.2262" lon="-1.9889983"><ele>455.0</ele><time>2026-05-03T17:59:06.782Z</time></trkpt><trkpt lat="53.226075" lon="-1.9892433"><ele>455.0</ele><time>2026-05-03T17:59:07.784Z</time></trkpt><trkpt lat="53.2259467" lon="-1.989475"><ele>455.0</ele><time>2026-05-03T17:59:08.785Z</time></trkpt><trkpt lat="53.2258117" lon="-1.9897"><ele>455.0</ele><time>2026-05-03T17:59:09.782Z</time></trkpt><trkpt lat="53.22567" lon="-1.9899217"><ele>452.0</ele><time>2026-05-03T17:59:10.783Z</time></trkpt><trkpt lat="53.2255217" lon="-1.9901367"><ele>449.0</ele><time>2026-05-03T17:59:11.784Z</time></trkpt><trkpt lat="53.2253717" lon="-1.9903517"><ele>446.0</ele><time>2026-05-03T17:59:12.784Z</time></trkpt><trkpt lat="53.22522" lon="-1.9905717"><ele>446.0</ele><time>2026-05-03T17:59:13.784Z</time></trkpt><trkpt lat="53.2250667" lon="-1.9907917"><ele>446.0</ele><time>2026-05-03T17:59:14.782Z</time></trkpt><trkpt lat="53.2249083" lon="-1.99101"><ele>446.0</ele><time>2026-05-03T17:59:15.783Z</time></trkpt><trkpt lat="53.2247533" lon="-1.991215"><ele>445.3333333333333</ele><time>2026-05-03T17:59:16.783Z</time></trkpt><trkpt lat="53.2246067" lon="-1.9913983"><ele>444.66666666666663</ele><time>2026-05-03T17:59:17.783Z</time></trkpt><trkpt lat="53.22447" lon="-1.991565"><ele>444.0</ele><time>2026-05-03T17:59:18.783Z</time></trkpt><trkpt lat="53.2243433" lon="-1.9917167"><ele>444.33333333333337</ele><time>2026-05-03T17:59:19.785Z</time></trkpt><trkpt lat="53.22422" lon="-1.9918583"><ele>444.6666666666667</ele><time>2026-05-03T17:59:20.784Z</time></trkpt><trkpt lat="53.2240783" lon="-1.992005"><ele>445.0</ele><time>2026-05-03T17:59:21.784Z</time></trkpt><trkpt lat="53.2239267" lon="-1.9921467"><ele>445.0</ele><time>2026-05-03T17:59:22.784Z</time></trkpt><trkpt lat="53.2237567" lon="-1.992285"><ele>445.0</ele><time>2026-05-03T17:59:23.783Z</time></trkpt><trkpt lat="53.2235783" lon="-1.9924117"><ele>445.0</ele><time>2026-05-03T17:59:24.783Z</time></trkpt><trkpt lat="53.223395" lon="-1.9925367"><ele>445.0</ele><time>2026-05-03T17:59:25.784Z</time></trkpt><trkpt lat="53.2232133" lon="-1.9926633"><ele>445.0</ele><time>2026-05-03T17:59:26.783Z</time></trkpt><trkpt lat="53.2230333" lon="-1.9927883"><ele>445.0</ele><time>2026-05-03T17:59:27.783Z</time></trkpt><trkpt lat="53.2228633" lon="-1.99291"><ele>445.0</ele><time>2026-05-03T17:59:28.783Z</time></trkpt><trkpt lat="53.222695" lon="-1.9930317"><ele>445.0</ele><time>2026-05-03T17:59:29.784Z</time></trkpt><trkpt lat="53.2225233" lon="-1.9931533"><ele>445.0</ele><time>2026-05-03T17:59:30.784Z</time></trkpt><trkpt lat="53.2223483" lon="-1.9932783"><ele>447.0</ele><time>2026-05-03T17:59:31.785Z</time></trkpt><trkpt lat="53.22218" lon="-1.9934017"><ele>449.0</ele><time>2026-05-03T17:59:32.785Z</time></trkpt><trkpt lat="53.2220183" lon="-1.99352"><ele>451.0</ele><time>2026-05-03T17:59:33.782Z</time></trkpt><trkpt lat="53.2218583" lon="-1.99364"><ele>451.0</ele><time>2026-05-03T17:59:34.787Z</time></trkpt><trkpt lat="53.2217083" lon="-1.9937767"><ele>451.0</ele><time>2026-05-03T17:59:35.784Z</time></trkpt><trkpt lat="53.22156" lon="-1.99394"><ele>451.0</ele><time>2026-05-03T17:59:36.783Z</time></trkpt><trkpt lat="53.2214117" lon="-1.9941217"><ele>450.6666666666667</ele><time>2026-05-03T17:59:37.783Z</time></trkpt><trkpt lat="53.2212683" lon="-1.9943283"><ele>450.33333333333337</ele><time>2026-05-03T17:59:38.783Z</time></trkpt><trkpt lat="53.2211283" lon="-1.99456"><ele>450.0</ele><time>2026-05-03T17:59:39.782Z</time></trkpt><trkpt lat="53.220995" lon="-1.994805"><ele>453.0</ele><time>2026-05-03T17:59:40.784Z</time></trkpt><trkpt lat="53.2208767" lon="-1.99507"><ele>456.0</ele><time>2026-05-03T17:59:41.787Z</time></trkpt><trkpt lat="53.220765" lon="-1.9953433"><ele>459.0</ele><time>2026-05-03T17:59:42.783Z</time></trkpt><trkpt lat="53.2206617" lon="-1.9956183"><ele>455.33333333333337</ele><time>2026-05-03T17:59:43.782Z</time></trkpt><trkpt lat="53.2205667" lon="-1.9958917"><ele>451.6666666666667</ele><time>2026-05-03T17:59:44.782Z</time></trkpt><trkpt lat="53.2204767" lon="-1.9961633"><ele>448.0</ele><time>2026-05-03T17:59:45.783Z</time></trkpt><trkpt lat="53.220395" lon="-1.9964367"><ele>448.6666666666667</ele><time>2026-05-03T17:59:46.782Z</time></trkpt><trkpt lat="53.220325" lon="-1.996715"><ele>449.33333333333337</ele><time>2026-05-03T17:59:47.783Z</time></trkpt><trkpt lat="53.2202567" lon="-1.9969967"><ele>450.0</ele><time>2026-05-03T17:59:48.783Z</time></trkpt><trkpt lat="53.22019" lon="-1.9972933"><ele>450.33333333333337</ele><time>2026-05-03T17:59:49.783Z</time></trkpt><trkpt lat="53.2201233" lon="-1.9976"><ele>450.6666666666667</ele><time>2026-05-03T17:59:50.784Z</time></trkpt><trkpt lat="53.2200533" lon="-1.9979083"><ele>451.0</ele><time>2026-05-03T17:59:51.783Z</time></trkpt><trkpt lat="53.21998" lon="-1.9982217"><ele>450.6666666666667</ele><time>2026-05-03T17:59:52.783Z</time></trkpt><trkpt lat="53.219905" lon="-1.99853"><ele>450.33333333333337</ele><time>2026-05-03T17:59:53.785Z</time></trkpt><trkpt lat="53.2198217" lon="-1.99883"><ele>450.0</ele><time>2026-05-03T17:59:54.784Z</time></trkpt><trkpt lat="53.2197333" lon="-1.9991133"><ele>447.66666666666663</ele><time>2026-05-03T17:59:55.783Z</time></trkpt><trkpt lat="53.21964" lon="-1.999385"><ele>445.3333333333333</ele><time>2026-05-03T17:59:56.783Z</time></trkpt><trkpt lat="53.219545" lon="-1.9996617"><ele>443.0</ele><time>2026-05-03T17:59:57.783Z</time></trkpt><trkpt lat="53.2194383" lon="-1.9999367"><ele>443.0</ele><time>2026-05-03T17:59:58.784Z</time></trkpt><trkpt lat="53.21932" lon="-2.0001983"><ele>443.0</ele><time>2026-05-03T17:59:59.783Z</time></trkpt><trkpt lat="53.2191933" lon="-2.0004483"><ele>443.0</ele><time>2026-05-03T18:00:00.783Z</time></trkpt><trkpt lat="53.2190583" lon="-2.0006833"><ele>442.66666666666663</ele><time>2026-05-03T18:00:01.784Z</time></trkpt><trkpt lat="53.2189217" lon="-2.0009067"><ele>442.33333333333337</ele><time>2026-05-03T18:00:02.783Z</time></trkpt><trkpt lat="53.2187833" lon="-2.0011183"><ele>442.0</ele><time>2026-05-03T18:00:03.784Z</time></trkpt><trkpt lat="53.2186317" lon="-2.0013117"><ele>442.0</ele><time>2026-05-03T18:00:04.783Z</time></trkpt><trkpt lat="53.2184683" lon="-2.0014783"><ele>442.0</ele><time>2026-05-03T18:00:05.783Z</time></trkpt><trkpt lat="53.2182983" lon="-2.001615"><ele>442.0</ele><time>2026-05-03T18:00:06.783Z</time></trkpt><trkpt lat="53.2181217" lon="-2.0017233"><ele>443.6666666666667</ele><time>2026-05-03T18:00:07.783Z</time></trkpt><trkpt lat="53.21795" lon="-2.0018217"><ele>445.33333333333337</ele><time>2026-05-03T18:00:08.783Z</time></trkpt><trkpt lat="53.2177767" lon="-2.0019117"><ele>447.0</ele><time>2026-05-03T18:00:09.782Z</time></trkpt><trkpt lat="53.2176017" lon="-2.0019983"><ele>447.0</ele><time>2026-05-03T18:00:10.783Z</time></trkpt><trkpt lat="53.217425" lon="-2.0020933"><ele>447.0</ele><time>2026-05-03T18:00:11.783Z</time></trkpt><trkpt lat="53.2172483" lon="-2.0021867"><ele>447.0</ele><time>2026-05-03T18:00:12.782Z</time></trkpt><trkpt lat="53.2170733" lon="-2.0022783"><ele>448.66666666666663</ele><time>2026-05-03T18:00:13.782Z</time></trkpt><trkpt lat="53.2169033" lon="-2.0023667"><ele>450.3333333333333</ele><time>2026-05-03T18:00:14.783Z</time></trkpt><trkpt lat="53.216745" lon="-2.002455"><ele>452.0</ele><time>2026-05-03T18:00:15.782Z</time></trkpt><trkpt lat="53.2165983" lon="-2.0025367"><ele>450.75</ele><time>2026-05-03T18:00:16.782Z</time></trkpt><trkpt lat="53.216465" lon="-2.002615"><ele>449.5</ele><time>2026-05-03T18:00:17.784Z</time></trkpt><trkpt lat="53.2163333" lon="-2.0026833"><ele>448.25</ele><time>2026-05-03T18:00:18.783Z</time></trkpt><trkpt lat="53.2162083" lon="-2.002725"><ele>447.0</ele><time>2026-05-03T18:00:19.783Z</time></trkpt><trkpt lat="53.2160833" lon="-2.0027283"><ele>447.0</ele><time>2026-05-03T18:00:20.783Z</time></trkpt><trkpt lat="53.2159567" lon="-2.0026833"><ele>447.0</ele><time>2026-05-03T18:00:21.783Z</time></trkpt><trkpt lat="53.215825" lon="-2.0026067"><ele>447.0</ele><time>2026-05-03T18:00:22.783Z</time></trkpt><trkpt lat="53.2156933" lon="-2.0025217"><ele>447.0</ele><time>2026-05-03T18:00:23.782Z</time></trkpt><trkpt lat="53.215555" lon="-2.00245"><ele>446.33333333333337</ele><time>2026-05-03T18:00:24.783Z</time></trkpt><trkpt lat="53.21541" lon="-2.0024183"><ele>445.6666666666667</ele><time>2026-05-03T18:00:25.783Z</time></trkpt><trkpt lat="53.2152583" lon="-2.0024433"><ele>445.0</ele><time>2026-05-03T18:00:26.783Z</time></trkpt><trkpt lat="53.2151067" lon="-2.00253"><ele>443.33333333333337</ele><time>2026-05-03T18:00:27.784Z</time></trkpt><trkpt lat="53.2149583" lon="-2.00265"><ele>441.66666666666663</ele><time>2026-05-03T18:00:28.783Z</time></trkpt><trkpt lat="53.21482" lon="-2.0028"><ele>440.0</ele><time>2026-05-03T18:00:29.783Z</time></trkpt><trkpt lat="53.2146967" lon="-2.0029733"><ele>438.0</ele><time>2026-05-03T18:00:30.782Z</time></trkpt><trkpt lat="53.214595" lon="-2.0031783"><ele>436.0</ele><time>2026-05-03T18:00:31.784Z</time></trkpt><trkpt lat="53.21451" lon="-2.0034133"><ele>434.0</ele><time>2026-05-03T18:00:32.782Z</time></trkpt><trkpt lat="53.21443" lon="-2.0036833"><ele>432.3333333333333</ele><time>2026-05-03T18:00:33.783Z</time></trkpt><trkpt lat="53.2143533" lon="-2.0039733"><ele>430.66666666666663</ele><time>2026-05-03T18:00:34.781Z</time></trkpt><trkpt lat="53.2142783" lon="-2.0042683"><ele>429.0</ele><time>2026-05-03T18:00:35.783Z</time></trkpt><trkpt lat="53.214205" lon="-2.004565"><ele>427.66666666666663</ele><time>2026-05-03T18:00:36.783Z</time></trkpt><trkpt lat="53.214135" lon="-2.0048617"><ele>426.3333333333333</ele><time>2026-05-03T18:00:37.783Z</time></trkpt><trkpt lat="53.2140633" lon="-2.00516"><ele>425.0</ele><time>2026-05-03T18:00:38.783Z</time></trkpt><trkpt lat="53.2139917" lon="-2.0054617"><ele>422.3333333333333</ele><time>2026-05-03T18:00:39.782Z</time></trkpt><trkpt lat="53.2139167" lon="-2.0057767"><ele>419.66666666666663</ele><time>2026-05-03T18:00:40.782Z</time></trkpt><trkpt lat="53.2138433" lon="-2.0061117"><ele>417.0</ele><time>2026-05-03T18:00:41.782Z</time></trkpt><trkpt lat="53.2137733" lon="-2.006455"><ele>415.33333333333337</ele><time>2026-05-03T18:00:42.782Z</time></trkpt><trkpt lat="53.2137067" lon="-2.0068017"><ele>413.6666666666667</ele><time>2026-05-03T18:00:43.783Z</time></trkpt><trkpt lat="53.2136383" lon="-2.0071533"><ele>412.0</ele><time>2026-05-03T18:00:44.783Z</time></trkpt><trkpt lat="53.21357" lon="-2.0075083"><ele>411.5</ele><time>2026-05-03T18:00:45.782Z</time></trkpt><trkpt lat="53.2135" lon="-2.007875"><ele>411.0</ele><time>2026-05-03T18:00:46.783Z</time></trkpt><trkpt lat="53.2134233" lon="-2.0082233"><ele>411.0</ele><time>2026-05-03T18:00:47.783Z</time></trkpt><trkpt lat="53.2133417" lon="-2.0085567"><ele>411.0</ele><time>2026-05-03T18:00:48.783Z</time></trkpt><trkpt lat="53.21325" lon="-2.0088767"><ele>411.0</ele><time>2026-05-03T18:00:49.782Z</time></trkpt><trkpt lat="53.2131467" lon="-2.0092017"><ele>410.33333333333337</ele><time>2026-05-03T18:00:50.783Z</time></trkpt><trkpt lat="53.21304" lon="-2.00952"><ele>409.6666666666667</ele><time>2026-05-03T18:00:51.783Z</time></trkpt><trkpt lat="53.212925" lon="-2.0098433"><ele>409.0</ele><time>2026-05-03T18:00:52.783Z</time></trkpt><trkpt lat="53.212805" lon="-2.0101633"><ele>409.0</ele><time>2026-05-03T18:00:53.783Z</time></trkpt><trkpt lat="53.2126783" lon="-2.0104817"><ele>409.0</ele><time>2026-05-03T18:00:54.783Z</time></trkpt><trkpt lat="53.2125433" lon="-2.010785"><ele>411.33333333333337</ele><time>2026-05-03T18:00:55.783Z</time></trkpt><trkpt lat="53.2124133" lon="-2.0110817"><ele>413.66666666666663</ele><time>2026-05-03T18:00:56.783Z</time></trkpt><trkpt lat="53.2122833" lon="-2.01138"><ele>416.0</ele><time>2026-05-03T18:00:57.782Z</time></trkpt><trkpt lat="53.2121683" lon="-2.0116783"><ele>411.3333333333333</ele><time>2026-05-03T18:00:58.782Z</time></trkpt><trkpt lat="53.2120617" lon="-2.01198"><ele>406.66666666666663</ele><time>2026-05-03T18:00:59.782Z</time></trkpt><trkpt lat="53.2119683" lon="-2.01227"><ele>402.0</ele><time>2026-05-03T18:01:00.783Z</time></trkpt><trkpt lat="53.2118833" lon="-2.012545"><ele>400.33333333333337</ele><time>2026-05-03T18:01:01.784Z</time></trkpt><trkpt lat="53.211805" lon="-2.0127967"><ele>398.6666666666667</ele><time>2026-05-03T18:01:02.783Z</time></trkpt><trkpt lat="53.2117367" lon="-2.0130483"><ele>397.0</ele><time>2026-05-03T18:01:03.783Z</time></trkpt><trkpt lat="53.211675" lon="-2.0132933"><ele>396.6666666666667</ele><time>2026-05-03T18:01:04.782Z</time></trkpt><trkpt lat="53.2116117" lon="-2.013525"><ele>396.33333333333337</ele><time>2026-05-03T18:01:05.784Z</time></trkpt><trkpt lat="53.2115433" lon="-2.0137583"><ele>396.0</ele><time>2026-05-03T18:01:06.782Z</time></trkpt><trkpt lat="53.2114717" lon="-2.013995"><ele>399.0</ele><time>2026-05-03T18:01:07.783Z</time></trkpt><trkpt lat="53.2113867" lon="-2.0142333"><ele>402.0</ele><time>2026-05-03T18:01:08.782Z</time></trkpt><trkpt lat="53.2112933" lon="-2.01448"><ele>405.0</ele><time>2026-05-03T18:01:09.782Z</time></trkpt><trkpt lat="53.2111917" lon="-2.01472"><ele>405.0</ele><time>2026-05-03T18:01:10.783Z</time></trkpt><trkpt lat="53.2110817" lon="-2.0149683"><ele>405.0</ele><time>2026-05-03T18:01:11.783Z</time></trkpt><trkpt lat="53.2109767" lon="-2.015215"><ele>405.0</ele><time>2026-05-03T18:01:12.783Z</time></trkpt><trkpt lat="53.21086" lon="-2.015465"><ele>405.0</ele><time>2026-05-03T18:01:13.783Z</time></trkpt><trkpt lat="53.21074" lon="-2.01572"><ele>405.0</ele><time>2026-05-03T18:01:14.783Z</time></trkpt><trkpt lat="53.2106167" lon="-2.01598"><ele>405.0</ele><time>2026-05-03T18:01:15.782Z</time></trkpt><trkpt lat="53.2104867" lon="-2.01624"><ele>405.0</ele><time>2026-05-03T18:01:16.782Z</time></trkpt><trkpt lat="53.2103567" lon="-2.016495"><ele>405.0</ele><time>2026-05-03T18:01:17.783Z</time></trkpt><trkpt lat="53.2102267" lon="-2.01675"><ele>405.0</ele><time>2026-05-03T18:01:18.783Z</time></trkpt><trkpt lat="53.210095" lon="-2.0169967"><ele>402.66666666666663</ele><time>2026-05-03T18:01:19.784Z</time></trkpt><trkpt lat="53.209965" lon="-2.01724"><ele>400.3333333333333</ele><time>2026-05-03T18:01:20.784Z</time></trkpt><trkpt lat="53.209835" lon="-2.0174783"><ele>398.0</ele><time>2026-05-03T18:01:21.783Z</time></trkpt><trkpt lat="53.20971" lon="-2.0177183"><ele>398.0</ele><time>2026-05-03T18:01:22.782Z</time></trkpt><trkpt lat="53.2095867" lon="-2.017955"><ele>398.0</ele><time>2026-05-03T18:01:23.786Z</time></trkpt><trkpt lat="53.209465" lon="-2.01818"><ele>398.0</ele><time>2026-05-03T18:01:24.783Z</time></trkpt><trkpt lat="53.2093433" lon="-2.0184017"><ele>398.3333333333333</ele><time>2026-05-03T18:01:25.782Z</time></trkpt><trkpt lat="53.2092183" lon="-2.0186117"><ele>398.66666666666663</ele><time>2026-05-03T18:01:26.783Z</time></trkpt><trkpt lat="53.2090867" lon="-2.018825"><ele>399.0</ele><time>2026-05-03T18:01:27.783Z</time></trkpt><trkpt lat="53.2089533" lon="-2.0190333"><ele>394.66666666666663</ele><time>2026-05-03T18:01:28.783Z</time></trkpt><trkpt lat="53.2088217" lon="-2.0192367"><ele>390.3333333333333</ele><time>2026-05-03T18:01:29.782Z</time></trkpt><trkpt lat="53.20869" lon="-2.019435"><ele>386.0</ele><time>2026-05-03T18:01:30.782Z</time></trkpt><trkpt lat="53.2085533" lon="-2.01963"><ele>386.0</ele><time>2026-05-03T18:01:31.782Z</time></trkpt><trkpt lat="53.208415" lon="-2.0198267"><ele>386.0</ele><time>2026-05-03T18:01:32.782Z</time></trkpt><trkpt lat="53.2082767" lon="-2.0200183"><ele>386.0</ele><time>2026-05-03T18:01:33.785Z</time></trkpt><trkpt lat="53.2081367" lon="-2.020205"><ele>385.66666666666663</ele><time>2026-05-03T18:01:34.783Z</time></trkpt><trkpt lat="53.2079917" lon="-2.02038"><ele>385.33333333333337</ele><time>2026-05-03T18:01:35.784Z</time></trkpt><trkpt lat="53.20785" lon="-2.02053"><ele>385.0</ele><time>2026-05-03T18:01:36.782Z</time></trkpt><trkpt lat="53.2077017" lon="-2.0206733"><ele>385.0</ele><time>2026-05-03T18:01:37.782Z</time></trkpt><trkpt lat="53.2075617" lon="-2.0208083"><ele>385.0</ele><time>2026-05-03T18:01:38.783Z</time></trkpt><trkpt lat="53.207425" lon="-2.0209417"><ele>385.0</ele><time>2026-05-03T18:01:39.782Z</time></trkpt><trkpt lat="53.20729" lon="-2.0210717"><ele>383.6666666666667</ele><time>2026-05-03T18:01:40.783Z</time></trkpt><trkpt lat="53.20716" lon="-2.0212067"><ele>382.33333333333337</ele><time>2026-05-03T18:01:41.783Z</time></trkpt><trkpt lat="53.2070367" lon="-2.0213617"><ele>381.0</ele><time>2026-05-03T18:01:42.783Z</time></trkpt><trkpt lat="53.2069283" lon="-2.0215433"><ele>378.0</ele><time>2026-05-03T18:01:43.783Z</time></trkpt><trkpt lat="53.2068317" lon="-2.0217567"><ele>375.0</ele><time>2026-05-03T18:01:44.783Z</time></trkpt><trkpt lat="53.2067467" lon="-2.0220167"><ele>372.0</ele><time>2026-05-03T18:01:45.783Z</time></trkpt><trkpt lat="53.206685" lon="-2.0223183"><ele>370.0</ele><time>2026-05-03T18:01:46.783Z</time></trkpt><trkpt lat="53.2066517" lon="-2.0226583"><ele>368.0</ele><time>2026-05-03T18:01:47.783Z</time></trkpt><trkpt lat="53.20663" lon="-2.02301"><ele>366.0</ele><time>2026-05-03T18:01:48.782Z</time></trkpt><trkpt lat="53.20661" lon="-2.0233517"><ele>364.6666666666667</ele><time>2026-05-03T18:01:49.783Z</time></trkpt><trkpt lat="53.206585" lon="-2.0236833"><ele>363.33333333333337</ele><time>2026-05-03T18:01:50.782Z</time></trkpt><trkpt lat="53.2065433" lon="-2.024"><ele>362.0</ele><time>2026-05-03T18:01:51.782Z</time></trkpt><trkpt lat="53.2064867" lon="-2.02431"><ele>363.6666666666667</ele><time>2026-05-03T18:01:52.783Z</time></trkpt><trkpt lat="53.206415" lon="-2.024615"><ele>365.3333333333333</ele><time>2026-05-03T18:01:53.783Z</time></trkpt><trkpt lat="53.2063283" lon="-2.0249033"><ele>367.0</ele><time>2026-05-03T18:01:54.782Z</time></trkpt><trkpt lat="53.20624" lon="-2.0251917"><ele>367.0</ele><time>2026-05-03T18:01:55.782Z</time></trkpt><trkpt lat="53.20615" lon="-2.025465"><ele>367.0</ele><time>2026-05-03T18:01:56.783Z</time></trkpt><trkpt lat="53.2060633" lon="-2.0257433"><ele>367.0</ele><time>2026-05-03T18:01:57.783Z</time></trkpt><trkpt lat="53.2059733" lon="-2.026015"><ele>363.0</ele><time>2026-05-03T18:01:58.783Z</time></trkpt><trkpt lat="53.20588" lon="-2.026285"><ele>359.0</ele><time>2026-05-03T18:01:59.783Z</time></trkpt><trkpt lat="53.205785" lon="-2.02655"><ele>355.0</ele><time>2026-05-03T18:02:00.783Z</time></trkpt><trkpt lat="53.2056917" lon="-2.02683"><ele>356.0</ele><time>2026-05-03T18:02:01.782Z</time></trkpt><trkpt lat="53.2056" lon="-2.027115"><ele>357.0</ele><time>2026-05-03T18:02:02.782Z</time></trkpt><trkpt lat="53.2055117" lon="-2.0273833"><ele>358.0</ele><time>2026-05-03T18:02:03.783Z</time></trkpt><trkpt lat="53.2054233" lon="-2.02764"><ele>358.0</ele><time>2026-05-03T18:02:04.783Z</time></trkpt><trkpt lat="53.2053483" lon="-2.02789"><ele>358.0</ele><time>2026-05-03T18:02:05.783Z</time></trkpt><trkpt lat="53.2052883" lon="-2.0281567"><ele>358.0</ele><time>2026-05-03T18:02:06.782Z</time></trkpt><trkpt lat="53.2052483" lon="-2.0284483"><ele>356.66666666666663</ele><time>2026-05-03T18:02:07.784Z</time></trkpt><trkpt lat="53.20522" lon="-2.0287417"><ele>355.3333333333333</ele><time>2026-05-03T18:02:08.783Z</time></trkpt><trkpt lat="53.205195" lon="-2.029035"><ele>354.0</ele><time>2026-05-03T18:02:09.782Z</time></trkpt><trkpt lat="53.20517" lon="-2.0293267"><ele>353.0</ele><time>2026-05-03T18:02:10.783Z</time></trkpt><trkpt lat="53.2051467" lon="-2.0296183"><ele>352.0</ele><time>2026-05-03T18:02:11.782Z</time></trkpt><trkpt lat="53.205125" lon="-2.029915"><ele>351.0</ele><time>2026-05-03T18:02:12.783Z</time></trkpt><trkpt lat="53.205105" lon="-2.0302217"><ele>349.6666666666667</ele><time>2026-05-03T18:02:13.783Z</time></trkpt><trkpt lat="53.205085" lon="-2.03053"><ele>348.33333333333337</ele><time>2026-05-03T18:02:14.783Z</time></trkpt><trkpt lat="53.20506" lon="-2.030835"><ele>347.0</ele><time>2026-05-03T18:02:15.783Z</time></trkpt><trkpt lat="53.205035" lon="-2.031135"><ele>346.0</ele><time>2026-05-03T18:02:16.787Z</time></trkpt><trkpt lat="53.2050083" lon="-2.03144"><ele>345.0</ele><time>2026-05-03T18:02:17.782Z</time></trkpt><trkpt lat="53.2049867" lon="-2.0317517"><ele>344.0</ele><time>2026-05-03T18:02:18.786Z</time></trkpt><trkpt lat="53.204965" lon="-2.03207"><ele>342.6666666666667</ele><time>2026-05-03T18:02:19.782Z</time></trkpt><trkpt lat="53.20494" lon="-2.03239"><ele>341.3333333333333</ele><time>2026-05-03T18:02:20.783Z</time></trkpt><trkpt lat="53.2049167" lon="-2.0327"><ele>340.0</ele><time>2026-05-03T18:02:21.783Z</time></trkpt><trkpt lat="53.2048933" lon="-2.0330033"><ele>342.0</ele><time>2026-05-03T18:02:22.781Z</time></trkpt><trkpt lat="53.20487" lon="-2.0333067"><ele>344.0</ele><time>2026-05-03T18:02:23.783Z</time></trkpt><trkpt lat="53.2048467" lon="-2.0336117"><ele>346.0</ele><time>2026-05-03T18:02:24.783Z</time></trkpt><trkpt lat="53.2048217" lon="-2.0339167"><ele>343.3333333333333</ele><time>2026-05-03T18:02:25.785Z</time></trkpt><trkpt lat="53.2047967" lon="-2.0342183"><ele>340.6666666666667</ele><time>2026-05-03T18:02:26.783Z</time></trkpt><trkpt lat="53.2047717" lon="-2.034515"><ele>338.0</ele><time>2026-05-03T18:02:27.783Z</time></trkpt><trkpt lat="53.2047433" lon="-2.0348117"><ele>337.33333333333337</ele><time>2026-05-03T18:02:28.782Z</time></trkpt><trkpt lat="53.2047083" lon="-2.0351033"><ele>336.6666666666667</ele><time>2026-05-03T18:02:29.783Z</time></trkpt><trkpt lat="53.20467" lon="-2.0354017"><ele>336.0</ele><time>2026-05-03T18:02:30.782Z</time></trkpt><trkpt lat="53.2046283" lon="-2.03571"><ele>334.3333333333333</ele><time>2026-05-03T18:02:31.783Z</time></trkpt><trkpt lat="53.2045767" lon="-2.0360167"><ele>332.66666666666663</ele><time>2026-05-03T18:02:32.783Z</time></trkpt><trkpt lat="53.20452" lon="-2.0363233"><ele>331.0</ele><time>2026-05-03T18:02:33.783Z</time></trkpt><trkpt lat="53.2044533" lon="-2.0366283"><ele>329.3333333333333</ele><time>2026-05-03T18:02:34.782Z</time></trkpt><trkpt lat="53.2043817" lon="-2.03694"><ele>327.6666666666667</ele><time>2026-05-03T18:02:35.785Z</time></trkpt><trkpt lat="53.2043067" lon="-2.0372517"><ele>326.0</ele><time>2026-05-03T18:02:36.783Z</time></trkpt><trkpt lat="53.2042267" lon="-2.0375617"><ele>326.33333333333337</ele><time>2026-05-03T18:02:37.782Z</time></trkpt><trkpt lat="53.204145" lon="-2.03786"><ele>326.6666666666667</ele><time>2026-05-03T18:02:38.783Z</time></trkpt><trkpt lat="53.2040633" lon="-2.0381517"><ele>327.0</ele><time>2026-05-03T18:02:39.783Z</time></trkpt><trkpt lat="53.2039833" lon="-2.0384333"><ele>327.0</ele><time>2026-05-03T18:02:40.783Z</time></trkpt><trkpt lat="53.20391" lon="-2.0387017"><ele>327.0</ele><time>2026-05-03T18:02:41.782Z</time></trkpt><trkpt lat="53.2038433" lon="-2.0389583"><ele>327.0</ele><time>2026-05-03T18:02:42.783Z</time></trkpt><trkpt lat="53.2037783" lon="-2.0392083"><ele>324.6666666666667</ele><time>2026-05-03T18:02:43.783Z</time></trkpt><trkpt lat="53.2037133" lon="-2.03946"><ele>322.33333333333337</ele><time>2026-05-03T18:02:44.783Z</time></trkpt><trkpt lat="53.2036483" lon="-2.0397117"><ele>320.0</ele><time>2026-05-03T18:02:45.783Z</time></trkpt><trkpt lat="53.2035817" lon="-2.0399533"><ele>316.6666666666667</ele><time>2026-05-03T18:02:46.782Z</time></trkpt><trkpt lat="53.2035217" lon="-2.0401967"><ele>313.3333333333333</ele><time>2026-05-03T18:02:47.783Z</time></trkpt><trkpt lat="53.20346" lon="-2.040425"><ele>310.0</ele><time>2026-05-03T18:02:48.783Z</time></trkpt><trkpt lat="53.2033983" lon="-2.0406417"><ele>308.8</ele><time>2026-05-03T18:02:49.782Z</time></trkpt><trkpt lat="53.2033467" lon="-2.0408367"><ele>307.6</ele><time>2026-05-03T18:02:50.782Z</time></trkpt><trkpt lat="53.2032983" lon="-2.0409983"><ele>306.4</ele><time>2026-05-03T18:02:51.783Z</time></trkpt><trkpt lat="53.2032483" lon="-2.04114"><ele>305.2</ele><time>2026-05-03T18:02:52.783Z</time></trkpt><trkpt lat="53.2031883" lon="-2.041265"><ele>304.0</ele><time>2026-05-03T18:02:53.782Z</time></trkpt><trkpt lat="53.203105" lon="-2.0413617"><ele>304.0</ele><time>2026-05-03T18:02:54.783Z</time></trkpt><trkpt lat="53.2030017" lon="-2.041435"><ele>304.0</ele><time>2026-05-03T18:02:55.782Z</time></trkpt><trkpt lat="53.2028767" lon="-2.0415"><ele>304.0</ele><time>2026-05-03T18:02:56.782Z</time></trkpt><trkpt lat="53.2027317" lon="-2.0415467"><ele>304.0</ele><time>2026-05-03T18:02:57.783Z</time></trkpt><trkpt lat="53.202575" lon="-2.0415917"><ele>298.3333333333333</ele><time>2026-05-03T18:02:58.783Z</time></trkpt><trkpt lat="53.2024183" lon="-2.0416367"><ele>292.6666666666667</ele><time>2026-05-03T18:02:59.783Z</time></trkpt><trkpt lat="53.2022583" lon="-2.0416767"><ele>287.0</ele><time>2026-05-03T18:03:00.782Z</time></trkpt><trkpt lat="53.202095" lon="-2.0417083"><ele>285.6666666666667</ele><time>2026-05-03T18:03:01.783Z</time></trkpt><trkpt lat="53.2019317" lon="-2.041735"><ele>284.3333333333333</ele><time>2026-05-03T18:03:02.782Z</time></trkpt><trkpt lat="53.2017633" lon="-2.0417483"><ele>283.0</ele><time>2026-05-03T18:03:03.783Z</time></trkpt><trkpt lat="53.201595" lon="-2.0417633"><ele>281.66666666666663</ele><time>2026-05-03T18:03:04.783Z</time></trkpt><trkpt lat="53.2014183" lon="-2.0417767"><ele>280.3333333333333</ele><time>2026-05-03T18:03:05.783Z</time></trkpt><trkpt lat="53.201245" lon="-2.0418067"><ele>279.0</ele><time>2026-05-03T18:03:06.783Z</time></trkpt><trkpt lat="53.2010783" lon="-2.0418317"><ele>279.0</ele><time>2026-05-03T18:03:07.782Z</time></trkpt><trkpt lat="53.2009033" lon="-2.04183"><ele>279.0</ele><time>2026-05-03T18:03:08.782Z</time></trkpt><trkpt lat="53.2007233" lon="-2.0418133"><ele>279.0</ele><time>2026-05-03T18:03:09.783Z</time></trkpt><trkpt lat="53.200545" lon="-2.04179"><ele>277.3333333333333</ele><time>2026-05-03T18:03:10.783Z</time></trkpt><trkpt lat="53.2003733" lon="-2.0417483"><ele>275.66666666666663</ele><time>2026-05-03T18:03:11.782Z</time></trkpt><trkpt lat="53.2002067" lon="-2.04169"><ele>274.0</ele><time>2026-05-03T18:03:12.782Z</time></trkpt><trkpt lat="53.2000617" lon="-2.0416317"><ele>276.0</ele><time>2026-05-03T18:03:13.783Z</time></trkpt><trkpt lat="53.1999317" lon="-2.0415767"><ele>278.0</ele><time>2026-05-03T18:03:14.782Z</time></trkpt><trkpt lat="53.1998217" lon="-2.041525"><ele>280.0</ele><time>2026-05-03T18:03:15.783Z</time></trkpt><trkpt lat="53.199715" lon="-2.0414833"><ele>282.0</ele><time>2026-05-03T18:03:16.782Z</time></trkpt><trkpt lat="53.1996117" lon="-2.04145"><ele>282.0</ele><time>2026-05-03T18:03:17.782Z</time></trkpt><trkpt lat="53.1995067" lon="-2.0414367"><ele>282.0</ele><time>2026-05-03T18:03:18.783Z</time></trkpt><trkpt lat="53.1994033" lon="-2.0414517"><ele>282.0</ele><time>2026-05-03T18:03:19.782Z</time></trkpt><trkpt lat="53.1993017" lon="-2.041485"><ele>282.0</ele><time>2026-05-03T18:03:20.783Z</time></trkpt><trkpt lat="53.1992033" lon="-2.0415417"><ele>282.0</ele><time>2026-05-03T18:03:21.781Z</time></trkpt><trkpt lat="53.1991217" lon="-2.041625"><ele>279.2</ele><time>2026-05-03T18:03:22.782Z</time></trkpt><trkpt lat="53.1990617" lon="-2.0417233"><ele>276.4</ele><time>2026-05-03T18:03:23.783Z</time></trkpt><trkpt lat="53.19902" lon="-2.041835"><ele>273.6</ele><time>2026-05-03T18:03:24.783Z</time></trkpt><trkpt lat="53.19898" lon="-2.0419183"><ele>270.8</ele><time>2026-05-03T18:03:25.782Z</time></trkpt><trkpt lat="53.198995" lon="-2.0420367"><ele>268.0</ele><time>2026-05-03T18:03:26.782Z</time></trkpt><trkpt lat="53.19912" lon="-2.0422217"><ele>268.0</ele><time>2026-05-03T18:03:27.783Z</time></trkpt><trkpt lat="53.1992367" lon="-2.0423833"><ele>268.0</ele><time>2026-05-03T18:03:28.784Z</time></trkpt><trkpt lat="53.1993933" lon="-2.0425833"><ele>268.0</ele><time>2026-05-03T18:03:29.782Z</time></trkpt><trkpt lat="53.19952" lon="-2.0427683"><ele>263.66666666666663</ele><time>2026-05-03T18:03:30.782Z</time></trkpt><trkpt lat="53.1996417" lon="-2.0429517"><ele>259.3333333333333</ele><time>2026-05-03T18:03:31.783Z</time></trkpt><trkpt lat="53.19976" lon="-2.04313"><ele>255.0</ele><time>2026-05-03T18:03:32.783Z</time></trkpt><trkpt lat="53.1998717" lon="-2.0433067"><ele>255.0</ele><time>2026-05-03T18:03:33.782Z</time></trkpt><trkpt lat="53.1999783" lon="-2.0434633"><ele>255.0</ele><time>2026-05-03T18:03:34.783Z</time></trkpt><trkpt lat="53.2000683" lon="-2.0436183"><ele>255.0</ele><time>2026-05-03T18:03:35.782Z</time></trkpt><trkpt lat="53.20015" lon="-2.043785"><ele>255.0</ele><time>2026-05-03T18:03:36.781Z</time></trkpt><trkpt lat="53.2002267" lon="-2.0439883"><ele>251.33333333333331</ele><time>2026-05-03T18:03:37.783Z</time></trkpt><trkpt lat="53.2002933" lon="-2.0442167"><ele>247.66666666666666</ele><time>2026-05-03T18:03:38.786Z</time></trkpt><trkpt lat="53.200355" lon="-2.0444533"><ele>244.0</ele><time>2026-05-03T18:03:39.782Z</time></trkpt><trkpt lat="53.20041" lon="-2.044675"><ele>244.0</ele><time>2026-05-03T18:03:40.782Z</time></trkpt><trkpt lat="53.2004567" lon="-2.0448717"><ele>244.0</ele><time>2026-05-03T18:03:41.782Z</time></trkpt><trkpt lat="53.2005067" lon="-2.0450433"><ele>244.0</ele><time>2026-05-03T18:03:42.782Z</time></trkpt><trkpt lat="53.20058" lon="-2.0451917"><ele>244.0</ele><time>2026-05-03T18:03:43.783Z</time></trkpt><trkpt lat="53.2006867" lon="-2.0453167"><ele>242.75</ele><time>2026-05-03T18:03:44.783Z</time></trkpt><trkpt lat="53.2008033" lon="-2.0454233"><ele>241.5</ele><time>2026-05-03T18:03:45.783Z</time></trkpt><trkpt lat="53.200915" lon="-2.0455267"><ele>240.25</ele><time>2026-05-03T18:03:46.781Z</time></trkpt><trkpt lat="53.2010167" lon="-2.0456233"><ele>239.0</ele><time>2026-05-03T18:03:47.783Z</time></trkpt><trkpt lat="53.2010967" lon="-2.0457483"><ele>237.0</ele><time>2026-05-03T18:03:48.782Z</time></trkpt><trkpt lat="53.2011533" lon="-2.045915"><ele>235.0</ele><time>2026-05-03T18:03:49.783Z</time></trkpt><trkpt lat="53.2011817" lon="-2.0461083"><ele>233.0</ele><time>2026-05-03T18:03:50.783Z</time></trkpt><trkpt lat="53.201185" lon="-2.0463383"><ele>231.0</ele><time>2026-05-03T18:03:51.781Z</time></trkpt><trkpt lat="53.2011683" lon="-2.0465817"><ele>231.25</ele><time>2026-05-03T18:03:52.781Z</time></trkpt><trkpt lat="53.20113" lon="-2.0468067"><ele>231.5</ele><time>2026-05-03T18:03:53.782Z</time></trkpt><trkpt lat="53.2010683" lon="-2.04702"><ele>231.75</ele><time>2026-05-03T18:03:54.783Z</time></trkpt><trkpt lat="53.2009717" lon="-2.04722"><ele>232.0</ele><time>2026-05-03T18:03:55.783Z</time></trkpt><trkpt lat="53.200845" lon="-2.047405"><ele>234.66666666666666</ele><time>2026-05-03T18:03:56.783Z</time></trkpt><trkpt lat="53.2007083" lon="-2.0476083"><ele>237.33333333333331</ele><time>2026-05-03T18:03:57.783Z</time></trkpt><trkpt lat="53.2005783" lon="-2.047825"><ele>240.0</ele><time>2026-05-03T18:03:58.783Z</time></trkpt><trkpt lat="53.2004433" lon="-2.0480433"><ele>240.0</ele><time>2026-05-03T18:03:59.783Z</time></trkpt><trkpt lat="53.2003067" lon="-2.0482517"><ele>240.0</ele><time>2026-05-03T18:04:00.784Z</time></trkpt><trkpt lat="53.2001683" lon="-2.0484667"><ele>240.0</ele><time>2026-05-03T18:04:01.783Z</time></trkpt><trkpt lat="53.2000283" lon="-2.0486883"><ele>243.0</ele><time>2026-05-03T18:04:02.783Z</time></trkpt><trkpt lat="53.1998883" lon="-2.0489233"><ele>246.0</ele><time>2026-05-03T18:04:03.782Z</time></trkpt><trkpt lat="53.1997483" lon="-2.0491717"><ele>249.0</ele><time>2026-05-03T18:04:04.784Z</time></trkpt><trkpt lat="53.199625" lon="-2.049425"><ele>254.33333333333331</ele><time>2026-05-03T18:04:05.781Z</time></trkpt><trkpt lat="53.1995167" lon="-2.0496767"><ele>259.66666666666663</ele><time>2026-05-03T18:04:06.782Z</time></trkpt><trkpt lat="53.19943" lon="-2.049925"><ele>265.0</ele><time>2026-05-03T18:04:07.783Z</time></trkpt><trkpt lat="53.1993583" lon="-2.0501767"><ele>266.75</ele><time>2026-05-03T18:04:08.782Z</time></trkpt><trkpt lat="53.1992867" lon="-2.0504083"><ele>268.5</ele><time>2026-05-03T18:04:09.783Z</time></trkpt><trkpt lat="53.1992267" lon="-2.050625"><ele>270.25</ele><time>2026-05-03T18:04:10.783Z</time></trkpt><trkpt lat="53.1991767" lon="-2.0508117"><ele>272.0</ele><time>2026-05-03T18:04:11.782Z</time></trkpt><trkpt lat="53.19915" lon="-2.050995"><ele>273.0</ele><time>2026-05-03T18:04:12.781Z</time></trkpt><trkpt lat="53.1991533" lon="-2.0511933"><ele>274.0</ele><time>2026-05-03T18:04:13.782Z</time></trkpt><trkpt lat="53.1992" lon="-2.0514017"><ele>275.0</ele><time>2026-05-03T18:04:14.783Z</time></trkpt><trkpt lat="53.1992683" lon="-2.0516167"><ele>276.0</ele><time>2026-05-03T18:04:15.781Z</time></trkpt><trkpt lat="53.19934" lon="-2.0518417"><ele>277.5</ele><time>2026-05-03T18:04:16.782Z</time></trkpt><trkpt lat="53.1994017" lon="-2.052065"><ele>279.0</ele><time>2026-05-03T18:04:17.782Z</time></trkpt><trkpt lat="53.199435" lon="-2.0522983"><ele>280.5</ele><time>2026-05-03T18:04:18.783Z</time></trkpt><trkpt lat="53.1994367" lon="-2.0525533"><ele>282.0</ele><time>2026-05-03T18:04:19.783Z</time></trkpt><trkpt lat="53.1994133" lon="-2.052825"><ele>284.0</ele><time>2026-05-03T18:04:20.782Z</time></trkpt><trkpt lat="53.19939" lon="-2.0531067"><ele>286.0</ele><time>2026-05-03T18:04:21.783Z</time></trkpt><trkpt lat="53.1993733" lon="-2.0533967"><ele>288.0</ele><time>2026-05-03T18:04:22.781Z</time></trkpt><trkpt lat="53.1993817" lon="-2.0536983"><ele>290.0</ele><time>2026-05-03T18:04:23.782Z</time></trkpt><trkpt lat="53.1994017" lon="-2.054005"><ele>292.0</ele><time>2026-05-03T18:04:24.782Z</time></trkpt><trkpt lat="53.19942" lon="-2.05431"><ele>294.0</ele><time>2026-05-03T18:04:25.783Z</time></trkpt><trkpt lat="53.19943" lon="-2.0546083"><ele>295.6666666666667</ele><time>2026-05-03T18:04:26.781Z</time></trkpt><trkpt lat="53.199435" lon="-2.0548983"><ele>297.33333333333337</ele><time>2026-05-03T18:04:27.781Z</time></trkpt><trkpt lat="53.19944" lon="-2.0551833"><ele>299.0</ele><time>2026-05-03T18:04:28.783Z</time></trkpt><trkpt lat="53.1994433" lon="-2.0554683"><ele>300.6666666666667</ele><time>2026-05-03T18:04:29.782Z</time></trkpt><trkpt lat="53.1994467" lon="-2.0557517"><ele>302.3333333333333</ele><time>2026-05-03T18:04:30.782Z</time></trkpt><trkpt lat="53.1994567" lon="-2.056035"><ele>304.0</ele><time>2026-05-03T18:04:31.782Z</time></trkpt><trkpt lat="53.1994767" lon="-2.0563183"><ele>305.3333333333333</ele><time>2026-05-03T18:04:32.782Z</time></trkpt><trkpt lat="53.19951" lon="-2.0566"><ele>306.6666666666667</ele><time>2026-05-03T18:04:33.781Z</time></trkpt><trkpt lat="53.19955" lon="-2.0568867"><ele>308.0</ele><time>2026-05-03T18:04:34.782Z</time></trkpt><trkpt lat="53.1996033" lon="-2.0571783"><ele>311.0</ele><time>2026-05-03T18:04:35.783Z</time></trkpt><trkpt lat="53.1996717" lon="-2.0574733"><ele>314.0</ele><time>2026-05-03T18:04:36.782Z</time></trkpt><trkpt lat="53.1997517" lon="-2.05776"><ele>317.0</ele><time>2026-05-03T18:04:37.782Z</time></trkpt><trkpt lat="53.1998317" lon="-2.058025"><ele>318.6666666666667</ele><time>2026-05-03T18:04:38.781Z</time></trkpt><trkpt lat="53.1999067" lon="-2.058285"><ele>320.3333333333333</ele><time>2026-05-03T18:04:39.782Z</time></trkpt><trkpt lat="53.1999717" lon="-2.058555"><ele>322.0</ele><time>2026-05-03T18:04:40.782Z</time></trkpt><trkpt lat="53.200025" lon="-2.0588367"><ele>322.66666666666663</ele><time>2026-05-03T18:04:41.782Z</time></trkpt><trkpt lat="53.2000833" lon="-2.0591367"><ele>323.3333333333333</ele><time>2026-05-03T18:04:42.782Z</time></trkpt><trkpt lat="53.2001167" lon="-2.0594367"><ele>324.0</ele><time>2026-05-03T18:04:43.782Z</time></trkpt><trkpt lat="53.2001417" lon="-2.05972"><ele>324.6666666666667</ele><time>2026-05-03T18:04:44.783Z</time></trkpt><trkpt lat="53.200165" lon="-2.0599817"><ele>325.33333333333337</ele><time>2026-05-03T18:04:45.782Z</time></trkpt><trkpt lat="53.200195" lon="-2.0602217"><ele>326.0</ele><time>2026-05-03T18:04:46.782Z</time></trkpt><trkpt lat="53.2002517" lon="-2.060455"><ele>326.0</ele><time>2026-05-03T18:04:47.783Z</time></trkpt><trkpt lat="53.2003283" lon="-2.060675"><ele>326.0</ele><time>2026-05-03T18:04:48.783Z</time></trkpt><trkpt lat="53.2004367" lon="-2.0608883"><ele>326.0</ele><time>2026-05-03T18:04:49.782Z</time></trkpt><trkpt lat="53.20055" lon="-2.0610883"><ele>326.6666666666667</ele><time>2026-05-03T18:04:50.783Z</time></trkpt><trkpt lat="53.2006733" lon="-2.0612717"><ele>327.3333333333333</ele><time>2026-05-03T18:04:51.782Z</time></trkpt><trkpt lat="53.200815" lon="-2.0614333"><ele>328.0</ele><time>2026-05-03T18:04:52.782Z</time></trkpt><trkpt lat="53.2009733" lon="-2.0615867"><ele>328.0</ele><time>2026-05-03T18:04:53.783Z</time></trkpt><trkpt lat="53.20113" lon="-2.061735"><ele>328.0</ele><time>2026-05-03T18:04:54.783Z</time></trkpt><trkpt lat="53.2012817" lon="-2.0618817"><ele>328.0</ele><time>2026-05-03T18:04:55.782Z</time></trkpt><trkpt lat="53.2014283" lon="-2.0620433"><ele>328.3333333333333</ele><time>2026-05-03T18:04:56.781Z</time></trkpt><trkpt lat="53.2015733" lon="-2.06221"><ele>328.6666666666667</ele><time>2026-05-03T18:04:57.783Z</time></trkpt><trkpt lat="53.2017167" lon="-2.06237"><ele>329.0</ele><time>2026-05-03T18:04:58.781Z</time></trkpt><trkpt lat="53.2018483" lon="-2.0625183"><ele>329.0</ele><time>2026-05-03T18:04:59.783Z</time></trkpt><trkpt lat="53.2019683" lon="-2.0626633"><ele>329.0</ele><time>2026-05-03T18:05:00.782Z</time></trkpt><trkpt lat="53.2020717" lon="-2.0628317"><ele>329.0</ele><time>2026-05-03T18:05:01.783Z</time></trkpt><trkpt lat="53.2021567" lon="-2.0630367"><ele>329.0</ele><time>2026-05-03T18:05:02.783Z</time></trkpt><trkpt lat="53.202195" lon="-2.0632967"><ele>329.0</ele><time>2026-05-03T18:05:03.782Z</time></trkpt><trkpt lat="53.2022033" lon="-2.0635783"><ele>329.0</ele><time>2026-05-03T18:05:04.783Z</time></trkpt><trkpt lat="53.2022167" lon="-2.0638617"><ele>329.0</ele><time>2026-05-03T18:05:05.783Z</time></trkpt><trkpt lat="53.20225" lon="-2.06414"><ele>329.6666666666667</ele><time>2026-05-03T18:05:06.783Z</time></trkpt><trkpt lat="53.20228" lon="-2.0644183"><ele>330.3333333333333</ele><time>2026-05-03T18:05:07.783Z</time></trkpt><trkpt lat="53.2023067" lon="-2.0646783"><ele>331.0</ele><time>2026-05-03T18:05:08.783Z</time></trkpt><trkpt lat="53.20233" lon="-2.0649217"><ele>330.66666666666663</ele><time>2026-05-03T18:05:09.781Z</time></trkpt><trkpt lat="53.2023317" lon="-2.0651717"><ele>330.3333333333333</ele><time>2026-05-03T18:05:10.783Z</time></trkpt><trkpt lat="53.202305" lon="-2.0654417"><ele>330.0</ele><time>2026-05-03T18:05:11.785Z</time></trkpt><trkpt lat="53.2022433" lon="-2.0657133"><ele>331.6666666666667</ele><time>2026-05-03T18:05:12.782Z</time></trkpt><trkpt lat="53.2021483" lon="-2.065945"><ele>333.33333333333337</ele><time>2026-05-03T18:05:13.784Z</time></trkpt><trkpt lat="53.202015" lon="-2.0661567"><ele>335.0</ele><time>2026-05-03T18:05:14.784Z</time></trkpt><trkpt lat="53.2018783" lon="-2.066375"><ele>335.0</ele><time>2026-05-03T18:05:15.783Z</time></trkpt><trkpt lat="53.2017483" lon="-2.0665933"><ele>335.0</ele><time>2026-05-03T18:05:16.783Z</time></trkpt><trkpt lat="53.2016167" lon="-2.0668117"><ele>335.0</ele><time>2026-05-03T18:05:17.784Z</time></trkpt><trkpt lat="53.2014883" lon="-2.0670317"><ele>335.0</ele><time>2026-05-03T18:05:18.782Z</time></trkpt><trkpt lat="53.2013683" lon="-2.0672483"><ele>335.0</ele><time>2026-05-03T18:05:19.783Z</time></trkpt><trkpt lat="53.2012517" lon="-2.0674683"><ele>335.0</ele><time>2026-05-03T18:05:20.783Z</time></trkpt><trkpt lat="53.2011433" lon="-2.0676883"><ele>337.0</ele><time>2026-05-03T18:05:21.783Z</time></trkpt><trkpt lat="53.20105" lon="-2.0679167"><ele>339.0</ele><time>2026-05-03T18:05:22.783Z</time></trkpt><trkpt lat="53.2009717" lon="-2.0681483"><ele>341.0</ele><time>2026-05-03T18:05:23.788Z</time></trkpt><trkpt lat="53.2009133" lon="-2.0683733"><ele>341.75</ele><time>2026-05-03T18:05:24.784Z</time></trkpt><trkpt lat="53.200875" lon="-2.06859"><ele>342.5</ele><time>2026-05-03T18:05:25.784Z</time></trkpt><trkpt lat="53.20086" lon="-2.0688067"><ele>343.25</ele><time>2026-05-03T18:05:26.783Z</time></trkpt><trkpt lat="53.2008667" lon="-2.0690367"><ele>344.0</ele><time>2026-05-03T18:05:27.784Z</time></trkpt><trkpt lat="53.2008933" lon="-2.0692717"><ele>344.5</ele><time>2026-05-03T18:05:28.784Z</time></trkpt><trkpt lat="53.2009233" lon="-2.0695033"><ele>345.0</ele><time>2026-05-03T18:05:29.783Z</time></trkpt><trkpt lat="53.2009533" lon="-2.0697333"><ele>345.5</ele><time>2026-05-03T18:05:30.784Z</time></trkpt><trkpt lat="53.200985" lon="-2.069955"><ele>346.0</ele><time>2026-05-03T18:05:31.783Z</time></trkpt><trkpt lat="53.201015" lon="-2.0701717"><ele>346.0</ele><time>2026-05-03T18:05:32.784Z</time></trkpt><trkpt lat="53.2010483" lon="-2.07038"><ele>346.0</ele><time>2026-05-03T18:05:33.784Z</time></trkpt><trkpt lat="53.20108" lon="-2.0705883"><ele>346.0</ele><time>2026-05-03T18:05:34.784Z</time></trkpt><trkpt lat="53.2011133" lon="-2.0707967"><ele>346.0</ele><time>2026-05-03T18:05:35.784Z</time></trkpt><trkpt lat="53.20115" lon="-2.071015"><ele>346.0</ele><time>2026-05-03T18:05:36.784Z</time></trkpt><trkpt lat="53.201185" lon="-2.071235"><ele>346.0</ele><time>2026-05-03T18:05:37.784Z</time></trkpt><trkpt lat="53.20122" lon="-2.0714467"><ele>346.0</ele><time>2026-05-03T18:05:38.783Z</time></trkpt><trkpt lat="53.2012533" lon="-2.0716417"><ele>346.0</ele><time>2026-05-03T18:05:39.782Z</time></trkpt><trkpt lat="53.2012883" lon="-2.07182"><ele>345.75</ele><time>2026-05-03T18:05:40.784Z</time></trkpt><trkpt lat="53.2013283" lon="-2.0719867"><ele>345.5</ele><time>2026-05-03T18:05:41.784Z</time></trkpt><trkpt lat="53.201375" lon="-2.0721467"><ele>345.25</ele><time>2026-05-03T18:05:42.784Z</time></trkpt><trkpt lat="53.2014467" lon="-2.0723133"><ele>345.0</ele><time>2026-05-03T18:05:43.784Z</time></trkpt><trkpt lat="53.201535" lon="-2.0724833"><ele>345.75</ele><time>2026-05-03T18:05:44.784Z</time></trkpt><trkpt lat="53.20163" lon="-2.072655"><ele>346.5</ele><time>2026-05-03T18:05:45.784Z</time></trkpt><trkpt lat="53.2017283" lon="-2.0728283"><ele>347.25</ele><time>2026-05-03T18:05:46.783Z</time></trkpt><trkpt lat="53.2018333" lon="-2.0730117"><ele>348.0</ele><time>2026-05-03T18:05:47.784Z</time></trkpt><trkpt lat="53.2019433" lon="-2.073205"><ele>346.0</ele><time>2026-05-03T18:05:48.784Z</time></trkpt><trkpt lat="53.20206" lon="-2.073405"><ele>344.0</ele><time>2026-05-03T18:05:49.784Z</time></trkpt><trkpt lat="53.2021733" lon="-2.073605"><ele>342.0</ele><time>2026-05-03T18:05:50.787Z</time></trkpt><trkpt lat="53.20228" lon="-2.0737983"><ele>341.5</ele><time>2026-05-03T18:05:51.783Z</time></trkpt><trkpt lat="53.2023767" lon="-2.0739883"><ele>341.0</ele><time>2026-05-03T18:05:52.783Z</time></trkpt><trkpt lat="53.2024633" lon="-2.0741917"><ele>340.5</ele><time>2026-05-03T18:05:53.784Z</time></trkpt><trkpt lat="53.2025383" lon="-2.0744067"><ele>340.0</ele><time>2026-05-03T18:05:54.784Z</time></trkpt><trkpt lat="53.2026083" lon="-2.07462"><ele>340.0</ele><time>2026-05-03T18:05:55.783Z</time></trkpt><trkpt lat="53.20268" lon="-2.074835"><ele>340.0</ele><time>2026-05-03T18:05:56.783Z</time></trkpt><trkpt lat="53.20276" lon="-2.0750367"><ele>340.0</ele><time>2026-05-03T18:05:57.784Z</time></trkpt><trkpt lat="53.2028383" lon="-2.07523"><ele>340.0</ele><time>2026-05-03T18:05:58.783Z</time></trkpt><trkpt lat="53.2029167" lon="-2.0754217"><ele>337.25</ele><time>2026-05-03T18:05:59.784Z</time></trkpt><trkpt lat="53.2030017" lon="-2.0756117"><ele>334.5</ele><time>2026-05-03T18:06:00.784Z</time></trkpt><trkpt lat="53.2030933" lon="-2.075785"><ele>331.75</ele><time>2026-05-03T18:06:01.784Z</time></trkpt><trkpt lat="53.2031933" lon="-2.0759417"><ele>329.0</ele><time>2026-05-03T18:06:02.784Z</time></trkpt><trkpt lat="53.2033017" lon="-2.07607"><ele>328.6</ele><time>2026-05-03T18:06:03.784Z</time></trkpt><trkpt lat="53.2034067" lon="-2.0761583"><ele>328.2</ele><time>2026-05-03T18:06:04.783Z</time></trkpt><trkpt lat="53.2035067" lon="-2.0762017"><ele>327.8</ele><time>2026-05-03T18:06:05.784Z</time></trkpt><trkpt lat="53.203605" lon="-2.0762117"><ele>327.40000000000003</ele><time>2026-05-03T18:06:06.784Z</time></trkpt><trkpt lat="53.2037017" lon="-2.0761983"><ele>327.0</ele><time>2026-05-03T18:06:07.784Z</time></trkpt><trkpt lat="53.2037933" lon="-2.0761683"><ele>327.0</ele><time>2026-05-03T18:06:08.786Z</time></trkpt><trkpt lat="53.203885" lon="-2.0761367"><ele>327.0</ele><time>2026-05-03T18:06:09.784Z</time></trkpt><trkpt lat="53.2039733" lon="-2.0761083"><ele>327.0</ele><time>2026-05-03T18:06:10.784Z</time></trkpt><trkpt lat="53.2040567" lon="-2.0760817"><ele>327.0</ele><time>2026-05-03T18:06:11.785Z</time></trkpt><trkpt lat="53.2041333" lon="-2.0760667"><ele>327.0</ele><time>2026-05-03T18:06:12.784Z</time></trkpt><trkpt lat="53.2042067" lon="-2.07607"><ele>327.0</ele><time>2026-05-03T18:06:13.783Z</time></trkpt><trkpt lat="53.2042733" lon="-2.0760983"><ele>326.40000000000003</ele><time>2026-05-03T18:06:14.783Z</time></trkpt><trkpt lat="53.20433" lon="-2.0761717"><ele>325.8</ele><time>2026-05-03T18:06:15.783Z</time></trkpt><trkpt lat="53.2043633" lon="-2.0762983"><ele>325.2</ele><time>2026-05-03T18:06:16.783Z</time></trkpt><trkpt lat="53.2043817" lon="-2.0764733"><ele>324.6</ele><time>2026-05-03T18:06:17.784Z</time></trkpt><trkpt lat="53.2043917" lon="-2.0767017"><ele>324.0</ele><time>2026-05-03T18:06:18.784Z</time></trkpt><trkpt lat="53.20439" lon="-2.0770117"><ele>321.0</ele><time>2026-05-03T18:06:19.784Z</time></trkpt><trkpt lat="53.2043867" lon="-2.0772983"><ele>318.0</ele><time>2026-05-03T18:06:20.786Z</time></trkpt><trkpt lat="53.2043717" lon="-2.0775833"><ele>315.0</ele><time>2026-05-03T18:06:21.784Z</time></trkpt><trkpt lat="53.204355" lon="-2.0778733"><ele>314.0</ele><time>2026-05-03T18:06:22.784Z</time></trkpt><trkpt lat="53.2043383" lon="-2.0781633"><ele>313.0</ele><time>2026-05-03T18:06:23.784Z</time></trkpt><trkpt lat="53.2043217" lon="-2.0784583"><ele>312.0</ele><time>2026-05-03T18:06:24.784Z</time></trkpt><trkpt lat="53.2042983" lon="-2.078755"><ele>311.6666666666667</ele><time>2026-05-03T18:06:25.783Z</time></trkpt><trkpt lat="53.2042517" lon="-2.079045"><ele>311.33333333333337</ele><time>2026-05-03T18:06:26.783Z</time></trkpt><trkpt lat="53.2041867" lon="-2.0793167"><ele>311.0</ele><time>2026-05-03T18:06:27.783Z</time></trkpt><trkpt lat="53.2041183" lon="-2.07959"><ele>311.0</ele><time>2026-05-03T18:06:28.784Z</time></trkpt><trkpt lat="53.2040483" lon="-2.0798617"><ele>311.0</ele><time>2026-05-03T18:06:29.784Z</time></trkpt><trkpt lat="53.2039767" lon="-2.08013"><ele>311.0</ele><time>2026-05-03T18:06:30.783Z</time></trkpt><trkpt lat="53.2039083" lon="-2.0803983"><ele>312.0</ele><time>2026-05-03T18:06:31.784Z</time></trkpt><trkpt lat="53.2038433" lon="-2.08066"><ele>313.0</ele><time>2026-05-03T18:06:32.783Z</time></trkpt><trkpt lat="53.203785" lon="-2.0809183"><ele>314.0</ele><time>2026-05-03T18:06:33.783Z</time></trkpt><trkpt lat="53.2037333" lon="-2.0811817"><ele>314.0</ele><time>2026-05-03T18:06:34.783Z</time></trkpt><trkpt lat="53.2036983" lon="-2.08146"><ele>314.0</ele><time>2026-05-03T18:06:35.784Z</time></trkpt><trkpt lat="53.2036833" lon="-2.08174"><ele>314.0</ele><time>2026-05-03T18:06:36.783Z</time></trkpt><trkpt lat="53.2036883" lon="-2.082015"><ele>314.0</ele><time>2026-05-03T18:06:37.784Z</time></trkpt><trkpt lat="53.2037083" lon="-2.0822967"><ele>314.0</ele><time>2026-05-03T18:06:38.783Z</time></trkpt><trkpt lat="53.2037317" lon="-2.0825883"><ele>314.0</ele><time>2026-05-03T18:06:39.783Z</time></trkpt><trkpt lat="53.20376" lon="-2.0828833"><ele>314.33333333333337</ele><time>2026-05-03T18:06:40.782Z</time></trkpt><trkpt lat="53.2037917" lon="-2.0831767"><ele>314.6666666666667</ele><time>2026-05-03T18:06:41.783Z</time></trkpt><trkpt lat="53.203825" lon="-2.0834733"><ele>315.0</ele><time>2026-05-03T18:06:42.783Z</time></trkpt><trkpt lat="53.2038583" lon="-2.0837683"><ele>315.6666666666667</ele><time>2026-05-03T18:06:43.784Z</time></trkpt><trkpt lat="53.203895" lon="-2.084065"><ele>316.33333333333337</ele><time>2026-05-03T18:06:44.783Z</time></trkpt><trkpt lat="53.2039283" lon="-2.0843633"><ele>317.0</ele><time>2026-05-03T18:06:45.783Z</time></trkpt><trkpt lat="53.2039633" lon="-2.08466"><ele>317.6666666666667</ele><time>2026-05-03T18:06:46.784Z</time></trkpt><trkpt lat="53.204" lon="-2.084955"><ele>318.3333333333333</ele><time>2026-05-03T18:06:47.783Z</time></trkpt><trkpt lat="53.20404" lon="-2.08525"><ele>319.0</ele><time>2026-05-03T18:06:48.784Z</time></trkpt><trkpt lat="53.2040833" lon="-2.085535"><ele>320.25</ele><time>2026-05-03T18:06:49.783Z</time></trkpt><trkpt lat="53.2041283" lon="-2.0858033"><ele>321.5</ele><time>2026-05-03T18:06:50.784Z</time></trkpt><trkpt lat="53.2041683" lon="-2.08604"><ele>322.75</ele><time>2026-05-03T18:06:51.782Z</time></trkpt><trkpt lat="53.2042033" lon="-2.086255"><ele>324.0</ele><time>2026-05-03T18:06:52.783Z</time></trkpt><trkpt lat="53.2042383" lon="-2.08646"><ele>325.5</ele><time>2026-05-03T18:06:53.784Z</time></trkpt><trkpt lat="53.20427" lon="-2.08666"><ele>327.0</ele><time>2026-05-03T18:06:54.784Z</time></trkpt><trkpt lat="53.2042933" lon="-2.0868633"><ele>328.5</ele><time>2026-05-03T18:06:55.783Z</time></trkpt><trkpt lat="53.2042817" lon="-2.0870817"><ele>330.0</ele><time>2026-05-03T18:06:56.784Z</time></trkpt><trkpt lat="53.204245" lon="-2.0873067"><ele>331.6666666666667</ele><time>2026-05-03T18:06:57.782Z</time></trkpt><trkpt lat="53.2042017" lon="-2.087545"><ele>333.33333333333337</ele><time>2026-05-03T18:06:58.783Z</time></trkpt><trkpt lat="53.204155" lon="-2.087795"><ele>335.0</ele><time>2026-05-03T18:06:59.783Z</time></trkpt><trkpt lat="53.2041067" lon="-2.0880567"><ele>335.0</ele><time>2026-05-03T18:07:00.785Z</time></trkpt><trkpt lat="53.2040617" lon="-2.08833"><ele>335.0</ele><time>2026-05-03T18:07:01.783Z</time></trkpt><trkpt lat="53.204015" lon="-2.088605"><ele>335.0</ele><time>2026-05-03T18:07:02.782Z</time></trkpt><trkpt lat="53.2039667" lon="-2.088875"><ele>339.6666666666667</ele><time>2026-05-03T18:07:03.783Z</time></trkpt><trkpt lat="53.2039183" lon="-2.0891367"><ele>344.3333333333333</ele><time>2026-05-03T18:07:04.784Z</time></trkpt><trkpt lat="53.203875" lon="-2.089385"><ele>349.0</ele><time>2026-05-03T18:07:05.784Z</time></trkpt><trkpt lat="53.203825" lon="-2.0896267"><ele>349.0</ele><time>2026-05-03T18:07:06.786Z</time></trkpt><trkpt lat="53.20377" lon="-2.08986"><ele>349.0</ele><time>2026-05-03T18:07:07.784Z</time></trkpt><trkpt lat="53.20371" lon="-2.09009"><ele>349.0</ele><time>2026-05-03T18:07:08.786Z</time></trkpt><trkpt lat="53.2036383" lon="-2.0903133"><ele>348.3333333333333</ele><time>2026-05-03T18:07:09.783Z</time></trkpt><trkpt lat="53.20356" lon="-2.09054"><ele>347.6666666666667</ele><time>2026-05-03T18:07:10.783Z</time></trkpt><trkpt lat="53.2034833" lon="-2.0907817"><ele>347.0</ele><time>2026-05-03T18:07:11.783Z</time></trkpt><trkpt lat="53.2034033" lon="-2.0910333"><ele>346.0</ele><time>2026-05-03T18:07:12.783Z</time></trkpt><trkpt lat="53.20332" lon="-2.09129"><ele>345.0</ele><time>2026-05-03T18:07:13.784Z</time></trkpt><trkpt lat="53.2032333" lon="-2.09154"><ele>344.0</ele><time>2026-05-03T18:07:14.784Z</time></trkpt><trkpt lat="53.203145" lon="-2.0917783"><ele>344.0</ele><time>2026-05-03T18:07:15.782Z</time></trkpt><trkpt lat="53.203055" lon="-2.092005"><ele>344.0</ele><time>2026-05-03T18:07:16.783Z</time></trkpt><trkpt lat="53.2029483" lon="-2.0922233"><ele>344.0</ele><time>2026-05-03T18:07:17.783Z</time></trkpt><trkpt lat="53.2028333" lon="-2.092435"><ele>342.6666666666667</ele><time>2026-05-03T18:07:18.784Z</time></trkpt><trkpt lat="53.202715" lon="-2.092645"><ele>341.3333333333333</ele><time>2026-05-03T18:07:19.784Z</time></trkpt><trkpt lat="53.2025917" lon="-2.0928517"><ele>340.0</ele><time>2026-05-03T18:07:20.783Z</time></trkpt><trkpt lat="53.2024567" lon="-2.09306"><ele>337.66666666666663</ele><time>2026-05-03T18:07:21.783Z</time></trkpt><trkpt lat="53.2023183" lon="-2.0932633"><ele>335.3333333333333</ele><time>2026-05-03T18:07:22.783Z</time></trkpt><trkpt lat="53.2021767" lon="-2.09346"><ele>333.0</ele><time>2026-05-03T18:07:23.784Z</time></trkpt><trkpt lat="53.2020467" lon="-2.09365"><ele>333.0</ele><time>2026-05-03T18:07:24.784Z</time></trkpt><trkpt lat="53.201925" lon="-2.0938333"><ele>333.0</ele><time>2026-05-03T18:07:25.784Z</time></trkpt><trkpt lat="53.2018" lon="-2.0940117"><ele>333.0</ele><time>2026-05-03T18:07:26.783Z</time></trkpt><trkpt lat="53.2016817" lon="-2.0941883"><ele>333.3333333333333</ele><time>2026-05-03T18:07:27.783Z</time></trkpt><trkpt lat="53.2015667" lon="-2.094365"><ele>333.66666666666663</ele><time>2026-05-03T18:07:28.783Z</time></trkpt><trkpt lat="53.20145" lon="-2.09454"><ele>334.0</ele><time>2026-05-03T18:07:29.783Z</time></trkpt><trkpt lat="53.20133" lon="-2.094725"><ele>331.3333333333333</ele><time>2026-05-03T18:07:30.783Z</time></trkpt><trkpt lat="53.201205" lon="-2.0949133"><ele>328.6666666666667</ele><time>2026-05-03T18:07:31.785Z</time></trkpt><trkpt lat="53.201075" lon="-2.0951017"><ele>326.0</ele><time>2026-05-03T18:07:32.786Z</time></trkpt><trkpt lat="53.2009433" lon="-2.0952783"><ele>326.0</ele><time>2026-05-03T18:07:33.783Z</time></trkpt><trkpt lat="53.2008067" lon="-2.0954517"><ele>326.0</ele><time>2026-05-03T18:07:34.784Z</time></trkpt><trkpt lat="53.20067" lon="-2.095615"><ele>326.0</ele><time>2026-05-03T18:07:35.785Z</time></trkpt><trkpt lat="53.200535" lon="-2.0957633"><ele>323.33333333333337</ele><time>2026-05-03T18:07:36.783Z</time></trkpt><trkpt lat="53.2004017" lon="-2.0959033"><ele>320.6666666666667</ele><time>2026-05-03T18:07:37.784Z</time></trkpt><trkpt lat="53.200275" lon="-2.096045"><ele>318.0</ele><time>2026-05-03T18:07:38.783Z</time></trkpt><trkpt lat="53.2001483" lon="-2.0961983"><ele>318.0</ele><time>2026-05-03T18:07:39.782Z</time></trkpt><trkpt lat="53.2000233" lon="-2.0963583"><ele>318.0</ele><time>2026-05-03T18:07:40.782Z</time></trkpt><trkpt lat="53.1998917" lon="-2.0965217"><ele>318.0</ele><time>2026-05-03T18:07:41.783Z</time></trkpt><trkpt lat="53.1997633" lon="-2.0966867"><ele>314.3333333333333</ele><time>2026-05-03T18:07:42.783Z</time></trkpt><trkpt lat="53.1996317" lon="-2.0968483"><ele>310.66666666666663</ele><time>2026-05-03T18:07:43.783Z</time></trkpt><trkpt lat="53.1995017" lon="-2.09701"><ele>307.0</ele><time>2026-05-03T18:07:44.783Z</time></trkpt><trkpt lat="53.1993683" lon="-2.0971717"><ele>307.0</ele><time>2026-05-03T18:07:45.784Z</time></trkpt><trkpt lat="53.1992317" lon="-2.0973383"><ele>307.0</ele><time>2026-05-03T18:07:46.783Z</time></trkpt><trkpt lat="53.1990917" lon="-2.0975083"><ele>307.0</ele><time>2026-05-03T18:07:47.784Z</time></trkpt><trkpt lat="53.1989467" lon="-2.0976867"><ele>302.3333333333333</ele><time>2026-05-03T18:07:48.784Z</time></trkpt><trkpt lat="53.198805" lon="-2.0978717"><ele>297.6666666666667</ele><time>2026-05-03T18:07:49.784Z</time></trkpt><trkpt lat="53.19866" lon="-2.0980517"><ele>293.0</ele><time>2026-05-03T18:07:50.783Z</time></trkpt><trkpt lat="53.1985183" lon="-2.0982217"><ele>293.6666666666667</ele><time>2026-05-03T18:07:51.783Z</time></trkpt><trkpt lat="53.1983833" lon="-2.0983883"><ele>294.3333333333333</ele><time>2026-05-03T18:07:52.784Z</time></trkpt><trkpt lat="53.1982517" lon="-2.0985533"><ele>295.0</ele><time>2026-05-03T18:07:53.784Z</time></trkpt><trkpt lat="53.1981283" lon="-2.0987117"><ele>290.3333333333333</ele><time>2026-05-03T18:07:54.783Z</time></trkpt><trkpt lat="53.1979967" lon="-2.098875"><ele>285.6666666666667</ele><time>2026-05-03T18:07:55.784Z</time></trkpt><trkpt lat="53.1978667" lon="-2.0990417"><ele>281.0</ele><time>2026-05-03T18:07:56.782Z</time></trkpt><trkpt lat="53.197735" lon="-2.0992033"><ele>281.0</ele><time>2026-05-03T18:07:57.782Z</time></trkpt><trkpt lat="53.1976067" lon="-2.09936"><ele>281.0</ele><time>2026-05-03T18:07:58.783Z</time></trkpt><trkpt lat="53.1974767" lon="-2.0995083"><ele>281.0</ele><time>2026-05-03T18:07:59.783Z</time></trkpt><trkpt lat="53.1973483" lon="-2.09966"><ele>276.0</ele><time>2026-05-03T18:08:00.783Z</time></trkpt><trkpt lat="53.19722" lon="-2.09981"><ele>271.0</ele><time>2026-05-03T18:08:01.784Z</time></trkpt><trkpt lat="53.197085" lon="-2.0999633"><ele>266.0</ele><time>2026-05-03T18:08:02.783Z</time></trkpt><trkpt lat="53.19695" lon="-2.1001233"><ele>266.0</ele><time>2026-05-03T18:08:03.783Z</time></trkpt><trkpt lat="53.1968283" lon="-2.10028"><ele>266.0</ele><time>2026-05-03T18:08:04.783Z</time></trkpt><trkpt lat="53.196705" lon="-2.1004533"><ele>266.0</ele><time>2026-05-03T18:08:05.783Z</time></trkpt><trkpt lat="53.1965967" lon="-2.1006283"><ele>262.5</ele><time>2026-05-03T18:08:06.783Z</time></trkpt><trkpt lat="53.1964983" lon="-2.1007933"><ele>259.0</ele><time>2026-05-03T18:08:07.783Z</time></trkpt><trkpt lat="53.1964183" lon="-2.1009583"><ele>255.5</ele><time>2026-05-03T18:08:08.784Z</time></trkpt><trkpt lat="53.196345" lon="-2.1011333"><ele>252.0</ele><time>2026-05-03T18:08:09.783Z</time></trkpt><trkpt lat="53.196285" lon="-2.1013417"><ele>252.0</ele><time>2026-05-03T18:08:10.784Z</time></trkpt><trkpt lat="53.196235" lon="-2.1015733"><ele>252.0</ele><time>2026-05-03T18:08:11.784Z</time></trkpt><trkpt lat="53.1962017" lon="-2.1018167"><ele>252.0</ele><time>2026-05-03T18:08:12.783Z</time></trkpt><trkpt lat="53.1962033" lon="-2.102085"><ele>251.0</ele><time>2026-05-03T18:08:13.782Z</time></trkpt><trkpt lat="53.1962133" lon="-2.1023333"><ele>250.0</ele><time>2026-05-03T18:08:14.783Z</time></trkpt><trkpt lat="53.1962033" lon="-2.1025633"><ele>249.0</ele><time>2026-05-03T18:08:15.783Z</time></trkpt><trkpt lat="53.19618" lon="-2.1027933"><ele>248.0</ele><time>2026-05-03T18:08:16.783Z</time></trkpt><trkpt lat="53.1961267" lon="-2.1030183"><ele>247.0</ele><time>2026-05-03T18:08:17.783Z</time></trkpt><trkpt lat="53.1960483" lon="-2.10324"><ele>246.0</ele><time>2026-05-03T18:08:18.783Z</time></trkpt><trkpt lat="53.1959617" lon="-2.1034567"><ele>245.0</ele><time>2026-05-03T18:08:19.784Z</time></trkpt><trkpt lat="53.1958617" lon="-2.1036483"><ele>244.66666666666669</ele><time>2026-05-03T18:08:20.784Z</time></trkpt><trkpt lat="53.1957517" lon="-2.10382"><ele>244.33333333333331</ele><time>2026-05-03T18:08:21.783Z</time></trkpt><trkpt lat="53.1956133" lon="-2.1039867"><ele>244.0</ele><time>2026-05-03T18:08:22.784Z</time></trkpt><trkpt lat="53.195465" lon="-2.1041517"><ele>242.0</ele><time>2026-05-03T18:08:23.783Z</time></trkpt><trkpt lat="53.1953167" lon="-2.1043"><ele>240.0</ele><time>2026-05-03T18:08:24.782Z</time></trkpt><trkpt lat="53.1951683" lon="-2.1044433"><ele>238.0</ele><time>2026-05-03T18:08:25.784Z</time></trkpt><trkpt lat="53.19503" lon="-2.1045783"><ele>238.0</ele><time>2026-05-03T18:08:26.784Z</time></trkpt><trkpt lat="53.1949" lon="-2.1047117"><ele>238.0</ele><time>2026-05-03T18:08:27.783Z</time></trkpt><trkpt lat="53.1947833" lon="-2.1048517"><ele>238.0</ele><time>2026-05-03T18:08:28.782Z</time></trkpt><trkpt lat="53.1946783" lon="-2.10501"><ele>238.0</ele><time>2026-05-03T18:08:29.784Z</time></trkpt><trkpt lat="53.194585" lon="-2.1052067"><ele>235.66666666666666</ele><time>2026-05-03T18:08:30.783Z</time></trkpt><trkpt lat="53.1944967" lon="-2.105435"><ele>233.33333333333331</ele><time>2026-05-03T18:08:31.782Z</time></trkpt><trkpt lat="53.1944067" lon="-2.1056683"><ele>231.0</ele><time>2026-05-03T18:08:32.783Z</time></trkpt><trkpt lat="53.1943183" lon="-2.10591"><ele>231.0</ele><time>2026-05-03T18:08:33.783Z</time></trkpt><trkpt lat="53.194225" lon="-2.1061433"><ele>231.0</ele><time>2026-05-03T18:08:34.784Z</time></trkpt><trkpt lat="53.1941333" lon="-2.1063667"><ele>231.0</ele><time>2026-05-03T18:08:35.784Z</time></trkpt><trkpt lat="53.1940383" lon="-2.1065883"><ele>226.0</ele><time>2026-05-03T18:08:36.784Z</time></trkpt><trkpt lat="53.193945" lon="-2.1068133"><ele>221.0</ele><time>2026-05-03T18:08:37.784Z</time></trkpt><trkpt lat="53.1938567" lon="-2.1070467"><ele>216.0</ele><time>2026-05-03T18:08:38.784Z</time></trkpt><trkpt lat="53.1937833" lon="-2.1072917"><ele>217.0</ele><time>2026-05-03T18:08:39.783Z</time></trkpt><trkpt lat="53.1937217" lon="-2.10754"><ele>218.0</ele><time>2026-05-03T18:08:40.782Z</time></trkpt><trkpt lat="53.19367" lon="-2.1077967"><ele>219.0</ele><time>2026-05-03T18:08:41.786Z</time></trkpt><trkpt lat="53.193625" lon="-2.10805"><ele>217.66666666666669</ele><time>2026-05-03T18:08:42.782Z</time></trkpt><trkpt lat="53.19358" lon="-2.108305"><ele>216.33333333333334</ele><time>2026-05-03T18:08:43.783Z</time></trkpt><trkpt lat="53.1935367" lon="-2.108555"><ele>215.0</ele><time>2026-05-03T18:08:44.782Z</time></trkpt><trkpt lat="53.1934967" lon="-2.1087867"><ele>215.0</ele><time>2026-05-03T18:08:45.783Z</time></trkpt><trkpt lat="53.193455" lon="-2.109"><ele>215.0</ele><time>2026-05-03T18:08:46.781Z</time></trkpt><trkpt lat="53.1934067" lon="-2.1091967"><ele>215.0</ele><time>2026-05-03T18:08:47.783Z</time></trkpt><trkpt lat="53.193345" lon="-2.109365"><ele>215.0</ele><time>2026-05-03T18:08:48.783Z</time></trkpt><trkpt lat="53.1932717" lon="-2.109515"><ele>214.0</ele><time>2026-05-03T18:08:49.784Z</time></trkpt><trkpt lat="53.1932" lon="-2.10964"><ele>213.0</ele><time>2026-05-03T18:08:50.783Z</time></trkpt><trkpt lat="53.193125" lon="-2.1097433"><ele>212.0</ele><time>2026-05-03T18:08:51.783Z</time></trkpt><trkpt lat="53.1930533" lon="-2.1098383"><ele>211.0</ele><time>2026-05-03T18:08:52.783Z</time></trkpt><trkpt lat="53.192985" lon="-2.10992"><ele>210.0</ele><time>2026-05-03T18:08:53.784Z</time></trkpt><trkpt lat="53.1929083" lon="-2.1099733"><ele>209.6</ele><time>2026-05-03T18:08:54.782Z</time></trkpt><trkpt lat="53.1928233" lon="-2.11"><ele>209.2</ele><time>2026-05-03T18:08:55.783Z</time></trkpt><trkpt lat="53.1927467" lon="-2.11"><ele>208.8</ele><time>2026-05-03T18:08:56.782Z</time></trkpt><trkpt lat="53.192655" lon="-2.109975"><ele>208.4</ele><time>2026-05-03T18:08:57.783Z</time></trkpt><trkpt lat="53.1925533" lon="-2.1099283"><ele>208.0</ele><time>2026-05-03T18:08:58.783Z</time></trkpt><trkpt lat="53.192445" lon="-2.10986"><ele>206.8</ele><time>2026-05-03T18:08:59.784Z</time></trkpt><trkpt lat="53.1923317" lon="-2.109785"><ele>205.60000000000002</ele><time>2026-05-03T18:09:00.783Z</time></trkpt><trkpt lat="53.192215" lon="-2.10973"><ele>204.39999999999998</ele><time>2026-05-03T18:09:01.784Z</time></trkpt><trkpt lat="53.192105" lon="-2.1096917"><ele>203.2</ele><time>2026-05-03T18:09:02.783Z</time></trkpt><trkpt lat="53.1920183" lon="-2.109695"><ele>202.0</ele><time>2026-05-03T18:09:03.783Z</time></trkpt><trkpt lat="53.19192" lon="-2.1097067"><ele>202.0</ele><time>2026-05-03T18:09:04.782Z</time></trkpt><trkpt lat="53.1918183" lon="-2.109735"><ele>202.0</ele><time>2026-05-03T18:09:05.783Z</time></trkpt><trkpt lat="53.1917133" lon="-2.1097967"><ele>202.0</ele><time>2026-05-03T18:09:06.783Z</time></trkpt><trkpt lat="53.1916017" lon="-2.1098767"><ele>202.0</ele><time>2026-05-03T18:09:07.783Z</time></trkpt><trkpt lat="53.1914833" lon="-2.1099767"><ele>200.75</ele><time>2026-05-03T18:09:08.783Z</time></trkpt><trkpt lat="53.1913617" lon="-2.1101033"><ele>199.5</ele><time>2026-05-03T18:09:09.784Z</time></trkpt><trkpt lat="53.19124" lon="-2.1102317"><ele>198.25</ele><time>2026-05-03T18:09:10.784Z</time></trkpt><trkpt lat="53.1911217" lon="-2.1103467"><ele>197.0</ele><time>2026-05-03T18:09:11.784Z</time></trkpt><trkpt lat="53.1910083" lon="-2.1104533"><ele>197.0</ele><time>2026-05-03T18:09:12.783Z</time></trkpt><trkpt lat="53.1908983" lon="-2.1105533"><ele>197.0</ele><time>2026-05-03T18:09:13.784Z</time></trkpt><trkpt lat="53.1907833" lon="-2.1106367"><ele>197.0</ele><time>2026-05-03T18:09:14.783Z</time></trkpt><trkpt lat="53.1906833" lon="-2.1106967"><ele>197.0</ele><time>2026-05-03T18:09:15.783Z</time></trkpt><trkpt lat="53.1906" lon="-2.1107517"><ele>197.0</ele><time>2026-05-03T18:09:16.782Z</time></trkpt><trkpt lat="53.1905217" lon="-2.1107967"><ele>196.16666666666669</ele><time>2026-05-03T18:09:17.782Z</time></trkpt><trkpt lat="53.1904483" lon="-2.1108283"><ele>195.33333333333334</ele><time>2026-05-03T18:09:18.783Z</time></trkpt><trkpt lat="53.190375" lon="-2.1108467"><ele>194.5</ele><time>2026-05-03T18:09:19.783Z</time></trkpt><trkpt lat="53.1902983" lon="-2.1108417"><ele>193.66666666666669</ele><time>2026-05-03T18:09:20.782Z</time></trkpt><trkpt lat="53.190225" lon="-2.1108167"><ele>192.83333333333334</ele><time>2026-05-03T18:09:21.783Z</time></trkpt><trkpt lat="53.1901517" lon="-2.1107783"><ele>192.0</ele><time>2026-05-03T18:09:22.783Z</time></trkpt><trkpt lat="53.1900833" lon="-2.1107267"><ele>192.0</ele><time>2026-05-03T18:09:23.783Z</time></trkpt><trkpt lat="53.1900133" lon="-2.1106633"><ele>192.0</ele><time>2026-05-03T18:09:24.784Z</time></trkpt><trkpt lat="53.189945" lon="-2.110595"><ele>192.0</ele><time>2026-05-03T18:09:25.783Z</time></trkpt><trkpt lat="53.1898783" lon="-2.11052"><ele>192.0</ele><time>2026-05-03T18:09:26.783Z</time></trkpt><trkpt lat="53.1898183" lon="-2.1104267"><ele>192.0</ele><time>2026-05-03T18:09:27.783Z</time></trkpt><trkpt lat="53.1897567" lon="-2.1103117"><ele>192.0</ele><time>2026-05-03T18:09:28.783Z</time></trkpt><trkpt lat="53.1897033" lon="-2.11018"><ele>190.8</ele><time>2026-05-03T18:09:29.784Z</time></trkpt><trkpt lat="53.1896567" lon="-2.1100517"><ele>189.6</ele><time>2026-05-03T18:09:30.784Z</time></trkpt><trkpt lat="53.1896" lon="-2.109895"><ele>188.4</ele><time>2026-05-03T18:09:31.783Z</time></trkpt><trkpt lat="53.189545" lon="-2.1097117"><ele>187.20000000000002</ele><time>2026-05-03T18:09:32.783Z</time></trkpt><trkpt lat="53.1894833" lon="-2.1095383"><ele>186.0</ele><time>2026-05-03T18:09:33.783Z</time></trkpt><trkpt lat="53.18942" lon="-2.10939"><ele>185.83333333333334</ele><time>2026-05-03T18:09:34.783Z</time></trkpt><trkpt lat="53.1893667" lon="-2.1092783"><ele>185.66666666666666</ele><time>2026-05-03T18:09:35.782Z</time></trkpt><trkpt lat="53.1892983" lon="-2.1091883"><ele>185.5</ele><time>2026-05-03T18:09:36.783Z</time></trkpt><trkpt lat="53.1892283" lon="-2.109115"><ele>185.33333333333331</ele><time>2026-05-03T18:09:37.783Z</time></trkpt><trkpt lat="53.18914" lon="-2.1090533"><ele>185.16666666666666</ele><time>2026-05-03T18:09:38.782Z</time></trkpt><trkpt lat="53.1890483" lon="-2.1090017"><ele>185.0</ele><time>2026-05-03T18:09:39.782Z</time></trkpt><trkpt lat="53.18892" lon="-2.10903"><ele>185.0</ele><time>2026-05-03T18:09:40.784Z</time></trkpt><trkpt lat="53.18877" lon="-2.1090883"><ele>185.0</ele><time>2026-05-03T18:09:41.783Z</time></trkpt><trkpt lat="53.1886167" lon="-2.1091267"><ele>185.0</ele><time>2026-05-03T18:09:42.783Z</time></trkpt><trkpt lat="53.1884633" lon="-2.1091467"><ele>185.0</ele><time>2026-05-03T18:09:43.784Z</time></trkpt><trkpt lat="53.188315" lon="-2.10917"><ele>185.0</ele><time>2026-05-03T18:09:44.783Z</time></trkpt><trkpt lat="53.1881533" lon="-2.10919"><ele>185.0</ele><time>2026-05-03T18:09:45.783Z</time></trkpt><trkpt lat="53.1879983" lon="-2.1092133"><ele>185.25</ele><time>2026-05-03T18:09:46.783Z</time></trkpt><trkpt lat="53.1878417" lon="-2.1092317"><ele>185.5</ele><time>2026-05-03T18:09:47.784Z</time></trkpt><trkpt lat="53.1876967" lon="-2.109245"><ele>185.75</ele><time>2026-05-03T18:09:48.782Z</time></trkpt><trkpt lat="53.18757" lon="-2.1092683"><ele>186.0</ele><time>2026-05-03T18:09:49.783Z</time></trkpt><trkpt lat="53.1874533" lon="-2.1092967"><ele>186.0</ele><time>2026-05-03T18:09:50.783Z</time></trkpt><trkpt lat="53.1873517" lon="-2.1093433"><ele>186.0</ele><time>2026-05-03T18:09:51.783Z</time></trkpt><trkpt lat="53.1872683" lon="-2.1094217"><ele>186.0</ele><time>2026-05-03T18:09:52.783Z</time></trkpt><trkpt lat="53.1871917" lon="-2.10952"><ele>186.0</ele><time>2026-05-03T18:09:53.785Z</time></trkpt><trkpt lat="53.1871183" lon="-2.10965"><ele>186.0</ele><time>2026-05-03T18:09:54.784Z</time></trkpt><trkpt lat="53.1870717" lon="-2.1098333"><ele>184.25</ele><time>2026-05-03T18:09:55.782Z</time></trkpt><trkpt lat="53.187015" lon="-2.11002"><ele>182.5</ele><time>2026-05-03T18:09:56.784Z</time></trkpt><trkpt lat="53.1869633" lon="-2.1102133"><ele>180.75</ele><time>2026-05-03T18:09:57.784Z</time></trkpt><trkpt lat="53.186925" lon="-2.1104217"><ele>179.0</ele><time>2026-05-03T18:09:58.783Z</time></trkpt><trkpt lat="53.1868883" lon="-2.1106183"><ele>179.39999999999998</ele><time>2026-05-03T18:09:59.782Z</time></trkpt><trkpt lat="53.1868633" lon="-2.1108033"><ele>179.8</ele><time>2026-05-03T18:10:00.783Z</time></trkpt><trkpt lat="53.186835" lon="-2.1109783"><ele>180.2</ele><time>2026-05-03T18:10:01.784Z</time></trkpt><trkpt lat="53.186795" lon="-2.1111333"><ele>180.60000000000002</ele><time>2026-05-03T18:10:02.782Z</time></trkpt><trkpt lat="53.1867383" lon="-2.11127"><ele>181.0</ele><time>2026-05-03T18:10:03.783Z</time></trkpt><trkpt lat="53.186665" lon="-2.11139"><ele>181.0</ele><time>2026-05-03T18:10:04.783Z</time></trkpt><trkpt lat="53.186575" lon="-2.1114867"><ele>181.0</ele><time>2026-05-03T18:10:05.783Z</time></trkpt><trkpt lat="53.1864667" lon="-2.1115567"><ele>181.0</ele><time>2026-05-03T18:10:06.783Z</time></trkpt><trkpt lat="53.1863367" lon="-2.1115983"><ele>181.0</ele><time>2026-05-03T18:10:07.783Z</time></trkpt><trkpt lat="53.1861967" lon="-2.111645"><ele>180.66666666666669</ele><time>2026-05-03T18:10:08.783Z</time></trkpt><trkpt lat="53.1860433" lon="-2.111685"><ele>180.33333333333334</ele><time>2026-05-03T18:10:09.783Z</time></trkpt><trkpt lat="53.1858867" lon="-2.1117333"><ele>180.0</ele><time>2026-05-03T18:10:10.782Z</time></trkpt><trkpt lat="53.1857267" lon="-2.1117817"><ele>179.33333333333334</ele><time>2026-05-03T18:10:11.784Z</time></trkpt><trkpt lat="53.1855617" lon="-2.1118333"><ele>178.66666666666669</ele><time>2026-05-03T18:10:12.784Z</time></trkpt><trkpt lat="53.1854" lon="-2.1118783"><ele>178.0</ele><time>2026-05-03T18:10:13.783Z</time></trkpt><trkpt lat="53.185235" lon="-2.111925"><ele>178.0</ele><time>2026-05-03T18:10:14.783Z</time></trkpt><trkpt lat="53.1850717" lon="-2.1119683"><ele>178.0</ele><time>2026-05-03T18:10:15.783Z</time></trkpt><trkpt lat="53.1849067" lon="-2.1120083"><ele>178.0</ele><time>2026-05-03T18:10:16.782Z</time></trkpt><trkpt lat="53.1847383" lon="-2.112055"><ele>177.66666666666669</ele><time>2026-05-03T18:10:17.783Z</time></trkpt><trkpt lat="53.184575" lon="-2.1120983"><ele>177.33333333333334</ele><time>2026-05-03T18:10:18.783Z</time></trkpt><trkpt lat="53.184415" lon="-2.1121367"><ele>177.0</ele><time>2026-05-03T18:10:19.783Z</time></trkpt><trkpt lat="53.18426" lon="-2.112175"><ele>177.0</ele><time>2026-05-03T18:10:20.784Z</time></trkpt><trkpt lat="53.18411" lon="-2.1122167"><ele>177.0</ele><time>2026-05-03T18:10:21.783Z</time></trkpt><trkpt lat="53.1839617" lon="-2.1122667"><ele>177.0</ele><time>2026-05-03T18:10:22.783Z</time></trkpt><trkpt lat="53.1838133" lon="-2.11233"><ele>174.25</ele><time>2026-05-03T18:10:23.782Z</time></trkpt><trkpt lat="53.18367" lon="-2.11241"><ele>171.5</ele><time>2026-05-03T18:10:24.783Z</time></trkpt><trkpt lat="53.1835333" lon="-2.112485"><ele>168.75</ele><time>2026-05-03T18:10:25.782Z</time></trkpt><trkpt lat="53.1834117" lon="-2.112545"><ele>166.0</ele><time>2026-05-03T18:10:26.782Z</time></trkpt><trkpt lat="53.1833067" lon="-2.1126067"><ele>166.0</ele><time>2026-05-03T18:10:27.782Z</time></trkpt><trkpt lat="53.1832233" lon="-2.1126683"><ele>166.0</ele><time>2026-05-03T18:10:28.783Z</time></trkpt><trkpt lat="53.183155" lon="-2.1127433"><ele>166.0</ele><time>2026-05-03T18:10:29.783Z</time></trkpt><trkpt lat="53.183095" lon="-2.1128383"><ele>166.0</ele><time>2026-05-03T18:10:30.782Z</time></trkpt><trkpt lat="53.1830567" lon="-2.1129583"><ele>166.0</ele><time>2026-05-03T18:10:31.783Z</time></trkpt><trkpt lat="53.1830317" lon="-2.113095"><ele>166.0</ele><time>2026-05-03T18:10:32.783Z</time></trkpt><trkpt lat="53.183025" lon="-2.11327"><ele>164.75</ele><time>2026-05-03T18:10:33.783Z</time></trkpt><trkpt lat="53.18305" lon="-2.113515"><ele>163.5</ele><time>2026-05-03T18:10:34.784Z</time></trkpt><trkpt lat="53.183065" lon="-2.113735"><ele>162.25</ele><time>2026-05-03T18:10:35.784Z</time></trkpt><trkpt lat="53.1830817" lon="-2.1139417"><ele>161.0</ele><time>2026-05-03T18:10:36.783Z</time></trkpt><trkpt lat="53.1830833" lon="-2.1141133"><ele>160.4</ele><time>2026-05-03T18:10:37.782Z</time></trkpt><trkpt lat="53.1830717" lon="-2.114275"><ele>159.8</ele><time>2026-05-03T18:10:38.783Z</time></trkpt><trkpt lat="53.18304" lon="-2.114425"><ele>159.20000000000002</ele><time>2026-05-03T18:10:39.783Z</time></trkpt><trkpt lat="53.1829867" lon="-2.1145717"><ele>158.60000000000002</ele><time>2026-05-03T18:10:40.783Z</time></trkpt><trkpt lat="53.18293" lon="-2.1147167"><ele>158.0</ele><time>2026-05-03T18:10:41.783Z</time></trkpt><trkpt lat="53.1828733" lon="-2.1148467"><ele>158.5</ele><time>2026-05-03T18:10:42.783Z</time></trkpt><trkpt lat="53.1828317" lon="-2.114955"><ele>159.0</ele><time>2026-05-03T18:10:43.783Z</time></trkpt><trkpt lat="53.1827983" lon="-2.1150683"><ele>159.5</ele><time>2026-05-03T18:10:44.783Z</time></trkpt><trkpt lat="53.1827717" lon="-2.1151867"><ele>160.0</ele><time>2026-05-03T18:10:45.783Z</time></trkpt><trkpt lat="53.1827483" lon="-2.1153217"><ele>160.5</ele><time>2026-05-03T18:10:46.783Z</time></trkpt><trkpt lat="53.1827217" lon="-2.1154617"><ele>161.0</ele><time>2026-05-03T18:10:47.784Z</time></trkpt><trkpt lat="53.1826983" lon="-2.1156417"><ele>161.60000000000002</ele><time>2026-05-03T18:10:48.784Z</time></trkpt><trkpt lat="53.1826567" lon="-2.1158067"><ele>162.2</ele><time>2026-05-03T18:10:49.783Z</time></trkpt><trkpt lat="53.1826133" lon="-2.1159517"><ele>162.8</ele><time>2026-05-03T18:10:50.783Z</time></trkpt><trkpt lat="53.1825433" lon="-2.116095"><ele>163.39999999999998</ele><time>2026-05-03T18:10:51.783Z</time></trkpt><trkpt lat="53.1824633" lon="-2.1162367"><ele>164.0</ele><time>2026-05-03T18:10:52.782Z</time></trkpt><trkpt lat="53.1823833" lon="-2.116375"><ele>162.83333333333331</ele><time>2026-05-03T18:10:53.784Z</time></trkpt><trkpt lat="53.1823083" lon="-2.1165067"><ele>161.66666666666666</ele><time>2026-05-03T18:10:54.783Z</time></trkpt><trkpt lat="53.1822433" lon="-2.1166033"><ele>160.5</ele><time>2026-05-03T18:10:55.784Z</time></trkpt><trkpt lat="53.1821833" lon="-2.11668"><ele>159.33333333333334</ele><time>2026-05-03T18:10:56.783Z</time></trkpt><trkpt lat="53.1821217" lon="-2.11674"><ele>158.16666666666669</ele><time>2026-05-03T18:10:57.783Z</time></trkpt><trkpt lat="53.1820517" lon="-2.116805"><ele>157.0</ele><time>2026-05-03T18:10:58.783Z</time></trkpt><trkpt lat="53.1819767" lon="-2.1168633"><ele>157.0</ele><time>2026-05-03T18:10:59.782Z</time></trkpt><trkpt lat="53.1819017" lon="-2.1169317"><ele>157.0</ele><time>2026-05-03T18:11:00.783Z</time></trkpt><trkpt lat="53.181825" lon="-2.117005"><ele>157.0</ele><time>2026-05-03T18:11:01.784Z</time></trkpt><trkpt lat="53.1817483" lon="-2.1170783"><ele>157.0</ele><time>2026-05-03T18:11:02.782Z</time></trkpt><trkpt lat="53.181675" lon="-2.1171617"><ele>157.0</ele><time>2026-05-03T18:11:03.783Z</time></trkpt><trkpt lat="53.1815983" lon="-2.1172417"><ele>157.0</ele><time>2026-05-03T18:11:04.782Z</time></trkpt><trkpt lat="53.18152" lon="-2.1173133"><ele>155.6</ele><time>2026-05-03T18:11:05.783Z</time></trkpt><trkpt lat="53.181435" lon="-2.1173883"><ele>154.2</ele><time>2026-05-03T18:11:06.783Z</time></trkpt><trkpt lat="53.1813367" lon="-2.1174517"><ele>152.8</ele><time>2026-05-03T18:11:07.783Z</time></trkpt><trkpt lat="53.1812433" lon="-2.117545"><ele>151.4</ele><time>2026-05-03T18:11:08.783Z</time></trkpt><trkpt lat="53.1811367" lon="-2.117615"><ele>150.0</ele><time>2026-05-03T18:11:09.781Z</time></trkpt><trkpt lat="53.1810317" lon="-2.1176783"><ele>150.0</ele><time>2026-05-03T18:11:10.783Z</time></trkpt><trkpt lat="53.1809333" lon="-2.11773"><ele>150.0</ele><time>2026-05-03T18:11:11.782Z</time></trkpt><trkpt lat="53.1808367" lon="-2.1177683"><ele>150.0</ele><time>2026-05-03T18:11:12.783Z</time></trkpt><trkpt lat="53.18074" lon="-2.1178083"><ele>150.0</ele><time>2026-05-03T18:11:13.782Z</time></trkpt><trkpt lat="53.1806433" lon="-2.1178333"><ele>150.0</ele><time>2026-05-03T18:11:14.782Z</time></trkpt><trkpt lat="53.18055" lon="-2.1178417"><ele>150.16666666666666</ele><time>2026-05-03T18:11:15.783Z</time></trkpt><trkpt lat="53.1804617" lon="-2.1178567"><ele>150.33333333333334</ele><time>2026-05-03T18:11:16.783Z</time></trkpt><trkpt lat="53.1803833" lon="-2.1178733"><ele>150.5</ele><time>2026-05-03T18:11:17.783Z</time></trkpt><trkpt lat="53.1803217" lon="-2.117905"><ele>150.66666666666669</ele><time>2026-05-03T18:11:18.784Z</time></trkpt><trkpt lat="53.18023" lon="-2.11798"><ele>150.83333333333334</ele><time>2026-05-03T18:11:20.783Z</time></trkpt><trkpt lat="53.1802117" lon="-2.118165"><ele>151.0</ele><time>2026-05-03T18:11:22.782Z</time></trkpt><trkpt lat="53.180235" lon="-2.1183417"><ele>151.0</ele><time>2026-05-03T18:11:24.783Z</time></trkpt><trkpt lat="53.18027" lon="-2.1184783"><ele>151.0</ele><time>2026-05-03T18:11:26.782Z</time></trkpt><trkpt lat="53.1802767" lon="-2.1185967"><ele>151.0</ele><time>2026-05-03T18:11:29.787Z</time></trkpt><trkpt lat="53.18018" lon="-2.118555"><ele>151.0</ele><time>2026-05-03T18:11:33.783Z</time></trkpt><trkpt lat="53.18008" lon="-2.11852"><ele>151.0</ele><time>2026-05-03T18:11:35.784Z</time></trkpt><trkpt lat="53.1800167" lon="-2.1185383"><ele>151.0</ele><time>2026-05-03T18:11:36.783Z</time></trkpt><trkpt lat="53.179935" lon="-2.1185717"><ele>150.25</ele><time>2026-05-03T18:11:37.784Z</time></trkpt><trkpt lat="53.1798283" lon="-2.11864"><ele>149.5</ele><time>2026-05-03T18:11:38.783Z</time></trkpt><trkpt lat="53.1797017" lon="-2.1187583"><ele>148.75</ele><time>2026-05-03T18:11:39.783Z</time></trkpt><trkpt lat="53.179575" lon="-2.118865"><ele>148.0</ele><time>2026-05-03T18:11:40.783Z</time></trkpt><trkpt lat="53.179455" lon="-2.1189767"><ele>147.5</ele><time>2026-05-03T18:11:41.784Z</time></trkpt><trkpt lat="53.1793483" lon="-2.1191117"><ele>147.0</ele><time>2026-05-03T18:11:42.783Z</time></trkpt><trkpt lat="53.1792433" lon="-2.11927"><ele>146.5</ele><time>2026-05-03T18:11:43.784Z</time></trkpt><trkpt lat="53.1791483" lon="-2.11946"><ele>146.0</ele><time>2026-05-03T18:11:44.784Z</time></trkpt><trkpt lat="53.1790667" lon="-2.1196933"><ele>145.66666666666666</ele><time>2026-05-03T18:11:45.783Z</time></trkpt><trkpt lat="53.17899" lon="-2.1199433"><ele>145.33333333333334</ele><time>2026-05-03T18:11:46.783Z</time></trkpt><trkpt lat="53.178905" lon="-2.1202067"><ele>145.0</ele><time>2026-05-03T18:11:47.782Z</time></trkpt><trkpt lat="53.1788267" lon="-2.1204817"><ele>144.66666666666669</ele><time>2026-05-03T18:11:48.783Z</time></trkpt><trkpt lat="53.178745" lon="-2.1207617"><ele>144.33333333333334</ele><time>2026-05-03T18:11:49.783Z</time></trkpt><trkpt lat="53.1786667" lon="-2.1210483"><ele>144.0</ele><time>2026-05-03T18:11:50.782Z</time></trkpt><trkpt lat="53.178585" lon="-2.1213333"><ele>145.66666666666666</ele><time>2026-05-03T18:11:51.783Z</time></trkpt><trkpt lat="53.17851" lon="-2.1216133"><ele>147.33333333333331</ele><time>2026-05-03T18:11:52.783Z</time></trkpt><trkpt lat="53.1784517" lon="-2.1218883"><ele>149.0</ele><time>2026-05-03T18:11:53.783Z</time></trkpt><trkpt lat="53.1784017" lon="-2.1221483"><ele>149.25</ele><time>2026-05-03T18:11:54.783Z</time></trkpt><trkpt lat="53.178365" lon="-2.1224"><ele>149.5</ele><time>2026-05-03T18:11:55.783Z</time></trkpt><trkpt lat="53.178335" lon="-2.12264"><ele>149.75</ele><time>2026-05-03T18:11:56.783Z</time></trkpt><trkpt lat="53.1783033" lon="-2.1228733"><ele>150.0</ele><time>2026-05-03T18:11:57.783Z</time></trkpt><trkpt lat="53.1782617" lon="-2.1231083"><ele>150.0</ele><time>2026-05-03T18:11:58.783Z</time></trkpt><trkpt lat="53.1782017" lon="-2.123345"><ele>150.0</ele><time>2026-05-03T18:11:59.783Z</time></trkpt><trkpt lat="53.1781283" lon="-2.12358"><ele>150.0</ele><time>2026-05-03T18:12:00.782Z</time></trkpt><trkpt lat="53.17805" lon="-2.123805"><ele>150.25</ele><time>2026-05-03T18:12:01.784Z</time></trkpt><trkpt lat="53.177975" lon="-2.1240167"><ele>150.5</ele><time>2026-05-03T18:12:02.783Z</time></trkpt><trkpt lat="53.1779017" lon="-2.1242183"><ele>150.75</ele><time>2026-05-03T18:12:03.783Z</time></trkpt><trkpt lat="53.1778367" lon="-2.1244283"><ele>151.0</ele><time>2026-05-03T18:12:04.783Z</time></trkpt><trkpt lat="53.17778" lon="-2.1246517"><ele>151.25</ele><time>2026-05-03T18:12:05.783Z</time></trkpt><trkpt lat="53.1777267" lon="-2.12488"><ele>151.5</ele><time>2026-05-03T18:12:06.783Z</time></trkpt><trkpt lat="53.1776717" lon="-2.1250983"><ele>151.75</ele><time>2026-05-03T18:12:07.782Z</time></trkpt><trkpt lat="53.1776233" lon="-2.1252967"><ele>152.0</ele><time>2026-05-03T18:12:08.782Z</time></trkpt><trkpt lat="53.177585" lon="-2.1254833"><ele>152.0</ele><time>2026-05-03T18:12:09.782Z</time></trkpt><trkpt lat="53.1775633" lon="-2.1256733"><ele>152.0</ele><time>2026-05-03T18:12:10.783Z</time></trkpt><trkpt lat="53.1775583" lon="-2.12587"><ele>152.0</ele><time>2026-05-03T18:12:11.782Z</time></trkpt><trkpt lat="53.1775733" lon="-2.1260633"><ele>152.0</ele><time>2026-05-03T18:12:12.782Z</time></trkpt><trkpt lat="53.177605" lon="-2.1262483"><ele>151.75</ele><time>2026-05-03T18:12:13.782Z</time></trkpt><trkpt lat="53.1776533" lon="-2.1264317"><ele>151.5</ele><time>2026-05-03T18:12:14.783Z</time></trkpt><trkpt lat="53.1777133" lon="-2.12661"><ele>151.25</ele><time>2026-05-03T18:12:15.783Z</time></trkpt><trkpt lat="53.1777867" lon="-2.1267833"><ele>151.0</ele><time>2026-05-03T18:12:16.783Z</time></trkpt><trkpt lat="53.1778567" lon="-2.126945"><ele>150.4</ele><time>2026-05-03T18:12:17.784Z</time></trkpt><trkpt lat="53.1779283" lon="-2.1270983"><ele>149.8</ele><time>2026-05-03T18:12:18.782Z</time></trkpt><trkpt lat="53.1779917" lon="-2.1272517"><ele>149.20000000000002</ele><time>2026-05-03T18:12:19.783Z</time></trkpt><trkpt lat="53.1780517" lon="-2.127405"><ele>148.6</ele><time>2026-05-03T18:12:20.783Z</time></trkpt><trkpt lat="53.17811" lon="-2.12756"><ele>148.0</ele><time>2026-05-03T18:12:21.783Z</time></trkpt><trkpt lat="53.1781783" lon="-2.1277217"><ele>148.0</ele><time>2026-05-03T18:12:22.782Z</time></trkpt><trkpt lat="53.1782517" lon="-2.1278783"><ele>148.0</ele><time>2026-05-03T18:12:23.782Z</time></trkpt><trkpt lat="53.17833" lon="-2.1280283"><ele>148.0</ele><time>2026-05-03T18:12:24.783Z</time></trkpt><trkpt lat="53.178405" lon="-2.1281717"><ele>148.0</ele><time>2026-05-03T18:12:25.784Z</time></trkpt><trkpt lat="53.178475" lon="-2.1283067"><ele>147.0</ele><time>2026-05-03T18:12:26.782Z</time></trkpt><trkpt lat="53.178545" lon="-2.12843"><ele>146.0</ele><time>2026-05-03T18:12:27.783Z</time></trkpt><trkpt lat="53.1786233" lon="-2.1285333"><ele>145.0</ele><time>2026-05-03T18:12:28.783Z</time></trkpt><trkpt lat="53.17872" lon="-2.128615"><ele>144.0</ele><time>2026-05-03T18:12:29.787Z</time></trkpt><trkpt lat="53.17883" lon="-2.1286783"><ele>143.0</ele><time>2026-05-03T18:12:30.784Z</time></trkpt><trkpt lat="53.1789533" lon="-2.1287433"><ele>142.25</ele><time>2026-05-03T18:12:31.783Z</time></trkpt><trkpt lat="53.17908" lon="-2.1287983"><ele>141.5</ele><time>2026-05-03T18:12:32.783Z</time></trkpt><trkpt lat="53.1792017" lon="-2.128855"><ele>140.75</ele><time>2026-05-03T18:12:33.783Z</time></trkpt><trkpt lat="53.1793083" lon="-2.1289017"><ele>140.0</ele><time>2026-05-03T18:12:34.783Z</time></trkpt><trkpt lat="53.179405" lon="-2.1289417"><ele>140.0</ele><time>2026-05-03T18:12:35.784Z</time></trkpt><trkpt lat="53.1794817" lon="-2.1289983"><ele>140.0</ele><time>2026-05-03T18:12:36.786Z</time></trkpt><trkpt lat="53.1795567" lon="-2.1290683"><ele>140.0</ele><time>2026-05-03T18:12:37.785Z</time></trkpt><trkpt lat="53.1796233" lon="-2.129155"><ele>140.0</ele><time>2026-05-03T18:12:38.783Z</time></trkpt><trkpt lat="53.1796667" lon="-2.12926"><ele>140.0</ele><time>2026-05-03T18:12:39.785Z</time></trkpt><trkpt lat="53.1796883" lon="-2.1293783"><ele>140.0</ele><time>2026-05-03T18:12:40.783Z</time></trkpt><trkpt lat="53.179685" lon="-2.1294867"><ele>139.0</ele><time>2026-05-03T18:12:41.783Z</time></trkpt><trkpt lat="53.1796983" lon="-2.12959"><ele>138.0</ele><time>2026-05-03T18:12:42.782Z</time></trkpt><trkpt lat="53.1797767" lon="-2.1297717"><ele>137.0</ele><time>2026-05-03T18:12:44.784Z</time></trkpt><trkpt lat="53.1798483" lon="-2.1298533"><ele>136.0</ele><time>2026-05-03T18:12:45.782Z</time></trkpt><trkpt lat="53.17992" lon="-2.1299367"><ele>135.0</ele><time>2026-05-03T18:12:46.782Z</time></trkpt><trkpt lat="53.1800033" lon="-2.130045"><ele>134.25</ele><time>2026-05-03T18:12:47.784Z</time></trkpt><trkpt lat="53.1800967" lon="-2.1301783"><ele>133.5</ele><time>2026-05-03T18:12:48.784Z</time></trkpt><trkpt lat="53.1801917" lon="-2.1303317"><ele>132.75</ele><time>2026-05-03T18:12:49.784Z</time></trkpt><trkpt lat="53.18028" lon="-2.1304883"><ele>132.0</ele><time>2026-05-03T18:12:50.783Z</time></trkpt><trkpt lat="53.1803717" lon="-2.13064"><ele>131.75</ele><time>2026-05-03T18:12:51.783Z</time></trkpt><trkpt lat="53.1804617" lon="-2.13078"><ele>131.5</ele><time>2026-05-03T18:12:52.781Z</time></trkpt><trkpt lat="53.1805533" lon="-2.1309067"><ele>131.25</ele><time>2026-05-03T18:12:53.784Z</time></trkpt><trkpt lat="53.1806417" lon="-2.1310317"><ele>131.0</ele><time>2026-05-03T18:12:54.784Z</time></trkpt><trkpt lat="53.1807283" lon="-2.13116"><ele>130.4</ele><time>2026-05-03T18:12:55.784Z</time></trkpt><trkpt lat="53.1808183" lon="-2.1312767"><ele>129.8</ele><time>2026-05-03T18:12:56.783Z</time></trkpt><trkpt lat="53.1809017" lon="-2.1313933"><ele>129.20000000000002</ele><time>2026-05-03T18:12:57.783Z</time></trkpt><trkpt lat="53.180985" lon="-2.1315"><ele>128.6</ele><time>2026-05-03T18:12:58.781Z</time></trkpt><trkpt lat="53.1810783" lon="-2.1316033"><ele>128.0</ele><time>2026-05-03T18:12:59.784Z</time></trkpt><trkpt lat="53.1811833" lon="-2.1317083"><ele>128.0</ele><time>2026-05-03T18:13:00.783Z</time></trkpt><trkpt lat="53.1812883" lon="-2.13181"><ele>128.0</ele><time>2026-05-03T18:13:01.783Z</time></trkpt><trkpt lat="53.1813933" lon="-2.1318867"><ele>128.0</ele><time>2026-05-03T18:13:02.783Z</time></trkpt><trkpt lat="53.1814883" lon="-2.1319917"><ele>128.0</ele><time>2026-05-03T18:13:03.783Z</time></trkpt><trkpt lat="53.1815867" lon="-2.1320783"><ele>128.0</ele><time>2026-05-03T18:13:04.784Z</time></trkpt><trkpt lat="53.1816867" lon="-2.1321567"><ele>128.0</ele><time>2026-05-03T18:13:05.782Z</time></trkpt><trkpt lat="53.1817883" lon="-2.132225"><ele>128.0</ele><time>2026-05-03T18:13:06.783Z</time></trkpt><trkpt lat="53.1818883" lon="-2.1322983"><ele>128.0</ele><time>2026-05-03T18:13:07.784Z</time></trkpt><trkpt lat="53.18198" lon="-2.132365"><ele>128.0</ele><time>2026-05-03T18:13:08.782Z</time></trkpt><trkpt lat="53.1820817" lon="-2.1324133"><ele>127.60000000000001</ele><time>2026-05-03T18:13:09.783Z</time></trkpt><trkpt lat="53.182175" lon="-2.1324483"><ele>127.20000000000002</ele><time>2026-05-03T18:13:10.783Z</time></trkpt><trkpt lat="53.18228" lon="-2.1324767"><ele>126.8</ele><time>2026-05-03T18:13:11.782Z</time></trkpt><trkpt lat="53.1823867" lon="-2.1324967"><ele>126.4</ele><time>2026-05-03T18:13:12.784Z</time></trkpt><trkpt lat="53.182495" lon="-2.1325167"><ele>126.0</ele><time>2026-05-03T18:13:13.783Z</time></trkpt><trkpt lat="53.1826017" lon="-2.132535"><ele>125.16666666666667</ele><time>2026-05-03T18:13:14.784Z</time></trkpt><trkpt lat="53.182705" lon="-2.1325583"><ele>124.33333333333334</ele><time>2026-05-03T18:13:15.783Z</time></trkpt><trkpt lat="53.1827883" lon="-2.1326067"><ele>123.5</ele><time>2026-05-03T18:13:16.783Z</time></trkpt><trkpt lat="53.1828583" lon="-2.1326617"><ele>122.66666666666667</ele><time>2026-05-03T18:13:17.783Z</time></trkpt><trkpt lat="53.182915" lon="-2.1327217"><ele>121.83333333333334</ele><time>2026-05-03T18:13:18.784Z</time></trkpt><trkpt lat="53.182965" lon="-2.1328683"><ele>121.0</ele><time>2026-05-03T18:13:20.782Z</time></trkpt><trkpt lat="53.1829383" lon="-2.1329767"><ele>121.0</ele><time>2026-05-03T18:13:21.782Z</time></trkpt><trkpt lat="53.1829167" lon="-2.1331267"><ele>121.0</ele><time>2026-05-03T18:13:22.783Z</time></trkpt><trkpt lat="53.1828867" lon="-2.133315"><ele>121.0</ele><time>2026-05-03T18:13:23.784Z</time></trkpt><trkpt lat="53.1828717" lon="-2.13351"><ele>121.0</ele><time>2026-05-03T18:13:24.783Z</time></trkpt><trkpt lat="53.1828733" lon="-2.1337517"><ele>121.0</ele><time>2026-05-03T18:13:25.783Z</time></trkpt><trkpt lat="53.1828783" lon="-2.133965"><ele>121.0</ele><time>2026-05-03T18:13:26.783Z</time></trkpt><trkpt lat="53.182875" lon="-2.1341783"><ele>121.0</ele><time>2026-05-03T18:13:27.782Z</time></trkpt><trkpt lat="53.1828583" lon="-2.1343767"><ele>121.0</ele><time>2026-05-03T18:13:28.783Z</time></trkpt><trkpt lat="53.182835" lon="-2.1345483"><ele>121.4</ele><time>2026-05-03T18:13:29.782Z</time></trkpt><trkpt lat="53.1827983" lon="-2.13471"><ele>121.8</ele><time>2026-05-03T18:13:30.784Z</time></trkpt><trkpt lat="53.182745" lon="-2.1348583"><ele>122.20000000000002</ele><time>2026-05-03T18:13:31.783Z</time></trkpt><trkpt lat="53.1826783" lon="-2.1350217"><ele>122.60000000000001</ele><time>2026-05-03T18:13:32.784Z</time></trkpt><trkpt lat="53.1826017" lon="-2.1351833"><ele>123.0</ele><time>2026-05-03T18:13:33.782Z</time></trkpt><trkpt lat="53.1825117" lon="-2.1353533"><ele>123.25</ele><time>2026-05-03T18:13:34.783Z</time></trkpt><trkpt lat="53.1824233" lon="-2.135525"><ele>123.5</ele><time>2026-05-03T18:13:35.784Z</time></trkpt><trkpt lat="53.18233" lon="-2.1357"><ele>123.75</ele><time>2026-05-03T18:13:36.783Z</time></trkpt><trkpt lat="53.1822317" lon="-2.1358833"><ele>124.0</ele><time>2026-05-03T18:13:37.784Z</time></trkpt><trkpt lat="53.1821367" lon="-2.1360567"><ele>126.0</ele><time>2026-05-03T18:13:38.783Z</time></trkpt><trkpt lat="53.1820483" lon="-2.1362083"><ele>128.0</ele><time>2026-05-03T18:13:39.783Z</time></trkpt><trkpt lat="53.1819633" lon="-2.13633"><ele>130.0</ele><time>2026-05-03T18:13:40.783Z</time></trkpt><trkpt lat="53.181885" lon="-2.13641"><ele>132.0</ele><time>2026-05-03T18:13:41.785Z</time></trkpt><trkpt lat="53.1818" lon="-2.13646"><ele>134.0</ele><time>2026-05-03T18:13:42.783Z</time></trkpt><trkpt lat="53.1817083" lon="-2.136485"><ele>134.0</ele><time>2026-05-03T18:13:43.783Z</time></trkpt><trkpt lat="53.1815883" lon="-2.1364833"><ele>134.0</ele><time>2026-05-03T18:13:44.783Z</time></trkpt><trkpt lat="53.1814533" lon="-2.1364617"><ele>134.0</ele><time>2026-05-03T18:13:45.783Z</time></trkpt><trkpt lat="53.1813117" lon="-2.1364267"><ele>134.0</ele><time>2026-05-03T18:13:46.782Z</time></trkpt><trkpt lat="53.18118" lon="-2.1363867"><ele>137.0</ele><time>2026-05-03T18:13:47.782Z</time></trkpt><trkpt lat="53.1810617" lon="-2.1363767"><ele>140.0</ele><time>2026-05-03T18:13:48.784Z</time></trkpt><trkpt lat="53.18094" lon="-2.1364067"><ele>143.0</ele><time>2026-05-03T18:13:49.783Z</time></trkpt><trkpt lat="53.1808133" lon="-2.136455"><ele>146.0</ele><time>2026-05-03T18:13:50.783Z</time></trkpt><trkpt lat="53.1806733" lon="-2.1365067"><ele>149.0</ele><time>2026-05-03T18:13:51.784Z</time></trkpt><trkpt lat="53.18053" lon="-2.13657"><ele>152.0</ele><time>2026-05-03T18:13:52.784Z</time></trkpt><trkpt lat="53.1803867" lon="-2.1366317"><ele>155.0</ele><time>2026-05-03T18:13:53.784Z</time></trkpt><trkpt lat="53.1802367" lon="-2.1366883"><ele>155.0</ele><time>2026-05-03T18:13:54.788Z</time></trkpt><trkpt lat="53.1800817" lon="-2.1367317"><ele>155.0</ele><time>2026-05-03T18:13:55.784Z</time></trkpt><trkpt lat="53.1799233" lon="-2.1367783"><ele>155.0</ele><time>2026-05-03T18:13:56.782Z</time></trkpt><trkpt lat="53.17977" lon="-2.1368217"><ele>157.66666666666666</ele><time>2026-05-03T18:13:57.783Z</time></trkpt><trkpt lat="53.1796167" lon="-2.1368683"><ele>160.33333333333334</ele><time>2026-05-03T18:13:58.782Z</time></trkpt><trkpt lat="53.17946" lon="-2.13692"><ele>163.0</ele><time>2026-05-03T18:13:59.783Z</time></trkpt><trkpt lat="53.179295" lon="-2.13699"><ele>163.0</ele><time>2026-05-03T18:14:00.783Z</time></trkpt><trkpt lat="53.17912" lon="-2.137065"><ele>163.0</ele><time>2026-05-03T18:14:01.782Z</time></trkpt><trkpt lat="53.178935" lon="-2.13716"><ele>163.0</ele><time>2026-05-03T18:14:02.783Z</time></trkpt><trkpt lat="53.17875" lon="-2.1372467"><ele>165.66666666666669</ele><time>2026-05-03T18:14:03.783Z</time></trkpt><trkpt lat="53.1785667" lon="-2.1373283"><ele>168.33333333333334</ele><time>2026-05-03T18:14:04.783Z</time></trkpt><trkpt lat="53.17839" lon="-2.137395"><ele>171.0</ele><time>2026-05-03T18:14:05.783Z</time></trkpt><trkpt lat="53.17822" lon="-2.1374733"><ele>174.0</ele><time>2026-05-03T18:14:06.783Z</time></trkpt><trkpt lat="53.17805" lon="-2.1375617"><ele>177.0</ele><time>2026-05-03T18:14:07.783Z</time></trkpt><trkpt lat="53.1778833" lon="-2.13765"><ele>180.0</ele><time>2026-05-03T18:14:08.783Z</time></trkpt><trkpt lat="53.1777317" lon="-2.1377217"><ele>180.0</ele><time>2026-05-03T18:14:09.783Z</time></trkpt><trkpt lat="53.1775867" lon="-2.1377917"><ele>180.0</ele><time>2026-05-03T18:14:10.782Z</time></trkpt><trkpt lat="53.1774483" lon="-2.137855"><ele>180.0</ele><time>2026-05-03T18:14:11.784Z</time></trkpt><trkpt lat="53.177305" lon="-2.1379067"><ele>180.0</ele><time>2026-05-03T18:14:12.784Z</time></trkpt><trkpt lat="53.17717" lon="-2.137965"><ele>180.25</ele><time>2026-05-03T18:14:13.782Z</time></trkpt><trkpt lat="53.1770133" lon="-2.1380183"><ele>180.5</ele><time>2026-05-03T18:14:14.783Z</time></trkpt><trkpt lat="53.1768667" lon="-2.138055"><ele>180.75</ele><time>2026-05-03T18:14:15.782Z</time></trkpt><trkpt lat="53.1767317" lon="-2.1380833"><ele>181.0</ele><time>2026-05-03T18:14:16.783Z</time></trkpt><trkpt lat="53.1765867" lon="-2.1381133"><ele>181.66666666666669</ele><time>2026-05-03T18:14:17.783Z</time></trkpt><trkpt lat="53.1764333" lon="-2.1381267"><ele>182.33333333333334</ele><time>2026-05-03T18:14:18.782Z</time></trkpt><trkpt lat="53.17627" lon="-2.13813"><ele>183.0</ele><time>2026-05-03T18:14:19.783Z</time></trkpt><trkpt lat="53.1761117" lon="-2.1381267"><ele>183.0</ele><time>2026-05-03T18:14:20.783Z</time></trkpt><trkpt lat="53.1759567" lon="-2.1381267"><ele>183.0</ele><time>2026-05-03T18:14:21.783Z</time></trkpt><trkpt lat="53.1758117" lon="-2.1381317"><ele>183.0</ele><time>2026-05-03T18:14:22.783Z</time></trkpt><trkpt lat="53.1756783" lon="-2.1381483"><ele>183.0</ele><time>2026-05-03T18:14:23.783Z</time></trkpt><trkpt lat="53.17556" lon="-2.1381867"><ele>183.2</ele><time>2026-05-03T18:14:24.783Z</time></trkpt><trkpt lat="53.1754583" lon="-2.1382367"><ele>183.4</ele><time>2026-05-03T18:14:25.783Z</time></trkpt><trkpt lat="53.1753617" lon="-2.1383217"><ele>183.6</ele><time>2026-05-03T18:14:26.783Z</time></trkpt><trkpt lat="53.1752783" lon="-2.138445"><ele>183.79999999999998</ele><time>2026-05-03T18:14:27.782Z</time></trkpt><trkpt lat="53.1752317" lon="-2.1386117"><ele>184.0</ele><time>2026-05-03T18:14:28.781Z</time></trkpt><trkpt lat="53.17518" lon="-2.1388417"><ele>184.0</ele><time>2026-05-03T18:14:29.784Z</time></trkpt><trkpt lat="53.1751317" lon="-2.1391017"><ele>184.0</ele><time>2026-05-03T18:14:30.783Z</time></trkpt><trkpt lat="53.1750817" lon="-2.1393733"><ele>184.0</ele><time>2026-05-03T18:14:31.784Z</time></trkpt><trkpt lat="53.1750367" lon="-2.1396467"><ele>184.66666666666669</ele><time>2026-05-03T18:14:32.783Z</time></trkpt><trkpt lat="53.1749933" lon="-2.1399183"><ele>185.33333333333334</ele><time>2026-05-03T18:14:33.782Z</time></trkpt><trkpt lat="53.1749533" lon="-2.1401983"><ele>186.0</ele><time>2026-05-03T18:14:34.783Z</time></trkpt><trkpt lat="53.17491" lon="-2.1404483"><ele>186.0</ele><time>2026-05-03T18:14:35.783Z</time></trkpt><trkpt lat="53.1748683" lon="-2.1406867"><ele>186.0</ele><time>2026-05-03T18:14:36.784Z</time></trkpt><trkpt lat="53.1748217" lon="-2.140905"><ele>186.0</ele><time>2026-05-03T18:14:37.783Z</time></trkpt><trkpt lat="53.17478" lon="-2.14112"><ele>186.0</ele><time>2026-05-03T18:14:38.784Z</time></trkpt><trkpt lat="53.1747217" lon="-2.1413133"><ele>186.0</ele><time>2026-05-03T18:14:39.783Z</time></trkpt><trkpt lat="53.1746617" lon="-2.141505"><ele>186.0</ele><time>2026-05-03T18:14:40.782Z</time></trkpt><trkpt lat="53.1745933" lon="-2.141665"><ele>186.0</ele><time>2026-05-03T18:14:41.784Z</time></trkpt><trkpt lat="53.174505" lon="-2.141795"><ele>186.0</ele><time>2026-05-03T18:14:42.784Z</time></trkpt><trkpt lat="53.1744033" lon="-2.1419383"><ele>186.5</ele><time>2026-05-03T18:14:43.782Z</time></trkpt><trkpt lat="53.1742983" lon="-2.1420533"><ele>187.0</ele><time>2026-05-03T18:14:44.783Z</time></trkpt><trkpt lat="53.17419" lon="-2.142155"><ele>187.5</ele><time>2026-05-03T18:14:45.784Z</time></trkpt><trkpt lat="53.17407" lon="-2.1422433"><ele>188.0</ele><time>2026-05-03T18:14:46.784Z</time></trkpt><trkpt lat="53.173965" lon="-2.1423167"><ele>190.0</ele><time>2026-05-03T18:14:47.784Z</time></trkpt><trkpt lat="53.1738833" lon="-2.1423683"><ele>192.0</ele><time>2026-05-03T18:14:48.782Z</time></trkpt><trkpt lat="53.1738117" lon="-2.14243"><ele>194.0</ele><time>2026-05-03T18:14:49.783Z</time></trkpt><trkpt lat="53.1737483" lon="-2.1424967"><ele>196.0</ele><time>2026-05-03T18:14:50.784Z</time></trkpt><trkpt lat="53.1736833" lon="-2.14269"><ele>198.0</ele><time>2026-05-03T18:14:52.783Z</time></trkpt><trkpt lat="53.1736633" lon="-2.14283"><ele>199.0</ele><time>2026-05-03T18:14:53.784Z</time></trkpt><trkpt lat="53.1736433" lon="-2.14297"><ele>200.0</ele><time>2026-05-03T18:14:54.784Z</time></trkpt><trkpt lat="53.1736283" lon="-2.1431383"><ele>201.0</ele><time>2026-05-03T18:14:55.782Z</time></trkpt><trkpt lat="53.173615" lon="-2.1433067"><ele>202.0</ele><time>2026-05-03T18:14:56.784Z</time></trkpt><trkpt lat="53.1735967" lon="-2.1435017"><ele>203.0</ele><time>2026-05-03T18:14:57.783Z</time></trkpt><trkpt lat="53.17357" lon="-2.14371"><ele>204.66666666666669</ele><time>2026-05-03T18:14:58.786Z</time></trkpt><trkpt lat="53.17354" lon="-2.1439317"><ele>206.33333333333331</ele><time>2026-05-03T18:14:59.783Z</time></trkpt><trkpt lat="53.1735117" lon="-2.1441867"><ele>208.0</ele><time>2026-05-03T18:15:00.782Z</time></trkpt><trkpt lat="53.1734717" lon="-2.1444433"><ele>209.66666666666666</ele><time>2026-05-03T18:15:01.783Z</time></trkpt><trkpt lat="53.1734317" lon="-2.1447233"><ele>211.33333333333331</ele><time>2026-05-03T18:15:02.783Z</time></trkpt><trkpt lat="53.173375" lon="-2.1449867"><ele>213.0</ele><time>2026-05-03T18:15:03.783Z</time></trkpt><trkpt lat="53.1733167" lon="-2.1452333"><ele>213.0</ele><time>2026-05-03T18:15:04.783Z</time></trkpt><trkpt lat="53.17326" lon="-2.1454817"><ele>213.0</ele><time>2026-05-03T18:15:05.783Z</time></trkpt><trkpt lat="53.1731983" lon="-2.1457283"><ele>213.0</ele><time>2026-05-03T18:15:06.782Z</time></trkpt><trkpt lat="53.1731467" lon="-2.1459517"><ele>218.5</ele><time>2026-05-03T18:15:07.783Z</time></trkpt><trkpt lat="53.1730983" lon="-2.14617"><ele>224.0</ele><time>2026-05-03T18:15:08.784Z</time></trkpt><trkpt lat="53.1730617" lon="-2.14637"><ele>229.5</ele><time>2026-05-03T18:15:09.783Z</time></trkpt><trkpt lat="53.1730233" lon="-2.146535"><ele>235.0</ele><time>2026-05-03T18:15:10.782Z</time></trkpt><trkpt lat="53.17299" lon="-2.1466683"><ele>235.0</ele><time>2026-05-03T18:15:11.783Z</time></trkpt><trkpt lat="53.1729633" lon="-2.1467783"><ele>235.0</ele><time>2026-05-03T18:15:12.783Z</time></trkpt><trkpt lat="53.1729217" lon="-2.1469317"><ele>235.0</ele><time>2026-05-03T18:15:14.784Z</time></trkpt><trkpt lat="53.172865" lon="-2.1467883"><ele>235.0</ele><time>2026-05-03T18:15:18.782Z</time></trkpt><trkpt lat="53.1728467" lon="-2.146635"><ele>235.0</ele><time>2026-05-03T18:15:19.784Z</time></trkpt><trkpt lat="53.172815" lon="-2.14644"><ele>235.0</ele><time>2026-05-03T18:15:20.783Z</time></trkpt><trkpt lat="53.1727867" lon="-2.146205"><ele>235.0</ele><time>2026-05-03T18:15:21.782Z</time></trkpt><trkpt lat="53.1727517" lon="-2.146005"><ele>235.0</ele><time>2026-05-03T18:15:22.782Z</time></trkpt><trkpt lat="53.1727083" lon="-2.14577"><ele>235.0</ele><time>2026-05-03T18:15:23.783Z</time></trkpt><trkpt lat="53.17267" lon="-2.145555"><ele>235.0</ele><time>2026-05-03T18:15:24.782Z</time></trkpt><trkpt lat="53.1726383" lon="-2.145375"><ele>235.0</ele><time>2026-05-03T18:15:25.783Z</time></trkpt><trkpt lat="53.1726117" lon="-2.1451983"><ele>235.0</ele><time>2026-05-03T18:15:26.783Z</time></trkpt><trkpt lat="53.1725867" lon="-2.145025"><ele>235.0</ele><time>2026-05-03T18:15:27.782Z</time></trkpt><trkpt lat="53.1725567" lon="-2.14486"><ele>235.0</ele><time>2026-05-03T18:15:28.786Z</time></trkpt><trkpt lat="53.17252" lon="-2.144695"><ele>234.4</ele><time>2026-05-03T18:15:29.783Z</time></trkpt><trkpt lat="53.1724733" lon="-2.144535"><ele>233.8</ele><time>2026-05-03T18:15:30.783Z</time></trkpt><trkpt lat="53.1724317" lon="-2.144385"><ele>233.2</ele><time>2026-05-03T18:15:31.784Z</time></trkpt><trkpt lat="53.1723833" lon="-2.1442533"><ele>232.6</ele><time>2026-05-03T18:15:32.783Z</time></trkpt><trkpt lat="53.1723317" lon="-2.1441283"><ele>232.0</ele><time>2026-05-03T18:15:33.783Z</time></trkpt><trkpt lat="53.1722717" lon="-2.1440083"><ele>235.33333333333331</ele><time>2026-05-03T18:15:34.784Z</time></trkpt><trkpt lat="53.1722117" lon="-2.1438917"><ele>238.66666666666666</ele><time>2026-05-03T18:15:35.783Z</time></trkpt><trkpt lat="53.172155" lon="-2.1437767"><ele>242.0</ele><time>2026-05-03T18:15:36.782Z</time></trkpt><trkpt lat="53.1721" lon="-2.14366"><ele>245.33333333333331</ele><time>2026-05-03T18:15:37.783Z</time></trkpt><trkpt lat="53.1720483" lon="-2.1435467"><ele>248.66666666666666</ele><time>2026-05-03T18:15:38.783Z</time></trkpt><trkpt lat="53.172" lon="-2.1434167"><ele>252.0</ele><time>2026-05-03T18:15:39.782Z</time></trkpt><trkpt lat="53.1719733" lon="-2.14328"><ele>249.8</ele><time>2026-05-03T18:15:40.782Z</time></trkpt><trkpt lat="53.17194" lon="-2.1431267"><ele>247.6</ele><time>2026-05-03T18:15:41.784Z</time></trkpt><trkpt lat="53.171905" lon="-2.1429833"><ele>245.40000000000003</ele><time>2026-05-03T18:15:42.782Z</time></trkpt><trkpt lat="53.17187" lon="-2.1428383"><ele>243.20000000000002</ele><time>2026-05-03T18:15:43.783Z</time></trkpt><trkpt lat="53.1718367" lon="-2.1427"><ele>241.0</ele><time>2026-05-03T18:15:44.784Z</time></trkpt><trkpt lat="53.1717867" lon="-2.14257"><ele>241.0</ele><time>2026-05-03T18:15:45.782Z</time></trkpt><trkpt lat="53.1717267" lon="-2.1424267"><ele>241.0</ele><time>2026-05-03T18:15:46.783Z</time></trkpt><trkpt lat="53.17165" lon="-2.14227"><ele>241.0</ele><time>2026-05-03T18:15:47.783Z</time></trkpt><trkpt lat="53.1715667" lon="-2.1421133"><ele>241.0</ele><time>2026-05-03T18:15:48.782Z</time></trkpt><trkpt lat="53.1714833" lon="-2.1419633"><ele>242.25</ele><time>2026-05-03T18:15:49.784Z</time></trkpt><trkpt lat="53.1714033" lon="-2.1418317"><ele>243.5</ele><time>2026-05-03T18:15:50.782Z</time></trkpt><trkpt lat="53.1713233" lon="-2.1416983"><ele>244.75</ele><time>2026-05-03T18:15:51.783Z</time></trkpt><trkpt lat="53.1712367" lon="-2.1415617"><ele>246.0</ele><time>2026-05-03T18:15:52.782Z</time></trkpt><trkpt lat="53.1711383" lon="-2.1414167"><ele>246.0</ele><time>2026-05-03T18:15:53.783Z</time></trkpt><trkpt lat="53.171035" lon="-2.1412717"><ele>246.0</ele><time>2026-05-03T18:15:54.783Z</time></trkpt><trkpt lat="53.1709367" lon="-2.141135"><ele>246.0</ele><time>2026-05-03T18:15:55.783Z</time></trkpt><trkpt lat="53.17084" lon="-2.1410067"><ele>246.0</ele><time>2026-05-03T18:15:56.783Z</time></trkpt><trkpt lat="53.17074" lon="-2.1408717"><ele>249.0</ele><time>2026-05-03T18:15:57.781Z</time></trkpt><trkpt lat="53.170635" lon="-2.1407317"><ele>252.0</ele><time>2026-05-03T18:15:58.782Z</time></trkpt><trkpt lat="53.1705233" lon="-2.1406033"><ele>255.0</ele><time>2026-05-03T18:15:59.782Z</time></trkpt><trkpt lat="53.17041" lon="-2.1404817"><ele>258.0</ele><time>2026-05-03T18:16:00.782Z</time></trkpt><trkpt lat="53.1702983" lon="-2.1403817"><ele>258.0</ele><time>2026-05-03T18:16:01.783Z</time></trkpt><trkpt lat="53.170185" lon="-2.1402883"><ele>258.0</ele><time>2026-05-03T18:16:02.783Z</time></trkpt><trkpt lat="53.170065" lon="-2.1402083"><ele>258.0</ele><time>2026-05-03T18:16:03.783Z</time></trkpt><trkpt lat="53.1699383" lon="-2.1401317"><ele>258.0</ele><time>2026-05-03T18:16:04.783Z</time></trkpt><trkpt lat="53.1698067" lon="-2.1400617"><ele>259.5</ele><time>2026-05-03T18:16:05.782Z</time></trkpt><trkpt lat="53.1696783" lon="-2.14"><ele>261.0</ele><time>2026-05-03T18:16:06.782Z</time></trkpt><trkpt lat="53.1695533" lon="-2.1399233"><ele>262.5</ele><time>2026-05-03T18:16:07.783Z</time></trkpt><trkpt lat="53.1694417" lon="-2.1398583"><ele>264.0</ele><time>2026-05-03T18:16:08.783Z</time></trkpt><trkpt lat="53.16934" lon="-2.1397933"><ele>264.0</ele><time>2026-05-03T18:16:09.783Z</time></trkpt><trkpt lat="53.16925" lon="-2.1397417"><ele>264.0</ele><time>2026-05-03T18:16:10.783Z</time></trkpt><trkpt lat="53.1691667" lon="-2.1396883"><ele>264.0</ele><time>2026-05-03T18:16:11.782Z</time></trkpt><trkpt lat="53.1690733" lon="-2.139655"><ele>264.0</ele><time>2026-05-03T18:16:12.783Z</time></trkpt><trkpt lat="53.1689683" lon="-2.13964"><ele>264.0</ele><time>2026-05-03T18:16:13.782Z</time></trkpt><trkpt lat="53.1688617" lon="-2.13964"><ele>267.75</ele><time>2026-05-03T18:16:14.783Z</time></trkpt><trkpt lat="53.1687467" lon="-2.1396483"><ele>271.5</ele><time>2026-05-03T18:16:15.783Z</time></trkpt><trkpt lat="53.1686233" lon="-2.13965"><ele>275.25</ele><time>2026-05-03T18:16:16.783Z</time></trkpt><trkpt lat="53.168505" lon="-2.1396317"><ele>279.0</ele><time>2026-05-03T18:16:17.783Z</time></trkpt><trkpt lat="53.1683917" lon="-2.1396033"><ele>279.0</ele><time>2026-05-03T18:16:18.782Z</time></trkpt><trkpt lat="53.16828" lon="-2.1395417"><ele>279.0</ele><time>2026-05-03T18:16:19.783Z</time></trkpt><trkpt lat="53.1681767" lon="-2.1394633"><ele>279.0</ele><time>2026-05-03T18:16:20.784Z</time></trkpt><trkpt lat="53.1680667" lon="-2.1393817"><ele>279.0</ele><time>2026-05-03T18:16:21.783Z</time></trkpt><trkpt lat="53.1679633" lon="-2.13931"><ele>281.5</ele><time>2026-05-03T18:16:22.782Z</time></trkpt><trkpt lat="53.1678617" lon="-2.139265"><ele>284.0</ele><time>2026-05-03T18:16:23.783Z</time></trkpt><trkpt lat="53.167755" lon="-2.1392383"><ele>286.5</ele><time>2026-05-03T18:16:24.783Z</time></trkpt><trkpt lat="53.167635" lon="-2.139235"><ele>289.0</ele><time>2026-05-03T18:16:25.783Z</time></trkpt><trkpt lat="53.1675117" lon="-2.13924"><ele>289.0</ele><time>2026-05-03T18:16:26.783Z</time></trkpt><trkpt lat="53.167405" lon="-2.1392483"><ele>289.0</ele><time>2026-05-03T18:16:27.781Z</time></trkpt><trkpt lat="53.1673283" lon="-2.1392533"><ele>289.0</ele><time>2026-05-03T18:16:28.782Z</time></trkpt><trkpt lat="53.1672367" lon="-2.1392533"><ele>289.0</ele><time>2026-05-03T18:16:30.783Z</time></trkpt><trkpt lat="53.1672533" lon="-2.139355"><ele>289.0</ele><time>2026-05-03T18:16:35.785Z</time></trkpt><trkpt lat="53.1673483" lon="-2.1394167"><ele>289.0</ele><time>2026-05-03T18:16:38.784Z</time></trkpt><trkpt lat="53.1674617" lon="-2.139515"><ele>289.0</ele><time>2026-05-03T18:16:40.784Z</time></trkpt><trkpt lat="53.1675267" lon="-2.1395833"><ele>289.0</ele><time>2026-05-03T18:16:41.782Z</time></trkpt><trkpt lat="53.1675817" lon="-2.1396367"><ele>289.0</ele><time>2026-05-03T18:16:42.784Z</time></trkpt><trkpt lat="53.1676717" lon="-2.13972"><ele>289.0</ele><time>2026-05-03T18:16:44.784Z</time></trkpt><trkpt lat="53.167705" lon="-2.1398317"><ele>289.0</ele><time>2026-05-03T18:16:47.782Z</time></trkpt><trkpt lat="53.167645" lon="-2.139915"><ele>289.0</ele><time>2026-05-03T18:16:50.783Z</time></trkpt><trkpt lat="53.1675217" lon="-2.1399933"><ele>291.0</ele><time>2026-05-03T18:16:52.782Z</time></trkpt><trkpt lat="53.167445" lon="-2.1400433"><ele>293.0</ele><time>2026-05-03T18:16:53.783Z</time></trkpt><trkpt lat="53.16736" lon="-2.1400933"><ele>295.0</ele><time>2026-05-03T18:16:54.783Z</time></trkpt><trkpt lat="53.1672817" lon="-2.14014"><ele>297.0</ele><time>2026-05-03T18:16:55.784Z</time></trkpt><trkpt lat="53.1671983" lon="-2.1401817"><ele>299.0</ele><time>2026-05-03T18:16:56.782Z</time></trkpt><trkpt lat="53.1671333" lon="-2.1402117"><ele>301.0</ele><time>2026-05-03T18:16:57.782Z</time></trkpt><trkpt lat="53.1670367" lon="-2.14026"><ele>301.0</ele><time>2026-05-03T18:16:59.783Z</time></trkpt><trkpt lat="53.166975" lon="-2.1403533"><ele>301.0</ele><time>2026-05-03T18:17:01.784Z</time></trkpt><trkpt lat="53.167" lon="-2.1404983"><ele>301.0</ele><time>2026-05-03T18:17:04.784Z</time></trkpt><trkpt lat="53.1670867" lon="-2.1405983"><ele>301.0</ele><time>2026-05-03T18:17:06.782Z</time></trkpt><trkpt lat="53.1671567" lon="-2.1407567"><ele>301.0</ele><time>2026-05-03T18:17:08.784Z</time></trkpt><trkpt lat="53.1672033" lon="-2.1409333"><ele>302.3333333333333</ele><time>2026-05-03T18:17:10.782Z</time></trkpt><trkpt lat="53.167255" lon="-2.1410683"><ele>303.66666666666663</ele><time>2026-05-03T18:17:12.783Z</time></trkpt><trkpt lat="53.1672783" lon="-2.1411933"><ele>305.0</ele><time>2026-05-03T18:17:14.783Z</time></trkpt><trkpt lat="53.1672783" lon="-2.1413133"><ele>306.3333333333333</ele><time>2026-05-03T18:17:16.783Z</time></trkpt><trkpt lat="53.16726" lon="-2.1414433"><ele>307.6666666666667</ele><time>2026-05-03T18:17:19.783Z</time></trkpt><trkpt lat="53.1672517" lon="-2.1415767"><ele>309.0</ele><time>2026-05-03T18:17:49.782Z</time></trkpt><trkpt lat="53.167255" lon="-2.1417367"><ele>309.0</ele><time>2026-05-03T18:17:52.782Z</time></trkpt><trkpt lat="53.1672533" lon="-2.1418717"><ele>309.0</ele><time>2026-05-03T18:17:54.782Z</time></trkpt><trkpt lat="53.1672517" lon="-2.1419783"><ele>309.0</ele><time>2026-05-03T18:17:56.784Z</time></trkpt><trkpt lat="53.16727" lon="-2.1421"><ele>309.0</ele><time>2026-05-03T18:17:59.784Z</time></trkpt><trkpt lat="53.1672967" lon="-2.142215"><ele>309.0</ele><time>2026-05-03T18:18:02.783Z</time></trkpt><trkpt lat="53.16735" lon="-2.1423183"><ele>309.0</ele><time>2026-05-03T18:18:05.784Z</time></trkpt><trkpt lat="53.1674" lon="-2.14241"><ele>315.0</ele><time>2026-05-03T18:18:08.787Z</time></trkpt><trkpt lat="53.1674483" lon="-2.1424917"><ele>315.0</ele><time>2026-05-03T18:18:10.783Z</time></trkpt><trkpt lat="53.167505" lon="-2.1425833"><ele>315.0</ele><time>2026-05-03T18:18:12.783Z</time></trkpt><trkpt lat="53.1675683" lon="-2.1426933"><ele>315.0</ele><time>2026-05-03T18:18:15.782Z</time></trkpt><trkpt lat="53.1676567" lon="-2.142755"><ele>315.0</ele><time>2026-05-03T18:18:18.784Z</time></trkpt></trkseg><trkseg><trkpt lat="53.1677235" lon="-2.1424666"><ele>315.1666666666667</ele><time>2026-05-04T08:37:56.795Z</time></trkpt><trkpt lat="53.1676998" lon="-2.1423412"><ele>315.3333333333333</ele><time>2026-05-04T08:37:59.795Z</time></trkpt><trkpt lat="53.1676545" lon="-2.1422225"><ele>315.5</ele><time>2026-05-04T08:38:02.795Z</time></trkpt><trkpt lat="53.1675946" lon="-2.1421438"><ele>315.66666666666663</ele><time>2026-05-04T08:38:05.795Z</time></trkpt><trkpt lat="53.1675322" lon="-2.1420794"><ele>315.8333333333333</ele><time>2026-05-04T08:38:07.794Z</time></trkpt><trkpt lat="53.1674776" lon="-2.1420159"><ele>316.0</ele><time>2026-05-04T08:38:09.795Z</time></trkpt><trkpt lat="53.1674142" lon="-2.1419544"><ele>315.00000000000006</ele><time>2026-05-04T08:38:12.794Z</time></trkpt><trkpt lat="53.1673542" lon="-2.1418598"><ele>314.0</ele><time>2026-05-04T08:38:15.794Z</time></trkpt><trkpt lat="53.1673099" lon="-2.1417845"><ele>313.0</ele><time>2026-05-04T08:38:17.794Z</time></trkpt><trkpt lat="53.1672823" lon="-2.1416843"><ele>312.0</ele><time>2026-05-04T08:38:19.795Z</time></trkpt><trkpt lat="53.1672587" lon="-2.1415602"><ele>311.0</ele><time>2026-05-04T08:38:21.796Z</time></trkpt><trkpt lat="53.1672498" lon="-2.1414425"><ele>310.00000000000006</ele><time>2026-05-04T08:38:23.795Z</time></trkpt><trkpt lat="53.1672735" lon="-2.1413419"><ele>309.0</ele><time>2026-05-04T08:38:27.795Z</time></trkpt><trkpt lat="53.1673117" lon="-2.1414283"><ele>309.0</ele><time>2026-05-04T08:38:54.795Z</time></trkpt><trkpt lat="53.1673" lon="-2.14125"><ele>309.0</ele><time>2026-05-04T08:42:18.794Z</time></trkpt><trkpt lat="53.1672817" lon="-2.1410983"><ele>309.0</ele><time>2026-05-04T08:42:20.794Z</time></trkpt><trkpt lat="53.1672517" lon="-2.1409733"><ele>309.0</ele><time>2026-05-04T08:42:22.795Z</time></trkpt><trkpt lat="53.167225" lon="-2.1408217"><ele>309.0</ele><time>2026-05-04T08:42:25.792Z</time></trkpt><trkpt lat="53.167195" lon="-2.140685"><ele>307.6666666666667</ele><time>2026-05-04T08:42:28.791Z</time></trkpt><trkpt lat="53.1671367" lon="-2.1405783"><ele>306.3333333333333</ele><time>2026-05-04T08:42:31.791Z</time></trkpt><trkpt lat="53.1670833" lon="-2.1405183"><ele>305.0</ele><time>2026-05-04T08:42:33.794Z</time></trkpt><trkpt lat="53.167015" lon="-2.1404483"><ele>303.66666666666663</ele><time>2026-05-04T08:42:36.791Z</time></trkpt><trkpt lat="53.167005" lon="-2.14033"><ele>302.3333333333333</ele><time>2026-05-04T08:42:39.795Z</time></trkpt><trkpt lat="53.1670767" lon="-2.140235"><ele>301.0</ele><time>2026-05-04T08:42:42.793Z</time></trkpt><trkpt lat="53.16715" lon="-2.1401917"><ele>301.0</ele><time>2026-05-04T08:42:44.792Z</time></trkpt><trkpt lat="53.167235" lon="-2.1401633"><ele>301.0</ele><time>2026-05-04T08:42:46.792Z</time></trkpt><trkpt lat="53.167325" lon="-2.1401167"><ele>301.0</ele><time>2026-05-04T08:42:48.791Z</time></trkpt><trkpt lat="53.1674133" lon="-2.1400617"><ele>301.0</ele><time>2026-05-04T08:42:50.793Z</time></trkpt><trkpt lat="53.1674933" lon="-2.140025"><ele>301.0</ele><time>2026-05-04T08:42:52.795Z</time></trkpt><trkpt lat="53.1675767" lon="-2.1399817"><ele>301.0</ele><time>2026-05-04T08:42:54.794Z</time></trkpt><trkpt lat="53.1676433" lon="-2.1399633"><ele>301.0</ele><time>2026-05-04T08:42:56.791Z</time></trkpt><trkpt lat="53.16771" lon="-2.1399533"><ele>301.0</ele><time>2026-05-04T08:42:59.792Z</time></trkpt><trkpt lat="53.1677233" lon="-2.1398467"><ele>301.0</ele><time>2026-05-04T08:43:03.792Z</time></trkpt><trkpt lat="53.1676483" lon="-2.1398067"><ele>301.0</ele><time>2026-05-04T08:43:06.792Z</time></trkpt><trkpt lat="53.1675783" lon="-2.1397333"><ele>301.0</ele><time>2026-05-04T08:43:08.791Z</time></trkpt><trkpt lat="53.1675033" lon="-2.1396317"><ele>301.0</ele><time>2026-05-04T08:43:10.792Z</time></trkpt><trkpt lat="53.1674317" lon="-2.1395367"><ele>297.75</ele><time>2026-05-04T08:43:12.791Z</time></trkpt><trkpt lat="53.1673567" lon="-2.1394433"><ele>294.5</ele><time>2026-05-04T08:43:14.794Z</time></trkpt><trkpt lat="53.167305" lon="-2.1393633"><ele>291.25</ele><time>2026-05-04T08:43:16.794Z</time></trkpt><trkpt lat="53.1672467" lon="-2.1392783"><ele>288.0</ele><time>2026-05-04T08:43:19.795Z</time></trkpt><trkpt lat="53.1661767" lon="-2.1391017"><ele>281.0</ele><time>2026-05-04T08:44:06.76Z</time></trkpt><trkpt lat="53.1657967" lon="-2.1388"><ele>274.0</ele><time>2026-05-04T08:44:09.791Z</time></trkpt><trkpt lat="53.1657317" lon="-2.1387683"><ele>275.0</ele><time>2026-05-04T08:44:10.791Z</time></trkpt><trkpt lat="53.16566" lon="-2.1387267"><ele>276.0</ele><time>2026-05-04T08:44:11.791Z</time></trkpt><trkpt lat="53.1655383" lon="-2.1386833"><ele>277.0</ele><time>2026-05-04T08:44:13.79Z</time></trkpt><trkpt lat="53.1654733" lon="-2.1386567"><ele>278.0</ele><time>2026-05-04T08:44:14.791Z</time></trkpt><trkpt lat="53.165355" lon="-2.138605"><ele>279.0</ele><time>2026-05-04T08:44:16.791Z</time></trkpt><trkpt lat="53.1652367" lon="-2.1385583"><ele>279.0</ele><time>2026-05-04T08:44:18.791Z</time></trkpt><trkpt lat="53.1651717" lon="-2.1385383"><ele>279.0</ele><time>2026-05-04T08:44:19.792Z</time></trkpt><trkpt lat="53.1651033" lon="-2.13852"><ele>279.0</ele><time>2026-05-04T08:44:20.791Z</time></trkpt><trkpt lat="53.1650267" lon="-2.1384983"><ele>279.0</ele><time>2026-05-04T08:44:21.791Z</time></trkpt><trkpt lat="53.16495" lon="-2.13847"><ele>279.0</ele><time>2026-05-04T08:44:22.79Z</time></trkpt><trkpt lat="53.1648717" lon="-2.1384417"><ele>279.0</ele><time>2026-05-04T08:44:23.791Z</time></trkpt><trkpt lat="53.1647917" lon="-2.1384133"><ele>279.59999999999997</ele><time>2026-05-04T08:44:24.791Z</time></trkpt><trkpt lat="53.1647083" lon="-2.1383833"><ele>280.2</ele><time>2026-05-04T08:44:25.792Z</time></trkpt><trkpt lat="53.16462" lon="-2.138345"><ele>280.79999999999995</ele><time>2026-05-04T08:44:26.791Z</time></trkpt><trkpt lat="53.1645317" lon="-2.1383033"><ele>281.4</ele><time>2026-05-04T08:44:27.79Z</time></trkpt><trkpt lat="53.1644467" lon="-2.13826"><ele>282.0</ele><time>2026-05-04T08:44:28.79Z</time></trkpt><trkpt lat="53.1643583" lon="-2.1382133"><ele>280.8</ele><time>2026-05-04T08:44:29.791Z</time></trkpt><trkpt lat="53.16427" lon="-2.1381717"><ele>279.6</ele><time>2026-05-04T08:44:30.79Z</time></trkpt><trkpt lat="53.1641767" lon="-2.1381183"><ele>278.40000000000003</ele><time>2026-05-04T08:44:31.791Z</time></trkpt><trkpt lat="53.1640667" lon="-2.1380533"><ele>277.2</ele><time>2026-05-04T08:44:32.791Z</time></trkpt><trkpt lat="53.1639483" lon="-2.1379833"><ele>276.0</ele><time>2026-05-04T08:44:33.792Z</time></trkpt><trkpt lat="53.163825" lon="-2.13792"><ele>276.0</ele><time>2026-05-04T08:44:34.791Z</time></trkpt><trkpt lat="53.1636983" lon="-2.1378533"><ele>276.0</ele><time>2026-05-04T08:44:35.791Z</time></trkpt><trkpt lat="53.1635683" lon="-2.137775"><ele>276.0</ele><time>2026-05-04T08:44:36.791Z</time></trkpt><trkpt lat="53.163425" lon="-2.137685"><ele>276.0</ele><time>2026-05-04T08:44:37.791Z</time></trkpt><trkpt lat="53.1632783" lon="-2.1375917"><ele>276.75</ele><time>2026-05-04T08:44:38.791Z</time></trkpt><trkpt lat="53.1631367" lon="-2.1374933"><ele>277.5</ele><time>2026-05-04T08:44:39.791Z</time></trkpt><trkpt lat="53.163005" lon="-2.1374"><ele>278.25</ele><time>2026-05-04T08:44:40.791Z</time></trkpt><trkpt lat="53.1628733" lon="-2.1373333"><ele>279.0</ele><time>2026-05-04T08:44:41.79Z</time></trkpt><trkpt lat="53.1627367" lon="-2.1372617"><ele>279.0</ele><time>2026-05-04T08:44:42.79Z</time></trkpt><trkpt lat="53.1625883" lon="-2.1371733"><ele>279.0</ele><time>2026-05-04T08:44:43.792Z</time></trkpt><trkpt lat="53.1624417" lon="-2.1370733"><ele>279.0</ele><time>2026-05-04T08:44:44.791Z</time></trkpt><trkpt lat="53.1623" lon="-2.1369783"><ele>279.0</ele><time>2026-05-04T08:44:45.791Z</time></trkpt><trkpt lat="53.16215" lon="-2.1368717"><ele>279.0</ele><time>2026-05-04T08:44:46.791Z</time></trkpt><trkpt lat="53.1619983" lon="-2.1367717"><ele>279.0</ele><time>2026-05-04T08:44:47.791Z</time></trkpt><trkpt lat="53.16185" lon="-2.1366817"><ele>279.0</ele><time>2026-05-04T08:44:48.791Z</time></trkpt><trkpt lat="53.1617067" lon="-2.1365983"><ele>279.0</ele><time>2026-05-04T08:44:49.791Z</time></trkpt><trkpt lat="53.1615617" lon="-2.1365267"><ele>279.0</ele><time>2026-05-04T08:44:50.791Z</time></trkpt><trkpt lat="53.161425" lon="-2.1364617"><ele>279.0</ele><time>2026-05-04T08:44:51.791Z</time></trkpt><trkpt lat="53.1612917" lon="-2.1364017"><ele>277.25</ele><time>2026-05-04T08:44:52.791Z</time></trkpt><trkpt lat="53.161165" lon="-2.13634"><ele>275.5</ele><time>2026-05-04T08:44:53.791Z</time></trkpt><trkpt lat="53.1610383" lon="-2.136275"><ele>273.75</ele><time>2026-05-04T08:44:54.792Z</time></trkpt><trkpt lat="53.1609183" lon="-2.1362117"><ele>272.0</ele><time>2026-05-04T08:44:55.79Z</time></trkpt><trkpt lat="53.1607983" lon="-2.1361483"><ele>273.0</ele><time>2026-05-04T08:44:56.791Z</time></trkpt><trkpt lat="53.1606783" lon="-2.1360817"><ele>274.0</ele><time>2026-05-04T08:44:57.79Z</time></trkpt><trkpt lat="53.160555" lon="-2.1360183"><ele>275.0</ele><time>2026-05-04T08:44:58.791Z</time></trkpt><trkpt lat="53.1604283" lon="-2.1359633"><ele>276.0</ele><time>2026-05-04T08:44:59.792Z</time></trkpt><trkpt lat="53.1603117" lon="-2.1359083"><ele>276.0</ele><time>2026-05-04T08:45:00.792Z</time></trkpt><trkpt lat="53.1601933" lon="-2.135855"><ele>276.0</ele><time>2026-05-04T08:45:01.792Z</time></trkpt><trkpt lat="53.1600733" lon="-2.1358"><ele>276.0</ele><time>2026-05-04T08:45:02.79Z</time></trkpt><trkpt lat="53.1599467" lon="-2.1357317"><ele>276.0</ele><time>2026-05-04T08:45:03.79Z</time></trkpt><trkpt lat="53.1598217" lon="-2.135665"><ele>274.75</ele><time>2026-05-04T08:45:04.791Z</time></trkpt><trkpt lat="53.1596917" lon="-2.13559"><ele>273.5</ele><time>2026-05-04T08:45:05.791Z</time></trkpt><trkpt lat="53.159555" lon="-2.1355033"><ele>272.25</ele><time>2026-05-04T08:45:06.791Z</time></trkpt><trkpt lat="53.15941" lon="-2.135405"><ele>271.0</ele><time>2026-05-04T08:45:07.791Z</time></trkpt><trkpt lat="53.159265" lon="-2.13531"><ele>271.0</ele><time>2026-05-04T08:45:08.791Z</time></trkpt><trkpt lat="53.15912" lon="-2.135215"><ele>271.0</ele><time>2026-05-04T08:45:09.795Z</time></trkpt><trkpt lat="53.1589833" lon="-2.13513"><ele>271.0</ele><time>2026-05-04T08:45:10.79Z</time></trkpt><trkpt lat="53.158845" lon="-2.13505"><ele>271.0</ele><time>2026-05-04T08:45:11.794Z</time></trkpt><trkpt lat="53.1587083" lon="-2.1349717"><ele>270.75</ele><time>2026-05-04T08:45:12.793Z</time></trkpt><trkpt lat="53.1585733" lon="-2.1348983"><ele>270.5</ele><time>2026-05-04T08:45:13.791Z</time></trkpt><trkpt lat="53.1584433" lon="-2.1348367"><ele>270.25</ele><time>2026-05-04T08:45:14.792Z</time></trkpt><trkpt lat="53.1583133" lon="-2.1347833"><ele>270.0</ele><time>2026-05-04T08:45:15.794Z</time></trkpt><trkpt lat="53.1581833" lon="-2.1347233"><ele>270.0</ele><time>2026-05-04T08:45:16.792Z</time></trkpt><trkpt lat="53.15806" lon="-2.1346733"><ele>270.0</ele><time>2026-05-04T08:45:17.791Z</time></trkpt><trkpt lat="53.157945" lon="-2.1346333"><ele>270.0</ele><time>2026-05-04T08:45:18.796Z</time></trkpt><trkpt lat="53.1578367" lon="-2.1346"><ele>270.0</ele><time>2026-05-04T08:45:19.792Z</time></trkpt><trkpt lat="53.15773" lon="-2.1345583"><ele>270.0</ele><time>2026-05-04T08:45:20.791Z</time></trkpt><trkpt lat="53.1576283" lon="-2.1345317"><ele>270.0</ele><time>2026-05-04T08:45:21.795Z</time></trkpt><trkpt lat="53.157535" lon="-2.1345283"><ele>270.0</ele><time>2026-05-04T08:45:22.795Z</time></trkpt><trkpt lat="53.157445" lon="-2.1345567"><ele>270.0</ele><time>2026-05-04T08:45:23.794Z</time></trkpt><trkpt lat="53.1573567" lon="-2.1345983"><ele>270.0</ele><time>2026-05-04T08:45:24.79Z</time></trkpt><trkpt lat="53.1572767" lon="-2.1346683"><ele>269.75</ele><time>2026-05-04T08:45:25.791Z</time></trkpt><trkpt lat="53.1571867" lon="-2.1347483"><ele>269.5</ele><time>2026-05-04T08:45:26.791Z</time></trkpt><trkpt lat="53.1571017" lon="-2.1348717"><ele>269.25</ele><time>2026-05-04T08:45:27.791Z</time></trkpt><trkpt lat="53.1570083" lon="-2.1349967"><ele>269.0</ele><time>2026-05-04T08:45:28.791Z</time></trkpt><trkpt lat="53.156915" lon="-2.1351183"><ele>270.0</ele><time>2026-05-04T08:45:29.791Z</time></trkpt><trkpt lat="53.1568217" lon="-2.1352417"><ele>271.0</ele><time>2026-05-04T08:45:30.791Z</time></trkpt><trkpt lat="53.156725" lon="-2.13538"><ele>272.0</ele><time>2026-05-04T08:45:31.791Z</time></trkpt><trkpt lat="53.156625" lon="-2.13551"><ele>273.0</ele><time>2026-05-04T08:45:32.791Z</time></trkpt><trkpt lat="53.156525" lon="-2.1356283"><ele>274.0</ele><time>2026-05-04T08:45:33.791Z</time></trkpt><trkpt lat="53.1564383" lon="-2.1357283"><ele>275.0</ele><time>2026-05-04T08:45:34.791Z</time></trkpt><trkpt lat="53.15636" lon="-2.13581"><ele>276.0</ele><time>2026-05-04T08:45:35.792Z</time></trkpt><trkpt lat="53.156275" lon="-2.1358833"><ele>277.0</ele><time>2026-05-04T08:45:36.795Z</time></trkpt><trkpt lat="53.1561767" lon="-2.1359533"><ele>278.0</ele><time>2026-05-04T08:45:37.792Z</time></trkpt><trkpt lat="53.1560617" lon="-2.1360167"><ele>278.0</ele><time>2026-05-04T08:45:38.791Z</time></trkpt><trkpt lat="53.1559317" lon="-2.13608"><ele>278.0</ele><time>2026-05-04T08:45:39.795Z</time></trkpt><trkpt lat="53.155795" lon="-2.1361433"><ele>278.0</ele><time>2026-05-04T08:45:40.791Z</time></trkpt><trkpt lat="53.1556583" lon="-2.1362133"><ele>278.0</ele><time>2026-05-04T08:45:41.791Z</time></trkpt><trkpt lat="53.15553" lon="-2.136285"><ele>278.5</ele><time>2026-05-04T08:45:42.792Z</time></trkpt><trkpt lat="53.1554183" lon="-2.1363483"><ele>279.0</ele><time>2026-05-04T08:45:43.791Z</time></trkpt><trkpt lat="53.1553217" lon="-2.1364"><ele>279.5</ele><time>2026-05-04T08:45:44.79Z</time></trkpt><trkpt lat="53.1552433" lon="-2.13644"><ele>280.0</ele><time>2026-05-04T08:45:45.791Z</time></trkpt><trkpt lat="53.1551733" lon="-2.1364783"><ele>280.5</ele><time>2026-05-04T08:45:46.792Z</time></trkpt><trkpt lat="53.1551117" lon="-2.1365133"><ele>281.0</ele><time>2026-05-04T08:45:47.794Z</time></trkpt><trkpt lat="53.1550217" lon="-2.13656"><ele>281.0</ele><time>2026-05-04T08:45:49.794Z</time></trkpt><trkpt lat="53.1549567" lon="-2.13653"><ele>281.0</ele><time>2026-05-04T08:45:51.793Z</time></trkpt><trkpt lat="53.154875" lon="-2.1364317"><ele>281.0</ele><time>2026-05-04T08:45:53.795Z</time></trkpt><trkpt lat="53.1548117" lon="-2.1363317"><ele>281.0</ele><time>2026-05-04T08:45:54.795Z</time></trkpt><trkpt lat="53.1547333" lon="-2.13621"><ele>281.0</ele><time>2026-05-04T08:45:55.795Z</time></trkpt><trkpt lat="53.154645" lon="-2.1360617"><ele>280.6666666666667</ele><time>2026-05-04T08:45:56.794Z</time></trkpt><trkpt lat="53.1545533" lon="-2.135885"><ele>280.3333333333333</ele><time>2026-05-04T08:45:57.79Z</time></trkpt><trkpt lat="53.1544633" lon="-2.1356767"><ele>280.0</ele><time>2026-05-04T08:45:58.794Z</time></trkpt><trkpt lat="53.154385" lon="-2.1354433"><ele>278.66666666666663</ele><time>2026-05-04T08:45:59.795Z</time></trkpt><trkpt lat="53.1543117" lon="-2.1351867"><ele>277.3333333333333</ele><time>2026-05-04T08:46:00.795Z</time></trkpt><trkpt lat="53.1542467" lon="-2.1349133"><ele>276.0</ele><time>2026-05-04T08:46:01.795Z</time></trkpt><trkpt lat="53.1541817" lon="-2.1346383"><ele>274.3333333333333</ele><time>2026-05-04T08:46:02.795Z</time></trkpt><trkpt lat="53.15411" lon="-2.134355"><ele>272.66666666666663</ele><time>2026-05-04T08:46:03.793Z</time></trkpt><trkpt lat="53.1540317" lon="-2.1340633"><ele>271.0</ele><time>2026-05-04T08:46:04.795Z</time></trkpt><trkpt lat="53.1539467" lon="-2.133775"><ele>269.3333333333333</ele><time>2026-05-04T08:46:05.794Z</time></trkpt><trkpt lat="53.1538633" lon="-2.13349"><ele>267.6666666666667</ele><time>2026-05-04T08:46:06.794Z</time></trkpt><trkpt lat="53.1537817" lon="-2.1332017"><ele>266.0</ele><time>2026-05-04T08:46:07.794Z</time></trkpt><trkpt lat="53.1537" lon="-2.1329067"><ele>264.0</ele><time>2026-05-04T08:46:08.794Z</time></trkpt><trkpt lat="53.15362" lon="-2.1326017"><ele>262.0</ele><time>2026-05-04T08:46:09.794Z</time></trkpt><trkpt lat="53.1535433" lon="-2.13229"><ele>260.0</ele><time>2026-05-04T08:46:10.791Z</time></trkpt><trkpt lat="53.1534683" lon="-2.131985"><ele>258.0</ele><time>2026-05-04T08:46:11.794Z</time></trkpt><trkpt lat="53.1533983" lon="-2.1316733"><ele>256.0</ele><time>2026-05-04T08:46:12.793Z</time></trkpt><trkpt lat="53.15334" lon="-2.13136"><ele>254.0</ele><time>2026-05-04T08:46:13.795Z</time></trkpt><trkpt lat="53.1533" lon="-2.131055"><ele>252.33333333333334</ele><time>2026-05-04T08:46:14.794Z</time></trkpt><trkpt lat="53.1532683" lon="-2.130745"><ele>250.66666666666669</ele><time>2026-05-04T08:46:15.795Z</time></trkpt><trkpt lat="53.1532417" lon="-2.1304333"><ele>249.0</ele><time>2026-05-04T08:46:16.791Z</time></trkpt><trkpt lat="53.1532183" lon="-2.1301167"><ele>245.0</ele><time>2026-05-04T08:46:17.795Z</time></trkpt><trkpt lat="53.1532033" lon="-2.1297917"><ele>241.0</ele><time>2026-05-04T08:46:18.79Z</time></trkpt><trkpt lat="53.1531967" lon="-2.1294617"><ele>237.0</ele><time>2026-05-04T08:46:19.795Z</time></trkpt><trkpt lat="53.1532017" lon="-2.12913"><ele>235.66666666666669</ele><time>2026-05-04T08:46:20.794Z</time></trkpt><trkpt lat="53.1532117" lon="-2.1288017"><ele>234.33333333333334</ele><time>2026-05-04T08:46:21.793Z</time></trkpt><trkpt lat="53.1532217" lon="-2.1284717"><ele>233.0</ele><time>2026-05-04T08:46:22.79Z</time></trkpt><trkpt lat="53.1532333" lon="-2.12815"><ele>232.0</ele><time>2026-05-04T08:46:23.794Z</time></trkpt><trkpt lat="53.1532383" lon="-2.1278283"><ele>231.0</ele><time>2026-05-04T08:46:24.794Z</time></trkpt><trkpt lat="53.1532417" lon="-2.1275"><ele>230.0</ele><time>2026-05-04T08:46:25.795Z</time></trkpt><trkpt lat="53.1532483" lon="-2.1271617"><ele>229.33333333333334</ele><time>2026-05-04T08:46:26.795Z</time></trkpt><trkpt lat="53.1532633" lon="-2.1268117"><ele>228.66666666666669</ele><time>2026-05-04T08:46:27.795Z</time></trkpt><trkpt lat="53.153275" lon="-2.1264517"><ele>228.0</ele><time>2026-05-04T08:46:28.791Z</time></trkpt><trkpt lat="53.1532783" lon="-2.1260933"><ele>227.66666666666669</ele><time>2026-05-04T08:46:29.794Z</time></trkpt><trkpt lat="53.1532783" lon="-2.1257483"><ele>227.33333333333334</ele><time>2026-05-04T08:46:30.795Z</time></trkpt><trkpt lat="53.153285" lon="-2.1254167"><ele>227.0</ele><time>2026-05-04T08:46:31.792Z</time></trkpt><trkpt lat="53.1533033" lon="-2.125095"><ele>226.33333333333334</ele><time>2026-05-04T08:46:32.795Z</time></trkpt><trkpt lat="53.1533333" lon="-2.1247683"><ele>225.66666666666669</ele><time>2026-05-04T08:46:33.792Z</time></trkpt><trkpt lat="53.153375" lon="-2.1244417"><ele>225.0</ele><time>2026-05-04T08:46:34.794Z</time></trkpt><trkpt lat="53.1534233" lon="-2.124115"><ele>224.0</ele><time>2026-05-04T08:46:35.793Z</time></trkpt><trkpt lat="53.1534733" lon="-2.123775"><ele>223.0</ele><time>2026-05-04T08:46:36.791Z</time></trkpt><trkpt lat="53.1535317" lon="-2.1234317"><ele>222.0</ele><time>2026-05-04T08:46:37.793Z</time></trkpt><trkpt lat="53.1535883" lon="-2.1230767"><ele>221.0</ele><time>2026-05-04T08:46:38.791Z</time></trkpt><trkpt lat="53.153645" lon="-2.1227317"><ele>220.0</ele><time>2026-05-04T08:46:39.795Z</time></trkpt><trkpt lat="53.1537" lon="-2.1224033"><ele>219.0</ele><time>2026-05-04T08:46:40.792Z</time></trkpt><trkpt lat="53.153755" lon="-2.1220833"><ele>217.66666666666669</ele><time>2026-05-04T08:46:41.791Z</time></trkpt><trkpt lat="53.15381" lon="-2.1217633"><ele>216.33333333333334</ele><time>2026-05-04T08:46:42.791Z</time></trkpt><trkpt lat="53.1538483" lon="-2.1214233"><ele>215.0</ele><time>2026-05-04T08:46:43.792Z</time></trkpt><trkpt lat="53.1538767" lon="-2.1210617"><ele>212.0</ele><time>2026-05-04T08:46:44.792Z</time></trkpt><trkpt lat="53.1538967" lon="-2.12069"><ele>209.0</ele><time>2026-05-04T08:46:45.791Z</time></trkpt><trkpt lat="53.1539083" lon="-2.1203217"><ele>206.0</ele><time>2026-05-04T08:46:46.79Z</time></trkpt><trkpt lat="53.1539217" lon="-2.1199567"><ele>205.0</ele><time>2026-05-04T08:46:47.791Z</time></trkpt><trkpt lat="53.1539383" lon="-2.119595"><ele>204.0</ele><time>2026-05-04T08:46:48.791Z</time></trkpt><trkpt lat="53.1539567" lon="-2.1192383"><ele>203.0</ele><time>2026-05-04T08:46:49.794Z</time></trkpt><trkpt lat="53.15398" lon="-2.1189033"><ele>202.33333333333334</ele><time>2026-05-04T08:46:50.792Z</time></trkpt><trkpt lat="53.15399" lon="-2.118575"><ele>201.66666666666669</ele><time>2026-05-04T08:46:51.791Z</time></trkpt><trkpt lat="53.1539717" lon="-2.1182583"><ele>201.0</ele><time>2026-05-04T08:46:52.794Z</time></trkpt><trkpt lat="53.1539267" lon="-2.1179483"><ele>201.0</ele><time>2026-05-04T08:46:53.795Z</time></trkpt><trkpt lat="53.1538717" lon="-2.1176433"><ele>201.0</ele><time>2026-05-04T08:46:54.791Z</time></trkpt><trkpt lat="53.1538067" lon="-2.1173333"><ele>201.0</ele><time>2026-05-04T08:46:55.791Z</time></trkpt><trkpt lat="53.1537433" lon="-2.1170283"><ele>203.33333333333331</ele><time>2026-05-04T08:46:56.79Z</time></trkpt><trkpt lat="53.1536833" lon="-2.11674"><ele>205.66666666666666</ele><time>2026-05-04T08:46:57.791Z</time></trkpt><trkpt lat="53.1536317" lon="-2.116465"><ele>208.0</ele><time>2026-05-04T08:46:58.79Z</time></trkpt><trkpt lat="53.1535767" lon="-2.1161933"><ele>208.66666666666666</ele><time>2026-05-04T08:46:59.795Z</time></trkpt><trkpt lat="53.1535267" lon="-2.115925"><ele>209.33333333333331</ele><time>2026-05-04T08:47:00.791Z</time></trkpt><trkpt lat="53.153475" lon="-2.1156367"><ele>210.0</ele><time>2026-05-04T08:47:01.793Z</time></trkpt><trkpt lat="53.1534367" lon="-2.1153367"><ele>210.0</ele><time>2026-05-04T08:47:02.791Z</time></trkpt><trkpt lat="53.1534183" lon="-2.1150067"><ele>210.0</ele><time>2026-05-04T08:47:03.791Z</time></trkpt><trkpt lat="53.153405" lon="-2.1146583"><ele>210.0</ele><time>2026-05-04T08:47:04.792Z</time></trkpt><trkpt lat="53.1534033" lon="-2.1143083"><ele>208.66666666666669</ele><time>2026-05-04T08:47:05.795Z</time></trkpt><trkpt lat="53.1534017" lon="-2.1139617"><ele>207.33333333333334</ele><time>2026-05-04T08:47:06.791Z</time></trkpt><trkpt lat="53.1534" lon="-2.1136333"><ele>206.0</ele><time>2026-05-04T08:47:07.79Z</time></trkpt><trkpt lat="53.1534067" lon="-2.1133233"><ele>207.0</ele><time>2026-05-04T08:47:08.792Z</time></trkpt><trkpt lat="53.1534183" lon="-2.113025"><ele>208.0</ele><time>2026-05-04T08:47:09.793Z</time></trkpt><trkpt lat="53.1534267" lon="-2.1127483"><ele>209.0</ele><time>2026-05-04T08:47:10.791Z</time></trkpt><trkpt lat="53.153435" lon="-2.112495"><ele>209.75</ele><time>2026-05-04T08:47:11.791Z</time></trkpt><trkpt lat="53.1534367" lon="-2.1122567"><ele>210.5</ele><time>2026-05-04T08:47:12.791Z</time></trkpt><trkpt lat="53.1534267" lon="-2.1120283"><ele>211.25</ele><time>2026-05-04T08:47:13.791Z</time></trkpt><trkpt lat="53.1534067" lon="-2.1118067"><ele>212.0</ele><time>2026-05-04T08:47:14.792Z</time></trkpt><trkpt lat="53.1533683" lon="-2.1115867"><ele>212.0</ele><time>2026-05-04T08:47:15.791Z</time></trkpt><trkpt lat="53.1533183" lon="-2.11138"><ele>212.0</ele><time>2026-05-04T08:47:16.791Z</time></trkpt><trkpt lat="53.1532483" lon="-2.11119"><ele>212.0</ele><time>2026-05-04T08:47:17.792Z</time></trkpt><trkpt lat="53.15316" lon="-2.11101"><ele>212.0</ele><time>2026-05-04T08:47:18.791Z</time></trkpt><trkpt lat="53.1530633" lon="-2.11084"><ele>211.66666666666669</ele><time>2026-05-04T08:47:19.792Z</time></trkpt><trkpt lat="53.152965" lon="-2.11066"><ele>211.33333333333331</ele><time>2026-05-04T08:47:20.791Z</time></trkpt><trkpt lat="53.15286" lon="-2.1104533"><ele>211.0</ele><time>2026-05-04T08:47:21.791Z</time></trkpt><trkpt lat="53.1527567" lon="-2.110225"><ele>211.0</ele><time>2026-05-04T08:47:22.792Z</time></trkpt><trkpt lat="53.1526683" lon="-2.1099817"><ele>211.0</ele><time>2026-05-04T08:47:23.792Z</time></trkpt><trkpt lat="53.15258" lon="-2.1097383"><ele>211.0</ele><time>2026-05-04T08:47:24.791Z</time></trkpt><trkpt lat="53.1524917" lon="-2.1094983"><ele>210.66666666666666</ele><time>2026-05-04T08:47:25.794Z</time></trkpt><trkpt lat="53.152395" lon="-2.1092767"><ele>210.33333333333331</ele><time>2026-05-04T08:47:26.79Z</time></trkpt><trkpt lat="53.15228" lon="-2.1090717"><ele>210.0</ele><time>2026-05-04T08:47:27.792Z</time></trkpt><trkpt lat="53.1521467" lon="-2.10888"><ele>210.0</ele><time>2026-05-04T08:47:28.795Z</time></trkpt><trkpt lat="53.152005" lon="-2.10871"><ele>210.0</ele><time>2026-05-04T08:47:29.793Z</time></trkpt><trkpt lat="53.1518717" lon="-2.1085417"><ele>210.0</ele><time>2026-05-04T08:47:30.792Z</time></trkpt><trkpt lat="53.1517567" lon="-2.108365"><ele>209.66666666666669</ele><time>2026-05-04T08:47:31.795Z</time></trkpt><trkpt lat="53.15167" lon="-2.10816"><ele>209.33333333333334</ele><time>2026-05-04T08:47:32.791Z</time></trkpt><trkpt lat="53.1515933" lon="-2.107935"><ele>209.0</ele><time>2026-05-04T08:47:33.792Z</time></trkpt><trkpt lat="53.1515383" lon="-2.1077033"><ele>209.0</ele><time>2026-05-04T08:47:34.791Z</time></trkpt><trkpt lat="53.15149" lon="-2.1074733"><ele>209.0</ele><time>2026-05-04T08:47:35.795Z</time></trkpt><trkpt lat="53.151445" lon="-2.1072417"><ele>209.0</ele><time>2026-05-04T08:47:36.791Z</time></trkpt><trkpt lat="53.1513983" lon="-2.107005"><ele>209.0</ele><time>2026-05-04T08:47:37.792Z</time></trkpt><trkpt lat="53.1513533" lon="-2.1067717"><ele>209.66666666666669</ele><time>2026-05-04T08:47:38.791Z</time></trkpt><trkpt lat="53.1513067" lon="-2.1065333"><ele>210.33333333333331</ele><time>2026-05-04T08:47:39.794Z</time></trkpt><trkpt lat="53.1512683" lon="-2.106295"><ele>211.0</ele><time>2026-05-04T08:47:40.791Z</time></trkpt><trkpt lat="53.151235" lon="-2.1060483"><ele>211.0</ele><time>2026-05-04T08:47:41.791Z</time></trkpt><trkpt lat="53.151205" lon="-2.1058083"><ele>211.0</ele><time>2026-05-04T08:47:42.791Z</time></trkpt><trkpt lat="53.151185" lon="-2.1055917"><ele>211.0</ele><time>2026-05-04T08:47:43.792Z</time></trkpt><trkpt lat="53.151175" lon="-2.1053917"><ele>211.0</ele><time>2026-05-04T08:47:44.791Z</time></trkpt><trkpt lat="53.1511683" lon="-2.1051933"><ele>210.5</ele><time>2026-05-04T08:47:45.79Z</time></trkpt><trkpt lat="53.1511633" lon="-2.10499"><ele>210.0</ele><time>2026-05-04T08:47:46.792Z</time></trkpt><trkpt lat="53.1511617" lon="-2.10478"><ele>209.5</ele><time>2026-05-04T08:47:47.79Z</time></trkpt><trkpt lat="53.1511633" lon="-2.1045683"><ele>209.0</ele><time>2026-05-04T08:47:48.791Z</time></trkpt><trkpt lat="53.151175" lon="-2.1043483"><ele>208.25</ele><time>2026-05-04T08:47:49.79Z</time></trkpt><trkpt lat="53.1511917" lon="-2.104115"><ele>207.5</ele><time>2026-05-04T08:47:50.791Z</time></trkpt><trkpt lat="53.15121" lon="-2.1038667"><ele>206.75</ele><time>2026-05-04T08:47:51.791Z</time></trkpt><trkpt lat="53.1512317" lon="-2.103605"><ele>206.0</ele><time>2026-05-04T08:47:52.791Z</time></trkpt><trkpt lat="53.1512617" lon="-2.1033433"><ele>204.0</ele><time>2026-05-04T08:47:53.791Z</time></trkpt><trkpt lat="53.1512883" lon="-2.103075"><ele>202.0</ele><time>2026-05-04T08:47:54.791Z</time></trkpt><trkpt lat="53.1513183" lon="-2.1028067"><ele>200.0</ele><time>2026-05-04T08:47:55.791Z</time></trkpt><trkpt lat="53.15134" lon="-2.1025483"><ele>199.0</ele><time>2026-05-04T08:47:56.791Z</time></trkpt><trkpt lat="53.1513517" lon="-2.102285"><ele>198.0</ele><time>2026-05-04T08:47:57.791Z</time></trkpt><trkpt lat="53.1513583" lon="-2.1020233"><ele>197.0</ele><time>2026-05-04T08:47:58.79Z</time></trkpt><trkpt lat="53.151355" lon="-2.1017633"><ele>195.5</ele><time>2026-05-04T08:47:59.794Z</time></trkpt><trkpt lat="53.1513417" lon="-2.1015083"><ele>194.0</ele><time>2026-05-04T08:48:00.79Z</time></trkpt><trkpt lat="53.1513233" lon="-2.101265"><ele>192.5</ele><time>2026-05-04T08:48:01.792Z</time></trkpt><trkpt lat="53.15131" lon="-2.1010317"><ele>191.0</ele><time>2026-05-04T08:48:02.791Z</time></trkpt><trkpt lat="53.1513167" lon="-2.1007983"><ele>188.66666666666666</ele><time>2026-05-04T08:48:03.79Z</time></trkpt><trkpt lat="53.1513317" lon="-2.1005467"><ele>186.33333333333334</ele><time>2026-05-04T08:48:04.79Z</time></trkpt><trkpt lat="53.1513567" lon="-2.10029"><ele>184.0</ele><time>2026-05-04T08:48:05.791Z</time></trkpt><trkpt lat="53.1513883" lon="-2.1000417"><ele>182.66666666666669</ele><time>2026-05-04T08:48:06.791Z</time></trkpt><trkpt lat="53.15141" lon="-2.0997883"><ele>181.33333333333334</ele><time>2026-05-04T08:48:07.791Z</time></trkpt><trkpt lat="53.15144" lon="-2.0995383"><ele>180.0</ele><time>2026-05-04T08:48:08.791Z</time></trkpt><trkpt lat="53.1514667" lon="-2.09929"><ele>179.5</ele><time>2026-05-04T08:48:09.791Z</time></trkpt><trkpt lat="53.151485" lon="-2.09906"><ele>179.0</ele><time>2026-05-04T08:48:10.791Z</time></trkpt><trkpt lat="53.1514933" lon="-2.098845"><ele>178.5</ele><time>2026-05-04T08:48:11.791Z</time></trkpt><trkpt lat="53.1514833" lon="-2.0986383"><ele>178.0</ele><time>2026-05-04T08:48:12.791Z</time></trkpt><trkpt lat="53.151445" lon="-2.0984383"><ele>177.25</ele><time>2026-05-04T08:48:13.793Z</time></trkpt><trkpt lat="53.1513717" lon="-2.0982417"><ele>176.5</ele><time>2026-05-04T08:48:14.792Z</time></trkpt><trkpt lat="53.15129" lon="-2.0980433"><ele>175.75</ele><time>2026-05-04T08:48:15.791Z</time></trkpt><trkpt lat="53.1512" lon="-2.097835"><ele>175.0</ele><time>2026-05-04T08:48:16.791Z</time></trkpt><trkpt lat="53.1511217" lon="-2.09764"><ele>175.0</ele><time>2026-05-04T08:48:17.791Z</time></trkpt><trkpt lat="53.1510583" lon="-2.0974583"><ele>175.0</ele><time>2026-05-04T08:48:18.795Z</time></trkpt><trkpt lat="53.151015" lon="-2.097275"><ele>175.0</ele><time>2026-05-04T08:48:19.791Z</time></trkpt><trkpt lat="53.1509983" lon="-2.0970883"><ele>175.0</ele><time>2026-05-04T08:48:20.791Z</time></trkpt><trkpt lat="53.1510183" lon="-2.0968867"><ele>174.0</ele><time>2026-05-04T08:48:21.791Z</time></trkpt><trkpt lat="53.1510517" lon="-2.0966533"><ele>173.0</ele><time>2026-05-04T08:48:22.791Z</time></trkpt><trkpt lat="53.1510967" lon="-2.0964017"><ele>172.0</ele><time>2026-05-04T08:48:23.793Z</time></trkpt><trkpt lat="53.1511417" lon="-2.09614"><ele>171.33333333333334</ele><time>2026-05-04T08:48:24.792Z</time></trkpt><trkpt lat="53.1511833" lon="-2.0958683"><ele>170.66666666666666</ele><time>2026-05-04T08:48:25.791Z</time></trkpt><trkpt lat="53.151225" lon="-2.095595"><ele>170.0</ele><time>2026-05-04T08:48:26.792Z</time></trkpt><trkpt lat="53.1512617" lon="-2.0953233"><ele>169.66666666666666</ele><time>2026-05-04T08:48:27.79Z</time></trkpt><trkpt lat="53.151295" lon="-2.0950517"><ele>169.33333333333334</ele><time>2026-05-04T08:48:28.791Z</time></trkpt><trkpt lat="53.1513267" lon="-2.0947867"><ele>169.0</ele><time>2026-05-04T08:48:29.793Z</time></trkpt><trkpt lat="53.1513633" lon="-2.0945317"><ele>169.0</ele><time>2026-05-04T08:48:30.791Z</time></trkpt><trkpt lat="53.1514017" lon="-2.094275"><ele>169.0</ele><time>2026-05-04T08:48:31.791Z</time></trkpt><trkpt lat="53.1514483" lon="-2.094015"><ele>169.0</ele><time>2026-05-04T08:48:32.79Z</time></trkpt><trkpt lat="53.151495" lon="-2.0937367"><ele>169.66666666666669</ele><time>2026-05-04T08:48:33.794Z</time></trkpt><trkpt lat="53.151545" lon="-2.093465"><ele>170.33333333333334</ele><time>2026-05-04T08:48:34.795Z</time></trkpt><trkpt lat="53.1515983" lon="-2.0932117"><ele>171.0</ele><time>2026-05-04T08:48:35.792Z</time></trkpt><trkpt lat="53.15166" lon="-2.092985"><ele>171.75</ele><time>2026-05-04T08:48:36.791Z</time></trkpt><trkpt lat="53.1517317" lon="-2.092775"><ele>172.5</ele><time>2026-05-04T08:48:37.794Z</time></trkpt><trkpt lat="53.1518117" lon="-2.0926"><ele>173.25</ele><time>2026-05-04T08:48:38.79Z</time></trkpt><trkpt lat="53.151895" lon="-2.092475"><ele>174.0</ele><time>2026-05-04T08:48:39.795Z</time></trkpt><trkpt lat="53.151965" lon="-2.0924017"><ele>174.66666666666666</ele><time>2026-05-04T08:48:40.794Z</time></trkpt><trkpt lat="53.1520283" lon="-2.0923583"><ele>175.33333333333334</ele><time>2026-05-04T08:48:41.793Z</time></trkpt><trkpt lat="53.1521033" lon="-2.09233"><ele>176.0</ele><time>2026-05-04T08:48:43.795Z</time></trkpt><trkpt lat="53.15218" lon="-2.092335"><ele>176.66666666666669</ele><time>2026-05-04T08:48:46.792Z</time></trkpt><trkpt lat="53.1522533" lon="-2.0922417"><ele>177.33333333333334</ele><time>2026-05-04T08:48:54.79Z</time></trkpt><trkpt lat="53.1523417" lon="-2.0921617"><ele>178.0</ele><time>2026-05-04T08:48:56.794Z</time></trkpt><trkpt lat="53.1524517" lon="-2.0920733"><ele>179.0</ele><time>2026-05-04T08:48:58.791Z</time></trkpt><trkpt lat="53.1525217" lon="-2.0920167"><ele>180.0</ele><time>2026-05-04T08:48:59.791Z</time></trkpt><trkpt lat="53.1525967" lon="-2.09194"><ele>181.0</ele><time>2026-05-04T08:49:00.79Z</time></trkpt><trkpt lat="53.1526967" lon="-2.0918583"><ele>182.0</ele><time>2026-05-04T08:49:01.791Z</time></trkpt><trkpt lat="53.1528017" lon="-2.0917617"><ele>183.0</ele><time>2026-05-04T08:49:02.79Z</time></trkpt><trkpt lat="53.152915" lon="-2.09166"><ele>184.75</ele><time>2026-05-04T08:49:03.791Z</time></trkpt><trkpt lat="53.1530267" lon="-2.09156"><ele>186.5</ele><time>2026-05-04T08:49:04.792Z</time></trkpt><trkpt lat="53.1531467" lon="-2.091455"><ele>188.25</ele><time>2026-05-04T08:49:05.792Z</time></trkpt><trkpt lat="53.1532517" lon="-2.091355"><ele>190.0</ele><time>2026-05-04T08:49:06.791Z</time></trkpt><trkpt lat="53.1533383" lon="-2.0912683"><ele>191.8</ele><time>2026-05-04T08:49:07.792Z</time></trkpt><trkpt lat="53.1534233" lon="-2.091155"><ele>193.6</ele><time>2026-05-04T08:49:08.79Z</time></trkpt><trkpt lat="53.1534917" lon="-2.0910333"><ele>195.39999999999998</ele><time>2026-05-04T08:49:09.79Z</time></trkpt><trkpt lat="53.1535517" lon="-2.090915"><ele>197.2</ele><time>2026-05-04T08:49:10.791Z</time></trkpt><trkpt lat="53.1536033" lon="-2.0907883"><ele>199.0</ele><time>2026-05-04T08:49:11.791Z</time></trkpt><trkpt lat="53.1536483" lon="-2.0906533"><ele>199.6</ele><time>2026-05-04T08:49:12.791Z</time></trkpt><trkpt lat="53.1536817" lon="-2.0905083"><ele>200.2</ele><time>2026-05-04T08:49:13.791Z</time></trkpt><trkpt lat="53.1536983" lon="-2.09034"><ele>200.79999999999998</ele><time>2026-05-04T08:49:14.791Z</time></trkpt><trkpt lat="53.1536983" lon="-2.0901667"><ele>201.39999999999998</ele><time>2026-05-04T08:49:15.791Z</time></trkpt><trkpt lat="53.1536917" lon="-2.0899817"><ele>202.0</ele><time>2026-05-04T08:49:16.792Z</time></trkpt><trkpt lat="53.15367" lon="-2.08978"><ele>203.5</ele><time>2026-05-04T08:49:17.79Z</time></trkpt><trkpt lat="53.1536417" lon="-2.0895517"><ele>205.0</ele><time>2026-05-04T08:49:18.791Z</time></trkpt><trkpt lat="53.1536167" lon="-2.08932"><ele>206.5</ele><time>2026-05-04T08:49:19.792Z</time></trkpt><trkpt lat="53.1535967" lon="-2.0891017"><ele>208.0</ele><time>2026-05-04T08:49:20.791Z</time></trkpt><trkpt lat="53.1535817" lon="-2.0888933"><ele>208.75</ele><time>2026-05-04T08:49:21.791Z</time></trkpt><trkpt lat="53.1535633" lon="-2.0886883"><ele>209.5</ele><time>2026-05-04T08:49:22.791Z</time></trkpt><trkpt lat="53.1535433" lon="-2.0884667"><ele>210.25</ele><time>2026-05-04T08:49:23.791Z</time></trkpt><trkpt lat="53.1535317" lon="-2.08826"><ele>211.0</ele><time>2026-05-04T08:49:24.791Z</time></trkpt><trkpt lat="53.15352" lon="-2.0880667"><ele>211.5</ele><time>2026-05-04T08:49:25.792Z</time></trkpt><trkpt lat="53.1535133" lon="-2.0878717"><ele>212.0</ele><time>2026-05-04T08:49:26.792Z</time></trkpt><trkpt lat="53.1535033" lon="-2.08767"><ele>212.5</ele><time>2026-05-04T08:49:27.791Z</time></trkpt><trkpt lat="53.153495" lon="-2.0874817"><ele>213.0</ele><time>2026-05-04T08:49:28.791Z</time></trkpt><trkpt lat="53.153485" lon="-2.0873017"><ele>213.33333333333334</ele><time>2026-05-04T08:49:29.791Z</time></trkpt><trkpt lat="53.1534733" lon="-2.08714"><ele>213.66666666666669</ele><time>2026-05-04T08:49:30.792Z</time></trkpt><trkpt lat="53.1534667" lon="-2.08701"><ele>214.0</ele><time>2026-05-04T08:49:31.794Z</time></trkpt><trkpt lat="53.15346" lon="-2.0869"><ele>214.33333333333334</ele><time>2026-05-04T08:49:32.79Z</time></trkpt><trkpt lat="53.1534533" lon="-2.086745"><ele>214.66666666666669</ele><time>2026-05-04T08:49:34.79Z</time></trkpt><trkpt lat="53.1534717" lon="-2.0866367"><ele>215.0</ele><time>2026-05-04T08:49:37.795Z</time></trkpt><trkpt lat="53.1534867" lon="-2.0864583"><ele>215.4</ele><time>2026-05-04T08:49:39.792Z</time></trkpt><trkpt lat="53.1535117" lon="-2.0863433"><ele>215.8</ele><time>2026-05-04T08:49:40.79Z</time></trkpt><trkpt lat="53.15356" lon="-2.0862117"><ele>216.2</ele><time>2026-05-04T08:49:41.791Z</time></trkpt><trkpt lat="53.1536283" lon="-2.0860483"><ele>216.6</ele><time>2026-05-04T08:49:42.79Z</time></trkpt><trkpt lat="53.1537017" lon="-2.08585"><ele>217.0</ele><time>2026-05-04T08:49:43.791Z</time></trkpt><trkpt lat="53.1537917" lon="-2.0856167"><ele>218.33333333333331</ele><time>2026-05-04T08:49:44.792Z</time></trkpt><trkpt lat="53.1538867" lon="-2.0853833"><ele>219.66666666666669</ele><time>2026-05-04T08:49:45.79Z</time></trkpt><trkpt lat="53.1539883" lon="-2.0851183"><ele>221.0</ele><time>2026-05-04T08:49:46.792Z</time></trkpt><trkpt lat="53.154085" lon="-2.0848567"><ele>222.0</ele><time>2026-05-04T08:49:47.791Z</time></trkpt><trkpt lat="53.1541917" lon="-2.0845917"><ele>223.0</ele><time>2026-05-04T08:49:48.79Z</time></trkpt><trkpt lat="53.154295" lon="-2.08433"><ele>224.0</ele><time>2026-05-04T08:49:49.791Z</time></trkpt><trkpt lat="53.1544017" lon="-2.08407"><ele>226.33333333333334</ele><time>2026-05-04T08:49:50.791Z</time></trkpt><trkpt lat="53.1545083" lon="-2.08381"><ele>228.66666666666669</ele><time>2026-05-04T08:49:51.79Z</time></trkpt><trkpt lat="53.1546083" lon="-2.0835483"><ele>231.0</ele><time>2026-05-04T08:49:52.791Z</time></trkpt><trkpt lat="53.1547067" lon="-2.0832967"><ele>232.66666666666669</ele><time>2026-05-04T08:49:53.792Z</time></trkpt><trkpt lat="53.1548017" lon="-2.0830517"><ele>234.33333333333334</ele><time>2026-05-04T08:49:54.79Z</time></trkpt><trkpt lat="53.154895" lon="-2.082825"><ele>236.0</ele><time>2026-05-04T08:49:55.791Z</time></trkpt><trkpt lat="53.154985" lon="-2.0825983"><ele>238.25</ele><time>2026-05-04T08:49:56.791Z</time></trkpt><trkpt lat="53.1550567" lon="-2.0823917"><ele>240.5</ele><time>2026-05-04T08:49:57.79Z</time></trkpt><trkpt lat="53.1551083" lon="-2.0822133"><ele>242.75</ele><time>2026-05-04T08:49:58.79Z</time></trkpt><trkpt lat="53.1551483" lon="-2.0820417"><ele>245.0</ele><time>2026-05-04T08:49:59.792Z</time></trkpt><trkpt lat="53.155175" lon="-2.0818633"><ele>245.0</ele><time>2026-05-04T08:50:00.79Z</time></trkpt><trkpt lat="53.155185" lon="-2.081665"><ele>245.0</ele><time>2026-05-04T08:50:01.79Z</time></trkpt><trkpt lat="53.1551833" lon="-2.0814583"><ele>245.0</ele><time>2026-05-04T08:50:02.791Z</time></trkpt><trkpt lat="53.1551783" lon="-2.0812333"><ele>245.0</ele><time>2026-05-04T08:50:03.791Z</time></trkpt><trkpt lat="53.155165" lon="-2.0809833"><ele>247.33333333333334</ele><time>2026-05-04T08:50:04.791Z</time></trkpt><trkpt lat="53.1551367" lon="-2.0807233"><ele>249.66666666666669</ele><time>2026-05-04T08:50:05.79Z</time></trkpt><trkpt lat="53.1551117" lon="-2.080445"><ele>252.0</ele><time>2026-05-04T08:50:06.791Z</time></trkpt><trkpt lat="53.1550867" lon="-2.08016"><ele>253.33333333333331</ele><time>2026-05-04T08:50:07.791Z</time></trkpt><trkpt lat="53.1550683" lon="-2.079875"><ele>254.66666666666666</ele><time>2026-05-04T08:50:08.791Z</time></trkpt><trkpt lat="53.1550517" lon="-2.079595"><ele>256.0</ele><time>2026-05-04T08:50:09.79Z</time></trkpt><trkpt lat="53.1550433" lon="-2.0793383"><ele>256.5</ele><time>2026-05-04T08:50:10.79Z</time></trkpt><trkpt lat="53.15503" lon="-2.079095"><ele>257.0</ele><time>2026-05-04T08:50:11.791Z</time></trkpt><trkpt lat="53.1550183" lon="-2.0788633"><ele>257.5</ele><time>2026-05-04T08:50:12.791Z</time></trkpt><trkpt lat="53.1550033" lon="-2.0786583"><ele>258.0</ele><time>2026-05-04T08:50:13.795Z</time></trkpt><trkpt lat="53.1549883" lon="-2.0784717"><ele>258.0</ele><time>2026-05-04T08:50:14.791Z</time></trkpt><trkpt lat="53.15496" lon="-2.0782833"><ele>258.0</ele><time>2026-05-04T08:50:15.79Z</time></trkpt><trkpt lat="53.1549283" lon="-2.078105"><ele>258.0</ele><time>2026-05-04T08:50:16.791Z</time></trkpt><trkpt lat="53.1548867" lon="-2.0779167"><ele>258.0</ele><time>2026-05-04T08:50:17.79Z</time></trkpt><trkpt lat="53.1548317" lon="-2.077715"><ele>258.0</ele><time>2026-05-04T08:50:18.79Z</time></trkpt><trkpt lat="53.15477" lon="-2.077495"><ele>258.0</ele><time>2026-05-04T08:50:19.792Z</time></trkpt><trkpt lat="53.1547017" lon="-2.0772633"><ele>258.0</ele><time>2026-05-04T08:50:20.79Z</time></trkpt><trkpt lat="53.15464" lon="-2.0770333"><ele>258.3333333333333</ele><time>2026-05-04T08:50:21.791Z</time></trkpt><trkpt lat="53.1545767" lon="-2.0768017"><ele>258.66666666666663</ele><time>2026-05-04T08:50:22.791Z</time></trkpt><trkpt lat="53.1545083" lon="-2.07657"><ele>259.0</ele><time>2026-05-04T08:50:23.791Z</time></trkpt><trkpt lat="53.1544417" lon="-2.0763317"><ele>259.66666666666663</ele><time>2026-05-04T08:50:24.791Z</time></trkpt><trkpt lat="53.1543733" lon="-2.076085"><ele>260.3333333333333</ele><time>2026-05-04T08:50:25.792Z</time></trkpt><trkpt lat="53.1543033" lon="-2.07583"><ele>261.0</ele><time>2026-05-04T08:50:26.791Z</time></trkpt><trkpt lat="53.1542383" lon="-2.075565"><ele>263.3333333333333</ele><time>2026-05-04T08:50:27.791Z</time></trkpt><trkpt lat="53.1541833" lon="-2.0752717"><ele>265.66666666666663</ele><time>2026-05-04T08:50:28.791Z</time></trkpt><trkpt lat="53.15413" lon="-2.0749733"><ele>268.0</ele><time>2026-05-04T08:50:29.79Z</time></trkpt><trkpt lat="53.1540817" lon="-2.0746867"><ele>270.3333333333333</ele><time>2026-05-04T08:50:30.791Z</time></trkpt><trkpt lat="53.1540383" lon="-2.0743917"><ele>272.6666666666667</ele><time>2026-05-04T08:50:31.792Z</time></trkpt><trkpt lat="53.154005" lon="-2.0741133"><ele>275.0</ele><time>2026-05-04T08:50:32.79Z</time></trkpt><trkpt lat="53.15397" lon="-2.0738383"><ele>276.33333333333337</ele><time>2026-05-04T08:50:33.79Z</time></trkpt><trkpt lat="53.1539433" lon="-2.0735583"><ele>277.6666666666667</ele><time>2026-05-04T08:50:34.791Z</time></trkpt><trkpt lat="53.1539033" lon="-2.073305"><ele>279.0</ele><time>2026-05-04T08:50:35.792Z</time></trkpt><trkpt lat="53.153865" lon="-2.07305"><ele>279.3333333333333</ele><time>2026-05-04T08:50:36.791Z</time></trkpt><trkpt lat="53.15383" lon="-2.0727917"><ele>279.66666666666663</ele><time>2026-05-04T08:50:37.79Z</time></trkpt><trkpt lat="53.1537883" lon="-2.0725183"><ele>280.0</ele><time>2026-05-04T08:50:38.79Z</time></trkpt><trkpt lat="53.1537467" lon="-2.0722417"><ele>279.3333333333333</ele><time>2026-05-04T08:50:39.79Z</time></trkpt><trkpt lat="53.153705" lon="-2.07195"><ele>278.6666666666667</ele><time>2026-05-04T08:50:40.79Z</time></trkpt><trkpt lat="53.1536583" lon="-2.071655"><ele>278.0</ele><time>2026-05-04T08:50:41.791Z</time></trkpt><trkpt lat="53.153615" lon="-2.0713567"><ele>278.0</ele><time>2026-05-04T08:50:42.792Z</time></trkpt><trkpt lat="53.1535733" lon="-2.07105"><ele>278.0</ele><time>2026-05-04T08:50:43.791Z</time></trkpt><trkpt lat="53.1535283" lon="-2.0707367"><ele>278.0</ele><time>2026-05-04T08:50:44.791Z</time></trkpt><trkpt lat="53.1534817" lon="-2.0704217"><ele>278.0</ele><time>2026-05-04T08:50:45.79Z</time></trkpt><trkpt lat="53.1534383" lon="-2.0701167"><ele>278.0</ele><time>2026-05-04T08:50:46.791Z</time></trkpt><trkpt lat="53.1533917" lon="-2.0698067"><ele>278.0</ele><time>2026-05-04T08:50:47.792Z</time></trkpt><trkpt lat="53.1533467" lon="-2.069505"><ele>278.0</ele><time>2026-05-04T08:50:48.791Z</time></trkpt><trkpt lat="53.1533" lon="-2.0692"><ele>278.0</ele><time>2026-05-04T08:50:49.792Z</time></trkpt><trkpt lat="53.153255" lon="-2.06889"><ele>278.0</ele><time>2026-05-04T08:50:50.791Z</time></trkpt><trkpt lat="53.15321" lon="-2.0685783"><ele>278.0</ele><time>2026-05-04T08:50:51.79Z</time></trkpt><trkpt lat="53.15316" lon="-2.068265"><ele>278.0</ele><time>2026-05-04T08:50:52.791Z</time></trkpt><trkpt lat="53.153115" lon="-2.0679617"><ele>278.0</ele><time>2026-05-04T08:50:53.792Z</time></trkpt><trkpt lat="53.1530683" lon="-2.0676583"><ele>278.33333333333337</ele><time>2026-05-04T08:50:54.791Z</time></trkpt><trkpt lat="53.1530233" lon="-2.0673583"><ele>278.6666666666667</ele><time>2026-05-04T08:50:55.792Z</time></trkpt><trkpt lat="53.152985" lon="-2.06706"><ele>279.0</ele><time>2026-05-04T08:50:56.791Z</time></trkpt><trkpt lat="53.152945" lon="-2.0667617"><ele>280.0</ele><time>2026-05-04T08:50:57.79Z</time></trkpt><trkpt lat="53.152905" lon="-2.0664667"><ele>281.0</ele><time>2026-05-04T08:50:58.791Z</time></trkpt><trkpt lat="53.1528717" lon="-2.0661767"><ele>282.0</ele><time>2026-05-04T08:50:59.794Z</time></trkpt><trkpt lat="53.1528417" lon="-2.0658917"><ele>282.6666666666667</ele><time>2026-05-04T08:51:00.793Z</time></trkpt><trkpt lat="53.1528117" lon="-2.0656083"><ele>283.33333333333337</ele><time>2026-05-04T08:51:01.791Z</time></trkpt><trkpt lat="53.1527783" lon="-2.0653283"><ele>284.0</ele><time>2026-05-04T08:51:02.793Z</time></trkpt><trkpt lat="53.1527467" lon="-2.06505"><ele>284.33333333333337</ele><time>2026-05-04T08:51:03.79Z</time></trkpt><trkpt lat="53.1527183" lon="-2.0647767"><ele>284.6666666666667</ele><time>2026-05-04T08:51:04.795Z</time></trkpt><trkpt lat="53.1526917" lon="-2.0645033"><ele>285.0</ele><time>2026-05-04T08:51:05.791Z</time></trkpt><trkpt lat="53.1526617" lon="-2.0642283"><ele>286.3333333333333</ele><time>2026-05-04T08:51:06.794Z</time></trkpt><trkpt lat="53.1526317" lon="-2.0639517"><ele>287.66666666666663</ele><time>2026-05-04T08:51:07.792Z</time></trkpt><trkpt lat="53.1526017" lon="-2.063675"><ele>289.0</ele><time>2026-05-04T08:51:08.795Z</time></trkpt><trkpt lat="53.152575" lon="-2.0634"><ele>289.66666666666663</ele><time>2026-05-04T08:51:09.794Z</time></trkpt><trkpt lat="53.15255" lon="-2.0631183"><ele>290.3333333333333</ele><time>2026-05-04T08:51:10.79Z</time></trkpt><trkpt lat="53.1525233" lon="-2.06284"><ele>291.0</ele><time>2026-05-04T08:51:11.792Z</time></trkpt><trkpt lat="53.1524967" lon="-2.06257"><ele>291.6666666666667</ele><time>2026-05-04T08:51:12.791Z</time></trkpt><trkpt lat="53.15247" lon="-2.06231"><ele>292.33333333333337</ele><time>2026-05-04T08:51:13.792Z</time></trkpt><trkpt lat="53.1524483" lon="-2.0620533"><ele>293.0</ele><time>2026-05-04T08:51:14.791Z</time></trkpt><trkpt lat="53.1524317" lon="-2.061815"><ele>293.5</ele><time>2026-05-04T08:51:15.791Z</time></trkpt><trkpt lat="53.1524367" lon="-2.061585"><ele>294.0</ele><time>2026-05-04T08:51:16.792Z</time></trkpt><trkpt lat="53.15244" lon="-2.0613517"><ele>294.5</ele><time>2026-05-04T08:51:17.793Z</time></trkpt><trkpt lat="53.15245" lon="-2.0611167"><ele>295.0</ele><time>2026-05-04T08:51:18.792Z</time></trkpt><trkpt lat="53.1524583" lon="-2.0608783"><ele>295.5</ele><time>2026-05-04T08:51:19.792Z</time></trkpt><trkpt lat="53.1524667" lon="-2.06064"><ele>296.0</ele><time>2026-05-04T08:51:20.792Z</time></trkpt><trkpt lat="53.1524767" lon="-2.0604067"><ele>296.5</ele><time>2026-05-04T08:51:21.792Z</time></trkpt><trkpt lat="53.1524883" lon="-2.0601883"><ele>297.0</ele><time>2026-05-04T08:51:22.792Z</time></trkpt><trkpt lat="53.1525" lon="-2.0600033"><ele>297.5</ele><time>2026-05-04T08:51:23.793Z</time></trkpt><trkpt lat="53.15251" lon="-2.05986"><ele>298.0</ele><time>2026-05-04T08:51:24.792Z</time></trkpt><trkpt lat="53.1525133" lon="-2.05975"><ele>298.5</ele><time>2026-05-04T08:51:25.792Z</time></trkpt><trkpt lat="53.1525133" lon="-2.0596317"><ele>299.0</ele><time>2026-05-04T08:51:27.791Z</time></trkpt><trkpt lat="53.1525167" lon="-2.0595017"><ele>299.5</ele><time>2026-05-04T08:51:31.796Z</time></trkpt><trkpt lat="53.15254" lon="-2.0593583"><ele>300.0</ele><time>2026-05-04T08:51:53.794Z</time></trkpt><trkpt lat="53.152575" lon="-2.05916"><ele>301.0</ele><time>2026-05-04T08:51:55.793Z</time></trkpt><trkpt lat="53.1525983" lon="-2.0590083"><ele>302.0</ele><time>2026-05-04T08:51:56.793Z</time></trkpt><trkpt lat="53.1526367" lon="-2.0588033"><ele>303.0</ele><time>2026-05-04T08:51:57.793Z</time></trkpt><trkpt lat="53.1526817" lon="-2.0586033"><ele>304.0</ele><time>2026-05-04T08:51:58.792Z</time></trkpt><trkpt lat="53.1527233" lon="-2.0584183"><ele>304.5</ele><time>2026-05-04T08:51:59.793Z</time></trkpt><trkpt lat="53.15276" lon="-2.0582483"><ele>305.0</ele><time>2026-05-04T08:52:00.793Z</time></trkpt><trkpt lat="53.1527883" lon="-2.0581"><ele>305.5</ele><time>2026-05-04T08:52:01.793Z</time></trkpt><trkpt lat="53.152815" lon="-2.057965"><ele>306.0</ele><time>2026-05-04T08:52:02.792Z</time></trkpt><trkpt lat="53.1528317" lon="-2.05785"><ele>306.5</ele><time>2026-05-04T08:52:03.792Z</time></trkpt><trkpt lat="53.1528417" lon="-2.0577017"><ele>307.0</ele><time>2026-05-04T08:52:05.794Z</time></trkpt><trkpt lat="53.15281" lon="-2.0576067"><ele>307.0</ele><time>2026-05-04T08:52:08.792Z</time></trkpt><trkpt lat="53.1527167" lon="-2.0574783"><ele>307.0</ele><time>2026-05-04T08:52:10.792Z</time></trkpt><trkpt lat="53.1526467" lon="-2.057375"><ele>307.0</ele><time>2026-05-04T08:52:11.792Z</time></trkpt><trkpt lat="53.1525617" lon="-2.05726"><ele>307.0</ele><time>2026-05-04T08:52:12.792Z</time></trkpt><trkpt lat="53.1524717" lon="-2.0571383"><ele>307.0</ele><time>2026-05-04T08:52:13.794Z</time></trkpt><trkpt lat="53.1523833" lon="-2.0570217"><ele>307.5</ele><time>2026-05-04T08:52:14.792Z</time></trkpt><trkpt lat="53.15229" lon="-2.0568983"><ele>308.0</ele><time>2026-05-04T08:52:15.792Z</time></trkpt><trkpt lat="53.15219" lon="-2.05677"><ele>308.5</ele><time>2026-05-04T08:52:16.792Z</time></trkpt><trkpt lat="53.1520833" lon="-2.05663"><ele>309.0</ele><time>2026-05-04T08:52:17.793Z</time></trkpt><trkpt lat="53.151975" lon="-2.0564817"><ele>311.0</ele><time>2026-05-04T08:52:18.793Z</time></trkpt><trkpt lat="53.1518617" lon="-2.0563283"><ele>313.0</ele><time>2026-05-04T08:52:19.794Z</time></trkpt><trkpt lat="53.151745" lon="-2.0561717"><ele>315.0</ele><time>2026-05-04T08:52:20.793Z</time></trkpt><trkpt lat="53.1516267" lon="-2.0560067"><ele>314.3333333333333</ele><time>2026-05-04T08:52:21.792Z</time></trkpt><trkpt lat="53.1514967" lon="-2.055835"><ele>313.66666666666663</ele><time>2026-05-04T08:52:22.793Z</time></trkpt><trkpt lat="53.1513733" lon="-2.0556733"><ele>313.0</ele><time>2026-05-04T08:52:23.795Z</time></trkpt><trkpt lat="53.1512467" lon="-2.0555"><ele>316.3333333333333</ele><time>2026-05-04T08:52:24.793Z</time></trkpt><trkpt lat="53.15112" lon="-2.055335"><ele>319.6666666666667</ele><time>2026-05-04T08:52:25.793Z</time></trkpt><trkpt lat="53.1509933" lon="-2.0551667"><ele>323.0</ele><time>2026-05-04T08:52:26.794Z</time></trkpt><trkpt lat="53.150865" lon="-2.0549967"><ele>324.6666666666667</ele><time>2026-05-04T08:52:27.793Z</time></trkpt><trkpt lat="53.1507283" lon="-2.0548367"><ele>326.3333333333333</ele><time>2026-05-04T08:52:28.792Z</time></trkpt><trkpt lat="53.150585" lon="-2.054695"><ele>328.0</ele><time>2026-05-04T08:52:29.795Z</time></trkpt><trkpt lat="53.1504533" lon="-2.054565"><ele>328.0</ele><time>2026-05-04T08:52:30.793Z</time></trkpt><trkpt lat="53.15033" lon="-2.054445"><ele>328.0</ele><time>2026-05-04T08:52:31.795Z</time></trkpt><trkpt lat="53.1502183" lon="-2.05432"><ele>328.0</ele><time>2026-05-04T08:52:32.793Z</time></trkpt><trkpt lat="53.1501217" lon="-2.0541917"><ele>328.0</ele><time>2026-05-04T08:52:33.793Z</time></trkpt><trkpt lat="53.150035" lon="-2.0540467"><ele>329.25</ele><time>2026-05-04T08:52:34.793Z</time></trkpt><trkpt lat="53.1499633" lon="-2.0538767"><ele>330.5</ele><time>2026-05-04T08:52:35.792Z</time></trkpt><trkpt lat="53.1498983" lon="-2.0536883"><ele>331.75</ele><time>2026-05-04T08:52:36.793Z</time></trkpt><trkpt lat="53.149845" lon="-2.0534833"><ele>333.0</ele><time>2026-05-04T08:52:37.795Z</time></trkpt><trkpt lat="53.1498" lon="-2.0532733"><ele>334.75</ele><time>2026-05-04T08:52:38.793Z</time></trkpt><trkpt lat="53.1497567" lon="-2.053055"><ele>336.5</ele><time>2026-05-04T08:52:39.793Z</time></trkpt><trkpt lat="53.1497133" lon="-2.05283"><ele>338.25</ele><time>2026-05-04T08:52:40.793Z</time></trkpt><trkpt lat="53.1496667" lon="-2.052585"><ele>340.0</ele><time>2026-05-04T08:52:41.792Z</time></trkpt><trkpt lat="53.14961" lon="-2.0523483"><ele>341.66666666666663</ele><time>2026-05-04T08:52:42.793Z</time></trkpt><trkpt lat="53.149545" lon="-2.0521117"><ele>343.3333333333333</ele><time>2026-05-04T08:52:43.796Z</time></trkpt><trkpt lat="53.1494767" lon="-2.051885"><ele>345.0</ele><time>2026-05-04T08:52:44.796Z</time></trkpt><trkpt lat="53.1494133" lon="-2.0516667"><ele>346.0</ele><time>2026-05-04T08:52:45.792Z</time></trkpt><trkpt lat="53.149355" lon="-2.05148"><ele>347.0</ele><time>2026-05-04T08:52:46.794Z</time></trkpt><trkpt lat="53.149305" lon="-2.0513217"><ele>348.0</ele><time>2026-05-04T08:52:47.791Z</time></trkpt><trkpt lat="53.14925" lon="-2.051185"><ele>349.0</ele><time>2026-05-04T08:52:48.792Z</time></trkpt><trkpt lat="53.1491833" lon="-2.0510817"><ele>350.0</ele><time>2026-05-04T08:52:49.792Z</time></trkpt><trkpt lat="53.1490967" lon="-2.0510133"><ele>350.0</ele><time>2026-05-04T08:52:50.792Z</time></trkpt><trkpt lat="53.1489767" lon="-2.0509683"><ele>350.0</ele><time>2026-05-04T08:52:51.791Z</time></trkpt><trkpt lat="53.1488417" lon="-2.0509317"><ele>350.0</ele><time>2026-05-04T08:52:52.791Z</time></trkpt><trkpt lat="53.14869" lon="-2.0508967"><ele>350.0</ele><time>2026-05-04T08:52:53.793Z</time></trkpt><trkpt lat="53.1485267" lon="-2.0508717"><ele>350.0</ele><time>2026-05-04T08:52:54.797Z</time></trkpt><trkpt lat="53.14835" lon="-2.0508617"><ele>350.0</ele><time>2026-05-04T08:52:55.792Z</time></trkpt><trkpt lat="53.1481617" lon="-2.0508583"><ele>350.0</ele><time>2026-05-04T08:52:56.791Z</time></trkpt><trkpt lat="53.1479633" lon="-2.0508667"><ele>350.6666666666667</ele><time>2026-05-04T08:52:57.79Z</time></trkpt><trkpt lat="53.147755" lon="-2.05087"><ele>351.3333333333333</ele><time>2026-05-04T08:52:58.796Z</time></trkpt><trkpt lat="53.14755" lon="-2.0508767"><ele>352.0</ele><time>2026-05-04T08:52:59.794Z</time></trkpt><trkpt lat="53.1473533" lon="-2.0508817"><ele>352.66666666666663</ele><time>2026-05-04T08:53:00.792Z</time></trkpt><trkpt lat="53.1471667" lon="-2.0508783"><ele>353.3333333333333</ele><time>2026-05-04T08:53:01.792Z</time></trkpt><trkpt lat="53.1469833" lon="-2.0508683"><ele>354.0</ele><time>2026-05-04T08:53:02.796Z</time></trkpt><trkpt lat="53.1467967" lon="-2.0508267"><ele>354.6666666666667</ele><time>2026-05-04T08:53:03.791Z</time></trkpt><trkpt lat="53.146605" lon="-2.0507517"><ele>355.33333333333337</ele><time>2026-05-04T08:53:04.796Z</time></trkpt><trkpt lat="53.1464217" lon="-2.0506467"><ele>356.0</ele><time>2026-05-04T08:53:05.795Z</time></trkpt><trkpt lat="53.1462583" lon="-2.050525"><ele>356.0</ele><time>2026-05-04T08:53:06.796Z</time></trkpt><trkpt lat="53.146115" lon="-2.0503967"><ele>356.0</ele><time>2026-05-04T08:53:07.792Z</time></trkpt><trkpt lat="53.1459833" lon="-2.0502567"><ele>356.0</ele><time>2026-05-04T08:53:08.792Z</time></trkpt><trkpt lat="53.1458633" lon="-2.0500917"><ele>356.6666666666667</ele><time>2026-05-04T08:53:09.796Z</time></trkpt><trkpt lat="53.1457533" lon="-2.0498917"><ele>357.3333333333333</ele><time>2026-05-04T08:53:10.796Z</time></trkpt><trkpt lat="53.1456583" lon="-2.0496933"><ele>358.0</ele><time>2026-05-04T08:53:11.791Z</time></trkpt><trkpt lat="53.1455667" lon="-2.0494933"><ele>356.3333333333333</ele><time>2026-05-04T08:53:12.795Z</time></trkpt><trkpt lat="53.1454633" lon="-2.0492883"><ele>354.6666666666667</ele><time>2026-05-04T08:53:13.795Z</time></trkpt><trkpt lat="53.1453533" lon="-2.0490733"><ele>353.0</ele><time>2026-05-04T08:53:14.795Z</time></trkpt><trkpt lat="53.1452483" lon="-2.0488467"><ele>353.0</ele><time>2026-05-04T08:53:15.795Z</time></trkpt><trkpt lat="53.1451617" lon="-2.0485867"><ele>353.0</ele><time>2026-05-04T08:53:16.792Z</time></trkpt><trkpt lat="53.14509" lon="-2.0483033"><ele>353.0</ele><time>2026-05-04T08:53:17.794Z</time></trkpt><trkpt lat="53.14502" lon="-2.0480083"><ele>353.0</ele><time>2026-05-04T08:53:18.793Z</time></trkpt><trkpt lat="53.144955" lon="-2.047715"><ele>353.0</ele><time>2026-05-04T08:53:19.794Z</time></trkpt><trkpt lat="53.1448833" lon="-2.0474333"><ele>353.0</ele><time>2026-05-04T08:53:20.793Z</time></trkpt><trkpt lat="53.1448033" lon="-2.04717"><ele>351.0</ele><time>2026-05-04T08:53:21.794Z</time></trkpt><trkpt lat="53.1447083" lon="-2.0469233"><ele>349.0</ele><time>2026-05-04T08:53:22.793Z</time></trkpt><trkpt lat="53.144595" lon="-2.0466883"><ele>347.0</ele><time>2026-05-04T08:53:23.793Z</time></trkpt><trkpt lat="53.144475" lon="-2.0464667"><ele>347.0</ele><time>2026-05-04T08:53:24.793Z</time></trkpt><trkpt lat="53.1443817" lon="-2.0462383"><ele>347.0</ele><time>2026-05-04T08:53:25.793Z</time></trkpt><trkpt lat="53.1442983" lon="-2.04598"><ele>347.0</ele><time>2026-05-04T08:53:26.794Z</time></trkpt><trkpt lat="53.1442333" lon="-2.0456917"><ele>346.6666666666667</ele><time>2026-05-04T08:53:27.794Z</time></trkpt><trkpt lat="53.1441683" lon="-2.0453967"><ele>346.3333333333333</ele><time>2026-05-04T08:53:28.794Z</time></trkpt><trkpt lat="53.1441033" lon="-2.0450867"><ele>346.0</ele><time>2026-05-04T08:53:29.793Z</time></trkpt><trkpt lat="53.1440367" lon="-2.0447767"><ele>343.0</ele><time>2026-05-04T08:53:30.794Z</time></trkpt><trkpt lat="53.1439667" lon="-2.04447"><ele>340.0</ele><time>2026-05-04T08:53:31.794Z</time></trkpt><trkpt lat="53.1438933" lon="-2.0441583"><ele>337.0</ele><time>2026-05-04T08:53:32.795Z</time></trkpt><trkpt lat="53.1438183" lon="-2.0438433"><ele>336.0</ele><time>2026-05-04T08:53:33.792Z</time></trkpt><trkpt lat="53.14375" lon="-2.0435367"><ele>335.0</ele><time>2026-05-04T08:53:34.791Z</time></trkpt><trkpt lat="53.1436967" lon="-2.0432333"><ele>334.0</ele><time>2026-05-04T08:53:35.793Z</time></trkpt><trkpt lat="53.14366" lon="-2.0429367"><ele>332.66666666666663</ele><time>2026-05-04T08:53:36.791Z</time></trkpt><trkpt lat="53.1436383" lon="-2.0426483"><ele>331.3333333333333</ele><time>2026-05-04T08:53:37.793Z</time></trkpt><trkpt lat="53.14363" lon="-2.0423517"><ele>330.0</ele><time>2026-05-04T08:53:38.793Z</time></trkpt><trkpt lat="53.14363" lon="-2.04205"><ele>328.3333333333333</ele><time>2026-05-04T08:53:39.792Z</time></trkpt><trkpt lat="53.143645" lon="-2.0417367"><ele>326.66666666666663</ele><time>2026-05-04T08:53:40.796Z</time></trkpt><trkpt lat="53.14367" lon="-2.0414283"><ele>325.0</ele><time>2026-05-04T08:53:41.794Z</time></trkpt><trkpt lat="53.1436983" lon="-2.04113"><ele>323.25</ele><time>2026-05-04T08:53:42.795Z</time></trkpt><trkpt lat="53.1437267" lon="-2.0408667"><ele>321.5</ele><time>2026-05-04T08:53:43.796Z</time></trkpt><trkpt lat="53.1437533" lon="-2.040645"><ele>319.75</ele><time>2026-05-04T08:53:44.796Z</time></trkpt><trkpt lat="53.1437867" lon="-2.040455"><ele>318.0</ele><time>2026-05-04T08:53:45.796Z</time></trkpt><trkpt lat="53.1438433" lon="-2.0402767"><ele>315.75</ele><time>2026-05-04T08:53:46.795Z</time></trkpt><trkpt lat="53.1439183" lon="-2.0401"><ele>313.5</ele><time>2026-05-04T08:53:47.791Z</time></trkpt><trkpt lat="53.1440067" lon="-2.0399067"><ele>311.25</ele><time>2026-05-04T08:53:48.792Z</time></trkpt><trkpt lat="53.1441017" lon="-2.0397083"><ele>309.0</ele><time>2026-05-04T08:53:49.793Z</time></trkpt><trkpt lat="53.1441933" lon="-2.0394933"><ele>308.0</ele><time>2026-05-04T08:53:50.792Z</time></trkpt><trkpt lat="53.1442767" lon="-2.039275"><ele>307.0</ele><time>2026-05-04T08:53:51.792Z</time></trkpt><trkpt lat="53.1443617" lon="-2.039055"><ele>306.0</ele><time>2026-05-04T08:53:52.791Z</time></trkpt><trkpt lat="53.1444433" lon="-2.03884"><ele>304.0</ele><time>2026-05-04T08:53:53.795Z</time></trkpt><trkpt lat="53.1445233" lon="-2.0386117"><ele>302.0</ele><time>2026-05-04T08:53:54.796Z</time></trkpt><trkpt lat="53.1446" lon="-2.0383733"><ele>300.0</ele><time>2026-05-04T08:53:55.795Z</time></trkpt><trkpt lat="53.1446767" lon="-2.0381483"><ele>299.0</ele><time>2026-05-04T08:53:56.792Z</time></trkpt><trkpt lat="53.14475" lon="-2.0379417"><ele>298.0</ele><time>2026-05-04T08:53:57.795Z</time></trkpt><trkpt lat="53.1448167" lon="-2.03774"><ele>297.0</ele><time>2026-05-04T08:53:58.796Z</time></trkpt><trkpt lat="53.14488" lon="-2.0375417"><ele>296.0</ele><time>2026-05-04T08:53:59.791Z</time></trkpt><trkpt lat="53.1449367" lon="-2.03734"><ele>294.0</ele><time>2026-05-04T08:54:00.792Z</time></trkpt><trkpt lat="53.1449817" lon="-2.0371433"><ele>292.0</ele><time>2026-05-04T08:54:01.795Z</time></trkpt><trkpt lat="53.1450183" lon="-2.03695"><ele>290.0</ele><time>2026-05-04T08:54:02.792Z</time></trkpt><trkpt lat="53.14505" lon="-2.0367483"><ele>288.0</ele><time>2026-05-04T08:54:03.791Z</time></trkpt><trkpt lat="53.1450767" lon="-2.0365433"><ele>286.75</ele><time>2026-05-04T08:54:04.79Z</time></trkpt><trkpt lat="53.1451" lon="-2.0363333"><ele>285.5</ele><time>2026-05-04T08:54:05.792Z</time></trkpt><trkpt lat="53.1451183" lon="-2.0361183"><ele>284.25</ele><time>2026-05-04T08:54:06.792Z</time></trkpt><trkpt lat="53.1451283" lon="-2.0359033"><ele>283.0</ele><time>2026-05-04T08:54:07.795Z</time></trkpt><trkpt lat="53.1451333" lon="-2.0356867"><ele>281.75</ele><time>2026-05-04T08:54:08.796Z</time></trkpt><trkpt lat="53.1451333" lon="-2.03547"><ele>280.5</ele><time>2026-05-04T08:54:09.795Z</time></trkpt><trkpt lat="53.14513" lon="-2.035265"><ele>279.25</ele><time>2026-05-04T08:54:10.79Z</time></trkpt><trkpt lat="53.14513" lon="-2.035055"><ele>278.0</ele><time>2026-05-04T08:54:11.792Z</time></trkpt><trkpt lat="53.1451317" lon="-2.034835"><ele>276.25</ele><time>2026-05-04T08:54:12.792Z</time></trkpt><trkpt lat="53.1451417" lon="-2.0346233"><ele>274.5</ele><time>2026-05-04T08:54:13.792Z</time></trkpt><trkpt lat="53.14516" lon="-2.0344133"><ele>272.75</ele><time>2026-05-04T08:54:14.792Z</time></trkpt><trkpt lat="53.1451767" lon="-2.034185"><ele>271.0</ele><time>2026-05-04T08:54:15.792Z</time></trkpt><trkpt lat="53.1451933" lon="-2.033955"><ele>269.5</ele><time>2026-05-04T08:54:16.791Z</time></trkpt><trkpt lat="53.145215" lon="-2.0337267"><ele>268.0</ele><time>2026-05-04T08:54:17.792Z</time></trkpt><trkpt lat="53.1452183" lon="-2.0335167"><ele>266.5</ele><time>2026-05-04T08:54:18.791Z</time></trkpt><trkpt lat="53.1452283" lon="-2.0333217"><ele>265.0</ele><time>2026-05-04T08:54:19.791Z</time></trkpt><trkpt lat="53.1452367" lon="-2.03312"><ele>263.6</ele><time>2026-05-04T08:54:20.791Z</time></trkpt><trkpt lat="53.1452533" lon="-2.0329367"><ele>262.2</ele><time>2026-05-04T08:54:21.79Z</time></trkpt><trkpt lat="53.1452633" lon="-2.0327683"><ele>260.8</ele><time>2026-05-04T08:54:22.792Z</time></trkpt><trkpt lat="53.14524" lon="-2.0325817"><ele>259.4</ele><time>2026-05-04T08:54:23.791Z</time></trkpt><trkpt lat="53.1452033" lon="-2.032415"><ele>258.0</ele><time>2026-05-04T08:54:24.792Z</time></trkpt><trkpt lat="53.1451533" lon="-2.0322617"><ele>256.8</ele><time>2026-05-04T08:54:25.792Z</time></trkpt><trkpt lat="53.1450933" lon="-2.032125"><ele>255.60000000000002</ele><time>2026-05-04T08:54:26.796Z</time></trkpt><trkpt lat="53.1450167" lon="-2.032"><ele>254.39999999999998</ele><time>2026-05-04T08:54:27.791Z</time></trkpt><trkpt lat="53.14493" lon="-2.03188"><ele>253.2</ele><time>2026-05-04T08:54:28.792Z</time></trkpt><trkpt lat="53.1448417" lon="-2.0317517"><ele>252.0</ele><time>2026-05-04T08:54:29.791Z</time></trkpt><trkpt lat="53.1447483" lon="-2.0316217"><ele>251.0</ele><time>2026-05-04T08:54:30.79Z</time></trkpt><trkpt lat="53.1446667" lon="-2.0314967"><ele>250.0</ele><time>2026-05-04T08:54:31.792Z</time></trkpt><trkpt lat="53.1445933" lon="-2.0313883"><ele>249.0</ele><time>2026-05-04T08:54:32.79Z</time></trkpt><trkpt lat="53.1445333" lon="-2.0312933"><ele>248.0</ele><time>2026-05-04T08:54:33.792Z</time></trkpt><trkpt lat="53.1444833" lon="-2.0311967"><ele>247.0</ele><time>2026-05-04T08:54:34.792Z</time></trkpt><trkpt lat="53.1444433" lon="-2.0310867"><ele>246.0</ele><time>2026-05-04T08:54:35.791Z</time></trkpt><trkpt lat="53.14442" lon="-2.030955"><ele>244.8</ele><time>2026-05-04T08:54:36.791Z</time></trkpt><trkpt lat="53.1444017" lon="-2.0308033"><ele>243.60000000000002</ele><time>2026-05-04T08:54:37.792Z</time></trkpt><trkpt lat="53.144385" lon="-2.030645"><ele>242.4</ele><time>2026-05-04T08:54:38.791Z</time></trkpt><trkpt lat="53.14436" lon="-2.0304733"><ele>241.2</ele><time>2026-05-04T08:54:39.792Z</time></trkpt><trkpt lat="53.1443383" lon="-2.0302733"><ele>240.0</ele><time>2026-05-04T08:54:40.791Z</time></trkpt><trkpt lat="53.1443167" lon="-2.030065"><ele>239.5</ele><time>2026-05-04T08:54:41.792Z</time></trkpt><trkpt lat="53.1442933" lon="-2.0298283"><ele>239.0</ele><time>2026-05-04T08:54:42.792Z</time></trkpt><trkpt lat="53.1442617" lon="-2.0295817"><ele>238.5</ele><time>2026-05-04T08:54:43.792Z</time></trkpt><trkpt lat="53.144235" lon="-2.0293283"><ele>238.0</ele><time>2026-05-04T08:54:44.791Z</time></trkpt><trkpt lat="53.14421" lon="-2.0290617"><ele>237.33333333333331</ele><time>2026-05-04T08:54:45.792Z</time></trkpt><trkpt lat="53.1441833" lon="-2.0288017"><ele>236.66666666666669</ele><time>2026-05-04T08:54:46.792Z</time></trkpt><trkpt lat="53.1441533" lon="-2.0285483"><ele>236.0</ele><time>2026-05-04T08:54:47.792Z</time></trkpt><trkpt lat="53.1441267" lon="-2.0283033"><ele>235.25</ele><time>2026-05-04T08:54:48.792Z</time></trkpt><trkpt lat="53.1441033" lon="-2.0280717"><ele>234.5</ele><time>2026-05-04T08:54:49.793Z</time></trkpt><trkpt lat="53.144085" lon="-2.0278417"><ele>233.75</ele><time>2026-05-04T08:54:50.793Z</time></trkpt><trkpt lat="53.1440667" lon="-2.0276067"><ele>233.0</ele><time>2026-05-04T08:54:51.791Z</time></trkpt><trkpt lat="53.1440567" lon="-2.027365"><ele>232.33333333333334</ele><time>2026-05-04T08:54:52.79Z</time></trkpt><trkpt lat="53.1440517" lon="-2.027115"><ele>231.66666666666669</ele><time>2026-05-04T08:54:53.794Z</time></trkpt><trkpt lat="53.1440517" lon="-2.0268633"><ele>231.0</ele><time>2026-05-04T08:54:54.792Z</time></trkpt><trkpt lat="53.1440533" lon="-2.0266133"><ele>230.25</ele><time>2026-05-04T08:54:55.791Z</time></trkpt><trkpt lat="53.14406" lon="-2.0263783"><ele>229.5</ele><time>2026-05-04T08:54:56.792Z</time></trkpt><trkpt lat="53.1440767" lon="-2.0261583"><ele>228.75</ele><time>2026-05-04T08:54:57.792Z</time></trkpt><trkpt lat="53.1441" lon="-2.0259383"><ele>228.0</ele><time>2026-05-04T08:54:58.792Z</time></trkpt><trkpt lat="53.1441183" lon="-2.0257233"><ele>227.25</ele><time>2026-05-04T08:54:59.791Z</time></trkpt><trkpt lat="53.1441417" lon="-2.0255217"><ele>226.5</ele><time>2026-05-04T08:55:00.792Z</time></trkpt><trkpt lat="53.1441683" lon="-2.02533"><ele>225.75</ele><time>2026-05-04T08:55:01.791Z</time></trkpt><trkpt lat="53.1442067" lon="-2.0251417"><ele>225.0</ele><time>2026-05-04T08:55:02.791Z</time></trkpt><trkpt lat="53.1442583" lon="-2.0249617"><ele>224.4</ele><time>2026-05-04T08:55:03.792Z</time></trkpt><trkpt lat="53.1443183" lon="-2.02479"><ele>223.8</ele><time>2026-05-04T08:55:04.791Z</time></trkpt><trkpt lat="53.1443767" lon="-2.0246283"><ele>223.2</ele><time>2026-05-04T08:55:05.792Z</time></trkpt><trkpt lat="53.1444383" lon="-2.0244867"><ele>222.6</ele><time>2026-05-04T08:55:06.792Z</time></trkpt><trkpt lat="53.1444967" lon="-2.024345"><ele>222.0</ele><time>2026-05-04T08:55:07.792Z</time></trkpt><trkpt lat="53.1445517" lon="-2.0242183"><ele>221.8</ele><time>2026-05-04T08:55:08.796Z</time></trkpt><trkpt lat="53.1446033" lon="-2.0240917"><ele>221.6</ele><time>2026-05-04T08:55:09.792Z</time></trkpt><trkpt lat="53.14465" lon="-2.0239533"><ele>221.40000000000003</ele><time>2026-05-04T08:55:10.792Z</time></trkpt><trkpt lat="53.1446933" lon="-2.0237883"><ele>221.20000000000002</ele><time>2026-05-04T08:55:11.794Z</time></trkpt><trkpt lat="53.1447267" lon="-2.0236067"><ele>221.0</ele><time>2026-05-04T08:55:12.795Z</time></trkpt><trkpt lat="53.1447483" lon="-2.02342"><ele>220.60000000000002</ele><time>2026-05-04T08:55:13.792Z</time></trkpt><trkpt lat="53.1447567" lon="-2.023235"><ele>220.20000000000002</ele><time>2026-05-04T08:55:14.793Z</time></trkpt><trkpt lat="53.1447567" lon="-2.02306"><ele>219.79999999999998</ele><time>2026-05-04T08:55:15.792Z</time></trkpt><trkpt lat="53.1447583" lon="-2.0228917"><ele>219.39999999999998</ele><time>2026-05-04T08:55:16.79Z</time></trkpt><trkpt lat="53.1447633" lon="-2.0227317"><ele>219.0</ele><time>2026-05-04T08:55:17.791Z</time></trkpt><trkpt lat="53.1447633" lon="-2.0225633"><ele>218.83333333333334</ele><time>2026-05-04T08:55:18.791Z</time></trkpt><trkpt lat="53.1447667" lon="-2.0224183"><ele>218.66666666666669</ele><time>2026-05-04T08:55:19.793Z</time></trkpt><trkpt lat="53.1447683" lon="-2.02229"><ele>218.5</ele><time>2026-05-04T08:55:20.792Z</time></trkpt><trkpt lat="53.1447717" lon="-2.02218"><ele>218.33333333333334</ele><time>2026-05-04T08:55:21.793Z</time></trkpt><trkpt lat="53.14478" lon="-2.0219917"><ele>218.16666666666669</ele><time>2026-05-04T08:55:23.792Z</time></trkpt><trkpt lat="53.1447867" lon="-2.0218317"><ele>218.0</ele><time>2026-05-04T08:55:25.793Z</time></trkpt><trkpt lat="53.1447867" lon="-2.0216683"><ele>217.66666666666669</ele><time>2026-05-04T08:55:27.794Z</time></trkpt><trkpt lat="53.1447783" lon="-2.0215167"><ele>217.33333333333334</ele><time>2026-05-04T08:55:29.793Z</time></trkpt><trkpt lat="53.14477" lon="-2.0213867"><ele>217.0</ele><time>2026-05-04T08:55:31.793Z</time></trkpt><trkpt lat="53.1447783" lon="-2.0212333"><ele>216.66666666666669</ele><time>2026-05-04T08:55:34.791Z</time></trkpt><trkpt lat="53.1447783" lon="-2.021115"><ele>216.33333333333334</ele><time>2026-05-04T08:55:36.792Z</time></trkpt><trkpt lat="53.14478" lon="-2.0210067"><ele>216.0</ele><time>2026-05-04T08:55:38.792Z</time></trkpt><trkpt lat="53.1447733" lon="-2.0209017"><ele>215.83333333333334</ele><time>2026-05-04T08:55:40.792Z</time></trkpt><trkpt lat="53.144765" lon="-2.0207717"><ele>215.66666666666669</ele><time>2026-05-04T08:55:42.796Z</time></trkpt><trkpt lat="53.14476" lon="-2.0206433"><ele>215.5</ele><time>2026-05-04T08:55:44.792Z</time></trkpt><trkpt lat="53.1447633" lon="-2.0205117"><ele>215.33333333333334</ele><time>2026-05-04T08:55:46.791Z</time></trkpt><trkpt lat="53.1447667" lon="-2.02038"><ele>215.16666666666669</ele><time>2026-05-04T08:55:48.792Z</time></trkpt><trkpt lat="53.1447767" lon="-2.02018"><ele>215.0</ele><time>2026-05-04T08:55:50.791Z</time></trkpt><trkpt lat="53.14477" lon="-2.0200683"><ele>214.85714285714286</ele><time>2026-05-04T08:55:51.791Z</time></trkpt><trkpt lat="53.14476" lon="-2.01996"><ele>214.71428571428572</ele><time>2026-05-04T08:55:52.792Z</time></trkpt><trkpt lat="53.1447467" lon="-2.019855"><ele>214.57142857142858</ele><time>2026-05-04T08:55:53.791Z</time></trkpt><trkpt lat="53.1447317" lon="-2.01975"><ele>214.42857142857144</ele><time>2026-05-04T08:55:54.793Z</time></trkpt><trkpt lat="53.1447083" lon="-2.0196317"><ele>214.28571428571428</ele><time>2026-05-04T08:55:55.792Z</time></trkpt><trkpt lat="53.1446783" lon="-2.019495"><ele>214.14285714285717</ele><time>2026-05-04T08:55:56.795Z</time></trkpt><trkpt lat="53.14464" lon="-2.0193567"><ele>214.0</ele><time>2026-05-04T08:55:57.79Z</time></trkpt><trkpt lat="53.1445933" lon="-2.0192067"><ele>214.0</ele><time>2026-05-04T08:55:58.796Z</time></trkpt><trkpt lat="53.144545" lon="-2.01905"><ele>213.99999999999997</ele><time>2026-05-04T08:55:59.795Z</time></trkpt><trkpt lat="53.1444883" lon="-2.0188767"><ele>213.99999999999997</ele><time>2026-05-04T08:56:00.795Z</time></trkpt><trkpt lat="53.1444367" lon="-2.0187133"><ele>214.0</ele><time>2026-05-04T08:56:01.791Z</time></trkpt><trkpt lat="53.1443867" lon="-2.01855"><ele>214.0</ele><time>2026-05-04T08:56:02.792Z</time></trkpt><trkpt lat="53.1443417" lon="-2.0183883"><ele>214.0</ele><time>2026-05-04T08:56:03.792Z</time></trkpt><trkpt lat="53.1442883" lon="-2.0181983"><ele>214.0</ele><time>2026-05-04T08:56:04.792Z</time></trkpt><trkpt lat="53.1442467" lon="-2.01802"><ele>214.0</ele><time>2026-05-04T08:56:05.792Z</time></trkpt><trkpt lat="53.1442067" lon="-2.0178317"><ele>214.0</ele><time>2026-05-04T08:56:06.791Z</time></trkpt><trkpt lat="53.1441733" lon="-2.01765"><ele>213.6</ele><time>2026-05-04T08:56:07.792Z</time></trkpt><trkpt lat="53.1441517" lon="-2.0174733"><ele>213.2</ele><time>2026-05-04T08:56:08.796Z</time></trkpt><trkpt lat="53.1441367" lon="-2.0173"><ele>212.79999999999998</ele><time>2026-05-04T08:56:09.792Z</time></trkpt><trkpt lat="53.1441333" lon="-2.0171283"><ele>212.39999999999998</ele><time>2026-05-04T08:56:10.792Z</time></trkpt><trkpt lat="53.1441283" lon="-2.0169583"><ele>212.0</ele><time>2026-05-04T08:56:11.791Z</time></trkpt><trkpt lat="53.14412" lon="-2.0168033"><ele>212.0</ele><time>2026-05-04T08:56:12.792Z</time></trkpt><trkpt lat="53.1441083" lon="-2.0166717"><ele>212.0</ele><time>2026-05-04T08:56:13.792Z</time></trkpt><trkpt lat="53.14408" lon="-2.0165433"><ele>212.0</ele><time>2026-05-04T08:56:14.791Z</time></trkpt><trkpt lat="53.144035" lon="-2.0164083"><ele>212.0</ele><time>2026-05-04T08:56:15.792Z</time></trkpt><trkpt lat="53.143965" lon="-2.0162767"><ele>212.0</ele><time>2026-05-04T08:56:16.792Z</time></trkpt><trkpt lat="53.1438917" lon="-2.0161383"><ele>210.75</ele><time>2026-05-04T08:56:17.794Z</time></trkpt><trkpt lat="53.1438067" lon="-2.0159767"><ele>209.5</ele><time>2026-05-04T08:56:18.795Z</time></trkpt><trkpt lat="53.14371" lon="-2.01579"><ele>208.25</ele><time>2026-05-04T08:56:19.795Z</time></trkpt><trkpt lat="53.1436083" lon="-2.01558"><ele>207.0</ele><time>2026-05-04T08:56:20.794Z</time></trkpt><trkpt lat="53.1435033" lon="-2.0153683"><ele>206.66666666666669</ele><time>2026-05-04T08:56:21.794Z</time></trkpt><trkpt lat="53.143395" lon="-2.015155"><ele>206.33333333333334</ele><time>2026-05-04T08:56:22.795Z</time></trkpt><trkpt lat="53.143285" lon="-2.01494"><ele>206.0</ele><time>2026-05-04T08:56:23.794Z</time></trkpt><trkpt lat="53.1431767" lon="-2.0147417"><ele>205.33333333333334</ele><time>2026-05-04T08:56:24.792Z</time></trkpt><trkpt lat="53.1430567" lon="-2.014555"><ele>204.66666666666669</ele><time>2026-05-04T08:56:25.792Z</time></trkpt><trkpt lat="53.142935" lon="-2.0143833"><ele>204.0</ele><time>2026-05-04T08:56:26.791Z</time></trkpt><trkpt lat="53.1428117" lon="-2.0142267"><ele>203.75</ele><time>2026-05-04T08:56:27.792Z</time></trkpt><trkpt lat="53.1426933" lon="-2.014075"><ele>203.5</ele><time>2026-05-04T08:56:28.792Z</time></trkpt><trkpt lat="53.14259" lon="-2.01392"><ele>203.25</ele><time>2026-05-04T08:56:29.792Z</time></trkpt><trkpt lat="53.14249" lon="-2.013745"><ele>203.0</ele><time>2026-05-04T08:56:30.791Z</time></trkpt><trkpt lat="53.1423983" lon="-2.0135467"><ele>202.5</ele><time>2026-05-04T08:56:31.793Z</time></trkpt><trkpt lat="53.1423167" lon="-2.0133383"><ele>202.0</ele><time>2026-05-04T08:56:32.792Z</time></trkpt><trkpt lat="53.142245" lon="-2.0131367"><ele>201.5</ele><time>2026-05-04T08:56:33.792Z</time></trkpt><trkpt lat="53.1421833" lon="-2.012945"><ele>201.0</ele><time>2026-05-04T08:56:34.792Z</time></trkpt><trkpt lat="53.1421217" lon="-2.0127633"><ele>201.0</ele><time>2026-05-04T08:56:35.791Z</time></trkpt><trkpt lat="53.1420683" lon="-2.0125967"><ele>201.0</ele><time>2026-05-04T08:56:36.791Z</time></trkpt><trkpt lat="53.1420183" lon="-2.01244"><ele>201.0</ele><time>2026-05-04T08:56:37.792Z</time></trkpt><trkpt lat="53.1419733" lon="-2.012295"><ele>201.0</ele><time>2026-05-04T08:56:38.794Z</time></trkpt><trkpt lat="53.1441517" lon="-2.0174733"><ele>203.20000000000002</ele><time>2026-05-04T08:56:08.796Z</time></trkpt><trkpt lat="53.1441367" lon="-2.0173"><ele>205.4</ele><time>2026-05-04T08:56:09.792Z</time></trkpt><trkpt lat="53.1441333" lon="-2.0171283"><ele>207.6</ele><time>2026-05-04T08:56:10.792Z</time></trkpt><trkpt lat="53.1441283" lon="-2.0169583"><ele>209.8</ele><time>2026-05-04T08:56:11.791Z</time></trkpt><trkpt lat="53.14412" lon="-2.0168033"><ele>212.0</ele><time>2026-05-04T08:56:12.792Z</time></trkpt><trkpt lat="53.1441083" lon="-2.0166717"><ele>211.39999999999998</ele><time>2026-05-04T08:56:13.792Z</time></trkpt><trkpt lat="53.14408" lon="-2.0165433"><ele>210.79999999999998</ele><time>2026-05-04T08:56:14.791Z</time></trkpt><trkpt lat="53.144035" lon="-2.0164083"><ele>210.2</ele><time>2026-05-04T08:56:15.792Z</time></trkpt><trkpt lat="53.143965" lon="-2.0162767"><ele>209.6</ele><time>2026-05-04T08:56:16.792Z</time></trkpt><trkpt lat="53.1438917" lon="-2.0161383"><ele>209.0</ele><time>2026-05-04T08:56:17.794Z</time></trkpt><trkpt lat="53.1438067" lon="-2.0159767"><ele>208.0</ele><time>2026-05-04T08:56:18.795Z</time></trkpt><trkpt lat="53.14371" lon="-2.01579"><ele>207.0</ele><time>2026-05-04T08:56:19.795Z</time></trkpt><trkpt lat="53.1436083" lon="-2.01558"><ele>206.0</ele><time>2026-05-04T08:56:20.794Z</time></trkpt><trkpt lat="53.1435033" lon="-2.0153683"><ele>206.0</ele><time>2026-05-04T08:56:21.794Z</time></trkpt><trkpt lat="53.143395" lon="-2.015155"><ele>206.0</ele><time>2026-05-04T08:56:22.795Z</time></trkpt><trkpt lat="53.143285" lon="-2.01494"><ele>206.0</ele><time>2026-05-04T08:56:23.794Z</time></trkpt><trkpt lat="53.1431767" lon="-2.0147417"><ele>205.33333333333334</ele><time>2026-05-04T08:56:24.792Z</time></trkpt><trkpt lat="53.1430567" lon="-2.014555"><ele>204.66666666666669</ele><time>2026-05-04T08:56:25.792Z</time></trkpt><trkpt lat="53.142935" lon="-2.0143833"><ele>204.0</ele><time>2026-05-04T08:56:26.791Z</time></trkpt><trkpt lat="53.1428117" lon="-2.0142267"><ele>203.75</ele><time>2026-05-04T08:56:27.792Z</time></trkpt><trkpt lat="53.1426933" lon="-2.014075"><ele>203.5</ele><time>2026-05-04T08:56:28.792Z</time></trkpt><trkpt lat="53.14259" lon="-2.01392"><ele>203.25</ele><time>2026-05-04T08:56:29.792Z</time></trkpt><trkpt lat="53.14249" lon="-2.013745"><ele>203.0</ele><time>2026-05-04T08:56:30.791Z</time></trkpt><trkpt lat="53.1423983" lon="-2.0135467"><ele>202.5</ele><time>2026-05-04T08:56:31.793Z</time></trkpt><trkpt lat="53.1423167" lon="-2.0133383"><ele>202.0</ele><time>2026-05-04T08:56:32.792Z</time></trkpt><trkpt lat="53.142245" lon="-2.0131367"><ele>201.5</ele><time>2026-05-04T08:56:33.792Z</time></trkpt><trkpt lat="53.1421833" lon="-2.012945"><ele>201.0</ele><time>2026-05-04T08:56:34.792Z</time></trkpt><trkpt lat="53.1421217" lon="-2.0127633"><ele>201.0</ele><time>2026-05-04T08:56:35.791Z</time></trkpt><trkpt lat="53.1420683" lon="-2.0125967"><ele>201.0</ele><time>2026-05-04T08:56:36.791Z</time></trkpt><trkpt lat="53.1420183" lon="-2.01244"><ele>201.0</ele><time>2026-05-04T08:56:37.792Z</time></trkpt><trkpt lat="53.1419733" lon="-2.012295"><ele>201.0</ele><time>2026-05-04T08:56:38.794Z</time></trkpt><trkpt lat="53.1419333" lon="-2.0121583"><ele>201.0</ele><time>2026-05-04T08:56:39.792Z</time></trkpt><trkpt lat="53.141895" lon="-2.01203"><ele>201.0</ele><time>2026-05-04T08:56:40.792Z</time></trkpt><trkpt lat="53.1418583" lon="-2.0119067"><ele>201.0</ele><time>2026-05-04T08:56:41.795Z</time></trkpt><trkpt lat="53.1418217" lon="-2.0117883"><ele>201.0</ele><time>2026-05-04T08:56:42.791Z</time></trkpt><trkpt lat="53.141785" lon="-2.0116567"><ele>201.0</ele><time>2026-05-04T08:56:43.792Z</time></trkpt><trkpt lat="53.1417433" lon="-2.0115083"><ele>201.0</ele><time>2026-05-04T08:56:44.792Z</time></trkpt><trkpt lat="53.1417" lon="-2.0113533"><ele>201.8</ele><time>2026-05-04T08:56:45.792Z</time></trkpt><trkpt lat="53.1416517" lon="-2.0111933"><ele>202.60000000000002</ele><time>2026-05-04T08:56:46.792Z</time></trkpt><trkpt lat="53.1416067" lon="-2.0110283"><ele>203.4</ele><time>2026-05-04T08:56:47.791Z</time></trkpt><trkpt lat="53.14157" lon="-2.010865"><ele>204.2</ele><time>2026-05-04T08:56:48.794Z</time></trkpt><trkpt lat="53.1415467" lon="-2.0107083"><ele>205.0</ele><time>2026-05-04T08:56:49.792Z</time></trkpt><trkpt lat="53.14153" lon="-2.01056"><ele>205.0</ele><time>2026-05-04T08:56:50.792Z</time></trkpt><trkpt lat="53.14152" lon="-2.010425"><ele>205.0</ele><time>2026-05-04T08:56:51.792Z</time></trkpt><trkpt lat="53.1415183" lon="-2.0102833"><ele>205.0</ele><time>2026-05-04T08:56:52.791Z</time></trkpt><trkpt lat="53.1415217" lon="-2.01013"><ele>205.0</ele><time>2026-05-04T08:56:53.791Z</time></trkpt><trkpt lat="53.1415283" lon="-2.0099683"><ele>205.0</ele><time>2026-05-04T08:56:54.791Z</time></trkpt><trkpt lat="53.141545" lon="-2.0098033"><ele>205.6</ele><time>2026-05-04T08:56:55.792Z</time></trkpt><trkpt lat="53.141565" lon="-2.00963"><ele>206.2</ele><time>2026-05-04T08:56:56.791Z</time></trkpt><trkpt lat="53.1415883" lon="-2.0094617"><ele>206.8</ele><time>2026-05-04T08:56:57.791Z</time></trkpt><trkpt lat="53.1416133" lon="-2.00929"><ele>207.4</ele><time>2026-05-04T08:56:58.791Z</time></trkpt><trkpt lat="53.1416467" lon="-2.009115"><ele>208.0</ele><time>2026-05-04T08:56:59.791Z</time></trkpt><trkpt lat="53.1416917" lon="-2.00895"><ele>208.0</ele><time>2026-05-04T08:57:00.792Z</time></trkpt><trkpt lat="53.14172" lon="-2.00877"><ele>208.0</ele><time>2026-05-04T08:57:01.792Z</time></trkpt><trkpt lat="53.14174" lon="-2.0085783"><ele>208.0</ele><time>2026-05-04T08:57:02.791Z</time></trkpt><trkpt lat="53.1417467" lon="-2.0083833"><ele>208.0</ele><time>2026-05-04T08:57:03.791Z</time></trkpt><trkpt lat="53.14175" lon="-2.0081767"><ele>208.0</ele><time>2026-05-04T08:57:04.791Z</time></trkpt><trkpt lat="53.1417483" lon="-2.0079533"><ele>208.0</ele><time>2026-05-04T08:57:05.792Z</time></trkpt><trkpt lat="53.1417417" lon="-2.00773"><ele>208.0</ele><time>2026-05-04T08:57:06.791Z</time></trkpt><trkpt lat="53.1417267" lon="-2.007505"><ele>208.0</ele><time>2026-05-04T08:57:07.792Z</time></trkpt><trkpt lat="53.141705" lon="-2.007295"><ele>208.0</ele><time>2026-05-04T08:57:08.791Z</time></trkpt><trkpt lat="53.141685" lon="-2.0070983"><ele>208.0</ele><time>2026-05-04T08:57:09.791Z</time></trkpt><trkpt lat="53.14166" lon="-2.0069033"><ele>208.0</ele><time>2026-05-04T08:57:10.792Z</time></trkpt><trkpt lat="53.1416367" lon="-2.0067133"><ele>208.0</ele><time>2026-05-04T08:57:11.791Z</time></trkpt><trkpt lat="53.14163" lon="-2.006505"><ele>208.25</ele><time>2026-05-04T08:57:12.79Z</time></trkpt><trkpt lat="53.1416317" lon="-2.0062967"><ele>208.5</ele><time>2026-05-04T08:57:13.791Z</time></trkpt><trkpt lat="53.1416417" lon="-2.0060767"><ele>208.75</ele><time>2026-05-04T08:57:14.791Z</time></trkpt><trkpt lat="53.1416617" lon="-2.005835"><ele>209.0</ele><time>2026-05-04T08:57:15.792Z</time></trkpt><trkpt lat="53.14168" lon="-2.0056017"><ele>209.0</ele><time>2026-05-04T08:57:16.792Z</time></trkpt><trkpt lat="53.1416967" lon="-2.0053767"><ele>209.0</ele><time>2026-05-04T08:57:17.792Z</time></trkpt><trkpt lat="53.1417117" lon="-2.00516"><ele>209.0</ele><time>2026-05-04T08:57:18.791Z</time></trkpt><trkpt lat="53.1417283" lon="-2.0049583"><ele>209.0</ele><time>2026-05-04T08:57:19.792Z</time></trkpt><trkpt lat="53.14175" lon="-2.0047683"><ele>209.0</ele><time>2026-05-04T08:57:20.79Z</time></trkpt><trkpt lat="53.141775" lon="-2.004575"><ele>209.0</ele><time>2026-05-04T08:57:21.792Z</time></trkpt><trkpt lat="53.1418017" lon="-2.0043767"><ele>209.0</ele><time>2026-05-04T08:57:22.792Z</time></trkpt><trkpt lat="53.1418233" lon="-2.0041817"><ele>209.0</ele><time>2026-05-04T08:57:23.792Z</time></trkpt><trkpt lat="53.1418383" lon="-2.003995"><ele>209.2</ele><time>2026-05-04T08:57:24.792Z</time></trkpt><trkpt lat="53.141845" lon="-2.0038167"><ele>209.39999999999998</ele><time>2026-05-04T08:57:25.793Z</time></trkpt><trkpt lat="53.1418417" lon="-2.0036417"><ele>209.6</ele><time>2026-05-04T08:57:26.791Z</time></trkpt><trkpt lat="53.14181" lon="-2.0034683"><ele>209.8</ele><time>2026-05-04T08:57:27.79Z</time></trkpt><trkpt lat="53.1417567" lon="-2.0032917"><ele>210.0</ele><time>2026-05-04T08:57:28.792Z</time></trkpt><trkpt lat="53.141685" lon="-2.0031167"><ele>210.25</ele><time>2026-05-04T08:57:29.792Z</time></trkpt><trkpt lat="53.1415933" lon="-2.0029517"><ele>210.5</ele><time>2026-05-04T08:57:30.792Z</time></trkpt><trkpt lat="53.1414933" lon="-2.002795"><ele>210.75</ele><time>2026-05-04T08:57:31.795Z</time></trkpt><trkpt lat="53.1413817" lon="-2.0026483"><ele>211.0</ele><time>2026-05-04T08:57:32.791Z</time></trkpt><trkpt lat="53.14126" lon="-2.0025183"><ele>211.25</ele><time>2026-05-04T08:57:33.793Z</time></trkpt><trkpt lat="53.1411267" lon="-2.0024067"><ele>211.5</ele><time>2026-05-04T08:57:34.791Z</time></trkpt><trkpt lat="53.1409983" lon="-2.0023117"><ele>211.75</ele><time>2026-05-04T08:57:35.791Z</time></trkpt><trkpt lat="53.140875" lon="-2.0022333"><ele>212.0</ele><time>2026-05-04T08:57:36.792Z</time></trkpt><trkpt lat="53.1407483" lon="-2.0021617"><ele>210.66666666666669</ele><time>2026-05-04T08:57:37.793Z</time></trkpt><trkpt lat="53.1406017" lon="-2.002075"><ele>209.33333333333331</ele><time>2026-05-04T08:57:38.796Z</time></trkpt><trkpt lat="53.140445" lon="-2.0019717"><ele>208.0</ele><time>2026-05-04T08:57:39.795Z</time></trkpt><trkpt lat="53.1402883" lon="-2.0018633"><ele>208.0</ele><time>2026-05-04T08:57:40.794Z</time></trkpt><trkpt lat="53.1401467" lon="-2.0017483"><ele>208.0</ele><time>2026-05-04T08:57:41.795Z</time></trkpt><trkpt lat="53.1400233" lon="-2.0016217"><ele>208.0</ele><time>2026-05-04T08:57:42.795Z</time></trkpt><trkpt lat="53.1399183" lon="-2.0014733"><ele>208.0</ele><time>2026-05-04T08:57:43.791Z</time></trkpt><trkpt lat="53.1398233" lon="-2.0012867"><ele>209.66666666666666</ele><time>2026-05-04T08:57:44.791Z</time></trkpt><trkpt lat="53.13973" lon="-2.001095"><ele>211.33333333333331</ele><time>2026-05-04T08:57:45.794Z</time></trkpt><trkpt lat="53.13962" lon="-2.0009067"><ele>213.0</ele><time>2026-05-04T08:57:46.791Z</time></trkpt><trkpt lat="53.1394917" lon="-2.0007317"><ele>213.66666666666669</ele><time>2026-05-04T08:57:47.792Z</time></trkpt><trkpt lat="53.1393667" lon="-2.0005667"><ele>214.33333333333334</ele><time>2026-05-04T08:57:48.791Z</time></trkpt><trkpt lat="53.1392283" lon="-2.00041"><ele>215.0</ele><time>2026-05-04T08:57:49.793Z</time></trkpt><trkpt lat="53.1390917" lon="-2.0002833"><ele>215.0</ele><time>2026-05-04T08:57:50.792Z</time></trkpt><trkpt lat="53.138955" lon="-2.00017"><ele>215.0</ele><time>2026-05-04T08:57:51.792Z</time></trkpt><trkpt lat="53.138805" lon="-2.0000833"><ele>215.0</ele><time>2026-05-04T08:57:52.793Z</time></trkpt><trkpt lat="53.1386767" lon="-1.9999967"><ele>215.0</ele><time>2026-05-04T08:57:53.792Z</time></trkpt><trkpt lat="53.1385683" lon="-1.99988"><ele>215.0</ele><time>2026-05-04T08:57:54.795Z</time></trkpt><trkpt lat="53.1384817" lon="-1.9997167"><ele>215.0</ele><time>2026-05-04T08:57:55.794Z</time></trkpt><trkpt lat="53.1384233" lon="-1.999505"><ele>215.0</ele><time>2026-05-04T08:57:56.79Z</time></trkpt><trkpt lat="53.1383667" lon="-1.9992783"><ele>215.66666666666669</ele><time>2026-05-04T08:57:57.791Z</time></trkpt><trkpt lat="53.138305" lon="-1.9990267"><ele>216.33333333333331</ele><time>2026-05-04T08:57:58.791Z</time></trkpt><trkpt lat="53.1382333" lon="-1.9987583"><ele>217.0</ele><time>2026-05-04T08:57:59.791Z</time></trkpt><trkpt lat="53.1381617" lon="-1.99849"><ele>217.0</ele><time>2026-05-04T08:58:00.792Z</time></trkpt><trkpt lat="53.1380967" lon="-1.9982367"><ele>217.0</ele><time>2026-05-04T08:58:01.792Z</time></trkpt><trkpt lat="53.1380383" lon="-1.9980017"><ele>217.0</ele><time>2026-05-04T08:58:02.792Z</time></trkpt><trkpt lat="53.137985" lon="-1.9977817"><ele>217.0</ele><time>2026-05-04T08:58:03.791Z</time></trkpt><trkpt lat="53.137935" lon="-1.9975767"><ele>217.0</ele><time>2026-05-04T08:58:04.792Z</time></trkpt><trkpt lat="53.1378883" lon="-1.99738"><ele>217.0</ele><time>2026-05-04T08:58:05.793Z</time></trkpt><trkpt lat="53.13784" lon="-1.9971967"><ele>217.0</ele><time>2026-05-04T08:58:06.791Z</time></trkpt><trkpt lat="53.137795" lon="-1.997015"><ele>217.25</ele><time>2026-05-04T08:58:07.792Z</time></trkpt><trkpt lat="53.1377517" lon="-1.9968167"><ele>217.5</ele><time>2026-05-04T08:58:08.791Z</time></trkpt><trkpt lat="53.1377033" lon="-1.996605"><ele>217.75</ele><time>2026-05-04T08:58:09.79Z</time></trkpt><trkpt lat="53.1376483" lon="-1.9963833"><ele>218.0</ele><time>2026-05-04T08:58:10.793Z</time></trkpt><trkpt lat="53.137585" lon="-1.9961467"><ele>218.75</ele><time>2026-05-04T08:58:11.796Z</time></trkpt><trkpt lat="53.1375283" lon="-1.99591"><ele>219.5</ele><time>2026-05-04T08:58:12.793Z</time></trkpt><trkpt lat="53.13747" lon="-1.99568"><ele>220.25</ele><time>2026-05-04T08:58:13.791Z</time></trkpt><trkpt lat="53.1374133" lon="-1.995465"><ele>221.0</ele><time>2026-05-04T08:58:14.791Z</time></trkpt><trkpt lat="53.1373617" lon="-1.9952533"><ele>221.66666666666669</ele><time>2026-05-04T08:58:15.791Z</time></trkpt><trkpt lat="53.1373033" lon="-1.99504"><ele>222.33333333333331</ele><time>2026-05-04T08:58:16.791Z</time></trkpt><trkpt lat="53.1372417" lon="-1.9948"><ele>223.0</ele><time>2026-05-04T08:58:17.792Z</time></trkpt><trkpt lat="53.13718" lon="-1.9945483"><ele>223.5</ele><time>2026-05-04T08:58:18.791Z</time></trkpt><trkpt lat="53.13712" lon="-1.9943067"><ele>224.0</ele><time>2026-05-04T08:58:19.792Z</time></trkpt><trkpt lat="53.137065" lon="-1.9940783"><ele>224.5</ele><time>2026-05-04T08:58:20.792Z</time></trkpt><trkpt lat="53.137015" lon="-1.9938717"><ele>225.0</ele><time>2026-05-04T08:58:21.791Z</time></trkpt><trkpt lat="53.1369683" lon="-1.9936733"><ele>225.5</ele><time>2026-05-04T08:58:22.792Z</time></trkpt><trkpt lat="53.1369183" lon="-1.9934717"><ele>226.0</ele><time>2026-05-04T08:58:23.793Z</time></trkpt><trkpt lat="53.1368617" lon="-1.9932617"><ele>226.5</ele><time>2026-05-04T08:58:24.79Z</time></trkpt><trkpt lat="53.1368033" lon="-1.99305"><ele>227.0</ele><time>2026-05-04T08:58:25.791Z</time></trkpt><trkpt lat="53.1367433" lon="-1.992835"><ele>227.5</ele><time>2026-05-04T08:58:26.791Z</time></trkpt><trkpt lat="53.136685" lon="-1.9926167"><ele>228.0</ele><time>2026-05-04T08:58:27.792Z</time></trkpt><trkpt lat="53.136625" lon="-1.9923967"><ele>228.5</ele><time>2026-05-04T08:58:28.791Z</time></trkpt><trkpt lat="53.136565" lon="-1.9921767"><ele>229.0</ele><time>2026-05-04T08:58:29.791Z</time></trkpt><trkpt lat="53.1365083" lon="-1.99196"><ele>230.25</ele><time>2026-05-04T08:58:30.794Z</time></trkpt><trkpt lat="53.1364583" lon="-1.9917567"><ele>231.5</ele><time>2026-05-04T08:58:31.792Z</time></trkpt><trkpt lat="53.136415" lon="-1.9915633"><ele>232.75</ele><time>2026-05-04T08:58:32.791Z</time></trkpt><trkpt lat="53.1363717" lon="-1.9913667"><ele>234.0</ele><time>2026-05-04T08:58:33.792Z</time></trkpt><trkpt lat="53.1363217" lon="-1.9911567"><ele>234.5</ele><time>2026-05-04T08:58:34.792Z</time></trkpt><trkpt lat="53.13627" lon="-1.9909517"><ele>235.0</ele><time>2026-05-04T08:58:35.791Z</time></trkpt><trkpt lat="53.1362083" lon="-1.9907383"><ele>235.5</ele><time>2026-05-04T08:58:36.791Z</time></trkpt><trkpt lat="53.1361517" lon="-1.9905217"><ele>236.0</ele><time>2026-05-04T08:58:37.795Z</time></trkpt><trkpt lat="53.136095" lon="-1.9903117"><ele>236.75</ele><time>2026-05-04T08:58:38.792Z</time></trkpt><trkpt lat="53.1360417" lon="-1.990105"><ele>237.5</ele><time>2026-05-04T08:58:39.792Z</time></trkpt><trkpt lat="53.13599" lon="-1.9899017"><ele>238.25</ele><time>2026-05-04T08:58:40.792Z</time></trkpt><trkpt lat="53.135945" lon="-1.9897117"><ele>239.0</ele><time>2026-05-04T08:58:41.792Z</time></trkpt><trkpt lat="53.1359017" lon="-1.9895283"><ele>239.2</ele><time>2026-05-04T08:58:42.792Z</time></trkpt><trkpt lat="53.1358617" lon="-1.989355"><ele>239.39999999999998</ele><time>2026-05-04T08:58:43.795Z</time></trkpt><trkpt lat="53.13582" lon="-1.989185"><ele>239.6</ele><time>2026-05-04T08:58:44.794Z</time></trkpt><trkpt lat="53.1357783" lon="-1.989015"><ele>239.8</ele><time>2026-05-04T08:58:45.792Z</time></trkpt><trkpt lat="53.13574" lon="-1.9888583"><ele>240.0</ele><time>2026-05-04T08:58:46.792Z</time></trkpt><trkpt lat="53.135705" lon="-1.9887183"><ele>241.0</ele><time>2026-05-04T08:58:47.792Z</time></trkpt><trkpt lat="53.1356733" lon="-1.988595"><ele>242.0</ele><time>2026-05-04T08:58:48.792Z</time></trkpt><trkpt lat="53.135635" lon="-1.9884367"><ele>243.0</ele><time>2026-05-04T08:58:50.792Z</time></trkpt><trkpt lat="53.1356117" lon="-1.98832"><ele>244.0</ele><time>2026-05-04T08:59:05.792Z</time></trkpt><trkpt lat="53.1355683" lon="-1.9882433"><ele>245.0</ele><time>2026-05-04T08:59:13.792Z</time></trkpt><trkpt lat="53.135485" lon="-1.9882033"><ele>246.0</ele><time>2026-05-04T08:59:15.791Z</time></trkpt><trkpt lat="53.1353517" lon="-1.9882633"><ele>246.0</ele><time>2026-05-04T08:59:17.792Z</time></trkpt><trkpt lat="53.1352567" lon="-1.988335"><ele>246.00000000000003</ele><time>2026-05-04T08:59:18.791Z</time></trkpt><trkpt lat="53.13516" lon="-1.9884083"><ele>246.00000000000003</ele><time>2026-05-04T08:59:19.792Z</time></trkpt><trkpt lat="53.135065" lon="-1.9884783"><ele>246.0</ele><time>2026-05-04T08:59:20.791Z</time></trkpt><trkpt lat="53.13497" lon="-1.9885383"><ele>246.0</ele><time>2026-05-04T08:59:21.792Z</time></trkpt><trkpt lat="53.1348917" lon="-1.98858"><ele>246.60000000000002</ele><time>2026-05-04T08:59:22.792Z</time></trkpt><trkpt lat="53.134775" lon="-1.988565"><ele>247.20000000000002</ele><time>2026-05-04T08:59:24.792Z</time></trkpt><trkpt lat="53.1347117" lon="-1.9885133"><ele>247.79999999999998</ele><time>2026-05-04T08:59:25.792Z</time></trkpt><trkpt lat="53.1346417" lon="-1.98843"><ele>248.39999999999998</ele><time>2026-05-04T08:59:26.792Z</time></trkpt><trkpt lat="53.1345383" lon="-1.9883117"><ele>249.0</ele><time>2026-05-04T08:59:27.792Z</time></trkpt><trkpt lat="53.1344167" lon="-1.988175"><ele>249.75</ele><time>2026-05-04T08:59:28.795Z</time></trkpt><trkpt lat="53.1343017" lon="-1.9880467"><ele>250.5</ele><time>2026-05-04T08:59:29.795Z</time></trkpt><trkpt lat="53.1341867" lon="-1.9879183"><ele>251.25</ele><time>2026-05-04T08:59:30.795Z</time></trkpt><trkpt lat="53.134065" lon="-1.9877783"><ele>252.0</ele><time>2026-05-04T08:59:31.792Z</time></trkpt><trkpt lat="53.1339333" lon="-1.9876233"><ele>254.33333333333331</ele><time>2026-05-04T08:59:32.792Z</time></trkpt><trkpt lat="53.1337883" lon="-1.9874633"><ele>256.66666666666663</ele><time>2026-05-04T08:59:33.791Z</time></trkpt><trkpt lat="53.1336383" lon="-1.9873067"><ele>259.0</ele><time>2026-05-04T08:59:34.791Z</time></trkpt><trkpt lat="53.1334867" lon="-1.987145"><ele>259.0</ele><time>2026-05-04T08:59:35.792Z</time></trkpt><trkpt lat="53.1333333" lon="-1.9869717"><ele>259.0</ele><time>2026-05-04T08:59:36.791Z</time></trkpt><trkpt lat="53.1331783" lon="-1.9867967"><ele>259.0</ele><time>2026-05-04T08:59:37.791Z</time></trkpt><trkpt lat="53.1330167" lon="-1.98662"><ele>261.3333333333333</ele><time>2026-05-04T08:59:38.792Z</time></trkpt><trkpt lat="53.132855" lon="-1.9864517"><ele>263.6666666666667</ele><time>2026-05-04T08:59:39.791Z</time></trkpt><trkpt lat="53.132695" lon="-1.9862883"><ele>266.0</ele><time>2026-05-04T08:59:40.791Z</time></trkpt><trkpt lat="53.1325333" lon="-1.986125"><ele>267.6666666666667</ele><time>2026-05-04T08:59:41.793Z</time></trkpt><trkpt lat="53.1323733" lon="-1.9859633"><ele>269.3333333333333</ele><time>2026-05-04T08:59:42.792Z</time></trkpt><trkpt lat="53.132225" lon="-1.9858083"><ele>271.0</ele><time>2026-05-04T08:59:43.792Z</time></trkpt><trkpt lat="53.132075" lon="-1.985645"><ele>272.0</ele><time>2026-05-04T08:59:44.795Z</time></trkpt><trkpt lat="53.1319267" lon="-1.985485"><ele>273.0</ele><time>2026-05-04T08:59:45.791Z</time></trkpt><trkpt lat="53.1317767" lon="-1.9853267"><ele>274.0</ele><time>2026-05-04T08:59:46.79Z</time></trkpt><trkpt lat="53.1316317" lon="-1.9851717"><ele>274.5</ele><time>2026-05-04T08:59:47.79Z</time></trkpt><trkpt lat="53.1315" lon="-1.98503"><ele>275.0</ele><time>2026-05-04T08:59:48.792Z</time></trkpt><trkpt lat="53.13138" lon="-1.984905"><ele>275.5</ele><time>2026-05-04T08:59:49.791Z</time></trkpt><trkpt lat="53.1312667" lon="-1.9847883"><ele>276.0</ele><time>2026-05-04T08:59:50.79Z</time></trkpt><trkpt lat="53.1311533" lon="-1.984665"><ele>277.0</ele><time>2026-05-04T08:59:51.792Z</time></trkpt><trkpt lat="53.1310367" lon="-1.98454"><ele>278.0</ele><time>2026-05-04T08:59:52.793Z</time></trkpt><trkpt lat="53.13092" lon="-1.9844183"><ele>279.0</ele><time>2026-05-04T08:59:53.792Z</time></trkpt><trkpt lat="53.1308" lon="-1.9842933"><ele>280.0</ele><time>2026-05-04T08:59:54.791Z</time></trkpt><trkpt lat="53.130685" lon="-1.9841717"><ele>281.5</ele><time>2026-05-04T08:59:55.792Z</time></trkpt><trkpt lat="53.1305683" lon="-1.98404"><ele>283.0</ele><time>2026-05-04T08:59:56.791Z</time></trkpt><trkpt lat="53.130445" lon="-1.9839017"><ele>284.5</ele><time>2026-05-04T08:59:57.79Z</time></trkpt><trkpt lat="53.1303233" lon="-1.9837667"><ele>286.0</ele><time>2026-05-04T08:59:58.792Z</time></trkpt><trkpt lat="53.1301983" lon="-1.9836317"><ele>286.0</ele><time>2026-05-04T08:59:59.791Z</time></trkpt><trkpt lat="53.13007" lon="-1.9834917"><ele>286.0</ele><time>2026-05-04T09:00:00.792Z</time></trkpt><trkpt lat="53.12994" lon="-1.9833533"><ele>286.0</ele><time>2026-05-04T09:00:01.792Z</time></trkpt><trkpt lat="53.1298117" lon="-1.983215"><ele>287.0</ele><time>2026-05-04T09:00:02.796Z</time></trkpt><trkpt lat="53.12968" lon="-1.9830783"><ele>288.0</ele><time>2026-05-04T09:00:03.791Z</time></trkpt><trkpt lat="53.1295483" lon="-1.9829383"><ele>289.0</ele><time>2026-05-04T09:00:04.792Z</time></trkpt><trkpt lat="53.12942" lon="-1.9828"><ele>289.0</ele><time>2026-05-04T09:00:05.792Z</time></trkpt><trkpt lat="53.1292933" lon="-1.982665"><ele>289.0</ele><time>2026-05-04T09:00:06.791Z</time></trkpt><trkpt lat="53.1291667" lon="-1.9825317"><ele>289.0</ele><time>2026-05-04T09:00:07.792Z</time></trkpt><trkpt lat="53.12905" lon="-1.98241"><ele>289.0</ele><time>2026-05-04T09:00:08.791Z</time></trkpt><trkpt lat="53.1289433" lon="-1.9822967"><ele>289.8</ele><time>2026-05-04T09:00:09.792Z</time></trkpt><trkpt lat="53.12885" lon="-1.982195"><ele>290.59999999999997</ele><time>2026-05-04T09:00:10.791Z</time></trkpt><trkpt lat="53.1287733" lon="-1.98211"><ele>291.4</ele><time>2026-05-04T09:00:11.794Z</time></trkpt><trkpt lat="53.1287" lon="-1.9820317"><ele>292.2</ele><time>2026-05-04T09:00:12.792Z</time></trkpt><trkpt lat="53.1286367" lon="-1.9819583"><ele>293.0</ele><time>2026-05-04T09:00:13.792Z</time></trkpt><trkpt lat="53.1285683" lon="-1.9818817"><ele>293.0</ele><time>2026-05-04T09:00:14.792Z</time></trkpt><trkpt lat="53.1284933" lon="-1.981805"><ele>293.0</ele><time>2026-05-04T09:00:15.791Z</time></trkpt><trkpt lat="53.1284133" lon="-1.9817233"><ele>293.0</ele><time>2026-05-04T09:00:16.792Z</time></trkpt><trkpt lat="53.1283317" lon="-1.9816367"><ele>293.0</ele><time>2026-05-04T09:00:17.795Z</time></trkpt><trkpt lat="53.1282467" lon="-1.9815367"><ele>293.0</ele><time>2026-05-04T09:00:18.795Z</time></trkpt><trkpt lat="53.1281567" lon="-1.9814333"><ele>294.5</ele><time>2026-05-04T09:00:19.792Z</time></trkpt><trkpt lat="53.1280633" lon="-1.9813283"><ele>296.0</ele><time>2026-05-04T09:00:20.791Z</time></trkpt><trkpt lat="53.1279683" lon="-1.9812233"><ele>297.5</ele><time>2026-05-04T09:00:21.794Z</time></trkpt><trkpt lat="53.1278683" lon="-1.9811183"><ele>299.0</ele><time>2026-05-04T09:00:22.792Z</time></trkpt><trkpt lat="53.1277617" lon="-1.9810083"><ele>299.0</ele><time>2026-05-04T09:00:23.792Z</time></trkpt><trkpt lat="53.1276517" lon="-1.9808983"><ele>299.0</ele><time>2026-05-04T09:00:24.792Z</time></trkpt><trkpt lat="53.127535" lon="-1.9807867"><ele>299.0</ele><time>2026-05-04T09:00:25.795Z</time></trkpt><trkpt lat="53.1274067" lon="-1.98067"><ele>299.0</ele><time>2026-05-04T09:00:26.795Z</time></trkpt><trkpt lat="53.1272733" lon="-1.980545"><ele>300.0</ele><time>2026-05-04T09:00:27.794Z</time></trkpt><trkpt lat="53.1271433" lon="-1.9804117"><ele>301.0</ele><time>2026-05-04T09:00:28.792Z</time></trkpt><trkpt lat="53.1270267" lon="-1.9802717"><ele>302.0</ele><time>2026-05-04T09:00:29.791Z</time></trkpt><trkpt lat="53.1269267" lon="-1.9801183"><ele>303.0</ele><time>2026-05-04T09:00:30.795Z</time></trkpt><trkpt lat="53.12684" lon="-1.9799467"><ele>303.0</ele><time>2026-05-04T09:00:31.792Z</time></trkpt><trkpt lat="53.12677" lon="-1.97977"><ele>303.0</ele><time>2026-05-04T09:00:32.791Z</time></trkpt><trkpt lat="53.1267017" lon="-1.9796017"><ele>303.0</ele><time>2026-05-04T09:00:33.792Z</time></trkpt><trkpt lat="53.1266367" lon="-1.9794517"><ele>303.0</ele><time>2026-05-04T09:00:34.791Z</time></trkpt><trkpt lat="53.126575" lon="-1.9793317"><ele>302.8</ele><time>2026-05-04T09:00:35.791Z</time></trkpt><trkpt lat="53.1265133" lon="-1.979225"><ele>302.6</ele><time>2026-05-04T09:00:36.792Z</time></trkpt><trkpt lat="53.12644" lon="-1.97912"><ele>302.4</ele><time>2026-05-04T09:00:37.792Z</time></trkpt><trkpt lat="53.126345" lon="-1.97902"><ele>302.2</ele><time>2026-05-04T09:00:38.79Z</time></trkpt><trkpt lat="53.12623" lon="-1.9789117"><ele>302.0</ele><time>2026-05-04T09:00:39.791Z</time></trkpt><trkpt lat="53.126105" lon="-1.9787883"><ele>301.0</ele><time>2026-05-04T09:00:40.791Z</time></trkpt><trkpt lat="53.1259683" lon="-1.978655"><ele>300.0</ele><time>2026-05-04T09:00:41.792Z</time></trkpt><trkpt lat="53.125825" lon="-1.9785117"><ele>299.0</ele><time>2026-05-04T09:00:42.794Z</time></trkpt><trkpt lat="53.1257" lon="-1.9783817"><ele>298.5</ele><time>2026-05-04T09:00:43.795Z</time></trkpt><trkpt lat="53.1255833" lon="-1.978275"><ele>298.0</ele><time>2026-05-04T09:00:44.794Z</time></trkpt><trkpt lat="53.12547" lon="-1.9781867"><ele>297.5</ele><time>2026-05-04T09:00:45.795Z</time></trkpt><trkpt lat="53.1253667" lon="-1.9781183"><ele>297.0</ele><time>2026-05-04T09:00:46.795Z</time></trkpt><trkpt lat="53.12526" lon="-1.9780667"><ele>297.0</ele><time>2026-05-04T09:00:47.792Z</time></trkpt><trkpt lat="53.1251517" lon="-1.9780383"><ele>297.0</ele><time>2026-05-04T09:00:48.792Z</time></trkpt><trkpt lat="53.1250517" lon="-1.9780267"><ele>297.0</ele><time>2026-05-04T09:00:49.793Z</time></trkpt><trkpt lat="53.12496" lon="-1.9780133"><ele>297.0</ele><time>2026-05-04T09:00:50.792Z</time></trkpt><trkpt lat="53.1248767" lon="-1.9779883"><ele>297.0</ele><time>2026-05-04T09:00:51.792Z</time></trkpt><trkpt lat="53.1247933" lon="-1.9779417"><ele>297.2</ele><time>2026-05-04T09:00:52.792Z</time></trkpt><trkpt lat="53.1247133" lon="-1.9778717"><ele>297.4</ele><time>2026-05-04T09:00:53.792Z</time></trkpt><trkpt lat="53.1246433" lon="-1.9777783"><ele>297.6</ele><time>2026-05-04T09:00:54.792Z</time></trkpt><trkpt lat="53.1245817" lon="-1.9776483"><ele>297.8</ele><time>2026-05-04T09:00:55.793Z</time></trkpt><trkpt lat="53.12453" lon="-1.9775117"><ele>298.0</ele><time>2026-05-04T09:00:56.795Z</time></trkpt><trkpt lat="53.124485" lon="-1.9773817"><ele>299.0</ele><time>2026-05-04T09:00:57.791Z</time></trkpt><trkpt lat="53.1244483" lon="-1.9772717"><ele>300.0</ele><time>2026-05-04T09:00:58.791Z</time></trkpt><trkpt lat="53.12442" lon="-1.9771717"><ele>301.0</ele><time>2026-05-04T09:00:59.795Z</time></trkpt><trkpt lat="53.12439" lon="-1.977075"><ele>302.0</ele><time>2026-05-04T09:01:00.792Z</time></trkpt><trkpt lat="53.1243283" lon="-1.9769167"><ele>303.0</ele><time>2026-05-04T09:01:02.792Z</time></trkpt><trkpt lat="53.12429" lon="-1.976825"><ele>304.0</ele><time>2026-05-04T09:01:04.794Z</time></trkpt><trkpt lat="53.1242317" lon="-1.9767767"><ele>304.0</ele><time>2026-05-04T09:01:52.792Z</time></trkpt><trkpt lat="53.1241517" lon="-1.9767817"><ele>304.0</ele><time>2026-05-04T09:01:54.792Z</time></trkpt><trkpt lat="53.12407" lon="-1.9768717"><ele>304.0</ele><time>2026-05-04T09:01:56.792Z</time></trkpt><trkpt lat="53.1240167" lon="-1.9769367"><ele>304.0</ele><time>2026-05-04T09:01:57.791Z</time></trkpt><trkpt lat="53.12398" lon="-1.9770233"><ele>304.0</ele><time>2026-05-04T09:01:58.792Z</time></trkpt><trkpt lat="53.1239533" lon="-1.9771467"><ele>304.0</ele><time>2026-05-04T09:01:59.793Z</time></trkpt><trkpt lat="53.1239367" lon="-1.9772967"><ele>304.59999999999997</ele><time>2026-05-04T09:02:00.792Z</time></trkpt><trkpt lat="53.1239183" lon="-1.9774683"><ele>305.2</ele><time>2026-05-04T09:02:01.792Z</time></trkpt><trkpt lat="53.1238983" lon="-1.9776417"><ele>305.79999999999995</ele><time>2026-05-04T09:02:02.792Z</time></trkpt><trkpt lat="53.1238767" lon="-1.9778067"><ele>306.4</ele><time>2026-05-04T09:02:03.792Z</time></trkpt><trkpt lat="53.1238617" lon="-1.977975"><ele>307.0</ele><time>2026-05-04T09:02:04.792Z</time></trkpt><trkpt lat="53.1238517" lon="-1.9781333"><ele>305.0</ele><time>2026-05-04T09:02:05.792Z</time></trkpt><trkpt lat="53.1238433" lon="-1.978295"><ele>303.0</ele><time>2026-05-04T09:02:06.791Z</time></trkpt><trkpt lat="53.1238333" lon="-1.9784517"><ele>301.0</ele><time>2026-05-04T09:02:07.792Z</time></trkpt><trkpt lat="53.123815" lon="-1.9786117"><ele>299.0</ele><time>2026-05-04T09:02:08.791Z</time></trkpt><trkpt lat="53.1237867" lon="-1.97877"><ele>297.0</ele><time>2026-05-04T09:02:09.792Z</time></trkpt><trkpt lat="53.1237483" lon="-1.9789217"><ele>295.8</ele><time>2026-05-04T09:02:10.793Z</time></trkpt><trkpt lat="53.1236983" lon="-1.9790567"><ele>294.6</ele><time>2026-05-04T09:02:11.792Z</time></trkpt><trkpt lat="53.123635" lon="-1.97917"><ele>293.40000000000003</ele><time>2026-05-04T09:02:12.791Z</time></trkpt><trkpt lat="53.123565" lon="-1.9792683"><ele>292.2</ele><time>2026-05-04T09:02:13.792Z</time></trkpt><trkpt lat="53.12349" lon="-1.9793533"><ele>291.0</ele><time>2026-05-04T09:02:14.791Z</time></trkpt><trkpt lat="53.1234083" lon="-1.9794383"><ele>291.0</ele><time>2026-05-04T09:02:15.792Z</time></trkpt><trkpt lat="53.12333" lon="-1.9795233"><ele>291.0</ele><time>2026-05-04T09:02:16.792Z</time></trkpt><trkpt lat="53.12326" lon="-1.97962"><ele>291.0</ele><time>2026-05-04T09:02:17.792Z</time></trkpt><trkpt lat="53.1232017" lon="-1.9797233"><ele>291.0</ele><time>2026-05-04T09:02:18.791Z</time></trkpt><trkpt lat="53.1231567" lon="-1.979845"><ele>291.0</ele><time>2026-05-04T09:02:19.791Z</time></trkpt><trkpt lat="53.1231183" lon="-1.9799867"><ele>291.0</ele><time>2026-05-04T09:02:20.792Z</time></trkpt><trkpt lat="53.1230733" lon="-1.9801083"><ele>291.0</ele><time>2026-05-04T09:02:21.792Z</time></trkpt><trkpt lat="53.1230217" lon="-1.9802217"><ele>291.0</ele><time>2026-05-04T09:02:22.792Z</time></trkpt><trkpt lat="53.1229617" lon="-1.9803167"><ele>291.0</ele><time>2026-05-04T09:02:23.793Z</time></trkpt><trkpt lat="53.1228867" lon="-1.9804033"><ele>291.0</ele><time>2026-05-04T09:02:24.792Z</time></trkpt><trkpt lat="53.1228117" lon="-1.9804817"><ele>291.0</ele><time>2026-05-04T09:02:25.792Z</time></trkpt><trkpt lat="53.1227467" lon="-1.9805567"><ele>291.0</ele><time>2026-05-04T09:02:26.791Z</time></trkpt><trkpt lat="53.122685" lon="-1.9806183"><ele>291.0</ele><time>2026-05-04T09:02:27.791Z</time></trkpt><trkpt lat="53.12263" lon="-1.9806883"><ele>291.0</ele><time>2026-05-04T09:02:28.793Z</time></trkpt><trkpt lat="53.1225783" lon="-1.9807733"><ele>291.0</ele><time>2026-05-04T09:02:29.793Z</time></trkpt><trkpt lat="53.12253" lon="-1.9808817"><ele>291.0</ele><time>2026-05-04T09:02:30.792Z</time></trkpt><trkpt lat="53.1224883" lon="-1.9810117"><ele>291.0</ele><time>2026-05-04T09:02:31.792Z</time></trkpt><trkpt lat="53.122455" lon="-1.9811733"><ele>291.0</ele><time>2026-05-04T09:02:32.792Z</time></trkpt><trkpt lat="53.1224283" lon="-1.9813567"><ele>290.0</ele><time>2026-05-04T09:02:33.792Z</time></trkpt><trkpt lat="53.122395" lon="-1.981545"><ele>289.0</ele><time>2026-05-04T09:02:34.79Z</time></trkpt><trkpt lat="53.1223583" lon="-1.9817367"><ele>288.0</ele><time>2026-05-04T09:02:35.792Z</time></trkpt><trkpt lat="53.1223267" lon="-1.9819333"><ele>287.0</ele><time>2026-05-04T09:02:36.791Z</time></trkpt><trkpt lat="53.12229" lon="-1.9821183"><ele>286.0</ele><time>2026-05-04T09:02:37.792Z</time></trkpt><trkpt lat="53.1222517" lon="-1.9823017"><ele>285.0</ele><time>2026-05-04T09:02:38.792Z</time></trkpt><trkpt lat="53.12222" lon="-1.982495"><ele>284.0</ele><time>2026-05-04T09:02:39.792Z</time></trkpt><trkpt lat="53.1221867" lon="-1.982695"><ele>283.0</ele><time>2026-05-04T09:02:40.791Z</time></trkpt><trkpt lat="53.122155" lon="-1.982905"><ele>282.25</ele><time>2026-05-04T09:02:41.792Z</time></trkpt><trkpt lat="53.1221217" lon="-1.9831167"><ele>281.5</ele><time>2026-05-04T09:02:42.792Z</time></trkpt><trkpt lat="53.122085" lon="-1.9833367"><ele>280.75</ele><time>2026-05-04T09:02:43.791Z</time></trkpt><trkpt lat="53.12205" lon="-1.9835733"><ele>280.0</ele><time>2026-05-04T09:02:44.792Z</time></trkpt><trkpt lat="53.1220117" lon="-1.9838233"><ele>279.3333333333333</ele><time>2026-05-04T09:02:45.792Z</time></trkpt><trkpt lat="53.1219717" lon="-1.9840817"><ele>278.6666666666667</ele><time>2026-05-04T09:02:46.79Z</time></trkpt><trkpt lat="53.1219333" lon="-1.9843433"><ele>278.0</ele><time>2026-05-04T09:02:47.792Z</time></trkpt><trkpt lat="53.1218983" lon="-1.98461"><ele>277.0</ele><time>2026-05-04T09:02:48.791Z</time></trkpt><trkpt lat="53.121865" lon="-1.9848733"><ele>276.0</ele><time>2026-05-04T09:02:49.793Z</time></trkpt><trkpt lat="53.121835" lon="-1.9851317"><ele>275.0</ele><time>2026-05-04T09:02:50.791Z</time></trkpt><trkpt lat="53.1218117" lon="-1.985385"><ele>273.75</ele><time>2026-05-04T09:02:51.791Z</time></trkpt><trkpt lat="53.12179" lon="-1.9856383"><ele>272.5</ele><time>2026-05-04T09:02:52.791Z</time></trkpt><trkpt lat="53.1217667" lon="-1.9858817"><ele>271.25</ele><time>2026-05-04T09:02:53.792Z</time></trkpt><trkpt lat="53.12174" lon="-1.9861217"><ele>270.0</ele><time>2026-05-04T09:02:54.792Z</time></trkpt><trkpt lat="53.1217133" lon="-1.9863483"><ele>268.8</ele><time>2026-05-04T09:02:55.792Z</time></trkpt><trkpt lat="53.1216867" lon="-1.9865583"><ele>267.6</ele><time>2026-05-04T09:02:56.792Z</time></trkpt><trkpt lat="53.1216633" lon="-1.98674"><ele>266.4</ele><time>2026-05-04T09:02:57.792Z</time></trkpt><trkpt lat="53.1216333" lon="-1.9868817"><ele>265.2</ele><time>2026-05-04T09:02:58.791Z</time></trkpt><trkpt lat="53.1215933" lon="-1.9869983"><ele>264.0</ele><time>2026-05-04T09:02:59.793Z</time></trkpt><trkpt lat="53.1215317" lon="-1.98706"><ele>262.8</ele><time>2026-05-04T09:03:00.792Z</time></trkpt><trkpt lat="53.12145" lon="-1.9870783"><ele>261.59999999999997</ele><time>2026-05-04T09:03:01.795Z</time></trkpt><trkpt lat="53.1213467" lon="-1.9870333"><ele>260.4</ele><time>2026-05-04T09:03:02.792Z</time></trkpt><trkpt lat="53.1212383" lon="-1.9869683"><ele>259.2</ele><time>2026-05-04T09:03:03.792Z</time></trkpt><trkpt lat="53.1211183" lon="-1.9868783"><ele>258.0</ele><time>2026-05-04T09:03:04.793Z</time></trkpt><trkpt lat="53.1210017" lon="-1.9867867"><ele>258.0</ele><time>2026-05-04T09:03:05.794Z</time></trkpt><trkpt lat="53.120895" lon="-1.9867"><ele>258.0</ele><time>2026-05-04T09:03:06.794Z</time></trkpt><trkpt lat="53.12079" lon="-1.9866467"><ele>258.0</ele><time>2026-05-04T09:03:07.794Z</time></trkpt><trkpt lat="53.1206983" lon="-1.9866567"><ele>258.0</ele><time>2026-05-04T09:03:08.795Z</time></trkpt><trkpt lat="53.1206" lon="-1.9866867"><ele>258.0</ele><time>2026-05-04T09:03:09.794Z</time></trkpt><trkpt lat="53.1204967" lon="-1.9867517"><ele>259.0</ele><time>2026-05-04T09:03:10.792Z</time></trkpt><trkpt lat="53.1203717" lon="-1.9868233"><ele>260.0</ele><time>2026-05-04T09:03:11.793Z</time></trkpt><trkpt lat="53.1202517" lon="-1.986875"><ele>261.0</ele><time>2026-05-04T09:03:12.793Z</time></trkpt><trkpt lat="53.1201317" lon="-1.9869183"><ele>262.0</ele><time>2026-05-04T09:03:13.794Z</time></trkpt><trkpt lat="53.1200167" lon="-1.9869517"><ele>262.25</ele><time>2026-05-04T09:03:14.794Z</time></trkpt><trkpt lat="53.1198983" lon="-1.9869817"><ele>262.5</ele><time>2026-05-04T09:03:15.793Z</time></trkpt><trkpt lat="53.11978" lon="-1.987015"><ele>262.75</ele><time>2026-05-04T09:03:16.796Z</time></trkpt><trkpt lat="53.1196417" lon="-1.9870433"><ele>263.0</ele><time>2026-05-04T09:03:17.793Z</time></trkpt><trkpt lat="53.1195067" lon="-1.9870717"><ele>263.0</ele><time>2026-05-04T09:03:18.794Z</time></trkpt><trkpt lat="53.1193767" lon="-1.9871033"><ele>263.0</ele><time>2026-05-04T09:03:19.794Z</time></trkpt><trkpt lat="53.1192433" lon="-1.9871433"><ele>263.0</ele><time>2026-05-04T09:03:20.794Z</time></trkpt><trkpt lat="53.1191067" lon="-1.9871917"><ele>263.0</ele><time>2026-05-04T09:03:21.794Z</time></trkpt><trkpt lat="53.118965" lon="-1.987245"><ele>263.25</ele><time>2026-05-04T09:03:22.794Z</time></trkpt><trkpt lat="53.11882" lon="-1.9873017"><ele>263.5</ele><time>2026-05-04T09:03:23.793Z</time></trkpt><trkpt lat="53.1186833" lon="-1.98736"><ele>263.75</ele><time>2026-05-04T09:03:24.794Z</time></trkpt><trkpt lat="53.11855" lon="-1.9874217"><ele>264.0</ele><time>2026-05-04T09:03:25.794Z</time></trkpt><trkpt lat="53.1184217" lon="-1.98748"><ele>262.75</ele><time>2026-05-04T09:03:26.793Z</time></trkpt><trkpt lat="53.1182933" lon="-1.9875417"><ele>261.5</ele><time>2026-05-04T09:03:27.793Z</time></trkpt><trkpt lat="53.11817" lon="-1.9876"><ele>260.25</ele><time>2026-05-04T09:03:28.794Z</time></trkpt><trkpt lat="53.11805" lon="-1.9876533"><ele>259.0</ele><time>2026-05-04T09:03:29.794Z</time></trkpt><trkpt lat="53.1179333" lon="-1.987715"><ele>259.0</ele><time>2026-05-04T09:03:30.795Z</time></trkpt><trkpt lat="53.117825" lon="-1.9877833"><ele>259.0</ele><time>2026-05-04T09:03:31.794Z</time></trkpt><trkpt lat="53.1177133" lon="-1.9878833"><ele>259.0</ele><time>2026-05-04T09:03:32.794Z</time></trkpt><trkpt lat="53.1176017" lon="-1.9880167"><ele>259.0</ele><time>2026-05-04T09:03:33.793Z</time></trkpt><trkpt lat="53.1174917" lon="-1.988155"><ele>259.25</ele><time>2026-05-04T09:03:34.793Z</time></trkpt><trkpt lat="53.1173817" lon="-1.988275"><ele>259.5</ele><time>2026-05-04T09:03:35.792Z</time></trkpt><trkpt lat="53.1172817" lon="-1.9883867"><ele>259.75</ele><time>2026-05-04T09:03:36.793Z</time></trkpt><trkpt lat="53.117175" lon="-1.9884767"><ele>260.0</ele><time>2026-05-04T09:03:37.793Z</time></trkpt><trkpt lat="53.117065" lon="-1.988545"><ele>259.4</ele><time>2026-05-04T09:03:38.793Z</time></trkpt><trkpt lat="53.1169567" lon="-1.9886067"><ele>258.8</ele><time>2026-05-04T09:03:39.794Z</time></trkpt><trkpt lat="53.1168583" lon="-1.9886733"><ele>258.2</ele><time>2026-05-04T09:03:40.793Z</time></trkpt><trkpt lat="53.1167683" lon="-1.9887467"><ele>257.6</ele><time>2026-05-04T09:03:41.794Z</time></trkpt><trkpt lat="53.11669" lon="-1.988835"><ele>257.0</ele><time>2026-05-04T09:03:42.794Z</time></trkpt><trkpt lat="53.1166183" lon="-1.988945"><ele>257.25</ele><time>2026-05-04T09:03:43.794Z</time></trkpt><trkpt lat="53.1165617" lon="-1.9890883"><ele>257.5</ele><time>2026-05-04T09:03:44.794Z</time></trkpt><trkpt lat="53.116515" lon="-1.9892817"><ele>257.75</ele><time>2026-05-04T09:03:45.793Z</time></trkpt><trkpt lat="53.1164633" lon="-1.9894967"><ele>258.0</ele><time>2026-05-04T09:03:46.792Z</time></trkpt><trkpt lat="53.1164083" lon="-1.989755"><ele>255.33333333333331</ele><time>2026-05-04T09:03:47.793Z</time></trkpt><trkpt lat="53.1163483" lon="-1.990035"><ele>252.66666666666666</ele><time>2026-05-04T09:03:48.794Z</time></trkpt><trkpt lat="53.1162883" lon="-1.9903167"><ele>250.0</ele><time>2026-05-04T09:03:49.794Z</time></trkpt><trkpt lat="53.1162283" lon="-1.9906"><ele>249.0</ele><time>2026-05-04T09:03:50.794Z</time></trkpt><trkpt lat="53.116165" lon="-1.9908583"><ele>248.0</ele><time>2026-05-04T09:03:51.797Z</time></trkpt><trkpt lat="53.1161067" lon="-1.991105"><ele>247.0</ele><time>2026-05-04T09:03:52.794Z</time></trkpt><trkpt lat="53.1160533" lon="-1.991345"><ele>247.0</ele><time>2026-05-04T09:03:53.793Z</time></trkpt><trkpt lat="53.116005" lon="-1.9915633"><ele>247.0</ele><time>2026-05-04T09:03:54.793Z</time></trkpt><trkpt lat="53.1159533" lon="-1.9917833"><ele>247.0</ele><time>2026-05-04T09:03:55.792Z</time></trkpt><trkpt lat="53.1159" lon="-1.9920067"><ele>247.0</ele><time>2026-05-04T09:03:56.794Z</time></trkpt><trkpt lat="53.1158433" lon="-1.9922417"><ele>246.0</ele><time>2026-05-04T09:03:57.793Z</time></trkpt><trkpt lat="53.1157783" lon="-1.992495"><ele>245.0</ele><time>2026-05-04T09:03:58.794Z</time></trkpt><trkpt lat="53.1157117" lon="-1.992755"><ele>244.0</ele><time>2026-05-04T09:03:59.795Z</time></trkpt><trkpt lat="53.1156433" lon="-1.993015"><ele>243.33333333333331</ele><time>2026-05-04T09:04:00.793Z</time></trkpt><trkpt lat="53.1155733" lon="-1.9932633"><ele>242.66666666666669</ele><time>2026-05-04T09:04:01.792Z</time></trkpt><trkpt lat="53.1155083" lon="-1.9935133"><ele>242.0</ele><time>2026-05-04T09:04:02.793Z</time></trkpt><trkpt lat="53.1154417" lon="-1.993775"><ele>241.33333333333334</ele><time>2026-05-04T09:04:03.793Z</time></trkpt><trkpt lat="53.1153733" lon="-1.9940417"><ele>240.66666666666669</ele><time>2026-05-04T09:04:04.793Z</time></trkpt><trkpt lat="53.1153017" lon="-1.994305"><ele>240.0</ele><time>2026-05-04T09:04:05.794Z</time></trkpt><trkpt lat="53.1152283" lon="-1.9945517"><ele>238.66666666666669</ele><time>2026-05-04T09:04:06.793Z</time></trkpt><trkpt lat="53.1151483" lon="-1.9947783"><ele>237.33333333333334</ele><time>2026-05-04T09:04:07.794Z</time></trkpt><trkpt lat="53.1150633" lon="-1.9949917"><ele>236.0</ele><time>2026-05-04T09:04:08.795Z</time></trkpt><trkpt lat="53.1149733" lon="-1.9951933"><ele>234.33333333333334</ele><time>2026-05-04T09:04:09.794Z</time></trkpt><trkpt lat="53.1148767" lon="-1.995385"><ele>232.66666666666669</ele><time>2026-05-04T09:04:10.794Z</time></trkpt><trkpt lat="53.11477" lon="-1.9955717"><ele>231.0</ele><time>2026-05-04T09:04:11.792Z</time></trkpt><trkpt lat="53.1146517" lon="-1.9957567"><ele>229.0</ele><time>2026-05-04T09:04:12.792Z</time></trkpt><trkpt lat="53.11453" lon="-1.9959433"><ele>227.0</ele><time>2026-05-04T09:04:13.794Z</time></trkpt><trkpt lat="53.1144083" lon="-1.9961317"><ele>225.0</ele><time>2026-05-04T09:04:14.793Z</time></trkpt><trkpt lat="53.11429" lon="-1.99632"><ele>225.0</ele><time>2026-05-04T09:04:15.793Z</time></trkpt><trkpt lat="53.1141717" lon="-1.9965133"><ele>225.0</ele><time>2026-05-04T09:04:16.793Z</time></trkpt><trkpt lat="53.1140517" lon="-1.9967083"><ele>225.0</ele><time>2026-05-04T09:04:17.794Z</time></trkpt><trkpt lat="53.11393" lon="-1.9969067"><ele>225.33333333333331</ele><time>2026-05-04T09:04:18.793Z</time></trkpt><trkpt lat="53.1138117" lon="-1.99709"><ele>225.66666666666666</ele><time>2026-05-04T09:04:19.793Z</time></trkpt><trkpt lat="53.113705" lon="-1.9972783"><ele>226.0</ele><time>2026-05-04T09:04:20.793Z</time></trkpt><trkpt lat="53.1136067" lon="-1.9974583"><ele>226.5</ele><time>2026-05-04T09:04:21.793Z</time></trkpt><trkpt lat="53.1135083" lon="-1.9976367"><ele>227.0</ele><time>2026-05-04T09:04:22.793Z</time></trkpt><trkpt lat="53.11342" lon="-1.997825"><ele>227.5</ele><time>2026-05-04T09:04:23.795Z</time></trkpt><trkpt lat="53.1133483" lon="-1.998035"><ele>228.0</ele><time>2026-05-04T09:04:24.798Z</time></trkpt><trkpt lat="53.1133017" lon="-1.9982517"><ele>228.0</ele><time>2026-05-04T09:04:25.795Z</time></trkpt><trkpt lat="53.1132633" lon="-1.9984717"><ele>228.0</ele><time>2026-05-04T09:04:26.794Z</time></trkpt><trkpt lat="53.1132333" lon="-1.9987033"><ele>228.0</ele><time>2026-05-04T09:04:27.795Z</time></trkpt><trkpt lat="53.1132033" lon="-1.99895"><ele>228.0</ele><time>2026-05-04T09:04:28.796Z</time></trkpt><trkpt lat="53.11317" lon="-1.9991883"><ele>228.75</ele><time>2026-05-04T09:04:29.793Z</time></trkpt><trkpt lat="53.1131383" lon="-1.9994233"><ele>229.5</ele><time>2026-05-04T09:04:30.794Z</time></trkpt><trkpt lat="53.113105" lon="-1.9996533"><ele>230.25</ele><time>2026-05-04T09:04:31.795Z</time></trkpt><trkpt lat="53.1130667" lon="-1.99988"><ele>231.0</ele><time>2026-05-04T09:04:32.794Z</time></trkpt><trkpt lat="53.1130317" lon="-2.0001067"><ele>231.0</ele><time>2026-05-04T09:04:33.793Z</time></trkpt><trkpt lat="53.1130017" lon="-2.000355"><ele>231.0</ele><time>2026-05-04T09:04:34.8Z</time></trkpt><trkpt lat="53.1129667" lon="-2.0006133"><ele>231.0</ele><time>2026-05-04T09:04:35.793Z</time></trkpt><trkpt lat="53.112925" lon="-2.0008633"><ele>231.0</ele><time>2026-05-04T09:04:36.794Z</time></trkpt><trkpt lat="53.1128867" lon="-2.00113"><ele>231.0</ele><time>2026-05-04T09:04:37.793Z</time></trkpt><trkpt lat="53.112845" lon="-2.0013967"><ele>231.0</ele><time>2026-05-04T09:04:38.794Z</time></trkpt><trkpt lat="53.1127983" lon="-2.001655"><ele>231.66666666666669</ele><time>2026-05-04T09:04:39.792Z</time></trkpt><trkpt lat="53.1127567" lon="-2.00192"><ele>232.33333333333334</ele><time>2026-05-04T09:04:40.793Z</time></trkpt><trkpt lat="53.112715" lon="-2.0021867"><ele>233.0</ele><time>2026-05-04T09:04:41.794Z</time></trkpt><trkpt lat="53.1126717" lon="-2.0024483"><ele>233.66666666666669</ele><time>2026-05-04T09:04:42.795Z</time></trkpt><trkpt lat="53.112625" lon="-2.0027033"><ele>234.33333333333331</ele><time>2026-05-04T09:04:43.794Z</time></trkpt><trkpt lat="53.11258" lon="-2.0029483"><ele>235.0</ele><time>2026-05-04T09:04:44.794Z</time></trkpt><trkpt lat="53.11254" lon="-2.0031717"><ele>235.6</ele><time>2026-05-04T09:04:45.793Z</time></trkpt><trkpt lat="53.1125067" lon="-2.0033683"><ele>236.2</ele><time>2026-05-04T09:04:46.793Z</time></trkpt><trkpt lat="53.112475" lon="-2.0035317"><ele>236.8</ele><time>2026-05-04T09:04:47.793Z</time></trkpt><trkpt lat="53.11245" lon="-2.00369"><ele>237.4</ele><time>2026-05-04T09:04:48.794Z</time></trkpt><trkpt lat="53.1124233" lon="-2.0038217"><ele>238.0</ele><time>2026-05-04T09:04:49.794Z</time></trkpt><trkpt lat="53.112405" lon="-2.003935"><ele>238.25</ele><time>2026-05-04T09:04:50.792Z</time></trkpt><trkpt lat="53.1123783" lon="-2.0040767"><ele>238.5</ele><time>2026-05-04T09:04:52.793Z</time></trkpt><trkpt lat="53.11223" lon="-2.0044183"><ele>238.75</ele><time>2026-05-04T09:05:40.432Z</time></trkpt><trkpt lat="53.11229" lon="-2.0043733"><ele>239.0</ele><time>2026-05-04T09:05:47.792Z</time></trkpt><trkpt lat="53.11237" lon="-2.004265"><ele>239.0</ele><time>2026-05-04T09:05:56.792Z</time></trkpt><trkpt lat="53.1124033" lon="-2.0041383"><ele>238.99999999999997</ele><time>2026-05-04T09:06:01.792Z</time></trkpt><trkpt lat="53.1124367" lon="-2.0039967"><ele>238.99999999999997</ele><time>2026-05-04T09:06:05.791Z</time></trkpt><trkpt lat="53.1124817" lon="-2.0038017"><ele>239.0</ele><time>2026-05-04T09:06:07.791Z</time></trkpt><trkpt lat="53.1125117" lon="-2.0036833"><ele>239.0</ele><time>2026-05-04T09:06:08.792Z</time></trkpt><trkpt lat="53.1125417" lon="-2.00353"><ele>238.75</ele><time>2026-05-04T09:06:09.791Z</time></trkpt><trkpt lat="53.1125667" lon="-2.003345"><ele>238.5</ele><time>2026-05-04T09:06:10.791Z</time></trkpt><trkpt lat="53.1125917" lon="-2.0031533"><ele>238.25</ele><time>2026-05-04T09:06:11.791Z</time></trkpt><trkpt lat="53.11262" lon="-2.00296"><ele>238.0</ele><time>2026-05-04T09:06:12.791Z</time></trkpt><trkpt lat="53.11265" lon="-2.0027733"><ele>237.25</ele><time>2026-05-04T09:06:13.791Z</time></trkpt><trkpt lat="53.1126833" lon="-2.002575"><ele>236.5</ele><time>2026-05-04T09:06:14.794Z</time></trkpt><trkpt lat="53.112715" lon="-2.0023833"><ele>235.75</ele><time>2026-05-04T09:06:15.792Z</time></trkpt><trkpt lat="53.1127467" lon="-2.0022033"><ele>235.0</ele><time>2026-05-04T09:06:16.792Z</time></trkpt><trkpt lat="53.11277" lon="-2.0020083"><ele>234.6</ele><time>2026-05-04T09:06:17.791Z</time></trkpt><trkpt lat="53.1127933" lon="-2.00183"><ele>234.2</ele><time>2026-05-04T09:06:18.79Z</time></trkpt><trkpt lat="53.1128183" lon="-2.001665"><ele>233.8</ele><time>2026-05-04T09:06:19.791Z</time></trkpt><trkpt lat="53.112845" lon="-2.0015"><ele>233.4</ele><time>2026-05-04T09:06:20.79Z</time></trkpt><trkpt lat="53.112875" lon="-2.00134"><ele>233.0</ele><time>2026-05-04T09:06:21.791Z</time></trkpt><trkpt lat="53.1129033" lon="-2.001175"><ele>232.60000000000002</ele><time>2026-05-04T09:06:22.792Z</time></trkpt><trkpt lat="53.11293" lon="-2.00102"><ele>232.20000000000002</ele><time>2026-05-04T09:06:23.79Z</time></trkpt><trkpt lat="53.112955" lon="-2.0008617"><ele>231.8</ele><time>2026-05-04T09:06:24.791Z</time></trkpt><trkpt lat="53.112985" lon="-2.0006867"><ele>231.4</ele><time>2026-05-04T09:06:25.791Z</time></trkpt><trkpt lat="53.1130183" lon="-2.0004917"><ele>231.0</ele><time>2026-05-04T09:06:26.79Z</time></trkpt><trkpt lat="53.1130583" lon="-2.000275"><ele>231.0</ele><time>2026-05-04T09:06:27.793Z</time></trkpt><trkpt lat="53.1130983" lon="-2.0000283"><ele>231.0</ele><time>2026-05-04T09:06:28.791Z</time></trkpt><trkpt lat="53.1131383" lon="-1.9997683"><ele>231.0</ele><time>2026-05-04T09:06:29.79Z</time></trkpt><trkpt lat="53.1131767" lon="-1.9995217"><ele>231.0</ele><time>2026-05-04T09:06:30.791Z</time></trkpt><trkpt lat="53.1132133" lon="-1.9992767"><ele>231.0</ele><time>2026-05-04T09:06:31.792Z</time></trkpt><trkpt lat="53.1132483" lon="-1.9990433"><ele>231.0</ele><time>2026-05-04T09:06:32.79Z</time></trkpt><trkpt lat="53.1132833" lon="-1.9988283"><ele>231.0</ele><time>2026-05-04T09:06:33.791Z</time></trkpt><trkpt lat="53.1133183" lon="-1.9986217"><ele>230.25</ele><time>2026-05-04T09:06:34.791Z</time></trkpt><trkpt lat="53.1133517" lon="-1.99842"><ele>229.5</ele><time>2026-05-04T09:06:35.792Z</time></trkpt><trkpt lat="53.11339" lon="-1.998215"><ele>228.75</ele><time>2026-05-04T09:06:36.796Z</time></trkpt><trkpt lat="53.1134333" lon="-1.998015"><ele>228.0</ele><time>2026-05-04T09:06:37.792Z</time></trkpt><trkpt lat="53.1134867" lon="-1.9978217"><ele>228.0</ele><time>2026-05-04T09:06:38.791Z</time></trkpt><trkpt lat="53.1135533" lon="-1.9976367"><ele>228.0</ele><time>2026-05-04T09:06:39.793Z</time></trkpt><trkpt lat="53.1136333" lon="-1.9974433"><ele>228.0</ele><time>2026-05-04T09:06:40.792Z</time></trkpt><trkpt lat="53.1137233" lon="-1.997235"><ele>228.0</ele><time>2026-05-04T09:06:41.792Z</time></trkpt><trkpt lat="53.113835" lon="-1.9970483"><ele>227.33333333333331</ele><time>2026-05-04T09:06:42.791Z</time></trkpt><trkpt lat="53.113965" lon="-1.99686"><ele>226.66666666666666</ele><time>2026-05-04T09:06:43.792Z</time></trkpt><trkpt lat="53.1140983" lon="-1.996665"><ele>226.0</ele><time>2026-05-04T09:06:44.79Z</time></trkpt><trkpt lat="53.1142283" lon="-1.99645"><ele>225.66666666666666</ele><time>2026-05-04T09:06:45.793Z</time></trkpt><trkpt lat="53.1143583" lon="-1.9962383"><ele>225.33333333333331</ele><time>2026-05-04T09:06:46.791Z</time></trkpt><trkpt lat="53.1144883" lon="-1.99602"><ele>225.0</ele><time>2026-05-04T09:06:47.793Z</time></trkpt><trkpt lat="53.1146233" lon="-1.9957983"><ele>226.66666666666669</ele><time>2026-05-04T09:06:48.795Z</time></trkpt><trkpt lat="53.1147417" lon="-1.995585"><ele>228.33333333333334</ele><time>2026-05-04T09:06:49.794Z</time></trkpt><trkpt lat="53.114865" lon="-1.9953667"><ele>230.0</ele><time>2026-05-04T09:06:50.791Z</time></trkpt><trkpt lat="53.11498" lon="-1.99514"><ele>232.0</ele><time>2026-05-04T09:06:51.795Z</time></trkpt><trkpt lat="53.115085" lon="-1.994905"><ele>234.0</ele><time>2026-05-04T09:06:52.795Z</time></trkpt><trkpt lat="53.1151767" lon="-1.99467"><ele>236.0</ele><time>2026-05-04T09:06:53.795Z</time></trkpt><trkpt lat="53.11525" lon="-1.9944483"><ele>236.0</ele><time>2026-05-04T09:06:54.796Z</time></trkpt><trkpt lat="53.115315" lon="-1.9942317"><ele>236.0</ele><time>2026-05-04T09:06:55.791Z</time></trkpt><trkpt lat="53.11538" lon="-1.994"><ele>236.0</ele><time>2026-05-04T09:06:56.791Z</time></trkpt><trkpt lat="53.1154517" lon="-1.9937483"><ele>237.33333333333334</ele><time>2026-05-04T09:06:57.793Z</time></trkpt><trkpt lat="53.1155217" lon="-1.99347"><ele>238.66666666666669</ele><time>2026-05-04T09:06:58.792Z</time></trkpt><trkpt lat="53.1155933" lon="-1.9931767"><ele>240.0</ele><time>2026-05-04T09:06:59.793Z</time></trkpt><trkpt lat="53.1156717" lon="-1.9928683"><ele>241.0</ele><time>2026-05-04T09:07:00.792Z</time></trkpt><trkpt lat="53.1157483" lon="-1.9925433"><ele>242.0</ele><time>2026-05-04T09:07:01.792Z</time></trkpt><trkpt lat="53.11583" lon="-1.99222"><ele>243.0</ele><time>2026-05-04T09:07:02.791Z</time></trkpt><trkpt lat="53.1159083" lon="-1.9919067"><ele>244.33333333333331</ele><time>2026-05-04T09:07:03.792Z</time></trkpt><trkpt lat="53.1159833" lon="-1.9916"><ele>245.66666666666666</ele><time>2026-05-04T09:07:04.791Z</time></trkpt><trkpt lat="53.1160567" lon="-1.991295"><ele>247.0</ele><time>2026-05-04T09:07:05.793Z</time></trkpt><trkpt lat="53.1161317" lon="-1.9910017"><ele>248.0</ele><time>2026-05-04T09:07:06.791Z</time></trkpt><trkpt lat="53.1162067" lon="-1.990725"><ele>249.0</ele><time>2026-05-04T09:07:07.792Z</time></trkpt><trkpt lat="53.1162783" lon="-1.9904567"><ele>250.0</ele><time>2026-05-04T09:07:08.792Z</time></trkpt><trkpt lat="53.1163467" lon="-1.9902"><ele>251.25</ele><time>2026-05-04T09:07:09.791Z</time></trkpt><trkpt lat="53.1164083" lon="-1.9899633"><ele>252.5</ele><time>2026-05-04T09:07:10.79Z</time></trkpt><trkpt lat="53.1164617" lon="-1.9897433"><ele>253.75</ele><time>2026-05-04T09:07:11.793Z</time></trkpt><trkpt lat="53.11651" lon="-1.989545"><ele>255.0</ele><time>2026-05-04T09:07:12.791Z</time></trkpt><trkpt lat="53.1165517" lon="-1.9893683"><ele>254.66666666666666</ele><time>2026-05-04T09:07:13.792Z</time></trkpt><trkpt lat="53.1165867" lon="-1.989215"><ele>254.33333333333331</ele><time>2026-05-04T09:07:14.792Z</time></trkpt><trkpt lat="53.1166167" lon="-1.9891117"><ele>254.0</ele><time>2026-05-04T09:07:15.792Z</time></trkpt><trkpt lat="53.1166283" lon="-1.9889867"><ele>253.66666666666666</ele><time>2026-05-04T09:07:17.793Z</time></trkpt><trkpt lat="53.1165683" lon="-1.9889117"><ele>253.33333333333331</ele><time>2026-05-04T09:07:19.795Z</time></trkpt><trkpt lat="53.1165017" lon="-1.9888983"><ele>253.0</ele><time>2026-05-04T09:07:20.794Z</time></trkpt><trkpt lat="53.1164067" lon="-1.9889167"><ele>254.0</ele><time>2026-05-04T09:07:21.791Z</time></trkpt><trkpt lat="53.116295" lon="-1.9889567"><ele>255.0</ele><time>2026-05-04T09:07:22.79Z</time></trkpt><trkpt lat="53.1161767" lon="-1.9889983"><ele>256.0</ele><time>2026-05-04T09:07:23.793Z</time></trkpt><trkpt lat="53.11607" lon="-1.98903"><ele>257.0</ele><time>2026-05-04T09:07:24.79Z</time></trkpt><trkpt lat="53.1159833" lon="-1.9890567"><ele>258.0</ele><time>2026-05-04T09:07:25.794Z</time></trkpt><trkpt lat="53.1158883" lon="-1.9890117"><ele>258.0</ele><time>2026-05-04T09:07:27.795Z</time></trkpt><trkpt lat="53.1158383" lon="-1.9888267"><ele>258.0</ele><time>2026-05-04T09:07:29.792Z</time></trkpt><trkpt lat="53.1158217" lon="-1.9886717"><ele>258.0</ele><time>2026-05-04T09:07:30.791Z</time></trkpt><trkpt lat="53.1158067" lon="-1.988505"><ele>258.0</ele><time>2026-05-04T09:07:31.791Z</time></trkpt><trkpt lat="53.1157933" lon="-1.9882283"><ele>259.3333333333333</ele><time>2026-05-04T09:07:32.792Z</time></trkpt><trkpt lat="53.1157833" lon="-1.98795"><ele>260.66666666666663</ele><time>2026-05-04T09:07:33.795Z</time></trkpt><trkpt lat="53.1157717" lon="-1.9876717"><ele>262.0</ele><time>2026-05-04T09:07:34.793Z</time></trkpt><trkpt lat="53.1157567" lon="-1.9873717"><ele>263.0</ele><time>2026-05-04T09:07:35.793Z</time></trkpt><trkpt lat="53.11574" lon="-1.9870583"><ele>264.0</ele><time>2026-05-04T09:07:36.791Z</time></trkpt><trkpt lat="53.1157267" lon="-1.9867367"><ele>265.0</ele><time>2026-05-04T09:07:37.791Z</time></trkpt><trkpt lat="53.115715" lon="-1.9864133"><ele>266.0</ele><time>2026-05-04T09:07:38.792Z</time></trkpt><trkpt lat="53.1157033" lon="-1.986085"><ele>267.0</ele><time>2026-05-04T09:07:39.791Z</time></trkpt><trkpt lat="53.1156933" lon="-1.9857467"><ele>268.0</ele><time>2026-05-04T09:07:40.792Z</time></trkpt><trkpt lat="53.115685" lon="-1.9854033"><ele>269.3333333333333</ele><time>2026-05-04T09:07:41.794Z</time></trkpt><trkpt lat="53.1156783" lon="-1.9850617"><ele>270.6666666666667</ele><time>2026-05-04T09:07:42.79Z</time></trkpt><trkpt lat="53.11567" lon="-1.98472"><ele>272.0</ele><time>2026-05-04T09:07:43.795Z</time></trkpt><trkpt lat="53.1156617" lon="-1.9843717"><ele>273.6666666666667</ele><time>2026-05-04T09:07:44.791Z</time></trkpt><trkpt lat="53.1156533" lon="-1.9840283"><ele>275.3333333333333</ele><time>2026-05-04T09:07:45.792Z</time></trkpt><trkpt lat="53.1156467" lon="-1.9836867"><ele>277.0</ele><time>2026-05-04T09:07:46.792Z</time></trkpt><trkpt lat="53.1156417" lon="-1.9833517"><ele>278.0</ele><time>2026-05-04T09:07:47.793Z</time></trkpt><trkpt lat="53.1156333" lon="-1.983015"><ele>279.0</ele><time>2026-05-04T09:07:48.791Z</time></trkpt><trkpt lat="53.1156217" lon="-1.98268"><ele>280.0</ele><time>2026-05-04T09:07:49.791Z</time></trkpt><trkpt lat="53.115615" lon="-1.982345"><ele>281.3333333333333</ele><time>2026-05-04T09:07:50.792Z</time></trkpt><trkpt lat="53.115605" lon="-1.9820133"><ele>282.6666666666667</ele><time>2026-05-04T09:07:51.793Z</time></trkpt><trkpt lat="53.115595" lon="-1.9816883"><ele>284.0</ele><time>2026-05-04T09:07:52.792Z</time></trkpt><trkpt lat="53.1155883" lon="-1.9813683"><ele>285.33333333333337</ele><time>2026-05-04T09:07:53.791Z</time></trkpt><trkpt lat="53.11558" lon="-1.981065"><ele>286.6666666666667</ele><time>2026-05-04T09:07:54.791Z</time></trkpt><trkpt lat="53.1155733" lon="-1.9808033"><ele>288.0</ele><time>2026-05-04T09:07:55.795Z</time></trkpt><trkpt lat="53.115565" lon="-1.980575"><ele>289.0</ele><time>2026-05-04T09:07:56.792Z</time></trkpt><trkpt lat="53.11555" lon="-1.9803683"><ele>290.0</ele><time>2026-05-04T09:07:57.791Z</time></trkpt><trkpt lat="53.1155267" lon="-1.9801717"><ele>291.0</ele><time>2026-05-04T09:07:58.794Z</time></trkpt><trkpt lat="53.1154883" lon="-1.979975"><ele>292.0</ele><time>2026-05-04T09:07:59.791Z</time></trkpt><trkpt lat="53.1154383" lon="-1.9797833"><ele>292.5</ele><time>2026-05-04T09:08:00.791Z</time></trkpt><trkpt lat="53.1153817" lon="-1.9795817"><ele>293.0</ele><time>2026-05-04T09:08:01.792Z</time></trkpt><trkpt lat="53.1153167" lon="-1.9793633"><ele>293.5</ele><time>2026-05-04T09:08:02.792Z</time></trkpt><trkpt lat="53.1152517" lon="-1.97913"><ele>294.0</ele><time>2026-05-04T09:08:03.791Z</time></trkpt><trkpt lat="53.11519" lon="-1.978905"><ele>293.2</ele><time>2026-05-04T09:08:04.792Z</time></trkpt><trkpt lat="53.1151333" lon="-1.9787067"><ele>292.4</ele><time>2026-05-04T09:08:05.792Z</time></trkpt><trkpt lat="53.115085" lon="-1.978535"><ele>291.6</ele><time>2026-05-04T09:08:06.795Z</time></trkpt><trkpt lat="53.1150467" lon="-1.9783867"><ele>290.8</ele><time>2026-05-04T09:08:07.795Z</time></trkpt><trkpt lat="53.1150233" lon="-1.9782483"><ele>290.0</ele><time>2026-05-04T09:08:08.794Z</time></trkpt><trkpt lat="53.1150133" lon="-1.978105"><ele>290.0</ele><time>2026-05-04T09:08:09.792Z</time></trkpt><trkpt lat="53.115015" lon="-1.9779567"><ele>290.0</ele><time>2026-05-04T09:08:10.791Z</time></trkpt><trkpt lat="53.1150283" lon="-1.977815"><ele>290.0</ele><time>2026-05-04T09:08:11.792Z</time></trkpt><trkpt lat="53.1150583" lon="-1.9776433"><ele>290.0</ele><time>2026-05-04T09:08:12.791Z</time></trkpt><trkpt lat="53.1151167" lon="-1.9774117"><ele>290.0</ele><time>2026-05-04T09:08:13.791Z</time></trkpt><trkpt lat="53.1151683" lon="-1.9771533"><ele>290.0</ele><time>2026-05-04T09:08:14.793Z</time></trkpt><trkpt lat="53.11522" lon="-1.9768717"><ele>290.0</ele><time>2026-05-04T09:08:15.791Z</time></trkpt><trkpt lat="53.1152717" lon="-1.9765717"><ele>290.0</ele><time>2026-05-04T09:08:16.793Z</time></trkpt><trkpt lat="53.115325" lon="-1.9762617"><ele>292.0</ele><time>2026-05-04T09:08:17.793Z</time></trkpt><trkpt lat="53.1153833" lon="-1.97596"><ele>294.0</ele><time>2026-05-04T09:08:18.793Z</time></trkpt><trkpt lat="53.1154417" lon="-1.9756667"><ele>296.0</ele><time>2026-05-04T09:08:19.798Z</time></trkpt><trkpt lat="53.115505" lon="-1.9753817"><ele>298.0</ele><time>2026-05-04T09:08:20.792Z</time></trkpt><trkpt lat="53.115575" lon="-1.9750983"><ele>300.0</ele><time>2026-05-04T09:08:21.792Z</time></trkpt><trkpt lat="53.1156433" lon="-1.974815"><ele>302.0</ele><time>2026-05-04T09:08:22.792Z</time></trkpt><trkpt lat="53.115715" lon="-1.9745383"><ele>304.0</ele><time>2026-05-04T09:08:23.791Z</time></trkpt><trkpt lat="53.1157867" lon="-1.9742683"><ele>306.0</ele><time>2026-05-04T09:08:24.79Z</time></trkpt><trkpt lat="53.1158533" lon="-1.974"><ele>308.0</ele><time>2026-05-04T09:08:25.794Z</time></trkpt><trkpt lat="53.1159133" lon="-1.9737317"><ele>311.0</ele><time>2026-05-04T09:08:26.794Z</time></trkpt><trkpt lat="53.1159717" lon="-1.97347"><ele>314.0</ele><time>2026-05-04T09:08:27.795Z</time></trkpt><trkpt lat="53.1160267" lon="-1.9732"><ele>317.0</ele><time>2026-05-04T09:08:28.795Z</time></trkpt><trkpt lat="53.116085" lon="-1.9729217"><ele>320.0</ele><time>2026-05-04T09:08:29.792Z</time></trkpt><trkpt lat="53.11614" lon="-1.9726333"><ele>323.0</ele><time>2026-05-04T09:08:30.791Z</time></trkpt><trkpt lat="53.116195" lon="-1.9723383"><ele>326.0</ele><time>2026-05-04T09:08:31.792Z</time></trkpt><trkpt lat="53.1162517" lon="-1.9720367"><ele>328.0</ele><time>2026-05-04T09:08:32.79Z</time></trkpt><trkpt lat="53.1163117" lon="-1.9717333"><ele>330.0</ele><time>2026-05-04T09:08:33.792Z</time></trkpt><trkpt lat="53.1163767" lon="-1.9714317"><ele>332.0</ele><time>2026-05-04T09:08:34.792Z</time></trkpt><trkpt lat="53.1164433" lon="-1.9711133"><ele>335.0</ele><time>2026-05-04T09:08:35.795Z</time></trkpt><trkpt lat="53.11651" lon="-1.9707867"><ele>338.0</ele><time>2026-05-04T09:08:36.791Z</time></trkpt><trkpt lat="53.1165733" lon="-1.970465"><ele>341.0</ele><time>2026-05-04T09:08:37.792Z</time></trkpt><trkpt lat="53.1166283" lon="-1.9701617"><ele>342.5</ele><time>2026-05-04T09:08:38.79Z</time></trkpt><trkpt lat="53.116685" lon="-1.969895"><ele>344.0</ele><time>2026-05-04T09:08:39.79Z</time></trkpt><trkpt lat="53.1167433" lon="-1.9696733"><ele>345.5</ele><time>2026-05-04T09:08:40.791Z</time></trkpt><trkpt lat="53.11682" lon="-1.9695"><ele>347.0</ele><time>2026-05-04T09:08:41.792Z</time></trkpt><trkpt lat="53.1169167" lon="-1.9693517"><ele>347.0</ele><time>2026-05-04T09:08:42.795Z</time></trkpt><trkpt lat="53.1170233" lon="-1.9692033"><ele>347.0</ele><time>2026-05-04T09:08:43.794Z</time></trkpt><trkpt lat="53.1171233" lon="-1.9690417"><ele>347.0</ele><time>2026-05-04T09:08:44.792Z</time></trkpt><trkpt lat="53.11721" lon="-1.9688583"><ele>347.0</ele><time>2026-05-04T09:08:45.795Z</time></trkpt><trkpt lat="53.1172783" lon="-1.96865"><ele>349.25</ele><time>2026-05-04T09:08:46.795Z</time></trkpt><trkpt lat="53.117325" lon="-1.9684267"><ele>351.5</ele><time>2026-05-04T09:08:47.795Z</time></trkpt><trkpt lat="53.1173433" lon="-1.9682017"><ele>353.75</ele><time>2026-05-04T09:08:48.795Z</time></trkpt><trkpt lat="53.1173367" lon="-1.9679717"><ele>356.0</ele><time>2026-05-04T09:08:49.795Z</time></trkpt><trkpt lat="53.117315" lon="-1.9677317"><ele>363.33333333333337</ele><time>2026-05-04T09:08:50.795Z</time></trkpt><trkpt lat="53.1172833" lon="-1.9674783"><ele>370.6666666666667</ele><time>2026-05-04T09:08:51.791Z</time></trkpt><trkpt lat="53.1172467" lon="-1.9672083"><ele>378.0</ele><time>2026-05-04T09:08:52.791Z</time></trkpt><trkpt lat="53.1172083" lon="-1.9669267"><ele>379.6666666666667</ele><time>2026-05-04T09:08:53.792Z</time></trkpt><trkpt lat="53.1171667" lon="-1.96664"><ele>381.33333333333337</ele><time>2026-05-04T09:08:54.792Z</time></trkpt><trkpt lat="53.1171233" lon="-1.966345"><ele>383.0</ele><time>2026-05-04T09:08:55.791Z</time></trkpt><trkpt lat="53.1170817" lon="-1.96604"><ele>385.0</ele><time>2026-05-04T09:08:56.792Z</time></trkpt><trkpt lat="53.1170383" lon="-1.965735"><ele>387.0</ele><time>2026-05-04T09:08:57.792Z</time></trkpt><trkpt lat="53.116995" lon="-1.9654283"><ele>389.0</ele><time>2026-05-04T09:08:58.792Z</time></trkpt><trkpt lat="53.1169517" lon="-1.9651367"><ele>390.25</ele><time>2026-05-04T09:08:59.791Z</time></trkpt><trkpt lat="53.116905" lon="-1.9648717"><ele>391.5</ele><time>2026-05-04T09:09:00.793Z</time></trkpt><trkpt lat="53.1168633" lon="-1.9646367"><ele>392.75</ele><time>2026-05-04T09:09:01.792Z</time></trkpt><trkpt lat="53.1168367" lon="-1.964435"><ele>394.0</ele><time>2026-05-04T09:09:02.795Z</time></trkpt><trkpt lat="53.1168167" lon="-1.964255"><ele>394.0</ele><time>2026-05-04T09:09:03.791Z</time></trkpt><trkpt lat="53.1168017" lon="-1.9640917"><ele>394.0</ele><time>2026-05-04T09:09:04.793Z</time></trkpt><trkpt lat="53.1167883" lon="-1.96396"><ele>394.0</ele><time>2026-05-04T09:09:05.794Z</time></trkpt><trkpt lat="53.11677" lon="-1.9638067"><ele>394.0</ele><time>2026-05-04T09:09:07.792Z</time></trkpt><trkpt lat="53.11668" lon="-1.9637617"><ele>394.0</ele><time>2026-05-04T09:09:22.794Z</time></trkpt><trkpt lat="53.1165483" lon="-1.963775"><ele>395.25</ele><time>2026-05-04T09:09:24.792Z</time></trkpt><trkpt lat="53.1164467" lon="-1.9638083"><ele>396.5</ele><time>2026-05-04T09:09:25.795Z</time></trkpt><trkpt lat="53.1163233" lon="-1.963845"><ele>397.75</ele><time>2026-05-04T09:09:26.794Z</time></trkpt><trkpt lat="53.1161583" lon="-1.9638883"><ele>399.0</ele><time>2026-05-04T09:09:27.795Z</time></trkpt><trkpt lat="53.1159483" lon="-1.9639483"><ele>399.5</ele><time>2026-05-04T09:09:28.795Z</time></trkpt><trkpt lat="53.1157267" lon="-1.9640167"><ele>400.0</ele><time>2026-05-04T09:09:29.791Z</time></trkpt><trkpt lat="53.1155067" lon="-1.9640883"><ele>400.0</ele><time>2026-05-04T09:09:30.795Z</time></trkpt><trkpt lat="53.1152917" lon="-1.96416"><ele>400.0</ele><time>2026-05-04T09:09:31.795Z</time></trkpt><trkpt lat="53.1150733" lon="-1.964225"><ele>400.0</ele><time>2026-05-04T09:09:32.795Z</time></trkpt><trkpt lat="53.1148517" lon="-1.9642917"><ele>400.5</ele><time>2026-05-04T09:09:33.795Z</time></trkpt><trkpt lat="53.114625" lon="-1.96436"><ele>401.0</ele><time>2026-05-04T09:09:34.795Z</time></trkpt><trkpt lat="53.114395" lon="-1.96443"><ele>401.0</ele><time>2026-05-04T09:09:35.794Z</time></trkpt><trkpt lat="53.1141667" lon="-1.9644983"><ele>401.0</ele><time>2026-05-04T09:09:36.793Z</time></trkpt><trkpt lat="53.113935" lon="-1.9645633"><ele>401.0</ele><time>2026-05-04T09:09:37.791Z</time></trkpt><trkpt lat="53.1136967" lon="-1.9646333"><ele>401.0</ele><time>2026-05-04T09:09:38.794Z</time></trkpt><trkpt lat="53.1134517" lon="-1.9647"><ele>400.0</ele><time>2026-05-04T09:09:39.791Z</time></trkpt><trkpt lat="53.113205" lon="-1.9647683"><ele>399.0</ele><time>2026-05-04T09:09:40.791Z</time></trkpt><trkpt lat="53.112955" lon="-1.9648433"><ele>399.0</ele><time>2026-05-04T09:09:41.793Z</time></trkpt><trkpt lat="53.1127033" lon="-1.9649183"><ele>399.0</ele><time>2026-05-04T09:09:42.791Z</time></trkpt><trkpt lat="53.11245" lon="-1.9649867"><ele>400.0</ele><time>2026-05-04T09:09:43.795Z</time></trkpt><trkpt lat="53.1121967" lon="-1.9650567"><ele>401.0</ele><time>2026-05-04T09:09:44.795Z</time></trkpt><trkpt lat="53.11195" lon="-1.9651217"><ele>401.0</ele><time>2026-05-04T09:09:45.792Z</time></trkpt><trkpt lat="53.1117067" lon="-1.9651783"><ele>401.0</ele><time>2026-05-04T09:09:46.791Z</time></trkpt><trkpt lat="53.1114567" lon="-1.96524"><ele>401.5</ele><time>2026-05-04T09:09:47.793Z</time></trkpt><trkpt lat="53.1112067" lon="-1.9653033"><ele>402.0</ele><time>2026-05-04T09:09:48.792Z</time></trkpt><trkpt lat="53.1109467" lon="-1.965375"><ele>402.5</ele><time>2026-05-04T09:09:49.792Z</time></trkpt><trkpt lat="53.11069" lon="-1.9654417"><ele>403.0</ele><time>2026-05-04T09:09:50.794Z</time></trkpt><trkpt lat="53.1104467" lon="-1.9655"><ele>403.0</ele><time>2026-05-04T09:09:51.791Z</time></trkpt><trkpt lat="53.1102167" lon="-1.965555"><ele>403.0</ele><time>2026-05-04T09:09:52.791Z</time></trkpt><trkpt lat="53.110005" lon="-1.965605"><ele>403.0</ele><time>2026-05-04T09:09:53.791Z</time></trkpt><trkpt lat="53.10981" lon="-1.9656417"><ele>403.0</ele><time>2026-05-04T09:09:54.795Z</time></trkpt><trkpt lat="53.1096217" lon="-1.965635"><ele>403.0</ele><time>2026-05-04T09:09:55.794Z</time></trkpt><trkpt lat="53.1094367" lon="-1.9655983"><ele>403.0</ele><time>2026-05-04T09:09:56.79Z</time></trkpt><trkpt lat="53.1092467" lon="-1.965525"><ele>403.0</ele><time>2026-05-04T09:09:57.791Z</time></trkpt><trkpt lat="53.1090483" lon="-1.9654367"><ele>403.0</ele><time>2026-05-04T09:09:58.791Z</time></trkpt><trkpt lat="53.1088433" lon="-1.96535"><ele>403.0</ele><time>2026-05-04T09:09:59.794Z</time></trkpt><trkpt lat="53.108635" lon="-1.9652633"><ele>403.0</ele><time>2026-05-04T09:10:00.794Z</time></trkpt><trkpt lat="53.1084233" lon="-1.9651733"><ele>403.0</ele><time>2026-05-04T09:10:01.794Z</time></trkpt><trkpt lat="53.10821" lon="-1.9650817"><ele>403.0</ele><time>2026-05-04T09:10:02.795Z</time></trkpt><trkpt lat="53.107995" lon="-1.9649917"><ele>403.5</ele><time>2026-05-04T09:10:03.792Z</time></trkpt><trkpt lat="53.107775" lon="-1.9649"><ele>404.0</ele><time>2026-05-04T09:10:04.795Z</time></trkpt><trkpt lat="53.1075533" lon="-1.9648083"><ele>403.5</ele><time>2026-05-04T09:10:05.795Z</time></trkpt><trkpt lat="53.1073317" lon="-1.9647117"><ele>403.0</ele><time>2026-05-04T09:10:06.795Z</time></trkpt><trkpt lat="53.1071083" lon="-1.964615"><ele>403.0</ele><time>2026-05-04T09:10:07.799Z</time></trkpt><trkpt lat="53.1068817" lon="-1.96452"><ele>403.0</ele><time>2026-05-04T09:10:08.794Z</time></trkpt><trkpt lat="53.1066567" lon="-1.9644283"><ele>401.5</ele><time>2026-05-04T09:10:09.79Z</time></trkpt><trkpt lat="53.1064283" lon="-1.9643367"><ele>400.0</ele><time>2026-05-04T09:10:10.793Z</time></trkpt><trkpt lat="53.1061983" lon="-1.9642433"><ele>401.0</ele><time>2026-05-04T09:10:11.795Z</time></trkpt><trkpt lat="53.1059683" lon="-1.96415"><ele>402.0</ele><time>2026-05-04T09:10:12.792Z</time></trkpt><trkpt lat="53.1057383" lon="-1.9640617"><ele>402.0</ele><time>2026-05-04T09:10:13.792Z</time></trkpt><trkpt lat="53.1055067" lon="-1.9639667"><ele>402.0</ele><time>2026-05-04T09:10:14.795Z</time></trkpt><trkpt lat="53.1052717" lon="-1.96387"><ele>402.0</ele><time>2026-05-04T09:10:15.795Z</time></trkpt><trkpt lat="53.1050333" lon="-1.9637717"><ele>402.0</ele><time>2026-05-04T09:10:16.792Z</time></trkpt><trkpt lat="53.1047967" lon="-1.9636733"><ele>401.0</ele><time>2026-05-04T09:10:17.792Z</time></trkpt><trkpt lat="53.10456" lon="-1.963575"><ele>400.0</ele><time>2026-05-04T09:10:18.792Z</time></trkpt><trkpt lat="53.1043267" lon="-1.963475"><ele>400.0</ele><time>2026-05-04T09:10:19.791Z</time></trkpt><trkpt lat="53.104095" lon="-1.9633633"><ele>400.0</ele><time>2026-05-04T09:10:20.796Z</time></trkpt><trkpt lat="53.1038633" lon="-1.9632467"><ele>400.0</ele><time>2026-05-04T09:10:21.793Z</time></trkpt><trkpt lat="53.10363" lon="-1.9631267"><ele>400.0</ele><time>2026-05-04T09:10:22.794Z</time></trkpt><trkpt lat="53.1033917" lon="-1.9630033"><ele>398.5</ele><time>2026-05-04T09:10:23.794Z</time></trkpt><trkpt lat="53.10315" lon="-1.9628767"><ele>397.0</ele><time>2026-05-04T09:10:24.795Z</time></trkpt><trkpt lat="53.1029117" lon="-1.96275"><ele>397.0</ele><time>2026-05-04T09:10:25.795Z</time></trkpt><trkpt lat="53.1026733" lon="-1.9626167"><ele>397.0</ele><time>2026-05-04T09:10:26.794Z</time></trkpt><trkpt lat="53.1024383" lon="-1.962485"><ele>398.0</ele><time>2026-05-04T09:10:27.795Z</time></trkpt><trkpt lat="53.1022033" lon="-1.9623533"><ele>399.0</ele><time>2026-05-04T09:10:28.794Z</time></trkpt><trkpt lat="53.1019683" lon="-1.9622217"><ele>399.0</ele><time>2026-05-04T09:10:29.793Z</time></trkpt><trkpt lat="53.1017317" lon="-1.962095"><ele>399.0</ele><time>2026-05-04T09:10:30.792Z</time></trkpt><trkpt lat="53.1014933" lon="-1.9619683"><ele>396.5</ele><time>2026-05-04T09:10:31.794Z</time></trkpt><trkpt lat="53.101255" lon="-1.96184"><ele>394.0</ele><time>2026-05-04T09:10:32.794Z</time></trkpt><trkpt lat="53.10101" lon="-1.9617117"><ele>394.5</ele><time>2026-05-04T09:10:33.794Z</time></trkpt><trkpt lat="53.1007633" lon="-1.9615867"><ele>395.0</ele><time>2026-05-04T09:10:34.795Z</time></trkpt><trkpt lat="53.10051" lon="-1.9614533"><ele>395.0</ele><time>2026-05-04T09:10:35.796Z</time></trkpt><trkpt lat="53.1002583" lon="-1.96131"><ele>395.0</ele><time>2026-05-04T09:10:36.795Z</time></trkpt><trkpt lat="53.100005" lon="-1.9611633"><ele>392.5</ele><time>2026-05-04T09:10:37.795Z</time></trkpt><trkpt lat="53.0997583" lon="-1.9610267"><ele>390.0</ele><time>2026-05-04T09:10:38.795Z</time></trkpt><trkpt lat="53.0995183" lon="-1.9608917"><ele>391.0</ele><time>2026-05-04T09:10:39.795Z</time></trkpt><trkpt lat="53.0992883" lon="-1.9607633"><ele>392.0</ele><time>2026-05-04T09:10:40.794Z</time></trkpt><trkpt lat="53.0990617" lon="-1.96064"><ele>392.0</ele><time>2026-05-04T09:10:41.795Z</time></trkpt><trkpt lat="53.0988433" lon="-1.960535"><ele>392.0</ele><time>2026-05-04T09:10:42.796Z</time></trkpt><trkpt lat="53.09864" lon="-1.9604367"><ele>392.0</ele><time>2026-05-04T09:10:43.794Z</time></trkpt><trkpt lat="53.0984517" lon="-1.960325"><ele>392.0</ele><time>2026-05-04T09:10:44.794Z</time></trkpt><trkpt lat="53.0982733" lon="-1.9601767"><ele>392.0</ele><time>2026-05-04T09:10:45.794Z</time></trkpt><trkpt lat="53.0981" lon="-1.9599883"><ele>392.0</ele><time>2026-05-04T09:10:46.792Z</time></trkpt><trkpt lat="53.0979233" lon="-1.9597717"><ele>392.66666666666663</ele><time>2026-05-04T09:10:47.795Z</time></trkpt><trkpt lat="53.097745" lon="-1.9595517"><ele>393.33333333333337</ele><time>2026-05-04T09:10:48.792Z</time></trkpt><trkpt lat="53.0975767" lon="-1.95934"><ele>394.0</ele><time>2026-05-04T09:10:49.792Z</time></trkpt><trkpt lat="53.0974183" lon="-1.9591483"><ele>394.6666666666667</ele><time>2026-05-04T09:10:50.794Z</time></trkpt><trkpt lat="53.0972767" lon="-1.95897"><ele>395.33333333333337</ele><time>2026-05-04T09:10:51.794Z</time></trkpt><trkpt lat="53.0971467" lon="-1.9588083"><ele>396.0</ele><time>2026-05-04T09:10:52.794Z</time></trkpt><trkpt lat="53.097015" lon="-1.9586683"><ele>396.0</ele><time>2026-05-04T09:10:53.794Z</time></trkpt><trkpt lat="53.09688" lon="-1.9585467"><ele>396.0</ele><time>2026-05-04T09:10:54.795Z</time></trkpt><trkpt lat="53.0967317" lon="-1.9584233"><ele>396.0</ele><time>2026-05-04T09:10:55.793Z</time></trkpt><trkpt lat="53.0965733" lon="-1.958295"><ele>396.66666666666663</ele><time>2026-05-04T09:10:56.791Z</time></trkpt><trkpt lat="53.0964117" lon="-1.9581683"><ele>397.3333333333333</ele><time>2026-05-04T09:10:57.792Z</time></trkpt><trkpt lat="53.0962467" lon="-1.9580383"><ele>398.0</ele><time>2026-05-04T09:10:58.792Z</time></trkpt><trkpt lat="53.0960767" lon="-1.9579033"><ele>398.0</ele><time>2026-05-04T09:10:59.792Z</time></trkpt><trkpt lat="53.095905" lon="-1.9577717"><ele>398.0</ele><time>2026-05-04T09:11:00.792Z</time></trkpt><trkpt lat="53.0957317" lon="-1.9576383"><ele>398.0</ele><time>2026-05-04T09:11:01.792Z</time></trkpt><trkpt lat="53.0955533" lon="-1.9574983"><ele>398.3333333333333</ele><time>2026-05-04T09:11:02.791Z</time></trkpt><trkpt lat="53.0953683" lon="-1.95736"><ele>398.66666666666663</ele><time>2026-05-04T09:11:03.794Z</time></trkpt><trkpt lat="53.0951883" lon="-1.957225"><ele>399.0</ele><time>2026-05-04T09:11:04.797Z</time></trkpt><trkpt lat="53.0950133" lon="-1.9570867"><ele>399.0</ele><time>2026-05-04T09:11:05.794Z</time></trkpt><trkpt lat="53.09484" lon="-1.9569317"><ele>399.0</ele><time>2026-05-04T09:11:06.795Z</time></trkpt><trkpt lat="53.0946683" lon="-1.9567617"><ele>399.0</ele><time>2026-05-04T09:11:07.795Z</time></trkpt><trkpt lat="53.0944933" lon="-1.9565783"><ele>399.0</ele><time>2026-05-04T09:11:08.795Z</time></trkpt><trkpt lat="53.0943167" lon="-1.95639"><ele>399.0</ele><time>2026-05-04T09:11:09.798Z</time></trkpt><trkpt lat="53.094135" lon="-1.9561933"><ele>399.0</ele><time>2026-05-04T09:11:10.794Z</time></trkpt><trkpt lat="53.0939517" lon="-1.9559917"><ele>398.0</ele><time>2026-05-04T09:11:11.791Z</time></trkpt><trkpt lat="53.0937683" lon="-1.95579"><ele>397.0</ele><time>2026-05-04T09:11:12.792Z</time></trkpt><trkpt lat="53.09358" lon="-1.9555883"><ele>396.0</ele><time>2026-05-04T09:11:13.791Z</time></trkpt><trkpt lat="53.0933883" lon="-1.9553917"><ele>395.5</ele><time>2026-05-04T09:11:14.793Z</time></trkpt><trkpt lat="53.0931917" lon="-1.9551933"><ele>395.0</ele><time>2026-05-04T09:11:15.793Z</time></trkpt><trkpt lat="53.092995" lon="-1.954995"><ele>395.0</ele><time>2026-05-04T09:11:16.792Z</time></trkpt><trkpt lat="53.0928017" lon="-1.95479"><ele>395.0</ele><time>2026-05-04T09:11:17.792Z</time></trkpt><trkpt lat="53.092605" lon="-1.95458"><ele>394.5</ele><time>2026-05-04T09:11:18.791Z</time></trkpt><trkpt lat="53.0923983" lon="-1.9543617"><ele>394.0</ele><time>2026-05-04T09:11:19.792Z</time></trkpt><trkpt lat="53.0921883" lon="-1.95414"><ele>394.0</ele><time>2026-05-04T09:11:20.792Z</time></trkpt><trkpt lat="53.0919833" lon="-1.9539233"><ele>394.0</ele><time>2026-05-04T09:11:21.791Z</time></trkpt><trkpt lat="53.0917783" lon="-1.95371"><ele>393.0</ele><time>2026-05-04T09:11:22.791Z</time></trkpt><trkpt lat="53.0915767" lon="-1.9535"><ele>392.0</ele><time>2026-05-04T09:11:23.792Z</time></trkpt><trkpt lat="53.0913783" lon="-1.9532917"><ele>392.0</ele><time>2026-05-04T09:11:24.792Z</time></trkpt><trkpt lat="53.0911817" lon="-1.9530783"><ele>392.0</ele><time>2026-05-04T09:11:25.797Z</time></trkpt><trkpt lat="53.0909883" lon="-1.9528683"><ele>392.0</ele><time>2026-05-04T09:11:26.796Z</time></trkpt><trkpt lat="53.090795" lon="-1.9526583"><ele>392.0</ele><time>2026-05-04T09:11:27.792Z</time></trkpt><trkpt lat="53.0906033" lon="-1.9524517"><ele>391.5</ele><time>2026-05-04T09:11:28.795Z</time></trkpt><trkpt lat="53.09041" lon="-1.952245"><ele>391.0</ele><time>2026-05-04T09:11:29.792Z</time></trkpt><trkpt lat="53.0902083" lon="-1.9520283"><ele>391.0</ele><time>2026-05-04T09:11:30.795Z</time></trkpt><trkpt lat="53.0900117" lon="-1.951805"><ele>391.0</ele><time>2026-05-04T09:11:31.791Z</time></trkpt><trkpt lat="53.08982" lon="-1.9515533"><ele>389.5</ele><time>2026-05-04T09:11:32.795Z</time></trkpt><trkpt lat="53.08964" lon="-1.95127"><ele>388.0</ele><time>2026-05-04T09:11:33.796Z</time></trkpt><trkpt lat="53.0894733" lon="-1.950955"><ele>388.5</ele><time>2026-05-04T09:11:34.796Z</time></trkpt><trkpt lat="53.0893167" lon="-1.9506233"><ele>389.0</ele><time>2026-05-04T09:11:35.795Z</time></trkpt><trkpt lat="53.0891617" lon="-1.9502833"><ele>388.5</ele><time>2026-05-04T09:11:36.796Z</time></trkpt><trkpt lat="53.0890083" lon="-1.94994"><ele>388.0</ele><time>2026-05-04T09:11:37.796Z</time></trkpt><trkpt lat="53.0888533" lon="-1.9495917"><ele>388.0</ele><time>2026-05-04T09:11:38.796Z</time></trkpt><trkpt lat="53.0887033" lon="-1.9492583"><ele>388.0</ele><time>2026-05-04T09:11:39.796Z</time></trkpt><trkpt lat="53.0885617" lon="-1.9489383"><ele>390.0</ele><time>2026-05-04T09:11:40.795Z</time></trkpt><trkpt lat="53.0884233" lon="-1.948625"><ele>392.0</ele><time>2026-05-04T09:11:41.796Z</time></trkpt><trkpt lat="53.0882833" lon="-1.9483117"><ele>392.0</ele><time>2026-05-04T09:11:42.796Z</time></trkpt><trkpt lat="53.0881467" lon="-1.9480083"><ele>392.0</ele><time>2026-05-04T09:11:43.796Z</time></trkpt><trkpt lat="53.0880117" lon="-1.9477117"><ele>394.5</ele><time>2026-05-04T09:11:44.792Z</time></trkpt><trkpt lat="53.0878717" lon="-1.9474183"><ele>397.0</ele><time>2026-05-04T09:11:45.792Z</time></trkpt><trkpt lat="53.0877183" lon="-1.9471417"><ele>397.0</ele><time>2026-05-04T09:11:46.795Z</time></trkpt><trkpt lat="53.0875583" lon="-1.946875"><ele>397.0</ele><time>2026-05-04T09:11:47.795Z</time></trkpt><trkpt lat="53.087395" lon="-1.9466133"><ele>397.33333333333337</ele><time>2026-05-04T09:11:48.792Z</time></trkpt><trkpt lat="53.0872333" lon="-1.9463567"><ele>397.66666666666663</ele><time>2026-05-04T09:11:49.795Z</time></trkpt><trkpt lat="53.087075" lon="-1.9460983"><ele>398.0</ele><time>2026-05-04T09:11:50.792Z</time></trkpt><trkpt lat="53.0869183" lon="-1.9458433"><ele>398.3333333333333</ele><time>2026-05-04T09:11:51.792Z</time></trkpt><trkpt lat="53.08676" lon="-1.9455883"><ele>398.66666666666663</ele><time>2026-05-04T09:11:52.792Z</time></trkpt><trkpt lat="53.0866083" lon="-1.9453417"><ele>399.0</ele><time>2026-05-04T09:11:53.793Z</time></trkpt><trkpt lat="53.0864667" lon="-1.9451083"><ele>400.66666666666663</ele><time>2026-05-04T09:11:54.792Z</time></trkpt><trkpt lat="53.08633" lon="-1.94489"><ele>402.3333333333333</ele><time>2026-05-04T09:11:55.792Z</time></trkpt><trkpt lat="53.086195" lon="-1.94468"><ele>404.0</ele><time>2026-05-04T09:11:56.791Z</time></trkpt><trkpt lat="53.0860633" lon="-1.9444817"><ele>404.0</ele><time>2026-05-04T09:11:57.792Z</time></trkpt><trkpt lat="53.0859317" lon="-1.9442933"><ele>404.0</ele><time>2026-05-04T09:11:58.796Z</time></trkpt><trkpt lat="53.0858" lon="-1.9441017"><ele>404.0</ele><time>2026-05-04T09:11:59.791Z</time></trkpt><trkpt lat="53.0856667" lon="-1.9439067"><ele>404.0</ele><time>2026-05-04T09:12:00.795Z</time></trkpt><trkpt lat="53.0855317" lon="-1.94371"><ele>404.0</ele><time>2026-05-04T09:12:01.791Z</time></trkpt><trkpt lat="53.0853917" lon="-1.94351"><ele>404.0</ele><time>2026-05-04T09:12:02.792Z</time></trkpt><trkpt lat="53.0852483" lon="-1.9433"><ele>404.0</ele><time>2026-05-04T09:12:03.791Z</time></trkpt><trkpt lat="53.0850983" lon="-1.9430817"><ele>404.0</ele><time>2026-05-04T09:12:04.795Z</time></trkpt><trkpt lat="53.08495" lon="-1.94286"><ele>404.0</ele><time>2026-05-04T09:12:05.796Z</time></trkpt><trkpt lat="53.0847967" lon="-1.9426417"><ele>402.0</ele><time>2026-05-04T09:12:06.791Z</time></trkpt><trkpt lat="53.0846467" lon="-1.9424167"><ele>400.0</ele><time>2026-05-04T09:12:07.796Z</time></trkpt><trkpt lat="53.0845" lon="-1.9421883"><ele>398.0</ele><time>2026-05-04T09:12:08.796Z</time></trkpt><trkpt lat="53.08435" lon="-1.941955"><ele>398.0</ele><time>2026-05-04T09:12:09.792Z</time></trkpt><trkpt lat="53.0842033" lon="-1.9417233"><ele>398.0</ele><time>2026-05-04T09:12:10.791Z</time></trkpt><trkpt lat="53.0840583" lon="-1.9414983"><ele>398.0</ele><time>2026-05-04T09:12:11.792Z</time></trkpt><trkpt lat="53.0839167" lon="-1.9412817"><ele>397.3333333333333</ele><time>2026-05-04T09:12:12.791Z</time></trkpt><trkpt lat="53.0837817" lon="-1.94106"><ele>396.66666666666663</ele><time>2026-05-04T09:12:13.794Z</time></trkpt><trkpt lat="53.0836567" lon="-1.9408267"><ele>396.0</ele><time>2026-05-04T09:12:14.793Z</time></trkpt><trkpt lat="53.0835433" lon="-1.94058"><ele>396.0</ele><time>2026-05-04T09:12:15.795Z</time></trkpt><trkpt lat="53.083425" lon="-1.9403317"><ele>396.0</ele><time>2026-05-04T09:12:16.795Z</time></trkpt><trkpt lat="53.0833017" lon="-1.94009"><ele>396.0</ele><time>2026-05-04T09:12:17.796Z</time></trkpt><trkpt lat="53.083175" lon="-1.9398483"><ele>395.33333333333337</ele><time>2026-05-04T09:12:18.796Z</time></trkpt><trkpt lat="53.0830433" lon="-1.9396133"><ele>394.6666666666667</ele><time>2026-05-04T09:12:19.792Z</time></trkpt><trkpt lat="53.0829033" lon="-1.9393817"><ele>394.0</ele><time>2026-05-04T09:12:20.794Z</time></trkpt><trkpt lat="53.0827617" lon="-1.9391633"><ele>394.0</ele><time>2026-05-04T09:12:21.792Z</time></trkpt><trkpt lat="53.0826217" lon="-1.938955"><ele>394.0</ele><time>2026-05-04T09:12:22.793Z</time></trkpt><trkpt lat="53.0824867" lon="-1.9387667"><ele>394.0</ele><time>2026-05-04T09:12:23.794Z</time></trkpt><trkpt lat="53.0823533" lon="-1.9385917"><ele>391.6666666666667</ele><time>2026-05-04T09:12:24.792Z</time></trkpt><trkpt lat="53.08221" lon="-1.938425"><ele>389.33333333333337</ele><time>2026-05-04T09:12:25.796Z</time></trkpt><trkpt lat="53.08205" lon="-1.9382533"><ele>387.0</ele><time>2026-05-04T09:12:26.792Z</time></trkpt><trkpt lat="53.0818833" lon="-1.9380767"><ele>387.0</ele><time>2026-05-04T09:12:27.796Z</time></trkpt><trkpt lat="53.0817067" lon="-1.9379017"><ele>387.0</ele><time>2026-05-04T09:12:28.796Z</time></trkpt><trkpt lat="53.0815233" lon="-1.9377183"><ele>387.0</ele><time>2026-05-04T09:12:29.796Z</time></trkpt><trkpt lat="53.0813317" lon="-1.937525"><ele>385.6666666666667</ele><time>2026-05-04T09:12:30.795Z</time></trkpt><trkpt lat="53.08114" lon="-1.9373333"><ele>384.33333333333337</ele><time>2026-05-04T09:12:31.795Z</time></trkpt><trkpt lat="53.0809483" lon="-1.937135"><ele>383.0</ele><time>2026-05-04T09:12:32.794Z</time></trkpt><trkpt lat="53.08075" lon="-1.93693"><ele>381.0</ele><time>2026-05-04T09:12:33.792Z</time></trkpt><trkpt lat="53.0805417" lon="-1.93672"><ele>379.0</ele><time>2026-05-04T09:12:34.792Z</time></trkpt><trkpt lat="53.08033" lon="-1.936505"><ele>378.0</ele><time>2026-05-04T09:12:35.791Z</time></trkpt><trkpt lat="53.080125" lon="-1.9362917"><ele>377.0</ele><time>2026-05-04T09:12:36.793Z</time></trkpt><trkpt lat="53.079925" lon="-1.936085"><ele>376.33333333333337</ele><time>2026-05-04T09:12:37.792Z</time></trkpt><trkpt lat="53.079735" lon="-1.93589"><ele>375.6666666666667</ele><time>2026-05-04T09:12:38.794Z</time></trkpt><trkpt lat="53.0795667" lon="-1.9357133"><ele>375.0</ele><time>2026-05-04T09:12:39.797Z</time></trkpt><trkpt lat="53.0794333" lon="-1.9355733"><ele>375.0</ele><time>2026-05-04T09:12:40.796Z</time></trkpt><trkpt lat="53.0793317" lon="-1.9354633"><ele>375.0</ele><time>2026-05-04T09:12:41.795Z</time></trkpt><trkpt lat="53.0792467" lon="-1.9353717"><ele>375.0</ele><time>2026-05-04T09:12:42.795Z</time></trkpt><trkpt lat="53.079185" lon="-1.9352933"><ele>375.0</ele><time>2026-05-04T09:12:43.796Z</time></trkpt><trkpt lat="53.0791267" lon="-1.9351833"><ele>375.0</ele><time>2026-05-04T09:12:45.796Z</time></trkpt><trkpt lat="53.0790567" lon="-1.935125"><ele>374.0</ele><time>2026-05-04T09:12:57.792Z</time></trkpt><trkpt lat="53.07897" lon="-1.9351133"><ele>373.0</ele><time>2026-05-04T09:12:58.795Z</time></trkpt><trkpt lat="53.0788417" lon="-1.93511"><ele>372.0</ele><time>2026-05-04T09:12:59.795Z</time></trkpt><trkpt lat="53.0786967" lon="-1.93511"><ele>371.0</ele><time>2026-05-04T09:13:00.794Z</time></trkpt><trkpt lat="53.0785083" lon="-1.9350933"><ele>371.0</ele><time>2026-05-04T09:13:01.794Z</time></trkpt><trkpt lat="53.0783117" lon="-1.9350767"><ele>371.0</ele><time>2026-05-04T09:13:02.795Z</time></trkpt><trkpt lat="53.0781117" lon="-1.9350567"><ele>371.0</ele><time>2026-05-04T09:13:03.795Z</time></trkpt><trkpt lat="53.0779083" lon="-1.9350333"><ele>369.6666666666667</ele><time>2026-05-04T09:13:04.791Z</time></trkpt><trkpt lat="53.0777017" lon="-1.9350167"><ele>368.3333333333333</ele><time>2026-05-04T09:13:05.795Z</time></trkpt><trkpt lat="53.0774983" lon="-1.935"><ele>367.0</ele><time>2026-05-04T09:13:06.793Z</time></trkpt><trkpt lat="53.0773067" lon="-1.9349883"><ele>364.66666666666663</ele><time>2026-05-04T09:13:07.792Z</time></trkpt><trkpt lat="53.0771233" lon="-1.9349767"><ele>362.3333333333333</ele><time>2026-05-04T09:13:08.795Z</time></trkpt><trkpt lat="53.0769433" lon="-1.9349783"><ele>360.0</ele><time>2026-05-04T09:13:09.795Z</time></trkpt><trkpt lat="53.0767567" lon="-1.9350017"><ele>357.0</ele><time>2026-05-04T09:13:10.795Z</time></trkpt><trkpt lat="53.0765617" lon="-1.9350533"><ele>354.0</ele><time>2026-05-04T09:13:11.796Z</time></trkpt><trkpt lat="53.0763583" lon="-1.9351317"><ele>351.0</ele><time>2026-05-04T09:13:12.796Z</time></trkpt><trkpt lat="53.0761417" lon="-1.9352217"><ele>350.0</ele><time>2026-05-04T09:13:13.793Z</time></trkpt><trkpt lat="53.0759183" lon="-1.9353183"><ele>349.0</ele><time>2026-05-04T09:13:14.792Z</time></trkpt><trkpt lat="53.07569" lon="-1.9354233"><ele>346.5</ele><time>2026-05-04T09:13:15.792Z</time></trkpt><trkpt lat="53.0754583" lon="-1.9355367"><ele>344.0</ele><time>2026-05-04T09:13:16.792Z</time></trkpt><trkpt lat="53.075225" lon="-1.9356417"><ele>344.0</ele><time>2026-05-04T09:13:17.792Z</time></trkpt><trkpt lat="53.0749917" lon="-1.935745"><ele>344.0</ele><time>2026-05-04T09:13:18.793Z</time></trkpt><trkpt lat="53.07476" lon="-1.9358467"><ele>341.0</ele><time>2026-05-04T09:13:19.793Z</time></trkpt><trkpt lat="53.07453" lon="-1.9359617"><ele>338.0</ele><time>2026-05-04T09:13:20.791Z</time></trkpt><trkpt lat="53.0743067" lon="-1.9360883"><ele>335.5</ele><time>2026-05-04T09:13:21.792Z</time></trkpt><trkpt lat="53.0740917" lon="-1.9362383"><ele>333.0</ele><time>2026-05-04T09:13:22.793Z</time></trkpt><trkpt lat="53.073885" lon="-1.93641"><ele>333.0</ele><time>2026-05-04T09:13:23.795Z</time></trkpt><trkpt lat="53.0736883" lon="-1.9366"><ele>333.0</ele><time>2026-05-04T09:13:24.796Z</time></trkpt><trkpt lat="53.0735117" lon="-1.9368"><ele>333.0</ele><time>2026-05-04T09:13:25.796Z</time></trkpt><trkpt lat="53.0733617" lon="-1.937005"><ele>331.6666666666667</ele><time>2026-05-04T09:13:26.795Z</time></trkpt><trkpt lat="53.0732367" lon="-1.9372067"><ele>330.33333333333337</ele><time>2026-05-04T09:13:27.795Z</time></trkpt><trkpt lat="53.0731233" lon="-1.9373917"><ele>329.0</ele><time>2026-05-04T09:13:28.796Z</time></trkpt><trkpt lat="53.0730183" lon="-1.9375683"><ele>329.0</ele><time>2026-05-04T09:13:29.795Z</time></trkpt><trkpt lat="53.0729233" lon="-1.93774"><ele>329.0</ele><time>2026-05-04T09:13:30.795Z</time></trkpt><trkpt lat="53.0728317" lon="-1.9379017"><ele>329.0</ele><time>2026-05-04T09:13:31.792Z</time></trkpt><trkpt lat="53.0727433" lon="-1.9380583"><ele>329.0</ele><time>2026-05-04T09:13:32.791Z</time></trkpt><trkpt lat="53.072655" lon="-1.9382133"><ele>329.0</ele><time>2026-05-04T09:13:33.792Z</time></trkpt><trkpt lat="53.0725683" lon="-1.9383717"><ele>329.0</ele><time>2026-05-04T09:13:34.792Z</time></trkpt><trkpt lat="53.0724833" lon="-1.9385217"><ele>329.0</ele><time>2026-05-04T09:13:35.792Z</time></trkpt><trkpt lat="53.0724" lon="-1.9386717"><ele>329.0</ele><time>2026-05-04T09:13:36.792Z</time></trkpt><trkpt lat="53.07232" lon="-1.9388183"><ele>328.4</ele><time>2026-05-04T09:13:37.795Z</time></trkpt><trkpt lat="53.0722433" lon="-1.9389633"><ele>327.79999999999995</ele><time>2026-05-04T09:13:38.792Z</time></trkpt><trkpt lat="53.0721667" lon="-1.9391033"><ele>327.20000000000005</ele><time>2026-05-04T09:13:39.792Z</time></trkpt><trkpt lat="53.0720967" lon="-1.9392317"><ele>326.6</ele><time>2026-05-04T09:13:40.792Z</time></trkpt><trkpt lat="53.072035" lon="-1.9393467"><ele>326.0</ele><time>2026-05-04T09:13:41.796Z</time></trkpt><trkpt lat="53.0719833" lon="-1.9394283"><ele>326.0</ele><time>2026-05-04T09:13:42.792Z</time></trkpt><trkpt lat="53.071915" lon="-1.939515"><ele>326.0</ele><time>2026-05-04T09:13:44.796Z</time></trkpt><trkpt lat="53.0718517" lon="-1.93938"><ele>326.0</ele><time>2026-05-04T09:13:54.792Z</time></trkpt><trkpt lat="53.0718167" lon="-1.939245"><ele>326.0</ele><time>2026-05-04T09:13:55.793Z</time></trkpt><trkpt lat="53.0717733" lon="-1.9390933"><ele>326.0</ele><time>2026-05-04T09:13:56.791Z</time></trkpt><trkpt lat="53.07173" lon="-1.93894"><ele>326.0</ele><time>2026-05-04T09:13:57.791Z</time></trkpt><trkpt lat="53.0716783" lon="-1.938775"><ele>326.0</ele><time>2026-05-04T09:13:58.796Z</time></trkpt><trkpt lat="53.0716317" lon="-1.9386117"><ele>326.0</ele><time>2026-05-04T09:13:59.793Z</time></trkpt><trkpt lat="53.07158" lon="-1.93843"><ele>326.0</ele><time>2026-05-04T09:14:00.796Z</time></trkpt><trkpt lat="53.0715217" lon="-1.9382267"><ele>325.0</ele><time>2026-05-04T09:14:01.792Z</time></trkpt><trkpt lat="53.0714633" lon="-1.9380233"><ele>324.0</ele><time>2026-05-04T09:14:02.795Z</time></trkpt><trkpt lat="53.0714017" lon="-1.937815"><ele>323.0</ele><time>2026-05-04T09:14:03.791Z</time></trkpt><trkpt lat="53.0713433" lon="-1.93762"><ele>322.0</ele><time>2026-05-04T09:14:04.791Z</time></trkpt><trkpt lat="53.07128" lon="-1.93741"><ele>322.0</ele><time>2026-05-04T09:14:05.793Z</time></trkpt><trkpt lat="53.0712167" lon="-1.9371933"><ele>322.0</ele><time>2026-05-04T09:14:06.792Z</time></trkpt><trkpt lat="53.0711467" lon="-1.9369583"><ele>322.0</ele><time>2026-05-04T09:14:07.794Z</time></trkpt><trkpt lat="53.071075" lon="-1.9367067"><ele>321.66666666666663</ele><time>2026-05-04T09:14:08.792Z</time></trkpt><trkpt lat="53.071" lon="-1.936445"><ele>321.3333333333333</ele><time>2026-05-04T09:14:09.791Z</time></trkpt><trkpt lat="53.0709183" lon="-1.936175"><ele>321.0</ele><time>2026-05-04T09:14:10.792Z</time></trkpt><trkpt lat="53.07084" lon="-1.9359083"><ele>319.3333333333333</ele><time>2026-05-04T09:14:11.793Z</time></trkpt><trkpt lat="53.0707617" lon="-1.935635"><ele>317.66666666666663</ele><time>2026-05-04T09:14:12.791Z</time></trkpt><trkpt lat="53.0706833" lon="-1.9353633"><ele>316.0</ele><time>2026-05-04T09:14:13.793Z</time></trkpt><trkpt lat="53.070605" lon="-1.9350917"><ele>316.0</ele><time>2026-05-04T09:14:14.791Z</time></trkpt><trkpt lat="53.0705217" lon="-1.934815"><ele>316.0</ele><time>2026-05-04T09:14:15.794Z</time></trkpt><trkpt lat="53.07044" lon="-1.9345317"><ele>316.0</ele><time>2026-05-04T09:14:16.796Z</time></trkpt><trkpt lat="53.07036" lon="-1.934245"><ele>315.66666666666663</ele><time>2026-05-04T09:14:17.796Z</time></trkpt><trkpt lat="53.0702883" lon="-1.93395"><ele>315.3333333333333</ele><time>2026-05-04T09:14:18.796Z</time></trkpt><trkpt lat="53.07022" lon="-1.933655"><ele>315.0</ele><time>2026-05-04T09:14:19.795Z</time></trkpt><trkpt lat="53.07015" lon="-1.9333617"><ele>314.6666666666667</ele><time>2026-05-04T09:14:20.792Z</time></trkpt><trkpt lat="53.070085" lon="-1.9330733"><ele>314.33333333333337</ele><time>2026-05-04T09:14:21.795Z</time></trkpt><trkpt lat="53.0700183" lon="-1.93278"><ele>314.0</ele><time>2026-05-04T09:14:22.792Z</time></trkpt><trkpt lat="53.069955" lon="-1.93249"><ele>312.0</ele><time>2026-05-04T09:14:23.792Z</time></trkpt><trkpt lat="53.06989" lon="-1.9321967"><ele>310.0</ele><time>2026-05-04T09:14:24.792Z</time></trkpt><trkpt lat="53.0698233" lon="-1.9319017"><ele>308.0</ele><time>2026-05-04T09:14:25.792Z</time></trkpt><trkpt lat="53.0697533" lon="-1.931605"><ele>308.0</ele><time>2026-05-04T09:14:26.796Z</time></trkpt><trkpt lat="53.0696817" lon="-1.9313133"><ele>308.0</ele><time>2026-05-04T09:14:27.792Z</time></trkpt><trkpt lat="53.0696067" lon="-1.93103"><ele>308.0</ele><time>2026-05-04T09:14:28.791Z</time></trkpt><trkpt lat="53.069525" lon="-1.93076"><ele>308.0</ele><time>2026-05-04T09:14:29.791Z</time></trkpt><trkpt lat="53.0694383" lon="-1.9304933"><ele>308.0</ele><time>2026-05-04T09:14:30.791Z</time></trkpt><trkpt lat="53.0693533" lon="-1.93023"><ele>308.0</ele><time>2026-05-04T09:14:31.796Z</time></trkpt><trkpt lat="53.06926" lon="-1.9299667"><ele>308.33333333333337</ele><time>2026-05-04T09:14:32.793Z</time></trkpt><trkpt lat="53.06916" lon="-1.9296967"><ele>308.6666666666667</ele><time>2026-05-04T09:14:33.795Z</time></trkpt><trkpt lat="53.06906" lon="-1.9294217"><ele>309.0</ele><time>2026-05-04T09:14:34.792Z</time></trkpt><trkpt lat="53.0689567" lon="-1.9291417"><ele>307.3333333333333</ele><time>2026-05-04T09:14:35.796Z</time></trkpt><trkpt lat="53.0688517" lon="-1.9288667"><ele>305.66666666666663</ele><time>2026-05-04T09:14:36.795Z</time></trkpt><trkpt lat="53.06875" lon="-1.9286033"><ele>304.0</ele><time>2026-05-04T09:14:37.795Z</time></trkpt><trkpt lat="53.0686567" lon="-1.92835"><ele>304.0</ele><time>2026-05-04T09:14:38.794Z</time></trkpt><trkpt lat="53.0685583" lon="-1.9280967"><ele>304.0</ele><time>2026-05-04T09:14:39.793Z</time></trkpt><trkpt lat="53.06846" lon="-1.9278433"><ele>304.0</ele><time>2026-05-04T09:14:40.796Z</time></trkpt><trkpt lat="53.0683617" lon="-1.9275883"><ele>302.0</ele><time>2026-05-04T09:14:41.794Z</time></trkpt><trkpt lat="53.0682617" lon="-1.92733"><ele>300.0</ele><time>2026-05-04T09:14:42.795Z</time></trkpt><trkpt lat="53.068165" lon="-1.927075"><ele>298.0</ele><time>2026-05-04T09:14:43.792Z</time></trkpt><trkpt lat="53.0680683" lon="-1.92682"><ele>298.0</ele><time>2026-05-04T09:14:44.79Z</time></trkpt><trkpt lat="53.0679717" lon="-1.926565"><ele>298.0</ele><time>2026-05-04T09:14:45.794Z</time></trkpt><trkpt lat="53.0678683" lon="-1.9263083"><ele>298.0</ele><time>2026-05-04T09:14:46.794Z</time></trkpt><trkpt lat="53.0677667" lon="-1.9260517"><ele>298.0</ele><time>2026-05-04T09:14:47.795Z</time></trkpt><trkpt lat="53.0676667" lon="-1.925795"><ele>298.0</ele><time>2026-05-04T09:14:48.794Z</time></trkpt><trkpt lat="53.0675667" lon="-1.9255317"><ele>298.0</ele><time>2026-05-04T09:14:49.796Z</time></trkpt><trkpt lat="53.0674633" lon="-1.9252733"><ele>296.66666666666663</ele><time>2026-05-04T09:14:50.795Z</time></trkpt><trkpt lat="53.0673617" lon="-1.9250133"><ele>295.3333333333333</ele><time>2026-05-04T09:14:51.795Z</time></trkpt><trkpt lat="53.0672567" lon="-1.9247567"><ele>294.0</ele><time>2026-05-04T09:14:52.794Z</time></trkpt><trkpt lat="53.0671533" lon="-1.9245017"><ele>294.0</ele><time>2026-05-04T09:14:53.795Z</time></trkpt><trkpt lat="53.067045" lon="-1.9242483"><ele>294.0</ele><time>2026-05-04T09:14:54.796Z</time></trkpt><trkpt lat="53.0669333" lon="-1.9240017"><ele>294.0</ele><time>2026-05-04T09:14:55.796Z</time></trkpt><trkpt lat="53.0668233" lon="-1.9237583"><ele>294.0</ele><time>2026-05-04T09:14:56.794Z</time></trkpt><trkpt lat="53.0667183" lon="-1.92353"><ele>294.0</ele><time>2026-05-04T09:14:57.794Z</time></trkpt><trkpt lat="53.0666167" lon="-1.9233133"><ele>294.0</ele><time>2026-05-04T09:14:58.796Z</time></trkpt><trkpt lat="53.06651" lon="-1.9231067"><ele>292.6666666666667</ele><time>2026-05-04T09:14:59.792Z</time></trkpt><trkpt lat="53.0664017" lon="-1.9228983"><ele>291.33333333333337</ele><time>2026-05-04T09:15:00.796Z</time></trkpt><trkpt lat="53.0662917" lon="-1.92269"><ele>290.0</ele><time>2026-05-04T09:15:01.795Z</time></trkpt><trkpt lat="53.0661883" lon="-1.9224867"><ele>290.0</ele><time>2026-05-04T09:15:02.795Z</time></trkpt><trkpt lat="53.066085" lon="-1.922285"><ele>290.0</ele><time>2026-05-04T09:15:03.792Z</time></trkpt><trkpt lat="53.0659783" lon="-1.9220767"><ele>290.0</ele><time>2026-05-04T09:15:04.793Z</time></trkpt><trkpt lat="53.0658683" lon="-1.9218583"><ele>287.33333333333337</ele><time>2026-05-04T09:15:05.791Z</time></trkpt><trkpt lat="53.0657633" lon="-1.921645"><ele>284.6666666666667</ele><time>2026-05-04T09:15:06.792Z</time></trkpt><trkpt lat="53.0656717" lon="-1.92145"><ele>282.0</ele><time>2026-05-04T09:15:07.792Z</time></trkpt><trkpt lat="53.0655867" lon="-1.9212683"><ele>282.0</ele><time>2026-05-04T09:15:08.792Z</time></trkpt><trkpt lat="53.0655167" lon="-1.921115"><ele>282.0</ele><time>2026-05-04T09:15:09.795Z</time></trkpt><trkpt lat="53.0654633" lon="-1.9209967"><ele>282.0</ele><time>2026-05-04T09:15:10.795Z</time></trkpt><trkpt lat="53.0654217" lon="-1.9209083"><ele>282.0</ele><time>2026-05-04T09:15:11.791Z</time></trkpt><trkpt lat="53.0653533" lon="-1.92082"><ele>282.0</ele><time>2026-05-04T09:15:18.791Z</time></trkpt><trkpt lat="53.0652467" lon="-1.920785"><ele>282.0</ele><time>2026-05-04T09:15:20.792Z</time></trkpt><trkpt lat="53.0651733" lon="-1.9207767"><ele>282.0</ele><time>2026-05-04T09:15:21.791Z</time></trkpt><trkpt lat="53.0650967" lon="-1.92076"><ele>282.0</ele><time>2026-05-04T09:15:22.793Z</time></trkpt><trkpt lat="53.06501" lon="-1.9207283"><ele>282.0</ele><time>2026-05-04T09:15:23.792Z</time></trkpt><trkpt lat="53.0649083" lon="-1.9206817"><ele>282.0</ele><time>2026-05-04T09:15:24.792Z</time></trkpt><trkpt lat="53.0647983" lon="-1.9206283"><ele>281.0</ele><time>2026-05-04T09:15:25.793Z</time></trkpt><trkpt lat="53.0646767" lon="-1.9205717"><ele>280.0</ele><time>2026-05-04T09:15:26.792Z</time></trkpt><trkpt lat="53.0645517" lon="-1.9205033"><ele>279.0</ele><time>2026-05-04T09:15:27.791Z</time></trkpt><trkpt lat="53.0644267" lon="-1.9204283"><ele>278.0</ele><time>2026-05-04T09:15:28.795Z</time></trkpt><trkpt lat="53.0643" lon="-1.9203517"><ele>278.0</ele><time>2026-05-04T09:15:29.791Z</time></trkpt><trkpt lat="53.0641717" lon="-1.9202617"><ele>278.0</ele><time>2026-05-04T09:15:30.791Z</time></trkpt><trkpt lat="53.0640483" lon="-1.9201667"><ele>278.0</ele><time>2026-05-04T09:15:31.796Z</time></trkpt><trkpt lat="53.063925" lon="-1.9200633"><ele>278.0</ele><time>2026-05-04T09:15:32.795Z</time></trkpt><trkpt lat="53.063805" lon="-1.9199733"><ele>277.25</ele><time>2026-05-04T09:15:33.792Z</time></trkpt><trkpt lat="53.063685" lon="-1.9198867"><ele>276.5</ele><time>2026-05-04T09:15:34.796Z</time></trkpt><trkpt lat="53.06357" lon="-1.9198133"><ele>275.75</ele><time>2026-05-04T09:15:35.795Z</time></trkpt><trkpt lat="53.063455" lon="-1.9197617"><ele>275.0</ele><time>2026-05-04T09:15:36.795Z</time></trkpt><trkpt lat="53.063345" lon="-1.91973"><ele>273.75</ele><time>2026-05-04T09:15:37.792Z</time></trkpt><trkpt lat="53.0632283" lon="-1.91971"><ele>272.5</ele><time>2026-05-04T09:15:38.794Z</time></trkpt><trkpt lat="53.0631067" lon="-1.9197183"><ele>271.25</ele><time>2026-05-04T09:15:39.796Z</time></trkpt><trkpt lat="53.0629883" lon="-1.91975"><ele>270.0</ele><time>2026-05-04T09:15:40.796Z</time></trkpt><trkpt lat="53.062875" lon="-1.9198067"><ele>270.0</ele><time>2026-05-04T09:15:41.795Z</time></trkpt><trkpt lat="53.0627633" lon="-1.9198817"><ele>270.0</ele><time>2026-05-04T09:15:42.795Z</time></trkpt><trkpt lat="53.0626567" lon="-1.9199717"><ele>270.0</ele><time>2026-05-04T09:15:43.792Z</time></trkpt><trkpt lat="53.0625533" lon="-1.92007"><ele>270.0</ele><time>2026-05-04T09:15:44.796Z</time></trkpt><trkpt lat="53.0624617" lon="-1.9201683"><ele>269.2</ele><time>2026-05-04T09:15:45.791Z</time></trkpt><trkpt lat="53.0623733" lon="-1.9202667"><ele>268.4</ele><time>2026-05-04T09:15:46.793Z</time></trkpt><trkpt lat="53.0622867" lon="-1.920365"><ele>267.6</ele><time>2026-05-04T09:15:47.792Z</time></trkpt><trkpt lat="53.0622017" lon="-1.9204667"><ele>266.8</ele><time>2026-05-04T09:15:48.791Z</time></trkpt><trkpt lat="53.0621133" lon="-1.92057"><ele>266.0</ele><time>2026-05-04T09:15:49.793Z</time></trkpt><trkpt lat="53.0620233" lon="-1.9206667"><ele>266.0</ele><time>2026-05-04T09:15:50.792Z</time></trkpt><trkpt lat="53.06194" lon="-1.9207583"><ele>266.0</ele><time>2026-05-04T09:15:51.792Z</time></trkpt><trkpt lat="53.06186" lon="-1.9208467"><ele>266.0</ele><time>2026-05-04T09:15:52.792Z</time></trkpt><trkpt lat="53.0617833" lon="-1.9209283"><ele>266.0</ele><time>2026-05-04T09:15:53.793Z</time></trkpt><trkpt lat="53.0617117" lon="-1.9210017"><ele>266.0</ele><time>2026-05-04T09:15:54.791Z</time></trkpt><trkpt lat="53.0616383" lon="-1.9210733"><ele>265.6</ele><time>2026-05-04T09:15:55.793Z</time></trkpt><trkpt lat="53.06156" lon="-1.9211433"><ele>265.20000000000005</ele><time>2026-05-04T09:15:56.791Z</time></trkpt><trkpt lat="53.06148" lon="-1.921215"><ele>264.79999999999995</ele><time>2026-05-04T09:15:57.793Z</time></trkpt><trkpt lat="53.06139" lon="-1.9212783"><ele>264.4</ele><time>2026-05-04T09:15:58.793Z</time></trkpt><trkpt lat="53.0613" lon="-1.9213333"><ele>264.0</ele><time>2026-05-04T09:15:59.795Z</time></trkpt><trkpt lat="53.0612217" lon="-1.921385"><ele>264.0</ele><time>2026-05-04T09:16:00.794Z</time></trkpt><trkpt lat="53.0611483" lon="-1.9214233"><ele>264.0</ele><time>2026-05-04T09:16:01.792Z</time></trkpt><trkpt lat="53.0610867" lon="-1.9214517"><ele>264.0</ele><time>2026-05-04T09:16:02.792Z</time></trkpt><trkpt lat="53.0609817" lon="-1.9214933"><ele>264.0</ele><time>2026-05-04T09:16:04.793Z</time></trkpt><trkpt lat="53.06092" lon="-1.921515"><ele>264.0</ele><time>2026-05-04T09:16:05.793Z</time></trkpt><trkpt lat="53.0608467" lon="-1.921545"><ele>264.0</ele><time>2026-05-04T09:16:06.793Z</time></trkpt><trkpt lat="53.06075" lon="-1.9215683"><ele>264.25</ele><time>2026-05-04T09:16:07.794Z</time></trkpt><trkpt lat="53.0606217" lon="-1.9215983"><ele>264.5</ele><time>2026-05-04T09:16:08.791Z</time></trkpt><trkpt lat="53.0604733" lon="-1.92163"><ele>264.75</ele><time>2026-05-04T09:16:09.79Z</time></trkpt><trkpt lat="53.0603133" lon="-1.921655"><ele>265.0</ele><time>2026-05-04T09:16:10.791Z</time></trkpt><trkpt lat="53.0601383" lon="-1.9216917"><ele>265.3333333333333</ele><time>2026-05-04T09:16:11.791Z</time></trkpt><trkpt lat="53.05996" lon="-1.9217533"><ele>265.6666666666667</ele><time>2026-05-04T09:16:12.791Z</time></trkpt><trkpt lat="53.0597783" lon="-1.92184"><ele>266.0</ele><time>2026-05-04T09:16:13.795Z</time></trkpt><trkpt lat="53.0596017" lon="-1.921935"><ele>266.6666666666667</ele><time>2026-05-04T09:16:14.79Z</time></trkpt><trkpt lat="53.0594217" lon="-1.9220367"><ele>267.3333333333333</ele><time>2026-05-04T09:16:15.792Z</time></trkpt><trkpt lat="53.0592433" lon="-1.9221467"><ele>268.0</ele><time>2026-05-04T09:16:16.792Z</time></trkpt><trkpt lat="53.059065" lon="-1.9222483"><ele>268.66666666666663</ele><time>2026-05-04T09:16:17.793Z</time></trkpt><trkpt lat="53.0588883" lon="-1.9223433"><ele>269.3333333333333</ele><time>2026-05-04T09:16:18.792Z</time></trkpt><trkpt lat="53.058715" lon="-1.92243"><ele>270.0</ele><time>2026-05-04T09:16:19.792Z</time></trkpt><trkpt lat="53.058545" lon="-1.92249"><ele>270.0</ele><time>2026-05-04T09:16:20.792Z</time></trkpt><trkpt lat="53.0583783" lon="-1.92251"><ele>270.0</ele><time>2026-05-04T09:16:21.793Z</time></trkpt><trkpt lat="53.0582183" lon="-1.9224883"><ele>270.0</ele><time>2026-05-04T09:16:22.792Z</time></trkpt><trkpt lat="53.0580567" lon="-1.9224267"><ele>270.6666666666667</ele><time>2026-05-04T09:16:23.791Z</time></trkpt><trkpt lat="53.0578933" lon="-1.9223117"><ele>271.33333333333337</ele><time>2026-05-04T09:16:24.792Z</time></trkpt><trkpt lat="53.0577267" lon="-1.9221533"><ele>272.0</ele><time>2026-05-04T09:16:25.792Z</time></trkpt><trkpt lat="53.05756" lon="-1.921965"><ele>272.33333333333337</ele><time>2026-05-04T09:16:26.793Z</time></trkpt><trkpt lat="53.0573917" lon="-1.9217617"><ele>272.6666666666667</ele><time>2026-05-04T09:16:27.793Z</time></trkpt><trkpt lat="53.0572183" lon="-1.92154"><ele>273.0</ele><time>2026-05-04T09:16:28.792Z</time></trkpt><trkpt lat="53.0570433" lon="-1.9213067"><ele>271.0</ele><time>2026-05-04T09:16:29.792Z</time></trkpt><trkpt lat="53.0568633" lon="-1.9210633"><ele>269.0</ele><time>2026-05-04T09:16:30.793Z</time></trkpt><trkpt lat="53.0566833" lon="-1.9208333"><ele>270.0</ele><time>2026-05-04T09:16:31.792Z</time></trkpt><trkpt lat="53.0565083" lon="-1.9206083"><ele>271.0</ele><time>2026-05-04T09:16:32.791Z</time></trkpt><trkpt lat="53.05634" lon="-1.9203867"><ele>272.0</ele><time>2026-05-04T09:16:33.792Z</time></trkpt><trkpt lat="53.05617" lon="-1.9201633"><ele>271.6666666666667</ele><time>2026-05-04T09:16:34.793Z</time></trkpt><trkpt lat="53.0560067" lon="-1.91995"><ele>271.3333333333333</ele><time>2026-05-04T09:16:35.793Z</time></trkpt><trkpt lat="53.0558467" lon="-1.91974"><ele>271.0</ele><time>2026-05-04T09:16:36.792Z</time></trkpt><trkpt lat="53.0556767" lon="-1.9195417"><ele>272.0</ele><time>2026-05-04T09:16:37.792Z</time></trkpt><trkpt lat="53.0555033" lon="-1.9193483"><ele>273.0</ele><time>2026-05-04T09:16:38.791Z</time></trkpt><trkpt lat="53.0553217" lon="-1.9191717"><ele>274.0</ele><time>2026-05-04T09:16:39.791Z</time></trkpt><trkpt lat="53.0551317" lon="-1.9190067"><ele>276.0</ele><time>2026-05-04T09:16:40.791Z</time></trkpt><trkpt lat="53.0549333" lon="-1.9188483"><ele>278.0</ele><time>2026-05-04T09:16:41.793Z</time></trkpt><trkpt lat="53.05473" lon="-1.9186917"><ele>280.0</ele><time>2026-05-04T09:16:42.791Z</time></trkpt><trkpt lat="53.0545233" lon="-1.9185317"><ele>280.5</ele><time>2026-05-04T09:16:43.792Z</time></trkpt><trkpt lat="53.0543167" lon="-1.91837"><ele>281.0</ele><time>2026-05-04T09:16:44.792Z</time></trkpt><trkpt lat="53.0541133" lon="-1.9182083"><ele>281.0</ele><time>2026-05-04T09:16:45.791Z</time></trkpt><trkpt lat="53.0539067" lon="-1.9180483"><ele>281.0</ele><time>2026-05-04T09:16:46.79Z</time></trkpt><trkpt lat="53.0537017" lon="-1.9178983"><ele>281.0</ele><time>2026-05-04T09:16:47.792Z</time></trkpt><trkpt lat="53.0534917" lon="-1.917745"><ele>281.0</ele><time>2026-05-04T09:16:48.791Z</time></trkpt><trkpt lat="53.0532833" lon="-1.9175917"><ele>280.0</ele><time>2026-05-04T09:16:49.793Z</time></trkpt><trkpt lat="53.0530733" lon="-1.9174267"><ele>279.0</ele><time>2026-05-04T09:16:50.792Z</time></trkpt><trkpt lat="53.0528633" lon="-1.9172633"><ele>279.0</ele><time>2026-05-04T09:16:51.791Z</time></trkpt><trkpt lat="53.0526533" lon="-1.9171033"><ele>279.0</ele><time>2026-05-04T09:16:52.792Z</time></trkpt><trkpt lat="53.052445" lon="-1.9169433"><ele>279.5</ele><time>2026-05-04T09:16:53.793Z</time></trkpt><trkpt lat="53.0522367" lon="-1.916785"><ele>280.0</ele><time>2026-05-04T09:16:54.791Z</time></trkpt><trkpt lat="53.0520267" lon="-1.9166233"><ele>280.0</ele><time>2026-05-04T09:16:55.792Z</time></trkpt><trkpt lat="53.0518167" lon="-1.91646"><ele>280.0</ele><time>2026-05-04T09:16:56.792Z</time></trkpt><trkpt lat="53.0516067" lon="-1.9163017"><ele>282.5</ele><time>2026-05-04T09:16:57.791Z</time></trkpt><trkpt lat="53.0514017" lon="-1.916145"><ele>285.0</ele><time>2026-05-04T09:16:58.79Z</time></trkpt><trkpt lat="53.05119" lon="-1.9159967"><ele>283.0</ele><time>2026-05-04T09:16:59.795Z</time></trkpt><trkpt lat="53.0509767" lon="-1.915865"><ele>281.0</ele><time>2026-05-04T09:17:00.792Z</time></trkpt><trkpt lat="53.0507633" lon="-1.9157483"><ele>285.0</ele><time>2026-05-04T09:17:01.792Z</time></trkpt><trkpt lat="53.050545" lon="-1.9156417"><ele>289.0</ele><time>2026-05-04T09:17:02.791Z</time></trkpt><trkpt lat="53.0503233" lon="-1.91554"><ele>289.0</ele><time>2026-05-04T09:17:03.795Z</time></trkpt><trkpt lat="53.0501017" lon="-1.91544"><ele>289.0</ele><time>2026-05-04T09:17:04.792Z</time></trkpt><trkpt lat="53.0498783" lon="-1.9153383"><ele>291.0</ele><time>2026-05-04T09:17:05.795Z</time></trkpt><trkpt lat="53.0496517" lon="-1.9152383"><ele>293.0</ele><time>2026-05-04T09:17:06.792Z</time></trkpt><trkpt lat="53.049425" lon="-1.9151417"><ele>292.5</ele><time>2026-05-04T09:17:07.796Z</time></trkpt><trkpt lat="53.0492" lon="-1.9150433"><ele>292.0</ele><time>2026-05-04T09:17:08.791Z</time></trkpt><trkpt lat="53.0489717" lon="-1.914945"><ele>294.0</ele><time>2026-05-04T09:17:09.791Z</time></trkpt><trkpt lat="53.0487433" lon="-1.9148417"><ele>296.0</ele><time>2026-05-04T09:17:10.791Z</time></trkpt><trkpt lat="53.048515" lon="-1.914735"><ele>298.0</ele><time>2026-05-04T09:17:11.791Z</time></trkpt><trkpt lat="53.048285" lon="-1.91463"><ele>300.0</ele><time>2026-05-04T09:17:12.792Z</time></trkpt><trkpt lat="53.048055" lon="-1.9145267"><ele>300.0</ele><time>2026-05-04T09:17:13.794Z</time></trkpt><trkpt lat="53.04783" lon="-1.9144283"><ele>300.0</ele><time>2026-05-04T09:17:14.794Z</time></trkpt><trkpt lat="53.0476067" lon="-1.91433"><ele>303.0</ele><time>2026-05-04T09:17:15.791Z</time></trkpt><trkpt lat="53.0473883" lon="-1.91423"><ele>306.0</ele><time>2026-05-04T09:17:16.795Z</time></trkpt><trkpt lat="53.0471683" lon="-1.91413"><ele>306.0</ele><time>2026-05-04T09:17:17.791Z</time></trkpt><trkpt lat="53.0469467" lon="-1.91403"><ele>306.0</ele><time>2026-05-04T09:17:18.794Z</time></trkpt><trkpt lat="53.046725" lon="-1.9139317"><ele>307.6666666666667</ele><time>2026-05-04T09:17:19.795Z</time></trkpt><trkpt lat="53.0465117" lon="-1.91383"><ele>309.33333333333337</ele><time>2026-05-04T09:17:20.793Z</time></trkpt><trkpt lat="53.0463183" lon="-1.913735"><ele>311.0</ele><time>2026-05-04T09:17:21.792Z</time></trkpt><trkpt lat="53.0461467" lon="-1.9136533"><ele>311.0</ele><time>2026-05-04T09:17:22.796Z</time></trkpt><trkpt lat="53.04599" lon="-1.9135783"><ele>311.0</ele><time>2026-05-04T09:17:23.794Z</time></trkpt><trkpt lat="53.0458417" lon="-1.9135117"><ele>311.0</ele><time>2026-05-04T09:17:24.795Z</time></trkpt><trkpt lat="53.0457017" lon="-1.9134483"><ele>311.5</ele><time>2026-05-04T09:17:25.793Z</time></trkpt><trkpt lat="53.0455683" lon="-1.91339"><ele>312.0</ele><time>2026-05-04T09:17:26.794Z</time></trkpt><trkpt lat="53.04544" lon="-1.9133483"><ele>312.5</ele><time>2026-05-04T09:17:27.791Z</time></trkpt><trkpt lat="53.0453067" lon="-1.9133317"><ele>313.0</ele><time>2026-05-04T09:17:28.791Z</time></trkpt><trkpt lat="53.0451667" lon="-1.9133383"><ele>313.0</ele><time>2026-05-04T09:17:29.793Z</time></trkpt><trkpt lat="53.0450217" lon="-1.9133767"><ele>313.0</ele><time>2026-05-04T09:17:30.791Z</time></trkpt><trkpt lat="53.0448733" lon="-1.9134383"><ele>313.0</ele><time>2026-05-04T09:17:31.795Z</time></trkpt><trkpt lat="53.0447317" lon="-1.91351"><ele>313.0</ele><time>2026-05-04T09:17:32.792Z</time></trkpt><trkpt lat="53.0446033" lon="-1.91358"><ele>314.0</ele><time>2026-05-04T09:17:33.79Z</time></trkpt><trkpt lat="53.04448" lon="-1.9136417"><ele>315.0</ele><time>2026-05-04T09:17:34.794Z</time></trkpt><trkpt lat="53.0443567" lon="-1.91368"><ele>316.0</ele><time>2026-05-04T09:17:35.793Z</time></trkpt><trkpt lat="53.0442283" lon="-1.9136933"><ele>317.0</ele><time>2026-05-04T09:17:36.795Z</time></trkpt><trkpt lat="53.044095" lon="-1.91369"><ele>318.0</ele><time>2026-05-04T09:17:37.791Z</time></trkpt><trkpt lat="53.0439583" lon="-1.9136717"><ele>319.0</ele><time>2026-05-04T09:17:38.791Z</time></trkpt><trkpt lat="53.04382" lon="-1.9136383"><ele>320.0</ele><time>2026-05-04T09:17:39.795Z</time></trkpt><trkpt lat="53.0436833" lon="-1.9136"><ele>321.0</ele><time>2026-05-04T09:17:40.79Z</time></trkpt><trkpt lat="53.043545" lon="-1.9135567"><ele>321.0</ele><time>2026-05-04T09:17:41.791Z</time></trkpt><trkpt lat="53.0434067" lon="-1.9135083"><ele>321.0</ele><time>2026-05-04T09:17:42.791Z</time></trkpt><trkpt lat="53.0432717" lon="-1.9134517"><ele>321.0</ele><time>2026-05-04T09:17:43.792Z</time></trkpt><trkpt lat="53.0431367" lon="-1.9133883"><ele>321.0</ele><time>2026-05-04T09:17:44.791Z</time></trkpt><trkpt lat="53.0430067" lon="-1.913325"><ele>321.75</ele><time>2026-05-04T09:17:45.794Z</time></trkpt><trkpt lat="53.0428733" lon="-1.913255"><ele>322.5</ele><time>2026-05-04T09:17:46.79Z</time></trkpt><trkpt lat="53.0427383" lon="-1.9131833"><ele>323.25</ele><time>2026-05-04T09:17:47.794Z</time></trkpt><trkpt lat="53.0426017" lon="-1.913115"><ele>324.0</ele><time>2026-05-04T09:17:48.795Z</time></trkpt><trkpt lat="53.0424633" lon="-1.913035"><ele>324.5</ele><time>2026-05-04T09:17:49.794Z</time></trkpt><trkpt lat="53.04233" lon="-1.9129567"><ele>325.0</ele><time>2026-05-04T09:17:50.794Z</time></trkpt><trkpt lat="53.0421933" lon="-1.9128883"><ele>325.5</ele><time>2026-05-04T09:17:51.791Z</time></trkpt><trkpt lat="53.042055" lon="-1.9128317"><ele>326.0</ele><time>2026-05-04T09:17:52.79Z</time></trkpt><trkpt lat="53.0419183" lon="-1.9128"><ele>326.0</ele><time>2026-05-04T09:17:53.793Z</time></trkpt><trkpt lat="53.04178" lon="-1.9127833"><ele>326.0</ele><time>2026-05-04T09:17:54.795Z</time></trkpt><trkpt lat="53.04163" lon="-1.91276"><ele>326.0</ele><time>2026-05-04T09:17:55.795Z</time></trkpt><trkpt lat="53.0414717" lon="-1.91273"><ele>326.0</ele><time>2026-05-04T09:17:56.794Z</time></trkpt><trkpt lat="53.0413167" lon="-1.9126933"><ele>327.25</ele><time>2026-05-04T09:17:57.796Z</time></trkpt><trkpt lat="53.0411683" lon="-1.912635"><ele>328.5</ele><time>2026-05-04T09:17:58.794Z</time></trkpt><trkpt lat="53.0410283" lon="-1.9125617"><ele>329.75</ele><time>2026-05-04T09:17:59.792Z</time></trkpt><trkpt lat="53.0408867" lon="-1.9124817"><ele>331.0</ele><time>2026-05-04T09:18:00.79Z</time></trkpt><trkpt lat="53.0407433" lon="-1.912405"><ele>332.66666666666663</ele><time>2026-05-04T09:18:01.792Z</time></trkpt><trkpt lat="53.040595" lon="-1.9123333"><ele>334.3333333333333</ele><time>2026-05-04T09:18:02.795Z</time></trkpt><trkpt lat="53.0404383" lon="-1.9122683"><ele>336.0</ele><time>2026-05-04T09:18:03.796Z</time></trkpt><trkpt lat="53.040275" lon="-1.912225"><ele>336.0</ele><time>2026-05-04T09:18:04.792Z</time></trkpt><trkpt lat="53.0401133" lon="-1.9121967"><ele>336.0</ele><time>2026-05-04T09:18:05.793Z</time></trkpt><trkpt lat="53.03996" lon="-1.9121833"><ele>336.0</ele><time>2026-05-04T09:18:06.792Z</time></trkpt><trkpt lat="53.03982" lon="-1.912165"><ele>337.0</ele><time>2026-05-04T09:18:07.791Z</time></trkpt><trkpt lat="53.03969" lon="-1.912145"><ele>338.0</ele><time>2026-05-04T09:18:08.791Z</time></trkpt><trkpt lat="53.0395733" lon="-1.9121217"><ele>339.0</ele><time>2026-05-04T09:18:09.791Z</time></trkpt><trkpt lat="53.039475" lon="-1.9121033"><ele>340.0</ele><time>2026-05-04T09:18:10.791Z</time></trkpt><trkpt lat="53.0393783" lon="-1.9120783"><ele>341.0</ele><time>2026-05-04T09:18:11.791Z</time></trkpt><trkpt lat="53.039275" lon="-1.91205"><ele>341.0</ele><time>2026-05-04T09:18:12.794Z</time></trkpt><trkpt lat="53.0391633" lon="-1.9120217"><ele>341.0</ele><time>2026-05-04T09:18:13.794Z</time></trkpt><trkpt lat="53.0390433" lon="-1.911985"><ele>341.0</ele><time>2026-05-04T09:18:14.793Z</time></trkpt><trkpt lat="53.0389217" lon="-1.9119467"><ele>341.0</ele><time>2026-05-04T09:18:15.795Z</time></trkpt><trkpt lat="53.0387967" lon="-1.9119"><ele>342.25</ele><time>2026-05-04T09:18:16.795Z</time></trkpt><trkpt lat="53.038665" lon="-1.911845"><ele>343.5</ele><time>2026-05-04T09:18:17.795Z</time></trkpt><trkpt lat="53.0385333" lon="-1.91177"><ele>344.75</ele><time>2026-05-04T09:18:18.795Z</time></trkpt><trkpt lat="53.038405" lon="-1.9116733"><ele>346.0</ele><time>2026-05-04T09:18:19.796Z</time></trkpt><trkpt lat="53.0382767" lon="-1.911565"><ele>347.75</ele><time>2026-05-04T09:18:20.794Z</time></trkpt><trkpt lat="53.0381467" lon="-1.911455"><ele>349.5</ele><time>2026-05-04T09:18:21.795Z</time></trkpt><trkpt lat="53.03802" lon="-1.911345"><ele>351.25</ele><time>2026-05-04T09:18:22.794Z</time></trkpt><trkpt lat="53.0378867" lon="-1.9112267"><ele>353.0</ele><time>2026-05-04T09:18:23.791Z</time></trkpt><trkpt lat="53.0377483" lon="-1.9110933"><ele>353.0</ele><time>2026-05-04T09:18:24.795Z</time></trkpt><trkpt lat="53.037605" lon="-1.9109533"><ele>353.0</ele><time>2026-05-04T09:18:25.793Z</time></trkpt><trkpt lat="53.03746" lon="-1.9108167"><ele>353.0</ele><time>2026-05-04T09:18:26.792Z</time></trkpt><trkpt lat="53.0373217" lon="-1.9106817"><ele>355.33333333333337</ele><time>2026-05-04T09:18:27.79Z</time></trkpt><trkpt lat="53.0371883" lon="-1.9105417"><ele>357.6666666666667</ele><time>2026-05-04T09:18:28.795Z</time></trkpt><trkpt lat="53.0370533" lon="-1.9103967"><ele>360.0</ele><time>2026-05-04T09:18:29.791Z</time></trkpt><trkpt lat="53.0369133" lon="-1.9102467"><ele>360.0</ele><time>2026-05-04T09:18:30.791Z</time></trkpt><trkpt lat="53.0367717" lon="-1.91009"><ele>360.0</ele><time>2026-05-04T09:18:31.79Z</time></trkpt><trkpt lat="53.0366333" lon="-1.90994"><ele>360.0</ele><time>2026-05-04T09:18:32.791Z</time></trkpt><trkpt lat="53.0364983" lon="-1.90979"><ele>358.6666666666667</ele><time>2026-05-04T09:18:33.793Z</time></trkpt><trkpt lat="53.036365" lon="-1.90964"><ele>357.33333333333337</ele><time>2026-05-04T09:18:34.793Z</time></trkpt><trkpt lat="53.0362317" lon="-1.9094933"><ele>356.0</ele><time>2026-05-04T09:18:35.794Z</time></trkpt><trkpt lat="53.0360983" lon="-1.9093483"><ele>355.6666666666667</ele><time>2026-05-04T09:18:36.792Z</time></trkpt><trkpt lat="53.0359583" lon="-1.9092067"><ele>355.3333333333333</ele><time>2026-05-04T09:18:37.793Z</time></trkpt><trkpt lat="53.0358133" lon="-1.9090583"><ele>355.0</ele><time>2026-05-04T09:18:38.792Z</time></trkpt><trkpt lat="53.0356667" lon="-1.90891"><ele>354.66666666666663</ele><time>2026-05-04T09:18:39.796Z</time></trkpt><trkpt lat="53.0355167" lon="-1.9087533"><ele>354.3333333333333</ele><time>2026-05-04T09:18:40.792Z</time></trkpt><trkpt lat="53.035365" lon="-1.9085933"><ele>354.0</ele><time>2026-05-04T09:18:41.792Z</time></trkpt><trkpt lat="53.03521" lon="-1.9084267"><ele>353.6666666666667</ele><time>2026-05-04T09:18:42.792Z</time></trkpt><trkpt lat="53.03505" lon="-1.9082633"><ele>353.33333333333337</ele><time>2026-05-04T09:18:43.794Z</time></trkpt><trkpt lat="53.034885" lon="-1.908095"><ele>353.0</ele><time>2026-05-04T09:18:44.792Z</time></trkpt><trkpt lat="53.034725" lon="-1.9079317"><ele>353.0</ele><time>2026-05-04T09:18:45.79Z</time></trkpt><trkpt lat="53.03457" lon="-1.907785"><ele>353.0</ele><time>2026-05-04T09:18:46.793Z</time></trkpt><trkpt lat="53.0344183" lon="-1.907635"><ele>353.0</ele><time>2026-05-04T09:18:47.794Z</time></trkpt><trkpt lat="53.0342617" lon="-1.907475"><ele>352.0</ele><time>2026-05-04T09:18:48.795Z</time></trkpt><trkpt lat="53.0341033" lon="-1.907305"><ele>351.0</ele><time>2026-05-04T09:18:49.795Z</time></trkpt><trkpt lat="53.0339433" lon="-1.9071383"><ele>350.0</ele><time>2026-05-04T09:18:50.792Z</time></trkpt><trkpt lat="53.0337783" lon="-1.9069717"><ele>350.0</ele><time>2026-05-04T09:18:51.795Z</time></trkpt><trkpt lat="53.033615" lon="-1.9068067"><ele>350.0</ele><time>2026-05-04T09:18:52.793Z</time></trkpt><trkpt lat="53.0334517" lon="-1.9066383"><ele>350.0</ele><time>2026-05-04T09:18:53.793Z</time></trkpt><trkpt lat="53.0332883" lon="-1.906475"><ele>348.33333333333337</ele><time>2026-05-04T09:18:54.792Z</time></trkpt><trkpt lat="53.0331317" lon="-1.90631"><ele>346.6666666666667</ele><time>2026-05-04T09:18:55.792Z</time></trkpt><trkpt lat="53.032985" lon="-1.9061583"><ele>345.0</ele><time>2026-05-04T09:18:56.791Z</time></trkpt><trkpt lat="53.032835" lon="-1.906"><ele>345.0</ele><time>2026-05-04T09:18:57.792Z</time></trkpt><trkpt lat="53.03268" lon="-1.90584"><ele>345.0</ele><time>2026-05-04T09:18:58.792Z</time></trkpt><trkpt lat="53.032525" lon="-1.90568"><ele>345.0</ele><time>2026-05-04T09:18:59.792Z</time></trkpt><trkpt lat="53.0323767" lon="-1.9055233"><ele>345.0</ele><time>2026-05-04T09:19:00.793Z</time></trkpt><trkpt lat="53.032235" lon="-1.9053783"><ele>345.0</ele><time>2026-05-04T09:19:01.792Z</time></trkpt><trkpt lat="53.0320983" lon="-1.9052383"><ele>345.0</ele><time>2026-05-04T09:19:02.792Z</time></trkpt><trkpt lat="53.0319617" lon="-1.9051017"><ele>344.75</ele><time>2026-05-04T09:19:03.791Z</time></trkpt><trkpt lat="53.031835" lon="-1.9049733"><ele>344.5</ele><time>2026-05-04T09:19:04.79Z</time></trkpt><trkpt lat="53.031725" lon="-1.9048683"><ele>344.25</ele><time>2026-05-04T09:19:05.792Z</time></trkpt><trkpt lat="53.0316283" lon="-1.904775"><ele>344.0</ele><time>2026-05-04T09:19:06.795Z</time></trkpt><trkpt lat="53.0315467" lon="-1.904705"><ele>343.6666666666667</ele><time>2026-05-04T09:19:07.793Z</time></trkpt><trkpt lat="53.0314867" lon="-1.9046533"><ele>343.33333333333337</ele><time>2026-05-04T09:19:08.794Z</time></trkpt><trkpt lat="53.0313967" lon="-1.9045767"><ele>343.0</ele><time>2026-05-04T09:19:10.795Z</time></trkpt><trkpt lat="53.0313283" lon="-1.9045867"><ele>342.6666666666667</ele><time>2026-05-04T09:19:12.791Z</time></trkpt><trkpt lat="53.031255" lon="-1.9046133"><ele>342.3333333333333</ele><time>2026-05-04T09:19:16.795Z</time></trkpt><trkpt lat="53.031205" lon="-1.904515"><ele>342.0</ele><time>2026-05-04T09:19:26.794Z</time></trkpt><trkpt lat="53.0311583" lon="-1.9043717"><ele>342.0</ele><time>2026-05-04T09:19:27.794Z</time></trkpt><trkpt lat="53.0311083" lon="-1.9042433"><ele>342.0</ele><time>2026-05-04T09:19:28.792Z</time></trkpt><trkpt lat="53.0310467" lon="-1.9041283"><ele>342.0</ele><time>2026-05-04T09:19:29.792Z</time></trkpt><trkpt lat="53.0309817" lon="-1.90404"><ele>342.0</ele><time>2026-05-04T09:19:30.791Z</time></trkpt><trkpt lat="53.0309133" lon="-1.9039583"><ele>342.0</ele><time>2026-05-04T09:19:31.792Z</time></trkpt><trkpt lat="53.030845" lon="-1.9038817"><ele>342.0</ele><time>2026-05-04T09:19:32.793Z</time></trkpt><trkpt lat="53.03078" lon="-1.903805"><ele>341.40000000000003</ele><time>2026-05-04T09:19:33.792Z</time></trkpt><trkpt lat="53.0307117" lon="-1.9037233"><ele>340.8</ele><time>2026-05-04T09:19:34.791Z</time></trkpt><trkpt lat="53.03064" lon="-1.9036317"><ele>340.2</ele><time>2026-05-04T09:19:35.793Z</time></trkpt><trkpt lat="53.0305567" lon="-1.9035217"><ele>339.6</ele><time>2026-05-04T09:19:36.791Z</time></trkpt><trkpt lat="53.0304533" lon="-1.903385"><ele>339.0</ele><time>2026-05-04T09:19:37.792Z</time></trkpt><trkpt lat="53.0303383" lon="-1.9032283"><ele>339.0</ele><time>2026-05-04T09:19:38.792Z</time></trkpt><trkpt lat="53.03021" lon="-1.9030467"><ele>339.0</ele><time>2026-05-04T09:19:39.791Z</time></trkpt><trkpt lat="53.030075" lon="-1.9028483"><ele>339.0</ele><time>2026-05-04T09:19:40.791Z</time></trkpt><trkpt lat="53.0299267" lon="-1.9026333"><ele>338.3333333333333</ele><time>2026-05-04T09:19:41.792Z</time></trkpt><trkpt lat="53.029775" lon="-1.90241"><ele>337.66666666666663</ele><time>2026-05-04T09:19:42.793Z</time></trkpt><trkpt lat="53.0296183" lon="-1.9021783"><ele>337.0</ele><time>2026-05-04T09:19:43.791Z</time></trkpt><trkpt lat="53.0294617" lon="-1.90195"><ele>336.66666666666663</ele><time>2026-05-04T09:19:44.792Z</time></trkpt><trkpt lat="53.0293033" lon="-1.9017167"><ele>336.3333333333333</ele><time>2026-05-04T09:19:45.79Z</time></trkpt><trkpt lat="53.02914" lon="-1.9014733"><ele>336.0</ele><time>2026-05-04T09:19:46.793Z</time></trkpt><trkpt lat="53.028975" lon="-1.9012267"><ele>334.5</ele><time>2026-05-04T09:19:47.795Z</time></trkpt><trkpt lat="53.028805" lon="-1.900975"><ele>333.0</ele><time>2026-05-04T09:19:48.792Z</time></trkpt><trkpt lat="53.0286333" lon="-1.900725"><ele>333.0</ele><time>2026-05-04T09:19:49.792Z</time></trkpt><trkpt lat="53.0284617" lon="-1.9004717"><ele>333.0</ele><time>2026-05-04T09:19:50.792Z</time></trkpt><trkpt lat="53.02829" lon="-1.900215"><ele>331.5</ele><time>2026-05-04T09:19:51.792Z</time></trkpt><trkpt lat="53.0281167" lon="-1.89996"><ele>330.0</ele><time>2026-05-04T09:19:52.791Z</time></trkpt><trkpt lat="53.0279467" lon="-1.8997017"><ele>330.0</ele><time>2026-05-04T09:19:53.796Z</time></trkpt><trkpt lat="53.0277767" lon="-1.8994433"><ele>330.0</ele><time>2026-05-04T09:19:54.793Z</time></trkpt><trkpt lat="53.0276083" lon="-1.8991833"><ele>329.5</ele><time>2026-05-04T09:19:55.794Z</time></trkpt><trkpt lat="53.02744" lon="-1.8989267"><ele>329.0</ele><time>2026-05-04T09:19:56.791Z</time></trkpt><trkpt lat="53.0272717" lon="-1.8986683"><ele>329.5</ele><time>2026-05-04T09:19:57.792Z</time></trkpt><trkpt lat="53.0270983" lon="-1.898405"><ele>330.0</ele><time>2026-05-04T09:19:58.792Z</time></trkpt><trkpt lat="53.0269233" lon="-1.8981417"><ele>330.0</ele><time>2026-05-04T09:19:59.791Z</time></trkpt><trkpt lat="53.026745" lon="-1.897885"><ele>330.0</ele><time>2026-05-04T09:20:00.792Z</time></trkpt><trkpt lat="53.0265683" lon="-1.897635"><ele>330.0</ele><time>2026-05-04T09:20:01.792Z</time></trkpt><trkpt lat="53.0263933" lon="-1.89741"><ele>330.0</ele><time>2026-05-04T09:20:02.793Z</time></trkpt><trkpt lat="53.02622" lon="-1.8972083"><ele>330.0</ele><time>2026-05-04T09:20:03.791Z</time></trkpt><trkpt lat="53.0260517" lon="-1.89702"><ele>330.0</ele><time>2026-05-04T09:20:04.793Z</time></trkpt><trkpt lat="53.0258817" lon="-1.8968383"><ele>330.0</ele><time>2026-05-04T09:20:05.792Z</time></trkpt><trkpt lat="53.0257067" lon="-1.8966617"><ele>330.0</ele><time>2026-05-04T09:20:06.791Z</time></trkpt><trkpt lat="53.0255133" lon="-1.8964867"><ele>331.0</ele><time>2026-05-04T09:20:07.795Z</time></trkpt><trkpt lat="53.0253117" lon="-1.89631"><ele>332.0</ele><time>2026-05-04T09:20:08.792Z</time></trkpt><trkpt lat="53.02511" lon="-1.8961417"><ele>332.33333333333337</ele><time>2026-05-04T09:20:09.792Z</time></trkpt><trkpt lat="53.02491" lon="-1.89598"><ele>332.6666666666667</ele><time>2026-05-04T09:20:10.792Z</time></trkpt><trkpt lat="53.0247017" lon="-1.8958333"><ele>333.0</ele><time>2026-05-04T09:20:11.795Z</time></trkpt><trkpt lat="53.0244933" lon="-1.8956917"><ele>333.0</ele><time>2026-05-04T09:20:12.791Z</time></trkpt><trkpt lat="53.0242867" lon="-1.895555"><ele>333.0</ele><time>2026-05-04T09:20:13.792Z</time></trkpt><trkpt lat="53.0240833" lon="-1.89542"><ele>333.0</ele><time>2026-05-04T09:20:14.79Z</time></trkpt><trkpt lat="53.023885" lon="-1.8953017"><ele>333.0</ele><time>2026-05-04T09:20:15.792Z</time></trkpt><trkpt lat="53.0236883" lon="-1.89519"><ele>333.0</ele><time>2026-05-04T09:20:16.791Z</time></trkpt><trkpt lat="53.023495" lon="-1.8950833"><ele>333.0</ele><time>2026-05-04T09:20:17.792Z</time></trkpt><trkpt lat="53.0233067" lon="-1.8949783"><ele>333.0</ele><time>2026-05-04T09:20:18.794Z</time></trkpt><trkpt lat="53.023125" lon="-1.8948717"><ele>333.0</ele><time>2026-05-04T09:20:19.795Z</time></trkpt><trkpt lat="53.0229417" lon="-1.8947717"><ele>333.0</ele><time>2026-05-04T09:20:20.793Z</time></trkpt><trkpt lat="53.0227433" lon="-1.8946633"><ele>333.0</ele><time>2026-05-04T09:20:21.796Z</time></trkpt><trkpt lat="53.0225267" lon="-1.894545"><ele>333.0</ele><time>2026-05-04T09:20:22.794Z</time></trkpt><trkpt lat="53.0222983" lon="-1.8944117"><ele>331.5</ele><time>2026-05-04T09:20:23.794Z</time></trkpt><trkpt lat="53.0220567" lon="-1.89427"><ele>330.0</ele><time>2026-05-04T09:20:24.794Z</time></trkpt><trkpt lat="53.0217967" lon="-1.8941267"><ele>327.5</ele><time>2026-05-04T09:20:25.795Z</time></trkpt><trkpt lat="53.02153" lon="-1.89399"><ele>325.0</ele><time>2026-05-04T09:20:26.795Z</time></trkpt><trkpt lat="53.0212733" lon="-1.8938717"><ele>325.0</ele><time>2026-05-04T09:20:27.795Z</time></trkpt><trkpt lat="53.02103" lon="-1.89378"><ele>325.0</ele><time>2026-05-04T09:20:28.795Z</time></trkpt><trkpt lat="53.0207983" lon="-1.893705"><ele>323.5</ele><time>2026-05-04T09:20:29.794Z</time></trkpt><trkpt lat="53.0205667" lon="-1.8936333"><ele>322.0</ele><time>2026-05-04T09:20:30.794Z</time></trkpt><trkpt lat="53.0203367" lon="-1.8935583"><ele>322.0</ele><time>2026-05-04T09:20:31.795Z</time></trkpt><trkpt lat="53.020105" lon="-1.893475"><ele>322.0</ele><time>2026-05-04T09:20:32.794Z</time></trkpt><trkpt lat="53.0198767" lon="-1.8933917"><ele>322.0</ele><time>2026-05-04T09:20:33.795Z</time></trkpt><trkpt lat="53.0196483" lon="-1.8933033"><ele>322.0</ele><time>2026-05-04T09:20:34.796Z</time></trkpt><trkpt lat="53.019425" lon="-1.8932033"><ele>322.0</ele><time>2026-05-04T09:20:35.795Z</time></trkpt><trkpt lat="53.01921" lon="-1.8930917"><ele>322.0</ele><time>2026-05-04T09:20:36.794Z</time></trkpt><trkpt lat="53.0190083" lon="-1.8929867"><ele>322.0</ele><time>2026-05-04T09:20:37.795Z</time></trkpt><trkpt lat="53.0188267" lon="-1.892895"><ele>321.5</ele><time>2026-05-04T09:20:38.795Z</time></trkpt><trkpt lat="53.0186667" lon="-1.8928133"><ele>321.0</ele><time>2026-05-04T09:20:39.795Z</time></trkpt><trkpt lat="53.018525" lon="-1.8927383"><ele>320.5</ele><time>2026-05-04T09:20:40.794Z</time></trkpt><trkpt lat="53.0184033" lon="-1.892675"><ele>320.0</ele><time>2026-05-04T09:20:41.795Z</time></trkpt><trkpt lat="53.0183" lon="-1.8926267"><ele>320.33333333333337</ele><time>2026-05-04T09:20:42.794Z</time></trkpt><trkpt lat="53.0182067" lon="-1.8925833"><ele>320.6666666666667</ele><time>2026-05-04T09:20:43.794Z</time></trkpt><trkpt lat="53.0181267" lon="-1.892545"><ele>321.0</ele><time>2026-05-04T09:20:44.794Z</time></trkpt><trkpt lat="53.0180617" lon="-1.8925083"><ele>321.3333333333333</ele><time>2026-05-04T09:20:45.795Z</time></trkpt><trkpt lat="53.017965" lon="-1.8924317"><ele>321.66666666666663</ele><time>2026-05-04T09:20:47.795Z</time></trkpt><trkpt lat="53.0179117" lon="-1.892355"><ele>322.0</ele><time>2026-05-04T09:20:56.794Z</time></trkpt><trkpt lat="53.01784" lon="-1.892325"><ele>322.0</ele><time>2026-05-04T09:20:58.795Z</time></trkpt><trkpt lat="53.01773" lon="-1.8923417"><ele>322.0</ele><time>2026-05-04T09:21:00.791Z</time></trkpt><trkpt lat="53.0176617" lon="-1.8923367"><ele>322.0</ele><time>2026-05-04T09:21:01.795Z</time></trkpt><trkpt lat="53.0175933" lon="-1.8923"><ele>322.0</ele><time>2026-05-04T09:21:02.792Z</time></trkpt><trkpt lat="53.0175183" lon="-1.892235"><ele>322.0</ele><time>2026-05-04T09:21:03.795Z</time></trkpt><trkpt lat="53.0174283" lon="-1.892155"><ele>322.0</ele><time>2026-05-04T09:21:04.792Z</time></trkpt><trkpt lat="53.01731" lon="-1.8920667"><ele>322.0</ele><time>2026-05-04T09:21:05.794Z</time></trkpt><trkpt lat="53.0171817" lon="-1.8919783"><ele>322.0</ele><time>2026-05-04T09:21:06.791Z</time></trkpt><trkpt lat="53.01704" lon="-1.8918817"><ele>322.0</ele><time>2026-05-04T09:21:07.795Z</time></trkpt><trkpt lat="53.0169017" lon="-1.8917883"><ele>322.0</ele><time>2026-05-04T09:21:08.793Z</time></trkpt><trkpt lat="53.0167633" lon="-1.891695"><ele>323.3333333333333</ele><time>2026-05-04T09:21:09.793Z</time></trkpt><trkpt lat="53.0166167" lon="-1.8915883"><ele>324.6666666666667</ele><time>2026-05-04T09:21:10.795Z</time></trkpt><trkpt lat="53.0164633" lon="-1.8914633"><ele>326.0</ele><time>2026-05-04T09:21:11.795Z</time></trkpt><trkpt lat="53.0163017" lon="-1.89132"><ele>326.0</ele><time>2026-05-04T09:21:12.795Z</time></trkpt><trkpt lat="53.0161383" lon="-1.89114"><ele>326.0</ele><time>2026-05-04T09:21:13.794Z</time></trkpt><trkpt lat="53.0159733" lon="-1.8909433"><ele>326.0</ele><time>2026-05-04T09:21:14.79Z</time></trkpt><trkpt lat="53.0158067" lon="-1.8907333"><ele>326.0</ele><time>2026-05-04T09:21:15.791Z</time></trkpt><trkpt lat="53.0156367" lon="-1.890515"><ele>326.0</ele><time>2026-05-04T09:21:16.794Z</time></trkpt><trkpt lat="53.01546" lon="-1.890285"><ele>326.0</ele><time>2026-05-04T09:21:17.793Z</time></trkpt><trkpt lat="53.0152783" lon="-1.890055"><ele>326.0</ele><time>2026-05-04T09:21:18.791Z</time></trkpt><trkpt lat="53.0150967" lon="-1.8898117"><ele>326.0</ele><time>2026-05-04T09:21:19.793Z</time></trkpt><trkpt lat="53.014915" lon="-1.88956"><ele>323.5</ele><time>2026-05-04T09:21:20.79Z</time></trkpt><trkpt lat="53.014735" lon="-1.8893067"><ele>321.0</ele><time>2026-05-04T09:21:21.79Z</time></trkpt><trkpt lat="53.0145517" lon="-1.8890417"><ele>321.0</ele><time>2026-05-04T09:21:22.791Z</time></trkpt><trkpt lat="53.0143683" lon="-1.8887767"><ele>321.0</ele><time>2026-05-04T09:21:23.791Z</time></trkpt><trkpt lat="53.0141833" lon="-1.8885033"><ele>320.5</ele><time>2026-05-04T09:21:24.794Z</time></trkpt><trkpt lat="53.0140033" lon="-1.888235"><ele>320.0</ele><time>2026-05-04T09:21:25.792Z</time></trkpt><trkpt lat="53.0138217" lon="-1.8879617"><ele>320.0</ele><time>2026-05-04T09:21:26.79Z</time></trkpt><trkpt lat="53.0136383" lon="-1.8876883"><ele>320.0</ele><time>2026-05-04T09:21:27.791Z</time></trkpt><trkpt lat="53.013455" lon="-1.8874183"><ele>318.5</ele><time>2026-05-04T09:21:28.792Z</time></trkpt><trkpt lat="53.0132717" lon="-1.8871517"><ele>317.0</ele><time>2026-05-04T09:21:29.792Z</time></trkpt><trkpt lat="53.0130883" lon="-1.886885"><ele>318.0</ele><time>2026-05-04T09:21:30.792Z</time></trkpt><trkpt lat="53.0129033" lon="-1.8866217"><ele>319.0</ele><time>2026-05-04T09:21:31.791Z</time></trkpt><trkpt lat="53.0127167" lon="-1.886355"><ele>319.0</ele><time>2026-05-04T09:21:32.792Z</time></trkpt><trkpt lat="53.0125333" lon="-1.8860933"><ele>319.0</ele><time>2026-05-04T09:21:33.791Z</time></trkpt><trkpt lat="53.0123517" lon="-1.8858417"><ele>316.0</ele><time>2026-05-04T09:21:34.792Z</time></trkpt><trkpt lat="53.01218" lon="-1.885595"><ele>313.0</ele><time>2026-05-04T09:21:35.792Z</time></trkpt><trkpt lat="53.0120117" lon="-1.8853467"><ele>313.0</ele><time>2026-05-04T09:21:36.79Z</time></trkpt><trkpt lat="53.01184" lon="-1.8850933"><ele>313.0</ele><time>2026-05-04T09:21:37.79Z</time></trkpt><trkpt lat="53.01167" lon="-1.88485"><ele>311.0</ele><time>2026-05-04T09:21:38.79Z</time></trkpt><trkpt lat="53.0114983" lon="-1.88461"><ele>309.0</ele><time>2026-05-04T09:21:39.792Z</time></trkpt><trkpt lat="53.0113233" lon="-1.8843667"><ele>310.0</ele><time>2026-05-04T09:21:40.791Z</time></trkpt><trkpt lat="53.0111483" lon="-1.8841233"><ele>311.0</ele><time>2026-05-04T09:21:41.791Z</time></trkpt><trkpt lat="53.0109733" lon="-1.8838833"><ele>308.5</ele><time>2026-05-04T09:21:42.791Z</time></trkpt><trkpt lat="53.01079" lon="-1.883645"><ele>306.0</ele><time>2026-05-04T09:21:43.79Z</time></trkpt><trkpt lat="53.01061" lon="-1.8834133"><ele>306.0</ele><time>2026-05-04T09:21:44.792Z</time></trkpt><trkpt lat="53.0104333" lon="-1.8831867"><ele>306.0</ele><time>2026-05-04T09:21:45.792Z</time></trkpt><trkpt lat="53.0102633" lon="-1.8829733"><ele>306.0</ele><time>2026-05-04T09:21:46.79Z</time></trkpt><trkpt lat="53.0100983" lon="-1.8827667"><ele>302.6666666666667</ele><time>2026-05-04T09:21:47.792Z</time></trkpt><trkpt lat="53.0099417" lon="-1.8825717"><ele>299.33333333333337</ele><time>2026-05-04T09:21:48.791Z</time></trkpt><trkpt lat="53.00979" lon="-1.882385"><ele>296.0</ele><time>2026-05-04T09:21:49.791Z</time></trkpt><trkpt lat="53.0096433" lon="-1.8821967"><ele>296.0</ele><time>2026-05-04T09:21:50.792Z</time></trkpt><trkpt lat="53.009495" lon="-1.8820217"><ele>296.0</ele><time>2026-05-04T09:21:51.791Z</time></trkpt><trkpt lat="53.009345" lon="-1.8818433"><ele>296.0</ele><time>2026-05-04T09:21:52.792Z</time></trkpt><trkpt lat="53.009185" lon="-1.8816567"><ele>295.0</ele><time>2026-05-04T09:21:53.793Z</time></trkpt><trkpt lat="53.0090167" lon="-1.8814533"><ele>294.0</ele><time>2026-05-04T09:21:54.792Z</time></trkpt><trkpt lat="53.0088367" lon="-1.88123"><ele>293.0</ele><time>2026-05-04T09:21:55.793Z</time></trkpt><trkpt lat="53.0086567" lon="-1.8809917"><ele>292.5</ele><time>2026-05-04T09:21:56.792Z</time></trkpt><trkpt lat="53.0084733" lon="-1.8807467"><ele>292.0</ele><time>2026-05-04T09:21:57.792Z</time></trkpt><trkpt lat="53.0082917" lon="-1.8805117"><ele>292.0</ele><time>2026-05-04T09:21:58.792Z</time></trkpt><trkpt lat="53.0081117" lon="-1.880285"><ele>292.0</ele><time>2026-05-04T09:21:59.792Z</time></trkpt><trkpt lat="53.0079367" lon="-1.88007"><ele>292.0</ele><time>2026-05-04T09:22:00.793Z</time></trkpt><trkpt lat="53.0077717" lon="-1.8798567"><ele>290.66666666666663</ele><time>2026-05-04T09:22:01.792Z</time></trkpt><trkpt lat="53.0076133" lon="-1.8796583"><ele>289.3333333333333</ele><time>2026-05-04T09:22:02.792Z</time></trkpt><trkpt lat="53.00747" lon="-1.8794683"><ele>288.0</ele><time>2026-05-04T09:22:03.79Z</time></trkpt><trkpt lat="53.0073483" lon="-1.87928"><ele>291.0</ele><time>2026-05-04T09:22:04.791Z</time></trkpt><trkpt lat="53.0072567" lon="-1.8790683"><ele>294.0</ele><time>2026-05-04T09:22:05.792Z</time></trkpt><trkpt lat="53.0071817" lon="-1.878815"><ele>297.0</ele><time>2026-05-04T09:22:06.792Z</time></trkpt><trkpt lat="53.0071233" lon="-1.878525"><ele>297.3333333333333</ele><time>2026-05-04T09:22:07.791Z</time></trkpt><trkpt lat="53.0070783" lon="-1.8782333"><ele>297.66666666666663</ele><time>2026-05-04T09:22:08.792Z</time></trkpt><trkpt lat="53.0070417" lon="-1.8779617"><ele>298.0</ele><time>2026-05-04T09:22:09.792Z</time></trkpt><trkpt lat="53.006995" lon="-1.87773"><ele>296.3333333333333</ele><time>2026-05-04T09:22:10.792Z</time></trkpt><trkpt lat="53.0069233" lon="-1.8775217"><ele>294.6666666666667</ele><time>2026-05-04T09:22:11.792Z</time></trkpt><trkpt lat="53.0068233" lon="-1.8773217"><ele>293.0</ele><time>2026-05-04T09:22:12.795Z</time></trkpt><trkpt lat="53.0067083" lon="-1.8771233"><ele>292.0</ele><time>2026-05-04T09:22:13.79Z</time></trkpt><trkpt lat="53.006575" lon="-1.8769133"><ele>291.0</ele><time>2026-05-04T09:22:14.792Z</time></trkpt><trkpt lat="53.0064367" lon="-1.8766883"><ele>290.0</ele><time>2026-05-04T09:22:15.791Z</time></trkpt><trkpt lat="53.0062933" lon="-1.8764667"><ele>289.33333333333337</ele><time>2026-05-04T09:22:16.791Z</time></trkpt><trkpt lat="53.0061317" lon="-1.8762633"><ele>288.6666666666667</ele><time>2026-05-04T09:22:17.792Z</time></trkpt><trkpt lat="53.0059583" lon="-1.8760917"><ele>288.0</ele><time>2026-05-04T09:22:18.792Z</time></trkpt><trkpt lat="53.0057783" lon="-1.8759483"><ele>285.6666666666667</ele><time>2026-05-04T09:22:19.791Z</time></trkpt><trkpt lat="53.0056267" lon="-1.8758433"><ele>283.33333333333337</ele><time>2026-05-04T09:22:20.794Z</time></trkpt><trkpt lat="53.0054967" lon="-1.87575"><ele>281.0</ele><time>2026-05-04T09:22:21.792Z</time></trkpt><trkpt lat="53.005365" lon="-1.8756283"><ele>281.0</ele><time>2026-05-04T09:22:22.792Z</time></trkpt><trkpt lat="53.005245" lon="-1.8754633"><ele>281.0</ele><time>2026-05-04T09:22:23.795Z</time></trkpt><trkpt lat="53.0051433" lon="-1.875275"><ele>281.0</ele><time>2026-05-04T09:22:24.795Z</time></trkpt><trkpt lat="53.0050583" lon="-1.8750967"><ele>281.0</ele><time>2026-05-04T09:22:25.795Z</time></trkpt><trkpt lat="53.0049967" lon="-1.8749183"><ele>281.0</ele><time>2026-05-04T09:22:26.795Z</time></trkpt><trkpt lat="53.00496" lon="-1.8747317"><ele>281.0</ele><time>2026-05-04T09:22:27.791Z</time></trkpt><trkpt lat="53.0049517" lon="-1.8745233"><ele>281.0</ele><time>2026-05-04T09:22:28.796Z</time></trkpt><trkpt lat="53.004985" lon="-1.8742933"><ele>281.0</ele><time>2026-05-04T09:22:29.791Z</time></trkpt><trkpt lat="53.0050633" lon="-1.8740583"><ele>281.0</ele><time>2026-05-04T09:22:30.795Z</time></trkpt><trkpt lat="53.00516" lon="-1.8738117"><ele>281.0</ele><time>2026-05-04T09:22:31.792Z</time></trkpt><trkpt lat="53.0052433" lon="-1.8735317"><ele>281.0</ele><time>2026-05-04T09:22:32.801Z</time></trkpt><trkpt lat="53.0053267" lon="-1.873235"><ele>280.6666666666667</ele><time>2026-05-04T09:22:33.792Z</time></trkpt><trkpt lat="53.0054183" lon="-1.8729267"><ele>280.3333333333333</ele><time>2026-05-04T09:22:34.792Z</time></trkpt><trkpt lat="53.00553" lon="-1.8726117"><ele>280.0</ele><time>2026-05-04T09:22:35.793Z</time></trkpt><trkpt lat="53.00565" lon="-1.8723"><ele>278.66666666666663</ele><time>2026-05-04T09:22:36.792Z</time></trkpt><trkpt lat="53.005775" lon="-1.8719967"><ele>277.3333333333333</ele><time>2026-05-04T09:22:37.792Z</time></trkpt><trkpt lat="53.0059" lon="-1.871695"><ele>276.0</ele><time>2026-05-04T09:22:38.791Z</time></trkpt><trkpt lat="53.0060167" lon="-1.8713883"><ele>273.3333333333333</ele><time>2026-05-04T09:22:39.791Z</time></trkpt><trkpt lat="53.0061267" lon="-1.87108"><ele>270.66666666666663</ele><time>2026-05-04T09:22:40.791Z</time></trkpt><trkpt lat="53.00623" lon="-1.8707683"><ele>268.0</ele><time>2026-05-04T09:22:41.792Z</time></trkpt><trkpt lat="53.0063267" lon="-1.87046"><ele>267.3333333333333</ele><time>2026-05-04T09:22:42.792Z</time></trkpt><trkpt lat="53.0064167" lon="-1.8701367"><ele>266.6666666666667</ele><time>2026-05-04T09:22:43.795Z</time></trkpt><trkpt lat="53.0064867" lon="-1.8697917"><ele>266.0</ele><time>2026-05-04T09:22:44.793Z</time></trkpt><trkpt lat="53.0065333" lon="-1.8694333"><ele>265.0</ele><time>2026-05-04T09:22:45.795Z</time></trkpt><trkpt lat="53.0065633" lon="-1.8690833"><ele>264.0</ele><time>2026-05-04T09:22:46.792Z</time></trkpt><trkpt lat="53.006585" lon="-1.86873"><ele>263.0</ele><time>2026-05-04T09:22:47.791Z</time></trkpt><trkpt lat="53.0066117" lon="-1.8683883"><ele>262.0</ele><time>2026-05-04T09:22:48.792Z</time></trkpt><trkpt lat="53.006655" lon="-1.8680733"><ele>261.0</ele><time>2026-05-04T09:22:49.792Z</time></trkpt><trkpt lat="53.0067067" lon="-1.86778"><ele>260.0</ele><time>2026-05-04T09:22:50.791Z</time></trkpt><trkpt lat="53.0067567" lon="-1.8675117"><ele>258.25</ele><time>2026-05-04T09:22:51.791Z</time></trkpt><trkpt lat="53.0068083" lon="-1.86727"><ele>256.5</ele><time>2026-05-04T09:22:52.791Z</time></trkpt><trkpt lat="53.0068567" lon="-1.8670517"><ele>254.75</ele><time>2026-05-04T09:22:53.795Z</time></trkpt><trkpt lat="53.006905" lon="-1.8668417"><ele>253.0</ele><time>2026-05-04T09:22:54.792Z</time></trkpt><trkpt lat="53.0069633" lon="-1.866645"><ele>252.75</ele><time>2026-05-04T09:22:55.792Z</time></trkpt><trkpt lat="53.007035" lon="-1.8664567"><ele>252.5</ele><time>2026-05-04T09:22:56.791Z</time></trkpt><trkpt lat="53.0071233" lon="-1.86627"><ele>252.25</ele><time>2026-05-04T09:22:57.792Z</time></trkpt><trkpt lat="53.0072267" lon="-1.8660833"><ele>252.0</ele><time>2026-05-04T09:22:58.791Z</time></trkpt><trkpt lat="53.0073533" lon="-1.8658983"><ele>251.66666666666669</ele><time>2026-05-04T09:22:59.792Z</time></trkpt><trkpt lat="53.00748" lon="-1.86572"><ele>251.33333333333334</ele><time>2026-05-04T09:23:00.792Z</time></trkpt><trkpt lat="53.007595" lon="-1.8655533"><ele>251.0</ele><time>2026-05-04T09:23:01.796Z</time></trkpt><trkpt lat="53.007705" lon="-1.865395"><ele>249.5</ele><time>2026-05-04T09:23:02.793Z</time></trkpt><trkpt lat="53.00781" lon="-1.8652233"><ele>248.0</ele><time>2026-05-04T09:23:03.795Z</time></trkpt><trkpt lat="53.00789" lon="-1.865035"><ele>246.5</ele><time>2026-05-04T09:23:04.794Z</time></trkpt><trkpt lat="53.0079367" lon="-1.86483"><ele>245.0</ele><time>2026-05-04T09:23:05.792Z</time></trkpt><trkpt lat="53.0079483" lon="-1.8646083"><ele>244.66666666666669</ele><time>2026-05-04T09:23:06.791Z</time></trkpt><trkpt lat="53.0079283" lon="-1.8643567"><ele>244.33333333333331</ele><time>2026-05-04T09:23:07.794Z</time></trkpt><trkpt lat="53.0078767" lon="-1.8640717"><ele>244.0</ele><time>2026-05-04T09:23:08.794Z</time></trkpt><trkpt lat="53.0078283" lon="-1.86376"><ele>240.0</ele><time>2026-05-04T09:23:09.79Z</time></trkpt><trkpt lat="53.007795" lon="-1.8634267"><ele>236.0</ele><time>2026-05-04T09:23:10.792Z</time></trkpt><trkpt lat="53.0077667" lon="-1.86308"><ele>232.0</ele><time>2026-05-04T09:23:11.791Z</time></trkpt><trkpt lat="53.0077467" lon="-1.8627283"><ele>229.0</ele><time>2026-05-04T09:23:12.792Z</time></trkpt><trkpt lat="53.0077333" lon="-1.8623733"><ele>226.0</ele><time>2026-05-04T09:23:13.792Z</time></trkpt><trkpt lat="53.00772" lon="-1.86203"><ele>223.0</ele><time>2026-05-04T09:23:14.792Z</time></trkpt><trkpt lat="53.007715" lon="-1.8617117"><ele>222.66666666666666</ele><time>2026-05-04T09:23:15.792Z</time></trkpt><trkpt lat="53.0076917" lon="-1.8614217"><ele>222.33333333333331</ele><time>2026-05-04T09:23:16.795Z</time></trkpt><trkpt lat="53.0076483" lon="-1.86116"><ele>222.0</ele><time>2026-05-04T09:23:17.792Z</time></trkpt><trkpt lat="53.00757" lon="-1.8609067"><ele>222.66666666666669</ele><time>2026-05-04T09:23:18.791Z</time></trkpt><trkpt lat="53.0074667" lon="-1.8606683"><ele>223.33333333333334</ele><time>2026-05-04T09:23:19.794Z</time></trkpt><trkpt lat="53.0073433" lon="-1.860445"><ele>224.0</ele><time>2026-05-04T09:23:20.792Z</time></trkpt><trkpt lat="53.0072167" lon="-1.860225"><ele>226.33333333333334</ele><time>2026-05-04T09:23:21.792Z</time></trkpt><trkpt lat="53.0070833" lon="-1.86001"><ele>228.66666666666669</ele><time>2026-05-04T09:23:22.792Z</time></trkpt><trkpt lat="53.0069433" lon="-1.8597967"><ele>231.0</ele><time>2026-05-04T09:23:23.793Z</time></trkpt><trkpt lat="53.0068" lon="-1.8595867"><ele>231.0</ele><time>2026-05-04T09:23:24.79Z</time></trkpt><trkpt lat="53.0066633" lon="-1.8593567"><ele>231.0</ele><time>2026-05-04T09:23:25.796Z</time></trkpt><trkpt lat="53.0065283" lon="-1.8591033"><ele>231.0</ele><time>2026-05-04T09:23:26.793Z</time></trkpt><trkpt lat="53.0063967" lon="-1.8588283"><ele>230.33333333333331</ele><time>2026-05-04T09:23:27.793Z</time></trkpt><trkpt lat="53.0062833" lon="-1.8585233"><ele>229.66666666666666</ele><time>2026-05-04T09:23:28.793Z</time></trkpt><trkpt lat="53.00619" lon="-1.8581867"><ele>229.0</ele><time>2026-05-04T09:23:29.793Z</time></trkpt><trkpt lat="53.006105" lon="-1.8578317"><ele>229.5</ele><time>2026-05-04T09:23:30.793Z</time></trkpt><trkpt lat="53.0060233" lon="-1.8574633"><ele>230.0</ele><time>2026-05-04T09:23:31.796Z</time></trkpt><trkpt lat="53.00594" lon="-1.8570883"><ele>230.0</ele><time>2026-05-04T09:23:32.792Z</time></trkpt><trkpt lat="53.005855" lon="-1.8567267"><ele>230.0</ele><time>2026-05-04T09:23:33.792Z</time></trkpt><trkpt lat="53.0057667" lon="-1.8563867"><ele>230.0</ele><time>2026-05-04T09:23:34.793Z</time></trkpt><trkpt lat="53.00567" lon="-1.8560783"><ele>230.0</ele><time>2026-05-04T09:23:35.793Z</time></trkpt><trkpt lat="53.0055533" lon="-1.8558067"><ele>230.0</ele><time>2026-05-04T09:23:36.793Z</time></trkpt><trkpt lat="53.005415" lon="-1.85556"><ele>231.66666666666669</ele><time>2026-05-04T09:23:37.794Z</time></trkpt><trkpt lat="53.0052667" lon="-1.8553167"><ele>233.33333333333331</ele><time>2026-05-04T09:23:38.793Z</time></trkpt><trkpt lat="53.0051133" lon="-1.8550767"><ele>235.0</ele><time>2026-05-04T09:23:39.793Z</time></trkpt><trkpt lat="53.0049583" lon="-1.8548233"><ele>235.33333333333331</ele><time>2026-05-04T09:23:40.793Z</time></trkpt><trkpt lat="53.0048117" lon="-1.8545583"><ele>235.66666666666669</ele><time>2026-05-04T09:23:41.793Z</time></trkpt><trkpt lat="53.0046817" lon="-1.85427"><ele>236.0</ele><time>2026-05-04T09:23:42.793Z</time></trkpt><trkpt lat="53.0045683" lon="-1.8539617"><ele>237.66666666666669</ele><time>2026-05-04T09:23:43.792Z</time></trkpt><trkpt lat="53.00447" lon="-1.8536433"><ele>239.33333333333331</ele><time>2026-05-04T09:23:44.793Z</time></trkpt><trkpt lat="53.0043867" lon="-1.8533233"><ele>241.0</ele><time>2026-05-04T09:23:45.794Z</time></trkpt><trkpt lat="53.0043217" lon="-1.8529933"><ele>241.33333333333331</ele><time>2026-05-04T09:23:46.795Z</time></trkpt><trkpt lat="53.0042783" lon="-1.8526417"><ele>241.66666666666669</ele><time>2026-05-04T09:23:47.796Z</time></trkpt><trkpt lat="53.0042483" lon="-1.8522717"><ele>242.0</ele><time>2026-05-04T09:23:48.791Z</time></trkpt><trkpt lat="53.004225" lon="-1.8518917"><ele>242.0</ele><time>2026-05-04T09:23:49.792Z</time></trkpt><trkpt lat="53.0042117" lon="-1.8515067"><ele>242.0</ele><time>2026-05-04T09:23:50.791Z</time></trkpt><trkpt lat="53.0042" lon="-1.8511233"><ele>241.5</ele><time>2026-05-04T09:23:51.795Z</time></trkpt><trkpt lat="53.0041983" lon="-1.8507433"><ele>241.0</ele><time>2026-05-04T09:23:52.791Z</time></trkpt><trkpt lat="53.0042083" lon="-1.8503533"><ele>240.0</ele><time>2026-05-04T09:23:53.791Z</time></trkpt><trkpt lat="53.0042317" lon="-1.8499533"><ele>239.0</ele><time>2026-05-04T09:23:54.791Z</time></trkpt><trkpt lat="53.0042583" lon="-1.84955"><ele>236.5</ele><time>2026-05-04T09:23:55.792Z</time></trkpt><trkpt lat="53.0042733" lon="-1.84914"><ele>234.0</ele><time>2026-05-04T09:23:56.79Z</time></trkpt><trkpt lat="53.0042833" lon="-1.848725"><ele>232.0</ele><time>2026-05-04T09:23:57.791Z</time></trkpt><trkpt lat="53.0042883" lon="-1.8483167"><ele>230.0</ele><time>2026-05-04T09:23:58.791Z</time></trkpt><trkpt lat="53.0042967" lon="-1.8479267"><ele>229.0</ele><time>2026-05-04T09:23:59.792Z</time></trkpt><trkpt lat="53.0043033" lon="-1.8475667"><ele>228.0</ele><time>2026-05-04T09:24:00.791Z</time></trkpt><trkpt lat="53.004295" lon="-1.84722"><ele>227.0</ele><time>2026-05-04T09:24:01.792Z</time></trkpt><trkpt lat="53.0042617" lon="-1.8468917"><ele>226.0</ele><time>2026-05-04T09:24:02.792Z</time></trkpt><trkpt lat="53.004215" lon="-1.8465883"><ele>225.0</ele><time>2026-05-04T09:24:03.792Z</time></trkpt><trkpt lat="53.004165" lon="-1.8463067"><ele>224.0</ele><time>2026-05-04T09:24:04.792Z</time></trkpt><trkpt lat="53.0041133" lon="-1.846035"><ele>222.66666666666669</ele><time>2026-05-04T09:24:05.792Z</time></trkpt><trkpt lat="53.0040533" lon="-1.8457733"><ele>221.33333333333331</ele><time>2026-05-04T09:24:06.792Z</time></trkpt><trkpt lat="53.0039867" lon="-1.845525"><ele>220.0</ele><time>2026-05-04T09:24:07.794Z</time></trkpt><trkpt lat="53.0039083" lon="-1.8452983"><ele>219.33333333333331</ele><time>2026-05-04T09:24:08.792Z</time></trkpt><trkpt lat="53.00383" lon="-1.8450667"><ele>218.66666666666669</ele><time>2026-05-04T09:24:09.79Z</time></trkpt><trkpt lat="53.003755" lon="-1.84485"><ele>218.0</ele><time>2026-05-04T09:24:10.792Z</time></trkpt><trkpt lat="53.0036783" lon="-1.8446517"><ele>239.0</ele><time>2026-05-04T09:24:11.792Z</time></trkpt><trkpt lat="53.0051133" lon="-1.8550767"><ele>239.66666666666669</ele><time>2026-05-04T09:23:39.793Z</time></trkpt><trkpt lat="53.0049583" lon="-1.8548233"><ele>240.33333333333331</ele><time>2026-05-04T09:23:40.793Z</time></trkpt><trkpt lat="53.0048117" lon="-1.8545583"><ele>241.0</ele><time>2026-05-04T09:23:41.793Z</time></trkpt><trkpt lat="53.0046817" lon="-1.85427"><ele>241.0</ele><time>2026-05-04T09:23:42.793Z</time></trkpt><trkpt lat="53.0045683" lon="-1.8539617"><ele>241.0</ele><time>2026-05-04T09:23:43.792Z</time></trkpt><trkpt lat="53.00447" lon="-1.8536433"><ele>241.0</ele><time>2026-05-04T09:23:44.793Z</time></trkpt><trkpt lat="53.0043867" lon="-1.8533233"><ele>241.33333333333331</ele><time>2026-05-04T09:23:45.794Z</time></trkpt><trkpt lat="53.0043217" lon="-1.8529933"><ele>241.66666666666669</ele><time>2026-05-04T09:23:46.795Z</time></trkpt><trkpt lat="53.0042783" lon="-1.8526417"><ele>242.0</ele><time>2026-05-04T09:23:47.796Z</time></trkpt><trkpt lat="53.0042483" lon="-1.8522717"><ele>242.0</ele><time>2026-05-04T09:23:48.791Z</time></trkpt><trkpt lat="53.004225" lon="-1.8518917"><ele>242.0</ele><time>2026-05-04T09:23:49.792Z</time></trkpt><trkpt lat="53.0042117" lon="-1.8515067"><ele>242.0</ele><time>2026-05-04T09:23:50.791Z</time></trkpt><trkpt lat="53.0042" lon="-1.8511233"><ele>242.0</ele><time>2026-05-04T09:23:51.795Z</time></trkpt><trkpt lat="53.0041983" lon="-1.8507433"><ele>241.5</ele><time>2026-05-04T09:23:52.791Z</time></trkpt><trkpt lat="53.0042083" lon="-1.8503533"><ele>241.0</ele><time>2026-05-04T09:23:53.791Z</time></trkpt><trkpt lat="53.0042317" lon="-1.8499533"><ele>240.0</ele><time>2026-05-04T09:23:54.791Z</time></trkpt><trkpt lat="53.0042583" lon="-1.84955"><ele>239.0</ele><time>2026-05-04T09:23:55.792Z</time></trkpt><trkpt lat="53.0042733" lon="-1.84914"><ele>236.5</ele><time>2026-05-04T09:23:56.79Z</time></trkpt><trkpt lat="53.0042833" lon="-1.848725"><ele>234.0</ele><time>2026-05-04T09:23:57.791Z</time></trkpt><trkpt lat="53.0042883" lon="-1.8483167"><ele>232.0</ele><time>2026-05-04T09:23:58.791Z</time></trkpt><trkpt lat="53.0042967" lon="-1.8479267"><ele>230.0</ele><time>2026-05-04T09:23:59.792Z</time></trkpt><trkpt lat="53.0043033" lon="-1.8475667"><ele>229.0</ele><time>2026-05-04T09:24:00.791Z</time></trkpt><trkpt lat="53.004295" lon="-1.84722"><ele>228.0</ele><time>2026-05-04T09:24:01.792Z</time></trkpt><trkpt lat="53.0042617" lon="-1.8468917"><ele>227.0</ele><time>2026-05-04T09:24:02.792Z</time></trkpt><trkpt lat="53.004215" lon="-1.8465883"><ele>226.0</ele><time>2026-05-04T09:24:03.792Z</time></trkpt><trkpt lat="53.004165" lon="-1.8463067"><ele>225.0</ele><time>2026-05-04T09:24:04.792Z</time></trkpt><trkpt lat="53.0041133" lon="-1.846035"><ele>224.0</ele><time>2026-05-04T09:24:05.792Z</time></trkpt><trkpt lat="53.0040533" lon="-1.8457733"><ele>222.66666666666669</ele><time>2026-05-04T09:24:06.792Z</time></trkpt><trkpt lat="53.0039867" lon="-1.845525"><ele>221.33333333333331</ele><time>2026-05-04T09:24:07.794Z</time></trkpt><trkpt lat="53.0039083" lon="-1.8452983"><ele>220.0</ele><time>2026-05-04T09:24:08.792Z</time></trkpt><trkpt lat="53.00383" lon="-1.8450667"><ele>219.5</ele><time>2026-05-04T09:24:09.79Z</time></trkpt><trkpt lat="53.003755" lon="-1.84485"><ele>219.0</ele><time>2026-05-04T09:24:10.792Z</time></trkpt><trkpt lat="53.0036783" lon="-1.8446517"><ele>218.5</ele><time>2026-05-04T09:24:11.792Z</time></trkpt><trkpt lat="53.0036067" lon="-1.8444733"><ele>218.0</ele><time>2026-05-04T09:24:12.793Z</time></trkpt><trkpt lat="53.0035467" lon="-1.8443333"><ele>218.14285714285714</ele><time>2026-05-04T09:24:13.791Z</time></trkpt><trkpt lat="53.003485" lon="-1.8442333"><ele>218.28571428571428</ele><time>2026-05-04T09:24:14.79Z</time></trkpt><trkpt lat="53.00343" lon="-1.8441617"><ele>218.42857142857144</ele><time>2026-05-04T09:24:15.792Z</time></trkpt><trkpt lat="53.00337" lon="-1.8441283"><ele>218.57142857142856</ele><time>2026-05-04T09:24:16.791Z</time></trkpt><trkpt lat="53.003305" lon="-1.8441283"><ele>218.7142857142857</ele><time>2026-05-04T09:24:17.792Z</time></trkpt><trkpt lat="53.0032317" lon="-1.8441483"><ele>218.85714285714286</ele><time>2026-05-04T09:24:18.792Z</time></trkpt><trkpt lat="53.0031517" lon="-1.8441783"><ele>219.0</ele><time>2026-05-04T09:24:19.791Z</time></trkpt><trkpt lat="53.0030667" lon="-1.8441917"><ele>217.39999999999998</ele><time>2026-05-04T09:24:20.791Z</time></trkpt><trkpt lat="53.00299" lon="-1.8442117"><ele>215.79999999999998</ele><time>2026-05-04T09:24:21.791Z</time></trkpt><trkpt lat="53.0029133" lon="-1.8442133"><ele>214.2</ele><time>2026-05-04T09:24:22.792Z</time></trkpt><trkpt lat="53.0028333" lon="-1.8442"><ele>212.60000000000002</ele><time>2026-05-04T09:24:23.792Z</time></trkpt><trkpt lat="53.0027383" lon="-1.844185"><ele>211.0</ele><time>2026-05-04T09:24:24.792Z</time></trkpt><trkpt lat="53.0026083" lon="-1.8441883"><ele>209.0</ele><time>2026-05-04T09:24:25.791Z</time></trkpt><trkpt lat="53.0024617" lon="-1.844185"><ele>207.0</ele><time>2026-05-04T09:24:26.791Z</time></trkpt><trkpt lat="53.0023067" lon="-1.8441883"><ele>205.0</ele><time>2026-05-04T09:24:27.791Z</time></trkpt><trkpt lat="53.0021367" lon="-1.8441933"><ele>205.0</ele><time>2026-05-04T09:24:28.792Z</time></trkpt><trkpt lat="53.0019683" lon="-1.8441833"><ele>205.0</ele><time>2026-05-04T09:24:29.792Z</time></trkpt><trkpt lat="53.001795" lon="-1.84416"><ele>205.0</ele><time>2026-05-04T09:24:30.791Z</time></trkpt><trkpt lat="53.00162" lon="-1.844125"><ele>206.33333333333331</ele><time>2026-05-04T09:24:31.792Z</time></trkpt><trkpt lat="53.00144" lon="-1.84407"><ele>207.66666666666669</ele><time>2026-05-04T09:24:32.791Z</time></trkpt><trkpt lat="53.0012633" lon="-1.8439967"><ele>209.0</ele><time>2026-05-04T09:24:33.792Z</time></trkpt><trkpt lat="53.00109" lon="-1.8438817"><ele>209.0</ele><time>2026-05-04T09:24:34.79Z</time></trkpt><trkpt lat="53.0009217" lon="-1.8437383"><ele>209.0</ele><time>2026-05-04T09:24:35.792Z</time></trkpt><trkpt lat="53.00076" lon="-1.8435783"><ele>209.0</ele><time>2026-05-04T09:24:36.79Z</time></trkpt><trkpt lat="53.0005933" lon="-1.8434067"><ele>208.66666666666669</ele><time>2026-05-04T09:24:37.792Z</time></trkpt><trkpt lat="53.0004267" lon="-1.8432633"><ele>208.33333333333331</ele><time>2026-05-04T09:24:38.791Z</time></trkpt><trkpt lat="53.0002617" lon="-1.84313"><ele>208.0</ele><time>2026-05-04T09:24:39.792Z</time></trkpt><trkpt lat="53.0001" lon="-1.84298"><ele>208.0</ele><time>2026-05-04T09:24:40.791Z</time></trkpt><trkpt lat="52.9999467" lon="-1.8428067"><ele>208.0</ele><time>2026-05-04T09:24:41.792Z</time></trkpt><trkpt lat="52.9997967" lon="-1.8426217"><ele>208.0</ele><time>2026-05-04T09:24:42.792Z</time></trkpt><trkpt lat="52.9996583" lon="-1.8424383"><ele>206.33333333333331</ele><time>2026-05-04T09:24:43.792Z</time></trkpt><trkpt lat="52.999525" lon="-1.84225"><ele>204.66666666666669</ele><time>2026-05-04T09:24:44.792Z</time></trkpt><trkpt lat="52.9993917" lon="-1.8420483"><ele>203.0</ele><time>2026-05-04T09:24:45.792Z</time></trkpt><trkpt lat="52.99926" lon="-1.8418217"><ele>203.0</ele><time>2026-05-04T09:24:46.791Z</time></trkpt><trkpt lat="52.9991267" lon="-1.8415717"><ele>203.0</ele><time>2026-05-04T09:24:47.792Z</time></trkpt><trkpt lat="52.999" lon="-1.84131"><ele>203.0</ele><time>2026-05-04T09:24:48.792Z</time></trkpt><trkpt lat="52.9988917" lon="-1.8410633"><ele>200.0</ele><time>2026-05-04T09:24:49.793Z</time></trkpt><trkpt lat="52.99878" lon="-1.840835"><ele>197.0</ele><time>2026-05-04T09:24:50.792Z</time></trkpt><trkpt lat="52.9986717" lon="-1.8406383"><ele>194.0</ele><time>2026-05-04T09:24:51.792Z</time></trkpt><trkpt lat="52.99856" lon="-1.84047"><ele>194.0</ele><time>2026-05-04T09:24:52.791Z</time></trkpt><trkpt lat="52.9984433" lon="-1.840325"><ele>194.0</ele><time>2026-05-04T09:24:53.791Z</time></trkpt><trkpt lat="52.9983083" lon="-1.8402283"><ele>194.0</ele><time>2026-05-04T09:24:54.792Z</time></trkpt><trkpt lat="52.99816" lon="-1.8401833"><ele>194.0</ele><time>2026-05-04T09:24:55.791Z</time></trkpt><trkpt lat="52.9979867" lon="-1.840185"><ele>193.66666666666669</ele><time>2026-05-04T09:24:56.791Z</time></trkpt><trkpt lat="52.99779" lon="-1.84018"><ele>193.33333333333331</ele><time>2026-05-04T09:24:57.791Z</time></trkpt><trkpt lat="52.9975917" lon="-1.840145"><ele>193.0</ele><time>2026-05-04T09:24:58.791Z</time></trkpt><trkpt lat="52.9974" lon="-1.8400967"><ele>187.66666666666666</ele><time>2026-05-04T09:24:59.792Z</time></trkpt><trkpt lat="52.99721" lon="-1.840025"><ele>182.33333333333331</ele><time>2026-05-04T09:25:00.791Z</time></trkpt><trkpt lat="52.9970183" lon="-1.83995"><ele>177.0</ele><time>2026-05-04T09:25:01.791Z</time></trkpt><trkpt lat="52.9968233" lon="-1.8398667"><ele>176.33333333333334</ele><time>2026-05-04T09:25:02.791Z</time></trkpt><trkpt lat="52.9966333" lon="-1.8397883"><ele>175.66666666666669</ele><time>2026-05-04T09:25:03.792Z</time></trkpt><trkpt lat="52.9964417" lon="-1.8397133"><ele>175.0</ele><time>2026-05-04T09:25:04.791Z</time></trkpt><trkpt lat="52.996255" lon="-1.8396417"><ele>175.0</ele><time>2026-05-04T09:25:05.792Z</time></trkpt><trkpt lat="52.996065" lon="-1.8395633"><ele>175.0</ele><time>2026-05-04T09:25:06.792Z</time></trkpt><trkpt lat="52.9958817" lon="-1.83949"><ele>175.0</ele><time>2026-05-04T09:25:07.793Z</time></trkpt><trkpt lat="52.9957033" lon="-1.8394033"><ele>173.66666666666669</ele><time>2026-05-04T09:25:08.792Z</time></trkpt><trkpt lat="52.9955267" lon="-1.8393017"><ele>172.33333333333334</ele><time>2026-05-04T09:25:09.792Z</time></trkpt><trkpt lat="52.9953533" lon="-1.8391667"><ele>171.0</ele><time>2026-05-04T09:25:10.791Z</time></trkpt><trkpt lat="52.99518" lon="-1.839005"><ele>170.0</ele><time>2026-05-04T09:25:11.796Z</time></trkpt><trkpt lat="52.99501" lon="-1.8388367"><ele>169.0</ele><time>2026-05-04T09:25:12.793Z</time></trkpt><trkpt lat="52.9948467" lon="-1.838665"><ele>168.0</ele><time>2026-05-04T09:25:13.794Z</time></trkpt><trkpt lat="52.9946933" lon="-1.8384983"><ele>165.66666666666666</ele><time>2026-05-04T09:25:14.793Z</time></trkpt><trkpt lat="52.9945517" lon="-1.8383367"><ele>163.33333333333331</ele><time>2026-05-04T09:25:15.792Z</time></trkpt><trkpt lat="52.9944217" lon="-1.8381883"><ele>161.0</ele><time>2026-05-04T09:25:16.794Z</time></trkpt><trkpt lat="52.9942983" lon="-1.83804"><ele>161.0</ele><time>2026-05-04T09:25:17.791Z</time></trkpt><trkpt lat="52.9941767" lon="-1.8378933"><ele>161.0</ele><time>2026-05-04T09:25:18.791Z</time></trkpt><trkpt lat="52.9940617" lon="-1.8377467"><ele>161.0</ele><time>2026-05-04T09:25:19.793Z</time></trkpt><trkpt lat="52.99395" lon="-1.8376"><ele>161.0</ele><time>2026-05-04T09:25:20.792Z</time></trkpt><trkpt lat="52.9938383" lon="-1.8374467"><ele>159.33333333333331</ele><time>2026-05-04T09:25:21.791Z</time></trkpt><trkpt lat="52.9937333" lon="-1.837285"><ele>157.66666666666666</ele><time>2026-05-04T09:25:22.79Z</time></trkpt><trkpt lat="52.993625" lon="-1.8371067"><ele>156.0</ele><time>2026-05-04T09:25:23.791Z</time></trkpt><trkpt lat="52.9935183" lon="-1.8369183"><ele>155.0</ele><time>2026-05-04T09:25:24.792Z</time></trkpt><trkpt lat="52.9934117" lon="-1.836725"><ele>154.0</ele><time>2026-05-04T09:25:25.792Z</time></trkpt><trkpt lat="52.9933133" lon="-1.8365233"><ele>153.0</ele><time>2026-05-04T09:25:26.792Z</time></trkpt><trkpt lat="52.9932167" lon="-1.8363267"><ele>152.33333333333334</ele><time>2026-05-04T09:25:27.793Z</time></trkpt><trkpt lat="52.9931267" lon="-1.8361283"><ele>151.66666666666669</ele><time>2026-05-04T09:25:28.791Z</time></trkpt><trkpt lat="52.993045" lon="-1.8359233"><ele>151.0</ele><time>2026-05-04T09:25:29.792Z</time></trkpt><trkpt lat="52.9929667" lon="-1.8357067"><ele>150.0</ele><time>2026-05-04T09:25:30.79Z</time></trkpt><trkpt lat="52.9928867" lon="-1.8354917"><ele>149.0</ele><time>2026-05-04T09:25:31.792Z</time></trkpt><trkpt lat="52.9928117" lon="-1.8352783"><ele>148.0</ele><time>2026-05-04T09:25:32.793Z</time></trkpt><trkpt lat="52.9927383" lon="-1.83506"><ele>147.0</ele><time>2026-05-04T09:25:33.792Z</time></trkpt><trkpt lat="52.99267" lon="-1.8348433"><ele>146.0</ele><time>2026-05-04T09:25:34.792Z</time></trkpt><trkpt lat="52.9925967" lon="-1.834625"><ele>145.0</ele><time>2026-05-04T09:25:35.793Z</time></trkpt><trkpt lat="52.9925233" lon="-1.8344217"><ele>144.0</ele><time>2026-05-04T09:25:36.791Z</time></trkpt><trkpt lat="52.9924417" lon="-1.8342133"><ele>143.0</ele><time>2026-05-04T09:25:37.792Z</time></trkpt><trkpt lat="52.992365" lon="-1.834005"><ele>142.0</ele><time>2026-05-04T09:25:38.793Z</time></trkpt><trkpt lat="52.9922933" lon="-1.83379"><ele>141.0</ele><time>2026-05-04T09:25:39.791Z</time></trkpt><trkpt lat="52.9922167" lon="-1.833575"><ele>140.0</ele><time>2026-05-04T09:25:40.791Z</time></trkpt><trkpt lat="52.9921433" lon="-1.8333733"><ele>138.25</ele><time>2026-05-04T09:25:41.793Z</time></trkpt><trkpt lat="52.9920733" lon="-1.8331867"><ele>136.5</ele><time>2026-05-04T09:25:42.791Z</time></trkpt><trkpt lat="52.9920133" lon="-1.8330117"><ele>134.75</ele><time>2026-05-04T09:25:43.792Z</time></trkpt><trkpt lat="52.9919567" lon="-1.8328467"><ele>133.0</ele><time>2026-05-04T09:25:44.792Z</time></trkpt><trkpt lat="52.9919" lon="-1.8326833"><ele>132.0</ele><time>2026-05-04T09:25:45.791Z</time></trkpt><trkpt lat="52.9918433" lon="-1.8325283"><ele>131.0</ele><time>2026-05-04T09:25:46.793Z</time></trkpt><trkpt lat="52.9917833" lon="-1.8323617"><ele>130.0</ele><time>2026-05-04T09:25:47.792Z</time></trkpt><trkpt lat="52.991715" lon="-1.832205"><ele>129.0</ele><time>2026-05-04T09:25:48.792Z</time></trkpt><trkpt lat="52.9916417" lon="-1.8320617"><ele>130.75</ele><time>2026-05-04T09:25:49.791Z</time></trkpt><trkpt lat="52.99156" lon="-1.8319267"><ele>132.5</ele><time>2026-05-04T09:25:50.791Z</time></trkpt><trkpt lat="52.9914667" lon="-1.831815"><ele>134.25</ele><time>2026-05-04T09:25:51.792Z</time></trkpt><trkpt lat="52.9913683" lon="-1.8317183"><ele>136.0</ele><time>2026-05-04T09:25:52.791Z</time></trkpt><trkpt lat="52.9912683" lon="-1.8316417"><ele>136.0</ele><time>2026-05-04T09:25:53.792Z</time></trkpt><trkpt lat="52.9911683" lon="-1.83157"><ele>136.0</ele><time>2026-05-04T09:25:54.791Z</time></trkpt><trkpt lat="52.99107" lon="-1.8314867"><ele>136.0</ele><time>2026-05-04T09:25:55.792Z</time></trkpt><trkpt lat="52.99097" lon="-1.8313967"><ele>136.0</ele><time>2026-05-04T09:25:56.792Z</time></trkpt><trkpt lat="52.990875" lon="-1.8313017"><ele>136.0</ele><time>2026-05-04T09:25:57.795Z</time></trkpt><trkpt lat="52.9907783" lon="-1.8312033"><ele>136.0</ele><time>2026-05-04T09:25:58.79Z</time></trkpt><trkpt lat="52.9906817" lon="-1.8311117"><ele>136.0</ele><time>2026-05-04T09:25:59.792Z</time></trkpt><trkpt lat="52.990585" lon="-1.831015"><ele>136.0</ele><time>2026-05-04T09:26:00.791Z</time></trkpt><trkpt lat="52.9904833" lon="-1.8309267"><ele>136.0</ele><time>2026-05-04T09:26:01.791Z</time></trkpt><trkpt lat="52.99038" lon="-1.8308483"><ele>136.0</ele><time>2026-05-04T09:26:02.79Z</time></trkpt><trkpt lat="52.99027" lon="-1.8307833"><ele>136.0</ele><time>2026-05-04T09:26:03.791Z</time></trkpt><trkpt lat="52.990155" lon="-1.83074"><ele>136.0</ele><time>2026-05-04T09:26:04.792Z</time></trkpt><trkpt lat="52.9900367" lon="-1.8307083"><ele>136.0</ele><time>2026-05-04T09:26:05.791Z</time></trkpt><trkpt lat="52.9899167" lon="-1.8306833"><ele>136.0</ele><time>2026-05-04T09:26:06.791Z</time></trkpt><trkpt lat="52.9897967" lon="-1.83066"><ele>136.0</ele><time>2026-05-04T09:26:07.791Z</time></trkpt><trkpt lat="52.9896767" lon="-1.83063"><ele>136.0</ele><time>2026-05-04T09:26:08.792Z</time></trkpt><trkpt lat="52.9895567" lon="-1.8305967"><ele>136.0</ele><time>2026-05-04T09:26:09.792Z</time></trkpt><trkpt lat="52.9894367" lon="-1.8305617"><ele>136.0</ele><time>2026-05-04T09:26:10.791Z</time></trkpt><trkpt lat="52.9893167" lon="-1.8305133"><ele>136.0</ele><time>2026-05-04T09:26:11.792Z</time></trkpt><trkpt lat="52.9892083" lon="-1.8304583"><ele>136.0</ele><time>2026-05-04T09:26:12.792Z</time></trkpt><trkpt lat="52.9890983" lon="-1.8304"><ele>136.0</ele><time>2026-05-04T09:26:13.792Z</time></trkpt><trkpt lat="52.9889933" lon="-1.8303367"><ele>135.0</ele><time>2026-05-04T09:26:14.792Z</time></trkpt><trkpt lat="52.98889" lon="-1.8302683"><ele>134.0</ele><time>2026-05-04T09:26:15.792Z</time></trkpt><trkpt lat="52.9887883" lon="-1.8301933"><ele>133.0</ele><time>2026-05-04T09:26:16.791Z</time></trkpt><trkpt lat="52.9886867" lon="-1.8301083"><ele>132.0</ele><time>2026-05-04T09:26:17.791Z</time></trkpt><trkpt lat="52.9885833" lon="-1.8300183"><ele>132.0</ele><time>2026-05-04T09:26:18.791Z</time></trkpt><trkpt lat="52.9884817" lon="-1.8299283"><ele>132.0</ele><time>2026-05-04T09:26:19.792Z</time></trkpt><trkpt lat="52.9883867" lon="-1.8298233"><ele>132.0</ele><time>2026-05-04T09:26:20.791Z</time></trkpt><trkpt lat="52.988295" lon="-1.82971"><ele>132.0</ele><time>2026-05-04T09:26:21.791Z</time></trkpt><trkpt lat="52.9882033" lon="-1.8295933"><ele>129.75</ele><time>2026-05-04T09:26:22.793Z</time></trkpt><trkpt lat="52.988115" lon="-1.8294767"><ele>127.5</ele><time>2026-05-04T09:26:23.793Z</time></trkpt><trkpt lat="52.9880333" lon="-1.8293483"><ele>125.25</ele><time>2026-05-04T09:26:24.791Z</time></trkpt><trkpt lat="52.987955" lon="-1.8292133"><ele>123.0</ele><time>2026-05-04T09:26:25.792Z</time></trkpt><trkpt lat="52.98788" lon="-1.8290733"><ele>123.0</ele><time>2026-05-04T09:26:26.791Z</time></trkpt><trkpt lat="52.9878067" lon="-1.8289267"><ele>123.0</ele><time>2026-05-04T09:26:27.79Z</time></trkpt><trkpt lat="52.9877333" lon="-1.8287733"><ele>123.0</ele><time>2026-05-04T09:26:28.792Z</time></trkpt><trkpt lat="52.9876617" lon="-1.828625"><ele>123.0</ele><time>2026-05-04T09:26:29.791Z</time></trkpt><trkpt lat="52.9875883" lon="-1.828475"><ele>123.0</ele><time>2026-05-04T09:26:30.793Z</time></trkpt><trkpt lat="52.9875167" lon="-1.8283217"><ele>123.0</ele><time>2026-05-04T09:26:31.792Z</time></trkpt><trkpt lat="52.987445" lon="-1.8281717"><ele>123.0</ele><time>2026-05-04T09:26:32.792Z</time></trkpt><trkpt lat="52.9873767" lon="-1.8280267"><ele>123.0</ele><time>2026-05-04T09:26:33.792Z</time></trkpt><trkpt lat="52.9873117" lon="-1.8278767"><ele>123.0</ele><time>2026-05-04T09:26:34.791Z</time></trkpt><trkpt lat="52.9872417" lon="-1.827725"><ele>123.0</ele><time>2026-05-04T09:26:35.791Z</time></trkpt><trkpt lat="52.987175" lon="-1.8275767"><ele>123.0</ele><time>2026-05-04T09:26:36.792Z</time></trkpt><trkpt lat="52.98711" lon="-1.8274217"><ele>123.0</ele><time>2026-05-04T09:26:37.792Z</time></trkpt><trkpt lat="52.9870467" lon="-1.8272683"><ele>123.0</ele><time>2026-05-04T09:26:38.793Z</time></trkpt><trkpt lat="52.9869967" lon="-1.8271383"><ele>123.0</ele><time>2026-05-04T09:26:39.794Z</time></trkpt><trkpt lat="52.9869583" lon="-1.8270267"><ele>123.0</ele><time>2026-05-04T09:26:40.791Z</time></trkpt><trkpt lat="52.9869183" lon="-1.8268867"><ele>123.0</ele><time>2026-05-04T09:26:42.79Z</time></trkpt><trkpt lat="52.9868617" lon="-1.82683"><ele>123.0</ele><time>2026-05-04T09:26:47.792Z</time></trkpt><trkpt lat="52.98675" lon="-1.8267767"><ele>123.0</ele><time>2026-05-04T09:26:49.792Z</time></trkpt><trkpt lat="52.9866683" lon="-1.826745"><ele>121.5</ele><time>2026-05-04T09:26:50.792Z</time></trkpt><trkpt lat="52.9865667" lon="-1.8267117"><ele>120.0</ele><time>2026-05-04T09:26:51.791Z</time></trkpt><trkpt lat="52.9864517" lon="-1.8266683"><ele>118.5</ele><time>2026-05-04T09:26:52.79Z</time></trkpt><trkpt lat="52.9863317" lon="-1.8266267"><ele>117.0</ele><time>2026-05-04T09:26:53.792Z</time></trkpt><trkpt lat="52.9862083" lon="-1.8265833"><ele>117.0</ele><time>2026-05-04T09:26:54.791Z</time></trkpt><trkpt lat="52.986085" lon="-1.8265433"><ele>117.0</ele><time>2026-05-04T09:26:55.792Z</time></trkpt><trkpt lat="52.985955" lon="-1.826505"><ele>117.0</ele><time>2026-05-04T09:26:56.793Z</time></trkpt><trkpt lat="52.985825" lon="-1.82648"><ele>117.0</ele><time>2026-05-04T09:26:57.795Z</time></trkpt><trkpt lat="52.9856917" lon="-1.826465"><ele>115.5</ele><time>2026-05-04T09:26:58.792Z</time></trkpt><trkpt lat="52.9855517" lon="-1.8264583"><ele>114.0</ele><time>2026-05-04T09:26:59.792Z</time></trkpt><trkpt lat="52.9854167" lon="-1.8264683"><ele>112.5</ele><time>2026-05-04T09:27:00.791Z</time></trkpt><trkpt lat="52.9852733" lon="-1.8264883"><ele>111.0</ele><time>2026-05-04T09:27:01.797Z</time></trkpt><trkpt lat="52.9851333" lon="-1.8265067"><ele>110.5</ele><time>2026-05-04T09:27:02.791Z</time></trkpt><trkpt lat="52.9849967" lon="-1.8265267"><ele>110.0</ele><time>2026-05-04T09:27:03.793Z</time></trkpt><trkpt lat="52.984865" lon="-1.8265467"><ele>109.5</ele><time>2026-05-04T09:27:04.794Z</time></trkpt><trkpt lat="52.9847433" lon="-1.826565"><ele>109.0</ele><time>2026-05-04T09:27:05.794Z</time></trkpt><trkpt lat="52.98463" lon="-1.82659"><ele>109.0</ele><time>2026-05-04T09:27:06.793Z</time></trkpt><trkpt lat="52.9845267" lon="-1.8266083"><ele>109.0</ele><time>2026-05-04T09:27:07.793Z</time></trkpt><trkpt lat="52.9844283" lon="-1.8266283"><ele>109.0</ele><time>2026-05-04T09:27:08.791Z</time></trkpt><trkpt lat="52.98433" lon="-1.8266467"><ele>109.0</ele><time>2026-05-04T09:27:09.792Z</time></trkpt><trkpt lat="52.9842283" lon="-1.8266567"><ele>109.0</ele><time>2026-05-04T09:27:10.793Z</time></trkpt><trkpt lat="52.984125" lon="-1.826655"><ele>109.80000000000001</ele><time>2026-05-04T09:27:11.793Z</time></trkpt><trkpt lat="52.98402" lon="-1.8266583"><ele>110.60000000000001</ele><time>2026-05-04T09:27:12.792Z</time></trkpt><trkpt lat="52.9839133" lon="-1.8266617"><ele>111.4</ele><time>2026-05-04T09:27:13.794Z</time></trkpt><trkpt lat="52.9838017" lon="-1.8266717"><ele>112.2</ele><time>2026-05-04T09:27:14.793Z</time></trkpt><trkpt lat="52.9836867" lon="-1.8266833"><ele>113.0</ele><time>2026-05-04T09:27:15.795Z</time></trkpt><trkpt lat="52.9835683" lon="-1.826695"><ele>113.0</ele><time>2026-05-04T09:27:16.794Z</time></trkpt><trkpt lat="52.98345" lon="-1.8267067"><ele>113.0</ele><time>2026-05-04T09:27:17.793Z</time></trkpt><trkpt lat="52.983335" lon="-1.8267317"><ele>113.0</ele><time>2026-05-04T09:27:18.794Z</time></trkpt><trkpt lat="52.9832233" lon="-1.826775"><ele>113.0</ele><time>2026-05-04T09:27:19.793Z</time></trkpt><trkpt lat="52.98311" lon="-1.8268333"><ele>114.5</ele><time>2026-05-04T09:27:20.791Z</time></trkpt><trkpt lat="52.98301" lon="-1.8269167"><ele>116.0</ele><time>2026-05-04T09:27:21.793Z</time></trkpt><trkpt lat="52.9829133" lon="-1.8270083"><ele>117.5</ele><time>2026-05-04T09:27:22.795Z</time></trkpt><trkpt lat="52.9828167" lon="-1.8271183"><ele>119.0</ele><time>2026-05-04T09:27:23.794Z</time></trkpt><trkpt lat="52.9827183" lon="-1.827225"><ele>119.0</ele><time>2026-05-04T09:27:24.794Z</time></trkpt><trkpt lat="52.9826183" lon="-1.82733"><ele>119.0</ele><time>2026-05-04T09:27:25.795Z</time></trkpt><trkpt lat="52.9825167" lon="-1.827435"><ele>119.0</ele><time>2026-05-04T09:27:26.791Z</time></trkpt><trkpt lat="52.98242" lon="-1.827545"><ele>119.0</ele><time>2026-05-04T09:27:27.793Z</time></trkpt><trkpt lat="52.9823267" lon="-1.8276667"><ele>117.5</ele><time>2026-05-04T09:27:28.793Z</time></trkpt><trkpt lat="52.9822367" lon="-1.8277783"><ele>116.0</ele><time>2026-05-04T09:27:29.794Z</time></trkpt><trkpt lat="52.9821433" lon="-1.8278883"><ele>114.5</ele><time>2026-05-04T09:27:30.795Z</time></trkpt><trkpt lat="52.9820483" lon="-1.8279917"><ele>113.0</ele><time>2026-05-04T09:27:31.794Z</time></trkpt><trkpt lat="52.9819533" lon="-1.8281"><ele>113.0</ele><time>2026-05-04T09:27:32.795Z</time></trkpt><trkpt lat="52.9818567" lon="-1.8282017"><ele>113.0</ele><time>2026-05-04T09:27:33.797Z</time></trkpt><trkpt lat="52.9817517" lon="-1.8283033"><ele>113.0</ele><time>2026-05-04T09:27:34.794Z</time></trkpt><trkpt lat="52.98164" lon="-1.8284117"><ele>113.0</ele><time>2026-05-04T09:27:35.794Z</time></trkpt><trkpt lat="52.98152" lon="-1.8285233"><ele>112.25</ele><time>2026-05-04T09:27:36.792Z</time></trkpt><trkpt lat="52.9813917" lon="-1.8286433"><ele>111.5</ele><time>2026-05-04T09:27:37.795Z</time></trkpt><trkpt lat="52.9812633" lon="-1.8287733"><ele>110.75</ele><time>2026-05-04T09:27:38.794Z</time></trkpt><trkpt lat="52.9811367" lon="-1.82891"><ele>110.0</ele><time>2026-05-04T09:27:39.794Z</time></trkpt><trkpt lat="52.9810133" lon="-1.82904"><ele>110.0</ele><time>2026-05-04T09:27:40.792Z</time></trkpt><trkpt lat="52.980895" lon="-1.829195"><ele>110.0</ele><time>2026-05-04T09:27:41.794Z</time></trkpt><trkpt lat="52.9807717" lon="-1.8293467"><ele>110.0</ele><time>2026-05-04T09:27:42.794Z</time></trkpt><trkpt lat="52.9806517" lon="-1.8295033"><ele>110.0</ele><time>2026-05-04T09:27:43.794Z</time></trkpt><trkpt lat="52.9805283" lon="-1.8296533"><ele>110.0</ele><time>2026-05-04T09:27:44.793Z</time></trkpt><trkpt lat="52.9804017" lon="-1.8298033"><ele>110.0</ele><time>2026-05-04T09:27:45.793Z</time></trkpt><trkpt lat="52.98028" lon="-1.82995"><ele>110.0</ele><time>2026-05-04T09:27:46.792Z</time></trkpt><trkpt lat="52.980155" lon="-1.8300917"><ele>110.0</ele><time>2026-05-04T09:27:47.794Z</time></trkpt><trkpt lat="52.98003" lon="-1.8302267"><ele>110.0</ele><time>2026-05-04T09:27:48.792Z</time></trkpt><trkpt lat="52.979905" lon="-1.8303633"><ele>109.5</ele><time>2026-05-04T09:27:49.793Z</time></trkpt><trkpt lat="52.9797817" lon="-1.8305017"><ele>109.0</ele><time>2026-05-04T09:27:50.794Z</time></trkpt><trkpt lat="52.9796667" lon="-1.83065"><ele>108.5</ele><time>2026-05-04T09:27:51.792Z</time></trkpt><trkpt lat="52.9795467" lon="-1.830795"><ele>108.0</ele><time>2026-05-04T09:27:52.793Z</time></trkpt><trkpt lat="52.97943" lon="-1.8309383"><ele>108.66666666666666</ele><time>2026-05-04T09:27:53.794Z</time></trkpt><trkpt lat="52.9793117" lon="-1.8310883"><ele>109.33333333333333</ele><time>2026-05-04T09:27:54.792Z</time></trkpt><trkpt lat="52.9791933" lon="-1.8312483"><ele>110.0</ele><time>2026-05-04T09:27:55.793Z</time></trkpt><trkpt lat="52.9790783" lon="-1.8314133"><ele>109.0</ele><time>2026-05-04T09:27:56.792Z</time></trkpt><trkpt lat="52.978965" lon="-1.8315783"><ele>108.0</ele><time>2026-05-04T09:27:57.793Z</time></trkpt><trkpt lat="52.9788517" lon="-1.831745"><ele>107.0</ele><time>2026-05-04T09:27:58.794Z</time></trkpt><trkpt lat="52.9787417" lon="-1.8319233"><ele>107.0</ele><time>2026-05-04T09:27:59.794Z</time></trkpt><trkpt lat="52.9786217" lon="-1.8321083"><ele>107.0</ele><time>2026-05-04T09:28:00.793Z</time></trkpt><trkpt lat="52.9784933" lon="-1.83231"><ele>107.0</ele><time>2026-05-04T09:28:01.794Z</time></trkpt><trkpt lat="52.978355" lon="-1.83252"><ele>106.66666666666666</ele><time>2026-05-04T09:28:02.792Z</time></trkpt><trkpt lat="52.9782067" lon="-1.8327467"><ele>106.33333333333334</ele><time>2026-05-04T09:28:03.794Z</time></trkpt><trkpt lat="52.978055" lon="-1.8329733"><ele>106.0</ele><time>2026-05-04T09:28:04.793Z</time></trkpt><trkpt lat="52.9778967" lon="-1.83319"><ele>106.0</ele><time>2026-05-04T09:28:05.793Z</time></trkpt><trkpt lat="52.9777333" lon="-1.83339"><ele>106.0</ele><time>2026-05-04T09:28:06.793Z</time></trkpt><trkpt lat="52.977565" lon="-1.8335683"><ele>106.0</ele><time>2026-05-04T09:28:07.793Z</time></trkpt><trkpt lat="52.9773883" lon="-1.8337267"><ele>107.33333333333334</ele><time>2026-05-04T09:28:08.793Z</time></trkpt><trkpt lat="52.977205" lon="-1.8338733"><ele>108.66666666666666</ele><time>2026-05-04T09:28:09.795Z</time></trkpt><trkpt lat="52.9770217" lon="-1.83402"><ele>110.0</ele><time>2026-05-04T09:28:10.793Z</time></trkpt><trkpt lat="52.9768417" lon="-1.8341717"><ele>111.33333333333333</ele><time>2026-05-04T09:28:11.792Z</time></trkpt><trkpt lat="52.9766633" lon="-1.8343167"><ele>112.66666666666666</ele><time>2026-05-04T09:28:12.792Z</time></trkpt><trkpt lat="52.9764917" lon="-1.8344767"><ele>114.0</ele><time>2026-05-04T09:28:13.791Z</time></trkpt><trkpt lat="52.9763283" lon="-1.8346733"><ele>114.0</ele><time>2026-05-04T09:28:14.792Z</time></trkpt><trkpt lat="52.976175" lon="-1.834895"><ele>114.0</ele><time>2026-05-04T09:28:15.793Z</time></trkpt><trkpt lat="52.976025" lon="-1.8351317"><ele>114.0</ele><time>2026-05-04T09:28:16.793Z</time></trkpt><trkpt lat="52.9758833" lon="-1.8353783"><ele>114.66666666666666</ele><time>2026-05-04T09:28:17.793Z</time></trkpt><trkpt lat="52.9757617" lon="-1.83562"><ele>115.33333333333333</ele><time>2026-05-04T09:28:18.792Z</time></trkpt><trkpt lat="52.9756583" lon="-1.8358433"><ele>116.0</ele><time>2026-05-04T09:28:19.792Z</time></trkpt><trkpt lat="52.9755633" lon="-1.8360683"><ele>116.5</ele><time>2026-05-04T09:28:20.793Z</time></trkpt><trkpt lat="52.975465" lon="-1.8362567"><ele>117.0</ele><time>2026-05-04T09:28:21.793Z</time></trkpt><trkpt lat="52.9753617" lon="-1.83643"><ele>117.5</ele><time>2026-05-04T09:28:22.792Z</time></trkpt><trkpt lat="52.9752467" lon="-1.8365567"><ele>118.0</ele><time>2026-05-04T09:28:23.794Z</time></trkpt><trkpt lat="52.9751317" lon="-1.836655"><ele>118.25</ele><time>2026-05-04T09:28:24.794Z</time></trkpt><trkpt lat="52.9750083" lon="-1.83673"><ele>118.5</ele><time>2026-05-04T09:28:25.793Z</time></trkpt><trkpt lat="52.9748667" lon="-1.8367833"><ele>118.75</ele><time>2026-05-04T09:28:26.792Z</time></trkpt><trkpt lat="52.97471" lon="-1.8368"><ele>119.0</ele><time>2026-05-04T09:28:27.793Z</time></trkpt><trkpt lat="52.9745433" lon="-1.8367883"><ele>119.0</ele><time>2026-05-04T09:28:28.793Z</time></trkpt><trkpt lat="52.9743783" lon="-1.8367583"><ele>119.0</ele><time>2026-05-04T09:28:29.794Z</time></trkpt><trkpt lat="52.974215" lon="-1.8367083"><ele>119.0</ele><time>2026-05-04T09:28:30.793Z</time></trkpt><trkpt lat="52.9740483" lon="-1.83667"><ele>121.33333333333333</ele><time>2026-05-04T09:28:31.793Z</time></trkpt><trkpt lat="52.9738717" lon="-1.8366283"><ele>123.66666666666666</ele><time>2026-05-04T09:28:32.792Z</time></trkpt><trkpt lat="52.9736933" lon="-1.83659"><ele>126.0</ele><time>2026-05-04T09:28:33.793Z</time></trkpt><trkpt lat="52.973505" lon="-1.83656"><ele>128.0</ele><time>2026-05-04T09:28:34.793Z</time></trkpt><trkpt lat="52.9733183" lon="-1.8365267"><ele>130.0</ele><time>2026-05-04T09:28:35.793Z</time></trkpt><trkpt lat="52.9731267" lon="-1.836495"><ele>132.0</ele><time>2026-05-04T09:28:36.795Z</time></trkpt><trkpt lat="52.9729367" lon="-1.8364817"><ele>132.0</ele><time>2026-05-04T09:28:37.793Z</time></trkpt><trkpt lat="52.972745" lon="-1.8364733"><ele>132.0</ele><time>2026-05-04T09:28:38.793Z</time></trkpt><trkpt lat="52.97256" lon="-1.8364833"><ele>132.0</ele><time>2026-05-04T09:28:39.794Z</time></trkpt><trkpt lat="52.9723683" lon="-1.83651"><ele>133.0</ele><time>2026-05-04T09:28:40.793Z</time></trkpt><trkpt lat="52.9721717" lon="-1.8365483"><ele>134.0</ele><time>2026-05-04T09:28:41.794Z</time></trkpt><trkpt lat="52.9719767" lon="-1.8365933"><ele>135.0</ele><time>2026-05-04T09:28:42.795Z</time></trkpt><trkpt lat="52.97178" lon="-1.836665"><ele>135.66666666666666</ele><time>2026-05-04T09:28:43.794Z</time></trkpt><trkpt lat="52.9715833" lon="-1.8367383"><ele>136.33333333333331</ele><time>2026-05-04T09:28:44.794Z</time></trkpt><trkpt lat="52.9713883" lon="-1.83682"><ele>137.0</ele><time>2026-05-04T09:28:45.794Z</time></trkpt><trkpt lat="52.97119" lon="-1.8369"><ele>138.66666666666666</ele><time>2026-05-04T09:28:46.793Z</time></trkpt><trkpt lat="52.971" lon="-1.8369783"><ele>140.33333333333334</ele><time>2026-05-04T09:28:47.792Z</time></trkpt><trkpt lat="52.9708233" lon="-1.837055"><ele>142.0</ele><time>2026-05-04T09:28:48.792Z</time></trkpt><trkpt lat="52.970655" lon="-1.8371317"><ele>142.0</ele><time>2026-05-04T09:28:49.793Z</time></trkpt><trkpt lat="52.9705" lon="-1.8371967"><ele>142.0</ele><time>2026-05-04T09:28:50.793Z</time></trkpt><trkpt lat="52.970355" lon="-1.83726"><ele>142.0</ele><time>2026-05-04T09:28:51.793Z</time></trkpt><trkpt lat="52.9702167" lon="-1.8373183"><ele>142.0</ele><time>2026-05-04T09:28:52.791Z</time></trkpt><trkpt lat="52.9700867" lon="-1.83736"><ele>142.0</ele><time>2026-05-04T09:28:53.794Z</time></trkpt><trkpt lat="52.9699517" lon="-1.8374017"><ele>142.0</ele><time>2026-05-04T09:28:54.794Z</time></trkpt><trkpt lat="52.9698067" lon="-1.83744"><ele>142.0</ele><time>2026-05-04T09:28:55.795Z</time></trkpt><trkpt lat="52.969665" lon="-1.83748"><ele>143.5</ele><time>2026-05-04T09:28:56.794Z</time></trkpt><trkpt lat="52.9695333" lon="-1.8375217"><ele>145.0</ele><time>2026-05-04T09:28:57.793Z</time></trkpt><trkpt lat="52.9694117" lon="-1.8375617"><ele>146.5</ele><time>2026-05-04T09:28:58.793Z</time></trkpt><trkpt lat="52.969295" lon="-1.8376017"><ele>148.0</ele><time>2026-05-04T09:28:59.795Z</time></trkpt><trkpt lat="52.9691683" lon="-1.8376517"><ele>148.0</ele><time>2026-05-04T09:29:00.792Z</time></trkpt><trkpt lat="52.969035" lon="-1.8377183"><ele>148.0</ele><time>2026-05-04T09:29:01.792Z</time></trkpt><trkpt lat="52.968895" lon="-1.8377567"><ele>148.0</ele><time>2026-05-04T09:29:02.793Z</time></trkpt><trkpt lat="52.9687483" lon="-1.8377833"><ele>148.0</ele><time>2026-05-04T09:29:03.792Z</time></trkpt><trkpt lat="52.9685917" lon="-1.8378067"><ele>148.0</ele><time>2026-05-04T09:29:04.794Z</time></trkpt><trkpt lat="52.9684317" lon="-1.8378067"><ele>148.0</ele><time>2026-05-04T09:29:05.794Z</time></trkpt><trkpt lat="52.9682733" lon="-1.83779"><ele>148.0</ele><time>2026-05-04T09:29:06.796Z</time></trkpt><trkpt lat="52.968115" lon="-1.8377467"><ele>147.0</ele><time>2026-05-04T09:29:07.794Z</time></trkpt><trkpt lat="52.9679667" lon="-1.8376683"><ele>146.0</ele><time>2026-05-04T09:29:08.794Z</time></trkpt><trkpt lat="52.9678133" lon="-1.8375883"><ele>145.0</ele><time>2026-05-04T09:29:09.793Z</time></trkpt><trkpt lat="52.9676617" lon="-1.8374883"><ele>143.66666666666669</ele><time>2026-05-04T09:29:10.792Z</time></trkpt><trkpt lat="52.9675033" lon="-1.8373817"><ele>142.33333333333334</ele><time>2026-05-04T09:29:11.793Z</time></trkpt><trkpt lat="52.96735" lon="-1.8372733"><ele>141.0</ele><time>2026-05-04T09:29:12.794Z</time></trkpt><trkpt lat="52.967205" lon="-1.8371583"><ele>141.0</ele><time>2026-05-04T09:29:13.793Z</time></trkpt><trkpt lat="52.9670717" lon="-1.8370083"><ele>141.0</ele><time>2026-05-04T09:29:14.796Z</time></trkpt><trkpt lat="52.9669417" lon="-1.8368283"><ele>141.0</ele><time>2026-05-04T09:29:15.797Z</time></trkpt><trkpt lat="52.9668183" lon="-1.8366267"><ele>141.33333333333334</ele><time>2026-05-04T09:29:16.793Z</time></trkpt><trkpt lat="52.9667" lon="-1.8364217"><ele>141.66666666666669</ele><time>2026-05-04T09:29:17.794Z</time></trkpt><trkpt lat="52.96659" lon="-1.83622"><ele>142.0</ele><time>2026-05-04T09:29:18.793Z</time></trkpt><trkpt lat="52.966485" lon="-1.8360283"><ele>143.75</ele><time>2026-05-04T09:29:19.793Z</time></trkpt><trkpt lat="52.9663817" lon="-1.8358467"><ele>145.5</ele><time>2026-05-04T09:29:20.793Z</time></trkpt><trkpt lat="52.9662767" lon="-1.83567"><ele>147.25</ele><time>2026-05-04T09:29:21.794Z</time></trkpt><trkpt lat="52.9661683" lon="-1.8355067"><ele>149.0</ele><time>2026-05-04T09:29:22.794Z</time></trkpt><trkpt lat="52.9660567" lon="-1.8353517"><ele>149.0</ele><time>2026-05-04T09:29:23.793Z</time></trkpt><trkpt lat="52.965945" lon="-1.8351967"><ele>149.0</ele><time>2026-05-04T09:29:24.791Z</time></trkpt><trkpt lat="52.9658367" lon="-1.8350333"><ele>149.0</ele><time>2026-05-04T09:29:25.792Z</time></trkpt><trkpt lat="52.96572" lon="-1.8348683"><ele>149.0</ele><time>2026-05-04T09:29:26.793Z</time></trkpt><trkpt lat="52.9655983" lon="-1.8347067"><ele>150.33333333333331</ele><time>2026-05-04T09:29:27.794Z</time></trkpt><trkpt lat="52.9654783" lon="-1.8345533"><ele>151.66666666666666</ele><time>2026-05-04T09:29:28.793Z</time></trkpt><trkpt lat="52.96535" lon="-1.8344"><ele>153.0</ele><time>2026-05-04T09:29:29.795Z</time></trkpt><trkpt lat="52.9652233" lon="-1.8342467"><ele>151.5</ele><time>2026-05-04T09:29:30.793Z</time></trkpt><trkpt lat="52.9650983" lon="-1.834095"><ele>150.0</ele><time>2026-05-04T09:29:31.791Z</time></trkpt><trkpt lat="52.9649817" lon="-1.8339517"><ele>148.5</ele><time>2026-05-04T09:29:32.791Z</time></trkpt><trkpt lat="52.9648667" lon="-1.83381"><ele>147.0</ele><time>2026-05-04T09:29:33.791Z</time></trkpt><trkpt lat="52.9647617" lon="-1.8336867"><ele>147.0</ele><time>2026-05-04T09:29:34.792Z</time></trkpt><trkpt lat="52.964665" lon="-1.8336117"><ele>147.0</ele><time>2026-05-04T09:29:35.794Z</time></trkpt><trkpt lat="52.9645567" lon="-1.8335033"><ele>147.0</ele><time>2026-05-04T09:29:36.793Z</time></trkpt><trkpt lat="52.9644483" lon="-1.8334167"><ele>147.0</ele><time>2026-05-04T09:29:37.794Z</time></trkpt><trkpt lat="52.9643383" lon="-1.8333467"><ele>145.75</ele><time>2026-05-04T09:29:38.793Z</time></trkpt><trkpt lat="52.96422" lon="-1.8332983"><ele>144.5</ele><time>2026-05-04T09:29:39.793Z</time></trkpt><trkpt lat="52.9640917" lon="-1.8332767"><ele>143.25</ele><time>2026-05-04T09:29:40.791Z</time></trkpt><trkpt lat="52.9639367" lon="-1.8332833"><ele>142.0</ele><time>2026-05-04T09:29:41.798Z</time></trkpt><trkpt lat="52.96378" lon="-1.833295"><ele>142.0</ele><time>2026-05-04T09:29:42.791Z</time></trkpt><trkpt lat="52.9636233" lon="-1.8332883"><ele>142.0</ele><time>2026-05-04T09:29:43.79Z</time></trkpt><trkpt lat="52.963475" lon="-1.8332833"><ele>142.0</ele><time>2026-05-04T09:29:44.791Z</time></trkpt><trkpt lat="52.963335" lon="-1.8332867"><ele>142.0</ele><time>2026-05-04T09:29:45.792Z</time></trkpt><trkpt lat="52.9632017" lon="-1.833295"><ele>141.0</ele><time>2026-05-04T09:29:46.797Z</time></trkpt><trkpt lat="52.9630717" lon="-1.833305"><ele>140.0</ele><time>2026-05-04T09:29:47.796Z</time></trkpt><trkpt lat="52.962935" lon="-1.8333133"><ele>139.0</ele><time>2026-05-04T09:29:48.792Z</time></trkpt><trkpt lat="52.9627983" lon="-1.8333233"><ele>138.0</ele><time>2026-05-04T09:29:49.793Z</time></trkpt><trkpt lat="52.9626617" lon="-1.83333"><ele>136.0</ele><time>2026-05-04T09:29:50.791Z</time></trkpt><trkpt lat="52.962515" lon="-1.8333317"><ele>134.0</ele><time>2026-05-04T09:29:51.793Z</time></trkpt><trkpt lat="52.9623583" lon="-1.833325"><ele>132.0</ele><time>2026-05-04T09:29:52.793Z</time></trkpt><trkpt lat="52.9621933" lon="-1.8333267"><ele>132.0</ele><time>2026-05-04T09:29:53.791Z</time></trkpt><trkpt lat="52.96202" lon="-1.8333317"><ele>132.0</ele><time>2026-05-04T09:29:54.791Z</time></trkpt><trkpt lat="52.9618467" lon="-1.8333317"><ele>132.0</ele><time>2026-05-04T09:29:55.793Z</time></trkpt><trkpt lat="52.9616767" lon="-1.8333283"><ele>130.33333333333334</ele><time>2026-05-04T09:29:56.793Z</time></trkpt><trkpt lat="52.9615167" lon="-1.8333283"><ele>128.66666666666669</ele><time>2026-05-04T09:29:57.796Z</time></trkpt><trkpt lat="52.9613717" lon="-1.8333417"><ele>127.0</ele><time>2026-05-04T09:29:58.792Z</time></trkpt><trkpt lat="52.961225" lon="-1.8333567"><ele>127.0</ele><time>2026-05-04T09:29:59.791Z</time></trkpt><trkpt lat="52.9610767" lon="-1.8333817"><ele>127.0</ele><time>2026-05-04T09:30:00.791Z</time></trkpt><trkpt lat="52.9609233" lon="-1.833435"><ele>127.0</ele><time>2026-05-04T09:30:01.791Z</time></trkpt><trkpt lat="52.9607633" lon="-1.833515"><ele>125.0</ele><time>2026-05-04T09:30:02.791Z</time></trkpt><trkpt lat="52.9606133" lon="-1.8336217"><ele>123.0</ele><time>2026-05-04T09:30:03.792Z</time></trkpt><trkpt lat="52.9604717" lon="-1.83374"><ele>121.0</ele><time>2026-05-04T09:30:04.791Z</time></trkpt><trkpt lat="52.9603367" lon="-1.8338633"><ele>121.0</ele><time>2026-05-04T09:30:05.792Z</time></trkpt><trkpt lat="52.9602083" lon="-1.8339917"><ele>121.0</ele><time>2026-05-04T09:30:06.793Z</time></trkpt><trkpt lat="52.96009" lon="-1.8341217"><ele>121.0</ele><time>2026-05-04T09:30:07.791Z</time></trkpt><trkpt lat="52.9599767" lon="-1.8342567"><ele>121.0</ele><time>2026-05-04T09:30:08.793Z</time></trkpt><trkpt lat="52.9598733" lon="-1.8343967"><ele>119.5</ele><time>2026-05-04T09:30:09.792Z</time></trkpt><trkpt lat="52.959775" lon="-1.834555"><ele>118.0</ele><time>2026-05-04T09:30:10.795Z</time></trkpt><trkpt lat="52.959685" lon="-1.83474"><ele>116.5</ele><time>2026-05-04T09:30:11.791Z</time></trkpt><trkpt lat="52.9596" lon="-1.8349667"><ele>115.0</ele><time>2026-05-04T09:30:12.793Z</time></trkpt><trkpt lat="52.9595183" lon="-1.8352233"><ele>115.0</ele><time>2026-05-04T09:30:13.793Z</time></trkpt><trkpt lat="52.9594367" lon="-1.8354883"><ele>115.0</ele><time>2026-05-04T09:30:14.791Z</time></trkpt><trkpt lat="52.9593617" lon="-1.83574"><ele>115.0</ele><time>2026-05-04T09:30:15.792Z</time></trkpt><trkpt lat="52.95929" lon="-1.8359717"><ele>115.0</ele><time>2026-05-04T09:30:16.793Z</time></trkpt><trkpt lat="52.959225" lon="-1.8361883"><ele>115.0</ele><time>2026-05-04T09:30:17.791Z</time></trkpt><trkpt lat="52.9591017" lon="-1.836615"><ele>115.0</ele><time>2026-05-04T09:30:19.791Z</time></trkpt><trkpt lat="52.959035" lon="-1.8368233"><ele>112.75</ele><time>2026-05-04T09:30:20.792Z</time></trkpt><trkpt lat="52.9589667" lon="-1.8370383"><ele>110.5</ele><time>2026-05-04T09:30:21.792Z</time></trkpt><trkpt lat="52.9588883" lon="-1.8372333"><ele>108.25</ele><time>2026-05-04T09:30:22.793Z</time></trkpt><trkpt lat="52.95881" lon="-1.837425"><ele>106.0</ele><time>2026-05-04T09:30:23.793Z</time></trkpt><trkpt lat="52.9587333" lon="-1.8376233"><ele>106.0</ele><time>2026-05-04T09:30:24.792Z</time></trkpt><trkpt lat="52.9586533" lon="-1.83782"><ele>106.0</ele><time>2026-05-04T09:30:25.792Z</time></trkpt><trkpt lat="52.9585683" lon="-1.8380167"><ele>106.0</ele><time>2026-05-04T09:30:26.792Z</time></trkpt><trkpt lat="52.9584717" lon="-1.838215"><ele>106.0</ele><time>2026-05-04T09:30:27.792Z</time></trkpt><trkpt lat="52.9583767" lon="-1.83841"><ele>104.75</ele><time>2026-05-04T09:30:28.791Z</time></trkpt><trkpt lat="52.958285" lon="-1.8385983"><ele>103.5</ele><time>2026-05-04T09:30:29.792Z</time></trkpt><trkpt lat="52.958185" lon="-1.8387733"><ele>102.25</ele><time>2026-05-04T09:30:30.792Z</time></trkpt><trkpt lat="52.9580867" lon="-1.8389367"><ele>101.0</ele><time>2026-05-04T09:30:31.791Z</time></trkpt><trkpt lat="52.9579917" lon="-1.8391"><ele>101.0</ele><time>2026-05-04T09:30:32.791Z</time></trkpt><trkpt lat="52.957895" lon="-1.83926"><ele>101.0</ele><time>2026-05-04T09:30:33.791Z</time></trkpt><trkpt lat="52.9578017" lon="-1.8394133"><ele>101.0</ele><time>2026-05-04T09:30:34.791Z</time></trkpt><trkpt lat="52.9577083" lon="-1.839555"><ele>101.0</ele><time>2026-05-04T09:30:35.791Z</time></trkpt><trkpt lat="52.95762" lon="-1.839695"><ele>100.19999999999999</ele><time>2026-05-04T09:30:36.792Z</time></trkpt><trkpt lat="52.957535" lon="-1.8398333"><ele>99.39999999999999</ele><time>2026-05-04T09:30:37.793Z</time></trkpt><trkpt lat="52.9574533" lon="-1.83996"><ele>98.6</ele><time>2026-05-04T09:30:38.793Z</time></trkpt><trkpt lat="52.9573817" lon="-1.8400867"><ele>97.8</ele><time>2026-05-04T09:30:39.791Z</time></trkpt><trkpt lat="52.9573117" lon="-1.8402067"><ele>97.0</ele><time>2026-05-04T09:30:40.792Z</time></trkpt><trkpt lat="52.9572533" lon="-1.8403183"><ele>96.50000000000001</ele><time>2026-05-04T09:30:41.792Z</time></trkpt><trkpt lat="52.9571933" lon="-1.8404133"><ele>96.0</ele><time>2026-05-04T09:30:42.793Z</time></trkpt><trkpt lat="52.9571333" lon="-1.840495"><ele>95.5</ele><time>2026-05-04T09:30:43.793Z</time></trkpt><trkpt lat="52.9570667" lon="-1.8405583"><ele>95.0</ele><time>2026-05-04T09:30:44.79Z</time></trkpt><trkpt lat="52.95699" lon="-1.8406183"><ele>94.5</ele><time>2026-05-04T09:30:45.792Z</time></trkpt><trkpt lat="52.9569017" lon="-1.8406783"><ele>94.0</ele><time>2026-05-04T09:30:46.793Z</time></trkpt><trkpt lat="52.9567983" lon="-1.840745"><ele>93.75</ele><time>2026-05-04T09:30:47.793Z</time></trkpt><trkpt lat="52.9566833" lon="-1.840825"><ele>93.5</ele><time>2026-05-04T09:30:48.792Z</time></trkpt><trkpt lat="52.95656" lon="-1.8409167"><ele>93.25</ele><time>2026-05-04T09:30:49.792Z</time></trkpt><trkpt lat="52.9564367" lon="-1.8410183"><ele>93.0</ele><time>2026-05-04T09:30:50.79Z</time></trkpt><trkpt lat="52.9563033" lon="-1.8411133"><ele>93.0</ele><time>2026-05-04T09:30:51.792Z</time></trkpt><trkpt lat="52.956165" lon="-1.8412083"><ele>93.0</ele><time>2026-05-04T09:30:52.792Z</time></trkpt><trkpt lat="52.9560233" lon="-1.8412983"><ele>93.0</ele><time>2026-05-04T09:30:53.792Z</time></trkpt><trkpt lat="52.9558833" lon="-1.8413933"><ele>92.75</ele><time>2026-05-04T09:30:54.792Z</time></trkpt><trkpt lat="52.9557417" lon="-1.84148"><ele>92.5</ele><time>2026-05-04T09:30:55.796Z</time></trkpt><trkpt lat="52.9555983" lon="-1.8415583"><ele>92.25</ele><time>2026-05-04T09:30:56.792Z</time></trkpt><trkpt lat="52.95546" lon="-1.84163"><ele>92.0</ele><time>2026-05-04T09:30:57.791Z</time></trkpt><trkpt lat="52.9553233" lon="-1.8416933"><ele>92.0</ele><time>2026-05-04T09:30:58.79Z</time></trkpt><trkpt lat="52.95519" lon="-1.84176"><ele>92.0</ele><time>2026-05-04T09:30:59.792Z</time></trkpt><trkpt lat="52.9550517" lon="-1.8418183"><ele>92.0</ele><time>2026-05-04T09:31:00.791Z</time></trkpt><trkpt lat="52.9549117" lon="-1.84187"><ele>92.0</ele><time>2026-05-04T09:31:01.791Z</time></trkpt><trkpt lat="52.95477" lon="-1.8419233"><ele>92.75</ele><time>2026-05-04T09:31:02.79Z</time></trkpt><trkpt lat="52.9546283" lon="-1.8419783"><ele>93.5</ele><time>2026-05-04T09:31:03.791Z</time></trkpt><trkpt lat="52.954485" lon="-1.842035"><ele>94.25</ele><time>2026-05-04T09:31:04.793Z</time></trkpt><trkpt lat="52.9543383" lon="-1.8420933"><ele>95.0</ele><time>2026-05-04T09:31:05.792Z</time></trkpt><trkpt lat="52.9541933" lon="-1.8421583"><ele>95.33333333333334</ele><time>2026-05-04T09:31:06.791Z</time></trkpt><trkpt lat="52.9540467" lon="-1.8422217"><ele>95.66666666666667</ele><time>2026-05-04T09:31:07.793Z</time></trkpt><trkpt lat="52.9538983" lon="-1.842295"><ele>96.0</ele><time>2026-05-04T09:31:08.793Z</time></trkpt><trkpt lat="52.9537517" lon="-1.842375"><ele>96.0</ele><time>2026-05-04T09:31:09.791Z</time></trkpt><trkpt lat="52.9536" lon="-1.8424533"><ele>96.0</ele><time>2026-05-04T09:31:10.795Z</time></trkpt><trkpt lat="52.9534483" lon="-1.842535"><ele>96.0</ele><time>2026-05-04T09:31:11.793Z</time></trkpt><trkpt lat="52.9533017" lon="-1.842625"><ele>95.33333333333333</ele><time>2026-05-04T09:31:12.792Z</time></trkpt><trkpt lat="52.9531567" lon="-1.8427217"><ele>94.66666666666666</ele><time>2026-05-04T09:31:13.792Z</time></trkpt><trkpt lat="52.9530167" lon="-1.84282"><ele>94.0</ele><time>2026-05-04T09:31:14.791Z</time></trkpt><trkpt lat="52.9528783" lon="-1.842925"><ele>94.0</ele><time>2026-05-04T09:31:15.792Z</time></trkpt><trkpt lat="52.95274" lon="-1.8430383"><ele>94.0</ele><time>2026-05-04T09:31:16.792Z</time></trkpt><trkpt lat="52.9526033" lon="-1.8431533"><ele>94.0</ele><time>2026-05-04T09:31:17.792Z</time></trkpt><trkpt lat="52.95247" lon="-1.8432717"><ele>92.66666666666666</ele><time>2026-05-04T09:31:18.792Z</time></trkpt><trkpt lat="52.9523383" lon="-1.843395"><ele>91.33333333333333</ele><time>2026-05-04T09:31:19.793Z</time></trkpt><trkpt lat="52.9522083" lon="-1.84352"><ele>90.0</ele><time>2026-05-04T09:31:20.792Z</time></trkpt><trkpt lat="52.9520817" lon="-1.8436483"><ele>89.5</ele><time>2026-05-04T09:31:21.791Z</time></trkpt><trkpt lat="52.9519567" lon="-1.84378"><ele>89.0</ele><time>2026-05-04T09:31:22.793Z</time></trkpt><trkpt lat="52.9518317" lon="-1.8439017"><ele>88.5</ele><time>2026-05-04T09:31:23.794Z</time></trkpt><trkpt lat="52.95171" lon="-1.8440183"><ele>88.0</ele><time>2026-05-04T09:31:24.793Z</time></trkpt><trkpt lat="52.9515933" lon="-1.8441267"><ele>87.80000000000001</ele><time>2026-05-04T09:31:25.793Z</time></trkpt><trkpt lat="52.95149" lon="-1.84423"><ele>87.6</ele><time>2026-05-04T09:31:26.792Z</time></trkpt><trkpt lat="52.9513983" lon="-1.84432"><ele>87.4</ele><time>2026-05-04T09:31:27.791Z</time></trkpt><trkpt lat="52.951315" lon="-1.844405"><ele>87.19999999999999</ele><time>2026-05-04T09:31:28.793Z</time></trkpt><trkpt lat="52.9512433" lon="-1.8444683"><ele>87.0</ele><time>2026-05-04T09:31:29.793Z</time></trkpt><trkpt lat="52.9511833" lon="-1.8445233"><ele>87.39999999999999</ele><time>2026-05-04T09:31:30.792Z</time></trkpt><trkpt lat="52.9510833" lon="-1.8446033"><ele>87.8</ele><time>2026-05-04T09:31:32.793Z</time></trkpt><trkpt lat="52.9509967" lon="-1.84464"><ele>88.2</ele><time>2026-05-04T09:31:35.793Z</time></trkpt><trkpt lat="52.9508783" lon="-1.844615"><ele>88.6</ele><time>2026-05-04T09:31:37.792Z</time></trkpt><trkpt lat="52.9507617" lon="-1.8446217"><ele>89.0</ele><time>2026-05-04T09:31:39.792Z</time></trkpt><trkpt lat="52.9506683" lon="-1.8447467"><ele>89.2</ele><time>2026-05-04T09:31:41.792Z</time></trkpt><trkpt lat="52.9506183" lon="-1.84488"><ele>89.4</ele><time>2026-05-04T09:31:42.793Z</time></trkpt><trkpt lat="52.95056" lon="-1.8450217"><ele>89.6</ele><time>2026-05-04T09:31:43.791Z</time></trkpt><trkpt lat="52.9504867" lon="-1.8451517"><ele>89.8</ele><time>2026-05-04T09:31:44.791Z</time></trkpt><trkpt lat="52.95041" lon="-1.845265"><ele>90.0</ele><time>2026-05-04T09:31:45.792Z</time></trkpt><trkpt lat="52.9503317" lon="-1.8453567"><ele>90.0</ele><time>2026-05-04T09:31:46.793Z</time></trkpt><trkpt lat="52.9502617" lon="-1.8454233"><ele>90.0</ele><time>2026-05-04T09:31:47.792Z</time></trkpt><trkpt lat="52.9501883" lon="-1.84547"><ele>90.0</ele><time>2026-05-04T09:31:48.793Z</time></trkpt><trkpt lat="52.9501083" lon="-1.8455183"><ele>90.0</ele><time>2026-05-04T09:31:49.793Z</time></trkpt><trkpt lat="52.950025" lon="-1.8455767"><ele>90.0</ele><time>2026-05-04T09:31:50.794Z</time></trkpt><trkpt lat="52.9499283" lon="-1.8456833"><ele>90.0</ele><time>2026-05-04T09:31:51.792Z</time></trkpt><trkpt lat="52.949835" lon="-1.8458167"><ele>90.0</ele><time>2026-05-04T09:31:52.79Z</time></trkpt><trkpt lat="52.9497333" lon="-1.8459517"><ele>90.0</ele><time>2026-05-04T09:31:53.793Z</time></trkpt><trkpt lat="52.9496317" lon="-1.84608"><ele>90.0</ele><time>2026-05-04T09:31:54.793Z</time></trkpt><trkpt lat="52.949525" lon="-1.8462067"><ele>90.0</ele><time>2026-05-04T09:31:55.792Z</time></trkpt><trkpt lat="52.94941" lon="-1.8463317"><ele>90.0</ele><time>2026-05-04T09:31:56.793Z</time></trkpt><trkpt lat="52.9492867" lon="-1.8464583"><ele>90.0</ele><time>2026-05-04T09:31:57.792Z</time></trkpt><trkpt lat="52.9491583" lon="-1.8465833"><ele>90.0</ele><time>2026-05-04T09:31:58.793Z</time></trkpt><trkpt lat="52.94903" lon="-1.84671"><ele>89.5</ele><time>2026-05-04T09:31:59.791Z</time></trkpt><trkpt lat="52.9489" lon="-1.8468383"><ele>89.0</ele><time>2026-05-04T09:32:00.792Z</time></trkpt><trkpt lat="52.9487683" lon="-1.8469583"><ele>88.5</ele><time>2026-05-04T09:32:01.793Z</time></trkpt><trkpt lat="52.9486433" lon="-1.847085"><ele>88.0</ele><time>2026-05-04T09:32:02.791Z</time></trkpt><trkpt lat="52.9485183" lon="-1.8472067"><ele>88.0</ele><time>2026-05-04T09:32:03.792Z</time></trkpt><trkpt lat="52.948395" lon="-1.8473217"><ele>88.0</ele><time>2026-05-04T09:32:04.791Z</time></trkpt><trkpt lat="52.94827" lon="-1.84743"><ele>88.0</ele><time>2026-05-04T09:32:05.796Z</time></trkpt><trkpt lat="52.9481483" lon="-1.847545"><ele>88.0</ele><time>2026-05-04T09:32:06.794Z</time></trkpt><trkpt lat="52.9480233" lon="-1.8476633"><ele>87.75</ele><time>2026-05-04T09:32:07.792Z</time></trkpt><trkpt lat="52.9478967" lon="-1.8477767"><ele>87.5</ele><time>2026-05-04T09:32:08.792Z</time></trkpt><trkpt lat="52.947765" lon="-1.8478933"><ele>87.25</ele><time>2026-05-04T09:32:09.791Z</time></trkpt><trkpt lat="52.9476333" lon="-1.848015"><ele>87.0</ele><time>2026-05-04T09:32:10.793Z</time></trkpt><trkpt lat="52.9475" lon="-1.8481433"><ele>87.0</ele><time>2026-05-04T09:32:11.793Z</time></trkpt><trkpt lat="52.9473667" lon="-1.848265"><ele>87.0</ele><time>2026-05-04T09:32:12.791Z</time></trkpt><trkpt lat="52.94723" lon="-1.8483833"><ele>87.0</ele><time>2026-05-04T09:32:13.791Z</time></trkpt><trkpt lat="52.9470933" lon="-1.8484933"><ele>87.0</ele><time>2026-05-04T09:32:14.791Z</time></trkpt><trkpt lat="52.9469483" lon="-1.8486133"><ele>87.0</ele><time>2026-05-04T09:32:15.792Z</time></trkpt><trkpt lat="52.94679" lon="-1.8487433"><ele>87.0</ele><time>2026-05-04T09:32:16.79Z</time></trkpt><trkpt lat="52.9466233" lon="-1.8488817"><ele>86.66666666666667</ele><time>2026-05-04T09:32:17.793Z</time></trkpt><trkpt lat="52.9464483" lon="-1.8490283"><ele>86.33333333333334</ele><time>2026-05-04T09:32:18.791Z</time></trkpt><trkpt lat="52.9462633" lon="-1.849185"><ele>86.0</ele><time>2026-05-04T09:32:19.792Z</time></trkpt><trkpt lat="52.9460817" lon="-1.8493483"><ele>86.33333333333334</ele><time>2026-05-04T09:32:20.792Z</time></trkpt><trkpt lat="52.9458967" lon="-1.849515"><ele>86.66666666666667</ele><time>2026-05-04T09:32:21.791Z</time></trkpt><trkpt lat="52.945705" lon="-1.8496933"><ele>87.0</ele><time>2026-05-04T09:32:22.791Z</time></trkpt><trkpt lat="52.9455083" lon="-1.8498833"><ele>87.0</ele><time>2026-05-04T09:32:23.792Z</time></trkpt><trkpt lat="52.94531" lon="-1.85009"><ele>87.0</ele><time>2026-05-04T09:32:24.792Z</time></trkpt><trkpt lat="52.9451167" lon="-1.850305"><ele>87.66666666666667</ele><time>2026-05-04T09:32:25.792Z</time></trkpt><trkpt lat="52.9449317" lon="-1.8505233"><ele>88.33333333333334</ele><time>2026-05-04T09:32:26.792Z</time></trkpt><trkpt lat="52.9447617" lon="-1.8507467"><ele>89.0</ele><time>2026-05-04T09:32:27.792Z</time></trkpt><trkpt lat="52.944595" lon="-1.8509767"><ele>89.33333333333334</ele><time>2026-05-04T09:32:28.793Z</time></trkpt><trkpt lat="52.9444233" lon="-1.851205"><ele>89.66666666666667</ele><time>2026-05-04T09:32:29.791Z</time></trkpt><trkpt lat="52.9442467" lon="-1.8514367"><ele>90.0</ele><time>2026-05-04T09:32:30.792Z</time></trkpt><trkpt lat="52.944075" lon="-1.851665"><ele>90.66666666666667</ele><time>2026-05-04T09:32:31.791Z</time></trkpt><trkpt lat="52.94391" lon="-1.85188"><ele>91.33333333333334</ele><time>2026-05-04T09:32:32.791Z</time></trkpt><trkpt lat="52.9437467" lon="-1.85209"><ele>92.0</ele><time>2026-05-04T09:32:33.791Z</time></trkpt><trkpt lat="52.9435833" lon="-1.8523067"><ele>92.0</ele><time>2026-05-04T09:32:34.792Z</time></trkpt><trkpt lat="52.943425" lon="-1.8525233"><ele>92.0</ele><time>2026-05-04T09:32:35.792Z</time></trkpt><trkpt lat="52.94327" lon="-1.8527317"><ele>92.0</ele><time>2026-05-04T09:32:36.792Z</time></trkpt><trkpt lat="52.9431233" lon="-1.85293"><ele>92.0</ele><time>2026-05-04T09:32:37.794Z</time></trkpt><trkpt lat="52.942985" lon="-1.85312"><ele>92.0</ele><time>2026-05-04T09:32:38.791Z</time></trkpt><trkpt lat="52.9428467" lon="-1.853305"><ele>92.0</ele><time>2026-05-04T09:32:39.791Z</time></trkpt><trkpt lat="52.9427017" lon="-1.8534917"><ele>92.33333333333334</ele><time>2026-05-04T09:32:40.791Z</time></trkpt><trkpt lat="52.9425483" lon="-1.8536917"><ele>92.66666666666667</ele><time>2026-05-04T09:32:41.794Z</time></trkpt><trkpt lat="52.9423817" lon="-1.8538933"><ele>93.0</ele><time>2026-05-04T09:32:42.792Z</time></trkpt><trkpt lat="52.94221" lon="-1.8541"><ele>93.0</ele><time>2026-05-04T09:32:43.792Z</time></trkpt><trkpt lat="52.9420333" lon="-1.8543283"><ele>93.0</ele><time>2026-05-04T09:32:44.79Z</time></trkpt><trkpt lat="52.9418467" lon="-1.8545633"><ele>92.5</ele><time>2026-05-04T09:32:45.792Z</time></trkpt><trkpt lat="52.941655" lon="-1.8547817"><ele>92.0</ele><time>2026-05-04T09:32:46.792Z</time></trkpt><trkpt lat="52.941465" lon="-1.8550017"><ele>93.5</ele><time>2026-05-04T09:32:47.792Z</time></trkpt><trkpt lat="52.9412783" lon="-1.85522"><ele>95.0</ele><time>2026-05-04T09:32:48.792Z</time></trkpt><trkpt lat="52.9410917" lon="-1.8554333"><ele>95.0</ele><time>2026-05-04T09:32:49.791Z</time></trkpt><trkpt lat="52.940905" lon="-1.8556383"><ele>95.0</ele><time>2026-05-04T09:32:50.792Z</time></trkpt><trkpt lat="52.9407183" lon="-1.855835"><ele>95.0</ele><time>2026-05-04T09:32:51.792Z</time></trkpt><trkpt lat="52.94053" lon="-1.85602"><ele>96.33333333333334</ele><time>2026-05-04T09:32:52.792Z</time></trkpt><trkpt lat="52.9403383" lon="-1.8561917"><ele>97.66666666666667</ele><time>2026-05-04T09:32:53.792Z</time></trkpt><trkpt lat="52.940145" lon="-1.8563517"><ele>99.0</ele><time>2026-05-04T09:32:54.793Z</time></trkpt><trkpt lat="52.939955" lon="-1.8565117"><ele>97.66666666666667</ele><time>2026-05-04T09:32:55.793Z</time></trkpt><trkpt lat="52.9397617" lon="-1.8566617"><ele>96.33333333333334</ele><time>2026-05-04T09:32:56.793Z</time></trkpt><trkpt lat="52.9395583" lon="-1.8567833"><ele>95.0</ele><time>2026-05-04T09:32:57.792Z</time></trkpt><trkpt lat="52.93936" lon="-1.856915"><ele>92.0</ele><time>2026-05-04T09:32:58.793Z</time></trkpt><trkpt lat="52.9391567" lon="-1.8570133"><ele>89.0</ele><time>2026-05-04T09:32:59.793Z</time></trkpt><trkpt lat="52.9389567" lon="-1.8571067"><ele>86.0</ele><time>2026-05-04T09:33:00.792Z</time></trkpt><trkpt lat="52.9387533" lon="-1.857195"><ele>86.0</ele><time>2026-05-04T09:33:01.792Z</time></trkpt><trkpt lat="52.93855" lon="-1.8572733"><ele>86.0</ele><time>2026-05-04T09:33:02.793Z</time></trkpt><trkpt lat="52.938345" lon="-1.85734"><ele>86.0</ele><time>2026-05-04T09:33:03.791Z</time></trkpt><trkpt lat="52.93814" lon="-1.8574017"><ele>86.0</ele><time>2026-05-04T09:33:04.793Z</time></trkpt><trkpt lat="52.9379333" lon="-1.8574433"><ele>86.0</ele><time>2026-05-04T09:33:05.792Z</time></trkpt><trkpt lat="52.9377317" lon="-1.85748"><ele>86.0</ele><time>2026-05-04T09:33:06.792Z</time></trkpt><trkpt lat="52.9375283" lon="-1.8575"><ele>86.0</ele><time>2026-05-04T09:33:07.792Z</time></trkpt><trkpt lat="52.9373233" lon="-1.8575083"><ele>86.0</ele><time>2026-05-04T09:33:08.791Z</time></trkpt><trkpt lat="52.9371183" lon="-1.8574983"><ele>86.0</ele><time>2026-05-04T09:33:09.792Z</time></trkpt><trkpt lat="52.9369167" lon="-1.8574883"><ele>85.0</ele><time>2026-05-04T09:33:10.793Z</time></trkpt><trkpt lat="52.936715" lon="-1.8574633"><ele>84.0</ele><time>2026-05-04T09:33:11.793Z</time></trkpt><trkpt lat="52.936515" lon="-1.8574333"><ele>83.0</ele><time>2026-05-04T09:33:12.791Z</time></trkpt><trkpt lat="52.9363167" lon="-1.8573933"><ele>83.0</ele><time>2026-05-04T09:33:13.79Z</time></trkpt><trkpt lat="52.936115" lon="-1.8573533"><ele>83.0</ele><time>2026-05-04T09:33:14.79Z</time></trkpt><trkpt lat="52.9359133" lon="-1.85731"><ele>83.0</ele><time>2026-05-04T09:33:15.791Z</time></trkpt><trkpt lat="52.9357083" lon="-1.8572717"><ele>82.66666666666667</ele><time>2026-05-04T09:33:16.793Z</time></trkpt><trkpt lat="52.9355017" lon="-1.857235"><ele>82.33333333333333</ele><time>2026-05-04T09:33:17.792Z</time></trkpt><trkpt lat="52.9352933" lon="-1.8572033"><ele>82.0</ele><time>2026-05-04T09:33:18.796Z</time></trkpt><trkpt lat="52.935085" lon="-1.8571817"><ele>83.33333333333333</ele><time>2026-05-04T09:33:19.793Z</time></trkpt><trkpt lat="52.934875" lon="-1.8571633"><ele>84.66666666666667</ele><time>2026-05-04T09:33:20.791Z</time></trkpt><trkpt lat="52.9346667" lon="-1.8571567"><ele>86.0</ele><time>2026-05-04T09:33:21.791Z</time></trkpt><trkpt lat="52.9344567" lon="-1.857165"><ele>86.0</ele><time>2026-05-04T09:33:22.792Z</time></trkpt><trkpt lat="52.9342483" lon="-1.857185"><ele>86.0</ele><time>2026-05-04T09:33:23.793Z</time></trkpt><trkpt lat="52.9340367" lon="-1.85721"><ele>86.0</ele><time>2026-05-04T09:33:24.792Z</time></trkpt><trkpt lat="52.93383" lon="-1.8572483"><ele>85.66666666666667</ele><time>2026-05-04T09:33:25.793Z</time></trkpt><trkpt lat="52.9336217" lon="-1.8573033"><ele>85.33333333333333</ele><time>2026-05-04T09:33:26.792Z</time></trkpt><trkpt lat="52.9334133" lon="-1.8573683"><ele>85.0</ele><time>2026-05-04T09:33:27.79Z</time></trkpt><trkpt lat="52.9332133" lon="-1.8574417"><ele>85.0</ele><time>2026-05-04T09:33:28.792Z</time></trkpt><trkpt lat="52.9330183" lon="-1.8575183"><ele>85.0</ele><time>2026-05-04T09:33:29.792Z</time></trkpt><trkpt lat="52.932825" lon="-1.8575933"><ele>85.0</ele><time>2026-05-04T09:33:30.791Z</time></trkpt><trkpt lat="52.9326317" lon="-1.8576617"><ele>85.33333333333333</ele><time>2026-05-04T09:33:31.794Z</time></trkpt><trkpt lat="52.9324417" lon="-1.85774"><ele>85.66666666666667</ele><time>2026-05-04T09:33:32.792Z</time></trkpt><trkpt lat="52.9322533" lon="-1.857825"><ele>86.0</ele><time>2026-05-04T09:33:33.792Z</time></trkpt><trkpt lat="52.9320617" lon="-1.857915"><ele>86.0</ele><time>2026-05-04T09:33:34.79Z</time></trkpt><trkpt lat="52.9318667" lon="-1.858005"><ele>86.0</ele><time>2026-05-04T09:33:35.794Z</time></trkpt><trkpt lat="52.9316667" lon="-1.8580817"><ele>86.0</ele><time>2026-05-04T09:33:36.793Z</time></trkpt><trkpt lat="52.9314683" lon="-1.858165"><ele>85.33333333333334</ele><time>2026-05-04T09:33:37.793Z</time></trkpt><trkpt lat="52.931275" lon="-1.8582533"><ele>84.66666666666667</ele><time>2026-05-04T09:33:38.79Z</time></trkpt><trkpt lat="52.9310833" lon="-1.8583383"><ele>84.0</ele><time>2026-05-04T09:33:39.79Z</time></trkpt><trkpt lat="52.9308917" lon="-1.8584117"><ele>84.33333333333333</ele><time>2026-05-04T09:33:40.79Z</time></trkpt><trkpt lat="52.9307017" lon="-1.858485"><ele>84.66666666666666</ele><time>2026-05-04T09:33:41.791Z</time></trkpt><trkpt lat="52.930515" lon="-1.8585617"><ele>85.0</ele><time>2026-05-04T09:33:42.791Z</time></trkpt><trkpt lat="52.93033" lon="-1.8586367"><ele>85.0</ele><time>2026-05-04T09:33:43.791Z</time></trkpt><trkpt lat="52.930145" lon="-1.85871"><ele>85.0</ele><time>2026-05-04T09:33:44.79Z</time></trkpt><trkpt lat="52.9299583" lon="-1.8587817"><ele>85.0</ele><time>2026-05-04T09:33:45.792Z</time></trkpt><trkpt lat="52.9297717" lon="-1.8588567"><ele>84.66666666666666</ele><time>2026-05-04T09:33:46.795Z</time></trkpt><trkpt lat="52.9295817" lon="-1.858935"><ele>84.33333333333333</ele><time>2026-05-04T09:33:47.791Z</time></trkpt><trkpt lat="52.92939" lon="-1.85901"><ele>84.0</ele><time>2026-05-04T09:33:48.792Z</time></trkpt><trkpt lat="52.9292" lon="-1.85909"><ele>84.0</ele><time>2026-05-04T09:33:49.796Z</time></trkpt><trkpt lat="52.9290083" lon="-1.85917"><ele>84.0</ele><time>2026-05-04T09:33:50.791Z</time></trkpt><trkpt lat="52.9288183" lon="-1.8592483"><ele>84.0</ele><time>2026-05-04T09:33:51.791Z</time></trkpt><trkpt lat="52.9286233" lon="-1.8593233"><ele>84.0</ele><time>2026-05-04T09:33:52.793Z</time></trkpt><trkpt lat="52.9284217" lon="-1.8594033"><ele>84.0</ele><time>2026-05-04T09:33:53.792Z</time></trkpt><trkpt lat="52.9282117" lon="-1.85949"><ele>84.0</ele><time>2026-05-04T09:33:54.792Z</time></trkpt><trkpt lat="52.927995" lon="-1.85958"><ele>84.0</ele><time>2026-05-04T09:33:55.793Z</time></trkpt><trkpt lat="52.9277683" lon="-1.859675"><ele>84.0</ele><time>2026-05-04T09:33:56.793Z</time></trkpt><trkpt lat="52.9275417" lon="-1.8597633"><ele>84.0</ele><time>2026-05-04T09:33:57.793Z</time></trkpt><trkpt lat="52.92732" lon="-1.8598483"><ele>84.0</ele><time>2026-05-04T09:33:58.792Z</time></trkpt><trkpt lat="52.9271033" lon="-1.8599283"><ele>84.0</ele><time>2026-05-04T09:33:59.792Z</time></trkpt><trkpt lat="52.9268933" lon="-1.8600117"><ele>84.0</ele><time>2026-05-04T09:34:00.793Z</time></trkpt><trkpt lat="52.9266883" lon="-1.860095"><ele>84.0</ele><time>2026-05-04T09:34:01.794Z</time></trkpt><trkpt lat="52.926485" lon="-1.8601783"><ele>84.33333333333333</ele><time>2026-05-04T09:34:02.794Z</time></trkpt><trkpt lat="52.92628" lon="-1.8602633"><ele>84.66666666666666</ele><time>2026-05-04T09:34:03.791Z</time></trkpt><trkpt lat="52.9260733" lon="-1.8603467"><ele>85.0</ele><time>2026-05-04T09:34:04.793Z</time></trkpt><trkpt lat="52.9258683" lon="-1.8604317"><ele>85.0</ele><time>2026-05-04T09:34:05.793Z</time></trkpt><trkpt lat="52.925665" lon="-1.860515"><ele>85.0</ele><time>2026-05-04T09:34:06.793Z</time></trkpt><trkpt lat="52.9254633" lon="-1.8606"><ele>85.0</ele><time>2026-05-04T09:34:07.792Z</time></trkpt><trkpt lat="52.9252633" lon="-1.8606833"><ele>85.0</ele><time>2026-05-04T09:34:08.792Z</time></trkpt><trkpt lat="52.9250667" lon="-1.8607667"><ele>85.0</ele><time>2026-05-04T09:34:09.79Z</time></trkpt><trkpt lat="52.9248733" lon="-1.8608433"><ele>85.0</ele><time>2026-05-04T09:34:10.792Z</time></trkpt><trkpt lat="52.92468" lon="-1.8609183"><ele>85.0</ele><time>2026-05-04T09:34:11.791Z</time></trkpt><trkpt lat="52.9244783" lon="-1.8609983"><ele>85.0</ele><time>2026-05-04T09:34:12.792Z</time></trkpt><trkpt lat="52.92427" lon="-1.8610783"><ele>85.0</ele><time>2026-05-04T09:34:13.794Z</time></trkpt><trkpt lat="52.92406" lon="-1.8611617"><ele>84.66666666666666</ele><time>2026-05-04T09:34:14.792Z</time></trkpt><trkpt lat="52.9238483" lon="-1.8612467"><ele>84.33333333333333</ele><time>2026-05-04T09:34:15.791Z</time></trkpt><trkpt lat="52.9236383" lon="-1.86133"><ele>84.0</ele><time>2026-05-04T09:34:16.793Z</time></trkpt><trkpt lat="52.9234333" lon="-1.8614117"><ele>84.33333333333333</ele><time>2026-05-04T09:34:17.794Z</time></trkpt><trkpt lat="52.9232333" lon="-1.861495"><ele>84.66666666666666</ele><time>2026-05-04T09:34:18.793Z</time></trkpt><trkpt lat="52.92304" lon="-1.861585"><ele>85.0</ele><time>2026-05-04T09:34:19.792Z</time></trkpt><trkpt lat="52.9228533" lon="-1.8616733"><ele>85.0</ele><time>2026-05-04T09:34:20.792Z</time></trkpt><trkpt lat="52.9226683" lon="-1.86177"><ele>85.0</ele><time>2026-05-04T09:34:21.792Z</time></trkpt><trkpt lat="52.9224867" lon="-1.8618783"><ele>85.0</ele><time>2026-05-04T09:34:22.792Z</time></trkpt><trkpt lat="52.9223133" lon="-1.8620017"><ele>86.0</ele><time>2026-05-04T09:34:23.792Z</time></trkpt><trkpt lat="52.9221417" lon="-1.862115"><ele>87.0</ele><time>2026-05-04T09:34:24.792Z</time></trkpt><trkpt lat="52.92198" lon="-1.8622317"><ele>88.0</ele><time>2026-05-04T09:34:25.792Z</time></trkpt><trkpt lat="52.9218233" lon="-1.8623633"><ele>87.0</ele><time>2026-05-04T09:34:26.791Z</time></trkpt><trkpt lat="52.9216667" lon="-1.862495"><ele>86.0</ele><time>2026-05-04T09:34:27.793Z</time></trkpt><trkpt lat="52.9215167" lon="-1.86264"><ele>85.0</ele><time>2026-05-04T09:34:28.792Z</time></trkpt><trkpt lat="52.9213717" lon="-1.8627883"><ele>85.0</ele><time>2026-05-04T09:34:29.793Z</time></trkpt><trkpt lat="52.9212267" lon="-1.86294"><ele>85.0</ele><time>2026-05-04T09:34:30.793Z</time></trkpt><trkpt lat="52.9210817" lon="-1.8630983"><ele>85.0</ele><time>2026-05-04T09:34:31.794Z</time></trkpt><trkpt lat="52.9209283" lon="-1.8632633"><ele>84.66666666666666</ele><time>2026-05-04T09:34:32.792Z</time></trkpt><trkpt lat="52.92077" lon="-1.8634333"><ele>84.33333333333333</ele><time>2026-05-04T09:34:33.792Z</time></trkpt><trkpt lat="52.920605" lon="-1.8636133"><ele>84.0</ele><time>2026-05-04T09:34:34.792Z</time></trkpt><trkpt lat="52.9204367" lon="-1.863795"><ele>84.0</ele><time>2026-05-04T09:34:35.792Z</time></trkpt><trkpt lat="52.9202767" lon="-1.8639767"><ele>84.0</ele><time>2026-05-04T09:34:36.794Z</time></trkpt><trkpt lat="52.9201233" lon="-1.8641517"><ele>84.0</ele><time>2026-05-04T09:34:37.792Z</time></trkpt><trkpt lat="52.9199733" lon="-1.864315"><ele>83.66666666666667</ele><time>2026-05-04T09:34:38.792Z</time></trkpt><trkpt lat="52.9198317" lon="-1.8644683"><ele>83.33333333333334</ele><time>2026-05-04T09:34:39.793Z</time></trkpt><trkpt lat="52.9196917" lon="-1.8646233"><ele>83.0</ele><time>2026-05-04T09:34:40.792Z</time></trkpt><trkpt lat="52.9195517" lon="-1.86478"><ele>83.0</ele><time>2026-05-04T09:34:41.798Z</time></trkpt><trkpt lat="52.91941" lon="-1.8649317"><ele>83.0</ele><time>2026-05-04T09:34:42.793Z</time></trkpt><trkpt lat="52.91927" lon="-1.8650883"><ele>83.0</ele><time>2026-05-04T09:34:43.792Z</time></trkpt><trkpt lat="52.919125" lon="-1.86525"><ele>83.0</ele><time>2026-05-04T09:34:44.791Z</time></trkpt><trkpt lat="52.9189833" lon="-1.86541"><ele>83.0</ele><time>2026-05-04T09:34:45.792Z</time></trkpt><trkpt lat="52.9188367" lon="-1.8655667"><ele>83.0</ele><time>2026-05-04T09:34:46.792Z</time></trkpt><trkpt lat="52.9186917" lon="-1.8657233"><ele>83.0</ele><time>2026-05-04T09:34:47.795Z</time></trkpt><trkpt lat="52.918545" lon="-1.86588"><ele>83.0</ele><time>2026-05-04T09:34:48.791Z</time></trkpt><trkpt lat="52.9184" lon="-1.8660317"><ele>83.0</ele><time>2026-05-04T09:34:49.792Z</time></trkpt><trkpt lat="52.918255" lon="-1.866185"><ele>83.0</ele><time>2026-05-04T09:34:50.794Z</time></trkpt><trkpt lat="52.9181117" lon="-1.8663433"><ele>83.0</ele><time>2026-05-04T09:34:51.794Z</time></trkpt><trkpt lat="52.9179683" lon="-1.866495"><ele>83.0</ele><time>2026-05-04T09:34:52.793Z</time></trkpt><trkpt lat="52.91783" lon="-1.86664"><ele>83.0</ele><time>2026-05-04T09:34:53.794Z</time></trkpt><trkpt lat="52.9176983" lon="-1.8667733"><ele>83.0</ele><time>2026-05-04T09:34:54.793Z</time></trkpt><trkpt lat="52.9175733" lon="-1.8668983"><ele>83.0</ele><time>2026-05-04T09:34:55.793Z</time></trkpt><trkpt lat="52.917455" lon="-1.86702"><ele>83.0</ele><time>2026-05-04T09:34:56.792Z</time></trkpt><trkpt lat="52.9173383" lon="-1.867145"><ele>83.0</ele><time>2026-05-04T09:34:57.791Z</time></trkpt><trkpt lat="52.91722" lon="-1.8672767"><ele>83.0</ele><time>2026-05-04T09:34:58.793Z</time></trkpt><trkpt lat="52.9170933" lon="-1.8674133"><ele>83.0</ele><time>2026-05-04T09:34:59.792Z</time></trkpt><trkpt lat="52.9169617" lon="-1.8675567"><ele>83.33333333333334</ele><time>2026-05-04T09:35:00.793Z</time></trkpt><trkpt lat="52.91683" lon="-1.8677083"><ele>83.66666666666667</ele><time>2026-05-04T09:35:01.793Z</time></trkpt><trkpt lat="52.9166933" lon="-1.8678567"><ele>84.0</ele><time>2026-05-04T09:35:02.792Z</time></trkpt><trkpt lat="52.91656" lon="-1.8680067"><ele>84.0</ele><time>2026-05-04T09:35:03.792Z</time></trkpt><trkpt lat="52.91643" lon="-1.8681567"><ele>84.0</ele><time>2026-05-04T09:35:04.792Z</time></trkpt><trkpt lat="52.9163017" lon="-1.8683083"><ele>84.0</ele><time>2026-05-04T09:35:05.792Z</time></trkpt><trkpt lat="52.916175" lon="-1.8684583"><ele>84.0</ele><time>2026-05-04T09:35:06.793Z</time></trkpt><trkpt lat="52.9160533" lon="-1.8686017"><ele>84.0</ele><time>2026-05-04T09:35:07.793Z</time></trkpt><trkpt lat="52.9159333" lon="-1.86874"><ele>84.0</ele><time>2026-05-04T09:35:08.793Z</time></trkpt><trkpt lat="52.91582" lon="-1.8688733"><ele>84.0</ele><time>2026-05-04T09:35:09.795Z</time></trkpt><trkpt lat="52.9157133" lon="-1.869"><ele>84.0</ele><time>2026-05-04T09:35:10.792Z</time></trkpt><trkpt lat="52.915605" lon="-1.8691217"><ele>84.0</ele><time>2026-05-04T09:35:11.794Z</time></trkpt><trkpt lat="52.915495" lon="-1.8692367"><ele>84.0</ele><time>2026-05-04T09:35:12.793Z</time></trkpt><trkpt lat="52.9153833" lon="-1.8693583"><ele>84.0</ele><time>2026-05-04T09:35:13.792Z</time></trkpt><trkpt lat="52.9152633" lon="-1.8694883"><ele>84.25</ele><time>2026-05-04T09:35:14.791Z</time></trkpt><trkpt lat="52.9151417" lon="-1.8696217"><ele>84.5</ele><time>2026-05-04T09:35:15.793Z</time></trkpt><trkpt lat="52.9150183" lon="-1.8697567"><ele>84.75</ele><time>2026-05-04T09:35:16.792Z</time></trkpt><trkpt lat="52.914895" lon="-1.8698917"><ele>85.0</ele><time>2026-05-04T09:35:17.791Z</time></trkpt><trkpt lat="52.9147717" lon="-1.870025"><ele>85.0</ele><time>2026-05-04T09:35:18.791Z</time></trkpt><trkpt lat="52.9146533" lon="-1.8701517"><ele>85.0</ele><time>2026-05-04T09:35:19.793Z</time></trkpt><trkpt lat="52.91454" lon="-1.8702717"><ele>85.0</ele><time>2026-05-04T09:35:20.792Z</time></trkpt><trkpt lat="52.9144317" lon="-1.8703867"><ele>85.0</ele><time>2026-05-04T09:35:21.794Z</time></trkpt><trkpt lat="52.914335" lon="-1.8704933"><ele>85.0</ele><time>2026-05-04T09:35:22.793Z</time></trkpt><trkpt lat="52.91425" lon="-1.8705917"><ele>85.0</ele><time>2026-05-04T09:35:23.793Z</time></trkpt><trkpt lat="52.9141733" lon="-1.870665"><ele>85.0</ele><time>2026-05-04T09:35:24.791Z</time></trkpt><trkpt lat="52.9141017" lon="-1.87071"><ele>85.0</ele><time>2026-05-04T09:35:25.794Z</time></trkpt><trkpt lat="52.9140283" lon="-1.870735"><ele>85.0</ele><time>2026-05-04T09:35:26.792Z</time></trkpt><trkpt lat="52.9139517" lon="-1.8707417"><ele>85.0</ele><time>2026-05-04T09:35:27.792Z</time></trkpt><trkpt lat="52.9138683" lon="-1.87071"><ele>85.0</ele><time>2026-05-04T09:35:28.792Z</time></trkpt><trkpt lat="52.9137817" lon="-1.8706467"><ele>85.0</ele><time>2026-05-04T09:35:29.792Z</time></trkpt><trkpt lat="52.9137" lon="-1.8705433"><ele>85.0</ele><time>2026-05-04T09:35:30.796Z</time></trkpt><trkpt lat="52.9136217" lon="-1.87041"><ele>85.0</ele><time>2026-05-04T09:35:31.794Z</time></trkpt><trkpt lat="52.9135433" lon="-1.8702467"><ele>85.0</ele><time>2026-05-04T09:35:32.792Z</time></trkpt><trkpt lat="52.9134567" lon="-1.8700567"><ele>84.66666666666666</ele><time>2026-05-04T09:35:33.793Z</time></trkpt><trkpt lat="52.9133617" lon="-1.8698483"><ele>84.33333333333333</ele><time>2026-05-04T09:35:34.792Z</time></trkpt><trkpt lat="52.9132667" lon="-1.8696383"><ele>84.0</ele><time>2026-05-04T09:35:35.792Z</time></trkpt><trkpt lat="52.9131633" lon="-1.8694167"><ele>83.66666666666667</ele><time>2026-05-04T09:35:36.791Z</time></trkpt><trkpt lat="52.9130483" lon="-1.8691867"><ele>83.33333333333334</ele><time>2026-05-04T09:35:37.793Z</time></trkpt><trkpt lat="52.9129217" lon="-1.8689517"><ele>83.0</ele><time>2026-05-04T09:35:38.796Z</time></trkpt><trkpt lat="52.9127867" lon="-1.8687233"><ele>83.0</ele><time>2026-05-04T09:35:39.796Z</time></trkpt><trkpt lat="52.9126467" lon="-1.8684967"><ele>83.0</ele><time>2026-05-04T09:35:40.795Z</time></trkpt><trkpt lat="52.9125" lon="-1.8682817"><ele>83.0</ele><time>2026-05-04T09:35:41.794Z</time></trkpt><trkpt lat="52.91234" lon="-1.868075"><ele>83.33333333333334</ele><time>2026-05-04T09:35:42.794Z</time></trkpt><trkpt lat="52.9121683" lon="-1.86787"><ele>83.66666666666667</ele><time>2026-05-04T09:35:43.794Z</time></trkpt><trkpt lat="52.9119917" lon="-1.86767"><ele>84.0</ele><time>2026-05-04T09:35:44.793Z</time></trkpt><trkpt lat="52.91181" lon="-1.86749"><ele>84.33333333333333</ele><time>2026-05-04T09:35:45.794Z</time></trkpt><trkpt lat="52.91162" lon="-1.8673233"><ele>84.66666666666666</ele><time>2026-05-04T09:35:46.793Z</time></trkpt><trkpt lat="52.91143" lon="-1.8671733"><ele>85.0</ele><time>2026-05-04T09:35:47.793Z</time></trkpt><trkpt lat="52.91124" lon="-1.867035"><ele>85.0</ele><time>2026-05-04T09:35:48.795Z</time></trkpt><trkpt lat="52.91106" lon="-1.8669167"><ele>85.0</ele><time>2026-05-04T09:35:49.793Z</time></trkpt><trkpt lat="52.91089" lon="-1.86681"><ele>85.0</ele><time>2026-05-04T09:35:50.794Z</time></trkpt><trkpt lat="52.9107267" lon="-1.866705"><ele>85.0</ele><time>2026-05-04T09:35:51.794Z</time></trkpt><trkpt lat="52.9105733" lon="-1.86661"><ele>85.0</ele><time>2026-05-04T09:35:52.792Z</time></trkpt><trkpt lat="52.9104233" lon="-1.8665167"><ele>85.0</ele><time>2026-05-04T09:35:53.794Z</time></trkpt><trkpt lat="52.9102817" lon="-1.8664283"><ele>85.0</ele><time>2026-05-04T09:35:54.796Z</time></trkpt><trkpt lat="52.9101433" lon="-1.8663383"><ele>85.0</ele><time>2026-05-04T09:35:55.792Z</time></trkpt><trkpt lat="52.91001" lon="-1.8662533"><ele>85.0</ele><time>2026-05-04T09:35:56.796Z</time></trkpt><trkpt lat="52.909875" lon="-1.8661683"><ele>85.0</ele><time>2026-05-04T09:35:57.795Z</time></trkpt><trkpt lat="52.9097383" lon="-1.8660817"><ele>85.25</ele><time>2026-05-04T09:35:58.796Z</time></trkpt><trkpt lat="52.9096" lon="-1.8659967"><ele>85.5</ele><time>2026-05-04T09:35:59.794Z</time></trkpt><trkpt lat="52.9094617" lon="-1.8659083"><ele>85.75</ele><time>2026-05-04T09:36:00.794Z</time></trkpt><trkpt lat="52.90932" lon="-1.8658183"><ele>86.0</ele><time>2026-05-04T09:36:01.797Z</time></trkpt><trkpt lat="52.9091783" lon="-1.86573"><ele>86.33333333333334</ele><time>2026-05-04T09:36:02.796Z</time></trkpt><trkpt lat="52.9090367" lon="-1.8656383"><ele>86.66666666666667</ele><time>2026-05-04T09:36:03.796Z</time></trkpt><trkpt lat="52.9088917" lon="-1.86554"><ele>87.0</ele><time>2026-05-04T09:36:04.792Z</time></trkpt><trkpt lat="52.9087433" lon="-1.8654367"><ele>87.0</ele><time>2026-05-04T09:36:05.796Z</time></trkpt><trkpt lat="52.908595" lon="-1.8653317"><ele>87.0</ele><time>2026-05-04T09:36:06.795Z</time></trkpt><trkpt lat="52.908445" lon="-1.8652217"><ele>87.0</ele><time>2026-05-04T09:36:07.793Z</time></trkpt><trkpt lat="52.9082967" lon="-1.8651017"><ele>86.33333333333333</ele><time>2026-05-04T09:36:08.793Z</time></trkpt><trkpt lat="52.9081467" lon="-1.8649717"><ele>85.66666666666666</ele><time>2026-05-04T09:36:09.792Z</time></trkpt><trkpt lat="52.908" lon="-1.86483"><ele>85.0</ele><time>2026-05-04T09:36:10.792Z</time></trkpt><trkpt lat="52.9078533" lon="-1.86468"><ele>85.0</ele><time>2026-05-04T09:36:11.795Z</time></trkpt><trkpt lat="52.9077117" lon="-1.8645217"><ele>85.0</ele><time>2026-05-04T09:36:12.796Z</time></trkpt><trkpt lat="52.9075783" lon="-1.8643533"><ele>85.0</ele><time>2026-05-04T09:36:13.796Z</time></trkpt><trkpt lat="52.90745" lon="-1.8641867"><ele>84.66666666666666</ele><time>2026-05-04T09:36:14.791Z</time></trkpt><trkpt lat="52.9073233" lon="-1.8640183"><ele>84.33333333333333</ele><time>2026-05-04T09:36:15.795Z</time></trkpt><trkpt lat="52.9071983" lon="-1.8638533"><ele>84.0</ele><time>2026-05-04T09:36:16.796Z</time></trkpt><trkpt lat="52.9070767" lon="-1.8636867"><ele>84.0</ele><time>2026-05-04T09:36:17.796Z</time></trkpt><trkpt lat="52.9069567" lon="-1.8635167"><ele>84.0</ele><time>2026-05-04T09:36:18.796Z</time></trkpt><trkpt lat="52.9068367" lon="-1.863345"><ele>84.0</ele><time>2026-05-04T09:36:19.792Z</time></trkpt><trkpt lat="52.906715" lon="-1.8631733"><ele>83.0</ele><time>2026-05-04T09:36:20.795Z</time></trkpt><trkpt lat="52.906595" lon="-1.863"><ele>82.0</ele><time>2026-05-04T09:36:21.793Z</time></trkpt><trkpt lat="52.9064817" lon="-1.8628333"><ele>81.0</ele><time>2026-05-04T09:36:22.794Z</time></trkpt><trkpt lat="52.906365" lon="-1.8626683"><ele>80.33333333333333</ele><time>2026-05-04T09:36:23.795Z</time></trkpt><trkpt lat="52.906245" lon="-1.86251"><ele>79.66666666666666</ele><time>2026-05-04T09:36:24.794Z</time></trkpt><trkpt lat="52.9061233" lon="-1.8623567"><ele>79.0</ele><time>2026-05-04T09:36:25.796Z</time></trkpt><trkpt lat="52.9059983" lon="-1.8622033"><ele>79.66666666666666</ele><time>2026-05-04T09:36:26.796Z</time></trkpt><trkpt lat="52.905875" lon="-1.862055"><ele>80.33333333333333</ele><time>2026-05-04T09:36:27.797Z</time></trkpt><trkpt lat="52.90575" lon="-1.86191"><ele>81.0</ele><time>2026-05-04T09:36:28.796Z</time></trkpt><trkpt lat="52.9056167" lon="-1.8617667"><ele>81.0</ele><time>2026-05-04T09:36:29.792Z</time></trkpt><trkpt lat="52.9054733" lon="-1.86162"><ele>81.0</ele><time>2026-05-04T09:36:30.795Z</time></trkpt><trkpt lat="52.9053167" lon="-1.861475"><ele>81.0</ele><time>2026-05-04T09:36:31.792Z</time></trkpt><trkpt lat="52.9051533" lon="-1.86133"><ele>80.66666666666667</ele><time>2026-05-04T09:36:32.795Z</time></trkpt><trkpt lat="52.9049767" lon="-1.8611883"><ele>80.33333333333334</ele><time>2026-05-04T09:36:33.796Z</time></trkpt><trkpt lat="52.9047883" lon="-1.8610483"><ele>80.0</ele><time>2026-05-04T09:36:34.79Z</time></trkpt><trkpt lat="52.9045917" lon="-1.8609233"><ele>80.0</ele><time>2026-05-04T09:36:35.795Z</time></trkpt><trkpt lat="52.904385" lon="-1.8608117"><ele>80.0</ele><time>2026-05-04T09:36:36.795Z</time></trkpt><trkpt lat="52.9041817" lon="-1.8607133"><ele>80.0</ele><time>2026-05-04T09:36:37.795Z</time></trkpt><trkpt lat="52.9039717" lon="-1.8606217"><ele>80.0</ele><time>2026-05-04T09:36:38.795Z</time></trkpt><trkpt lat="52.9037667" lon="-1.8605417"><ele>80.0</ele><time>2026-05-04T09:36:39.796Z</time></trkpt><trkpt lat="52.9035683" lon="-1.8604783"><ele>80.0</ele><time>2026-05-04T09:36:40.792Z</time></trkpt><trkpt lat="52.9033767" lon="-1.860435"><ele>80.0</ele><time>2026-05-04T09:36:41.794Z</time></trkpt><trkpt lat="52.903195" lon="-1.8604"><ele>80.0</ele><time>2026-05-04T09:36:42.796Z</time></trkpt><trkpt lat="52.9030333" lon="-1.860365"><ele>80.0</ele><time>2026-05-04T09:36:43.794Z</time></trkpt><trkpt lat="52.9028833" lon="-1.8603367"><ele>80.0</ele><time>2026-05-04T09:36:44.795Z</time></trkpt><trkpt lat="52.9027467" lon="-1.8603167"><ele>80.0</ele><time>2026-05-04T09:36:45.796Z</time></trkpt><trkpt lat="52.9026167" lon="-1.8603"><ele>80.0</ele><time>2026-05-04T09:36:46.795Z</time></trkpt><trkpt lat="52.9024983" lon="-1.8603"><ele>80.0</ele><time>2026-05-04T09:36:47.795Z</time></trkpt><trkpt lat="52.9023933" lon="-1.8603117"><ele>79.83333333333334</ele><time>2026-05-04T09:36:48.796Z</time></trkpt><trkpt lat="52.9022967" lon="-1.8603217"><ele>79.66666666666667</ele><time>2026-05-04T09:36:49.796Z</time></trkpt><trkpt lat="52.9022083" lon="-1.8603183"><ele>79.5</ele><time>2026-05-04T09:36:50.795Z</time></trkpt><trkpt lat="52.9021333" lon="-1.8602933"><ele>79.33333333333333</ele><time>2026-05-04T09:36:51.795Z</time></trkpt><trkpt lat="52.90206" lon="-1.8602567"><ele>79.16666666666666</ele><time>2026-05-04T09:36:52.796Z</time></trkpt><trkpt lat="52.90199" lon="-1.860215"><ele>79.0</ele><time>2026-05-04T09:36:53.794Z</time></trkpt><trkpt lat="52.90192" lon="-1.8601917"><ele>79.0</ele><time>2026-05-04T09:36:54.796Z</time></trkpt><trkpt lat="52.9018433" lon="-1.860195"><ele>79.0</ele><time>2026-05-04T09:36:55.793Z</time></trkpt><trkpt lat="52.9017617" lon="-1.860225"><ele>79.0</ele><time>2026-05-04T09:36:56.795Z</time></trkpt><trkpt lat="52.9016783" lon="-1.8602667"><ele>79.0</ele><time>2026-05-04T09:36:57.792Z</time></trkpt><trkpt lat="52.9015933" lon="-1.86031"><ele>79.0</ele><time>2026-05-04T09:36:58.795Z</time></trkpt><trkpt lat="52.901505" lon="-1.8603333"><ele>79.0</ele><time>2026-05-04T09:36:59.791Z</time></trkpt><trkpt lat="52.9014217" lon="-1.8603467"><ele>79.16666666666666</ele><time>2026-05-04T09:37:00.792Z</time></trkpt><trkpt lat="52.9013433" lon="-1.8603383"><ele>79.33333333333333</ele><time>2026-05-04T09:37:01.793Z</time></trkpt><trkpt lat="52.9012683" lon="-1.8603117"><ele>79.5</ele><time>2026-05-04T09:37:02.791Z</time></trkpt><trkpt lat="52.90119" lon="-1.86028"><ele>79.66666666666667</ele><time>2026-05-04T09:37:03.792Z</time></trkpt><trkpt lat="52.9011067" lon="-1.8602683"><ele>79.83333333333334</ele><time>2026-05-04T09:37:04.796Z</time></trkpt><trkpt lat="52.901015" lon="-1.860285"><ele>80.0</ele><time>2026-05-04T09:37:05.791Z</time></trkpt><trkpt lat="52.90092" lon="-1.8603233"><ele>80.4</ele><time>2026-05-04T09:37:06.796Z</time></trkpt><trkpt lat="52.9008183" lon="-1.8603483"><ele>80.8</ele><time>2026-05-04T09:37:07.796Z</time></trkpt><trkpt lat="52.9007117" lon="-1.8603617"><ele>81.19999999999999</ele><time>2026-05-04T09:37:08.796Z</time></trkpt><trkpt lat="52.9005967" lon="-1.860365"><ele>81.6</ele><time>2026-05-04T09:37:09.792Z</time></trkpt><trkpt lat="52.900475" lon="-1.8603633"><ele>82.0</ele><time>2026-05-04T09:37:10.795Z</time></trkpt><trkpt lat="52.90035" lon="-1.8603533"><ele>82.0</ele><time>2026-05-04T09:37:11.792Z</time></trkpt><trkpt lat="52.9002217" lon="-1.8603367"><ele>82.0</ele><time>2026-05-04T09:37:12.793Z</time></trkpt><trkpt lat="52.90009" lon="-1.86032"><ele>82.0</ele><time>2026-05-04T09:37:13.795Z</time></trkpt><trkpt lat="52.8999567" lon="-1.860305"><ele>82.0</ele><time>2026-05-04T09:37:14.791Z</time></trkpt><trkpt lat="52.8998217" lon="-1.8602983"><ele>81.75</ele><time>2026-05-04T09:37:15.793Z</time></trkpt><trkpt lat="52.8996867" lon="-1.860295"><ele>81.5</ele><time>2026-05-04T09:37:16.792Z</time></trkpt><trkpt lat="52.899555" lon="-1.860295"><ele>81.25</ele><time>2026-05-04T09:37:17.793Z</time></trkpt><trkpt lat="52.8994217" lon="-1.860295"><ele>81.0</ele><time>2026-05-04T09:37:18.792Z</time></trkpt><trkpt lat="52.8992867" lon="-1.8602983"><ele>81.0</ele><time>2026-05-04T09:37:19.792Z</time></trkpt><trkpt lat="52.8991483" lon="-1.8603083"><ele>81.0</ele><time>2026-05-04T09:37:20.791Z</time></trkpt><trkpt lat="52.8990083" lon="-1.8603217"><ele>81.0</ele><time>2026-05-04T09:37:21.792Z</time></trkpt><trkpt lat="52.898865" lon="-1.86034"><ele>81.0</ele><time>2026-05-04T09:37:22.792Z</time></trkpt><trkpt lat="52.8987233" lon="-1.860365"><ele>81.0</ele><time>2026-05-04T09:37:23.791Z</time></trkpt><trkpt lat="52.8985817" lon="-1.8603967"><ele>81.0</ele><time>2026-05-04T09:37:24.791Z</time></trkpt><trkpt lat="52.8984433" lon="-1.8604333"><ele>81.0</ele><time>2026-05-04T09:37:25.792Z</time></trkpt><trkpt lat="52.8983117" lon="-1.860475"><ele>81.0</ele><time>2026-05-04T09:37:26.794Z</time></trkpt><trkpt lat="52.898185" lon="-1.86052"><ele>81.0</ele><time>2026-05-04T09:37:27.795Z</time></trkpt><trkpt lat="52.8980633" lon="-1.8605667"><ele>81.0</ele><time>2026-05-04T09:37:28.795Z</time></trkpt><trkpt lat="52.8979417" lon="-1.86061"><ele>81.0</ele><time>2026-05-04T09:37:29.795Z</time></trkpt><trkpt lat="52.8978267" lon="-1.8606567"><ele>81.0</ele><time>2026-05-04T09:37:30.795Z</time></trkpt><trkpt lat="52.897715" lon="-1.860695"><ele>81.0</ele><time>2026-05-04T09:37:31.791Z</time></trkpt><trkpt lat="52.89761" lon="-1.86072"><ele>81.0</ele><time>2026-05-04T09:37:32.795Z</time></trkpt><trkpt lat="52.897515" lon="-1.8607333"><ele>81.0</ele><time>2026-05-04T09:37:33.796Z</time></trkpt><trkpt lat="52.89743" lon="-1.8607283"><ele>81.0</ele><time>2026-05-04T09:37:34.795Z</time></trkpt><trkpt lat="52.897355" lon="-1.86071"><ele>81.0</ele><time>2026-05-04T09:37:35.796Z</time></trkpt><trkpt lat="52.8972833" lon="-1.86068"><ele>81.0</ele><time>2026-05-04T09:37:36.796Z</time></trkpt><trkpt lat="52.8972" lon="-1.86065"><ele>81.0</ele><time>2026-05-04T09:37:37.794Z</time></trkpt><trkpt lat="52.8971" lon="-1.8606367"><ele>81.0</ele><time>2026-05-04T09:37:38.792Z</time></trkpt><trkpt lat="52.8969917" lon="-1.860645"><ele>81.0</ele><time>2026-05-04T09:37:39.795Z</time></trkpt><trkpt lat="52.8968817" lon="-1.860645"><ele>81.0</ele><time>2026-05-04T09:37:40.795Z</time></trkpt><trkpt lat="52.8967717" lon="-1.86062"><ele>81.0</ele><time>2026-05-04T09:37:41.794Z</time></trkpt><trkpt lat="52.8966667" lon="-1.8605683"><ele>81.0</ele><time>2026-05-04T09:37:42.79Z</time></trkpt><trkpt lat="52.89656" lon="-1.8604833"><ele>81.0</ele><time>2026-05-04T09:37:43.791Z</time></trkpt><trkpt lat="52.896455" lon="-1.860375"><ele>81.0</ele><time>2026-05-04T09:37:44.792Z</time></trkpt><trkpt lat="52.8963533" lon="-1.8602467"><ele>81.0</ele><time>2026-05-04T09:37:45.795Z</time></trkpt><trkpt lat="52.8962567" lon="-1.86012"><ele>81.0</ele><time>2026-05-04T09:37:46.795Z</time></trkpt><trkpt lat="52.896165" lon="-1.8600067"><ele>81.0</ele><time>2026-05-04T09:37:47.795Z</time></trkpt><trkpt lat="52.8960733" lon="-1.8598917"><ele>81.0</ele><time>2026-05-04T09:37:48.792Z</time></trkpt><trkpt lat="52.8959783" lon="-1.8597917"><ele>81.0</ele><time>2026-05-04T09:37:49.792Z</time></trkpt><trkpt lat="52.8958867" lon="-1.8597183"><ele>81.0</ele><time>2026-05-04T09:37:50.795Z</time></trkpt><trkpt lat="52.8957933" lon="-1.8596733"><ele>81.19999999999999</ele><time>2026-05-04T09:37:51.792Z</time></trkpt><trkpt lat="52.895695" lon="-1.85965"><ele>81.39999999999999</ele><time>2026-05-04T09:37:52.795Z</time></trkpt><trkpt lat="52.8955933" lon="-1.8596483"><ele>81.6</ele><time>2026-05-04T09:37:53.792Z</time></trkpt><trkpt lat="52.895495" lon="-1.8596567"><ele>81.8</ele><time>2026-05-04T09:37:54.795Z</time></trkpt><trkpt lat="52.8954017" lon="-1.8596617"><ele>82.0</ele><time>2026-05-04T09:37:55.796Z</time></trkpt><trkpt lat="52.89531" lon="-1.8596433"><ele>82.0</ele><time>2026-05-04T09:37:56.795Z</time></trkpt><trkpt lat="52.895225" lon="-1.8596083"><ele>82.0</ele><time>2026-05-04T09:37:57.792Z</time></trkpt><trkpt lat="52.89515" lon="-1.8595533"><ele>82.0</ele><time>2026-05-04T09:37:58.793Z</time></trkpt><trkpt lat="52.8950833" lon="-1.8594833"><ele>82.0</ele><time>2026-05-04T09:37:59.795Z</time></trkpt><trkpt lat="52.8950233" lon="-1.8594083"><ele>82.0</ele><time>2026-05-04T09:38:00.793Z</time></trkpt><trkpt lat="52.894975" lon="-1.8593233"><ele>82.0</ele><time>2026-05-04T09:38:01.794Z</time></trkpt><trkpt lat="52.8949283" lon="-1.859235"><ele>82.33333333333333</ele><time>2026-05-04T09:38:02.792Z</time></trkpt><trkpt lat="52.8948783" lon="-1.859155"><ele>82.66666666666666</ele><time>2026-05-04T09:38:03.796Z</time></trkpt><trkpt lat="52.8948383" lon="-1.85907"><ele>83.0</ele><time>2026-05-04T09:38:04.791Z</time></trkpt><trkpt lat="52.8947617" lon="-1.85893"><ele>83.33333333333333</ele><time>2026-05-04T09:38:06.792Z</time></trkpt><trkpt lat="52.8946517" lon="-1.8589083"><ele>83.66666666666667</ele><time>2026-05-04T09:38:08.794Z</time></trkpt><trkpt lat="52.8945883" lon="-1.8589333"><ele>84.0</ele><time>2026-05-04T09:38:09.796Z</time></trkpt><trkpt lat="52.89452" lon="-1.8590017"><ele>84.0</ele><time>2026-05-04T09:38:10.791Z</time></trkpt><trkpt lat="52.8944467" lon="-1.859095"><ele>84.0</ele><time>2026-05-04T09:38:11.793Z</time></trkpt><trkpt lat="52.8943633" lon="-1.8591983"><ele>84.0</ele><time>2026-05-04T09:38:12.792Z</time></trkpt><trkpt lat="52.8942833" lon="-1.8593117"><ele>84.0</ele><time>2026-05-04T09:38:13.793Z</time></trkpt><trkpt lat="52.894205" lon="-1.8594217"><ele>84.0</ele><time>2026-05-04T09:38:14.792Z</time></trkpt><trkpt lat="52.8941233" lon="-1.8595383"><ele>84.6</ele><time>2026-05-04T09:38:15.791Z</time></trkpt><trkpt lat="52.89404" lon="-1.859645"><ele>85.2</ele><time>2026-05-04T09:38:16.791Z</time></trkpt><trkpt lat="52.893955" lon="-1.85975"><ele>85.8</ele><time>2026-05-04T09:38:17.793Z</time></trkpt><trkpt lat="52.893865" lon="-1.85984"><ele>86.39999999999999</ele><time>2026-05-04T09:38:18.792Z</time></trkpt><trkpt lat="52.8937783" lon="-1.8599317"><ele>87.0</ele><time>2026-05-04T09:38:19.796Z</time></trkpt><trkpt lat="52.8936933" lon="-1.8600333"><ele>87.39999999999999</ele><time>2026-05-04T09:38:20.792Z</time></trkpt><trkpt lat="52.8935983" lon="-1.8601283"><ele>87.8</ele><time>2026-05-04T09:38:21.793Z</time></trkpt><trkpt lat="52.8935017" lon="-1.86022"><ele>88.2</ele><time>2026-05-04T09:38:22.792Z</time></trkpt><trkpt lat="52.8934117" lon="-1.8603017"><ele>88.6</ele><time>2026-05-04T09:38:23.793Z</time></trkpt><trkpt lat="52.8933133" lon="-1.8603767"><ele>89.0</ele><time>2026-05-04T09:38:24.792Z</time></trkpt><trkpt lat="52.89322" lon="-1.8604383"><ele>89.4</ele><time>2026-05-04T09:38:25.793Z</time></trkpt><trkpt lat="52.8931133" lon="-1.860475"><ele>89.80000000000001</ele><time>2026-05-04T09:38:26.793Z</time></trkpt><trkpt lat="52.8930083" lon="-1.860505"><ele>90.19999999999999</ele><time>2026-05-04T09:38:27.795Z</time></trkpt><trkpt lat="52.8929067" lon="-1.8605217"><ele>90.6</ele><time>2026-05-04T09:38:28.793Z</time></trkpt><trkpt lat="52.892805" lon="-1.860535"><ele>91.0</ele><time>2026-05-04T09:38:29.796Z</time></trkpt><trkpt lat="52.8926983" lon="-1.8605333"><ele>91.0</ele><time>2026-05-04T09:38:30.792Z</time></trkpt><trkpt lat="52.8925917" lon="-1.8605317"><ele>91.0</ele><time>2026-05-04T09:38:31.792Z</time></trkpt><trkpt lat="52.892485" lon="-1.8605367"><ele>91.0</ele><time>2026-05-04T09:38:32.791Z</time></trkpt><trkpt lat="52.8923767" lon="-1.8605517"><ele>91.0</ele><time>2026-05-04T09:38:33.791Z</time></trkpt><trkpt lat="52.8922683" lon="-1.860575"><ele>91.0</ele><time>2026-05-04T09:38:34.795Z</time></trkpt><trkpt lat="52.8921583" lon="-1.86061"><ele>91.6</ele><time>2026-05-04T09:38:35.792Z</time></trkpt><trkpt lat="52.8920483" lon="-1.8606483"><ele>92.19999999999999</ele><time>2026-05-04T09:38:36.792Z</time></trkpt><trkpt lat="52.8919383" lon="-1.860685"><ele>92.80000000000001</ele><time>2026-05-04T09:38:37.793Z</time></trkpt><trkpt lat="52.891835" lon="-1.860705"><ele>93.4</ele><time>2026-05-04T09:38:38.791Z</time></trkpt><trkpt lat="52.8917433" lon="-1.8607"><ele>94.0</ele><time>2026-05-04T09:38:39.792Z</time></trkpt><trkpt lat="52.8916667" lon="-1.8606867"><ele>94.6</ele><time>2026-05-04T09:38:40.791Z</time></trkpt><trkpt lat="52.8915983" lon="-1.8606733"><ele>95.2</ele><time>2026-05-04T09:38:41.792Z</time></trkpt><trkpt lat="52.89152" lon="-1.86066"><ele>95.8</ele><time>2026-05-04T09:38:42.791Z</time></trkpt><trkpt lat="52.891425" lon="-1.8606383"><ele>96.39999999999999</ele><time>2026-05-04T09:38:43.792Z</time></trkpt><trkpt lat="52.8913183" lon="-1.8606083"><ele>97.0</ele><time>2026-05-04T09:38:44.792Z</time></trkpt><trkpt lat="52.8912033" lon="-1.8605683"><ele>97.0</ele><time>2026-05-04T09:38:45.792Z</time></trkpt><trkpt lat="52.89108" lon="-1.86052"><ele>97.0</ele><time>2026-05-04T09:38:46.792Z</time></trkpt><trkpt lat="52.8909517" lon="-1.8604667"><ele>97.0</ele><time>2026-05-04T09:38:47.791Z</time></trkpt><trkpt lat="52.8908283" lon="-1.86041"><ele>97.0</ele><time>2026-05-04T09:38:48.792Z</time></trkpt><trkpt lat="52.890705" lon="-1.86035"><ele>98.0</ele><time>2026-05-04T09:38:49.792Z</time></trkpt><trkpt lat="52.890585" lon="-1.8602883"><ele>99.0</ele><time>2026-05-04T09:38:50.793Z</time></trkpt><trkpt lat="52.8904683" lon="-1.8602283"><ele>100.0</ele><time>2026-05-04T09:38:51.792Z</time></trkpt><trkpt lat="52.890355" lon="-1.8601483"><ele>101.0</ele><time>2026-05-04T09:38:52.792Z</time></trkpt><trkpt lat="52.890245" lon="-1.86007"><ele>101.5</ele><time>2026-05-04T09:38:53.792Z</time></trkpt><trkpt lat="52.8901417" lon="-1.8599667"><ele>102.0</ele><time>2026-05-04T09:38:54.792Z</time></trkpt><trkpt lat="52.8900433" lon="-1.8598417"><ele>102.5</ele><time>2026-05-04T09:38:55.794Z</time></trkpt><trkpt lat="52.88995" lon="-1.859705"><ele>103.0</ele><time>2026-05-04T09:38:56.792Z</time></trkpt><trkpt lat="52.88985" lon="-1.859565"><ele>103.5</ele><time>2026-05-04T09:38:57.793Z</time></trkpt><trkpt lat="52.889755" lon="-1.85942"><ele>104.0</ele><time>2026-05-04T09:38:58.791Z</time></trkpt><trkpt lat="52.8896483" lon="-1.859305"><ele>104.5</ele><time>2026-05-04T09:38:59.791Z</time></trkpt><trkpt lat="52.8895367" lon="-1.859195"><ele>105.0</ele><time>2026-05-04T09:39:00.792Z</time></trkpt><trkpt lat="52.8894217" lon="-1.859115"><ele>105.5</ele><time>2026-05-04T09:39:01.792Z</time></trkpt><trkpt lat="52.8892967" lon="-1.8590483"><ele>106.0</ele><time>2026-05-04T09:39:02.792Z</time></trkpt><trkpt lat="52.8891783" lon="-1.858985"><ele>106.5</ele><time>2026-05-04T09:39:03.793Z</time></trkpt><trkpt lat="52.8890517" lon="-1.8589433"><ele>107.0</ele><time>2026-05-04T09:39:04.792Z</time></trkpt><trkpt lat="52.8889217" lon="-1.85893"><ele>108.25</ele><time>2026-05-04T09:39:05.791Z</time></trkpt><trkpt lat="52.8887867" lon="-1.8589517"><ele>109.5</ele><time>2026-05-04T09:39:06.792Z</time></trkpt><trkpt lat="52.8886617" lon="-1.859015"><ele>110.75</ele><time>2026-05-04T09:39:07.791Z</time></trkpt><trkpt lat="52.888535" lon="-1.8591"><ele>112.0</ele><time>2026-05-04T09:39:08.792Z</time></trkpt><trkpt lat="52.8884133" lon="-1.8592367"><ele>113.0</ele><time>2026-05-04T09:39:09.792Z</time></trkpt><trkpt lat="52.8882817" lon="-1.859365"><ele>114.0</ele><time>2026-05-04T09:39:10.793Z</time></trkpt><trkpt lat="52.8881433" lon="-1.85949"><ele>115.0</ele><time>2026-05-04T09:39:11.792Z</time></trkpt><trkpt lat="52.88801" lon="-1.8595917"><ele>115.0</ele><time>2026-05-04T09:39:12.791Z</time></trkpt><trkpt lat="52.887875" lon="-1.85967"><ele>115.0</ele><time>2026-05-04T09:39:13.793Z</time></trkpt><trkpt lat="52.8877367" lon="-1.8597217"><ele>115.0</ele><time>2026-05-04T09:39:14.791Z</time></trkpt><trkpt lat="52.8875933" lon="-1.8597417"><ele>115.0</ele><time>2026-05-04T09:39:15.792Z</time></trkpt><trkpt lat="52.887455" lon="-1.8597367"><ele>116.5</ele><time>2026-05-04T09:39:16.792Z</time></trkpt><trkpt lat="52.8873183" lon="-1.859715"><ele>118.0</ele><time>2026-05-04T09:39:17.793Z</time></trkpt><trkpt lat="52.8871917" lon="-1.8596817"><ele>119.5</ele><time>2026-05-04T09:39:18.793Z</time></trkpt><trkpt lat="52.8870783" lon="-1.859645"><ele>121.0</ele><time>2026-05-04T09:39:19.792Z</time></trkpt><trkpt lat="52.886965" lon="-1.8595983"><ele>121.0</ele><time>2026-05-04T09:39:20.792Z</time></trkpt><trkpt lat="52.8868533" lon="-1.8595533"><ele>121.0</ele><time>2026-05-04T09:39:21.791Z</time></trkpt><trkpt lat="52.88674" lon="-1.8595033"><ele>121.0</ele><time>2026-05-04T09:39:22.791Z</time></trkpt><trkpt lat="52.8866233" lon="-1.8594483"><ele>121.0</ele><time>2026-05-04T09:39:23.792Z</time></trkpt><trkpt lat="52.8865017" lon="-1.8593933"><ele>123.0</ele><time>2026-05-04T09:39:24.792Z</time></trkpt><trkpt lat="52.8863767" lon="-1.8593417"><ele>125.0</ele><time>2026-05-04T09:39:25.793Z</time></trkpt><trkpt lat="52.8862567" lon="-1.8592917"><ele>127.0</ele><time>2026-05-04T09:39:26.792Z</time></trkpt><trkpt lat="52.8861383" lon="-1.8592417"><ele>129.0</ele><time>2026-05-04T09:39:27.792Z</time></trkpt><trkpt lat="52.886025" lon="-1.8591917"><ele>130.5</ele><time>2026-05-04T09:39:28.792Z</time></trkpt><trkpt lat="52.885905" lon="-1.8591367"><ele>132.0</ele><time>2026-05-04T09:39:29.793Z</time></trkpt><trkpt lat="52.8857783" lon="-1.8590767"><ele>133.5</ele><time>2026-05-04T09:39:30.792Z</time></trkpt><trkpt lat="52.8856417" lon="-1.8590067"><ele>135.0</ele><time>2026-05-04T09:39:31.791Z</time></trkpt><trkpt lat="52.885505" lon="-1.85892"><ele>135.0</ele><time>2026-05-04T09:39:32.793Z</time></trkpt><trkpt lat="52.88537" lon="-1.8588267"><ele>135.0</ele><time>2026-05-04T09:39:33.792Z</time></trkpt><trkpt lat="52.88523" lon="-1.8587133"><ele>135.0</ele><time>2026-05-04T09:39:34.791Z</time></trkpt><trkpt lat="52.8850867" lon="-1.8585817"><ele>136.33333333333334</ele><time>2026-05-04T09:39:35.793Z</time></trkpt><trkpt lat="52.8849467" lon="-1.8584433"><ele>137.66666666666669</ele><time>2026-05-04T09:39:36.792Z</time></trkpt><trkpt lat="52.88481" lon="-1.8583083"><ele>139.0</ele><time>2026-05-04T09:39:37.792Z</time></trkpt><trkpt lat="52.8846683" lon="-1.858165"><ele>139.0</ele><time>2026-05-04T09:39:38.792Z</time></trkpt><trkpt lat="52.8845217" lon="-1.8580217"><ele>139.0</ele><time>2026-05-04T09:39:39.792Z</time></trkpt><trkpt lat="52.8843717" lon="-1.85787"><ele>139.0</ele><time>2026-05-04T09:39:40.792Z</time></trkpt><trkpt lat="52.8842217" lon="-1.8577217"><ele>139.0</ele><time>2026-05-04T09:39:41.793Z</time></trkpt><trkpt lat="52.8840733" lon="-1.8575717"><ele>139.0</ele><time>2026-05-04T09:39:42.791Z</time></trkpt><trkpt lat="52.8839267" lon="-1.85742"><ele>139.0</ele><time>2026-05-04T09:39:43.792Z</time></trkpt><trkpt lat="52.8837833" lon="-1.85727"><ele>139.0</ele><time>2026-05-04T09:39:44.791Z</time></trkpt><trkpt lat="52.883635" lon="-1.8571117"><ele>139.0</ele><time>2026-05-04T09:39:45.792Z</time></trkpt><trkpt lat="52.8834817" lon="-1.85695"><ele>139.0</ele><time>2026-05-04T09:39:46.794Z</time></trkpt><trkpt lat="52.8833267" lon="-1.856785"><ele>139.0</ele><time>2026-05-04T09:39:47.792Z</time></trkpt><trkpt lat="52.883165" lon="-1.8566233"><ele>139.0</ele><time>2026-05-04T09:39:48.792Z</time></trkpt><trkpt lat="52.8829933" lon="-1.856455"><ele>139.0</ele><time>2026-05-04T09:39:49.792Z</time></trkpt><trkpt lat="52.8828167" lon="-1.8562783"><ele>139.0</ele><time>2026-05-04T09:39:50.791Z</time></trkpt><trkpt lat="52.8826333" lon="-1.8560967"><ele>139.0</ele><time>2026-05-04T09:39:51.791Z</time></trkpt><trkpt lat="52.8824383" lon="-1.85591"><ele>139.0</ele><time>2026-05-04T09:39:52.791Z</time></trkpt><trkpt lat="52.88223" lon="-1.8557117"><ele>136.5</ele><time>2026-05-04T09:39:53.793Z</time></trkpt><trkpt lat="52.8820117" lon="-1.8554917"><ele>134.0</ele><time>2026-05-04T09:39:54.791Z</time></trkpt><trkpt lat="52.8817967" lon="-1.8552583"><ele>132.0</ele><time>2026-05-04T09:39:55.792Z</time></trkpt><trkpt lat="52.88159" lon="-1.8550317"><ele>130.0</ele><time>2026-05-04T09:39:56.792Z</time></trkpt><trkpt lat="52.88139" lon="-1.8548217"><ele>130.0</ele><time>2026-05-04T09:39:57.791Z</time></trkpt><trkpt lat="52.8811917" lon="-1.8546167"><ele>130.0</ele><time>2026-05-04T09:39:58.792Z</time></trkpt><trkpt lat="52.881" lon="-1.85442"><ele>128.0</ele><time>2026-05-04T09:39:59.795Z</time></trkpt><trkpt lat="52.88081" lon="-1.854225"><ele>126.0</ele><time>2026-05-04T09:40:00.791Z</time></trkpt><trkpt lat="52.880625" lon="-1.8540383"><ele>124.0</ele><time>2026-05-04T09:40:01.795Z</time></trkpt><trkpt lat="52.8804483" lon="-1.8538617"><ele>124.0</ele><time>2026-05-04T09:40:02.794Z</time></trkpt><trkpt lat="52.88028" lon="-1.853695"><ele>124.0</ele><time>2026-05-04T09:40:03.796Z</time></trkpt><trkpt lat="52.8801183" lon="-1.8535317"><ele>124.0</ele><time>2026-05-04T09:40:04.795Z</time></trkpt><trkpt lat="52.879965" lon="-1.8533733"><ele>122.0</ele><time>2026-05-04T09:40:05.796Z</time></trkpt><trkpt lat="52.8798133" lon="-1.85322"><ele>120.0</ele><time>2026-05-04T09:40:06.792Z</time></trkpt><trkpt lat="52.8796683" lon="-1.8530767"><ele>118.0</ele><time>2026-05-04T09:40:07.796Z</time></trkpt><trkpt lat="52.87953" lon="-1.8529367"><ele>118.0</ele><time>2026-05-04T09:40:08.796Z</time></trkpt><trkpt lat="52.8793983" lon="-1.8528033"><ele>118.0</ele><time>2026-05-04T09:40:09.795Z</time></trkpt><trkpt lat="52.8792717" lon="-1.852675"><ele>118.0</ele><time>2026-05-04T09:40:10.795Z</time></trkpt><trkpt lat="52.8791417" lon="-1.8525533"><ele>117.66666666666667</ele><time>2026-05-04T09:40:11.792Z</time></trkpt><trkpt lat="52.8790117" lon="-1.8524317"><ele>117.33333333333334</ele><time>2026-05-04T09:40:12.795Z</time></trkpt><trkpt lat="52.8788767" lon="-1.8523"><ele>117.0</ele><time>2026-05-04T09:40:13.793Z</time></trkpt><trkpt lat="52.878745" lon="-1.852165"><ele>117.0</ele><time>2026-05-04T09:40:14.793Z</time></trkpt><trkpt lat="52.8786183" lon="-1.8520317"><ele>117.0</ele><time>2026-05-04T09:40:15.793Z</time></trkpt><trkpt lat="52.8784933" lon="-1.8518917"><ele>117.0</ele><time>2026-05-04T09:40:16.794Z</time></trkpt><trkpt lat="52.87837" lon="-1.85175"><ele>117.0</ele><time>2026-05-04T09:40:17.793Z</time></trkpt><trkpt lat="52.8782467" lon="-1.8516167"><ele>117.0</ele><time>2026-05-04T09:40:18.792Z</time></trkpt><trkpt lat="52.8781267" lon="-1.8514883"><ele>117.0</ele><time>2026-05-04T09:40:19.794Z</time></trkpt><trkpt lat="52.8779983" lon="-1.8513733"><ele>117.0</ele><time>2026-05-04T09:40:20.793Z</time></trkpt><trkpt lat="52.877865" lon="-1.8512767"><ele>117.0</ele><time>2026-05-04T09:40:21.793Z</time></trkpt><trkpt lat="52.87773" lon="-1.8512183"><ele>117.0</ele><time>2026-05-04T09:40:22.792Z</time></trkpt><trkpt lat="52.87759" lon="-1.85118"><ele>117.0</ele><time>2026-05-04T09:40:23.795Z</time></trkpt><trkpt lat="52.87744" lon="-1.85116"><ele>117.0</ele><time>2026-05-04T09:40:24.794Z</time></trkpt><trkpt lat="52.8772883" lon="-1.8511467"><ele>116.0</ele><time>2026-05-04T09:40:25.794Z</time></trkpt><trkpt lat="52.8771383" lon="-1.85113"><ele>115.0</ele><time>2026-05-04T09:40:26.793Z</time></trkpt><trkpt lat="52.87699" lon="-1.8511117"><ele>114.0</ele><time>2026-05-04T09:40:27.793Z</time></trkpt><trkpt lat="52.87684" lon="-1.851095"><ele>113.0</ele><time>2026-05-04T09:40:28.793Z</time></trkpt><trkpt lat="52.8766883" lon="-1.851075"><ele>111.5</ele><time>2026-05-04T09:40:29.794Z</time></trkpt><trkpt lat="52.8765367" lon="-1.8510567"><ele>110.0</ele><time>2026-05-04T09:40:30.793Z</time></trkpt><trkpt lat="52.8763883" lon="-1.8510317"><ele>108.5</ele><time>2026-05-04T09:40:31.793Z</time></trkpt><trkpt lat="52.8762467" lon="-1.8510017"><ele>107.0</ele><time>2026-05-04T09:40:32.793Z</time></trkpt><trkpt lat="52.8761067" lon="-1.8509567"><ele>107.0</ele><time>2026-05-04T09:40:33.792Z</time></trkpt><trkpt lat="52.8759683" lon="-1.8508683"><ele>107.0</ele><time>2026-05-04T09:40:34.793Z</time></trkpt><trkpt lat="52.87584" lon="-1.8507433"><ele>107.0</ele><time>2026-05-04T09:40:35.791Z</time></trkpt><trkpt lat="52.87572" lon="-1.8505967"><ele>107.0</ele><time>2026-05-04T09:40:36.793Z</time></trkpt><trkpt lat="52.875615" lon="-1.8504167"><ele>105.75</ele><time>2026-05-04T09:40:37.793Z</time></trkpt><trkpt lat="52.8755433" lon="-1.8502083"><ele>104.5</ele><time>2026-05-04T09:40:38.793Z</time></trkpt><trkpt lat="52.8754967" lon="-1.8499733"><ele>103.25</ele><time>2026-05-04T09:40:39.793Z</time></trkpt><trkpt lat="52.8754733" lon="-1.8497283"><ele>102.0</ele><time>2026-05-04T09:40:40.793Z</time></trkpt><trkpt lat="52.8754583" lon="-1.8494767"><ele>101.0</ele><time>2026-05-04T09:40:41.793Z</time></trkpt><trkpt lat="52.8754467" lon="-1.8492217"><ele>100.0</ele><time>2026-05-04T09:40:42.793Z</time></trkpt><trkpt lat="52.87543" lon="-1.848975"><ele>99.0</ele><time>2026-05-04T09:40:43.793Z</time></trkpt><trkpt lat="52.8754133" lon="-1.848735"><ele>99.0</ele><time>2026-05-04T09:40:44.792Z</time></trkpt><trkpt lat="52.8753967" lon="-1.8484867"><ele>99.0</ele><time>2026-05-04T09:40:45.792Z</time></trkpt><trkpt lat="52.8753817" lon="-1.8482417"><ele>99.0</ele><time>2026-05-04T09:40:46.794Z</time></trkpt><trkpt lat="52.8753667" lon="-1.8479917"><ele>99.0</ele><time>2026-05-04T09:40:47.793Z</time></trkpt><trkpt lat="52.87535" lon="-1.847745"><ele>99.0</ele><time>2026-05-04T09:40:48.794Z</time></trkpt><trkpt lat="52.875335" lon="-1.8474933"><ele>99.0</ele><time>2026-05-04T09:40:49.794Z</time></trkpt><trkpt lat="52.8753233" lon="-1.84724"><ele>99.25</ele><time>2026-05-04T09:40:50.793Z</time></trkpt><trkpt lat="52.8753167" lon="-1.846995"><ele>99.5</ele><time>2026-05-04T09:40:51.794Z</time></trkpt><trkpt lat="52.8753117" lon="-1.846745"><ele>99.75</ele><time>2026-05-04T09:40:52.794Z</time></trkpt><trkpt lat="52.8753133" lon="-1.8465"><ele>100.0</ele><time>2026-05-04T09:40:53.793Z</time></trkpt><trkpt lat="52.8753183" lon="-1.8462583"><ele>100.33333333333334</ele><time>2026-05-04T09:40:54.792Z</time></trkpt><trkpt lat="52.8753267" lon="-1.846015"><ele>100.66666666666666</ele><time>2026-05-04T09:40:55.793Z</time></trkpt><trkpt lat="52.8753367" lon="-1.8457733"><ele>101.0</ele><time>2026-05-04T09:40:56.792Z</time></trkpt><trkpt lat="52.8753517" lon="-1.845515"><ele>101.0</ele><time>2026-05-04T09:40:57.793Z</time></trkpt><trkpt lat="52.8753633" lon="-1.8452517"><ele>101.0</ele><time>2026-05-04T09:40:58.794Z</time></trkpt><trkpt lat="52.8753833" lon="-1.8450033"><ele>101.0</ele><time>2026-05-04T09:40:59.794Z</time></trkpt><trkpt lat="52.875405" lon="-1.8447517"><ele>100.0</ele><time>2026-05-04T09:41:00.794Z</time></trkpt><trkpt lat="52.8754233" lon="-1.84449"><ele>99.0</ele><time>2026-05-04T09:41:01.794Z</time></trkpt><trkpt lat="52.8754333" lon="-1.8442283"><ele>98.0</ele><time>2026-05-04T09:41:02.793Z</time></trkpt><trkpt lat="52.8754467" lon="-1.84397"><ele>98.0</ele><time>2026-05-04T09:41:03.792Z</time></trkpt><trkpt lat="52.875465" lon="-1.84372"><ele>98.0</ele><time>2026-05-04T09:41:04.792Z</time></trkpt><trkpt lat="52.8754783" lon="-1.8434667"><ele>98.0</ele><time>2026-05-04T09:41:05.795Z</time></trkpt><trkpt lat="52.8754883" lon="-1.8432167"><ele>97.66666666666666</ele><time>2026-05-04T09:41:06.793Z</time></trkpt><trkpt lat="52.875475" lon="-1.8429717"><ele>97.33333333333334</ele><time>2026-05-04T09:41:07.793Z</time></trkpt><trkpt lat="52.8754417" lon="-1.8427283"><ele>97.0</ele><time>2026-05-04T09:41:08.792Z</time></trkpt><trkpt lat="52.875385" lon="-1.842485"><ele>98.0</ele><time>2026-05-04T09:41:09.793Z</time></trkpt><trkpt lat="52.8753283" lon="-1.842245"><ele>99.0</ele><time>2026-05-04T09:41:10.793Z</time></trkpt><trkpt lat="52.875265" lon="-1.8420083"><ele>100.0</ele><time>2026-05-04T09:41:11.794Z</time></trkpt><trkpt lat="52.8751967" lon="-1.8417733"><ele>100.66666666666667</ele><time>2026-05-04T09:41:12.793Z</time></trkpt><trkpt lat="52.8751333" lon="-1.84154"><ele>101.33333333333334</ele><time>2026-05-04T09:41:13.793Z</time></trkpt><trkpt lat="52.875075" lon="-1.8413067"><ele>102.0</ele><time>2026-05-04T09:41:14.793Z</time></trkpt><trkpt lat="52.8750233" lon="-1.8410683"><ele>100.0</ele><time>2026-05-04T09:41:15.793Z</time></trkpt><trkpt lat="52.8749733" lon="-1.8408283"><ele>98.0</ele><time>2026-05-04T09:41:16.793Z</time></trkpt><trkpt lat="52.874925" lon="-1.8405917"><ele>96.0</ele><time>2026-05-04T09:41:17.794Z</time></trkpt><trkpt lat="52.874885" lon="-1.8403517"><ele>95.66666666666667</ele><time>2026-05-04T09:41:18.793Z</time></trkpt><trkpt lat="52.8748433" lon="-1.84011"><ele>95.33333333333334</ele><time>2026-05-04T09:41:19.794Z</time></trkpt><trkpt lat="52.8747917" lon="-1.8398717"><ele>95.0</ele><time>2026-05-04T09:41:20.793Z</time></trkpt><trkpt lat="52.874735" lon="-1.8396383"><ele>95.0</ele><time>2026-05-04T09:41:21.793Z</time></trkpt><trkpt lat="52.8746717" lon="-1.8394133"><ele>95.0</ele><time>2026-05-04T09:41:22.795Z</time></trkpt><trkpt lat="52.8746067" lon="-1.8391833"><ele>95.0</ele><time>2026-05-04T09:41:23.793Z</time></trkpt><trkpt lat="52.8745433" lon="-1.8389567"><ele>95.33333333333334</ele><time>2026-05-04T09:41:24.793Z</time></trkpt><trkpt lat="52.8744817" lon="-1.8387283"><ele>95.66666666666667</ele><time>2026-05-04T09:41:25.793Z</time></trkpt><trkpt lat="52.874425" lon="-1.8384933"><ele>96.0</ele><time>2026-05-04T09:41:26.792Z</time></trkpt><trkpt lat="52.8743633" lon="-1.8382617"><ele>96.0</ele><time>2026-05-04T09:41:27.794Z</time></trkpt><trkpt lat="52.8743017" lon="-1.838035"><ele>96.0</ele><time>2026-05-04T09:41:28.794Z</time></trkpt><trkpt lat="52.87423" lon="-1.8378117"><ele>96.0</ele><time>2026-05-04T09:41:29.794Z</time></trkpt><trkpt lat="52.8741567" lon="-1.8376"><ele>95.0</ele><time>2026-05-04T09:41:30.793Z</time></trkpt><trkpt lat="52.874085" lon="-1.8373867"><ele>94.0</ele><time>2026-05-04T09:41:31.794Z</time></trkpt><trkpt lat="52.8740117" lon="-1.8371667"><ele>93.0</ele><time>2026-05-04T09:41:32.793Z</time></trkpt><trkpt lat="52.8739367" lon="-1.836945"><ele>92.33333333333333</ele><time>2026-05-04T09:41:33.793Z</time></trkpt><trkpt lat="52.8738617" lon="-1.8367317"><ele>91.66666666666666</ele><time>2026-05-04T09:41:34.794Z</time></trkpt><trkpt lat="52.8737867" lon="-1.836505"><ele>91.0</ele><time>2026-05-04T09:41:35.795Z</time></trkpt><trkpt lat="52.8737133" lon="-1.8362817"><ele>91.0</ele><time>2026-05-04T09:41:36.794Z</time></trkpt><trkpt lat="52.8736367" lon="-1.8360633"><ele>91.0</ele><time>2026-05-04T09:41:37.794Z</time></trkpt><trkpt lat="52.8735583" lon="-1.83585"><ele>91.0</ele><time>2026-05-04T09:41:38.793Z</time></trkpt><trkpt lat="52.8734783" lon="-1.8356383"><ele>90.33333333333333</ele><time>2026-05-04T09:41:39.794Z</time></trkpt><trkpt lat="52.8733933" lon="-1.8354317"><ele>89.66666666666667</ele><time>2026-05-04T09:41:40.792Z</time></trkpt><trkpt lat="52.8732983" lon="-1.8352367"><ele>89.0</ele><time>2026-05-04T09:41:41.793Z</time></trkpt><trkpt lat="52.8731917" lon="-1.83506"><ele>89.0</ele><time>2026-05-04T09:41:42.79Z</time></trkpt><trkpt lat="52.8730833" lon="-1.8348917"><ele>89.0</ele><time>2026-05-04T09:41:43.791Z</time></trkpt><trkpt lat="52.8729917" lon="-1.8347033"><ele>89.0</ele><time>2026-05-04T09:41:44.795Z</time></trkpt><trkpt lat="52.872915" lon="-1.8344983"><ele>89.0</ele><time>2026-05-04T09:41:45.795Z</time></trkpt><trkpt lat="52.8728533" lon="-1.83428"><ele>89.5</ele><time>2026-05-04T09:41:46.791Z</time></trkpt><trkpt lat="52.8728133" lon="-1.834045"><ele>90.0</ele><time>2026-05-04T09:41:47.791Z</time></trkpt><trkpt lat="52.872785" lon="-1.8338017"><ele>90.5</ele><time>2026-05-04T09:41:48.791Z</time></trkpt><trkpt lat="52.8727583" lon="-1.8335533"><ele>91.0</ele><time>2026-05-04T09:41:49.792Z</time></trkpt><trkpt lat="52.87273" lon="-1.833295"><ele>91.0</ele><time>2026-05-04T09:41:50.792Z</time></trkpt><trkpt lat="52.8726983" lon="-1.8330433"><ele>91.0</ele><time>2026-05-04T09:41:51.792Z</time></trkpt><trkpt lat="52.872675" lon="-1.8328033"><ele>91.0</ele><time>2026-05-04T09:41:52.793Z</time></trkpt><trkpt lat="52.8726467" lon="-1.832565"><ele>91.0</ele><time>2026-05-04T09:41:53.793Z</time></trkpt><trkpt lat="52.8726183" lon="-1.83232"><ele>90.0</ele><time>2026-05-04T09:41:54.791Z</time></trkpt><trkpt lat="52.87259" lon="-1.8320767"><ele>89.0</ele><time>2026-05-04T09:41:55.792Z</time></trkpt><trkpt lat="52.8725633" lon="-1.831835"><ele>88.0</ele><time>2026-05-04T09:41:56.792Z</time></trkpt><trkpt lat="52.8725333" lon="-1.8315933"><ele>87.0</ele><time>2026-05-04T09:41:57.792Z</time></trkpt><trkpt lat="52.8725033" lon="-1.8313483"><ele>86.66666666666667</ele><time>2026-05-04T09:41:58.792Z</time></trkpt><trkpt lat="52.8724767" lon="-1.8311033"><ele>86.33333333333334</ele><time>2026-05-04T09:41:59.793Z</time></trkpt><trkpt lat="52.8724467" lon="-1.8308617"><ele>86.0</ele><time>2026-05-04T09:42:00.79Z</time></trkpt><trkpt lat="52.8724183" lon="-1.8306117"><ele>86.0</ele><time>2026-05-04T09:42:01.793Z</time></trkpt><trkpt lat="52.87239" lon="-1.8303583"><ele>86.0</ele><time>2026-05-04T09:42:02.792Z</time></trkpt><trkpt lat="52.872365" lon="-1.8301133"><ele>86.0</ele><time>2026-05-04T09:42:03.791Z</time></trkpt><trkpt lat="52.8723417" lon="-1.8298617"><ele>85.66666666666667</ele><time>2026-05-04T09:42:04.792Z</time></trkpt><trkpt lat="52.8723233" lon="-1.829615"><ele>85.33333333333333</ele><time>2026-05-04T09:42:05.792Z</time></trkpt><trkpt lat="52.8722867" lon="-1.8293683"><ele>85.0</ele><time>2026-05-04T09:42:06.791Z</time></trkpt><trkpt lat="52.8722383" lon="-1.8291367"><ele>85.0</ele><time>2026-05-04T09:42:07.791Z</time></trkpt><trkpt lat="52.87217" lon="-1.8289183"><ele>85.0</ele><time>2026-05-04T09:42:08.79Z</time></trkpt><trkpt lat="52.8720917" lon="-1.8287033"><ele>85.0</ele><time>2026-05-04T09:42:09.792Z</time></trkpt><trkpt lat="52.8720117" lon="-1.8284883"><ele>84.66666666666666</ele><time>2026-05-04T09:42:10.794Z</time></trkpt><trkpt lat="52.8719317" lon="-1.828275"><ele>84.33333333333333</ele><time>2026-05-04T09:42:11.791Z</time></trkpt><trkpt lat="52.87186" lon="-1.82805"><ele>84.0</ele><time>2026-05-04T09:42:12.795Z</time></trkpt><trkpt lat="52.8717983" lon="-1.8278133"><ele>84.0</ele><time>2026-05-04T09:42:13.792Z</time></trkpt><trkpt lat="52.8717383" lon="-1.827575"><ele>84.0</ele><time>2026-05-04T09:42:14.791Z</time></trkpt><trkpt lat="52.8716917" lon="-1.8273383"><ele>84.0</ele><time>2026-05-04T09:42:15.793Z</time></trkpt><trkpt lat="52.8716567" lon="-1.8270867"><ele>84.0</ele><time>2026-05-04T09:42:16.792Z</time></trkpt><trkpt lat="52.8716267" lon="-1.8268333"><ele>84.0</ele><time>2026-05-04T09:42:17.792Z</time></trkpt><trkpt lat="52.8716067" lon="-1.82658"><ele>84.0</ele><time>2026-05-04T09:42:18.792Z</time></trkpt><trkpt lat="52.87159" lon="-1.826325"><ele>84.0</ele><time>2026-05-04T09:42:19.792Z</time></trkpt><trkpt lat="52.8715833" lon="-1.8260733"><ele>84.0</ele><time>2026-05-04T09:42:20.793Z</time></trkpt><trkpt lat="52.8715767" lon="-1.8258283"><ele>84.0</ele><time>2026-05-04T09:42:21.792Z</time></trkpt><trkpt lat="52.8715733" lon="-1.825595"><ele>84.0</ele><time>2026-05-04T09:42:22.792Z</time></trkpt><trkpt lat="52.8715717" lon="-1.8253717"><ele>84.0</ele><time>2026-05-04T09:42:23.794Z</time></trkpt><trkpt lat="52.8715717" lon="-1.825165"><ele>84.0</ele><time>2026-05-04T09:42:24.792Z</time></trkpt><trkpt lat="52.8715717" lon="-1.8249633"><ele>84.0</ele><time>2026-05-04T09:42:25.793Z</time></trkpt><trkpt lat="52.8715767" lon="-1.8247683"><ele>84.0</ele><time>2026-05-04T09:42:26.791Z</time></trkpt><trkpt lat="52.8715867" lon="-1.8245767"><ele>84.0</ele><time>2026-05-04T09:42:27.792Z</time></trkpt><trkpt lat="52.8715967" lon="-1.8243817"><ele>84.0</ele><time>2026-05-04T09:42:28.792Z</time></trkpt><trkpt lat="52.8716067" lon="-1.8241933"><ele>84.0</ele><time>2026-05-04T09:42:29.791Z</time></trkpt><trkpt lat="52.87162" lon="-1.8240317"><ele>84.0</ele><time>2026-05-04T09:42:30.792Z</time></trkpt><trkpt lat="52.8716367" lon="-1.8238667"><ele>84.0</ele><time>2026-05-04T09:42:31.792Z</time></trkpt><trkpt lat="52.87166" lon="-1.8236917"><ele>84.0</ele><time>2026-05-04T09:42:32.791Z</time></trkpt><trkpt lat="52.8716883" lon="-1.8235017"><ele>84.0</ele><time>2026-05-04T09:42:33.791Z</time></trkpt><trkpt lat="52.8717217" lon="-1.8233017"><ele>84.0</ele><time>2026-05-04T09:42:34.792Z</time></trkpt><trkpt lat="52.871755" lon="-1.8231"><ele>84.0</ele><time>2026-05-04T09:42:35.792Z</time></trkpt><trkpt lat="52.8717983" lon="-1.8228967"><ele>85.0</ele><time>2026-05-04T09:42:36.791Z</time></trkpt><trkpt lat="52.8718483" lon="-1.8227"><ele>86.0</ele><time>2026-05-04T09:42:37.792Z</time></trkpt><trkpt lat="52.8719" lon="-1.8225117"><ele>87.0</ele><time>2026-05-04T09:42:38.796Z</time></trkpt><trkpt lat="52.87195" lon="-1.8223383"><ele>88.0</ele><time>2026-05-04T09:42:39.792Z</time></trkpt><trkpt lat="52.8719917" lon="-1.8221783"><ele>88.0</ele><time>2026-05-04T09:42:40.792Z</time></trkpt><trkpt lat="52.8720317" lon="-1.82203"><ele>88.0</ele><time>2026-05-04T09:42:41.793Z</time></trkpt><trkpt lat="52.8720733" lon="-1.8218883"><ele>88.0</ele><time>2026-05-04T09:42:42.792Z</time></trkpt><trkpt lat="52.8721167" lon="-1.8217283"><ele>88.0</ele><time>2026-05-04T09:42:43.793Z</time></trkpt><trkpt lat="52.872155" lon="-1.82156"><ele>88.0</ele><time>2026-05-04T09:42:44.792Z</time></trkpt><trkpt lat="52.8721933" lon="-1.8213967"><ele>87.60000000000001</ele><time>2026-05-04T09:42:45.792Z</time></trkpt><trkpt lat="52.872215" lon="-1.8212367"><ele>87.2</ele><time>2026-05-04T09:42:46.795Z</time></trkpt><trkpt lat="52.8722283" lon="-1.8210767"><ele>86.8</ele><time>2026-05-04T09:42:47.793Z</time></trkpt><trkpt lat="52.8722383" lon="-1.8209117"><ele>86.4</ele><time>2026-05-04T09:42:48.793Z</time></trkpt><trkpt lat="52.87224" lon="-1.8207333"><ele>86.0</ele><time>2026-05-04T09:42:49.794Z</time></trkpt><trkpt lat="52.872235" lon="-1.820545"><ele>85.75</ele><time>2026-05-04T09:42:50.793Z</time></trkpt><trkpt lat="52.8722233" lon="-1.820355"><ele>85.5</ele><time>2026-05-04T09:42:51.792Z</time></trkpt><trkpt lat="52.8722167" lon="-1.820165"><ele>85.25</ele><time>2026-05-04T09:42:52.793Z</time></trkpt><trkpt lat="52.87221" lon="-1.8199767"><ele>85.0</ele><time>2026-05-04T09:42:53.793Z</time></trkpt><trkpt lat="52.8722017" lon="-1.8197917"><ele>85.0</ele><time>2026-05-04T09:42:54.794Z</time></trkpt><trkpt lat="52.8722017" lon="-1.81961"><ele>85.0</ele><time>2026-05-04T09:42:55.793Z</time></trkpt><trkpt lat="52.8722083" lon="-1.8194333"><ele>85.0</ele><time>2026-05-04T09:42:56.793Z</time></trkpt><trkpt lat="52.872225" lon="-1.8192667"><ele>85.0</ele><time>2026-05-04T09:42:57.792Z</time></trkpt><trkpt lat="52.87225" lon="-1.819105"><ele>85.0</ele><time>2026-05-04T09:42:58.793Z</time></trkpt><trkpt lat="52.87229" lon="-1.81895"><ele>85.0</ele><time>2026-05-04T09:42:59.793Z</time></trkpt><trkpt lat="52.8723317" lon="-1.818795"><ele>85.0</ele><time>2026-05-04T09:43:00.793Z</time></trkpt><trkpt lat="52.8723817" lon="-1.8186317"><ele>85.0</ele><time>2026-05-04T09:43:01.792Z</time></trkpt><trkpt lat="52.8724317" lon="-1.8184667"><ele>85.0</ele><time>2026-05-04T09:43:02.792Z</time></trkpt><trkpt lat="52.87248" lon="-1.8183"><ele>85.0</ele><time>2026-05-04T09:43:03.792Z</time></trkpt><trkpt lat="52.8725233" lon="-1.818125"><ele>85.25</ele><time>2026-05-04T09:43:04.792Z</time></trkpt><trkpt lat="52.8725583" lon="-1.8179383"><ele>85.5</ele><time>2026-05-04T09:43:05.793Z</time></trkpt><trkpt lat="52.872575" lon="-1.8177317"><ele>85.75</ele><time>2026-05-04T09:43:06.793Z</time></trkpt><trkpt lat="52.872585" lon="-1.81753"><ele>86.0</ele><time>2026-05-04T09:43:07.793Z</time></trkpt><trkpt lat="52.8725967" lon="-1.8173383"><ele>86.0</ele><time>2026-05-04T09:43:08.793Z</time></trkpt><trkpt lat="52.8725967" lon="-1.8171483"><ele>86.0</ele><time>2026-05-04T09:43:09.793Z</time></trkpt><trkpt lat="52.8726" lon="-1.8169567"><ele>86.0</ele><time>2026-05-04T09:43:10.793Z</time></trkpt><trkpt lat="52.8725983" lon="-1.8167683"><ele>86.0</ele><time>2026-05-04T09:43:11.793Z</time></trkpt><trkpt lat="52.8725967" lon="-1.81659"><ele>86.0</ele><time>2026-05-04T09:43:12.792Z</time></trkpt><trkpt lat="52.87259" lon="-1.8164133"><ele>86.0</ele><time>2026-05-04T09:43:13.792Z</time></trkpt><trkpt lat="52.87259" lon="-1.81625"><ele>86.0</ele><time>2026-05-04T09:43:14.792Z</time></trkpt><trkpt lat="52.8725933" lon="-1.81609"><ele>86.0</ele><time>2026-05-04T09:43:15.792Z</time></trkpt><trkpt lat="52.8725983" lon="-1.8159267"><ele>86.0</ele><time>2026-05-04T09:43:16.792Z</time></trkpt><trkpt lat="52.872615" lon="-1.815765"><ele>86.6</ele><time>2026-05-04T09:43:17.793Z</time></trkpt><trkpt lat="52.8726317" lon="-1.8155883"><ele>87.19999999999999</ele><time>2026-05-04T09:43:18.793Z</time></trkpt><trkpt lat="52.8726517" lon="-1.815405"><ele>87.80000000000001</ele><time>2026-05-04T09:43:19.793Z</time></trkpt><trkpt lat="52.8726783" lon="-1.8152217"><ele>88.4</ele><time>2026-05-04T09:43:20.793Z</time></trkpt><trkpt lat="52.8727017" lon="-1.8150383"><ele>89.0</ele><time>2026-05-04T09:43:21.793Z</time></trkpt><trkpt lat="52.872725" lon="-1.81485"><ele>89.0</ele><time>2026-05-04T09:43:22.792Z</time></trkpt><trkpt lat="52.87275" lon="-1.8146583"><ele>89.0</ele><time>2026-05-04T09:43:23.792Z</time></trkpt><trkpt lat="52.872775" lon="-1.8144583"><ele>89.0</ele><time>2026-05-04T09:43:24.793Z</time></trkpt><trkpt lat="52.8728" lon="-1.8142617"><ele>89.0</ele><time>2026-05-04T09:43:25.793Z</time></trkpt><trkpt lat="52.872825" lon="-1.8140733"><ele>89.0</ele><time>2026-05-04T09:43:26.793Z</time></trkpt><trkpt lat="52.8728433" lon="-1.81388"><ele>89.0</ele><time>2026-05-04T09:43:27.792Z</time></trkpt><trkpt lat="52.872865" lon="-1.8136833"><ele>89.0</ele><time>2026-05-04T09:43:28.792Z</time></trkpt><trkpt lat="52.872885" lon="-1.8134867"><ele>89.0</ele><time>2026-05-04T09:43:29.793Z</time></trkpt><trkpt lat="52.872905" lon="-1.813295"><ele>89.0</ele><time>2026-05-04T09:43:30.792Z</time></trkpt><trkpt lat="52.8729267" lon="-1.8131067"><ele>89.0</ele><time>2026-05-04T09:43:31.792Z</time></trkpt><trkpt lat="52.87295" lon="-1.8129183"><ele>89.0</ele><time>2026-05-04T09:43:32.795Z</time></trkpt><trkpt lat="52.8729717" lon="-1.8127267"><ele>89.0</ele><time>2026-05-04T09:43:33.793Z</time></trkpt><trkpt lat="52.8729967" lon="-1.8125433"><ele>89.0</ele><time>2026-05-04T09:43:34.792Z</time></trkpt><trkpt lat="52.8730167" lon="-1.8123583"><ele>89.0</ele><time>2026-05-04T09:43:35.793Z</time></trkpt><trkpt lat="52.8730367" lon="-1.81218"><ele>89.0</ele><time>2026-05-04T09:43:36.793Z</time></trkpt><trkpt lat="52.8730567" lon="-1.8120167"><ele>89.0</ele><time>2026-05-04T09:43:37.792Z</time></trkpt><trkpt lat="52.8730767" lon="-1.8118567"><ele>89.0</ele><time>2026-05-04T09:43:38.793Z</time></trkpt><trkpt lat="52.873095" lon="-1.8116983"><ele>89.0</ele><time>2026-05-04T09:43:39.793Z</time></trkpt><trkpt lat="52.8731167" lon="-1.8115467"><ele>89.0</ele><time>2026-05-04T09:43:40.791Z</time></trkpt><trkpt lat="52.8731317" lon="-1.8114083"><ele>89.0</ele><time>2026-05-04T09:43:41.792Z</time></trkpt><trkpt lat="52.87314" lon="-1.8112983"><ele>89.0</ele><time>2026-05-04T09:43:42.793Z</time></trkpt><trkpt lat="52.8731117" lon="-1.81112"><ele>89.0</ele><time>2026-05-04T09:43:44.793Z</time></trkpt><trkpt lat="52.873015" lon="-1.8109583"><ele>89.0</ele><time>2026-05-04T09:43:46.793Z</time></trkpt><trkpt lat="52.87294" lon="-1.8108917"><ele>89.0</ele><time>2026-05-04T09:43:47.795Z</time></trkpt><trkpt lat="52.8728633" lon="-1.8108267"><ele>89.0</ele><time>2026-05-04T09:43:48.791Z</time></trkpt><trkpt lat="52.872785" lon="-1.8107567"><ele>89.0</ele><time>2026-05-04T09:43:49.792Z</time></trkpt><trkpt lat="52.8727033" lon="-1.8106917"><ele>89.0</ele><time>2026-05-04T09:43:50.792Z</time></trkpt><trkpt lat="52.8726233" lon="-1.810615"><ele>89.0</ele><time>2026-05-04T09:43:51.795Z</time></trkpt><trkpt lat="52.872535" lon="-1.8105383"><ele>88.5</ele><time>2026-05-04T09:43:52.795Z</time></trkpt><trkpt lat="52.8724383" lon="-1.8104483"><ele>88.0</ele><time>2026-05-04T09:43:53.795Z</time></trkpt><trkpt lat="52.8723367" lon="-1.8103567"><ele>87.5</ele><time>2026-05-04T09:43:54.796Z</time></trkpt><trkpt lat="52.8722333" lon="-1.81026"><ele>87.0</ele><time>2026-05-04T09:43:55.796Z</time></trkpt><trkpt lat="52.8721317" lon="-1.8101617"><ele>86.75</ele><time>2026-05-04T09:43:56.792Z</time></trkpt><trkpt lat="52.872025" lon="-1.8100633"><ele>86.5</ele><time>2026-05-04T09:43:57.796Z</time></trkpt><trkpt lat="52.8719183" lon="-1.8099633"><ele>86.25</ele><time>2026-05-04T09:43:58.794Z</time></trkpt><trkpt lat="52.87181" lon="-1.8098567"><ele>86.0</ele><time>2026-05-04T09:43:59.792Z</time></trkpt><trkpt lat="52.8717033" lon="-1.80975"><ele>85.25</ele><time>2026-05-04T09:44:00.795Z</time></trkpt><trkpt lat="52.8715983" lon="-1.8096333"><ele>84.5</ele><time>2026-05-04T09:44:01.795Z</time></trkpt><trkpt lat="52.8714983" lon="-1.8095183"><ele>83.75</ele><time>2026-05-04T09:44:02.795Z</time></trkpt><trkpt lat="52.8714017" lon="-1.8094017"><ele>83.0</ele><time>2026-05-04T09:44:03.794Z</time></trkpt><trkpt lat="52.8713067" lon="-1.8092817"><ele>82.5</ele><time>2026-05-04T09:44:04.795Z</time></trkpt><trkpt lat="52.871215" lon="-1.8091567"><ele>82.0</ele><time>2026-05-04T09:44:05.795Z</time></trkpt><trkpt lat="52.8711233" lon="-1.80903"><ele>81.5</ele><time>2026-05-04T09:44:06.794Z</time></trkpt><trkpt lat="52.8710333" lon="-1.8089067"><ele>81.0</ele><time>2026-05-04T09:44:07.795Z</time></trkpt><trkpt lat="52.870945" lon="-1.8087833"><ele>80.25</ele><time>2026-05-04T09:44:08.792Z</time></trkpt><trkpt lat="52.87086" lon="-1.8086633"><ele>79.5</ele><time>2026-05-04T09:44:09.793Z</time></trkpt><trkpt lat="52.8707683" lon="-1.8085417"><ele>78.75</ele><time>2026-05-04T09:44:10.793Z</time></trkpt><trkpt lat="52.8706683" lon="-1.808415"><ele>78.0</ele><time>2026-05-04T09:44:11.795Z</time></trkpt><trkpt lat="52.8705633" lon="-1.8082967"><ele>78.0</ele><time>2026-05-04T09:44:12.791Z</time></trkpt><trkpt lat="52.8704533" lon="-1.80819"><ele>78.0</ele><time>2026-05-04T09:44:13.794Z</time></trkpt><trkpt lat="52.8703317" lon="-1.8081033"><ele>78.0</ele><time>2026-05-04T09:44:14.791Z</time></trkpt><trkpt lat="52.8702133" lon="-1.80804"><ele>78.0</ele><time>2026-05-04T09:44:15.794Z</time></trkpt><trkpt lat="52.8700933" lon="-1.8079867"><ele>78.25</ele><time>2026-05-04T09:44:16.791Z</time></trkpt><trkpt lat="52.8699717" lon="-1.80794"><ele>78.5</ele><time>2026-05-04T09:44:17.792Z</time></trkpt><trkpt lat="52.8698517" lon="-1.8079"><ele>78.75</ele><time>2026-05-04T09:44:18.795Z</time></trkpt><trkpt lat="52.86974" lon="-1.8078583"><ele>79.0</ele><time>2026-05-04T09:44:19.791Z</time></trkpt><trkpt lat="52.8696283" lon="-1.807815"><ele>79.0</ele><time>2026-05-04T09:44:20.795Z</time></trkpt><trkpt lat="52.8695167" lon="-1.8077633"><ele>79.0</ele><time>2026-05-04T09:44:21.794Z</time></trkpt><trkpt lat="52.869405" lon="-1.8077017"><ele>79.0</ele><time>2026-05-04T09:44:22.792Z</time></trkpt><trkpt lat="52.8692967" lon="-1.8076283"><ele>79.0</ele><time>2026-05-04T09:44:23.791Z</time></trkpt><trkpt lat="52.8691867" lon="-1.8075467"><ele>78.0</ele><time>2026-05-04T09:44:24.795Z</time></trkpt><trkpt lat="52.869075" lon="-1.807455"><ele>77.0</ele><time>2026-05-04T09:44:25.794Z</time></trkpt><trkpt lat="52.8689567" lon="-1.8073517"><ele>76.0</ele><time>2026-05-04T09:44:26.795Z</time></trkpt><trkpt lat="52.8688383" lon="-1.8072433"><ele>75.0</ele><time>2026-05-04T09:44:27.791Z</time></trkpt><trkpt lat="52.8687267" lon="-1.8071433"><ele>75.0</ele><time>2026-05-04T09:44:28.792Z</time></trkpt><trkpt lat="52.8686183" lon="-1.8070533"><ele>75.0</ele><time>2026-05-04T09:44:29.792Z</time></trkpt><trkpt lat="52.8685133" lon="-1.8069633"><ele>75.0</ele><time>2026-05-04T09:44:30.792Z</time></trkpt><trkpt lat="52.86841" lon="-1.8068817"><ele>75.0</ele><time>2026-05-04T09:44:31.792Z</time></trkpt><trkpt lat="52.8683067" lon="-1.80682"><ele>75.25</ele><time>2026-05-04T09:44:32.791Z</time></trkpt><trkpt lat="52.8681933" lon="-1.8067817"><ele>75.5</ele><time>2026-05-04T09:44:33.791Z</time></trkpt><trkpt lat="52.86808" lon="-1.8067617"><ele>75.75</ele><time>2026-05-04T09:44:34.791Z</time></trkpt><trkpt lat="52.8679667" lon="-1.8067617"><ele>76.0</ele><time>2026-05-04T09:44:35.792Z</time></trkpt><trkpt lat="52.8678567" lon="-1.806785"><ele>76.0</ele><time>2026-05-04T09:44:36.791Z</time></trkpt><trkpt lat="52.8677467" lon="-1.8068233"><ele>76.0</ele><time>2026-05-04T09:44:37.791Z</time></trkpt><trkpt lat="52.8676367" lon="-1.8068667"><ele>76.0</ele><time>2026-05-04T09:44:38.792Z</time></trkpt><trkpt lat="52.8675267" lon="-1.8069083"><ele>76.0</ele><time>2026-05-04T09:44:39.791Z</time></trkpt><trkpt lat="52.8674167" lon="-1.8069483"><ele>75.75</ele><time>2026-05-04T09:44:40.79Z</time></trkpt><trkpt lat="52.8673017" lon="-1.8069867"><ele>75.5</ele><time>2026-05-04T09:44:41.792Z</time></trkpt><trkpt lat="52.8671833" lon="-1.8070217"><ele>75.25</ele><time>2026-05-04T09:44:42.792Z</time></trkpt><trkpt lat="52.8670667" lon="-1.807035"><ele>75.0</ele><time>2026-05-04T09:44:43.79Z</time></trkpt><trkpt lat="52.8669517" lon="-1.8070133"><ele>75.0</ele><time>2026-05-04T09:44:44.791Z</time></trkpt><trkpt lat="52.8668367" lon="-1.8069633"><ele>75.0</ele><time>2026-05-04T09:44:45.79Z</time></trkpt><trkpt lat="52.866725" lon="-1.8068917"><ele>75.0</ele><time>2026-05-04T09:44:46.792Z</time></trkpt><trkpt lat="52.866625" lon="-1.806795"><ele>75.0</ele><time>2026-05-04T09:44:47.792Z</time></trkpt><trkpt lat="52.8665233" lon="-1.8066883"><ele>75.5</ele><time>2026-05-04T09:44:48.792Z</time></trkpt><trkpt lat="52.8664283" lon="-1.80657"><ele>76.0</ele><time>2026-05-04T09:44:49.792Z</time></trkpt><trkpt lat="52.8663433" lon="-1.8064333"><ele>76.5</ele><time>2026-05-04T09:44:50.791Z</time></trkpt><trkpt lat="52.866265" lon="-1.8062933"><ele>77.0</ele><time>2026-05-04T09:44:51.791Z</time></trkpt><trkpt lat="52.8661933" lon="-1.806145"><ele>77.0</ele><time>2026-05-04T09:44:52.795Z</time></trkpt><trkpt lat="52.86612" lon="-1.8059867"><ele>77.0</ele><time>2026-05-04T09:44:53.791Z</time></trkpt><trkpt lat="52.8660533" lon="-1.805815"><ele>77.0</ele><time>2026-05-04T09:44:54.792Z</time></trkpt><trkpt lat="52.86599" lon="-1.8056367"><ele>77.0</ele><time>2026-05-04T09:44:55.795Z</time></trkpt><trkpt lat="52.86593" lon="-1.805455"><ele>78.0</ele><time>2026-05-04T09:44:56.791Z</time></trkpt><trkpt lat="52.865875" lon="-1.80526"><ele>79.0</ele><time>2026-05-04T09:44:57.792Z</time></trkpt><trkpt lat="52.8658267" lon="-1.805065"><ele>80.0</ele><time>2026-05-04T09:44:58.792Z</time></trkpt><trkpt lat="52.865785" lon="-1.8048683"><ele>81.0</ele><time>2026-05-04T09:44:59.792Z</time></trkpt><trkpt lat="52.8657467" lon="-1.80468"><ele>81.0</ele><time>2026-05-04T09:45:00.793Z</time></trkpt><trkpt lat="52.8657167" lon="-1.804485"><ele>81.0</ele><time>2026-05-04T09:45:01.792Z</time></trkpt><trkpt lat="52.8656833" lon="-1.8042967"><ele>81.0</ele><time>2026-05-04T09:45:02.793Z</time></trkpt><trkpt lat="52.8656467" lon="-1.8041083"><ele>81.0</ele><time>2026-05-04T09:45:03.793Z</time></trkpt><trkpt lat="52.865615" lon="-1.8039133"><ele>81.0</ele><time>2026-05-04T09:45:04.793Z</time></trkpt><trkpt lat="52.8655817" lon="-1.803725"><ele>81.0</ele><time>2026-05-04T09:45:05.794Z</time></trkpt><trkpt lat="52.865545" lon="-1.8035533"><ele>81.0</ele><time>2026-05-04T09:45:06.793Z</time></trkpt><trkpt lat="52.8655117" lon="-1.8034033"><ele>81.0</ele><time>2026-05-04T09:45:07.791Z</time></trkpt><trkpt lat="52.865475" lon="-1.803275"><ele>81.0</ele><time>2026-05-04T09:45:08.791Z</time></trkpt><trkpt lat="52.8654283" lon="-1.803155"><ele>81.0</ele><time>2026-05-04T09:45:09.791Z</time></trkpt><trkpt lat="52.86538" lon="-1.80305"><ele>81.0</ele><time>2026-05-04T09:45:10.793Z</time></trkpt><trkpt lat="52.86533" lon="-1.80293"><ele>81.0</ele><time>2026-05-04T09:45:12.795Z</time></trkpt><trkpt lat="52.865305" lon="-1.802815"><ele>81.0</ele><time>2026-05-04T09:45:15.795Z</time></trkpt><trkpt lat="52.8652567" lon="-1.8026833"><ele>81.0</ele><time>2026-05-04T09:45:17.792Z</time></trkpt><trkpt lat="52.8652217" lon="-1.8025783"><ele>81.0</ele><time>2026-05-04T09:45:18.794Z</time></trkpt><trkpt lat="52.865165" lon="-1.8024233"><ele>81.0</ele><time>2026-05-04T09:45:19.794Z</time></trkpt><trkpt lat="52.8650817" lon="-1.8022233"><ele>81.0</ele><time>2026-05-04T09:45:20.795Z</time></trkpt><trkpt lat="52.8649817" lon="-1.8020017"><ele>81.0</ele><time>2026-05-04T09:45:21.795Z</time></trkpt><trkpt lat="52.86489" lon="-1.8017983"><ele>81.33333333333333</ele><time>2026-05-04T09:45:22.794Z</time></trkpt><trkpt lat="52.8647933" lon="-1.8015983"><ele>81.66666666666666</ele><time>2026-05-04T09:45:23.791Z</time></trkpt><trkpt lat="52.8646833" lon="-1.801395"><ele>82.0</ele><time>2026-05-04T09:45:24.792Z</time></trkpt><trkpt lat="52.86457" lon="-1.8011983"><ele>82.0</ele><time>2026-05-04T09:45:25.791Z</time></trkpt><trkpt lat="52.86446" lon="-1.80101"><ele>82.0</ele><time>2026-05-04T09:45:26.792Z</time></trkpt><trkpt lat="52.8643567" lon="-1.8008217"><ele>82.0</ele><time>2026-05-04T09:45:27.79Z</time></trkpt><trkpt lat="52.8642583" lon="-1.8006417"><ele>81.0</ele><time>2026-05-04T09:45:28.791Z</time></trkpt><trkpt lat="52.864165" lon="-1.8004733"><ele>80.0</ele><time>2026-05-04T09:45:29.792Z</time></trkpt><trkpt lat="52.8640767" lon="-1.8003233"><ele>79.0</ele><time>2026-05-04T09:45:30.792Z</time></trkpt><trkpt lat="52.8639867" lon="-1.8001833"><ele>78.0</ele><time>2026-05-04T09:45:31.792Z</time></trkpt><trkpt lat="52.8639017" lon="-1.8000417"><ele>77.75</ele><time>2026-05-04T09:45:32.791Z</time></trkpt><trkpt lat="52.86382" lon="-1.7998983"><ele>77.5</ele><time>2026-05-04T09:45:33.791Z</time></trkpt><trkpt lat="52.8637383" lon="-1.799755"><ele>77.25</ele><time>2026-05-04T09:45:34.792Z</time></trkpt><trkpt lat="52.8636567" lon="-1.79961"><ele>77.0</ele><time>2026-05-04T09:45:35.792Z</time></trkpt><trkpt lat="52.863575" lon="-1.7994667"><ele>77.25</ele><time>2026-05-04T09:45:36.791Z</time></trkpt><trkpt lat="52.863495" lon="-1.7993217"><ele>77.5</ele><time>2026-05-04T09:45:37.792Z</time></trkpt><trkpt lat="52.8634183" lon="-1.7991767"><ele>77.75</ele><time>2026-05-04T09:45:38.792Z</time></trkpt><trkpt lat="52.8633383" lon="-1.7990317"><ele>78.0</ele><time>2026-05-04T09:45:39.791Z</time></trkpt><trkpt lat="52.8632617" lon="-1.7988967"><ele>78.6</ele><time>2026-05-04T09:45:40.79Z</time></trkpt><trkpt lat="52.8631883" lon="-1.7987583"><ele>79.19999999999999</ele><time>2026-05-04T09:45:41.792Z</time></trkpt><trkpt lat="52.8631117" lon="-1.7986317"><ele>79.8</ele><time>2026-05-04T09:45:42.791Z</time></trkpt><trkpt lat="52.8630333" lon="-1.7985067"><ele>80.39999999999999</ele><time>2026-05-04T09:45:43.792Z</time></trkpt><trkpt lat="52.862955" lon="-1.7983883"><ele>81.0</ele><time>2026-05-04T09:45:44.791Z</time></trkpt><trkpt lat="52.8628683" lon="-1.7982883"><ele>81.19999999999999</ele><time>2026-05-04T09:45:45.792Z</time></trkpt><trkpt lat="52.8627717" lon="-1.7982117"><ele>81.39999999999999</ele><time>2026-05-04T09:45:46.792Z</time></trkpt><trkpt lat="52.8626667" lon="-1.7981583"><ele>81.6</ele><time>2026-05-04T09:45:47.791Z</time></trkpt><trkpt lat="52.8625533" lon="-1.7981267"><ele>81.8</ele><time>2026-05-04T09:45:48.792Z</time></trkpt><trkpt lat="52.8624433" lon="-1.798095"><ele>82.0</ele><time>2026-05-04T09:45:49.792Z</time></trkpt><trkpt lat="52.8623283" lon="-1.7980667"><ele>82.0</ele><time>2026-05-04T09:45:50.791Z</time></trkpt><trkpt lat="52.862215" lon="-1.7980283"><ele>82.0</ele><time>2026-05-04T09:45:51.79Z</time></trkpt><trkpt lat="52.862105" lon="-1.797975"><ele>82.0</ele><time>2026-05-04T09:45:52.792Z</time></trkpt><trkpt lat="52.8619967" lon="-1.7979083"><ele>82.0</ele><time>2026-05-04T09:45:53.792Z</time></trkpt><trkpt lat="52.8618883" lon="-1.7978383"><ele>83.25</ele><time>2026-05-04T09:45:54.791Z</time></trkpt><trkpt lat="52.8617817" lon="-1.7977633"><ele>84.5</ele><time>2026-05-04T09:45:55.79Z</time></trkpt><trkpt lat="52.861675" lon="-1.7976883"><ele>85.75</ele><time>2026-05-04T09:45:56.792Z</time></trkpt><trkpt lat="52.8615667" lon="-1.797615"><ele>87.0</ele><time>2026-05-04T09:45:57.795Z</time></trkpt><trkpt lat="52.86146" lon="-1.7975367"><ele>87.0</ele><time>2026-05-04T09:45:58.795Z</time></trkpt><trkpt lat="52.861355" lon="-1.7974483"><ele>87.0</ele><time>2026-05-04T09:45:59.795Z</time></trkpt><trkpt lat="52.861255" lon="-1.79735"><ele>87.0</ele><time>2026-05-04T09:46:00.792Z</time></trkpt><trkpt lat="52.8611683" lon="-1.797225"><ele>87.0</ele><time>2026-05-04T09:46:01.795Z</time></trkpt><trkpt lat="52.8610917" lon="-1.7970883"><ele>87.0</ele><time>2026-05-04T09:46:02.794Z</time></trkpt><trkpt lat="52.8610183" lon="-1.7969467"><ele>87.0</ele><time>2026-05-04T09:46:03.795Z</time></trkpt><trkpt lat="52.860945" lon="-1.7968017"><ele>87.0</ele><time>2026-05-04T09:46:04.795Z</time></trkpt><trkpt lat="52.8608683" lon="-1.7966517"><ele>87.0</ele><time>2026-05-04T09:46:05.795Z</time></trkpt><trkpt lat="52.8607883" lon="-1.796495"><ele>87.25</ele><time>2026-05-04T09:46:06.795Z</time></trkpt><trkpt lat="52.8607117" lon="-1.7963383"><ele>87.5</ele><time>2026-05-04T09:46:07.794Z</time></trkpt><trkpt lat="52.86064" lon="-1.79617"><ele>87.75</ele><time>2026-05-04T09:46:08.795Z</time></trkpt><trkpt lat="52.8605817" lon="-1.7959983"><ele>88.0</ele><time>2026-05-04T09:46:09.794Z</time></trkpt><trkpt lat="52.860535" lon="-1.7958233"><ele>88.0</ele><time>2026-05-04T09:46:10.795Z</time></trkpt><trkpt lat="52.8604883" lon="-1.7956517"><ele>88.0</ele><time>2026-05-04T09:46:11.792Z</time></trkpt><trkpt lat="52.8604333" lon="-1.7954833"><ele>88.0</ele><time>2026-05-04T09:46:12.792Z</time></trkpt><trkpt lat="52.8603683" lon="-1.7953233"><ele>88.0</ele><time>2026-05-04T09:46:13.791Z</time></trkpt><trkpt lat="52.860295" lon="-1.7951717"><ele>87.5</ele><time>2026-05-04T09:46:14.791Z</time></trkpt><trkpt lat="52.8602083" lon="-1.7950333"><ele>87.0</ele><time>2026-05-04T09:46:15.791Z</time></trkpt><trkpt lat="52.860115" lon="-1.7949117"><ele>86.5</ele><time>2026-05-04T09:46:16.791Z</time></trkpt><trkpt lat="52.8600233" lon="-1.7947983"><ele>86.0</ele><time>2026-05-04T09:46:17.792Z</time></trkpt><trkpt lat="52.8599333" lon="-1.7946817"><ele>86.0</ele><time>2026-05-04T09:46:18.791Z</time></trkpt><trkpt lat="52.859845" lon="-1.7945533"><ele>86.0</ele><time>2026-05-04T09:46:19.791Z</time></trkpt><trkpt lat="52.8597683" lon="-1.7944117"><ele>86.0</ele><time>2026-05-04T09:46:20.795Z</time></trkpt><trkpt lat="52.8597" lon="-1.7942567"><ele>86.0</ele><time>2026-05-04T09:46:21.794Z</time></trkpt><trkpt lat="52.8596417" lon="-1.7940983"><ele>85.25</ele><time>2026-05-04T09:46:22.792Z</time></trkpt><trkpt lat="52.85959" lon="-1.7939283"><ele>84.5</ele><time>2026-05-04T09:46:23.795Z</time></trkpt><trkpt lat="52.8595467" lon="-1.7937533"><ele>83.75</ele><time>2026-05-04T09:46:24.791Z</time></trkpt><trkpt lat="52.85951" lon="-1.793565"><ele>83.0</ele><time>2026-05-04T09:46:25.794Z</time></trkpt><trkpt lat="52.8594883" lon="-1.793375"><ele>83.0</ele><time>2026-05-04T09:46:26.791Z</time></trkpt><trkpt lat="52.85948" lon="-1.7931817"><ele>83.0</ele><time>2026-05-04T09:46:27.79Z</time></trkpt><trkpt lat="52.859475" lon="-1.7929883"><ele>83.0</ele><time>2026-05-04T09:46:28.793Z</time></trkpt><trkpt lat="52.85948" lon="-1.7928017"><ele>83.0</ele><time>2026-05-04T09:46:29.791Z</time></trkpt><trkpt lat="52.8594817" lon="-1.7926117"><ele>83.0</ele><time>2026-05-04T09:46:30.791Z</time></trkpt><trkpt lat="52.859485" lon="-1.7924217"><ele>83.0</ele><time>2026-05-04T09:46:31.791Z</time></trkpt><trkpt lat="52.859495" lon="-1.7922333"><ele>83.0</ele><time>2026-05-04T09:46:32.792Z</time></trkpt><trkpt lat="52.8595033" lon="-1.7920433"><ele>83.0</ele><time>2026-05-04T09:46:33.792Z</time></trkpt><trkpt lat="52.8595117" lon="-1.7918517"><ele>82.5</ele><time>2026-05-04T09:46:34.792Z</time></trkpt><trkpt lat="52.8595217" lon="-1.791655"><ele>82.0</ele><time>2026-05-04T09:46:35.792Z</time></trkpt><trkpt lat="52.85953" lon="-1.7914583"><ele>81.5</ele><time>2026-05-04T09:46:36.792Z</time></trkpt><trkpt lat="52.8595383" lon="-1.7912617"><ele>81.0</ele><time>2026-05-04T09:46:37.792Z</time></trkpt><trkpt lat="52.859545" lon="-1.7910617"><ele>81.0</ele><time>2026-05-04T09:46:38.791Z</time></trkpt><trkpt lat="52.85955" lon="-1.79087"><ele>81.0</ele><time>2026-05-04T09:46:39.79Z</time></trkpt><trkpt lat="52.85955" lon="-1.79068"><ele>81.0</ele><time>2026-05-04T09:46:40.792Z</time></trkpt><trkpt lat="52.8595567" lon="-1.7904933"><ele>81.0</ele><time>2026-05-04T09:46:41.791Z</time></trkpt><trkpt lat="52.8595583" lon="-1.7903083"><ele>80.75</ele><time>2026-05-04T09:46:42.79Z</time></trkpt><trkpt lat="52.8595567" lon="-1.790125"><ele>80.5</ele><time>2026-05-04T09:46:43.79Z</time></trkpt><trkpt lat="52.8595533" lon="-1.7899333"><ele>80.25</ele><time>2026-05-04T09:46:44.794Z</time></trkpt><trkpt lat="52.8595467" lon="-1.7897467"><ele>80.0</ele><time>2026-05-04T09:46:45.794Z</time></trkpt><trkpt lat="52.85954" lon="-1.7895533"><ele>80.0</ele><time>2026-05-04T09:46:46.791Z</time></trkpt><trkpt lat="52.8595367" lon="-1.7893633"><ele>80.0</ele><time>2026-05-04T09:46:47.792Z</time></trkpt><trkpt lat="52.8595283" lon="-1.7891683"><ele>80.0</ele><time>2026-05-04T09:46:48.792Z</time></trkpt><trkpt lat="52.8595033" lon="-1.788985"><ele>80.0</ele><time>2026-05-04T09:46:49.791Z</time></trkpt><trkpt lat="52.8594667" lon="-1.7888083"><ele>80.0</ele><time>2026-05-04T09:46:50.793Z</time></trkpt><trkpt lat="52.8594117" lon="-1.788645"><ele>80.0</ele><time>2026-05-04T09:46:51.793Z</time></trkpt><trkpt lat="52.859335" lon="-1.7885"><ele>80.0</ele><time>2026-05-04T09:46:52.792Z</time></trkpt><trkpt lat="52.859235" lon="-1.7883933"><ele>80.0</ele><time>2026-05-04T09:46:53.793Z</time></trkpt><trkpt lat="52.8591283" lon="-1.7882917"><ele>80.5</ele><time>2026-05-04T09:46:54.795Z</time></trkpt><trkpt lat="52.8590233" lon="-1.78819"><ele>81.0</ele><time>2026-05-04T09:46:55.795Z</time></trkpt><trkpt lat="52.8589283" lon="-1.7880817"><ele>81.5</ele><time>2026-05-04T09:46:56.795Z</time></trkpt><trkpt lat="52.8588383" lon="-1.7879583"><ele>82.0</ele><time>2026-05-04T09:46:57.795Z</time></trkpt><trkpt lat="52.8587533" lon="-1.7878267"><ele>82.0</ele><time>2026-05-04T09:46:58.792Z</time></trkpt><trkpt lat="52.8586767" lon="-1.7876783"><ele>82.0</ele><time>2026-05-04T09:46:59.792Z</time></trkpt><trkpt lat="52.858605" lon="-1.7875283"><ele>82.0</ele><time>2026-05-04T09:47:00.794Z</time></trkpt><trkpt lat="52.8585483" lon="-1.7873667"><ele>82.0</ele><time>2026-05-04T09:47:01.792Z</time></trkpt><trkpt lat="52.8584983" lon="-1.787195"><ele>82.0</ele><time>2026-05-04T09:47:02.792Z</time></trkpt><trkpt lat="52.8584533" lon="-1.7870217"><ele>82.0</ele><time>2026-05-04T09:47:03.791Z</time></trkpt><trkpt lat="52.8584167" lon="-1.786845"><ele>82.0</ele><time>2026-05-04T09:47:04.795Z</time></trkpt><trkpt lat="52.85838" lon="-1.7866683"><ele>82.0</ele><time>2026-05-04T09:47:05.795Z</time></trkpt><trkpt lat="52.85834" lon="-1.78649"><ele>82.25</ele><time>2026-05-04T09:47:06.795Z</time></trkpt><trkpt lat="52.8582983" lon="-1.7863083"><ele>82.5</ele><time>2026-05-04T09:47:07.792Z</time></trkpt><trkpt lat="52.858255" lon="-1.7861267"><ele>82.75</ele><time>2026-05-04T09:47:08.792Z</time></trkpt><trkpt lat="52.8582117" lon="-1.7859433"><ele>83.0</ele><time>2026-05-04T09:47:09.791Z</time></trkpt><trkpt lat="52.8581683" lon="-1.7857633"><ele>83.0</ele><time>2026-05-04T09:47:10.792Z</time></trkpt><trkpt lat="52.8581233" lon="-1.7855833"><ele>83.0</ele><time>2026-05-04T09:47:11.792Z</time></trkpt><trkpt lat="52.85808" lon="-1.785405"><ele>83.0</ele><time>2026-05-04T09:47:12.792Z</time></trkpt><trkpt lat="52.8580383" lon="-1.78523"><ele>83.0</ele><time>2026-05-04T09:47:13.791Z</time></trkpt><trkpt lat="52.857995" lon="-1.7850533"><ele>83.25</ele><time>2026-05-04T09:47:14.791Z</time></trkpt><trkpt lat="52.85795" lon="-1.78487"><ele>83.5</ele><time>2026-05-04T09:47:15.792Z</time></trkpt><trkpt lat="52.857905" lon="-1.784685"><ele>83.75</ele><time>2026-05-04T09:47:16.791Z</time></trkpt><trkpt lat="52.85786" lon="-1.7845017"><ele>84.0</ele><time>2026-05-04T09:47:17.792Z</time></trkpt><trkpt lat="52.8578167" lon="-1.7843233"><ele>84.0</ele><time>2026-05-04T09:47:18.794Z</time></trkpt><trkpt lat="52.8577733" lon="-1.7841517"><ele>84.0</ele><time>2026-05-04T09:47:19.79Z</time></trkpt><trkpt lat="52.8577317" lon="-1.7839733"><ele>84.0</ele><time>2026-05-04T09:47:20.793Z</time></trkpt><trkpt lat="52.857695" lon="-1.7837933"><ele>84.0</ele><time>2026-05-04T09:47:21.795Z</time></trkpt><trkpt lat="52.8576617" lon="-1.7836117"><ele>83.5</ele><time>2026-05-04T09:47:22.791Z</time></trkpt><trkpt lat="52.8576333" lon="-1.7834283"><ele>83.0</ele><time>2026-05-04T09:47:23.792Z</time></trkpt><trkpt lat="52.8576083" lon="-1.7832417"><ele>82.5</ele><time>2026-05-04T09:47:24.79Z</time></trkpt><trkpt lat="52.8575883" lon="-1.7830483"><ele>82.0</ele><time>2026-05-04T09:47:25.791Z</time></trkpt><trkpt lat="52.8575767" lon="-1.7828633"><ele>83.0</ele><time>2026-05-04T09:47:26.79Z</time></trkpt><trkpt lat="52.8575633" lon="-1.782675"><ele>84.0</ele><time>2026-05-04T09:47:27.791Z</time></trkpt><trkpt lat="52.85755" lon="-1.782485"><ele>85.0</ele><time>2026-05-04T09:47:28.791Z</time></trkpt><trkpt lat="52.8575383" lon="-1.782295"><ele>86.0</ele><time>2026-05-04T09:47:29.791Z</time></trkpt><trkpt lat="52.8575217" lon="-1.7821033"><ele>86.0</ele><time>2026-05-04T09:47:30.793Z</time></trkpt><trkpt lat="52.857505" lon="-1.78191"><ele>86.0</ele><time>2026-05-04T09:47:31.791Z</time></trkpt><trkpt lat="52.857485" lon="-1.78172"><ele>86.0</ele><time>2026-05-04T09:47:32.791Z</time></trkpt><trkpt lat="52.857465" lon="-1.7815333"><ele>86.0</ele><time>2026-05-04T09:47:33.791Z</time></trkpt><trkpt lat="52.857445" lon="-1.7813483"><ele>86.0</ele><time>2026-05-04T09:47:34.793Z</time></trkpt><trkpt lat="52.85743" lon="-1.781165"><ele>86.0</ele><time>2026-05-04T09:47:35.792Z</time></trkpt><trkpt lat="52.8574133" lon="-1.780975"><ele>86.0</ele><time>2026-05-04T09:47:36.792Z</time></trkpt><trkpt lat="52.857395" lon="-1.7807733"><ele>86.0</ele><time>2026-05-04T09:47:37.792Z</time></trkpt><trkpt lat="52.85737" lon="-1.7805833"><ele>85.75</ele><time>2026-05-04T09:47:38.791Z</time></trkpt><trkpt lat="52.85735" lon="-1.780385"><ele>85.5</ele><time>2026-05-04T09:47:39.791Z</time></trkpt><trkpt lat="52.857325" lon="-1.7802017"><ele>85.25</ele><time>2026-05-04T09:47:40.791Z</time></trkpt><trkpt lat="52.8572867" lon="-1.7800283"><ele>85.0</ele><time>2026-05-04T09:47:41.791Z</time></trkpt><trkpt lat="52.857235" lon="-1.779865"><ele>84.8</ele><time>2026-05-04T09:47:42.791Z</time></trkpt><trkpt lat="52.8571683" lon="-1.7797217"><ele>84.6</ele><time>2026-05-04T09:47:43.791Z</time></trkpt><trkpt lat="52.8570883" lon="-1.7795833"><ele>84.4</ele><time>2026-05-04T09:47:44.794Z</time></trkpt><trkpt lat="52.8570133" lon="-1.7794483"><ele>84.2</ele><time>2026-05-04T09:47:45.794Z</time></trkpt><trkpt lat="52.85694" lon="-1.7793117"><ele>84.0</ele><time>2026-05-04T09:47:46.793Z</time></trkpt><trkpt lat="52.8568633" lon="-1.779175"><ele>85.0</ele><time>2026-05-04T09:47:47.791Z</time></trkpt><trkpt lat="52.856785" lon="-1.7790433"><ele>86.0</ele><time>2026-05-04T09:47:48.795Z</time></trkpt><trkpt lat="52.8567083" lon="-1.7789067"><ele>87.0</ele><time>2026-05-04T09:47:49.795Z</time></trkpt><trkpt lat="52.8566267" lon="-1.778765"><ele>88.0</ele><time>2026-05-04T09:47:50.795Z</time></trkpt><trkpt lat="52.8565417" lon="-1.7786267"><ele>87.75</ele><time>2026-05-04T09:47:51.794Z</time></trkpt><trkpt lat="52.856455" lon="-1.7784833"><ele>87.5</ele><time>2026-05-04T09:47:52.793Z</time></trkpt><trkpt lat="52.8563683" lon="-1.778335"><ele>87.25</ele><time>2026-05-04T09:47:53.795Z</time></trkpt><trkpt lat="52.8562867" lon="-1.7781917"><ele>87.0</ele><time>2026-05-04T09:47:54.793Z</time></trkpt><trkpt lat="52.8562083" lon="-1.7780533"><ele>87.0</ele><time>2026-05-04T09:47:55.794Z</time></trkpt><trkpt lat="52.8561283" lon="-1.7779117"><ele>87.0</ele><time>2026-05-04T09:47:56.79Z</time></trkpt><trkpt lat="52.85605" lon="-1.7777733"><ele>87.0</ele><time>2026-05-04T09:47:57.795Z</time></trkpt><trkpt lat="52.8559733" lon="-1.7776317"><ele>87.0</ele><time>2026-05-04T09:47:58.794Z</time></trkpt><trkpt lat="52.855895" lon="-1.77749"><ele>88.25</ele><time>2026-05-04T09:47:59.79Z</time></trkpt><trkpt lat="52.855815" lon="-1.7773433"><ele>89.5</ele><time>2026-05-04T09:48:00.791Z</time></trkpt><trkpt lat="52.85573" lon="-1.7771967"><ele>90.75</ele><time>2026-05-04T09:48:01.795Z</time></trkpt><trkpt lat="52.8556467" lon="-1.7770533"><ele>92.0</ele><time>2026-05-04T09:48:02.795Z</time></trkpt><trkpt lat="52.8555667" lon="-1.776915"><ele>91.5</ele><time>2026-05-04T09:48:03.794Z</time></trkpt><trkpt lat="52.8554933" lon="-1.7767817"><ele>91.0</ele><time>2026-05-04T09:48:04.791Z</time></trkpt><trkpt lat="52.8554217" lon="-1.7766533"><ele>90.5</ele><time>2026-05-04T09:48:05.794Z</time></trkpt><trkpt lat="52.8553467" lon="-1.7765183"><ele>90.0</ele><time>2026-05-04T09:48:06.795Z</time></trkpt><trkpt lat="52.85526" lon="-1.77637"><ele>90.0</ele><time>2026-05-04T09:48:07.79Z</time></trkpt><trkpt lat="52.85517" lon="-1.7762133"><ele>90.0</ele><time>2026-05-04T09:48:08.791Z</time></trkpt><trkpt lat="52.8550967" lon="-1.7760533"><ele>90.0</ele><time>2026-05-04T09:48:09.79Z</time></trkpt><trkpt lat="52.8550383" lon="-1.7758917"><ele>90.0</ele><time>2026-05-04T09:48:10.791Z</time></trkpt><trkpt lat="52.8549767" lon="-1.7757433"><ele>89.6</ele><time>2026-05-04T09:48:11.792Z</time></trkpt><trkpt lat="52.8549067" lon="-1.7756133"><ele>89.2</ele><time>2026-05-04T09:48:12.795Z</time></trkpt><trkpt lat="52.854825" lon="-1.77551"><ele>88.80000000000001</ele><time>2026-05-04T09:48:13.795Z</time></trkpt><trkpt lat="52.8547367" lon="-1.7754433"><ele>88.4</ele><time>2026-05-04T09:48:14.795Z</time></trkpt><trkpt lat="52.854645" lon="-1.7754117"><ele>88.0</ele><time>2026-05-04T09:48:15.795Z</time></trkpt><trkpt lat="52.8545483" lon="-1.7754033"><ele>88.0</ele><time>2026-05-04T09:48:16.795Z</time></trkpt><trkpt lat="52.8544467" lon="-1.7753967"><ele>88.0</ele><time>2026-05-04T09:48:17.794Z</time></trkpt><trkpt lat="52.8543367" lon="-1.7753883"><ele>88.0</ele><time>2026-05-04T09:48:18.795Z</time></trkpt><trkpt lat="52.8542233" lon="-1.7753733"><ele>88.0</ele><time>2026-05-04T09:48:19.794Z</time></trkpt><trkpt lat="52.854115" lon="-1.775345"><ele>88.0</ele><time>2026-05-04T09:48:20.795Z</time></trkpt><trkpt lat="52.8540033" lon="-1.7752967"><ele>88.2</ele><time>2026-05-04T09:48:21.792Z</time></trkpt><trkpt lat="52.8539" lon="-1.7752267"><ele>88.4</ele><time>2026-05-04T09:48:22.794Z</time></trkpt><trkpt lat="52.8538033" lon="-1.77514"><ele>88.60000000000001</ele><time>2026-05-04T09:48:23.794Z</time></trkpt><trkpt lat="52.8537117" lon="-1.7750383"><ele>88.80000000000001</ele><time>2026-05-04T09:48:24.794Z</time></trkpt><trkpt lat="52.853625" lon="-1.77492"><ele>89.0</ele><time>2026-05-04T09:48:25.795Z</time></trkpt><trkpt lat="52.8535467" lon="-1.7747867"><ele>89.0</ele><time>2026-05-04T09:48:26.792Z</time></trkpt><trkpt lat="52.8534717" lon="-1.7746333"><ele>89.0</ele><time>2026-05-04T09:48:27.795Z</time></trkpt><trkpt lat="52.8534" lon="-1.7744683"><ele>89.0</ele><time>2026-05-04T09:48:28.794Z</time></trkpt><trkpt lat="52.8533267" lon="-1.774295"><ele>89.0</ele><time>2026-05-04T09:48:29.795Z</time></trkpt><trkpt lat="52.8532567" lon="-1.7741117"><ele>90.0</ele><time>2026-05-04T09:48:30.792Z</time></trkpt><trkpt lat="52.8531933" lon="-1.7739267"><ele>91.0</ele><time>2026-05-04T09:48:31.791Z</time></trkpt><trkpt lat="52.853135" lon="-1.7737483"><ele>92.0</ele><time>2026-05-04T09:48:32.794Z</time></trkpt><trkpt lat="52.853085" lon="-1.7735667"><ele>93.0</ele><time>2026-05-04T09:48:33.794Z</time></trkpt><trkpt lat="52.853035" lon="-1.7733833"><ele>93.0</ele><time>2026-05-04T09:48:34.794Z</time></trkpt><trkpt lat="52.852985" lon="-1.7731933"><ele>93.0</ele><time>2026-05-04T09:48:35.795Z</time></trkpt><trkpt lat="52.85293" lon="-1.77301"><ele>93.0</ele><time>2026-05-04T09:48:36.795Z</time></trkpt><trkpt lat="52.852865" lon="-1.772835"><ele>93.0</ele><time>2026-05-04T09:48:37.794Z</time></trkpt><trkpt lat="52.8527933" lon="-1.7726633"><ele>93.0</ele><time>2026-05-04T09:48:38.795Z</time></trkpt><trkpt lat="52.85272" lon="-1.772495"><ele>93.0</ele><time>2026-05-04T09:48:39.795Z</time></trkpt><trkpt lat="52.852645" lon="-1.772325"><ele>93.0</ele><time>2026-05-04T09:48:40.795Z</time></trkpt><trkpt lat="52.8525783" lon="-1.7721483"><ele>93.0</ele><time>2026-05-04T09:48:41.794Z</time></trkpt><trkpt lat="52.8525133" lon="-1.771965"><ele>94.0</ele><time>2026-05-04T09:48:42.791Z</time></trkpt><trkpt lat="52.8524583" lon="-1.7717783"><ele>95.0</ele><time>2026-05-04T09:48:43.791Z</time></trkpt><trkpt lat="52.852405" lon="-1.7715917"><ele>96.0</ele><time>2026-05-04T09:48:44.793Z</time></trkpt><trkpt lat="52.852355" lon="-1.77142"><ele>97.0</ele><time>2026-05-04T09:48:45.794Z</time></trkpt><trkpt lat="52.85231" lon="-1.7712767"><ele>97.0</ele><time>2026-05-04T09:48:46.791Z</time></trkpt><trkpt lat="52.8522767" lon="-1.7711717"><ele>97.0</ele><time>2026-05-04T09:48:47.795Z</time></trkpt><trkpt lat="52.8522367" lon="-1.7710533"><ele>97.0</ele><time>2026-05-04T09:48:49.795Z</time></trkpt><trkpt lat="52.8521367" lon="-1.770985"><ele>97.0</ele><time>2026-05-04T09:49:03.795Z</time></trkpt><trkpt lat="52.8519933" lon="-1.7710267"><ele>97.0</ele><time>2026-05-04T09:49:05.79Z</time></trkpt><trkpt lat="52.85189" lon="-1.7711133"><ele>98.5</ele><time>2026-05-04T09:49:06.792Z</time></trkpt><trkpt lat="52.8517767" lon="-1.771265"><ele>100.0</ele><time>2026-05-04T09:49:07.795Z</time></trkpt><trkpt lat="52.8516717" lon="-1.771405"><ele>101.5</ele><time>2026-05-04T09:49:08.795Z</time></trkpt><trkpt lat="52.851575" lon="-1.771525"><ele>103.0</ele><time>2026-05-04T09:49:09.795Z</time></trkpt><trkpt lat="52.8514867" lon="-1.7716333"><ele>103.0</ele><time>2026-05-04T09:49:10.792Z</time></trkpt><trkpt lat="52.8514017" lon="-1.77173"><ele>103.0</ele><time>2026-05-04T09:49:11.792Z</time></trkpt><trkpt lat="52.8513183" lon="-1.771825"><ele>103.0</ele><time>2026-05-04T09:49:12.792Z</time></trkpt><trkpt lat="52.8512367" lon="-1.7719217"><ele>103.0</ele><time>2026-05-04T09:49:13.792Z</time></trkpt><trkpt lat="52.8511583" lon="-1.7720167"><ele>103.0</ele><time>2026-05-04T09:49:14.793Z</time></trkpt><trkpt lat="52.8510767" lon="-1.7721117"><ele>103.2</ele><time>2026-05-04T09:49:15.792Z</time></trkpt><trkpt lat="52.85099" lon="-1.7722117"><ele>103.4</ele><time>2026-05-04T09:49:16.792Z</time></trkpt><trkpt lat="52.8509" lon="-1.7723233"><ele>103.60000000000001</ele><time>2026-05-04T09:49:17.793Z</time></trkpt><trkpt lat="52.850805" lon="-1.7724267"><ele>103.80000000000001</ele><time>2026-05-04T09:49:18.791Z</time></trkpt><trkpt lat="52.8507067" lon="-1.7725317"><ele>104.0</ele><time>2026-05-04T09:49:19.793Z</time></trkpt><trkpt lat="52.850605" lon="-1.7726433"><ele>107.75</ele><time>2026-05-04T09:49:20.792Z</time></trkpt><trkpt lat="52.8505" lon="-1.7727533"><ele>111.5</ele><time>2026-05-04T09:49:21.791Z</time></trkpt><trkpt lat="52.8503967" lon="-1.7728667"><ele>115.25</ele><time>2026-05-04T09:49:22.792Z</time></trkpt><trkpt lat="52.8502967" lon="-1.77298"><ele>119.0</ele><time>2026-05-04T09:49:23.792Z</time></trkpt><trkpt lat="52.8501933" lon="-1.7730917"><ele>120.25</ele><time>2026-05-04T09:49:24.791Z</time></trkpt><trkpt lat="52.8500867" lon="-1.7732067"><ele>121.5</ele><time>2026-05-04T09:49:25.793Z</time></trkpt><trkpt lat="52.84997" lon="-1.7733117"><ele>122.75</ele><time>2026-05-04T09:49:26.792Z</time></trkpt><trkpt lat="52.8498483" lon="-1.7734317"><ele>124.0</ele><time>2026-05-04T09:49:27.791Z</time></trkpt><trkpt lat="52.8497233" lon="-1.773565"><ele>124.0</ele><time>2026-05-04T09:49:28.792Z</time></trkpt><trkpt lat="52.849585" lon="-1.773695"><ele>124.0</ele><time>2026-05-04T09:49:29.792Z</time></trkpt><trkpt lat="52.8494567" lon="-1.77385"><ele>124.0</ele><time>2026-05-04T09:49:30.791Z</time></trkpt><trkpt lat="52.8493133" lon="-1.7739967"><ele>126.66666666666667</ele><time>2026-05-04T09:49:31.793Z</time></trkpt><trkpt lat="52.8491683" lon="-1.77415"><ele>129.33333333333334</ele><time>2026-05-04T09:49:32.791Z</time></trkpt><trkpt lat="52.8490267" lon="-1.77432"><ele>132.0</ele><time>2026-05-04T09:49:33.792Z</time></trkpt><trkpt lat="52.848895" lon="-1.7745033"><ele>132.0</ele><time>2026-05-04T09:49:34.792Z</time></trkpt><trkpt lat="52.848765" lon="-1.7746933"><ele>132.0</ele><time>2026-05-04T09:49:35.792Z</time></trkpt><trkpt lat="52.8486283" lon="-1.7748767"><ele>132.0</ele><time>2026-05-04T09:49:36.792Z</time></trkpt><trkpt lat="52.84849" lon="-1.7750767"><ele>136.0</ele><time>2026-05-04T09:49:37.793Z</time></trkpt><trkpt lat="52.84835" lon="-1.7752817"><ele>140.0</ele><time>2026-05-04T09:49:38.791Z</time></trkpt><trkpt lat="52.8482067" lon="-1.7754917"><ele>144.0</ele><time>2026-05-04T09:49:39.792Z</time></trkpt><trkpt lat="52.8480633" lon="-1.775705"><ele>144.0</ele><time>2026-05-04T09:49:40.792Z</time></trkpt><trkpt lat="52.8479233" lon="-1.7759233"><ele>144.0</ele><time>2026-05-04T09:49:41.793Z</time></trkpt><trkpt lat="52.8477817" lon="-1.7761317"><ele>144.0</ele><time>2026-05-04T09:49:42.791Z</time></trkpt><trkpt lat="52.847635" lon="-1.7763283"><ele>144.33333333333334</ele><time>2026-05-04T09:49:43.791Z</time></trkpt><trkpt lat="52.84748" lon="-1.7765083"><ele>144.66666666666669</ele><time>2026-05-04T09:49:44.792Z</time></trkpt><trkpt lat="52.847315" lon="-1.7766733"><ele>145.0</ele><time>2026-05-04T09:49:45.791Z</time></trkpt><trkpt lat="52.8471467" lon="-1.7768117"><ele>145.33333333333334</ele><time>2026-05-04T09:49:46.792Z</time></trkpt><trkpt lat="52.8469733" lon="-1.7769333"><ele>145.66666666666666</ele><time>2026-05-04T09:49:47.793Z</time></trkpt><trkpt lat="52.8467917" lon="-1.7770333"><ele>146.0</ele><time>2026-05-04T09:49:48.792Z</time></trkpt><trkpt lat="52.846605" lon="-1.777115"><ele>143.0</ele><time>2026-05-04T09:49:49.793Z</time></trkpt><trkpt lat="52.8464117" lon="-1.7771883"><ele>140.0</ele><time>2026-05-04T09:49:50.792Z</time></trkpt><trkpt lat="52.8462233" lon="-1.7772683"><ele>137.0</ele><time>2026-05-04T09:49:51.791Z</time></trkpt><trkpt lat="52.846035" lon="-1.7773467"><ele>136.33333333333331</ele><time>2026-05-04T09:49:52.793Z</time></trkpt><trkpt lat="52.84585" lon="-1.777425"><ele>135.66666666666666</ele><time>2026-05-04T09:49:53.792Z</time></trkpt><trkpt lat="52.8456683" lon="-1.777495"><ele>135.0</ele><time>2026-05-04T09:49:54.791Z</time></trkpt><trkpt lat="52.8454933" lon="-1.7775583"><ele>135.0</ele><time>2026-05-04T09:49:55.792Z</time></trkpt><trkpt lat="52.8453283" lon="-1.7776167"><ele>135.0</ele><time>2026-05-04T09:49:56.791Z</time></trkpt><trkpt lat="52.8451667" lon="-1.7776733"><ele>135.0</ele><time>2026-05-04T09:49:57.794Z</time></trkpt><trkpt lat="52.84501" lon="-1.77773"><ele>136.0</ele><time>2026-05-04T09:49:58.793Z</time></trkpt><trkpt lat="52.8448517" lon="-1.7777867"><ele>137.0</ele><time>2026-05-04T09:49:59.794Z</time></trkpt><trkpt lat="52.8446983" lon="-1.7778383"><ele>138.0</ele><time>2026-05-04T09:50:00.79Z</time></trkpt><trkpt lat="52.84455" lon="-1.777885"><ele>138.0</ele><time>2026-05-04T09:50:01.79Z</time></trkpt><trkpt lat="52.8444117" lon="-1.77793"><ele>138.0</ele><time>2026-05-04T09:50:02.791Z</time></trkpt><trkpt lat="52.8442833" lon="-1.7779717"><ele>138.0</ele><time>2026-05-04T09:50:03.791Z</time></trkpt><trkpt lat="52.8441583" lon="-1.7780117"><ele>138.0</ele><time>2026-05-04T09:50:04.795Z</time></trkpt><trkpt lat="52.844035" lon="-1.77806"><ele>137.25</ele><time>2026-05-04T09:50:05.791Z</time></trkpt><trkpt lat="52.8439067" lon="-1.77811"><ele>136.5</ele><time>2026-05-04T09:50:06.796Z</time></trkpt><trkpt lat="52.84378" lon="-1.77816"><ele>135.75</ele><time>2026-05-04T09:50:07.793Z</time></trkpt><trkpt lat="52.8436467" lon="-1.7781983"><ele>135.0</ele><time>2026-05-04T09:50:08.794Z</time></trkpt><trkpt lat="52.8435167" lon="-1.7782483"><ele>134.5</ele><time>2026-05-04T09:50:09.794Z</time></trkpt><trkpt lat="52.843385" lon="-1.77829"><ele>134.0</ele><time>2026-05-04T09:50:10.792Z</time></trkpt><trkpt lat="52.8432567" lon="-1.7783283"><ele>133.5</ele><time>2026-05-04T09:50:11.791Z</time></trkpt><trkpt lat="52.8431233" lon="-1.7783633"><ele>133.0</ele><time>2026-05-04T09:50:12.796Z</time></trkpt><trkpt lat="52.8429933" lon="-1.7783933"><ele>133.0</ele><time>2026-05-04T09:50:13.796Z</time></trkpt><trkpt lat="52.8428717" lon="-1.77842"><ele>133.0</ele><time>2026-05-04T09:50:14.792Z</time></trkpt><trkpt lat="52.8427617" lon="-1.7784433"><ele>133.0</ele><time>2026-05-04T09:50:15.795Z</time></trkpt><trkpt lat="52.84266" lon="-1.778455"><ele>133.0</ele><time>2026-05-04T09:50:16.795Z</time></trkpt><trkpt lat="52.8425733" lon="-1.7784633"><ele>133.0</ele><time>2026-05-04T09:50:17.795Z</time></trkpt><trkpt lat="52.8425" lon="-1.7784683"><ele>133.0</ele><time>2026-05-04T09:50:18.791Z</time></trkpt><trkpt lat="52.8423967" lon="-1.77847"><ele>133.0</ele><time>2026-05-04T09:50:20.796Z</time></trkpt><trkpt lat="52.842475" lon="-1.7785033"><ele>133.0</ele><time>2026-05-04T09:51:58.792Z</time></trkpt><trkpt lat="52.8425483" lon="-1.7785033"><ele>133.0</ele><time>2026-05-04T09:52:00.792Z</time></trkpt><trkpt lat="52.84267" lon="-1.7785"><ele>133.0</ele><time>2026-05-04T09:52:02.792Z</time></trkpt><trkpt lat="52.8427383" lon="-1.7784917"><ele>133.0</ele><time>2026-05-04T09:52:03.79Z</time></trkpt><trkpt lat="52.8428133" lon="-1.77848"><ele>133.0</ele><time>2026-05-04T09:52:04.793Z</time></trkpt><trkpt lat="52.8428867" lon="-1.778465"><ele>133.0</ele><time>2026-05-04T09:52:05.792Z</time></trkpt><trkpt lat="52.8429583" lon="-1.77845"><ele>133.0</ele><time>2026-05-04T09:52:06.792Z</time></trkpt><trkpt lat="52.843025" lon="-1.7784283"><ele>133.0</ele><time>2026-05-04T09:52:07.792Z</time></trkpt><trkpt lat="52.84309" lon="-1.7784067"><ele>133.0</ele><time>2026-05-04T09:52:08.791Z</time></trkpt><trkpt lat="52.8431567" lon="-1.7783833"><ele>133.0</ele><time>2026-05-04T09:52:09.792Z</time></trkpt><trkpt lat="52.8432267" lon="-1.77836"><ele>133.0</ele><time>2026-05-04T09:52:10.792Z</time></trkpt><trkpt lat="52.84329" lon="-1.778335"><ele>133.0</ele><time>2026-05-04T09:52:11.796Z</time></trkpt><trkpt lat="52.8433567" lon="-1.7783117"><ele>133.0</ele><time>2026-05-04T09:52:12.792Z</time></trkpt><trkpt lat="52.8434267" lon="-1.7782867"><ele>133.0</ele><time>2026-05-04T09:52:13.792Z</time></trkpt><trkpt lat="52.8434983" lon="-1.7782583"><ele>133.0</ele><time>2026-05-04T09:52:14.792Z</time></trkpt><trkpt lat="52.843575" lon="-1.7782317"><ele>133.0</ele><time>2026-05-04T09:52:15.793Z</time></trkpt><trkpt lat="52.84365" lon="-1.7782017"><ele>133.0</ele><time>2026-05-04T09:52:16.793Z</time></trkpt><trkpt lat="52.8437283" lon="-1.77817"><ele>133.33333333333334</ele><time>2026-05-04T09:52:17.791Z</time></trkpt><trkpt lat="52.8438067" lon="-1.7781367"><ele>133.66666666666669</ele><time>2026-05-04T09:52:18.792Z</time></trkpt><trkpt lat="52.8438883" lon="-1.778105"><ele>134.0</ele><time>2026-05-04T09:52:19.793Z</time></trkpt><trkpt lat="52.8439667" lon="-1.7780767"><ele>134.33333333333334</ele><time>2026-05-04T09:52:20.791Z</time></trkpt><trkpt lat="52.8440467" lon="-1.778045"><ele>134.66666666666666</ele><time>2026-05-04T09:52:21.792Z</time></trkpt><trkpt lat="52.8441283" lon="-1.7780183"><ele>135.0</ele><time>2026-05-04T09:52:22.792Z</time></trkpt><trkpt lat="52.8442083" lon="-1.7779917"><ele>135.0</ele><time>2026-05-04T09:52:23.793Z</time></trkpt><trkpt lat="52.8442833" lon="-1.7779567"><ele>135.0</ele><time>2026-05-04T09:52:24.791Z</time></trkpt><trkpt lat="52.8443617" lon="-1.777915"><ele>135.0</ele><time>2026-05-04T09:52:25.791Z</time></trkpt><trkpt lat="52.8444383" lon="-1.7778783"><ele>135.0</ele><time>2026-05-04T09:52:26.792Z</time></trkpt><trkpt lat="52.84451" lon="-1.7778633"><ele>135.0</ele><time>2026-05-04T09:52:27.791Z</time></trkpt><trkpt lat="52.8446167" lon="-1.7778233"><ele>135.0</ele><time>2026-05-04T09:52:29.791Z</time></trkpt><trkpt lat="52.8446783" lon="-1.7777467"><ele>135.16666666666666</ele><time>2026-05-04T09:52:33.791Z</time></trkpt><trkpt lat="52.8446333" lon="-1.77762"><ele>135.33333333333334</ele><time>2026-05-04T09:52:35.796Z</time></trkpt><trkpt lat="52.8445783" lon="-1.7775683"><ele>135.5</ele><time>2026-05-04T09:52:36.793Z</time></trkpt><trkpt lat="52.8445033" lon="-1.7775183"><ele>135.66666666666669</ele><time>2026-05-04T09:52:37.795Z</time></trkpt><trkpt lat="52.8444133" lon="-1.77746"><ele>135.83333333333334</ele><time>2026-05-04T09:52:38.796Z</time></trkpt><trkpt lat="52.8443183" lon="-1.7773967"><ele>136.0</ele><time>2026-05-04T09:52:39.791Z</time></trkpt><trkpt lat="52.844225" lon="-1.7773333"><ele>135.5</ele><time>2026-05-04T09:52:40.796Z</time></trkpt><trkpt lat="52.844125" lon="-1.7772667"><ele>135.0</ele><time>2026-05-04T09:52:41.796Z</time></trkpt><trkpt lat="52.8440183" lon="-1.77719"><ele>134.5</ele><time>2026-05-04T09:52:42.796Z</time></trkpt><trkpt lat="52.8439117" lon="-1.77711"><ele>134.0</ele><time>2026-05-04T09:52:43.793Z</time></trkpt><trkpt lat="52.8437967" lon="-1.77703"><ele>134.0</ele><time>2026-05-04T09:52:44.791Z</time></trkpt><trkpt lat="52.843675" lon="-1.7769433"><ele>134.0</ele><time>2026-05-04T09:52:45.796Z</time></trkpt><trkpt lat="52.8435533" lon="-1.776855"><ele>134.0</ele><time>2026-05-04T09:52:46.791Z</time></trkpt><trkpt lat="52.8434317" lon="-1.77677"><ele>134.0</ele><time>2026-05-04T09:52:47.793Z</time></trkpt><trkpt lat="52.8433083" lon="-1.7766817"><ele>134.33333333333331</ele><time>2026-05-04T09:52:48.793Z</time></trkpt><trkpt lat="52.843175" lon="-1.7765917"><ele>134.66666666666666</ele><time>2026-05-04T09:52:49.792Z</time></trkpt><trkpt lat="52.8430367" lon="-1.7764933"><ele>135.0</ele><time>2026-05-04T09:52:50.791Z</time></trkpt><trkpt lat="52.84275" lon="-1.7762767"><ele>130.0</ele><time>2026-05-04T09:52:52.793Z</time></trkpt><trkpt lat="52.841575" lon="-1.77512"><ele>130.0</ele><time>2026-05-04T09:53:00.68Z</time></trkpt><trkpt lat="52.84109" lon="-1.7749267"><ele>128.5</ele><time>2026-05-04T09:53:02.791Z</time></trkpt><trkpt lat="52.8408783" lon="-1.7748067"><ele>127.0</ele><time>2026-05-04T09:53:03.79Z</time></trkpt><trkpt lat="52.84065" lon="-1.7746733"><ele>127.0</ele><time>2026-05-04T09:53:04.791Z</time></trkpt><trkpt lat="52.840425" lon="-1.77455"><ele>127.0</ele><time>2026-05-04T09:53:05.791Z</time></trkpt><trkpt lat="52.84021" lon="-1.7744233"><ele>128.33333333333334</ele><time>2026-05-04T09:53:06.792Z</time></trkpt><trkpt lat="52.840005" lon="-1.7742833"><ele>129.66666666666666</ele><time>2026-05-04T09:53:07.791Z</time></trkpt><trkpt lat="52.839805" lon="-1.7741483"><ele>131.0</ele><time>2026-05-04T09:53:08.792Z</time></trkpt><trkpt lat="52.839605" lon="-1.7740083"><ele>131.0</ele><time>2026-05-04T09:53:09.791Z</time></trkpt><trkpt lat="52.83941" lon="-1.7738683"><ele>131.0</ele><time>2026-05-04T09:53:10.791Z</time></trkpt><trkpt lat="52.8392167" lon="-1.7737317"><ele>131.0</ele><time>2026-05-04T09:53:11.791Z</time></trkpt><trkpt lat="52.8390233" lon="-1.7735933"><ele>132.33333333333331</ele><time>2026-05-04T09:53:12.792Z</time></trkpt><trkpt lat="52.8388283" lon="-1.773455"><ele>133.66666666666666</ele><time>2026-05-04T09:53:13.792Z</time></trkpt><trkpt lat="52.838635" lon="-1.7733017"><ele>135.0</ele><time>2026-05-04T09:53:14.791Z</time></trkpt><trkpt lat="52.838445" lon="-1.7731283"><ele>135.0</ele><time>2026-05-04T09:53:15.792Z</time></trkpt><trkpt lat="52.8382583" lon="-1.7729383"><ele>135.0</ele><time>2026-05-04T09:53:16.792Z</time></trkpt><trkpt lat="52.8380733" lon="-1.77274"><ele>135.0</ele><time>2026-05-04T09:53:17.792Z</time></trkpt><trkpt lat="52.837885" lon="-1.7725367"><ele>135.0</ele><time>2026-05-04T09:53:18.793Z</time></trkpt><trkpt lat="52.8377" lon="-1.7723333"><ele>135.0</ele><time>2026-05-04T09:53:19.793Z</time></trkpt><trkpt lat="52.8375167" lon="-1.7721333"><ele>135.0</ele><time>2026-05-04T09:53:20.792Z</time></trkpt><trkpt lat="52.83733" lon="-1.7719333"><ele>135.33333333333334</ele><time>2026-05-04T09:53:21.792Z</time></trkpt><trkpt lat="52.8371467" lon="-1.771735"><ele>135.66666666666669</ele><time>2026-05-04T09:53:22.793Z</time></trkpt><trkpt lat="52.8369633" lon="-1.7715367"><ele>136.0</ele><time>2026-05-04T09:53:23.792Z</time></trkpt><trkpt lat="52.8367817" lon="-1.7713417"><ele>136.0</ele><time>2026-05-04T09:53:24.792Z</time></trkpt><trkpt lat="52.8366067" lon="-1.77115"><ele>136.0</ele><time>2026-05-04T09:53:25.792Z</time></trkpt><trkpt lat="52.8364367" lon="-1.770965"><ele>136.0</ele><time>2026-05-04T09:53:26.792Z</time></trkpt><trkpt lat="52.8362667" lon="-1.770785"><ele>136.66666666666669</ele><time>2026-05-04T09:53:27.792Z</time></trkpt><trkpt lat="52.8360967" lon="-1.7706033"><ele>137.33333333333334</ele><time>2026-05-04T09:53:28.791Z</time></trkpt><trkpt lat="52.835925" lon="-1.7704133"><ele>138.0</ele><time>2026-05-04T09:53:29.793Z</time></trkpt><trkpt lat="52.8357533" lon="-1.7702167"><ele>139.66666666666666</ele><time>2026-05-04T09:53:30.791Z</time></trkpt><trkpt lat="52.8355817" lon="-1.770015"><ele>141.33333333333331</ele><time>2026-05-04T09:53:31.791Z</time></trkpt><trkpt lat="52.8354167" lon="-1.7698033"><ele>143.0</ele><time>2026-05-04T09:53:32.791Z</time></trkpt><trkpt lat="52.8352517" lon="-1.7695983"><ele>143.66666666666666</ele><time>2026-05-04T09:53:33.791Z</time></trkpt><trkpt lat="52.83509" lon="-1.76939"><ele>144.33333333333334</ele><time>2026-05-04T09:53:34.792Z</time></trkpt><trkpt lat="52.8349333" lon="-1.7691783"><ele>145.0</ele><time>2026-05-04T09:53:35.792Z</time></trkpt><trkpt lat="52.8347783" lon="-1.7689617"><ele>145.0</ele><time>2026-05-04T09:53:36.791Z</time></trkpt><trkpt lat="52.8346317" lon="-1.7687367"><ele>145.0</ele><time>2026-05-04T09:53:37.791Z</time></trkpt><trkpt lat="52.8344867" lon="-1.7685067"><ele>145.0</ele><time>2026-05-04T09:53:38.792Z</time></trkpt><trkpt lat="52.8343433" lon="-1.76828"><ele>144.66666666666669</ele><time>2026-05-04T09:53:39.792Z</time></trkpt><trkpt lat="52.8342" lon="-1.7680483"><ele>144.33333333333334</ele><time>2026-05-04T09:53:40.792Z</time></trkpt><trkpt lat="52.83405" lon="-1.7678133"><ele>144.0</ele><time>2026-05-04T09:53:41.792Z</time></trkpt><trkpt lat="52.8339" lon="-1.76757"><ele>145.0</ele><time>2026-05-04T09:53:42.792Z</time></trkpt><trkpt lat="52.8337383" lon="-1.7673267"><ele>146.0</ele><time>2026-05-04T09:53:43.792Z</time></trkpt><trkpt lat="52.8335767" lon="-1.767085"><ele>147.0</ele><time>2026-05-04T09:53:44.79Z</time></trkpt><trkpt lat="52.833415" lon="-1.766835"><ele>147.0</ele><time>2026-05-04T09:53:45.791Z</time></trkpt><trkpt lat="52.8332517" lon="-1.766575"><ele>147.0</ele><time>2026-05-04T09:53:46.792Z</time></trkpt><trkpt lat="52.833085" lon="-1.7663117"><ele>147.0</ele><time>2026-05-04T09:53:47.792Z</time></trkpt><trkpt lat="52.8329133" lon="-1.7660417"><ele>147.0</ele><time>2026-05-04T09:53:48.792Z</time></trkpt><trkpt lat="52.8327417" lon="-1.7657683"><ele>145.5</ele><time>2026-05-04T09:53:49.791Z</time></trkpt><trkpt lat="52.8325717" lon="-1.7655"><ele>144.0</ele><time>2026-05-04T09:53:50.79Z</time></trkpt><trkpt lat="52.8324" lon="-1.765235"><ele>145.0</ele><time>2026-05-04T09:53:51.792Z</time></trkpt><trkpt lat="52.83223" lon="-1.7649717"><ele>146.0</ele><time>2026-05-04T09:53:52.791Z</time></trkpt><trkpt lat="52.8320617" lon="-1.76471"><ele>146.0</ele><time>2026-05-04T09:53:53.792Z</time></trkpt><trkpt lat="52.8318917" lon="-1.7644433"><ele>146.0</ele><time>2026-05-04T09:53:54.791Z</time></trkpt><trkpt lat="52.8317233" lon="-1.7641767"><ele>143.5</ele><time>2026-05-04T09:53:55.791Z</time></trkpt><trkpt lat="52.831555" lon="-1.7639083"><ele>141.0</ele><time>2026-05-04T09:53:56.792Z</time></trkpt><trkpt lat="52.8313867" lon="-1.7636383"><ele>141.0</ele><time>2026-05-04T09:53:57.792Z</time></trkpt><trkpt lat="52.8312233" lon="-1.7633583"><ele>141.0</ele><time>2026-05-04T09:53:58.792Z</time></trkpt><trkpt lat="52.8310567" lon="-1.7630683"><ele>140.5</ele><time>2026-05-04T09:53:59.792Z</time></trkpt><trkpt lat="52.83089" lon="-1.7627733"><ele>140.0</ele><time>2026-05-04T09:54:00.791Z</time></trkpt><trkpt lat="52.8307217" lon="-1.762485"><ele>139.5</ele><time>2026-05-04T09:54:01.794Z</time></trkpt><trkpt lat="52.8305517" lon="-1.76219"><ele>139.0</ele><time>2026-05-04T09:54:02.795Z</time></trkpt><trkpt lat="52.8303867" lon="-1.7619"><ele>139.0</ele><time>2026-05-04T09:54:03.796Z</time></trkpt><trkpt lat="52.8302267" lon="-1.76161"><ele>139.0</ele><time>2026-05-04T09:54:04.795Z</time></trkpt><trkpt lat="52.830065" lon="-1.7613217"><ele>138.5</ele><time>2026-05-04T09:54:05.796Z</time></trkpt><trkpt lat="52.82991" lon="-1.7610383"><ele>138.0</ele><time>2026-05-04T09:54:06.795Z</time></trkpt><trkpt lat="52.8297567" lon="-1.76076"><ele>137.66666666666666</ele><time>2026-05-04T09:54:07.796Z</time></trkpt><trkpt lat="52.8296083" lon="-1.76049"><ele>137.33333333333331</ele><time>2026-05-04T09:54:08.795Z</time></trkpt><trkpt lat="52.8294583" lon="-1.76022"><ele>137.0</ele><time>2026-05-04T09:54:09.796Z</time></trkpt><trkpt lat="52.82931" lon="-1.7599517"><ele>136.33333333333331</ele><time>2026-05-04T09:54:10.796Z</time></trkpt><trkpt lat="52.8291583" lon="-1.759685"><ele>135.66666666666666</ele><time>2026-05-04T09:54:11.795Z</time></trkpt><trkpt lat="52.8290067" lon="-1.7594167"><ele>135.0</ele><time>2026-05-04T09:54:12.795Z</time></trkpt><trkpt lat="52.8288533" lon="-1.7591433"><ele>134.5</ele><time>2026-05-04T09:54:13.795Z</time></trkpt><trkpt lat="52.8287017" lon="-1.75887"><ele>134.0</ele><time>2026-05-04T09:54:14.796Z</time></trkpt><trkpt lat="52.8285483" lon="-1.7585933"><ele>133.33333333333331</ele><time>2026-05-04T09:54:15.795Z</time></trkpt><trkpt lat="52.8283933" lon="-1.7583233"><ele>132.66666666666666</ele><time>2026-05-04T09:54:16.796Z</time></trkpt><trkpt lat="52.828245" lon="-1.7580533"><ele>132.0</ele><time>2026-05-04T09:54:17.795Z</time></trkpt><trkpt lat="52.8281" lon="-1.7577883"><ele>132.0</ele><time>2026-05-04T09:54:18.796Z</time></trkpt><trkpt lat="52.82795" lon="-1.757525"><ele>132.0</ele><time>2026-05-04T09:54:19.796Z</time></trkpt><trkpt lat="52.8277983" lon="-1.7572667"><ele>132.0</ele><time>2026-05-04T09:54:20.797Z</time></trkpt><trkpt lat="52.8276467" lon="-1.757"><ele>131.5</ele><time>2026-05-04T09:54:21.796Z</time></trkpt><trkpt lat="52.8274917" lon="-1.7567267"><ele>131.0</ele><time>2026-05-04T09:54:22.796Z</time></trkpt><trkpt lat="52.8273383" lon="-1.7564517"><ele>131.0</ele><time>2026-05-04T09:54:23.797Z</time></trkpt><trkpt lat="52.8271867" lon="-1.75618"><ele>131.0</ele><time>2026-05-04T09:54:24.795Z</time></trkpt><trkpt lat="52.8270383" lon="-1.7559117"><ele>131.0</ele><time>2026-05-04T09:54:25.795Z</time></trkpt><trkpt lat="52.82689" lon="-1.7556467"><ele>129.33333333333331</ele><time>2026-05-04T09:54:26.796Z</time></trkpt><trkpt lat="52.8267433" lon="-1.7553833"><ele>127.66666666666666</ele><time>2026-05-04T09:54:27.794Z</time></trkpt><trkpt lat="52.826595" lon="-1.7551183"><ele>126.0</ele><time>2026-05-04T09:54:28.796Z</time></trkpt><trkpt lat="52.826445" lon="-1.7548517"><ele>125.0</ele><time>2026-05-04T09:54:29.796Z</time></trkpt><trkpt lat="52.826295" lon="-1.7545817"><ele>124.0</ele><time>2026-05-04T09:54:30.797Z</time></trkpt><trkpt lat="52.8261467" lon="-1.754315"><ele>123.0</ele><time>2026-05-04T09:54:31.797Z</time></trkpt><trkpt lat="52.826" lon="-1.75405"><ele>123.0</ele><time>2026-05-04T09:54:32.796Z</time></trkpt><trkpt lat="52.8258617" lon="-1.753805"><ele>123.0</ele><time>2026-05-04T09:54:33.797Z</time></trkpt><trkpt lat="52.825725" lon="-1.7535717"><ele>123.0</ele><time>2026-05-04T09:54:34.794Z</time></trkpt><trkpt lat="52.8255933" lon="-1.7533483"><ele>123.66666666666666</ele><time>2026-05-04T09:54:35.796Z</time></trkpt><trkpt lat="52.8254617" lon="-1.7531267"><ele>124.33333333333333</ele><time>2026-05-04T09:54:36.795Z</time></trkpt><trkpt lat="52.8253317" lon="-1.7528983"><ele>125.0</ele><time>2026-05-04T09:54:37.795Z</time></trkpt><trkpt lat="52.8252" lon="-1.752665"><ele>127.0</ele><time>2026-05-04T09:54:38.795Z</time></trkpt><trkpt lat="52.8250633" lon="-1.7524317"><ele>129.0</ele><time>2026-05-04T09:54:39.795Z</time></trkpt><trkpt lat="52.8249283" lon="-1.75219"><ele>131.0</ele><time>2026-05-04T09:54:40.795Z</time></trkpt><trkpt lat="52.8247917" lon="-1.751945"><ele>131.0</ele><time>2026-05-04T09:54:41.795Z</time></trkpt><trkpt lat="52.82466" lon="-1.7517017"><ele>131.0</ele><time>2026-05-04T09:54:42.796Z</time></trkpt><trkpt lat="52.824525" lon="-1.751465"><ele>131.0</ele><time>2026-05-04T09:54:43.795Z</time></trkpt><trkpt lat="52.82439" lon="-1.7512233"><ele>131.66666666666666</ele><time>2026-05-04T09:54:44.795Z</time></trkpt><trkpt lat="52.8242533" lon="-1.7509783"><ele>132.33333333333334</ele><time>2026-05-04T09:54:45.794Z</time></trkpt><trkpt lat="52.824115" lon="-1.75073"><ele>133.0</ele><time>2026-05-04T09:54:46.797Z</time></trkpt><trkpt lat="52.823975" lon="-1.7504733"><ele>133.0</ele><time>2026-05-04T09:54:47.796Z</time></trkpt><trkpt lat="52.823835" lon="-1.7502183"><ele>133.0</ele><time>2026-05-04T09:54:48.795Z</time></trkpt><trkpt lat="52.8236917" lon="-1.7499633"><ele>133.0</ele><time>2026-05-04T09:54:49.795Z</time></trkpt><trkpt lat="52.8235517" lon="-1.74971"><ele>133.66666666666669</ele><time>2026-05-04T09:54:50.794Z</time></trkpt><trkpt lat="52.823415" lon="-1.7494633"><ele>134.33333333333334</ele><time>2026-05-04T09:54:51.796Z</time></trkpt><trkpt lat="52.8232833" lon="-1.7492283"><ele>135.0</ele><time>2026-05-04T09:54:52.795Z</time></trkpt><trkpt lat="52.8231533" lon="-1.7489967"><ele>135.0</ele><time>2026-05-04T09:54:53.791Z</time></trkpt><trkpt lat="52.823025" lon="-1.7487717"><ele>135.0</ele><time>2026-05-04T09:54:54.796Z</time></trkpt><trkpt lat="52.8229017" lon="-1.7485483"><ele>135.0</ele><time>2026-05-04T09:54:55.794Z</time></trkpt><trkpt lat="52.82278" lon="-1.748325"><ele>135.0</ele><time>2026-05-04T09:54:56.792Z</time></trkpt><trkpt lat="52.8226617" lon="-1.7480983"><ele>135.0</ele><time>2026-05-04T09:54:57.796Z</time></trkpt><trkpt lat="52.8225367" lon="-1.7478667"><ele>135.0</ele><time>2026-05-04T09:54:58.791Z</time></trkpt><trkpt lat="52.8224067" lon="-1.74763"><ele>134.0</ele><time>2026-05-04T09:54:59.797Z</time></trkpt><trkpt lat="52.8222683" lon="-1.7473867"><ele>133.0</ele><time>2026-05-04T09:55:00.794Z</time></trkpt><trkpt lat="52.82213" lon="-1.7471433"><ele>132.0</ele><time>2026-05-04T09:55:01.795Z</time></trkpt><trkpt lat="52.82199" lon="-1.7469"><ele>132.0</ele><time>2026-05-04T09:55:02.796Z</time></trkpt><trkpt lat="52.821845" lon="-1.746655"><ele>132.0</ele><time>2026-05-04T09:55:03.795Z</time></trkpt><trkpt lat="52.8216967" lon="-1.7464083"><ele>132.0</ele><time>2026-05-04T09:55:04.795Z</time></trkpt><trkpt lat="52.8215483" lon="-1.7461533"><ele>131.66666666666666</ele><time>2026-05-04T09:55:05.795Z</time></trkpt><trkpt lat="52.8214017" lon="-1.7458967"><ele>131.33333333333331</ele><time>2026-05-04T09:55:06.795Z</time></trkpt><trkpt lat="52.8212533" lon="-1.74564"><ele>131.0</ele><time>2026-05-04T09:55:07.795Z</time></trkpt><trkpt lat="52.821105" lon="-1.7453767"><ele>130.0</ele><time>2026-05-04T09:55:08.794Z</time></trkpt><trkpt lat="52.8209533" lon="-1.745105"><ele>129.0</ele><time>2026-05-04T09:55:09.791Z</time></trkpt><trkpt lat="52.8207983" lon="-1.7448283"><ele>129.0</ele><time>2026-05-04T09:55:10.796Z</time></trkpt><trkpt lat="52.82064" lon="-1.7445483"><ele>129.0</ele><time>2026-05-04T09:55:11.791Z</time></trkpt><trkpt lat="52.8204817" lon="-1.7442667"><ele>129.0</ele><time>2026-05-04T09:55:12.792Z</time></trkpt><trkpt lat="52.8203217" lon="-1.743985"><ele>129.0</ele><time>2026-05-04T09:55:13.792Z</time></trkpt><trkpt lat="52.8201617" lon="-1.7437033"><ele>128.0</ele><time>2026-05-04T09:55:14.79Z</time></trkpt><trkpt lat="52.8200033" lon="-1.743425"><ele>127.0</ele><time>2026-05-04T09:55:15.791Z</time></trkpt><trkpt lat="52.8198517" lon="-1.7431583"><ele>127.0</ele><time>2026-05-04T09:55:16.791Z</time></trkpt><trkpt lat="52.8197117" lon="-1.74291"><ele>127.0</ele><time>2026-05-04T09:55:17.792Z</time></trkpt><trkpt lat="52.8195817" lon="-1.7426767"><ele>127.0</ele><time>2026-05-04T09:55:18.793Z</time></trkpt><trkpt lat="52.8194533" lon="-1.7424483"><ele>126.66666666666667</ele><time>2026-05-04T09:55:19.792Z</time></trkpt><trkpt lat="52.8193183" lon="-1.7422133"><ele>126.33333333333334</ele><time>2026-05-04T09:55:20.792Z</time></trkpt><trkpt lat="52.8191817" lon="-1.74197"><ele>126.0</ele><time>2026-05-04T09:55:21.796Z</time></trkpt><trkpt lat="52.8190383" lon="-1.7417183"><ele>124.66666666666666</ele><time>2026-05-04T09:55:22.795Z</time></trkpt><trkpt lat="52.8188883" lon="-1.7414533"><ele>123.33333333333333</ele><time>2026-05-04T09:55:23.796Z</time></trkpt><trkpt lat="52.8187333" lon="-1.741175"><ele>122.0</ele><time>2026-05-04T09:55:24.794Z</time></trkpt><trkpt lat="52.818575" lon="-1.740895"><ele>124.0</ele><time>2026-05-04T09:55:25.791Z</time></trkpt><trkpt lat="52.8184183" lon="-1.7406133"><ele>126.0</ele><time>2026-05-04T09:55:26.795Z</time></trkpt><trkpt lat="52.8182633" lon="-1.7403383"><ele>126.33333333333334</ele><time>2026-05-04T09:55:27.794Z</time></trkpt><trkpt lat="52.8181083" lon="-1.7400667"><ele>126.66666666666667</ele><time>2026-05-04T09:55:28.795Z</time></trkpt><trkpt lat="52.8179533" lon="-1.7398"><ele>127.0</ele><time>2026-05-04T09:55:29.795Z</time></trkpt><trkpt lat="52.81781" lon="-1.739545"><ele>127.0</ele><time>2026-05-04T09:55:30.795Z</time></trkpt><trkpt lat="52.8176783" lon="-1.7393083"><ele>127.0</ele><time>2026-05-04T09:55:31.795Z</time></trkpt><trkpt lat="52.81756" lon="-1.73909"><ele>127.0</ele><time>2026-05-04T09:55:32.795Z</time></trkpt><trkpt lat="52.817445" lon="-1.7388833"><ele>128.33333333333334</ele><time>2026-05-04T09:55:33.795Z</time></trkpt><trkpt lat="52.81733" lon="-1.7386767"><ele>129.66666666666666</ele><time>2026-05-04T09:55:34.795Z</time></trkpt><trkpt lat="52.8172133" lon="-1.738465"><ele>131.0</ele><time>2026-05-04T09:55:35.793Z</time></trkpt><trkpt lat="52.8171" lon="-1.7382633"><ele>131.0</ele><time>2026-05-04T09:55:36.796Z</time></trkpt><trkpt lat="52.81699" lon="-1.7380733"><ele>131.0</ele><time>2026-05-04T09:55:37.795Z</time></trkpt><trkpt lat="52.8168933" lon="-1.7378967"><ele>131.0</ele><time>2026-05-04T09:55:38.796Z</time></trkpt><trkpt lat="52.8167983" lon="-1.7377283"><ele>131.0</ele><time>2026-05-04T09:55:39.795Z</time></trkpt><trkpt lat="52.81671" lon="-1.7375717"><ele>131.75</ele><time>2026-05-04T09:55:40.796Z</time></trkpt><trkpt lat="52.8166217" lon="-1.7374183"><ele>132.5</ele><time>2026-05-04T09:55:41.795Z</time></trkpt><trkpt lat="52.816535" lon="-1.7372667"><ele>133.25</ele><time>2026-05-04T09:55:42.795Z</time></trkpt><trkpt lat="52.81645" lon="-1.7371167"><ele>134.0</ele><time>2026-05-04T09:55:43.797Z</time></trkpt><trkpt lat="52.8163683" lon="-1.7369683"><ele>134.2</ele><time>2026-05-04T09:55:44.791Z</time></trkpt><trkpt lat="52.8162917" lon="-1.736825"><ele>134.4</ele><time>2026-05-04T09:55:45.794Z</time></trkpt><trkpt lat="52.8162283" lon="-1.7366783"><ele>134.6</ele><time>2026-05-04T09:55:46.794Z</time></trkpt><trkpt lat="52.8161733" lon="-1.7365267"><ele>134.8</ele><time>2026-05-04T09:55:47.791Z</time></trkpt><trkpt lat="52.8161283" lon="-1.7363833"><ele>135.0</ele><time>2026-05-04T09:55:48.794Z</time></trkpt><trkpt lat="52.8160833" lon="-1.7362533"><ele>135.0</ele><time>2026-05-04T09:55:49.794Z</time></trkpt><trkpt lat="52.8160317" lon="-1.73614"><ele>135.0</ele><time>2026-05-04T09:55:50.791Z</time></trkpt><trkpt lat="52.8159733" lon="-1.73604"><ele>135.0</ele><time>2026-05-04T09:55:51.796Z</time></trkpt><trkpt lat="52.81591" lon="-1.7359617"><ele>135.0</ele><time>2026-05-04T09:55:52.795Z</time></trkpt><trkpt lat="52.8158567" lon="-1.735895"><ele>135.0</ele><time>2026-05-04T09:55:53.795Z</time></trkpt><trkpt lat="52.815785" lon="-1.7357833"><ele>135.0</ele><time>2026-05-04T09:55:55.794Z</time></trkpt><trkpt lat="52.8157317" lon="-1.7356367"><ele>135.5</ele><time>2026-05-04T09:55:57.792Z</time></trkpt><trkpt lat="52.815655" lon="-1.735495"><ele>136.0</ele><time>2026-05-04T09:55:59.795Z</time></trkpt><trkpt lat="52.8155483" lon="-1.7354467"><ele>136.5</ele><time>2026-05-04T09:56:01.795Z</time></trkpt><trkpt lat="52.8154167" lon="-1.7355167"><ele>137.0</ele><time>2026-05-04T09:56:03.796Z</time></trkpt><trkpt lat="52.81533" lon="-1.7355583"><ele>137.0</ele><time>2026-05-04T09:56:04.792Z</time></trkpt><trkpt lat="52.8152217" lon="-1.7355883"><ele>137.0</ele><time>2026-05-04T09:56:05.792Z</time></trkpt><trkpt lat="52.8151" lon="-1.73561"><ele>137.0</ele><time>2026-05-04T09:56:06.796Z</time></trkpt><trkpt lat="52.814975" lon="-1.7356367"><ele>137.0</ele><time>2026-05-04T09:56:07.795Z</time></trkpt><trkpt lat="52.814845" lon="-1.735665"><ele>137.0</ele><time>2026-05-04T09:56:08.796Z</time></trkpt><trkpt lat="52.8147067" lon="-1.7357017"><ele>137.0</ele><time>2026-05-04T09:56:09.796Z</time></trkpt><trkpt lat="52.8145583" lon="-1.7357317"><ele>137.0</ele><time>2026-05-04T09:56:10.792Z</time></trkpt><trkpt lat="52.8144017" lon="-1.7357583"><ele>137.0</ele><time>2026-05-04T09:56:11.792Z</time></trkpt><trkpt lat="52.81423" lon="-1.7357883"><ele>136.0</ele><time>2026-05-04T09:56:12.791Z</time></trkpt><trkpt lat="52.8140517" lon="-1.735815"><ele>135.0</ele><time>2026-05-04T09:56:13.793Z</time></trkpt><trkpt lat="52.81387" lon="-1.7358433"><ele>134.0</ele><time>2026-05-04T09:56:14.791Z</time></trkpt><trkpt lat="52.8136933" lon="-1.735875"><ele>134.0</ele><time>2026-05-04T09:56:15.792Z</time></trkpt><trkpt lat="52.8135167" lon="-1.73591"><ele>134.0</ele><time>2026-05-04T09:56:16.792Z</time></trkpt><trkpt lat="52.8133467" lon="-1.7359517"><ele>134.0</ele><time>2026-05-04T09:56:17.793Z</time></trkpt><trkpt lat="52.813175" lon="-1.7359883"><ele>133.33333333333331</ele><time>2026-05-04T09:56:18.793Z</time></trkpt><trkpt lat="52.8130033" lon="-1.73602"><ele>132.66666666666666</ele><time>2026-05-04T09:56:19.792Z</time></trkpt><trkpt lat="52.8128333" lon="-1.7360583"><ele>132.0</ele><time>2026-05-04T09:56:20.792Z</time></trkpt><trkpt lat="52.8126633" lon="-1.7360933"><ele>130.0</ele><time>2026-05-04T09:56:21.796Z</time></trkpt><trkpt lat="52.8124917" lon="-1.7361267"><ele>128.0</ele><time>2026-05-04T09:56:22.791Z</time></trkpt><trkpt lat="52.812315" lon="-1.7361633"><ele>126.0</ele><time>2026-05-04T09:56:23.792Z</time></trkpt><trkpt lat="52.81214" lon="-1.7362"><ele>126.0</ele><time>2026-05-04T09:56:24.803Z</time></trkpt><trkpt lat="52.8119583" lon="-1.7362333"><ele>126.0</ele><time>2026-05-04T09:56:25.795Z</time></trkpt><trkpt lat="52.8117733" lon="-1.7362683"><ele>126.0</ele><time>2026-05-04T09:56:26.793Z</time></trkpt><trkpt lat="52.81159" lon="-1.7362983"><ele>127.33333333333334</ele><time>2026-05-04T09:56:27.792Z</time></trkpt><trkpt lat="52.8114117" lon="-1.7363283"><ele>128.66666666666669</ele><time>2026-05-04T09:56:28.792Z</time></trkpt><trkpt lat="52.8112383" lon="-1.736365"><ele>130.0</ele><time>2026-05-04T09:56:29.793Z</time></trkpt><trkpt lat="52.8110617" lon="-1.7364"><ele>130.33333333333334</ele><time>2026-05-04T09:56:30.795Z</time></trkpt><trkpt lat="52.810885" lon="-1.7364383"><ele>130.66666666666666</ele><time>2026-05-04T09:56:31.791Z</time></trkpt><trkpt lat="52.810705" lon="-1.7364717"><ele>131.0</ele><time>2026-05-04T09:56:32.792Z</time></trkpt><trkpt lat="52.8105183" lon="-1.736505"><ele>131.0</ele><time>2026-05-04T09:56:33.792Z</time></trkpt><trkpt lat="52.81033" lon="-1.7365367"><ele>131.0</ele><time>2026-05-04T09:56:34.792Z</time></trkpt><trkpt lat="52.8101467" lon="-1.7365683"><ele>131.0</ele><time>2026-05-04T09:56:35.792Z</time></trkpt><trkpt lat="52.8099683" lon="-1.736605"><ele>132.0</ele><time>2026-05-04T09:56:36.792Z</time></trkpt><trkpt lat="52.80979" lon="-1.7366367"><ele>133.0</ele><time>2026-05-04T09:56:37.792Z</time></trkpt><trkpt lat="52.8096133" lon="-1.7366683"><ele>134.0</ele><time>2026-05-04T09:56:38.792Z</time></trkpt><trkpt lat="52.8094383" lon="-1.7367033"><ele>134.66666666666666</ele><time>2026-05-04T09:56:39.792Z</time></trkpt><trkpt lat="52.809265" lon="-1.7367367"><ele>135.33333333333334</ele><time>2026-05-04T09:56:40.791Z</time></trkpt><trkpt lat="52.8090983" lon="-1.73676"><ele>136.0</ele><time>2026-05-04T09:56:41.791Z</time></trkpt><trkpt lat="52.8089333" lon="-1.7367917"><ele>136.0</ele><time>2026-05-04T09:56:42.793Z</time></trkpt><trkpt lat="52.8087683" lon="-1.73683"><ele>136.0</ele><time>2026-05-04T09:56:43.792Z</time></trkpt><trkpt lat="52.8085983" lon="-1.7368667"><ele>136.0</ele><time>2026-05-04T09:56:44.791Z</time></trkpt><trkpt lat="52.8084217" lon="-1.7368983"><ele>136.66666666666669</ele><time>2026-05-04T09:56:45.791Z</time></trkpt><trkpt lat="52.8082433" lon="-1.7369367"><ele>137.33333333333334</ele><time>2026-05-04T09:56:46.792Z</time></trkpt><trkpt lat="52.80807" lon="-1.73697"><ele>138.0</ele><time>2026-05-04T09:56:47.792Z</time></trkpt><trkpt lat="52.8079" lon="-1.7369967"><ele>138.0</ele><time>2026-05-04T09:56:48.792Z</time></trkpt><trkpt lat="52.80773" lon="-1.737025"><ele>138.0</ele><time>2026-05-04T09:56:49.791Z</time></trkpt><trkpt lat="52.8075583" lon="-1.7370583"><ele>138.0</ele><time>2026-05-04T09:56:50.792Z</time></trkpt><trkpt lat="52.8073833" lon="-1.7370933"><ele>137.66666666666666</ele><time>2026-05-04T09:56:51.791Z</time></trkpt><trkpt lat="52.8072033" lon="-1.737135"><ele>137.33333333333331</ele><time>2026-05-04T09:56:52.798Z</time></trkpt><trkpt lat="52.8070233" lon="-1.7371683"><ele>137.0</ele><time>2026-05-04T09:56:53.796Z</time></trkpt><trkpt lat="52.8068417" lon="-1.7372033"><ele>136.33333333333331</ele><time>2026-05-04T09:56:54.795Z</time></trkpt><trkpt lat="52.80666" lon="-1.7372367"><ele>135.66666666666666</ele><time>2026-05-04T09:56:55.792Z</time></trkpt><trkpt lat="52.8064817" lon="-1.737275"><ele>135.0</ele><time>2026-05-04T09:56:56.796Z</time></trkpt><trkpt lat="52.8063033" lon="-1.73731"><ele>135.0</ele><time>2026-05-04T09:56:57.79Z</time></trkpt><trkpt lat="52.8061283" lon="-1.7373467"><ele>135.0</ele><time>2026-05-04T09:56:58.791Z</time></trkpt><trkpt lat="52.8059633" lon="-1.7373817"><ele>135.0</ele><time>2026-05-04T09:56:59.791Z</time></trkpt><trkpt lat="52.8058033" lon="-1.7374083"><ele>135.0</ele><time>2026-05-04T09:57:00.792Z</time></trkpt><trkpt lat="52.8056517" lon="-1.7374417"><ele>135.0</ele><time>2026-05-04T09:57:01.794Z</time></trkpt><trkpt lat="52.8054983" lon="-1.7374717"><ele>135.0</ele><time>2026-05-04T09:57:02.791Z</time></trkpt><trkpt lat="52.8053467" lon="-1.737495"><ele>135.0</ele><time>2026-05-04T09:57:03.792Z</time></trkpt><trkpt lat="52.805195" lon="-1.7375117"><ele>135.0</ele><time>2026-05-04T09:57:04.792Z</time></trkpt><trkpt lat="52.8050667" lon="-1.7375333"><ele>135.0</ele><time>2026-05-04T09:57:05.792Z</time></trkpt><trkpt lat="52.8049567" lon="-1.7375533"><ele>135.0</ele><time>2026-05-04T09:57:06.79Z</time></trkpt><trkpt lat="52.8048633" lon="-1.7375717"><ele>135.4</ele><time>2026-05-04T09:57:07.794Z</time></trkpt><trkpt lat="52.804785" lon="-1.73759"><ele>135.8</ele><time>2026-05-04T09:57:08.792Z</time></trkpt><trkpt lat="52.80472" lon="-1.7376083"><ele>136.2</ele><time>2026-05-04T09:57:09.79Z</time></trkpt><trkpt lat="52.80459" lon="-1.737635"><ele>136.6</ele><time>2026-05-04T09:57:11.793Z</time></trkpt><trkpt lat="52.8045033" lon="-1.7376483"><ele>137.0</ele><time>2026-05-04T09:57:12.792Z</time></trkpt><trkpt lat="52.8043833" lon="-1.7376717"><ele>137.66666666666666</ele><time>2026-05-04T09:57:13.791Z</time></trkpt><trkpt lat="52.8042367" lon="-1.73769"><ele>138.33333333333334</ele><time>2026-05-04T09:57:14.791Z</time></trkpt><trkpt lat="52.80407" lon="-1.7377117"><ele>139.0</ele><time>2026-05-04T09:57:15.791Z</time></trkpt><trkpt lat="52.803885" lon="-1.7377383"><ele>139.0</ele><time>2026-05-04T09:57:16.79Z</time></trkpt><trkpt lat="52.8036917" lon="-1.7377733"><ele>139.0</ele><time>2026-05-04T09:57:17.793Z</time></trkpt><trkpt lat="52.803485" lon="-1.737815"><ele>139.0</ele><time>2026-05-04T09:57:18.791Z</time></trkpt><trkpt lat="52.8032667" lon="-1.7378483"><ele>138.66666666666669</ele><time>2026-05-04T09:57:19.791Z</time></trkpt><trkpt lat="52.8030483" lon="-1.7378833"><ele>138.33333333333334</ele><time>2026-05-04T09:57:20.792Z</time></trkpt><trkpt lat="52.80283" lon="-1.7379283"><ele>138.0</ele><time>2026-05-04T09:57:21.792Z</time></trkpt><trkpt lat="52.80262" lon="-1.737975"><ele>137.0</ele><time>2026-05-04T09:57:22.791Z</time></trkpt><trkpt lat="52.8024133" lon="-1.7380167"><ele>136.0</ele><time>2026-05-04T09:57:23.792Z</time></trkpt><trkpt lat="52.8022083" lon="-1.7380633"><ele>135.0</ele><time>2026-05-04T09:57:24.792Z</time></trkpt><trkpt lat="52.8020067" lon="-1.7381117"><ele>135.66666666666666</ele><time>2026-05-04T09:57:25.791Z</time></trkpt><trkpt lat="52.8018067" lon="-1.738175"><ele>136.33333333333331</ele><time>2026-05-04T09:57:26.792Z</time></trkpt><trkpt lat="52.801615" lon="-1.7382533"><ele>137.0</ele><time>2026-05-04T09:57:27.792Z</time></trkpt><trkpt lat="52.8014333" lon="-1.7383567"><ele>137.0</ele><time>2026-05-04T09:57:28.791Z</time></trkpt><trkpt lat="52.80126" lon="-1.738485"><ele>137.0</ele><time>2026-05-04T09:57:29.792Z</time></trkpt><trkpt lat="52.80109" lon="-1.7386217"><ele>137.0</ele><time>2026-05-04T09:57:30.792Z</time></trkpt><trkpt lat="52.8009217" lon="-1.738765"><ele>135.66666666666666</ele><time>2026-05-04T09:57:31.792Z</time></trkpt><trkpt lat="52.8007567" lon="-1.738915"><ele>134.33333333333334</ele><time>2026-05-04T09:57:32.792Z</time></trkpt><trkpt lat="52.800585" lon="-1.7390617"><ele>133.0</ele><time>2026-05-04T09:57:33.791Z</time></trkpt><trkpt lat="52.8004133" lon="-1.7391983"><ele>133.0</ele><time>2026-05-04T09:57:34.792Z</time></trkpt><trkpt lat="52.800235" lon="-1.7393133"><ele>133.0</ele><time>2026-05-04T09:57:35.792Z</time></trkpt><trkpt lat="52.8000533" lon="-1.73941"><ele>133.0</ele><time>2026-05-04T09:57:36.791Z</time></trkpt><trkpt lat="52.799865" lon="-1.7394917"><ele>131.33333333333334</ele><time>2026-05-04T09:57:37.792Z</time></trkpt><trkpt lat="52.7996717" lon="-1.739555"><ele>129.66666666666666</ele><time>2026-05-04T09:57:38.791Z</time></trkpt><trkpt lat="52.799475" lon="-1.7395933"><ele>128.0</ele><time>2026-05-04T09:57:39.791Z</time></trkpt><trkpt lat="52.7992817" lon="-1.7396083"><ele>127.66666666666666</ele><time>2026-05-04T09:57:40.792Z</time></trkpt><trkpt lat="52.7990883" lon="-1.7396083"><ele>127.33333333333334</ele><time>2026-05-04T09:57:41.791Z</time></trkpt><trkpt lat="52.7988967" lon="-1.739595"><ele>127.0</ele><time>2026-05-04T09:57:42.795Z</time></trkpt><trkpt lat="52.7987067" lon="-1.73957"><ele>127.0</ele><time>2026-05-04T09:57:43.795Z</time></trkpt><trkpt lat="52.7985167" lon="-1.7395333"><ele>127.0</ele><time>2026-05-04T09:57:44.795Z</time></trkpt><trkpt lat="52.79833" lon="-1.73948"><ele>127.0</ele><time>2026-05-04T09:57:45.791Z</time></trkpt><trkpt lat="52.798145" lon="-1.7394283"><ele>127.0</ele><time>2026-05-04T09:57:46.792Z</time></trkpt><trkpt lat="52.7979567" lon="-1.73936"><ele>127.0</ele><time>2026-05-04T09:57:47.792Z</time></trkpt><trkpt lat="52.79777" lon="-1.7392767"><ele>127.0</ele><time>2026-05-04T09:57:48.791Z</time></trkpt><trkpt lat="52.797585" lon="-1.7392017"><ele>126.0</ele><time>2026-05-04T09:57:49.792Z</time></trkpt><trkpt lat="52.7973967" lon="-1.7391367"><ele>125.0</ele><time>2026-05-04T09:57:50.792Z</time></trkpt><trkpt lat="52.7972167" lon="-1.73909"><ele>124.0</ele><time>2026-05-04T09:57:51.792Z</time></trkpt><trkpt lat="52.7970333" lon="-1.7390583"><ele>124.0</ele><time>2026-05-04T09:57:52.792Z</time></trkpt><trkpt lat="52.7968483" lon="-1.73904"><ele>124.0</ele><time>2026-05-04T09:57:53.791Z</time></trkpt><trkpt lat="52.79666" lon="-1.739025"><ele>124.0</ele><time>2026-05-04T09:57:54.79Z</time></trkpt><trkpt lat="52.7964717" lon="-1.73903"><ele>125.0</ele><time>2026-05-04T09:57:55.791Z</time></trkpt><trkpt lat="52.7962817" lon="-1.7390517"><ele>126.0</ele><time>2026-05-04T09:57:56.791Z</time></trkpt><trkpt lat="52.7960883" lon="-1.7390817"><ele>127.0</ele><time>2026-05-04T09:57:57.792Z</time></trkpt><trkpt lat="52.7958967" lon="-1.73911"><ele>127.0</ele><time>2026-05-04T09:57:58.791Z</time></trkpt><trkpt lat="52.7957067" lon="-1.7391567"><ele>127.0</ele><time>2026-05-04T09:57:59.792Z</time></trkpt><trkpt lat="52.7955183" lon="-1.73919"><ele>127.0</ele><time>2026-05-04T09:58:00.792Z</time></trkpt><trkpt lat="52.79533" lon="-1.73923"><ele>126.66666666666667</ele><time>2026-05-04T09:58:01.793Z</time></trkpt><trkpt lat="52.7951367" lon="-1.7392533"><ele>126.33333333333334</ele><time>2026-05-04T09:58:02.791Z</time></trkpt><trkpt lat="52.7949417" lon="-1.7392833"><ele>126.0</ele><time>2026-05-04T09:58:03.793Z</time></trkpt><trkpt lat="52.7947483" lon="-1.7393117"><ele>126.0</ele><time>2026-05-04T09:58:04.791Z</time></trkpt><trkpt lat="52.7945567" lon="-1.7393433"><ele>126.0</ele><time>2026-05-04T09:58:05.792Z</time></trkpt><trkpt lat="52.7943667" lon="-1.7393733"><ele>126.0</ele><time>2026-05-04T09:58:06.791Z</time></trkpt><trkpt lat="52.79418" lon="-1.7394017"><ele>125.0</ele><time>2026-05-04T09:58:07.792Z</time></trkpt><trkpt lat="52.7939917" lon="-1.739425"><ele>124.0</ele><time>2026-05-04T09:58:08.79Z</time></trkpt><trkpt lat="52.7938033" lon="-1.7394517"><ele>123.0</ele><time>2026-05-04T09:58:09.791Z</time></trkpt><trkpt lat="52.7936133" lon="-1.7394717"><ele>122.33333333333334</ele><time>2026-05-04T09:58:10.792Z</time></trkpt><trkpt lat="52.79342" lon="-1.739505"><ele>121.66666666666667</ele><time>2026-05-04T09:58:11.793Z</time></trkpt><trkpt lat="52.7932267" lon="-1.7395333"><ele>121.0</ele><time>2026-05-04T09:58:12.791Z</time></trkpt><trkpt lat="52.7930333" lon="-1.7395633"><ele>121.0</ele><time>2026-05-04T09:58:13.794Z</time></trkpt><trkpt lat="52.7928417" lon="-1.7396"><ele>121.0</ele><time>2026-05-04T09:58:14.795Z</time></trkpt><trkpt lat="52.79265" lon="-1.7396333"><ele>121.0</ele><time>2026-05-04T09:58:15.795Z</time></trkpt><trkpt lat="52.7924567" lon="-1.739665"><ele>120.0</ele><time>2026-05-04T09:58:16.794Z</time></trkpt><trkpt lat="52.7922667" lon="-1.7396967"><ele>119.0</ele><time>2026-05-04T09:58:17.796Z</time></trkpt><trkpt lat="52.7920767" lon="-1.73973"><ele>118.0</ele><time>2026-05-04T09:58:18.796Z</time></trkpt><trkpt lat="52.7918867" lon="-1.7397617"><ele>117.0</ele><time>2026-05-04T09:58:19.796Z</time></trkpt><trkpt lat="52.7916967" lon="-1.7397983"><ele>116.0</ele><time>2026-05-04T09:58:20.795Z</time></trkpt><trkpt lat="52.7915083" lon="-1.7398317"><ele>115.0</ele><time>2026-05-04T09:58:21.795Z</time></trkpt><trkpt lat="52.7913183" lon="-1.7398633"><ele>115.0</ele><time>2026-05-04T09:58:22.795Z</time></trkpt><trkpt lat="52.7911283" lon="-1.739895"><ele>115.0</ele><time>2026-05-04T09:58:23.794Z</time></trkpt><trkpt lat="52.7909383" lon="-1.7399233"><ele>115.0</ele><time>2026-05-04T09:58:24.794Z</time></trkpt><trkpt lat="52.79075" lon="-1.73995"><ele>114.33333333333334</ele><time>2026-05-04T09:58:25.795Z</time></trkpt><trkpt lat="52.7905583" lon="-1.7399767"><ele>113.66666666666666</ele><time>2026-05-04T09:58:26.792Z</time></trkpt><trkpt lat="52.7903667" lon="-1.7400083"><ele>113.0</ele><time>2026-05-04T09:58:27.795Z</time></trkpt><trkpt lat="52.7901733" lon="-1.74004"><ele>111.33333333333333</ele><time>2026-05-04T09:58:28.792Z</time></trkpt><trkpt lat="52.789985" lon="-1.7400733"><ele>109.66666666666666</ele><time>2026-05-04T09:58:29.792Z</time></trkpt><trkpt lat="52.789795" lon="-1.7401033"><ele>108.0</ele><time>2026-05-04T09:58:30.792Z</time></trkpt><trkpt lat="52.789605" lon="-1.7401267"><ele>108.0</ele><time>2026-05-04T09:58:31.792Z</time></trkpt><trkpt lat="52.7894117" lon="-1.74015"><ele>108.0</ele><time>2026-05-04T09:58:32.791Z</time></trkpt><trkpt lat="52.789225" lon="-1.740185"><ele>108.0</ele><time>2026-05-04T09:58:33.795Z</time></trkpt><trkpt lat="52.7890367" lon="-1.7402233"><ele>104.0</ele><time>2026-05-04T09:58:34.795Z</time></trkpt><trkpt lat="52.7888483" lon="-1.740255"><ele>100.0</ele><time>2026-05-04T09:58:35.795Z</time></trkpt><trkpt lat="52.7886617" lon="-1.74029"><ele>96.0</ele><time>2026-05-04T09:58:36.791Z</time></trkpt><trkpt lat="52.7884717" lon="-1.7403233"><ele>95.0</ele><time>2026-05-04T09:58:37.791Z</time></trkpt><trkpt lat="52.78828" lon="-1.7403633"><ele>94.0</ele><time>2026-05-04T09:58:38.79Z</time></trkpt><trkpt lat="52.7880933" lon="-1.7404"><ele>93.0</ele><time>2026-05-04T09:58:39.791Z</time></trkpt><trkpt lat="52.7879033" lon="-1.7404333"><ele>93.0</ele><time>2026-05-04T09:58:40.791Z</time></trkpt><trkpt lat="52.7877183" lon="-1.740465"><ele>93.0</ele><time>2026-05-04T09:58:41.791Z</time></trkpt><trkpt lat="52.787535" lon="-1.7404967"><ele>93.0</ele><time>2026-05-04T09:58:42.791Z</time></trkpt><trkpt lat="52.7873533" lon="-1.7405233"><ele>91.33333333333333</ele><time>2026-05-04T09:58:43.794Z</time></trkpt><trkpt lat="52.7871683" lon="-1.7405533"><ele>89.66666666666666</ele><time>2026-05-04T09:58:44.791Z</time></trkpt><trkpt lat="52.7869817" lon="-1.7405867"><ele>88.0</ele><time>2026-05-04T09:58:45.792Z</time></trkpt><trkpt lat="52.7867917" lon="-1.7406233"><ele>88.0</ele><time>2026-05-04T09:58:46.792Z</time></trkpt><trkpt lat="52.7866" lon="-1.740655"><ele>88.0</ele><time>2026-05-04T09:58:47.792Z</time></trkpt><trkpt lat="52.7864117" lon="-1.7406817"><ele>88.0</ele><time>2026-05-04T09:58:48.791Z</time></trkpt><trkpt lat="52.78623" lon="-1.7407083"><ele>88.0</ele><time>2026-05-04T09:58:49.792Z</time></trkpt><trkpt lat="52.78605" lon="-1.7407433"><ele>88.0</ele><time>2026-05-04T09:58:50.795Z</time></trkpt><trkpt lat="52.7858683" lon="-1.7407767"><ele>88.0</ele><time>2026-05-04T09:58:51.794Z</time></trkpt><trkpt lat="52.78569" lon="-1.74081"><ele>89.33333333333333</ele><time>2026-05-04T09:58:52.792Z</time></trkpt><trkpt lat="52.78551" lon="-1.74084"><ele>90.66666666666667</ele><time>2026-05-04T09:58:53.795Z</time></trkpt><trkpt lat="52.78533" lon="-1.74087"><ele>92.0</ele><time>2026-05-04T09:58:54.791Z</time></trkpt><trkpt lat="52.7851467" lon="-1.740905"><ele>93.33333333333334</ele><time>2026-05-04T09:58:55.791Z</time></trkpt><trkpt lat="52.7849633" lon="-1.7409383"><ele>94.66666666666667</ele><time>2026-05-04T09:58:56.795Z</time></trkpt><trkpt lat="52.7847767" lon="-1.7409767"><ele>96.0</ele><time>2026-05-04T09:58:57.792Z</time></trkpt><trkpt lat="52.7845867" lon="-1.7410167"><ele>96.0</ele><time>2026-05-04T09:58:58.795Z</time></trkpt><trkpt lat="52.78439" lon="-1.74104"><ele>96.0</ele><time>2026-05-04T09:58:59.795Z</time></trkpt><trkpt lat="52.7841933" lon="-1.7410717"><ele>96.0</ele><time>2026-05-04T09:59:00.794Z</time></trkpt><trkpt lat="52.7839933" lon="-1.7411017"><ele>96.0</ele><time>2026-05-04T09:59:01.79Z</time></trkpt><trkpt lat="52.7837917" lon="-1.74113"><ele>96.0</ele><time>2026-05-04T09:59:02.791Z</time></trkpt><trkpt lat="52.78359" lon="-1.7411433"><ele>96.0</ele><time>2026-05-04T09:59:03.792Z</time></trkpt><trkpt lat="52.7833983" lon="-1.74117"><ele>95.33333333333333</ele><time>2026-05-04T09:59:04.793Z</time></trkpt><trkpt lat="52.7832133" lon="-1.741205"><ele>94.66666666666666</ele><time>2026-05-04T09:59:05.794Z</time></trkpt><trkpt lat="52.7830333" lon="-1.74124"><ele>94.0</ele><time>2026-05-04T09:59:06.792Z</time></trkpt><trkpt lat="52.7828533" lon="-1.74128"><ele>93.66666666666666</ele><time>2026-05-04T09:59:07.79Z</time></trkpt><trkpt lat="52.7826783" lon="-1.7413233"><ele>93.33333333333333</ele><time>2026-05-04T09:59:08.792Z</time></trkpt><trkpt lat="52.7825017" lon="-1.74136"><ele>93.0</ele><time>2026-05-04T09:59:09.792Z</time></trkpt><trkpt lat="52.7823233" lon="-1.74139"><ele>93.0</ele><time>2026-05-04T09:59:10.791Z</time></trkpt><trkpt lat="52.782135" lon="-1.74142"><ele>93.0</ele><time>2026-05-04T09:59:11.792Z</time></trkpt><trkpt lat="52.781945" lon="-1.7414567"><ele>93.0</ele><time>2026-05-04T09:59:12.796Z</time></trkpt><trkpt lat="52.7817567" lon="-1.741495"><ele>92.66666666666667</ele><time>2026-05-04T09:59:13.792Z</time></trkpt><trkpt lat="52.7815683" lon="-1.7415283"><ele>92.33333333333334</ele><time>2026-05-04T09:59:14.791Z</time></trkpt><trkpt lat="52.78138" lon="-1.7415583"><ele>92.0</ele><time>2026-05-04T09:59:15.796Z</time></trkpt><trkpt lat="52.78119" lon="-1.7415883"><ele>93.33333333333334</ele><time>2026-05-04T09:59:16.792Z</time></trkpt><trkpt lat="52.781" lon="-1.7416183"><ele>94.66666666666667</ele><time>2026-05-04T09:59:17.792Z</time></trkpt><trkpt lat="52.7808117" lon="-1.7416433"><ele>96.0</ele><time>2026-05-04T09:59:18.792Z</time></trkpt><trkpt lat="52.7806183" lon="-1.74169"><ele>96.0</ele><time>2026-05-04T09:59:19.792Z</time></trkpt><trkpt lat="52.780425" lon="-1.7417267"><ele>96.0</ele><time>2026-05-04T09:59:20.795Z</time></trkpt><trkpt lat="52.78023" lon="-1.7417667"><ele>96.0</ele><time>2026-05-04T09:59:21.794Z</time></trkpt><trkpt lat="52.7800383" lon="-1.741795"><ele>96.0</ele><time>2026-05-04T09:59:22.795Z</time></trkpt><trkpt lat="52.7798517" lon="-1.74183"><ele>96.0</ele><time>2026-05-04T09:59:23.791Z</time></trkpt><trkpt lat="52.7796583" lon="-1.7418633"><ele>96.0</ele><time>2026-05-04T09:59:24.79Z</time></trkpt><trkpt lat="52.77947" lon="-1.741895"><ele>96.66666666666666</ele><time>2026-05-04T09:59:25.791Z</time></trkpt><trkpt lat="52.7792733" lon="-1.74192"><ele>97.33333333333333</ele><time>2026-05-04T09:59:26.795Z</time></trkpt><trkpt lat="52.7790783" lon="-1.7419467"><ele>98.0</ele><time>2026-05-04T09:59:27.795Z</time></trkpt><trkpt lat="52.778885" lon="-1.7419783"><ele>98.0</ele><time>2026-05-04T09:59:28.792Z</time></trkpt><trkpt lat="52.7786917" lon="-1.7420083"><ele>98.0</ele><time>2026-05-04T09:59:29.792Z</time></trkpt><trkpt lat="52.7784983" lon="-1.7420433"><ele>98.0</ele><time>2026-05-04T09:59:30.791Z</time></trkpt><trkpt lat="52.7783083" lon="-1.7420767"><ele>98.33333333333333</ele><time>2026-05-04T09:59:31.792Z</time></trkpt><trkpt lat="52.7781183" lon="-1.7421067"><ele>98.66666666666666</ele><time>2026-05-04T09:59:32.792Z</time></trkpt><trkpt lat="52.7779267" lon="-1.7421433"><ele>99.0</ele><time>2026-05-04T09:59:33.792Z</time></trkpt><trkpt lat="52.7777317" lon="-1.7421667"><ele>99.33333333333334</ele><time>2026-05-04T09:59:34.791Z</time></trkpt><trkpt lat="52.7775417" lon="-1.7422017"><ele>99.66666666666667</ele><time>2026-05-04T09:59:35.791Z</time></trkpt><trkpt lat="52.7773567" lon="-1.7422367"><ele>100.0</ele><time>2026-05-04T09:59:36.792Z</time></trkpt><trkpt lat="52.7771683" lon="-1.742275"><ele>100.0</ele><time>2026-05-04T09:59:37.792Z</time></trkpt><trkpt lat="52.77698" lon="-1.742305"><ele>100.0</ele><time>2026-05-04T09:59:38.791Z</time></trkpt><trkpt lat="52.77679" lon="-1.7423317"><ele>100.0</ele><time>2026-05-04T09:59:39.791Z</time></trkpt><trkpt lat="52.7765983" lon="-1.742355"><ele>99.0</ele><time>2026-05-04T09:59:40.792Z</time></trkpt><trkpt lat="52.776405" lon="-1.74239"><ele>98.0</ele><time>2026-05-04T09:59:41.795Z</time></trkpt><trkpt lat="52.77621" lon="-1.7424183"><ele>97.0</ele><time>2026-05-04T09:59:42.79Z</time></trkpt><trkpt lat="52.7760167" lon="-1.7424433"><ele>96.33333333333334</ele><time>2026-05-04T09:59:43.795Z</time></trkpt><trkpt lat="52.7758233" lon="-1.7424733"><ele>95.66666666666667</ele><time>2026-05-04T09:59:44.795Z</time></trkpt><trkpt lat="52.7756333" lon="-1.7425067"><ele>95.0</ele><time>2026-05-04T09:59:45.795Z</time></trkpt><trkpt lat="52.775445" lon="-1.742535"><ele>95.0</ele><time>2026-05-04T09:59:46.792Z</time></trkpt><trkpt lat="52.7752567" lon="-1.742565"><ele>95.0</ele><time>2026-05-04T09:59:47.792Z</time></trkpt><trkpt lat="52.7750683" lon="-1.742595"><ele>95.0</ele><time>2026-05-04T09:59:48.792Z</time></trkpt><trkpt lat="52.77488" lon="-1.7426267"><ele>94.33333333333334</ele><time>2026-05-04T09:59:49.791Z</time></trkpt><trkpt lat="52.7746917" lon="-1.74266"><ele>93.66666666666667</ele><time>2026-05-04T09:59:50.795Z</time></trkpt><trkpt lat="52.7745017" lon="-1.7426983"><ele>93.0</ele><time>2026-05-04T09:59:51.79Z</time></trkpt><trkpt lat="52.7743117" lon="-1.7427333"><ele>92.33333333333333</ele><time>2026-05-04T09:59:52.791Z</time></trkpt><trkpt lat="52.77412" lon="-1.7427617"><ele>91.66666666666666</ele><time>2026-05-04T09:59:53.792Z</time></trkpt><trkpt lat="52.7739283" lon="-1.7427933"><ele>91.0</ele><time>2026-05-04T09:59:54.795Z</time></trkpt><trkpt lat="52.7737367" lon="-1.7428167"><ele>91.0</ele><time>2026-05-04T09:59:55.792Z</time></trkpt><trkpt lat="52.7735433" lon="-1.7428383"><ele>91.0</ele><time>2026-05-04T09:59:56.796Z</time></trkpt><trkpt lat="52.77335" lon="-1.7428617"><ele>91.0</ele><time>2026-05-04T09:59:57.792Z</time></trkpt><trkpt lat="52.77316" lon="-1.7428917"><ele>90.33333333333333</ele><time>2026-05-04T09:59:58.791Z</time></trkpt><trkpt lat="52.77297" lon="-1.7429217"><ele>89.66666666666667</ele><time>2026-05-04T09:59:59.791Z</time></trkpt><trkpt lat="52.7727783" lon="-1.7429533"><ele>89.0</ele><time>2026-05-04T10:00:00.792Z</time></trkpt><trkpt lat="52.7725883" lon="-1.7429867"><ele>87.33333333333334</ele><time>2026-05-04T10:00:01.792Z</time></trkpt><trkpt lat="52.7724" lon="-1.74302"><ele>85.66666666666667</ele><time>2026-05-04T10:00:02.794Z</time></trkpt><trkpt lat="52.7722117" lon="-1.7430533"><ele>84.0</ele><time>2026-05-04T10:00:03.791Z</time></trkpt><trkpt lat="52.772025" lon="-1.743085"><ele>83.66666666666667</ele><time>2026-05-04T10:00:04.792Z</time></trkpt><trkpt lat="52.771845" lon="-1.7431117"><ele>83.33333333333334</ele><time>2026-05-04T10:00:05.792Z</time></trkpt><trkpt lat="52.7716817" lon="-1.7431383"><ele>83.0</ele><time>2026-05-04T10:00:06.792Z</time></trkpt><trkpt lat="52.7715317" lon="-1.743165"><ele>83.0</ele><time>2026-05-04T10:00:07.792Z</time></trkpt><trkpt lat="52.77139" lon="-1.7431883"><ele>83.0</ele><time>2026-05-04T10:00:08.791Z</time></trkpt><trkpt lat="52.7712517" lon="-1.7432117"><ele>83.0</ele><time>2026-05-04T10:00:09.79Z</time></trkpt><trkpt lat="52.771115" lon="-1.743235"><ele>83.0</ele><time>2026-05-04T10:00:10.792Z</time></trkpt><trkpt lat="52.7709867" lon="-1.7432533"><ele>83.0</ele><time>2026-05-04T10:00:11.792Z</time></trkpt><trkpt lat="52.7708717" lon="-1.7432717"><ele>83.0</ele><time>2026-05-04T10:00:12.795Z</time></trkpt><trkpt lat="52.7707733" lon="-1.7432867"><ele>83.0</ele><time>2026-05-04T10:00:13.795Z</time></trkpt><trkpt lat="52.7706967" lon="-1.7432967"><ele>83.0</ele><time>2026-05-04T10:00:14.795Z</time></trkpt><trkpt lat="52.7706033" lon="-1.7432917"><ele>83.0</ele><time>2026-05-04T10:00:16.792Z</time></trkpt><trkpt lat="52.77053" lon="-1.7432283"><ele>83.0</ele><time>2026-05-04T10:00:18.79Z</time></trkpt><trkpt lat="52.77045" lon="-1.7430633"><ele>83.0</ele><time>2026-05-04T10:00:20.791Z</time></trkpt><trkpt lat="52.7704017" lon="-1.7429467"><ele>83.0</ele><time>2026-05-04T10:00:21.792Z</time></trkpt><trkpt lat="52.770345" lon="-1.7428083"><ele>83.0</ele><time>2026-05-04T10:00:22.792Z</time></trkpt><trkpt lat="52.770285" lon="-1.7426567"><ele>83.0</ele><time>2026-05-04T10:00:23.802Z</time></trkpt><trkpt lat="52.7702233" lon="-1.7424967"><ele>82.0</ele><time>2026-05-04T10:00:24.793Z</time></trkpt><trkpt lat="52.7701567" lon="-1.74232"><ele>81.0</ele><time>2026-05-04T10:00:25.792Z</time></trkpt><trkpt lat="52.7700833" lon="-1.7421333"><ele>80.0</ele><time>2026-05-04T10:00:26.792Z</time></trkpt><trkpt lat="52.77001" lon="-1.7419333"><ele>79.0</ele><time>2026-05-04T10:00:27.79Z</time></trkpt><trkpt lat="52.7699283" lon="-1.74173"><ele>79.0</ele><time>2026-05-04T10:00:28.791Z</time></trkpt><trkpt lat="52.7698417" lon="-1.74152"><ele>79.0</ele><time>2026-05-04T10:00:29.791Z</time></trkpt><trkpt lat="52.7697567" lon="-1.7413083"><ele>79.0</ele><time>2026-05-04T10:00:30.791Z</time></trkpt><trkpt lat="52.7696683" lon="-1.7410933"><ele>79.33333333333333</ele><time>2026-05-04T10:00:31.793Z</time></trkpt><trkpt lat="52.7695783" lon="-1.740885"><ele>79.66666666666667</ele><time>2026-05-04T10:00:32.792Z</time></trkpt><trkpt lat="52.7694867" lon="-1.740685"><ele>80.0</ele><time>2026-05-04T10:00:33.792Z</time></trkpt><trkpt lat="52.7694" lon="-1.7404883"><ele>79.25</ele><time>2026-05-04T10:00:34.792Z</time></trkpt><trkpt lat="52.76932" lon="-1.7402967"><ele>78.5</ele><time>2026-05-04T10:00:35.793Z</time></trkpt><trkpt lat="52.7692417" lon="-1.7401083"><ele>77.75</ele><time>2026-05-04T10:00:36.791Z</time></trkpt><trkpt lat="52.769165" lon="-1.7399283"><ele>77.0</ele><time>2026-05-04T10:00:37.792Z</time></trkpt><trkpt lat="52.7690867" lon="-1.7397533"><ele>77.0</ele><time>2026-05-04T10:00:38.794Z</time></trkpt><trkpt lat="52.7690067" lon="-1.73958"><ele>77.0</ele><time>2026-05-04T10:00:39.791Z</time></trkpt><trkpt lat="52.768925" lon="-1.7394067"><ele>77.0</ele><time>2026-05-04T10:00:40.791Z</time></trkpt><trkpt lat="52.76884" lon="-1.7392317"><ele>77.0</ele><time>2026-05-04T10:00:41.792Z</time></trkpt><trkpt lat="52.7687467" lon="-1.7390467"><ele>78.0</ele><time>2026-05-04T10:00:42.792Z</time></trkpt><trkpt lat="52.7686467" lon="-1.73885"><ele>79.0</ele><time>2026-05-04T10:00:43.792Z</time></trkpt><trkpt lat="52.7685417" lon="-1.7386517"><ele>80.0</ele><time>2026-05-04T10:00:44.792Z</time></trkpt><trkpt lat="52.7684317" lon="-1.7384533"><ele>80.33333333333334</ele><time>2026-05-04T10:00:45.791Z</time></trkpt><trkpt lat="52.7683317" lon="-1.7382567"><ele>80.66666666666667</ele><time>2026-05-04T10:00:46.791Z</time></trkpt><trkpt lat="52.7682383" lon="-1.738055"><ele>81.0</ele><time>2026-05-04T10:00:47.791Z</time></trkpt><trkpt lat="52.7681433" lon="-1.7378567"><ele>81.0</ele><time>2026-05-04T10:00:48.791Z</time></trkpt><trkpt lat="52.76805" lon="-1.7376567"><ele>81.0</ele><time>2026-05-04T10:00:49.791Z</time></trkpt><trkpt lat="52.7679583" lon="-1.7374483"><ele>81.0</ele><time>2026-05-04T10:00:50.792Z</time></trkpt><trkpt lat="52.7678717" lon="-1.7372533"><ele>81.0</ele><time>2026-05-04T10:00:51.791Z</time></trkpt><trkpt lat="52.7677833" lon="-1.7370567"><ele>81.0</ele><time>2026-05-04T10:00:52.791Z</time></trkpt><trkpt lat="52.767695" lon="-1.7368533"><ele>81.0</ele><time>2026-05-04T10:00:53.791Z</time></trkpt><trkpt lat="52.7676167" lon="-1.7366583"><ele>81.0</ele><time>2026-05-04T10:00:54.796Z</time></trkpt><trkpt lat="52.7675467" lon="-1.736465"><ele>80.0</ele><time>2026-05-04T10:00:55.791Z</time></trkpt><trkpt lat="52.7674633" lon="-1.7362633"><ele>79.0</ele><time>2026-05-04T10:00:56.792Z</time></trkpt><trkpt lat="52.7673817" lon="-1.7360617"><ele>78.0</ele><time>2026-05-04T10:00:57.791Z</time></trkpt><trkpt lat="52.7673" lon="-1.7358483"><ele>77.0</ele><time>2026-05-04T10:00:58.792Z</time></trkpt><trkpt lat="52.7672233" lon="-1.735635"><ele>77.0</ele><time>2026-05-04T10:00:59.792Z</time></trkpt><trkpt lat="52.76715" lon="-1.735415"><ele>77.0</ele><time>2026-05-04T10:01:00.791Z</time></trkpt><trkpt lat="52.7670733" lon="-1.7351917"><ele>77.0</ele><time>2026-05-04T10:01:01.79Z</time></trkpt><trkpt lat="52.7670017" lon="-1.7349783"><ele>76.5</ele><time>2026-05-04T10:01:02.79Z</time></trkpt><trkpt lat="52.7669317" lon="-1.7347683"><ele>76.0</ele><time>2026-05-04T10:01:03.792Z</time></trkpt><trkpt lat="52.76687" lon="-1.7345733"><ele>75.5</ele><time>2026-05-04T10:01:04.791Z</time></trkpt><trkpt lat="52.7668033" lon="-1.7343867"><ele>75.0</ele><time>2026-05-04T10:01:05.791Z</time></trkpt><trkpt lat="52.76675" lon="-1.734215"><ele>74.2</ele><time>2026-05-04T10:01:06.791Z</time></trkpt><trkpt lat="52.7667" lon="-1.7340567"><ele>73.4</ele><time>2026-05-04T10:01:07.791Z</time></trkpt><trkpt lat="52.7666533" lon="-1.7339083"><ele>72.6</ele><time>2026-05-04T10:01:08.791Z</time></trkpt><trkpt lat="52.7666067" lon="-1.733765"><ele>71.8</ele><time>2026-05-04T10:01:09.79Z</time></trkpt><trkpt lat="52.7665683" lon="-1.7336133"><ele>71.0</ele><time>2026-05-04T10:01:10.79Z</time></trkpt><trkpt lat="52.7665383" lon="-1.7334583"><ele>70.75</ele><time>2026-05-04T10:01:11.79Z</time></trkpt><trkpt lat="52.766505" lon="-1.7332867"><ele>70.5</ele><time>2026-05-04T10:01:12.792Z</time></trkpt><trkpt lat="52.7664833" lon="-1.73311"><ele>70.25</ele><time>2026-05-04T10:01:13.791Z</time></trkpt><trkpt lat="52.7664717" lon="-1.7329233"><ele>70.0</ele><time>2026-05-04T10:01:14.792Z</time></trkpt><trkpt lat="52.7664483" lon="-1.7327317"><ele>69.8</ele><time>2026-05-04T10:01:15.795Z</time></trkpt><trkpt lat="52.766435" lon="-1.7325533"><ele>69.6</ele><time>2026-05-04T10:01:16.79Z</time></trkpt><trkpt lat="52.766425" lon="-1.7323767"><ele>69.4</ele><time>2026-05-04T10:01:17.791Z</time></trkpt><trkpt lat="52.7664117" lon="-1.7322133"><ele>69.2</ele><time>2026-05-04T10:01:18.791Z</time></trkpt><trkpt lat="52.7664017" lon="-1.73209"><ele>69.0</ele><time>2026-05-04T10:01:19.791Z</time></trkpt><trkpt lat="52.7663817" lon="-1.7319767"><ele>69.16666666666667</ele><time>2026-05-04T10:01:20.791Z</time></trkpt><trkpt lat="52.7663567" lon="-1.7318333"><ele>69.33333333333333</ele><time>2026-05-04T10:01:21.792Z</time></trkpt><trkpt lat="52.7663367" lon="-1.7316633"><ele>69.5</ele><time>2026-05-04T10:01:22.791Z</time></trkpt><trkpt lat="52.76632" lon="-1.7315033"><ele>69.66666666666666</ele><time>2026-05-04T10:01:23.791Z</time></trkpt><trkpt lat="52.7663017" lon="-1.731365"><ele>69.83333333333333</ele><time>2026-05-04T10:01:24.791Z</time></trkpt><trkpt lat="52.7662817" lon="-1.731255"><ele>70.0</ele><time>2026-05-04T10:01:25.79Z</time></trkpt><trkpt lat="52.7662533" lon="-1.7310683"><ele>70.16666666666666</ele><time>2026-05-04T10:01:27.792Z</time></trkpt><trkpt lat="52.766225" lon="-1.7308783"><ele>70.33333333333333</ele><time>2026-05-04T10:01:29.793Z</time></trkpt><trkpt lat="52.766195" lon="-1.7306767"><ele>70.5</ele><time>2026-05-04T10:01:31.792Z</time></trkpt><trkpt lat="52.7661783" lon="-1.7305717"><ele>70.66666666666667</ele><time>2026-05-04T10:01:32.792Z</time></trkpt><trkpt lat="52.7661633" lon="-1.7304617"><ele>70.83333333333334</ele><time>2026-05-04T10:01:33.79Z</time></trkpt><trkpt lat="52.7661483" lon="-1.73035"><ele>71.0</ele><time>2026-05-04T10:01:34.795Z</time></trkpt><trkpt lat="52.7661283" lon="-1.7302417"><ele>71.0</ele><time>2026-05-04T10:01:35.792Z</time></trkpt><trkpt lat="52.7661117" lon="-1.7301233"><ele>71.0</ele><time>2026-05-04T10:01:36.792Z</time></trkpt><trkpt lat="52.7660933" lon="-1.7300067"><ele>71.0</ele><time>2026-05-04T10:01:37.792Z</time></trkpt><trkpt lat="52.7660767" lon="-1.7298817"><ele>71.0</ele><time>2026-05-04T10:01:38.791Z</time></trkpt><trkpt lat="52.7660617" lon="-1.7297567"><ele>71.0</ele><time>2026-05-04T10:01:39.791Z</time></trkpt><trkpt lat="52.766045" lon="-1.72963"><ele>71.0</ele><time>2026-05-04T10:01:40.791Z</time></trkpt><trkpt lat="52.7660267" lon="-1.7295"><ele>70.83333333333334</ele><time>2026-05-04T10:01:41.792Z</time></trkpt><trkpt lat="52.76601" lon="-1.7293683"><ele>70.66666666666667</ele><time>2026-05-04T10:01:42.79Z</time></trkpt><trkpt lat="52.7659917" lon="-1.7292333"><ele>70.5</ele><time>2026-05-04T10:01:43.79Z</time></trkpt><trkpt lat="52.7659767" lon="-1.7291017"><ele>70.33333333333333</ele><time>2026-05-04T10:01:44.79Z</time></trkpt><trkpt lat="52.7659633" lon="-1.72897"><ele>70.16666666666666</ele><time>2026-05-04T10:01:45.791Z</time></trkpt><trkpt lat="52.7659483" lon="-1.7288333"><ele>70.0</ele><time>2026-05-04T10:01:46.79Z</time></trkpt><trkpt lat="52.765935" lon="-1.7286967"><ele>70.0</ele><time>2026-05-04T10:01:47.791Z</time></trkpt><trkpt lat="52.7659167" lon="-1.7285583"><ele>70.0</ele><time>2026-05-04T10:01:48.794Z</time></trkpt><trkpt lat="52.7658933" lon="-1.7284183"><ele>70.0</ele><time>2026-05-04T10:01:49.794Z</time></trkpt><trkpt lat="52.7658633" lon="-1.7282683"><ele>70.0</ele><time>2026-05-04T10:01:50.791Z</time></trkpt><trkpt lat="52.765835" lon="-1.728115"><ele>70.0</ele><time>2026-05-04T10:01:51.799Z</time></trkpt><trkpt lat="52.7658117" lon="-1.7279617"><ele>70.0</ele><time>2026-05-04T10:01:52.794Z</time></trkpt><trkpt lat="52.7657883" lon="-1.727805"><ele>70.0</ele><time>2026-05-04T10:01:53.791Z</time></trkpt><trkpt lat="52.765755" lon="-1.727645"><ele>70.0</ele><time>2026-05-04T10:01:54.793Z</time></trkpt><trkpt lat="52.7657217" lon="-1.727475"><ele>70.0</ele><time>2026-05-04T10:01:55.79Z</time></trkpt><trkpt lat="52.765685" lon="-1.7273017"><ele>70.0</ele><time>2026-05-04T10:01:56.791Z</time></trkpt><trkpt lat="52.765645" lon="-1.7271333"><ele>70.0</ele><time>2026-05-04T10:01:57.791Z</time></trkpt><trkpt lat="52.765605" lon="-1.7269667"><ele>70.0</ele><time>2026-05-04T10:01:58.792Z</time></trkpt><trkpt lat="52.7655617" lon="-1.7268067"><ele>70.0</ele><time>2026-05-04T10:01:59.791Z</time></trkpt><trkpt lat="52.76552" lon="-1.72665"><ele>70.0</ele><time>2026-05-04T10:02:00.791Z</time></trkpt><trkpt lat="52.7654783" lon="-1.726495"><ele>70.0</ele><time>2026-05-04T10:02:01.792Z</time></trkpt><trkpt lat="52.7654383" lon="-1.7263433"><ele>69.6</ele><time>2026-05-04T10:02:02.79Z</time></trkpt><trkpt lat="52.7653967" lon="-1.7261883"><ele>69.2</ele><time>2026-05-04T10:02:03.791Z</time></trkpt><trkpt lat="52.7653583" lon="-1.726025"><ele>68.8</ele><time>2026-05-04T10:02:04.79Z</time></trkpt><trkpt lat="52.7653167" lon="-1.7258617"><ele>68.4</ele><time>2026-05-04T10:02:05.791Z</time></trkpt><trkpt lat="52.7652783" lon="-1.7256933"><ele>68.0</ele><time>2026-05-04T10:02:06.792Z</time></trkpt><trkpt lat="52.765245" lon="-1.7255267"><ele>68.0</ele><time>2026-05-04T10:02:07.794Z</time></trkpt><trkpt lat="52.7652233" lon="-1.725355"><ele>68.0</ele><time>2026-05-04T10:02:08.794Z</time></trkpt><trkpt lat="52.7652" lon="-1.7251917"><ele>68.0</ele><time>2026-05-04T10:02:09.792Z</time></trkpt><trkpt lat="52.7651817" lon="-1.725035"><ele>68.0</ele><time>2026-05-04T10:02:10.792Z</time></trkpt><trkpt lat="52.765165" lon="-1.7248917"><ele>68.0</ele><time>2026-05-04T10:02:11.792Z</time></trkpt><trkpt lat="52.7651483" lon="-1.7247617"><ele>67.5</ele><time>2026-05-04T10:02:12.791Z</time></trkpt><trkpt lat="52.7651317" lon="-1.724645"><ele>67.0</ele><time>2026-05-04T10:02:13.792Z</time></trkpt><trkpt lat="52.7651" lon="-1.7244533"><ele>66.5</ele><time>2026-05-04T10:02:15.795Z</time></trkpt><trkpt lat="52.765085" lon="-1.72435"><ele>66.0</ele><time>2026-05-04T10:02:16.795Z</time></trkpt><trkpt lat="52.7650617" lon="-1.72424"><ele>65.5</ele><time>2026-05-04T10:02:17.795Z</time></trkpt><trkpt lat="52.7650367" lon="-1.7241233"><ele>65.0</ele><time>2026-05-04T10:02:18.795Z</time></trkpt><trkpt lat="52.7650067" lon="-1.7240083"><ele>64.71428571428572</ele><time>2026-05-04T10:02:19.792Z</time></trkpt><trkpt lat="52.7649767" lon="-1.7238933"><ele>64.42857142857143</ele><time>2026-05-04T10:02:20.795Z</time></trkpt><trkpt lat="52.7649483" lon="-1.7237833"><ele>64.14285714285714</ele><time>2026-05-04T10:02:21.791Z</time></trkpt><trkpt lat="52.7649183" lon="-1.7236833"><ele>63.85714285714286</ele><time>2026-05-04T10:02:22.792Z</time></trkpt><trkpt lat="52.7648867" lon="-1.7235833"><ele>63.57142857142857</ele><time>2026-05-04T10:02:23.791Z</time></trkpt><trkpt lat="52.764855" lon="-1.7234817"><ele>63.285714285714285</ele><time>2026-05-04T10:02:24.792Z</time></trkpt><trkpt lat="52.7648233" lon="-1.7233767"><ele>63.0</ele><time>2026-05-04T10:02:25.794Z</time></trkpt><trkpt lat="52.764785" lon="-1.723265"><ele>63.0</ele><time>2026-05-04T10:02:26.795Z</time></trkpt><trkpt lat="52.7647467" lon="-1.7231483"><ele>63.0</ele><time>2026-05-04T10:02:27.791Z</time></trkpt><trkpt lat="52.7647067" lon="-1.7230267"><ele>63.0</ele><time>2026-05-04T10:02:28.792Z</time></trkpt><trkpt lat="52.7646583" lon="-1.7229067"><ele>63.0</ele><time>2026-05-04T10:02:29.793Z</time></trkpt><trkpt lat="52.7646083" lon="-1.7227783"><ele>63.0</ele><time>2026-05-04T10:02:30.79Z</time></trkpt><trkpt lat="52.764555" lon="-1.7226517"><ele>63.0</ele><time>2026-05-04T10:02:31.791Z</time></trkpt><trkpt lat="52.764505" lon="-1.7225267"><ele>63.166666666666664</ele><time>2026-05-04T10:02:32.792Z</time></trkpt><trkpt lat="52.764455" lon="-1.7224067"><ele>63.33333333333333</ele><time>2026-05-04T10:02:33.791Z</time></trkpt><trkpt lat="52.7644067" lon="-1.7222917"><ele>63.5</ele><time>2026-05-04T10:02:34.792Z</time></trkpt><trkpt lat="52.764355" lon="-1.72219"><ele>63.666666666666664</ele><time>2026-05-04T10:02:35.795Z</time></trkpt><trkpt lat="52.7642933" lon="-1.7221033"><ele>63.83333333333333</ele><time>2026-05-04T10:02:36.794Z</time></trkpt><trkpt lat="52.7642283" lon="-1.722025"><ele>64.0</ele><time>2026-05-04T10:02:37.79Z</time></trkpt><trkpt lat="52.7641717" lon="-1.7219517"><ele>63.800000000000004</ele><time>2026-05-04T10:02:38.793Z</time></trkpt><trkpt lat="52.7640867" lon="-1.7218467"><ele>63.60000000000001</ele><time>2026-05-04T10:02:40.793Z</time></trkpt><trkpt lat="52.76401" lon="-1.72176"><ele>63.4</ele><time>2026-05-04T10:02:42.792Z</time></trkpt><trkpt lat="52.7639233" lon="-1.7216517"><ele>63.2</ele><time>2026-05-04T10:02:44.795Z</time></trkpt><trkpt lat="52.7638317" lon="-1.7215083"><ele>63.0</ele><time>2026-05-04T10:02:46.795Z</time></trkpt><trkpt lat="52.7637567" lon="-1.721355"><ele>63.0</ele><time>2026-05-04T10:02:48.795Z</time></trkpt><trkpt lat="52.76368" lon="-1.7211933"><ele>63.0</ele><time>2026-05-04T10:02:50.795Z</time></trkpt><trkpt lat="52.7636167" lon="-1.7210433"><ele>63.0</ele><time>2026-05-04T10:02:52.795Z</time></trkpt><trkpt lat="52.763565" lon="-1.7208767"><ele>63.0</ele><time>2026-05-04T10:02:54.792Z</time></trkpt><trkpt lat="52.76354" lon="-1.7207767"><ele>63.0</ele><time>2026-05-04T10:02:55.792Z</time></trkpt><trkpt lat="52.7635167" lon="-1.720665"><ele>62.714285714285715</ele><time>2026-05-04T10:02:56.792Z</time></trkpt><trkpt lat="52.7634917" lon="-1.7205517"><ele>62.42857142857143</ele><time>2026-05-04T10:02:57.79Z</time></trkpt><trkpt lat="52.7634717" lon="-1.72044"><ele>62.14285714285714</ele><time>2026-05-04T10:02:58.791Z</time></trkpt><trkpt lat="52.7634533" lon="-1.7203333"><ele>61.857142857142854</ele><time>2026-05-04T10:02:59.794Z</time></trkpt><trkpt lat="52.763435" lon="-1.7202267"><ele>61.57142857142857</ele><time>2026-05-04T10:03:00.791Z</time></trkpt><trkpt lat="52.7634183" lon="-1.7201167"><ele>61.28571428571428</ele><time>2026-05-04T10:03:01.791Z</time></trkpt><trkpt lat="52.7634017" lon="-1.720005"><ele>60.99999999999999</ele><time>2026-05-04T10:03:02.792Z</time></trkpt><trkpt lat="52.763385" lon="-1.719885"><ele>60.83333333333333</ele><time>2026-05-04T10:03:03.792Z</time></trkpt><trkpt lat="52.76337" lon="-1.7197633"><ele>60.666666666666664</ele><time>2026-05-04T10:03:04.794Z</time></trkpt><trkpt lat="52.76335" lon="-1.7196433"><ele>60.5</ele><time>2026-05-04T10:03:05.791Z</time></trkpt><trkpt lat="52.7633367" lon="-1.7195233"><ele>60.33333333333333</ele><time>2026-05-04T10:03:06.79Z</time></trkpt><trkpt lat="52.763325" lon="-1.7193967"><ele>60.166666666666664</ele><time>2026-05-04T10:03:07.791Z</time></trkpt><trkpt lat="52.7633217" lon="-1.7192733"><ele>60.0</ele><time>2026-05-04T10:03:08.791Z</time></trkpt><trkpt lat="52.7633167" lon="-1.7191467"><ele>59.833333333333336</ele><time>2026-05-04T10:03:09.791Z</time></trkpt><trkpt lat="52.763315" lon="-1.7190183"><ele>59.66666666666667</ele><time>2026-05-04T10:03:10.791Z</time></trkpt><trkpt lat="52.763305" lon="-1.71889"><ele>59.5</ele><time>2026-05-04T10:03:11.792Z</time></trkpt><trkpt lat="52.76331" lon="-1.7187567"><ele>59.333333333333336</ele><time>2026-05-04T10:03:12.79Z</time></trkpt><trkpt lat="52.7633117" lon="-1.7186233"><ele>59.16666666666667</ele><time>2026-05-04T10:03:13.792Z</time></trkpt><trkpt lat="52.76331" lon="-1.71849"><ele>59.0</ele><time>2026-05-04T10:03:14.792Z</time></trkpt><trkpt lat="52.7633083" lon="-1.7183517"><ele>58.800000000000004</ele><time>2026-05-04T10:03:15.792Z</time></trkpt><trkpt lat="52.763305" lon="-1.7182117"><ele>58.60000000000001</ele><time>2026-05-04T10:03:16.792Z</time></trkpt><trkpt lat="52.7632983" lon="-1.7180683"><ele>58.4</ele><time>2026-05-04T10:03:17.793Z</time></trkpt><trkpt lat="52.7632883" lon="-1.7179117"><ele>58.2</ele><time>2026-05-04T10:03:18.792Z</time></trkpt><trkpt lat="52.76328" lon="-1.7177533"><ele>58.0</ele><time>2026-05-04T10:03:19.791Z</time></trkpt><trkpt lat="52.7632733" lon="-1.7176033"><ele>57.83333333333333</ele><time>2026-05-04T10:03:20.792Z</time></trkpt><trkpt lat="52.7632667" lon="-1.7174583"><ele>57.666666666666664</ele><time>2026-05-04T10:03:21.791Z</time></trkpt><trkpt lat="52.763255" lon="-1.7173117"><ele>57.5</ele><time>2026-05-04T10:03:22.79Z</time></trkpt><trkpt lat="52.7632367" lon="-1.717165"><ele>57.33333333333333</ele><time>2026-05-04T10:03:23.791Z</time></trkpt><trkpt lat="52.7632167" lon="-1.7170267"><ele>57.166666666666664</ele><time>2026-05-04T10:03:24.791Z</time></trkpt><trkpt lat="52.7631917" lon="-1.7168933"><ele>57.0</ele><time>2026-05-04T10:03:25.791Z</time></trkpt><trkpt lat="52.7631683" lon="-1.7167567"><ele>57.0</ele><time>2026-05-04T10:03:26.792Z</time></trkpt><trkpt lat="52.76315" lon="-1.7166117"><ele>57.0</ele><time>2026-05-04T10:03:27.791Z</time></trkpt><trkpt lat="52.7631367" lon="-1.71647"><ele>57.0</ele><time>2026-05-04T10:03:28.792Z</time></trkpt><trkpt lat="52.7631167" lon="-1.7163283"><ele>57.0</ele><time>2026-05-04T10:03:29.791Z</time></trkpt><trkpt lat="52.7631" lon="-1.71618"><ele>57.0</ele><time>2026-05-04T10:03:30.792Z</time></trkpt><trkpt lat="52.76309" lon="-1.7160333"><ele>57.0</ele><time>2026-05-04T10:03:31.792Z</time></trkpt><trkpt lat="52.763085" lon="-1.7158883"><ele>57.0</ele><time>2026-05-04T10:03:32.792Z</time></trkpt><trkpt lat="52.7630817" lon="-1.7157517"><ele>57.0</ele><time>2026-05-04T10:03:33.791Z</time></trkpt><trkpt lat="52.76309" lon="-1.715635"><ele>57.0</ele><time>2026-05-04T10:03:34.792Z</time></trkpt><trkpt lat="52.7631267" lon="-1.7154533"><ele>57.0</ele><time>2026-05-04T10:03:36.791Z</time></trkpt><trkpt lat="52.76319" lon="-1.7152683"><ele>57.0</ele><time>2026-05-04T10:03:38.791Z</time></trkpt><trkpt lat="52.7632383" lon="-1.715165"><ele>57.0</ele><time>2026-05-04T10:03:39.79Z</time></trkpt><trkpt lat="52.7632917" lon="-1.71507"><ele>57.0</ele><time>2026-05-04T10:03:40.791Z</time></trkpt><trkpt lat="52.7633433" lon="-1.7149567"><ele>57.0</ele><time>2026-05-04T10:03:41.791Z</time></trkpt><trkpt lat="52.763395" lon="-1.7148283"><ele>57.0</ele><time>2026-05-04T10:03:42.79Z</time></trkpt><trkpt lat="52.76345" lon="-1.7146933"><ele>57.0</ele><time>2026-05-04T10:03:43.794Z</time></trkpt><trkpt lat="52.76349" lon="-1.7145383"><ele>56.8</ele><time>2026-05-04T10:03:44.79Z</time></trkpt><trkpt lat="52.7635283" lon="-1.7143817"><ele>56.6</ele><time>2026-05-04T10:03:45.795Z</time></trkpt><trkpt lat="52.7635617" lon="-1.714225"><ele>56.39999999999999</ele><time>2026-05-04T10:03:46.793Z</time></trkpt><trkpt lat="52.763595" lon="-1.7140683"><ele>56.199999999999996</ele><time>2026-05-04T10:03:47.793Z</time></trkpt><trkpt lat="52.76363" lon="-1.713905"><ele>56.0</ele><time>2026-05-04T10:03:48.791Z</time></trkpt><trkpt lat="52.7636667" lon="-1.7137333"><ele>55.75</ele><time>2026-05-04T10:03:49.793Z</time></trkpt><trkpt lat="52.7637033" lon="-1.71356"><ele>55.5</ele><time>2026-05-04T10:03:50.792Z</time></trkpt><trkpt lat="52.7637417" lon="-1.7133833"><ele>55.25</ele><time>2026-05-04T10:03:51.793Z</time></trkpt><trkpt lat="52.7637817" lon="-1.7132033"><ele>55.0</ele><time>2026-05-04T10:03:52.792Z</time></trkpt><trkpt lat="52.7638183" lon="-1.713015"><ele>55.0</ele><time>2026-05-04T10:03:53.793Z</time></trkpt><trkpt lat="52.76386" lon="-1.7128317"><ele>55.0</ele><time>2026-05-04T10:03:54.792Z</time></trkpt><trkpt lat="52.7639067" lon="-1.7126467"><ele>55.0</ele><time>2026-05-04T10:03:55.794Z</time></trkpt><trkpt lat="52.7639567" lon="-1.7124633"><ele>55.0</ele><time>2026-05-04T10:03:56.792Z</time></trkpt><trkpt lat="52.7640017" lon="-1.7122733"><ele>54.75</ele><time>2026-05-04T10:03:57.792Z</time></trkpt><trkpt lat="52.7640517" lon="-1.7120817"><ele>54.5</ele><time>2026-05-04T10:03:58.793Z</time></trkpt><trkpt lat="52.7640967" lon="-1.71189"><ele>54.25</ele><time>2026-05-04T10:03:59.793Z</time></trkpt><trkpt lat="52.7641467" lon="-1.711695"><ele>54.0</ele><time>2026-05-04T10:04:00.793Z</time></trkpt><trkpt lat="52.76419" lon="-1.7115"><ele>54.0</ele><time>2026-05-04T10:04:01.791Z</time></trkpt><trkpt lat="52.764235" lon="-1.7113033"><ele>54.0</ele><time>2026-05-04T10:04:02.793Z</time></trkpt><trkpt lat="52.7642833" lon="-1.711105"><ele>54.0</ele><time>2026-05-04T10:04:03.792Z</time></trkpt><trkpt lat="52.7643333" lon="-1.7109067"><ele>54.0</ele><time>2026-05-04T10:04:04.792Z</time></trkpt><trkpt lat="52.76438" lon="-1.7107067"><ele>53.0</ele><time>2026-05-04T10:04:05.791Z</time></trkpt><trkpt lat="52.7644167" lon="-1.7105067"><ele>52.0</ele><time>2026-05-04T10:04:06.793Z</time></trkpt><trkpt lat="52.7644433" lon="-1.710305"><ele>51.0</ele><time>2026-05-04T10:04:07.793Z</time></trkpt><trkpt lat="52.7644517" lon="-1.7101033"><ele>50.0</ele><time>2026-05-04T10:04:08.792Z</time></trkpt><trkpt lat="52.7644467" lon="-1.7099017"><ele>50.0</ele><time>2026-05-04T10:04:09.793Z</time></trkpt><trkpt lat="52.7644317" lon="-1.7096967"><ele>50.0</ele><time>2026-05-04T10:04:10.792Z</time></trkpt><trkpt lat="52.7644117" lon="-1.709495"><ele>50.0</ele><time>2026-05-04T10:04:11.793Z</time></trkpt><trkpt lat="52.764385" lon="-1.70929"><ele>50.0</ele><time>2026-05-04T10:04:12.793Z</time></trkpt><trkpt lat="52.76435" lon="-1.7090883"><ele>50.25</ele><time>2026-05-04T10:04:13.792Z</time></trkpt><trkpt lat="52.76431" lon="-1.7088883"><ele>50.5</ele><time>2026-05-04T10:04:14.794Z</time></trkpt><trkpt lat="52.7642683" lon="-1.708685"><ele>50.75</ele><time>2026-05-04T10:04:15.795Z</time></trkpt><trkpt lat="52.76423" lon="-1.7084817"><ele>51.0</ele><time>2026-05-04T10:04:16.794Z</time></trkpt><trkpt lat="52.7641933" lon="-1.70828"><ele>51.0</ele><time>2026-05-04T10:04:17.791Z</time></trkpt><trkpt lat="52.7641533" lon="-1.7080617"><ele>51.0</ele><time>2026-05-04T10:04:18.791Z</time></trkpt><trkpt lat="52.76411" lon="-1.707825"><ele>51.0</ele><time>2026-05-04T10:04:19.792Z</time></trkpt><trkpt lat="52.7640633" lon="-1.7075817"><ele>51.0</ele><time>2026-05-04T10:04:20.791Z</time></trkpt><trkpt lat="52.76402" lon="-1.70734"><ele>51.0</ele><time>2026-05-04T10:04:21.79Z</time></trkpt><trkpt lat="52.7639767" lon="-1.7071"><ele>51.0</ele><time>2026-05-04T10:04:22.791Z</time></trkpt><trkpt lat="52.763935" lon="-1.7068633"><ele>51.0</ele><time>2026-05-04T10:04:23.792Z</time></trkpt><trkpt lat="52.7638933" lon="-1.7066283"><ele>51.0</ele><time>2026-05-04T10:04:24.791Z</time></trkpt><trkpt lat="52.7638483" lon="-1.7064017"><ele>51.25</ele><time>2026-05-04T10:04:25.792Z</time></trkpt><trkpt lat="52.7638017" lon="-1.706175"><ele>51.5</ele><time>2026-05-04T10:04:26.79Z</time></trkpt><trkpt lat="52.7637567" lon="-1.7059467"><ele>51.75</ele><time>2026-05-04T10:04:27.791Z</time></trkpt><trkpt lat="52.7637133" lon="-1.70572"><ele>52.0</ele><time>2026-05-04T10:04:28.791Z</time></trkpt><trkpt lat="52.76367" lon="-1.7054933"><ele>52.0</ele><time>2026-05-04T10:04:29.795Z</time></trkpt><trkpt lat="52.76363" lon="-1.7052633"><ele>52.0</ele><time>2026-05-04T10:04:30.791Z</time></trkpt><trkpt lat="52.76359" lon="-1.7050317"><ele>52.0</ele><time>2026-05-04T10:04:31.792Z</time></trkpt><trkpt lat="52.7635483" lon="-1.7047983"><ele>52.0</ele><time>2026-05-04T10:04:32.794Z</time></trkpt><trkpt lat="52.7635067" lon="-1.7045667"><ele>51.25</ele><time>2026-05-04T10:04:33.791Z</time></trkpt><trkpt lat="52.763465" lon="-1.7043367"><ele>50.5</ele><time>2026-05-04T10:04:34.79Z</time></trkpt><trkpt lat="52.7634233" lon="-1.70411"><ele>49.75</ele><time>2026-05-04T10:04:35.791Z</time></trkpt><trkpt lat="52.76338" lon="-1.7038867"><ele>49.0</ele><time>2026-05-04T10:04:36.792Z</time></trkpt><trkpt lat="52.7633367" lon="-1.703665"><ele>49.0</ele><time>2026-05-04T10:04:37.791Z</time></trkpt><trkpt lat="52.7632967" lon="-1.703445"><ele>49.0</ele><time>2026-05-04T10:04:38.791Z</time></trkpt><trkpt lat="52.7632567" lon="-1.7032267"><ele>49.0</ele><time>2026-05-04T10:04:39.79Z</time></trkpt><trkpt lat="52.76322" lon="-1.7030133"><ele>49.0</ele><time>2026-05-04T10:04:40.791Z</time></trkpt><trkpt lat="52.7631883" lon="-1.70281"><ele>49.2</ele><time>2026-05-04T10:04:41.791Z</time></trkpt><trkpt lat="52.76317" lon="-1.7026167"><ele>49.400000000000006</ele><time>2026-05-04T10:04:42.79Z</time></trkpt><trkpt lat="52.7631717" lon="-1.70243"><ele>49.6</ele><time>2026-05-04T10:04:43.791Z</time></trkpt><trkpt lat="52.7631933" lon="-1.7022533"><ele>49.8</ele><time>2026-05-04T10:04:44.795Z</time></trkpt><trkpt lat="52.7632267" lon="-1.70209"><ele>50.0</ele><time>2026-05-04T10:04:45.791Z</time></trkpt><trkpt lat="52.7632617" lon="-1.7019517"><ele>50.16666666666667</ele><time>2026-05-04T10:04:46.791Z</time></trkpt><trkpt lat="52.7632783" lon="-1.701825"><ele>50.333333333333336</ele><time>2026-05-04T10:04:47.792Z</time></trkpt><trkpt lat="52.7632783" lon="-1.701715"><ele>50.5</ele><time>2026-05-04T10:04:48.79Z</time></trkpt><trkpt lat="52.7631933" lon="-1.70157"><ele>50.66666666666667</ele><time>2026-05-04T10:04:50.791Z</time></trkpt><trkpt lat="52.7631117" lon="-1.70153"><ele>50.833333333333336</ele><time>2026-05-04T10:04:51.79Z</time></trkpt><trkpt lat="52.7630217" lon="-1.7014767"><ele>51.0</ele><time>2026-05-04T10:04:52.791Z</time></trkpt><trkpt lat="52.7629267" lon="-1.7014"><ele>51.0</ele><time>2026-05-04T10:04:53.791Z</time></trkpt><trkpt lat="52.7628417" lon="-1.7012733"><ele>51.0</ele><time>2026-05-04T10:04:54.79Z</time></trkpt><trkpt lat="52.7627683" lon="-1.70112"><ele>51.0</ele><time>2026-05-04T10:04:55.791Z</time></trkpt><trkpt lat="52.7627017" lon="-1.7009483"><ele>51.0</ele><time>2026-05-04T10:04:56.791Z</time></trkpt><trkpt lat="52.7626333" lon="-1.700775"><ele>51.0</ele><time>2026-05-04T10:04:57.791Z</time></trkpt><trkpt lat="52.76256" lon="-1.7005933"><ele>51.0</ele><time>2026-05-04T10:04:58.795Z</time></trkpt><trkpt lat="52.7624783" lon="-1.7004133"><ele>51.0</ele><time>2026-05-04T10:04:59.792Z</time></trkpt><trkpt lat="52.7623933" lon="-1.7002317"><ele>51.0</ele><time>2026-05-04T10:05:00.792Z</time></trkpt><trkpt lat="52.7623017" lon="-1.7000517"><ele>51.0</ele><time>2026-05-04T10:05:01.795Z</time></trkpt><trkpt lat="52.76221" lon="-1.69988"><ele>51.0</ele><time>2026-05-04T10:05:02.795Z</time></trkpt><trkpt lat="52.7621167" lon="-1.6997233"><ele>51.0</ele><time>2026-05-04T10:05:03.795Z</time></trkpt><trkpt lat="52.76203" lon="-1.6995667"><ele>51.0</ele><time>2026-05-04T10:05:04.795Z</time></trkpt><trkpt lat="52.76194" lon="-1.69941"><ele>51.75</ele><time>2026-05-04T10:05:05.795Z</time></trkpt><trkpt lat="52.761845" lon="-1.69925"><ele>52.5</ele><time>2026-05-04T10:05:06.795Z</time></trkpt><trkpt lat="52.7617567" lon="-1.699095"><ele>53.25</ele><time>2026-05-04T10:05:07.794Z</time></trkpt><trkpt lat="52.761675" lon="-1.6989483"><ele>54.0</ele><time>2026-05-04T10:05:08.794Z</time></trkpt><trkpt lat="52.7616033" lon="-1.6988233"><ele>54.0</ele><time>2026-05-04T10:05:09.795Z</time></trkpt><trkpt lat="52.7615383" lon="-1.698725"><ele>54.0</ele><time>2026-05-04T10:05:10.794Z</time></trkpt><trkpt lat="52.7614783" lon="-1.6986333"><ele>54.0</ele><time>2026-05-04T10:05:11.794Z</time></trkpt><trkpt lat="52.76143" lon="-1.69854"><ele>54.0</ele><time>2026-05-04T10:05:12.795Z</time></trkpt><trkpt lat="52.7613867" lon="-1.6984417"><ele>54.0</ele><time>2026-05-04T10:05:13.791Z</time></trkpt><trkpt lat="52.7613483" lon="-1.6983267"><ele>54.0</ele><time>2026-05-04T10:05:14.795Z</time></trkpt><trkpt lat="52.7613117" lon="-1.6982133"><ele>53.800000000000004</ele><time>2026-05-04T10:05:15.795Z</time></trkpt><trkpt lat="52.7612717" lon="-1.698105"><ele>53.60000000000001</ele><time>2026-05-04T10:05:16.791Z</time></trkpt><trkpt lat="52.7612233" lon="-1.6979817"><ele>53.4</ele><time>2026-05-04T10:05:17.792Z</time></trkpt><trkpt lat="52.7611717" lon="-1.6978433"><ele>53.2</ele><time>2026-05-04T10:05:18.792Z</time></trkpt><trkpt lat="52.76111" lon="-1.69768"><ele>53.0</ele><time>2026-05-04T10:05:19.791Z</time></trkpt><trkpt lat="52.7610417" lon="-1.6975083"><ele>53.0</ele><time>2026-05-04T10:05:20.791Z</time></trkpt><trkpt lat="52.7609717" lon="-1.697325"><ele>53.0</ele><time>2026-05-04T10:05:21.79Z</time></trkpt><trkpt lat="52.760905" lon="-1.6971433"><ele>53.0</ele><time>2026-05-04T10:05:22.79Z</time></trkpt><trkpt lat="52.760845" lon="-1.696965"><ele>53.0</ele><time>2026-05-04T10:05:23.791Z</time></trkpt><trkpt lat="52.7607917" lon="-1.6967783"><ele>52.66666666666667</ele><time>2026-05-04T10:05:24.791Z</time></trkpt><trkpt lat="52.760745" lon="-1.696565"><ele>52.33333333333333</ele><time>2026-05-04T10:05:25.79Z</time></trkpt><trkpt lat="52.7607033" lon="-1.6963133"><ele>52.0</ele><time>2026-05-04T10:05:26.792Z</time></trkpt><trkpt lat="52.7606633" lon="-1.69603"><ele>51.666666666666664</ele><time>2026-05-04T10:05:27.791Z</time></trkpt><trkpt lat="52.7606283" lon="-1.695735"><ele>51.33333333333333</ele><time>2026-05-04T10:05:28.79Z</time></trkpt><trkpt lat="52.7606033" lon="-1.6954333"><ele>51.0</ele><time>2026-05-04T10:05:29.79Z</time></trkpt><trkpt lat="52.760585" lon="-1.695125"><ele>50.66666666666667</ele><time>2026-05-04T10:05:30.792Z</time></trkpt><trkpt lat="52.7605717" lon="-1.6948083"><ele>50.333333333333336</ele><time>2026-05-04T10:05:31.791Z</time></trkpt><trkpt lat="52.7605583" lon="-1.6944883"><ele>50.0</ele><time>2026-05-04T10:05:32.79Z</time></trkpt><trkpt lat="52.7605417" lon="-1.69418"><ele>50.0</ele><time>2026-05-04T10:05:33.791Z</time></trkpt><trkpt lat="52.760525" lon="-1.6938833"><ele>50.0</ele><time>2026-05-04T10:05:34.79Z</time></trkpt><trkpt lat="52.7605033" lon="-1.69359"><ele>50.0</ele><time>2026-05-04T10:05:35.79Z</time></trkpt><trkpt lat="52.76048" lon="-1.693295"><ele>50.0</ele><time>2026-05-04T10:05:36.791Z</time></trkpt><trkpt lat="52.760465" lon="-1.6929917"><ele>50.0</ele><time>2026-05-04T10:05:37.791Z</time></trkpt><trkpt lat="52.7604533" lon="-1.6926817"><ele>50.0</ele><time>2026-05-04T10:05:38.792Z</time></trkpt><trkpt lat="52.76045" lon="-1.692365"><ele>50.0</ele><time>2026-05-04T10:05:39.791Z</time></trkpt><trkpt lat="52.76045" lon="-1.6920417"><ele>50.0</ele><time>2026-05-04T10:05:40.791Z</time></trkpt><trkpt lat="52.7604467" lon="-1.691725"><ele>50.0</ele><time>2026-05-04T10:05:41.79Z</time></trkpt><trkpt lat="52.7604433" lon="-1.691415"><ele>49.66666666666667</ele><time>2026-05-04T10:05:42.791Z</time></trkpt><trkpt lat="52.7604483" lon="-1.6910983"><ele>49.33333333333333</ele><time>2026-05-04T10:05:43.792Z</time></trkpt><trkpt lat="52.7604633" lon="-1.69077"><ele>49.0</ele><time>2026-05-04T10:05:44.791Z</time></trkpt><trkpt lat="52.7604883" lon="-1.6904333"><ele>49.666666666666664</ele><time>2026-05-04T10:05:45.791Z</time></trkpt><trkpt lat="52.76052" lon="-1.6900883"><ele>50.33333333333333</ele><time>2026-05-04T10:05:46.79Z</time></trkpt><trkpt lat="52.7605517" lon="-1.6897383"><ele>51.0</ele><time>2026-05-04T10:05:47.791Z</time></trkpt><trkpt lat="52.7605867" lon="-1.6893883"><ele>51.0</ele><time>2026-05-04T10:05:48.791Z</time></trkpt><trkpt lat="52.7606167" lon="-1.6890517"><ele>51.0</ele><time>2026-05-04T10:05:49.791Z</time></trkpt><trkpt lat="52.76064" lon="-1.6887267"><ele>51.0</ele><time>2026-05-04T10:05:50.791Z</time></trkpt><trkpt lat="52.7606583" lon="-1.68843"><ele>51.0</ele><time>2026-05-04T10:05:51.791Z</time></trkpt><trkpt lat="52.760685" lon="-1.6881633"><ele>51.0</ele><time>2026-05-04T10:05:52.791Z</time></trkpt><trkpt lat="52.7607267" lon="-1.6879067"><ele>51.0</ele><time>2026-05-04T10:05:53.793Z</time></trkpt><trkpt lat="52.7607933" lon="-1.6876517"><ele>51.0</ele><time>2026-05-04T10:05:54.791Z</time></trkpt><trkpt lat="52.760885" lon="-1.6873917"><ele>51.0</ele><time>2026-05-04T10:05:55.791Z</time></trkpt><trkpt lat="52.7609867" lon="-1.6871267"><ele>51.0</ele><time>2026-05-04T10:05:56.791Z</time></trkpt><trkpt lat="52.76108" lon="-1.6868633"><ele>50.75</ele><time>2026-05-04T10:05:57.792Z</time></trkpt><trkpt lat="52.7611617" lon="-1.6866167"><ele>50.5</ele><time>2026-05-04T10:05:58.791Z</time></trkpt><trkpt lat="52.7612233" lon="-1.6864033"><ele>50.25</ele><time>2026-05-04T10:05:59.792Z</time></trkpt><trkpt lat="52.7612567" lon="-1.686225"><ele>50.0</ele><time>2026-05-04T10:06:00.79Z</time></trkpt><trkpt lat="52.76128" lon="-1.686075"><ele>50.00000000000001</ele><time>2026-05-04T10:06:01.791Z</time></trkpt><trkpt lat="52.7613" lon="-1.685955"><ele>50.0</ele><time>2026-05-04T10:06:02.791Z</time></trkpt><trkpt lat="52.761295" lon="-1.68581"><ele>50.0</ele><time>2026-05-04T10:06:04.791Z</time></trkpt><trkpt lat="52.7613133" lon="-1.68565"><ele>50.0</ele><time>2026-05-04T10:06:43.792Z</time></trkpt><trkpt lat="52.761315" lon="-1.68553"><ele>50.00000000000001</ele><time>2026-05-04T10:06:44.794Z</time></trkpt><trkpt lat="52.76131" lon="-1.6853933"><ele>50.0</ele><time>2026-05-04T10:06:45.793Z</time></trkpt><trkpt lat="52.7613033" lon="-1.6852517"><ele>50.2</ele><time>2026-05-04T10:06:46.795Z</time></trkpt><trkpt lat="52.761295" lon="-1.6851067"><ele>50.4</ele><time>2026-05-04T10:06:47.793Z</time></trkpt><trkpt lat="52.761295" lon="-1.68496"><ele>50.599999999999994</ele><time>2026-05-04T10:06:48.795Z</time></trkpt><trkpt lat="52.76129" lon="-1.6848033"><ele>50.8</ele><time>2026-05-04T10:06:49.795Z</time></trkpt><trkpt lat="52.7612867" lon="-1.68463"><ele>51.0</ele><time>2026-05-04T10:06:50.794Z</time></trkpt><trkpt lat="52.761285" lon="-1.68445"><ele>51.0</ele><time>2026-05-04T10:06:51.794Z</time></trkpt><trkpt lat="52.7612817" lon="-1.684275"><ele>51.0</ele><time>2026-05-04T10:06:52.795Z</time></trkpt><trkpt lat="52.7612817" lon="-1.684115"><ele>51.0</ele><time>2026-05-04T10:06:53.791Z</time></trkpt><trkpt lat="52.7612817" lon="-1.6839733"><ele>51.0</ele><time>2026-05-04T10:06:54.791Z</time></trkpt><trkpt lat="52.76128" lon="-1.683845"><ele>51.0</ele><time>2026-05-04T10:06:55.791Z</time></trkpt><trkpt lat="52.7612833" lon="-1.683715"><ele>51.0</ele><time>2026-05-04T10:06:56.795Z</time></trkpt><trkpt lat="52.7612917" lon="-1.6835833"><ele>51.0</ele><time>2026-05-04T10:06:57.791Z</time></trkpt><trkpt lat="52.76131" lon="-1.6834367"><ele>51.0</ele><time>2026-05-04T10:06:58.792Z</time></trkpt><trkpt lat="52.7613333" lon="-1.6832883"><ele>51.0</ele><time>2026-05-04T10:06:59.791Z</time></trkpt><trkpt lat="52.761355" lon="-1.6831367"><ele>51.0</ele><time>2026-05-04T10:07:00.793Z</time></trkpt><trkpt lat="52.7613783" lon="-1.682985"><ele>51.0</ele><time>2026-05-04T10:07:01.791Z</time></trkpt><trkpt lat="52.7614" lon="-1.6828283"><ele>51.199999999999996</ele><time>2026-05-04T10:07:02.791Z</time></trkpt><trkpt lat="52.7614133" lon="-1.6826733"><ele>51.4</ele><time>2026-05-04T10:07:03.79Z</time></trkpt><trkpt lat="52.7614067" lon="-1.682515"><ele>51.6</ele><time>2026-05-04T10:07:04.792Z</time></trkpt><trkpt lat="52.76138" lon="-1.68236"><ele>51.8</ele><time>2026-05-04T10:07:05.79Z</time></trkpt><trkpt lat="52.7613367" lon="-1.6822183"><ele>52.0</ele><time>2026-05-04T10:07:06.795Z</time></trkpt><trkpt lat="52.7612733" lon="-1.682085"><ele>52.0</ele><time>2026-05-04T10:07:07.79Z</time></trkpt><trkpt lat="52.7612" lon="-1.6819617"><ele>52.0</ele><time>2026-05-04T10:07:08.794Z</time></trkpt><trkpt lat="52.7611333" lon="-1.68184"><ele>52.0</ele><time>2026-05-04T10:07:09.794Z</time></trkpt><trkpt lat="52.7610667" lon="-1.6817183"><ele>52.0</ele><time>2026-05-04T10:07:10.791Z</time></trkpt><trkpt lat="52.7610083" lon="-1.6815883"><ele>52.0</ele><time>2026-05-04T10:07:11.794Z</time></trkpt><trkpt lat="52.7609617" lon="-1.6814417"><ele>52.400000000000006</ele><time>2026-05-04T10:07:12.792Z</time></trkpt><trkpt lat="52.7609267" lon="-1.6812883"><ele>52.800000000000004</ele><time>2026-05-04T10:07:13.794Z</time></trkpt><trkpt lat="52.76089" lon="-1.6811317"><ele>53.2</ele><time>2026-05-04T10:07:14.794Z</time></trkpt><trkpt lat="52.76087" lon="-1.6809833"><ele>53.6</ele><time>2026-05-04T10:07:15.789Z</time></trkpt><trkpt lat="52.7608433" lon="-1.68084"><ele>54.0</ele><time>2026-05-04T10:07:16.791Z</time></trkpt><trkpt lat="52.7608167" lon="-1.6807033"><ele>54.14285714285714</ele><time>2026-05-04T10:07:17.791Z</time></trkpt><trkpt lat="52.76079" lon="-1.68058"><ele>54.285714285714285</ele><time>2026-05-04T10:07:18.791Z</time></trkpt><trkpt lat="52.7607667" lon="-1.6804817"><ele>54.42857142857143</ele><time>2026-05-04T10:07:19.791Z</time></trkpt><trkpt lat="52.760745" lon="-1.6803617"><ele>54.57142857142857</ele><time>2026-05-04T10:07:21.794Z</time></trkpt><trkpt lat="52.76076" lon="-1.6802217"><ele>54.714285714285715</ele><time>2026-05-04T10:07:23.79Z</time></trkpt><trkpt lat="52.7607717" lon="-1.680115"><ele>54.857142857142854</ele><time>2026-05-04T10:07:24.794Z</time></trkpt><trkpt lat="52.7607733" lon="-1.68001"><ele>55.0</ele><time>2026-05-04T10:07:25.794Z</time></trkpt><trkpt lat="52.760745" lon="-1.6798033"><ele>55.2</ele><time>2026-05-04T10:07:27.791Z</time></trkpt><trkpt lat="52.7606967" lon="-1.6796883"><ele>55.4</ele><time>2026-05-04T10:07:28.794Z</time></trkpt><trkpt lat="52.76063" lon="-1.67957"><ele>55.599999999999994</ele><time>2026-05-04T10:07:29.795Z</time></trkpt><trkpt lat="52.760565" lon="-1.6794483"><ele>55.8</ele><time>2026-05-04T10:07:30.793Z</time></trkpt><trkpt lat="52.7604917" lon="-1.6793283"><ele>56.0</ele><time>2026-05-04T10:07:31.791Z</time></trkpt><trkpt lat="52.76041" lon="-1.679205"><ele>56.0</ele><time>2026-05-04T10:07:32.791Z</time></trkpt><trkpt lat="52.7603183" lon="-1.6790817"><ele>56.0</ele><time>2026-05-04T10:07:33.791Z</time></trkpt><trkpt lat="52.7602283" lon="-1.67896"><ele>56.0</ele><time>2026-05-04T10:07:34.79Z</time></trkpt><trkpt lat="52.76014" lon="-1.67885"><ele>56.0</ele><time>2026-05-04T10:07:35.79Z</time></trkpt><trkpt lat="52.7600517" lon="-1.6787483"><ele>57.0</ele><time>2026-05-04T10:07:36.791Z</time></trkpt><trkpt lat="52.75996" lon="-1.678665"><ele>57.99999999999999</ele><time>2026-05-04T10:07:37.791Z</time></trkpt><trkpt lat="52.7598617" lon="-1.6786017"><ele>58.99999999999999</ele><time>2026-05-04T10:07:38.791Z</time></trkpt><trkpt lat="52.7597617" lon="-1.6785583"><ele>60.0</ele><time>2026-05-04T10:07:39.79Z</time></trkpt><trkpt lat="52.7596583" lon="-1.678545"><ele>61.0</ele><time>2026-05-04T10:07:40.792Z</time></trkpt><trkpt lat="52.7595583" lon="-1.6785217"><ele>61.199999999999996</ele><time>2026-05-04T10:07:41.791Z</time></trkpt><trkpt lat="52.7594483" lon="-1.6785083"><ele>61.39999999999999</ele><time>2026-05-04T10:07:42.791Z</time></trkpt><trkpt lat="52.7593433" lon="-1.6785017"><ele>61.6</ele><time>2026-05-04T10:07:43.791Z</time></trkpt><trkpt lat="52.7592433" lon="-1.67849"><ele>61.8</ele><time>2026-05-04T10:07:44.792Z</time></trkpt><trkpt lat="52.7591517" lon="-1.6784783"><ele>62.0</ele><time>2026-05-04T10:07:45.791Z</time></trkpt><trkpt lat="52.7590667" lon="-1.6784583"><ele>62.66666666666667</ele><time>2026-05-04T10:07:46.79Z</time></trkpt><trkpt lat="52.758995" lon="-1.67843"><ele>63.333333333333336</ele><time>2026-05-04T10:07:47.79Z</time></trkpt><trkpt lat="52.75893" lon="-1.6783817"><ele>64.0</ele><time>2026-05-04T10:07:48.789Z</time></trkpt><trkpt lat="52.7588667" lon="-1.6783583"><ele>64.66666666666667</ele><time>2026-05-04T10:07:49.791Z</time></trkpt><trkpt lat="52.7587983" lon="-1.6783633"><ele>65.33333333333333</ele><time>2026-05-04T10:07:50.794Z</time></trkpt><trkpt lat="52.7587067" lon="-1.6783917"><ele>66.0</ele><time>2026-05-04T10:07:51.794Z</time></trkpt><trkpt lat="52.7585983" lon="-1.67841"><ele>67.25</ele><time>2026-05-04T10:07:52.794Z</time></trkpt><trkpt lat="52.7584867" lon="-1.6784183"><ele>68.5</ele><time>2026-05-04T10:07:53.79Z</time></trkpt><trkpt lat="52.7583733" lon="-1.6784133"><ele>69.75</ele><time>2026-05-04T10:07:54.791Z</time></trkpt><trkpt lat="52.75826" lon="-1.6783933"><ele>71.0</ele><time>2026-05-04T10:07:55.791Z</time></trkpt><trkpt lat="52.7581483" lon="-1.6783717"><ele>71.0</ele><time>2026-05-04T10:07:56.791Z</time></trkpt><trkpt lat="52.758035" lon="-1.6783517"><ele>71.0</ele><time>2026-05-04T10:07:57.791Z</time></trkpt><trkpt lat="52.7579183" lon="-1.6783283"><ele>71.0</ele><time>2026-05-04T10:07:58.792Z</time></trkpt><trkpt lat="52.7578" lon="-1.6783"><ele>71.0</ele><time>2026-05-04T10:07:59.791Z</time></trkpt><trkpt lat="52.75768" lon="-1.6782667"><ele>72.5</ele><time>2026-05-04T10:08:00.791Z</time></trkpt><trkpt lat="52.7575583" lon="-1.67823"><ele>74.0</ele><time>2026-05-04T10:08:01.79Z</time></trkpt><trkpt lat="52.7574367" lon="-1.6781833"><ele>75.5</ele><time>2026-05-04T10:08:02.791Z</time></trkpt><trkpt lat="52.757315" lon="-1.6781417"><ele>77.0</ele><time>2026-05-04T10:08:03.795Z</time></trkpt><trkpt lat="52.757195" lon="-1.6781067"><ele>77.0</ele><time>2026-05-04T10:08:04.795Z</time></trkpt><trkpt lat="52.757065" lon="-1.678065"><ele>77.0</ele><time>2026-05-04T10:08:05.794Z</time></trkpt><trkpt lat="52.756925" lon="-1.6780083"><ele>77.0</ele><time>2026-05-04T10:08:06.791Z</time></trkpt><trkpt lat="52.75678" lon="-1.6779033"><ele>77.0</ele><time>2026-05-04T10:08:07.792Z</time></trkpt><trkpt lat="52.7566267" lon="-1.677775"><ele>78.33333333333334</ele><time>2026-05-04T10:08:08.791Z</time></trkpt><trkpt lat="52.756465" lon="-1.6776417"><ele>79.66666666666667</ele><time>2026-05-04T10:08:09.791Z</time></trkpt><trkpt lat="52.7563033" lon="-1.6775067"><ele>81.0</ele><time>2026-05-04T10:08:10.791Z</time></trkpt><trkpt lat="52.7561383" lon="-1.6773667"><ele>82.33333333333333</ele><time>2026-05-04T10:08:11.792Z</time></trkpt><trkpt lat="52.7559733" lon="-1.6772267"><ele>83.66666666666666</ele><time>2026-05-04T10:08:12.792Z</time></trkpt><trkpt lat="52.7558183" lon="-1.677105"><ele>85.0</ele><time>2026-05-04T10:08:13.792Z</time></trkpt><trkpt lat="52.7556783" lon="-1.6769767"><ele>85.0</ele><time>2026-05-04T10:08:14.792Z</time></trkpt><trkpt lat="52.75555" lon="-1.676845"><ele>85.0</ele><time>2026-05-04T10:08:15.793Z</time></trkpt><trkpt lat="52.7554167" lon="-1.67668"><ele>85.0</ele><time>2026-05-04T10:08:16.794Z</time></trkpt><trkpt lat="52.75529" lon="-1.6764933"><ele>85.0</ele><time>2026-05-04T10:08:17.791Z</time></trkpt><trkpt lat="52.7551767" lon="-1.6763067"><ele>85.0</ele><time>2026-05-04T10:08:18.792Z</time></trkpt><trkpt lat="52.7550667" lon="-1.6761233"><ele>85.0</ele><time>2026-05-04T10:08:19.791Z</time></trkpt><trkpt lat="52.754975" lon="-1.675945"><ele>85.0</ele><time>2026-05-04T10:08:20.792Z</time></trkpt><trkpt lat="52.75489" lon="-1.6757833"><ele>85.0</ele><time>2026-05-04T10:08:21.792Z</time></trkpt><trkpt lat="52.7548117" lon="-1.6756417"><ele>85.0</ele><time>2026-05-04T10:08:22.795Z</time></trkpt><trkpt lat="52.7547267" lon="-1.6755333"><ele>85.0</ele><time>2026-05-04T10:08:23.796Z</time></trkpt><trkpt lat="52.7546317" lon="-1.675455"><ele>85.0</ele><time>2026-05-04T10:08:24.795Z</time></trkpt><trkpt lat="52.7545267" lon="-1.6753917"><ele>85.0</ele><time>2026-05-04T10:08:25.792Z</time></trkpt><trkpt lat="52.7543833" lon="-1.675355"><ele>85.0</ele><time>2026-05-04T10:08:26.792Z</time></trkpt><trkpt lat="52.7542267" lon="-1.6753167"><ele>85.0</ele><time>2026-05-04T10:08:27.792Z</time></trkpt><trkpt lat="52.7540483" lon="-1.6752817"><ele>84.66666666666666</ele><time>2026-05-04T10:08:28.791Z</time></trkpt><trkpt lat="52.753865" lon="-1.6752417"><ele>84.33333333333333</ele><time>2026-05-04T10:08:29.796Z</time></trkpt><trkpt lat="52.7536767" lon="-1.6751983"><ele>84.0</ele><time>2026-05-04T10:08:30.792Z</time></trkpt><trkpt lat="52.753485" lon="-1.6751533"><ele>84.0</ele><time>2026-05-04T10:08:31.795Z</time></trkpt><trkpt lat="52.7532867" lon="-1.6751083"><ele>84.0</ele><time>2026-05-04T10:08:32.794Z</time></trkpt><trkpt lat="52.7530883" lon="-1.6750633"><ele>84.0</ele><time>2026-05-04T10:08:33.796Z</time></trkpt><trkpt lat="52.7528883" lon="-1.6750167"><ele>83.66666666666667</ele><time>2026-05-04T10:08:34.791Z</time></trkpt><trkpt lat="52.7526933" lon="-1.67497"><ele>83.33333333333334</ele><time>2026-05-04T10:08:35.792Z</time></trkpt><trkpt lat="52.7525067" lon="-1.67493"><ele>83.0</ele><time>2026-05-04T10:08:36.796Z</time></trkpt><trkpt lat="52.7523267" lon="-1.6748967"><ele>83.0</ele><time>2026-05-04T10:08:37.791Z</time></trkpt><trkpt lat="52.752145" lon="-1.6748717"><ele>83.0</ele><time>2026-05-04T10:08:38.795Z</time></trkpt><trkpt lat="52.7519583" lon="-1.67487"><ele>83.0</ele><time>2026-05-04T10:08:39.796Z</time></trkpt><trkpt lat="52.7517717" lon="-1.6748933"><ele>83.33333333333334</ele><time>2026-05-04T10:08:40.795Z</time></trkpt><trkpt lat="52.751595" lon="-1.67493"><ele>83.66666666666667</ele><time>2026-05-04T10:08:41.792Z</time></trkpt><trkpt lat="52.75142" lon="-1.674965"><ele>84.0</ele><time>2026-05-04T10:08:42.793Z</time></trkpt><trkpt lat="52.7512467" lon="-1.6749817"><ele>84.0</ele><time>2026-05-04T10:08:43.793Z</time></trkpt><trkpt lat="52.75107" lon="-1.67498"><ele>84.0</ele><time>2026-05-04T10:08:44.793Z</time></trkpt><trkpt lat="52.7508833" lon="-1.6749667"><ele>84.0</ele><time>2026-05-04T10:08:45.794Z</time></trkpt><trkpt lat="52.7506917" lon="-1.67492"><ele>83.33333333333333</ele><time>2026-05-04T10:08:46.796Z</time></trkpt><trkpt lat="52.7504967" lon="-1.6748733"><ele>82.66666666666666</ele><time>2026-05-04T10:08:47.792Z</time></trkpt><trkpt lat="52.7503133" lon="-1.674815"><ele>82.0</ele><time>2026-05-04T10:08:48.792Z</time></trkpt><trkpt lat="52.75015" lon="-1.6747433"><ele>82.0</ele><time>2026-05-04T10:08:49.792Z</time></trkpt><trkpt lat="52.75" lon="-1.674655"><ele>82.0</ele><time>2026-05-04T10:08:50.794Z</time></trkpt><trkpt lat="52.7498483" lon="-1.674555"><ele>82.0</ele><time>2026-05-04T10:08:51.792Z</time></trkpt><trkpt lat="52.7496983" lon="-1.6744467"><ele>83.0</ele><time>2026-05-04T10:08:52.79Z</time></trkpt><trkpt lat="52.7495467" lon="-1.6743367"><ele>84.0</ele><time>2026-05-04T10:08:53.791Z</time></trkpt><trkpt lat="52.74939" lon="-1.6742367"><ele>85.0</ele><time>2026-05-04T10:08:54.792Z</time></trkpt><trkpt lat="52.749235" lon="-1.674155"><ele>86.66666666666666</ele><time>2026-05-04T10:08:55.791Z</time></trkpt><trkpt lat="52.7490883" lon="-1.6740817"><ele>88.33333333333333</ele><time>2026-05-04T10:08:56.791Z</time></trkpt><trkpt lat="52.7489467" lon="-1.6740117"><ele>90.0</ele><time>2026-05-04T10:08:57.791Z</time></trkpt><trkpt lat="52.7488067" lon="-1.673915"><ele>90.0</ele><time>2026-05-04T10:08:58.791Z</time></trkpt><trkpt lat="52.7486583" lon="-1.6737833"><ele>90.0</ele><time>2026-05-04T10:08:59.792Z</time></trkpt><trkpt lat="52.7484983" lon="-1.673635"><ele>90.0</ele><time>2026-05-04T10:09:00.792Z</time></trkpt><trkpt lat="52.748325" lon="-1.67347"><ele>89.66666666666667</ele><time>2026-05-04T10:09:01.792Z</time></trkpt><trkpt lat="52.7481467" lon="-1.6733017"><ele>89.33333333333334</ele><time>2026-05-04T10:09:02.795Z</time></trkpt><trkpt lat="52.74796" lon="-1.6731283"><ele>89.0</ele><time>2026-05-04T10:09:03.796Z</time></trkpt><trkpt lat="52.7477783" lon="-1.6729483"><ele>88.66666666666667</ele><time>2026-05-04T10:09:04.796Z</time></trkpt><trkpt lat="52.7475983" lon="-1.6727617"><ele>88.33333333333333</ele><time>2026-05-04T10:09:05.794Z</time></trkpt><trkpt lat="52.7474167" lon="-1.6725817"><ele>88.0</ele><time>2026-05-04T10:09:06.792Z</time></trkpt><trkpt lat="52.7472417" lon="-1.672395"><ele>88.0</ele><time>2026-05-04T10:09:07.794Z</time></trkpt><trkpt lat="52.7470683" lon="-1.67221"><ele>88.0</ele><time>2026-05-04T10:09:08.791Z</time></trkpt><trkpt lat="52.7469017" lon="-1.672025"><ele>88.0</ele><time>2026-05-04T10:09:09.796Z</time></trkpt><trkpt lat="52.7467417" lon="-1.6718467"><ele>87.66666666666666</ele><time>2026-05-04T10:09:10.795Z</time></trkpt><trkpt lat="52.746595" lon="-1.671675"><ele>87.33333333333333</ele><time>2026-05-04T10:09:11.792Z</time></trkpt><trkpt lat="52.7464667" lon="-1.6715133"><ele>87.0</ele><time>2026-05-04T10:09:12.796Z</time></trkpt><trkpt lat="52.7463583" lon="-1.6713383"><ele>87.0</ele><time>2026-05-04T10:09:13.791Z</time></trkpt><trkpt lat="52.7462667" lon="-1.6711417"><ele>87.0</ele><time>2026-05-04T10:09:14.792Z</time></trkpt><trkpt lat="52.7461933" lon="-1.6709283"><ele>87.0</ele><time>2026-05-04T10:09:15.796Z</time></trkpt><trkpt lat="52.7461383" lon="-1.6706933"><ele>87.0</ele><time>2026-05-04T10:09:16.792Z</time></trkpt><trkpt lat="52.7460883" lon="-1.6704383"><ele>87.0</ele><time>2026-05-04T10:09:17.795Z</time></trkpt><trkpt lat="52.746045" lon="-1.6701717"><ele>87.0</ele><time>2026-05-04T10:09:18.795Z</time></trkpt><trkpt lat="52.746005" lon="-1.6699067"><ele>87.33333333333333</ele><time>2026-05-04T10:09:19.795Z</time></trkpt><trkpt lat="52.7459533" lon="-1.6696517"><ele>87.66666666666666</ele><time>2026-05-04T10:09:20.796Z</time></trkpt><trkpt lat="52.745895" lon="-1.669405"><ele>88.0</ele><time>2026-05-04T10:09:21.795Z</time></trkpt><trkpt lat="52.745815" lon="-1.6691567"><ele>88.0</ele><time>2026-05-04T10:09:22.791Z</time></trkpt><trkpt lat="52.745715" lon="-1.6689017"><ele>88.0</ele><time>2026-05-04T10:09:23.792Z</time></trkpt><trkpt lat="52.7456" lon="-1.6686383"><ele>88.0</ele><time>2026-05-04T10:09:24.793Z</time></trkpt><trkpt lat="52.74548" lon="-1.668365"><ele>87.33333333333333</ele><time>2026-05-04T10:09:25.793Z</time></trkpt><trkpt lat="52.7453567" lon="-1.6680867"><ele>86.66666666666667</ele><time>2026-05-04T10:09:26.794Z</time></trkpt><trkpt lat="52.7452383" lon="-1.6678033"><ele>86.0</ele><time>2026-05-04T10:09:27.793Z</time></trkpt><trkpt lat="52.7451183" lon="-1.66751"><ele>84.66666666666667</ele><time>2026-05-04T10:09:28.793Z</time></trkpt><trkpt lat="52.7449933" lon="-1.66721"><ele>83.33333333333333</ele><time>2026-05-04T10:09:29.792Z</time></trkpt><trkpt lat="52.7448667" lon="-1.6669183"><ele>82.0</ele><time>2026-05-04T10:09:30.793Z</time></trkpt><trkpt lat="52.7447383" lon="-1.6666333"><ele>82.0</ele><time>2026-05-04T10:09:31.794Z</time></trkpt><trkpt lat="52.7446017" lon="-1.6663567"><ele>82.0</ele><time>2026-05-04T10:09:32.796Z</time></trkpt><trkpt lat="52.7444633" lon="-1.6660917"><ele>82.0</ele><time>2026-05-04T10:09:33.794Z</time></trkpt><trkpt lat="52.744325" lon="-1.665835"><ele>82.33333333333333</ele><time>2026-05-04T10:09:34.794Z</time></trkpt><trkpt lat="52.744195" lon="-1.6655767"><ele>82.66666666666667</ele><time>2026-05-04T10:09:35.793Z</time></trkpt><trkpt lat="52.7440717" lon="-1.6653"><ele>83.0</ele><time>2026-05-04T10:09:36.793Z</time></trkpt><trkpt lat="52.743955" lon="-1.6650033"><ele>83.66666666666667</ele><time>2026-05-04T10:09:37.794Z</time></trkpt><trkpt lat="52.743845" lon="-1.6647"><ele>84.33333333333333</ele><time>2026-05-04T10:09:38.794Z</time></trkpt><trkpt lat="52.7437383" lon="-1.6644"><ele>85.0</ele><time>2026-05-04T10:09:39.793Z</time></trkpt><trkpt lat="52.7436217" lon="-1.6641267"><ele>85.0</ele><time>2026-05-04T10:09:40.792Z</time></trkpt><trkpt lat="52.7435033" lon="-1.6639"><ele>85.0</ele><time>2026-05-04T10:09:41.794Z</time></trkpt><trkpt lat="52.7433933" lon="-1.6637217"><ele>85.0</ele><time>2026-05-04T10:09:42.794Z</time></trkpt><trkpt lat="52.7433067" lon="-1.6635567"><ele>85.0</ele><time>2026-05-04T10:09:43.795Z</time></trkpt><trkpt lat="52.7432433" lon="-1.6633533"><ele>85.0</ele><time>2026-05-04T10:09:44.795Z</time></trkpt><trkpt lat="52.743205" lon="-1.6631083"><ele>85.0</ele><time>2026-05-04T10:09:45.792Z</time></trkpt><trkpt lat="52.7431767" lon="-1.66284"><ele>85.33333333333333</ele><time>2026-05-04T10:09:46.792Z</time></trkpt><trkpt lat="52.74315" lon="-1.6625533"><ele>85.66666666666667</ele><time>2026-05-04T10:09:47.793Z</time></trkpt><trkpt lat="52.743125" lon="-1.6622483"><ele>86.0</ele><time>2026-05-04T10:09:48.792Z</time></trkpt><trkpt lat="52.7430967" lon="-1.6619333"><ele>86.0</ele><time>2026-05-04T10:09:49.791Z</time></trkpt><trkpt lat="52.74307" lon="-1.6616217"><ele>86.0</ele><time>2026-05-04T10:09:50.791Z</time></trkpt><trkpt lat="52.74304" lon="-1.6613117"><ele>86.0</ele><time>2026-05-04T10:09:51.792Z</time></trkpt><trkpt lat="52.74301" lon="-1.661005"><ele>86.0</ele><time>2026-05-04T10:09:52.791Z</time></trkpt><trkpt lat="52.7429817" lon="-1.6607033"><ele>86.0</ele><time>2026-05-04T10:09:53.791Z</time></trkpt><trkpt lat="52.7429533" lon="-1.6604017"><ele>86.0</ele><time>2026-05-04T10:09:54.792Z</time></trkpt><trkpt lat="52.7429267" lon="-1.660105"><ele>85.66666666666667</ele><time>2026-05-04T10:09:55.791Z</time></trkpt><trkpt lat="52.742895" lon="-1.6598083"><ele>85.33333333333333</ele><time>2026-05-04T10:09:56.791Z</time></trkpt><trkpt lat="52.74286" lon="-1.659515"><ele>85.0</ele><time>2026-05-04T10:09:57.792Z</time></trkpt><trkpt lat="52.7428267" lon="-1.6592267"><ele>85.66666666666666</ele><time>2026-05-04T10:09:58.792Z</time></trkpt><trkpt lat="52.7427933" lon="-1.6589467"><ele>86.33333333333333</ele><time>2026-05-04T10:09:59.796Z</time></trkpt><trkpt lat="52.7427617" lon="-1.6586833"><ele>87.0</ele><time>2026-05-04T10:10:00.796Z</time></trkpt><trkpt lat="52.7427317" lon="-1.65844"><ele>87.0</ele><time>2026-05-04T10:10:01.792Z</time></trkpt><trkpt lat="52.7426933" lon="-1.6582233"><ele>87.0</ele><time>2026-05-04T10:10:02.792Z</time></trkpt><trkpt lat="52.742645" lon="-1.6580333"><ele>87.0</ele><time>2026-05-04T10:10:03.792Z</time></trkpt><trkpt lat="52.7425767" lon="-1.6578683"><ele>87.0</ele><time>2026-05-04T10:10:04.791Z</time></trkpt><trkpt lat="52.7424883" lon="-1.6577217"><ele>87.0</ele><time>2026-05-04T10:10:05.792Z</time></trkpt><trkpt lat="52.74238" lon="-1.6576083"><ele>87.0</ele><time>2026-05-04T10:10:06.792Z</time></trkpt><trkpt lat="52.7422617" lon="-1.657515"><ele>87.0</ele><time>2026-05-04T10:10:07.795Z</time></trkpt><trkpt lat="52.74214" lon="-1.657445"><ele>87.0</ele><time>2026-05-04T10:10:08.792Z</time></trkpt><trkpt lat="52.7420183" lon="-1.6573967"><ele>87.0</ele><time>2026-05-04T10:10:09.795Z</time></trkpt><trkpt lat="52.7418867" lon="-1.657375"><ele>87.0</ele><time>2026-05-04T10:10:10.795Z</time></trkpt><trkpt lat="52.741765" lon="-1.6573717"><ele>87.0</ele><time>2026-05-04T10:10:11.792Z</time></trkpt><trkpt lat="52.7416433" lon="-1.657385"><ele>87.0</ele><time>2026-05-04T10:10:12.791Z</time></trkpt><trkpt lat="52.7415167" lon="-1.6573967"><ele>87.25</ele><time>2026-05-04T10:10:13.795Z</time></trkpt><trkpt lat="52.74139" lon="-1.6573983"><ele>87.5</ele><time>2026-05-04T10:10:14.794Z</time></trkpt><trkpt lat="52.7412633" lon="-1.65739"><ele>87.75</ele><time>2026-05-04T10:10:15.795Z</time></trkpt><trkpt lat="52.7411383" lon="-1.6573667"><ele>88.0</ele><time>2026-05-04T10:10:16.792Z</time></trkpt><trkpt lat="52.7410117" lon="-1.6573183"><ele>88.5</ele><time>2026-05-04T10:10:17.794Z</time></trkpt><trkpt lat="52.7408883" lon="-1.657245"><ele>89.0</ele><time>2026-05-04T10:10:18.794Z</time></trkpt><trkpt lat="52.740765" lon="-1.65715"><ele>89.5</ele><time>2026-05-04T10:10:19.794Z</time></trkpt><trkpt lat="52.7406417" lon="-1.6570367"><ele>90.0</ele><time>2026-05-04T10:10:20.793Z</time></trkpt><trkpt lat="52.74052" lon="-1.6569117"><ele>90.0</ele><time>2026-05-04T10:10:21.792Z</time></trkpt><trkpt lat="52.7404" lon="-1.656785"><ele>90.0</ele><time>2026-05-04T10:10:22.794Z</time></trkpt><trkpt lat="52.7402817" lon="-1.6566517"><ele>90.0</ele><time>2026-05-04T10:10:23.794Z</time></trkpt><trkpt lat="52.740165" lon="-1.6565"><ele>90.0</ele><time>2026-05-04T10:10:24.793Z</time></trkpt><trkpt lat="52.740055" lon="-1.6563467"><ele>90.25</ele><time>2026-05-04T10:10:25.793Z</time></trkpt><trkpt lat="52.7399533" lon="-1.6561967"><ele>90.5</ele><time>2026-05-04T10:10:26.793Z</time></trkpt><trkpt lat="52.7398517" lon="-1.6560433"><ele>90.75</ele><time>2026-05-04T10:10:27.793Z</time></trkpt><trkpt lat="52.73975" lon="-1.6558867"><ele>91.0</ele><time>2026-05-04T10:10:28.793Z</time></trkpt><trkpt lat="52.7396517" lon="-1.65572"><ele>90.5</ele><time>2026-05-04T10:10:29.796Z</time></trkpt><trkpt lat="52.7395567" lon="-1.65554"><ele>90.0</ele><time>2026-05-04T10:10:30.792Z</time></trkpt><trkpt lat="52.73947" lon="-1.6553417"><ele>89.5</ele><time>2026-05-04T10:10:31.793Z</time></trkpt><trkpt lat="52.7393917" lon="-1.6551233"><ele>89.0</ele><time>2026-05-04T10:10:32.794Z</time></trkpt><trkpt lat="52.7393167" lon="-1.6549"><ele>89.0</ele><time>2026-05-04T10:10:33.794Z</time></trkpt><trkpt lat="52.7392417" lon="-1.6546767"><ele>89.0</ele><time>2026-05-04T10:10:34.794Z</time></trkpt><trkpt lat="52.7391633" lon="-1.65445"><ele>89.0</ele><time>2026-05-04T10:10:35.793Z</time></trkpt><trkpt lat="52.7390833" lon="-1.65421"><ele>89.0</ele><time>2026-05-04T10:10:36.794Z</time></trkpt><trkpt lat="52.7390017" lon="-1.6539533"><ele>89.0</ele><time>2026-05-04T10:10:37.793Z</time></trkpt><trkpt lat="52.73892" lon="-1.653685"><ele>89.0</ele><time>2026-05-04T10:10:38.794Z</time></trkpt><trkpt lat="52.73884" lon="-1.6534067"><ele>89.33333333333334</ele><time>2026-05-04T10:10:39.793Z</time></trkpt><trkpt lat="52.7387567" lon="-1.6531217"><ele>89.66666666666667</ele><time>2026-05-04T10:10:40.796Z</time></trkpt><trkpt lat="52.7386683" lon="-1.6528317"><ele>90.0</ele><time>2026-05-04T10:10:41.791Z</time></trkpt><trkpt lat="52.7385717" lon="-1.6525383"><ele>88.33333333333333</ele><time>2026-05-04T10:10:42.792Z</time></trkpt><trkpt lat="52.73848" lon="-1.6522483"><ele>86.66666666666666</ele><time>2026-05-04T10:10:43.795Z</time></trkpt><trkpt lat="52.7383867" lon="-1.6519567"><ele>85.0</ele><time>2026-05-04T10:10:44.792Z</time></trkpt><trkpt lat="52.7382933" lon="-1.65167"><ele>84.66666666666666</ele><time>2026-05-04T10:10:45.792Z</time></trkpt><trkpt lat="52.7382033" lon="-1.6513717"><ele>84.33333333333333</ele><time>2026-05-04T10:10:46.793Z</time></trkpt><trkpt lat="52.7381" lon="-1.651065"><ele>84.0</ele><time>2026-05-04T10:10:47.794Z</time></trkpt><trkpt lat="52.7379933" lon="-1.6507617"><ele>83.66666666666667</ele><time>2026-05-04T10:10:48.794Z</time></trkpt><trkpt lat="52.7378917" lon="-1.65047"><ele>83.33333333333334</ele><time>2026-05-04T10:10:49.793Z</time></trkpt><trkpt lat="52.7377983" lon="-1.6502017"><ele>83.0</ele><time>2026-05-04T10:10:50.794Z</time></trkpt><trkpt lat="52.7377083" lon="-1.6499417"><ele>83.0</ele><time>2026-05-04T10:10:51.794Z</time></trkpt><trkpt lat="52.73763" lon="-1.6496933"><ele>83.0</ele><time>2026-05-04T10:10:52.792Z</time></trkpt><trkpt lat="52.7375583" lon="-1.6494367"><ele>83.0</ele><time>2026-05-04T10:10:53.795Z</time></trkpt><trkpt lat="52.7374933" lon="-1.6491733"><ele>82.66666666666667</ele><time>2026-05-04T10:10:54.791Z</time></trkpt><trkpt lat="52.7374333" lon="-1.648895"><ele>82.33333333333333</ele><time>2026-05-04T10:10:55.793Z</time></trkpt><trkpt lat="52.73737" lon="-1.6486017"><ele>82.0</ele><time>2026-05-04T10:10:56.793Z</time></trkpt><trkpt lat="52.7373017" lon="-1.6483067"><ele>82.0</ele><time>2026-05-04T10:10:57.793Z</time></trkpt><trkpt lat="52.73724" lon="-1.6480117"><ele>82.0</ele><time>2026-05-04T10:10:58.792Z</time></trkpt><trkpt lat="52.7371833" lon="-1.64771"><ele>82.0</ele><time>2026-05-04T10:10:59.793Z</time></trkpt><trkpt lat="52.73713" lon="-1.6474067"><ele>82.0</ele><time>2026-05-04T10:11:00.793Z</time></trkpt><trkpt lat="52.7370883" lon="-1.6471033"><ele>82.0</ele><time>2026-05-04T10:11:01.797Z</time></trkpt><trkpt lat="52.7370617" lon="-1.646795"><ele>82.0</ele><time>2026-05-04T10:11:02.793Z</time></trkpt><trkpt lat="52.7370533" lon="-1.6464683"><ele>82.0</ele><time>2026-05-04T10:11:03.794Z</time></trkpt><trkpt lat="52.737055" lon="-1.64614"><ele>82.0</ele><time>2026-05-04T10:11:04.796Z</time></trkpt><trkpt lat="52.73706" lon="-1.6458083"><ele>82.0</ele><time>2026-05-04T10:11:05.791Z</time></trkpt><trkpt lat="52.7370633" lon="-1.64548"><ele>82.66666666666666</ele><time>2026-05-04T10:11:06.793Z</time></trkpt><trkpt lat="52.73705" lon="-1.6451567"><ele>83.33333333333333</ele><time>2026-05-04T10:11:07.792Z</time></trkpt><trkpt lat="52.737025" lon="-1.6448333"><ele>84.0</ele><time>2026-05-04T10:11:08.794Z</time></trkpt><trkpt lat="52.7369833" lon="-1.6445083"><ele>83.66666666666667</ele><time>2026-05-04T10:11:09.794Z</time></trkpt><trkpt lat="52.736935" lon="-1.644195"><ele>83.33333333333334</ele><time>2026-05-04T10:11:10.792Z</time></trkpt><trkpt lat="52.73688" lon="-1.6439017"><ele>83.0</ele><time>2026-05-04T10:11:11.792Z</time></trkpt><trkpt lat="52.7368283" lon="-1.6436417"><ele>83.75</ele><time>2026-05-04T10:11:12.794Z</time></trkpt><trkpt lat="52.7367867" lon="-1.64341"><ele>84.5</ele><time>2026-05-04T10:11:13.795Z</time></trkpt><trkpt lat="52.73675" lon="-1.6432017"><ele>85.25</ele><time>2026-05-04T10:11:14.794Z</time></trkpt><trkpt lat="52.7367217" lon="-1.6430083"><ele>86.0</ele><time>2026-05-04T10:11:15.794Z</time></trkpt><trkpt lat="52.7367067" lon="-1.6428433"><ele>85.83333333333334</ele><time>2026-05-04T10:11:16.795Z</time></trkpt><trkpt lat="52.7366933" lon="-1.6426883"><ele>85.66666666666667</ele><time>2026-05-04T10:11:17.793Z</time></trkpt><trkpt lat="52.736685" lon="-1.6425367"><ele>85.5</ele><time>2026-05-04T10:11:18.793Z</time></trkpt><trkpt lat="52.7366633" lon="-1.6423933"><ele>85.33333333333333</ele><time>2026-05-04T10:11:19.795Z</time></trkpt><trkpt lat="52.73664" lon="-1.6422583"><ele>85.16666666666666</ele><time>2026-05-04T10:11:20.793Z</time></trkpt><trkpt lat="52.73661" lon="-1.6421367"><ele>85.0</ele><time>2026-05-04T10:11:21.792Z</time></trkpt><trkpt lat="52.7365767" lon="-1.642025"><ele>85.16666666666666</ele><time>2026-05-04T10:11:22.794Z</time></trkpt><trkpt lat="52.7365483" lon="-1.6419217"><ele>85.33333333333333</ele><time>2026-05-04T10:11:23.793Z</time></trkpt><trkpt lat="52.7365167" lon="-1.6418167"><ele>85.5</ele><time>2026-05-04T10:11:24.796Z</time></trkpt><trkpt lat="52.736475" lon="-1.6417183"><ele>85.66666666666667</ele><time>2026-05-04T10:11:25.793Z</time></trkpt><trkpt lat="52.7364183" lon="-1.64161"><ele>85.83333333333334</ele><time>2026-05-04T10:11:26.795Z</time></trkpt><trkpt lat="52.7363517" lon="-1.6414983"><ele>86.0</ele><time>2026-05-04T10:11:27.791Z</time></trkpt><trkpt lat="52.736285" lon="-1.6413933"><ele>86.0</ele><time>2026-05-04T10:11:28.791Z</time></trkpt><trkpt lat="52.7362183" lon="-1.6412967"><ele>86.0</ele><time>2026-05-04T10:11:29.793Z</time></trkpt><trkpt lat="52.736145" lon="-1.6412083"><ele>86.0</ele><time>2026-05-04T10:11:30.792Z</time></trkpt><trkpt lat="52.73607" lon="-1.641135"><ele>86.0</ele><time>2026-05-04T10:11:31.793Z</time></trkpt><trkpt lat="52.7359883" lon="-1.6410683"><ele>86.0</ele><time>2026-05-04T10:11:32.795Z</time></trkpt><trkpt lat="52.7359017" lon="-1.6410083"><ele>86.4</ele><time>2026-05-04T10:11:33.795Z</time></trkpt><trkpt lat="52.73581" lon="-1.6409533"><ele>86.8</ele><time>2026-05-04T10:11:34.792Z</time></trkpt><trkpt lat="52.7357167" lon="-1.6408933"><ele>87.2</ele><time>2026-05-04T10:11:35.791Z</time></trkpt><trkpt lat="52.7356217" lon="-1.6408383"><ele>87.60000000000001</ele><time>2026-05-04T10:11:36.792Z</time></trkpt><trkpt lat="52.73553" lon="-1.64077"><ele>88.0</ele><time>2026-05-04T10:11:37.792Z</time></trkpt><trkpt lat="52.73544" lon="-1.6407"><ele>88.0</ele><time>2026-05-04T10:11:38.792Z</time></trkpt><trkpt lat="52.7353567" lon="-1.6406283"><ele>88.0</ele><time>2026-05-04T10:11:39.792Z</time></trkpt><trkpt lat="52.73528" lon="-1.6405633"><ele>88.0</ele><time>2026-05-04T10:11:40.791Z</time></trkpt><trkpt lat="52.7352083" lon="-1.6405033"><ele>88.0</ele><time>2026-05-04T10:11:41.792Z</time></trkpt><trkpt lat="52.7351333" lon="-1.64044"><ele>88.0</ele><time>2026-05-04T10:11:42.792Z</time></trkpt><trkpt lat="52.7350617" lon="-1.6403783"><ele>88.0</ele><time>2026-05-04T10:11:43.792Z</time></trkpt><trkpt lat="52.7349033" lon="-1.64024"><ele>88.0</ele><time>2026-05-04T10:11:45.792Z</time></trkpt><trkpt lat="52.7348267" lon="-1.6401683"><ele>88.0</ele><time>2026-05-04T10:11:46.793Z</time></trkpt><trkpt lat="52.7347433" lon="-1.640095"><ele>88.0</ele><time>2026-05-04T10:11:47.795Z</time></trkpt><trkpt lat="52.7346617" lon="-1.6400233"><ele>88.0</ele><time>2026-05-04T10:11:48.791Z</time></trkpt><trkpt lat="52.73458" lon="-1.639955"><ele>88.0</ele><time>2026-05-04T10:11:49.791Z</time></trkpt><trkpt lat="52.7344983" lon="-1.6398867"><ele>88.0</ele><time>2026-05-04T10:11:50.793Z</time></trkpt><trkpt lat="52.73442" lon="-1.63982"><ele>88.0</ele><time>2026-05-04T10:11:51.792Z</time></trkpt><trkpt lat="52.73434" lon="-1.6397583"><ele>88.0</ele><time>2026-05-04T10:11:52.794Z</time></trkpt><trkpt lat="52.7342567" lon="-1.6397"><ele>88.0</ele><time>2026-05-04T10:11:53.791Z</time></trkpt><trkpt lat="52.7341767" lon="-1.6396417"><ele>88.0</ele><time>2026-05-04T10:11:54.792Z</time></trkpt><trkpt lat="52.7340967" lon="-1.6395917"><ele>88.0</ele><time>2026-05-04T10:11:55.792Z</time></trkpt><trkpt lat="52.7340267" lon="-1.6395383"><ele>87.71428571428572</ele><time>2026-05-04T10:11:56.791Z</time></trkpt><trkpt lat="52.7339667" lon="-1.6395067"><ele>87.42857142857143</ele><time>2026-05-04T10:11:57.791Z</time></trkpt><trkpt lat="52.733885" lon="-1.63946"><ele>87.14285714285714</ele><time>2026-05-04T10:11:59.792Z</time></trkpt><trkpt lat="52.7338217" lon="-1.6393983"><ele>86.85714285714286</ele><time>2026-05-04T10:12:02.79Z</time></trkpt><trkpt lat="52.7337667" lon="-1.6393333"><ele>86.57142857142857</ele><time>2026-05-04T10:12:05.792Z</time></trkpt><trkpt lat="52.7336833" lon="-1.639285"><ele>86.28571428571429</ele><time>2026-05-04T10:12:07.795Z</time></trkpt><trkpt lat="52.733625" lon="-1.6392433"><ele>86.0</ele><time>2026-05-04T10:12:08.794Z</time></trkpt><trkpt lat="52.733555" lon="-1.6392"><ele>85.16666666666667</ele><time>2026-05-04T10:12:09.795Z</time></trkpt><trkpt lat="52.733485" lon="-1.6391483"><ele>84.33333333333334</ele><time>2026-05-04T10:12:10.798Z</time></trkpt><trkpt lat="52.7334183" lon="-1.639095"><ele>83.5</ele><time>2026-05-04T10:12:11.795Z</time></trkpt><trkpt lat="52.7333517" lon="-1.639045"><ele>82.66666666666667</ele><time>2026-05-04T10:12:12.798Z</time></trkpt><trkpt lat="52.7332833" lon="-1.63899"><ele>81.83333333333333</ele><time>2026-05-04T10:12:13.795Z</time></trkpt><trkpt lat="52.733215" lon="-1.6389317"><ele>81.0</ele><time>2026-05-04T10:12:14.794Z</time></trkpt><trkpt lat="52.7331433" lon="-1.6388583"><ele>81.0</ele><time>2026-05-04T10:12:15.796Z</time></trkpt><trkpt lat="52.7330717" lon="-1.6387783"><ele>81.0</ele><time>2026-05-04T10:12:16.795Z</time></trkpt><trkpt lat="52.733005" lon="-1.6387067"><ele>81.0</ele><time>2026-05-04T10:12:17.796Z</time></trkpt><trkpt lat="52.7329483" lon="-1.6386317"><ele>81.0</ele><time>2026-05-04T10:12:18.792Z</time></trkpt><trkpt lat="52.7329017" lon="-1.638555"><ele>81.0</ele><time>2026-05-04T10:12:19.793Z</time></trkpt><trkpt lat="52.7328417" lon="-1.6383933"><ele>81.0</ele><time>2026-05-04T10:12:21.792Z</time></trkpt><trkpt lat="52.7328283" lon="-1.6382283"><ele>81.0</ele><time>2026-05-04T10:12:23.793Z</time></trkpt><trkpt lat="52.7328417" lon="-1.63808"><ele>81.0</ele><time>2026-05-04T10:12:25.798Z</time></trkpt><trkpt lat="52.7328783" lon="-1.63795"><ele>81.0</ele><time>2026-05-04T10:12:27.793Z</time></trkpt><trkpt lat="52.732945" lon="-1.6377917"><ele>81.0</ele><time>2026-05-04T10:12:29.791Z</time></trkpt><trkpt lat="52.7330217" lon="-1.6376383"><ele>81.0</ele><time>2026-05-04T10:12:31.796Z</time></trkpt><trkpt lat="52.7330667" lon="-1.63755"><ele>80.66666666666667</ele><time>2026-05-04T10:12:32.792Z</time></trkpt><trkpt lat="52.7331217" lon="-1.6374633"><ele>80.33333333333333</ele><time>2026-05-04T10:12:33.797Z</time></trkpt><trkpt lat="52.7331833" lon="-1.637375"><ele>80.0</ele><time>2026-05-04T10:12:34.792Z</time></trkpt><trkpt lat="52.7332517" lon="-1.6372833"><ele>79.66666666666666</ele><time>2026-05-04T10:12:35.796Z</time></trkpt><trkpt lat="52.7333167" lon="-1.6371983"><ele>79.33333333333333</ele><time>2026-05-04T10:12:36.795Z</time></trkpt><trkpt lat="52.733375" lon="-1.6371133"><ele>79.0</ele><time>2026-05-04T10:12:37.8Z</time></trkpt><trkpt lat="52.73343" lon="-1.6370283"><ele>79.2</ele><time>2026-05-04T10:12:38.792Z</time></trkpt><trkpt lat="52.7334917" lon="-1.6369383"><ele>79.4</ele><time>2026-05-04T10:12:39.792Z</time></trkpt><trkpt lat="52.7335517" lon="-1.63684"><ele>79.6</ele><time>2026-05-04T10:12:40.791Z</time></trkpt><trkpt lat="52.7336217" lon="-1.636745"><ele>79.8</ele><time>2026-05-04T10:12:41.792Z</time></trkpt><trkpt lat="52.7337033" lon="-1.6366483"><ele>80.0</ele><time>2026-05-04T10:12:42.793Z</time></trkpt><trkpt lat="52.73378" lon="-1.6365517"><ele>80.0</ele><time>2026-05-04T10:12:43.798Z</time></trkpt><trkpt lat="52.7338533" lon="-1.636465"><ele>80.0</ele><time>2026-05-04T10:12:44.795Z</time></trkpt><trkpt lat="52.7339283" lon="-1.6363867"><ele>80.0</ele><time>2026-05-04T10:12:45.791Z</time></trkpt><trkpt lat="52.734005" lon="-1.6363183"><ele>80.0</ele><time>2026-05-04T10:12:46.797Z</time></trkpt><trkpt lat="52.73409" lon="-1.6362483"><ele>80.0</ele><time>2026-05-04T10:12:47.792Z</time></trkpt><trkpt lat="52.7341717" lon="-1.6361717"><ele>80.0</ele><time>2026-05-04T10:12:48.791Z</time></trkpt><trkpt lat="52.7342583" lon="-1.6361067"><ele>80.0</ele><time>2026-05-04T10:12:49.792Z</time></trkpt><trkpt lat="52.7343383" lon="-1.63605"><ele>80.0</ele><time>2026-05-04T10:12:50.792Z</time></trkpt><trkpt lat="52.73441" lon="-1.6360017"><ele>80.0</ele><time>2026-05-04T10:12:51.792Z</time></trkpt><trkpt lat="52.7344817" lon="-1.6359583"><ele>80.0</ele><time>2026-05-04T10:12:52.793Z</time></trkpt><trkpt lat="52.73455" lon="-1.6359083"><ele>80.0</ele><time>2026-05-04T10:12:53.794Z</time></trkpt><trkpt lat="52.735205" lon="-1.6355983"><ele>80.16666666666667</ele><time>2026-05-04T10:13:19.791Z</time></trkpt><trkpt lat="52.7351283" lon="-1.6355883"><ele>80.33333333333334</ele><time>2026-05-04T10:14:33.793Z</time></trkpt><trkpt lat="52.735065" lon="-1.6355983"><ele>80.5</ele><time>2026-05-04T10:14:35.793Z</time></trkpt><trkpt lat="52.7349717" lon="-1.6355033"><ele>80.66666666666667</ele><time>2026-05-04T10:14:37.793Z</time></trkpt><trkpt lat="52.734915" lon="-1.635435"><ele>80.83333333333333</ele><time>2026-05-04T10:14:38.795Z</time></trkpt><trkpt lat="52.7348617" lon="-1.635365"><ele>81.0</ele><time>2026-05-04T10:14:39.795Z</time></trkpt><trkpt lat="52.7348" lon="-1.6352817"><ele>81.0</ele><time>2026-05-04T10:14:40.794Z</time></trkpt><trkpt lat="52.734735" lon="-1.635195"><ele>81.0</ele><time>2026-05-04T10:14:41.795Z</time></trkpt><trkpt lat="52.7346667" lon="-1.63511"><ele>81.0</ele><time>2026-05-04T10:14:42.794Z</time></trkpt><trkpt lat="52.7345933" lon="-1.63503"><ele>81.0</ele><time>2026-05-04T10:14:43.794Z</time></trkpt><trkpt lat="52.7345083" lon="-1.6349433"><ele>81.0</ele><time>2026-05-04T10:14:44.795Z</time></trkpt><trkpt lat="52.7344333" lon="-1.6348617"><ele>81.0</ele><time>2026-05-04T10:14:45.795Z</time></trkpt><trkpt lat="52.7343583" lon="-1.6347817"><ele>81.19999999999999</ele><time>2026-05-04T10:14:46.795Z</time></trkpt><trkpt lat="52.734285" lon="-1.634695"><ele>81.39999999999999</ele><time>2026-05-04T10:14:47.79Z</time></trkpt><trkpt lat="52.73422" lon="-1.6345683"><ele>81.6</ele><time>2026-05-04T10:14:48.792Z</time></trkpt><trkpt lat="52.73415" lon="-1.6344317"><ele>81.8</ele><time>2026-05-04T10:14:49.795Z</time></trkpt><trkpt lat="52.7340783" lon="-1.6342883"><ele>82.0</ele><time>2026-05-04T10:14:50.795Z</time></trkpt><trkpt lat="52.7340033" lon="-1.634135"><ele>82.5</ele><time>2026-05-04T10:14:51.794Z</time></trkpt><trkpt lat="52.7339283" lon="-1.6339767"><ele>83.0</ele><time>2026-05-04T10:14:52.795Z</time></trkpt><trkpt lat="52.7338517" lon="-1.6338133"><ele>83.5</ele><time>2026-05-04T10:14:53.791Z</time></trkpt><trkpt lat="52.7337817" lon="-1.6336433"><ele>84.0</ele><time>2026-05-04T10:14:54.791Z</time></trkpt><trkpt lat="52.73371" lon="-1.63347"><ele>84.0</ele><time>2026-05-04T10:14:55.794Z</time></trkpt><trkpt lat="52.733635" lon="-1.6332867"><ele>84.0</ele><time>2026-05-04T10:14:56.791Z</time></trkpt><trkpt lat="52.7335667" lon="-1.6331067"><ele>84.0</ele><time>2026-05-04T10:14:57.795Z</time></trkpt><trkpt lat="52.7335067" lon="-1.6329283"><ele>84.0</ele><time>2026-05-04T10:14:58.793Z</time></trkpt><trkpt lat="52.73345" lon="-1.6327567"><ele>84.6</ele><time>2026-05-04T10:14:59.794Z</time></trkpt><trkpt lat="52.73341" lon="-1.632595"><ele>85.2</ele><time>2026-05-04T10:15:00.793Z</time></trkpt><trkpt lat="52.7333683" lon="-1.632435"><ele>85.8</ele><time>2026-05-04T10:15:01.794Z</time></trkpt><trkpt lat="52.7333233" lon="-1.632275"><ele>86.39999999999999</ele><time>2026-05-04T10:15:02.79Z</time></trkpt><trkpt lat="52.7332783" lon="-1.6321133"><ele>87.0</ele><time>2026-05-04T10:15:03.794Z</time></trkpt><trkpt lat="52.7331883" lon="-1.6313183"><ele>87.0</ele><time>2026-05-04T10:15:08.292Z</time></trkpt><trkpt lat="52.7330283" lon="-1.6311933"><ele>87.0</ele><time>2026-05-04T10:15:09.292Z</time></trkpt><trkpt lat="52.732945" lon="-1.630925"><ele>87.0</ele><time>2026-05-04T10:15:10.793Z</time></trkpt><trkpt lat="52.7328717" lon="-1.6307367"><ele>87.5</ele><time>2026-05-04T10:15:11.791Z</time></trkpt><trkpt lat="52.7327933" lon="-1.63053"><ele>88.0</ele><time>2026-05-04T10:15:12.791Z</time></trkpt><trkpt lat="52.7327267" lon="-1.630335"><ele>88.5</ele><time>2026-05-04T10:15:13.792Z</time></trkpt><trkpt lat="52.73266" lon="-1.6301433"><ele>89.0</ele><time>2026-05-04T10:15:14.792Z</time></trkpt><trkpt lat="52.73259" lon="-1.6299467"><ele>89.5</ele><time>2026-05-04T10:15:15.792Z</time></trkpt><trkpt lat="52.7325117" lon="-1.6297517"><ele>90.0</ele><time>2026-05-04T10:15:16.791Z</time></trkpt><trkpt lat="52.7324333" lon="-1.629575"><ele>90.5</ele><time>2026-05-04T10:15:17.795Z</time></trkpt><trkpt lat="52.73236" lon="-1.6294117"><ele>91.0</ele><time>2026-05-04T10:15:18.793Z</time></trkpt><trkpt lat="52.7322883" lon="-1.6292317"><ele>91.33333333333333</ele><time>2026-05-04T10:15:19.793Z</time></trkpt><trkpt lat="52.7322217" lon="-1.6290283"><ele>91.66666666666667</ele><time>2026-05-04T10:15:20.794Z</time></trkpt><trkpt lat="52.732155" lon="-1.628805"><ele>92.0</ele><time>2026-05-04T10:15:21.793Z</time></trkpt><trkpt lat="52.7320833" lon="-1.6285617"><ele>92.0</ele><time>2026-05-04T10:15:22.794Z</time></trkpt><trkpt lat="52.7320017" lon="-1.6283067"><ele>92.0</ele><time>2026-05-04T10:15:23.793Z</time></trkpt><trkpt lat="52.73192" lon="-1.6280633"><ele>92.0</ele><time>2026-05-04T10:15:24.793Z</time></trkpt><trkpt lat="52.7318433" lon="-1.6278433"><ele>91.0</ele><time>2026-05-04T10:15:25.793Z</time></trkpt><trkpt lat="52.731775" lon="-1.6276433"><ele>90.0</ele><time>2026-05-04T10:15:26.793Z</time></trkpt><trkpt lat="52.7317133" lon="-1.62745"><ele>89.0</ele><time>2026-05-04T10:15:27.794Z</time></trkpt><trkpt lat="52.731665" lon="-1.6272583"><ele>88.0</ele><time>2026-05-04T10:15:28.794Z</time></trkpt><trkpt lat="52.73164" lon="-1.62706"><ele>88.0</ele><time>2026-05-04T10:15:29.794Z</time></trkpt><trkpt lat="52.7316233" lon="-1.6268433"><ele>88.0</ele><time>2026-05-04T10:15:30.794Z</time></trkpt><trkpt lat="52.7316" lon="-1.626615"><ele>88.0</ele><time>2026-05-04T10:15:31.794Z</time></trkpt><trkpt lat="52.731565" lon="-1.6263883"><ele>88.0</ele><time>2026-05-04T10:15:32.792Z</time></trkpt><trkpt lat="52.7315167" lon="-1.6261733"><ele>88.25</ele><time>2026-05-04T10:15:33.794Z</time></trkpt><trkpt lat="52.7314617" lon="-1.6259683"><ele>88.5</ele><time>2026-05-04T10:15:34.794Z</time></trkpt><trkpt lat="52.731395" lon="-1.6257767"><ele>88.75</ele><time>2026-05-04T10:15:35.793Z</time></trkpt><trkpt lat="52.7313117" lon="-1.6255983"><ele>89.0</ele><time>2026-05-04T10:15:36.793Z</time></trkpt><trkpt lat="52.73122" lon="-1.62543"><ele>89.0</ele><time>2026-05-04T10:15:37.792Z</time></trkpt><trkpt lat="52.7311267" lon="-1.6252567"><ele>89.0</ele><time>2026-05-04T10:15:38.793Z</time></trkpt><trkpt lat="52.7310367" lon="-1.6250667"><ele>89.0</ele><time>2026-05-04T10:15:39.793Z</time></trkpt><trkpt lat="52.7309533" lon="-1.624855"><ele>89.0</ele><time>2026-05-04T10:15:40.791Z</time></trkpt><trkpt lat="52.7308733" lon="-1.6246233"><ele>89.0</ele><time>2026-05-04T10:15:41.793Z</time></trkpt><trkpt lat="52.730785" lon="-1.6243733"><ele>89.0</ele><time>2026-05-04T10:15:42.793Z</time></trkpt><trkpt lat="52.7306883" lon="-1.62411"><ele>89.0</ele><time>2026-05-04T10:15:43.794Z</time></trkpt><trkpt lat="52.73059" lon="-1.623845"><ele>89.33333333333334</ele><time>2026-05-04T10:15:44.792Z</time></trkpt><trkpt lat="52.7304917" lon="-1.6235883"><ele>89.66666666666667</ele><time>2026-05-04T10:15:45.792Z</time></trkpt><trkpt lat="52.7303917" lon="-1.6233317"><ele>90.0</ele><time>2026-05-04T10:15:46.792Z</time></trkpt><trkpt lat="52.730295" lon="-1.6230733"><ele>90.66666666666667</ele><time>2026-05-04T10:15:47.794Z</time></trkpt><trkpt lat="52.7302" lon="-1.622805"><ele>91.33333333333334</ele><time>2026-05-04T10:15:48.791Z</time></trkpt><trkpt lat="52.73012" lon="-1.6225317"><ele>92.0</ele><time>2026-05-04T10:15:49.793Z</time></trkpt><trkpt lat="52.7300517" lon="-1.622255"><ele>92.0</ele><time>2026-05-04T10:15:50.792Z</time></trkpt><trkpt lat="52.7299867" lon="-1.6219833"><ele>92.0</ele><time>2026-05-04T10:15:51.794Z</time></trkpt><trkpt lat="52.7299283" lon="-1.6217183"><ele>92.0</ele><time>2026-05-04T10:15:52.793Z</time></trkpt><trkpt lat="52.7298767" lon="-1.6214617"><ele>92.0</ele><time>2026-05-04T10:15:53.793Z</time></trkpt><trkpt lat="52.7298317" lon="-1.62123"><ele>92.0</ele><time>2026-05-04T10:15:54.793Z</time></trkpt><trkpt lat="52.7297817" lon="-1.62103"><ele>92.0</ele><time>2026-05-04T10:15:55.793Z</time></trkpt><trkpt lat="52.7297233" lon="-1.6208617"><ele>92.0</ele><time>2026-05-04T10:15:56.793Z</time></trkpt><trkpt lat="52.7296517" lon="-1.6207283"><ele>92.0</ele><time>2026-05-04T10:15:57.792Z</time></trkpt><trkpt lat="52.729575" lon="-1.6206317"><ele>92.0</ele><time>2026-05-04T10:15:58.792Z</time></trkpt><trkpt lat="52.7294783" lon="-1.620585"><ele>92.0</ele><time>2026-05-04T10:15:59.792Z</time></trkpt><trkpt lat="52.7293667" lon="-1.6205783"><ele>92.0</ele><time>2026-05-04T10:16:00.791Z</time></trkpt><trkpt lat="52.7292383" lon="-1.62058"><ele>92.0</ele><time>2026-05-04T10:16:01.792Z</time></trkpt><trkpt lat="52.7291017" lon="-1.6205817"><ele>92.25</ele><time>2026-05-04T10:16:02.791Z</time></trkpt><trkpt lat="52.72896" lon="-1.6205667"><ele>92.5</ele><time>2026-05-04T10:16:03.791Z</time></trkpt><trkpt lat="52.72882" lon="-1.6205283"><ele>92.75</ele><time>2026-05-04T10:16:04.791Z</time></trkpt><trkpt lat="52.728695" lon="-1.6204783"><ele>93.0</ele><time>2026-05-04T10:16:05.794Z</time></trkpt><trkpt lat="52.7285867" lon="-1.6204367"><ele>93.0</ele><time>2026-05-04T10:16:06.793Z</time></trkpt><trkpt lat="52.7285" lon="-1.6203933"><ele>93.0</ele><time>2026-05-04T10:16:07.792Z</time></trkpt><trkpt lat="52.7284283" lon="-1.6203133"><ele>93.0</ele><time>2026-05-04T10:16:08.793Z</time></trkpt><trkpt lat="52.7283733" lon="-1.6201983"><ele>93.0</ele><time>2026-05-04T10:16:09.792Z</time></trkpt><trkpt lat="52.72834" lon="-1.6200467"><ele>93.0</ele><time>2026-05-04T10:16:10.793Z</time></trkpt><trkpt lat="52.72836" lon="-1.619845"><ele>93.0</ele><time>2026-05-04T10:16:11.793Z</time></trkpt><trkpt lat="52.7283883" lon="-1.6196167"><ele>93.0</ele><time>2026-05-04T10:16:12.794Z</time></trkpt><trkpt lat="52.7284033" lon="-1.6193733"><ele>93.0</ele><time>2026-05-04T10:16:13.792Z</time></trkpt><trkpt lat="52.7284217" lon="-1.6191217"><ele>93.0</ele><time>2026-05-04T10:16:14.792Z</time></trkpt><trkpt lat="52.7284333" lon="-1.6188767"><ele>93.66666666666667</ele><time>2026-05-04T10:16:15.794Z</time></trkpt><trkpt lat="52.72844" lon="-1.6186317"><ele>94.33333333333334</ele><time>2026-05-04T10:16:16.795Z</time></trkpt><trkpt lat="52.7284483" lon="-1.6183717"><ele>95.0</ele><time>2026-05-04T10:16:17.791Z</time></trkpt><trkpt lat="52.7284467" lon="-1.6181"><ele>95.33333333333334</ele><time>2026-05-04T10:16:18.792Z</time></trkpt><trkpt lat="52.7284317" lon="-1.6178167"><ele>95.66666666666667</ele><time>2026-05-04T10:16:19.791Z</time></trkpt><trkpt lat="52.7283983" lon="-1.6175283"><ele>96.0</ele><time>2026-05-04T10:16:20.79Z</time></trkpt><trkpt lat="52.7283467" lon="-1.617235"><ele>96.33333333333334</ele><time>2026-05-04T10:16:21.791Z</time></trkpt><trkpt lat="52.7282867" lon="-1.6169417"><ele>96.66666666666667</ele><time>2026-05-04T10:16:22.791Z</time></trkpt><trkpt lat="52.7282183" lon="-1.6166517"><ele>97.0</ele><time>2026-05-04T10:16:23.792Z</time></trkpt><trkpt lat="52.7281433" lon="-1.6163667"><ele>97.66666666666667</ele><time>2026-05-04T10:16:24.791Z</time></trkpt><trkpt lat="52.72806" lon="-1.616085"><ele>98.33333333333334</ele><time>2026-05-04T10:16:25.791Z</time></trkpt><trkpt lat="52.7279683" lon="-1.6158067"><ele>99.0</ele><time>2026-05-04T10:16:26.79Z</time></trkpt><trkpt lat="52.7278617" lon="-1.615545"><ele>99.33333333333334</ele><time>2026-05-04T10:16:27.791Z</time></trkpt><trkpt lat="52.7277533" lon="-1.6152933"><ele>99.66666666666667</ele><time>2026-05-04T10:16:28.795Z</time></trkpt><trkpt lat="52.7276483" lon="-1.61503"><ele>100.0</ele><time>2026-05-04T10:16:29.792Z</time></trkpt><trkpt lat="52.72755" lon="-1.6147467"><ele>99.66666666666667</ele><time>2026-05-04T10:16:30.791Z</time></trkpt><trkpt lat="52.72745" lon="-1.6144467"><ele>99.33333333333334</ele><time>2026-05-04T10:16:31.795Z</time></trkpt><trkpt lat="52.7273533" lon="-1.61414"><ele>99.0</ele><time>2026-05-04T10:16:32.794Z</time></trkpt><trkpt lat="52.72726" lon="-1.6138283"><ele>99.0</ele><time>2026-05-04T10:16:33.794Z</time></trkpt><trkpt lat="52.727165" lon="-1.61351"><ele>99.0</ele><time>2026-05-04T10:16:34.794Z</time></trkpt><trkpt lat="52.7270633" lon="-1.61319"><ele>99.0</ele><time>2026-05-04T10:16:35.796Z</time></trkpt><trkpt lat="52.7269583" lon="-1.6128733"><ele>99.0</ele><time>2026-05-04T10:16:36.794Z</time></trkpt><trkpt lat="52.7268517" lon="-1.6125533"><ele>99.0</ele><time>2026-05-04T10:16:37.792Z</time></trkpt><trkpt lat="52.7267483" lon="-1.6122367"><ele>99.0</ele><time>2026-05-04T10:16:38.795Z</time></trkpt><trkpt lat="52.726645" lon="-1.6119233"><ele>99.0</ele><time>2026-05-04T10:16:39.791Z</time></trkpt><trkpt lat="52.7265433" lon="-1.611615"><ele>99.0</ele><time>2026-05-04T10:16:40.795Z</time></trkpt><trkpt lat="52.7264483" lon="-1.6113183"><ele>99.0</ele><time>2026-05-04T10:16:41.792Z</time></trkpt><trkpt lat="52.7263633" lon="-1.6110367"><ele>99.0</ele><time>2026-05-04T10:16:42.792Z</time></trkpt><trkpt lat="52.7262883" lon="-1.6107467"><ele>99.0</ele><time>2026-05-04T10:16:43.796Z</time></trkpt><trkpt lat="52.7262283" lon="-1.6104417"><ele>99.0</ele><time>2026-05-04T10:16:44.792Z</time></trkpt><trkpt lat="52.72618" lon="-1.6101167"><ele>99.33333333333334</ele><time>2026-05-04T10:16:45.796Z</time></trkpt><trkpt lat="52.72613" lon="-1.60978"><ele>99.66666666666667</ele><time>2026-05-04T10:16:46.792Z</time></trkpt><trkpt lat="52.7260733" lon="-1.6094433"><ele>100.0</ele><time>2026-05-04T10:16:47.791Z</time></trkpt><trkpt lat="52.7260133" lon="-1.609105"><ele>99.33333333333334</ele><time>2026-05-04T10:16:48.79Z</time></trkpt><trkpt lat="52.72595" lon="-1.6087767"><ele>98.66666666666666</ele><time>2026-05-04T10:16:49.791Z</time></trkpt><trkpt lat="52.7258883" lon="-1.6084433"><ele>98.0</ele><time>2026-05-04T10:16:50.792Z</time></trkpt><trkpt lat="52.725825" lon="-1.6081083"><ele>98.33333333333333</ele><time>2026-05-04T10:16:51.792Z</time></trkpt><trkpt lat="52.7257617" lon="-1.6077733"><ele>98.66666666666666</ele><time>2026-05-04T10:16:52.792Z</time></trkpt><trkpt lat="52.7256983" lon="-1.6074383"><ele>99.0</ele><time>2026-05-04T10:16:53.792Z</time></trkpt><trkpt lat="52.725635" lon="-1.607105"><ele>99.0</ele><time>2026-05-04T10:16:54.792Z</time></trkpt><trkpt lat="52.7255783" lon="-1.6067733"><ele>99.0</ele><time>2026-05-04T10:16:55.791Z</time></trkpt><trkpt lat="52.7255183" lon="-1.6064333"><ele>99.0</ele><time>2026-05-04T10:16:56.79Z</time></trkpt><trkpt lat="52.7254567" lon="-1.60609"><ele>98.66666666666666</ele><time>2026-05-04T10:16:57.792Z</time></trkpt><trkpt lat="52.7253867" lon="-1.60575"><ele>98.33333333333333</ele><time>2026-05-04T10:16:58.791Z</time></trkpt><trkpt lat="52.7253083" lon="-1.605415"><ele>98.0</ele><time>2026-05-04T10:16:59.792Z</time></trkpt><trkpt lat="52.725235" lon="-1.6050867"><ele>97.33333333333333</ele><time>2026-05-04T10:17:00.792Z</time></trkpt><trkpt lat="52.7251617" lon="-1.604755"><ele>96.66666666666666</ele><time>2026-05-04T10:17:01.792Z</time></trkpt><trkpt lat="52.7250817" lon="-1.604425"><ele>96.0</ele><time>2026-05-04T10:17:02.79Z</time></trkpt><trkpt lat="52.7250083" lon="-1.6041083"><ele>94.66666666666667</ele><time>2026-05-04T10:17:03.792Z</time></trkpt><trkpt lat="52.7249467" lon="-1.603805"><ele>93.33333333333334</ele><time>2026-05-04T10:17:04.792Z</time></trkpt><trkpt lat="52.72488" lon="-1.603515"><ele>92.0</ele><time>2026-05-04T10:17:05.792Z</time></trkpt><trkpt lat="52.7248067" lon="-1.603245"><ele>91.66666666666667</ele><time>2026-05-04T10:17:06.795Z</time></trkpt><trkpt lat="52.72472" lon="-1.6029917"><ele>91.33333333333333</ele><time>2026-05-04T10:17:07.794Z</time></trkpt><trkpt lat="52.724615" lon="-1.602755"><ele>91.0</ele><time>2026-05-04T10:17:08.795Z</time></trkpt><trkpt lat="52.7245117" lon="-1.6025283"><ele>91.0</ele><time>2026-05-04T10:17:09.79Z</time></trkpt><trkpt lat="52.7244133" lon="-1.60229"><ele>91.0</ele><time>2026-05-04T10:17:10.792Z</time></trkpt><trkpt lat="52.724335" lon="-1.60204"><ele>91.0</ele><time>2026-05-04T10:17:11.792Z</time></trkpt><trkpt lat="52.7242817" lon="-1.60177"><ele>91.33333333333333</ele><time>2026-05-04T10:17:12.792Z</time></trkpt><trkpt lat="52.724235" lon="-1.60147"><ele>91.66666666666667</ele><time>2026-05-04T10:17:13.794Z</time></trkpt><trkpt lat="52.7241917" lon="-1.6011683"><ele>92.0</ele><time>2026-05-04T10:17:14.796Z</time></trkpt><trkpt lat="52.7241533" lon="-1.6008767"><ele>92.66666666666667</ele><time>2026-05-04T10:17:15.795Z</time></trkpt><trkpt lat="52.7241133" lon="-1.6005967"><ele>93.33333333333333</ele><time>2026-05-04T10:17:16.792Z</time></trkpt><trkpt lat="52.7240667" lon="-1.6003217"><ele>94.0</ele><time>2026-05-04T10:17:17.792Z</time></trkpt><trkpt lat="52.7240217" lon="-1.6000533"><ele>95.66666666666666</ele><time>2026-05-04T10:17:18.79Z</time></trkpt><trkpt lat="52.7239833" lon="-1.5997917"><ele>97.33333333333333</ele><time>2026-05-04T10:17:19.791Z</time></trkpt><trkpt lat="52.7239467" lon="-1.5995367"><ele>99.0</ele><time>2026-05-04T10:17:20.792Z</time></trkpt><trkpt lat="52.7239133" lon="-1.5992867"><ele>100.33333333333334</ele><time>2026-05-04T10:17:21.791Z</time></trkpt><trkpt lat="52.7238867" lon="-1.5990367"><ele>101.66666666666667</ele><time>2026-05-04T10:17:22.791Z</time></trkpt><trkpt lat="52.723865" lon="-1.5987867"><ele>103.0</ele><time>2026-05-04T10:17:23.791Z</time></trkpt><trkpt lat="52.72385" lon="-1.598535"><ele>103.0</ele><time>2026-05-04T10:17:24.791Z</time></trkpt><trkpt lat="52.7238367" lon="-1.59829"><ele>103.0</ele><time>2026-05-04T10:17:25.791Z</time></trkpt><trkpt lat="52.72383" lon="-1.5980417"><ele>103.0</ele><time>2026-05-04T10:17:26.791Z</time></trkpt><trkpt lat="52.72383" lon="-1.59778"><ele>103.0</ele><time>2026-05-04T10:17:27.79Z</time></trkpt><trkpt lat="52.7238383" lon="-1.597535"><ele>103.0</ele><time>2026-05-04T10:17:28.791Z</time></trkpt><trkpt lat="52.7238517" lon="-1.597295"><ele>103.0</ele><time>2026-05-04T10:17:29.792Z</time></trkpt><trkpt lat="52.7238667" lon="-1.59707"><ele>103.0</ele><time>2026-05-04T10:17:30.791Z</time></trkpt><trkpt lat="52.723885" lon="-1.59685"><ele>103.5</ele><time>2026-05-04T10:17:31.79Z</time></trkpt><trkpt lat="52.72391" lon="-1.5966383"><ele>104.0</ele><time>2026-05-04T10:17:32.79Z</time></trkpt><trkpt lat="52.723935" lon="-1.5964283"><ele>104.5</ele><time>2026-05-04T10:17:33.791Z</time></trkpt><trkpt lat="52.7239733" lon="-1.59622"><ele>105.0</ele><time>2026-05-04T10:17:34.791Z</time></trkpt><trkpt lat="52.724015" lon="-1.5960117"><ele>105.0</ele><time>2026-05-04T10:17:35.79Z</time></trkpt><trkpt lat="52.724065" lon="-1.5957983"><ele>105.0</ele><time>2026-05-04T10:17:36.79Z</time></trkpt><trkpt lat="52.724115" lon="-1.59559"><ele>105.0</ele><time>2026-05-04T10:17:37.792Z</time></trkpt><trkpt lat="52.7241717" lon="-1.5953883"><ele>105.0</ele><time>2026-05-04T10:17:38.796Z</time></trkpt><trkpt lat="52.7242317" lon="-1.5951933"><ele>104.5</ele><time>2026-05-04T10:17:39.795Z</time></trkpt><trkpt lat="52.7242883" lon="-1.594995"><ele>104.0</ele><time>2026-05-04T10:17:40.795Z</time></trkpt><trkpt lat="52.7243467" lon="-1.5948017"><ele>103.5</ele><time>2026-05-04T10:17:41.794Z</time></trkpt><trkpt lat="52.7244" lon="-1.5946167"><ele>103.0</ele><time>2026-05-04T10:17:42.795Z</time></trkpt><trkpt lat="52.7244533" lon="-1.5944467"><ele>103.83333333333334</ele><time>2026-05-04T10:17:43.791Z</time></trkpt><trkpt lat="52.724495" lon="-1.594295"><ele>104.66666666666667</ele><time>2026-05-04T10:17:44.792Z</time></trkpt><trkpt lat="52.724525" lon="-1.5941667"><ele>105.5</ele><time>2026-05-04T10:17:45.792Z</time></trkpt><trkpt lat="52.724545" lon="-1.594055"><ele>106.33333333333334</ele><time>2026-05-04T10:17:46.792Z</time></trkpt><trkpt lat="52.7245467" lon="-1.593945"><ele>107.16666666666667</ele><time>2026-05-04T10:17:47.791Z</time></trkpt><trkpt lat="52.7245267" lon="-1.5938233"><ele>108.0</ele><time>2026-05-04T10:17:48.792Z</time></trkpt><trkpt lat="52.7244983" lon="-1.593685"><ele>108.25</ele><time>2026-05-04T10:17:49.791Z</time></trkpt><trkpt lat="52.7244717" lon="-1.59351"><ele>108.5</ele><time>2026-05-04T10:17:50.791Z</time></trkpt><trkpt lat="52.724445" lon="-1.5933017"><ele>108.75</ele><time>2026-05-04T10:17:51.79Z</time></trkpt><trkpt lat="52.7244283" lon="-1.5930567"><ele>109.0</ele><time>2026-05-04T10:17:52.791Z</time></trkpt><trkpt lat="52.7243983" lon="-1.5927917"><ele>107.33333333333334</ele><time>2026-05-04T10:17:53.794Z</time></trkpt><trkpt lat="52.72438" lon="-1.5925067"><ele>105.66666666666666</ele><time>2026-05-04T10:17:54.795Z</time></trkpt><trkpt lat="52.72435" lon="-1.5921933"><ele>104.0</ele><time>2026-05-04T10:17:55.795Z</time></trkpt><trkpt lat="52.7243083" lon="-1.5918717"><ele>104.0</ele><time>2026-05-04T10:17:56.795Z</time></trkpt><trkpt lat="52.7242683" lon="-1.5915633"><ele>104.0</ele><time>2026-05-04T10:17:57.792Z</time></trkpt><trkpt lat="52.72423" lon="-1.5912717"><ele>104.0</ele><time>2026-05-04T10:17:58.794Z</time></trkpt><trkpt lat="52.7241917" lon="-1.5910017"><ele>104.66666666666666</ele><time>2026-05-04T10:17:59.795Z</time></trkpt><trkpt lat="52.7241583" lon="-1.5907467"><ele>105.33333333333334</ele><time>2026-05-04T10:18:00.794Z</time></trkpt><trkpt lat="52.7241317" lon="-1.5905017"><ele>106.0</ele><time>2026-05-04T10:18:01.796Z</time></trkpt><trkpt lat="52.72411" lon="-1.590265"><ele>106.33333333333334</ele><time>2026-05-04T10:18:02.794Z</time></trkpt><trkpt lat="52.7240883" lon="-1.5900283"><ele>106.66666666666666</ele><time>2026-05-04T10:18:03.794Z</time></trkpt><trkpt lat="52.7240633" lon="-1.5897817"><ele>107.0</ele><time>2026-05-04T10:18:04.795Z</time></trkpt><trkpt lat="52.7240283" lon="-1.58953"><ele>106.0</ele><time>2026-05-04T10:18:05.791Z</time></trkpt><trkpt lat="52.7239917" lon="-1.5892733"><ele>105.0</ele><time>2026-05-04T10:18:06.791Z</time></trkpt><trkpt lat="52.72395" lon="-1.5890017"><ele>104.0</ele><time>2026-05-04T10:18:07.791Z</time></trkpt><trkpt lat="52.723905" lon="-1.5887017"><ele>103.0</ele><time>2026-05-04T10:18:08.791Z</time></trkpt><trkpt lat="52.723855" lon="-1.5883783"><ele>102.0</ele><time>2026-05-04T10:18:09.791Z</time></trkpt><trkpt lat="52.7238117" lon="-1.5880483"><ele>101.0</ele><time>2026-05-04T10:18:10.791Z</time></trkpt><trkpt lat="52.7237683" lon="-1.5877167"><ele>100.66666666666666</ele><time>2026-05-04T10:18:11.79Z</time></trkpt><trkpt lat="52.7237233" lon="-1.5873817"><ele>100.33333333333334</ele><time>2026-05-04T10:18:12.791Z</time></trkpt><trkpt lat="52.7236817" lon="-1.5870567"><ele>100.0</ele><time>2026-05-04T10:18:13.791Z</time></trkpt><trkpt lat="52.7236417" lon="-1.5867367"><ele>99.66666666666667</ele><time>2026-05-04T10:18:14.79Z</time></trkpt><trkpt lat="52.7235933" lon="-1.5864117"><ele>99.33333333333334</ele><time>2026-05-04T10:18:15.791Z</time></trkpt><trkpt lat="52.72355" lon="-1.586085"><ele>99.0</ele><time>2026-05-04T10:18:16.792Z</time></trkpt><trkpt lat="52.72349" lon="-1.5857483"><ele>97.66666666666667</ele><time>2026-05-04T10:18:17.796Z</time></trkpt><trkpt lat="52.7234183" lon="-1.5854067"><ele>96.33333333333334</ele><time>2026-05-04T10:18:18.791Z</time></trkpt><trkpt lat="52.7233433" lon="-1.58506"><ele>95.0</ele><time>2026-05-04T10:18:19.791Z</time></trkpt><trkpt lat="52.7232733" lon="-1.5847233"><ele>93.66666666666667</ele><time>2026-05-04T10:18:20.796Z</time></trkpt><trkpt lat="52.7231817" lon="-1.584385"><ele>92.33333333333333</ele><time>2026-05-04T10:18:21.791Z</time></trkpt><trkpt lat="52.7230917" lon="-1.584065"><ele>91.0</ele><time>2026-05-04T10:18:22.79Z</time></trkpt><trkpt lat="52.723" lon="-1.58377"><ele>90.33333333333333</ele><time>2026-05-04T10:18:23.792Z</time></trkpt><trkpt lat="52.7228933" lon="-1.58349"><ele>89.66666666666667</ele><time>2026-05-04T10:18:24.79Z</time></trkpt><trkpt lat="52.7227783" lon="-1.5832017"><ele>89.0</ele><time>2026-05-04T10:18:25.795Z</time></trkpt><trkpt lat="52.7226967" lon="-1.5829"><ele>88.0</ele><time>2026-05-04T10:18:26.794Z</time></trkpt><trkpt lat="52.7226267" lon="-1.582585"><ele>87.0</ele><time>2026-05-04T10:18:27.79Z</time></trkpt><trkpt lat="52.72257" lon="-1.5822583"><ele>86.0</ele><time>2026-05-04T10:18:28.791Z</time></trkpt><trkpt lat="52.72252" lon="-1.581925"><ele>86.0</ele><time>2026-05-04T10:18:29.796Z</time></trkpt><trkpt lat="52.7224683" lon="-1.5815883"><ele>86.0</ele><time>2026-05-04T10:18:30.795Z</time></trkpt><trkpt lat="52.722415" lon="-1.5812517"><ele>86.0</ele><time>2026-05-04T10:18:31.796Z</time></trkpt><trkpt lat="52.7223617" lon="-1.5809383"><ele>86.0</ele><time>2026-05-04T10:18:32.794Z</time></trkpt><trkpt lat="52.7222967" lon="-1.5806617"><ele>86.0</ele><time>2026-05-04T10:18:33.795Z</time></trkpt><trkpt lat="52.7222233" lon="-1.5803967"><ele>86.0</ele><time>2026-05-04T10:18:34.795Z</time></trkpt><trkpt lat="52.7221267" lon="-1.5801233"><ele>85.66666666666667</ele><time>2026-05-04T10:18:35.796Z</time></trkpt><trkpt lat="52.7220117" lon="-1.57984"><ele>85.33333333333333</ele><time>2026-05-04T10:18:36.794Z</time></trkpt><trkpt lat="52.72189" lon="-1.5795433"><ele>85.0</ele><time>2026-05-04T10:18:37.795Z</time></trkpt><trkpt lat="52.7217733" lon="-1.5792467"><ele>85.0</ele><time>2026-05-04T10:18:38.794Z</time></trkpt><trkpt lat="52.7216533" lon="-1.5789517"><ele>85.0</ele><time>2026-05-04T10:18:39.794Z</time></trkpt><trkpt lat="52.721535" lon="-1.57866"><ele>85.0</ele><time>2026-05-04T10:18:40.795Z</time></trkpt><trkpt lat="52.72142" lon="-1.5783817"><ele>84.66666666666666</ele><time>2026-05-04T10:18:41.795Z</time></trkpt><trkpt lat="52.7213033" lon="-1.5781133"><ele>84.33333333333333</ele><time>2026-05-04T10:18:42.791Z</time></trkpt><trkpt lat="52.721195" lon="-1.57787"><ele>84.0</ele><time>2026-05-04T10:18:43.795Z</time></trkpt><trkpt lat="52.721105" lon="-1.577665"><ele>83.83333333333333</ele><time>2026-05-04T10:18:44.795Z</time></trkpt><trkpt lat="52.7210417" lon="-1.5775017"><ele>83.66666666666667</ele><time>2026-05-04T10:18:45.79Z</time></trkpt><trkpt lat="52.721015" lon="-1.5773933"><ele>83.5</ele><time>2026-05-04T10:18:46.796Z</time></trkpt><trkpt lat="52.7210117" lon="-1.577265"><ele>83.33333333333334</ele><time>2026-05-04T10:18:48.795Z</time></trkpt><trkpt lat="52.721005" lon="-1.5771433"><ele>83.16666666666667</ele><time>2026-05-04T10:19:01.796Z</time></trkpt><trkpt lat="52.7209483" lon="-1.5770833"><ele>83.0</ele><time>2026-05-04T10:19:02.792Z</time></trkpt><trkpt lat="52.7208667" lon="-1.5770217"><ele>82.5</ele><time>2026-05-04T10:19:03.795Z</time></trkpt><trkpt lat="52.72077" lon="-1.5769583"><ele>82.0</ele><time>2026-05-04T10:19:04.791Z</time></trkpt><trkpt lat="52.72066" lon="-1.5768867"><ele>81.5</ele><time>2026-05-04T10:19:05.794Z</time></trkpt><trkpt lat="52.7205483" lon="-1.576825"><ele>81.0</ele><time>2026-05-04T10:19:06.794Z</time></trkpt><trkpt lat="52.7204283" lon="-1.5767767"><ele>81.0</ele><time>2026-05-04T10:19:07.795Z</time></trkpt><trkpt lat="52.7203167" lon="-1.576745"><ele>81.0</ele><time>2026-05-04T10:19:08.794Z</time></trkpt><trkpt lat="52.7202083" lon="-1.5767167"><ele>81.0</ele><time>2026-05-04T10:19:09.794Z</time></trkpt><trkpt lat="52.72011" lon="-1.5766717"><ele>81.0</ele><time>2026-05-04T10:19:10.795Z</time></trkpt><trkpt lat="52.7200267" lon="-1.576595"><ele>81.0</ele><time>2026-05-04T10:19:11.794Z</time></trkpt><trkpt lat="52.719955" lon="-1.5764733"><ele>81.0</ele><time>2026-05-04T10:19:12.794Z</time></trkpt><trkpt lat="52.7199083" lon="-1.5763067"><ele>81.0</ele><time>2026-05-04T10:19:13.796Z</time></trkpt><trkpt lat="52.719875" lon="-1.5760967"><ele>81.0</ele><time>2026-05-04T10:19:14.795Z</time></trkpt><trkpt lat="52.7198433" lon="-1.5758517"><ele>81.0</ele><time>2026-05-04T10:19:15.794Z</time></trkpt><trkpt lat="52.719815" lon="-1.5755733"><ele>81.33333333333333</ele><time>2026-05-04T10:19:16.794Z</time></trkpt><trkpt lat="52.7197783" lon="-1.5752867"><ele>81.66666666666666</ele><time>2026-05-04T10:19:17.794Z</time></trkpt><trkpt lat="52.7197367" lon="-1.5750067"><ele>82.0</ele><time>2026-05-04T10:19:18.796Z</time></trkpt><trkpt lat="52.7196967" lon="-1.5747317"><ele>83.0</ele><time>2026-05-04T10:19:19.794Z</time></trkpt><trkpt lat="52.7196583" lon="-1.5744583"><ele>84.0</ele><time>2026-05-04T10:19:20.794Z</time></trkpt><trkpt lat="52.71963" lon="-1.5741833"><ele>85.0</ele><time>2026-05-04T10:19:21.795Z</time></trkpt><trkpt lat="52.71961" lon="-1.5739117"><ele>85.66666666666666</ele><time>2026-05-04T10:19:22.795Z</time></trkpt><trkpt lat="52.7195967" lon="-1.57365"><ele>86.33333333333333</ele><time>2026-05-04T10:19:23.791Z</time></trkpt><trkpt lat="52.7195917" lon="-1.573395"><ele>87.0</ele><time>2026-05-04T10:19:24.792Z</time></trkpt><trkpt lat="52.7195917" lon="-1.573145"><ele>87.0</ele><time>2026-05-04T10:19:25.796Z</time></trkpt><trkpt lat="52.719595" lon="-1.5729067"><ele>87.0</ele><time>2026-05-04T10:19:26.795Z</time></trkpt><trkpt lat="52.7195967" lon="-1.5726783"><ele>87.0</ele><time>2026-05-04T10:19:27.795Z</time></trkpt><trkpt lat="52.7195917" lon="-1.57247"><ele>87.0</ele><time>2026-05-04T10:19:28.795Z</time></trkpt><trkpt lat="52.7195783" lon="-1.57226"><ele>87.0</ele><time>2026-05-04T10:19:29.793Z</time></trkpt><trkpt lat="52.71955" lon="-1.5720267"><ele>87.0</ele><time>2026-05-04T10:19:30.794Z</time></trkpt><trkpt lat="52.7194983" lon="-1.5717717"><ele>87.0</ele><time>2026-05-04T10:19:31.795Z</time></trkpt><trkpt lat="52.7194267" lon="-1.5714983"><ele>86.33333333333333</ele><time>2026-05-04T10:19:32.795Z</time></trkpt><trkpt lat="52.7193417" lon="-1.5712033"><ele>85.66666666666666</ele><time>2026-05-04T10:19:33.794Z</time></trkpt><trkpt lat="52.71925" lon="-1.5708933"><ele>85.0</ele><time>2026-05-04T10:19:34.794Z</time></trkpt><trkpt lat="52.7191533" lon="-1.5705717"><ele>85.0</ele><time>2026-05-04T10:19:35.794Z</time></trkpt><trkpt lat="52.7190583" lon="-1.5702483"><ele>85.0</ele><time>2026-05-04T10:19:36.794Z</time></trkpt><trkpt lat="52.71896" lon="-1.56992"><ele>85.0</ele><time>2026-05-04T10:19:37.796Z</time></trkpt><trkpt lat="52.71886" lon="-1.5695867"><ele>85.0</ele><time>2026-05-04T10:19:38.795Z</time></trkpt><trkpt lat="52.7187617" lon="-1.5692517"><ele>85.0</ele><time>2026-05-04T10:19:39.793Z</time></trkpt><trkpt lat="52.718665" lon="-1.56892"><ele>85.0</ele><time>2026-05-04T10:19:40.795Z</time></trkpt><trkpt lat="52.7185683" lon="-1.56859"><ele>84.33333333333333</ele><time>2026-05-04T10:19:41.795Z</time></trkpt><trkpt lat="52.7184733" lon="-1.5682567"><ele>83.66666666666667</ele><time>2026-05-04T10:19:42.795Z</time></trkpt><trkpt lat="52.7183733" lon="-1.5679267"><ele>83.0</ele><time>2026-05-04T10:19:43.795Z</time></trkpt><trkpt lat="52.7182683" lon="-1.5676"><ele>83.0</ele><time>2026-05-04T10:19:44.794Z</time></trkpt><trkpt lat="52.718165" lon="-1.56728"><ele>83.0</ele><time>2026-05-04T10:19:45.795Z</time></trkpt><trkpt lat="52.7180683" lon="-1.56696"><ele>83.0</ele><time>2026-05-04T10:19:46.795Z</time></trkpt><trkpt lat="52.717975" lon="-1.5666433"><ele>83.33333333333334</ele><time>2026-05-04T10:19:47.796Z</time></trkpt><trkpt lat="52.7178867" lon="-1.5663317"><ele>83.66666666666667</ele><time>2026-05-04T10:19:48.791Z</time></trkpt><trkpt lat="52.7178" lon="-1.56602"><ele>84.0</ele><time>2026-05-04T10:19:49.795Z</time></trkpt><trkpt lat="52.7177133" lon="-1.56571"><ele>84.0</ele><time>2026-05-04T10:19:50.794Z</time></trkpt><trkpt lat="52.7176183" lon="-1.5654"><ele>84.0</ele><time>2026-05-04T10:19:51.795Z</time></trkpt><trkpt lat="52.7175083" lon="-1.5650983"><ele>84.0</ele><time>2026-05-04T10:19:52.796Z</time></trkpt><trkpt lat="52.71739" lon="-1.5648"><ele>83.66666666666667</ele><time>2026-05-04T10:19:53.794Z</time></trkpt><trkpt lat="52.71727" lon="-1.5644967"><ele>83.33333333333334</ele><time>2026-05-04T10:19:54.794Z</time></trkpt><trkpt lat="52.7171533" lon="-1.56419"><ele>83.0</ele><time>2026-05-04T10:19:55.79Z</time></trkpt><trkpt lat="52.717035" lon="-1.563885"><ele>83.0</ele><time>2026-05-04T10:19:56.795Z</time></trkpt><trkpt lat="52.71692" lon="-1.563575"><ele>83.0</ele><time>2026-05-04T10:19:57.795Z</time></trkpt><trkpt lat="52.7168067" lon="-1.56328"><ele>83.0</ele><time>2026-05-04T10:19:58.795Z</time></trkpt><trkpt lat="52.7167067" lon="-1.563005"><ele>83.66666666666667</ele><time>2026-05-04T10:19:59.794Z</time></trkpt><trkpt lat="52.71662" lon="-1.562745"><ele>84.33333333333333</ele><time>2026-05-04T10:20:00.791Z</time></trkpt><trkpt lat="52.7165467" lon="-1.5625167"><ele>85.0</ele><time>2026-05-04T10:20:01.791Z</time></trkpt><trkpt lat="52.7164817" lon="-1.5623167"><ele>85.0</ele><time>2026-05-04T10:20:02.794Z</time></trkpt><trkpt lat="52.716425" lon="-1.562145"><ele>85.0</ele><time>2026-05-04T10:20:03.79Z</time></trkpt><trkpt lat="52.7163883" lon="-1.56201"><ele>85.0</ele><time>2026-05-04T10:20:04.791Z</time></trkpt><trkpt lat="52.71636" lon="-1.5618917"><ele>85.0</ele><time>2026-05-04T10:20:05.794Z</time></trkpt><trkpt lat="52.71633" lon="-1.5617767"><ele>85.0</ele><time>2026-05-04T10:20:06.792Z</time></trkpt><trkpt lat="52.7163017" lon="-1.5616767"><ele>85.0</ele><time>2026-05-04T10:20:07.791Z</time></trkpt><trkpt lat="52.7162617" lon="-1.56155"><ele>84.5</ele><time>2026-05-04T10:20:09.791Z</time></trkpt><trkpt lat="52.7162433" lon="-1.5613967"><ele>84.0</ele><time>2026-05-04T10:20:14.791Z</time></trkpt><trkpt lat="52.7161767" lon="-1.56119"><ele>83.5</ele><time>2026-05-04T10:20:16.79Z</time></trkpt><trkpt lat="52.7161083" lon="-1.5610633"><ele>83.0</ele><time>2026-05-04T10:20:17.791Z</time></trkpt><trkpt lat="52.71603" lon="-1.5609217"><ele>83.0</ele><time>2026-05-04T10:20:18.794Z</time></trkpt><trkpt lat="52.715915" lon="-1.5607417"><ele>83.0</ele><time>2026-05-04T10:20:19.791Z</time></trkpt><trkpt lat="52.7158033" lon="-1.5605517"><ele>83.0</ele><time>2026-05-04T10:20:20.791Z</time></trkpt><trkpt lat="52.7156867" lon="-1.560355"><ele>82.66666666666667</ele><time>2026-05-04T10:20:21.79Z</time></trkpt><trkpt lat="52.7155783" lon="-1.560145"><ele>82.33333333333333</ele><time>2026-05-04T10:20:22.791Z</time></trkpt><trkpt lat="52.715475" lon="-1.5599367"><ele>82.0</ele><time>2026-05-04T10:20:23.79Z</time></trkpt><trkpt lat="52.7153883" lon="-1.5597233"><ele>82.0</ele><time>2026-05-04T10:20:24.79Z</time></trkpt><trkpt lat="52.7153233" lon="-1.559525"><ele>82.0</ele><time>2026-05-04T10:20:25.791Z</time></trkpt><trkpt lat="52.715265" lon="-1.5593433"><ele>82.0</ele><time>2026-05-04T10:20:26.791Z</time></trkpt><trkpt lat="52.7152117" lon="-1.5591567"><ele>82.0</ele><time>2026-05-04T10:20:27.794Z</time></trkpt><trkpt lat="52.71515" lon="-1.55897"><ele>81.0</ele><time>2026-05-04T10:20:28.796Z</time></trkpt><trkpt lat="52.715065" lon="-1.5587983"><ele>80.0</ele><time>2026-05-04T10:20:29.796Z</time></trkpt><trkpt lat="52.7149667" lon="-1.55865"><ele>79.0</ele><time>2026-05-04T10:20:30.795Z</time></trkpt><trkpt lat="52.7148617" lon="-1.5585083"><ele>78.0</ele><time>2026-05-04T10:20:31.795Z</time></trkpt><trkpt lat="52.7147567" lon="-1.5583717"><ele>78.0</ele><time>2026-05-04T10:20:32.79Z</time></trkpt><trkpt lat="52.7146517" lon="-1.558235"><ele>78.0</ele><time>2026-05-04T10:20:33.791Z</time></trkpt><trkpt lat="52.7145467" lon="-1.5580983"><ele>78.0</ele><time>2026-05-04T10:20:34.791Z</time></trkpt><trkpt lat="52.7144467" lon="-1.5579617"><ele>78.0</ele><time>2026-05-04T10:20:35.794Z</time></trkpt><trkpt lat="52.714345" lon="-1.5578283"><ele>78.5</ele><time>2026-05-04T10:20:36.795Z</time></trkpt><trkpt lat="52.7142433" lon="-1.5576967"><ele>79.0</ele><time>2026-05-04T10:20:37.794Z</time></trkpt><trkpt lat="52.7141467" lon="-1.5575667"><ele>79.5</ele><time>2026-05-04T10:20:38.794Z</time></trkpt><trkpt lat="52.7140567" lon="-1.55744"><ele>80.0</ele><time>2026-05-04T10:20:39.795Z</time></trkpt><trkpt lat="52.7139683" lon="-1.5573067"><ele>80.0</ele><time>2026-05-04T10:20:40.798Z</time></trkpt><trkpt lat="52.7138833" lon="-1.55717"><ele>80.0</ele><time>2026-05-04T10:20:41.795Z</time></trkpt><trkpt lat="52.7137967" lon="-1.55703"><ele>80.0</ele><time>2026-05-04T10:20:42.795Z</time></trkpt><trkpt lat="52.71371" lon="-1.556885"><ele>80.0</ele><time>2026-05-04T10:20:43.791Z</time></trkpt><trkpt lat="52.71362" lon="-1.5567417"><ele>79.75</ele><time>2026-05-04T10:20:44.795Z</time></trkpt><trkpt lat="52.7135283" lon="-1.5565967"><ele>79.5</ele><time>2026-05-04T10:20:45.794Z</time></trkpt><trkpt lat="52.7134317" lon="-1.5564567"><ele>79.25</ele><time>2026-05-04T10:20:46.794Z</time></trkpt><trkpt lat="52.7133283" lon="-1.55633"><ele>79.0</ele><time>2026-05-04T10:20:47.79Z</time></trkpt><trkpt lat="52.7132117" lon="-1.55621"><ele>79.0</ele><time>2026-05-04T10:20:48.791Z</time></trkpt><trkpt lat="52.71309" lon="-1.5561"><ele>79.0</ele><time>2026-05-04T10:20:49.794Z</time></trkpt><trkpt lat="52.7129617" lon="-1.5560033"><ele>79.0</ele><time>2026-05-04T10:20:50.795Z</time></trkpt><trkpt lat="52.7128283" lon="-1.5559117"><ele>79.0</ele><time>2026-05-04T10:20:51.793Z</time></trkpt><trkpt lat="52.7126917" lon="-1.5558217"><ele>79.0</ele><time>2026-05-04T10:20:52.792Z</time></trkpt><trkpt lat="52.712555" lon="-1.5557333"><ele>79.0</ele><time>2026-05-04T10:20:53.795Z</time></trkpt><trkpt lat="52.7124167" lon="-1.5556483"><ele>79.0</ele><time>2026-05-04T10:20:54.794Z</time></trkpt><trkpt lat="52.71228" lon="-1.5555717"><ele>79.0</ele><time>2026-05-04T10:20:55.795Z</time></trkpt><trkpt lat="52.71214" lon="-1.55551"><ele>79.0</ele><time>2026-05-04T10:20:56.793Z</time></trkpt><trkpt lat="52.7119967" lon="-1.5554683"><ele>79.0</ele><time>2026-05-04T10:20:57.793Z</time></trkpt><trkpt lat="52.71185" lon="-1.5554533"><ele>79.0</ele><time>2026-05-04T10:20:58.795Z</time></trkpt><trkpt lat="52.7117017" lon="-1.5554633"><ele>79.0</ele><time>2026-05-04T10:20:59.795Z</time></trkpt><trkpt lat="52.7115517" lon="-1.555485"><ele>78.33333333333333</ele><time>2026-05-04T10:21:00.795Z</time></trkpt><trkpt lat="52.7114033" lon="-1.5555067"><ele>77.66666666666667</ele><time>2026-05-04T10:21:01.791Z</time></trkpt><trkpt lat="52.7112533" lon="-1.5555317"><ele>77.0</ele><time>2026-05-04T10:21:02.794Z</time></trkpt><trkpt lat="52.7111033" lon="-1.5555617"><ele>77.66666666666667</ele><time>2026-05-04T10:21:03.795Z</time></trkpt><trkpt lat="52.7109483" lon="-1.55559"><ele>78.33333333333333</ele><time>2026-05-04T10:21:04.791Z</time></trkpt><trkpt lat="52.7107967" lon="-1.5556233"><ele>79.0</ele><time>2026-05-04T10:21:05.795Z</time></trkpt><trkpt lat="52.71064" lon="-1.5556617"><ele>79.0</ele><time>2026-05-04T10:21:06.794Z</time></trkpt><trkpt lat="52.7104733" lon="-1.5557083"><ele>79.0</ele><time>2026-05-04T10:21:07.795Z</time></trkpt><trkpt lat="52.71029" lon="-1.5557567"><ele>79.0</ele><time>2026-05-04T10:21:08.794Z</time></trkpt><trkpt lat="52.7101" lon="-1.5558083"><ele>78.33333333333333</ele><time>2026-05-04T10:21:09.793Z</time></trkpt><trkpt lat="52.709905" lon="-1.5558567"><ele>77.66666666666667</ele><time>2026-05-04T10:21:10.794Z</time></trkpt><trkpt lat="52.7097067" lon="-1.555905"><ele>77.0</ele><time>2026-05-04T10:21:11.794Z</time></trkpt><trkpt lat="52.7095117" lon="-1.5559517"><ele>75.66666666666667</ele><time>2026-05-04T10:21:12.795Z</time></trkpt><trkpt lat="52.7093167" lon="-1.5559967"><ele>74.33333333333333</ele><time>2026-05-04T10:21:13.794Z</time></trkpt><trkpt lat="52.7091233" lon="-1.5560417"><ele>73.0</ele><time>2026-05-04T10:21:14.794Z</time></trkpt><trkpt lat="52.7089283" lon="-1.5560817"><ele>73.0</ele><time>2026-05-04T10:21:15.793Z</time></trkpt><trkpt lat="52.70873" lon="-1.5561083"><ele>73.0</ele><time>2026-05-04T10:21:16.793Z</time></trkpt><trkpt lat="52.708535" lon="-1.5561233"><ele>73.0</ele><time>2026-05-04T10:21:17.794Z</time></trkpt><trkpt lat="52.70834" lon="-1.5561267"><ele>73.0</ele><time>2026-05-04T10:21:18.794Z</time></trkpt><trkpt lat="52.708145" lon="-1.5561167"><ele>73.0</ele><time>2026-05-04T10:21:19.794Z</time></trkpt><trkpt lat="52.7079483" lon="-1.556095"><ele>73.0</ele><time>2026-05-04T10:21:20.791Z</time></trkpt><trkpt lat="52.707755" lon="-1.5560717"><ele>74.0</ele><time>2026-05-04T10:21:21.791Z</time></trkpt><trkpt lat="52.7075633" lon="-1.55604"><ele>75.0</ele><time>2026-05-04T10:21:22.791Z</time></trkpt><trkpt lat="52.7073683" lon="-1.5560017"><ele>76.0</ele><time>2026-05-04T10:21:23.791Z</time></trkpt><trkpt lat="52.7071733" lon="-1.5559533"><ele>76.0</ele><time>2026-05-04T10:21:24.79Z</time></trkpt><trkpt lat="52.7069883" lon="-1.5558883"><ele>76.0</ele><time>2026-05-04T10:21:25.791Z</time></trkpt><trkpt lat="52.7068117" lon="-1.5558117"><ele>76.0</ele><time>2026-05-04T10:21:26.792Z</time></trkpt><trkpt lat="52.70664" lon="-1.5557333"><ele>76.0</ele><time>2026-05-04T10:21:27.79Z</time></trkpt><trkpt lat="52.7064717" lon="-1.55565"><ele>76.0</ele><time>2026-05-04T10:21:28.79Z</time></trkpt><trkpt lat="52.7063067" lon="-1.55557"><ele>76.0</ele><time>2026-05-04T10:21:29.791Z</time></trkpt><trkpt lat="52.7061367" lon="-1.555485"><ele>77.0</ele><time>2026-05-04T10:21:30.79Z</time></trkpt><trkpt lat="52.7059683" lon="-1.555395"><ele>78.0</ele><time>2026-05-04T10:21:31.791Z</time></trkpt><trkpt lat="52.7058033" lon="-1.555305"><ele>79.0</ele><time>2026-05-04T10:21:32.792Z</time></trkpt><trkpt lat="52.7056433" lon="-1.5552183"><ele>79.0</ele><time>2026-05-04T10:21:33.791Z</time></trkpt><trkpt lat="52.705485" lon="-1.5551333"><ele>79.0</ele><time>2026-05-04T10:21:34.791Z</time></trkpt><trkpt lat="52.70533" lon="-1.5550567"><ele>79.0</ele><time>2026-05-04T10:21:35.792Z</time></trkpt><trkpt lat="52.7051717" lon="-1.5549783"><ele>80.33333333333333</ele><time>2026-05-04T10:21:36.796Z</time></trkpt><trkpt lat="52.7050133" lon="-1.554905"><ele>81.66666666666667</ele><time>2026-05-04T10:21:37.795Z</time></trkpt><trkpt lat="52.70485" lon="-1.5548433"><ele>83.0</ele><time>2026-05-04T10:21:38.791Z</time></trkpt><trkpt lat="52.704685" lon="-1.5547917"><ele>83.0</ele><time>2026-05-04T10:21:39.795Z</time></trkpt><trkpt lat="52.704515" lon="-1.5547533"><ele>83.0</ele><time>2026-05-04T10:21:40.791Z</time></trkpt><trkpt lat="52.704345" lon="-1.5547233"><ele>83.0</ele><time>2026-05-04T10:21:41.79Z</time></trkpt><trkpt lat="52.7041783" lon="-1.5547017"><ele>85.33333333333334</ele><time>2026-05-04T10:21:42.791Z</time></trkpt><trkpt lat="52.7040083" lon="-1.5547017"><ele>87.66666666666667</ele><time>2026-05-04T10:21:43.791Z</time></trkpt><trkpt lat="52.7038383" lon="-1.5547"><ele>90.0</ele><time>2026-05-04T10:21:44.79Z</time></trkpt><trkpt lat="52.7036683" lon="-1.55472"><ele>91.0</ele><time>2026-05-04T10:21:45.79Z</time></trkpt><trkpt lat="52.7035083" lon="-1.5547633"><ele>92.0</ele><time>2026-05-04T10:21:46.791Z</time></trkpt><trkpt lat="52.7033483" lon="-1.5548167"><ele>93.0</ele><time>2026-05-04T10:21:47.791Z</time></trkpt><trkpt lat="52.7031933" lon="-1.55487"><ele>93.0</ele><time>2026-05-04T10:21:48.79Z</time></trkpt><trkpt lat="52.7030433" lon="-1.5549233"><ele>93.0</ele><time>2026-05-04T10:21:49.791Z</time></trkpt><trkpt lat="52.7029033" lon="-1.55496"><ele>93.0</ele><time>2026-05-04T10:21:50.791Z</time></trkpt><trkpt lat="52.70276" lon="-1.5549667"><ele>93.0</ele><time>2026-05-04T10:21:51.791Z</time></trkpt><trkpt lat="52.7026133" lon="-1.55493"><ele>92.66666666666667</ele><time>2026-05-04T10:21:52.79Z</time></trkpt><trkpt lat="52.7024583" lon="-1.554865"><ele>92.33333333333334</ele><time>2026-05-04T10:21:53.79Z</time></trkpt><trkpt lat="52.7022917" lon="-1.5547917"><ele>92.0</ele><time>2026-05-04T10:21:54.79Z</time></trkpt><trkpt lat="52.702115" lon="-1.55472"><ele>92.0</ele><time>2026-05-04T10:21:55.791Z</time></trkpt><trkpt lat="52.7019383" lon="-1.5546617"><ele>92.0</ele><time>2026-05-04T10:21:56.795Z</time></trkpt><trkpt lat="52.7017567" lon="-1.5546317"><ele>92.0</ele><time>2026-05-04T10:21:57.791Z</time></trkpt><trkpt lat="52.701575" lon="-1.5546133"><ele>91.33333333333334</ele><time>2026-05-04T10:21:58.791Z</time></trkpt><trkpt lat="52.7013983" lon="-1.5546083"><ele>90.66666666666667</ele><time>2026-05-04T10:21:59.791Z</time></trkpt><trkpt lat="52.7012233" lon="-1.554615"><ele>90.0</ele><time>2026-05-04T10:22:00.791Z</time></trkpt><trkpt lat="52.70105" lon="-1.5546333"><ele>88.66666666666667</ele><time>2026-05-04T10:22:01.79Z</time></trkpt><trkpt lat="52.7008783" lon="-1.5546633"><ele>87.33333333333334</ele><time>2026-05-04T10:22:02.79Z</time></trkpt><trkpt lat="52.7007067" lon="-1.5546983"><ele>86.0</ele><time>2026-05-04T10:22:03.791Z</time></trkpt><trkpt lat="52.7005383" lon="-1.5547417"><ele>86.0</ele><time>2026-05-04T10:22:04.791Z</time></trkpt><trkpt lat="52.7003683" lon="-1.55479"><ele>86.0</ele><time>2026-05-04T10:22:05.791Z</time></trkpt><trkpt lat="52.7002" lon="-1.5548417"><ele>86.0</ele><time>2026-05-04T10:22:06.79Z</time></trkpt><trkpt lat="52.70003" lon="-1.55491"><ele>87.0</ele><time>2026-05-04T10:22:07.79Z</time></trkpt><trkpt lat="52.69986" lon="-1.5549817"><ele>88.0</ele><time>2026-05-04T10:22:08.791Z</time></trkpt><trkpt lat="52.699695" lon="-1.5550467"><ele>89.0</ele><time>2026-05-04T10:22:09.791Z</time></trkpt><trkpt lat="52.699525" lon="-1.5551033"><ele>90.0</ele><time>2026-05-04T10:22:10.791Z</time></trkpt><trkpt lat="52.699355" lon="-1.5551583"><ele>91.0</ele><time>2026-05-04T10:22:11.791Z</time></trkpt><trkpt lat="52.6991833" lon="-1.5552033"><ele>92.0</ele><time>2026-05-04T10:22:12.79Z</time></trkpt><trkpt lat="52.6990167" lon="-1.5552383"><ele>92.0</ele><time>2026-05-04T10:22:13.792Z</time></trkpt><trkpt lat="52.698845" lon="-1.5552567"><ele>92.0</ele><time>2026-05-04T10:22:14.79Z</time></trkpt><trkpt lat="52.6986717" lon="-1.5552583"><ele>92.0</ele><time>2026-05-04T10:22:15.79Z</time></trkpt><trkpt lat="52.6985" lon="-1.5552383"><ele>92.66666666666667</ele><time>2026-05-04T10:22:16.79Z</time></trkpt><trkpt lat="52.6983317" lon="-1.5551767"><ele>93.33333333333333</ele><time>2026-05-04T10:22:17.796Z</time></trkpt><trkpt lat="52.6981667" lon="-1.55507"><ele>94.0</ele><time>2026-05-04T10:22:18.793Z</time></trkpt><trkpt lat="52.6980083" lon="-1.5549383"><ele>94.0</ele><time>2026-05-04T10:22:19.795Z</time></trkpt><trkpt lat="52.697855" lon="-1.5547867"><ele>94.0</ele><time>2026-05-04T10:22:20.791Z</time></trkpt><trkpt lat="52.6977017" lon="-1.55464"><ele>94.0</ele><time>2026-05-04T10:22:21.796Z</time></trkpt><trkpt lat="52.697545" lon="-1.5545017"><ele>91.33333333333333</ele><time>2026-05-04T10:22:22.79Z</time></trkpt><trkpt lat="52.697385" lon="-1.55437"><ele>88.66666666666667</ele><time>2026-05-04T10:22:23.795Z</time></trkpt><trkpt lat="52.6972217" lon="-1.5542433"><ele>86.0</ele><time>2026-05-04T10:22:24.791Z</time></trkpt><trkpt lat="52.6970567" lon="-1.5541133"><ele>86.0</ele><time>2026-05-04T10:22:25.79Z</time></trkpt><trkpt lat="52.6968883" lon="-1.5539917"><ele>86.0</ele><time>2026-05-04T10:22:26.791Z</time></trkpt><trkpt lat="52.69672" lon="-1.5538733"><ele>86.0</ele><time>2026-05-04T10:22:27.791Z</time></trkpt><trkpt lat="52.6965483" lon="-1.5537533"><ele>87.0</ele><time>2026-05-04T10:22:28.792Z</time></trkpt><trkpt lat="52.696375" lon="-1.5536383"><ele>88.0</ele><time>2026-05-04T10:22:29.791Z</time></trkpt><trkpt lat="52.6962017" lon="-1.5535217"><ele>89.0</ele><time>2026-05-04T10:22:30.79Z</time></trkpt><trkpt lat="52.6960333" lon="-1.553405"><ele>89.0</ele><time>2026-05-04T10:22:31.791Z</time></trkpt><trkpt lat="52.6958617" lon="-1.553295"><ele>89.0</ele><time>2026-05-04T10:22:32.79Z</time></trkpt><trkpt lat="52.69569" lon="-1.55318"><ele>89.0</ele><time>2026-05-04T10:22:33.79Z</time></trkpt><trkpt lat="52.6955167" lon="-1.553065"><ele>89.0</ele><time>2026-05-04T10:22:34.79Z</time></trkpt><trkpt lat="52.6953483" lon="-1.5529433"><ele>89.0</ele><time>2026-05-04T10:22:35.792Z</time></trkpt><trkpt lat="52.6951817" lon="-1.55282"><ele>89.0</ele><time>2026-05-04T10:22:36.794Z</time></trkpt><trkpt lat="52.6950117" lon="-1.5526933"><ele>89.0</ele><time>2026-05-04T10:22:37.794Z</time></trkpt><trkpt lat="52.69484" lon="-1.5525733"><ele>89.0</ele><time>2026-05-04T10:22:38.79Z</time></trkpt><trkpt lat="52.6946667" lon="-1.5524567"><ele>89.0</ele><time>2026-05-04T10:22:39.795Z</time></trkpt><trkpt lat="52.6944933" lon="-1.5523433"><ele>89.0</ele><time>2026-05-04T10:22:40.795Z</time></trkpt><trkpt lat="52.6943217" lon="-1.5522333"><ele>89.0</ele><time>2026-05-04T10:22:41.795Z</time></trkpt><trkpt lat="52.6941517" lon="-1.5521233"><ele>89.0</ele><time>2026-05-04T10:22:42.795Z</time></trkpt><trkpt lat="52.6939817" lon="-1.552015"><ele>89.33333333333334</ele><time>2026-05-04T10:22:43.793Z</time></trkpt><trkpt lat="52.6938083" lon="-1.5519067"><ele>89.66666666666667</ele><time>2026-05-04T10:22:44.795Z</time></trkpt><trkpt lat="52.6936333" lon="-1.5517983"><ele>90.0</ele><time>2026-05-04T10:22:45.795Z</time></trkpt><trkpt lat="52.6934583" lon="-1.55169"><ele>90.33333333333333</ele><time>2026-05-04T10:22:46.796Z</time></trkpt><trkpt lat="52.6932833" lon="-1.5515817"><ele>90.66666666666666</ele><time>2026-05-04T10:22:47.791Z</time></trkpt><trkpt lat="52.6931083" lon="-1.5514833"><ele>91.0</ele><time>2026-05-04T10:22:48.795Z</time></trkpt><trkpt lat="52.6929317" lon="-1.5513917"><ele>91.66666666666666</ele><time>2026-05-04T10:22:49.797Z</time></trkpt><trkpt lat="52.6927517" lon="-1.5513083"><ele>92.33333333333333</ele><time>2026-05-04T10:22:50.794Z</time></trkpt><trkpt lat="52.6925717" lon="-1.5512317"><ele>93.0</ele><time>2026-05-04T10:22:51.795Z</time></trkpt><trkpt lat="52.69239" lon="-1.5511683"><ele>93.0</ele><time>2026-05-04T10:22:52.796Z</time></trkpt><trkpt lat="52.6922067" lon="-1.55111"><ele>93.0</ele><time>2026-05-04T10:22:53.795Z</time></trkpt><trkpt lat="52.6920233" lon="-1.5510583"><ele>93.0</ele><time>2026-05-04T10:22:54.795Z</time></trkpt><trkpt lat="52.6918417" lon="-1.5510083"><ele>94.33333333333334</ele><time>2026-05-04T10:22:55.793Z</time></trkpt><trkpt lat="52.6916567" lon="-1.550955"><ele>95.66666666666667</ele><time>2026-05-04T10:22:56.792Z</time></trkpt><trkpt lat="52.6914767" lon="-1.5508917"><ele>97.0</ele><time>2026-05-04T10:22:57.792Z</time></trkpt><trkpt lat="52.6913017" lon="-1.5508217"><ele>97.0</ele><time>2026-05-04T10:22:58.792Z</time></trkpt><trkpt lat="52.6911267" lon="-1.550745"><ele>97.0</ele><time>2026-05-04T10:22:59.791Z</time></trkpt><trkpt lat="52.69095" lon="-1.550665"><ele>97.0</ele><time>2026-05-04T10:23:00.792Z</time></trkpt><trkpt lat="52.6907733" lon="-1.550575"><ele>98.33333333333334</ele><time>2026-05-04T10:23:01.796Z</time></trkpt><trkpt lat="52.6905967" lon="-1.5504717"><ele>99.66666666666666</ele><time>2026-05-04T10:23:02.791Z</time></trkpt><trkpt lat="52.6904317" lon="-1.550365"><ele>101.0</ele><time>2026-05-04T10:23:03.796Z</time></trkpt><trkpt lat="52.690285" lon="-1.5502617"><ele>101.5</ele><time>2026-05-04T10:23:04.795Z</time></trkpt><trkpt lat="52.69015" lon="-1.550165"><ele>102.0</ele><time>2026-05-04T10:23:05.792Z</time></trkpt><trkpt lat="52.6900283" lon="-1.5500617"><ele>102.5</ele><time>2026-05-04T10:23:06.793Z</time></trkpt><trkpt lat="52.6899233" lon="-1.549965"><ele>103.0</ele><time>2026-05-04T10:23:07.792Z</time></trkpt><trkpt lat="52.6898417" lon="-1.54987"><ele>103.0</ele><time>2026-05-04T10:23:08.792Z</time></trkpt><trkpt lat="52.68978" lon="-1.5497783"><ele>103.0</ele><time>2026-05-04T10:23:09.796Z</time></trkpt><trkpt lat="52.6897033" lon="-1.5496017"><ele>103.0</ele><time>2026-05-04T10:23:11.796Z</time></trkpt><trkpt lat="52.6896833" lon="-1.5494883"><ele>103.0</ele><time>2026-05-04T10:23:13.796Z</time></trkpt><trkpt lat="52.68969" lon="-1.5493383"><ele>103.0</ele><time>2026-05-04T10:23:48.792Z</time></trkpt><trkpt lat="52.6897" lon="-1.5492067"><ele>103.0</ele><time>2026-05-04T10:23:49.792Z</time></trkpt><trkpt lat="52.689715" lon="-1.5490517"><ele>103.0</ele><time>2026-05-04T10:23:50.79Z</time></trkpt><trkpt lat="52.689725" lon="-1.5488533"><ele>103.0</ele><time>2026-05-04T10:23:51.793Z</time></trkpt><trkpt lat="52.689725" lon="-1.5486417"><ele>103.0</ele><time>2026-05-04T10:23:52.792Z</time></trkpt><trkpt lat="52.6897133" lon="-1.5484417"><ele>102.66666666666667</ele><time>2026-05-04T10:23:53.796Z</time></trkpt><trkpt lat="52.6896967" lon="-1.54826"><ele>102.33333333333334</ele><time>2026-05-04T10:23:54.796Z</time></trkpt><trkpt lat="52.6896767" lon="-1.5481"><ele>102.0</ele><time>2026-05-04T10:23:55.795Z</time></trkpt><trkpt lat="52.68966" lon="-1.5479583"><ele>101.66666666666666</ele><time>2026-05-04T10:23:56.796Z</time></trkpt><trkpt lat="52.6896417" lon="-1.5478283"><ele>101.33333333333333</ele><time>2026-05-04T10:23:57.796Z</time></trkpt><trkpt lat="52.689625" lon="-1.5477217"><ele>101.0</ele><time>2026-05-04T10:23:58.794Z</time></trkpt><trkpt lat="52.6896" lon="-1.5475783"><ele>101.25</ele><time>2026-05-04T10:24:00.795Z</time></trkpt><trkpt lat="52.68958" lon="-1.5474367"><ele>101.5</ele><time>2026-05-04T10:24:16.792Z</time></trkpt><trkpt lat="52.6894867" lon="-1.5472433"><ele>101.75</ele><time>2026-05-04T10:24:18.792Z</time></trkpt><trkpt lat="52.689405" lon="-1.5471267"><ele>102.0</ele><time>2026-05-04T10:24:19.791Z</time></trkpt><trkpt lat="52.68929" lon="-1.5470133"><ele>102.0</ele><time>2026-05-04T10:24:20.792Z</time></trkpt><trkpt lat="52.6891583" lon="-1.546925"><ele>102.0</ele><time>2026-05-04T10:24:21.791Z</time></trkpt><trkpt lat="52.6890267" lon="-1.5468833"><ele>102.0</ele><time>2026-05-04T10:24:22.792Z</time></trkpt><trkpt lat="52.688885" lon="-1.5468717"><ele>102.0</ele><time>2026-05-04T10:24:23.795Z</time></trkpt><trkpt lat="52.68875" lon="-1.5468717"><ele>102.0</ele><time>2026-05-04T10:24:24.792Z</time></trkpt><trkpt lat="52.688625" lon="-1.546855"><ele>102.0</ele><time>2026-05-04T10:24:25.793Z</time></trkpt><trkpt lat="52.6885017" lon="-1.54682"><ele>102.0</ele><time>2026-05-04T10:24:26.791Z</time></trkpt><trkpt lat="52.6883733" lon="-1.5467567"><ele>102.0</ele><time>2026-05-04T10:24:27.796Z</time></trkpt><trkpt lat="52.6882483" lon="-1.5466783"><ele>101.75</ele><time>2026-05-04T10:24:28.794Z</time></trkpt><trkpt lat="52.6881233" lon="-1.5465967"><ele>101.5</ele><time>2026-05-04T10:24:29.795Z</time></trkpt><trkpt lat="52.688" lon="-1.54652"><ele>101.25</ele><time>2026-05-04T10:24:30.795Z</time></trkpt><trkpt lat="52.6878717" lon="-1.5464467"><ele>101.0</ele><time>2026-05-04T10:24:31.795Z</time></trkpt><trkpt lat="52.68773" lon="-1.5463783"><ele>101.0</ele><time>2026-05-04T10:24:32.795Z</time></trkpt><trkpt lat="52.6875817" lon="-1.546315"><ele>101.0</ele><time>2026-05-04T10:24:33.795Z</time></trkpt><trkpt lat="52.6874283" lon="-1.5462567"><ele>101.0</ele><time>2026-05-04T10:24:34.794Z</time></trkpt><trkpt lat="52.6872733" lon="-1.5462033"><ele>101.0</ele><time>2026-05-04T10:24:35.792Z</time></trkpt><trkpt lat="52.687115" lon="-1.546165"><ele>101.0</ele><time>2026-05-04T10:24:36.796Z</time></trkpt><trkpt lat="52.6869567" lon="-1.5461383"><ele>101.0</ele><time>2026-05-04T10:24:37.796Z</time></trkpt><trkpt lat="52.6867933" lon="-1.5461233"><ele>100.33333333333333</ele><time>2026-05-04T10:24:38.796Z</time></trkpt><trkpt lat="52.6866317" lon="-1.5461167"><ele>99.66666666666666</ele><time>2026-05-04T10:24:39.796Z</time></trkpt><trkpt lat="52.6864717" lon="-1.54612"><ele>99.0</ele><time>2026-05-04T10:24:40.795Z</time></trkpt><trkpt lat="52.6863133" lon="-1.5461267"><ele>99.0</ele><time>2026-05-04T10:24:41.792Z</time></trkpt><trkpt lat="52.6861533" lon="-1.5461333"><ele>99.0</ele><time>2026-05-04T10:24:42.794Z</time></trkpt><trkpt lat="52.68599" lon="-1.5461433"><ele>99.0</ele><time>2026-05-04T10:24:43.795Z</time></trkpt><trkpt lat="52.6858217" lon="-1.546145"><ele>97.33333333333333</ele><time>2026-05-04T10:24:44.792Z</time></trkpt><trkpt lat="52.6856483" lon="-1.54614"><ele>95.66666666666666</ele><time>2026-05-04T10:24:45.795Z</time></trkpt><trkpt lat="52.68547" lon="-1.5461217"><ele>94.0</ele><time>2026-05-04T10:24:46.796Z</time></trkpt><trkpt lat="52.68529" lon="-1.5460833"><ele>93.66666666666666</ele><time>2026-05-04T10:24:47.795Z</time></trkpt><trkpt lat="52.6851067" lon="-1.5460283"><ele>93.33333333333333</ele><time>2026-05-04T10:24:48.795Z</time></trkpt><trkpt lat="52.6849233" lon="-1.5459667"><ele>93.0</ele><time>2026-05-04T10:24:49.795Z</time></trkpt><trkpt lat="52.6847383" lon="-1.545895"><ele>93.0</ele><time>2026-05-04T10:24:50.791Z</time></trkpt><trkpt lat="52.684555" lon="-1.5458083"><ele>93.0</ele><time>2026-05-04T10:24:51.792Z</time></trkpt><trkpt lat="52.6843767" lon="-1.5457133"><ele>93.0</ele><time>2026-05-04T10:24:52.795Z</time></trkpt><trkpt lat="52.684195" lon="-1.5456183"><ele>93.0</ele><time>2026-05-04T10:24:53.796Z</time></trkpt><trkpt lat="52.6840167" lon="-1.5455283"><ele>93.0</ele><time>2026-05-04T10:24:54.794Z</time></trkpt><trkpt lat="52.68383" lon="-1.545445"><ele>93.0</ele><time>2026-05-04T10:24:55.797Z</time></trkpt><trkpt lat="52.6836467" lon="-1.54537"><ele>92.66666666666667</ele><time>2026-05-04T10:24:56.795Z</time></trkpt><trkpt lat="52.683465" lon="-1.545295"><ele>92.33333333333334</ele><time>2026-05-04T10:24:57.795Z</time></trkpt><trkpt lat="52.6832817" lon="-1.5452317"><ele>92.0</ele><time>2026-05-04T10:24:58.796Z</time></trkpt><trkpt lat="52.6831017" lon="-1.5451733"><ele>92.0</ele><time>2026-05-04T10:24:59.795Z</time></trkpt><trkpt lat="52.6829133" lon="-1.5451283"><ele>92.0</ele><time>2026-05-04T10:25:00.795Z</time></trkpt><trkpt lat="52.6827233" lon="-1.5450917"><ele>92.0</ele><time>2026-05-04T10:25:01.796Z</time></trkpt><trkpt lat="52.682535" lon="-1.5450667"><ele>92.33333333333334</ele><time>2026-05-04T10:25:02.794Z</time></trkpt><trkpt lat="52.682345" lon="-1.5450533"><ele>92.66666666666667</ele><time>2026-05-04T10:25:03.795Z</time></trkpt><trkpt lat="52.682155" lon="-1.5450433"><ele>93.0</ele><time>2026-05-04T10:25:04.795Z</time></trkpt><trkpt lat="52.6819667" lon="-1.5450417"><ele>93.0</ele><time>2026-05-04T10:25:05.796Z</time></trkpt><trkpt lat="52.6817783" lon="-1.5450567"><ele>93.0</ele><time>2026-05-04T10:25:06.795Z</time></trkpt><trkpt lat="52.6815883" lon="-1.54508"><ele>93.0</ele><time>2026-05-04T10:25:07.796Z</time></trkpt><trkpt lat="52.6814033" lon="-1.5451083"><ele>93.0</ele><time>2026-05-04T10:25:08.795Z</time></trkpt><trkpt lat="52.6812167" lon="-1.5451367"><ele>93.0</ele><time>2026-05-04T10:25:09.794Z</time></trkpt><trkpt lat="52.6810333" lon="-1.5451683"><ele>93.0</ele><time>2026-05-04T10:25:10.795Z</time></trkpt><trkpt lat="52.6808583" lon="-1.5451967"><ele>93.0</ele><time>2026-05-04T10:25:11.795Z</time></trkpt><trkpt lat="52.6806933" lon="-1.545225"><ele>93.0</ele><time>2026-05-04T10:25:12.795Z</time></trkpt><trkpt lat="52.6805383" lon="-1.54525"><ele>93.0</ele><time>2026-05-04T10:25:13.796Z</time></trkpt><trkpt lat="52.680395" lon="-1.5452733"><ele>93.25</ele><time>2026-05-04T10:25:14.794Z</time></trkpt><trkpt lat="52.6802617" lon="-1.545295"><ele>93.5</ele><time>2026-05-04T10:25:15.796Z</time></trkpt><trkpt lat="52.6801333" lon="-1.5453133"><ele>93.75</ele><time>2026-05-04T10:25:16.796Z</time></trkpt><trkpt lat="52.6800067" lon="-1.5453383"><ele>94.0</ele><time>2026-05-04T10:25:17.795Z</time></trkpt><trkpt lat="52.67988" lon="-1.545375"><ele>94.25</ele><time>2026-05-04T10:25:18.795Z</time></trkpt><trkpt lat="52.6797517" lon="-1.5454"><ele>94.5</ele><time>2026-05-04T10:25:19.796Z</time></trkpt><trkpt lat="52.6796217" lon="-1.545425"><ele>94.75</ele><time>2026-05-04T10:25:20.791Z</time></trkpt><trkpt lat="52.6794883" lon="-1.54545"><ele>95.0</ele><time>2026-05-04T10:25:21.795Z</time></trkpt><trkpt lat="52.6793517" lon="-1.5454683"><ele>95.5</ele><time>2026-05-04T10:25:22.792Z</time></trkpt><trkpt lat="52.6792117" lon="-1.5454783"><ele>96.0</ele><time>2026-05-04T10:25:23.795Z</time></trkpt><trkpt lat="52.6790717" lon="-1.545495"><ele>96.5</ele><time>2026-05-04T10:25:24.792Z</time></trkpt><trkpt lat="52.6789267" lon="-1.5455017"><ele>97.0</ele><time>2026-05-04T10:25:25.791Z</time></trkpt><trkpt lat="52.6787817" lon="-1.545505"><ele>97.0</ele><time>2026-05-04T10:25:26.791Z</time></trkpt><trkpt lat="52.678635" lon="-1.5455167"><ele>97.0</ele><time>2026-05-04T10:25:27.795Z</time></trkpt><trkpt lat="52.6784833" lon="-1.54551"><ele>97.0</ele><time>2026-05-04T10:25:28.796Z</time></trkpt><trkpt lat="52.6783333" lon="-1.545495"><ele>97.0</ele><time>2026-05-04T10:25:29.795Z</time></trkpt><trkpt lat="52.67818" lon="-1.54547"><ele>97.33333333333334</ele><time>2026-05-04T10:25:30.796Z</time></trkpt><trkpt lat="52.6780283" lon="-1.5454367"><ele>97.66666666666666</ele><time>2026-05-04T10:25:31.795Z</time></trkpt><trkpt lat="52.67788" lon="-1.5454033"><ele>98.0</ele><time>2026-05-04T10:25:32.796Z</time></trkpt><trkpt lat="52.677735" lon="-1.54536"><ele>98.75</ele><time>2026-05-04T10:25:33.795Z</time></trkpt><trkpt lat="52.6775917" lon="-1.545305"><ele>99.5</ele><time>2026-05-04T10:25:34.795Z</time></trkpt><trkpt lat="52.6774467" lon="-1.545245"><ele>100.25</ele><time>2026-05-04T10:25:35.797Z</time></trkpt><trkpt lat="52.6773" lon="-1.545185"><ele>101.0</ele><time>2026-05-04T10:25:36.797Z</time></trkpt><trkpt lat="52.677155" lon="-1.54512"><ele>101.0</ele><time>2026-05-04T10:25:37.794Z</time></trkpt><trkpt lat="52.67701" lon="-1.545045"><ele>101.0</ele><time>2026-05-04T10:25:38.793Z</time></trkpt><trkpt lat="52.6768683" lon="-1.5449633"><ele>101.0</ele><time>2026-05-04T10:25:39.792Z</time></trkpt><trkpt lat="52.6767267" lon="-1.5448767"><ele>100.5</ele><time>2026-05-04T10:25:40.792Z</time></trkpt><trkpt lat="52.6765883" lon="-1.5447867"><ele>100.0</ele><time>2026-05-04T10:25:41.795Z</time></trkpt><trkpt lat="52.6764533" lon="-1.5446917"><ele>99.5</ele><time>2026-05-04T10:25:42.796Z</time></trkpt><trkpt lat="52.67632" lon="-1.5445817"><ele>99.0</ele><time>2026-05-04T10:25:43.792Z</time></trkpt><trkpt lat="52.6761933" lon="-1.54446"><ele>98.66666666666666</ele><time>2026-05-04T10:25:44.791Z</time></trkpt><trkpt lat="52.6760667" lon="-1.5443267"><ele>98.33333333333333</ele><time>2026-05-04T10:25:45.792Z</time></trkpt><trkpt lat="52.6759467" lon="-1.5441833"><ele>98.0</ele><time>2026-05-04T10:25:46.791Z</time></trkpt><trkpt lat="52.6758267" lon="-1.5440317"><ele>98.0</ele><time>2026-05-04T10:25:47.793Z</time></trkpt><trkpt lat="52.6757217" lon="-1.543865"><ele>98.0</ele><time>2026-05-04T10:25:48.794Z</time></trkpt><trkpt lat="52.6756183" lon="-1.5437"><ele>98.0</ele><time>2026-05-04T10:25:49.791Z</time></trkpt><trkpt lat="52.6755117" lon="-1.5435317"><ele>98.0</ele><time>2026-05-04T10:25:50.792Z</time></trkpt><trkpt lat="52.6754067" lon="-1.5433583"><ele>98.5</ele><time>2026-05-04T10:25:51.792Z</time></trkpt><trkpt lat="52.6753017" lon="-1.5431883"><ele>99.0</ele><time>2026-05-04T10:25:52.792Z</time></trkpt><trkpt lat="52.6751967" lon="-1.5430167"><ele>99.5</ele><time>2026-05-04T10:25:53.792Z</time></trkpt><trkpt lat="52.6750917" lon="-1.5428533"><ele>100.0</ele><time>2026-05-04T10:25:54.791Z</time></trkpt><trkpt lat="52.6749817" lon="-1.5426867"><ele>101.0</ele><time>2026-05-04T10:25:55.791Z</time></trkpt><trkpt lat="52.6748617" lon="-1.542525"><ele>102.0</ele><time>2026-05-04T10:25:56.792Z</time></trkpt><trkpt lat="52.6747417" lon="-1.542375"><ele>103.0</ele><time>2026-05-04T10:25:57.792Z</time></trkpt><trkpt lat="52.6746117" lon="-1.54224"><ele>103.0</ele><time>2026-05-04T10:25:58.791Z</time></trkpt><trkpt lat="52.67448" lon="-1.5421183"><ele>103.0</ele><time>2026-05-04T10:25:59.796Z</time></trkpt><trkpt lat="52.674345" lon="-1.542015"><ele>103.0</ele><time>2026-05-04T10:26:00.795Z</time></trkpt><trkpt lat="52.6742033" lon="-1.54192"><ele>103.25</ele><time>2026-05-04T10:26:01.796Z</time></trkpt><trkpt lat="52.674065" lon="-1.541835"><ele>103.5</ele><time>2026-05-04T10:26:02.796Z</time></trkpt><trkpt lat="52.6739217" lon="-1.5417583"><ele>103.75</ele><time>2026-05-04T10:26:03.791Z</time></trkpt><trkpt lat="52.6737767" lon="-1.5416983"><ele>104.0</ele><time>2026-05-04T10:26:04.792Z</time></trkpt><trkpt lat="52.67363" lon="-1.5416583"><ele>105.0</ele><time>2026-05-04T10:26:05.792Z</time></trkpt><trkpt lat="52.6734783" lon="-1.5416267"><ele>106.0</ele><time>2026-05-04T10:26:06.792Z</time></trkpt><trkpt lat="52.6733183" lon="-1.5416017"><ele>107.0</ele><time>2026-05-04T10:26:07.793Z</time></trkpt><trkpt lat="52.6731467" lon="-1.541575"><ele>107.0</ele><time>2026-05-04T10:26:08.792Z</time></trkpt><trkpt lat="52.67297" lon="-1.54154"><ele>107.0</ele><time>2026-05-04T10:26:09.791Z</time></trkpt><trkpt lat="52.672795" lon="-1.5414933"><ele>107.0</ele><time>2026-05-04T10:26:10.791Z</time></trkpt><trkpt lat="52.672625" lon="-1.5414367"><ele>106.66666666666666</ele><time>2026-05-04T10:26:11.796Z</time></trkpt><trkpt lat="52.6724517" lon="-1.5413667"><ele>106.33333333333334</ele><time>2026-05-04T10:26:12.794Z</time></trkpt><trkpt lat="52.6722817" lon="-1.5412833"><ele>106.0</ele><time>2026-05-04T10:26:13.795Z</time></trkpt><trkpt lat="52.6721117" lon="-1.5411867"><ele>107.33333333333334</ele><time>2026-05-04T10:26:14.791Z</time></trkpt><trkpt lat="52.6719433" lon="-1.5410833"><ele>108.66666666666666</ele><time>2026-05-04T10:26:15.796Z</time></trkpt><trkpt lat="52.67178" lon="-1.54096"><ele>110.0</ele><time>2026-05-04T10:26:16.795Z</time></trkpt><trkpt lat="52.6716183" lon="-1.5408233"><ele>110.33333333333333</ele><time>2026-05-04T10:26:17.796Z</time></trkpt><trkpt lat="52.67146" lon="-1.5406817"><ele>110.66666666666666</ele><time>2026-05-04T10:26:18.795Z</time></trkpt><trkpt lat="52.6712967" lon="-1.540535"><ele>111.0</ele><time>2026-05-04T10:26:19.796Z</time></trkpt><trkpt lat="52.6711267" lon="-1.54039"><ele>111.66666666666666</ele><time>2026-05-04T10:26:20.796Z</time></trkpt><trkpt lat="52.670955" lon="-1.5402567"><ele>112.33333333333333</ele><time>2026-05-04T10:26:21.795Z</time></trkpt><trkpt lat="52.67078" lon="-1.5401317"><ele>113.0</ele><time>2026-05-04T10:26:22.792Z</time></trkpt><trkpt lat="52.6706017" lon="-1.5400167"><ele>113.0</ele><time>2026-05-04T10:26:23.793Z</time></trkpt><trkpt lat="52.67042" lon="-1.5399183"><ele>113.0</ele><time>2026-05-04T10:26:24.791Z</time></trkpt><trkpt lat="52.6702383" lon="-1.5398333"><ele>113.0</ele><time>2026-05-04T10:26:25.795Z</time></trkpt><trkpt lat="52.670055" lon="-1.5397483"><ele>113.0</ele><time>2026-05-04T10:26:26.795Z</time></trkpt><trkpt lat="52.6698767" lon="-1.5396533"><ele>113.0</ele><time>2026-05-04T10:26:27.795Z</time></trkpt><trkpt lat="52.6696967" lon="-1.53956"><ele>113.0</ele><time>2026-05-04T10:26:28.791Z</time></trkpt><trkpt lat="52.6695167" lon="-1.53947"><ele>114.0</ele><time>2026-05-04T10:26:29.796Z</time></trkpt><trkpt lat="52.6693417" lon="-1.5393817"><ele>115.0</ele><time>2026-05-04T10:26:30.791Z</time></trkpt><trkpt lat="52.669165" lon="-1.539295"><ele>116.0</ele><time>2026-05-04T10:26:31.791Z</time></trkpt><trkpt lat="52.6689883" lon="-1.5392117"><ele>116.0</ele><time>2026-05-04T10:26:32.792Z</time></trkpt><trkpt lat="52.6688183" lon="-1.539125"><ele>116.0</ele><time>2026-05-04T10:26:33.791Z</time></trkpt><trkpt lat="52.6686433" lon="-1.5390383"><ele>116.0</ele><time>2026-05-04T10:26:34.791Z</time></trkpt><trkpt lat="52.6684733" lon="-1.5389517"><ele>117.33333333333333</ele><time>2026-05-04T10:26:35.792Z</time></trkpt><trkpt lat="52.668295" lon="-1.5388633"><ele>118.66666666666666</ele><time>2026-05-04T10:26:36.792Z</time></trkpt><trkpt lat="52.6681167" lon="-1.5387733"><ele>120.0</ele><time>2026-05-04T10:26:37.791Z</time></trkpt><trkpt lat="52.667935" lon="-1.538685"><ele>121.33333333333334</ele><time>2026-05-04T10:26:38.792Z</time></trkpt><trkpt lat="52.6677533" lon="-1.5386117"><ele>122.66666666666667</ele><time>2026-05-04T10:26:39.791Z</time></trkpt><trkpt lat="52.66757" lon="-1.538555"><ele>124.0</ele><time>2026-05-04T10:26:40.791Z</time></trkpt><trkpt lat="52.6673867" lon="-1.5385183"><ele>124.0</ele><time>2026-05-04T10:26:41.794Z</time></trkpt><trkpt lat="52.6671983" lon="-1.5384917"><ele>124.0</ele><time>2026-05-04T10:26:42.791Z</time></trkpt><trkpt lat="52.66701" lon="-1.5384733"><ele>124.0</ele><time>2026-05-04T10:26:43.793Z</time></trkpt><trkpt lat="52.66682" lon="-1.5384767"><ele>125.33333333333334</ele><time>2026-05-04T10:26:44.791Z</time></trkpt><trkpt lat="52.66663" lon="-1.538495"><ele>126.66666666666666</ele><time>2026-05-04T10:26:45.796Z</time></trkpt><trkpt lat="52.6664417" lon="-1.538525"><ele>128.0</ele><time>2026-05-04T10:26:46.794Z</time></trkpt><trkpt lat="52.666255" lon="-1.5385667"><ele>128.33333333333331</ele><time>2026-05-04T10:26:47.793Z</time></trkpt><trkpt lat="52.6660717" lon="-1.5386233"><ele>128.66666666666666</ele><time>2026-05-04T10:26:48.79Z</time></trkpt><trkpt lat="52.665885" lon="-1.5386967"><ele>129.0</ele><time>2026-05-04T10:26:49.792Z</time></trkpt><trkpt lat="52.6656967" lon="-1.5387833"><ele>129.0</ele><time>2026-05-04T10:26:50.795Z</time></trkpt><trkpt lat="52.665515" lon="-1.53886"><ele>129.0</ele><time>2026-05-04T10:26:51.796Z</time></trkpt><trkpt lat="52.66533" lon="-1.5389183"><ele>129.0</ele><time>2026-05-04T10:26:52.795Z</time></trkpt><trkpt lat="52.6651467" lon="-1.5389633"><ele>129.0</ele><time>2026-05-04T10:26:53.798Z</time></trkpt><trkpt lat="52.6649617" lon="-1.5389933"><ele>129.0</ele><time>2026-05-04T10:26:54.792Z</time></trkpt><trkpt lat="52.6647733" lon="-1.53902"><ele>129.0</ele><time>2026-05-04T10:26:55.792Z</time></trkpt><trkpt lat="52.664585" lon="-1.5390433"><ele>128.66666666666666</ele><time>2026-05-04T10:26:56.792Z</time></trkpt><trkpt lat="52.6643967" lon="-1.539055"><ele>128.33333333333331</ele><time>2026-05-04T10:26:57.792Z</time></trkpt><trkpt lat="52.66421" lon="-1.5390617"><ele>128.0</ele><time>2026-05-04T10:26:58.792Z</time></trkpt><trkpt lat="52.6640233" lon="-1.5390667"><ele>128.0</ele><time>2026-05-04T10:26:59.791Z</time></trkpt><trkpt lat="52.663835" lon="-1.539065"><ele>128.0</ele><time>2026-05-04T10:27:00.795Z</time></trkpt><trkpt lat="52.66365" lon="-1.53906"><ele>128.0</ele><time>2026-05-04T10:27:01.796Z</time></trkpt><trkpt lat="52.6634633" lon="-1.5390667"><ele>126.33333333333333</ele><time>2026-05-04T10:27:02.795Z</time></trkpt><trkpt lat="52.66328" lon="-1.53907"><ele>124.66666666666666</ele><time>2026-05-04T10:27:03.796Z</time></trkpt><trkpt lat="52.6630883" lon="-1.5390683"><ele>123.0</ele><time>2026-05-04T10:27:04.795Z</time></trkpt><trkpt lat="52.6628983" lon="-1.5390717"><ele>122.33333333333334</ele><time>2026-05-04T10:27:05.795Z</time></trkpt><trkpt lat="52.66271" lon="-1.539075"><ele>121.66666666666667</ele><time>2026-05-04T10:27:06.794Z</time></trkpt><trkpt lat="52.6625233" lon="-1.539075"><ele>121.0</ele><time>2026-05-04T10:27:07.796Z</time></trkpt><trkpt lat="52.6623367" lon="-1.5390717"><ele>121.0</ele><time>2026-05-04T10:27:08.794Z</time></trkpt><trkpt lat="52.66215" lon="-1.5390733"><ele>121.0</ele><time>2026-05-04T10:27:09.794Z</time></trkpt><trkpt lat="52.6619633" lon="-1.5390717"><ele>121.0</ele><time>2026-05-04T10:27:10.792Z</time></trkpt><trkpt lat="52.6617783" lon="-1.5390633"><ele>121.66666666666667</ele><time>2026-05-04T10:27:11.792Z</time></trkpt><trkpt lat="52.6615917" lon="-1.5390533"><ele>122.33333333333334</ele><time>2026-05-04T10:27:12.791Z</time></trkpt><trkpt lat="52.6614067" lon="-1.5390433"><ele>123.0</ele><time>2026-05-04T10:27:13.799Z</time></trkpt><trkpt lat="52.6612217" lon="-1.5390333"><ele>122.66666666666666</ele><time>2026-05-04T10:27:14.795Z</time></trkpt><trkpt lat="52.6610333" lon="-1.539025"><ele>122.33333333333333</ele><time>2026-05-04T10:27:15.795Z</time></trkpt><trkpt lat="52.6608483" lon="-1.5390183"><ele>122.0</ele><time>2026-05-04T10:27:16.794Z</time></trkpt><trkpt lat="52.6606617" lon="-1.5389967"><ele>122.0</ele><time>2026-05-04T10:27:17.791Z</time></trkpt><trkpt lat="52.660475" lon="-1.53897"><ele>122.0</ele><time>2026-05-04T10:27:18.79Z</time></trkpt><trkpt lat="52.6602883" lon="-1.53894"><ele>122.0</ele><time>2026-05-04T10:27:19.791Z</time></trkpt><trkpt lat="52.6601033" lon="-1.5389033"><ele>122.0</ele><time>2026-05-04T10:27:20.79Z</time></trkpt><trkpt lat="52.65992" lon="-1.53886"><ele>122.0</ele><time>2026-05-04T10:27:21.791Z</time></trkpt><trkpt lat="52.6597367" lon="-1.538805"><ele>122.0</ele><time>2026-05-04T10:27:22.792Z</time></trkpt><trkpt lat="52.6595533" lon="-1.53874"><ele>124.0</ele><time>2026-05-04T10:27:23.79Z</time></trkpt><trkpt lat="52.6593717" lon="-1.5386717"><ele>126.0</ele><time>2026-05-04T10:27:24.792Z</time></trkpt><trkpt lat="52.6591933" lon="-1.538595"><ele>128.0</ele><time>2026-05-04T10:27:25.792Z</time></trkpt><trkpt lat="52.6590183" lon="-1.5385033"><ele>128.0</ele><time>2026-05-04T10:27:26.791Z</time></trkpt><trkpt lat="52.6588433" lon="-1.5383983"><ele>128.0</ele><time>2026-05-04T10:27:27.791Z</time></trkpt><trkpt lat="52.6586667" lon="-1.5382833"><ele>128.0</ele><time>2026-05-04T10:27:28.791Z</time></trkpt><trkpt lat="52.658495" lon="-1.5381567"><ele>127.66666666666666</ele><time>2026-05-04T10:27:29.792Z</time></trkpt><trkpt lat="52.6583217" lon="-1.53804"><ele>127.33333333333334</ele><time>2026-05-04T10:27:30.791Z</time></trkpt><trkpt lat="52.6581417" lon="-1.5379283"><ele>127.0</ele><time>2026-05-04T10:27:31.79Z</time></trkpt><trkpt lat="52.6579633" lon="-1.5378217"><ele>127.0</ele><time>2026-05-04T10:27:32.795Z</time></trkpt><trkpt lat="52.6577917" lon="-1.537705"><ele>127.0</ele><time>2026-05-04T10:27:33.794Z</time></trkpt><trkpt lat="52.6576167" lon="-1.537575"><ele>127.0</ele><time>2026-05-04T10:27:34.794Z</time></trkpt><trkpt lat="52.6574533" lon="-1.537425"><ele>126.66666666666667</ele><time>2026-05-04T10:27:35.795Z</time></trkpt><trkpt lat="52.6573" lon="-1.537245"><ele>126.33333333333334</ele><time>2026-05-04T10:27:36.795Z</time></trkpt><trkpt lat="52.657155" lon="-1.5370417"><ele>126.0</ele><time>2026-05-04T10:27:37.796Z</time></trkpt><trkpt lat="52.65702" lon="-1.536825"><ele>126.0</ele><time>2026-05-04T10:27:38.795Z</time></trkpt><trkpt lat="52.65689" lon="-1.536605"><ele>126.0</ele><time>2026-05-04T10:27:39.795Z</time></trkpt><trkpt lat="52.6567583" lon="-1.5363883"><ele>126.0</ele><time>2026-05-04T10:27:40.795Z</time></trkpt><trkpt lat="52.656625" lon="-1.5361717"><ele>126.66666666666666</ele><time>2026-05-04T10:27:41.794Z</time></trkpt><trkpt lat="52.65649" lon="-1.5359567"><ele>127.33333333333333</ele><time>2026-05-04T10:27:42.794Z</time></trkpt><trkpt lat="52.6563567" lon="-1.53574"><ele>128.0</ele><time>2026-05-04T10:27:43.792Z</time></trkpt><trkpt lat="52.6562233" lon="-1.5355217"><ele>127.66666666666666</ele><time>2026-05-04T10:27:44.793Z</time></trkpt><trkpt lat="52.6560917" lon="-1.535305"><ele>127.33333333333334</ele><time>2026-05-04T10:27:45.794Z</time></trkpt><trkpt lat="52.65597" lon="-1.53511"><ele>127.0</ele><time>2026-05-04T10:27:46.794Z</time></trkpt><trkpt lat="52.655865" lon="-1.5349433"><ele>127.0</ele><time>2026-05-04T10:27:47.791Z</time></trkpt><trkpt lat="52.6557783" lon="-1.5347983"><ele>126.99999999999999</ele><time>2026-05-04T10:27:48.791Z</time></trkpt><trkpt lat="52.655705" lon="-1.5346767"><ele>126.99999999999999</ele><time>2026-05-04T10:27:49.792Z</time></trkpt><trkpt lat="52.65564" lon="-1.5345683"><ele>127.0</ele><time>2026-05-04T10:27:50.791Z</time></trkpt><trkpt lat="52.6555767" lon="-1.5344617"><ele>127.0</ele><time>2026-05-04T10:27:51.791Z</time></trkpt><trkpt lat="52.65551" lon="-1.53435"><ele>127.25</ele><time>2026-05-04T10:27:52.795Z</time></trkpt><trkpt lat="52.6554367" lon="-1.5342217"><ele>127.5</ele><time>2026-05-04T10:27:53.791Z</time></trkpt><trkpt lat="52.655355" lon="-1.5340733"><ele>127.75</ele><time>2026-05-04T10:27:54.792Z</time></trkpt><trkpt lat="52.6552733" lon="-1.5339083"><ele>128.0</ele><time>2026-05-04T10:27:55.791Z</time></trkpt><trkpt lat="52.6551883" lon="-1.5337217"><ele>128.66666666666666</ele><time>2026-05-04T10:27:56.792Z</time></trkpt><trkpt lat="52.6551" lon="-1.5335183"><ele>129.33333333333334</ele><time>2026-05-04T10:27:57.79Z</time></trkpt><trkpt lat="52.65501" lon="-1.5332917"><ele>130.0</ele><time>2026-05-04T10:27:58.795Z</time></trkpt><trkpt lat="52.6549283" lon="-1.5330567"><ele>130.0</ele><time>2026-05-04T10:27:59.794Z</time></trkpt><trkpt lat="52.65484" lon="-1.5328117"><ele>130.0</ele><time>2026-05-04T10:28:00.794Z</time></trkpt><trkpt lat="52.65476" lon="-1.5325667"><ele>130.0</ele><time>2026-05-04T10:28:01.796Z</time></trkpt><trkpt lat="52.654685" lon="-1.5323267"><ele>130.0</ele><time>2026-05-04T10:28:02.796Z</time></trkpt><trkpt lat="52.6546083" lon="-1.5320917"><ele>130.0</ele><time>2026-05-04T10:28:03.791Z</time></trkpt><trkpt lat="52.65453" lon="-1.5318633"><ele>130.0</ele><time>2026-05-04T10:28:04.79Z</time></trkpt><trkpt lat="52.6544517" lon="-1.5316417"><ele>130.0</ele><time>2026-05-04T10:28:05.79Z</time></trkpt><trkpt lat="52.6543817" lon="-1.5314367"><ele>130.0</ele><time>2026-05-04T10:28:06.791Z</time></trkpt><trkpt lat="52.6543" lon="-1.5312433"><ele>130.0</ele><time>2026-05-04T10:28:07.792Z</time></trkpt><trkpt lat="52.6542433" lon="-1.5310483"><ele>130.0</ele><time>2026-05-04T10:28:08.792Z</time></trkpt><trkpt lat="52.6541817" lon="-1.5308483"><ele>130.0</ele><time>2026-05-04T10:28:09.79Z</time></trkpt><trkpt lat="52.654115" lon="-1.5306433"><ele>130.0</ele><time>2026-05-04T10:28:10.791Z</time></trkpt><trkpt lat="52.6540383" lon="-1.5304333"><ele>130.0</ele><time>2026-05-04T10:28:11.791Z</time></trkpt><trkpt lat="52.6539633" lon="-1.5302333"><ele>130.0</ele><time>2026-05-04T10:28:12.792Z</time></trkpt><trkpt lat="52.6539" lon="-1.5300517"><ele>129.75</ele><time>2026-05-04T10:28:13.792Z</time></trkpt><trkpt lat="52.6538417" lon="-1.5298817"><ele>129.5</ele><time>2026-05-04T10:28:14.792Z</time></trkpt><trkpt lat="52.65378" lon="-1.5297217"><ele>129.25</ele><time>2026-05-04T10:28:15.791Z</time></trkpt><trkpt lat="52.653705" lon="-1.529545"><ele>129.0</ele><time>2026-05-04T10:28:16.791Z</time></trkpt><trkpt lat="52.653625" lon="-1.52934"><ele>129.0</ele><time>2026-05-04T10:28:17.791Z</time></trkpt><trkpt lat="52.6535467" lon="-1.5291267"><ele>129.0</ele><time>2026-05-04T10:28:18.791Z</time></trkpt><trkpt lat="52.65347" lon="-1.528895"><ele>129.0</ele><time>2026-05-04T10:28:19.791Z</time></trkpt><trkpt lat="52.6533933" lon="-1.5286417"><ele>129.0</ele><time>2026-05-04T10:28:20.791Z</time></trkpt><trkpt lat="52.6533217" lon="-1.5283867"><ele>129.0</ele><time>2026-05-04T10:28:21.79Z</time></trkpt><trkpt lat="52.6532717" lon="-1.528125"><ele>129.0</ele><time>2026-05-04T10:28:22.791Z</time></trkpt><trkpt lat="52.653235" lon="-1.5278533"><ele>129.0</ele><time>2026-05-04T10:28:23.79Z</time></trkpt><trkpt lat="52.6532217" lon="-1.52756"><ele>129.0</ele><time>2026-05-04T10:28:24.791Z</time></trkpt><trkpt lat="52.6532383" lon="-1.527255"><ele>129.0</ele><time>2026-05-04T10:28:25.79Z</time></trkpt><trkpt lat="52.6532817" lon="-1.5269467"><ele>128.66666666666666</ele><time>2026-05-04T10:28:26.792Z</time></trkpt><trkpt lat="52.653335" lon="-1.5266383"><ele>128.33333333333331</ele><time>2026-05-04T10:28:27.791Z</time></trkpt><trkpt lat="52.653385" lon="-1.5263383"><ele>128.0</ele><time>2026-05-04T10:28:28.795Z</time></trkpt><trkpt lat="52.653425" lon="-1.5260317"><ele>127.66666666666666</ele><time>2026-05-04T10:28:29.791Z</time></trkpt><trkpt lat="52.6534633" lon="-1.52573"><ele>127.33333333333334</ele><time>2026-05-04T10:28:30.794Z</time></trkpt><trkpt lat="52.6535033" lon="-1.52543"><ele>127.0</ele><time>2026-05-04T10:28:31.794Z</time></trkpt><trkpt lat="52.653535" lon="-1.5251233"><ele>127.0</ele><time>2026-05-04T10:28:32.797Z</time></trkpt><trkpt lat="52.65356" lon="-1.5248217"><ele>127.0</ele><time>2026-05-04T10:28:33.795Z</time></trkpt><trkpt lat="52.6535717" lon="-1.524515"><ele>127.0</ele><time>2026-05-04T10:28:34.795Z</time></trkpt><trkpt lat="52.65357" lon="-1.52421"><ele>127.33333333333334</ele><time>2026-05-04T10:28:35.794Z</time></trkpt><trkpt lat="52.653555" lon="-1.523905"><ele>127.66666666666666</ele><time>2026-05-04T10:28:36.796Z</time></trkpt><trkpt lat="52.653525" lon="-1.5236033"><ele>128.0</ele><time>2026-05-04T10:28:37.796Z</time></trkpt><trkpt lat="52.6534883" lon="-1.5233033"><ele>128.0</ele><time>2026-05-04T10:28:38.795Z</time></trkpt><trkpt lat="52.653445" lon="-1.5230067"><ele>128.0</ele><time>2026-05-04T10:28:39.796Z</time></trkpt><trkpt lat="52.6534" lon="-1.5227067"><ele>128.0</ele><time>2026-05-04T10:28:40.795Z</time></trkpt><trkpt lat="52.6533483" lon="-1.5224117"><ele>128.0</ele><time>2026-05-04T10:28:41.795Z</time></trkpt><trkpt lat="52.6532933" lon="-1.5221183"><ele>128.0</ele><time>2026-05-04T10:28:42.795Z</time></trkpt><trkpt lat="52.653235" lon="-1.5218267"><ele>128.0</ele><time>2026-05-04T10:28:43.795Z</time></trkpt><trkpt lat="52.65317" lon="-1.521535"><ele>127.66666666666666</ele><time>2026-05-04T10:28:44.795Z</time></trkpt><trkpt lat="52.6531067" lon="-1.521245"><ele>127.33333333333334</ele><time>2026-05-04T10:28:45.795Z</time></trkpt><trkpt lat="52.6530517" lon="-1.5209533"><ele>127.0</ele><time>2026-05-04T10:28:46.791Z</time></trkpt><trkpt lat="52.6529967" lon="-1.5206633"><ele>126.33333333333334</ele><time>2026-05-04T10:28:47.792Z</time></trkpt><trkpt lat="52.65294" lon="-1.5203733"><ele>125.66666666666666</ele><time>2026-05-04T10:28:48.792Z</time></trkpt><trkpt lat="52.6528783" lon="-1.5200833"><ele>125.0</ele><time>2026-05-04T10:28:49.793Z</time></trkpt><trkpt lat="52.6528183" lon="-1.5197983"><ele>125.33333333333333</ele><time>2026-05-04T10:28:50.794Z</time></trkpt><trkpt lat="52.6527483" lon="-1.5195183"><ele>125.66666666666666</ele><time>2026-05-04T10:28:51.793Z</time></trkpt><trkpt lat="52.65268" lon="-1.5192367"><ele>126.0</ele><time>2026-05-04T10:28:52.793Z</time></trkpt><trkpt lat="52.6526067" lon="-1.51896"><ele>125.33333333333334</ele><time>2026-05-04T10:28:53.795Z</time></trkpt><trkpt lat="52.652535" lon="-1.518685"><ele>124.66666666666667</ele><time>2026-05-04T10:28:54.793Z</time></trkpt><trkpt lat="52.6524583" lon="-1.51841"><ele>124.0</ele><time>2026-05-04T10:28:55.794Z</time></trkpt><trkpt lat="52.6523817" lon="-1.518135"><ele>123.66666666666667</ele><time>2026-05-04T10:28:56.794Z</time></trkpt><trkpt lat="52.6523" lon="-1.5178583"><ele>123.33333333333334</ele><time>2026-05-04T10:28:57.793Z</time></trkpt><trkpt lat="52.6522183" lon="-1.5175833"><ele>123.0</ele><time>2026-05-04T10:28:58.797Z</time></trkpt><trkpt lat="52.65213" lon="-1.5173083"><ele>123.0</ele><time>2026-05-04T10:28:59.796Z</time></trkpt><trkpt lat="52.6520417" lon="-1.51703"><ele>123.0</ele><time>2026-05-04T10:29:00.795Z</time></trkpt><trkpt lat="52.6519617" lon="-1.5167533"><ele>123.0</ele><time>2026-05-04T10:29:01.795Z</time></trkpt><trkpt lat="52.6518783" lon="-1.51648"><ele>123.33333333333334</ele><time>2026-05-04T10:29:02.795Z</time></trkpt><trkpt lat="52.6517917" lon="-1.5162067"><ele>123.66666666666667</ele><time>2026-05-04T10:29:03.796Z</time></trkpt><trkpt lat="52.6516983" lon="-1.5159383"><ele>124.0</ele><time>2026-05-04T10:29:04.796Z</time></trkpt><trkpt lat="52.6516017" lon="-1.515675"><ele>124.0</ele><time>2026-05-04T10:29:05.796Z</time></trkpt><trkpt lat="52.6514983" lon="-1.515415"><ele>124.0</ele><time>2026-05-04T10:29:06.795Z</time></trkpt><trkpt lat="52.6513933" lon="-1.51516"><ele>124.0</ele><time>2026-05-04T10:29:07.795Z</time></trkpt><trkpt lat="52.6512883" lon="-1.5149"><ele>124.0</ele><time>2026-05-04T10:29:08.795Z</time></trkpt><trkpt lat="52.651185" lon="-1.5146367"><ele>124.0</ele><time>2026-05-04T10:29:09.795Z</time></trkpt><trkpt lat="52.65108" lon="-1.514375"><ele>124.0</ele><time>2026-05-04T10:29:10.795Z</time></trkpt><trkpt lat="52.6509767" lon="-1.5141167"><ele>124.33333333333334</ele><time>2026-05-04T10:29:11.795Z</time></trkpt><trkpt lat="52.6508717" lon="-1.5138683"><ele>124.66666666666666</ele><time>2026-05-04T10:29:12.795Z</time></trkpt><trkpt lat="52.6507683" lon="-1.5136283"><ele>125.0</ele><time>2026-05-04T10:29:13.791Z</time></trkpt><trkpt lat="52.6506583" lon="-1.5133983"><ele>125.0</ele><time>2026-05-04T10:29:14.794Z</time></trkpt><trkpt lat="52.6505317" lon="-1.5131767"><ele>125.0</ele><time>2026-05-04T10:29:15.794Z</time></trkpt><trkpt lat="52.6504" lon="-1.51297"><ele>125.0</ele><time>2026-05-04T10:29:16.791Z</time></trkpt><trkpt lat="52.65026" lon="-1.5127717"><ele>125.66666666666666</ele><time>2026-05-04T10:29:17.792Z</time></trkpt><trkpt lat="52.6501117" lon="-1.51258"><ele>126.33333333333334</ele><time>2026-05-04T10:29:18.791Z</time></trkpt><trkpt lat="52.6499617" lon="-1.5124017"><ele>127.0</ele><time>2026-05-04T10:29:19.796Z</time></trkpt><trkpt lat="52.64981" lon="-1.5122217"><ele>127.0</ele><time>2026-05-04T10:29:20.792Z</time></trkpt><trkpt lat="52.6496583" lon="-1.512045"><ele>127.0</ele><time>2026-05-04T10:29:21.795Z</time></trkpt><trkpt lat="52.6495083" lon="-1.5118617"><ele>127.0</ele><time>2026-05-04T10:29:22.791Z</time></trkpt><trkpt lat="52.6493583" lon="-1.51168"><ele>127.0</ele><time>2026-05-04T10:29:23.793Z</time></trkpt><trkpt lat="52.6492067" lon="-1.5115"><ele>127.0</ele><time>2026-05-04T10:29:24.795Z</time></trkpt><trkpt lat="52.649055" lon="-1.5113217"><ele>127.0</ele><time>2026-05-04T10:29:25.795Z</time></trkpt><trkpt lat="52.648905" lon="-1.511145"><ele>127.0</ele><time>2026-05-04T10:29:26.791Z</time></trkpt><trkpt lat="52.6487533" lon="-1.5109683"><ele>127.0</ele><time>2026-05-04T10:29:27.79Z</time></trkpt><trkpt lat="52.6486017" lon="-1.5107917"><ele>127.0</ele><time>2026-05-04T10:29:28.796Z</time></trkpt><trkpt lat="52.6484517" lon="-1.5106117"><ele>127.33333333333334</ele><time>2026-05-04T10:29:29.792Z</time></trkpt><trkpt lat="52.6483" lon="-1.5104317"><ele>127.66666666666666</ele><time>2026-05-04T10:29:30.795Z</time></trkpt><trkpt lat="52.6481533" lon="-1.51025"><ele>128.0</ele><time>2026-05-04T10:29:31.796Z</time></trkpt><trkpt lat="52.6480067" lon="-1.5100683"><ele>128.0</ele><time>2026-05-04T10:29:32.792Z</time></trkpt><trkpt lat="52.647855" lon="-1.5098917"><ele>128.0</ele><time>2026-05-04T10:29:33.791Z</time></trkpt><trkpt lat="52.6477033" lon="-1.509715"><ele>128.0</ele><time>2026-05-04T10:29:34.794Z</time></trkpt><trkpt lat="52.64755" lon="-1.509535"><ele>128.33333333333331</ele><time>2026-05-04T10:29:35.792Z</time></trkpt><trkpt lat="52.6474" lon="-1.5093533"><ele>128.66666666666666</ele><time>2026-05-04T10:29:36.791Z</time></trkpt><trkpt lat="52.6472467" lon="-1.509175"><ele>129.0</ele><time>2026-05-04T10:29:37.792Z</time></trkpt><trkpt lat="52.64709" lon="-1.5090033"><ele>129.0</ele><time>2026-05-04T10:29:38.792Z</time></trkpt><trkpt lat="52.64693" lon="-1.5088367"><ele>129.0</ele><time>2026-05-04T10:29:39.791Z</time></trkpt><trkpt lat="52.64677" lon="-1.508675"><ele>129.0</ele><time>2026-05-04T10:29:40.796Z</time></trkpt><trkpt lat="52.646615" lon="-1.5085217"><ele>128.33333333333334</ele><time>2026-05-04T10:29:41.796Z</time></trkpt><trkpt lat="52.646455" lon="-1.50838"><ele>127.66666666666667</ele><time>2026-05-04T10:29:42.792Z</time></trkpt><trkpt lat="52.6463" lon="-1.50825"><ele>127.0</ele><time>2026-05-04T10:29:43.792Z</time></trkpt><trkpt lat="52.6461533" lon="-1.5081233"><ele>127.25</ele><time>2026-05-04T10:29:44.795Z</time></trkpt><trkpt lat="52.6460183" lon="-1.508005"><ele>127.5</ele><time>2026-05-04T10:29:45.792Z</time></trkpt><trkpt lat="52.6458867" lon="-1.5079"><ele>127.75</ele><time>2026-05-04T10:29:46.796Z</time></trkpt><trkpt lat="52.6457633" lon="-1.5078033"><ele>128.0</ele><time>2026-05-04T10:29:47.791Z</time></trkpt><trkpt lat="52.6456483" lon="-1.507715"><ele>128.0</ele><time>2026-05-04T10:29:48.794Z</time></trkpt><trkpt lat="52.6455383" lon="-1.5076433"><ele>128.0</ele><time>2026-05-04T10:29:49.793Z</time></trkpt><trkpt lat="52.6454333" lon="-1.5075817"><ele>128.0</ele><time>2026-05-04T10:29:50.793Z</time></trkpt><trkpt lat="52.6453333" lon="-1.5075217"><ele>128.0</ele><time>2026-05-04T10:29:51.794Z</time></trkpt><trkpt lat="52.6452367" lon="-1.5074583"><ele>128.0</ele><time>2026-05-04T10:29:52.794Z</time></trkpt><trkpt lat="52.64515" lon="-1.5073983"><ele>128.0</ele><time>2026-05-04T10:29:53.795Z</time></trkpt><trkpt lat="52.645065" lon="-1.50733"><ele>128.0</ele><time>2026-05-04T10:29:54.796Z</time></trkpt><trkpt lat="52.6449983" lon="-1.5072633"><ele>128.0</ele><time>2026-05-04T10:29:55.796Z</time></trkpt><trkpt lat="52.6449133" lon="-1.5071633"><ele>128.0</ele><time>2026-05-04T10:29:57.791Z</time></trkpt><trkpt lat="52.644825" lon="-1.5071583"><ele>128.0</ele><time>2026-05-04T10:32:38.793Z</time></trkpt><trkpt lat="52.6447133" lon="-1.507085"><ele>128.0</ele><time>2026-05-04T10:32:40.791Z</time></trkpt><trkpt lat="52.644645" lon="-1.50704"><ele>128.0</ele><time>2026-05-04T10:32:41.792Z</time></trkpt><trkpt lat="52.6445667" lon="-1.5069883"><ele>128.0</ele><time>2026-05-04T10:32:42.794Z</time></trkpt><trkpt lat="52.6444767" lon="-1.5069383"><ele>128.0</ele><time>2026-05-04T10:32:43.793Z</time></trkpt><trkpt lat="52.6443817" lon="-1.50689"><ele>128.0</ele><time>2026-05-04T10:32:44.793Z</time></trkpt><trkpt lat="52.6442867" lon="-1.50684"><ele>128.0</ele><time>2026-05-04T10:32:45.795Z</time></trkpt><trkpt lat="52.6441883" lon="-1.506795"><ele>128.0</ele><time>2026-05-04T10:32:46.794Z</time></trkpt><trkpt lat="52.644085" lon="-1.5067567"><ele>128.0</ele><time>2026-05-04T10:32:47.791Z</time></trkpt><trkpt lat="52.6439767" lon="-1.506725"><ele>128.0</ele><time>2026-05-04T10:32:48.795Z</time></trkpt><trkpt lat="52.6438583" lon="-1.5067"><ele>128.0</ele><time>2026-05-04T10:32:49.795Z</time></trkpt><trkpt lat="52.6437417" lon="-1.5066717"><ele>127.75</ele><time>2026-05-04T10:32:50.793Z</time></trkpt><trkpt lat="52.6436233" lon="-1.506635"><ele>127.5</ele><time>2026-05-04T10:32:51.794Z</time></trkpt><trkpt lat="52.6435117" lon="-1.50658"><ele>127.25</ele><time>2026-05-04T10:32:52.794Z</time></trkpt><trkpt lat="52.6434067" lon="-1.5065217"><ele>127.0</ele><time>2026-05-04T10:32:53.791Z</time></trkpt><trkpt lat="52.6433033" lon="-1.5064633"><ele>127.0</ele><time>2026-05-04T10:32:54.795Z</time></trkpt><trkpt lat="52.643205" lon="-1.5064083"><ele>126.99999999999999</ele><time>2026-05-04T10:32:55.796Z</time></trkpt><trkpt lat="52.6431167" lon="-1.5063533"><ele>126.99999999999999</ele><time>2026-05-04T10:32:56.795Z</time></trkpt><trkpt lat="52.6430317" lon="-1.506295"><ele>127.0</ele><time>2026-05-04T10:32:57.795Z</time></trkpt><trkpt lat="52.6429583" lon="-1.506225"><ele>127.0</ele><time>2026-05-04T10:32:58.796Z</time></trkpt><trkpt lat="52.64289" lon="-1.5061467"><ele>127.0</ele><time>2026-05-04T10:32:59.79Z</time></trkpt><trkpt lat="52.6428267" lon="-1.5060533"><ele>126.99999999999999</ele><time>2026-05-04T10:33:00.793Z</time></trkpt><trkpt lat="52.64277" lon="-1.505935"><ele>126.99999999999999</ele><time>2026-05-04T10:33:01.794Z</time></trkpt><trkpt lat="52.6427" lon="-1.50581"><ele>127.0</ele><time>2026-05-04T10:33:02.794Z</time></trkpt><trkpt lat="52.6426183" lon="-1.5056833"><ele>127.0</ele><time>2026-05-04T10:33:03.794Z</time></trkpt><trkpt lat="52.6425233" lon="-1.5055583"><ele>127.25</ele><time>2026-05-04T10:33:04.792Z</time></trkpt><trkpt lat="52.6424233" lon="-1.5054333"><ele>127.5</ele><time>2026-05-04T10:33:05.794Z</time></trkpt><trkpt lat="52.6423167" lon="-1.5052933"><ele>127.75</ele><time>2026-05-04T10:33:06.792Z</time></trkpt><trkpt lat="52.642205" lon="-1.5051433"><ele>128.0</ele><time>2026-05-04T10:33:07.795Z</time></trkpt><trkpt lat="52.6420983" lon="-1.5049883"><ele>128.0</ele><time>2026-05-04T10:33:08.791Z</time></trkpt><trkpt lat="52.6419983" lon="-1.5048383"><ele>128.0</ele><time>2026-05-04T10:33:09.795Z</time></trkpt><trkpt lat="52.6419067" lon="-1.50469"><ele>128.0</ele><time>2026-05-04T10:33:10.795Z</time></trkpt><trkpt lat="52.6418183" lon="-1.5045483"><ele>128.0</ele><time>2026-05-04T10:33:11.791Z</time></trkpt><trkpt lat="52.641735" lon="-1.50441"><ele>128.0</ele><time>2026-05-04T10:33:12.795Z</time></trkpt><trkpt lat="52.641655" lon="-1.504275"><ele>128.0</ele><time>2026-05-04T10:33:13.794Z</time></trkpt><trkpt lat="52.6415767" lon="-1.5041433"><ele>128.0</ele><time>2026-05-04T10:33:14.791Z</time></trkpt><trkpt lat="52.641505" lon="-1.5040183"><ele>128.0</ele><time>2026-05-04T10:33:15.791Z</time></trkpt><trkpt lat="52.6414333" lon="-1.503895"><ele>128.0</ele><time>2026-05-04T10:33:16.799Z</time></trkpt><trkpt lat="52.641355" lon="-1.5037733"><ele>127.80000000000001</ele><time>2026-05-04T10:33:17.795Z</time></trkpt><trkpt lat="52.641275" lon="-1.50365"><ele>127.60000000000001</ele><time>2026-05-04T10:33:18.792Z</time></trkpt><trkpt lat="52.6412" lon="-1.5035267"><ele>127.39999999999999</ele><time>2026-05-04T10:33:19.796Z</time></trkpt><trkpt lat="52.6411283" lon="-1.5033933"><ele>127.19999999999999</ele><time>2026-05-04T10:33:20.792Z</time></trkpt><trkpt lat="52.6410667" lon="-1.503245"><ele>127.0</ele><time>2026-05-04T10:33:21.794Z</time></trkpt><trkpt lat="52.6410067" lon="-1.50309"><ele>127.19999999999999</ele><time>2026-05-04T10:33:22.792Z</time></trkpt><trkpt lat="52.6409533" lon="-1.5029233"><ele>127.39999999999999</ele><time>2026-05-04T10:33:23.792Z</time></trkpt><trkpt lat="52.6409067" lon="-1.50275"><ele>127.60000000000001</ele><time>2026-05-04T10:33:24.795Z</time></trkpt><trkpt lat="52.6408683" lon="-1.5025783"><ele>127.80000000000001</ele><time>2026-05-04T10:33:25.794Z</time></trkpt><trkpt lat="52.640835" lon="-1.50241"><ele>128.0</ele><time>2026-05-04T10:33:26.795Z</time></trkpt><trkpt lat="52.640815" lon="-1.5022483"><ele>127.80000000000001</ele><time>2026-05-04T10:33:27.793Z</time></trkpt><trkpt lat="52.6407883" lon="-1.502075"><ele>127.60000000000001</ele><time>2026-05-04T10:33:28.794Z</time></trkpt><trkpt lat="52.64076" lon="-1.5018967"><ele>127.39999999999999</ele><time>2026-05-04T10:33:29.793Z</time></trkpt><trkpt lat="52.6407367" lon="-1.50172"><ele>127.19999999999999</ele><time>2026-05-04T10:33:30.791Z</time></trkpt><trkpt lat="52.640715" lon="-1.5015417"><ele>127.0</ele><time>2026-05-04T10:33:31.794Z</time></trkpt><trkpt lat="52.640685" lon="-1.5013617"><ele>126.8</ele><time>2026-05-04T10:33:32.791Z</time></trkpt><trkpt lat="52.6406517" lon="-1.5011867"><ele>126.6</ele><time>2026-05-04T10:33:33.796Z</time></trkpt><trkpt lat="52.6406133" lon="-1.5010167"><ele>126.39999999999999</ele><time>2026-05-04T10:33:34.794Z</time></trkpt><trkpt lat="52.6405633" lon="-1.5008467"><ele>126.19999999999999</ele><time>2026-05-04T10:33:35.792Z</time></trkpt><trkpt lat="52.64051" lon="-1.5006817"><ele>126.0</ele><time>2026-05-04T10:33:36.795Z</time></trkpt><trkpt lat="52.6404483" lon="-1.5005217"><ele>125.75</ele><time>2026-05-04T10:33:37.792Z</time></trkpt><trkpt lat="52.6403717" lon="-1.5003567"><ele>125.5</ele><time>2026-05-04T10:33:38.792Z</time></trkpt><trkpt lat="52.6402817" lon="-1.50018"><ele>125.25</ele><time>2026-05-04T10:33:39.794Z</time></trkpt><trkpt lat="52.6401767" lon="-1.4999933"><ele>125.0</ele><time>2026-05-04T10:33:40.791Z</time></trkpt><trkpt lat="52.640055" lon="-1.4998067"><ele>123.66666666666666</ele><time>2026-05-04T10:33:41.795Z</time></trkpt><trkpt lat="52.63992" lon="-1.4996067"><ele>122.33333333333334</ele><time>2026-05-04T10:33:42.794Z</time></trkpt><trkpt lat="52.6397867" lon="-1.4994"><ele>121.0</ele><time>2026-05-04T10:33:43.794Z</time></trkpt><trkpt lat="52.639655" lon="-1.4991717"><ele>120.66666666666667</ele><time>2026-05-04T10:33:44.791Z</time></trkpt><trkpt lat="52.6395267" lon="-1.498935"><ele>120.33333333333334</ele><time>2026-05-04T10:33:45.795Z</time></trkpt><trkpt lat="52.6393983" lon="-1.4986917"><ele>120.0</ele><time>2026-05-04T10:33:46.795Z</time></trkpt><trkpt lat="52.639275" lon="-1.4984517"><ele>118.66666666666666</ele><time>2026-05-04T10:33:47.792Z</time></trkpt><trkpt lat="52.6391517" lon="-1.4982117"><ele>117.33333333333333</ele><time>2026-05-04T10:33:48.792Z</time></trkpt><trkpt lat="52.6390267" lon="-1.497975"><ele>116.0</ele><time>2026-05-04T10:33:49.791Z</time></trkpt><trkpt lat="52.6389" lon="-1.4977467"><ele>116.0</ele><time>2026-05-04T10:33:50.793Z</time></trkpt><trkpt lat="52.63877" lon="-1.4975217"><ele>116.0</ele><time>2026-05-04T10:33:51.793Z</time></trkpt><trkpt lat="52.638635" lon="-1.4973"><ele>116.0</ele><time>2026-05-04T10:33:52.794Z</time></trkpt><trkpt lat="52.6385033" lon="-1.49708"><ele>114.66666666666666</ele><time>2026-05-04T10:33:53.794Z</time></trkpt><trkpt lat="52.63837" lon="-1.4968617"><ele>113.33333333333334</ele><time>2026-05-04T10:33:54.794Z</time></trkpt><trkpt lat="52.638235" lon="-1.4966367"><ele>112.0</ele><time>2026-05-04T10:33:55.795Z</time></trkpt><trkpt lat="52.6380983" lon="-1.496415"><ele>111.33333333333334</ele><time>2026-05-04T10:33:56.794Z</time></trkpt><trkpt lat="52.637965" lon="-1.496195"><ele>110.66666666666666</ele><time>2026-05-04T10:33:57.794Z</time></trkpt><trkpt lat="52.6378333" lon="-1.4959767"><ele>110.0</ele><time>2026-05-04T10:33:58.792Z</time></trkpt><trkpt lat="52.6376983" lon="-1.49576"><ele>109.0</ele><time>2026-05-04T10:33:59.795Z</time></trkpt><trkpt lat="52.6375617" lon="-1.4955483"><ele>108.0</ele><time>2026-05-04T10:34:00.791Z</time></trkpt><trkpt lat="52.6374217" lon="-1.49535"><ele>107.0</ele><time>2026-05-04T10:34:01.795Z</time></trkpt><trkpt lat="52.6372767" lon="-1.49516"><ele>106.33333333333333</ele><time>2026-05-04T10:34:02.793Z</time></trkpt><trkpt lat="52.6371283" lon="-1.4949817"><ele>105.66666666666666</ele><time>2026-05-04T10:34:03.795Z</time></trkpt><trkpt lat="52.6369667" lon="-1.49482"><ele>105.0</ele><time>2026-05-04T10:34:04.791Z</time></trkpt><trkpt lat="52.6368033" lon="-1.4946683"><ele>103.66666666666666</ele><time>2026-05-04T10:34:05.793Z</time></trkpt><trkpt lat="52.6366367" lon="-1.4945217"><ele>102.33333333333333</ele><time>2026-05-04T10:34:06.795Z</time></trkpt><trkpt lat="52.6364683" lon="-1.494385"><ele>101.0</ele><time>2026-05-04T10:34:07.795Z</time></trkpt><trkpt lat="52.6362983" lon="-1.4942533"><ele>100.66666666666666</ele><time>2026-05-04T10:34:08.795Z</time></trkpt><trkpt lat="52.6361283" lon="-1.49413"><ele>100.33333333333334</ele><time>2026-05-04T10:34:09.795Z</time></trkpt><trkpt lat="52.6359533" lon="-1.4940133"><ele>100.0</ele><time>2026-05-04T10:34:10.791Z</time></trkpt><trkpt lat="52.63578" lon="-1.4939017"><ele>100.0</ele><time>2026-05-04T10:34:11.794Z</time></trkpt><trkpt lat="52.635605" lon="-1.4937917"><ele>100.0</ele><time>2026-05-04T10:34:12.794Z</time></trkpt><trkpt lat="52.63543" lon="-1.49368"><ele>100.0</ele><time>2026-05-04T10:34:13.792Z</time></trkpt><trkpt lat="52.6352567" lon="-1.4935683"><ele>99.0</ele><time>2026-05-04T10:34:14.795Z</time></trkpt><trkpt lat="52.6350833" lon="-1.493455"><ele>98.0</ele><time>2026-05-04T10:34:15.795Z</time></trkpt><trkpt lat="52.6349067" lon="-1.4933417"><ele>97.0</ele><time>2026-05-04T10:34:16.795Z</time></trkpt><trkpt lat="52.6347333" lon="-1.49323"><ele>97.0</ele><time>2026-05-04T10:34:17.795Z</time></trkpt><trkpt lat="52.634555" lon="-1.4931217"><ele>97.0</ele><time>2026-05-04T10:34:18.795Z</time></trkpt><trkpt lat="52.6343767" lon="-1.4930133"><ele>97.0</ele><time>2026-05-04T10:34:19.79Z</time></trkpt><trkpt lat="52.6342033" lon="-1.4929067"><ele>96.0</ele><time>2026-05-04T10:34:20.794Z</time></trkpt><trkpt lat="52.6340267" lon="-1.4927933"><ele>95.0</ele><time>2026-05-04T10:34:21.794Z</time></trkpt><trkpt lat="52.63385" lon="-1.4926767"><ele>94.0</ele><time>2026-05-04T10:34:22.792Z</time></trkpt><trkpt lat="52.633675" lon="-1.4925567"><ele>93.33333333333333</ele><time>2026-05-04T10:34:23.795Z</time></trkpt><trkpt lat="52.6335033" lon="-1.492435"><ele>92.66666666666667</ele><time>2026-05-04T10:34:24.791Z</time></trkpt><trkpt lat="52.63333" lon="-1.4923217"><ele>92.0</ele><time>2026-05-04T10:34:25.792Z</time></trkpt><trkpt lat="52.633155" lon="-1.4922067"><ele>92.0</ele><time>2026-05-04T10:34:26.796Z</time></trkpt><trkpt lat="52.6329833" lon="-1.4920967"><ele>92.0</ele><time>2026-05-04T10:34:27.792Z</time></trkpt><trkpt lat="52.6328117" lon="-1.4919867"><ele>92.0</ele><time>2026-05-04T10:34:28.792Z</time></trkpt><trkpt lat="52.6326417" lon="-1.4918767"><ele>92.0</ele><time>2026-05-04T10:34:29.791Z</time></trkpt><trkpt lat="52.6324683" lon="-1.4917667"><ele>92.0</ele><time>2026-05-04T10:34:30.794Z</time></trkpt><trkpt lat="52.6322933" lon="-1.4916583"><ele>92.0</ele><time>2026-05-04T10:34:31.794Z</time></trkpt><trkpt lat="52.632115" lon="-1.4915483"><ele>92.0</ele><time>2026-05-04T10:34:32.797Z</time></trkpt><trkpt lat="52.6319383" lon="-1.4914383"><ele>92.0</ele><time>2026-05-04T10:34:33.793Z</time></trkpt><trkpt lat="52.631765" lon="-1.491325"><ele>92.0</ele><time>2026-05-04T10:34:34.794Z</time></trkpt><trkpt lat="52.6315917" lon="-1.4912117"><ele>92.0</ele><time>2026-05-04T10:34:35.794Z</time></trkpt><trkpt lat="52.6314183" lon="-1.4910983"><ele>92.0</ele><time>2026-05-04T10:34:36.794Z</time></trkpt><trkpt lat="52.631245" lon="-1.4909867"><ele>92.0</ele><time>2026-05-04T10:34:37.794Z</time></trkpt><trkpt lat="52.631075" lon="-1.4908717"><ele>93.33333333333334</ele><time>2026-05-04T10:34:38.794Z</time></trkpt><trkpt lat="52.6308983" lon="-1.4907567"><ele>94.66666666666667</ele><time>2026-05-04T10:34:39.793Z</time></trkpt><trkpt lat="52.6307233" lon="-1.4906433"><ele>96.0</ele><time>2026-05-04T10:34:40.793Z</time></trkpt><trkpt lat="52.6305483" lon="-1.49053"><ele>95.33333333333333</ele><time>2026-05-04T10:34:41.794Z</time></trkpt><trkpt lat="52.6303767" lon="-1.4904083"><ele>94.66666666666666</ele><time>2026-05-04T10:34:42.792Z</time></trkpt><trkpt lat="52.6302083" lon="-1.490275"><ele>94.0</ele><time>2026-05-04T10:34:43.796Z</time></trkpt><trkpt lat="52.6300433" lon="-1.4901333"><ele>94.0</ele><time>2026-05-04T10:34:44.793Z</time></trkpt><trkpt lat="52.6298783" lon="-1.4899817"><ele>94.0</ele><time>2026-05-04T10:34:45.793Z</time></trkpt><trkpt lat="52.6297183" lon="-1.4898217"><ele>94.0</ele><time>2026-05-04T10:34:46.793Z</time></trkpt><trkpt lat="52.62956" lon="-1.4896567"><ele>93.0</ele><time>2026-05-04T10:34:47.794Z</time></trkpt><trkpt lat="52.629405" lon="-1.4894817"><ele>92.0</ele><time>2026-05-04T10:34:48.793Z</time></trkpt><trkpt lat="52.6292533" lon="-1.4893"><ele>91.0</ele><time>2026-05-04T10:34:49.794Z</time></trkpt><trkpt lat="52.6291017" lon="-1.4891133"><ele>91.0</ele><time>2026-05-04T10:34:50.795Z</time></trkpt><trkpt lat="52.6289567" lon="-1.4889183"><ele>91.0</ele><time>2026-05-04T10:34:51.792Z</time></trkpt><trkpt lat="52.628815" lon="-1.4887167"><ele>91.0</ele><time>2026-05-04T10:34:52.794Z</time></trkpt><trkpt lat="52.6286767" lon="-1.4885033"><ele>90.33333333333333</ele><time>2026-05-04T10:34:53.795Z</time></trkpt><trkpt lat="52.6285483" lon="-1.488275"><ele>89.66666666666667</ele><time>2026-05-04T10:34:54.795Z</time></trkpt><trkpt lat="52.6284283" lon="-1.4880333"><ele>89.0</ele><time>2026-05-04T10:34:55.795Z</time></trkpt><trkpt lat="52.6283133" lon="-1.4877867"><ele>88.66666666666667</ele><time>2026-05-04T10:34:56.795Z</time></trkpt><trkpt lat="52.6282" lon="-1.4875417"><ele>88.33333333333333</ele><time>2026-05-04T10:34:57.791Z</time></trkpt><trkpt lat="52.6280933" lon="-1.4872967"><ele>88.0</ele><time>2026-05-04T10:34:58.794Z</time></trkpt><trkpt lat="52.6279833" lon="-1.48705"><ele>87.66666666666666</ele><time>2026-05-04T10:34:59.791Z</time></trkpt><trkpt lat="52.6278733" lon="-1.4868033"><ele>87.33333333333333</ele><time>2026-05-04T10:35:00.792Z</time></trkpt><trkpt lat="52.6277633" lon="-1.48656"><ele>87.0</ele><time>2026-05-04T10:35:01.793Z</time></trkpt><trkpt lat="52.6276483" lon="-1.4863133"><ele>87.33333333333333</ele><time>2026-05-04T10:35:02.792Z</time></trkpt><trkpt lat="52.6275367" lon="-1.48607"><ele>87.66666666666666</ele><time>2026-05-04T10:35:03.793Z</time></trkpt><trkpt lat="52.627425" lon="-1.4858217"><ele>88.0</ele><time>2026-05-04T10:35:04.793Z</time></trkpt><trkpt lat="52.6273117" lon="-1.4855717"><ele>88.0</ele><time>2026-05-04T10:35:05.792Z</time></trkpt><trkpt lat="52.6271933" lon="-1.4853217"><ele>88.0</ele><time>2026-05-04T10:35:06.793Z</time></trkpt><trkpt lat="52.6270733" lon="-1.48508"><ele>88.0</ele><time>2026-05-04T10:35:07.794Z</time></trkpt><trkpt lat="52.626955" lon="-1.4848417"><ele>88.0</ele><time>2026-05-04T10:35:08.791Z</time></trkpt><trkpt lat="52.6268317" lon="-1.4846017"><ele>88.0</ele><time>2026-05-04T10:35:09.794Z</time></trkpt><trkpt lat="52.6267033" lon="-1.4843633"><ele>88.0</ele><time>2026-05-04T10:35:10.795Z</time></trkpt><trkpt lat="52.6265767" lon="-1.4841317"><ele>87.66666666666666</ele><time>2026-05-04T10:35:11.794Z</time></trkpt><trkpt lat="52.6264433" lon="-1.4839167"><ele>87.33333333333333</ele><time>2026-05-04T10:35:12.794Z</time></trkpt><trkpt lat="52.6263033" lon="-1.4837083"><ele>87.0</ele><time>2026-05-04T10:35:13.79Z</time></trkpt><trkpt lat="52.6261617" lon="-1.483515"><ele>86.0</ele><time>2026-05-04T10:35:14.794Z</time></trkpt><trkpt lat="52.6260133" lon="-1.4833333"><ele>85.0</ele><time>2026-05-04T10:35:15.793Z</time></trkpt><trkpt lat="52.62586" lon="-1.4831617"><ele>84.0</ele><time>2026-05-04T10:35:16.792Z</time></trkpt><trkpt lat="52.6256967" lon="-1.483005"><ele>84.0</ele><time>2026-05-04T10:35:17.794Z</time></trkpt><trkpt lat="52.62553" lon="-1.48287"><ele>84.0</ele><time>2026-05-04T10:35:18.794Z</time></trkpt><trkpt lat="52.6253583" lon="-1.4827533"><ele>84.0</ele><time>2026-05-04T10:35:19.793Z</time></trkpt><trkpt lat="52.625185" lon="-1.4826483"><ele>83.33333333333333</ele><time>2026-05-04T10:35:20.795Z</time></trkpt><trkpt lat="52.625005" lon="-1.48256"><ele>82.66666666666666</ele><time>2026-05-04T10:35:21.791Z</time></trkpt><trkpt lat="52.624825" lon="-1.4824833"><ele>82.0</ele><time>2026-05-04T10:35:22.794Z</time></trkpt><trkpt lat="52.62464" lon="-1.4824217"><ele>81.33333333333333</ele><time>2026-05-04T10:35:23.795Z</time></trkpt><trkpt lat="52.6244533" lon="-1.48237"><ele>80.66666666666667</ele><time>2026-05-04T10:35:24.794Z</time></trkpt><trkpt lat="52.624265" lon="-1.4823317"><ele>80.0</ele><time>2026-05-04T10:35:25.793Z</time></trkpt><trkpt lat="52.6240767" lon="-1.4823067"><ele>80.0</ele><time>2026-05-04T10:35:26.794Z</time></trkpt><trkpt lat="52.6238883" lon="-1.4822817"><ele>80.0</ele><time>2026-05-04T10:35:27.795Z</time></trkpt><trkpt lat="52.6237033" lon="-1.482255"><ele>80.0</ele><time>2026-05-04T10:35:28.794Z</time></trkpt><trkpt lat="52.6235183" lon="-1.482215"><ele>80.0</ele><time>2026-05-04T10:35:29.791Z</time></trkpt><trkpt lat="52.623335" lon="-1.482165"><ele>80.0</ele><time>2026-05-04T10:35:30.794Z</time></trkpt><trkpt lat="52.6231517" lon="-1.4821"><ele>80.0</ele><time>2026-05-04T10:35:31.792Z</time></trkpt><trkpt lat="52.6229717" lon="-1.4820233"><ele>80.33333333333334</ele><time>2026-05-04T10:35:32.792Z</time></trkpt><trkpt lat="52.6227917" lon="-1.481935"><ele>80.66666666666667</ele><time>2026-05-04T10:35:33.793Z</time></trkpt><trkpt lat="52.6226133" lon="-1.4818317"><ele>81.0</ele><time>2026-05-04T10:35:34.794Z</time></trkpt><trkpt lat="52.62244" lon="-1.48171"><ele>81.0</ele><time>2026-05-04T10:35:35.792Z</time></trkpt><trkpt lat="52.6222733" lon="-1.4815717"><ele>81.0</ele><time>2026-05-04T10:35:36.791Z</time></trkpt><trkpt lat="52.6221083" lon="-1.4814133"><ele>81.0</ele><time>2026-05-04T10:35:37.792Z</time></trkpt><trkpt lat="52.6219517" lon="-1.4812433"><ele>81.66666666666667</ele><time>2026-05-04T10:35:38.791Z</time></trkpt><trkpt lat="52.6217983" lon="-1.481065"><ele>82.33333333333334</ele><time>2026-05-04T10:35:39.792Z</time></trkpt><trkpt lat="52.6216467" lon="-1.48088"><ele>83.0</ele><time>2026-05-04T10:35:40.795Z</time></trkpt><trkpt lat="52.6214983" lon="-1.4806933"><ele>83.0</ele><time>2026-05-04T10:35:41.794Z</time></trkpt><trkpt lat="52.6213517" lon="-1.4805017"><ele>83.0</ele><time>2026-05-04T10:35:42.794Z</time></trkpt><trkpt lat="52.621205" lon="-1.48031"><ele>83.0</ele><time>2026-05-04T10:35:43.795Z</time></trkpt><trkpt lat="52.62106" lon="-1.4801167"><ele>84.0</ele><time>2026-05-04T10:35:44.794Z</time></trkpt><trkpt lat="52.62091" lon="-1.4799283"><ele>85.0</ele><time>2026-05-04T10:35:45.794Z</time></trkpt><trkpt lat="52.6207633" lon="-1.479735"><ele>86.0</ele><time>2026-05-04T10:35:46.795Z</time></trkpt><trkpt lat="52.6206183" lon="-1.4795417"><ele>86.33333333333334</ele><time>2026-05-04T10:35:47.791Z</time></trkpt><trkpt lat="52.6204733" lon="-1.4793517"><ele>86.66666666666667</ele><time>2026-05-04T10:35:48.795Z</time></trkpt><trkpt lat="52.6203283" lon="-1.479165"><ele>87.0</ele><time>2026-05-04T10:35:49.794Z</time></trkpt><trkpt lat="52.6201833" lon="-1.478975"><ele>97.0</ele><time>2026-05-04T10:35:50.795Z</time></trkpt><trkpt lat="52.6189583" lon="-1.477305"><ele>97.5</ele><time>2026-05-04T10:35:59.523Z</time></trkpt><trkpt lat="52.618685" lon="-1.4767433"><ele>98.0</ele><time>2026-05-04T10:36:01.791Z</time></trkpt><trkpt lat="52.6185517" lon="-1.4765167"><ele>99.0</ele><time>2026-05-04T10:36:02.789Z</time></trkpt><trkpt lat="52.6184083" lon="-1.4762967"><ele>100.0</ele><time>2026-05-04T10:36:03.791Z</time></trkpt><trkpt lat="52.6182717" lon="-1.4760783"><ele>101.0</ele><time>2026-05-04T10:36:04.791Z</time></trkpt><trkpt lat="52.61813" lon="-1.4758667"><ele>101.33333333333333</ele><time>2026-05-04T10:36:05.789Z</time></trkpt><trkpt lat="52.6179867" lon="-1.4756567"><ele>101.66666666666666</ele><time>2026-05-04T10:36:06.792Z</time></trkpt><trkpt lat="52.61784" lon="-1.4754533"><ele>102.0</ele><time>2026-05-04T10:36:07.791Z</time></trkpt><trkpt lat="52.6176917" lon="-1.47526"><ele>102.66666666666666</ele><time>2026-05-04T10:36:08.792Z</time></trkpt><trkpt lat="52.6175383" lon="-1.4750767"><ele>103.33333333333333</ele><time>2026-05-04T10:36:09.791Z</time></trkpt><trkpt lat="52.6173817" lon="-1.4749017"><ele>104.0</ele><time>2026-05-04T10:36:10.79Z</time></trkpt><trkpt lat="52.61722" lon="-1.4747367"><ele>104.0</ele><time>2026-05-04T10:36:11.791Z</time></trkpt><trkpt lat="52.617055" lon="-1.4745817"><ele>104.0</ele><time>2026-05-04T10:36:12.791Z</time></trkpt><trkpt lat="52.6168867" lon="-1.474445"><ele>104.0</ele><time>2026-05-04T10:36:13.792Z</time></trkpt><trkpt lat="52.6167167" lon="-1.4743233"><ele>104.0</ele><time>2026-05-04T10:36:14.792Z</time></trkpt><trkpt lat="52.6165417" lon="-1.474215"><ele>104.0</ele><time>2026-05-04T10:36:15.79Z</time></trkpt><trkpt lat="52.6163633" lon="-1.474115"><ele>104.0</ele><time>2026-05-04T10:36:16.79Z</time></trkpt><trkpt lat="52.6161833" lon="-1.474035"><ele>104.0</ele><time>2026-05-04T10:36:17.791Z</time></trkpt><trkpt lat="52.6160017" lon="-1.473965"><ele>104.0</ele><time>2026-05-04T10:36:18.792Z</time></trkpt><trkpt lat="52.6158183" lon="-1.4739067"><ele>104.0</ele><time>2026-05-04T10:36:19.792Z</time></trkpt><trkpt lat="52.6156333" lon="-1.473855"><ele>104.0</ele><time>2026-05-04T10:36:20.792Z</time></trkpt><trkpt lat="52.6154483" lon="-1.4738183"><ele>104.0</ele><time>2026-05-04T10:36:21.791Z</time></trkpt><trkpt lat="52.6152617" lon="-1.4738017"><ele>104.0</ele><time>2026-05-04T10:36:22.791Z</time></trkpt><trkpt lat="52.6150733" lon="-1.4738"><ele>103.66666666666666</ele><time>2026-05-04T10:36:23.792Z</time></trkpt><trkpt lat="52.6148867" lon="-1.47381"><ele>103.33333333333334</ele><time>2026-05-04T10:36:24.792Z</time></trkpt><trkpt lat="52.6146983" lon="-1.473835"><ele>103.0</ele><time>2026-05-04T10:36:25.791Z</time></trkpt><trkpt lat="52.61451" lon="-1.4738733"><ele>103.0</ele><time>2026-05-04T10:36:26.793Z</time></trkpt><trkpt lat="52.6143233" lon="-1.4739167"><ele>103.0</ele><time>2026-05-04T10:36:27.791Z</time></trkpt><trkpt lat="52.6141367" lon="-1.473965"><ele>103.0</ele><time>2026-05-04T10:36:28.792Z</time></trkpt><trkpt lat="52.6139517" lon="-1.47402"><ele>103.0</ele><time>2026-05-04T10:36:29.791Z</time></trkpt><trkpt lat="52.6137667" lon="-1.4740783"><ele>103.0</ele><time>2026-05-04T10:36:30.792Z</time></trkpt><trkpt lat="52.6135817" lon="-1.47414"><ele>103.0</ele><time>2026-05-04T10:36:31.792Z</time></trkpt><trkpt lat="52.6133983" lon="-1.4742133"><ele>102.66666666666667</ele><time>2026-05-04T10:36:32.792Z</time></trkpt><trkpt lat="52.6132233" lon="-1.4743117"><ele>102.33333333333334</ele><time>2026-05-04T10:36:33.792Z</time></trkpt><trkpt lat="52.61305" lon="-1.4744296"><ele>102.0</ele><time>2026-05-04T10:36:34.791Z</time></trkpt><trkpt lat="52.6128793" lon="-1.4745639"><ele>101.0</ele><time>2026-05-04T10:36:35.792Z</time></trkpt><trkpt lat="52.6127042" lon="-1.4746885"><ele>100.0</ele><time>2026-05-04T10:36:36.792Z</time></trkpt><trkpt lat="52.6125258" lon="-1.4747902"><ele>99.0</ele><time>2026-05-04T10:36:37.792Z</time></trkpt><trkpt lat="52.6123452" lon="-1.474874"><ele>99.0</ele><time>2026-05-04T10:36:38.791Z</time></trkpt><trkpt lat="52.6121607" lon="-1.4749471"><ele>99.0</ele><time>2026-05-04T10:36:39.791Z</time></trkpt><trkpt lat="52.6119756" lon="-1.4750203"><ele>99.0</ele><time>2026-05-04T10:36:40.792Z</time></trkpt><trkpt lat="52.6117921" lon="-1.4750985"><ele>98.33333333333334</ele><time>2026-05-04T10:36:41.792Z</time></trkpt><trkpt lat="52.61161" lon="-1.4751831"><ele>97.66666666666667</ele><time>2026-05-04T10:36:42.791Z</time></trkpt><trkpt lat="52.6114322" lon="-1.4752814"><ele>97.0</ele><time>2026-05-04T10:36:43.792Z</time></trkpt><trkpt lat="52.611257" lon="-1.4753883"><ele>97.0</ele><time>2026-05-04T10:36:44.792Z</time></trkpt><trkpt lat="52.6110824" lon="-1.4754916"><ele>97.0</ele><time>2026-05-04T10:36:45.791Z</time></trkpt><trkpt lat="52.6109072" lon="-1.4755865"><ele>97.0</ele><time>2026-05-04T10:36:46.791Z</time></trkpt><trkpt lat="52.6107293" lon="-1.4756718"><ele>97.0</ele><time>2026-05-04T10:36:47.792Z</time></trkpt><trkpt lat="52.6105476" lon="-1.4757455"><ele>97.0</ele><time>2026-05-04T10:36:48.792Z</time></trkpt><trkpt lat="52.6103627" lon="-1.4758089"><ele>97.0</ele><time>2026-05-04T10:36:49.792Z</time></trkpt><trkpt lat="52.6101771" lon="-1.475866"><ele>97.33333333333334</ele><time>2026-05-04T10:36:50.792Z</time></trkpt><trkpt lat="52.6099904" lon="-1.4759212"><ele>97.66666666666666</ele><time>2026-05-04T10:36:51.793Z</time></trkpt><trkpt lat="52.6098047" lon="-1.4759799"><ele>98.0</ele><time>2026-05-04T10:36:52.792Z</time></trkpt><trkpt lat="52.6096208" lon="-1.4760496"><ele>97.33333333333333</ele><time>2026-05-04T10:36:53.793Z</time></trkpt><trkpt lat="52.6094374" lon="-1.4761322"><ele>96.66666666666666</ele><time>2026-05-04T10:36:54.792Z</time></trkpt><trkpt lat="52.6092569" lon="-1.4762268"><ele>96.0</ele><time>2026-05-04T10:36:55.793Z</time></trkpt><trkpt lat="52.6090784" lon="-1.4763229"><ele>96.0</ele><time>2026-05-04T10:36:56.793Z</time></trkpt><trkpt lat="52.6088992" lon="-1.4764158"><ele>96.0</ele><time>2026-05-04T10:36:57.792Z</time></trkpt><trkpt lat="52.6087204" lon="-1.4765079"><ele>96.0</ele><time>2026-05-04T10:36:58.793Z</time></trkpt><trkpt lat="52.6085449" lon="-1.4765944"><ele>95.66666666666667</ele><time>2026-05-04T10:36:59.792Z</time></trkpt><trkpt lat="52.6083754" lon="-1.4766728"><ele>95.33333333333334</ele><time>2026-05-04T10:37:00.792Z</time></trkpt><trkpt lat="52.6082129" lon="-1.476737"><ele>95.0</ele><time>2026-05-04T10:37:01.792Z</time></trkpt><trkpt lat="52.6080561" lon="-1.4767864"><ele>95.0</ele><time>2026-05-04T10:37:02.792Z</time></trkpt><trkpt lat="52.6079062" lon="-1.4768293"><ele>95.0</ele><time>2026-05-04T10:37:03.792Z</time></trkpt><trkpt lat="52.607763" lon="-1.4768681"><ele>95.0</ele><time>2026-05-04T10:37:04.793Z</time></trkpt><trkpt lat="52.6076223" lon="-1.4769028"><ele>95.0</ele><time>2026-05-04T10:37:05.792Z</time></trkpt><trkpt lat="52.6074837" lon="-1.476941"><ele>94.5</ele><time>2026-05-04T10:37:06.793Z</time></trkpt><trkpt lat="52.607346" lon="-1.4769795"><ele>94.0</ele><time>2026-05-04T10:37:07.793Z</time></trkpt><trkpt lat="52.6072037" lon="-1.4770209"><ele>93.5</ele><time>2026-05-04T10:37:08.796Z</time></trkpt><trkpt lat="52.6070577" lon="-1.4770621"><ele>93.0</ele><time>2026-05-04T10:37:09.795Z</time></trkpt><trkpt lat="52.6069092" lon="-1.4771009"><ele>93.5</ele><time>2026-05-04T10:37:10.795Z</time></trkpt><trkpt lat="52.606759" lon="-1.4771317"><ele>94.0</ele><time>2026-05-04T10:37:11.795Z</time></trkpt><trkpt lat="52.6066099" lon="-1.4771554"><ele>94.5</ele><time>2026-05-04T10:37:12.796Z</time></trkpt><trkpt lat="52.6064626" lon="-1.477169"><ele>95.0</ele><time>2026-05-04T10:37:13.792Z</time></trkpt><trkpt lat="52.6063155" lon="-1.4771742"><ele>95.0</ele><time>2026-05-04T10:37:14.793Z</time></trkpt><trkpt lat="52.6061689" lon="-1.4771771"><ele>95.0</ele><time>2026-05-04T10:37:15.796Z</time></trkpt><trkpt lat="52.6060197" lon="-1.4771707"><ele>95.0</ele><time>2026-05-04T10:37:16.795Z</time></trkpt><trkpt lat="52.60587" lon="-1.4771633"><ele>95.0</ele><time>2026-05-04T10:37:17.791Z</time></trkpt><trkpt lat="52.6057198" lon="-1.4771478"><ele>95.0</ele><time>2026-05-04T10:37:18.795Z</time></trkpt><trkpt lat="52.6055724" lon="-1.4771268"><ele>95.0</ele><time>2026-05-04T10:37:19.795Z</time></trkpt><trkpt lat="52.6054246" lon="-1.4771042"><ele>95.0</ele><time>2026-05-04T10:37:20.791Z</time></trkpt><trkpt lat="52.6052776" lon="-1.4770748"><ele>95.0</ele><time>2026-05-04T10:37:21.791Z</time></trkpt><trkpt lat="52.6051321" lon="-1.477035"><ele>94.25</ele><time>2026-05-04T10:37:22.791Z</time></trkpt><trkpt lat="52.6049896" lon="-1.476986"><ele>93.5</ele><time>2026-05-04T10:37:23.792Z</time></trkpt><trkpt lat="52.6048467" lon="-1.4769283"><ele>92.75</ele><time>2026-05-04T10:37:24.793Z</time></trkpt><trkpt lat="52.6047052" lon="-1.4768646"><ele>92.0</ele><time>2026-05-04T10:37:25.792Z</time></trkpt><trkpt lat="52.6045625" lon="-1.4768063"><ele>91.0</ele><time>2026-05-04T10:37:26.792Z</time></trkpt><trkpt lat="52.6044209" lon="-1.4767447"><ele>90.0</ele><time>2026-05-04T10:37:27.791Z</time></trkpt><trkpt lat="52.6042768" lon="-1.4766759"><ele>89.0</ele><time>2026-05-04T10:37:28.792Z</time></trkpt><trkpt lat="52.6041319" lon="-1.4766109"><ele>88.0</ele><time>2026-05-04T10:37:29.792Z</time></trkpt><trkpt lat="52.60399" lon="-1.4765587"><ele>88.0</ele><time>2026-05-04T10:37:30.795Z</time></trkpt><trkpt lat="52.6038421" lon="-1.4765251"><ele>88.0</ele><time>2026-05-04T10:37:31.792Z</time></trkpt><trkpt lat="52.6036923" lon="-1.476503"><ele>88.0</ele><time>2026-05-04T10:37:32.792Z</time></trkpt><trkpt lat="52.6035421" lon="-1.4764949"><ele>86.33333333333333</ele><time>2026-05-04T10:37:33.792Z</time></trkpt><trkpt lat="52.6033907" lon="-1.4764992"><ele>84.66666666666667</ele><time>2026-05-04T10:37:34.79Z</time></trkpt><trkpt lat="52.6032389" lon="-1.4765101"><ele>83.0</ele><time>2026-05-04T10:37:35.792Z</time></trkpt><trkpt lat="52.6030885" lon="-1.4765279"><ele>83.0</ele><time>2026-05-04T10:37:36.791Z</time></trkpt><trkpt lat="52.6029422" lon="-1.4765497"><ele>83.0</ele><time>2026-05-04T10:37:37.791Z</time></trkpt><trkpt lat="52.6027932" lon="-1.4765771"><ele>83.0</ele><time>2026-05-04T10:37:38.791Z</time></trkpt><trkpt lat="52.6026448" lon="-1.4766055"><ele>83.0</ele><time>2026-05-04T10:37:39.792Z</time></trkpt><trkpt lat="52.6024965" lon="-1.4766339"><ele>82.0</ele><time>2026-05-04T10:37:40.792Z</time></trkpt><trkpt lat="52.602345" lon="-1.4766667"><ele>81.0</ele><time>2026-05-04T10:37:41.792Z</time></trkpt><trkpt lat="52.602195" lon="-1.4766983"><ele>80.0</ele><time>2026-05-04T10:37:42.795Z</time></trkpt><trkpt lat="52.6020483" lon="-1.47673"><ele>79.33333333333334</ele><time>2026-05-04T10:37:43.791Z</time></trkpt><trkpt lat="52.6018967" lon="-1.476765"><ele>78.66666666666667</ele><time>2026-05-04T10:37:44.797Z</time></trkpt><trkpt lat="52.6017433" lon="-1.4768033"><ele>78.0</ele><time>2026-05-04T10:37:45.795Z</time></trkpt><trkpt lat="52.6015817" lon="-1.4768333"><ele>78.0</ele><time>2026-05-04T10:37:46.794Z</time></trkpt><trkpt lat="52.6014133" lon="-1.4768767"><ele>78.0</ele><time>2026-05-04T10:37:47.795Z</time></trkpt><trkpt lat="52.60124" lon="-1.4769217"><ele>78.0</ele><time>2026-05-04T10:37:48.795Z</time></trkpt><trkpt lat="52.601065" lon="-1.4769633"><ele>77.66666666666667</ele><time>2026-05-04T10:37:49.795Z</time></trkpt><trkpt lat="52.6008867" lon="-1.4770083"><ele>77.33333333333334</ele><time>2026-05-04T10:37:50.795Z</time></trkpt><trkpt lat="52.6007067" lon="-1.4770533"><ele>77.0</ele><time>2026-05-04T10:37:51.796Z</time></trkpt><trkpt lat="52.6005233" lon="-1.4771"><ele>77.0</ele><time>2026-05-04T10:37:52.796Z</time></trkpt><trkpt lat="52.6003383" lon="-1.4771483"><ele>77.0</ele><time>2026-05-04T10:37:53.795Z</time></trkpt><trkpt lat="52.6001533" lon="-1.4772"><ele>77.0</ele><time>2026-05-04T10:37:54.795Z</time></trkpt><trkpt lat="52.5999683" lon="-1.47725"><ele>77.0</ele><time>2026-05-04T10:37:55.796Z</time></trkpt><trkpt lat="52.5997833" lon="-1.4772983"><ele>77.0</ele><time>2026-05-04T10:37:56.795Z</time></trkpt><trkpt lat="52.5995983" lon="-1.4773433"><ele>77.0</ele><time>2026-05-04T10:37:57.791Z</time></trkpt><trkpt lat="52.5994133" lon="-1.4773917"><ele>76.33333333333334</ele><time>2026-05-04T10:37:58.792Z</time></trkpt><trkpt lat="52.5992317" lon="-1.4774483"><ele>75.66666666666667</ele><time>2026-05-04T10:37:59.792Z</time></trkpt><trkpt lat="52.59905" lon="-1.47752"><ele>75.0</ele><time>2026-05-04T10:38:00.795Z</time></trkpt><trkpt lat="52.5988683" lon="-1.477605"><ele>75.0</ele><time>2026-05-04T10:38:01.795Z</time></trkpt><trkpt lat="52.5986917" lon="-1.4777033"><ele>75.0</ele><time>2026-05-04T10:38:02.795Z</time></trkpt><trkpt lat="52.5985167" lon="-1.4778133"><ele>75.0</ele><time>2026-05-04T10:38:03.795Z</time></trkpt><trkpt lat="52.598345" lon="-1.4779267"><ele>76.33333333333333</ele><time>2026-05-04T10:38:04.792Z</time></trkpt><trkpt lat="52.598175" lon="-1.4780467"><ele>77.66666666666666</ele><time>2026-05-04T10:38:05.793Z</time></trkpt><trkpt lat="52.5980017" lon="-1.47816"><ele>79.0</ele><time>2026-05-04T10:38:06.791Z</time></trkpt><trkpt lat="52.59783" lon="-1.4782717"><ele>79.33333333333333</ele><time>2026-05-04T10:38:07.792Z</time></trkpt><trkpt lat="52.597655" lon="-1.4783783"><ele>79.66666666666667</ele><time>2026-05-04T10:38:08.792Z</time></trkpt><trkpt lat="52.5974783" lon="-1.4784733"><ele>80.0</ele><time>2026-05-04T10:38:09.792Z</time></trkpt><trkpt lat="52.5973" lon="-1.4785583"><ele>80.0</ele><time>2026-05-04T10:38:10.796Z</time></trkpt><trkpt lat="52.5971167" lon="-1.4786133"><ele>80.0</ele><time>2026-05-04T10:38:11.794Z</time></trkpt><trkpt lat="52.5969333" lon="-1.4786467"><ele>80.0</ele><time>2026-05-04T10:38:12.795Z</time></trkpt><trkpt lat="52.5967467" lon="-1.4786617"><ele>80.66666666666667</ele><time>2026-05-04T10:38:13.795Z</time></trkpt><trkpt lat="52.5965633" lon="-1.4786633"><ele>81.33333333333333</ele><time>2026-05-04T10:38:14.795Z</time></trkpt><trkpt lat="52.59638" lon="-1.478655"><ele>82.0</ele><time>2026-05-04T10:38:15.796Z</time></trkpt><trkpt lat="52.5961917" lon="-1.4786417"><ele>83.0</ele><time>2026-05-04T10:38:16.796Z</time></trkpt><trkpt lat="52.5960017" lon="-1.47863"><ele>84.0</ele><time>2026-05-04T10:38:17.796Z</time></trkpt><trkpt lat="52.5958133" lon="-1.4786083"><ele>85.0</ele><time>2026-05-04T10:38:18.795Z</time></trkpt><trkpt lat="52.5956233" lon="-1.478575"><ele>85.0</ele><time>2026-05-04T10:38:19.795Z</time></trkpt><trkpt lat="52.5954333" lon="-1.47853"><ele>85.0</ele><time>2026-05-04T10:38:20.796Z</time></trkpt><trkpt lat="52.595245" lon="-1.4784783"><ele>85.0</ele><time>2026-05-04T10:38:21.794Z</time></trkpt><trkpt lat="52.59506" lon="-1.4784283"><ele>85.33333333333333</ele><time>2026-05-04T10:38:22.796Z</time></trkpt><trkpt lat="52.594875" lon="-1.478375"><ele>85.66666666666667</ele><time>2026-05-04T10:38:23.796Z</time></trkpt><trkpt lat="52.5946933" lon="-1.4783283"><ele>86.0</ele><time>2026-05-04T10:38:24.796Z</time></trkpt><trkpt lat="52.59451" lon="-1.4782783"><ele>86.66666666666667</ele><time>2026-05-04T10:38:25.796Z</time></trkpt><trkpt lat="52.5943267" lon="-1.4782217"><ele>87.33333333333333</ele><time>2026-05-04T10:38:26.796Z</time></trkpt><trkpt lat="52.5941483" lon="-1.4781633"><ele>88.0</ele><time>2026-05-04T10:38:27.791Z</time></trkpt><trkpt lat="52.5939667" lon="-1.47811"><ele>88.0</ele><time>2026-05-04T10:38:28.793Z</time></trkpt><trkpt lat="52.5937833" lon="-1.4780583"><ele>88.0</ele><time>2026-05-04T10:38:29.794Z</time></trkpt><trkpt lat="52.5935983" lon="-1.4780167"><ele>88.0</ele><time>2026-05-04T10:38:30.794Z</time></trkpt><trkpt lat="52.5934083" lon="-1.4779883"><ele>88.0</ele><time>2026-05-04T10:38:31.795Z</time></trkpt><trkpt lat="52.5932183" lon="-1.47797"><ele>88.0</ele><time>2026-05-04T10:38:32.795Z</time></trkpt><trkpt lat="52.59303" lon="-1.477965"><ele>88.0</ele><time>2026-05-04T10:38:33.796Z</time></trkpt><trkpt lat="52.5928417" lon="-1.477975"><ele>88.0</ele><time>2026-05-04T10:38:34.795Z</time></trkpt><trkpt lat="52.5926533" lon="-1.47799"><ele>88.0</ele><time>2026-05-04T10:38:35.791Z</time></trkpt><trkpt lat="52.5924633" lon="-1.4780133"><ele>88.0</ele><time>2026-05-04T10:38:36.791Z</time></trkpt><trkpt lat="52.592275" lon="-1.4780433"><ele>88.0</ele><time>2026-05-04T10:38:37.791Z</time></trkpt><trkpt lat="52.5920867" lon="-1.4780733"><ele>88.0</ele><time>2026-05-04T10:38:38.795Z</time></trkpt><trkpt lat="52.5918983" lon="-1.4781033"><ele>88.0</ele><time>2026-05-04T10:38:39.795Z</time></trkpt><trkpt lat="52.5917117" lon="-1.4781317"><ele>87.66666666666666</ele><time>2026-05-04T10:38:40.791Z</time></trkpt><trkpt lat="52.591525" lon="-1.478165"><ele>87.33333333333333</ele><time>2026-05-04T10:38:41.795Z</time></trkpt><trkpt lat="52.59134" lon="-1.478195"><ele>87.0</ele><time>2026-05-04T10:38:42.792Z</time></trkpt><trkpt lat="52.5911533" lon="-1.47823"><ele>87.0</ele><time>2026-05-04T10:38:43.792Z</time></trkpt><trkpt lat="52.5909683" lon="-1.4782633"><ele>87.0</ele><time>2026-05-04T10:38:44.792Z</time></trkpt><trkpt lat="52.590785" lon="-1.4783"><ele>87.0</ele><time>2026-05-04T10:38:45.792Z</time></trkpt><trkpt lat="52.5905983" lon="-1.4783333"><ele>87.0</ele><time>2026-05-04T10:38:46.795Z</time></trkpt><trkpt lat="52.5904117" lon="-1.47836"><ele>87.0</ele><time>2026-05-04T10:38:47.794Z</time></trkpt><trkpt lat="52.5902283" lon="-1.4783933"><ele>87.0</ele><time>2026-05-04T10:38:48.794Z</time></trkpt><trkpt lat="52.5900467" lon="-1.4784333"><ele>87.66666666666667</ele><time>2026-05-04T10:38:49.795Z</time></trkpt><trkpt lat="52.58986" lon="-1.4784683"><ele>88.33333333333334</ele><time>2026-05-04T10:38:50.795Z</time></trkpt><trkpt lat="52.5896767" lon="-1.4785067"><ele>89.0</ele><time>2026-05-04T10:38:51.795Z</time></trkpt><trkpt lat="52.589495" lon="-1.4785483"><ele>90.33333333333334</ele><time>2026-05-04T10:38:52.794Z</time></trkpt><trkpt lat="52.5893117" lon="-1.4785883"><ele>91.66666666666667</ele><time>2026-05-04T10:38:53.795Z</time></trkpt><trkpt lat="52.5891283" lon="-1.47863"><ele>93.0</ele><time>2026-05-04T10:38:54.794Z</time></trkpt><trkpt lat="52.5889433" lon="-1.4786717"><ele>93.0</ele><time>2026-05-04T10:38:55.794Z</time></trkpt><trkpt lat="52.58876" lon="-1.4787117"><ele>93.0</ele><time>2026-05-04T10:38:56.792Z</time></trkpt><trkpt lat="52.5885767" lon="-1.4787533"><ele>93.0</ele><time>2026-05-04T10:38:57.792Z</time></trkpt><trkpt lat="52.5883917" lon="-1.478795"><ele>93.66666666666667</ele><time>2026-05-04T10:38:58.791Z</time></trkpt><trkpt lat="52.5882033" lon="-1.4788333"><ele>94.33333333333334</ele><time>2026-05-04T10:38:59.794Z</time></trkpt><trkpt lat="52.5880133" lon="-1.478875"><ele>95.0</ele><time>2026-05-04T10:39:00.793Z</time></trkpt><trkpt lat="52.5878217" lon="-1.4789183"><ele>95.0</ele><time>2026-05-04T10:39:01.794Z</time></trkpt><trkpt lat="52.5876333" lon="-1.47896"><ele>95.0</ele><time>2026-05-04T10:39:02.795Z</time></trkpt><trkpt lat="52.5874483" lon="-1.479"><ele>95.0</ele><time>2026-05-04T10:39:03.791Z</time></trkpt><trkpt lat="52.5872633" lon="-1.4790367"><ele>95.0</ele><time>2026-05-04T10:39:04.794Z</time></trkpt><trkpt lat="52.587075" lon="-1.479065"><ele>95.0</ele><time>2026-05-04T10:39:05.795Z</time></trkpt><trkpt lat="52.5868867" lon="-1.47909"><ele>95.0</ele><time>2026-05-04T10:39:06.795Z</time></trkpt><trkpt lat="52.5867033" lon="-1.4791133"><ele>94.66666666666667</ele><time>2026-05-04T10:39:07.795Z</time></trkpt><trkpt lat="52.5865183" lon="-1.479125"><ele>94.33333333333333</ele><time>2026-05-04T10:39:08.794Z</time></trkpt><trkpt lat="52.5863283" lon="-1.479125"><ele>94.0</ele><time>2026-05-04T10:39:09.794Z</time></trkpt><trkpt lat="52.5861383" lon="-1.479115"><ele>94.0</ele><time>2026-05-04T10:39:10.796Z</time></trkpt><trkpt lat="52.5859467" lon="-1.4790883"><ele>94.0</ele><time>2026-05-04T10:39:11.795Z</time></trkpt><trkpt lat="52.5857567" lon="-1.4790483"><ele>94.0</ele><time>2026-05-04T10:39:12.791Z</time></trkpt><trkpt lat="52.58558" lon="-1.4789917"><ele>94.0</ele><time>2026-05-04T10:39:13.795Z</time></trkpt><trkpt lat="52.5854017" lon="-1.478925"><ele>94.0</ele><time>2026-05-04T10:39:14.796Z</time></trkpt><trkpt lat="52.58522" lon="-1.4788467"><ele>94.0</ele><time>2026-05-04T10:39:15.794Z</time></trkpt><trkpt lat="52.5850417" lon="-1.4787667"><ele>94.0</ele><time>2026-05-04T10:39:16.794Z</time></trkpt><trkpt lat="52.58486" lon="-1.478685"><ele>94.0</ele><time>2026-05-04T10:39:17.793Z</time></trkpt><trkpt lat="52.5846817" lon="-1.4786"><ele>94.0</ele><time>2026-05-04T10:39:18.792Z</time></trkpt><trkpt lat="52.5845017" lon="-1.4785083"><ele>92.66666666666666</ele><time>2026-05-04T10:39:19.793Z</time></trkpt><trkpt lat="52.5843217" lon="-1.4784167"><ele>91.33333333333333</ele><time>2026-05-04T10:39:20.791Z</time></trkpt><trkpt lat="52.5841417" lon="-1.4783267"><ele>90.0</ele><time>2026-05-04T10:39:21.791Z</time></trkpt><trkpt lat="52.583965" lon="-1.47823"><ele>90.0</ele><time>2026-05-04T10:39:22.792Z</time></trkpt><trkpt lat="52.5837867" lon="-1.4781217"><ele>90.0</ele><time>2026-05-04T10:39:23.792Z</time></trkpt><trkpt lat="52.5836117" lon="-1.478"><ele>90.0</ele><time>2026-05-04T10:39:24.791Z</time></trkpt><trkpt lat="52.5834417" lon="-1.477875"><ele>89.66666666666667</ele><time>2026-05-04T10:39:25.793Z</time></trkpt><trkpt lat="52.5832683" lon="-1.4777533"><ele>89.33333333333334</ele><time>2026-05-04T10:39:26.792Z</time></trkpt><trkpt lat="52.5830967" lon="-1.4776383"><ele>89.0</ele><time>2026-05-04T10:39:27.792Z</time></trkpt><trkpt lat="52.5829217" lon="-1.4775333"><ele>88.66666666666667</ele><time>2026-05-04T10:39:28.792Z</time></trkpt><trkpt lat="52.5827467" lon="-1.47744"><ele>88.33333333333333</ele><time>2026-05-04T10:39:29.792Z</time></trkpt><trkpt lat="52.5825633" lon="-1.4773683"><ele>88.0</ele><time>2026-05-04T10:39:30.795Z</time></trkpt><trkpt lat="52.58238" lon="-1.4773117"><ele>88.0</ele><time>2026-05-04T10:39:31.796Z</time></trkpt><trkpt lat="52.5821967" lon="-1.477275"><ele>88.0</ele><time>2026-05-04T10:39:32.792Z</time></trkpt><trkpt lat="52.5820133" lon="-1.477255"><ele>88.0</ele><time>2026-05-04T10:39:33.791Z</time></trkpt><trkpt lat="52.58183" lon="-1.4772467"><ele>88.0</ele><time>2026-05-04T10:39:34.793Z</time></trkpt><trkpt lat="52.58164" lon="-1.4772467"><ele>88.0</ele><time>2026-05-04T10:39:35.792Z</time></trkpt><trkpt lat="52.5814467" lon="-1.4772517"><ele>88.0</ele><time>2026-05-04T10:39:36.795Z</time></trkpt><trkpt lat="52.581255" lon="-1.4772667"><ele>88.33333333333333</ele><time>2026-05-04T10:39:37.791Z</time></trkpt><trkpt lat="52.581065" lon="-1.477285"><ele>88.66666666666667</ele><time>2026-05-04T10:39:38.791Z</time></trkpt><trkpt lat="52.58088" lon="-1.4773267"><ele>89.0</ele><time>2026-05-04T10:39:39.794Z</time></trkpt><trkpt lat="52.5807033" lon="-1.4774"><ele>89.0</ele><time>2026-05-04T10:39:40.794Z</time></trkpt><trkpt lat="52.5805333" lon="-1.4775033"><ele>89.0</ele><time>2026-05-04T10:39:41.792Z</time></trkpt><trkpt lat="52.580365" lon="-1.4776283"><ele>89.0</ele><time>2026-05-04T10:39:42.795Z</time></trkpt><trkpt lat="52.5801983" lon="-1.4777667"><ele>89.0</ele><time>2026-05-04T10:39:43.795Z</time></trkpt><trkpt lat="52.5800367" lon="-1.4779133"><ele>89.0</ele><time>2026-05-04T10:39:44.792Z</time></trkpt><trkpt lat="52.5798667" lon="-1.4780433"><ele>89.0</ele><time>2026-05-04T10:39:45.792Z</time></trkpt><trkpt lat="52.579695" lon="-1.478165"><ele>89.0</ele><time>2026-05-04T10:39:46.792Z</time></trkpt><trkpt lat="52.57952" lon="-1.47828"><ele>89.0</ele><time>2026-05-04T10:39:47.792Z</time></trkpt><trkpt lat="52.57934" lon="-1.4783733"><ele>89.0</ele><time>2026-05-04T10:39:48.791Z</time></trkpt><trkpt lat="52.5791583" lon="-1.4784617"><ele>89.0</ele><time>2026-05-04T10:39:49.793Z</time></trkpt><trkpt lat="52.5789783" lon="-1.478545"><ele>89.0</ele><time>2026-05-04T10:39:50.792Z</time></trkpt><trkpt lat="52.5787917" lon="-1.4786233"><ele>89.0</ele><time>2026-05-04T10:39:51.792Z</time></trkpt><trkpt lat="52.5786067" lon="-1.4786917"><ele>88.66666666666667</ele><time>2026-05-04T10:39:52.793Z</time></trkpt><trkpt lat="52.57842" lon="-1.4787483"><ele>88.33333333333333</ele><time>2026-05-04T10:39:53.792Z</time></trkpt><trkpt lat="52.578235" lon="-1.4787817"><ele>88.0</ele><time>2026-05-04T10:39:54.792Z</time></trkpt><trkpt lat="52.5780467" lon="-1.4787833"><ele>87.66666666666666</ele><time>2026-05-04T10:39:55.792Z</time></trkpt><trkpt lat="52.57786" lon="-1.4787667"><ele>87.33333333333333</ele><time>2026-05-04T10:39:56.791Z</time></trkpt><trkpt lat="52.577675" lon="-1.47874"><ele>87.0</ele><time>2026-05-04T10:39:57.792Z</time></trkpt><trkpt lat="52.577495" lon="-1.478705"><ele>87.0</ele><time>2026-05-04T10:39:58.792Z</time></trkpt><trkpt lat="52.5773183" lon="-1.4786717"><ele>87.0</ele><time>2026-05-04T10:39:59.792Z</time></trkpt><trkpt lat="52.5771467" lon="-1.4786633"><ele>87.0</ele><time>2026-05-04T10:40:00.791Z</time></trkpt><trkpt lat="52.5769717" lon="-1.4786967"><ele>87.0</ele><time>2026-05-04T10:40:01.792Z</time></trkpt><trkpt lat="52.5767867" lon="-1.4787783"><ele>87.0</ele><time>2026-05-04T10:40:02.791Z</time></trkpt><trkpt lat="52.5766017" lon="-1.47888"><ele>87.0</ele><time>2026-05-04T10:40:03.792Z</time></trkpt><trkpt lat="52.5764167" lon="-1.4789933"><ele>87.0</ele><time>2026-05-04T10:40:04.794Z</time></trkpt><trkpt lat="52.5762383" lon="-1.4791"><ele>87.0</ele><time>2026-05-04T10:40:05.792Z</time></trkpt><trkpt lat="52.5760617" lon="-1.4791817"><ele>87.0</ele><time>2026-05-04T10:40:06.795Z</time></trkpt><trkpt lat="52.57588" lon="-1.479235"><ele>87.0</ele><time>2026-05-04T10:40:07.793Z</time></trkpt><trkpt lat="52.5756967" lon="-1.4792583"><ele>87.0</ele><time>2026-05-04T10:40:08.791Z</time></trkpt><trkpt lat="52.5755117" lon="-1.47926"><ele>87.0</ele><time>2026-05-04T10:40:09.792Z</time></trkpt><trkpt lat="52.5753267" lon="-1.47923"><ele>86.66666666666667</ele><time>2026-05-04T10:40:10.793Z</time></trkpt><trkpt lat="52.5751433" lon="-1.479175"><ele>86.33333333333334</ele><time>2026-05-04T10:40:11.792Z</time></trkpt><trkpt lat="52.5749617" lon="-1.4791083"><ele>86.0</ele><time>2026-05-04T10:40:12.794Z</time></trkpt><trkpt lat="52.5747883" lon="-1.47903"><ele>86.0</ele><time>2026-05-04T10:40:13.793Z</time></trkpt><trkpt lat="52.57461" lon="-1.47896"><ele>86.0</ele><time>2026-05-04T10:40:14.793Z</time></trkpt><trkpt lat="52.5744333" lon="-1.4789117"><ele>86.0</ele><time>2026-05-04T10:40:15.795Z</time></trkpt><trkpt lat="52.5742583" lon="-1.47889"><ele>86.0</ele><time>2026-05-04T10:40:16.792Z</time></trkpt><trkpt lat="52.5740817" lon="-1.478895"><ele>86.0</ele><time>2026-05-04T10:40:17.79Z</time></trkpt><trkpt lat="52.5739033" lon="-1.4789333"><ele>86.0</ele><time>2026-05-04T10:40:18.792Z</time></trkpt><trkpt lat="52.5737283" lon="-1.479"><ele>86.33333333333334</ele><time>2026-05-04T10:40:19.792Z</time></trkpt><trkpt lat="52.5735567" lon="-1.4790867"><ele>86.66666666666667</ele><time>2026-05-04T10:40:20.792Z</time></trkpt><trkpt lat="52.5733833" lon="-1.4791917"><ele>87.0</ele><time>2026-05-04T10:40:21.791Z</time></trkpt><trkpt lat="52.57321" lon="-1.4793033"><ele>87.0</ele><time>2026-05-04T10:40:22.792Z</time></trkpt><trkpt lat="52.573035" lon="-1.4794067"><ele>87.0</ele><time>2026-05-04T10:40:23.792Z</time></trkpt><trkpt lat="52.5728617" lon="-1.4795083"><ele>87.0</ele><time>2026-05-04T10:40:24.792Z</time></trkpt><trkpt lat="52.5726917" lon="-1.47961"><ele>87.33333333333333</ele><time>2026-05-04T10:40:25.793Z</time></trkpt><trkpt lat="52.5725183" lon="-1.4797133"><ele>87.66666666666666</ele><time>2026-05-04T10:40:26.791Z</time></trkpt><trkpt lat="52.572345" lon="-1.4798167"><ele>88.0</ele><time>2026-05-04T10:40:27.791Z</time></trkpt><trkpt lat="52.5721667" lon="-1.4799217"><ele>88.66666666666666</ele><time>2026-05-04T10:40:28.792Z</time></trkpt><trkpt lat="52.5719867" lon="-1.48003"><ele>89.33333333333333</ele><time>2026-05-04T10:40:29.795Z</time></trkpt><trkpt lat="52.5718017" lon="-1.4801467"><ele>90.0</ele><time>2026-05-04T10:40:30.795Z</time></trkpt><trkpt lat="52.5716183" lon="-1.48027"><ele>90.0</ele><time>2026-05-04T10:40:31.791Z</time></trkpt><trkpt lat="52.5714367" lon="-1.480395"><ele>90.0</ele><time>2026-05-04T10:40:32.791Z</time></trkpt><trkpt lat="52.5712583" lon="-1.4805267"><ele>90.0</ele><time>2026-05-04T10:40:33.792Z</time></trkpt><trkpt lat="52.5710783" lon="-1.480655"><ele>90.33333333333333</ele><time>2026-05-04T10:40:34.791Z</time></trkpt><trkpt lat="52.5709" lon="-1.4807867"><ele>90.66666666666666</ele><time>2026-05-04T10:40:35.791Z</time></trkpt><trkpt lat="52.5707233" lon="-1.4809183"><ele>91.0</ele><time>2026-05-04T10:40:36.791Z</time></trkpt><trkpt lat="52.57055" lon="-1.4810533"><ele>91.0</ele><time>2026-05-04T10:40:37.792Z</time></trkpt><trkpt lat="52.57038" lon="-1.4811867"><ele>91.0</ele><time>2026-05-04T10:40:38.795Z</time></trkpt><trkpt lat="52.5702133" lon="-1.4813217"><ele>91.0</ele><time>2026-05-04T10:40:39.792Z</time></trkpt><trkpt lat="52.5700467" lon="-1.4814567"><ele>91.0</ele><time>2026-05-04T10:40:40.792Z</time></trkpt><trkpt lat="52.5698833" lon="-1.4816"><ele>91.0</ele><time>2026-05-04T10:40:41.791Z</time></trkpt><trkpt lat="52.5697117" lon="-1.48174"><ele>91.0</ele><time>2026-05-04T10:40:42.791Z</time></trkpt><trkpt lat="52.5695433" lon="-1.4818817"><ele>91.0</ele><time>2026-05-04T10:40:43.792Z</time></trkpt><trkpt lat="52.5693717" lon="-1.48202"><ele>91.0</ele><time>2026-05-04T10:40:44.795Z</time></trkpt><trkpt lat="52.5692017" lon="-1.4821567"><ele>91.0</ele><time>2026-05-04T10:40:45.791Z</time></trkpt><trkpt lat="52.5690333" lon="-1.4822883"><ele>91.0</ele><time>2026-05-04T10:40:46.795Z</time></trkpt><trkpt lat="52.5688567" lon="-1.4824083"><ele>91.0</ele><time>2026-05-04T10:40:47.792Z</time></trkpt><trkpt lat="52.56868" lon="-1.4825267"><ele>91.0</ele><time>2026-05-04T10:40:48.793Z</time></trkpt><trkpt lat="52.5684967" lon="-1.4826317"><ele>90.66666666666666</ele><time>2026-05-04T10:40:49.79Z</time></trkpt><trkpt lat="52.56832" lon="-1.4827267"><ele>90.33333333333333</ele><time>2026-05-04T10:40:50.791Z</time></trkpt><trkpt lat="52.5681333" lon="-1.4827983"><ele>90.0</ele><time>2026-05-04T10:40:51.792Z</time></trkpt><trkpt lat="52.567945" lon="-1.4828517"><ele>89.33333333333333</ele><time>2026-05-04T10:40:52.791Z</time></trkpt><trkpt lat="52.567755" lon="-1.4828833"><ele>88.66666666666666</ele><time>2026-05-04T10:40:53.793Z</time></trkpt><trkpt lat="52.5675583" lon="-1.482895"><ele>88.0</ele><time>2026-05-04T10:40:54.791Z</time></trkpt><trkpt lat="52.5673717" lon="-1.482895"><ele>88.0</ele><time>2026-05-04T10:40:55.793Z</time></trkpt><trkpt lat="52.567185" lon="-1.4828733"><ele>88.0</ele><time>2026-05-04T10:40:56.792Z</time></trkpt><trkpt lat="52.566995" lon="-1.482835"><ele>88.0</ele><time>2026-05-04T10:40:57.792Z</time></trkpt><trkpt lat="52.566805" lon="-1.4827817"><ele>87.33333333333333</ele><time>2026-05-04T10:40:58.791Z</time></trkpt><trkpt lat="52.5666167" lon="-1.48273"><ele>86.66666666666667</ele><time>2026-05-04T10:40:59.792Z</time></trkpt><trkpt lat="52.5664267" lon="-1.4826783"><ele>86.0</ele><time>2026-05-04T10:41:00.792Z</time></trkpt><trkpt lat="52.56624" lon="-1.4826317"><ele>86.0</ele><time>2026-05-04T10:41:01.791Z</time></trkpt><trkpt lat="52.5660517" lon="-1.482585"><ele>86.0</ele><time>2026-05-04T10:41:02.791Z</time></trkpt><trkpt lat="52.5658667" lon="-1.482535"><ele>86.0</ele><time>2026-05-04T10:41:03.791Z</time></trkpt><trkpt lat="52.5656833" lon="-1.4824783"><ele>86.0</ele><time>2026-05-04T10:41:04.795Z</time></trkpt><trkpt lat="52.5654949" lon="-1.4824228"><ele>86.0</ele><time>2026-05-04T10:41:05.792Z</time></trkpt><trkpt lat="52.5653084" lon="-1.4823667"><ele>86.0</ele><time>2026-05-04T10:41:06.791Z</time></trkpt><trkpt lat="52.5651205" lon="-1.4823141"><ele>85.66666666666667</ele><time>2026-05-04T10:41:07.793Z</time></trkpt><trkpt lat="52.5649308" lon="-1.4822774"><ele>85.33333333333333</ele><time>2026-05-04T10:41:08.792Z</time></trkpt><trkpt lat="52.5647419" lon="-1.4822629"><ele>85.0</ele><time>2026-05-04T10:41:09.791Z</time></trkpt><trkpt lat="52.5645499" lon="-1.48226"><ele>84.66666666666666</ele><time>2026-05-04T10:41:10.792Z</time></trkpt><trkpt lat="52.5643591" lon="-1.4822597"><ele>84.33333333333333</ele><time>2026-05-04T10:41:11.791Z</time></trkpt><trkpt lat="52.5641687" lon="-1.4822586"><ele>84.0</ele><time>2026-05-04T10:41:12.794Z</time></trkpt><trkpt lat="52.5639787" lon="-1.4822521"><ele>84.0</ele><time>2026-05-04T10:41:13.795Z</time></trkpt><trkpt lat="52.5637922" lon="-1.4822375"><ele>84.0</ele><time>2026-05-04T10:41:14.795Z</time></trkpt><trkpt lat="52.5636084" lon="-1.4822102"><ele>84.0</ele><time>2026-05-04T10:41:15.795Z</time></trkpt><trkpt lat="52.563424" lon="-1.4821698"><ele>84.33333333333333</ele><time>2026-05-04T10:41:16.792Z</time></trkpt><trkpt lat="52.5632374" lon="-1.4821326"><ele>84.66666666666666</ele><time>2026-05-04T10:41:17.795Z</time></trkpt><trkpt lat="52.5630524" lon="-1.4821118"><ele>85.0</ele><time>2026-05-04T10:41:18.791Z</time></trkpt><trkpt lat="52.5628624" lon="-1.4821222"><ele>84.33333333333333</ele><time>2026-05-04T10:41:19.794Z</time></trkpt><trkpt lat="52.5626713" lon="-1.4821602"><ele>83.66666666666667</ele><time>2026-05-04T10:41:20.793Z</time></trkpt><trkpt lat="52.5624817" lon="-1.4822246"><ele>83.0</ele><time>2026-05-04T10:41:21.795Z</time></trkpt><trkpt lat="52.5622988" lon="-1.4823132"><ele>83.0</ele><time>2026-05-04T10:41:22.795Z</time></trkpt><trkpt lat="52.5621203" lon="-1.4824107"><ele>83.0</ele><time>2026-05-04T10:41:23.791Z</time></trkpt><trkpt lat="52.5619452" lon="-1.4825047"><ele>83.0</ele><time>2026-05-04T10:41:24.795Z</time></trkpt><trkpt lat="52.5617738" lon="-1.4825718"><ele>83.0</ele><time>2026-05-04T10:41:25.795Z</time></trkpt><trkpt lat="52.5616018" lon="-1.4826004"><ele>83.0</ele><time>2026-05-04T10:41:26.795Z</time></trkpt><trkpt lat="52.5614275" lon="-1.482583"><ele>83.0</ele><time>2026-05-04T10:41:27.792Z</time></trkpt><trkpt lat="52.5612535" lon="-1.4825253"><ele>82.66666666666667</ele><time>2026-05-04T10:41:28.793Z</time></trkpt><trkpt lat="52.5610845" lon="-1.4824379"><ele>82.33333333333333</ele><time>2026-05-04T10:41:29.79Z</time></trkpt><trkpt lat="52.5609259" lon="-1.4823371"><ele>82.0</ele><time>2026-05-04T10:41:30.794Z</time></trkpt><trkpt lat="52.5607791" lon="-1.4822486"><ele>82.0</ele><time>2026-05-04T10:41:31.795Z</time></trkpt><trkpt lat="52.5606344" lon="-1.4821758"><ele>82.0</ele><time>2026-05-04T10:41:32.791Z</time></trkpt><trkpt lat="52.5604822" lon="-1.4821215"><ele>82.0</ele><time>2026-05-04T10:41:33.792Z</time></trkpt><trkpt lat="52.560325" lon="-1.4820974"><ele>81.66666666666666</ele><time>2026-05-04T10:41:34.791Z</time></trkpt><trkpt lat="52.5601656" lon="-1.4821252"><ele>81.33333333333333</ele><time>2026-05-04T10:41:35.793Z</time></trkpt><trkpt lat="52.5600093" lon="-1.4821987"><ele>81.0</ele><time>2026-05-04T10:41:36.792Z</time></trkpt><trkpt lat="52.55986" lon="-1.4823097"><ele>81.0</ele><time>2026-05-04T10:41:37.792Z</time></trkpt><trkpt lat="52.5597217" lon="-1.48245"><ele>81.0</ele><time>2026-05-04T10:41:38.792Z</time></trkpt><trkpt lat="52.5595917" lon="-1.4825783"><ele>81.0</ele><time>2026-05-04T10:41:39.792Z</time></trkpt><trkpt lat="52.559465" lon="-1.4827"><ele>80.75</ele><time>2026-05-04T10:41:40.794Z</time></trkpt><trkpt lat="52.5593417" lon="-1.4828167"><ele>80.5</ele><time>2026-05-04T10:41:41.792Z</time></trkpt><trkpt lat="52.5592217" lon="-1.48292"><ele>80.25</ele><time>2026-05-04T10:41:42.794Z</time></trkpt><trkpt lat="52.5591167" lon="-1.4830083"><ele>80.0</ele><time>2026-05-04T10:41:43.794Z</time></trkpt><trkpt lat="52.5590233" lon="-1.4830833"><ele>80.0</ele><time>2026-05-04T10:41:44.792Z</time></trkpt><trkpt lat="52.5589467" lon="-1.4831333"><ele>80.0</ele><time>2026-05-04T10:41:45.796Z</time></trkpt><trkpt lat="52.5588833" lon="-1.4831617"><ele>80.0</ele><time>2026-05-04T10:41:46.791Z</time></trkpt><trkpt lat="52.5588133" lon="-1.48316"><ele>80.0</ele><time>2026-05-04T10:41:48.79Z</time></trkpt><trkpt lat="52.5587833" lon="-1.4830683"><ele>80.0</ele><time>2026-05-04T10:47:59.792Z</time></trkpt><trkpt lat="52.5588533" lon="-1.4831133"><ele>80.0</ele><time>2026-05-04T10:48:04.792Z</time></trkpt><trkpt lat="52.55883" lon="-1.4832217"><ele>80.0</ele><time>2026-05-04T10:48:12.791Z</time></trkpt><trkpt lat="52.5587433" lon="-1.4831717"><ele>80.4</ele><time>2026-05-04T10:48:24.794Z</time></trkpt><trkpt lat="52.5586883" lon="-1.483085"><ele>80.8</ele><time>2026-05-04T10:48:25.795Z</time></trkpt><trkpt lat="52.558635" lon="-1.4829633"><ele>81.19999999999999</ele><time>2026-05-04T10:48:26.792Z</time></trkpt><trkpt lat="52.5585883" lon="-1.4828283"><ele>81.6</ele><time>2026-05-04T10:48:27.799Z</time></trkpt><trkpt lat="52.55854" lon="-1.4826717"><ele>82.0</ele><time>2026-05-04T10:48:28.793Z</time></trkpt><trkpt lat="52.5584883" lon="-1.482505"><ele>82.0</ele><time>2026-05-04T10:48:29.794Z</time></trkpt><trkpt lat="52.5584367" lon="-1.4823383"><ele>82.0</ele><time>2026-05-04T10:48:30.792Z</time></trkpt><trkpt lat="52.558385" lon="-1.4821667"><ele>82.0</ele><time>2026-05-04T10:48:31.793Z</time></trkpt><trkpt lat="52.55833" lon="-1.4819917"><ele>82.0</ele><time>2026-05-04T10:48:32.795Z</time></trkpt><trkpt lat="52.558275" lon="-1.4818133"><ele>81.75</ele><time>2026-05-04T10:48:33.794Z</time></trkpt><trkpt lat="52.558215" lon="-1.48163"><ele>81.5</ele><time>2026-05-04T10:48:34.794Z</time></trkpt><trkpt lat="52.558155" lon="-1.481445"><ele>81.25</ele><time>2026-05-04T10:48:35.793Z</time></trkpt><trkpt lat="52.5580933" lon="-1.48125"><ele>81.0</ele><time>2026-05-04T10:48:36.793Z</time></trkpt><trkpt lat="52.5580317" lon="-1.4810517"><ele>81.0</ele><time>2026-05-04T10:48:37.794Z</time></trkpt><trkpt lat="52.5579683" lon="-1.4808367"><ele>81.0</ele><time>2026-05-04T10:48:38.795Z</time></trkpt><trkpt lat="52.5579033" lon="-1.4806083"><ele>81.0</ele><time>2026-05-04T10:48:39.791Z</time></trkpt><trkpt lat="52.5578383" lon="-1.4803767"><ele>80.66666666666667</ele><time>2026-05-04T10:48:40.792Z</time></trkpt><trkpt lat="52.5577733" lon="-1.4801333"><ele>80.33333333333334</ele><time>2026-05-04T10:48:41.791Z</time></trkpt><trkpt lat="52.5577033" lon="-1.4798867"><ele>80.0</ele><time>2026-05-04T10:48:42.792Z</time></trkpt><trkpt lat="52.55763" lon="-1.4796383"><ele>80.66666666666667</ele><time>2026-05-04T10:48:43.792Z</time></trkpt><trkpt lat="52.557555" lon="-1.4793867"><ele>81.33333333333333</ele><time>2026-05-04T10:48:44.791Z</time></trkpt><trkpt lat="52.5574767" lon="-1.4791283"><ele>82.0</ele><time>2026-05-04T10:48:45.79Z</time></trkpt><trkpt lat="52.5574017" lon="-1.4788667"><ele>82.33333333333333</ele><time>2026-05-04T10:48:46.791Z</time></trkpt><trkpt lat="52.5573267" lon="-1.4786067"><ele>82.66666666666667</ele><time>2026-05-04T10:48:47.792Z</time></trkpt><trkpt lat="52.5572517" lon="-1.4783483"><ele>83.0</ele><time>2026-05-04T10:48:48.791Z</time></trkpt><trkpt lat="52.5571783" lon="-1.4780917"><ele>83.33333333333334</ele><time>2026-05-04T10:48:49.791Z</time></trkpt><trkpt lat="52.5571033" lon="-1.4778333"><ele>83.66666666666667</ele><time>2026-05-04T10:48:50.79Z</time></trkpt><trkpt lat="52.557025" lon="-1.477575"><ele>84.0</ele><time>2026-05-04T10:48:51.79Z</time></trkpt><trkpt lat="52.556945" lon="-1.4773117"><ele>85.33333333333333</ele><time>2026-05-04T10:48:52.792Z</time></trkpt><trkpt lat="52.556865" lon="-1.4770517"><ele>86.66666666666666</ele><time>2026-05-04T10:48:53.792Z</time></trkpt><trkpt lat="52.5567883" lon="-1.4767883"><ele>88.0</ele><time>2026-05-04T10:48:54.791Z</time></trkpt><trkpt lat="52.5567133" lon="-1.4765233"><ele>88.33333333333333</ele><time>2026-05-04T10:48:55.791Z</time></trkpt><trkpt lat="52.5566367" lon="-1.4762567"><ele>88.66666666666667</ele><time>2026-05-04T10:48:56.791Z</time></trkpt><trkpt lat="52.5565567" lon="-1.47599"><ele>89.0</ele><time>2026-05-04T10:48:57.791Z</time></trkpt><trkpt lat="52.5564733" lon="-1.47572"><ele>89.0</ele><time>2026-05-04T10:48:58.792Z</time></trkpt><trkpt lat="52.5563917" lon="-1.4754467"><ele>89.0</ele><time>2026-05-04T10:48:59.791Z</time></trkpt><trkpt lat="52.5563083" lon="-1.47517"><ele>89.0</ele><time>2026-05-04T10:49:00.79Z</time></trkpt><trkpt lat="52.5562233" lon="-1.4748883"><ele>89.0</ele><time>2026-05-04T10:49:01.792Z</time></trkpt><trkpt lat="52.5561367" lon="-1.4746067"><ele>89.0</ele><time>2026-05-04T10:49:02.793Z</time></trkpt><trkpt lat="52.55605" lon="-1.4743283"><ele>89.0</ele><time>2026-05-04T10:49:03.794Z</time></trkpt><trkpt lat="52.555965" lon="-1.474055"><ele>89.0</ele><time>2026-05-04T10:49:04.795Z</time></trkpt><trkpt lat="52.5558883" lon="-1.4737817"><ele>89.0</ele><time>2026-05-04T10:49:05.795Z</time></trkpt><trkpt lat="52.5558067" lon="-1.4735083"><ele>89.0</ele><time>2026-05-04T10:49:06.795Z</time></trkpt><trkpt lat="52.5557283" lon="-1.4732367"><ele>89.0</ele><time>2026-05-04T10:49:07.794Z</time></trkpt><trkpt lat="52.5556483" lon="-1.4729633"><ele>89.0</ele><time>2026-05-04T10:49:08.795Z</time></trkpt><trkpt lat="52.555565" lon="-1.4726933"><ele>89.0</ele><time>2026-05-04T10:49:09.794Z</time></trkpt><trkpt lat="52.555485" lon="-1.472425"><ele>88.33333333333334</ele><time>2026-05-04T10:49:10.795Z</time></trkpt><trkpt lat="52.5554033" lon="-1.472155"><ele>87.66666666666667</ele><time>2026-05-04T10:49:11.795Z</time></trkpt><trkpt lat="52.5553183" lon="-1.471885"><ele>87.0</ele><time>2026-05-04T10:49:12.795Z</time></trkpt><trkpt lat="52.555235" lon="-1.471615"><ele>86.33333333333333</ele><time>2026-05-04T10:49:13.795Z</time></trkpt><trkpt lat="52.5551567" lon="-1.4713483"><ele>85.66666666666666</ele><time>2026-05-04T10:49:14.792Z</time></trkpt><trkpt lat="52.5550767" lon="-1.4710767"><ele>85.0</ele><time>2026-05-04T10:49:15.796Z</time></trkpt><trkpt lat="52.5549967" lon="-1.470805"><ele>85.0</ele><time>2026-05-04T10:49:16.791Z</time></trkpt><trkpt lat="52.554915" lon="-1.4705333"><ele>85.0</ele><time>2026-05-04T10:49:17.792Z</time></trkpt><trkpt lat="52.5548333" lon="-1.4702617"><ele>85.0</ele><time>2026-05-04T10:49:18.793Z</time></trkpt><trkpt lat="52.55475" lon="-1.4699883"><ele>85.33333333333333</ele><time>2026-05-04T10:49:19.793Z</time></trkpt><trkpt lat="52.5546667" lon="-1.4697133"><ele>85.66666666666667</ele><time>2026-05-04T10:49:20.793Z</time></trkpt><trkpt lat="52.5545883" lon="-1.46944"><ele>86.0</ele><time>2026-05-04T10:49:21.792Z</time></trkpt><trkpt lat="52.5545117" lon="-1.4691683"><ele>85.66666666666667</ele><time>2026-05-04T10:49:22.794Z</time></trkpt><trkpt lat="52.55443" lon="-1.4688983"><ele>85.33333333333333</ele><time>2026-05-04T10:49:23.795Z</time></trkpt><trkpt lat="52.5543517" lon="-1.4686317"><ele>85.0</ele><time>2026-05-04T10:49:24.795Z</time></trkpt><trkpt lat="52.554275" lon="-1.4683633"><ele>85.0</ele><time>2026-05-04T10:49:25.792Z</time></trkpt><trkpt lat="52.5541967" lon="-1.4680917"><ele>85.0</ele><time>2026-05-04T10:49:26.792Z</time></trkpt><trkpt lat="52.5541167" lon="-1.4678183"><ele>85.0</ele><time>2026-05-04T10:49:27.795Z</time></trkpt><trkpt lat="52.554035" lon="-1.467545"><ele>85.33333333333333</ele><time>2026-05-04T10:49:28.794Z</time></trkpt><trkpt lat="52.553955" lon="-1.4672717"><ele>85.66666666666667</ele><time>2026-05-04T10:49:29.794Z</time></trkpt><trkpt lat="52.5538767" lon="-1.4669983"><ele>86.0</ele><time>2026-05-04T10:49:30.793Z</time></trkpt><trkpt lat="52.5538" lon="-1.4667267"><ele>86.66666666666667</ele><time>2026-05-04T10:49:31.794Z</time></trkpt><trkpt lat="52.5537233" lon="-1.466455"><ele>87.33333333333333</ele><time>2026-05-04T10:49:32.794Z</time></trkpt><trkpt lat="52.5536433" lon="-1.4661867"><ele>88.0</ele><time>2026-05-04T10:49:33.791Z</time></trkpt><trkpt lat="52.5535617" lon="-1.465925"><ele>88.66666666666666</ele><time>2026-05-04T10:49:34.792Z</time></trkpt><trkpt lat="52.5534883" lon="-1.4656817"><ele>89.33333333333333</ele><time>2026-05-04T10:49:35.791Z</time></trkpt><trkpt lat="52.5534183" lon="-1.46545"><ele>90.0</ele><time>2026-05-04T10:49:36.792Z</time></trkpt><trkpt lat="52.5533467" lon="-1.4652217"><ele>90.25</ele><time>2026-05-04T10:49:37.795Z</time></trkpt><trkpt lat="52.5532767" lon="-1.465"><ele>90.5</ele><time>2026-05-04T10:49:38.794Z</time></trkpt><trkpt lat="52.5532083" lon="-1.46479"><ele>90.75</ele><time>2026-05-04T10:49:39.795Z</time></trkpt><trkpt lat="52.5531483" lon="-1.4645983"><ele>91.0</ele><time>2026-05-04T10:49:40.795Z</time></trkpt><trkpt lat="52.55311" lon="-1.4644117"><ele>91.4</ele><time>2026-05-04T10:49:41.794Z</time></trkpt><trkpt lat="52.5530867" lon="-1.4642217"><ele>91.8</ele><time>2026-05-04T10:49:42.793Z</time></trkpt><trkpt lat="52.5530633" lon="-1.464035"><ele>92.2</ele><time>2026-05-04T10:49:43.791Z</time></trkpt><trkpt lat="52.5530217" lon="-1.4638717"><ele>92.60000000000001</ele><time>2026-05-04T10:49:44.792Z</time></trkpt><trkpt lat="52.5529583" lon="-1.4637283"><ele>93.0</ele><time>2026-05-04T10:49:45.791Z</time></trkpt><trkpt lat="52.5528783" lon="-1.463585"><ele>92.75</ele><time>2026-05-04T10:49:46.792Z</time></trkpt><trkpt lat="52.5527933" lon="-1.463415"><ele>92.5</ele><time>2026-05-04T10:49:47.795Z</time></trkpt><trkpt lat="52.552705" lon="-1.4632183"><ele>92.25</ele><time>2026-05-04T10:49:48.794Z</time></trkpt><trkpt lat="52.5526267" lon="-1.4630067"><ele>92.0</ele><time>2026-05-04T10:49:49.795Z</time></trkpt><trkpt lat="52.5525383" lon="-1.4627833"><ele>92.0</ele><time>2026-05-04T10:49:50.791Z</time></trkpt><trkpt lat="52.5524467" lon="-1.4625417"><ele>92.0</ele><time>2026-05-04T10:49:51.794Z</time></trkpt><trkpt lat="52.552355" lon="-1.46229"><ele>92.0</ele><time>2026-05-04T10:49:52.795Z</time></trkpt><trkpt lat="52.55226" lon="-1.4620367"><ele>92.66666666666667</ele><time>2026-05-04T10:49:53.79Z</time></trkpt><trkpt lat="52.5521667" lon="-1.4617767"><ele>93.33333333333333</ele><time>2026-05-04T10:49:54.795Z</time></trkpt><trkpt lat="52.55207" lon="-1.4615117"><ele>94.0</ele><time>2026-05-04T10:49:55.795Z</time></trkpt><trkpt lat="52.55198" lon="-1.461245"><ele>94.0</ele><time>2026-05-04T10:49:56.795Z</time></trkpt><trkpt lat="52.5518883" lon="-1.46098"><ele>94.0</ele><time>2026-05-04T10:49:57.792Z</time></trkpt><trkpt lat="52.5518" lon="-1.4607167"><ele>94.0</ele><time>2026-05-04T10:49:58.793Z</time></trkpt><trkpt lat="52.5517083" lon="-1.4604567"><ele>94.33333333333333</ele><time>2026-05-04T10:49:59.795Z</time></trkpt><trkpt lat="52.5516117" lon="-1.4601917"><ele>94.66666666666667</ele><time>2026-05-04T10:50:00.791Z</time></trkpt><trkpt lat="52.5515233" lon="-1.459925"><ele>95.0</ele><time>2026-05-04T10:50:01.791Z</time></trkpt><trkpt lat="52.551435" lon="-1.459655"><ele>95.33333333333334</ele><time>2026-05-04T10:50:02.791Z</time></trkpt><trkpt lat="52.5513417" lon="-1.4593783"><ele>95.66666666666667</ele><time>2026-05-04T10:50:03.795Z</time></trkpt><trkpt lat="52.5512517" lon="-1.4591033"><ele>96.0</ele><time>2026-05-04T10:50:04.791Z</time></trkpt><trkpt lat="52.5511567" lon="-1.4588333"><ele>97.0</ele><time>2026-05-04T10:50:05.791Z</time></trkpt><trkpt lat="52.551065" lon="-1.45857"><ele>98.0</ele><time>2026-05-04T10:50:06.791Z</time></trkpt><trkpt lat="52.5509733" lon="-1.4583117"><ele>99.0</ele><time>2026-05-04T10:50:07.791Z</time></trkpt><trkpt lat="52.5508783" lon="-1.4580583"><ele>99.33333333333334</ele><time>2026-05-04T10:50:08.791Z</time></trkpt><trkpt lat="52.5507817" lon="-1.457805"><ele>99.66666666666667</ele><time>2026-05-04T10:50:09.791Z</time></trkpt><trkpt lat="52.5506867" lon="-1.457555"><ele>100.0</ele><time>2026-05-04T10:50:10.792Z</time></trkpt><trkpt lat="52.5505883" lon="-1.4573033"><ele>100.0</ele><time>2026-05-04T10:50:11.795Z</time></trkpt><trkpt lat="52.550495" lon="-1.457055"><ele>100.0</ele><time>2026-05-04T10:50:12.792Z</time></trkpt><trkpt lat="52.5504017" lon="-1.456805"><ele>100.0</ele><time>2026-05-04T10:50:13.793Z</time></trkpt><trkpt lat="52.5503083" lon="-1.4565567"><ele>100.66666666666667</ele><time>2026-05-04T10:50:14.791Z</time></trkpt><trkpt lat="52.5502167" lon="-1.4562983"><ele>101.33333333333334</ele><time>2026-05-04T10:50:15.79Z</time></trkpt><trkpt lat="52.5501183" lon="-1.4560317"><ele>102.0</ele><time>2026-05-04T10:50:16.791Z</time></trkpt><trkpt lat="52.5500233" lon="-1.4557633"><ele>102.0</ele><time>2026-05-04T10:50:17.791Z</time></trkpt><trkpt lat="52.5499217" lon="-1.4554867"><ele>102.0</ele><time>2026-05-04T10:50:18.791Z</time></trkpt><trkpt lat="52.5498217" lon="-1.4552117"><ele>102.0</ele><time>2026-05-04T10:50:19.796Z</time></trkpt><trkpt lat="52.5497233" lon="-1.4549383"><ele>102.0</ele><time>2026-05-04T10:50:20.792Z</time></trkpt><trkpt lat="52.5496283" lon="-1.4546683"><ele>102.0</ele><time>2026-05-04T10:50:21.797Z</time></trkpt><trkpt lat="52.5495333" lon="-1.4544017"><ele>102.0</ele><time>2026-05-04T10:50:22.795Z</time></trkpt><trkpt lat="52.5494417" lon="-1.4541367"><ele>100.33333333333334</ele><time>2026-05-04T10:50:23.795Z</time></trkpt><trkpt lat="52.5493517" lon="-1.4538733"><ele>98.66666666666667</ele><time>2026-05-04T10:50:24.795Z</time></trkpt><trkpt lat="52.5492617" lon="-1.4536067"><ele>97.0</ele><time>2026-05-04T10:50:25.795Z</time></trkpt><trkpt lat="52.5491717" lon="-1.4533367"><ele>97.0</ele><time>2026-05-04T10:50:26.794Z</time></trkpt><trkpt lat="52.549085" lon="-1.45307"><ele>97.0</ele><time>2026-05-04T10:50:27.795Z</time></trkpt><trkpt lat="52.5489933" lon="-1.4528083"><ele>97.0</ele><time>2026-05-04T10:50:28.794Z</time></trkpt><trkpt lat="52.548895" lon="-1.4525467"><ele>97.33333333333334</ele><time>2026-05-04T10:50:29.794Z</time></trkpt><trkpt lat="52.5488" lon="-1.4522867"><ele>97.66666666666666</ele><time>2026-05-04T10:50:30.794Z</time></trkpt><trkpt lat="52.5487083" lon="-1.4520267"><ele>98.0</ele><time>2026-05-04T10:50:31.791Z</time></trkpt><trkpt lat="52.5486167" lon="-1.451765"><ele>98.0</ele><time>2026-05-04T10:50:32.795Z</time></trkpt><trkpt lat="52.5485233" lon="-1.4515083"><ele>98.0</ele><time>2026-05-04T10:50:33.795Z</time></trkpt><trkpt lat="52.5484367" lon="-1.4512517"><ele>98.0</ele><time>2026-05-04T10:50:34.795Z</time></trkpt><trkpt lat="52.5483417" lon="-1.4509983"><ele>98.66666666666666</ele><time>2026-05-04T10:50:35.793Z</time></trkpt><trkpt lat="52.5482517" lon="-1.450745"><ele>99.33333333333334</ele><time>2026-05-04T10:50:36.792Z</time></trkpt><trkpt lat="52.5481567" lon="-1.4504883"><ele>100.0</ele><time>2026-05-04T10:50:37.795Z</time></trkpt><trkpt lat="52.5480617" lon="-1.45023"><ele>100.33333333333334</ele><time>2026-05-04T10:50:38.793Z</time></trkpt><trkpt lat="52.5479617" lon="-1.4499667"><ele>100.66666666666666</ele><time>2026-05-04T10:50:39.79Z</time></trkpt><trkpt lat="52.5478633" lon="-1.4497017"><ele>101.0</ele><time>2026-05-04T10:50:40.792Z</time></trkpt><trkpt lat="52.5477638" lon="-1.4494328"><ele>100.66666666666666</ele><time>2026-05-04T10:50:41.792Z</time></trkpt><trkpt lat="52.5476639" lon="-1.4491626"><ele>100.33333333333334</ele><time>2026-05-04T10:50:42.795Z</time></trkpt><trkpt lat="52.547567" lon="-1.4488926"><ele>100.0</ele><time>2026-05-04T10:50:43.796Z</time></trkpt><trkpt lat="52.5474718" lon="-1.4486265"><ele>100.0</ele><time>2026-05-04T10:50:44.795Z</time></trkpt><trkpt lat="52.5473771" lon="-1.4483621"><ele>100.0</ele><time>2026-05-04T10:50:45.792Z</time></trkpt><trkpt lat="52.5472833" lon="-1.4480985"><ele>100.0</ele><time>2026-05-04T10:50:46.794Z</time></trkpt><trkpt lat="52.5471868" lon="-1.4478377"><ele>100.0</ele><time>2026-05-04T10:50:47.792Z</time></trkpt><trkpt lat="52.5470906" lon="-1.4475761"><ele>100.0</ele><time>2026-05-04T10:50:48.794Z</time></trkpt><trkpt lat="52.5469963" lon="-1.4473167"><ele>100.0</ele><time>2026-05-04T10:50:49.791Z</time></trkpt><trkpt lat="52.5469001" lon="-1.4470526"><ele>99.66666666666667</ele><time>2026-05-04T10:50:50.793Z</time></trkpt><trkpt lat="52.5468059" lon="-1.4467923"><ele>99.33333333333334</ele><time>2026-05-04T10:50:51.792Z</time></trkpt><trkpt lat="52.5467178" lon="-1.4465455"><ele>99.0</ele><time>2026-05-04T10:50:52.791Z</time></trkpt><trkpt lat="52.5466372" lon="-1.4463201"><ele>98.80000000000001</ele><time>2026-05-04T10:50:53.794Z</time></trkpt><trkpt lat="52.5465679" lon="-1.4461283"><ele>98.60000000000001</ele><time>2026-05-04T10:50:54.795Z</time></trkpt><trkpt lat="52.5465174" lon="-1.4459767"><ele>98.4</ele><time>2026-05-04T10:50:55.795Z</time></trkpt><trkpt lat="52.5464784" lon="-1.4458492"><ele>98.2</ele><time>2026-05-04T10:50:56.793Z</time></trkpt><trkpt lat="52.5464501" lon="-1.4457239"><ele>98.0</ele><time>2026-05-04T10:50:57.791Z</time></trkpt><trkpt lat="52.5464355" lon="-1.4455871"><ele>98.2</ele><time>2026-05-04T10:50:58.79Z</time></trkpt><trkpt lat="52.5464203" lon="-1.4454352"><ele>98.4</ele><time>2026-05-04T10:50:59.792Z</time></trkpt><trkpt lat="52.5463957" lon="-1.4452882"><ele>98.60000000000001</ele><time>2026-05-04T10:51:00.792Z</time></trkpt><trkpt lat="52.5463549" lon="-1.4451575"><ele>98.80000000000001</ele><time>2026-05-04T10:51:01.794Z</time></trkpt><trkpt lat="52.5462903" lon="-1.4450415"><ele>99.0</ele><time>2026-05-04T10:51:02.793Z</time></trkpt><trkpt lat="52.5462044" lon="-1.4449242"><ele>99.0</ele><time>2026-05-04T10:51:03.791Z</time></trkpt><trkpt lat="52.5461099" lon="-1.4447932"><ele>99.0</ele><time>2026-05-04T10:51:04.794Z</time></trkpt><trkpt lat="52.5460197" lon="-1.444642"><ele>99.0</ele><time>2026-05-04T10:51:05.794Z</time></trkpt><trkpt lat="52.5459361" lon="-1.4444666"><ele>99.0</ele><time>2026-05-04T10:51:06.796Z</time></trkpt><trkpt lat="52.5458531" lon="-1.4442735"><ele>99.0</ele><time>2026-05-04T10:51:07.795Z</time></trkpt><trkpt lat="52.5457697" lon="-1.4440676"><ele>99.0</ele><time>2026-05-04T10:51:08.795Z</time></trkpt><trkpt lat="52.5456842" lon="-1.4438494"><ele>99.0</ele><time>2026-05-04T10:51:09.796Z</time></trkpt><trkpt lat="52.5455952" lon="-1.4436223"><ele>99.0</ele><time>2026-05-04T10:51:10.794Z</time></trkpt><trkpt lat="52.5455033" lon="-1.4433875"><ele>99.0</ele><time>2026-05-04T10:51:11.796Z</time></trkpt><trkpt lat="52.5454091" lon="-1.4431465"><ele>99.0</ele><time>2026-05-04T10:51:12.794Z</time></trkpt><trkpt lat="52.5453131" lon="-1.4429025"><ele>99.0</ele><time>2026-05-04T10:51:13.792Z</time></trkpt><trkpt lat="52.545219" lon="-1.4426517"><ele>99.0</ele><time>2026-05-04T10:51:14.794Z</time></trkpt><trkpt lat="52.5451243" lon="-1.4423958"><ele>99.0</ele><time>2026-05-04T10:51:15.793Z</time></trkpt><trkpt lat="52.5450306" lon="-1.4421373"><ele>99.0</ele><time>2026-05-04T10:51:16.795Z</time></trkpt><trkpt lat="52.5449332" lon="-1.4418798"><ele>99.0</ele><time>2026-05-04T10:51:17.795Z</time></trkpt><trkpt lat="52.5448386" lon="-1.4416218"><ele>99.0</ele><time>2026-05-04T10:51:18.792Z</time></trkpt><trkpt lat="52.5447438" lon="-1.4413619"><ele>99.0</ele><time>2026-05-04T10:51:19.793Z</time></trkpt><trkpt lat="52.5446518" lon="-1.4411"><ele>99.0</ele><time>2026-05-04T10:51:20.793Z</time></trkpt><trkpt lat="52.5445589" lon="-1.4408351"><ele>99.0</ele><time>2026-05-04T10:51:21.792Z</time></trkpt><trkpt lat="52.5444654" lon="-1.4405713"><ele>98.33333333333334</ele><time>2026-05-04T10:51:22.792Z</time></trkpt><trkpt lat="52.5443692" lon="-1.4403078"><ele>97.66666666666667</ele><time>2026-05-04T10:51:23.791Z</time></trkpt><trkpt lat="52.5442709" lon="-1.4400416"><ele>97.0</ele><time>2026-05-04T10:51:24.793Z</time></trkpt><trkpt lat="52.5441684" lon="-1.439773"><ele>97.0</ele><time>2026-05-04T10:51:25.794Z</time></trkpt><trkpt lat="52.5440675" lon="-1.4395042"><ele>97.0</ele><time>2026-05-04T10:51:26.793Z</time></trkpt><trkpt lat="52.5439695" lon="-1.4392352"><ele>97.0</ele><time>2026-05-04T10:51:27.792Z</time></trkpt><trkpt lat="52.5438752" lon="-1.4389674"><ele>97.0</ele><time>2026-05-04T10:51:28.791Z</time></trkpt><trkpt lat="52.5437806" lon="-1.4387036"><ele>97.0</ele><time>2026-05-04T10:51:29.793Z</time></trkpt><trkpt lat="52.543686" lon="-1.4384438"><ele>97.0</ele><time>2026-05-04T10:51:30.792Z</time></trkpt><trkpt lat="52.5435863" lon="-1.4381856"><ele>95.66666666666667</ele><time>2026-05-04T10:51:31.794Z</time></trkpt><trkpt lat="52.5434864" lon="-1.4379253"><ele>94.33333333333334</ele><time>2026-05-04T10:51:32.795Z</time></trkpt><trkpt lat="52.5433878" lon="-1.4376644"><ele>93.0</ele><time>2026-05-04T10:51:33.791Z</time></trkpt><trkpt lat="52.5432892" lon="-1.4374027"><ele>93.0</ele><time>2026-05-04T10:51:34.791Z</time></trkpt><trkpt lat="52.5431906" lon="-1.4371436"><ele>93.0</ele><time>2026-05-04T10:51:35.794Z</time></trkpt><trkpt lat="52.5430923" lon="-1.4368846"><ele>93.0</ele><time>2026-05-04T10:51:36.795Z</time></trkpt><trkpt lat="52.5429968" lon="-1.4366252"><ele>93.0</ele><time>2026-05-04T10:51:37.792Z</time></trkpt><trkpt lat="52.5429004" lon="-1.4363675"><ele>93.0</ele><time>2026-05-04T10:51:38.791Z</time></trkpt><trkpt lat="52.5428052" lon="-1.4361108"><ele>93.0</ele><time>2026-05-04T10:51:39.794Z</time></trkpt><trkpt lat="52.5427099" lon="-1.4358558"><ele>95.0</ele><time>2026-05-04T10:51:40.795Z</time></trkpt><trkpt lat="52.542385" lon="-1.4349383"><ele>95.0</ele><time>2026-05-04T10:51:44.569Z</time></trkpt><trkpt lat="52.54221" lon="-1.434585"><ele>95.0</ele><time>2026-05-04T10:51:45.791Z</time></trkpt><trkpt lat="52.5420967" lon="-1.43432"><ele>95.33333333333334</ele><time>2026-05-04T10:51:46.791Z</time></trkpt><trkpt lat="52.5419917" lon="-1.43405"><ele>95.66666666666667</ele><time>2026-05-04T10:51:47.791Z</time></trkpt><trkpt lat="52.5418833" lon="-1.4337883"><ele>96.0</ele><time>2026-05-04T10:51:48.791Z</time></trkpt><trkpt lat="52.5417883" lon="-1.433525"><ele>90.0</ele><time>2026-05-04T10:51:49.796Z</time></trkpt><trkpt lat="52.53565" lon="-1.4159983"><ele>90.0</ele><time>2026-05-04T10:53:20.322Z</time></trkpt><trkpt lat="52.5355833" lon="-1.41584"><ele>90.0</ele><time>2026-05-04T10:53:21.324Z</time></trkpt><trkpt lat="52.5353517" lon="-1.4155617"><ele>90.0</ele><time>2026-05-04T10:53:22.603Z</time></trkpt><trkpt lat="52.5351067" lon="-1.4151433"><ele>90.0</ele><time>2026-05-04T10:53:24.792Z</time></trkpt><trkpt lat="52.5350317" lon="-1.4149767"><ele>90.0</ele><time>2026-05-04T10:53:25.791Z</time></trkpt><trkpt lat="52.53497" lon="-1.41482"><ele>90.0</ele><time>2026-05-04T10:53:26.791Z</time></trkpt><trkpt lat="52.534915" lon="-1.4146667"><ele>90.0</ele><time>2026-05-04T10:53:27.791Z</time></trkpt><trkpt lat="52.534865" lon="-1.41452"><ele>90.2</ele><time>2026-05-04T10:53:28.791Z</time></trkpt><trkpt lat="52.5348167" lon="-1.4143817"><ele>90.4</ele><time>2026-05-04T10:53:29.792Z</time></trkpt><trkpt lat="52.53477" lon="-1.4142483"><ele>90.6</ele><time>2026-05-04T10:53:30.791Z</time></trkpt><trkpt lat="52.53472" lon="-1.414105"><ele>90.8</ele><time>2026-05-04T10:53:31.792Z</time></trkpt><trkpt lat="52.53467" lon="-1.4139517"><ele>91.0</ele><time>2026-05-04T10:53:32.79Z</time></trkpt><trkpt lat="52.5346167" lon="-1.4137883"><ele>91.0</ele><time>2026-05-04T10:53:33.791Z</time></trkpt><trkpt lat="52.5345733" lon="-1.41363"><ele>91.0</ele><time>2026-05-04T10:53:34.791Z</time></trkpt><trkpt lat="52.5345217" lon="-1.4134783"><ele>91.0</ele><time>2026-05-04T10:53:35.792Z</time></trkpt><trkpt lat="52.534475" lon="-1.4133333"><ele>91.0</ele><time>2026-05-04T10:53:36.792Z</time></trkpt><trkpt lat="52.5344367" lon="-1.4131817"><ele>91.0</ele><time>2026-05-04T10:53:37.792Z</time></trkpt><trkpt lat="52.5344117" lon="-1.4130383"><ele>91.19999999999999</ele><time>2026-05-04T10:53:38.792Z</time></trkpt><trkpt lat="52.5343983" lon="-1.4128933"><ele>91.39999999999999</ele><time>2026-05-04T10:53:39.791Z</time></trkpt><trkpt lat="52.5344033" lon="-1.4127383"><ele>91.6</ele><time>2026-05-04T10:53:40.791Z</time></trkpt><trkpt lat="52.5344183" lon="-1.4125917"><ele>91.8</ele><time>2026-05-04T10:53:41.794Z</time></trkpt><trkpt lat="52.5344317" lon="-1.41247"><ele>92.0</ele><time>2026-05-04T10:53:42.79Z</time></trkpt><trkpt lat="52.5344517" lon="-1.4123067"><ele>92.0</ele><time>2026-05-04T10:53:44.79Z</time></trkpt><trkpt lat="52.53454" lon="-1.41244"><ele>92.0</ele><time>2026-05-04T10:54:07.985Z</time></trkpt><trkpt lat="52.5344867" lon="-1.4123733"><ele>92.0</ele><time>2026-05-04T10:54:13.791Z</time></trkpt><trkpt lat="52.5344483" lon="-1.41222"><ele>92.0</ele><time>2026-05-04T10:54:16.791Z</time></trkpt><trkpt lat="52.5344183" lon="-1.4121167"><ele>92.0</ele><time>2026-05-04T10:54:17.79Z</time></trkpt><trkpt lat="52.5343733" lon="-1.4120067"><ele>92.0</ele><time>2026-05-04T10:54:18.791Z</time></trkpt><trkpt lat="52.5342883" lon="-1.4118933"><ele>92.25</ele><time>2026-05-04T10:54:19.79Z</time></trkpt><trkpt lat="52.5341817" lon="-1.4118017"><ele>92.5</ele><time>2026-05-04T10:54:20.791Z</time></trkpt><trkpt lat="52.5340717" lon="-1.4117283"><ele>92.75</ele><time>2026-05-04T10:54:21.79Z</time></trkpt><trkpt lat="52.5339617" lon="-1.4116417"><ele>93.0</ele><time>2026-05-04T10:54:22.791Z</time></trkpt><trkpt lat="52.53386" lon="-1.411525"><ele>93.0</ele><time>2026-05-04T10:54:23.791Z</time></trkpt><trkpt lat="52.5337733" lon="-1.4113583"><ele>93.0</ele><time>2026-05-04T10:54:24.792Z</time></trkpt><trkpt lat="52.5336967" lon="-1.4111517"><ele>93.0</ele><time>2026-05-04T10:54:25.792Z</time></trkpt><trkpt lat="52.5336033" lon="-1.4109183"><ele>92.66666666666667</ele><time>2026-05-04T10:54:26.791Z</time></trkpt><trkpt lat="52.5335133" lon="-1.4106783"><ele>92.33333333333334</ele><time>2026-05-04T10:54:27.791Z</time></trkpt><trkpt lat="52.5334283" lon="-1.4104417"><ele>92.0</ele><time>2026-05-04T10:54:28.79Z</time></trkpt><trkpt lat="52.5333483" lon="-1.4102183"><ele>92.66666666666667</ele><time>2026-05-04T10:54:29.792Z</time></trkpt><trkpt lat="52.5332667" lon="-1.4099983"><ele>93.33333333333333</ele><time>2026-05-04T10:54:30.79Z</time></trkpt><trkpt lat="52.5331883" lon="-1.40978"><ele>94.0</ele><time>2026-05-04T10:54:31.791Z</time></trkpt><trkpt lat="52.5331133" lon="-1.409565"><ele>94.25</ele><time>2026-05-04T10:54:32.791Z</time></trkpt><trkpt lat="52.5330367" lon="-1.4093567"><ele>94.5</ele><time>2026-05-04T10:54:33.791Z</time></trkpt><trkpt lat="52.53296" lon="-1.40915"><ele>94.75</ele><time>2026-05-04T10:54:34.791Z</time></trkpt><trkpt lat="52.5328883" lon="-1.40895"><ele>95.0</ele><time>2026-05-04T10:54:35.79Z</time></trkpt><trkpt lat="52.5328183" lon="-1.408745"><ele>95.5</ele><time>2026-05-04T10:54:36.79Z</time></trkpt><trkpt lat="52.53275" lon="-1.4085417"><ele>96.0</ele><time>2026-05-04T10:54:37.792Z</time></trkpt><trkpt lat="52.53268" lon="-1.4083383"><ele>96.5</ele><time>2026-05-04T10:54:38.791Z</time></trkpt><trkpt lat="52.5326083" lon="-1.4081333"><ele>97.0</ele><time>2026-05-04T10:54:39.791Z</time></trkpt><trkpt lat="52.5325383" lon="-1.407925"><ele>97.0</ele><time>2026-05-04T10:54:40.791Z</time></trkpt><trkpt lat="52.5324617" lon="-1.4077117"><ele>97.0</ele><time>2026-05-04T10:54:41.791Z</time></trkpt><trkpt lat="52.5323883" lon="-1.4075"><ele>97.0</ele><time>2026-05-04T10:54:42.79Z</time></trkpt><trkpt lat="52.53231" lon="-1.4072867"><ele>96.66666666666667</ele><time>2026-05-04T10:54:43.791Z</time></trkpt><trkpt lat="52.53223" lon="-1.4070733"><ele>96.33333333333334</ele><time>2026-05-04T10:54:44.791Z</time></trkpt><trkpt lat="52.53215" lon="-1.4068567"><ele>96.0</ele><time>2026-05-04T10:54:45.791Z</time></trkpt><trkpt lat="52.5320717" lon="-1.4066333"><ele>95.33333333333333</ele><time>2026-05-04T10:54:46.79Z</time></trkpt><trkpt lat="52.5319917" lon="-1.4064117"><ele>94.66666666666666</ele><time>2026-05-04T10:54:47.791Z</time></trkpt><trkpt lat="52.5319117" lon="-1.40618"><ele>94.0</ele><time>2026-05-04T10:54:48.79Z</time></trkpt><trkpt lat="52.5318267" lon="-1.4059433"><ele>94.0</ele><time>2026-05-04T10:54:49.79Z</time></trkpt><trkpt lat="52.5317367" lon="-1.4057017"><ele>94.0</ele><time>2026-05-04T10:54:50.792Z</time></trkpt><trkpt lat="52.53164" lon="-1.4054533"><ele>94.0</ele><time>2026-05-04T10:54:51.791Z</time></trkpt><trkpt lat="52.5315483" lon="-1.4052017"><ele>93.66666666666666</ele><time>2026-05-04T10:54:52.791Z</time></trkpt><trkpt lat="52.5314517" lon="-1.4049467"><ele>93.33333333333333</ele><time>2026-05-04T10:54:53.79Z</time></trkpt><trkpt lat="52.53135" lon="-1.4046883"><ele>93.0</ele><time>2026-05-04T10:54:54.796Z</time></trkpt><trkpt lat="52.5312533" lon="-1.4044283"><ele>93.0</ele><time>2026-05-04T10:54:55.79Z</time></trkpt><trkpt lat="52.5311517" lon="-1.404165"><ele>93.0</ele><time>2026-05-04T10:54:56.793Z</time></trkpt><trkpt lat="52.5310533" lon="-1.4039"><ele>93.0</ele><time>2026-05-04T10:54:57.792Z</time></trkpt><trkpt lat="52.5309533" lon="-1.4036383"><ele>93.0</ele><time>2026-05-04T10:54:58.792Z</time></trkpt><trkpt lat="52.5308583" lon="-1.4033767"><ele>93.0</ele><time>2026-05-04T10:54:59.793Z</time></trkpt><trkpt lat="52.5307583" lon="-1.403115"><ele>93.0</ele><time>2026-05-04T10:55:00.792Z</time></trkpt><trkpt lat="52.5306567" lon="-1.402855"><ele>93.33333333333333</ele><time>2026-05-04T10:55:01.79Z</time></trkpt><trkpt lat="52.5305517" lon="-1.402595"><ele>93.66666666666666</ele><time>2026-05-04T10:55:02.791Z</time></trkpt><trkpt lat="52.5304433" lon="-1.4023383"><ele>94.0</ele><time>2026-05-04T10:55:03.791Z</time></trkpt><trkpt lat="52.5303383" lon="-1.4020817"><ele>93.33333333333333</ele><time>2026-05-04T10:55:04.791Z</time></trkpt><trkpt lat="52.5302433" lon="-1.40183"><ele>92.66666666666667</ele><time>2026-05-04T10:55:05.792Z</time></trkpt><trkpt lat="52.530145" lon="-1.4015767"><ele>92.0</ele><time>2026-05-04T10:55:06.79Z</time></trkpt><trkpt lat="52.5300433" lon="-1.40132"><ele>92.0</ele><time>2026-05-04T10:55:07.791Z</time></trkpt><trkpt lat="52.52995" lon="-1.4010633"><ele>92.0</ele><time>2026-05-04T10:55:08.791Z</time></trkpt><trkpt lat="52.529865" lon="-1.4008067"><ele>92.0</ele><time>2026-05-04T10:55:09.795Z</time></trkpt><trkpt lat="52.5297833" lon="-1.4005617"><ele>91.66666666666667</ele><time>2026-05-04T10:55:10.795Z</time></trkpt><trkpt lat="52.5297" lon="-1.4003267"><ele>91.33333333333333</ele><time>2026-05-04T10:55:11.795Z</time></trkpt><trkpt lat="52.529615" lon="-1.4000967"><ele>91.0</ele><time>2026-05-04T10:55:12.795Z</time></trkpt><trkpt lat="52.5295317" lon="-1.3998683"><ele>91.33333333333333</ele><time>2026-05-04T10:55:13.791Z</time></trkpt><trkpt lat="52.5294533" lon="-1.3996383"><ele>91.66666666666667</ele><time>2026-05-04T10:55:14.795Z</time></trkpt><trkpt lat="52.52937" lon="-1.399405"><ele>92.0</ele><time>2026-05-04T10:55:15.794Z</time></trkpt><trkpt lat="52.5292867" lon="-1.3991783"><ele>92.0</ele><time>2026-05-04T10:55:16.791Z</time></trkpt><trkpt lat="52.5292117" lon="-1.3989633"><ele>92.0</ele><time>2026-05-04T10:55:17.794Z</time></trkpt><trkpt lat="52.5291367" lon="-1.3987583"><ele>92.0</ele><time>2026-05-04T10:55:18.791Z</time></trkpt><trkpt lat="52.5290717" lon="-1.3985667"><ele>92.0</ele><time>2026-05-04T10:55:19.795Z</time></trkpt><trkpt lat="52.5290083" lon="-1.3983983"><ele>92.19999999999999</ele><time>2026-05-04T10:55:20.791Z</time></trkpt><trkpt lat="52.5289483" lon="-1.3982433"><ele>92.4</ele><time>2026-05-04T10:55:21.791Z</time></trkpt><trkpt lat="52.5288933" lon="-1.3980967"><ele>92.6</ele><time>2026-05-04T10:55:22.794Z</time></trkpt><trkpt lat="52.5288417" lon="-1.3979633"><ele>92.80000000000001</ele><time>2026-05-04T10:55:23.794Z</time></trkpt><trkpt lat="52.5287933" lon="-1.3978417"><ele>93.0</ele><time>2026-05-04T10:55:24.791Z</time></trkpt><trkpt lat="52.5287467" lon="-1.3977317"><ele>93.00000000000001</ele><time>2026-05-04T10:55:25.795Z</time></trkpt><trkpt lat="52.5287083" lon="-1.397625"><ele>93.0</ele><time>2026-05-04T10:55:26.792Z</time></trkpt><trkpt lat="52.5286783" lon="-1.397515"><ele>93.0</ele><time>2026-05-04T10:55:27.791Z</time></trkpt><trkpt lat="52.528655" lon="-1.3973983"><ele>93.0</ele><time>2026-05-04T10:55:28.795Z</time></trkpt><trkpt lat="52.5286517" lon="-1.397285"><ele>93.0</ele><time>2026-05-04T10:55:29.791Z</time></trkpt><trkpt lat="52.5286567" lon="-1.3971733"><ele>93.00000000000001</ele><time>2026-05-04T10:55:30.795Z</time></trkpt><trkpt lat="52.5286633" lon="-1.3970567"><ele>93.0</ele><time>2026-05-04T10:55:31.79Z</time></trkpt><trkpt lat="52.5286617" lon="-1.3969383"><ele>93.0</ele><time>2026-05-04T10:55:32.79Z</time></trkpt><trkpt lat="52.5286567" lon="-1.3968233"><ele>93.0</ele><time>2026-05-04T10:55:33.794Z</time></trkpt><trkpt lat="52.5286217" lon="-1.3967133"><ele>93.0</ele><time>2026-05-04T10:55:34.795Z</time></trkpt><trkpt lat="52.52856" lon="-1.39661"><ele>93.0</ele><time>2026-05-04T10:55:35.793Z</time></trkpt><trkpt lat="52.5284817" lon="-1.3965167"><ele>93.0</ele><time>2026-05-04T10:55:36.792Z</time></trkpt><trkpt lat="52.5283983" lon="-1.3964183"><ele>93.0</ele><time>2026-05-04T10:55:37.795Z</time></trkpt><trkpt lat="52.5283217" lon="-1.3963117"><ele>93.2</ele><time>2026-05-04T10:55:38.795Z</time></trkpt><trkpt lat="52.5282483" lon="-1.3961917"><ele>93.4</ele><time>2026-05-04T10:55:39.794Z</time></trkpt><trkpt lat="52.52817" lon="-1.3960633"><ele>93.60000000000001</ele><time>2026-05-04T10:55:40.794Z</time></trkpt><trkpt lat="52.5280967" lon="-1.3959183"><ele>93.80000000000001</ele><time>2026-05-04T10:55:41.794Z</time></trkpt><trkpt lat="52.5280317" lon="-1.3957717"><ele>94.0</ele><time>2026-05-04T10:55:42.795Z</time></trkpt><trkpt lat="52.5279783" lon="-1.3956283"><ele>94.0</ele><time>2026-05-04T10:55:43.795Z</time></trkpt><trkpt lat="52.5279217" lon="-1.395475"><ele>94.0</ele><time>2026-05-04T10:55:44.795Z</time></trkpt><trkpt lat="52.5278533" lon="-1.39531"><ele>94.0</ele><time>2026-05-04T10:55:45.791Z</time></trkpt><trkpt lat="52.5277883" lon="-1.395135"><ele>94.0</ele><time>2026-05-04T10:55:46.791Z</time></trkpt><trkpt lat="52.52772" lon="-1.3949517"><ele>94.0</ele><time>2026-05-04T10:55:47.795Z</time></trkpt><trkpt lat="52.5276517" lon="-1.394755"><ele>94.0</ele><time>2026-05-04T10:55:48.795Z</time></trkpt><trkpt lat="52.5275867" lon="-1.3945567"><ele>94.0</ele><time>2026-05-04T10:55:49.794Z</time></trkpt><trkpt lat="52.52752" lon="-1.394355"><ele>94.0</ele><time>2026-05-04T10:55:50.794Z</time></trkpt><trkpt lat="52.527445" lon="-1.39415"><ele>94.0</ele><time>2026-05-04T10:55:51.795Z</time></trkpt><trkpt lat="52.52737" lon="-1.3939467"><ele>94.0</ele><time>2026-05-04T10:55:52.792Z</time></trkpt><trkpt lat="52.527285" lon="-1.3937467"><ele>94.0</ele><time>2026-05-04T10:55:53.794Z</time></trkpt><trkpt lat="52.5272033" lon="-1.3935417"><ele>94.0</ele><time>2026-05-04T10:55:54.794Z</time></trkpt><trkpt lat="52.5271233" lon="-1.3933217"><ele>93.0</ele><time>2026-05-04T10:55:55.79Z</time></trkpt><trkpt lat="52.5270367" lon="-1.39309"><ele>92.0</ele><time>2026-05-04T10:55:56.79Z</time></trkpt><trkpt lat="52.5269483" lon="-1.392855"><ele>91.0</ele><time>2026-05-04T10:55:57.79Z</time></trkpt><trkpt lat="52.5268583" lon="-1.3926183"><ele>91.0</ele><time>2026-05-04T10:55:58.791Z</time></trkpt><trkpt lat="52.526765" lon="-1.392375"><ele>91.0</ele><time>2026-05-04T10:55:59.794Z</time></trkpt><trkpt lat="52.5266717" lon="-1.392135"><ele>91.0</ele><time>2026-05-04T10:56:00.794Z</time></trkpt><trkpt lat="52.5265867" lon="-1.3918967"><ele>91.66666666666666</ele><time>2026-05-04T10:56:01.795Z</time></trkpt><trkpt lat="52.5265017" lon="-1.39166"><ele>92.33333333333333</ele><time>2026-05-04T10:56:02.794Z</time></trkpt><trkpt lat="52.526415" lon="-1.3914183"><ele>93.0</ele><time>2026-05-04T10:56:03.796Z</time></trkpt><trkpt lat="52.52632" lon="-1.3911667"><ele>94.33333333333334</ele><time>2026-05-04T10:56:04.794Z</time></trkpt><trkpt lat="52.5262267" lon="-1.390915"><ele>95.66666666666667</ele><time>2026-05-04T10:56:05.795Z</time></trkpt><trkpt lat="52.5261333" lon="-1.3906617"><ele>97.0</ele><time>2026-05-04T10:56:06.795Z</time></trkpt><trkpt lat="52.52604" lon="-1.3904067"><ele>97.33333333333334</ele><time>2026-05-04T10:56:07.794Z</time></trkpt><trkpt lat="52.525945" lon="-1.3901517"><ele>97.66666666666666</ele><time>2026-05-04T10:56:08.791Z</time></trkpt><trkpt lat="52.52585" lon="-1.3898983"><ele>98.0</ele><time>2026-05-04T10:56:09.794Z</time></trkpt><trkpt lat="52.5257583" lon="-1.3896483"><ele>98.66666666666666</ele><time>2026-05-04T10:56:10.794Z</time></trkpt><trkpt lat="52.5256767" lon="-1.3894133"><ele>99.33333333333334</ele><time>2026-05-04T10:56:11.794Z</time></trkpt><trkpt lat="52.525605" lon="-1.3891933"><ele>100.0</ele><time>2026-05-04T10:56:12.795Z</time></trkpt><trkpt lat="52.52554" lon="-1.3889983"><ele>100.0</ele><time>2026-05-04T10:56:13.795Z</time></trkpt><trkpt lat="52.5254833" lon="-1.3888167"><ele>100.0</ele><time>2026-05-04T10:56:14.791Z</time></trkpt><trkpt lat="52.5254317" lon="-1.3886467"><ele>100.0</ele><time>2026-05-04T10:56:15.79Z</time></trkpt><trkpt lat="52.525385" lon="-1.3884833"><ele>100.0</ele><time>2026-05-04T10:56:16.79Z</time></trkpt><trkpt lat="52.5253483" lon="-1.3883317"><ele>100.0</ele><time>2026-05-04T10:56:17.792Z</time></trkpt><trkpt lat="52.52532" lon="-1.3882033"><ele>100.00000000000001</ele><time>2026-05-04T10:56:18.791Z</time></trkpt><trkpt lat="52.5253" lon="-1.388095"><ele>100.0</ele><time>2026-05-04T10:56:19.795Z</time></trkpt><trkpt lat="52.5252883" lon="-1.3879883"><ele>100.0</ele><time>2026-05-04T10:56:20.79Z</time></trkpt><trkpt lat="52.5252833" lon="-1.38788"><ele>100.0</ele><time>2026-05-04T10:56:21.791Z</time></trkpt><trkpt lat="52.5252833" lon="-1.38777"><ele>100.0</ele><time>2026-05-04T10:56:22.794Z</time></trkpt><trkpt lat="52.5252917" lon="-1.3876567"><ele>100.00000000000001</ele><time>2026-05-04T10:56:23.793Z</time></trkpt><trkpt lat="52.525315" lon="-1.387555"><ele>100.0</ele><time>2026-05-04T10:56:24.794Z</time></trkpt><trkpt lat="52.5253483" lon="-1.3874567"><ele>100.00000000000001</ele><time>2026-05-04T10:56:25.794Z</time></trkpt><trkpt lat="52.52538" lon="-1.38735"><ele>100.0</ele><time>2026-05-04T10:56:26.796Z</time></trkpt><trkpt lat="52.5254067" lon="-1.3872367"><ele>100.0</ele><time>2026-05-04T10:56:27.794Z</time></trkpt><trkpt lat="52.5254183" lon="-1.3871183"><ele>100.0</ele><time>2026-05-04T10:56:28.79Z</time></trkpt><trkpt lat="52.5254167" lon="-1.3870133"><ele>100.00000000000001</ele><time>2026-05-04T10:56:29.793Z</time></trkpt><trkpt lat="52.525355" lon="-1.3868333"><ele>100.0</ele><time>2026-05-04T10:56:31.792Z</time></trkpt><trkpt lat="52.525285" lon="-1.386775"><ele>100.0</ele><time>2026-05-04T10:56:32.794Z</time></trkpt><trkpt lat="52.5252" lon="-1.3867333"><ele>100.0</ele><time>2026-05-04T10:56:33.794Z</time></trkpt><trkpt lat="52.5251183" lon="-1.3866867"><ele>100.0</ele><time>2026-05-04T10:56:34.791Z</time></trkpt><trkpt lat="52.5250283" lon="-1.386625"><ele>100.0</ele><time>2026-05-04T10:56:35.792Z</time></trkpt><trkpt lat="52.52494" lon="-1.3865267"><ele>100.0</ele><time>2026-05-04T10:56:36.791Z</time></trkpt><trkpt lat="52.5248517" lon="-1.3864083"><ele>100.0</ele><time>2026-05-04T10:56:37.794Z</time></trkpt><trkpt lat="52.524765" lon="-1.38628"><ele>100.0</ele><time>2026-05-04T10:56:38.79Z</time></trkpt><trkpt lat="52.5246817" lon="-1.386145"><ele>100.0</ele><time>2026-05-04T10:56:39.791Z</time></trkpt><trkpt lat="52.5245983" lon="-1.3860083"><ele>100.0</ele><time>2026-05-04T10:56:40.792Z</time></trkpt><trkpt lat="52.5245217" lon="-1.3858667"><ele>100.0</ele><time>2026-05-04T10:56:41.791Z</time></trkpt><trkpt lat="52.524445" lon="-1.3857133"><ele>100.0</ele><time>2026-05-04T10:56:42.792Z</time></trkpt><trkpt lat="52.52437" lon="-1.3855517"><ele>100.0</ele><time>2026-05-04T10:56:43.792Z</time></trkpt><trkpt lat="52.5242883" lon="-1.38538"><ele>100.0</ele><time>2026-05-04T10:56:44.794Z</time></trkpt><trkpt lat="52.52421" lon="-1.3851933"><ele>100.0</ele><time>2026-05-04T10:56:45.795Z</time></trkpt><trkpt lat="52.5241317" lon="-1.3849933"><ele>100.0</ele><time>2026-05-04T10:56:46.795Z</time></trkpt><trkpt lat="52.5240583" lon="-1.384785"><ele>100.0</ele><time>2026-05-04T10:56:47.795Z</time></trkpt><trkpt lat="52.5239817" lon="-1.3845767"><ele>100.0</ele><time>2026-05-04T10:56:48.794Z</time></trkpt><trkpt lat="52.5239067" lon="-1.3843633"><ele>100.33333333333334</ele><time>2026-05-04T10:56:49.792Z</time></trkpt><trkpt lat="52.5238283" lon="-1.3841483"><ele>100.66666666666666</ele><time>2026-05-04T10:56:50.791Z</time></trkpt><trkpt lat="52.52375" lon="-1.383935"><ele>101.0</ele><time>2026-05-04T10:56:51.791Z</time></trkpt><trkpt lat="52.5236683" lon="-1.3837233"><ele>100.33333333333333</ele><time>2026-05-04T10:56:52.791Z</time></trkpt><trkpt lat="52.52359" lon="-1.3835133"><ele>99.66666666666666</ele><time>2026-05-04T10:56:53.791Z</time></trkpt><trkpt lat="52.5235117" lon="-1.3833033"><ele>99.0</ele><time>2026-05-04T10:56:54.79Z</time></trkpt><trkpt lat="52.523435" lon="-1.3830917"><ele>99.66666666666666</ele><time>2026-05-04T10:56:55.795Z</time></trkpt><trkpt lat="52.5233517" lon="-1.3828833"><ele>100.33333333333333</ele><time>2026-05-04T10:56:56.791Z</time></trkpt><trkpt lat="52.5232633" lon="-1.3826767"><ele>101.0</ele><time>2026-05-04T10:56:57.791Z</time></trkpt><trkpt lat="52.5231833" lon="-1.3824717"><ele>101.0</ele><time>2026-05-04T10:56:58.792Z</time></trkpt><trkpt lat="52.5230967" lon="-1.38227"><ele>101.0</ele><time>2026-05-04T10:56:59.792Z</time></trkpt><trkpt lat="52.5230067" lon="-1.3820667"><ele>101.0</ele><time>2026-05-04T10:57:00.794Z</time></trkpt><trkpt lat="52.5229167" lon="-1.3818683"><ele>101.25</ele><time>2026-05-04T10:57:01.791Z</time></trkpt><trkpt lat="52.5228283" lon="-1.3816717"><ele>101.5</ele><time>2026-05-04T10:57:02.791Z</time></trkpt><trkpt lat="52.5227333" lon="-1.3814733"><ele>101.75</ele><time>2026-05-04T10:57:03.791Z</time></trkpt><trkpt lat="52.522645" lon="-1.3812833"><ele>102.0</ele><time>2026-05-04T10:57:04.791Z</time></trkpt><trkpt lat="52.522555" lon="-1.38109"><ele>102.5</ele><time>2026-05-04T10:57:05.791Z</time></trkpt><trkpt lat="52.522465" lon="-1.380895"><ele>103.0</ele><time>2026-05-04T10:57:06.792Z</time></trkpt><trkpt lat="52.5223783" lon="-1.380695"><ele>103.5</ele><time>2026-05-04T10:57:07.79Z</time></trkpt><trkpt lat="52.5223" lon="-1.3804933"><ele>104.0</ele><time>2026-05-04T10:57:08.791Z</time></trkpt><trkpt lat="52.52222" lon="-1.3802833"><ele>104.33333333333333</ele><time>2026-05-04T10:57:09.79Z</time></trkpt><trkpt lat="52.52215" lon="-1.3800667"><ele>104.66666666666666</ele><time>2026-05-04T10:57:10.791Z</time></trkpt><trkpt lat="52.5220667" lon="-1.37984"><ele>105.0</ele><time>2026-05-04T10:57:11.792Z</time></trkpt><trkpt lat="52.5219967" lon="-1.3796133"><ele>104.75</ele><time>2026-05-04T10:57:12.79Z</time></trkpt><trkpt lat="52.52193" lon="-1.3793883"><ele>104.5</ele><time>2026-05-04T10:57:13.793Z</time></trkpt><trkpt lat="52.5218667" lon="-1.3791667"><ele>104.25</ele><time>2026-05-04T10:57:14.79Z</time></trkpt><trkpt lat="52.521805" lon="-1.3789467"><ele>104.0</ele><time>2026-05-04T10:57:15.794Z</time></trkpt><trkpt lat="52.5217417" lon="-1.3787283"><ele>104.0</ele><time>2026-05-04T10:57:16.791Z</time></trkpt><trkpt lat="52.52168" lon="-1.3785067"><ele>104.0</ele><time>2026-05-04T10:57:17.792Z</time></trkpt><trkpt lat="52.5216117" lon="-1.378285"><ele>104.0</ele><time>2026-05-04T10:57:18.794Z</time></trkpt><trkpt lat="52.52154" lon="-1.3780633"><ele>105.0</ele><time>2026-05-04T10:57:19.795Z</time></trkpt><trkpt lat="52.521465" lon="-1.377845"><ele>106.0</ele><time>2026-05-04T10:57:20.794Z</time></trkpt><trkpt lat="52.5213917" lon="-1.3776283"><ele>107.0</ele><time>2026-05-04T10:57:21.791Z</time></trkpt><trkpt lat="52.5213117" lon="-1.3774133"><ele>107.0</ele><time>2026-05-04T10:57:22.794Z</time></trkpt><trkpt lat="52.5212317" lon="-1.3772"><ele>107.0</ele><time>2026-05-04T10:57:23.791Z</time></trkpt><trkpt lat="52.5211517" lon="-1.37699"><ele>107.0</ele><time>2026-05-04T10:57:24.791Z</time></trkpt><trkpt lat="52.5210767" lon="-1.3767833"><ele>107.5</ele><time>2026-05-04T10:57:25.794Z</time></trkpt><trkpt lat="52.5210067" lon="-1.3765783"><ele>108.0</ele><time>2026-05-04T10:57:26.791Z</time></trkpt><trkpt lat="52.52093" lon="-1.37637"><ele>108.5</ele><time>2026-05-04T10:57:27.791Z</time></trkpt><trkpt lat="52.5208567" lon="-1.3761617"><ele>109.0</ele><time>2026-05-04T10:57:28.79Z</time></trkpt><trkpt lat="52.5207783" lon="-1.37595"><ele>109.25</ele><time>2026-05-04T10:57:29.79Z</time></trkpt><trkpt lat="52.5206983" lon="-1.3757417"><ele>109.5</ele><time>2026-05-04T10:57:30.79Z</time></trkpt><trkpt lat="52.52062" lon="-1.3755317"><ele>109.75</ele><time>2026-05-04T10:57:31.791Z</time></trkpt><trkpt lat="52.5205383" lon="-1.3753267"><ele>110.0</ele><time>2026-05-04T10:57:32.791Z</time></trkpt><trkpt lat="52.52046" lon="-1.37512"><ele>111.0</ele><time>2026-05-04T10:57:33.791Z</time></trkpt><trkpt lat="52.52038" lon="-1.3749133"><ele>112.0</ele><time>2026-05-04T10:57:34.79Z</time></trkpt><trkpt lat="52.520295" lon="-1.3747083"><ele>113.0</ele><time>2026-05-04T10:57:35.791Z</time></trkpt><trkpt lat="52.5202067" lon="-1.3745017"><ele>113.5</ele><time>2026-05-04T10:57:36.792Z</time></trkpt><trkpt lat="52.5201283" lon="-1.37429"><ele>114.0</ele><time>2026-05-04T10:57:37.792Z</time></trkpt><trkpt lat="52.520055" lon="-1.3740733"><ele>114.5</ele><time>2026-05-04T10:57:38.792Z</time></trkpt><trkpt lat="52.52" lon="-1.37385"><ele>115.0</ele><time>2026-05-04T10:57:39.79Z</time></trkpt><trkpt lat="52.5199483" lon="-1.3736233"><ele>115.5</ele><time>2026-05-04T10:57:40.79Z</time></trkpt><trkpt lat="52.519895" lon="-1.3733983"><ele>116.0</ele><time>2026-05-04T10:57:41.795Z</time></trkpt><trkpt lat="52.5198383" lon="-1.3731733"><ele>116.5</ele><time>2026-05-04T10:57:42.791Z</time></trkpt><trkpt lat="52.5197817" lon="-1.3729517"><ele>117.0</ele><time>2026-05-04T10:57:43.792Z</time></trkpt><trkpt lat="52.5197033" lon="-1.372735"><ele>117.75</ele><time>2026-05-04T10:57:44.79Z</time></trkpt><trkpt lat="52.51963" lon="-1.3725283"><ele>118.5</ele><time>2026-05-04T10:57:45.791Z</time></trkpt><trkpt lat="52.51955" lon="-1.3723317"><ele>119.25</ele><time>2026-05-04T10:57:46.791Z</time></trkpt><trkpt lat="52.5194617" lon="-1.37215"><ele>120.0</ele><time>2026-05-04T10:57:47.791Z</time></trkpt><trkpt lat="52.5193533" lon="-1.371975"><ele>121.0</ele><time>2026-05-04T10:57:48.791Z</time></trkpt><trkpt lat="52.519245" lon="-1.3718067"><ele>122.0</ele><time>2026-05-04T10:57:49.791Z</time></trkpt><trkpt lat="52.5191233" lon="-1.3716417"><ele>123.0</ele><time>2026-05-04T10:57:50.791Z</time></trkpt><trkpt lat="52.519015" lon="-1.371465"><ele>123.66666666666666</ele><time>2026-05-04T10:57:51.791Z</time></trkpt><trkpt lat="52.51891" lon="-1.3712917"><ele>124.33333333333333</ele><time>2026-05-04T10:57:52.79Z</time></trkpt><trkpt lat="52.5188117" lon="-1.3711067"><ele>125.0</ele><time>2026-05-04T10:57:53.791Z</time></trkpt><trkpt lat="52.51871" lon="-1.3709183"><ele>126.25</ele><time>2026-05-04T10:57:54.79Z</time></trkpt><trkpt lat="52.51862" lon="-1.37072"><ele>127.5</ele><time>2026-05-04T10:57:55.792Z</time></trkpt><trkpt lat="52.518535" lon="-1.3705183"><ele>128.75</ele><time>2026-05-04T10:57:56.79Z</time></trkpt><trkpt lat="52.51847" lon="-1.37031"><ele>130.0</ele><time>2026-05-04T10:57:57.79Z</time></trkpt><trkpt lat="52.518405" lon="-1.3700983"><ele>130.0</ele><time>2026-05-04T10:57:58.79Z</time></trkpt><trkpt lat="52.5183317" lon="-1.36988"><ele>130.0</ele><time>2026-05-04T10:57:59.792Z</time></trkpt><trkpt lat="52.5182733" lon="-1.3696533"><ele>130.0</ele><time>2026-05-04T10:58:00.792Z</time></trkpt><trkpt lat="52.518215" lon="-1.36942"><ele>128.33333333333334</ele><time>2026-05-04T10:58:01.792Z</time></trkpt><trkpt lat="52.5181617" lon="-1.36919"><ele>126.66666666666666</ele><time>2026-05-04T10:58:02.791Z</time></trkpt><trkpt lat="52.5180867" lon="-1.3689567"><ele>125.0</ele><time>2026-05-04T10:58:03.791Z</time></trkpt><trkpt lat="52.5180333" lon="-1.36872"><ele>125.0</ele><time>2026-05-04T10:58:04.796Z</time></trkpt><trkpt lat="52.51796" lon="-1.3684833"><ele>125.0</ele><time>2026-05-04T10:58:05.789Z</time></trkpt><trkpt lat="52.5178867" lon="-1.36825"><ele>125.0</ele><time>2026-05-04T10:58:06.794Z</time></trkpt><trkpt lat="52.517825" lon="-1.3680167"><ele>124.33333333333333</ele><time>2026-05-04T10:58:07.79Z</time></trkpt><trkpt lat="52.5177567" lon="-1.3677817"><ele>123.66666666666666</ele><time>2026-05-04T10:58:08.791Z</time></trkpt><trkpt lat="52.5176883" lon="-1.367545"><ele>123.0</ele><time>2026-05-04T10:58:09.794Z</time></trkpt><trkpt lat="52.51762" lon="-1.367315"><ele>122.66666666666666</ele><time>2026-05-04T10:58:10.793Z</time></trkpt><trkpt lat="52.5175467" lon="-1.3670883"><ele>122.33333333333333</ele><time>2026-05-04T10:58:11.793Z</time></trkpt><trkpt lat="52.5174733" lon="-1.3668717"><ele>122.0</ele><time>2026-05-04T10:58:12.792Z</time></trkpt><trkpt lat="52.51739" lon="-1.3666633"><ele>122.0</ele><time>2026-05-04T10:58:13.793Z</time></trkpt><trkpt lat="52.5173033" lon="-1.3664583"><ele>122.0</ele><time>2026-05-04T10:58:14.795Z</time></trkpt><trkpt lat="52.5172133" lon="-1.3662567"><ele>122.0</ele><time>2026-05-04T10:58:15.792Z</time></trkpt><trkpt lat="52.5171217" lon="-1.366055"><ele>121.0</ele><time>2026-05-04T10:58:16.791Z</time></trkpt><trkpt lat="52.5170333" lon="-1.3658517"><ele>120.0</ele><time>2026-05-04T10:58:17.791Z</time></trkpt><trkpt lat="52.5169467" lon="-1.3656467"><ele>119.0</ele><time>2026-05-04T10:58:18.791Z</time></trkpt><trkpt lat="52.5168633" lon="-1.36544"><ele>118.5</ele><time>2026-05-04T10:58:19.791Z</time></trkpt><trkpt lat="52.5167833" lon="-1.3652317"><ele>118.0</ele><time>2026-05-04T10:58:20.791Z</time></trkpt><trkpt lat="52.5166983" lon="-1.3650283"><ele>117.5</ele><time>2026-05-04T10:58:21.79Z</time></trkpt><trkpt lat="52.5166183" lon="-1.364825"><ele>117.0</ele><time>2026-05-04T10:58:22.791Z</time></trkpt><trkpt lat="52.516535" lon="-1.3646167"><ele>116.25</ele><time>2026-05-04T10:58:23.793Z</time></trkpt><trkpt lat="52.5164517" lon="-1.3644133"><ele>115.5</ele><time>2026-05-04T10:58:24.791Z</time></trkpt><trkpt lat="52.51637" lon="-1.36421"><ele>114.75</ele><time>2026-05-04T10:58:25.792Z</time></trkpt><trkpt lat="52.5162917" lon="-1.364015"><ele>114.0</ele><time>2026-05-04T10:58:26.795Z</time></trkpt><trkpt lat="52.5162167" lon="-1.3638333"><ele>114.0</ele><time>2026-05-04T10:58:27.791Z</time></trkpt><trkpt lat="52.51615" lon="-1.363665"><ele>114.0</ele><time>2026-05-04T10:58:28.791Z</time></trkpt><trkpt lat="52.516085" lon="-1.3635117"><ele>114.0</ele><time>2026-05-04T10:58:29.791Z</time></trkpt><trkpt lat="52.51602" lon="-1.3633617"><ele>114.0</ele><time>2026-05-04T10:58:30.795Z</time></trkpt><trkpt lat="52.5159567" lon="-1.3632167"><ele>114.0</ele><time>2026-05-04T10:58:31.791Z</time></trkpt><trkpt lat="52.5159017" lon="-1.3630817"><ele>114.0</ele><time>2026-05-04T10:58:32.791Z</time></trkpt><trkpt lat="52.5158533" lon="-1.3629683"><ele>114.0</ele><time>2026-05-04T10:58:33.791Z</time></trkpt><trkpt lat="52.5158167" lon="-1.3628717"><ele>114.0</ele><time>2026-05-04T10:58:34.795Z</time></trkpt><trkpt lat="52.5157817" lon="-1.3627567"><ele>114.0</ele><time>2026-05-04T10:58:36.791Z</time></trkpt><trkpt lat="52.5157667" lon="-1.362615"><ele>114.0</ele><time>2026-05-04T10:58:38.791Z</time></trkpt><trkpt lat="52.515775" lon="-1.3625"><ele>114.0</ele><time>2026-05-04T10:58:39.791Z</time></trkpt><trkpt lat="52.515795" lon="-1.3623383"><ele>114.0</ele><time>2026-05-04T10:58:40.79Z</time></trkpt><trkpt lat="52.5158267" lon="-1.3621217"><ele>114.0</ele><time>2026-05-04T10:58:41.795Z</time></trkpt><trkpt lat="52.515875" lon="-1.3618883"><ele>114.0</ele><time>2026-05-04T10:58:42.795Z</time></trkpt><trkpt lat="52.5159167" lon="-1.3616767"><ele>114.0</ele><time>2026-05-04T10:58:43.795Z</time></trkpt><trkpt lat="52.5159517" lon="-1.3614733"><ele>114.0</ele><time>2026-05-04T10:58:44.792Z</time></trkpt><trkpt lat="52.5159817" lon="-1.3612717"><ele>114.0</ele><time>2026-05-04T10:58:45.794Z</time></trkpt><trkpt lat="52.5160133" lon="-1.3610667"><ele>114.0</ele><time>2026-05-04T10:58:46.795Z</time></trkpt><trkpt lat="52.5160217" lon="-1.360855"><ele>114.25</ele><time>2026-05-04T10:58:47.793Z</time></trkpt><trkpt lat="52.5160167" lon="-1.3606533"><ele>114.5</ele><time>2026-05-04T10:58:48.794Z</time></trkpt><trkpt lat="52.5159933" lon="-1.3604533"><ele>114.75</ele><time>2026-05-04T10:58:49.791Z</time></trkpt><trkpt lat="52.5159533" lon="-1.3602517"><ele>115.0</ele><time>2026-05-04T10:58:50.791Z</time></trkpt><trkpt lat="52.5159017" lon="-1.3600567"><ele>115.0</ele><time>2026-05-04T10:58:51.791Z</time></trkpt><trkpt lat="52.5158333" lon="-1.3598767"><ele>115.0</ele><time>2026-05-04T10:58:52.792Z</time></trkpt><trkpt lat="52.5157583" lon="-1.3597267"><ele>115.0</ele><time>2026-05-04T10:58:53.79Z</time></trkpt><trkpt lat="52.515675" lon="-1.3596"><ele>115.0</ele><time>2026-05-04T10:58:54.792Z</time></trkpt><trkpt lat="52.5155867" lon="-1.3594783"><ele>115.0</ele><time>2026-05-04T10:58:55.791Z</time></trkpt><trkpt lat="52.5154833" lon="-1.3593983"><ele>115.0</ele><time>2026-05-04T10:58:56.792Z</time></trkpt><trkpt lat="52.5153533" lon="-1.3594333"><ele>115.0</ele><time>2026-05-04T10:58:57.792Z</time></trkpt><trkpt lat="52.5152267" lon="-1.3594717"><ele>115.0</ele><time>2026-05-04T10:58:58.793Z</time></trkpt><trkpt lat="52.515085" lon="-1.359525"><ele>114.0</ele><time>2026-05-04T10:58:59.795Z</time></trkpt><trkpt lat="52.5149417" lon="-1.3595767"><ele>113.0</ele><time>2026-05-04T10:59:00.793Z</time></trkpt><trkpt lat="52.5147933" lon="-1.35962"><ele>112.0</ele><time>2026-05-04T10:59:01.791Z</time></trkpt><trkpt lat="52.5146417" lon="-1.35964"><ele>111.0</ele><time>2026-05-04T10:59:02.791Z</time></trkpt><trkpt lat="52.514495" lon="-1.35963"><ele>110.0</ele><time>2026-05-04T10:59:03.792Z</time></trkpt><trkpt lat="52.51435" lon="-1.3595583"><ele>109.0</ele><time>2026-05-04T10:59:04.792Z</time></trkpt><trkpt lat="52.514215" lon="-1.3594333"><ele>109.0</ele><time>2026-05-04T10:59:05.791Z</time></trkpt><trkpt lat="52.5141083" lon="-1.3592467"><ele>109.0</ele><time>2026-05-04T10:59:06.79Z</time></trkpt><trkpt lat="52.51404" lon="-1.3589833"><ele>109.0</ele><time>2026-05-04T10:59:07.791Z</time></trkpt><trkpt lat="52.514" lon="-1.3586717"><ele>109.0</ele><time>2026-05-04T10:59:08.795Z</time></trkpt><trkpt lat="52.5139433" lon="-1.3583667"><ele>109.0</ele><time>2026-05-04T10:59:09.794Z</time></trkpt><trkpt lat="52.5138833" lon="-1.35807"><ele>109.0</ele><time>2026-05-04T10:59:10.794Z</time></trkpt><trkpt lat="52.513815" lon="-1.3577667"><ele>109.0</ele><time>2026-05-04T10:59:11.795Z</time></trkpt><trkpt lat="52.513745" lon="-1.3574667"><ele>109.0</ele><time>2026-05-04T10:59:12.794Z</time></trkpt><trkpt lat="52.51367" lon="-1.35717"><ele>109.0</ele><time>2026-05-04T10:59:13.794Z</time></trkpt><trkpt lat="52.51359" lon="-1.3568817"><ele>108.66666666666667</ele><time>2026-05-04T10:59:14.794Z</time></trkpt><trkpt lat="52.5135017" lon="-1.3565917"><ele>108.33333333333334</ele><time>2026-05-04T10:59:15.795Z</time></trkpt><trkpt lat="52.513415" lon="-1.3563067"><ele>108.0</ele><time>2026-05-04T10:59:16.79Z</time></trkpt><trkpt lat="52.513325" lon="-1.3560283"><ele>108.0</ele><time>2026-05-04T10:59:17.791Z</time></trkpt><trkpt lat="52.51323" lon="-1.3557517"><ele>108.0</ele><time>2026-05-04T10:59:18.791Z</time></trkpt><trkpt lat="52.51313" lon="-1.35548"><ele>108.0</ele><time>2026-05-04T10:59:19.796Z</time></trkpt><trkpt lat="52.5130283" lon="-1.355205"><ele>108.0</ele><time>2026-05-04T10:59:20.792Z</time></trkpt><trkpt lat="52.512925" lon="-1.3549267"><ele>108.0</ele><time>2026-05-04T10:59:21.792Z</time></trkpt><trkpt lat="52.51282" lon="-1.3546483"><ele>108.0</ele><time>2026-05-04T10:59:22.791Z</time></trkpt><trkpt lat="52.51272" lon="-1.3543667"><ele>107.0</ele><time>2026-05-04T10:59:23.794Z</time></trkpt><trkpt lat="52.5126233" lon="-1.3540917"><ele>106.0</ele><time>2026-05-04T10:59:24.794Z</time></trkpt><trkpt lat="52.51253" lon="-1.35382"><ele>105.0</ele><time>2026-05-04T10:59:25.795Z</time></trkpt><trkpt lat="52.5124383" lon="-1.35355"><ele>104.66666666666666</ele><time>2026-05-04T10:59:26.795Z</time></trkpt><trkpt lat="52.51235" lon="-1.3532817"><ele>104.33333333333333</ele><time>2026-05-04T10:59:27.79Z</time></trkpt><trkpt lat="52.51226" lon="-1.3530167"><ele>104.0</ele><time>2026-05-04T10:59:28.79Z</time></trkpt><trkpt lat="52.5121683" lon="-1.3527517"><ele>104.66666666666666</ele><time>2026-05-04T10:59:29.792Z</time></trkpt><trkpt lat="52.5120717" lon="-1.3524917"><ele>105.33333333333334</ele><time>2026-05-04T10:59:30.792Z</time></trkpt><trkpt lat="52.5119783" lon="-1.352235"><ele>106.0</ele><time>2026-05-04T10:59:31.791Z</time></trkpt><trkpt lat="52.51188" lon="-1.3519833"><ele>106.0</ele><time>2026-05-04T10:59:32.791Z</time></trkpt><trkpt lat="52.51178" lon="-1.3517317"><ele>106.0</ele><time>2026-05-04T10:59:33.79Z</time></trkpt><trkpt lat="52.5116817" lon="-1.3514733"><ele>106.0</ele><time>2026-05-04T10:59:34.791Z</time></trkpt><trkpt lat="52.5115867" lon="-1.3512183"><ele>105.66666666666667</ele><time>2026-05-04T10:59:35.791Z</time></trkpt><trkpt lat="52.5114883" lon="-1.3509633"><ele>105.33333333333334</ele><time>2026-05-04T10:59:36.791Z</time></trkpt><trkpt lat="52.5113883" lon="-1.3507067"><ele>105.0</ele><time>2026-05-04T10:59:37.79Z</time></trkpt><trkpt lat="52.5112917" lon="-1.3504483"><ele>105.66666666666666</ele><time>2026-05-04T10:59:38.791Z</time></trkpt><trkpt lat="52.5111983" lon="-1.3501933"><ele>106.33333333333333</ele><time>2026-05-04T10:59:39.792Z</time></trkpt><trkpt lat="52.5111" lon="-1.3499367"><ele>107.0</ele><time>2026-05-04T10:59:40.791Z</time></trkpt><trkpt lat="52.5110017" lon="-1.34968"><ele>107.0</ele><time>2026-05-04T10:59:41.791Z</time></trkpt><trkpt lat="52.5109117" lon="-1.3494217"><ele>107.0</ele><time>2026-05-04T10:59:42.791Z</time></trkpt><trkpt lat="52.5108167" lon="-1.349165"><ele>107.0</ele><time>2026-05-04T10:59:43.791Z</time></trkpt><trkpt lat="52.51072" lon="-1.3489067"><ele>106.66666666666666</ele><time>2026-05-04T10:59:44.791Z</time></trkpt><trkpt lat="52.510625" lon="-1.34865"><ele>106.33333333333334</ele><time>2026-05-04T10:59:45.791Z</time></trkpt><trkpt lat="52.51053" lon="-1.3483933"><ele>106.0</ele><time>2026-05-04T10:59:46.791Z</time></trkpt><trkpt lat="52.5104367" lon="-1.3481383"><ele>106.66666666666667</ele><time>2026-05-04T10:59:47.792Z</time></trkpt><trkpt lat="52.5103433" lon="-1.34788"><ele>107.33333333333334</ele><time>2026-05-04T10:59:48.79Z</time></trkpt><trkpt lat="52.510245" lon="-1.3476167"><ele>108.0</ele><time>2026-05-04T10:59:49.79Z</time></trkpt><trkpt lat="52.51015" lon="-1.3473567"><ele>107.66666666666666</ele><time>2026-05-04T10:59:50.79Z</time></trkpt><trkpt lat="52.51005" lon="-1.3470933"><ele>107.33333333333333</ele><time>2026-05-04T10:59:51.791Z</time></trkpt><trkpt lat="52.5099533" lon="-1.3468333"><ele>107.0</ele><time>2026-05-04T10:59:52.791Z</time></trkpt><trkpt lat="52.509855" lon="-1.3465683"><ele>107.33333333333333</ele><time>2026-05-04T10:59:53.791Z</time></trkpt><trkpt lat="52.5097583" lon="-1.3463067"><ele>107.66666666666666</ele><time>2026-05-04T10:59:54.791Z</time></trkpt><trkpt lat="52.5096617" lon="-1.3460467"><ele>108.0</ele><time>2026-05-04T10:59:55.796Z</time></trkpt><trkpt lat="52.509565" lon="-1.3457917"><ele>108.0</ele><time>2026-05-04T10:59:56.792Z</time></trkpt><trkpt lat="52.5094733" lon="-1.3455333"><ele>108.0</ele><time>2026-05-04T10:59:57.79Z</time></trkpt><trkpt lat="52.5093783" lon="-1.345275"><ele>108.0</ele><time>2026-05-04T10:59:58.793Z</time></trkpt><trkpt lat="52.509285" lon="-1.345015"><ele>108.0</ele><time>2026-05-04T10:59:59.791Z</time></trkpt><trkpt lat="52.5091883" lon="-1.34475"><ele>108.0</ele><time>2026-05-04T11:00:00.791Z</time></trkpt><trkpt lat="52.5090917" lon="-1.3444867"><ele>108.0</ele><time>2026-05-04T11:00:01.791Z</time></trkpt><trkpt lat="52.509" lon="-1.344225"><ele>107.66666666666666</ele><time>2026-05-04T11:00:02.791Z</time></trkpt><trkpt lat="52.5089033" lon="-1.3439683"><ele>107.33333333333333</ele><time>2026-05-04T11:00:03.791Z</time></trkpt><trkpt lat="52.5088083" lon="-1.343715"><ele>107.0</ele><time>2026-05-04T11:00:04.791Z</time></trkpt><trkpt lat="52.508715" lon="-1.34346"><ele>107.0</ele><time>2026-05-04T11:00:05.791Z</time></trkpt><trkpt lat="52.5086283" lon="-1.34321"><ele>107.0</ele><time>2026-05-04T11:00:06.79Z</time></trkpt><trkpt lat="52.508555" lon="-1.3429783"><ele>107.0</ele><time>2026-05-04T11:00:07.791Z</time></trkpt><trkpt lat="52.5085033" lon="-1.3427567"><ele>107.0</ele><time>2026-05-04T11:00:08.79Z</time></trkpt><trkpt lat="52.5084767" lon="-1.3425483"><ele>107.0</ele><time>2026-05-04T11:00:09.791Z</time></trkpt><trkpt lat="52.5084817" lon="-1.342355"><ele>107.0</ele><time>2026-05-04T11:00:10.794Z</time></trkpt><trkpt lat="52.5085167" lon="-1.342175"><ele>107.0</ele><time>2026-05-04T11:00:11.795Z</time></trkpt><trkpt lat="52.5085467" lon="-1.3420083"><ele>107.39999999999999</ele><time>2026-05-04T11:00:12.794Z</time></trkpt><trkpt lat="52.5085483" lon="-1.3418617"><ele>107.79999999999998</ele><time>2026-05-04T11:00:13.792Z</time></trkpt><trkpt lat="52.5085317" lon="-1.3417317"><ele>108.2</ele><time>2026-05-04T11:00:14.79Z</time></trkpt><trkpt lat="52.5084917" lon="-1.3416217"><ele>108.6</ele><time>2026-05-04T11:00:15.794Z</time></trkpt><trkpt lat="52.5084083" lon="-1.34154"><ele>109.0</ele><time>2026-05-04T11:00:16.79Z</time></trkpt><trkpt lat="52.508285" lon="-1.3414867"><ele>109.0</ele><time>2026-05-04T11:00:17.795Z</time></trkpt><trkpt lat="52.5081467" lon="-1.34142"><ele>109.0</ele><time>2026-05-04T11:00:18.79Z</time></trkpt><trkpt lat="52.5080183" lon="-1.3413017"><ele>109.0</ele><time>2026-05-04T11:00:19.791Z</time></trkpt><trkpt lat="52.507885" lon="-1.3411517"><ele>110.66666666666667</ele><time>2026-05-04T11:00:20.793Z</time></trkpt><trkpt lat="52.50776" lon="-1.34096"><ele>112.33333333333334</ele><time>2026-05-04T11:00:21.794Z</time></trkpt><trkpt lat="52.507645" lon="-1.340725"><ele>114.0</ele><time>2026-05-04T11:00:22.795Z</time></trkpt><trkpt lat="52.5075383" lon="-1.3404717"><ele>114.66666666666666</ele><time>2026-05-04T11:00:23.795Z</time></trkpt><trkpt lat="52.5074383" lon="-1.3402233"><ele>115.33333333333333</ele><time>2026-05-04T11:00:24.79Z</time></trkpt><trkpt lat="52.50734" lon="-1.339985"><ele>116.0</ele><time>2026-05-04T11:00:25.791Z</time></trkpt><trkpt lat="52.507245" lon="-1.33975"><ele>116.33333333333333</ele><time>2026-05-04T11:00:26.791Z</time></trkpt><trkpt lat="52.5071517" lon="-1.3395133"><ele>116.66666666666666</ele><time>2026-05-04T11:00:27.791Z</time></trkpt><trkpt lat="52.5070533" lon="-1.3392883"><ele>117.0</ele><time>2026-05-04T11:00:28.79Z</time></trkpt><trkpt lat="52.50695" lon="-1.3390833"><ele>117.33333333333334</ele><time>2026-05-04T11:00:29.791Z</time></trkpt><trkpt lat="52.506855" lon="-1.3388917"><ele>117.66666666666667</ele><time>2026-05-04T11:00:30.794Z</time></trkpt><trkpt lat="52.5067517" lon="-1.33871"><ele>118.0</ele><time>2026-05-04T11:00:31.791Z</time></trkpt><trkpt lat="52.5066533" lon="-1.3385267"><ele>118.25</ele><time>2026-05-04T11:00:32.79Z</time></trkpt><trkpt lat="52.506565" lon="-1.3383417"><ele>118.5</ele><time>2026-05-04T11:00:33.79Z</time></trkpt><trkpt lat="52.506485" lon="-1.3381483"><ele>118.75</ele><time>2026-05-04T11:00:34.79Z</time></trkpt><trkpt lat="52.5064067" lon="-1.33795"><ele>119.0</ele><time>2026-05-04T11:00:35.791Z</time></trkpt><trkpt lat="52.5063317" lon="-1.33775"><ele>119.0</ele><time>2026-05-04T11:00:36.791Z</time></trkpt><trkpt lat="52.5062567" lon="-1.3375483"><ele>119.0</ele><time>2026-05-04T11:00:37.79Z</time></trkpt><trkpt lat="52.5061783" lon="-1.3373467"><ele>119.0</ele><time>2026-05-04T11:00:38.791Z</time></trkpt><trkpt lat="52.5061" lon="-1.337135"><ele>119.0</ele><time>2026-05-04T11:00:39.79Z</time></trkpt><trkpt lat="52.5060233" lon="-1.336905"><ele>118.66666666666666</ele><time>2026-05-04T11:00:40.795Z</time></trkpt><trkpt lat="52.5059383" lon="-1.3366633"><ele>118.33333333333334</ele><time>2026-05-04T11:00:41.794Z</time></trkpt><trkpt lat="52.5058517" lon="-1.3364183"><ele>118.0</ele><time>2026-05-04T11:00:42.794Z</time></trkpt><trkpt lat="52.505765" lon="-1.3361717"><ele>117.66666666666667</ele><time>2026-05-04T11:00:43.794Z</time></trkpt><trkpt lat="52.5056783" lon="-1.3359217"><ele>117.33333333333334</ele><time>2026-05-04T11:00:44.795Z</time></trkpt><trkpt lat="52.5055933" lon="-1.3356767"><ele>117.0</ele><time>2026-05-04T11:00:45.794Z</time></trkpt><trkpt lat="52.5055083" lon="-1.3354333"><ele>116.33333333333334</ele><time>2026-05-04T11:00:46.792Z</time></trkpt><trkpt lat="52.5054183" lon="-1.3351917"><ele>115.66666666666667</ele><time>2026-05-04T11:00:47.792Z</time></trkpt><trkpt lat="52.5053317" lon="-1.33495"><ele>115.0</ele><time>2026-05-04T11:00:48.79Z</time></trkpt><trkpt lat="52.505245" lon="-1.334705"><ele>116.33333333333334</ele><time>2026-05-04T11:00:49.79Z</time></trkpt><trkpt lat="52.5051567" lon="-1.3344467"><ele>117.66666666666666</ele><time>2026-05-04T11:00:50.791Z</time></trkpt><trkpt lat="52.5050717" lon="-1.3341767"><ele>119.0</ele><time>2026-05-04T11:00:51.789Z</time></trkpt><trkpt lat="52.5049867" lon="-1.3339033"><ele>119.0</ele><time>2026-05-04T11:00:52.791Z</time></trkpt><trkpt lat="52.5049117" lon="-1.3336317"><ele>119.0</ele><time>2026-05-04T11:00:53.79Z</time></trkpt><trkpt lat="52.5048317" lon="-1.33336"><ele>119.0</ele><time>2026-05-04T11:00:54.796Z</time></trkpt><trkpt lat="52.5047433" lon="-1.33308"><ele>118.66666666666666</ele><time>2026-05-04T11:00:55.794Z</time></trkpt><trkpt lat="52.50466" lon="-1.332805"><ele>118.33333333333334</ele><time>2026-05-04T11:00:56.795Z</time></trkpt><trkpt lat="52.5045783" lon="-1.332545"><ele>118.0</ele><time>2026-05-04T11:00:57.795Z</time></trkpt><trkpt lat="52.5044967" lon="-1.33229"><ele>118.33333333333334</ele><time>2026-05-04T11:00:58.792Z</time></trkpt><trkpt lat="52.50441" lon="-1.3320333"><ele>118.66666666666666</ele><time>2026-05-04T11:00:59.791Z</time></trkpt><trkpt lat="52.5043117" lon="-1.3317783"><ele>119.0</ele><time>2026-05-04T11:01:00.79Z</time></trkpt><trkpt lat="52.504215" lon="-1.3315233"><ele>118.0</ele><time>2026-05-04T11:01:01.791Z</time></trkpt><trkpt lat="52.5041183" lon="-1.3312683"><ele>117.0</ele><time>2026-05-04T11:01:02.791Z</time></trkpt><trkpt lat="52.504025" lon="-1.331015"><ele>116.0</ele><time>2026-05-04T11:01:03.791Z</time></trkpt><trkpt lat="52.5039317" lon="-1.3307617"><ele>115.66666666666666</ele><time>2026-05-04T11:01:04.792Z</time></trkpt><trkpt lat="52.50383" lon="-1.3304983"><ele>115.33333333333334</ele><time>2026-05-04T11:01:05.791Z</time></trkpt><trkpt lat="52.50372" lon="-1.3302267"><ele>115.0</ele><time>2026-05-04T11:01:06.79Z</time></trkpt><trkpt lat="52.503615" lon="-1.3299533"><ele>114.66666666666667</ele><time>2026-05-04T11:01:07.79Z</time></trkpt><trkpt lat="52.50352" lon="-1.329685"><ele>114.33333333333334</ele><time>2026-05-04T11:01:08.791Z</time></trkpt><trkpt lat="52.503425" lon="-1.3294317"><ele>114.0</ele><time>2026-05-04T11:01:09.791Z</time></trkpt><trkpt lat="52.50333" lon="-1.3291767"><ele>114.0</ele><time>2026-05-04T11:01:10.795Z</time></trkpt><trkpt lat="52.5032333" lon="-1.328915"><ele>114.0</ele><time>2026-05-04T11:01:11.794Z</time></trkpt><trkpt lat="52.50313" lon="-1.3286483"><ele>114.0</ele><time>2026-05-04T11:01:12.794Z</time></trkpt><trkpt lat="52.5030267" lon="-1.3283817"><ele>113.66666666666666</ele><time>2026-05-04T11:01:13.794Z</time></trkpt><trkpt lat="52.50292" lon="-1.3281183"><ele>113.33333333333333</ele><time>2026-05-04T11:01:14.794Z</time></trkpt><trkpt lat="52.5028183" lon="-1.327855"><ele>113.0</ele><time>2026-05-04T11:01:15.793Z</time></trkpt><trkpt lat="52.5027133" lon="-1.3275883"><ele>111.33333333333333</ele><time>2026-05-04T11:01:16.792Z</time></trkpt><trkpt lat="52.502605" lon="-1.3273117"><ele>109.66666666666666</ele><time>2026-05-04T11:01:17.791Z</time></trkpt><trkpt lat="52.502495" lon="-1.327015"><ele>108.0</ele><time>2026-05-04T11:01:18.791Z</time></trkpt><trkpt lat="52.5023817" lon="-1.32671"><ele>107.0</ele><time>2026-05-04T11:01:19.791Z</time></trkpt><trkpt lat="52.5022617" lon="-1.3264033"><ele>106.0</ele><time>2026-05-04T11:01:20.791Z</time></trkpt><trkpt lat="52.50214" lon="-1.3260967"><ele>105.0</ele><time>2026-05-04T11:01:21.791Z</time></trkpt><trkpt lat="52.50202" lon="-1.3257833"><ele>103.0</ele><time>2026-05-04T11:01:22.79Z</time></trkpt><trkpt lat="52.5018917" lon="-1.3254633"><ele>101.0</ele><time>2026-05-04T11:01:23.795Z</time></trkpt><trkpt lat="52.501765" lon="-1.3251417"><ele>101.0</ele><time>2026-05-04T11:01:24.795Z</time></trkpt><trkpt lat="52.501635" lon="-1.3248167"><ele>101.0</ele><time>2026-05-04T11:01:25.795Z</time></trkpt><trkpt lat="52.50151" lon="-1.3244917"><ele>101.0</ele><time>2026-05-04T11:01:26.796Z</time></trkpt><trkpt lat="52.5013867" lon="-1.32416"><ele>101.0</ele><time>2026-05-04T11:01:27.79Z</time></trkpt><trkpt lat="52.5012667" lon="-1.3238317"><ele>102.0</ele><time>2026-05-04T11:01:28.791Z</time></trkpt><trkpt lat="52.50115" lon="-1.3235017"><ele>103.0</ele><time>2026-05-04T11:01:29.792Z</time></trkpt><trkpt lat="52.5010317" lon="-1.3231767"><ele>104.5</ele><time>2026-05-04T11:01:30.791Z</time></trkpt><trkpt lat="52.500915" lon="-1.3228533"><ele>106.0</ele><time>2026-05-04T11:01:31.795Z</time></trkpt><trkpt lat="52.5007933" lon="-1.3225283"><ele>108.0</ele><time>2026-05-04T11:01:32.795Z</time></trkpt><trkpt lat="52.5006717" lon="-1.3222067"><ele>110.0</ele><time>2026-05-04T11:01:33.791Z</time></trkpt><trkpt lat="52.50055" lon="-1.321885"><ele>110.0</ele><time>2026-05-04T11:01:34.79Z</time></trkpt><trkpt lat="52.500435" lon="-1.3215617"><ele>110.0</ele><time>2026-05-04T11:01:35.794Z</time></trkpt><trkpt lat="52.5003133" lon="-1.3212383"><ele>114.0</ele><time>2026-05-04T11:01:36.79Z</time></trkpt><trkpt lat="52.50019" lon="-1.3209117"><ele>118.0</ele><time>2026-05-04T11:01:37.79Z</time></trkpt><trkpt lat="52.500055" lon="-1.320585"><ele>120.0</ele><time>2026-05-04T11:01:38.792Z</time></trkpt><trkpt lat="52.4999217" lon="-1.3202617"><ele>122.0</ele><time>2026-05-04T11:01:39.791Z</time></trkpt><trkpt lat="52.4997967" lon="-1.3199383"><ele>122.5</ele><time>2026-05-04T11:01:40.794Z</time></trkpt><trkpt lat="52.4996717" lon="-1.31962"><ele>123.0</ele><time>2026-05-04T11:01:41.793Z</time></trkpt><trkpt lat="52.49955" lon="-1.3192967"><ele>124.0</ele><time>2026-05-04T11:01:42.795Z</time></trkpt><trkpt lat="52.4994317" lon="-1.3189667"><ele>125.0</ele><time>2026-05-04T11:01:43.793Z</time></trkpt><trkpt lat="52.4993083" lon="-1.3186383"><ele>125.0</ele><time>2026-05-04T11:01:44.798Z</time></trkpt><trkpt lat="52.4991867" lon="-1.3183133"><ele>125.0</ele><time>2026-05-04T11:01:45.793Z</time></trkpt><trkpt lat="52.499065" lon="-1.31799"><ele>125.0</ele><time>2026-05-04T11:01:46.794Z</time></trkpt><trkpt lat="52.49894" lon="-1.3176617"><ele>125.0</ele><time>2026-05-04T11:01:47.795Z</time></trkpt><trkpt lat="52.4988117" lon="-1.3173233"><ele>125.5</ele><time>2026-05-04T11:01:48.794Z</time></trkpt><trkpt lat="52.4986817" lon="-1.3169683"><ele>126.0</ele><time>2026-05-04T11:01:49.795Z</time></trkpt><trkpt lat="52.4985483" lon="-1.3166017"><ele>126.0</ele><time>2026-05-04T11:01:50.794Z</time></trkpt><trkpt lat="52.4984083" lon="-1.31622"><ele>126.0</ele><time>2026-05-04T11:01:51.791Z</time></trkpt><trkpt lat="52.4982667" lon="-1.315825"><ele>126.0</ele><time>2026-05-04T11:01:52.792Z</time></trkpt><trkpt lat="52.49812" lon="-1.3154217"><ele>126.0</ele><time>2026-05-04T11:01:53.79Z</time></trkpt><trkpt lat="52.4979767" lon="-1.3150117"><ele>125.5</ele><time>2026-05-04T11:01:54.795Z</time></trkpt><trkpt lat="52.49784" lon="-1.3146"><ele>125.0</ele><time>2026-05-04T11:01:55.794Z</time></trkpt><trkpt lat="52.4977067" lon="-1.3141983"><ele>125.5</ele><time>2026-05-04T11:01:56.795Z</time></trkpt><trkpt lat="52.4975733" lon="-1.3138267"><ele>126.0</ele><time>2026-05-04T11:01:57.79Z</time></trkpt><trkpt lat="52.4974483" lon="-1.31347"><ele>126.0</ele><time>2026-05-04T11:01:58.791Z</time></trkpt><trkpt lat="52.4973233" lon="-1.3131117"><ele>126.0</ele><time>2026-05-04T11:01:59.79Z</time></trkpt><trkpt lat="52.4971933" lon="-1.3127567"><ele>127.0</ele><time>2026-05-04T11:02:00.791Z</time></trkpt><trkpt lat="52.4970583" lon="-1.3124017"><ele>128.0</ele><time>2026-05-04T11:02:01.79Z</time></trkpt><trkpt lat="52.4969183" lon="-1.3120483"><ele>128.5</ele><time>2026-05-04T11:02:02.795Z</time></trkpt><trkpt lat="52.4967767" lon="-1.3117"><ele>129.0</ele><time>2026-05-04T11:02:03.794Z</time></trkpt><trkpt lat="52.4966367" lon="-1.3113533"><ele>130.0</ele><time>2026-05-04T11:02:04.794Z</time></trkpt><trkpt lat="52.4965" lon="-1.31101"><ele>131.0</ele><time>2026-05-04T11:02:05.795Z</time></trkpt><trkpt lat="52.4963633" lon="-1.31067"><ele>131.5</ele><time>2026-05-04T11:02:06.795Z</time></trkpt><trkpt lat="52.4962233" lon="-1.3103333"><ele>132.0</ele><time>2026-05-04T11:02:07.794Z</time></trkpt><trkpt lat="52.49608" lon="-1.3099983"><ele>133.0</ele><time>2026-05-04T11:02:08.795Z</time></trkpt><trkpt lat="52.4959333" lon="-1.3096667"><ele>134.0</ele><time>2026-05-04T11:02:09.791Z</time></trkpt><trkpt lat="52.4957883" lon="-1.3093367"><ele>134.0</ele><time>2026-05-04T11:02:10.79Z</time></trkpt><trkpt lat="52.4956367" lon="-1.3090117"><ele>134.0</ele><time>2026-05-04T11:02:11.791Z</time></trkpt><trkpt lat="52.495485" lon="-1.3086883"><ele>134.0</ele><time>2026-05-04T11:02:12.795Z</time></trkpt><trkpt lat="52.4953283" lon="-1.308365"><ele>134.0</ele><time>2026-05-04T11:02:13.794Z</time></trkpt><trkpt lat="52.49517" lon="-1.3080417"><ele>135.0</ele><time>2026-05-04T11:02:14.794Z</time></trkpt><trkpt lat="52.4950083" lon="-1.3077133"><ele>136.0</ele><time>2026-05-04T11:02:15.791Z</time></trkpt><trkpt lat="52.494845" lon="-1.30739"><ele>136.0</ele><time>2026-05-04T11:02:16.791Z</time></trkpt><trkpt lat="52.4946783" lon="-1.30707"><ele>136.0</ele><time>2026-05-04T11:02:17.792Z</time></trkpt><trkpt lat="52.4945067" lon="-1.3067533"><ele>136.0</ele><time>2026-05-04T11:02:18.791Z</time></trkpt><trkpt lat="52.4943317" lon="-1.3064333"><ele>136.0</ele><time>2026-05-04T11:02:19.79Z</time></trkpt><trkpt lat="52.49416" lon="-1.306105"><ele>136.0</ele><time>2026-05-04T11:02:20.794Z</time></trkpt><trkpt lat="52.4939833" lon="-1.30578"><ele>136.0</ele><time>2026-05-04T11:02:21.795Z</time></trkpt><trkpt lat="52.4938" lon="-1.3054617"><ele>135.5</ele><time>2026-05-04T11:02:22.791Z</time></trkpt><trkpt lat="52.4936117" lon="-1.30514"><ele>135.0</ele><time>2026-05-04T11:02:23.795Z</time></trkpt><trkpt lat="52.493425" lon="-1.3048217"><ele>135.5</ele><time>2026-05-04T11:02:24.794Z</time></trkpt><trkpt lat="52.4932383" lon="-1.3045133"><ele>136.0</ele><time>2026-05-04T11:02:25.79Z</time></trkpt><trkpt lat="52.493045" lon="-1.30421"><ele>134.0</ele><time>2026-05-04T11:02:26.794Z</time></trkpt><trkpt lat="52.4928517" lon="-1.3039067"><ele>132.0</ele><time>2026-05-04T11:02:27.791Z</time></trkpt><trkpt lat="52.49266" lon="-1.3036067"><ele>132.0</ele><time>2026-05-04T11:02:28.791Z</time></trkpt><trkpt lat="52.4924667" lon="-1.3033117"><ele>132.0</ele><time>2026-05-04T11:02:29.79Z</time></trkpt><trkpt lat="52.49227" lon="-1.30302"><ele>130.0</ele><time>2026-05-04T11:02:30.794Z</time></trkpt><trkpt lat="52.4920717" lon="-1.30273"><ele>128.0</ele><time>2026-05-04T11:02:31.794Z</time></trkpt><trkpt lat="52.49187" lon="-1.3024367"><ele>128.5</ele><time>2026-05-04T11:02:32.795Z</time></trkpt><trkpt lat="52.4916633" lon="-1.3021467"><ele>129.0</ele><time>2026-05-04T11:02:33.793Z</time></trkpt><trkpt lat="52.491455" lon="-1.30186"><ele>127.0</ele><time>2026-05-04T11:02:34.79Z</time></trkpt><trkpt lat="52.491245" lon="-1.301575"><ele>125.0</ele><time>2026-05-04T11:02:35.795Z</time></trkpt><trkpt lat="52.49103" lon="-1.3012867"><ele>124.5</ele><time>2026-05-04T11:02:36.794Z</time></trkpt><trkpt lat="52.490805" lon="-1.3010033"><ele>124.0</ele><time>2026-05-04T11:02:37.794Z</time></trkpt><trkpt lat="52.4905917" lon="-1.3007267"><ele>122.0</ele><time>2026-05-04T11:02:38.794Z</time></trkpt><trkpt lat="52.4903733" lon="-1.30045"><ele>120.0</ele><time>2026-05-04T11:02:39.795Z</time></trkpt><trkpt lat="52.49016" lon="-1.3001817"><ele>120.0</ele><time>2026-05-04T11:02:40.794Z</time></trkpt><trkpt lat="52.4899567" lon="-1.299925"><ele>120.0</ele><time>2026-05-04T11:02:41.794Z</time></trkpt><trkpt lat="52.4897533" lon="-1.2996733"><ele>120.5</ele><time>2026-05-04T11:02:42.793Z</time></trkpt><trkpt lat="52.489545" lon="-1.2994183"><ele>121.0</ele><time>2026-05-04T11:02:43.794Z</time></trkpt><trkpt lat="52.4893433" lon="-1.2991617"><ele>120.0</ele><time>2026-05-04T11:02:44.794Z</time></trkpt><trkpt lat="52.4891333" lon="-1.298905"><ele>119.0</ele><time>2026-05-04T11:02:45.795Z</time></trkpt><trkpt lat="52.48892" lon="-1.2986483"><ele>120.5</ele><time>2026-05-04T11:02:46.794Z</time></trkpt><trkpt lat="52.48871" lon="-1.2983917"><ele>122.0</ele><time>2026-05-04T11:02:47.794Z</time></trkpt><trkpt lat="52.4885017" lon="-1.29813"><ele>121.0</ele><time>2026-05-04T11:02:48.794Z</time></trkpt><trkpt lat="52.4882933" lon="-1.2978817"><ele>120.0</ele><time>2026-05-04T11:02:49.791Z</time></trkpt><trkpt lat="52.488085" lon="-1.2976417"><ele>119.0</ele><time>2026-05-04T11:02:50.794Z</time></trkpt><trkpt lat="52.4878767" lon="-1.2974167"><ele>118.0</ele><time>2026-05-04T11:02:51.79Z</time></trkpt><trkpt lat="52.4876767" lon="-1.2972067"><ele>117.5</ele><time>2026-05-04T11:02:52.794Z</time></trkpt><trkpt lat="52.487475" lon="-1.297005"><ele>117.0</ele><time>2026-05-04T11:02:53.794Z</time></trkpt><trkpt lat="52.48728" lon="-1.2968117"><ele>116.0</ele><time>2026-05-04T11:02:54.794Z</time></trkpt><trkpt lat="52.487085" lon="-1.2966217"><ele>115.0</ele><time>2026-05-04T11:02:55.795Z</time></trkpt><trkpt lat="52.486895" lon="-1.296425"><ele>114.5</ele><time>2026-05-04T11:02:56.794Z</time></trkpt><trkpt lat="52.4867083" lon="-1.2962183"><ele>114.0</ele><time>2026-05-04T11:02:57.791Z</time></trkpt><trkpt lat="52.4865233" lon="-1.2960033"><ele>114.0</ele><time>2026-05-04T11:02:58.79Z</time></trkpt><trkpt lat="52.486345" lon="-1.295775"><ele>114.0</ele><time>2026-05-04T11:02:59.79Z</time></trkpt><trkpt lat="52.48617" lon="-1.2955333"><ele>114.33333333333334</ele><time>2026-05-04T11:03:00.79Z</time></trkpt><trkpt lat="52.486015" lon="-1.2952733"><ele>114.66666666666667</ele><time>2026-05-04T11:03:01.791Z</time></trkpt><trkpt lat="52.4858667" lon="-1.2950033"><ele>115.0</ele><time>2026-05-04T11:03:02.791Z</time></trkpt><trkpt lat="52.4857267" lon="-1.2947317"><ele>115.0</ele><time>2026-05-04T11:03:03.791Z</time></trkpt><trkpt lat="52.4856017" lon="-1.2944533"><ele>115.0</ele><time>2026-05-04T11:03:04.791Z</time></trkpt><trkpt lat="52.4854783" lon="-1.2941683"><ele>115.0</ele><time>2026-05-04T11:03:05.794Z</time></trkpt><trkpt lat="52.48535" lon="-1.2939"><ele>115.66666666666667</ele><time>2026-05-04T11:03:06.79Z</time></trkpt><trkpt lat="52.4852117" lon="-1.2936483"><ele>116.33333333333334</ele><time>2026-05-04T11:03:07.792Z</time></trkpt><trkpt lat="52.485055" lon="-1.2934167"><ele>117.0</ele><time>2026-05-04T11:03:08.791Z</time></trkpt><trkpt lat="52.4848967" lon="-1.2931967"><ele>115.66666666666666</ele><time>2026-05-04T11:03:09.79Z</time></trkpt><trkpt lat="52.4847283" lon="-1.292985"><ele>114.33333333333333</ele><time>2026-05-04T11:03:10.791Z</time></trkpt><trkpt lat="52.484555" lon="-1.2927783"><ele>113.0</ele><time>2026-05-04T11:03:11.795Z</time></trkpt><trkpt lat="52.4843733" lon="-1.292575"><ele>113.0</ele><time>2026-05-04T11:03:12.794Z</time></trkpt><trkpt lat="52.4841983" lon="-1.2923817"><ele>113.0</ele><time>2026-05-04T11:03:13.791Z</time></trkpt><trkpt lat="52.484015" lon="-1.292205"><ele>113.0</ele><time>2026-05-04T11:03:14.791Z</time></trkpt><trkpt lat="52.4838233" lon="-1.292035"><ele>113.0</ele><time>2026-05-04T11:03:15.793Z</time></trkpt><trkpt lat="52.4836333" lon="-1.2918667"><ele>113.0</ele><time>2026-05-04T11:03:16.791Z</time></trkpt><trkpt lat="52.4834517" lon="-1.291695"><ele>113.0</ele><time>2026-05-04T11:03:17.791Z</time></trkpt><trkpt lat="52.48327" lon="-1.2915233"><ele>113.33333333333333</ele><time>2026-05-04T11:03:18.791Z</time></trkpt><trkpt lat="52.4830867" lon="-1.2913467"><ele>113.66666666666666</ele><time>2026-05-04T11:03:19.791Z</time></trkpt><trkpt lat="52.4829083" lon="-1.2911567"><ele>114.0</ele><time>2026-05-04T11:03:20.792Z</time></trkpt><trkpt lat="52.4827383" lon="-1.2909583"><ele>114.66666666666666</ele><time>2026-05-04T11:03:21.79Z</time></trkpt><trkpt lat="52.4825767" lon="-1.2907483"><ele>115.33333333333333</ele><time>2026-05-04T11:03:22.79Z</time></trkpt><trkpt lat="52.4824217" lon="-1.2905283"><ele>116.0</ele><time>2026-05-04T11:03:23.792Z</time></trkpt><trkpt lat="52.4822717" lon="-1.29031"><ele>116.33333333333333</ele><time>2026-05-04T11:03:24.792Z</time></trkpt><trkpt lat="52.4821217" lon="-1.290095"><ele>116.66666666666666</ele><time>2026-05-04T11:03:25.792Z</time></trkpt><trkpt lat="52.481975" lon="-1.2898783"><ele>117.0</ele><time>2026-05-04T11:03:26.79Z</time></trkpt><trkpt lat="52.481825" lon="-1.289665"><ele>118.66666666666666</ele><time>2026-05-04T11:03:27.792Z</time></trkpt><trkpt lat="52.4816767" lon="-1.2894583"><ele>120.33333333333333</ele><time>2026-05-04T11:03:28.79Z</time></trkpt><trkpt lat="52.4815267" lon="-1.2892433"><ele>122.0</ele><time>2026-05-04T11:03:29.792Z</time></trkpt><trkpt lat="52.4813733" lon="-1.289035"><ele>123.66666666666666</ele><time>2026-05-04T11:03:30.791Z</time></trkpt><trkpt lat="52.4812083" lon="-1.2888283"><ele>125.33333333333334</ele><time>2026-05-04T11:03:31.791Z</time></trkpt><trkpt lat="52.4810383" lon="-1.288615"><ele>127.0</ele><time>2026-05-04T11:03:32.793Z</time></trkpt><trkpt lat="52.4808733" lon="-1.288395"><ele>127.0</ele><time>2026-05-04T11:03:33.791Z</time></trkpt><trkpt lat="52.4807067" lon="-1.28817"><ele>127.0</ele><time>2026-05-04T11:03:34.79Z</time></trkpt><trkpt lat="52.480535" lon="-1.2879517"><ele>127.0</ele><time>2026-05-04T11:03:35.792Z</time></trkpt><trkpt lat="52.48037" lon="-1.28774"><ele>128.0</ele><time>2026-05-04T11:03:36.792Z</time></trkpt><trkpt lat="52.48021" lon="-1.2875233"><ele>129.0</ele><time>2026-05-04T11:03:37.791Z</time></trkpt><trkpt lat="52.4800483" lon="-1.2873133"><ele>130.0</ele><time>2026-05-04T11:03:38.794Z</time></trkpt><trkpt lat="52.47988" lon="-1.2871017"><ele>130.33333333333334</ele><time>2026-05-04T11:03:39.794Z</time></trkpt><trkpt lat="52.4796983" lon="-1.286895"><ele>130.66666666666666</ele><time>2026-05-04T11:03:40.794Z</time></trkpt><trkpt lat="52.4795133" lon="-1.2867"><ele>131.0</ele><time>2026-05-04T11:03:41.793Z</time></trkpt><trkpt lat="52.479325" lon="-1.2865033"><ele>131.33333333333331</ele><time>2026-05-04T11:03:42.794Z</time></trkpt><trkpt lat="52.479145" lon="-1.286305"><ele>131.66666666666666</ele><time>2026-05-04T11:03:43.794Z</time></trkpt><trkpt lat="52.4789683" lon="-1.286105"><ele>132.0</ele><time>2026-05-04T11:03:44.794Z</time></trkpt><trkpt lat="52.47879" lon="-1.2859017"><ele>131.66666666666666</ele><time>2026-05-04T11:03:45.795Z</time></trkpt><trkpt lat="52.47862" lon="-1.2856967"><ele>131.33333333333331</ele><time>2026-05-04T11:03:46.794Z</time></trkpt><trkpt lat="52.4784483" lon="-1.28549"><ele>131.0</ele><time>2026-05-04T11:03:47.791Z</time></trkpt><trkpt lat="52.4782733" lon="-1.2852817"><ele>131.0</ele><time>2026-05-04T11:03:48.792Z</time></trkpt><trkpt lat="52.478095" lon="-1.285065"><ele>131.0</ele><time>2026-05-04T11:03:49.791Z</time></trkpt><trkpt lat="52.4779183" lon="-1.284845"><ele>131.0</ele><time>2026-05-04T11:03:50.791Z</time></trkpt><trkpt lat="52.4777367" lon="-1.2846183"><ele>130.66666666666666</ele><time>2026-05-04T11:03:51.791Z</time></trkpt><trkpt lat="52.47756" lon="-1.2843867"><ele>130.33333333333334</ele><time>2026-05-04T11:03:52.794Z</time></trkpt><trkpt lat="52.477385" lon="-1.2841633"><ele>130.0</ele><time>2026-05-04T11:03:53.791Z</time></trkpt><trkpt lat="52.47721" lon="-1.2839417"><ele>129.33333333333334</ele><time>2026-05-04T11:03:54.791Z</time></trkpt><trkpt lat="52.4770333" lon="-1.283715"><ele>128.66666666666666</ele><time>2026-05-04T11:03:55.79Z</time></trkpt><trkpt lat="52.476855" lon="-1.2834917"><ele>128.0</ele><time>2026-05-04T11:03:56.791Z</time></trkpt><trkpt lat="52.4766717" lon="-1.283265"><ele>127.5</ele><time>2026-05-04T11:03:57.791Z</time></trkpt><trkpt lat="52.4764883" lon="-1.28303"><ele>127.0</ele><time>2026-05-04T11:03:58.79Z</time></trkpt><trkpt lat="52.476305" lon="-1.2827983"><ele>125.5</ele><time>2026-05-04T11:03:59.79Z</time></trkpt><trkpt lat="52.476125" lon="-1.282565"><ele>124.0</ele><time>2026-05-04T11:04:00.791Z</time></trkpt><trkpt lat="52.47594" lon="-1.2823333"><ele>123.5</ele><time>2026-05-04T11:04:01.795Z</time></trkpt><trkpt lat="52.4757483" lon="-1.2820933"><ele>123.0</ele><time>2026-05-04T11:04:02.791Z</time></trkpt><trkpt lat="52.4755567" lon="-1.2818467"><ele>122.5</ele><time>2026-05-04T11:04:03.791Z</time></trkpt><trkpt lat="52.475365" lon="-1.2816017"><ele>122.0</ele><time>2026-05-04T11:04:04.791Z</time></trkpt><trkpt lat="52.4751817" lon="-1.281355"><ele>122.0</ele><time>2026-05-04T11:04:05.79Z</time></trkpt><trkpt lat="52.4749883" lon="-1.2811067"><ele>122.0</ele><time>2026-05-04T11:04:06.792Z</time></trkpt><trkpt lat="52.4747783" lon="-1.2808583"><ele>121.5</ele><time>2026-05-04T11:04:07.791Z</time></trkpt><trkpt lat="52.4745633" lon="-1.2806033"><ele>121.0</ele><time>2026-05-04T11:04:08.793Z</time></trkpt><trkpt lat="52.474345" lon="-1.2803433"><ele>120.5</ele><time>2026-05-04T11:04:09.791Z</time></trkpt><trkpt lat="52.4741267" lon="-1.280075"><ele>120.0</ele><time>2026-05-04T11:04:10.79Z</time></trkpt><trkpt lat="52.473905" lon="-1.2798033"><ele>120.5</ele><time>2026-05-04T11:04:11.794Z</time></trkpt><trkpt lat="52.4736767" lon="-1.2795333"><ele>121.0</ele><time>2026-05-04T11:04:12.793Z</time></trkpt><trkpt lat="52.4734467" lon="-1.2792667"><ele>121.0</ele><time>2026-05-04T11:04:13.794Z</time></trkpt><trkpt lat="52.473225" lon="-1.279"><ele>121.0</ele><time>2026-05-04T11:04:14.791Z</time></trkpt><trkpt lat="52.4730033" lon="-1.27874"><ele>121.0</ele><time>2026-05-04T11:04:15.794Z</time></trkpt><trkpt lat="52.4727867" lon="-1.2784867"><ele>121.0</ele><time>2026-05-04T11:04:16.794Z</time></trkpt><trkpt lat="52.4725683" lon="-1.2782333"><ele>120.5</ele><time>2026-05-04T11:04:17.791Z</time></trkpt><trkpt lat="52.47235" lon="-1.2779767"><ele>120.0</ele><time>2026-05-04T11:04:18.791Z</time></trkpt><trkpt lat="52.4721267" lon="-1.2777117"><ele>120.5</ele><time>2026-05-04T11:04:19.791Z</time></trkpt><trkpt lat="52.4719033" lon="-1.2774417"><ele>121.0</ele><time>2026-05-04T11:04:20.79Z</time></trkpt><trkpt lat="52.4716767" lon="-1.277165"><ele>121.0</ele><time>2026-05-04T11:04:21.791Z</time></trkpt><trkpt lat="52.4714517" lon="-1.2768917"><ele>121.0</ele><time>2026-05-04T11:04:22.791Z</time></trkpt><trkpt lat="52.4712233" lon="-1.2766117"><ele>120.5</ele><time>2026-05-04T11:04:23.791Z</time></trkpt><trkpt lat="52.4709833" lon="-1.27633"><ele>120.0</ele><time>2026-05-04T11:04:24.792Z</time></trkpt><trkpt lat="52.470735" lon="-1.276045"><ele>120.0</ele><time>2026-05-04T11:04:25.79Z</time></trkpt><trkpt lat="52.4704883" lon="-1.2757583"><ele>120.0</ele><time>2026-05-04T11:04:26.791Z</time></trkpt><trkpt lat="52.4702433" lon="-1.275465"><ele>120.5</ele><time>2026-05-04T11:04:27.791Z</time></trkpt><trkpt lat="52.469995" lon="-1.2751633"><ele>121.0</ele><time>2026-05-04T11:04:28.791Z</time></trkpt><trkpt lat="52.46975" lon="-1.27485"><ele>121.0</ele><time>2026-05-04T11:04:29.791Z</time></trkpt><trkpt lat="52.4695133" lon="-1.2745417"><ele>121.0</ele><time>2026-05-04T11:04:30.791Z</time></trkpt><trkpt lat="52.46928" lon="-1.27425"><ele>121.0</ele><time>2026-05-04T11:04:31.794Z</time></trkpt><trkpt lat="52.4690517" lon="-1.2739717"><ele>121.0</ele><time>2026-05-04T11:04:32.791Z</time></trkpt><trkpt lat="52.4688283" lon="-1.2736983"><ele>121.0</ele><time>2026-05-04T11:04:33.795Z</time></trkpt><trkpt lat="52.4686033" lon="-1.2734317"><ele>121.0</ele><time>2026-05-04T11:04:34.793Z</time></trkpt><trkpt lat="52.4683833" lon="-1.2731683"><ele>120.0</ele><time>2026-05-04T11:04:35.791Z</time></trkpt><trkpt lat="52.468165" lon="-1.2729033"><ele>119.0</ele><time>2026-05-04T11:04:36.791Z</time></trkpt><trkpt lat="52.46795" lon="-1.2726367"><ele>118.5</ele><time>2026-05-04T11:04:37.791Z</time></trkpt><trkpt lat="52.4677383" lon="-1.27237"><ele>118.0</ele><time>2026-05-04T11:04:38.795Z</time></trkpt><trkpt lat="52.4675233" lon="-1.2721017"><ele>117.0</ele><time>2026-05-04T11:04:39.794Z</time></trkpt><trkpt lat="52.46731" lon="-1.27183"><ele>116.0</ele><time>2026-05-04T11:04:40.791Z</time></trkpt><trkpt lat="52.4670967" lon="-1.2715633"><ele>113.5</ele><time>2026-05-04T11:04:41.792Z</time></trkpt><trkpt lat="52.4668867" lon="-1.2713017"><ele>111.0</ele><time>2026-05-04T11:04:42.79Z</time></trkpt><trkpt lat="52.4666767" lon="-1.27104"><ele>111.0</ele><time>2026-05-04T11:04:43.791Z</time></trkpt><trkpt lat="52.4664633" lon="-1.27078"><ele>111.0</ele><time>2026-05-04T11:04:44.794Z</time></trkpt><trkpt lat="52.4662533" lon="-1.2705233"><ele>110.0</ele><time>2026-05-04T11:04:45.79Z</time></trkpt><trkpt lat="52.4660433" lon="-1.2702667"><ele>109.0</ele><time>2026-05-04T11:04:46.791Z</time></trkpt><trkpt lat="52.4658317" lon="-1.270015"><ele>109.5</ele><time>2026-05-04T11:04:47.791Z</time></trkpt><trkpt lat="52.4656133" lon="-1.26977"><ele>110.0</ele><time>2026-05-04T11:04:48.791Z</time></trkpt><trkpt lat="52.4654017" lon="-1.2695317"><ele>111.5</ele><time>2026-05-04T11:04:49.791Z</time></trkpt><trkpt lat="52.46519" lon="-1.2692933"><ele>113.0</ele><time>2026-05-04T11:04:50.79Z</time></trkpt><trkpt lat="52.4649767" lon="-1.2690583"><ele>113.0</ele><time>2026-05-04T11:04:51.79Z</time></trkpt><trkpt lat="52.464765" lon="-1.2688233"><ele>113.0</ele><time>2026-05-04T11:04:52.791Z</time></trkpt><trkpt lat="52.4645533" lon="-1.268585"><ele>114.0</ele><time>2026-05-04T11:04:53.792Z</time></trkpt><trkpt lat="52.464345" lon="-1.2683467"><ele>115.0</ele><time>2026-05-04T11:04:54.792Z</time></trkpt><trkpt lat="52.464135" lon="-1.2681067"><ele>116.0</ele><time>2026-05-04T11:04:55.791Z</time></trkpt><trkpt lat="52.4639217" lon="-1.2678683"><ele>117.0</ele><time>2026-05-04T11:04:56.791Z</time></trkpt><trkpt lat="52.46371" lon="-1.2676283"><ele>118.5</ele><time>2026-05-04T11:04:57.792Z</time></trkpt><trkpt lat="52.4635017" lon="-1.2673867"><ele>120.0</ele><time>2026-05-04T11:04:58.791Z</time></trkpt><trkpt lat="52.4632883" lon="-1.267145"><ele>120.5</ele><time>2026-05-04T11:04:59.791Z</time></trkpt><trkpt lat="52.463075" lon="-1.2669033"><ele>121.0</ele><time>2026-05-04T11:05:00.79Z</time></trkpt><trkpt lat="52.4628633" lon="-1.2666583"><ele>123.0</ele><time>2026-05-04T11:05:01.79Z</time></trkpt><trkpt lat="52.4626483" lon="-1.2664083"><ele>125.0</ele><time>2026-05-04T11:05:02.791Z</time></trkpt><trkpt lat="52.4624317" lon="-1.2661583"><ele>125.0</ele><time>2026-05-04T11:05:03.791Z</time></trkpt><trkpt lat="52.462215" lon="-1.2659083"><ele>125.0</ele><time>2026-05-04T11:05:04.79Z</time></trkpt><trkpt lat="52.4619967" lon="-1.2656567"><ele>125.5</ele><time>2026-05-04T11:05:05.791Z</time></trkpt><trkpt lat="52.4617767" lon="-1.2654083"><ele>126.0</ele><time>2026-05-04T11:05:06.791Z</time></trkpt><trkpt lat="52.4615567" lon="-1.2651583"><ele>126.0</ele><time>2026-05-04T11:05:07.791Z</time></trkpt><trkpt lat="52.4613383" lon="-1.264905"><ele>126.0</ele><time>2026-05-04T11:05:08.791Z</time></trkpt><trkpt lat="52.461125" lon="-1.2646517"><ele>126.0</ele><time>2026-05-04T11:05:09.791Z</time></trkpt><trkpt lat="52.46091" lon="-1.2643933"><ele>126.0</ele><time>2026-05-04T11:05:10.793Z</time></trkpt><trkpt lat="52.4606967" lon="-1.2641333"><ele>126.0</ele><time>2026-05-04T11:05:11.794Z</time></trkpt><trkpt lat="52.46048" lon="-1.263875"><ele>126.0</ele><time>2026-05-04T11:05:12.794Z</time></trkpt><trkpt lat="52.4602717" lon="-1.2636167"><ele>126.0</ele><time>2026-05-04T11:05:13.794Z</time></trkpt><trkpt lat="52.4600583" lon="-1.263355"><ele>126.0</ele><time>2026-05-04T11:05:14.796Z</time></trkpt><trkpt lat="52.4598483" lon="-1.263095"><ele>125.0</ele><time>2026-05-04T11:05:15.794Z</time></trkpt><trkpt lat="52.4596317" lon="-1.2628367"><ele>124.0</ele><time>2026-05-04T11:05:16.793Z</time></trkpt><trkpt lat="52.459415" lon="-1.2625867"><ele>124.0</ele><time>2026-05-04T11:05:17.791Z</time></trkpt><trkpt lat="52.4592067" lon="-1.2623517"><ele>124.0</ele><time>2026-05-04T11:05:18.794Z</time></trkpt><trkpt lat="52.45901" lon="-1.2621317"><ele>123.66666666666667</ele><time>2026-05-04T11:05:19.794Z</time></trkpt><trkpt lat="52.4588267" lon="-1.26193"><ele>123.33333333333334</ele><time>2026-05-04T11:05:20.793Z</time></trkpt><trkpt lat="52.458655" lon="-1.261745"><ele>123.0</ele><time>2026-05-04T11:05:21.794Z</time></trkpt><trkpt lat="52.458495" lon="-1.2615733"><ele>123.33333333333334</ele><time>2026-05-04T11:05:22.795Z</time></trkpt><trkpt lat="52.4583483" lon="-1.2614133"><ele>123.66666666666667</ele><time>2026-05-04T11:05:23.794Z</time></trkpt><trkpt lat="52.4582183" lon="-1.2612567"><ele>124.0</ele><time>2026-05-04T11:05:24.794Z</time></trkpt><trkpt lat="52.45812" lon="-1.261105"><ele>124.0</ele><time>2026-05-04T11:05:25.795Z</time></trkpt><trkpt lat="52.45805" lon="-1.2609433"><ele>124.0</ele><time>2026-05-04T11:05:26.793Z</time></trkpt><trkpt lat="52.4579817" lon="-1.2607717"><ele>124.0</ele><time>2026-05-04T11:05:27.79Z</time></trkpt><trkpt lat="52.457925" lon="-1.2606467"><ele>124.0</ele><time>2026-05-04T11:05:28.79Z</time></trkpt><trkpt lat="52.457825" lon="-1.26057"><ele>124.75</ele><time>2026-05-04T11:05:29.791Z</time></trkpt><trkpt lat="52.457705" lon="-1.26053"><ele>125.5</ele><time>2026-05-04T11:05:30.789Z</time></trkpt><trkpt lat="52.45755" lon="-1.2604833"><ele>126.25</ele><time>2026-05-04T11:05:31.791Z</time></trkpt><trkpt lat="52.457395" lon="-1.2604033"><ele>127.0</ele><time>2026-05-04T11:05:32.79Z</time></trkpt><trkpt lat="52.4572417" lon="-1.2602817"><ele>127.66666666666667</ele><time>2026-05-04T11:05:33.794Z</time></trkpt><trkpt lat="52.4570867" lon="-1.26013"><ele>128.33333333333334</ele><time>2026-05-04T11:05:34.79Z</time></trkpt><trkpt lat="52.4569283" lon="-1.2599733"><ele>129.0</ele><time>2026-05-04T11:05:35.79Z</time></trkpt><trkpt lat="52.456775" lon="-1.259815"><ele>129.33333333333334</ele><time>2026-05-04T11:05:36.79Z</time></trkpt><trkpt lat="52.456625" lon="-1.2596617"><ele>129.66666666666669</ele><time>2026-05-04T11:05:37.791Z</time></trkpt><trkpt lat="52.4564833" lon="-1.2595083"><ele>130.0</ele><time>2026-05-04T11:05:38.79Z</time></trkpt><trkpt lat="52.456345" lon="-1.2593567"><ele>129.66666666666669</ele><time>2026-05-04T11:05:39.791Z</time></trkpt><trkpt lat="52.4562067" lon="-1.2591917"><ele>129.33333333333334</ele><time>2026-05-04T11:05:40.793Z</time></trkpt><trkpt lat="52.4560667" lon="-1.259025"><ele>129.0</ele><time>2026-05-04T11:05:41.793Z</time></trkpt><trkpt lat="52.4559283" lon="-1.2588583"><ele>130.0</ele><time>2026-05-04T11:05:42.794Z</time></trkpt><trkpt lat="52.4557917" lon="-1.2586983"><ele>131.0</ele><time>2026-05-04T11:05:43.795Z</time></trkpt><trkpt lat="52.4556617" lon="-1.2585483"><ele>132.0</ele><time>2026-05-04T11:05:44.793Z</time></trkpt><trkpt lat="52.4555417" lon="-1.2584083"><ele>132.0</ele><time>2026-05-04T11:05:45.794Z</time></trkpt><trkpt lat="52.45543" lon="-1.2582767"><ele>132.0</ele><time>2026-05-04T11:05:46.795Z</time></trkpt><trkpt lat="52.455325" lon="-1.2581467"><ele>132.0</ele><time>2026-05-04T11:05:47.798Z</time></trkpt><trkpt lat="52.4552117" lon="-1.2580083"><ele>132.0</ele><time>2026-05-04T11:05:48.79Z</time></trkpt><trkpt lat="52.45509" lon="-1.25787"><ele>132.33333333333334</ele><time>2026-05-04T11:05:49.794Z</time></trkpt><trkpt lat="52.454965" lon="-1.257725"><ele>132.66666666666669</ele><time>2026-05-04T11:05:50.791Z</time></trkpt><trkpt lat="52.4548367" lon="-1.2575783"><ele>133.0</ele><time>2026-05-04T11:05:51.791Z</time></trkpt><trkpt lat="52.4546983" lon="-1.257425"><ele>132.66666666666669</ele><time>2026-05-04T11:05:52.794Z</time></trkpt><trkpt lat="52.4545533" lon="-1.2572617"><ele>132.33333333333334</ele><time>2026-05-04T11:05:53.791Z</time></trkpt><trkpt lat="52.4544117" lon="-1.2571"><ele>132.0</ele><time>2026-05-04T11:05:54.792Z</time></trkpt><trkpt lat="52.4542683" lon="-1.2569383"><ele>132.0</ele><time>2026-05-04T11:05:55.791Z</time></trkpt><trkpt lat="52.4541233" lon="-1.256775"><ele>132.0</ele><time>2026-05-04T11:05:56.795Z</time></trkpt><trkpt lat="52.4539733" lon="-1.2566133"><ele>132.0</ele><time>2026-05-04T11:05:57.791Z</time></trkpt><trkpt lat="52.4538233" lon="-1.2564517"><ele>133.0</ele><time>2026-05-04T11:05:58.79Z</time></trkpt><trkpt lat="52.45367" lon="-1.2562883"><ele>134.0</ele><time>2026-05-04T11:05:59.792Z</time></trkpt><trkpt lat="52.4535083" lon="-1.2561167"><ele>135.0</ele><time>2026-05-04T11:06:00.794Z</time></trkpt><trkpt lat="52.4533367" lon="-1.2559417"><ele>135.0</ele><time>2026-05-04T11:06:01.795Z</time></trkpt><trkpt lat="52.45317" lon="-1.2557667"><ele>135.0</ele><time>2026-05-04T11:06:02.79Z</time></trkpt><trkpt lat="52.4530083" lon="-1.25559"><ele>135.0</ele><time>2026-05-04T11:06:03.79Z</time></trkpt><trkpt lat="52.4528467" lon="-1.2554133"><ele>135.33333333333334</ele><time>2026-05-04T11:06:04.791Z</time></trkpt><trkpt lat="52.4526883" lon="-1.2552433"><ele>135.66666666666669</ele><time>2026-05-04T11:06:05.795Z</time></trkpt><trkpt lat="52.4525367" lon="-1.2550833"><ele>136.0</ele><time>2026-05-04T11:06:06.791Z</time></trkpt><trkpt lat="52.4523917" lon="-1.2549317"><ele>136.0</ele><time>2026-05-04T11:06:07.795Z</time></trkpt><trkpt lat="52.4522567" lon="-1.2547883"><ele>136.0</ele><time>2026-05-04T11:06:08.794Z</time></trkpt><trkpt lat="52.452125" lon="-1.2546483"><ele>136.0</ele><time>2026-05-04T11:06:09.795Z</time></trkpt><trkpt lat="52.4519933" lon="-1.2545117"><ele>135.75</ele><time>2026-05-04T11:06:10.791Z</time></trkpt><trkpt lat="52.4518633" lon="-1.254375"><ele>135.5</ele><time>2026-05-04T11:06:11.79Z</time></trkpt><trkpt lat="52.451745" lon="-1.25425"><ele>135.25</ele><time>2026-05-04T11:06:12.791Z</time></trkpt><trkpt lat="52.45165" lon="-1.25414"><ele>135.0</ele><time>2026-05-04T11:06:13.795Z</time></trkpt><trkpt lat="52.4515817" lon="-1.2540367"><ele>135.33333333333334</ele><time>2026-05-04T11:06:14.794Z</time></trkpt><trkpt lat="52.4515267" lon="-1.2539333"><ele>135.66666666666666</ele><time>2026-05-04T11:06:15.794Z</time></trkpt><trkpt lat="52.4514833" lon="-1.2538217"><ele>136.0</ele><time>2026-05-04T11:06:16.793Z</time></trkpt><trkpt lat="52.4514433" lon="-1.2536983"><ele>136.33333333333331</ele><time>2026-05-04T11:06:17.793Z</time></trkpt><trkpt lat="52.4514033" lon="-1.253575"><ele>136.66666666666666</ele><time>2026-05-04T11:06:18.791Z</time></trkpt><trkpt lat="52.451355" lon="-1.25346"><ele>137.0</ele><time>2026-05-04T11:06:19.791Z</time></trkpt><trkpt lat="52.4512933" lon="-1.2533617"><ele>136.79999999999998</ele><time>2026-05-04T11:06:20.794Z</time></trkpt><trkpt lat="52.45122" lon="-1.2532867"><ele>136.6</ele><time>2026-05-04T11:06:21.795Z</time></trkpt><trkpt lat="52.4511217" lon="-1.2532233"><ele>136.39999999999998</ele><time>2026-05-04T11:06:22.794Z</time></trkpt><trkpt lat="52.4510117" lon="-1.2531817"><ele>136.2</ele><time>2026-05-04T11:06:23.793Z</time></trkpt><trkpt lat="52.4508967" lon="-1.25315"><ele>136.0</ele><time>2026-05-04T11:06:24.795Z</time></trkpt><trkpt lat="52.4507733" lon="-1.2531033"><ele>135.66666666666669</ele><time>2026-05-04T11:06:25.79Z</time></trkpt><trkpt lat="52.4506367" lon="-1.2530083"><ele>135.33333333333334</ele><time>2026-05-04T11:06:26.803Z</time></trkpt><trkpt lat="52.4504933" lon="-1.2528733"><ele>135.0</ele><time>2026-05-04T11:06:27.791Z</time></trkpt><trkpt lat="52.4503417" lon="-1.2527183"><ele>135.0</ele><time>2026-05-04T11:06:28.79Z</time></trkpt><trkpt lat="52.4501917" lon="-1.252555"><ele>135.0</ele><time>2026-05-04T11:06:29.795Z</time></trkpt><trkpt lat="52.4500317" lon="-1.2523917"><ele>135.0</ele><time>2026-05-04T11:06:30.79Z</time></trkpt><trkpt lat="52.4498833" lon="-1.25223"><ele>135.0</ele><time>2026-05-04T11:06:31.793Z</time></trkpt><trkpt lat="52.4497433" lon="-1.2520717"><ele>135.0</ele><time>2026-05-04T11:06:32.791Z</time></trkpt><trkpt lat="52.4495967" lon="-1.251915"><ele>135.0</ele><time>2026-05-04T11:06:33.789Z</time></trkpt><trkpt lat="52.4494533" lon="-1.251755"><ele>134.66666666666666</ele><time>2026-05-04T11:06:34.791Z</time></trkpt><trkpt lat="52.4493033" lon="-1.2516017"><ele>134.33333333333331</ele><time>2026-05-04T11:06:35.793Z</time></trkpt><trkpt lat="52.4491533" lon="-1.2514417"><ele>134.0</ele><time>2026-05-04T11:06:36.789Z</time></trkpt><trkpt lat="52.4490083" lon="-1.25128"><ele>133.66666666666666</ele><time>2026-05-04T11:06:37.794Z</time></trkpt><trkpt lat="52.4488567" lon="-1.251125"><ele>133.33333333333334</ele><time>2026-05-04T11:06:38.791Z</time></trkpt><trkpt lat="52.4487083" lon="-1.2509667"><ele>133.0</ele><time>2026-05-04T11:06:39.791Z</time></trkpt><trkpt lat="52.448555" lon="-1.2508017"><ele>132.0</ele><time>2026-05-04T11:06:40.791Z</time></trkpt><trkpt lat="52.4483983" lon="-1.2506333"><ele>131.0</ele><time>2026-05-04T11:06:41.791Z</time></trkpt><trkpt lat="52.4482417" lon="-1.2504633"><ele>130.0</ele><time>2026-05-04T11:06:42.795Z</time></trkpt><trkpt lat="52.44808" lon="-1.2502933"><ele>128.66666666666669</ele><time>2026-05-04T11:06:43.795Z</time></trkpt><trkpt lat="52.44791" lon="-1.250125"><ele>127.33333333333334</ele><time>2026-05-04T11:06:44.791Z</time></trkpt><trkpt lat="52.4477417" lon="-1.2499517"><ele>126.0</ele><time>2026-05-04T11:06:45.793Z</time></trkpt><trkpt lat="52.4475667" lon="-1.2497683"><ele>125.66666666666666</ele><time>2026-05-04T11:06:46.79Z</time></trkpt><trkpt lat="52.4473883" lon="-1.249575"><ele>125.33333333333333</ele><time>2026-05-04T11:06:47.79Z</time></trkpt><trkpt lat="52.4472033" lon="-1.249385"><ele>125.0</ele><time>2026-05-04T11:06:48.794Z</time></trkpt><trkpt lat="52.4470117" lon="-1.2491917"><ele>125.0</ele><time>2026-05-04T11:06:49.795Z</time></trkpt><trkpt lat="52.44682" lon="-1.248995"><ele>125.0</ele><time>2026-05-04T11:06:50.794Z</time></trkpt><trkpt lat="52.446625" lon="-1.2487967"><ele>125.5</ele><time>2026-05-04T11:06:51.794Z</time></trkpt><trkpt lat="52.4464283" lon="-1.2485933"><ele>126.0</ele><time>2026-05-04T11:06:52.793Z</time></trkpt><trkpt lat="52.4462333" lon="-1.248385"><ele>127.5</ele><time>2026-05-04T11:06:53.794Z</time></trkpt><trkpt lat="52.4460367" lon="-1.24817"><ele>129.0</ele><time>2026-05-04T11:06:54.794Z</time></trkpt><trkpt lat="52.4458333" lon="-1.24796"><ele>129.0</ele><time>2026-05-04T11:06:55.793Z</time></trkpt><trkpt lat="52.44563" lon="-1.2477533"><ele>129.0</ele><time>2026-05-04T11:06:56.794Z</time></trkpt><trkpt lat="52.4454267" lon="-1.2475417"><ele>130.0</ele><time>2026-05-04T11:06:57.792Z</time></trkpt><trkpt lat="52.4452167" lon="-1.2473233"><ele>131.0</ele><time>2026-05-04T11:06:58.791Z</time></trkpt><trkpt lat="52.4449983" lon="-1.2470933"><ele>131.5</ele><time>2026-05-04T11:06:59.79Z</time></trkpt><trkpt lat="52.4447717" lon="-1.2468583"><ele>132.0</ele><time>2026-05-04T11:07:00.789Z</time></trkpt><trkpt lat="52.4445383" lon="-1.2466233"><ele>130.5</ele><time>2026-05-04T11:07:01.793Z</time></trkpt><trkpt lat="52.4443067" lon="-1.246385"><ele>129.0</ele><time>2026-05-04T11:07:02.789Z</time></trkpt><trkpt lat="52.44408" lon="-1.24615"><ele>129.0</ele><time>2026-05-04T11:07:03.79Z</time></trkpt><trkpt lat="52.4438533" lon="-1.2459133"><ele>129.0</ele><time>2026-05-04T11:07:04.791Z</time></trkpt><trkpt lat="52.4436267" lon="-1.2456767"><ele>127.5</ele><time>2026-05-04T11:07:05.791Z</time></trkpt><trkpt lat="52.4434017" lon="-1.2454417"><ele>126.0</ele><time>2026-05-04T11:07:06.79Z</time></trkpt><trkpt lat="52.4431767" lon="-1.2452067"><ele>124.5</ele><time>2026-05-04T11:07:07.791Z</time></trkpt><trkpt lat="52.442955" lon="-1.2449733"><ele>123.0</ele><time>2026-05-04T11:07:08.79Z</time></trkpt><trkpt lat="52.44273" lon="-1.2447383"><ele>123.0</ele><time>2026-05-04T11:07:09.791Z</time></trkpt><trkpt lat="52.442505" lon="-1.2445017"><ele>123.0</ele><time>2026-05-04T11:07:10.793Z</time></trkpt><trkpt lat="52.4422767" lon="-1.2442633"><ele>121.5</ele><time>2026-05-04T11:07:11.794Z</time></trkpt><trkpt lat="52.4420483" lon="-1.2440267"><ele>120.0</ele><time>2026-05-04T11:07:12.794Z</time></trkpt><trkpt lat="52.4418217" lon="-1.2437917"><ele>120.0</ele><time>2026-05-04T11:07:13.795Z</time></trkpt><trkpt lat="52.4415917" lon="-1.24356"><ele>120.0</ele><time>2026-05-04T11:07:14.795Z</time></trkpt><trkpt lat="52.441365" lon="-1.2433233"><ele>118.5</ele><time>2026-05-04T11:07:15.789Z</time></trkpt><trkpt lat="52.4411433" lon="-1.243085"><ele>117.0</ele><time>2026-05-04T11:07:16.795Z</time></trkpt><trkpt lat="52.44092" lon="-1.2428517"><ele>117.0</ele><time>2026-05-04T11:07:17.794Z</time></trkpt><trkpt lat="52.4406933" lon="-1.2426217"><ele>117.0</ele><time>2026-05-04T11:07:18.791Z</time></trkpt><trkpt lat="52.4404717" lon="-1.242395"><ele>118.0</ele><time>2026-05-04T11:07:19.794Z</time></trkpt><trkpt lat="52.44025" lon="-1.24217"><ele>119.0</ele><time>2026-05-04T11:07:20.794Z</time></trkpt><trkpt lat="52.44003" lon="-1.2419433"><ele>119.0</ele><time>2026-05-04T11:07:21.794Z</time></trkpt><trkpt lat="52.4398133" lon="-1.24171"><ele>119.0</ele><time>2026-05-04T11:07:22.794Z</time></trkpt><trkpt lat="52.4395917" lon="-1.2414767"><ele>119.0</ele><time>2026-05-04T11:07:23.794Z</time></trkpt><trkpt lat="52.4393683" lon="-1.2412417"><ele>119.0</ele><time>2026-05-04T11:07:24.794Z</time></trkpt><trkpt lat="52.439145" lon="-1.2410033"><ele>119.0</ele><time>2026-05-04T11:07:25.794Z</time></trkpt><trkpt lat="52.4389217" lon="-1.2407667"><ele>119.0</ele><time>2026-05-04T11:07:26.794Z</time></trkpt><trkpt lat="52.4386967" lon="-1.2405317"><ele>116.5</ele><time>2026-05-04T11:07:27.792Z</time></trkpt><trkpt lat="52.4384717" lon="-1.2402983"><ele>114.0</ele><time>2026-05-04T11:07:28.792Z</time></trkpt><trkpt lat="52.4382433" lon="-1.24007"><ele>114.0</ele><time>2026-05-04T11:07:29.791Z</time></trkpt><trkpt lat="52.4380183" lon="-1.2398433"><ele>114.0</ele><time>2026-05-04T11:07:30.792Z</time></trkpt><trkpt lat="52.43779" lon="-1.23962"><ele>110.5</ele><time>2026-05-04T11:07:31.794Z</time></trkpt><trkpt lat="52.4375633" lon="-1.2393983"><ele>107.0</ele><time>2026-05-04T11:07:32.793Z</time></trkpt><trkpt lat="52.4373283" lon="-1.239175"><ele>106.0</ele><time>2026-05-04T11:07:33.794Z</time></trkpt><trkpt lat="52.4370983" lon="-1.2389533"><ele>105.0</ele><time>2026-05-04T11:07:34.791Z</time></trkpt><trkpt lat="52.436865" lon="-1.2387317"><ele>105.0</ele><time>2026-05-04T11:07:35.791Z</time></trkpt><trkpt lat="52.436635" lon="-1.23851"><ele>105.0</ele><time>2026-05-04T11:07:36.791Z</time></trkpt><trkpt lat="52.436405" lon="-1.2382883"><ele>106.5</ele><time>2026-05-04T11:07:37.792Z</time></trkpt><trkpt lat="52.4361717" lon="-1.2380633"><ele>108.0</ele><time>2026-05-04T11:07:38.79Z</time></trkpt><trkpt lat="52.4359433" lon="-1.2378367"><ele>108.0</ele><time>2026-05-04T11:07:39.792Z</time></trkpt><trkpt lat="52.435715" lon="-1.2376083"><ele>108.0</ele><time>2026-05-04T11:07:40.792Z</time></trkpt><trkpt lat="52.4354883" lon="-1.2373783"><ele>106.5</ele><time>2026-05-04T11:07:41.792Z</time></trkpt><trkpt lat="52.4352617" lon="-1.2371517"><ele>105.0</ele><time>2026-05-04T11:07:42.794Z</time></trkpt><trkpt lat="52.4350317" lon="-1.2369283"><ele>105.0</ele><time>2026-05-04T11:07:43.791Z</time></trkpt><trkpt lat="52.4348033" lon="-1.236705"><ele>105.0</ele><time>2026-05-04T11:07:44.791Z</time></trkpt><trkpt lat="52.4345783" lon="-1.2364833"><ele>106.5</ele><time>2026-05-04T11:07:45.79Z</time></trkpt><trkpt lat="52.434355" lon="-1.236255"><ele>108.0</ele><time>2026-05-04T11:07:46.794Z</time></trkpt><trkpt lat="52.4341317" lon="-1.23603"><ele>108.0</ele><time>2026-05-04T11:07:47.792Z</time></trkpt><trkpt lat="52.4339117" lon="-1.23581"><ele>108.0</ele><time>2026-05-04T11:07:48.792Z</time></trkpt><trkpt lat="52.43369" lon="-1.235595"><ele>110.5</ele><time>2026-05-04T11:07:49.792Z</time></trkpt><trkpt lat="52.4334567" lon="-1.2353817"><ele>113.0</ele><time>2026-05-04T11:07:50.792Z</time></trkpt><trkpt lat="52.4332233" lon="-1.235165"><ele>113.0</ele><time>2026-05-04T11:07:51.792Z</time></trkpt><trkpt lat="52.43299" lon="-1.234945"><ele>113.0</ele><time>2026-05-04T11:07:52.792Z</time></trkpt><trkpt lat="52.4327583" lon="-1.2347267"><ele>110.5</ele><time>2026-05-04T11:07:53.792Z</time></trkpt><trkpt lat="52.432525" lon="-1.2345117"><ele>108.0</ele><time>2026-05-04T11:07:54.792Z</time></trkpt><trkpt lat="52.43229" lon="-1.234295"><ele>107.5</ele><time>2026-05-04T11:07:55.792Z</time></trkpt><trkpt lat="52.4320667" lon="-1.2340783"><ele>107.0</ele><time>2026-05-04T11:07:56.792Z</time></trkpt><trkpt lat="52.4318483" lon="-1.2338667"><ele>109.0</ele><time>2026-05-04T11:07:57.791Z</time></trkpt><trkpt lat="52.4316383" lon="-1.2336667"><ele>111.0</ele><time>2026-05-04T11:07:58.792Z</time></trkpt><trkpt lat="52.431445" lon="-1.2334717"><ele>111.66666666666666</ele><time>2026-05-04T11:07:59.793Z</time></trkpt><trkpt lat="52.43126" lon="-1.2332867"><ele>112.33333333333333</ele><time>2026-05-04T11:08:00.79Z</time></trkpt><trkpt lat="52.4310767" lon="-1.2331067"><ele>113.0</ele><time>2026-05-04T11:08:01.791Z</time></trkpt><trkpt lat="52.430885" lon="-1.23293"><ele>113.66666666666666</ele><time>2026-05-04T11:08:02.792Z</time></trkpt><trkpt lat="52.430695" lon="-1.23276"><ele>114.33333333333334</ele><time>2026-05-04T11:08:03.8Z</time></trkpt><trkpt lat="52.430505" lon="-1.2325933"><ele>115.0</ele><time>2026-05-04T11:08:04.792Z</time></trkpt><trkpt lat="52.430315" lon="-1.2324217"><ele>116.66666666666667</ele><time>2026-05-04T11:08:05.795Z</time></trkpt><trkpt lat="52.430125" lon="-1.2322483"><ele>118.33333333333334</ele><time>2026-05-04T11:08:06.791Z</time></trkpt><trkpt lat="52.429935" lon="-1.2320733"><ele>120.0</ele><time>2026-05-04T11:08:07.795Z</time></trkpt><trkpt lat="52.429745" lon="-1.2318967"><ele>121.0</ele><time>2026-05-04T11:08:08.791Z</time></trkpt><trkpt lat="52.429555" lon="-1.23172"><ele>122.0</ele><time>2026-05-04T11:08:09.792Z</time></trkpt><trkpt lat="52.4293617" lon="-1.23154"><ele>123.0</ele><time>2026-05-04T11:08:10.791Z</time></trkpt><trkpt lat="52.4291633" lon="-1.2313567"><ele>123.0</ele><time>2026-05-04T11:08:11.792Z</time></trkpt><trkpt lat="52.4289667" lon="-1.23117"><ele>123.0</ele><time>2026-05-04T11:08:12.791Z</time></trkpt><trkpt lat="52.4287683" lon="-1.2309817"><ele>123.5</ele><time>2026-05-04T11:08:13.792Z</time></trkpt><trkpt lat="52.4285717" lon="-1.230785"><ele>124.0</ele><time>2026-05-04T11:08:14.792Z</time></trkpt><trkpt lat="52.428375" lon="-1.2305917"><ele>124.5</ele><time>2026-05-04T11:08:15.791Z</time></trkpt><trkpt lat="52.4281783" lon="-1.2304083"><ele>125.0</ele><time>2026-05-04T11:08:16.791Z</time></trkpt><trkpt lat="52.4279833" lon="-1.2302283"><ele>125.0</ele><time>2026-05-04T11:08:17.792Z</time></trkpt><trkpt lat="52.4277917" lon="-1.2300483"><ele>125.0</ele><time>2026-05-04T11:08:18.791Z</time></trkpt><trkpt lat="52.4275933" lon="-1.22986"><ele>125.5</ele><time>2026-05-04T11:08:19.792Z</time></trkpt><trkpt lat="52.4273967" lon="-1.2296717"><ele>126.0</ele><time>2026-05-04T11:08:20.797Z</time></trkpt><trkpt lat="52.4272033" lon="-1.229485"><ele>127.0</ele><time>2026-05-04T11:08:21.795Z</time></trkpt><trkpt lat="52.427005" lon="-1.2292967"><ele>128.0</ele><time>2026-05-04T11:08:22.792Z</time></trkpt><trkpt lat="52.4268117" lon="-1.2291117"><ele>127.5</ele><time>2026-05-04T11:08:23.792Z</time></trkpt><trkpt lat="52.426615" lon="-1.22893"><ele>127.0</ele><time>2026-05-04T11:08:24.792Z</time></trkpt><trkpt lat="52.426415" lon="-1.2287483"><ele>128.0</ele><time>2026-05-04T11:08:25.796Z</time></trkpt><trkpt lat="52.426215" lon="-1.2285617"><ele>129.0</ele><time>2026-05-04T11:08:26.793Z</time></trkpt><trkpt lat="52.4260183" lon="-1.2283783"><ele>129.0</ele><time>2026-05-04T11:08:27.793Z</time></trkpt><trkpt lat="52.4258233" lon="-1.2281967"><ele>129.0</ele><time>2026-05-04T11:08:28.792Z</time></trkpt><trkpt lat="52.4256233" lon="-1.2280133"><ele>130.0</ele><time>2026-05-04T11:08:29.793Z</time></trkpt><trkpt lat="52.4254267" lon="-1.22783"><ele>131.0</ele><time>2026-05-04T11:08:30.792Z</time></trkpt><trkpt lat="52.425225" lon="-1.2276483"><ele>131.0</ele><time>2026-05-04T11:08:31.792Z</time></trkpt><trkpt lat="52.4250267" lon="-1.227465"><ele>131.0</ele><time>2026-05-04T11:08:32.792Z</time></trkpt><trkpt lat="52.4248283" lon="-1.2272817"><ele>131.0</ele><time>2026-05-04T11:08:33.794Z</time></trkpt><trkpt lat="52.4246283" lon="-1.2270967"><ele>131.0</ele><time>2026-05-04T11:08:34.794Z</time></trkpt><trkpt lat="52.4244267" lon="-1.2269117"><ele>131.0</ele><time>2026-05-04T11:08:35.794Z</time></trkpt><trkpt lat="52.424225" lon="-1.226725"><ele>131.0</ele><time>2026-05-04T11:08:36.792Z</time></trkpt><trkpt lat="52.42403" lon="-1.22654"><ele>130.66666666666666</ele><time>2026-05-04T11:08:37.798Z</time></trkpt><trkpt lat="52.423835" lon="-1.2263583"><ele>130.33333333333334</ele><time>2026-05-04T11:08:38.794Z</time></trkpt><trkpt lat="52.4236433" lon="-1.2261817"><ele>130.0</ele><time>2026-05-04T11:08:39.793Z</time></trkpt><trkpt lat="52.423465" lon="-1.2260167"><ele>130.0</ele><time>2026-05-04T11:08:40.794Z</time></trkpt><trkpt lat="52.4232983" lon="-1.2258633"><ele>130.0</ele><time>2026-05-04T11:08:41.794Z</time></trkpt><trkpt lat="52.4231517" lon="-1.2257267"><ele>130.0</ele><time>2026-05-04T11:08:42.794Z</time></trkpt><trkpt lat="52.4230233" lon="-1.225605"><ele>130.6</ele><time>2026-05-04T11:08:43.799Z</time></trkpt><trkpt lat="52.42291" lon="-1.2254983"><ele>131.2</ele><time>2026-05-04T11:08:44.796Z</time></trkpt><trkpt lat="52.4228167" lon="-1.2253967"><ele>131.8</ele><time>2026-05-04T11:08:45.792Z</time></trkpt><trkpt lat="52.42275" lon="-1.225295"><ele>132.4</ele><time>2026-05-04T11:08:46.791Z</time></trkpt><trkpt lat="52.4226867" lon="-1.2251867"><ele>133.0</ele><time>2026-05-04T11:08:47.795Z</time></trkpt><trkpt lat="52.422625" lon="-1.2250583"><ele>133.0</ele><time>2026-05-04T11:08:48.795Z</time></trkpt><trkpt lat="52.422585" lon="-1.224915"><ele>133.0</ele><time>2026-05-04T11:08:49.796Z</time></trkpt><trkpt lat="52.4225333" lon="-1.22479"><ele>133.0</ele><time>2026-05-04T11:08:50.79Z</time></trkpt><trkpt lat="52.4224867" lon="-1.22469"><ele>133.0</ele><time>2026-05-04T11:08:51.793Z</time></trkpt><trkpt lat="52.42244" lon="-1.224615"><ele>133.0</ele><time>2026-05-04T11:08:52.792Z</time></trkpt><trkpt lat="52.422365" lon="-1.2245767"><ele>133.0</ele><time>2026-05-04T11:08:53.791Z</time></trkpt><trkpt lat="52.4222533" lon="-1.2245717"><ele>132.75</ele><time>2026-05-04T11:08:54.792Z</time></trkpt><trkpt lat="52.4221433" lon="-1.2245667"><ele>132.5</ele><time>2026-05-04T11:08:55.796Z</time></trkpt><trkpt lat="52.422" lon="-1.22452"><ele>132.25</ele><time>2026-05-04T11:08:56.794Z</time></trkpt><trkpt lat="52.4218467" lon="-1.2244333"><ele>132.0</ele><time>2026-05-04T11:08:57.791Z</time></trkpt><trkpt lat="52.4217117" lon="-1.22433"><ele>132.0</ele><time>2026-05-04T11:08:58.791Z</time></trkpt><trkpt lat="52.42156" lon="-1.2242167"><ele>132.0</ele><time>2026-05-04T11:08:59.792Z</time></trkpt><trkpt lat="52.4213983" lon="-1.22409"><ele>132.0</ele><time>2026-05-04T11:09:00.792Z</time></trkpt><trkpt lat="52.421225" lon="-1.2239517"><ele>131.66666666666666</ele><time>2026-05-04T11:09:01.795Z</time></trkpt><trkpt lat="52.42104" lon="-1.223805"><ele>131.33333333333331</ele><time>2026-05-04T11:09:02.792Z</time></trkpt><trkpt lat="52.4208433" lon="-1.2236417"><ele>131.0</ele><time>2026-05-04T11:09:03.791Z</time></trkpt><trkpt lat="52.4206417" lon="-1.2234683"><ele>131.0</ele><time>2026-05-04T11:09:04.791Z</time></trkpt><trkpt lat="52.4204367" lon="-1.2232933"><ele>131.0</ele><time>2026-05-04T11:09:05.791Z</time></trkpt><trkpt lat="52.4202367" lon="-1.2231167"><ele>131.0</ele><time>2026-05-04T11:09:06.792Z</time></trkpt><trkpt lat="52.42004" lon="-1.2229417"><ele>131.0</ele><time>2026-05-04T11:09:07.791Z</time></trkpt><trkpt lat="52.41984" lon="-1.22277"><ele>130.0</ele><time>2026-05-04T11:09:08.792Z</time></trkpt><trkpt lat="52.4196417" lon="-1.2225983"><ele>129.0</ele><time>2026-05-04T11:09:09.792Z</time></trkpt><trkpt lat="52.4194417" lon="-1.22242"><ele>129.5</ele><time>2026-05-04T11:09:10.796Z</time></trkpt><trkpt lat="52.41924" lon="-1.2222467"><ele>130.0</ele><time>2026-05-04T11:09:11.795Z</time></trkpt><trkpt lat="52.4190417" lon="-1.2220683"><ele>130.0</ele><time>2026-05-04T11:09:12.795Z</time></trkpt><trkpt lat="52.4188367" lon="-1.2218933"><ele>130.0</ele><time>2026-05-04T11:09:13.795Z</time></trkpt><trkpt lat="52.4186333" lon="-1.221715"><ele>129.0</ele><time>2026-05-04T11:09:14.795Z</time></trkpt><trkpt lat="52.4184333" lon="-1.2215367"><ele>128.0</ele><time>2026-05-04T11:09:15.794Z</time></trkpt><trkpt lat="52.4182383" lon="-1.2213583"><ele>128.0</ele><time>2026-05-04T11:09:16.792Z</time></trkpt><trkpt lat="52.4180433" lon="-1.221185"><ele>128.0</ele><time>2026-05-04T11:09:17.795Z</time></trkpt><trkpt lat="52.417845" lon="-1.2210117"><ele>128.0</ele><time>2026-05-04T11:09:18.794Z</time></trkpt><trkpt lat="52.4176483" lon="-1.22084"><ele>126.5</ele><time>2026-05-04T11:09:19.798Z</time></trkpt><trkpt lat="52.4174483" lon="-1.2206667"><ele>125.0</ele><time>2026-05-04T11:09:20.795Z</time></trkpt><trkpt lat="52.4172483" lon="-1.2204933"><ele>123.5</ele><time>2026-05-04T11:09:21.796Z</time></trkpt><trkpt lat="52.41705" lon="-1.22032"><ele>122.0</ele><time>2026-05-04T11:09:22.794Z</time></trkpt><trkpt lat="52.4168483" lon="-1.2201483"><ele>122.0</ele><time>2026-05-04T11:09:23.794Z</time></trkpt><trkpt lat="52.41665" lon="-1.2199767"><ele>122.0</ele><time>2026-05-04T11:09:24.794Z</time></trkpt><trkpt lat="52.4164483" lon="-1.21981"><ele>120.0</ele><time>2026-05-04T11:09:25.795Z</time></trkpt><trkpt lat="52.4162467" lon="-1.219645"><ele>118.0</ele><time>2026-05-04T11:09:26.796Z</time></trkpt><trkpt lat="52.416045" lon="-1.2194783"><ele>118.0</ele><time>2026-05-04T11:09:27.792Z</time></trkpt><trkpt lat="52.415845" lon="-1.21931"><ele>118.0</ele><time>2026-05-04T11:09:28.791Z</time></trkpt><trkpt lat="52.4156483" lon="-1.219135"><ele>118.0</ele><time>2026-05-04T11:09:29.791Z</time></trkpt><trkpt lat="52.415455" lon="-1.21896"><ele>118.33333333333334</ele><time>2026-05-04T11:09:30.792Z</time></trkpt><trkpt lat="52.4152583" lon="-1.2187817"><ele>118.66666666666666</ele><time>2026-05-04T11:09:31.793Z</time></trkpt><trkpt lat="52.4150617" lon="-1.2186033"><ele>119.0</ele><time>2026-05-04T11:09:32.791Z</time></trkpt><trkpt lat="52.4148633" lon="-1.2184217"><ele>119.0</ele><time>2026-05-04T11:09:33.794Z</time></trkpt><trkpt lat="52.4146683" lon="-1.21824"><ele>119.0</ele><time>2026-05-04T11:09:34.792Z</time></trkpt><trkpt lat="52.414475" lon="-1.21806"><ele>119.0</ele><time>2026-05-04T11:09:35.794Z</time></trkpt><trkpt lat="52.4142817" lon="-1.21789"><ele>119.0</ele><time>2026-05-04T11:09:36.795Z</time></trkpt><trkpt lat="52.4140933" lon="-1.2177267"><ele>119.0</ele><time>2026-05-04T11:09:37.792Z</time></trkpt><trkpt lat="52.413905" lon="-1.21757"><ele>119.0</ele><time>2026-05-04T11:09:38.796Z</time></trkpt><trkpt lat="52.4137083" lon="-1.2174267"><ele>118.66666666666666</ele><time>2026-05-04T11:09:39.792Z</time></trkpt><trkpt lat="52.4135067" lon="-1.2172867"><ele>118.33333333333334</ele><time>2026-05-04T11:09:40.792Z</time></trkpt><trkpt lat="52.4132967" lon="-1.2171533"><ele>118.0</ele><time>2026-05-04T11:09:41.795Z</time></trkpt><trkpt lat="52.41308" lon="-1.2170133"><ele>119.0</ele><time>2026-05-04T11:09:42.791Z</time></trkpt><trkpt lat="52.4128717" lon="-1.2168683"><ele>120.0</ele><time>2026-05-04T11:09:43.792Z</time></trkpt><trkpt lat="52.4126617" lon="-1.216715"><ele>120.0</ele><time>2026-05-04T11:09:44.792Z</time></trkpt><trkpt lat="52.4124583" lon="-1.2165467"><ele>120.0</ele><time>2026-05-04T11:09:45.795Z</time></trkpt><trkpt lat="52.4122567" lon="-1.21637"><ele>118.66666666666666</ele><time>2026-05-04T11:09:46.791Z</time></trkpt><trkpt lat="52.4120617" lon="-1.2161867"><ele>117.33333333333333</ele><time>2026-05-04T11:09:47.792Z</time></trkpt><trkpt lat="52.4118717" lon="-1.2159967"><ele>116.0</ele><time>2026-05-04T11:09:48.792Z</time></trkpt><trkpt lat="52.4116833" lon="-1.215805"><ele>115.33333333333333</ele><time>2026-05-04T11:09:49.792Z</time></trkpt><trkpt lat="52.4115017" lon="-1.2156133"><ele>114.66666666666666</ele><time>2026-05-04T11:09:50.792Z</time></trkpt><trkpt lat="52.4113133" lon="-1.2154167"><ele>114.0</ele><time>2026-05-04T11:09:51.792Z</time></trkpt><trkpt lat="52.4111233" lon="-1.21522"><ele>113.0</ele><time>2026-05-04T11:09:52.791Z</time></trkpt><trkpt lat="52.410925" lon="-1.2150283"><ele>112.0</ele><time>2026-05-04T11:09:53.793Z</time></trkpt><trkpt lat="52.4107267" lon="-1.214845"><ele>111.5</ele><time>2026-05-04T11:09:54.795Z</time></trkpt><trkpt lat="52.4105283" lon="-1.21467"><ele>111.0</ele><time>2026-05-04T11:09:55.795Z</time></trkpt><trkpt lat="52.4103267" lon="-1.214505"><ele>111.0</ele><time>2026-05-04T11:09:56.794Z</time></trkpt><trkpt lat="52.4101217" lon="-1.2143533"><ele>111.0</ele><time>2026-05-04T11:09:57.791Z</time></trkpt><trkpt lat="52.4099133" lon="-1.2142"><ele>111.0</ele><time>2026-05-04T11:09:58.792Z</time></trkpt><trkpt lat="52.40971" lon="-1.2140433"><ele>111.0</ele><time>2026-05-04T11:09:59.795Z</time></trkpt><trkpt lat="52.40951" lon="-1.213885"><ele>111.0</ele><time>2026-05-04T11:10:00.795Z</time></trkpt><trkpt lat="52.40931" lon="-1.2137283"><ele>110.0</ele><time>2026-05-04T11:10:01.795Z</time></trkpt><trkpt lat="52.4091033" lon="-1.213575"><ele>109.0</ele><time>2026-05-04T11:10:02.791Z</time></trkpt><trkpt lat="52.4089083" lon="-1.2134133"><ele>108.0</ele><time>2026-05-04T11:10:03.792Z</time></trkpt><trkpt lat="52.408715" lon="-1.2132483"><ele>109.0</ele><time>2026-05-04T11:10:04.792Z</time></trkpt><trkpt lat="52.408535" lon="-1.2130667"><ele>110.0</ele><time>2026-05-04T11:10:05.794Z</time></trkpt><trkpt lat="52.40836" lon="-1.2128717"><ele>111.0</ele><time>2026-05-04T11:10:06.791Z</time></trkpt><trkpt lat="52.4081817" lon="-1.21267"><ele>111.0</ele><time>2026-05-04T11:10:07.792Z</time></trkpt><trkpt lat="52.408" lon="-1.2124667"><ele>111.0</ele><time>2026-05-04T11:10:08.791Z</time></trkpt><trkpt lat="52.407815" lon="-1.2122667"><ele>111.0</ele><time>2026-05-04T11:10:09.792Z</time></trkpt><trkpt lat="52.407635" lon="-1.2120733"><ele>113.0</ele><time>2026-05-04T11:10:10.791Z</time></trkpt><trkpt lat="52.40745" lon="-1.2118767"><ele>115.0</ele><time>2026-05-04T11:10:11.801Z</time></trkpt><trkpt lat="52.4072633" lon="-1.2116833"><ele>117.0</ele><time>2026-05-04T11:10:12.795Z</time></trkpt><trkpt lat="52.4070683" lon="-1.2114933"><ele>118.5</ele><time>2026-05-04T11:10:13.795Z</time></trkpt><trkpt lat="52.4068683" lon="-1.2112967"><ele>120.0</ele><time>2026-05-04T11:10:14.795Z</time></trkpt><trkpt lat="52.406655" lon="-1.2111017"><ele>120.0</ele><time>2026-05-04T11:10:15.791Z</time></trkpt><trkpt lat="52.4064383" lon="-1.210905"><ele>120.0</ele><time>2026-05-04T11:10:16.795Z</time></trkpt><trkpt lat="52.4062233" lon="-1.2107067"><ele>121.0</ele><time>2026-05-04T11:10:17.794Z</time></trkpt><trkpt lat="52.4060067" lon="-1.2105067"><ele>122.0</ele><time>2026-05-04T11:10:18.792Z</time></trkpt><trkpt lat="52.40578" lon="-1.2103233"><ele>122.0</ele><time>2026-05-04T11:10:19.793Z</time></trkpt><trkpt lat="52.4055417" lon="-1.21012"><ele>122.0</ele><time>2026-05-04T11:10:20.793Z</time></trkpt><trkpt lat="52.4053" lon="-1.20992"><ele>123.0</ele><time>2026-05-04T11:10:21.79Z</time></trkpt><trkpt lat="52.40507" lon="-1.20973"><ele>124.0</ele><time>2026-05-04T11:10:22.795Z</time></trkpt><trkpt lat="52.4048467" lon="-1.2095467"><ele>124.0</ele><time>2026-05-04T11:10:23.793Z</time></trkpt><trkpt lat="52.4046233" lon="-1.209355"><ele>124.0</ele><time>2026-05-04T11:10:24.795Z</time></trkpt><trkpt lat="52.4044033" lon="-1.2091667"><ele>124.5</ele><time>2026-05-04T11:10:25.794Z</time></trkpt><trkpt lat="52.4041733" lon="-1.2089767"><ele>125.0</ele><time>2026-05-04T11:10:26.795Z</time></trkpt><trkpt lat="52.4039483" lon="-1.2087817"><ele>124.5</ele><time>2026-05-04T11:10:27.794Z</time></trkpt><trkpt lat="52.4037183" lon="-1.2085867"><ele>124.0</ele><time>2026-05-04T11:10:28.792Z</time></trkpt><trkpt lat="52.4034883" lon="-1.2083967"><ele>124.0</ele><time>2026-05-04T11:10:29.792Z</time></trkpt><trkpt lat="52.403255" lon="-1.208205"><ele>124.0</ele><time>2026-05-04T11:10:30.791Z</time></trkpt><trkpt lat="52.40302" lon="-1.208015"><ele>124.5</ele><time>2026-05-04T11:10:31.795Z</time></trkpt><trkpt lat="52.4027817" lon="-1.2078283"><ele>125.0</ele><time>2026-05-04T11:10:32.791Z</time></trkpt><trkpt lat="52.40255" lon="-1.2076517"><ele>125.0</ele><time>2026-05-04T11:10:33.79Z</time></trkpt><trkpt lat="52.4023533" lon="-1.20749"><ele>125.0</ele><time>2026-05-04T11:10:34.795Z</time></trkpt><trkpt lat="52.40216" lon="-1.207335"><ele>125.0</ele><time>2026-05-04T11:10:35.791Z</time></trkpt><trkpt lat="52.4019733" lon="-1.2071883"><ele>124.33333333333333</ele><time>2026-05-04T11:10:36.792Z</time></trkpt><trkpt lat="52.40179" lon="-1.207045"><ele>123.66666666666666</ele><time>2026-05-04T11:10:37.792Z</time></trkpt><trkpt lat="52.4016183" lon="-1.20691"><ele>123.0</ele><time>2026-05-04T11:10:38.795Z</time></trkpt><trkpt lat="52.4014483" lon="-1.2067817"><ele>123.66666666666666</ele><time>2026-05-04T11:10:39.794Z</time></trkpt><trkpt lat="52.4012767" lon="-1.2066567"><ele>124.33333333333333</ele><time>2026-05-04T11:10:40.801Z</time></trkpt><trkpt lat="52.401105" lon="-1.2065333"><ele>125.0</ele><time>2026-05-04T11:10:41.794Z</time></trkpt><trkpt lat="52.4009367" lon="-1.206405"><ele>125.33333333333333</ele><time>2026-05-04T11:10:42.795Z</time></trkpt><trkpt lat="52.4007717" lon="-1.2062767"><ele>125.66666666666666</ele><time>2026-05-04T11:10:43.792Z</time></trkpt><trkpt lat="52.4006" lon="-1.2061433"><ele>126.0</ele><time>2026-05-04T11:10:44.792Z</time></trkpt><trkpt lat="52.4004333" lon="-1.2060117"><ele>124.66666666666666</ele><time>2026-05-04T11:10:45.795Z</time></trkpt><trkpt lat="52.40026" lon="-1.2058817"><ele>123.33333333333333</ele><time>2026-05-04T11:10:46.792Z</time></trkpt><trkpt lat="52.4000867" lon="-1.2057483"><ele>122.0</ele><time>2026-05-04T11:10:47.791Z</time></trkpt><trkpt lat="52.399915" lon="-1.2056317"><ele>121.33333333333333</ele><time>2026-05-04T11:10:48.794Z</time></trkpt><trkpt lat="52.3997417" lon="-1.205515"><ele>120.66666666666666</ele><time>2026-05-04T11:10:49.791Z</time></trkpt><trkpt lat="52.399565" lon="-1.2054"><ele>120.0</ele><time>2026-05-04T11:10:50.791Z</time></trkpt><trkpt lat="52.3993917" lon="-1.2052933"><ele>118.0</ele><time>2026-05-04T11:10:51.795Z</time></trkpt><trkpt lat="52.399225" lon="-1.2051733"><ele>116.0</ele><time>2026-05-04T11:10:52.791Z</time></trkpt><trkpt lat="52.3990533" lon="-1.2050617"><ele>114.0</ele><time>2026-05-04T11:10:53.794Z</time></trkpt><trkpt lat="52.3988867" lon="-1.2049517"><ele>111.0</ele><time>2026-05-04T11:10:54.795Z</time></trkpt><trkpt lat="52.3987133" lon="-1.2048383"><ele>108.0</ele><time>2026-05-04T11:10:55.794Z</time></trkpt><trkpt lat="52.3985433" lon="-1.2047167"><ele>105.0</ele><time>2026-05-04T11:10:56.791Z</time></trkpt><trkpt lat="52.398375" lon="-1.2045917"><ele>105.0</ele><time>2026-05-04T11:10:57.792Z</time></trkpt><trkpt lat="52.3982067" lon="-1.204465"><ele>105.0</ele><time>2026-05-04T11:10:58.791Z</time></trkpt><trkpt lat="52.3980367" lon="-1.204335"><ele>105.0</ele><time>2026-05-04T11:10:59.795Z</time></trkpt><trkpt lat="52.397865" lon="-1.2042017"><ele>103.33333333333334</ele><time>2026-05-04T11:11:00.795Z</time></trkpt><trkpt lat="52.3976967" lon="-1.2040617"><ele>101.66666666666667</ele><time>2026-05-04T11:11:01.794Z</time></trkpt><trkpt lat="52.39753" lon="-1.203915"><ele>100.0</ele><time>2026-05-04T11:11:02.795Z</time></trkpt><trkpt lat="52.3973617" lon="-1.2037583"><ele>100.0</ele><time>2026-05-04T11:11:03.795Z</time></trkpt><trkpt lat="52.3972" lon="-1.2036"><ele>100.0</ele><time>2026-05-04T11:11:04.795Z</time></trkpt><trkpt lat="52.3970433" lon="-1.2034367"><ele>100.0</ele><time>2026-05-04T11:11:05.796Z</time></trkpt><trkpt lat="52.3968883" lon="-1.20327"><ele>98.66666666666667</ele><time>2026-05-04T11:11:06.795Z</time></trkpt><trkpt lat="52.396735" lon="-1.2031017"><ele>97.33333333333334</ele><time>2026-05-04T11:11:07.791Z</time></trkpt><trkpt lat="52.3965767" lon="-1.20293"><ele>96.0</ele><time>2026-05-04T11:11:08.795Z</time></trkpt><trkpt lat="52.396425" lon="-1.2027567"><ele>96.33333333333334</ele><time>2026-05-04T11:11:09.792Z</time></trkpt><trkpt lat="52.3962717" lon="-1.2025833"><ele>96.66666666666667</ele><time>2026-05-04T11:11:10.792Z</time></trkpt><trkpt lat="52.39612" lon="-1.202405"><ele>97.0</ele><time>2026-05-04T11:11:11.795Z</time></trkpt><trkpt lat="52.395975" lon="-1.2022267"><ele>97.0</ele><time>2026-05-04T11:11:12.792Z</time></trkpt><trkpt lat="52.39583" lon="-1.2020533"><ele>97.0</ele><time>2026-05-04T11:11:13.792Z</time></trkpt><trkpt lat="52.3956817" lon="-1.2018783"><ele>97.0</ele><time>2026-05-04T11:11:14.793Z</time></trkpt><trkpt lat="52.395535" lon="-1.2017083"><ele>98.0</ele><time>2026-05-04T11:11:15.79Z</time></trkpt><trkpt lat="52.3953783" lon="-1.20155"><ele>99.0</ele><time>2026-05-04T11:11:16.795Z</time></trkpt><trkpt lat="52.395225" lon="-1.2013983"><ele>100.0</ele><time>2026-05-04T11:11:17.795Z</time></trkpt><trkpt lat="52.39507" lon="-1.201255"><ele>100.0</ele><time>2026-05-04T11:11:18.797Z</time></trkpt><trkpt lat="52.3949017" lon="-1.201125"><ele>100.0</ele><time>2026-05-04T11:11:19.791Z</time></trkpt><trkpt lat="52.3947367" lon="-1.200995"><ele>100.0</ele><time>2026-05-04T11:11:20.791Z</time></trkpt><trkpt lat="52.3945717" lon="-1.2008617"><ele>102.0</ele><time>2026-05-04T11:11:21.794Z</time></trkpt><trkpt lat="52.3944067" lon="-1.2007233"><ele>104.0</ele><time>2026-05-04T11:11:22.792Z</time></trkpt><trkpt lat="52.3942467" lon="-1.20058"><ele>106.0</ele><time>2026-05-04T11:11:23.792Z</time></trkpt><trkpt lat="52.394085" lon="-1.2004383"><ele>106.0</ele><time>2026-05-04T11:11:24.792Z</time></trkpt><trkpt lat="52.3939233" lon="-1.2002967"><ele>106.0</ele><time>2026-05-04T11:11:25.793Z</time></trkpt><trkpt lat="52.3937617" lon="-1.2001517"><ele>106.0</ele><time>2026-05-04T11:11:26.795Z</time></trkpt><trkpt lat="52.3935983" lon="-1.2000117"><ele>108.0</ele><time>2026-05-04T11:11:27.795Z</time></trkpt><trkpt lat="52.39343" lon="-1.1998733"><ele>110.0</ele><time>2026-05-04T11:11:28.795Z</time></trkpt><trkpt lat="52.3932633" lon="-1.1997317"><ele>112.0</ele><time>2026-05-04T11:11:29.795Z</time></trkpt><trkpt lat="52.3930967" lon="-1.1995883"><ele>114.0</ele><time>2026-05-04T11:11:30.795Z</time></trkpt><trkpt lat="52.3929317" lon="-1.1994483"><ele>116.0</ele><time>2026-05-04T11:11:31.792Z</time></trkpt><trkpt lat="52.3927633" lon="-1.19931"><ele>118.0</ele><time>2026-05-04T11:11:32.795Z</time></trkpt><trkpt lat="52.3926" lon="-1.1991717"><ele>118.0</ele><time>2026-05-04T11:11:33.792Z</time></trkpt><trkpt lat="52.392435" lon="-1.1990317"><ele>118.0</ele><time>2026-05-04T11:11:34.791Z</time></trkpt><trkpt lat="52.3922717" lon="-1.1988867"><ele>118.0</ele><time>2026-05-04T11:11:35.792Z</time></trkpt><trkpt lat="52.3921117" lon="-1.19874"><ele>119.66666666666667</ele><time>2026-05-04T11:11:36.795Z</time></trkpt><trkpt lat="52.3919517" lon="-1.1985933"><ele>121.33333333333334</ele><time>2026-05-04T11:11:37.791Z</time></trkpt><trkpt lat="52.3917833" lon="-1.198445"><ele>123.0</ele><time>2026-05-04T11:11:38.796Z</time></trkpt><trkpt lat="52.3916183" lon="-1.1982933"><ele>123.0</ele><time>2026-05-04T11:11:39.794Z</time></trkpt><trkpt lat="52.3914567" lon="-1.1981383"><ele>123.0</ele><time>2026-05-04T11:11:40.791Z</time></trkpt><trkpt lat="52.3912933" lon="-1.197985"><ele>123.0</ele><time>2026-05-04T11:11:41.794Z</time></trkpt><trkpt lat="52.39113" lon="-1.1978333"><ele>123.66666666666666</ele><time>2026-05-04T11:11:42.791Z</time></trkpt><trkpt lat="52.39097" lon="-1.1976867"><ele>124.33333333333333</ele><time>2026-05-04T11:11:43.792Z</time></trkpt><trkpt lat="52.39081" lon="-1.1975383"><ele>125.0</ele><time>2026-05-04T11:11:44.792Z</time></trkpt><trkpt lat="52.390645" lon="-1.1973917"><ele>125.33333333333333</ele><time>2026-05-04T11:11:45.792Z</time></trkpt><trkpt lat="52.3904783" lon="-1.1972433"><ele>125.66666666666666</ele><time>2026-05-04T11:11:46.796Z</time></trkpt><trkpt lat="52.3903117" lon="-1.1970967"><ele>126.0</ele><time>2026-05-04T11:11:47.795Z</time></trkpt><trkpt lat="52.3901433" lon="-1.1969517"><ele>126.0</ele><time>2026-05-04T11:11:48.795Z</time></trkpt><trkpt lat="52.389975" lon="-1.1968117"><ele>126.0</ele><time>2026-05-04T11:11:49.796Z</time></trkpt><trkpt lat="52.389805" lon="-1.1966717"><ele>126.0</ele><time>2026-05-04T11:11:50.795Z</time></trkpt><trkpt lat="52.38964" lon="-1.1965283"><ele>126.33333333333334</ele><time>2026-05-04T11:11:51.795Z</time></trkpt><trkpt lat="52.3894767" lon="-1.1963883"><ele>126.66666666666667</ele><time>2026-05-04T11:11:52.792Z</time></trkpt><trkpt lat="52.3893117" lon="-1.1962467"><ele>127.0</ele><time>2026-05-04T11:11:53.795Z</time></trkpt><trkpt lat="52.3891467" lon="-1.1961067"><ele>127.0</ele><time>2026-05-04T11:11:54.795Z</time></trkpt><trkpt lat="52.3889833" lon="-1.19597"><ele>127.0</ele><time>2026-05-04T11:11:55.796Z</time></trkpt><trkpt lat="52.38882" lon="-1.19583"><ele>127.0</ele><time>2026-05-04T11:11:56.792Z</time></trkpt><trkpt lat="52.3886583" lon="-1.19569"><ele>127.33333333333334</ele><time>2026-05-04T11:11:57.799Z</time></trkpt><trkpt lat="52.3884917" lon="-1.19555"><ele>127.66666666666666</ele><time>2026-05-04T11:11:58.791Z</time></trkpt><trkpt lat="52.3883233" lon="-1.1954067"><ele>128.0</ele><time>2026-05-04T11:11:59.792Z</time></trkpt><trkpt lat="52.3881567" lon="-1.195265"><ele>127.66666666666666</ele><time>2026-05-04T11:12:00.791Z</time></trkpt><trkpt lat="52.38799" lon="-1.1951233"><ele>127.33333333333334</ele><time>2026-05-04T11:12:01.792Z</time></trkpt><trkpt lat="52.3878233" lon="-1.1949867"><ele>127.0</ele><time>2026-05-04T11:12:02.791Z</time></trkpt><trkpt lat="52.387655" lon="-1.1948483"><ele>127.0</ele><time>2026-05-04T11:12:03.792Z</time></trkpt><trkpt lat="52.3874917" lon="-1.1947083"><ele>127.0</ele><time>2026-05-04T11:12:04.791Z</time></trkpt><trkpt lat="52.387325" lon="-1.1945633"><ele>127.0</ele><time>2026-05-04T11:12:05.792Z</time></trkpt><trkpt lat="52.3871583" lon="-1.1944183"><ele>126.66666666666667</ele><time>2026-05-04T11:12:06.791Z</time></trkpt><trkpt lat="52.386995" lon="-1.1942717"><ele>126.33333333333334</ele><time>2026-05-04T11:12:07.791Z</time></trkpt><trkpt lat="52.3868317" lon="-1.1941267"><ele>126.0</ele><time>2026-05-04T11:12:08.791Z</time></trkpt><trkpt lat="52.38667" lon="-1.1939783"><ele>125.33333333333334</ele><time>2026-05-04T11:12:09.79Z</time></trkpt><trkpt lat="52.3865067" lon="-1.19383"><ele>124.66666666666667</ele><time>2026-05-04T11:12:10.792Z</time></trkpt><trkpt lat="52.38634" lon="-1.1936833"><ele>124.0</ele><time>2026-05-04T11:12:11.792Z</time></trkpt><trkpt lat="52.3861717" lon="-1.1935333"><ele>122.66666666666667</ele><time>2026-05-04T11:12:12.792Z</time></trkpt><trkpt lat="52.386005" lon="-1.193385"><ele>121.33333333333334</ele><time>2026-05-04T11:12:13.792Z</time></trkpt><trkpt lat="52.3858367" lon="-1.1932367"><ele>120.0</ele><time>2026-05-04T11:12:14.795Z</time></trkpt><trkpt lat="52.3856767" lon="-1.19309"><ele>117.0</ele><time>2026-05-04T11:12:15.795Z</time></trkpt><trkpt lat="52.38551" lon="-1.1929417"><ele>114.0</ele><time>2026-05-04T11:12:16.791Z</time></trkpt><trkpt lat="52.3853417" lon="-1.1927983"><ele>111.0</ele><time>2026-05-04T11:12:17.792Z</time></trkpt><trkpt lat="52.3851767" lon="-1.1926533"><ele>111.0</ele><time>2026-05-04T11:12:18.792Z</time></trkpt><trkpt lat="52.385015" lon="-1.192505"><ele>111.0</ele><time>2026-05-04T11:12:19.792Z</time></trkpt><trkpt lat="52.3848483" lon="-1.1923567"><ele>111.0</ele><time>2026-05-04T11:12:20.792Z</time></trkpt><trkpt lat="52.3846833" lon="-1.19221"><ele>109.66666666666666</ele><time>2026-05-04T11:12:21.795Z</time></trkpt><trkpt lat="52.3845167" lon="-1.19207"><ele>108.33333333333333</ele><time>2026-05-04T11:12:22.795Z</time></trkpt><trkpt lat="52.3843517" lon="-1.19193"><ele>107.0</ele><time>2026-05-04T11:12:23.795Z</time></trkpt><trkpt lat="52.3841833" lon="-1.191785"><ele>107.0</ele><time>2026-05-04T11:12:24.791Z</time></trkpt><trkpt lat="52.3840167" lon="-1.1916383"><ele>107.0</ele><time>2026-05-04T11:12:25.795Z</time></trkpt><trkpt lat="52.38385" lon="-1.1914933"><ele>107.0</ele><time>2026-05-04T11:12:26.794Z</time></trkpt><trkpt lat="52.383685" lon="-1.19135"><ele>106.0</ele><time>2026-05-04T11:12:27.795Z</time></trkpt><trkpt lat="52.383515" lon="-1.191205"><ele>105.0</ele><time>2026-05-04T11:12:28.795Z</time></trkpt><trkpt lat="52.38335" lon="-1.1910633"><ele>104.0</ele><time>2026-05-04T11:12:29.794Z</time></trkpt><trkpt lat="52.3831867" lon="-1.1909217"><ele>104.0</ele><time>2026-05-04T11:12:30.794Z</time></trkpt><trkpt lat="52.3830267" lon="-1.1907783"><ele>104.0</ele><time>2026-05-04T11:12:31.795Z</time></trkpt><trkpt lat="52.3828683" lon="-1.1906333"><ele>104.0</ele><time>2026-05-04T11:12:32.794Z</time></trkpt><trkpt lat="52.38271" lon="-1.19049"><ele>103.0</ele><time>2026-05-04T11:12:33.794Z</time></trkpt><trkpt lat="52.3825483" lon="-1.1903483"><ele>102.0</ele><time>2026-05-04T11:12:34.795Z</time></trkpt><trkpt lat="52.3823833" lon="-1.19021"><ele>101.0</ele><time>2026-05-04T11:12:35.792Z</time></trkpt><trkpt lat="52.3822183" lon="-1.1900683"><ele>100.66666666666666</ele><time>2026-05-04T11:12:36.794Z</time></trkpt><trkpt lat="52.3820583" lon="-1.189925"><ele>100.33333333333334</ele><time>2026-05-04T11:12:37.795Z</time></trkpt><trkpt lat="52.381895" lon="-1.1897833"><ele>100.0</ele><time>2026-05-04T11:12:38.792Z</time></trkpt><trkpt lat="52.381725" lon="-1.189635"><ele>100.0</ele><time>2026-05-04T11:12:39.792Z</time></trkpt><trkpt lat="52.3815583" lon="-1.1894867"><ele>100.0</ele><time>2026-05-04T11:12:40.794Z</time></trkpt><trkpt lat="52.3813917" lon="-1.1893367"><ele>100.0</ele><time>2026-05-04T11:12:41.795Z</time></trkpt><trkpt lat="52.3812267" lon="-1.18919"><ele>99.66666666666667</ele><time>2026-05-04T11:12:42.795Z</time></trkpt><trkpt lat="52.3810583" lon="-1.1890483"><ele>99.33333333333334</ele><time>2026-05-04T11:12:43.795Z</time></trkpt><trkpt lat="52.3808917" lon="-1.1889067"><ele>99.0</ele><time>2026-05-04T11:12:44.794Z</time></trkpt><trkpt lat="52.3807233" lon="-1.18877"><ele>99.0</ele><time>2026-05-04T11:12:45.793Z</time></trkpt><trkpt lat="52.3805533" lon="-1.1886317"><ele>99.0</ele><time>2026-05-04T11:12:46.795Z</time></trkpt><trkpt lat="52.3803867" lon="-1.1884917"><ele>99.0</ele><time>2026-05-04T11:12:47.795Z</time></trkpt><trkpt lat="52.38022" lon="-1.1883533"><ele>99.0</ele><time>2026-05-04T11:12:48.792Z</time></trkpt><trkpt lat="52.3697" lon="-1.1792867"><ele>99.0</ele><time>2026-05-04T11:13:56.826Z</time></trkpt><trkpt lat="52.36949" lon="-1.1790983"><ele>99.0</ele><time>2026-05-04T11:13:58.291Z</time></trkpt><trkpt lat="52.3690433" lon="-1.1786933"><ele>98.66666666666666</ele><time>2026-05-04T11:14:00.791Z</time></trkpt><trkpt lat="52.3688567" lon="-1.1785417"><ele>98.33333333333333</ele><time>2026-05-04T11:14:01.794Z</time></trkpt><trkpt lat="52.3686667" lon="-1.17839"><ele>98.0</ele><time>2026-05-04T11:14:02.791Z</time></trkpt><trkpt lat="52.3684783" lon="-1.1782367"><ele>98.0</ele><time>2026-05-04T11:14:03.791Z</time></trkpt><trkpt lat="52.368285" lon="-1.1780783"><ele>98.0</ele><time>2026-05-04T11:14:04.791Z</time></trkpt><trkpt lat="52.368095" lon="-1.1779167"><ele>98.0</ele><time>2026-05-04T11:14:05.793Z</time></trkpt><trkpt lat="52.3679017" lon="-1.1777483"><ele>98.0</ele><time>2026-05-04T11:14:06.791Z</time></trkpt><trkpt lat="52.3677083" lon="-1.177585"><ele>98.0</ele><time>2026-05-04T11:14:07.79Z</time></trkpt><trkpt lat="52.3675183" lon="-1.1774267"><ele>98.0</ele><time>2026-05-04T11:14:08.791Z</time></trkpt><trkpt lat="52.3673333" lon="-1.1772667"><ele>98.0</ele><time>2026-05-04T11:14:09.791Z</time></trkpt><trkpt lat="52.36714" lon="-1.1771067"><ele>98.0</ele><time>2026-05-04T11:14:10.791Z</time></trkpt><trkpt lat="52.36695" lon="-1.1769483"><ele>98.0</ele><time>2026-05-04T11:14:11.792Z</time></trkpt><trkpt lat="52.36676" lon="-1.17679"><ele>98.0</ele><time>2026-05-04T11:14:12.79Z</time></trkpt><trkpt lat="52.36657" lon="-1.1766283"><ele>98.0</ele><time>2026-05-04T11:14:13.791Z</time></trkpt><trkpt lat="52.3663767" lon="-1.176465"><ele>98.0</ele><time>2026-05-04T11:14:14.794Z</time></trkpt><trkpt lat="52.366185" lon="-1.1762983"><ele>99.0</ele><time>2026-05-04T11:14:15.79Z</time></trkpt><trkpt lat="52.3659917" lon="-1.1761283"><ele>100.0</ele><time>2026-05-04T11:14:16.791Z</time></trkpt><trkpt lat="52.3657967" lon="-1.1759617"><ele>101.0</ele><time>2026-05-04T11:14:17.792Z</time></trkpt><trkpt lat="52.3656033" lon="-1.1757983"><ele>101.0</ele><time>2026-05-04T11:14:18.792Z</time></trkpt><trkpt lat="52.3654133" lon="-1.1756317"><ele>101.0</ele><time>2026-05-04T11:14:19.792Z</time></trkpt><trkpt lat="52.3652233" lon="-1.1754633"><ele>101.0</ele><time>2026-05-04T11:14:20.79Z</time></trkpt><trkpt lat="52.36503" lon="-1.1752933"><ele>101.0</ele><time>2026-05-04T11:14:21.792Z</time></trkpt><trkpt lat="52.3648333" lon="-1.1751183"><ele>101.0</ele><time>2026-05-04T11:14:22.791Z</time></trkpt><trkpt lat="52.3646333" lon="-1.1749467"><ele>101.0</ele><time>2026-05-04T11:14:23.79Z</time></trkpt><trkpt lat="52.3644383" lon="-1.1747783"><ele>101.0</ele><time>2026-05-04T11:14:24.791Z</time></trkpt><trkpt lat="52.3642433" lon="-1.1746067"><ele>101.0</ele><time>2026-05-04T11:14:25.791Z</time></trkpt><trkpt lat="52.364045" lon="-1.1744383"><ele>101.0</ele><time>2026-05-04T11:14:26.79Z</time></trkpt><trkpt lat="52.3638467" lon="-1.17427"><ele>101.0</ele><time>2026-05-04T11:14:27.791Z</time></trkpt><trkpt lat="52.3636433" lon="-1.1741"><ele>101.0</ele><time>2026-05-04T11:14:28.79Z</time></trkpt><trkpt lat="52.3634433" lon="-1.1739267"><ele>101.0</ele><time>2026-05-04T11:14:29.79Z</time></trkpt><trkpt lat="52.3632433" lon="-1.173755"><ele>101.0</ele><time>2026-05-04T11:14:30.792Z</time></trkpt><trkpt lat="52.363045" lon="-1.1735833"><ele>101.0</ele><time>2026-05-04T11:14:31.796Z</time></trkpt><trkpt lat="52.36285" lon="-1.1734083"><ele>101.0</ele><time>2026-05-04T11:14:32.791Z</time></trkpt><trkpt lat="52.3626583" lon="-1.1732333"><ele>101.0</ele><time>2026-05-04T11:14:33.791Z</time></trkpt><trkpt lat="52.36246" lon="-1.1730617"><ele>101.0</ele><time>2026-05-04T11:14:34.791Z</time></trkpt><trkpt lat="52.3622633" lon="-1.1728917"><ele>101.0</ele><time>2026-05-04T11:14:35.793Z</time></trkpt><trkpt lat="52.3620633" lon="-1.1727183"><ele>101.5</ele><time>2026-05-04T11:14:36.79Z</time></trkpt><trkpt lat="52.3618717" lon="-1.1725417"><ele>102.0</ele><time>2026-05-04T11:14:37.79Z</time></trkpt><trkpt lat="52.3616683" lon="-1.1723667"><ele>102.0</ele><time>2026-05-04T11:14:38.792Z</time></trkpt><trkpt lat="52.3614683" lon="-1.1721933"><ele>102.0</ele><time>2026-05-04T11:14:39.791Z</time></trkpt><trkpt lat="52.36127" lon="-1.172025"><ele>102.0</ele><time>2026-05-04T11:14:40.79Z</time></trkpt><trkpt lat="52.3610717" lon="-1.171855"><ele>102.0</ele><time>2026-05-04T11:14:41.791Z</time></trkpt><trkpt lat="52.360875" lon="-1.1716833"><ele>102.0</ele><time>2026-05-04T11:14:42.791Z</time></trkpt><trkpt lat="52.3606783" lon="-1.1715133"><ele>102.5</ele><time>2026-05-04T11:14:43.79Z</time></trkpt><trkpt lat="52.360475" lon="-1.17134"><ele>103.0</ele><time>2026-05-04T11:14:44.79Z</time></trkpt><trkpt lat="52.3602833" lon="-1.1711533"><ele>103.0</ele><time>2026-05-04T11:14:45.791Z</time></trkpt><trkpt lat="52.360085" lon="-1.1709667"><ele>103.0</ele><time>2026-05-04T11:14:46.791Z</time></trkpt><trkpt lat="52.3598917" lon="-1.17079"><ele>103.0</ele><time>2026-05-04T11:14:47.79Z</time></trkpt><trkpt lat="52.35971" lon="-1.170625"><ele>103.0</ele><time>2026-05-04T11:14:48.791Z</time></trkpt><trkpt lat="52.3595367" lon="-1.1704817"><ele>103.0</ele><time>2026-05-04T11:14:49.791Z</time></trkpt><trkpt lat="52.3593733" lon="-1.17035"><ele>103.0</ele><time>2026-05-04T11:14:50.791Z</time></trkpt><trkpt lat="52.3592183" lon="-1.1702367"><ele>103.0</ele><time>2026-05-04T11:14:51.79Z</time></trkpt><trkpt lat="52.3590717" lon="-1.170145"><ele>103.0</ele><time>2026-05-04T11:14:52.791Z</time></trkpt><trkpt lat="52.35893" lon="-1.1700833"><ele>102.75</ele><time>2026-05-04T11:14:53.793Z</time></trkpt><trkpt lat="52.3587933" lon="-1.170035"><ele>102.5</ele><time>2026-05-04T11:14:54.791Z</time></trkpt><trkpt lat="52.3586683" lon="-1.169985"><ele>102.25</ele><time>2026-05-04T11:14:55.791Z</time></trkpt><trkpt lat="52.358555" lon="-1.1699233"><ele>102.0</ele><time>2026-05-04T11:14:56.79Z</time></trkpt><trkpt lat="52.358455" lon="-1.1698367"><ele>102.39999999999999</ele><time>2026-05-04T11:14:57.792Z</time></trkpt><trkpt lat="52.3583767" lon="-1.169725"><ele>102.8</ele><time>2026-05-04T11:14:58.79Z</time></trkpt><trkpt lat="52.35831" lon="-1.1695967"><ele>103.2</ele><time>2026-05-04T11:14:59.793Z</time></trkpt><trkpt lat="52.35822" lon="-1.169475"><ele>103.6</ele><time>2026-05-04T11:15:00.79Z</time></trkpt><trkpt lat="52.3581133" lon="-1.169375"><ele>104.0</ele><time>2026-05-04T11:15:01.79Z</time></trkpt><trkpt lat="52.358" lon="-1.1692833"><ele>104.0</ele><time>2026-05-04T11:15:02.79Z</time></trkpt><trkpt lat="52.3578767" lon="-1.1691783"><ele>104.0</ele><time>2026-05-04T11:15:03.791Z</time></trkpt><trkpt lat="52.3577617" lon="-1.16905"><ele>104.0</ele><time>2026-05-04T11:15:04.795Z</time></trkpt><trkpt lat="52.3576467" lon="-1.1689033"><ele>104.0</ele><time>2026-05-04T11:15:05.791Z</time></trkpt><trkpt lat="52.3575267" lon="-1.1687467"><ele>104.0</ele><time>2026-05-04T11:15:06.79Z</time></trkpt><trkpt lat="52.3574033" lon="-1.1685917"><ele>104.0</ele><time>2026-05-04T11:15:07.795Z</time></trkpt><trkpt lat="52.3572783" lon="-1.1684317"><ele>104.0</ele><time>2026-05-04T11:15:08.791Z</time></trkpt><trkpt lat="52.3571517" lon="-1.1682683"><ele>104.33333333333333</ele><time>2026-05-04T11:15:09.791Z</time></trkpt><trkpt lat="52.3570183" lon="-1.1680983"><ele>104.66666666666666</ele><time>2026-05-04T11:15:10.79Z</time></trkpt><trkpt lat="52.3568817" lon="-1.16793"><ele>105.0</ele><time>2026-05-04T11:15:11.791Z</time></trkpt><trkpt lat="52.3567283" lon="-1.1677667"><ele>105.0</ele><time>2026-05-04T11:15:12.793Z</time></trkpt><trkpt lat="52.3565683" lon="-1.1676"><ele>105.0</ele><time>2026-05-04T11:15:13.791Z</time></trkpt><trkpt lat="52.3564017" lon="-1.1674317"><ele>105.0</ele><time>2026-05-04T11:15:14.796Z</time></trkpt><trkpt lat="52.356225" lon="-1.1672583"><ele>105.0</ele><time>2026-05-04T11:15:15.791Z</time></trkpt><trkpt lat="52.35605" lon="-1.167085"><ele>105.0</ele><time>2026-05-04T11:15:16.791Z</time></trkpt><trkpt lat="52.3558733" lon="-1.1669033"><ele>105.0</ele><time>2026-05-04T11:15:17.791Z</time></trkpt><trkpt lat="52.35569" lon="-1.1667217"><ele>105.0</ele><time>2026-05-04T11:15:18.792Z</time></trkpt><trkpt lat="52.3555033" lon="-1.16653"><ele>105.0</ele><time>2026-05-04T11:15:19.791Z</time></trkpt><trkpt lat="52.3553167" lon="-1.16633"><ele>105.0</ele><time>2026-05-04T11:15:20.791Z</time></trkpt><trkpt lat="52.355125" lon="-1.1661317"><ele>105.5</ele><time>2026-05-04T11:15:21.792Z</time></trkpt><trkpt lat="52.3549283" lon="-1.16593"><ele>106.0</ele><time>2026-05-04T11:15:22.791Z</time></trkpt><trkpt lat="52.35474" lon="-1.16572"><ele>106.0</ele><time>2026-05-04T11:15:23.792Z</time></trkpt><trkpt lat="52.3545433" lon="-1.1655083"><ele>106.0</ele><time>2026-05-04T11:15:24.792Z</time></trkpt><trkpt lat="52.354345" lon="-1.1652883"><ele>106.0</ele><time>2026-05-04T11:15:25.79Z</time></trkpt><trkpt lat="52.3541517" lon="-1.165055"><ele>106.0</ele><time>2026-05-04T11:15:26.792Z</time></trkpt><trkpt lat="52.3539733" lon="-1.16481"><ele>107.0</ele><time>2026-05-04T11:15:27.79Z</time></trkpt><trkpt lat="52.3537933" lon="-1.1645533"><ele>108.0</ele><time>2026-05-04T11:15:28.79Z</time></trkpt><trkpt lat="52.353615" lon="-1.1642883"><ele>107.0</ele><time>2026-05-04T11:15:29.791Z</time></trkpt><trkpt lat="52.3534333" lon="-1.164025"><ele>106.0</ele><time>2026-05-04T11:15:30.79Z</time></trkpt><trkpt lat="52.3532567" lon="-1.1637533"><ele>106.0</ele><time>2026-05-04T11:15:31.791Z</time></trkpt><trkpt lat="52.3530817" lon="-1.1634717"><ele>106.0</ele><time>2026-05-04T11:15:32.791Z</time></trkpt><trkpt lat="52.3529267" lon="-1.1632"><ele>106.0</ele><time>2026-05-04T11:15:33.794Z</time></trkpt><trkpt lat="52.352785" lon="-1.162955"><ele>106.0</ele><time>2026-05-04T11:15:34.794Z</time></trkpt><trkpt lat="52.3526683" lon="-1.1627417"><ele>106.0</ele><time>2026-05-04T11:15:35.8Z</time></trkpt><trkpt lat="52.3525683" lon="-1.1625533"><ele>106.00000000000001</ele><time>2026-05-04T11:15:36.794Z</time></trkpt><trkpt lat="52.3524933" lon="-1.16239"><ele>106.0</ele><time>2026-05-04T11:15:37.797Z</time></trkpt><trkpt lat="52.3524283" lon="-1.16227"><ele>106.0</ele><time>2026-05-04T11:15:38.794Z</time></trkpt><trkpt lat="52.3523817" lon="-1.16218"><ele>106.0</ele><time>2026-05-04T11:15:39.791Z</time></trkpt><trkpt lat="52.3523567" lon="-1.1620783"><ele>106.00000000000001</ele><time>2026-05-04T11:15:41.791Z</time></trkpt><trkpt lat="52.3523617" lon="-1.1619617"><ele>106.0</ele><time>2026-05-04T11:15:43.791Z</time></trkpt><trkpt lat="52.3523617" lon="-1.1617633"><ele>106.33333333333334</ele><time>2026-05-04T11:15:45.795Z</time></trkpt><trkpt lat="52.35234" lon="-1.1616583"><ele>106.66666666666667</ele><time>2026-05-04T11:15:46.795Z</time></trkpt><trkpt lat="52.3522983" lon="-1.1615567"><ele>107.0</ele><time>2026-05-04T11:15:47.791Z</time></trkpt><trkpt lat="52.3522433" lon="-1.16146"><ele>107.33333333333334</ele><time>2026-05-04T11:15:48.792Z</time></trkpt><trkpt lat="52.3521667" lon="-1.16136"><ele>107.66666666666667</ele><time>2026-05-04T11:15:49.793Z</time></trkpt><trkpt lat="52.3520867" lon="-1.161245"><ele>108.0</ele><time>2026-05-04T11:15:50.793Z</time></trkpt><trkpt lat="52.3520017" lon="-1.1611017"><ele>108.25</ele><time>2026-05-04T11:15:51.791Z</time></trkpt><trkpt lat="52.3519217" lon="-1.1609383"><ele>108.5</ele><time>2026-05-04T11:15:52.79Z</time></trkpt><trkpt lat="52.35185" lon="-1.1607567"><ele>108.75</ele><time>2026-05-04T11:15:53.791Z</time></trkpt><trkpt lat="52.3517783" lon="-1.1605667"><ele>109.0</ele><time>2026-05-04T11:15:54.79Z</time></trkpt><trkpt lat="52.351715" lon="-1.160365"><ele>109.0</ele><time>2026-05-04T11:15:55.792Z</time></trkpt><trkpt lat="52.35165" lon="-1.16016"><ele>109.0</ele><time>2026-05-04T11:15:56.791Z</time></trkpt><trkpt lat="52.351115" lon="-1.1569917"><ele>109.0</ele><time>2026-05-04T11:16:10.079Z</time></trkpt><trkpt lat="52.3510783" lon="-1.1567417"><ele>109.0</ele><time>2026-05-04T11:16:11.291Z</time></trkpt><trkpt lat="52.35104" lon="-1.156445"><ele>109.0</ele><time>2026-05-04T11:16:12.791Z</time></trkpt><trkpt lat="52.3510183" lon="-1.1562667"><ele>109.16666666666667</ele><time>2026-05-04T11:16:13.792Z</time></trkpt><trkpt lat="52.3509983" lon="-1.156085"><ele>109.33333333333334</ele><time>2026-05-04T11:16:14.792Z</time></trkpt><trkpt lat="52.35099" lon="-1.15596"><ele>109.5</ele><time>2026-05-04T11:16:15.79Z</time></trkpt><trkpt lat="52.3509833" lon="-1.155855"><ele>109.66666666666666</ele><time>2026-05-04T11:16:16.793Z</time></trkpt><trkpt lat="52.3509883" lon="-1.15573"><ele>109.83333333333333</ele><time>2026-05-04T11:16:18.79Z</time></trkpt><trkpt lat="52.3510133" lon="-1.15563"><ele>110.0</ele><time>2026-05-04T11:16:20.791Z</time></trkpt><trkpt lat="52.35107" lon="-1.15551"><ele>110.49999999999999</ele><time>2026-05-04T11:16:22.791Z</time></trkpt><trkpt lat="52.3511233" lon="-1.1554383"><ele>111.0</ele><time>2026-05-04T11:16:23.791Z</time></trkpt><trkpt lat="52.3511867" lon="-1.155345"><ele>111.5</ele><time>2026-05-04T11:16:24.791Z</time></trkpt><trkpt lat="52.35124" lon="-1.15522"><ele>112.0</ele><time>2026-05-04T11:16:25.792Z</time></trkpt><trkpt lat="52.351275" lon="-1.1550783"><ele>112.49999999999999</ele><time>2026-05-04T11:16:26.791Z</time></trkpt><trkpt lat="52.351305" lon="-1.1549217"><ele>113.0</ele><time>2026-05-04T11:16:27.79Z</time></trkpt><trkpt lat="52.3513283" lon="-1.154755"><ele>113.0</ele><time>2026-05-04T11:16:28.792Z</time></trkpt><trkpt lat="52.351345" lon="-1.1545833"><ele>113.00000000000001</ele><time>2026-05-04T11:16:29.792Z</time></trkpt><trkpt lat="52.3513533" lon="-1.15441"><ele>113.00000000000001</ele><time>2026-05-04T11:16:30.794Z</time></trkpt><trkpt lat="52.35134" lon="-1.1542317"><ele>113.0</ele><time>2026-05-04T11:16:31.791Z</time></trkpt><trkpt lat="52.3513183" lon="-1.1540567"><ele>113.0</ele><time>2026-05-04T11:16:32.79Z</time></trkpt><trkpt lat="52.3512783" lon="-1.1538783"><ele>112.60000000000001</ele><time>2026-05-04T11:16:33.791Z</time></trkpt><trkpt lat="52.3512133" lon="-1.1537383"><ele>112.20000000000002</ele><time>2026-05-04T11:16:34.792Z</time></trkpt><trkpt lat="52.3511283" lon="-1.15361"><ele>111.8</ele><time>2026-05-04T11:16:35.791Z</time></trkpt><trkpt lat="52.3510367" lon="-1.1535183"><ele>111.4</ele><time>2026-05-04T11:16:36.791Z</time></trkpt><trkpt lat="52.350935" lon="-1.1534567"><ele>111.0</ele><time>2026-05-04T11:16:37.792Z</time></trkpt><trkpt lat="52.35083" lon="-1.15343"><ele>111.0</ele><time>2026-05-04T11:16:38.792Z</time></trkpt><trkpt lat="52.350725" lon="-1.1534433"><ele>111.0</ele><time>2026-05-04T11:16:39.79Z</time></trkpt><trkpt lat="52.3506167" lon="-1.1534933"><ele>111.0</ele><time>2026-05-04T11:16:40.791Z</time></trkpt><trkpt lat="52.3505117" lon="-1.1535733"><ele>111.0</ele><time>2026-05-04T11:16:41.791Z</time></trkpt><trkpt lat="52.3504017" lon="-1.153665"><ele>111.0</ele><time>2026-05-04T11:16:42.791Z</time></trkpt><trkpt lat="52.3502867" lon="-1.1537567"><ele>111.0</ele><time>2026-05-04T11:16:43.791Z</time></trkpt><trkpt lat="52.3501717" lon="-1.15383"><ele>111.0</ele><time>2026-05-04T11:16:44.791Z</time></trkpt><trkpt lat="52.3500483" lon="-1.153885"><ele>111.0</ele><time>2026-05-04T11:16:45.792Z</time></trkpt><trkpt lat="52.3499183" lon="-1.1539083"><ele>111.0</ele><time>2026-05-04T11:16:46.791Z</time></trkpt><trkpt lat="52.34977" lon="-1.1539017"><ele>111.0</ele><time>2026-05-04T11:16:47.792Z</time></trkpt><trkpt lat="52.34961" lon="-1.1538817"><ele>111.0</ele><time>2026-05-04T11:16:48.79Z</time></trkpt><trkpt lat="52.3494383" lon="-1.153855"><ele>111.33333333333334</ele><time>2026-05-04T11:16:49.792Z</time></trkpt><trkpt lat="52.3492567" lon="-1.1538267"><ele>111.66666666666667</ele><time>2026-05-04T11:16:50.79Z</time></trkpt><trkpt lat="52.3490783" lon="-1.1538017"><ele>112.0</ele><time>2026-05-04T11:16:51.793Z</time></trkpt><trkpt lat="52.348905" lon="-1.153775"><ele>111.66666666666667</ele><time>2026-05-04T11:16:52.792Z</time></trkpt><trkpt lat="52.3487383" lon="-1.15375"><ele>111.33333333333334</ele><time>2026-05-04T11:16:53.792Z</time></trkpt><trkpt lat="52.3485717" lon="-1.1537267"><ele>111.0</ele><time>2026-05-04T11:16:54.791Z</time></trkpt><trkpt lat="52.3484" lon="-1.1537067"><ele>111.0</ele><time>2026-05-04T11:16:55.792Z</time></trkpt><trkpt lat="52.3482217" lon="-1.1536867"><ele>111.0</ele><time>2026-05-04T11:16:56.791Z</time></trkpt><trkpt lat="52.3480383" lon="-1.1536683"><ele>111.0</ele><time>2026-05-04T11:16:57.791Z</time></trkpt><trkpt lat="52.3478517" lon="-1.15365"><ele>111.0</ele><time>2026-05-04T11:16:58.791Z</time></trkpt><trkpt lat="52.3476633" lon="-1.1536267"><ele>111.0</ele><time>2026-05-04T11:16:59.792Z</time></trkpt><trkpt lat="52.3474717" lon="-1.153595"><ele>111.0</ele><time>2026-05-04T11:17:00.791Z</time></trkpt><trkpt lat="52.347275" lon="-1.1535567"><ele>112.0</ele><time>2026-05-04T11:17:01.792Z</time></trkpt><trkpt lat="52.3470733" lon="-1.1535167"><ele>113.0</ele><time>2026-05-04T11:17:02.791Z</time></trkpt><trkpt lat="52.3468633" lon="-1.15347"><ele>114.0</ele><time>2026-05-04T11:17:03.79Z</time></trkpt><trkpt lat="52.3466467" lon="-1.1534217"><ele>114.0</ele><time>2026-05-04T11:17:04.791Z</time></trkpt><trkpt lat="52.34642" lon="-1.153365"><ele>114.0</ele><time>2026-05-04T11:17:05.791Z</time></trkpt><trkpt lat="52.3461883" lon="-1.1533017"><ele>114.5</ele><time>2026-05-04T11:17:06.792Z</time></trkpt><trkpt lat="52.3459483" lon="-1.15323"><ele>115.0</ele><time>2026-05-04T11:17:07.79Z</time></trkpt><trkpt lat="52.3457083" lon="-1.1531533"><ele>113.5</ele><time>2026-05-04T11:17:08.792Z</time></trkpt><trkpt lat="52.34547" lon="-1.1530767"><ele>112.0</ele><time>2026-05-04T11:17:09.791Z</time></trkpt><trkpt lat="52.34523" lon="-1.152995"><ele>112.0</ele><time>2026-05-04T11:17:10.791Z</time></trkpt><trkpt lat="52.3449883" lon="-1.1529083"><ele>112.0</ele><time>2026-05-04T11:17:11.794Z</time></trkpt><trkpt lat="52.3447467" lon="-1.15282"><ele>113.5</ele><time>2026-05-04T11:17:12.794Z</time></trkpt><trkpt lat="52.3445017" lon="-1.1527283"><ele>115.0</ele><time>2026-05-04T11:17:13.795Z</time></trkpt><trkpt lat="52.3442617" lon="-1.1526417"><ele>115.0</ele><time>2026-05-04T11:17:14.791Z</time></trkpt><trkpt lat="52.3440117" lon="-1.152545"><ele>115.0</ele><time>2026-05-04T11:17:15.79Z</time></trkpt><trkpt lat="52.3437583" lon="-1.15244"><ele>116.0</ele><time>2026-05-04T11:17:16.791Z</time></trkpt><trkpt lat="52.3435017" lon="-1.1523317"><ele>117.0</ele><time>2026-05-04T11:17:17.792Z</time></trkpt><trkpt lat="52.3432483" lon="-1.1522267"><ele>118.0</ele><time>2026-05-04T11:17:18.795Z</time></trkpt><trkpt lat="52.343" lon="-1.152125"><ele>119.0</ele><time>2026-05-04T11:17:19.795Z</time></trkpt><trkpt lat="52.3427583" lon="-1.15203"><ele>119.0</ele><time>2026-05-04T11:17:20.795Z</time></trkpt><trkpt lat="52.3425167" lon="-1.1519333"><ele>119.0</ele><time>2026-05-04T11:17:21.795Z</time></trkpt><trkpt lat="52.3422717" lon="-1.15183"><ele>120.5</ele><time>2026-05-04T11:17:22.795Z</time></trkpt><trkpt lat="52.342025" lon="-1.151725"><ele>122.0</ele><time>2026-05-04T11:17:23.795Z</time></trkpt><trkpt lat="52.34178" lon="-1.1516217"><ele>123.0</ele><time>2026-05-04T11:17:24.794Z</time></trkpt><trkpt lat="52.3415367" lon="-1.1515183"><ele>124.0</ele><time>2026-05-04T11:17:25.794Z</time></trkpt><trkpt lat="52.3412867" lon="-1.1514133"><ele>126.0</ele><time>2026-05-04T11:17:26.795Z</time></trkpt><trkpt lat="52.341035" lon="-1.151305"><ele>128.0</ele><time>2026-05-04T11:17:27.79Z</time></trkpt><trkpt lat="52.340785" lon="-1.1511967"><ele>130.5</ele><time>2026-05-04T11:17:28.794Z</time></trkpt><trkpt lat="52.34053" lon="-1.151085"><ele>133.0</ele><time>2026-05-04T11:17:29.795Z</time></trkpt><trkpt lat="52.3402767" lon="-1.1509667"><ele>133.0</ele><time>2026-05-04T11:17:30.794Z</time></trkpt><trkpt lat="52.34002" lon="-1.1508517"><ele>133.0</ele><time>2026-05-04T11:17:31.794Z</time></trkpt><trkpt lat="52.339765" lon="-1.1507417"><ele>135.0</ele><time>2026-05-04T11:17:32.791Z</time></trkpt><trkpt lat="52.33951" lon="-1.15063"><ele>137.0</ele><time>2026-05-04T11:17:33.791Z</time></trkpt><trkpt lat="52.3392533" lon="-1.1505183"><ele>137.0</ele><time>2026-05-04T11:17:34.791Z</time></trkpt><trkpt lat="52.3389983" lon="-1.1504017"><ele>137.0</ele><time>2026-05-04T11:17:35.791Z</time></trkpt><trkpt lat="52.338745" lon="-1.15028"><ele>137.5</ele><time>2026-05-04T11:17:36.791Z</time></trkpt><trkpt lat="52.3384917" lon="-1.1501583"><ele>138.0</ele><time>2026-05-04T11:17:37.791Z</time></trkpt><trkpt lat="52.3382383" lon="-1.150035"><ele>137.5</ele><time>2026-05-04T11:17:38.795Z</time></trkpt><trkpt lat="52.3379883" lon="-1.1499117"><ele>137.0</ele><time>2026-05-04T11:17:39.795Z</time></trkpt><trkpt lat="52.33774" lon="-1.1497883"><ele>138.0</ele><time>2026-05-04T11:17:40.795Z</time></trkpt><trkpt lat="52.3374917" lon="-1.1496567"><ele>139.0</ele><time>2026-05-04T11:17:41.795Z</time></trkpt><trkpt lat="52.3372467" lon="-1.14953"><ele>140.0</ele><time>2026-05-04T11:17:42.791Z</time></trkpt><trkpt lat="52.3370033" lon="-1.1494083"><ele>141.0</ele><time>2026-05-04T11:17:43.792Z</time></trkpt><trkpt lat="52.3367617" lon="-1.149285"><ele>141.0</ele><time>2026-05-04T11:17:44.795Z</time></trkpt><trkpt lat="52.3365217" lon="-1.1491667"><ele>141.0</ele><time>2026-05-04T11:17:45.795Z</time></trkpt><trkpt lat="52.336275" lon="-1.149045"><ele>142.0</ele><time>2026-05-04T11:17:46.795Z</time></trkpt><trkpt lat="52.3360283" lon="-1.148925"><ele>143.0</ele><time>2026-05-04T11:17:47.792Z</time></trkpt><trkpt lat="52.3357833" lon="-1.1487933"><ele>144.0</ele><time>2026-05-04T11:17:48.795Z</time></trkpt><trkpt lat="52.3355317" lon="-1.1486567"><ele>145.0</ele><time>2026-05-04T11:17:49.795Z</time></trkpt><trkpt lat="52.3352783" lon="-1.1485217"><ele>150.0</ele><time>2026-05-04T11:17:50.794Z</time></trkpt><trkpt lat="52.3236967" lon="-1.13935"><ele>150.0</ele><time>2026-05-04T11:18:40.18Z</time></trkpt><trkpt lat="52.3230317" lon="-1.1390917"><ele>148.0</ele><time>2026-05-04T11:18:42.442Z</time></trkpt><trkpt lat="52.3225333" lon="-1.1384267"><ele>148.0</ele><time>2026-05-04T11:18:44.791Z</time></trkpt><trkpt lat="52.3223" lon="-1.13814"><ele>148.0</ele><time>2026-05-04T11:18:45.79Z</time></trkpt><trkpt lat="52.3220767" lon="-1.137885"><ele>146.5</ele><time>2026-05-04T11:18:46.791Z</time></trkpt><trkpt lat="52.3218567" lon="-1.1376167"><ele>145.0</ele><time>2026-05-04T11:18:47.794Z</time></trkpt><trkpt lat="52.3074389" lon="-1.1231141"><ele>108.0</ele><time>2026-05-04T11:19:53.692Z</time></trkpt><trkpt lat="52.3060183" lon="-1.12117"><ele>108.0</ele><time>2026-05-04T11:19:58.652Z</time></trkpt><trkpt lat="52.30635" lon="-1.1215467"><ele>108.0</ele><time>2026-05-04T11:19:59.667Z</time></trkpt><trkpt lat="52.3054217" lon="-1.12082"><ele>108.0</ele><time>2026-05-04T11:20:00.791Z</time></trkpt><trkpt lat="52.30519" lon="-1.12063"><ele>108.0</ele><time>2026-05-04T11:20:01.79Z</time></trkpt><trkpt lat="52.3049567" lon="-1.1204433"><ele>108.0</ele><time>2026-05-04T11:20:02.79Z</time></trkpt><trkpt lat="52.3047383" lon="-1.12025"><ele>108.0</ele><time>2026-05-04T11:20:03.791Z</time></trkpt><trkpt lat="52.3045317" lon="-1.1200533"><ele>107.0</ele><time>2026-05-04T11:20:04.792Z</time></trkpt><trkpt lat="52.3043" lon="-1.1198667"><ele>106.0</ele><time>2026-05-04T11:20:05.792Z</time></trkpt><trkpt lat="52.3040717" lon="-1.1196867"><ele>106.5</ele><time>2026-05-04T11:20:06.792Z</time></trkpt><trkpt lat="52.30384" lon="-1.1194967"><ele>107.0</ele><time>2026-05-04T11:20:07.79Z</time></trkpt><trkpt lat="52.3036033" lon="-1.1193033"><ele>107.0</ele><time>2026-05-04T11:20:08.791Z</time></trkpt><trkpt lat="52.303365" lon="-1.1191083"><ele>107.0</ele><time>2026-05-04T11:20:09.791Z</time></trkpt><trkpt lat="52.3031283" lon="-1.1189133"><ele>107.0</ele><time>2026-05-04T11:20:10.792Z</time></trkpt><trkpt lat="52.3028933" lon="-1.1187183"><ele>107.0</ele><time>2026-05-04T11:20:11.791Z</time></trkpt><trkpt lat="52.3026583" lon="-1.118535"><ele>107.0</ele><time>2026-05-04T11:20:12.79Z</time></trkpt><trkpt lat="52.3024267" lon="-1.118345"><ele>107.0</ele><time>2026-05-04T11:20:13.791Z</time></trkpt><trkpt lat="52.3021967" lon="-1.1181617"><ele>108.0</ele><time>2026-05-04T11:20:14.795Z</time></trkpt><trkpt lat="52.30198" lon="-1.11798"><ele>109.0</ele><time>2026-05-04T11:20:15.791Z</time></trkpt><trkpt lat="52.3017733" lon="-1.1178067"><ele>109.0</ele><time>2026-05-04T11:20:16.794Z</time></trkpt><trkpt lat="52.3015683" lon="-1.1176383"><ele>109.0</ele><time>2026-05-04T11:20:17.791Z</time></trkpt><trkpt lat="52.301365" lon="-1.1174633"><ele>109.5</ele><time>2026-05-04T11:20:18.791Z</time></trkpt><trkpt lat="52.3011517" lon="-1.1172817"><ele>110.0</ele><time>2026-05-04T11:20:19.792Z</time></trkpt><trkpt lat="52.3009333" lon="-1.11709"><ele>110.0</ele><time>2026-05-04T11:20:20.791Z</time></trkpt><trkpt lat="52.3007117" lon="-1.1169"><ele>110.0</ele><time>2026-05-04T11:20:21.793Z</time></trkpt><trkpt lat="52.3004867" lon="-1.1167067"><ele>110.5</ele><time>2026-05-04T11:20:22.79Z</time></trkpt><trkpt lat="52.300255" lon="-1.11651"><ele>111.0</ele><time>2026-05-04T11:20:23.792Z</time></trkpt><trkpt lat="52.3000183" lon="-1.116305"><ele>111.0</ele><time>2026-05-04T11:20:24.795Z</time></trkpt><trkpt lat="52.2997783" lon="-1.1160917"><ele>111.0</ele><time>2026-05-04T11:20:25.796Z</time></trkpt><trkpt lat="52.2995333" lon="-1.1158767"><ele>111.0</ele><time>2026-05-04T11:20:26.791Z</time></trkpt><trkpt lat="52.2992867" lon="-1.11566"><ele>111.0</ele><time>2026-05-04T11:20:27.791Z</time></trkpt><trkpt lat="52.2990383" lon="-1.11544"><ele>112.0</ele><time>2026-05-04T11:20:28.79Z</time></trkpt><trkpt lat="52.298795" lon="-1.1152133"><ele>113.0</ele><time>2026-05-04T11:20:29.791Z</time></trkpt><trkpt lat="52.2985517" lon="-1.11499"><ele>112.5</ele><time>2026-05-04T11:20:30.791Z</time></trkpt><trkpt lat="52.2983083" lon="-1.114765"><ele>112.0</ele><time>2026-05-04T11:20:31.792Z</time></trkpt><trkpt lat="52.2980667" lon="-1.1145367"><ele>112.0</ele><time>2026-05-04T11:20:32.791Z</time></trkpt><trkpt lat="52.297825" lon="-1.11431"><ele>112.0</ele><time>2026-05-04T11:20:33.791Z</time></trkpt><trkpt lat="52.2975817" lon="-1.11408"><ele>112.0</ele><time>2026-05-04T11:20:34.791Z</time></trkpt><trkpt lat="52.29734" lon="-1.1138483"><ele>112.0</ele><time>2026-05-04T11:20:35.79Z</time></trkpt><trkpt lat="52.2971" lon="-1.1136117"><ele>112.0</ele><time>2026-05-04T11:20:36.792Z</time></trkpt><trkpt lat="52.29686" lon="-1.1133717"><ele>112.0</ele><time>2026-05-04T11:20:37.793Z</time></trkpt><trkpt lat="52.2966183" lon="-1.113135"><ele>112.0</ele><time>2026-05-04T11:20:38.792Z</time></trkpt><trkpt lat="52.29638" lon="-1.112895"><ele>112.0</ele><time>2026-05-04T11:20:39.791Z</time></trkpt><trkpt lat="52.29614" lon="-1.1126617"><ele>112.0</ele><time>2026-05-04T11:20:40.791Z</time></trkpt><trkpt lat="52.295895" lon="-1.112425"><ele>112.0</ele><time>2026-05-04T11:20:41.791Z</time></trkpt><trkpt lat="52.2956567" lon="-1.11219"><ele>110.0</ele><time>2026-05-04T11:20:42.791Z</time></trkpt><trkpt lat="52.2954217" lon="-1.1119617"><ele>108.0</ele><time>2026-05-04T11:20:43.791Z</time></trkpt><trkpt lat="52.2951833" lon="-1.1117417"><ele>107.5</ele><time>2026-05-04T11:20:44.791Z</time></trkpt><trkpt lat="52.29495" lon="-1.1115233"><ele>107.0</ele><time>2026-05-04T11:20:45.792Z</time></trkpt><trkpt lat="52.2947267" lon="-1.1112983"><ele>107.0</ele><time>2026-05-04T11:20:46.79Z</time></trkpt><trkpt lat="52.294505" lon="-1.111075"><ele>107.0</ele><time>2026-05-04T11:20:47.793Z</time></trkpt><trkpt lat="52.2942767" lon="-1.110855"><ele>106.5</ele><time>2026-05-04T11:20:48.795Z</time></trkpt><trkpt lat="52.29405" lon="-1.1106367"><ele>106.0</ele><time>2026-05-04T11:20:49.791Z</time></trkpt><trkpt lat="52.2938233" lon="-1.110415"><ele>106.0</ele><time>2026-05-04T11:20:50.791Z</time></trkpt><trkpt lat="52.2935967" lon="-1.110195"><ele>106.0</ele><time>2026-05-04T11:20:51.792Z</time></trkpt><trkpt lat="52.2933683" lon="-1.1099717"><ele>105.0</ele><time>2026-05-04T11:20:52.793Z</time></trkpt><trkpt lat="52.29314" lon="-1.1097483"><ele>104.0</ele><time>2026-05-04T11:20:53.792Z</time></trkpt><trkpt lat="52.292915" lon="-1.109525"><ele>106.0</ele><time>2026-05-04T11:20:54.791Z</time></trkpt><trkpt lat="52.29269" lon="-1.109305"><ele>108.0</ele><time>2026-05-04T11:20:55.793Z</time></trkpt><trkpt lat="52.2924633" lon="-1.1090817"><ele>109.0</ele><time>2026-05-04T11:20:56.793Z</time></trkpt><trkpt lat="52.292235" lon="-1.1088633"><ele>110.0</ele><time>2026-05-04T11:20:57.795Z</time></trkpt><trkpt lat="52.2920067" lon="-1.108645"><ele>110.0</ele><time>2026-05-04T11:20:58.79Z</time></trkpt><trkpt lat="52.2917783" lon="-1.1084267"><ele>110.0</ele><time>2026-05-04T11:20:59.792Z</time></trkpt><trkpt lat="52.2915483" lon="-1.1082033"><ele>110.5</ele><time>2026-05-04T11:21:00.792Z</time></trkpt><trkpt lat="52.2913233" lon="-1.1079817"><ele>111.0</ele><time>2026-05-04T11:21:01.792Z</time></trkpt><trkpt lat="52.2910983" lon="-1.1077567"><ele>111.0</ele><time>2026-05-04T11:21:02.792Z</time></trkpt><trkpt lat="52.29087" lon="-1.1075317"><ele>111.0</ele><time>2026-05-04T11:21:03.792Z</time></trkpt><trkpt lat="52.2906417" lon="-1.1073083"><ele>110.0</ele><time>2026-05-04T11:21:04.791Z</time></trkpt><trkpt lat="52.2904117" lon="-1.1070867"><ele>109.0</ele><time>2026-05-04T11:21:05.791Z</time></trkpt><trkpt lat="52.2901833" lon="-1.1068683"><ele>109.0</ele><time>2026-05-04T11:21:06.793Z</time></trkpt><trkpt lat="52.2899533" lon="-1.1066517"><ele>109.0</ele><time>2026-05-04T11:21:07.793Z</time></trkpt><trkpt lat="52.2897317" lon="-1.106435"><ele>107.5</ele><time>2026-05-04T11:21:08.792Z</time></trkpt><trkpt lat="52.289505" lon="-1.1062183"><ele>106.0</ele><time>2026-05-04T11:21:09.793Z</time></trkpt><trkpt lat="52.2892767" lon="-1.1059967"><ele>106.0</ele><time>2026-05-04T11:21:10.791Z</time></trkpt><trkpt lat="52.2890483" lon="-1.1057767"><ele>106.0</ele><time>2026-05-04T11:21:11.796Z</time></trkpt><trkpt lat="52.288825" lon="-1.105555"><ele>105.0</ele><time>2026-05-04T11:21:12.792Z</time></trkpt><trkpt lat="52.2885967" lon="-1.1053367"><ele>104.0</ele><time>2026-05-04T11:21:13.794Z</time></trkpt><trkpt lat="52.28837" lon="-1.1051133"><ele>104.0</ele><time>2026-05-04T11:21:14.794Z</time></trkpt><trkpt lat="52.2881433" lon="-1.10489"><ele>104.0</ele><time>2026-05-04T11:21:15.791Z</time></trkpt><trkpt lat="52.287915" lon="-1.10467"><ele>104.0</ele><time>2026-05-04T11:21:16.794Z</time></trkpt><trkpt lat="52.2876867" lon="-1.1044567"><ele>104.0</ele><time>2026-05-04T11:21:17.79Z</time></trkpt><trkpt lat="52.2874567" lon="-1.1042533"><ele>104.0</ele><time>2026-05-04T11:21:18.794Z</time></trkpt><trkpt lat="52.287225" lon="-1.10404"><ele>104.0</ele><time>2026-05-04T11:21:19.793Z</time></trkpt><trkpt lat="52.2869883" lon="-1.10382"><ele>104.0</ele><time>2026-05-04T11:21:20.79Z</time></trkpt><trkpt lat="52.286755" lon="-1.1036"><ele>104.0</ele><time>2026-05-04T11:21:21.794Z</time></trkpt><trkpt lat="52.2865217" lon="-1.10338"><ele>104.0</ele><time>2026-05-04T11:21:22.792Z</time></trkpt><trkpt lat="52.286295" lon="-1.1031617"><ele>104.0</ele><time>2026-05-04T11:21:23.793Z</time></trkpt><trkpt lat="52.2860667" lon="-1.10294"><ele>104.0</ele><time>2026-05-04T11:21:24.793Z</time></trkpt><trkpt lat="52.285835" lon="-1.1027183"><ele>104.0</ele><time>2026-05-04T11:21:25.792Z</time></trkpt><trkpt lat="52.2856083" lon="-1.1024983"><ele>104.5</ele><time>2026-05-04T11:21:26.796Z</time></trkpt><trkpt lat="52.285385" lon="-1.102275"><ele>105.0</ele><time>2026-05-04T11:21:27.79Z</time></trkpt><trkpt lat="52.28516" lon="-1.1020567"><ele>105.0</ele><time>2026-05-04T11:21:28.795Z</time></trkpt><trkpt lat="52.2849317" lon="-1.1018367"><ele>105.0</ele><time>2026-05-04T11:21:29.792Z</time></trkpt><trkpt lat="52.2847033" lon="-1.1016133"><ele>105.5</ele><time>2026-05-04T11:21:30.792Z</time></trkpt><trkpt lat="52.284475" lon="-1.101395"><ele>106.0</ele><time>2026-05-04T11:21:31.791Z</time></trkpt><trkpt lat="52.284245" lon="-1.101175"><ele>106.0</ele><time>2026-05-04T11:21:32.791Z</time></trkpt><trkpt lat="52.2840167" lon="-1.100955"><ele>106.0</ele><time>2026-05-04T11:21:33.794Z</time></trkpt><trkpt lat="52.28379" lon="-1.10073"><ele>106.5</ele><time>2026-05-04T11:21:34.795Z</time></trkpt><trkpt lat="52.283565" lon="-1.1005033"><ele>107.0</ele><time>2026-05-04T11:21:35.792Z</time></trkpt><trkpt lat="52.2833383" lon="-1.1002833"><ele>107.0</ele><time>2026-05-04T11:21:36.795Z</time></trkpt><trkpt lat="52.28311" lon="-1.1000667"><ele>107.0</ele><time>2026-05-04T11:21:37.795Z</time></trkpt><trkpt lat="52.2828817" lon="-1.099845"><ele>106.5</ele><time>2026-05-04T11:21:38.792Z</time></trkpt><trkpt lat="52.282655" lon="-1.0996183"><ele>106.0</ele><time>2026-05-04T11:21:39.792Z</time></trkpt><trkpt lat="52.28243" lon="-1.0993883"><ele>106.0</ele><time>2026-05-04T11:21:40.792Z</time></trkpt><trkpt lat="52.2822067" lon="-1.0991617"><ele>106.0</ele><time>2026-05-04T11:21:41.795Z</time></trkpt><trkpt lat="52.2819817" lon="-1.0989417"><ele>105.5</ele><time>2026-05-04T11:21:42.792Z</time></trkpt><trkpt lat="52.281755" lon="-1.09872"><ele>105.0</ele><time>2026-05-04T11:21:43.792Z</time></trkpt><trkpt lat="52.2815283" lon="-1.0984983"><ele>104.0</ele><time>2026-05-04T11:21:44.795Z</time></trkpt><trkpt lat="52.2813017" lon="-1.098275"><ele>103.0</ele><time>2026-05-04T11:21:45.792Z</time></trkpt><trkpt lat="52.2810817" lon="-1.0980383"><ele>102.0</ele><time>2026-05-04T11:21:46.791Z</time></trkpt><trkpt lat="52.2808583" lon="-1.0978033"><ele>101.0</ele><time>2026-05-04T11:21:47.792Z</time></trkpt><trkpt lat="52.2806333" lon="-1.0975583"><ele>100.0</ele><time>2026-05-04T11:21:48.792Z</time></trkpt><trkpt lat="52.2804017" lon="-1.0973317"><ele>99.0</ele><time>2026-05-04T11:21:49.796Z</time></trkpt><trkpt lat="52.2801717" lon="-1.0971033"><ele>99.0</ele><time>2026-05-04T11:21:50.792Z</time></trkpt><trkpt lat="52.2799417" lon="-1.09688"><ele>99.0</ele><time>2026-05-04T11:21:51.793Z</time></trkpt><trkpt lat="52.279715" lon="-1.0966617"><ele>99.5</ele><time>2026-05-04T11:21:52.794Z</time></trkpt><trkpt lat="52.279485" lon="-1.096445"><ele>100.0</ele><time>2026-05-04T11:21:53.792Z</time></trkpt><trkpt lat="52.2792533" lon="-1.0962283"><ele>100.0</ele><time>2026-05-04T11:21:54.795Z</time></trkpt><trkpt lat="52.27902" lon="-1.0960133"><ele>100.0</ele><time>2026-05-04T11:21:55.791Z</time></trkpt><trkpt lat="52.27879" lon="-1.0957967"><ele>98.0</ele><time>2026-05-04T11:21:56.791Z</time></trkpt><trkpt lat="52.2785617" lon="-1.0955833"><ele>96.0</ele><time>2026-05-04T11:21:57.792Z</time></trkpt><trkpt lat="52.2783367" lon="-1.09537"><ele>96.0</ele><time>2026-05-04T11:21:58.795Z</time></trkpt><trkpt lat="52.2781083" lon="-1.0951617"><ele>96.0</ele><time>2026-05-04T11:21:59.793Z</time></trkpt><trkpt lat="52.2778667" lon="-1.094965"><ele>95.5</ele><time>2026-05-04T11:22:00.795Z</time></trkpt><trkpt lat="52.2776183" lon="-1.0947733"><ele>95.0</ele><time>2026-05-04T11:22:01.792Z</time></trkpt><trkpt lat="52.277375" lon="-1.09459"><ele>94.0</ele><time>2026-05-04T11:22:02.792Z</time></trkpt><trkpt lat="52.277135" lon="-1.0944133"><ele>93.0</ele><time>2026-05-04T11:22:03.792Z</time></trkpt><trkpt lat="52.276895" lon="-1.0942483"><ele>93.0</ele><time>2026-05-04T11:22:04.792Z</time></trkpt><trkpt lat="52.2766433" lon="-1.09409"><ele>93.0</ele><time>2026-05-04T11:22:05.792Z</time></trkpt><trkpt lat="52.27639" lon="-1.09394"><ele>93.0</ele><time>2026-05-04T11:22:06.792Z</time></trkpt><trkpt lat="52.2761417" lon="-1.0937917"><ele>93.0</ele><time>2026-05-04T11:22:07.792Z</time></trkpt><trkpt lat="52.2758883" lon="-1.093655"><ele>93.0</ele><time>2026-05-04T11:22:08.791Z</time></trkpt><trkpt lat="52.275635" lon="-1.09352"><ele>93.0</ele><time>2026-05-04T11:22:09.792Z</time></trkpt><trkpt lat="52.275385" lon="-1.09339"><ele>94.0</ele><time>2026-05-04T11:22:10.79Z</time></trkpt><trkpt lat="52.2751267" lon="-1.093275"><ele>95.0</ele><time>2026-05-04T11:22:11.793Z</time></trkpt><trkpt lat="52.2748733" lon="-1.0931633"><ele>97.0</ele><time>2026-05-04T11:22:12.792Z</time></trkpt><trkpt lat="52.2746133" lon="-1.093065"><ele>99.0</ele><time>2026-05-04T11:22:13.792Z</time></trkpt><trkpt lat="52.2743533" lon="-1.09298"><ele>99.0</ele><time>2026-05-04T11:22:14.792Z</time></trkpt><trkpt lat="52.2740917" lon="-1.09289"><ele>99.0</ele><time>2026-05-04T11:22:15.791Z</time></trkpt><trkpt lat="52.2738333" lon="-1.09282"><ele>97.5</ele><time>2026-05-04T11:22:16.791Z</time></trkpt><trkpt lat="52.2735717" lon="-1.0927617"><ele>96.0</ele><time>2026-05-04T11:22:17.791Z</time></trkpt><trkpt lat="52.2733067" lon="-1.09271"><ele>94.5</ele><time>2026-05-04T11:22:18.795Z</time></trkpt><trkpt lat="52.2730483" lon="-1.0926617"><ele>93.0</ele><time>2026-05-04T11:22:19.792Z</time></trkpt><trkpt lat="52.2727867" lon="-1.0926217"><ele>93.0</ele><time>2026-05-04T11:22:20.792Z</time></trkpt><trkpt lat="52.2725217" lon="-1.0925783"><ele>93.0</ele><time>2026-05-04T11:22:21.791Z</time></trkpt><trkpt lat="52.2722583" lon="-1.0925417"><ele>92.0</ele><time>2026-05-04T11:22:22.791Z</time></trkpt><trkpt lat="52.2719983" lon="-1.0925317"><ele>91.0</ele><time>2026-05-04T11:22:23.792Z</time></trkpt><trkpt lat="52.2717383" lon="-1.0925267"><ele>91.0</ele><time>2026-05-04T11:22:24.792Z</time></trkpt><trkpt lat="52.27148" lon="-1.09252"><ele>91.0</ele><time>2026-05-04T11:22:25.792Z</time></trkpt><trkpt lat="52.2712183" lon="-1.09251"><ele>91.0</ele><time>2026-05-04T11:22:26.791Z</time></trkpt><trkpt lat="52.270955" lon="-1.0925"><ele>91.0</ele><time>2026-05-04T11:22:27.793Z</time></trkpt><trkpt lat="52.270695" lon="-1.0924783"><ele>91.5</ele><time>2026-05-04T11:22:28.791Z</time></trkpt><trkpt lat="52.27043" lon="-1.0924567"><ele>92.0</ele><time>2026-05-04T11:22:29.792Z</time></trkpt><trkpt lat="52.2701617" lon="-1.0924317"><ele>92.0</ele><time>2026-05-04T11:22:30.792Z</time></trkpt><trkpt lat="52.26989" lon="-1.092405"><ele>92.0</ele><time>2026-05-04T11:22:31.792Z</time></trkpt><trkpt lat="52.2696217" lon="-1.092375"><ele>92.0</ele><time>2026-05-04T11:22:32.792Z</time></trkpt><trkpt lat="52.2693617" lon="-1.0923383"><ele>92.0</ele><time>2026-05-04T11:22:33.792Z</time></trkpt><trkpt lat="52.2690933" lon="-1.0922867"><ele>91.0</ele><time>2026-05-04T11:22:34.791Z</time></trkpt><trkpt lat="52.268825" lon="-1.0922233"><ele>90.0</ele><time>2026-05-04T11:22:35.791Z</time></trkpt><trkpt lat="52.2685633" lon="-1.0921583"><ele>90.0</ele><time>2026-05-04T11:22:36.792Z</time></trkpt><trkpt lat="52.2683083" lon="-1.0920883"><ele>90.0</ele><time>2026-05-04T11:22:37.792Z</time></trkpt><trkpt lat="52.2680483" lon="-1.0920133"><ele>89.5</ele><time>2026-05-04T11:22:38.791Z</time></trkpt><trkpt lat="52.267785" lon="-1.0919233"><ele>89.0</ele><time>2026-05-04T11:22:39.791Z</time></trkpt><trkpt lat="52.2675233" lon="-1.0918267"><ele>89.5</ele><time>2026-05-04T11:22:40.796Z</time></trkpt><trkpt lat="52.26727" lon="-1.091725"><ele>90.0</ele><time>2026-05-04T11:22:41.796Z</time></trkpt><trkpt lat="52.267015" lon="-1.0916167"><ele>90.0</ele><time>2026-05-04T11:22:42.794Z</time></trkpt><trkpt lat="52.2667667" lon="-1.091495"><ele>90.0</ele><time>2026-05-04T11:22:43.795Z</time></trkpt><trkpt lat="52.266515" lon="-1.0913683"><ele>89.5</ele><time>2026-05-04T11:22:44.792Z</time></trkpt><trkpt lat="52.266265" lon="-1.0912367"><ele>89.0</ele><time>2026-05-04T11:22:45.792Z</time></trkpt><trkpt lat="52.2660133" lon="-1.0910983"><ele>89.0</ele><time>2026-05-04T11:22:46.79Z</time></trkpt><trkpt lat="52.2657617" lon="-1.0909567"><ele>89.0</ele><time>2026-05-04T11:22:47.793Z</time></trkpt><trkpt lat="52.265515" lon="-1.0908083"><ele>89.0</ele><time>2026-05-04T11:22:48.791Z</time></trkpt><trkpt lat="52.2652683" lon="-1.0906533"><ele>89.0</ele><time>2026-05-04T11:22:49.79Z</time></trkpt><trkpt lat="52.265025" lon="-1.0904867"><ele>89.0</ele><time>2026-05-04T11:22:50.791Z</time></trkpt><trkpt lat="52.26478" lon="-1.0903133"><ele>89.0</ele><time>2026-05-04T11:22:51.791Z</time></trkpt><trkpt lat="52.2645367" lon="-1.090135"><ele>89.5</ele><time>2026-05-04T11:22:52.793Z</time></trkpt><trkpt lat="52.2642967" lon="-1.0899517"><ele>90.0</ele><time>2026-05-04T11:22:53.791Z</time></trkpt><trkpt lat="52.2640567" lon="-1.0897533"><ele>91.0</ele><time>2026-05-04T11:22:54.795Z</time></trkpt><trkpt lat="52.2638233" lon="-1.0895533"><ele>92.0</ele><time>2026-05-04T11:22:55.792Z</time></trkpt><trkpt lat="52.263585" lon="-1.08935"><ele>92.0</ele><time>2026-05-04T11:22:56.791Z</time></trkpt><trkpt lat="52.2633517" lon="-1.0891383"><ele>92.0</ele><time>2026-05-04T11:22:57.792Z</time></trkpt><trkpt lat="52.2631267" lon="-1.0889217"><ele>91.0</ele><time>2026-05-04T11:22:58.791Z</time></trkpt><trkpt lat="52.2629017" lon="-1.08871"><ele>90.0</ele><time>2026-05-04T11:22:59.79Z</time></trkpt><trkpt lat="52.262675" lon="-1.08848"><ele>90.0</ele><time>2026-05-04T11:23:00.792Z</time></trkpt><trkpt lat="52.262445" lon="-1.08824"><ele>90.0</ele><time>2026-05-04T11:23:01.792Z</time></trkpt><trkpt lat="52.2622217" lon="-1.088"><ele>89.5</ele><time>2026-05-04T11:23:02.791Z</time></trkpt><trkpt lat="52.2619967" lon="-1.087755"><ele>89.0</ele><time>2026-05-04T11:23:03.791Z</time></trkpt><trkpt lat="52.2617817" lon="-1.0875017"><ele>89.0</ele><time>2026-05-04T11:23:04.792Z</time></trkpt><trkpt lat="52.26157" lon="-1.0872433"><ele>89.0</ele><time>2026-05-04T11:23:05.791Z</time></trkpt><trkpt lat="52.2613617" lon="-1.0869767"><ele>89.0</ele><time>2026-05-04T11:23:06.792Z</time></trkpt><trkpt lat="52.2611517" lon="-1.0867067"><ele>89.0</ele><time>2026-05-04T11:23:07.792Z</time></trkpt><trkpt lat="52.2609433" lon="-1.086435"><ele>89.0</ele><time>2026-05-04T11:23:08.791Z</time></trkpt><trkpt lat="52.2607383" lon="-1.0861667"><ele>89.0</ele><time>2026-05-04T11:23:09.792Z</time></trkpt><trkpt lat="52.2605283" lon="-1.085895"><ele>90.0</ele><time>2026-05-04T11:23:10.792Z</time></trkpt><trkpt lat="52.2603233" lon="-1.085625"><ele>91.0</ele><time>2026-05-04T11:23:11.792Z</time></trkpt><trkpt lat="52.2601183" lon="-1.0853517"><ele>91.0</ele><time>2026-05-04T11:23:12.793Z</time></trkpt><trkpt lat="52.259915" lon="-1.0850733"><ele>91.0</ele><time>2026-05-04T11:23:13.791Z</time></trkpt><trkpt lat="52.2597117" lon="-1.0847967"><ele>91.5</ele><time>2026-05-04T11:23:14.791Z</time></trkpt><trkpt lat="52.2595083" lon="-1.084515"><ele>92.0</ele><time>2026-05-04T11:23:15.792Z</time></trkpt><trkpt lat="52.2593067" lon="-1.084235"><ele>92.5</ele><time>2026-05-04T11:23:16.792Z</time></trkpt><trkpt lat="52.259105" lon="-1.083945"><ele>93.0</ele><time>2026-05-04T11:23:17.793Z</time></trkpt><trkpt lat="52.2589083" lon="-1.08366"><ele>92.0</ele><time>2026-05-04T11:23:18.792Z</time></trkpt><trkpt lat="52.2587117" lon="-1.0833767"><ele>91.0</ele><time>2026-05-04T11:23:19.791Z</time></trkpt><trkpt lat="52.2585183" lon="-1.0830933"><ele>91.0</ele><time>2026-05-04T11:23:20.792Z</time></trkpt><trkpt lat="52.2538183" lon="-1.0757017"><ele>91.0</ele><time>2026-05-04T11:23:45.792Z</time></trkpt><trkpt lat="52.2534217" lon="-1.0750083"><ele>92.0</ele><time>2026-05-04T11:23:47.795Z</time></trkpt><trkpt lat="52.253045" lon="-1.0743683"><ele>91.5</ele><time>2026-05-04T11:23:49.79Z</time></trkpt><trkpt lat="52.2528583" lon="-1.0740483"><ele>91.0</ele><time>2026-05-04T11:23:50.79Z</time></trkpt><trkpt lat="52.2526817" lon="-1.07373"><ele>91.0</ele><time>2026-05-04T11:23:51.792Z</time></trkpt><trkpt lat="52.2525033" lon="-1.0734117"><ele>91.0</ele><time>2026-05-04T11:23:52.792Z</time></trkpt><trkpt lat="52.2523233" lon="-1.073095"><ele>89.0</ele><time>2026-05-04T11:23:53.793Z</time></trkpt><trkpt lat="52.252145" lon="-1.0727783"><ele>87.0</ele><time>2026-05-04T11:23:54.792Z</time></trkpt><trkpt lat="52.2519567" lon="-1.0724633"><ele>87.5</ele><time>2026-05-04T11:23:55.791Z</time></trkpt><trkpt lat="52.251775" lon="-1.072145"><ele>88.0</ele><time>2026-05-04T11:23:56.791Z</time></trkpt><trkpt lat="52.2515933" lon="-1.0718233"><ele>87.5</ele><time>2026-05-04T11:23:57.795Z</time></trkpt><trkpt lat="52.2514133" lon="-1.0715017"><ele>87.0</ele><time>2026-05-04T11:23:58.792Z</time></trkpt><trkpt lat="52.2512367" lon="-1.0711783"><ele>87.0</ele><time>2026-05-04T11:23:59.792Z</time></trkpt><trkpt lat="52.2510617" lon="-1.070855"><ele>87.0</ele><time>2026-05-04T11:24:00.791Z</time></trkpt><trkpt lat="52.2507133" lon="-1.0702067"><ele>88.5</ele><time>2026-05-04T11:24:02.792Z</time></trkpt><trkpt lat="52.250545" lon="-1.0698817"><ele>90.0</ele><time>2026-05-04T11:24:03.792Z</time></trkpt><trkpt lat="52.2503783" lon="-1.0695567"><ele>90.0</ele><time>2026-05-04T11:24:04.792Z</time></trkpt><trkpt lat="52.2502117" lon="-1.0692333"><ele>90.0</ele><time>2026-05-04T11:24:05.792Z</time></trkpt><trkpt lat="52.2500467" lon="-1.0689083"><ele>95.0</ele><time>2026-05-04T11:24:06.792Z</time></trkpt><trkpt lat="52.24972" lon="-1.0682533"><ele>95.0</ele><time>2026-05-04T11:24:08.795Z</time></trkpt><trkpt lat="52.2495583" lon="-1.0679233"><ele>95.0</ele><time>2026-05-04T11:24:09.793Z</time></trkpt><trkpt lat="52.249395" lon="-1.0675967"><ele>95.0</ele><time>2026-05-04T11:24:10.791Z</time></trkpt><trkpt lat="52.249235" lon="-1.0672667"><ele>95.0</ele><time>2026-05-04T11:24:11.791Z</time></trkpt><trkpt lat="52.2490733" lon="-1.0669367"><ele>96.5</ele><time>2026-05-04T11:24:12.795Z</time></trkpt><trkpt lat="52.2489117" lon="-1.0666083"><ele>98.0</ele><time>2026-05-04T11:24:13.792Z</time></trkpt><trkpt lat="52.2487517" lon="-1.0662783"><ele>98.0</ele><time>2026-05-04T11:24:14.791Z</time></trkpt><trkpt lat="52.248595" lon="-1.0659433"><ele>98.0</ele><time>2026-05-04T11:24:15.792Z</time></trkpt><trkpt lat="52.248435" lon="-1.0656083"><ele>98.0</ele><time>2026-05-04T11:24:16.794Z</time></trkpt><trkpt lat="52.2482767" lon="-1.0652733"><ele>98.0</ele><time>2026-05-04T11:24:17.79Z</time></trkpt><trkpt lat="52.2481183" lon="-1.0649367"><ele>100.0</ele><time>2026-05-04T11:24:18.792Z</time></trkpt><trkpt lat="52.2479617" lon="-1.0646"><ele>102.0</ele><time>2026-05-04T11:24:19.795Z</time></trkpt><trkpt lat="52.247805" lon="-1.0642633"><ele>101.5</ele><time>2026-05-04T11:24:20.792Z</time></trkpt><trkpt lat="52.2476483" lon="-1.063925"><ele>101.0</ele><time>2026-05-04T11:24:21.791Z</time></trkpt><trkpt lat="52.2474917" lon="-1.063585"><ele>101.0</ele><time>2026-05-04T11:24:22.791Z</time></trkpt><trkpt lat="52.2473367" lon="-1.063245"><ele>101.0</ele><time>2026-05-04T11:24:23.79Z</time></trkpt><trkpt lat="52.2471817" lon="-1.0629033"><ele>101.0</ele><time>2026-05-04T11:24:24.792Z</time></trkpt><trkpt lat="52.247025" lon="-1.062565"><ele>101.0</ele><time>2026-05-04T11:24:25.792Z</time></trkpt><trkpt lat="52.2468683" lon="-1.0622283"><ele>101.0</ele><time>2026-05-04T11:24:26.79Z</time></trkpt><trkpt lat="52.2467083" lon="-1.06189"><ele>101.0</ele><time>2026-05-04T11:24:27.791Z</time></trkpt><trkpt lat="52.2465517" lon="-1.0615517"><ele>101.0</ele><time>2026-05-04T11:24:28.791Z</time></trkpt><trkpt lat="52.2463967" lon="-1.06121"><ele>101.0</ele><time>2026-05-04T11:24:29.795Z</time></trkpt><trkpt lat="52.2462417" lon="-1.0608717"><ele>101.0</ele><time>2026-05-04T11:24:30.793Z</time></trkpt><trkpt lat="52.245935" lon="-1.06019"><ele>101.0</ele><time>2026-05-04T11:24:32.79Z</time></trkpt><trkpt lat="52.2457817" lon="-1.0598483"><ele>101.0</ele><time>2026-05-04T11:24:33.795Z</time></trkpt><trkpt lat="52.2456283" lon="-1.05951"><ele>101.0</ele><time>2026-05-04T11:24:34.791Z</time></trkpt><trkpt lat="52.24547" lon="-1.0591733"><ele>101.0</ele><time>2026-05-04T11:24:35.791Z</time></trkpt><trkpt lat="52.2453117" lon="-1.0588317"><ele>99.0</ele><time>2026-05-04T11:24:36.792Z</time></trkpt><trkpt lat="52.2449917" lon="-1.0581533"><ele>99.0</ele><time>2026-05-04T11:24:38.79Z</time></trkpt><trkpt lat="52.24483" lon="-1.0578133"><ele>99.0</ele><time>2026-05-04T11:24:39.792Z</time></trkpt><trkpt lat="52.24467" lon="-1.0574767"><ele>98.5</ele><time>2026-05-04T11:24:40.794Z</time></trkpt><trkpt lat="52.2445117" lon="-1.0571417"><ele>98.0</ele><time>2026-05-04T11:24:41.791Z</time></trkpt><trkpt lat="52.2443567" lon="-1.0568033"><ele>99.0</ele><time>2026-05-04T11:24:42.792Z</time></trkpt><trkpt lat="52.24405" lon="-1.0561217"><ele>99.0</ele><time>2026-05-04T11:24:44.791Z</time></trkpt><trkpt lat="52.2437333" lon="-1.0554467"><ele>99.0</ele><time>2026-05-04T11:24:46.791Z</time></trkpt><trkpt lat="52.24358" lon="-1.055105"><ele>99.0</ele><time>2026-05-04T11:24:47.795Z</time></trkpt><trkpt lat="52.2434267" lon="-1.0547617"><ele>99.0</ele><time>2026-05-04T11:24:48.794Z</time></trkpt><trkpt lat="52.243275" lon="-1.0544167"><ele>99.0</ele><time>2026-05-04T11:24:49.791Z</time></trkpt><trkpt lat="52.24312" lon="-1.0540733"><ele>99.0</ele><time>2026-05-04T11:24:50.791Z</time></trkpt><trkpt lat="52.2429633" lon="-1.0537333"><ele>99.0</ele><time>2026-05-04T11:24:51.791Z</time></trkpt><trkpt lat="52.2428083" lon="-1.0533933"><ele>99.0</ele><time>2026-05-04T11:24:52.792Z</time></trkpt><trkpt lat="52.2426517" lon="-1.0530567"><ele>99.0</ele><time>2026-05-04T11:24:53.795Z</time></trkpt><trkpt lat="52.242495" lon="-1.0527167"><ele>99.0</ele><time>2026-05-04T11:24:54.796Z</time></trkpt><trkpt lat="52.2423367" lon="-1.0523783"><ele>99.0</ele><time>2026-05-04T11:24:55.791Z</time></trkpt><trkpt lat="52.24218" lon="-1.05204"><ele>99.0</ele><time>2026-05-04T11:24:56.795Z</time></trkpt><trkpt lat="52.2420217" lon="-1.0517033"><ele>99.0</ele><time>2026-05-04T11:24:57.793Z</time></trkpt><trkpt lat="52.241865" lon="-1.051365"><ele>98.5</ele><time>2026-05-04T11:24:58.791Z</time></trkpt><trkpt lat="52.2417117" lon="-1.0510233"><ele>98.0</ele><time>2026-05-04T11:24:59.794Z</time></trkpt><trkpt lat="52.241555" lon="-1.0506783"><ele>99.0</ele><time>2026-05-04T11:25:00.794Z</time></trkpt><trkpt lat="52.2414" lon="-1.050335"><ele>100.0</ele><time>2026-05-04T11:25:01.79Z</time></trkpt><trkpt lat="52.241245" lon="-1.049995"><ele>99.5</ele><time>2026-05-04T11:25:02.791Z</time></trkpt><trkpt lat="52.24109" lon="-1.049655"><ele>99.0</ele><time>2026-05-04T11:25:03.792Z</time></trkpt><trkpt lat="52.2409333" lon="-1.04932"><ele>99.0</ele><time>2026-05-04T11:25:04.791Z</time></trkpt><trkpt lat="52.2407767" lon="-1.0489833"><ele>99.0</ele><time>2026-05-04T11:25:05.79Z</time></trkpt><trkpt lat="52.2404583" lon="-1.048305"><ele>97.0</ele><time>2026-05-04T11:25:07.795Z</time></trkpt><trkpt lat="52.2401467" lon="-1.0476233"><ele>97.0</ele><time>2026-05-04T11:25:09.796Z</time></trkpt><trkpt lat="52.239845" lon="-1.0469367"><ele>94.5</ele><time>2026-05-04T11:25:11.792Z</time></trkpt><trkpt lat="52.2396933" lon="-1.0465933"><ele>92.0</ele><time>2026-05-04T11:25:12.798Z</time></trkpt><trkpt lat="52.2393933" lon="-1.0459"><ele>91.5</ele><time>2026-05-04T11:25:14.795Z</time></trkpt><trkpt lat="52.2392417" lon="-1.04555"><ele>91.0</ele><time>2026-05-04T11:25:15.796Z</time></trkpt><trkpt lat="52.23909" lon="-1.0452017"><ele>90.0</ele><time>2026-05-04T11:25:16.792Z</time></trkpt><trkpt lat="52.2389417" lon="-1.0448567"><ele>89.0</ele><time>2026-05-04T11:25:17.791Z</time></trkpt><trkpt lat="52.238795" lon="-1.04451"><ele>89.0</ele><time>2026-05-04T11:25:18.793Z</time></trkpt><trkpt lat="52.23865" lon="-1.0441617"><ele>89.0</ele><time>2026-05-04T11:25:19.792Z</time></trkpt><trkpt lat="52.2385083" lon="-1.0438117"><ele>89.0</ele><time>2026-05-04T11:25:20.792Z</time></trkpt><trkpt lat="52.238365" lon="-1.0434583"><ele>89.0</ele><time>2026-05-04T11:25:21.795Z</time></trkpt><trkpt lat="52.23822" lon="-1.0431083"><ele>88.0</ele><time>2026-05-04T11:25:22.79Z</time></trkpt><trkpt lat="52.2380767" lon="-1.0427567"><ele>87.0</ele><time>2026-05-04T11:25:23.796Z</time></trkpt><trkpt lat="52.237935" lon="-1.0424033"><ele>87.0</ele><time>2026-05-04T11:25:24.794Z</time></trkpt><trkpt lat="52.2377933" lon="-1.0420483"><ele>87.0</ele><time>2026-05-04T11:25:25.794Z</time></trkpt><trkpt lat="52.23765" lon="-1.0416917"><ele>87.0</ele><time>2026-05-04T11:25:26.791Z</time></trkpt><trkpt lat="52.2375083" lon="-1.0413367"><ele>87.0</ele><time>2026-05-04T11:25:27.791Z</time></trkpt><trkpt lat="52.237225" lon="-1.0406183"><ele>86.5</ele><time>2026-05-04T11:25:29.795Z</time></trkpt><trkpt lat="52.2370867" lon="-1.0402583"><ele>86.0</ele><time>2026-05-04T11:25:30.795Z</time></trkpt><trkpt lat="52.23695" lon="-1.0398917"><ele>89.0</ele><time>2026-05-04T11:25:31.795Z</time></trkpt><trkpt lat="52.2356417" lon="-1.0358433"><ele>91.0</ele><time>2026-05-04T11:25:42.79Z</time></trkpt><trkpt lat="52.23537" lon="-1.03512"><ele>91.5</ele><time>2026-05-04T11:25:44.791Z</time></trkpt><trkpt lat="52.2352467" lon="-1.0347533"><ele>92.0</ele><time>2026-05-04T11:25:45.791Z</time></trkpt><trkpt lat="52.235125" lon="-1.0343733"><ele>92.0</ele><time>2026-05-04T11:25:46.791Z</time></trkpt><trkpt lat="52.2350067" lon="-1.0339967"><ele>92.0</ele><time>2026-05-04T11:25:47.792Z</time></trkpt><trkpt lat="52.23489" lon="-1.0336233"><ele>91.5</ele><time>2026-05-04T11:25:48.793Z</time></trkpt><trkpt lat="52.2347783" lon="-1.03325"><ele>91.0</ele><time>2026-05-04T11:25:49.792Z</time></trkpt><trkpt lat="52.2346667" lon="-1.0328817"><ele>91.0</ele><time>2026-05-04T11:25:50.791Z</time></trkpt><trkpt lat="52.234545" lon="-1.0325183"><ele>91.0</ele><time>2026-05-04T11:25:51.791Z</time></trkpt><trkpt lat="52.23442" lon="-1.032155"><ele>90.0</ele><time>2026-05-04T11:25:52.791Z</time></trkpt><trkpt lat="52.2343017" lon="-1.031785"><ele>89.0</ele><time>2026-05-04T11:25:53.793Z</time></trkpt><trkpt lat="52.234185" lon="-1.0314167"><ele>88.5</ele><time>2026-05-04T11:25:54.792Z</time></trkpt><trkpt lat="52.23407" lon="-1.0310433"><ele>88.0</ele><time>2026-05-04T11:25:55.793Z</time></trkpt><trkpt lat="52.2339617" lon="-1.0306733"><ele>88.0</ele><time>2026-05-04T11:25:56.791Z</time></trkpt><trkpt lat="52.23385" lon="-1.0303017"><ele>88.0</ele><time>2026-05-04T11:25:57.792Z</time></trkpt><trkpt lat="52.2337367" lon="-1.0299317"><ele>88.5</ele><time>2026-05-04T11:25:58.792Z</time></trkpt><trkpt lat="52.2336283" lon="-1.0295583"><ele>89.0</ele><time>2026-05-04T11:25:59.792Z</time></trkpt><trkpt lat="52.2335217" lon="-1.0291717"><ele>89.0</ele><time>2026-05-04T11:26:00.792Z</time></trkpt><trkpt lat="52.2334233" lon="-1.028765"><ele>89.0</ele><time>2026-05-04T11:26:01.792Z</time></trkpt><trkpt lat="52.2333217" lon="-1.0283533"><ele>89.0</ele><time>2026-05-04T11:26:02.791Z</time></trkpt><trkpt lat="52.2332183" lon="-1.027945"><ele>89.0</ele><time>2026-05-04T11:26:03.793Z</time></trkpt><trkpt lat="52.2331067" lon="-1.02755"><ele>89.5</ele><time>2026-05-04T11:26:04.793Z</time></trkpt><trkpt lat="52.233" lon="-1.02716"><ele>90.0</ele><time>2026-05-04T11:26:05.793Z</time></trkpt><trkpt lat="52.232895" lon="-1.02677"><ele>89.5</ele><time>2026-05-04T11:26:06.792Z</time></trkpt><trkpt lat="52.2327917" lon="-1.026375"><ele>89.0</ele><time>2026-05-04T11:26:07.792Z</time></trkpt><trkpt lat="52.232695" lon="-1.0259817"><ele>88.0</ele><time>2026-05-04T11:26:08.793Z</time></trkpt><trkpt lat="52.2325983" lon="-1.0255867"><ele>87.0</ele><time>2026-05-04T11:26:09.791Z</time></trkpt><trkpt lat="52.2325" lon="-1.0251933"><ele>86.0</ele><time>2026-05-04T11:26:10.792Z</time></trkpt><trkpt lat="52.2324" lon="-1.0248017"><ele>85.0</ele><time>2026-05-04T11:26:11.793Z</time></trkpt><trkpt lat="52.2323117" lon="-1.0244067"><ele>85.0</ele><time>2026-05-04T11:26:12.792Z</time></trkpt><trkpt lat="52.2322217" lon="-1.0240133"><ele>85.0</ele><time>2026-05-04T11:26:13.792Z</time></trkpt><trkpt lat="52.23212" lon="-1.0236083"><ele>84.5</ele><time>2026-05-04T11:26:14.791Z</time></trkpt><trkpt lat="52.2320283" lon="-1.0232117"><ele>84.0</ele><time>2026-05-04T11:26:15.791Z</time></trkpt><trkpt lat="52.2319383" lon="-1.0228167"><ele>83.0</ele><time>2026-05-04T11:26:16.793Z</time></trkpt><trkpt lat="52.2318383" lon="-1.022415"><ele>82.0</ele><time>2026-05-04T11:26:17.792Z</time></trkpt><trkpt lat="52.23173" lon="-1.0219967"><ele>81.5</ele><time>2026-05-04T11:26:18.792Z</time></trkpt><trkpt lat="52.2316333" lon="-1.021595"><ele>81.0</ele><time>2026-05-04T11:26:19.791Z</time></trkpt><trkpt lat="52.2315367" lon="-1.0211933"><ele>80.0</ele><time>2026-05-04T11:26:20.794Z</time></trkpt><trkpt lat="52.23145" lon="-1.020795"><ele>79.0</ele><time>2026-05-04T11:26:21.791Z</time></trkpt><trkpt lat="52.2313633" lon="-1.0204017"><ele>79.0</ele><time>2026-05-04T11:26:22.791Z</time></trkpt><trkpt lat="52.2312683" lon="-1.0200067"><ele>79.0</ele><time>2026-05-04T11:26:23.791Z</time></trkpt><trkpt lat="52.23118" lon="-1.0196133"><ele>78.0</ele><time>2026-05-04T11:26:24.793Z</time></trkpt><trkpt lat="52.2310917" lon="-1.019215"><ele>77.0</ele><time>2026-05-04T11:26:25.793Z</time></trkpt><trkpt lat="52.231005" lon="-1.0188133"><ele>77.0</ele><time>2026-05-04T11:26:26.792Z</time></trkpt><trkpt lat="52.2309183" lon="-1.01841"><ele>77.0</ele><time>2026-05-04T11:26:27.793Z</time></trkpt><trkpt lat="52.2308267" lon="-1.0180033"><ele>78.0</ele><time>2026-05-04T11:26:28.792Z</time></trkpt><trkpt lat="52.2307367" lon="-1.0175967"><ele>79.0</ele><time>2026-05-04T11:26:29.791Z</time></trkpt><trkpt lat="52.2306483" lon="-1.0171883"><ele>79.0</ele><time>2026-05-04T11:26:30.79Z</time></trkpt><trkpt lat="52.2305567" lon="-1.0167767"><ele>79.0</ele><time>2026-05-04T11:26:31.792Z</time></trkpt><trkpt lat="52.230465" lon="-1.0163733"><ele>79.0</ele><time>2026-05-04T11:26:32.793Z</time></trkpt><trkpt lat="52.2303767" lon="-1.0159817"><ele>79.0</ele><time>2026-05-04T11:26:33.793Z</time></trkpt><trkpt lat="52.2302917" lon="-1.0156033"><ele>78.5</ele><time>2026-05-04T11:26:34.792Z</time></trkpt><trkpt lat="52.23021" lon="-1.015225"><ele>78.0</ele><time>2026-05-04T11:26:35.792Z</time></trkpt><trkpt lat="52.23013" lon="-1.0148433"><ele>78.0</ele><time>2026-05-04T11:26:36.793Z</time></trkpt><trkpt lat="52.2300483" lon="-1.0144533"><ele>78.0</ele><time>2026-05-04T11:26:37.793Z</time></trkpt><trkpt lat="52.2299583" lon="-1.01406"><ele>77.0</ele><time>2026-05-04T11:26:38.791Z</time></trkpt><trkpt lat="52.22987" lon="-1.0136617"><ele>76.0</ele><time>2026-05-04T11:26:39.792Z</time></trkpt><trkpt lat="52.2297783" lon="-1.01326"><ele>74.5</ele><time>2026-05-04T11:26:40.793Z</time></trkpt><trkpt lat="52.2296867" lon="-1.0128567"><ele>73.0</ele><time>2026-05-04T11:26:41.792Z</time></trkpt><trkpt lat="52.2295933" lon="-1.01245"><ele>73.0</ele><time>2026-05-04T11:26:42.796Z</time></trkpt><trkpt lat="52.229505" lon="-1.01204"><ele>73.0</ele><time>2026-05-04T11:26:43.794Z</time></trkpt><trkpt lat="52.22942" lon="-1.0116283"><ele>73.0</ele><time>2026-05-04T11:26:44.795Z</time></trkpt><trkpt lat="52.2293317" lon="-1.0112183"><ele>73.0</ele><time>2026-05-04T11:26:45.794Z</time></trkpt><trkpt lat="52.2292467" lon="-1.0108133"><ele>73.0</ele><time>2026-05-04T11:26:46.794Z</time></trkpt><trkpt lat="52.2291567" lon="-1.0104067"><ele>73.0</ele><time>2026-05-04T11:26:47.796Z</time></trkpt><trkpt lat="52.2290667" lon="-1.0099967"><ele>73.0</ele><time>2026-05-04T11:26:48.795Z</time></trkpt><trkpt lat="52.2289783" lon="-1.0095867"><ele>73.0</ele><time>2026-05-04T11:26:49.795Z</time></trkpt><trkpt lat="52.2288933" lon="-1.009175"><ele>73.0</ele><time>2026-05-04T11:26:50.795Z</time></trkpt><trkpt lat="52.2288017" lon="-1.008765"><ele>73.0</ele><time>2026-05-04T11:26:51.792Z</time></trkpt><trkpt lat="52.2287133" lon="-1.008355"><ele>73.0</ele><time>2026-05-04T11:26:52.795Z</time></trkpt><trkpt lat="52.2286233" lon="-1.0079483"><ele>73.0</ele><time>2026-05-04T11:26:53.79Z</time></trkpt><trkpt lat="52.2285367" lon="-1.0075383"><ele>72.5</ele><time>2026-05-04T11:26:54.793Z</time></trkpt><trkpt lat="52.2284483" lon="-1.00713"><ele>72.0</ele><time>2026-05-04T11:26:55.791Z</time></trkpt><trkpt lat="52.2283617" lon="-1.0067217"><ele>71.5</ele><time>2026-05-04T11:26:56.792Z</time></trkpt><trkpt lat="52.2282733" lon="-1.0063117"><ele>71.0</ele><time>2026-05-04T11:26:57.792Z</time></trkpt><trkpt lat="52.228185" lon="-1.0059017"><ele>70.0</ele><time>2026-05-04T11:26:58.792Z</time></trkpt><trkpt lat="52.2281" lon="-1.0054933"><ele>69.0</ele><time>2026-05-04T11:26:59.795Z</time></trkpt><trkpt lat="52.228015" lon="-1.0050883"><ele>68.5</ele><time>2026-05-04T11:27:00.796Z</time></trkpt><trkpt lat="52.22793" lon="-1.00468"><ele>68.0</ele><time>2026-05-04T11:27:01.795Z</time></trkpt><trkpt lat="52.2278417" lon="-1.0042717"><ele>69.5</ele><time>2026-05-04T11:27:02.795Z</time></trkpt><trkpt lat="52.2277533" lon="-1.0038617"><ele>71.0</ele><time>2026-05-04T11:27:03.796Z</time></trkpt><trkpt lat="52.227665" lon="-1.0034533"><ele>72.5</ele><time>2026-05-04T11:27:04.795Z</time></trkpt><trkpt lat="52.2275733" lon="-1.003045"><ele>74.0</ele><time>2026-05-04T11:27:05.795Z</time></trkpt><trkpt lat="52.227485" lon="-1.00264"><ele>73.5</ele><time>2026-05-04T11:27:06.795Z</time></trkpt><trkpt lat="52.2274" lon="-1.0022367"><ele>73.0</ele><time>2026-05-04T11:27:07.795Z</time></trkpt><trkpt lat="52.2273117" lon="-1.0018283"><ele>72.0</ele><time>2026-05-04T11:27:08.794Z</time></trkpt><trkpt lat="52.2272267" lon="-1.0014167"><ele>71.0</ele><time>2026-05-04T11:27:09.795Z</time></trkpt><trkpt lat="52.2271383" lon="-1.0010083"><ele>71.0</ele><time>2026-05-04T11:27:10.794Z</time></trkpt><trkpt lat="52.22705" lon="-1.0006017"><ele>71.0</ele><time>2026-05-04T11:27:11.792Z</time></trkpt><trkpt lat="52.2269617" lon="-1.0001917"><ele>71.0</ele><time>2026-05-04T11:27:12.791Z</time></trkpt><trkpt lat="52.2268717" lon="-0.9997867"><ele>71.0</ele><time>2026-05-04T11:27:13.791Z</time></trkpt><trkpt lat="52.2267833" lon="-0.9993783"><ele>71.0</ele><time>2026-05-04T11:27:14.795Z</time></trkpt><trkpt lat="52.2266967" lon="-0.99897"><ele>71.0</ele><time>2026-05-04T11:27:15.795Z</time></trkpt><trkpt lat="52.2266117" lon="-0.99856"><ele>71.0</ele><time>2026-05-04T11:27:16.794Z</time></trkpt><trkpt lat="52.2265233" lon="-0.9981483"><ele>71.0</ele><time>2026-05-04T11:27:17.792Z</time></trkpt><trkpt lat="52.2264333" lon="-0.9977367"><ele>71.0</ele><time>2026-05-04T11:27:18.792Z</time></trkpt><trkpt lat="52.2263467" lon="-0.997325"><ele>71.0</ele><time>2026-05-04T11:27:19.792Z</time></trkpt><trkpt lat="52.2262583" lon="-0.996915"><ele>71.0</ele><time>2026-05-04T11:27:20.792Z</time></trkpt><trkpt lat="52.2261683" lon="-0.996505"><ele>71.0</ele><time>2026-05-04T11:27:21.792Z</time></trkpt><trkpt lat="52.2260767" lon="-0.996095"><ele>71.5</ele><time>2026-05-04T11:27:22.792Z</time></trkpt><trkpt lat="52.2259883" lon="-0.995685"><ele>72.0</ele><time>2026-05-04T11:27:23.792Z</time></trkpt><trkpt lat="52.2259017" lon="-0.995275"><ele>72.0</ele><time>2026-05-04T11:27:24.792Z</time></trkpt><trkpt lat="52.225815" lon="-0.9948633"><ele>72.0</ele><time>2026-05-04T11:27:25.792Z</time></trkpt><trkpt lat="52.225725" lon="-0.994455"><ele>71.5</ele><time>2026-05-04T11:27:26.793Z</time></trkpt><trkpt lat="52.2256367" lon="-0.994045"><ele>71.0</ele><time>2026-05-04T11:27:27.793Z</time></trkpt><trkpt lat="52.2255467" lon="-0.9936367"><ele>71.0</ele><time>2026-05-04T11:27:28.795Z</time></trkpt><trkpt lat="52.22546" lon="-0.99323"><ele>71.0</ele><time>2026-05-04T11:27:29.795Z</time></trkpt><trkpt lat="52.2253767" lon="-0.9928183"><ele>71.0</ele><time>2026-05-04T11:27:30.795Z</time></trkpt><trkpt lat="52.22529" lon="-0.9924067"><ele>71.0</ele><time>2026-05-04T11:27:31.794Z</time></trkpt><trkpt lat="52.2252017" lon="-0.9919983"><ele>71.5</ele><time>2026-05-04T11:27:32.791Z</time></trkpt><trkpt lat="52.225115" lon="-0.991595"><ele>72.0</ele><time>2026-05-04T11:27:33.795Z</time></trkpt><trkpt lat="52.22503" lon="-0.9911867"><ele>71.5</ele><time>2026-05-04T11:27:34.795Z</time></trkpt><trkpt lat="52.2249433" lon="-0.99078"><ele>71.0</ele><time>2026-05-04T11:27:35.797Z</time></trkpt><trkpt lat="52.2248517" lon="-0.99037"><ele>72.0</ele><time>2026-05-04T11:27:36.794Z</time></trkpt><trkpt lat="52.2247617" lon="-0.98996"><ele>73.0</ele><time>2026-05-04T11:27:37.795Z</time></trkpt><trkpt lat="52.2246683" lon="-0.9895483"><ele>73.0</ele><time>2026-05-04T11:27:38.795Z</time></trkpt><trkpt lat="52.22458" lon="-0.9891383"><ele>73.0</ele><time>2026-05-04T11:27:39.795Z</time></trkpt><trkpt lat="52.22449" lon="-0.9887267"><ele>73.0</ele><time>2026-05-04T11:27:40.794Z</time></trkpt><trkpt lat="52.224405" lon="-0.988315"><ele>73.0</ele><time>2026-05-04T11:27:41.794Z</time></trkpt><trkpt lat="52.22432" lon="-0.987905"><ele>73.5</ele><time>2026-05-04T11:27:42.794Z</time></trkpt><trkpt lat="52.22423" lon="-0.9874983"><ele>74.0</ele><time>2026-05-04T11:27:43.797Z</time></trkpt><trkpt lat="52.2241433" lon="-0.9870917"><ele>74.0</ele><time>2026-05-04T11:27:44.798Z</time></trkpt><trkpt lat="52.2240583" lon="-0.9866833"><ele>74.0</ele><time>2026-05-04T11:27:45.793Z</time></trkpt><trkpt lat="52.2239717" lon="-0.9862733"><ele>75.0</ele><time>2026-05-04T11:27:46.795Z</time></trkpt><trkpt lat="52.2238867" lon="-0.9858667"><ele>76.0</ele><time>2026-05-04T11:27:47.792Z</time></trkpt><trkpt lat="52.2237967" lon="-0.9854617"><ele>76.0</ele><time>2026-05-04T11:27:48.792Z</time></trkpt><trkpt lat="52.2237067" lon="-0.9850567"><ele>76.0</ele><time>2026-05-04T11:27:49.792Z</time></trkpt><trkpt lat="52.2236117" lon="-0.9846517"><ele>76.0</ele><time>2026-05-04T11:27:50.792Z</time></trkpt><trkpt lat="52.2235233" lon="-0.9842417"><ele>76.0</ele><time>2026-05-04T11:27:51.793Z</time></trkpt><trkpt lat="52.2234383" lon="-0.98383"><ele>76.0</ele><time>2026-05-04T11:27:52.793Z</time></trkpt><trkpt lat="52.2233517" lon="-0.9834183"><ele>76.0</ele><time>2026-05-04T11:27:53.793Z</time></trkpt><trkpt lat="52.2232633" lon="-0.9830083"><ele>76.0</ele><time>2026-05-04T11:27:54.792Z</time></trkpt><trkpt lat="52.2231733" lon="-0.9826"><ele>76.0</ele><time>2026-05-04T11:27:55.793Z</time></trkpt><trkpt lat="52.2230817" lon="-0.9821933"><ele>77.0</ele><time>2026-05-04T11:27:56.791Z</time></trkpt><trkpt lat="52.22299" lon="-0.98179"><ele>78.0</ele><time>2026-05-04T11:27:57.793Z</time></trkpt><trkpt lat="52.222895" lon="-0.9813833"><ele>78.0</ele><time>2026-05-04T11:27:58.795Z</time></trkpt><trkpt lat="52.2228" lon="-0.98098"><ele>78.0</ele><time>2026-05-04T11:27:59.793Z</time></trkpt><trkpt lat="52.2227017" lon="-0.9805783"><ele>78.0</ele><time>2026-05-04T11:28:00.795Z</time></trkpt><trkpt lat="52.222605" lon="-0.9801767"><ele>78.0</ele><time>2026-05-04T11:28:01.797Z</time></trkpt><trkpt lat="52.222505" lon="-0.9797733"><ele>78.0</ele><time>2026-05-04T11:28:02.795Z</time></trkpt><trkpt lat="52.2223983" lon="-0.979375"><ele>78.0</ele><time>2026-05-04T11:28:03.794Z</time></trkpt><trkpt lat="52.2222867" lon="-0.9789767"><ele>79.5</ele><time>2026-05-04T11:28:04.795Z</time></trkpt><trkpt lat="52.2221767" lon="-0.9785817"><ele>81.0</ele><time>2026-05-04T11:28:05.794Z</time></trkpt><trkpt lat="52.2220683" lon="-0.978185"><ele>81.0</ele><time>2026-05-04T11:28:06.791Z</time></trkpt><trkpt lat="52.2219583" lon="-0.97779"><ele>81.0</ele><time>2026-05-04T11:28:07.792Z</time></trkpt><trkpt lat="52.2218467" lon="-0.9773967"><ele>80.5</ele><time>2026-05-04T11:28:08.794Z</time></trkpt><trkpt lat="52.2217333" lon="-0.9770067"><ele>80.0</ele><time>2026-05-04T11:28:09.795Z</time></trkpt><trkpt lat="52.221615" lon="-0.9766167"><ele>80.0</ele><time>2026-05-04T11:28:10.793Z</time></trkpt><trkpt lat="52.2214967" lon="-0.9762283"><ele>80.0</ele><time>2026-05-04T11:28:11.795Z</time></trkpt><trkpt lat="52.22138" lon="-0.975845"><ele>81.0</ele><time>2026-05-04T11:28:12.791Z</time></trkpt><trkpt lat="52.2212617" lon="-0.9754583"><ele>82.0</ele><time>2026-05-04T11:28:13.795Z</time></trkpt><trkpt lat="52.221145" lon="-0.9750667"><ele>81.0</ele><time>2026-05-04T11:28:14.795Z</time></trkpt><trkpt lat="52.22103" lon="-0.9746767"><ele>80.0</ele><time>2026-05-04T11:28:15.795Z</time></trkpt><trkpt lat="52.2209117" lon="-0.9742867"><ele>79.0</ele><time>2026-05-04T11:28:16.792Z</time></trkpt><trkpt lat="52.2207917" lon="-0.9738983"><ele>78.0</ele><time>2026-05-04T11:28:17.793Z</time></trkpt><trkpt lat="52.2206733" lon="-0.97351"><ele>77.0</ele><time>2026-05-04T11:28:18.793Z</time></trkpt><trkpt lat="52.22055" lon="-0.973125"><ele>76.0</ele><time>2026-05-04T11:28:19.792Z</time></trkpt><trkpt lat="52.22042" lon="-0.9727467"><ele>76.0</ele><time>2026-05-04T11:28:20.792Z</time></trkpt><trkpt lat="52.22029" lon="-0.9723717"><ele>76.0</ele><time>2026-05-04T11:28:21.793Z</time></trkpt><trkpt lat="52.220155" lon="-0.9719983"><ele>75.5</ele><time>2026-05-04T11:28:22.792Z</time></trkpt><trkpt lat="52.2200217" lon="-0.9716267"><ele>75.0</ele><time>2026-05-04T11:28:23.792Z</time></trkpt><trkpt lat="52.2198883" lon="-0.9712533"><ele>74.5</ele><time>2026-05-04T11:28:24.793Z</time></trkpt><trkpt lat="52.21975" lon="-0.9708833"><ele>74.0</ele><time>2026-05-04T11:28:25.793Z</time></trkpt><trkpt lat="52.21961" lon="-0.9705133"><ele>74.0</ele><time>2026-05-04T11:28:26.794Z</time></trkpt><trkpt lat="52.2194717" lon="-0.97014"><ele>74.0</ele><time>2026-05-04T11:28:27.792Z</time></trkpt><trkpt lat="52.2193333" lon="-0.96976"><ele>74.5</ele><time>2026-05-04T11:28:28.791Z</time></trkpt><trkpt lat="52.2191917" lon="-0.9693833"><ele>75.0</ele><time>2026-05-04T11:28:29.792Z</time></trkpt><trkpt lat="52.2190483" lon="-0.969015"><ele>75.0</ele><time>2026-05-04T11:28:30.796Z</time></trkpt><trkpt lat="52.2189033" lon="-0.96865"><ele>75.0</ele><time>2026-05-04T11:28:31.793Z</time></trkpt><trkpt lat="52.218755" lon="-0.9682917"><ele>75.0</ele><time>2026-05-04T11:28:32.793Z</time></trkpt><trkpt lat="52.2186033" lon="-0.9679333"><ele>75.0</ele><time>2026-05-04T11:28:33.792Z</time></trkpt><trkpt lat="52.21845" lon="-0.9675717"><ele>75.0</ele><time>2026-05-04T11:28:34.793Z</time></trkpt><trkpt lat="52.2182983" lon="-0.96721"><ele>75.0</ele><time>2026-05-04T11:28:35.791Z</time></trkpt><trkpt lat="52.2181483" lon="-0.966855"><ele>74.0</ele><time>2026-05-04T11:28:36.792Z</time></trkpt><trkpt lat="52.2179983" lon="-0.9665033"><ele>73.0</ele><time>2026-05-04T11:28:37.796Z</time></trkpt><trkpt lat="52.21785" lon="-0.9661533"><ele>72.5</ele><time>2026-05-04T11:28:38.795Z</time></trkpt><trkpt lat="52.2176983" lon="-0.9658"><ele>72.0</ele><time>2026-05-04T11:28:39.791Z</time></trkpt><trkpt lat="52.2175483" lon="-0.965445"><ele>72.0</ele><time>2026-05-04T11:28:40.792Z</time></trkpt><trkpt lat="52.2173967" lon="-0.9650917"><ele>72.0</ele><time>2026-05-04T11:28:41.793Z</time></trkpt><trkpt lat="52.2172467" lon="-0.964735"><ele>72.5</ele><time>2026-05-04T11:28:42.792Z</time></trkpt><trkpt lat="52.2170883" lon="-0.9643733"><ele>73.0</ele><time>2026-05-04T11:28:43.794Z</time></trkpt><trkpt lat="52.2169317" lon="-0.9640217"><ele>73.0</ele><time>2026-05-04T11:28:44.792Z</time></trkpt><trkpt lat="52.216775" lon="-0.9636717"><ele>73.0</ele><time>2026-05-04T11:28:45.791Z</time></trkpt><trkpt lat="52.2166217" lon="-0.96332"><ele>72.0</ele><time>2026-05-04T11:28:46.794Z</time></trkpt><trkpt lat="52.2164717" lon="-0.9629683"><ele>71.0</ele><time>2026-05-04T11:28:47.793Z</time></trkpt><trkpt lat="52.2163267" lon="-0.962625"><ele>70.5</ele><time>2026-05-04T11:28:48.791Z</time></trkpt><trkpt lat="52.21619" lon="-0.9623033"><ele>70.0</ele><time>2026-05-04T11:28:49.792Z</time></trkpt><trkpt lat="52.2160617" lon="-0.961995"><ele>70.0</ele><time>2026-05-04T11:28:50.792Z</time></trkpt><trkpt lat="52.2159317" lon="-0.96169"><ele>70.0</ele><time>2026-05-04T11:28:51.791Z</time></trkpt><trkpt lat="52.2158033" lon="-0.9613867"><ele>70.0</ele><time>2026-05-04T11:28:52.797Z</time></trkpt><trkpt lat="52.215675" lon="-0.9610833"><ele>70.0</ele><time>2026-05-04T11:28:53.792Z</time></trkpt><trkpt lat="52.21555" lon="-0.9607867"><ele>70.0</ele><time>2026-05-04T11:28:54.792Z</time></trkpt><trkpt lat="52.2154283" lon="-0.9604967"><ele>70.33333333333333</ele><time>2026-05-04T11:28:55.8Z</time></trkpt><trkpt lat="52.21531" lon="-0.96022"><ele>70.66666666666667</ele><time>2026-05-04T11:28:56.793Z</time></trkpt><trkpt lat="52.215195" lon="-0.959955"><ele>71.0</ele><time>2026-05-04T11:28:57.792Z</time></trkpt><trkpt lat="52.2150883" lon="-0.9597"><ele>71.33333333333334</ele><time>2026-05-04T11:28:58.794Z</time></trkpt><trkpt lat="52.2149817" lon="-0.9594367"><ele>71.66666666666667</ele><time>2026-05-04T11:28:59.794Z</time></trkpt><trkpt lat="52.2148667" lon="-0.959165"><ele>72.0</ele><time>2026-05-04T11:29:00.792Z</time></trkpt><trkpt lat="52.2147517" lon="-0.95889"><ele>72.66666666666667</ele><time>2026-05-04T11:29:01.792Z</time></trkpt><trkpt lat="52.2146333" lon="-0.95861"><ele>73.33333333333334</ele><time>2026-05-04T11:29:02.79Z</time></trkpt><trkpt lat="52.2145167" lon="-0.9583317"><ele>74.0</ele><time>2026-05-04T11:29:03.792Z</time></trkpt><trkpt lat="52.2143983" lon="-0.9580567"><ele>74.0</ele><time>2026-05-04T11:29:04.792Z</time></trkpt><trkpt lat="52.21428" lon="-0.9577817"><ele>74.0</ele><time>2026-05-04T11:29:05.793Z</time></trkpt><trkpt lat="52.214165" lon="-0.9575167"><ele>74.0</ele><time>2026-05-04T11:29:06.794Z</time></trkpt><trkpt lat="52.214055" lon="-0.9572583"><ele>74.0</ele><time>2026-05-04T11:29:07.791Z</time></trkpt><trkpt lat="52.2139433" lon="-0.9569983"><ele>74.0</ele><time>2026-05-04T11:29:08.791Z</time></trkpt><trkpt lat="52.2138267" lon="-0.9567333"><ele>74.0</ele><time>2026-05-04T11:29:09.792Z</time></trkpt><trkpt lat="52.2137067" lon="-0.9564517"><ele>74.33333333333334</ele><time>2026-05-04T11:29:10.791Z</time></trkpt><trkpt lat="52.21359" lon="-0.9561667"><ele>74.66666666666667</ele><time>2026-05-04T11:29:11.791Z</time></trkpt><trkpt lat="52.2134717" lon="-0.9558833"><ele>75.0</ele><time>2026-05-04T11:29:12.792Z</time></trkpt><trkpt lat="52.2133583" lon="-0.955605"><ele>75.0</ele><time>2026-05-04T11:29:13.795Z</time></trkpt><trkpt lat="52.2132483" lon="-0.9553333"><ele>75.0</ele><time>2026-05-04T11:29:14.793Z</time></trkpt><trkpt lat="52.2131467" lon="-0.9550617"><ele>75.0</ele><time>2026-05-04T11:29:15.792Z</time></trkpt><trkpt lat="52.2130433" lon="-0.9547967"><ele>75.33333333333333</ele><time>2026-05-04T11:29:16.791Z</time></trkpt><trkpt lat="52.2129383" lon="-0.9545233"><ele>75.66666666666666</ele><time>2026-05-04T11:29:17.792Z</time></trkpt><trkpt lat="52.2128283" lon="-0.95424"><ele>76.0</ele><time>2026-05-04T11:29:18.793Z</time></trkpt><trkpt lat="52.2127167" lon="-0.9539483"><ele>76.0</ele><time>2026-05-04T11:29:19.792Z</time></trkpt><trkpt lat="52.21261" lon="-0.95366"><ele>76.0</ele><time>2026-05-04T11:29:20.792Z</time></trkpt><trkpt lat="52.2125067" lon="-0.95338"><ele>76.0</ele><time>2026-05-04T11:29:21.792Z</time></trkpt><trkpt lat="52.2124033" lon="-0.9530983"><ele>75.33333333333333</ele><time>2026-05-04T11:29:22.793Z</time></trkpt><trkpt lat="52.2123033" lon="-0.9528183"><ele>74.66666666666667</ele><time>2026-05-04T11:29:23.792Z</time></trkpt><trkpt lat="52.2122033" lon="-0.952535"><ele>74.0</ele><time>2026-05-04T11:29:24.792Z</time></trkpt><trkpt lat="52.2121083" lon="-0.9522433"><ele>74.0</ele><time>2026-05-04T11:29:25.794Z</time></trkpt><trkpt lat="52.212005" lon="-0.9519533"><ele>74.0</ele><time>2026-05-04T11:29:26.791Z</time></trkpt><trkpt lat="52.2119133" lon="-0.9516683"><ele>74.0</ele><time>2026-05-04T11:29:27.792Z</time></trkpt><trkpt lat="52.2118233" lon="-0.95139"><ele>74.0</ele><time>2026-05-04T11:29:28.793Z</time></trkpt><trkpt lat="52.2117283" lon="-0.9511167"><ele>74.0</ele><time>2026-05-04T11:29:29.792Z</time></trkpt><trkpt lat="52.21165" lon="-0.95083"><ele>74.0</ele><time>2026-05-04T11:29:30.791Z</time></trkpt><trkpt lat="52.21157" lon="-0.950535"><ele>74.0</ele><time>2026-05-04T11:29:31.791Z</time></trkpt><trkpt lat="52.21148" lon="-0.950235"><ele>74.0</ele><time>2026-05-04T11:29:32.793Z</time></trkpt><trkpt lat="52.2113917" lon="-0.9499383"><ele>74.0</ele><time>2026-05-04T11:29:33.792Z</time></trkpt><trkpt lat="52.21131" lon="-0.9496467"><ele>73.66666666666667</ele><time>2026-05-04T11:29:34.792Z</time></trkpt><trkpt lat="52.21123" lon="-0.949365"><ele>73.33333333333333</ele><time>2026-05-04T11:29:35.794Z</time></trkpt><trkpt lat="52.211155" lon="-0.9490883"><ele>73.0</ele><time>2026-05-04T11:29:36.795Z</time></trkpt><trkpt lat="52.2110783" lon="-0.94881"><ele>73.0</ele><time>2026-05-04T11:29:37.794Z</time></trkpt><trkpt lat="52.2110083" lon="-0.9485233"><ele>73.0</ele><time>2026-05-04T11:29:38.794Z</time></trkpt><trkpt lat="52.21095" lon="-0.9482267"><ele>73.0</ele><time>2026-05-04T11:29:39.795Z</time></trkpt><trkpt lat="52.210905" lon="-0.9479167"><ele>73.0</ele><time>2026-05-04T11:29:40.795Z</time></trkpt><trkpt lat="52.210875" lon="-0.9476033"><ele>73.0</ele><time>2026-05-04T11:29:41.795Z</time></trkpt><trkpt lat="52.2108567" lon="-0.9473"><ele>73.0</ele><time>2026-05-04T11:29:42.791Z</time></trkpt><trkpt lat="52.210845" lon="-0.9470067"><ele>72.66666666666666</ele><time>2026-05-04T11:29:43.794Z</time></trkpt><trkpt lat="52.2108383" lon="-0.94673"><ele>72.33333333333333</ele><time>2026-05-04T11:29:44.793Z</time></trkpt><trkpt lat="52.2108367" lon="-0.94647"><ele>72.0</ele><time>2026-05-04T11:29:45.796Z</time></trkpt><trkpt lat="52.21083" lon="-0.946215"><ele>71.66666666666667</ele><time>2026-05-04T11:29:46.793Z</time></trkpt><trkpt lat="52.2108083" lon="-0.9459633"><ele>71.33333333333334</ele><time>2026-05-04T11:29:47.791Z</time></trkpt><trkpt lat="52.210775" lon="-0.9457167"><ele>71.0</ele><time>2026-05-04T11:29:48.792Z</time></trkpt><trkpt lat="52.2107283" lon="-0.9454717"><ele>71.5</ele><time>2026-05-04T11:29:49.791Z</time></trkpt><trkpt lat="52.2106783" lon="-0.9452433"><ele>72.0</ele><time>2026-05-04T11:29:50.792Z</time></trkpt><trkpt lat="52.2106283" lon="-0.945045"><ele>72.5</ele><time>2026-05-04T11:29:51.792Z</time></trkpt><trkpt lat="52.210575" lon="-0.9448883"><ele>73.0</ele><time>2026-05-04T11:29:52.792Z</time></trkpt><trkpt lat="52.2105167" lon="-0.94477"><ele>73.33333333333333</ele><time>2026-05-04T11:29:53.792Z</time></trkpt><trkpt lat="52.2104533" lon="-0.94469"><ele>73.66666666666666</ele><time>2026-05-04T11:29:54.795Z</time></trkpt><trkpt lat="52.2103833" lon="-0.9446317"><ele>74.0</ele><time>2026-05-04T11:29:55.795Z</time></trkpt><trkpt lat="52.210325" lon="-0.944585"><ele>74.33333333333333</ele><time>2026-05-04T11:29:56.791Z</time></trkpt><trkpt lat="52.2102417" lon="-0.94451"><ele>74.66666666666667</ele><time>2026-05-04T11:29:58.792Z</time></trkpt><trkpt lat="52.2101783" lon="-0.9444667"><ele>75.0</ele><time>2026-05-04T11:30:00.791Z</time></trkpt><trkpt lat="52.2101033" lon="-0.9444133"><ele>74.99999999999999</ele><time>2026-05-04T11:30:03.791Z</time></trkpt><trkpt lat="52.21005" lon="-0.9443483"><ele>75.0</ele><time>2026-05-04T11:30:06.793Z</time></trkpt><trkpt lat="52.210115" lon="-0.94427"><ele>75.0</ele><time>2026-05-04T11:30:10.792Z</time></trkpt><trkpt lat="52.2101967" lon="-0.9443133"><ele>75.0</ele><time>2026-05-04T11:30:17.795Z</time></trkpt><trkpt lat="52.210265" lon="-0.9443683"><ele>75.0</ele><time>2026-05-04T11:30:20.792Z</time></trkpt><trkpt lat="52.2103233" lon="-0.9443233"><ele>74.99999999999999</ele><time>2026-05-04T11:30:23.793Z</time></trkpt><trkpt lat="52.2103183" lon="-0.9442083"><ele>75.0</ele><time>2026-05-04T11:30:26.796Z</time></trkpt><trkpt lat="52.2102917" lon="-0.9440967"><ele>75.0</ele><time>2026-05-04T11:30:28.793Z</time></trkpt><trkpt lat="52.2102583" lon="-0.943985"><ele>75.0</ele><time>2026-05-04T11:30:30.794Z</time></trkpt><trkpt lat="52.2102117" lon="-0.9438833"><ele>75.0</ele><time>2026-05-04T11:30:33.794Z</time></trkpt><trkpt lat="52.2102467" lon="-0.9440367"><ele>75.0</ele><time>2026-05-04T11:30:47.791Z</time></trkpt><trkpt lat="52.2102717" lon="-0.944135"><ele>75.0</ele><time>2026-05-04T11:30:48.793Z</time></trkpt><trkpt lat="52.2103317" lon="-0.944275"><ele>75.0</ele><time>2026-05-04T11:30:50.796Z</time></trkpt><trkpt lat="52.2104117" lon="-0.9442433"><ele>75.16666666666667</ele><time>2026-05-04T11:30:53.791Z</time></trkpt><trkpt lat="52.2104167" lon="-0.9441333"><ele>75.33333333333333</ele><time>2026-05-04T11:30:55.794Z</time></trkpt><trkpt lat="52.21039" lon="-0.9440083"><ele>75.5</ele><time>2026-05-04T11:30:57.793Z</time></trkpt><trkpt lat="52.2103633" lon="-0.943905"><ele>75.66666666666666</ele><time>2026-05-04T11:30:59.793Z</time></trkpt><trkpt lat="52.2103433" lon="-0.9438067"><ele>75.83333333333333</ele><time>2026-05-04T11:31:02.792Z</time></trkpt><trkpt lat="52.21028" lon="-0.9437267"><ele>76.0</ele><time>2026-05-04T11:36:55.791Z</time></trkpt><trkpt lat="52.210285" lon="-0.9435633"><ele>76.0</ele><time>2026-05-04T11:36:58.791Z</time></trkpt><trkpt lat="52.2103067" lon="-0.943455"><ele>76.0</ele><time>2026-05-04T11:37:00.792Z</time></trkpt><trkpt lat="52.2103583" lon="-0.94338"><ele>76.0</ele><time>2026-05-04T11:37:02.792Z</time></trkpt><trkpt lat="52.2103783" lon="-0.943265"><ele>76.0</ele><time>2026-05-04T11:37:04.792Z</time></trkpt><trkpt lat="52.21036" lon="-0.9431217"><ele>76.0</ele><time>2026-05-04T11:37:06.792Z</time></trkpt><trkpt lat="52.2103083" lon="-0.94292"><ele>76.0</ele><time>2026-05-04T11:37:08.791Z</time></trkpt><trkpt lat="52.210275" lon="-0.942815"><ele>76.2</ele><time>2026-05-04T11:37:09.79Z</time></trkpt><trkpt lat="52.2102367" lon="-0.9427133"><ele>76.39999999999999</ele><time>2026-05-04T11:37:10.791Z</time></trkpt><trkpt lat="52.2102" lon="-0.9426233"><ele>76.6</ele><time>2026-05-04T11:37:11.791Z</time></trkpt><trkpt lat="52.210125" lon="-0.942465"><ele>76.8</ele><time>2026-05-04T11:37:13.795Z</time></trkpt><trkpt lat="52.2100417" lon="-0.9423467"><ele>77.0</ele><time>2026-05-04T11:37:15.791Z</time></trkpt><trkpt lat="52.2099567" lon="-0.9422867"><ele>77.0</ele><time>2026-05-04T11:37:17.792Z</time></trkpt><trkpt lat="52.209875" lon="-0.9423033"><ele>77.0</ele><time>2026-05-04T11:37:19.796Z</time></trkpt><trkpt lat="52.2098067" lon="-0.9423567"><ele>77.0</ele><time>2026-05-04T11:37:21.791Z</time></trkpt><trkpt lat="52.2097233" lon="-0.94236"><ele>77.0</ele><time>2026-05-04T11:37:24.792Z</time></trkpt><trkpt lat="52.2096617" lon="-0.9423383"><ele>77.0</ele><time>2026-05-04T11:40:28.79Z</time></trkpt><trkpt lat="52.2095233" lon="-0.942155"><ele>77.0</ele><time>2026-05-04T12:15:35.792Z</time></trkpt><trkpt lat="52.2097836" lon="-0.9419135"><ele>77.0</ele><time>2026-05-04T12:16:07.049Z</time></trkpt><trkpt lat="52.2095333" lon="-0.9421883"><ele>77.0</ele><time>2026-05-04T12:16:11.793Z</time></trkpt><trkpt lat="52.20959" lon="-0.9422333"><ele>77.0</ele><time>2026-05-04T12:16:23.792Z</time></trkpt><trkpt lat="52.2096733" lon="-0.9422933"><ele>77.0</ele><time>2026-05-04T12:17:13.796Z</time></trkpt><trkpt lat="52.209735" lon="-0.94236"><ele>77.0</ele><time>2026-05-04T12:17:17.793Z</time></trkpt><trkpt lat="52.2096667" lon="-0.9423167"><ele>77.0</ele><time>2026-05-04T12:17:34.792Z</time></trkpt><trkpt lat="52.2096317" lon="-0.9422167"><ele>77.0</ele><time>2026-05-04T12:17:42.795Z</time></trkpt><trkpt lat="52.209615" lon="-0.94209"><ele>77.0</ele><time>2026-05-04T12:17:45.792Z</time></trkpt><trkpt lat="52.20958" lon="-0.9419967"><ele>77.0</ele><time>2026-05-04T12:17:47.796Z</time></trkpt><trkpt lat="52.2095417" lon="-0.941915"><ele>77.0</ele><time>2026-05-04T12:17:49.793Z</time></trkpt><trkpt lat="52.2094833" lon="-0.9417917"><ele>77.0</ele><time>2026-05-04T12:17:52.793Z</time></trkpt><trkpt lat="52.20942" lon="-0.9417017"><ele>77.0</ele><time>2026-05-04T12:17:54.792Z</time></trkpt><trkpt lat="52.209335" lon="-0.941585"><ele>77.0</ele><time>2026-05-04T12:17:56.791Z</time></trkpt><trkpt lat="52.209285" lon="-0.9415033"><ele>76.83333333333334</ele><time>2026-05-04T12:17:57.793Z</time></trkpt><trkpt lat="52.20923" lon="-0.9414183"><ele>76.66666666666667</ele><time>2026-05-04T12:17:58.793Z</time></trkpt><trkpt lat="52.2091567" lon="-0.9413117"><ele>76.5</ele><time>2026-05-04T12:17:59.795Z</time></trkpt><trkpt lat="52.2091117" lon="-0.9412"><ele>76.33333333333333</ele><time>2026-05-04T12:18:00.793Z</time></trkpt><trkpt lat="52.20907" lon="-0.9410867"><ele>76.16666666666666</ele><time>2026-05-04T12:18:01.794Z</time></trkpt><trkpt lat="52.2090233" lon="-0.9409533"><ele>76.0</ele><time>2026-05-04T12:18:02.793Z</time></trkpt><trkpt lat="52.2089767" lon="-0.9408183"><ele>76.0</ele><time>2026-05-04T12:18:03.793Z</time></trkpt><trkpt lat="52.20893" lon="-0.9406833"><ele>76.0</ele><time>2026-05-04T12:18:04.793Z</time></trkpt><trkpt lat="52.2088867" lon="-0.94055"><ele>76.0</ele><time>2026-05-04T12:18:05.794Z</time></trkpt><trkpt lat="52.20884" lon="-0.9404133"><ele>76.0</ele><time>2026-05-04T12:18:06.791Z</time></trkpt><trkpt lat="52.2087917" lon="-0.940265"><ele>76.0</ele><time>2026-05-04T12:18:07.792Z</time></trkpt><trkpt lat="52.20874" lon="-0.940095"><ele>76.25</ele><time>2026-05-04T12:18:08.795Z</time></trkpt><trkpt lat="52.208685" lon="-0.9399117"><ele>76.5</ele><time>2026-05-04T12:18:09.794Z</time></trkpt><trkpt lat="52.2086367" lon="-0.93973"><ele>76.75</ele><time>2026-05-04T12:18:10.794Z</time></trkpt><trkpt lat="52.20859" lon="-0.93954"><ele>77.0</ele><time>2026-05-04T12:18:11.794Z</time></trkpt><trkpt lat="52.2085383" lon="-0.939345"><ele>77.5</ele><time>2026-05-04T12:18:12.791Z</time></trkpt><trkpt lat="52.208485" lon="-0.9391417"><ele>78.0</ele><time>2026-05-04T12:18:13.795Z</time></trkpt><trkpt lat="52.20843" lon="-0.9389283"><ele>78.5</ele><time>2026-05-04T12:18:14.791Z</time></trkpt><trkpt lat="52.2083717" lon="-0.93871"><ele>79.0</ele><time>2026-05-04T12:18:15.794Z</time></trkpt><trkpt lat="52.208315" lon="-0.93848"><ele>79.0</ele><time>2026-05-04T12:18:16.792Z</time></trkpt><trkpt lat="52.2082583" lon="-0.9382433"><ele>79.0</ele><time>2026-05-04T12:18:17.794Z</time></trkpt><trkpt lat="52.2082" lon="-0.9380017"><ele>79.0</ele><time>2026-05-04T12:18:18.793Z</time></trkpt><trkpt lat="52.20814" lon="-0.9377533"><ele>78.66666666666666</ele><time>2026-05-04T12:18:19.794Z</time></trkpt><trkpt lat="52.2080717" lon="-0.9375"><ele>78.33333333333333</ele><time>2026-05-04T12:18:20.794Z</time></trkpt><trkpt lat="52.208" lon="-0.9372417"><ele>78.0</ele><time>2026-05-04T12:18:21.793Z</time></trkpt><trkpt lat="52.2079233" lon="-0.9369733"><ele>78.66666666666667</ele><time>2026-05-04T12:18:22.796Z</time></trkpt><trkpt lat="52.2078467" lon="-0.9367"><ele>79.33333333333334</ele><time>2026-05-04T12:18:23.792Z</time></trkpt><trkpt lat="52.2077683" lon="-0.9364267"><ele>80.0</ele><time>2026-05-04T12:18:24.793Z</time></trkpt><trkpt lat="52.207685" lon="-0.9361567"><ele>80.0</ele><time>2026-05-04T12:18:25.798Z</time></trkpt><trkpt lat="52.2076017" lon="-0.9358883"><ele>80.0</ele><time>2026-05-04T12:18:26.791Z</time></trkpt><trkpt lat="52.2075233" lon="-0.9356267"><ele>80.0</ele><time>2026-05-04T12:18:27.792Z</time></trkpt><trkpt lat="52.207445" lon="-0.9353717"><ele>80.0</ele><time>2026-05-04T12:18:28.793Z</time></trkpt><trkpt lat="52.2073733" lon="-0.9351333"><ele>80.0</ele><time>2026-05-04T12:18:29.793Z</time></trkpt><trkpt lat="52.2073067" lon="-0.9349067"><ele>80.0</ele><time>2026-05-04T12:18:30.794Z</time></trkpt><trkpt lat="52.20724" lon="-0.9346867"><ele>80.0</ele><time>2026-05-04T12:18:31.795Z</time></trkpt><trkpt lat="52.207175" lon="-0.9344717"><ele>80.0</ele><time>2026-05-04T12:18:32.793Z</time></trkpt><trkpt lat="52.2071067" lon="-0.9342567"><ele>80.0</ele><time>2026-05-04T12:18:33.792Z</time></trkpt><trkpt lat="52.2070367" lon="-0.9340417"><ele>80.0</ele><time>2026-05-04T12:18:34.792Z</time></trkpt><trkpt lat="52.2069667" lon="-0.9338283"><ele>79.5</ele><time>2026-05-04T12:18:35.794Z</time></trkpt><trkpt lat="52.2069017" lon="-0.9336183"><ele>79.0</ele><time>2026-05-04T12:18:36.794Z</time></trkpt><trkpt lat="52.2019517" lon="-0.92161"><ele>80.0</ele><time>2026-05-04T12:19:32.547Z</time></trkpt><trkpt lat="52.20203" lon="-0.9212983"><ele>81.0</ele><time>2026-05-04T12:19:34.016Z</time></trkpt><trkpt lat="52.20181" lon="-0.9209167"><ele>81.0</ele><time>2026-05-04T12:19:35.291Z</time></trkpt><trkpt lat="52.201585" lon="-0.9205183"><ele>81.0</ele><time>2026-05-04T12:19:36.791Z</time></trkpt><trkpt lat="52.2014333" lon="-0.9202467"><ele>81.5</ele><time>2026-05-04T12:19:37.796Z</time></trkpt><trkpt lat="52.2012767" lon="-0.919965"><ele>82.0</ele><time>2026-05-04T12:19:38.791Z</time></trkpt><trkpt lat="52.201115" lon="-0.919675"><ele>82.0</ele><time>2026-05-04T12:19:39.792Z</time></trkpt><trkpt lat="52.200955" lon="-0.9193883"><ele>82.0</ele><time>2026-05-04T12:19:40.793Z</time></trkpt><trkpt lat="52.2008033" lon="-0.919105"><ele>86.0</ele><time>2026-05-04T12:19:41.791Z</time></trkpt><trkpt lat="52.2006467" lon="-0.9188217"><ele>90.0</ele><time>2026-05-04T12:19:42.792Z</time></trkpt><trkpt lat="52.2004917" lon="-0.91855"><ele>89.0</ele><time>2026-05-04T12:19:43.791Z</time></trkpt><trkpt lat="52.20033" lon="-0.9182617"><ele>88.0</ele><time>2026-05-04T12:19:44.793Z</time></trkpt><trkpt lat="52.20016" lon="-0.9179733"><ele>88.0</ele><time>2026-05-04T12:19:45.792Z</time></trkpt><trkpt lat="52.199985" lon="-0.91769"><ele>88.0</ele><time>2026-05-04T12:19:46.794Z</time></trkpt><trkpt lat="52.1998083" lon="-0.9174"><ele>88.0</ele><time>2026-05-04T12:19:47.792Z</time></trkpt><trkpt lat="52.19963" lon="-0.9171117"><ele>88.0</ele><time>2026-05-04T12:19:48.792Z</time></trkpt><trkpt lat="52.1994467" lon="-0.9168167"><ele>87.5</ele><time>2026-05-04T12:19:49.794Z</time></trkpt><trkpt lat="52.1992633" lon="-0.9165267"><ele>87.0</ele><time>2026-05-04T12:19:50.792Z</time></trkpt><trkpt lat="52.1990767" lon="-0.9162367"><ele>87.5</ele><time>2026-05-04T12:19:51.793Z</time></trkpt><trkpt lat="52.198885" lon="-0.9159483"><ele>88.0</ele><time>2026-05-04T12:19:52.792Z</time></trkpt><trkpt lat="52.19869" lon="-0.91566"><ele>87.0</ele><time>2026-05-04T12:19:53.791Z</time></trkpt><trkpt lat="52.1984983" lon="-0.9153783"><ele>86.0</ele><time>2026-05-04T12:19:54.792Z</time></trkpt><trkpt lat="52.1983083" lon="-0.9151"><ele>84.5</ele><time>2026-05-04T12:19:55.792Z</time></trkpt><trkpt lat="52.1981183" lon="-0.9148217"><ele>83.0</ele><time>2026-05-04T12:19:56.792Z</time></trkpt><trkpt lat="52.1979317" lon="-0.9145467"><ele>83.0</ele><time>2026-05-04T12:19:57.792Z</time></trkpt><trkpt lat="52.1977433" lon="-0.9142717"><ele>83.0</ele><time>2026-05-04T12:19:58.792Z</time></trkpt><trkpt lat="52.1975567" lon="-0.9139983"><ele>83.5</ele><time>2026-05-04T12:19:59.791Z</time></trkpt><trkpt lat="52.1973733" lon="-0.913725"><ele>84.0</ele><time>2026-05-04T12:20:00.792Z</time></trkpt><trkpt lat="52.1971933" lon="-0.91346"><ele>84.0</ele><time>2026-05-04T12:20:01.795Z</time></trkpt><trkpt lat="52.19702" lon="-0.9132033"><ele>84.0</ele><time>2026-05-04T12:20:02.791Z</time></trkpt><trkpt lat="52.196845" lon="-0.91295"><ele>84.0</ele><time>2026-05-04T12:20:03.792Z</time></trkpt><trkpt lat="52.1966667" lon="-0.9126933"><ele>84.0</ele><time>2026-05-04T12:20:04.791Z</time></trkpt><trkpt lat="52.1955867" lon="-0.9110317"><ele>86.0</ele><time>2026-05-04T12:20:12.089Z</time></trkpt><trkpt lat="52.1951717" lon="-0.9104483"><ele>87.0</ele><time>2026-05-04T12:20:13.29Z</time></trkpt><trkpt lat="52.1948483" lon="-0.910005"><ele>88.0</ele><time>2026-05-04T12:20:14.79Z</time></trkpt><trkpt lat="52.1946783" lon="-0.9097133"><ele>89.5</ele><time>2026-05-04T12:20:15.791Z</time></trkpt><trkpt lat="52.1944867" lon="-0.9094383"><ele>91.0</ele><time>2026-05-04T12:20:16.792Z</time></trkpt><trkpt lat="52.1942917" lon="-0.9091533"><ele>91.0</ele><time>2026-05-04T12:20:17.792Z</time></trkpt><trkpt lat="52.194095" lon="-0.908855"><ele>91.0</ele><time>2026-05-04T12:20:18.792Z</time></trkpt><trkpt lat="52.193895" lon="-0.9085583"><ele>89.5</ele><time>2026-05-04T12:20:19.791Z</time></trkpt><trkpt lat="52.1936967" lon="-0.9082583"><ele>88.0</ele><time>2026-05-04T12:20:20.792Z</time></trkpt><trkpt lat="52.1935" lon="-0.9079617"><ele>88.0</ele><time>2026-05-04T12:20:21.791Z</time></trkpt><trkpt lat="52.1932983" lon="-0.9076633"><ele>88.0</ele><time>2026-05-04T12:20:22.79Z</time></trkpt><trkpt lat="52.1931" lon="-0.9073617"><ele>89.0</ele><time>2026-05-04T12:20:23.792Z</time></trkpt><trkpt lat="52.1929" lon="-0.9070533"><ele>90.0</ele><time>2026-05-04T12:20:24.791Z</time></trkpt><trkpt lat="52.1927" lon="-0.9067567"><ele>90.0</ele><time>2026-05-04T12:20:25.791Z</time></trkpt><trkpt lat="52.1925017" lon="-0.9064667"><ele>90.0</ele><time>2026-05-04T12:20:26.793Z</time></trkpt><trkpt lat="52.1923017" lon="-0.906175"><ele>89.0</ele><time>2026-05-04T12:20:27.792Z</time></trkpt><trkpt lat="52.192105" lon="-0.9058883"><ele>88.0</ele><time>2026-05-04T12:20:28.792Z</time></trkpt><trkpt lat="52.1919083" lon="-0.9055967"><ele>88.0</ele><time>2026-05-04T12:20:29.793Z</time></trkpt><trkpt lat="52.1917117" lon="-0.9053"><ele>88.0</ele><time>2026-05-04T12:20:30.792Z</time></trkpt><trkpt lat="52.1915167" lon="-0.9050067"><ele>86.5</ele><time>2026-05-04T12:20:31.791Z</time></trkpt><trkpt lat="52.19132" lon="-0.9047183"><ele>85.0</ele><time>2026-05-04T12:20:32.792Z</time></trkpt><trkpt lat="52.1911233" lon="-0.9044283"><ele>85.5</ele><time>2026-05-04T12:20:33.791Z</time></trkpt><trkpt lat="52.1909267" lon="-0.9041317"><ele>86.0</ele><time>2026-05-04T12:20:34.793Z</time></trkpt><trkpt lat="52.1907333" lon="-0.9038333"><ele>85.5</ele><time>2026-05-04T12:20:35.791Z</time></trkpt><trkpt lat="52.19054" lon="-0.9035367"><ele>85.0</ele><time>2026-05-04T12:20:36.793Z</time></trkpt><trkpt lat="52.1903467" lon="-0.9032383"><ele>84.5</ele><time>2026-05-04T12:20:37.792Z</time></trkpt><trkpt lat="52.1901567" lon="-0.9029383"><ele>84.0</ele><time>2026-05-04T12:20:38.793Z</time></trkpt><trkpt lat="52.18997" lon="-0.9026317"><ele>84.5</ele><time>2026-05-04T12:20:39.792Z</time></trkpt><trkpt lat="52.1897883" lon="-0.90232"><ele>85.0</ele><time>2026-05-04T12:20:40.793Z</time></trkpt><trkpt lat="52.189605" lon="-0.90201"><ele>84.5</ele><time>2026-05-04T12:20:41.792Z</time></trkpt><trkpt lat="52.18942" lon="-0.9016967"><ele>84.0</ele><time>2026-05-04T12:20:42.793Z</time></trkpt><trkpt lat="52.1892383" lon="-0.9013783"><ele>84.0</ele><time>2026-05-04T12:20:43.792Z</time></trkpt><trkpt lat="52.189055" lon="-0.9010633"><ele>84.0</ele><time>2026-05-04T12:20:44.793Z</time></trkpt><trkpt lat="52.1888717" lon="-0.9007483"><ele>83.5</ele><time>2026-05-04T12:20:45.792Z</time></trkpt><trkpt lat="52.1886917" lon="-0.9004283"><ele>83.0</ele><time>2026-05-04T12:20:46.792Z</time></trkpt><trkpt lat="52.1885133" lon="-0.9001067"><ele>82.5</ele><time>2026-05-04T12:20:47.792Z</time></trkpt><trkpt lat="52.1883333" lon="-0.8997817"><ele>82.0</ele><time>2026-05-04T12:20:48.792Z</time></trkpt><trkpt lat="52.1881583" lon="-0.8994567"><ele>82.5</ele><time>2026-05-04T12:20:49.792Z</time></trkpt><trkpt lat="52.187985" lon="-0.899135"><ele>83.0</ele><time>2026-05-04T12:20:50.792Z</time></trkpt><trkpt lat="52.1878083" lon="-0.8988117"><ele>83.0</ele><time>2026-05-04T12:20:51.792Z</time></trkpt><trkpt lat="52.1876317" lon="-0.89849"><ele>83.0</ele><time>2026-05-04T12:20:52.792Z</time></trkpt><trkpt lat="52.187455" lon="-0.8981683"><ele>83.0</ele><time>2026-05-04T12:20:53.792Z</time></trkpt><trkpt lat="52.1872817" lon="-0.8978467"><ele>83.0</ele><time>2026-05-04T12:20:54.793Z</time></trkpt><trkpt lat="52.1871067" lon="-0.897525"><ele>83.0</ele><time>2026-05-04T12:20:55.792Z</time></trkpt><trkpt lat="52.18693" lon="-0.8972017"><ele>83.0</ele><time>2026-05-04T12:20:56.792Z</time></trkpt><trkpt lat="52.186755" lon="-0.89688"><ele>83.5</ele><time>2026-05-04T12:20:57.791Z</time></trkpt><trkpt lat="52.1865767" lon="-0.8965583"><ele>84.0</ele><time>2026-05-04T12:20:58.792Z</time></trkpt><trkpt lat="52.1863983" lon="-0.896235"><ele>85.0</ele><time>2026-05-04T12:20:59.792Z</time></trkpt><trkpt lat="52.1862217" lon="-0.8959117"><ele>86.0</ele><time>2026-05-04T12:21:00.792Z</time></trkpt><trkpt lat="52.186045" lon="-0.8955883"><ele>86.0</ele><time>2026-05-04T12:21:01.792Z</time></trkpt><trkpt lat="52.1858683" lon="-0.8952633"><ele>86.0</ele><time>2026-05-04T12:21:02.792Z</time></trkpt><trkpt lat="52.18569" lon="-0.8949417"><ele>85.5</ele><time>2026-05-04T12:21:03.79Z</time></trkpt><trkpt lat="52.1855033" lon="-0.8946267"><ele>85.0</ele><time>2026-05-04T12:21:04.792Z</time></trkpt><trkpt lat="52.1853217" lon="-0.89431"><ele>84.0</ele><time>2026-05-04T12:21:05.796Z</time></trkpt><trkpt lat="52.1851433" lon="-0.89399"><ele>83.0</ele><time>2026-05-04T12:21:06.793Z</time></trkpt><trkpt lat="52.1849633" lon="-0.8936683"><ele>82.5</ele><time>2026-05-04T12:21:07.793Z</time></trkpt><trkpt lat="52.1847867" lon="-0.8933467"><ele>82.0</ele><time>2026-05-04T12:21:08.793Z</time></trkpt><trkpt lat="52.1846083" lon="-0.893025"><ele>82.0</ele><time>2026-05-04T12:21:09.791Z</time></trkpt><trkpt lat="52.1844317" lon="-0.8927033"><ele>82.0</ele><time>2026-05-04T12:21:10.791Z</time></trkpt><trkpt lat="52.1842583" lon="-0.8923817"><ele>82.5</ele><time>2026-05-04T12:21:11.792Z</time></trkpt><trkpt lat="52.1840817" lon="-0.89206"><ele>83.0</ele><time>2026-05-04T12:21:12.793Z</time></trkpt><trkpt lat="52.1839033" lon="-0.8917383"><ele>84.0</ele><time>2026-05-04T12:21:13.796Z</time></trkpt><trkpt lat="52.1837283" lon="-0.8914183"><ele>85.0</ele><time>2026-05-04T12:21:14.792Z</time></trkpt><trkpt lat="52.1835517" lon="-0.8910933"><ele>84.5</ele><time>2026-05-04T12:21:15.795Z</time></trkpt><trkpt lat="52.183375" lon="-0.8907733"><ele>84.0</ele><time>2026-05-04T12:21:16.796Z</time></trkpt><trkpt lat="52.1831983" lon="-0.8904517"><ele>85.0</ele><time>2026-05-04T12:21:17.792Z</time></trkpt><trkpt lat="52.183025" lon="-0.89013"><ele>86.0</ele><time>2026-05-04T12:21:18.791Z</time></trkpt><trkpt lat="52.1828483" lon="-0.8898067"><ele>86.0</ele><time>2026-05-04T12:21:19.792Z</time></trkpt><trkpt lat="52.1826733" lon="-0.8894867"><ele>86.0</ele><time>2026-05-04T12:21:20.793Z</time></trkpt><trkpt lat="52.1824983" lon="-0.8891667"><ele>86.0</ele><time>2026-05-04T12:21:21.794Z</time></trkpt><trkpt lat="52.1823233" lon="-0.888845"><ele>86.0</ele><time>2026-05-04T12:21:22.793Z</time></trkpt><trkpt lat="52.1821467" lon="-0.8885233"><ele>87.0</ele><time>2026-05-04T12:21:23.792Z</time></trkpt><trkpt lat="52.1819717" lon="-0.8882"><ele>88.0</ele><time>2026-05-04T12:21:24.794Z</time></trkpt><trkpt lat="52.1818" lon="-0.8878817"><ele>87.5</ele><time>2026-05-04T12:21:25.792Z</time></trkpt><trkpt lat="52.181625" lon="-0.8875633"><ele>87.0</ele><time>2026-05-04T12:21:26.795Z</time></trkpt><trkpt lat="52.1814467" lon="-0.887245"><ele>88.0</ele><time>2026-05-04T12:21:27.795Z</time></trkpt><trkpt lat="52.18127" lon="-0.886925"><ele>89.0</ele><time>2026-05-04T12:21:28.793Z</time></trkpt><trkpt lat="52.181095" lon="-0.8866017"><ele>90.0</ele><time>2026-05-04T12:21:29.792Z</time></trkpt><trkpt lat="52.1809233" lon="-0.8862783"><ele>91.0</ele><time>2026-05-04T12:21:30.792Z</time></trkpt><trkpt lat="52.1807483" lon="-0.8859517"><ele>93.0</ele><time>2026-05-04T12:21:31.793Z</time></trkpt><trkpt lat="52.1805717" lon="-0.88563"><ele>95.0</ele><time>2026-05-04T12:21:32.79Z</time></trkpt><trkpt lat="52.1804017" lon="-0.88531"><ele>95.5</ele><time>2026-05-04T12:21:33.793Z</time></trkpt><trkpt lat="52.1802233" lon="-0.8849917"><ele>96.0</ele><time>2026-05-04T12:21:34.794Z</time></trkpt><trkpt lat="52.180045" lon="-0.8846717"><ele>96.0</ele><time>2026-05-04T12:21:35.792Z</time></trkpt><trkpt lat="52.179865" lon="-0.88435"><ele>96.0</ele><time>2026-05-04T12:21:36.795Z</time></trkpt><trkpt lat="52.17969" lon="-0.8840317"><ele>99.5</ele><time>2026-05-04T12:21:37.793Z</time></trkpt><trkpt lat="52.1795117" lon="-0.88371"><ele>103.0</ele><time>2026-05-04T12:21:38.792Z</time></trkpt><trkpt lat="52.1793367" lon="-0.883385"><ele>103.0</ele><time>2026-05-04T12:21:39.795Z</time></trkpt><trkpt lat="52.17916" lon="-0.8830617"><ele>103.0</ele><time>2026-05-04T12:21:40.793Z</time></trkpt><trkpt lat="52.1789833" lon="-0.8827417"><ele>103.0</ele><time>2026-05-04T12:21:41.793Z</time></trkpt><trkpt lat="52.178805" lon="-0.8824217"><ele>103.0</ele><time>2026-05-04T12:21:42.793Z</time></trkpt><trkpt lat="52.17863" lon="-0.8821"><ele>103.0</ele><time>2026-05-04T12:21:43.793Z</time></trkpt><trkpt lat="52.1784483" lon="-0.88178"><ele>103.0</ele><time>2026-05-04T12:21:44.791Z</time></trkpt><trkpt lat="52.1782683" lon="-0.8814633"><ele>102.5</ele><time>2026-05-04T12:21:45.795Z</time></trkpt><trkpt lat="52.17809" lon="-0.881145"><ele>102.0</ele><time>2026-05-04T12:21:46.795Z</time></trkpt><trkpt lat="52.177915" lon="-0.8808233"><ele>103.0</ele><time>2026-05-04T12:21:47.796Z</time></trkpt><trkpt lat="52.1777383" lon="-0.8805017"><ele>104.0</ele><time>2026-05-04T12:21:48.794Z</time></trkpt><trkpt lat="52.1775633" lon="-0.8801783"><ele>103.5</ele><time>2026-05-04T12:21:49.796Z</time></trkpt><trkpt lat="52.1773867" lon="-0.8798583"><ele>103.0</ele><time>2026-05-04T12:21:50.793Z</time></trkpt><trkpt lat="52.177205" lon="-0.879535"><ele>102.5</ele><time>2026-05-04T12:21:51.792Z</time></trkpt><trkpt lat="52.177025" lon="-0.87921"><ele>102.0</ele><time>2026-05-04T12:21:52.793Z</time></trkpt><trkpt lat="52.1768483" lon="-0.8788867"><ele>102.0</ele><time>2026-05-04T12:21:53.795Z</time></trkpt><trkpt lat="52.1766717" lon="-0.878565"><ele>102.0</ele><time>2026-05-04T12:21:54.792Z</time></trkpt><trkpt lat="52.1764917" lon="-0.8782433"><ele>104.0</ele><time>2026-05-04T12:21:55.793Z</time></trkpt><trkpt lat="52.176315" lon="-0.87792"><ele>106.0</ele><time>2026-05-04T12:21:56.791Z</time></trkpt><trkpt lat="52.1761417" lon="-0.8776"><ele>106.0</ele><time>2026-05-04T12:21:57.792Z</time></trkpt><trkpt lat="52.175965" lon="-0.8772767"><ele>106.0</ele><time>2026-05-04T12:21:58.792Z</time></trkpt><trkpt lat="52.1757867" lon="-0.8769567"><ele>107.0</ele><time>2026-05-04T12:21:59.792Z</time></trkpt><trkpt lat="52.1756083" lon="-0.876635"><ele>108.0</ele><time>2026-05-04T12:22:00.795Z</time></trkpt><trkpt lat="52.17543" lon="-0.876315"><ele>108.0</ele><time>2026-05-04T12:22:01.795Z</time></trkpt><trkpt lat="52.1752533" lon="-0.8759933"><ele>108.0</ele><time>2026-05-04T12:22:02.794Z</time></trkpt><trkpt lat="52.17508" lon="-0.8756717"><ele>109.0</ele><time>2026-05-04T12:22:03.794Z</time></trkpt><trkpt lat="52.174905" lon="-0.87535"><ele>110.0</ele><time>2026-05-04T12:22:04.795Z</time></trkpt><trkpt lat="52.174725" lon="-0.8750267"><ele>112.0</ele><time>2026-05-04T12:22:05.795Z</time></trkpt><trkpt lat="52.1745467" lon="-0.874705"><ele>114.0</ele><time>2026-05-04T12:22:06.795Z</time></trkpt><trkpt lat="52.1743717" lon="-0.8743817"><ele>114.5</ele><time>2026-05-04T12:22:07.794Z</time></trkpt><trkpt lat="52.1741967" lon="-0.8740567"><ele>115.0</ele><time>2026-05-04T12:22:08.794Z</time></trkpt><trkpt lat="52.17402" lon="-0.87373"><ele>115.5</ele><time>2026-05-04T12:22:09.793Z</time></trkpt><trkpt lat="52.1738417" lon="-0.8734067"><ele>116.0</ele><time>2026-05-04T12:22:10.792Z</time></trkpt><trkpt lat="52.1736683" lon="-0.87309"><ele>116.0</ele><time>2026-05-04T12:22:11.794Z</time></trkpt><trkpt lat="52.173485" lon="-0.872775"><ele>116.0</ele><time>2026-05-04T12:22:12.79Z</time></trkpt><trkpt lat="52.173305" lon="-0.8724567"><ele>117.0</ele><time>2026-05-04T12:22:13.794Z</time></trkpt><trkpt lat="52.1731283" lon="-0.8721383"><ele>118.0</ele><time>2026-05-04T12:22:14.795Z</time></trkpt><trkpt lat="52.1729483" lon="-0.8718167"><ele>118.5</ele><time>2026-05-04T12:22:15.795Z</time></trkpt><trkpt lat="52.1727733" lon="-0.8714967"><ele>119.0</ele><time>2026-05-04T12:22:16.796Z</time></trkpt><trkpt lat="52.1725933" lon="-0.87118"><ele>118.5</ele><time>2026-05-04T12:22:17.795Z</time></trkpt><trkpt lat="52.172415" lon="-0.870865"><ele>118.0</ele><time>2026-05-04T12:22:18.796Z</time></trkpt><trkpt lat="52.172235" lon="-0.8705517"><ele>119.5</ele><time>2026-05-04T12:22:19.796Z</time></trkpt><trkpt lat="52.17205" lon="-0.87024"><ele>121.0</ele><time>2026-05-04T12:22:20.795Z</time></trkpt><trkpt lat="52.171865" lon="-0.86993"><ele>121.0</ele><time>2026-05-04T12:22:21.795Z</time></trkpt><trkpt lat="52.1716817" lon="-0.8696167"><ele>121.0</ele><time>2026-05-04T12:22:22.792Z</time></trkpt><trkpt lat="52.171495" lon="-0.8693083"><ele>121.5</ele><time>2026-05-04T12:22:23.795Z</time></trkpt><trkpt lat="52.1713133" lon="-0.869"><ele>122.0</ele><time>2026-05-04T12:22:24.796Z</time></trkpt><trkpt lat="52.1711283" lon="-0.8686933"><ele>123.0</ele><time>2026-05-04T12:22:25.795Z</time></trkpt><trkpt lat="52.17095" lon="-0.8683983"><ele>124.0</ele><time>2026-05-04T12:22:26.795Z</time></trkpt><trkpt lat="52.1707833" lon="-0.8681167"><ele>124.5</ele><time>2026-05-04T12:22:27.794Z</time></trkpt><trkpt lat="52.17062" lon="-0.8678467"><ele>125.0</ele><time>2026-05-04T12:22:28.796Z</time></trkpt><trkpt lat="52.1704567" lon="-0.8675783"><ele>125.5</ele><time>2026-05-04T12:22:29.795Z</time></trkpt><trkpt lat="52.1702883" lon="-0.8673083"><ele>126.0</ele><time>2026-05-04T12:22:30.792Z</time></trkpt><trkpt lat="52.1701133" lon="-0.8670383"><ele>126.0</ele><time>2026-05-04T12:22:31.793Z</time></trkpt><trkpt lat="52.1699333" lon="-0.8667617"><ele>126.0</ele><time>2026-05-04T12:22:32.793Z</time></trkpt><trkpt lat="52.1697517" lon="-0.8664767"><ele>126.5</ele><time>2026-05-04T12:22:33.795Z</time></trkpt><trkpt lat="52.169565" lon="-0.866185"><ele>127.0</ele><time>2026-05-04T12:22:34.795Z</time></trkpt><trkpt lat="52.1693783" lon="-0.8658917"><ele>127.0</ele><time>2026-05-04T12:22:35.795Z</time></trkpt><trkpt lat="52.16919" lon="-0.8655967"><ele>127.0</ele><time>2026-05-04T12:22:36.792Z</time></trkpt><trkpt lat="52.169" lon="-0.8653033"><ele>127.0</ele><time>2026-05-04T12:22:37.796Z</time></trkpt><trkpt lat="52.1688117" lon="-0.8650117"><ele>127.0</ele><time>2026-05-04T12:22:38.795Z</time></trkpt><trkpt lat="52.1686217" lon="-0.86472"><ele>127.0</ele><time>2026-05-04T12:22:39.794Z</time></trkpt><trkpt lat="52.1684317" lon="-0.8644283"><ele>127.0</ele><time>2026-05-04T12:22:40.795Z</time></trkpt><trkpt lat="52.16824" lon="-0.864135"><ele>128.0</ele><time>2026-05-04T12:22:41.795Z</time></trkpt><trkpt lat="52.1680483" lon="-0.86384"><ele>129.0</ele><time>2026-05-04T12:22:42.79Z</time></trkpt><trkpt lat="52.167855" lon="-0.8635483"><ele>128.5</ele><time>2026-05-04T12:22:43.792Z</time></trkpt><trkpt lat="52.1676617" lon="-0.863255"><ele>128.0</ele><time>2026-05-04T12:22:44.792Z</time></trkpt><trkpt lat="52.167465" lon="-0.8629683"><ele>127.0</ele><time>2026-05-04T12:22:45.794Z</time></trkpt><trkpt lat="52.16727" lon="-0.86268"><ele>126.0</ele><time>2026-05-04T12:22:46.796Z</time></trkpt><trkpt lat="52.1670733" lon="-0.8623967"><ele>125.5</ele><time>2026-05-04T12:22:47.796Z</time></trkpt><trkpt lat="52.1668767" lon="-0.862115"><ele>125.0</ele><time>2026-05-04T12:22:48.795Z</time></trkpt><trkpt lat="52.16668" lon="-0.8618317"><ele>124.5</ele><time>2026-05-04T12:22:49.795Z</time></trkpt><trkpt lat="52.1664817" lon="-0.86155"><ele>124.0</ele><time>2026-05-04T12:22:50.794Z</time></trkpt><trkpt lat="52.1662817" lon="-0.86127"><ele>124.0</ele><time>2026-05-04T12:22:51.792Z</time></trkpt><trkpt lat="52.1660783" lon="-0.86099"><ele>124.0</ele><time>2026-05-04T12:22:52.791Z</time></trkpt><trkpt lat="52.165875" lon="-0.8607133"><ele>124.5</ele><time>2026-05-04T12:22:53.795Z</time></trkpt><trkpt lat="52.165675" lon="-0.8604317"><ele>125.0</ele><time>2026-05-04T12:22:54.794Z</time></trkpt><trkpt lat="52.1654733" lon="-0.8601483"><ele>124.5</ele><time>2026-05-04T12:22:55.796Z</time></trkpt><trkpt lat="52.165275" lon="-0.85987"><ele>124.0</ele><time>2026-05-04T12:22:56.794Z</time></trkpt><trkpt lat="52.1650733" lon="-0.8595917"><ele>124.0</ele><time>2026-05-04T12:22:57.795Z</time></trkpt><trkpt lat="52.1648667" lon="-0.8593167"><ele>124.0</ele><time>2026-05-04T12:22:58.796Z</time></trkpt><trkpt lat="52.1646633" lon="-0.8590433"><ele>123.5</ele><time>2026-05-04T12:22:59.791Z</time></trkpt><trkpt lat="52.1644617" lon="-0.8587683"><ele>123.0</ele><time>2026-05-04T12:23:00.792Z</time></trkpt><trkpt lat="52.164255" lon="-0.8584983"><ele>123.0</ele><time>2026-05-04T12:23:01.793Z</time></trkpt><trkpt lat="52.1640517" lon="-0.8582333"><ele>123.0</ele><time>2026-05-04T12:23:02.794Z</time></trkpt><trkpt lat="52.163845" lon="-0.8579617"><ele>123.0</ele><time>2026-05-04T12:23:03.795Z</time></trkpt><trkpt lat="52.1636383" lon="-0.857695"><ele>123.0</ele><time>2026-05-04T12:23:04.791Z</time></trkpt><trkpt lat="52.163435" lon="-0.85743"><ele>123.0</ele><time>2026-05-04T12:23:05.793Z</time></trkpt><trkpt lat="52.1632333" lon="-0.8571667"><ele>123.0</ele><time>2026-05-04T12:23:06.791Z</time></trkpt><trkpt lat="52.1630283" lon="-0.8569017"><ele>123.5</ele><time>2026-05-04T12:23:07.795Z</time></trkpt><trkpt lat="52.162825" lon="-0.856635"><ele>124.0</ele><time>2026-05-04T12:23:08.794Z</time></trkpt><trkpt lat="52.1626183" lon="-0.8563717"><ele>124.0</ele><time>2026-05-04T12:23:09.794Z</time></trkpt><trkpt lat="52.1624133" lon="-0.8561083"><ele>124.0</ele><time>2026-05-04T12:23:10.795Z</time></trkpt><trkpt lat="52.162205" lon="-0.8558433"><ele>125.0</ele><time>2026-05-04T12:23:11.794Z</time></trkpt><trkpt lat="52.1619967" lon="-0.8555767"><ele>126.0</ele><time>2026-05-04T12:23:12.793Z</time></trkpt><trkpt lat="52.1617867" lon="-0.8553133"><ele>126.5</ele><time>2026-05-04T12:23:13.795Z</time></trkpt><trkpt lat="52.1615767" lon="-0.855055"><ele>127.0</ele><time>2026-05-04T12:23:14.793Z</time></trkpt><trkpt lat="52.161365" lon="-0.8548"><ele>127.0</ele><time>2026-05-04T12:23:15.793Z</time></trkpt><trkpt lat="52.16115" lon="-0.854545"><ele>127.0</ele><time>2026-05-04T12:23:16.795Z</time></trkpt><trkpt lat="52.16094" lon="-0.8542917"><ele>128.0</ele><time>2026-05-04T12:23:17.796Z</time></trkpt><trkpt lat="52.1607267" lon="-0.8540417"><ele>129.0</ele><time>2026-05-04T12:23:18.792Z</time></trkpt><trkpt lat="52.1605117" lon="-0.8537917"><ele>129.0</ele><time>2026-05-04T12:23:19.796Z</time></trkpt><trkpt lat="52.1602967" lon="-0.8535383"><ele>129.0</ele><time>2026-05-04T12:23:20.791Z</time></trkpt><trkpt lat="52.1600767" lon="-0.85329"><ele>130.0</ele><time>2026-05-04T12:23:21.796Z</time></trkpt><trkpt lat="52.1598583" lon="-0.8530367"><ele>131.0</ele><time>2026-05-04T12:23:22.795Z</time></trkpt><trkpt lat="52.1596467" lon="-0.8527883"><ele>131.0</ele><time>2026-05-04T12:23:23.794Z</time></trkpt><trkpt lat="52.1594333" lon="-0.8525467"><ele>131.0</ele><time>2026-05-04T12:23:24.795Z</time></trkpt><trkpt lat="52.15922" lon="-0.852305"><ele>132.0</ele><time>2026-05-04T12:23:25.794Z</time></trkpt><trkpt lat="52.159005" lon="-0.8520633"><ele>133.0</ele><time>2026-05-04T12:23:26.795Z</time></trkpt><trkpt lat="52.1587883" lon="-0.85182"><ele>132.0</ele><time>2026-05-04T12:23:27.795Z</time></trkpt><trkpt lat="52.1585717" lon="-0.851575"><ele>131.0</ele><time>2026-05-04T12:23:28.794Z</time></trkpt><trkpt lat="52.1583533" lon="-0.8513317"><ele>131.0</ele><time>2026-05-04T12:23:29.795Z</time></trkpt><trkpt lat="52.1581333" lon="-0.85109"><ele>131.0</ele><time>2026-05-04T12:23:30.794Z</time></trkpt><trkpt lat="52.1579167" lon="-0.85085"><ele>131.0</ele><time>2026-05-04T12:23:31.794Z</time></trkpt><trkpt lat="52.1577017" lon="-0.8506117"><ele>131.0</ele><time>2026-05-04T12:23:32.795Z</time></trkpt><trkpt lat="52.157485" lon="-0.8503733"><ele>131.5</ele><time>2026-05-04T12:23:33.794Z</time></trkpt><trkpt lat="52.1572667" lon="-0.8501383"><ele>132.0</ele><time>2026-05-04T12:23:34.794Z</time></trkpt><trkpt lat="52.1570467" lon="-0.8499033"><ele>132.0</ele><time>2026-05-04T12:23:35.794Z</time></trkpt><trkpt lat="52.1568267" lon="-0.84967"><ele>132.0</ele><time>2026-05-04T12:23:36.794Z</time></trkpt><trkpt lat="52.156605" lon="-0.84944"><ele>134.5</ele><time>2026-05-04T12:23:37.796Z</time></trkpt><trkpt lat="52.1563817" lon="-0.8492133"><ele>137.0</ele><time>2026-05-04T12:23:38.794Z</time></trkpt><trkpt lat="52.1561583" lon="-0.8489833"><ele>137.0</ele><time>2026-05-04T12:23:39.794Z</time></trkpt><trkpt lat="52.1559383" lon="-0.8487517"><ele>137.0</ele><time>2026-05-04T12:23:40.795Z</time></trkpt><trkpt lat="52.1557167" lon="-0.84852"><ele>137.0</ele><time>2026-05-04T12:23:41.795Z</time></trkpt><trkpt lat="52.1554917" lon="-0.8482933"><ele>137.0</ele><time>2026-05-04T12:23:42.795Z</time></trkpt><trkpt lat="52.1552717" lon="-0.8480667"><ele>137.0</ele><time>2026-05-04T12:23:43.795Z</time></trkpt><trkpt lat="52.1550517" lon="-0.84784"><ele>137.0</ele><time>2026-05-04T12:23:44.792Z</time></trkpt><trkpt lat="52.15483" lon="-0.847615"><ele>137.5</ele><time>2026-05-04T12:23:45.795Z</time></trkpt><trkpt lat="52.15461" lon="-0.847395"><ele>138.0</ele><time>2026-05-04T12:23:46.795Z</time></trkpt><trkpt lat="52.1543867" lon="-0.8471767"><ele>138.0</ele><time>2026-05-04T12:23:47.793Z</time></trkpt><trkpt lat="52.15416" lon="-0.84696"><ele>138.0</ele><time>2026-05-04T12:23:48.792Z</time></trkpt><trkpt lat="52.1539333" lon="-0.84674"><ele>136.0</ele><time>2026-05-04T12:23:49.793Z</time></trkpt><trkpt lat="52.1537083" lon="-0.846525"><ele>134.0</ele><time>2026-05-04T12:23:50.796Z</time></trkpt><trkpt lat="52.1534767" lon="-0.84631"><ele>134.0</ele><time>2026-05-04T12:23:51.79Z</time></trkpt><trkpt lat="52.1532517" lon="-0.8460933"><ele>134.0</ele><time>2026-05-04T12:23:52.794Z</time></trkpt><trkpt lat="52.1530233" lon="-0.84588"><ele>132.0</ele><time>2026-05-04T12:23:53.793Z</time></trkpt><trkpt lat="52.1527933" lon="-0.84567"><ele>130.0</ele><time>2026-05-04T12:23:54.791Z</time></trkpt><trkpt lat="52.152565" lon="-0.8454567"><ele>130.5</ele><time>2026-05-04T12:23:55.795Z</time></trkpt><trkpt lat="52.152335" lon="-0.8452433"><ele>131.0</ele><time>2026-05-04T12:23:56.795Z</time></trkpt><trkpt lat="52.1521067" lon="-0.8450283"><ele>132.0</ele><time>2026-05-04T12:23:57.794Z</time></trkpt><trkpt lat="52.1518733" lon="-0.84482"><ele>133.0</ele><time>2026-05-04T12:23:58.795Z</time></trkpt><trkpt lat="52.151645" lon="-0.8446117"><ele>132.5</ele><time>2026-05-04T12:23:59.795Z</time></trkpt><trkpt lat="52.151415" lon="-0.8443983"><ele>132.0</ele><time>2026-05-04T12:24:00.793Z</time></trkpt><trkpt lat="52.151185" lon="-0.8441883"><ele>131.5</ele><time>2026-05-04T12:24:01.793Z</time></trkpt><trkpt lat="52.150955" lon="-0.84398"><ele>131.0</ele><time>2026-05-04T12:24:02.794Z</time></trkpt><trkpt lat="52.1507233" lon="-0.8437767"><ele>131.0</ele><time>2026-05-04T12:24:03.791Z</time></trkpt><trkpt lat="52.150495" lon="-0.8435683"><ele>131.0</ele><time>2026-05-04T12:24:04.793Z</time></trkpt><trkpt lat="52.1502633" lon="-0.8433567"><ele>131.0</ele><time>2026-05-04T12:24:05.792Z</time></trkpt><trkpt lat="52.1500333" lon="-0.843145"><ele>131.0</ele><time>2026-05-04T12:24:06.793Z</time></trkpt><trkpt lat="52.1498017" lon="-0.842935"><ele>131.0</ele><time>2026-05-04T12:24:07.793Z</time></trkpt><trkpt lat="52.1495683" lon="-0.8427267"><ele>131.0</ele><time>2026-05-04T12:24:08.792Z</time></trkpt><trkpt lat="52.1493383" lon="-0.8425183"><ele>130.5</ele><time>2026-05-04T12:24:09.791Z</time></trkpt><trkpt lat="52.1491083" lon="-0.8423083"><ele>130.0</ele><time>2026-05-04T12:24:10.792Z</time></trkpt><trkpt lat="52.1488767" lon="-0.8420967"><ele>129.5</ele><time>2026-05-04T12:24:11.792Z</time></trkpt><trkpt lat="52.1486467" lon="-0.841885"><ele>129.0</ele><time>2026-05-04T12:24:12.791Z</time></trkpt><trkpt lat="52.1484167" lon="-0.8416733"><ele>127.5</ele><time>2026-05-04T12:24:13.793Z</time></trkpt><trkpt lat="52.148185" lon="-0.8414617"><ele>126.0</ele><time>2026-05-04T12:24:14.793Z</time></trkpt><trkpt lat="52.1479533" lon="-0.8412483"><ele>126.0</ele><time>2026-05-04T12:24:15.793Z</time></trkpt><trkpt lat="52.14772" lon="-0.84103"><ele>126.0</ele><time>2026-05-04T12:24:16.793Z</time></trkpt><trkpt lat="52.147485" lon="-0.8408117"><ele>124.5</ele><time>2026-05-04T12:24:17.792Z</time></trkpt><trkpt lat="52.1472467" lon="-0.840595"><ele>123.0</ele><time>2026-05-04T12:24:18.792Z</time></trkpt><trkpt lat="52.14701" lon="-0.8403817"><ele>123.0</ele><time>2026-05-04T12:24:19.793Z</time></trkpt><trkpt lat="52.1467733" lon="-0.8401683"><ele>123.0</ele><time>2026-05-04T12:24:20.792Z</time></trkpt><trkpt lat="52.14654" lon="-0.8399533"><ele>121.5</ele><time>2026-05-04T12:24:21.792Z</time></trkpt><trkpt lat="52.1463067" lon="-0.8397383"><ele>120.0</ele><time>2026-05-04T12:24:22.792Z</time></trkpt><trkpt lat="52.146075" lon="-0.839525"><ele>120.0</ele><time>2026-05-04T12:24:23.795Z</time></trkpt><trkpt lat="52.1458433" lon="-0.83931"><ele>120.0</ele><time>2026-05-04T12:24:24.792Z</time></trkpt><trkpt lat="52.14561" lon="-0.8390933"><ele>122.0</ele><time>2026-05-04T12:24:25.792Z</time></trkpt><trkpt lat="52.1453783" lon="-0.8388767"><ele>124.0</ele><time>2026-05-04T12:24:26.793Z</time></trkpt><trkpt lat="52.145145" lon="-0.83866"><ele>125.5</ele><time>2026-05-04T12:24:27.79Z</time></trkpt><trkpt lat="52.1449133" lon="-0.8384417"><ele>127.0</ele><time>2026-05-04T12:24:28.791Z</time></trkpt><trkpt lat="52.1446783" lon="-0.8382267"><ele>127.5</ele><time>2026-05-04T12:24:29.791Z</time></trkpt><trkpt lat="52.144445" lon="-0.8380133"><ele>128.0</ele><time>2026-05-04T12:24:30.791Z</time></trkpt><trkpt lat="52.14421" lon="-0.8377983"><ele>127.0</ele><time>2026-05-04T12:24:31.793Z</time></trkpt><trkpt lat="52.143975" lon="-0.8375817"><ele>126.0</ele><time>2026-05-04T12:24:32.793Z</time></trkpt><trkpt lat="52.1437417" lon="-0.8373633"><ele>126.0</ele><time>2026-05-04T12:24:33.791Z</time></trkpt><trkpt lat="52.1435083" lon="-0.8371467"><ele>126.0</ele><time>2026-05-04T12:24:34.791Z</time></trkpt><trkpt lat="52.143275" lon="-0.8369317"><ele>123.5</ele><time>2026-05-04T12:24:35.793Z</time></trkpt><trkpt lat="52.1430417" lon="-0.8367183"><ele>121.0</ele><time>2026-05-04T12:24:36.792Z</time></trkpt><trkpt lat="52.1428083" lon="-0.8365067"><ele>121.0</ele><time>2026-05-04T12:24:37.791Z</time></trkpt><trkpt lat="52.142575" lon="-0.83629"><ele>121.0</ele><time>2026-05-04T12:24:38.793Z</time></trkpt><trkpt lat="52.1423383" lon="-0.8360733"><ele>118.5</ele><time>2026-05-04T12:24:39.79Z</time></trkpt><trkpt lat="52.1420983" lon="-0.8358617"><ele>116.0</ele><time>2026-05-04T12:24:40.794Z</time></trkpt><trkpt lat="52.1418633" lon="-0.8356467"><ele>116.0</ele><time>2026-05-04T12:24:41.795Z</time></trkpt><trkpt lat="52.14163" lon="-0.8354283"><ele>116.0</ele><time>2026-05-04T12:24:42.795Z</time></trkpt><trkpt lat="52.1413967" lon="-0.83521"><ele>116.0</ele><time>2026-05-04T12:24:43.795Z</time></trkpt><trkpt lat="52.1411633" lon="-0.8349933"><ele>116.0</ele><time>2026-05-04T12:24:44.79Z</time></trkpt><trkpt lat="52.1409317" lon="-0.8347817"><ele>116.0</ele><time>2026-05-04T12:24:45.794Z</time></trkpt><trkpt lat="52.1406983" lon="-0.83457"><ele>116.0</ele><time>2026-05-04T12:24:46.791Z</time></trkpt><trkpt lat="52.1404667" lon="-0.834355"><ele>117.5</ele><time>2026-05-04T12:24:47.793Z</time></trkpt><trkpt lat="52.1402333" lon="-0.8341383"><ele>119.0</ele><time>2026-05-04T12:24:48.793Z</time></trkpt><trkpt lat="52.14" lon="-0.833925"><ele>118.5</ele><time>2026-05-04T12:24:49.791Z</time></trkpt><trkpt lat="52.1397667" lon="-0.8337133"><ele>118.0</ele><time>2026-05-04T12:24:50.791Z</time></trkpt><trkpt lat="52.1395333" lon="-0.8335017"><ele>119.0</ele><time>2026-05-04T12:24:51.792Z</time></trkpt><trkpt lat="52.1392983" lon="-0.8332883"><ele>120.0</ele><time>2026-05-04T12:24:52.793Z</time></trkpt><trkpt lat="52.139065" lon="-0.8330733"><ele>120.0</ele><time>2026-05-04T12:24:53.793Z</time></trkpt><trkpt lat="52.1388317" lon="-0.8328583"><ele>120.0</ele><time>2026-05-04T12:24:54.793Z</time></trkpt><trkpt lat="52.1386" lon="-0.8326417"><ele>120.5</ele><time>2026-05-04T12:24:55.792Z</time></trkpt><trkpt lat="52.13837" lon="-0.8324217"><ele>121.0</ele><time>2026-05-04T12:24:56.792Z</time></trkpt><trkpt lat="52.13814" lon="-0.832195"><ele>121.0</ele><time>2026-05-04T12:24:57.791Z</time></trkpt><trkpt lat="52.13791" lon="-0.831965"><ele>121.0</ele><time>2026-05-04T12:24:58.791Z</time></trkpt><trkpt lat="52.1376817" lon="-0.8317333"><ele>121.5</ele><time>2026-05-04T12:24:59.79Z</time></trkpt><trkpt lat="52.1374517" lon="-0.8314983"><ele>122.0</ele><time>2026-05-04T12:25:00.791Z</time></trkpt><trkpt lat="52.137225" lon="-0.8312617"><ele>122.0</ele><time>2026-05-04T12:25:01.792Z</time></trkpt><trkpt lat="52.137" lon="-0.831025"><ele>122.0</ele><time>2026-05-04T12:25:02.791Z</time></trkpt><trkpt lat="52.1367733" lon="-0.830785"><ele>122.5</ele><time>2026-05-04T12:25:03.794Z</time></trkpt><trkpt lat="52.1365517" lon="-0.83054"><ele>123.0</ele><time>2026-05-04T12:25:04.795Z</time></trkpt><trkpt lat="52.1363317" lon="-0.8302917"><ele>123.5</ele><time>2026-05-04T12:25:05.795Z</time></trkpt><trkpt lat="52.1361133" lon="-0.8300433"><ele>124.0</ele><time>2026-05-04T12:25:06.795Z</time></trkpt><trkpt lat="52.135895" lon="-0.82979"><ele>124.5</ele><time>2026-05-04T12:25:07.795Z</time></trkpt><trkpt lat="52.1356767" lon="-0.8295367"><ele>125.0</ele><time>2026-05-04T12:25:08.795Z</time></trkpt><trkpt lat="52.1354617" lon="-0.8292783"><ele>125.5</ele><time>2026-05-04T12:25:09.792Z</time></trkpt><trkpt lat="52.13525" lon="-0.8290183"><ele>126.0</ele><time>2026-05-04T12:25:10.795Z</time></trkpt><trkpt lat="52.1350367" lon="-0.828755"><ele>126.0</ele><time>2026-05-04T12:25:11.794Z</time></trkpt><trkpt lat="52.1348233" lon="-0.8284883"><ele>126.0</ele><time>2026-05-04T12:25:12.795Z</time></trkpt><trkpt lat="52.13461" lon="-0.8282183"><ele>126.5</ele><time>2026-05-04T12:25:13.792Z</time></trkpt><trkpt lat="52.1343983" lon="-0.827945"><ele>127.0</ele><time>2026-05-04T12:25:14.792Z</time></trkpt><trkpt lat="52.1341917" lon="-0.8276683"><ele>127.5</ele><time>2026-05-04T12:25:15.795Z</time></trkpt><trkpt lat="52.13399" lon="-0.8273883"><ele>128.0</ele><time>2026-05-04T12:25:16.792Z</time></trkpt><trkpt lat="52.1337867" lon="-0.8271067"><ele>128.0</ele><time>2026-05-04T12:25:17.793Z</time></trkpt><trkpt lat="52.13358" lon="-0.8268283"><ele>128.0</ele><time>2026-05-04T12:25:18.792Z</time></trkpt><trkpt lat="52.133375" lon="-0.8265467"><ele>126.5</ele><time>2026-05-04T12:25:19.791Z</time></trkpt><trkpt lat="52.1331717" lon="-0.82626"><ele>125.0</ele><time>2026-05-04T12:25:20.792Z</time></trkpt><trkpt lat="52.13297" lon="-0.82597"><ele>124.5</ele><time>2026-05-04T12:25:21.791Z</time></trkpt><trkpt lat="52.13277" lon="-0.825675"><ele>124.0</ele><time>2026-05-04T12:25:22.791Z</time></trkpt><trkpt lat="52.1325717" lon="-0.8253817"><ele>122.5</ele><time>2026-05-04T12:25:23.793Z</time></trkpt><trkpt lat="52.1323717" lon="-0.825085"><ele>121.0</ele><time>2026-05-04T12:25:24.795Z</time></trkpt><trkpt lat="52.132175" lon="-0.8247833"><ele>121.0</ele><time>2026-05-04T12:25:25.794Z</time></trkpt><trkpt lat="52.1319833" lon="-0.82448"><ele>121.0</ele><time>2026-05-04T12:25:26.792Z</time></trkpt><trkpt lat="52.131785" lon="-0.824175"><ele>121.0</ele><time>2026-05-04T12:25:27.796Z</time></trkpt><trkpt lat="52.13159" lon="-0.8238733"><ele>121.0</ele><time>2026-05-04T12:25:28.795Z</time></trkpt><trkpt lat="52.1313983" lon="-0.8235683"><ele>120.5</ele><time>2026-05-04T12:25:29.795Z</time></trkpt><trkpt lat="52.1312083" lon="-0.823265"><ele>120.0</ele><time>2026-05-04T12:25:30.794Z</time></trkpt><trkpt lat="52.131015" lon="-0.8229633"><ele>120.0</ele><time>2026-05-04T12:25:31.794Z</time></trkpt><trkpt lat="52.130825" lon="-0.8226583"><ele>120.0</ele><time>2026-05-04T12:25:32.794Z</time></trkpt><trkpt lat="52.1306333" lon="-0.8223567"><ele>119.5</ele><time>2026-05-04T12:25:33.795Z</time></trkpt><trkpt lat="52.13044" lon="-0.8220583"><ele>119.0</ele><time>2026-05-04T12:25:34.795Z</time></trkpt><trkpt lat="52.1302433" lon="-0.8217583"><ele>119.0</ele><time>2026-05-04T12:25:35.795Z</time></trkpt><trkpt lat="52.1300483" lon="-0.82146"><ele>119.0</ele><time>2026-05-04T12:25:36.795Z</time></trkpt><trkpt lat="52.129855" lon="-0.8211583"><ele>118.5</ele><time>2026-05-04T12:25:37.794Z</time></trkpt><trkpt lat="52.12966" lon="-0.820855"><ele>118.0</ele><time>2026-05-04T12:25:38.795Z</time></trkpt><trkpt lat="52.129465" lon="-0.82055"><ele>118.0</ele><time>2026-05-04T12:25:39.794Z</time></trkpt><trkpt lat="52.1292683" lon="-0.8202467"><ele>118.0</ele><time>2026-05-04T12:25:40.795Z</time></trkpt><trkpt lat="52.1290717" lon="-0.819945"><ele>116.0</ele><time>2026-05-04T12:25:41.795Z</time></trkpt><trkpt lat="52.1288767" lon="-0.8196433"><ele>114.0</ele><time>2026-05-04T12:25:42.792Z</time></trkpt><trkpt lat="52.12868" lon="-0.8193383"><ele>113.5</ele><time>2026-05-04T12:25:43.795Z</time></trkpt><trkpt lat="52.1284883" lon="-0.819035"><ele>113.0</ele><time>2026-05-04T12:25:44.795Z</time></trkpt><trkpt lat="52.1282967" lon="-0.8187317"><ele>113.5</ele><time>2026-05-04T12:25:45.795Z</time></trkpt><trkpt lat="52.1281067" lon="-0.81843"><ele>114.0</ele><time>2026-05-04T12:25:46.795Z</time></trkpt><trkpt lat="52.1279117" lon="-0.81813"><ele>114.0</ele><time>2026-05-04T12:25:47.795Z</time></trkpt><trkpt lat="52.1277183" lon="-0.8178333"><ele>114.0</ele><time>2026-05-04T12:25:48.794Z</time></trkpt><trkpt lat="52.127525" lon="-0.8175317"><ele>114.0</ele><time>2026-05-04T12:25:49.793Z</time></trkpt><trkpt lat="52.1273317" lon="-0.8172283"><ele>114.0</ele><time>2026-05-04T12:25:50.795Z</time></trkpt><trkpt lat="52.1271367" lon="-0.816925"><ele>113.0</ele><time>2026-05-04T12:25:51.794Z</time></trkpt><trkpt lat="52.1269433" lon="-0.8166217"><ele>112.0</ele><time>2026-05-04T12:25:52.795Z</time></trkpt><trkpt lat="52.12675" lon="-0.8163183"><ele>112.0</ele><time>2026-05-04T12:25:53.795Z</time></trkpt><trkpt lat="52.1265583" lon="-0.816015"><ele>112.0</ele><time>2026-05-04T12:25:54.793Z</time></trkpt><trkpt lat="52.1263667" lon="-0.815715"><ele>111.0</ele><time>2026-05-04T12:25:55.795Z</time></trkpt><trkpt lat="52.1261733" lon="-0.8154167"><ele>110.0</ele><time>2026-05-04T12:25:56.794Z</time></trkpt><trkpt lat="52.12598" lon="-0.815115"><ele>110.0</ele><time>2026-05-04T12:25:57.791Z</time></trkpt><trkpt lat="52.1257867" lon="-0.8148133"><ele>110.0</ele><time>2026-05-04T12:25:58.795Z</time></trkpt><trkpt lat="52.12559" lon="-0.8145083"><ele>109.0</ele><time>2026-05-04T12:25:59.795Z</time></trkpt><trkpt lat="52.1253983" lon="-0.8142033"><ele>108.0</ele><time>2026-05-04T12:26:00.794Z</time></trkpt><trkpt lat="52.125205" lon="-0.8138967"><ele>108.0</ele><time>2026-05-04T12:26:01.796Z</time></trkpt><trkpt lat="52.12501" lon="-0.8135933"><ele>108.0</ele><time>2026-05-04T12:26:02.794Z</time></trkpt><trkpt lat="52.124815" lon="-0.81329"><ele>107.0</ele><time>2026-05-04T12:26:03.795Z</time></trkpt><trkpt lat="52.1246217" lon="-0.8129883"><ele>106.0</ele><time>2026-05-04T12:26:04.795Z</time></trkpt><trkpt lat="52.12443" lon="-0.8126833"><ele>106.0</ele><time>2026-05-04T12:26:05.795Z</time></trkpt><trkpt lat="52.124235" lon="-0.8123817"><ele>106.0</ele><time>2026-05-04T12:26:06.795Z</time></trkpt><trkpt lat="52.1240417" lon="-0.8120817"><ele>105.0</ele><time>2026-05-04T12:26:07.794Z</time></trkpt><trkpt lat="52.1238483" lon="-0.8117833"><ele>104.0</ele><time>2026-05-04T12:26:08.795Z</time></trkpt><trkpt lat="52.1236533" lon="-0.8114833"><ele>104.0</ele><time>2026-05-04T12:26:09.796Z</time></trkpt><trkpt lat="52.1234583" lon="-0.8111833"><ele>104.0</ele><time>2026-05-04T12:26:10.795Z</time></trkpt><trkpt lat="52.1232633" lon="-0.810885"><ele>102.0</ele><time>2026-05-04T12:26:11.796Z</time></trkpt><trkpt lat="52.1230683" lon="-0.8105833"><ele>100.0</ele><time>2026-05-04T12:26:12.794Z</time></trkpt><trkpt lat="52.1228767" lon="-0.8102817"><ele>101.5</ele><time>2026-05-04T12:26:13.794Z</time></trkpt><trkpt lat="52.122685" lon="-0.8099783"><ele>103.0</ele><time>2026-05-04T12:26:14.796Z</time></trkpt><trkpt lat="52.12249" lon="-0.809675"><ele>101.5</ele><time>2026-05-04T12:26:15.795Z</time></trkpt><trkpt lat="52.122295" lon="-0.8093733"><ele>100.0</ele><time>2026-05-04T12:26:16.794Z</time></trkpt><trkpt lat="52.1221" lon="-0.8090717"><ele>100.0</ele><time>2026-05-04T12:26:17.795Z</time></trkpt><trkpt lat="52.1219067" lon="-0.8087667"><ele>100.0</ele><time>2026-05-04T12:26:18.795Z</time></trkpt><trkpt lat="52.1217117" lon="-0.8084633"><ele>99.0</ele><time>2026-05-04T12:26:19.796Z</time></trkpt><trkpt lat="52.1215167" lon="-0.8081633"><ele>98.0</ele><time>2026-05-04T12:26:20.795Z</time></trkpt><trkpt lat="52.12132" lon="-0.8078617"><ele>99.0</ele><time>2026-05-04T12:26:21.794Z</time></trkpt><trkpt lat="52.1211267" lon="-0.8075583"><ele>100.0</ele><time>2026-05-04T12:26:22.796Z</time></trkpt><trkpt lat="52.120935" lon="-0.807255"><ele>100.0</ele><time>2026-05-04T12:26:23.795Z</time></trkpt><trkpt lat="52.1207433" lon="-0.8069517"><ele>100.0</ele><time>2026-05-04T12:26:24.795Z</time></trkpt><trkpt lat="52.12055" lon="-0.80665"><ele>99.5</ele><time>2026-05-04T12:26:25.795Z</time></trkpt><trkpt lat="52.1203567" lon="-0.8063483"><ele>99.0</ele><time>2026-05-04T12:26:26.795Z</time></trkpt><trkpt lat="52.120165" lon="-0.8060433"><ele>99.5</ele><time>2026-05-04T12:26:27.794Z</time></trkpt><trkpt lat="52.1199717" lon="-0.8057417"><ele>100.0</ele><time>2026-05-04T12:26:28.793Z</time></trkpt><trkpt lat="52.11978" lon="-0.80544"><ele>99.0</ele><time>2026-05-04T12:26:29.794Z</time></trkpt><trkpt lat="52.1195867" lon="-0.8051383"><ele>98.0</ele><time>2026-05-04T12:26:30.794Z</time></trkpt><trkpt lat="52.119395" lon="-0.8048317"><ele>98.0</ele><time>2026-05-04T12:26:31.795Z</time></trkpt><trkpt lat="52.1192017" lon="-0.804525"><ele>98.0</ele><time>2026-05-04T12:26:32.796Z</time></trkpt><trkpt lat="52.11901" lon="-0.8042233"><ele>97.5</ele><time>2026-05-04T12:26:33.795Z</time></trkpt><trkpt lat="52.1188167" lon="-0.8039267"><ele>97.0</ele><time>2026-05-04T12:26:34.794Z</time></trkpt><trkpt lat="52.1186217" lon="-0.8036267"><ele>96.5</ele><time>2026-05-04T12:26:35.794Z</time></trkpt><trkpt lat="52.1184283" lon="-0.803325"><ele>96.0</ele><time>2026-05-04T12:26:36.794Z</time></trkpt><trkpt lat="52.118235" lon="-0.8030217"><ele>95.5</ele><time>2026-05-04T12:26:37.794Z</time></trkpt><trkpt lat="52.1180433" lon="-0.80272"><ele>95.0</ele><time>2026-05-04T12:26:38.795Z</time></trkpt><trkpt lat="52.117855" lon="-0.8024183"><ele>94.5</ele><time>2026-05-04T12:26:39.795Z</time></trkpt><trkpt lat="52.117665" lon="-0.802115"><ele>94.0</ele><time>2026-05-04T12:26:40.794Z</time></trkpt><trkpt lat="52.1174733" lon="-0.8018117"><ele>94.5</ele><time>2026-05-04T12:26:41.794Z</time></trkpt><trkpt lat="52.1172833" lon="-0.8015067"><ele>95.0</ele><time>2026-05-04T12:26:42.795Z</time></trkpt><trkpt lat="52.1170917" lon="-0.8012033"><ele>95.0</ele><time>2026-05-04T12:26:43.796Z</time></trkpt><trkpt lat="52.1169017" lon="-0.8008967"><ele>95.0</ele><time>2026-05-04T12:26:44.794Z</time></trkpt><trkpt lat="52.1167117" lon="-0.8005867"><ele>96.0</ele><time>2026-05-04T12:26:45.794Z</time></trkpt><trkpt lat="52.1165233" lon="-0.800275"><ele>97.0</ele><time>2026-05-04T12:26:46.794Z</time></trkpt><trkpt lat="52.1163367" lon="-0.7999617"><ele>98.5</ele><time>2026-05-04T12:26:47.794Z</time></trkpt><trkpt lat="52.1161517" lon="-0.799645"><ele>100.0</ele><time>2026-05-04T12:26:48.794Z</time></trkpt><trkpt lat="52.1159667" lon="-0.7993283"><ele>100.0</ele><time>2026-05-04T12:26:49.795Z</time></trkpt><trkpt lat="52.1157833" lon="-0.7990067"><ele>100.0</ele><time>2026-05-04T12:26:50.795Z</time></trkpt><trkpt lat="52.1156" lon="-0.7986867"><ele>100.0</ele><time>2026-05-04T12:26:51.792Z</time></trkpt><trkpt lat="52.1154217" lon="-0.798365"><ele>100.0</ele><time>2026-05-04T12:26:52.793Z</time></trkpt><trkpt lat="52.115245" lon="-0.7980417"><ele>100.0</ele><time>2026-05-04T12:26:53.792Z</time></trkpt><trkpt lat="52.11507" lon="-0.797715"><ele>100.0</ele><time>2026-05-04T12:26:54.792Z</time></trkpt><trkpt lat="52.1148967" lon="-0.7973867"><ele>97.5</ele><time>2026-05-04T12:26:55.793Z</time></trkpt><trkpt lat="52.114725" lon="-0.797055"><ele>95.0</ele><time>2026-05-04T12:26:56.794Z</time></trkpt><trkpt lat="52.1145567" lon="-0.79672"><ele>94.5</ele><time>2026-05-04T12:26:57.792Z</time></trkpt><trkpt lat="52.11439" lon="-0.7963833"><ele>94.0</ele><time>2026-05-04T12:26:58.792Z</time></trkpt><trkpt lat="52.1142233" lon="-0.7960417"><ele>93.5</ele><time>2026-05-04T12:26:59.791Z</time></trkpt><trkpt lat="52.114055" lon="-0.7956983"><ele>93.0</ele><time>2026-05-04T12:27:00.792Z</time></trkpt><trkpt lat="52.1138867" lon="-0.7953567"><ele>93.5</ele><time>2026-05-04T12:27:01.792Z</time></trkpt><trkpt lat="52.1137183" lon="-0.7950083"><ele>94.0</ele><time>2026-05-04T12:27:02.792Z</time></trkpt><trkpt lat="52.1135483" lon="-0.794655"><ele>93.5</ele><time>2026-05-04T12:27:03.791Z</time></trkpt><trkpt lat="52.11338" lon="-0.7942983"><ele>93.0</ele><time>2026-05-04T12:27:04.792Z</time></trkpt><trkpt lat="52.113215" lon="-0.79394"><ele>92.0</ele><time>2026-05-04T12:27:05.793Z</time></trkpt><trkpt lat="52.11305" lon="-0.7935833"><ele>91.0</ele><time>2026-05-04T12:27:06.791Z</time></trkpt><trkpt lat="52.112885" lon="-0.7932283"><ele>91.0</ele><time>2026-05-04T12:27:07.793Z</time></trkpt><trkpt lat="52.1127183" lon="-0.7928767"><ele>91.0</ele><time>2026-05-04T12:27:08.792Z</time></trkpt><trkpt lat="52.1125533" lon="-0.7925283"><ele>90.0</ele><time>2026-05-04T12:27:09.792Z</time></trkpt><trkpt lat="52.112385" lon="-0.7921783"><ele>89.0</ele><time>2026-05-04T12:27:10.793Z</time></trkpt><trkpt lat="52.1122217" lon="-0.7918267"><ele>89.0</ele><time>2026-05-04T12:27:11.793Z</time></trkpt><trkpt lat="52.1120517" lon="-0.791475"><ele>89.0</ele><time>2026-05-04T12:27:12.792Z</time></trkpt><trkpt lat="52.1118817" lon="-0.7911233"><ele>89.5</ele><time>2026-05-04T12:27:13.793Z</time></trkpt><trkpt lat="52.1117133" lon="-0.7907717"><ele>90.0</ele><time>2026-05-04T12:27:14.794Z</time></trkpt><trkpt lat="52.1115467" lon="-0.7904167"><ele>90.5</ele><time>2026-05-04T12:27:15.791Z</time></trkpt><trkpt lat="52.11138" lon="-0.790065"><ele>91.0</ele><time>2026-05-04T12:27:16.793Z</time></trkpt><trkpt lat="52.1112133" lon="-0.7897117"><ele>91.0</ele><time>2026-05-04T12:27:17.792Z</time></trkpt><trkpt lat="52.1110467" lon="-0.78936"><ele>91.0</ele><time>2026-05-04T12:27:18.792Z</time></trkpt><trkpt lat="52.11088" lon="-0.7890083"><ele>91.0</ele><time>2026-05-04T12:27:19.792Z</time></trkpt><trkpt lat="52.1107117" lon="-0.788655"><ele>91.0</ele><time>2026-05-04T12:27:20.792Z</time></trkpt><trkpt lat="52.110545" lon="-0.7883033"><ele>92.0</ele><time>2026-05-04T12:27:21.791Z</time></trkpt><trkpt lat="52.11038" lon="-0.7879533"><ele>93.0</ele><time>2026-05-04T12:27:22.791Z</time></trkpt><trkpt lat="52.110215" lon="-0.7876033"><ele>94.0</ele><time>2026-05-04T12:27:23.793Z</time></trkpt><trkpt lat="52.1100483" lon="-0.7872533"><ele>95.0</ele><time>2026-05-04T12:27:24.792Z</time></trkpt><trkpt lat="52.1098833" lon="-0.7869033"><ele>94.5</ele><time>2026-05-04T12:27:25.793Z</time></trkpt><trkpt lat="52.1097183" lon="-0.78655"><ele>94.0</ele><time>2026-05-04T12:27:26.792Z</time></trkpt><trkpt lat="52.1095517" lon="-0.7861983"><ele>96.0</ele><time>2026-05-04T12:27:27.792Z</time></trkpt><trkpt lat="52.1093867" lon="-0.7858467"><ele>98.0</ele><time>2026-05-04T12:27:28.792Z</time></trkpt><trkpt lat="52.1092217" lon="-0.7854917"><ele>97.5</ele><time>2026-05-04T12:27:29.792Z</time></trkpt><trkpt lat="52.1090567" lon="-0.78514"><ele>97.0</ele><time>2026-05-04T12:27:30.793Z</time></trkpt><trkpt lat="52.1088933" lon="-0.7847867"><ele>97.0</ele><time>2026-05-04T12:27:31.792Z</time></trkpt><trkpt lat="52.1087267" lon="-0.7844333"><ele>97.0</ele><time>2026-05-04T12:27:32.792Z</time></trkpt><trkpt lat="52.108565" lon="-0.78408"><ele>97.0</ele><time>2026-05-04T12:27:33.792Z</time></trkpt><trkpt lat="52.1084017" lon="-0.7837283"><ele>97.0</ele><time>2026-05-04T12:27:34.793Z</time></trkpt><trkpt lat="52.108235" lon="-0.7833767"><ele>97.0</ele><time>2026-05-04T12:27:35.791Z</time></trkpt><trkpt lat="52.1080667" lon="-0.7830283"><ele>97.0</ele><time>2026-05-04T12:27:36.79Z</time></trkpt><trkpt lat="52.1079" lon="-0.7826783"><ele>96.0</ele><time>2026-05-04T12:27:37.793Z</time></trkpt><trkpt lat="52.1077383" lon="-0.782325"><ele>95.0</ele><time>2026-05-04T12:27:38.791Z</time></trkpt><trkpt lat="52.10757" lon="-0.78197"><ele>94.5</ele><time>2026-05-04T12:27:39.791Z</time></trkpt><trkpt lat="52.1074017" lon="-0.7816183"><ele>94.0</ele><time>2026-05-04T12:27:40.792Z</time></trkpt><trkpt lat="52.10723" lon="-0.7812667"><ele>93.5</ele><time>2026-05-04T12:27:41.793Z</time></trkpt><trkpt lat="52.10706" lon="-0.780915"><ele>93.0</ele><time>2026-05-04T12:27:42.792Z</time></trkpt><trkpt lat="52.106895" lon="-0.7805567"><ele>93.0</ele><time>2026-05-04T12:27:43.793Z</time></trkpt><trkpt lat="52.1067283" lon="-0.7801983"><ele>93.0</ele><time>2026-05-04T12:27:44.791Z</time></trkpt><trkpt lat="52.1065583" lon="-0.7798417"><ele>93.0</ele><time>2026-05-04T12:27:45.79Z</time></trkpt><trkpt lat="52.1063883" lon="-0.7794917"><ele>93.0</ele><time>2026-05-04T12:27:46.792Z</time></trkpt><trkpt lat="52.10622" lon="-0.77914"><ele>92.5</ele><time>2026-05-04T12:27:47.791Z</time></trkpt><trkpt lat="52.1060533" lon="-0.7787867"><ele>92.0</ele><time>2026-05-04T12:27:48.792Z</time></trkpt><trkpt lat="52.1058767" lon="-0.7784417"><ele>93.0</ele><time>2026-05-04T12:27:49.793Z</time></trkpt><trkpt lat="52.1057083" lon="-0.7780917"><ele>94.0</ele><time>2026-05-04T12:27:50.792Z</time></trkpt><trkpt lat="52.1055433" lon="-0.777735"><ele>94.0</ele><time>2026-05-04T12:27:51.791Z</time></trkpt><trkpt lat="52.1053817" lon="-0.7773817"><ele>94.0</ele><time>2026-05-04T12:27:52.793Z</time></trkpt><trkpt lat="52.1052167" lon="-0.7770267"><ele>93.0</ele><time>2026-05-04T12:27:53.792Z</time></trkpt><trkpt lat="52.1050517" lon="-0.77667"><ele>92.0</ele><time>2026-05-04T12:27:54.791Z</time></trkpt><trkpt lat="52.1048883" lon="-0.7763183"><ele>90.0</ele><time>2026-05-04T12:27:55.792Z</time></trkpt><trkpt lat="52.10472" lon="-0.7759667"><ele>88.0</ele><time>2026-05-04T12:27:56.793Z</time></trkpt><trkpt lat="52.1045467" lon="-0.7756133"><ele>88.0</ele><time>2026-05-04T12:27:57.792Z</time></trkpt><trkpt lat="52.104375" lon="-0.7752633"><ele>88.0</ele><time>2026-05-04T12:27:58.793Z</time></trkpt><trkpt lat="52.1042067" lon="-0.7749117"><ele>88.0</ele><time>2026-05-04T12:27:59.795Z</time></trkpt><trkpt lat="52.1040367" lon="-0.7745617"><ele>88.0</ele><time>2026-05-04T12:28:00.794Z</time></trkpt><trkpt lat="52.10387" lon="-0.7742083"><ele>88.0</ele><time>2026-05-04T12:28:01.792Z</time></trkpt><trkpt lat="52.1037017" lon="-0.7738583"><ele>88.0</ele><time>2026-05-04T12:28:02.793Z</time></trkpt><trkpt lat="52.1035367" lon="-0.7735083"><ele>88.0</ele><time>2026-05-04T12:28:03.796Z</time></trkpt><trkpt lat="52.10337" lon="-0.7731567"><ele>88.0</ele><time>2026-05-04T12:28:04.795Z</time></trkpt><trkpt lat="52.1032067" lon="-0.7728117"><ele>87.0</ele><time>2026-05-04T12:28:05.795Z</time></trkpt><trkpt lat="52.1030417" lon="-0.7724733"><ele>86.0</ele><time>2026-05-04T12:28:06.792Z</time></trkpt><trkpt lat="52.10287" lon="-0.7721317"><ele>86.0</ele><time>2026-05-04T12:28:07.796Z</time></trkpt><trkpt lat="52.1026983" lon="-0.771785"><ele>86.0</ele><time>2026-05-04T12:28:08.79Z</time></trkpt><trkpt lat="52.1025267" lon="-0.771435"><ele>87.0</ele><time>2026-05-04T12:28:09.791Z</time></trkpt><trkpt lat="52.1023583" lon="-0.7710833"><ele>88.0</ele><time>2026-05-04T12:28:10.791Z</time></trkpt><trkpt lat="52.10219" lon="-0.770735"><ele>88.5</ele><time>2026-05-04T12:28:11.794Z</time></trkpt><trkpt lat="52.1020217" lon="-0.77039"><ele>89.0</ele><time>2026-05-04T12:28:12.792Z</time></trkpt><trkpt lat="52.101855" lon="-0.7700517"><ele>89.5</ele><time>2026-05-04T12:28:13.793Z</time></trkpt><trkpt lat="52.1016867" lon="-0.7697133"><ele>90.0</ele><time>2026-05-04T12:28:14.792Z</time></trkpt><trkpt lat="52.1015167" lon="-0.76938"><ele>94.0</ele><time>2026-05-04T12:28:15.794Z</time></trkpt><trkpt lat="52.10134" lon="-0.7690517"><ele>98.0</ele><time>2026-05-04T12:28:16.793Z</time></trkpt><trkpt lat="52.1011617" lon="-0.7687283"><ele>96.5</ele><time>2026-05-04T12:28:17.793Z</time></trkpt><trkpt lat="52.1009817" lon="-0.7684083"><ele>95.0</ele><time>2026-05-04T12:28:18.793Z</time></trkpt><trkpt lat="52.1007933" lon="-0.76809"><ele>94.5</ele><time>2026-05-04T12:28:19.792Z</time></trkpt><trkpt lat="52.1006033" lon="-0.7677683"><ele>94.0</ele><time>2026-05-04T12:28:20.793Z</time></trkpt><trkpt lat="52.1004133" lon="-0.7674467"><ele>93.0</ele><time>2026-05-04T12:28:21.793Z</time></trkpt><trkpt lat="52.100225" lon="-0.767125"><ele>92.0</ele><time>2026-05-04T12:28:22.793Z</time></trkpt><trkpt lat="52.100035" lon="-0.7668017"><ele>92.0</ele><time>2026-05-04T12:28:23.793Z</time></trkpt><trkpt lat="52.0998417" lon="-0.76648"><ele>92.0</ele><time>2026-05-04T12:28:24.793Z</time></trkpt><trkpt lat="52.0996467" lon="-0.766165"><ele>90.5</ele><time>2026-05-04T12:28:25.792Z</time></trkpt><trkpt lat="52.0994517" lon="-0.7658533"><ele>89.0</ele><time>2026-05-04T12:28:26.792Z</time></trkpt><trkpt lat="52.0992583" lon="-0.765545"><ele>88.0</ele><time>2026-05-04T12:28:27.792Z</time></trkpt><trkpt lat="52.099065" lon="-0.7652383"><ele>87.0</ele><time>2026-05-04T12:28:28.793Z</time></trkpt><trkpt lat="52.09887" lon="-0.7649333"><ele>87.0</ele><time>2026-05-04T12:28:29.792Z</time></trkpt><trkpt lat="52.0986717" lon="-0.7646283"><ele>87.0</ele><time>2026-05-04T12:28:30.792Z</time></trkpt><trkpt lat="52.0984633" lon="-0.764325"><ele>87.0</ele><time>2026-05-04T12:28:31.794Z</time></trkpt><trkpt lat="52.098255" lon="-0.76402"><ele>87.0</ele><time>2026-05-04T12:28:32.793Z</time></trkpt><trkpt lat="52.0980367" lon="-0.763715"><ele>84.0</ele><time>2026-05-04T12:28:33.792Z</time></trkpt><trkpt lat="52.0978167" lon="-0.7634133"><ele>81.0</ele><time>2026-05-04T12:28:34.792Z</time></trkpt><trkpt lat="52.0975983" lon="-0.76311"><ele>79.5</ele><time>2026-05-04T12:28:35.794Z</time></trkpt><trkpt lat="52.0973833" lon="-0.762815"><ele>78.0</ele><time>2026-05-04T12:28:36.793Z</time></trkpt><trkpt lat="52.0971617" lon="-0.76253"><ele>77.5</ele><time>2026-05-04T12:28:37.795Z</time></trkpt><trkpt lat="52.09694" lon="-0.7622483"><ele>77.0</ele><time>2026-05-04T12:28:38.792Z</time></trkpt><trkpt lat="52.0967183" lon="-0.76197"><ele>73.0</ele><time>2026-05-04T12:28:39.795Z</time></trkpt><trkpt lat="52.0964983" lon="-0.7616933"><ele>69.0</ele><time>2026-05-04T12:28:40.794Z</time></trkpt><trkpt lat="52.09627" lon="-0.761425"><ele>69.0</ele><time>2026-05-04T12:28:41.795Z</time></trkpt><trkpt lat="52.0960483" lon="-0.761155"><ele>69.0</ele><time>2026-05-04T12:28:42.794Z</time></trkpt><trkpt lat="52.0958233" lon="-0.760885"><ele>65.5</ele><time>2026-05-04T12:28:43.795Z</time></trkpt><trkpt lat="52.0955933" lon="-0.7606117"><ele>62.0</ele><time>2026-05-04T12:28:44.792Z</time></trkpt><trkpt lat="52.0953617" lon="-0.7603417"><ele>62.5</ele><time>2026-05-04T12:28:45.795Z</time></trkpt><trkpt lat="52.0951267" lon="-0.7600767"><ele>63.0</ele><time>2026-05-04T12:28:46.791Z</time></trkpt><trkpt lat="52.0948917" lon="-0.759815"><ele>62.0</ele><time>2026-05-04T12:28:47.794Z</time></trkpt><trkpt lat="52.094655" lon="-0.7595567"><ele>61.0</ele><time>2026-05-04T12:28:48.792Z</time></trkpt><trkpt lat="52.09442" lon="-0.759305"><ele>61.0</ele><time>2026-05-04T12:28:49.792Z</time></trkpt><trkpt lat="52.0941833" lon="-0.7590583"><ele>61.0</ele><time>2026-05-04T12:28:50.793Z</time></trkpt><trkpt lat="52.0939467" lon="-0.7588217"><ele>61.5</ele><time>2026-05-04T12:28:51.791Z</time></trkpt><trkpt lat="52.0937133" lon="-0.7585933"><ele>62.0</ele><time>2026-05-04T12:28:52.791Z</time></trkpt><trkpt lat="52.09348" lon="-0.7583683"><ele>60.5</ele><time>2026-05-04T12:28:53.793Z</time></trkpt><trkpt lat="52.093245" lon="-0.758145"><ele>59.0</ele><time>2026-05-04T12:28:54.792Z</time></trkpt><trkpt lat="52.093005" lon="-0.7579267"><ele>59.0</ele><time>2026-05-04T12:28:55.793Z</time></trkpt><trkpt lat="52.0927667" lon="-0.75771"><ele>59.0</ele><time>2026-05-04T12:28:56.793Z</time></trkpt><trkpt lat="52.0925267" lon="-0.7574983"><ele>58.5</ele><time>2026-05-04T12:28:57.791Z</time></trkpt><trkpt lat="52.092285" lon="-0.7572867"><ele>58.0</ele><time>2026-05-04T12:28:58.795Z</time></trkpt><trkpt lat="52.0920433" lon="-0.75708"><ele>59.0</ele><time>2026-05-04T12:28:59.795Z</time></trkpt><trkpt lat="52.091805" lon="-0.756865"><ele>60.0</ele><time>2026-05-04T12:29:00.795Z</time></trkpt><trkpt lat="52.0915683" lon="-0.7566533"><ele>60.0</ele><time>2026-05-04T12:29:01.794Z</time></trkpt><trkpt lat="52.0913283" lon="-0.7564383"><ele>60.0</ele><time>2026-05-04T12:29:02.792Z</time></trkpt><trkpt lat="52.0910883" lon="-0.7562283"><ele>60.5</ele><time>2026-05-04T12:29:03.793Z</time></trkpt><trkpt lat="52.09085" lon="-0.7560183"><ele>61.0</ele><time>2026-05-04T12:29:04.795Z</time></trkpt><trkpt lat="52.0906083" lon="-0.7558067"><ele>62.0</ele><time>2026-05-04T12:29:05.794Z</time></trkpt><trkpt lat="52.0903667" lon="-0.7555967"><ele>63.0</ele><time>2026-05-04T12:29:06.795Z</time></trkpt><trkpt lat="52.0901267" lon="-0.7553833"><ele>64.0</ele><time>2026-05-04T12:29:07.796Z</time></trkpt><trkpt lat="52.089885" lon="-0.75517"><ele>65.0</ele><time>2026-05-04T12:29:08.794Z</time></trkpt><trkpt lat="52.089645" lon="-0.7549583"><ele>65.0</ele><time>2026-05-04T12:29:09.793Z</time></trkpt><trkpt lat="52.089405" lon="-0.7547467"><ele>65.0</ele><time>2026-05-04T12:29:10.794Z</time></trkpt><trkpt lat="52.0891633" lon="-0.7545383"><ele>65.0</ele><time>2026-05-04T12:29:11.792Z</time></trkpt><trkpt lat="52.08892" lon="-0.7543283"><ele>65.0</ele><time>2026-05-04T12:29:12.791Z</time></trkpt><trkpt lat="52.0886783" lon="-0.7541183"><ele>65.0</ele><time>2026-05-04T12:29:13.793Z</time></trkpt><trkpt lat="52.0884383" lon="-0.75391"><ele>65.0</ele><time>2026-05-04T12:29:14.792Z</time></trkpt><trkpt lat="52.0882" lon="-0.7536983"><ele>65.5</ele><time>2026-05-04T12:29:15.795Z</time></trkpt><trkpt lat="52.08796" lon="-0.7534867"><ele>66.0</ele><time>2026-05-04T12:29:16.795Z</time></trkpt><trkpt lat="52.0877233" lon="-0.753275"><ele>66.0</ele><time>2026-05-04T12:29:17.794Z</time></trkpt><trkpt lat="52.0874833" lon="-0.7530633"><ele>66.0</ele><time>2026-05-04T12:29:18.793Z</time></trkpt><trkpt lat="52.0872433" lon="-0.7528517"><ele>66.0</ele><time>2026-05-04T12:29:19.792Z</time></trkpt><trkpt lat="52.087005" lon="-0.7526367"><ele>66.0</ele><time>2026-05-04T12:29:20.792Z</time></trkpt><trkpt lat="52.086765" lon="-0.7524217"><ele>65.5</ele><time>2026-05-04T12:29:21.795Z</time></trkpt><trkpt lat="52.0865233" lon="-0.7522083"><ele>65.0</ele><time>2026-05-04T12:29:22.795Z</time></trkpt><trkpt lat="52.0862817" lon="-0.7519933"><ele>65.5</ele><time>2026-05-04T12:29:23.794Z</time></trkpt><trkpt lat="52.0860433" lon="-0.75177"><ele>66.0</ele><time>2026-05-04T12:29:24.796Z</time></trkpt><trkpt lat="52.0858083" lon="-0.7515367"><ele>65.5</ele><time>2026-05-04T12:29:25.795Z</time></trkpt><trkpt lat="52.0855767" lon="-0.7512983"><ele>65.0</ele><time>2026-05-04T12:29:26.795Z</time></trkpt><trkpt lat="52.0853483" lon="-0.7510533"><ele>66.0</ele><time>2026-05-04T12:29:27.795Z</time></trkpt><trkpt lat="52.0851233" lon="-0.7508033"><ele>67.0</ele><time>2026-05-04T12:29:28.795Z</time></trkpt><trkpt lat="52.0849" lon="-0.7505467"><ele>68.0</ele><time>2026-05-04T12:29:29.795Z</time></trkpt><trkpt lat="52.0846817" lon="-0.7502833"><ele>69.0</ele><time>2026-05-04T12:29:30.792Z</time></trkpt><trkpt lat="52.084465" lon="-0.7500133"><ele>69.0</ele><time>2026-05-04T12:29:31.795Z</time></trkpt><trkpt lat="52.0842517" lon="-0.7497383"><ele>69.0</ele><time>2026-05-04T12:29:32.791Z</time></trkpt><trkpt lat="52.0840367" lon="-0.7494617"><ele>70.5</ele><time>2026-05-04T12:29:33.792Z</time></trkpt><trkpt lat="52.0838267" lon="-0.7491783"><ele>72.0</ele><time>2026-05-04T12:29:34.792Z</time></trkpt><trkpt lat="52.0836233" lon="-0.7488833"><ele>72.0</ele><time>2026-05-04T12:29:35.794Z</time></trkpt><trkpt lat="52.0834217" lon="-0.7485817"><ele>72.0</ele><time>2026-05-04T12:29:36.793Z</time></trkpt><trkpt lat="52.083225" lon="-0.7482783"><ele>71.5</ele><time>2026-05-04T12:29:37.795Z</time></trkpt><trkpt lat="52.08303" lon="-0.7479683"><ele>71.0</ele><time>2026-05-04T12:29:38.794Z</time></trkpt><trkpt lat="52.082835" lon="-0.7476567"><ele>70.5</ele><time>2026-05-04T12:29:39.795Z</time></trkpt><trkpt lat="52.08264" lon="-0.7473417"><ele>70.0</ele><time>2026-05-04T12:29:40.792Z</time></trkpt><trkpt lat="52.0824567" lon="-0.7470217"><ele>69.5</ele><time>2026-05-04T12:29:41.795Z</time></trkpt><trkpt lat="52.0822733" lon="-0.7467017"><ele>69.0</ele><time>2026-05-04T12:29:42.795Z</time></trkpt><trkpt lat="52.0820867" lon="-0.74639"><ele>69.0</ele><time>2026-05-04T12:29:43.796Z</time></trkpt><trkpt lat="52.0818967" lon="-0.746085"><ele>69.0</ele><time>2026-05-04T12:29:44.793Z</time></trkpt><trkpt lat="52.08171" lon="-0.745775"><ele>68.5</ele><time>2026-05-04T12:29:45.795Z</time></trkpt><trkpt lat="52.0815233" lon="-0.74546"><ele>68.0</ele><time>2026-05-04T12:29:46.794Z</time></trkpt><trkpt lat="52.0813417" lon="-0.7451417"><ele>68.0</ele><time>2026-05-04T12:29:47.792Z</time></trkpt><trkpt lat="52.0811567" lon="-0.7448217"><ele>68.0</ele><time>2026-05-04T12:29:48.791Z</time></trkpt><trkpt lat="52.0809733" lon="-0.744505"><ele>68.5</ele><time>2026-05-04T12:29:49.792Z</time></trkpt><trkpt lat="52.0807883" lon="-0.74419"><ele>69.0</ele><time>2026-05-04T12:29:50.791Z</time></trkpt><trkpt lat="52.080605" lon="-0.7438733"><ele>68.5</ele><time>2026-05-04T12:29:51.792Z</time></trkpt><trkpt lat="52.08042" lon="-0.7435567"><ele>68.0</ele><time>2026-05-04T12:29:52.792Z</time></trkpt><trkpt lat="52.0802367" lon="-0.743235"><ele>68.0</ele><time>2026-05-04T12:29:53.791Z</time></trkpt><trkpt lat="52.0800533" lon="-0.7429133"><ele>68.0</ele><time>2026-05-04T12:29:54.791Z</time></trkpt><trkpt lat="52.0798717" lon="-0.742595"><ele>69.0</ele><time>2026-05-04T12:29:55.793Z</time></trkpt><trkpt lat="52.07969" lon="-0.7422767"><ele>70.0</ele><time>2026-05-04T12:29:56.792Z</time></trkpt><trkpt lat="52.0795083" lon="-0.74196"><ele>70.0</ele><time>2026-05-04T12:29:57.791Z</time></trkpt><trkpt lat="52.0793267" lon="-0.7416417"><ele>70.0</ele><time>2026-05-04T12:29:58.792Z</time></trkpt><trkpt lat="52.0791417" lon="-0.7413233"><ele>70.5</ele><time>2026-05-04T12:29:59.792Z</time></trkpt><trkpt lat="52.078955" lon="-0.7410017"><ele>71.0</ele><time>2026-05-04T12:30:00.792Z</time></trkpt><trkpt lat="52.0787683" lon="-0.74068"><ele>71.0</ele><time>2026-05-04T12:30:01.792Z</time></trkpt><trkpt lat="52.078585" lon="-0.7403633"><ele>71.0</ele><time>2026-05-04T12:30:02.791Z</time></trkpt><trkpt lat="52.0784017" lon="-0.7400483"><ele>70.5</ele><time>2026-05-04T12:30:03.791Z</time></trkpt><trkpt lat="52.078215" lon="-0.7397283"><ele>70.0</ele><time>2026-05-04T12:30:04.792Z</time></trkpt><trkpt lat="52.0780333" lon="-0.7394067"><ele>70.0</ele><time>2026-05-04T12:30:05.792Z</time></trkpt><trkpt lat="52.0778517" lon="-0.73909"><ele>70.0</ele><time>2026-05-04T12:30:06.791Z</time></trkpt><trkpt lat="52.0776683" lon="-0.7387717"><ele>70.5</ele><time>2026-05-04T12:30:07.791Z</time></trkpt><trkpt lat="52.077485" lon="-0.73845"><ele>71.0</ele><time>2026-05-04T12:30:08.791Z</time></trkpt><trkpt lat="52.0773033" lon="-0.73813"><ele>72.5</ele><time>2026-05-04T12:30:09.792Z</time></trkpt><trkpt lat="52.0771233" lon="-0.73781"><ele>74.0</ele><time>2026-05-04T12:30:10.792Z</time></trkpt><trkpt lat="52.0769417" lon="-0.7374917"><ele>74.0</ele><time>2026-05-04T12:30:11.792Z</time></trkpt><trkpt lat="52.07676" lon="-0.7371717"><ele>74.0</ele><time>2026-05-04T12:30:12.791Z</time></trkpt><trkpt lat="52.07658" lon="-0.73685"><ele>73.5</ele><time>2026-05-04T12:30:13.796Z</time></trkpt><trkpt lat="52.0764" lon="-0.736525"><ele>73.0</ele><time>2026-05-04T12:30:14.791Z</time></trkpt><trkpt lat="52.07622" lon="-0.7361983"><ele>71.0</ele><time>2026-05-04T12:30:15.79Z</time></trkpt><trkpt lat="52.0760417" lon="-0.73587"><ele>69.0</ele><time>2026-05-04T12:30:16.791Z</time></trkpt><trkpt lat="52.0758633" lon="-0.73554"><ele>68.5</ele><time>2026-05-04T12:30:17.791Z</time></trkpt><trkpt lat="52.0756883" lon="-0.7352117"><ele>68.0</ele><time>2026-05-04T12:30:18.79Z</time></trkpt><trkpt lat="52.075515" lon="-0.73488"><ele>68.0</ele><time>2026-05-04T12:30:19.792Z</time></trkpt><trkpt lat="52.07534" lon="-0.7345483"><ele>68.0</ele><time>2026-05-04T12:30:20.791Z</time></trkpt><trkpt lat="52.075165" lon="-0.734215"><ele>67.5</ele><time>2026-05-04T12:30:21.795Z</time></trkpt><trkpt lat="52.07499" lon="-0.7338833"><ele>67.0</ele><time>2026-05-04T12:30:22.792Z</time></trkpt><trkpt lat="52.0748167" lon="-0.7335533"><ele>65.5</ele><time>2026-05-04T12:30:23.793Z</time></trkpt><trkpt lat="52.074645" lon="-0.7332233"><ele>64.0</ele><time>2026-05-04T12:30:24.792Z</time></trkpt><trkpt lat="52.0744717" lon="-0.7328933"><ele>64.5</ele><time>2026-05-04T12:30:25.794Z</time></trkpt><trkpt lat="52.0742983" lon="-0.7325633"><ele>65.0</ele><time>2026-05-04T12:30:26.792Z</time></trkpt><trkpt lat="52.074125" lon="-0.73223"><ele>65.0</ele><time>2026-05-04T12:30:27.791Z</time></trkpt><trkpt lat="52.0739533" lon="-0.7318967"><ele>65.0</ele><time>2026-05-04T12:30:28.792Z</time></trkpt><trkpt lat="52.0737833" lon="-0.7315667"><ele>65.0</ele><time>2026-05-04T12:30:29.792Z</time></trkpt><trkpt lat="52.07361" lon="-0.731235"><ele>65.0</ele><time>2026-05-04T12:30:30.791Z</time></trkpt><trkpt lat="52.0734367" lon="-0.7309017"><ele>66.0</ele><time>2026-05-04T12:30:31.792Z</time></trkpt><trkpt lat="52.073265" lon="-0.7305667"><ele>67.0</ele><time>2026-05-04T12:30:32.792Z</time></trkpt><trkpt lat="52.0730917" lon="-0.7302317"><ele>66.5</ele><time>2026-05-04T12:30:33.792Z</time></trkpt><trkpt lat="52.0729183" lon="-0.7299017"><ele>66.0</ele><time>2026-05-04T12:30:34.794Z</time></trkpt><trkpt lat="52.0727433" lon="-0.7295683"><ele>65.0</ele><time>2026-05-04T12:30:35.791Z</time></trkpt><trkpt lat="52.072565" lon="-0.7292333"><ele>64.0</ele><time>2026-05-04T12:30:36.794Z</time></trkpt><trkpt lat="52.0723833" lon="-0.7289033"><ele>64.0</ele><time>2026-05-04T12:30:37.793Z</time></trkpt><trkpt lat="52.07221" lon="-0.7285767"><ele>64.0</ele><time>2026-05-04T12:30:38.794Z</time></trkpt><trkpt lat="52.0720367" lon="-0.7282417"><ele>63.5</ele><time>2026-05-04T12:30:39.794Z</time></trkpt><trkpt lat="52.0718633" lon="-0.7279117"><ele>63.0</ele><time>2026-05-04T12:30:40.793Z</time></trkpt><trkpt lat="52.0716883" lon="-0.7275817"><ele>63.5</ele><time>2026-05-04T12:30:41.795Z</time></trkpt><trkpt lat="52.0715117" lon="-0.7272517"><ele>64.0</ele><time>2026-05-04T12:30:42.792Z</time></trkpt><trkpt lat="52.0713383" lon="-0.72692"><ele>65.0</ele><time>2026-05-04T12:30:43.793Z</time></trkpt><trkpt lat="52.0711633" lon="-0.7265883"><ele>66.0</ele><time>2026-05-04T12:30:44.792Z</time></trkpt><trkpt lat="52.07099" lon="-0.7262567"><ele>66.5</ele><time>2026-05-04T12:30:45.792Z</time></trkpt><trkpt lat="52.070815" lon="-0.725925"><ele>67.0</ele><time>2026-05-04T12:30:46.793Z</time></trkpt><trkpt lat="52.07064" lon="-0.7255933"><ele>67.5</ele><time>2026-05-04T12:30:47.798Z</time></trkpt><trkpt lat="52.0704667" lon="-0.7252617"><ele>68.0</ele><time>2026-05-04T12:30:48.792Z</time></trkpt><trkpt lat="52.070295" lon="-0.72493"><ele>68.0</ele><time>2026-05-04T12:30:49.795Z</time></trkpt><trkpt lat="52.0701233" lon="-0.7245983"><ele>68.0</ele><time>2026-05-04T12:30:50.795Z</time></trkpt><trkpt lat="52.06995" lon="-0.724265"><ele>69.0</ele><time>2026-05-04T12:30:51.791Z</time></trkpt><trkpt lat="52.0697783" lon="-0.723935"><ele>70.0</ele><time>2026-05-04T12:30:52.792Z</time></trkpt><trkpt lat="52.069605" lon="-0.723605"><ele>67.5</ele><time>2026-05-04T12:30:53.793Z</time></trkpt><trkpt lat="52.0694367" lon="-0.723275"><ele>65.0</ele><time>2026-05-04T12:30:54.792Z</time></trkpt><trkpt lat="52.0692667" lon="-0.7229433"><ele>66.5</ele><time>2026-05-04T12:30:55.791Z</time></trkpt><trkpt lat="52.069095" lon="-0.72261"><ele>68.0</ele><time>2026-05-04T12:30:56.793Z</time></trkpt><trkpt lat="52.0689217" lon="-0.7222767"><ele>68.0</ele><time>2026-05-04T12:30:57.792Z</time></trkpt><trkpt lat="52.068745" lon="-0.721945"><ele>68.0</ele><time>2026-05-04T12:30:58.792Z</time></trkpt><trkpt lat="52.0685683" lon="-0.7216117"><ele>67.5</ele><time>2026-05-04T12:30:59.792Z</time></trkpt><trkpt lat="52.06839" lon="-0.7212783"><ele>67.0</ele><time>2026-05-04T12:31:00.798Z</time></trkpt><trkpt lat="52.068215" lon="-0.7209433"><ele>68.5</ele><time>2026-05-04T12:31:01.795Z</time></trkpt><trkpt lat="52.068045" lon="-0.7206067"><ele>70.0</ele><time>2026-05-04T12:31:02.791Z</time></trkpt><trkpt lat="52.0678767" lon="-0.7202667"><ele>68.5</ele><time>2026-05-04T12:31:03.793Z</time></trkpt><trkpt lat="52.067705" lon="-0.719935"><ele>67.0</ele><time>2026-05-04T12:31:04.791Z</time></trkpt><trkpt lat="52.0675317" lon="-0.7196017"><ele>68.5</ele><time>2026-05-04T12:31:05.792Z</time></trkpt><trkpt lat="52.06736" lon="-0.7192633"><ele>70.0</ele><time>2026-05-04T12:31:06.792Z</time></trkpt><trkpt lat="52.0671933" lon="-0.7189283"><ele>70.0</ele><time>2026-05-04T12:31:07.791Z</time></trkpt><trkpt lat="52.0670217" lon="-0.7185917"><ele>70.0</ele><time>2026-05-04T12:31:08.792Z</time></trkpt><trkpt lat="52.06685" lon="-0.7182583"><ele>69.0</ele><time>2026-05-04T12:31:09.791Z</time></trkpt><trkpt lat="52.066675" lon="-0.7179233"><ele>68.0</ele><time>2026-05-04T12:31:10.795Z</time></trkpt><trkpt lat="52.0665017" lon="-0.7175867"><ele>68.0</ele><time>2026-05-04T12:31:11.795Z</time></trkpt><trkpt lat="52.0663317" lon="-0.7172483"><ele>68.0</ele><time>2026-05-04T12:31:12.792Z</time></trkpt><trkpt lat="52.0661633" lon="-0.7169083"><ele>67.5</ele><time>2026-05-04T12:31:13.794Z</time></trkpt><trkpt lat="52.0659983" lon="-0.7165633"><ele>67.0</ele><time>2026-05-04T12:31:14.794Z</time></trkpt><trkpt lat="52.0658367" lon="-0.716215"><ele>66.5</ele><time>2026-05-04T12:31:15.795Z</time></trkpt><trkpt lat="52.0656767" lon="-0.7158667"><ele>66.0</ele><time>2026-05-04T12:31:16.792Z</time></trkpt><trkpt lat="52.06552" lon="-0.71552"><ele>65.5</ele><time>2026-05-04T12:31:17.797Z</time></trkpt><trkpt lat="52.0653633" lon="-0.715175"><ele>65.0</ele><time>2026-05-04T12:31:18.791Z</time></trkpt><trkpt lat="52.065205" lon="-0.7148233"><ele>65.0</ele><time>2026-05-04T12:31:19.791Z</time></trkpt><trkpt lat="52.0650467" lon="-0.71447"><ele>65.0</ele><time>2026-05-04T12:31:20.792Z</time></trkpt><trkpt lat="52.06489" lon="-0.7141133"><ele>64.5</ele><time>2026-05-04T12:31:21.792Z</time></trkpt><trkpt lat="52.0647333" lon="-0.713755"><ele>64.0</ele><time>2026-05-04T12:31:22.793Z</time></trkpt><trkpt lat="52.06458" lon="-0.713395"><ele>63.5</ele><time>2026-05-04T12:31:23.791Z</time></trkpt><trkpt lat="52.0644267" lon="-0.7130367"><ele>63.0</ele><time>2026-05-04T12:31:24.792Z</time></trkpt><trkpt lat="52.064275" lon="-0.712675"><ele>62.0</ele><time>2026-05-04T12:31:25.79Z</time></trkpt><trkpt lat="52.0641233" lon="-0.7123117"><ele>61.0</ele><time>2026-05-04T12:31:26.791Z</time></trkpt><trkpt lat="52.063975" lon="-0.7119533"><ele>60.0</ele><time>2026-05-04T12:31:27.792Z</time></trkpt><trkpt lat="52.06383" lon="-0.7115933"><ele>59.0</ele><time>2026-05-04T12:31:28.792Z</time></trkpt><trkpt lat="52.0636833" lon="-0.7112383"><ele>59.0</ele><time>2026-05-04T12:31:29.793Z</time></trkpt><trkpt lat="52.0635333" lon="-0.7108833"><ele>59.0</ele><time>2026-05-04T12:31:30.792Z</time></trkpt><trkpt lat="52.0633783" lon="-0.710525"><ele>60.0</ele><time>2026-05-04T12:31:31.792Z</time></trkpt><trkpt lat="52.0632217" lon="-0.7101683"><ele>61.0</ele><time>2026-05-04T12:31:32.792Z</time></trkpt><trkpt lat="52.0630683" lon="-0.709815"><ele>61.0</ele><time>2026-05-04T12:31:33.79Z</time></trkpt><trkpt lat="52.0629183" lon="-0.7094633"><ele>61.0</ele><time>2026-05-04T12:31:34.791Z</time></trkpt><trkpt lat="52.062765" lon="-0.7091067"><ele>61.0</ele><time>2026-05-04T12:31:35.793Z</time></trkpt><trkpt lat="52.062605" lon="-0.7087483"><ele>61.0</ele><time>2026-05-04T12:31:36.794Z</time></trkpt><trkpt lat="52.0624483" lon="-0.70839"><ele>61.0</ele><time>2026-05-04T12:31:37.792Z</time></trkpt><trkpt lat="52.0622917" lon="-0.7080317"><ele>61.0</ele><time>2026-05-04T12:31:38.792Z</time></trkpt><trkpt lat="52.062135" lon="-0.7076733"><ele>61.0</ele><time>2026-05-04T12:31:39.795Z</time></trkpt><trkpt lat="52.0619783" lon="-0.7073233"><ele>61.0</ele><time>2026-05-04T12:31:40.795Z</time></trkpt><trkpt lat="52.06182" lon="-0.7069733"><ele>60.5</ele><time>2026-05-04T12:31:41.791Z</time></trkpt><trkpt lat="52.0616633" lon="-0.7066233"><ele>60.0</ele><time>2026-05-04T12:31:42.791Z</time></trkpt><trkpt lat="52.0615017" lon="-0.7062683"><ele>60.0</ele><time>2026-05-04T12:31:43.794Z</time></trkpt><trkpt lat="52.0613433" lon="-0.7059117"><ele>60.0</ele><time>2026-05-04T12:31:44.792Z</time></trkpt><trkpt lat="52.061185" lon="-0.7055533"><ele>60.0</ele><time>2026-05-04T12:31:45.792Z</time></trkpt><trkpt lat="52.0610283" lon="-0.7051983"><ele>60.0</ele><time>2026-05-04T12:31:46.791Z</time></trkpt><trkpt lat="52.0608733" lon="-0.7048417"><ele>60.0</ele><time>2026-05-04T12:31:47.793Z</time></trkpt><trkpt lat="52.06072" lon="-0.7044867"><ele>60.0</ele><time>2026-05-04T12:31:48.795Z</time></trkpt><trkpt lat="52.06057" lon="-0.70413"><ele>61.0</ele><time>2026-05-04T12:31:49.795Z</time></trkpt><trkpt lat="52.0604183" lon="-0.703775"><ele>62.0</ele><time>2026-05-04T12:31:50.794Z</time></trkpt><trkpt lat="52.0602683" lon="-0.7034167"><ele>62.5</ele><time>2026-05-04T12:31:51.795Z</time></trkpt><trkpt lat="52.06012" lon="-0.7030583"><ele>63.0</ele><time>2026-05-04T12:31:52.792Z</time></trkpt><trkpt lat="52.0599683" lon="-0.7027"><ele>64.5</ele><time>2026-05-04T12:31:53.792Z</time></trkpt><trkpt lat="52.0598167" lon="-0.7023433"><ele>66.0</ele><time>2026-05-04T12:31:54.791Z</time></trkpt><trkpt lat="52.059665" lon="-0.701985"><ele>65.0</ele><time>2026-05-04T12:31:55.792Z</time></trkpt><trkpt lat="52.0595117" lon="-0.7016267"><ele>64.0</ele><time>2026-05-04T12:31:56.792Z</time></trkpt><trkpt lat="52.059355" lon="-0.70127"><ele>65.0</ele><time>2026-05-04T12:31:57.791Z</time></trkpt><trkpt lat="52.0592017" lon="-0.7009133"><ele>66.0</ele><time>2026-05-04T12:31:58.792Z</time></trkpt><trkpt lat="52.0590483" lon="-0.7005583"><ele>67.5</ele><time>2026-05-04T12:31:59.794Z</time></trkpt><trkpt lat="52.0588967" lon="-0.7002017"><ele>69.0</ele><time>2026-05-04T12:32:00.793Z</time></trkpt><trkpt lat="52.05874" lon="-0.6998483"><ele>69.0</ele><time>2026-05-04T12:32:01.792Z</time></trkpt><trkpt lat="52.0585817" lon="-0.6994967"><ele>69.0</ele><time>2026-05-04T12:32:02.792Z</time></trkpt><trkpt lat="52.0584233" lon="-0.6991367"><ele>69.0</ele><time>2026-05-04T12:32:03.791Z</time></trkpt><trkpt lat="52.0582767" lon="-0.6987767"><ele>69.0</ele><time>2026-05-04T12:32:04.793Z</time></trkpt><trkpt lat="52.0581283" lon="-0.698415"><ele>68.0</ele><time>2026-05-04T12:32:05.792Z</time></trkpt><trkpt lat="52.05798" lon="-0.6980533"><ele>67.0</ele><time>2026-05-04T12:32:06.792Z</time></trkpt><trkpt lat="52.057835" lon="-0.697685"><ele>65.5</ele><time>2026-05-04T12:32:07.792Z</time></trkpt><trkpt lat="52.05769" lon="-0.6973233"><ele>64.0</ele><time>2026-05-04T12:32:08.795Z</time></trkpt><trkpt lat="52.0575483" lon="-0.6969567"><ele>63.0</ele><time>2026-05-04T12:32:09.791Z</time></trkpt><trkpt lat="52.05741" lon="-0.6965867"><ele>62.0</ele><time>2026-05-04T12:32:10.795Z</time></trkpt><trkpt lat="52.05727" lon="-0.6962183"><ele>63.0</ele><time>2026-05-04T12:32:11.792Z</time></trkpt><trkpt lat="52.0571317" lon="-0.6958467"><ele>64.0</ele><time>2026-05-04T12:32:12.791Z</time></trkpt><trkpt lat="52.0569967" lon="-0.69547"><ele>64.0</ele><time>2026-05-04T12:32:13.797Z</time></trkpt><trkpt lat="52.0568633" lon="-0.6950917"><ele>64.0</ele><time>2026-05-04T12:32:14.791Z</time></trkpt><trkpt lat="52.0567317" lon="-0.69471"><ele>63.0</ele><time>2026-05-04T12:32:15.791Z</time></trkpt><trkpt lat="52.0566033" lon="-0.6943283"><ele>62.0</ele><time>2026-05-04T12:32:16.797Z</time></trkpt><trkpt lat="52.0564767" lon="-0.693945"><ele>62.5</ele><time>2026-05-04T12:32:17.794Z</time></trkpt><trkpt lat="52.0563533" lon="-0.6935567"><ele>63.0</ele><time>2026-05-04T12:32:18.794Z</time></trkpt><trkpt lat="52.0562317" lon="-0.6931667"><ele>63.0</ele><time>2026-05-04T12:32:19.794Z</time></trkpt><trkpt lat="52.0561083" lon="-0.692775"><ele>63.0</ele><time>2026-05-04T12:32:20.792Z</time></trkpt><trkpt lat="52.0559867" lon="-0.69239"><ele>63.0</ele><time>2026-05-04T12:32:21.795Z</time></trkpt><trkpt lat="52.0558633" lon="-0.6920017"><ele>63.0</ele><time>2026-05-04T12:32:22.792Z</time></trkpt><trkpt lat="52.0557417" lon="-0.6916133"><ele>63.0</ele><time>2026-05-04T12:32:23.794Z</time></trkpt><trkpt lat="52.0556233" lon="-0.691225"><ele>63.0</ele><time>2026-05-04T12:32:24.791Z</time></trkpt><trkpt lat="52.0555017" lon="-0.6908367"><ele>63.0</ele><time>2026-05-04T12:32:25.794Z</time></trkpt><trkpt lat="52.05538" lon="-0.69045"><ele>63.0</ele><time>2026-05-04T12:32:26.792Z</time></trkpt><trkpt lat="52.0552583" lon="-0.69006"><ele>63.0</ele><time>2026-05-04T12:32:27.791Z</time></trkpt><trkpt lat="52.0551383" lon="-0.6896717"><ele>63.0</ele><time>2026-05-04T12:32:28.791Z</time></trkpt><trkpt lat="52.05502" lon="-0.6892833"><ele>63.0</ele><time>2026-05-04T12:32:29.792Z</time></trkpt><trkpt lat="52.0548983" lon="-0.688895"><ele>63.0</ele><time>2026-05-04T12:32:30.793Z</time></trkpt><trkpt lat="52.0547767" lon="-0.688505"><ele>63.5</ele><time>2026-05-04T12:32:31.792Z</time></trkpt><trkpt lat="52.054655" lon="-0.6881167"><ele>64.0</ele><time>2026-05-04T12:32:32.792Z</time></trkpt><trkpt lat="52.0545333" lon="-0.68773"><ele>64.0</ele><time>2026-05-04T12:32:33.791Z</time></trkpt><trkpt lat="52.0544117" lon="-0.68734"><ele>64.0</ele><time>2026-05-04T12:32:34.792Z</time></trkpt><trkpt lat="52.0542883" lon="-0.6869517"><ele>64.0</ele><time>2026-05-04T12:32:35.793Z</time></trkpt><trkpt lat="52.0541667" lon="-0.686565"><ele>64.0</ele><time>2026-05-04T12:32:36.791Z</time></trkpt><trkpt lat="52.0540433" lon="-0.6861767"><ele>64.0</ele><time>2026-05-04T12:32:37.791Z</time></trkpt><trkpt lat="52.0539217" lon="-0.6857867"><ele>64.0</ele><time>2026-05-04T12:32:38.792Z</time></trkpt><trkpt lat="52.0538033" lon="-0.6853967"><ele>64.5</ele><time>2026-05-04T12:32:39.792Z</time></trkpt><trkpt lat="52.0536833" lon="-0.6850067"><ele>65.0</ele><time>2026-05-04T12:32:40.792Z</time></trkpt><trkpt lat="52.053565" lon="-0.6846167"><ele>65.0</ele><time>2026-05-04T12:32:41.791Z</time></trkpt><trkpt lat="52.0534483" lon="-0.684225"><ele>65.0</ele><time>2026-05-04T12:32:42.791Z</time></trkpt><trkpt lat="52.0533283" lon="-0.683835"><ele>64.5</ele><time>2026-05-04T12:32:43.793Z</time></trkpt><trkpt lat="52.0532067" lon="-0.6834517"><ele>64.0</ele><time>2026-05-04T12:32:44.794Z</time></trkpt><trkpt lat="52.053085" lon="-0.6830683"><ele>64.5</ele><time>2026-05-04T12:32:45.792Z</time></trkpt><trkpt lat="52.0529617" lon="-0.6826783"><ele>65.0</ele><time>2026-05-04T12:32:46.795Z</time></trkpt><trkpt lat="52.0528383" lon="-0.6822917"><ele>66.0</ele><time>2026-05-04T12:32:47.792Z</time></trkpt><trkpt lat="52.052715" lon="-0.6819017"><ele>67.0</ele><time>2026-05-04T12:32:48.792Z</time></trkpt><trkpt lat="52.0525933" lon="-0.6815133"><ele>67.0</ele><time>2026-05-04T12:32:49.795Z</time></trkpt><trkpt lat="52.0524733" lon="-0.6811217"><ele>67.0</ele><time>2026-05-04T12:32:50.792Z</time></trkpt><trkpt lat="52.052355" lon="-0.6807317"><ele>65.5</ele><time>2026-05-04T12:32:51.791Z</time></trkpt><trkpt lat="52.0522317" lon="-0.680345"><ele>64.0</ele><time>2026-05-04T12:32:52.791Z</time></trkpt><trkpt lat="52.0521033" lon="-0.6799633"><ele>64.0</ele><time>2026-05-04T12:32:53.794Z</time></trkpt><trkpt lat="52.05198" lon="-0.6795817"><ele>64.0</ele><time>2026-05-04T12:32:54.792Z</time></trkpt><trkpt lat="52.0518583" lon="-0.6791967"><ele>64.0</ele><time>2026-05-04T12:32:55.794Z</time></trkpt><trkpt lat="52.051735" lon="-0.6788117"><ele>64.0</ele><time>2026-05-04T12:32:56.794Z</time></trkpt><trkpt lat="52.0516117" lon="-0.678425"><ele>63.5</ele><time>2026-05-04T12:32:57.791Z</time></trkpt><trkpt lat="52.0514883" lon="-0.6780383"><ele>63.0</ele><time>2026-05-04T12:32:58.791Z</time></trkpt><trkpt lat="52.0513667" lon="-0.6776517"><ele>63.0</ele><time>2026-05-04T12:32:59.792Z</time></trkpt><trkpt lat="52.0512433" lon="-0.6772667"><ele>63.0</ele><time>2026-05-04T12:33:00.792Z</time></trkpt><trkpt lat="52.0511217" lon="-0.676875"><ele>63.0</ele><time>2026-05-04T12:33:01.793Z</time></trkpt><trkpt lat="52.051" lon="-0.6764867"><ele>63.0</ele><time>2026-05-04T12:33:02.791Z</time></trkpt><trkpt lat="52.0508783" lon="-0.676095"><ele>64.5</ele><time>2026-05-04T12:33:03.791Z</time></trkpt><trkpt lat="52.0507583" lon="-0.6757067"><ele>66.0</ele><time>2026-05-04T12:33:04.791Z</time></trkpt><trkpt lat="52.0506383" lon="-0.6753183"><ele>67.0</ele><time>2026-05-04T12:33:05.791Z</time></trkpt><trkpt lat="52.0505167" lon="-0.6749317"><ele>68.0</ele><time>2026-05-04T12:33:06.792Z</time></trkpt><trkpt lat="52.0503933" lon="-0.6745417"><ele>68.0</ele><time>2026-05-04T12:33:07.793Z</time></trkpt><trkpt lat="52.05027" lon="-0.6741533"><ele>68.0</ele><time>2026-05-04T12:33:08.791Z</time></trkpt><trkpt lat="52.0501467" lon="-0.673765"><ele>67.5</ele><time>2026-05-04T12:33:09.791Z</time></trkpt><trkpt lat="52.0500233" lon="-0.6733767"><ele>67.0</ele><time>2026-05-04T12:33:10.794Z</time></trkpt><trkpt lat="52.0499017" lon="-0.67299"><ele>66.5</ele><time>2026-05-04T12:33:11.792Z</time></trkpt><trkpt lat="52.0497783" lon="-0.6726033"><ele>66.0</ele><time>2026-05-04T12:33:12.791Z</time></trkpt><trkpt lat="52.049655" lon="-0.6722167"><ele>66.0</ele><time>2026-05-04T12:33:13.795Z</time></trkpt><trkpt lat="52.0495283" lon="-0.6718333"><ele>66.0</ele><time>2026-05-04T12:33:14.792Z</time></trkpt><trkpt lat="52.0494" lon="-0.6714567"><ele>66.0</ele><time>2026-05-04T12:33:15.791Z</time></trkpt><trkpt lat="52.0492683" lon="-0.6710767"><ele>66.0</ele><time>2026-05-04T12:33:16.795Z</time></trkpt><trkpt lat="52.04914" lon="-0.6706933"><ele>66.0</ele><time>2026-05-04T12:33:17.795Z</time></trkpt><trkpt lat="52.0490083" lon="-0.6703117"><ele>66.0</ele><time>2026-05-04T12:33:18.794Z</time></trkpt><trkpt lat="52.048875" lon="-0.6699383"><ele>66.5</ele><time>2026-05-04T12:33:19.792Z</time></trkpt><trkpt lat="52.04874" lon="-0.669565"><ele>67.0</ele><time>2026-05-04T12:33:20.791Z</time></trkpt><trkpt lat="52.0486" lon="-0.669195"><ele>67.0</ele><time>2026-05-04T12:33:21.792Z</time></trkpt><trkpt lat="52.0484567" lon="-0.6688267"><ele>67.0</ele><time>2026-05-04T12:33:22.792Z</time></trkpt><trkpt lat="52.0483133" lon="-0.6684583"><ele>67.5</ele><time>2026-05-04T12:33:23.792Z</time></trkpt><trkpt lat="52.0481683" lon="-0.66809"><ele>68.0</ele><time>2026-05-04T12:33:24.792Z</time></trkpt><trkpt lat="52.0480267" lon="-0.6677217"><ele>68.0</ele><time>2026-05-04T12:33:25.795Z</time></trkpt><trkpt lat="52.047885" lon="-0.6673533"><ele>68.0</ele><time>2026-05-04T12:33:26.793Z</time></trkpt><trkpt lat="52.04774" lon="-0.66699"><ele>68.0</ele><time>2026-05-04T12:33:27.792Z</time></trkpt><trkpt lat="52.047595" lon="-0.6666267"><ele>68.0</ele><time>2026-05-04T12:33:28.791Z</time></trkpt><trkpt lat="52.0474483" lon="-0.6662617"><ele>68.0</ele><time>2026-05-04T12:33:29.793Z</time></trkpt><trkpt lat="52.0473" lon="-0.6658983"><ele>68.0</ele><time>2026-05-04T12:33:30.793Z</time></trkpt><trkpt lat="52.0471483" lon="-0.6655383"><ele>68.0</ele><time>2026-05-04T12:33:31.793Z</time></trkpt><trkpt lat="52.0469933" lon="-0.66518"><ele>68.0</ele><time>2026-05-04T12:33:32.794Z</time></trkpt><trkpt lat="52.0468383" lon="-0.664825"><ele>68.0</ele><time>2026-05-04T12:33:33.791Z</time></trkpt><trkpt lat="52.0466817" lon="-0.6644733"><ele>68.0</ele><time>2026-05-04T12:33:34.791Z</time></trkpt><trkpt lat="52.046525" lon="-0.664125"><ele>68.5</ele><time>2026-05-04T12:33:35.793Z</time></trkpt><trkpt lat="52.0463683" lon="-0.6637767"><ele>69.0</ele><time>2026-05-04T12:33:36.792Z</time></trkpt><trkpt lat="52.04621" lon="-0.6634267"><ele>69.0</ele><time>2026-05-04T12:33:37.794Z</time></trkpt><trkpt lat="52.04605" lon="-0.6630767"><ele>69.0</ele><time>2026-05-04T12:33:38.792Z</time></trkpt><trkpt lat="52.0458867" lon="-0.662725"><ele>68.5</ele><time>2026-05-04T12:33:39.795Z</time></trkpt><trkpt lat="52.0457217" lon="-0.662375"><ele>68.0</ele><time>2026-05-04T12:33:40.794Z</time></trkpt><trkpt lat="52.04556" lon="-0.6620267"><ele>68.0</ele><time>2026-05-04T12:33:41.793Z</time></trkpt><trkpt lat="52.0454" lon="-0.6616767"><ele>68.0</ele><time>2026-05-04T12:33:42.794Z</time></trkpt><trkpt lat="52.0452417" lon="-0.661325"><ele>68.0</ele><time>2026-05-04T12:33:43.791Z</time></trkpt><trkpt lat="52.04508" lon="-0.6609783"><ele>68.0</ele><time>2026-05-04T12:33:44.791Z</time></trkpt><trkpt lat="52.044915" lon="-0.6606283"><ele>67.5</ele><time>2026-05-04T12:33:45.792Z</time></trkpt><trkpt lat="52.04475" lon="-0.66028"><ele>67.0</ele><time>2026-05-04T12:33:46.794Z</time></trkpt><trkpt lat="52.0445883" lon="-0.6599317"><ele>67.0</ele><time>2026-05-04T12:33:47.791Z</time></trkpt><trkpt lat="52.0444267" lon="-0.6595833"><ele>67.0</ele><time>2026-05-04T12:33:48.792Z</time></trkpt><trkpt lat="52.0442667" lon="-0.6592333"><ele>67.0</ele><time>2026-05-04T12:33:49.792Z</time></trkpt><trkpt lat="52.04411" lon="-0.6588833"><ele>67.0</ele><time>2026-05-04T12:33:50.793Z</time></trkpt><trkpt lat="52.0439533" lon="-0.6585317"><ele>67.0</ele><time>2026-05-04T12:33:51.791Z</time></trkpt><trkpt lat="52.0437983" lon="-0.6581817"><ele>67.0</ele><time>2026-05-04T12:33:52.791Z</time></trkpt><trkpt lat="52.04364" lon="-0.6578333"><ele>68.5</ele><time>2026-05-04T12:33:53.792Z</time></trkpt><trkpt lat="52.0434767" lon="-0.657485"><ele>70.0</ele><time>2026-05-04T12:33:54.791Z</time></trkpt><trkpt lat="52.0433133" lon="-0.6571383"><ele>68.5</ele><time>2026-05-04T12:33:55.792Z</time></trkpt><trkpt lat="52.04315" lon="-0.65679"><ele>67.0</ele><time>2026-05-04T12:33:56.79Z</time></trkpt><trkpt lat="52.0429867" lon="-0.6564433"><ele>67.5</ele><time>2026-05-04T12:33:57.792Z</time></trkpt><trkpt lat="52.0428283" lon="-0.6560933"><ele>68.0</ele><time>2026-05-04T12:33:58.791Z</time></trkpt><trkpt lat="52.0426667" lon="-0.655745"><ele>68.0</ele><time>2026-05-04T12:33:59.79Z</time></trkpt><trkpt lat="52.042505" lon="-0.6553983"><ele>68.0</ele><time>2026-05-04T12:34:00.793Z</time></trkpt><trkpt lat="52.0423433" lon="-0.655055"><ele>68.0</ele><time>2026-05-04T12:34:01.792Z</time></trkpt><trkpt lat="52.0421783" lon="-0.6547083"><ele>68.0</ele><time>2026-05-04T12:34:02.792Z</time></trkpt><trkpt lat="52.042015" lon="-0.6543617"><ele>68.0</ele><time>2026-05-04T12:34:03.79Z</time></trkpt><trkpt lat="52.0418517" lon="-0.6540133"><ele>68.0</ele><time>2026-05-04T12:34:04.79Z</time></trkpt><trkpt lat="52.04169" lon="-0.653665"><ele>68.0</ele><time>2026-05-04T12:34:05.791Z</time></trkpt><trkpt lat="52.0415283" lon="-0.6533183"><ele>68.0</ele><time>2026-05-04T12:34:06.792Z</time></trkpt><trkpt lat="52.0413683" lon="-0.65297"><ele>68.0</ele><time>2026-05-04T12:34:07.793Z</time></trkpt><trkpt lat="52.04121" lon="-0.6526217"><ele>68.0</ele><time>2026-05-04T12:34:08.796Z</time></trkpt><trkpt lat="52.0410517" lon="-0.65227"><ele>67.5</ele><time>2026-05-04T12:34:09.795Z</time></trkpt><trkpt lat="52.0408917" lon="-0.6519183"><ele>67.0</ele><time>2026-05-04T12:34:10.792Z</time></trkpt><trkpt lat="52.040735" lon="-0.6515733"><ele>69.5</ele><time>2026-05-04T12:34:11.792Z</time></trkpt><trkpt lat="52.0405717" lon="-0.6512267"><ele>72.0</ele><time>2026-05-04T12:34:12.791Z</time></trkpt><trkpt lat="52.0404067" lon="-0.65088"><ele>72.0</ele><time>2026-05-04T12:34:13.792Z</time></trkpt><trkpt lat="52.0402433" lon="-0.6505333"><ele>72.0</ele><time>2026-05-04T12:34:14.79Z</time></trkpt><trkpt lat="52.0400817" lon="-0.650185"><ele>73.5</ele><time>2026-05-04T12:34:15.791Z</time></trkpt><trkpt lat="52.0399233" lon="-0.649835"><ele>75.0</ele><time>2026-05-04T12:34:16.791Z</time></trkpt><trkpt lat="52.039765" lon="-0.649485"><ele>73.5</ele><time>2026-05-04T12:34:17.79Z</time></trkpt><trkpt lat="52.0396067" lon="-0.6491333"><ele>72.0</ele><time>2026-05-04T12:34:18.791Z</time></trkpt><trkpt lat="52.03945" lon="-0.64878"><ele>71.5</ele><time>2026-05-04T12:34:19.791Z</time></trkpt><trkpt lat="52.0392917" lon="-0.6484317"><ele>71.0</ele><time>2026-05-04T12:34:20.791Z</time></trkpt><trkpt lat="52.0391283" lon="-0.6480833"><ele>71.0</ele><time>2026-05-04T12:34:21.792Z</time></trkpt><trkpt lat="52.0389667" lon="-0.647735"><ele>71.0</ele><time>2026-05-04T12:34:22.792Z</time></trkpt><trkpt lat="52.0388033" lon="-0.647385"><ele>71.0</ele><time>2026-05-04T12:34:23.791Z</time></trkpt><trkpt lat="52.0386417" lon="-0.6470333"><ele>71.0</ele><time>2026-05-04T12:34:24.792Z</time></trkpt><trkpt lat="52.038485" lon="-0.646685"><ele>71.5</ele><time>2026-05-04T12:34:25.792Z</time></trkpt><trkpt lat="52.03833" lon="-0.646335"><ele>72.0</ele><time>2026-05-04T12:34:26.795Z</time></trkpt><trkpt lat="52.0381733" lon="-0.645985"><ele>72.5</ele><time>2026-05-04T12:34:27.792Z</time></trkpt><trkpt lat="52.0380167" lon="-0.64563"><ele>73.0</ele><time>2026-05-04T12:34:28.795Z</time></trkpt><trkpt lat="52.0378617" lon="-0.6452733"><ele>73.5</ele><time>2026-05-04T12:34:29.795Z</time></trkpt><trkpt lat="52.03771" lon="-0.6449167"><ele>74.0</ele><time>2026-05-04T12:34:30.795Z</time></trkpt><trkpt lat="52.0375617" lon="-0.6445567"><ele>76.5</ele><time>2026-05-04T12:34:31.794Z</time></trkpt><trkpt lat="52.0374167" lon="-0.6441917"><ele>79.0</ele><time>2026-05-04T12:34:32.795Z</time></trkpt><trkpt lat="52.0372717" lon="-0.6438267"><ele>79.5</ele><time>2026-05-04T12:34:33.791Z</time></trkpt><trkpt lat="52.037135" lon="-0.643455"><ele>80.0</ele><time>2026-05-04T12:34:34.794Z</time></trkpt><trkpt lat="52.0369933" lon="-0.64309"><ele>79.0</ele><time>2026-05-04T12:34:35.795Z</time></trkpt><trkpt lat="52.0368517" lon="-0.642725"><ele>78.0</ele><time>2026-05-04T12:34:36.793Z</time></trkpt><trkpt lat="52.03671" lon="-0.642355"><ele>79.0</ele><time>2026-05-04T12:34:37.793Z</time></trkpt><trkpt lat="52.0365717" lon="-0.6419833"><ele>80.0</ele><time>2026-05-04T12:34:38.795Z</time></trkpt><trkpt lat="52.0364367" lon="-0.641605"><ele>80.0</ele><time>2026-05-04T12:34:39.795Z</time></trkpt><trkpt lat="52.0363033" lon="-0.6412283"><ele>80.0</ele><time>2026-05-04T12:34:40.794Z</time></trkpt><trkpt lat="52.036175" lon="-0.6408517"><ele>79.0</ele><time>2026-05-04T12:34:41.794Z</time></trkpt><trkpt lat="52.0360467" lon="-0.64047"><ele>78.0</ele><time>2026-05-04T12:34:42.792Z</time></trkpt><trkpt lat="52.0359233" lon="-0.6400883"><ele>78.0</ele><time>2026-05-04T12:34:43.794Z</time></trkpt><trkpt lat="52.0358017" lon="-0.6396983"><ele>78.0</ele><time>2026-05-04T12:34:44.794Z</time></trkpt><trkpt lat="52.03568" lon="-0.6393083"><ele>78.0</ele><time>2026-05-04T12:34:45.794Z</time></trkpt><trkpt lat="52.0355583" lon="-0.6389167"><ele>78.0</ele><time>2026-05-04T12:34:46.791Z</time></trkpt><trkpt lat="52.0354417" lon="-0.6385233"><ele>78.0</ele><time>2026-05-04T12:34:47.792Z</time></trkpt><trkpt lat="52.035325" lon="-0.6381317"><ele>78.0</ele><time>2026-05-04T12:34:48.791Z</time></trkpt><trkpt lat="52.0352117" lon="-0.6377383"><ele>78.0</ele><time>2026-05-04T12:34:49.793Z</time></trkpt><trkpt lat="52.0350983" lon="-0.637345"><ele>78.0</ele><time>2026-05-04T12:34:50.793Z</time></trkpt><trkpt lat="52.0349917" lon="-0.6369517"><ele>79.0</ele><time>2026-05-04T12:34:51.792Z</time></trkpt><trkpt lat="52.03488" lon="-0.636555"><ele>80.0</ele><time>2026-05-04T12:34:52.791Z</time></trkpt><trkpt lat="52.0347733" lon="-0.6361583"><ele>80.0</ele><time>2026-05-04T12:34:53.794Z</time></trkpt><trkpt lat="52.0346667" lon="-0.6357583"><ele>80.0</ele><time>2026-05-04T12:34:54.792Z</time></trkpt><trkpt lat="52.0345583" lon="-0.6353567"><ele>80.0</ele><time>2026-05-04T12:34:55.793Z</time></trkpt><trkpt lat="52.0344517" lon="-0.6349533"><ele>80.0</ele><time>2026-05-04T12:34:56.793Z</time></trkpt><trkpt lat="52.034345" lon="-0.63455"><ele>80.5</ele><time>2026-05-04T12:34:57.791Z</time></trkpt><trkpt lat="52.0342417" lon="-0.6341483"><ele>81.0</ele><time>2026-05-04T12:34:58.793Z</time></trkpt><trkpt lat="52.03414" lon="-0.6337383"><ele>78.5</ele><time>2026-05-04T12:34:59.795Z</time></trkpt><trkpt lat="52.0340367" lon="-0.6333283"><ele>76.0</ele><time>2026-05-04T12:35:00.791Z</time></trkpt><trkpt lat="52.033935" lon="-0.6329233"><ele>76.0</ele><time>2026-05-04T12:35:01.792Z</time></trkpt><trkpt lat="52.033835" lon="-0.6325167"><ele>76.0</ele><time>2026-05-04T12:35:02.792Z</time></trkpt><trkpt lat="52.0337367" lon="-0.632115"><ele>76.0</ele><time>2026-05-04T12:35:03.792Z</time></trkpt><trkpt lat="52.0336367" lon="-0.6317083"><ele>76.0</ele><time>2026-05-04T12:35:04.794Z</time></trkpt><trkpt lat="52.033535" lon="-0.6313017"><ele>75.5</ele><time>2026-05-04T12:35:05.792Z</time></trkpt><trkpt lat="52.0334367" lon="-0.6308983"><ele>75.0</ele><time>2026-05-04T12:35:06.792Z</time></trkpt><trkpt lat="52.033335" lon="-0.630495"><ele>74.5</ele><time>2026-05-04T12:35:07.793Z</time></trkpt><trkpt lat="52.033235" lon="-0.6300883"><ele>74.0</ele><time>2026-05-04T12:35:08.791Z</time></trkpt><trkpt lat="52.033135" lon="-0.6296783"><ele>74.0</ele><time>2026-05-04T12:35:09.793Z</time></trkpt><trkpt lat="52.0330333" lon="-0.62927"><ele>74.0</ele><time>2026-05-04T12:35:10.794Z</time></trkpt><trkpt lat="52.0329333" lon="-0.628865"><ele>75.0</ele><time>2026-05-04T12:35:11.794Z</time></trkpt><trkpt lat="52.032835" lon="-0.6284583"><ele>76.0</ele><time>2026-05-04T12:35:12.793Z</time></trkpt><trkpt lat="52.0327367" lon="-0.628055"><ele>76.5</ele><time>2026-05-04T12:35:13.793Z</time></trkpt><trkpt lat="52.0326367" lon="-0.62765"><ele>77.0</ele><time>2026-05-04T12:35:14.797Z</time></trkpt><trkpt lat="52.03254" lon="-0.6272483"><ele>76.0</ele><time>2026-05-04T12:35:15.792Z</time></trkpt><trkpt lat="52.0324383" lon="-0.6268433"><ele>75.0</ele><time>2026-05-04T12:35:16.791Z</time></trkpt><trkpt lat="52.0323383" lon="-0.62644"><ele>75.0</ele><time>2026-05-04T12:35:17.793Z</time></trkpt><trkpt lat="52.0322367" lon="-0.6260383"><ele>75.0</ele><time>2026-05-04T12:35:18.792Z</time></trkpt><trkpt lat="52.032135" lon="-0.6256367"><ele>75.5</ele><time>2026-05-04T12:35:19.792Z</time></trkpt><trkpt lat="52.0320333" lon="-0.6252333"><ele>76.0</ele><time>2026-05-04T12:35:20.792Z</time></trkpt><trkpt lat="52.0319333" lon="-0.6248283"><ele>76.0</ele><time>2026-05-04T12:35:21.791Z</time></trkpt><trkpt lat="52.0318317" lon="-0.624425"><ele>76.0</ele><time>2026-05-04T12:35:22.793Z</time></trkpt><trkpt lat="52.0317283" lon="-0.6240217"><ele>75.5</ele><time>2026-05-04T12:35:23.793Z</time></trkpt><trkpt lat="52.0316267" lon="-0.6236183"><ele>75.0</ele><time>2026-05-04T12:35:24.792Z</time></trkpt><trkpt lat="52.0315267" lon="-0.62322"><ele>75.0</ele><time>2026-05-04T12:35:25.795Z</time></trkpt><trkpt lat="52.03143" lon="-0.6228183"><ele>75.0</ele><time>2026-05-04T12:35:26.794Z</time></trkpt><trkpt lat="52.0313317" lon="-0.6224167"><ele>76.0</ele><time>2026-05-04T12:35:27.791Z</time></trkpt><trkpt lat="52.0312367" lon="-0.6220133"><ele>77.0</ele><time>2026-05-04T12:35:28.795Z</time></trkpt><trkpt lat="52.03114" lon="-0.6216133"><ele>77.0</ele><time>2026-05-04T12:35:29.792Z</time></trkpt><trkpt lat="52.0310417" lon="-0.6212117"><ele>77.0</ele><time>2026-05-04T12:35:30.795Z</time></trkpt><trkpt lat="52.0309417" lon="-0.6208083"><ele>76.5</ele><time>2026-05-04T12:35:31.795Z</time></trkpt><trkpt lat="52.03084" lon="-0.620405"><ele>76.0</ele><time>2026-05-04T12:35:32.792Z</time></trkpt><trkpt lat="52.0307367" lon="-0.6199967"><ele>78.0</ele><time>2026-05-04T12:35:33.79Z</time></trkpt><trkpt lat="52.0306367" lon="-0.6195917"><ele>80.0</ele><time>2026-05-04T12:35:34.797Z</time></trkpt><trkpt lat="52.0305367" lon="-0.6191917"><ele>80.0</ele><time>2026-05-04T12:35:35.791Z</time></trkpt><trkpt lat="52.0304417" lon="-0.618805"><ele>80.0</ele><time>2026-05-04T12:35:36.791Z</time></trkpt><trkpt lat="52.0303517" lon="-0.6184383"><ele>79.5</ele><time>2026-05-04T12:35:37.792Z</time></trkpt><trkpt lat="52.030265" lon="-0.6180833"><ele>79.0</ele><time>2026-05-04T12:35:38.791Z</time></trkpt><trkpt lat="52.0301783" lon="-0.6177417"><ele>78.5</ele><time>2026-05-04T12:35:39.795Z</time></trkpt><trkpt lat="52.03009" lon="-0.6174"><ele>78.0</ele><time>2026-05-04T12:35:40.794Z</time></trkpt><trkpt lat="52.0300017" lon="-0.6170483"><ele>77.5</ele><time>2026-05-04T12:35:41.792Z</time></trkpt><trkpt lat="52.029915" lon="-0.61669"><ele>77.0</ele><time>2026-05-04T12:35:42.792Z</time></trkpt><trkpt lat="52.029825" lon="-0.61633"><ele>77.5</ele><time>2026-05-04T12:35:43.793Z</time></trkpt><trkpt lat="52.029735" lon="-0.6159683"><ele>78.0</ele><time>2026-05-04T12:35:44.793Z</time></trkpt><trkpt lat="52.0296433" lon="-0.615605"><ele>78.5</ele><time>2026-05-04T12:35:45.792Z</time></trkpt><trkpt lat="52.0295517" lon="-0.6152417"><ele>79.0</ele><time>2026-05-04T12:35:46.792Z</time></trkpt><trkpt lat="52.02946" lon="-0.6148767"><ele>79.0</ele><time>2026-05-04T12:35:47.792Z</time></trkpt><trkpt lat="52.02937" lon="-0.6145133"><ele>79.0</ele><time>2026-05-04T12:35:48.79Z</time></trkpt><trkpt lat="52.029275" lon="-0.6141467"><ele>78.5</ele><time>2026-05-04T12:35:49.792Z</time></trkpt><trkpt lat="52.0291767" lon="-0.6137733"><ele>78.0</ele><time>2026-05-04T12:35:50.792Z</time></trkpt><trkpt lat="52.0290783" lon="-0.6133833"><ele>77.5</ele><time>2026-05-04T12:35:51.791Z</time></trkpt><trkpt lat="52.02898" lon="-0.612975"><ele>77.0</ele><time>2026-05-04T12:35:52.791Z</time></trkpt><trkpt lat="52.0288833" lon="-0.6125583"><ele>78.0</ele><time>2026-05-04T12:35:53.792Z</time></trkpt><trkpt lat="52.02879" lon="-0.612155"><ele>79.0</ele><time>2026-05-04T12:35:54.791Z</time></trkpt><trkpt lat="52.0286967" lon="-0.6117633"><ele>79.5</ele><time>2026-05-04T12:35:55.793Z</time></trkpt><trkpt lat="52.0286017" lon="-0.6113817"><ele>80.0</ele><time>2026-05-04T12:35:56.792Z</time></trkpt><trkpt lat="52.028505" lon="-0.611005"><ele>80.0</ele><time>2026-05-04T12:35:57.792Z</time></trkpt><trkpt lat="52.02841" lon="-0.61063"><ele>80.0</ele><time>2026-05-04T12:35:58.791Z</time></trkpt><trkpt lat="52.028315" lon="-0.61025"><ele>79.5</ele><time>2026-05-04T12:35:59.793Z</time></trkpt><trkpt lat="52.0282233" lon="-0.609865"><ele>79.0</ele><time>2026-05-04T12:36:00.792Z</time></trkpt><trkpt lat="52.0281267" lon="-0.6094783"><ele>79.0</ele><time>2026-05-04T12:36:01.792Z</time></trkpt><trkpt lat="52.0280283" lon="-0.6090817"><ele>79.0</ele><time>2026-05-04T12:36:02.793Z</time></trkpt><trkpt lat="52.0279317" lon="-0.60869"><ele>79.5</ele><time>2026-05-04T12:36:03.791Z</time></trkpt><trkpt lat="52.0278383" lon="-0.60831"><ele>80.0</ele><time>2026-05-04T12:36:04.792Z</time></trkpt><trkpt lat="52.0277467" lon="-0.6079467"><ele>79.5</ele><time>2026-05-04T12:36:05.792Z</time></trkpt><trkpt lat="52.0276517" lon="-0.607605"><ele>79.0</ele><time>2026-05-04T12:36:06.793Z</time></trkpt><trkpt lat="52.0275633" lon="-0.6072717"><ele>79.0</ele><time>2026-05-04T12:36:07.793Z</time></trkpt><trkpt lat="52.0274817" lon="-0.6069467"><ele>79.0</ele><time>2026-05-04T12:36:08.792Z</time></trkpt><trkpt lat="52.0274067" lon="-0.6066417"><ele>79.0</ele><time>2026-05-04T12:36:09.79Z</time></trkpt><trkpt lat="52.027335" lon="-0.6063483"><ele>79.33333333333333</ele><time>2026-05-04T12:36:10.792Z</time></trkpt><trkpt lat="52.027265" lon="-0.606055"><ele>79.66666666666667</ele><time>2026-05-04T12:36:11.792Z</time></trkpt><trkpt lat="52.0271917" lon="-0.6057383"><ele>80.0</ele><time>2026-05-04T12:36:12.792Z</time></trkpt><trkpt lat="52.0271183" lon="-0.6053917"><ele>80.5</ele><time>2026-05-04T12:36:13.793Z</time></trkpt><trkpt lat="52.02704" lon="-0.60502"><ele>81.0</ele><time>2026-05-04T12:36:14.792Z</time></trkpt><trkpt lat="52.026955" lon="-0.6046467"><ele>81.5</ele><time>2026-05-04T12:36:15.796Z</time></trkpt><trkpt lat="52.0268633" lon="-0.604275"><ele>82.0</ele><time>2026-05-04T12:36:16.79Z</time></trkpt><trkpt lat="52.026775" lon="-0.6039117"><ele>83.0</ele><time>2026-05-04T12:36:17.795Z</time></trkpt><trkpt lat="52.0266917" lon="-0.603565"><ele>84.0</ele><time>2026-05-04T12:36:18.793Z</time></trkpt><trkpt lat="52.0266067" lon="-0.6032167"><ele>84.33333333333333</ele><time>2026-05-04T12:36:19.795Z</time></trkpt><trkpt lat="52.0265233" lon="-0.6028767"><ele>84.66666666666666</ele><time>2026-05-04T12:36:20.792Z</time></trkpt><trkpt lat="52.0264433" lon="-0.6025367"><ele>85.0</ele><time>2026-05-04T12:36:21.79Z</time></trkpt><trkpt lat="52.02636" lon="-0.6022"><ele>84.0</ele><time>2026-05-04T12:36:22.792Z</time></trkpt><trkpt lat="52.0262783" lon="-0.60187"><ele>83.0</ele><time>2026-05-04T12:36:23.793Z</time></trkpt><trkpt lat="52.0261967" lon="-0.601545"><ele>82.0</ele><time>2026-05-04T12:36:24.792Z</time></trkpt><trkpt lat="52.02612" lon="-0.6012217"><ele>82.33333333333333</ele><time>2026-05-04T12:36:25.793Z</time></trkpt><trkpt lat="52.0260417" lon="-0.6009"><ele>82.66666666666667</ele><time>2026-05-04T12:36:26.793Z</time></trkpt><trkpt lat="52.0259633" lon="-0.6005817"><ele>83.0</ele><time>2026-05-04T12:36:27.792Z</time></trkpt><trkpt lat="52.0258867" lon="-0.6002717"><ele>83.0</ele><time>2026-05-04T12:36:28.793Z</time></trkpt><trkpt lat="52.0258067" lon="-0.59997"><ele>83.0</ele><time>2026-05-04T12:36:29.793Z</time></trkpt><trkpt lat="52.02573" lon="-0.5996717"><ele>83.0</ele><time>2026-05-04T12:36:30.79Z</time></trkpt><trkpt lat="52.0256533" lon="-0.5993733"><ele>83.0</ele><time>2026-05-04T12:36:31.793Z</time></trkpt><trkpt lat="52.0255817" lon="-0.599075"><ele>83.0</ele><time>2026-05-04T12:36:32.792Z</time></trkpt><trkpt lat="52.0255067" lon="-0.5987833"><ele>83.0</ele><time>2026-05-04T12:36:33.79Z</time></trkpt><trkpt lat="52.02543" lon="-0.5984867"><ele>83.33333333333334</ele><time>2026-05-04T12:36:34.792Z</time></trkpt><trkpt lat="52.025355" lon="-0.59819"><ele>83.66666666666667</ele><time>2026-05-04T12:36:35.792Z</time></trkpt><trkpt lat="52.0252817" lon="-0.5978917"><ele>84.0</ele><time>2026-05-04T12:36:36.792Z</time></trkpt><trkpt lat="52.02521" lon="-0.5975883"><ele>84.0</ele><time>2026-05-04T12:36:37.793Z</time></trkpt><trkpt lat="52.025135" lon="-0.59728"><ele>84.0</ele><time>2026-05-04T12:36:38.793Z</time></trkpt><trkpt lat="52.0250567" lon="-0.5969667"><ele>84.0</ele><time>2026-05-04T12:36:39.792Z</time></trkpt><trkpt lat="52.0249817" lon="-0.596655"><ele>83.66666666666667</ele><time>2026-05-04T12:36:40.791Z</time></trkpt><trkpt lat="52.024905" lon="-0.596345"><ele>83.33333333333334</ele><time>2026-05-04T12:36:41.792Z</time></trkpt><trkpt lat="52.0248283" lon="-0.5960333"><ele>83.0</ele><time>2026-05-04T12:36:42.791Z</time></trkpt><trkpt lat="52.02475" lon="-0.595725"><ele>83.0</ele><time>2026-05-04T12:36:43.792Z</time></trkpt><trkpt lat="52.0246733" lon="-0.5954167"><ele>83.0</ele><time>2026-05-04T12:36:44.791Z</time></trkpt><trkpt lat="52.0245917" lon="-0.5951117"><ele>83.0</ele><time>2026-05-04T12:36:45.791Z</time></trkpt><trkpt lat="52.02451" lon="-0.59481"><ele>83.33333333333334</ele><time>2026-05-04T12:36:46.79Z</time></trkpt><trkpt lat="52.0244283" lon="-0.5945083"><ele>83.66666666666667</ele><time>2026-05-04T12:36:47.793Z</time></trkpt><trkpt lat="52.0243483" lon="-0.5942017"><ele>84.0</ele><time>2026-05-04T12:36:48.791Z</time></trkpt><trkpt lat="52.0242683" lon="-0.593895"><ele>83.66666666666667</ele><time>2026-05-04T12:36:49.792Z</time></trkpt><trkpt lat="52.0241867" lon="-0.59358"><ele>83.33333333333334</ele><time>2026-05-04T12:36:50.796Z</time></trkpt><trkpt lat="52.02411" lon="-0.5932667"><ele>83.0</ele><time>2026-05-04T12:36:51.792Z</time></trkpt><trkpt lat="52.0240317" lon="-0.592955"><ele>83.0</ele><time>2026-05-04T12:36:52.791Z</time></trkpt><trkpt lat="52.023955" lon="-0.5926517"><ele>83.0</ele><time>2026-05-04T12:36:53.793Z</time></trkpt><trkpt lat="52.0238817" lon="-0.59235"><ele>83.0</ele><time>2026-05-04T12:36:54.792Z</time></trkpt><trkpt lat="52.023805" lon="-0.59205"><ele>83.66666666666667</ele><time>2026-05-04T12:36:55.793Z</time></trkpt><trkpt lat="52.0237283" lon="-0.59175"><ele>84.33333333333333</ele><time>2026-05-04T12:36:56.792Z</time></trkpt><trkpt lat="52.0236533" lon="-0.5914483"><ele>85.0</ele><time>2026-05-04T12:36:57.792Z</time></trkpt><trkpt lat="52.02358" lon="-0.5911483"><ele>85.66666666666666</ele><time>2026-05-04T12:36:58.791Z</time></trkpt><trkpt lat="52.0235033" lon="-0.5908467"><ele>86.33333333333333</ele><time>2026-05-04T12:36:59.793Z</time></trkpt><trkpt lat="52.0234283" lon="-0.5905483"><ele>87.0</ele><time>2026-05-04T12:37:00.793Z</time></trkpt><trkpt lat="52.0233567" lon="-0.59025"><ele>86.0</ele><time>2026-05-04T12:37:01.792Z</time></trkpt><trkpt lat="52.02328" lon="-0.5899483"><ele>85.0</ele><time>2026-05-04T12:37:02.792Z</time></trkpt><trkpt lat="52.0231967" lon="-0.5896467"><ele>84.0</ele><time>2026-05-04T12:37:03.79Z</time></trkpt><trkpt lat="52.02312" lon="-0.5893417"><ele>84.0</ele><time>2026-05-04T12:37:04.79Z</time></trkpt><trkpt lat="52.0230483" lon="-0.5890433"><ele>84.0</ele><time>2026-05-04T12:37:05.792Z</time></trkpt><trkpt lat="52.022975" lon="-0.5887483"><ele>84.0</ele><time>2026-05-04T12:37:06.792Z</time></trkpt><trkpt lat="52.0229017" lon="-0.5884567"><ele>84.0</ele><time>2026-05-04T12:37:07.792Z</time></trkpt><trkpt lat="52.0228333" lon="-0.5881717"><ele>84.0</ele><time>2026-05-04T12:37:08.792Z</time></trkpt><trkpt lat="52.0227683" lon="-0.58791"><ele>84.0</ele><time>2026-05-04T12:37:09.79Z</time></trkpt><trkpt lat="52.022705" lon="-0.5876583"><ele>84.33333333333333</ele><time>2026-05-04T12:37:10.793Z</time></trkpt><trkpt lat="52.0226433" lon="-0.587415"><ele>84.66666666666666</ele><time>2026-05-04T12:37:11.792Z</time></trkpt><trkpt lat="52.0225833" lon="-0.5871717"><ele>85.0</ele><time>2026-05-04T12:37:12.793Z</time></trkpt><trkpt lat="52.022525" lon="-0.5869217"><ele>85.0</ele><time>2026-05-04T12:37:13.793Z</time></trkpt><trkpt lat="52.022465" lon="-0.5866633"><ele>85.0</ele><time>2026-05-04T12:37:14.791Z</time></trkpt><trkpt lat="52.0224033" lon="-0.5863983"><ele>85.0</ele><time>2026-05-04T12:37:15.792Z</time></trkpt><trkpt lat="52.02234" lon="-0.586135"><ele>85.33333333333333</ele><time>2026-05-04T12:37:16.791Z</time></trkpt><trkpt lat="52.0222767" lon="-0.58587"><ele>85.66666666666667</ele><time>2026-05-04T12:37:17.793Z</time></trkpt><trkpt lat="52.02221" lon="-0.585605"><ele>86.0</ele><time>2026-05-04T12:37:18.792Z</time></trkpt><trkpt lat="52.0221433" lon="-0.58533"><ele>86.0</ele><time>2026-05-04T12:37:19.792Z</time></trkpt><trkpt lat="52.022075" lon="-0.58505"><ele>86.0</ele><time>2026-05-04T12:37:20.795Z</time></trkpt><trkpt lat="52.022005" lon="-0.5847717"><ele>86.0</ele><time>2026-05-04T12:37:21.791Z</time></trkpt><trkpt lat="52.02194" lon="-0.584495"><ele>86.0</ele><time>2026-05-04T12:37:22.792Z</time></trkpt><trkpt lat="52.0218717" lon="-0.5842217"><ele>86.0</ele><time>2026-05-04T12:37:23.793Z</time></trkpt><trkpt lat="52.0218033" lon="-0.58395"><ele>86.0</ele><time>2026-05-04T12:37:24.793Z</time></trkpt><trkpt lat="52.0217367" lon="-0.5836783"><ele>86.0</ele><time>2026-05-04T12:37:25.791Z</time></trkpt><trkpt lat="52.0216717" lon="-0.5834083"><ele>86.0</ele><time>2026-05-04T12:37:26.793Z</time></trkpt><trkpt lat="52.0216033" lon="-0.5831333"><ele>86.0</ele><time>2026-05-04T12:37:27.792Z</time></trkpt><trkpt lat="52.02153" lon="-0.5828467"><ele>86.0</ele><time>2026-05-04T12:37:28.792Z</time></trkpt><trkpt lat="52.0214567" lon="-0.5825483"><ele>86.0</ele><time>2026-05-04T12:37:29.792Z</time></trkpt><trkpt lat="52.0213783" lon="-0.5822383"><ele>86.0</ele><time>2026-05-04T12:37:30.791Z</time></trkpt><trkpt lat="52.0212983" lon="-0.5819167"><ele>86.0</ele><time>2026-05-04T12:37:31.792Z</time></trkpt><trkpt lat="52.02122" lon="-0.581595"><ele>86.0</ele><time>2026-05-04T12:37:32.792Z</time></trkpt><trkpt lat="52.0211417" lon="-0.58128"><ele>86.0</ele><time>2026-05-04T12:37:33.791Z</time></trkpt><trkpt lat="52.0210617" lon="-0.5809633"><ele>86.33333333333334</ele><time>2026-05-04T12:37:34.793Z</time></trkpt><trkpt lat="52.02098" lon="-0.58064"><ele>86.66666666666667</ele><time>2026-05-04T12:37:35.792Z</time></trkpt><trkpt lat="52.0208983" lon="-0.5803233"><ele>87.0</ele><time>2026-05-04T12:37:36.791Z</time></trkpt><trkpt lat="52.0208217" lon="-0.5800067"><ele>87.66666666666667</ele><time>2026-05-04T12:37:37.795Z</time></trkpt><trkpt lat="52.020735" lon="-0.5796933"><ele>88.33333333333334</ele><time>2026-05-04T12:37:38.79Z</time></trkpt><trkpt lat="52.0206583" lon="-0.5793883"><ele>89.0</ele><time>2026-05-04T12:37:39.793Z</time></trkpt><trkpt lat="52.02059" lon="-0.57909"><ele>89.66666666666667</ele><time>2026-05-04T12:37:40.793Z</time></trkpt><trkpt lat="52.0205217" lon="-0.5787983"><ele>90.33333333333333</ele><time>2026-05-04T12:37:41.791Z</time></trkpt><trkpt lat="52.0204517" lon="-0.578515"><ele>91.0</ele><time>2026-05-04T12:37:42.794Z</time></trkpt><trkpt lat="52.02038" lon="-0.5782317"><ele>91.66666666666666</ele><time>2026-05-04T12:37:43.792Z</time></trkpt><trkpt lat="52.0203117" lon="-0.577955"><ele>92.33333333333333</ele><time>2026-05-04T12:37:44.792Z</time></trkpt><trkpt lat="52.020245" lon="-0.577685"><ele>93.0</ele><time>2026-05-04T12:37:45.797Z</time></trkpt><trkpt lat="52.02018" lon="-0.5774167"><ele>93.33333333333333</ele><time>2026-05-04T12:37:46.793Z</time></trkpt><trkpt lat="52.0201183" lon="-0.577155"><ele>93.66666666666666</ele><time>2026-05-04T12:37:47.793Z</time></trkpt><trkpt lat="52.020055" lon="-0.576895"><ele>94.0</ele><time>2026-05-04T12:37:48.794Z</time></trkpt><trkpt lat="52.01999" lon="-0.57663"><ele>95.33333333333333</ele><time>2026-05-04T12:37:49.793Z</time></trkpt><trkpt lat="52.0199233" lon="-0.5763583"><ele>96.66666666666666</ele><time>2026-05-04T12:37:50.792Z</time></trkpt><trkpt lat="52.0198533" lon="-0.5760833"><ele>98.0</ele><time>2026-05-04T12:37:51.792Z</time></trkpt><trkpt lat="52.0197867" lon="-0.5758033"><ele>98.33333333333333</ele><time>2026-05-04T12:37:52.794Z</time></trkpt><trkpt lat="52.01972" lon="-0.575525"><ele>98.66666666666666</ele><time>2026-05-04T12:37:53.793Z</time></trkpt><trkpt lat="52.0196517" lon="-0.57525"><ele>99.0</ele><time>2026-05-04T12:37:54.793Z</time></trkpt><trkpt lat="52.0059417" lon="-0.547495"><ele>99.33333333333334</ele><time>2026-05-04T12:39:38.651Z</time></trkpt><trkpt lat="52.0058817" lon="-0.5474533"><ele>99.66666666666667</ele><time>2026-05-04T12:39:39.15Z</time></trkpt><trkpt lat="52.0055733" lon="-0.5471083"><ele>100.0</ele><time>2026-05-04T12:39:40.791Z</time></trkpt><trkpt lat="52.0053667" lon="-0.5469"><ele>99.5</ele><time>2026-05-04T12:39:41.79Z</time></trkpt><trkpt lat="52.0051317" lon="-0.5466833"><ele>99.0</ele><time>2026-05-04T12:39:42.791Z</time></trkpt><trkpt lat="52.00492" lon="-0.5464833"><ele>99.0</ele><time>2026-05-04T12:39:43.79Z</time></trkpt><trkpt lat="52.0046817" lon="-0.546295"><ele>99.0</ele><time>2026-05-04T12:39:44.793Z</time></trkpt><trkpt lat="52.0044567" lon="-0.546115"><ele>97.5</ele><time>2026-05-04T12:39:45.79Z</time></trkpt><trkpt lat="52.0042367" lon="-0.5459367"><ele>96.0</ele><time>2026-05-04T12:39:46.79Z</time></trkpt><trkpt lat="52.0040117" lon="-0.5457533"><ele>96.0</ele><time>2026-05-04T12:39:47.791Z</time></trkpt><trkpt lat="52.0037917" lon="-0.545575"><ele>96.0</ele><time>2026-05-04T12:39:48.791Z</time></trkpt><trkpt lat="52.003575" lon="-0.5453983"><ele>94.5</ele><time>2026-05-04T12:39:49.79Z</time></trkpt><trkpt lat="52.0033633" lon="-0.5452233"><ele>93.0</ele><time>2026-05-04T12:39:50.791Z</time></trkpt><trkpt lat="52.0031533" lon="-0.5450517"><ele>93.0</ele><time>2026-05-04T12:39:51.79Z</time></trkpt><trkpt lat="52.002945" lon="-0.5448833"><ele>93.0</ele><time>2026-05-04T12:39:52.791Z</time></trkpt><trkpt lat="52.002745" lon="-0.5447183"><ele>93.0</ele><time>2026-05-04T12:39:53.79Z</time></trkpt><trkpt lat="52.0025467" lon="-0.544555"><ele>93.0</ele><time>2026-05-04T12:39:54.791Z</time></trkpt><trkpt lat="52.0023483" lon="-0.5443933"><ele>93.0</ele><time>2026-05-04T12:39:55.791Z</time></trkpt><trkpt lat="52.0021567" lon="-0.5442317"><ele>92.0</ele><time>2026-05-04T12:39:56.791Z</time></trkpt><trkpt lat="52.0019633" lon="-0.54407"><ele>91.0</ele><time>2026-05-04T12:39:57.791Z</time></trkpt><trkpt lat="52.0017683" lon="-0.5439033"><ele>90.0</ele><time>2026-05-04T12:39:58.791Z</time></trkpt><trkpt lat="52.001575" lon="-0.5437383"><ele>90.0</ele><time>2026-05-04T12:39:59.793Z</time></trkpt><trkpt lat="52.0013783" lon="-0.543575"><ele>90.0</ele><time>2026-05-04T12:40:00.793Z</time></trkpt><trkpt lat="52.00118" lon="-0.5434067"><ele>90.0</ele><time>2026-05-04T12:40:01.794Z</time></trkpt><trkpt lat="52.0009767" lon="-0.5432383"><ele>90.0</ele><time>2026-05-04T12:40:02.794Z</time></trkpt><trkpt lat="52.0007733" lon="-0.5430683"><ele>90.0</ele><time>2026-05-04T12:40:03.793Z</time></trkpt><trkpt lat="52.00057" lon="-0.5428983"><ele>90.33333333333333</ele><time>2026-05-04T12:40:04.794Z</time></trkpt><trkpt lat="52.0003717" lon="-0.54273"><ele>90.66666666666666</ele><time>2026-05-04T12:40:05.801Z</time></trkpt><trkpt lat="52.0001733" lon="-0.5425617"><ele>91.0</ele><time>2026-05-04T12:40:06.795Z</time></trkpt><trkpt lat="51.9999783" lon="-0.5423933"><ele>91.0</ele><time>2026-05-04T12:40:07.79Z</time></trkpt><trkpt lat="51.999785" lon="-0.5422283"><ele>91.0</ele><time>2026-05-04T12:40:08.793Z</time></trkpt><trkpt lat="51.99959" lon="-0.54206"><ele>91.0</ele><time>2026-05-04T12:40:09.791Z</time></trkpt><trkpt lat="51.999395" lon="-0.541895"><ele>91.33333333333333</ele><time>2026-05-04T12:40:10.79Z</time></trkpt><trkpt lat="51.9991983" lon="-0.5417283"><ele>91.66666666666667</ele><time>2026-05-04T12:40:11.791Z</time></trkpt><trkpt lat="51.9989983" lon="-0.5415583"><ele>92.0</ele><time>2026-05-04T12:40:12.792Z</time></trkpt><trkpt lat="51.9987983" lon="-0.5413867"><ele>92.0</ele><time>2026-05-04T12:40:13.79Z</time></trkpt><trkpt lat="51.9985933" lon="-0.5412167"><ele>92.0</ele><time>2026-05-04T12:40:14.791Z</time></trkpt><trkpt lat="51.99839" lon="-0.5410483"><ele>92.33333333333334</ele><time>2026-05-04T12:40:15.791Z</time></trkpt><trkpt lat="51.9981933" lon="-0.5408817"><ele>92.66666666666667</ele><time>2026-05-04T12:40:16.791Z</time></trkpt><trkpt lat="51.998" lon="-0.5407167"><ele>93.0</ele><time>2026-05-04T12:40:17.793Z</time></trkpt><trkpt lat="51.9978083" lon="-0.5405517"><ele>93.0</ele><time>2026-05-04T12:40:18.791Z</time></trkpt><trkpt lat="51.9976117" lon="-0.5403867"><ele>93.0</ele><time>2026-05-04T12:40:19.791Z</time></trkpt><trkpt lat="51.9974117" lon="-0.5402133"><ele>93.0</ele><time>2026-05-04T12:40:20.79Z</time></trkpt><trkpt lat="51.9972083" lon="-0.5400383"><ele>91.5</ele><time>2026-05-04T12:40:21.79Z</time></trkpt><trkpt lat="51.9970017" lon="-0.5398633"><ele>90.0</ele><time>2026-05-04T12:40:22.792Z</time></trkpt><trkpt lat="51.996795" lon="-0.539685"><ele>90.0</ele><time>2026-05-04T12:40:23.79Z</time></trkpt><trkpt lat="51.9965883" lon="-0.5395067"><ele>90.0</ele><time>2026-05-04T12:40:24.79Z</time></trkpt><trkpt lat="51.9963833" lon="-0.53933"><ele>90.0</ele><time>2026-05-04T12:40:25.79Z</time></trkpt><trkpt lat="51.9961817" lon="-0.5391583"><ele>90.0</ele><time>2026-05-04T12:40:26.791Z</time></trkpt><trkpt lat="51.9959817" lon="-0.5389883"><ele>90.0</ele><time>2026-05-04T12:40:27.791Z</time></trkpt><trkpt lat="51.9957783" lon="-0.5388167"><ele>90.0</ele><time>2026-05-04T12:40:28.792Z</time></trkpt><trkpt lat="51.9955767" lon="-0.538645"><ele>89.5</ele><time>2026-05-04T12:40:29.791Z</time></trkpt><trkpt lat="51.995375" lon="-0.5384733"><ele>89.0</ele><time>2026-05-04T12:40:30.791Z</time></trkpt><trkpt lat="51.9951717" lon="-0.5383017"><ele>88.5</ele><time>2026-05-04T12:40:31.792Z</time></trkpt><trkpt lat="51.99497" lon="-0.53813"><ele>88.0</ele><time>2026-05-04T12:40:32.791Z</time></trkpt><trkpt lat="51.994765" lon="-0.5379617"><ele>87.5</ele><time>2026-05-04T12:40:33.79Z</time></trkpt><trkpt lat="51.99456" lon="-0.5377917"><ele>87.0</ele><time>2026-05-04T12:40:34.792Z</time></trkpt><trkpt lat="51.9943583" lon="-0.53762"><ele>87.0</ele><time>2026-05-04T12:40:35.791Z</time></trkpt><trkpt lat="51.9941583" lon="-0.5374517"><ele>87.0</ele><time>2026-05-04T12:40:36.792Z</time></trkpt><trkpt lat="51.9939617" lon="-0.5372833"><ele>87.0</ele><time>2026-05-04T12:40:37.792Z</time></trkpt><trkpt lat="51.9937683" lon="-0.5371167"><ele>86.66666666666667</ele><time>2026-05-04T12:40:38.791Z</time></trkpt><trkpt lat="51.99358" lon="-0.53695"><ele>86.33333333333334</ele><time>2026-05-04T12:40:39.791Z</time></trkpt><trkpt lat="51.9933917" lon="-0.536785"><ele>86.0</ele><time>2026-05-04T12:40:40.792Z</time></trkpt><trkpt lat="51.9932017" lon="-0.5366217"><ele>86.33333333333334</ele><time>2026-05-04T12:40:41.791Z</time></trkpt><trkpt lat="51.9930117" lon="-0.5364617"><ele>86.66666666666667</ele><time>2026-05-04T12:40:42.796Z</time></trkpt><trkpt lat="51.9928183" lon="-0.5363067"><ele>87.0</ele><time>2026-05-04T12:40:43.795Z</time></trkpt><trkpt lat="51.99263" lon="-0.53615"><ele>87.66666666666667</ele><time>2026-05-04T12:40:44.795Z</time></trkpt><trkpt lat="51.9924433" lon="-0.5359967"><ele>88.33333333333334</ele><time>2026-05-04T12:40:45.793Z</time></trkpt><trkpt lat="51.9922567" lon="-0.53584"><ele>89.0</ele><time>2026-05-04T12:40:46.792Z</time></trkpt><trkpt lat="51.9920667" lon="-0.5356833"><ele>89.0</ele><time>2026-05-04T12:40:47.791Z</time></trkpt><trkpt lat="51.99188" lon="-0.535525"><ele>89.0</ele><time>2026-05-04T12:40:48.791Z</time></trkpt><trkpt lat="51.9916933" lon="-0.5353667"><ele>89.0</ele><time>2026-05-04T12:40:49.791Z</time></trkpt><trkpt lat="51.9915067" lon="-0.5352083"><ele>87.66666666666667</ele><time>2026-05-04T12:40:50.792Z</time></trkpt><trkpt lat="51.99132" lon="-0.53505"><ele>86.33333333333333</ele><time>2026-05-04T12:40:51.791Z</time></trkpt><trkpt lat="51.9911333" lon="-0.5348917"><ele>85.0</ele><time>2026-05-04T12:40:52.791Z</time></trkpt><trkpt lat="51.990945" lon="-0.5347317"><ele>85.0</ele><time>2026-05-04T12:40:53.791Z</time></trkpt><trkpt lat="51.9907533" lon="-0.53457"><ele>85.0</ele><time>2026-05-04T12:40:54.792Z</time></trkpt><trkpt lat="51.99056" lon="-0.5344033"><ele>85.0</ele><time>2026-05-04T12:40:55.791Z</time></trkpt><trkpt lat="51.9903617" lon="-0.5342383"><ele>84.0</ele><time>2026-05-04T12:40:56.791Z</time></trkpt><trkpt lat="51.9901633" lon="-0.5340683"><ele>83.0</ele><time>2026-05-04T12:40:57.79Z</time></trkpt><trkpt lat="51.98996" lon="-0.5338967"><ele>83.0</ele><time>2026-05-04T12:40:58.795Z</time></trkpt><trkpt lat="51.9897583" lon="-0.53373"><ele>83.0</ele><time>2026-05-04T12:40:59.791Z</time></trkpt><trkpt lat="51.98956" lon="-0.5335633"><ele>83.0</ele><time>2026-05-04T12:41:00.795Z</time></trkpt><trkpt lat="51.9893617" lon="-0.5333967"><ele>83.0</ele><time>2026-05-04T12:41:01.795Z</time></trkpt><trkpt lat="51.9891633" lon="-0.53323"><ele>83.0</ele><time>2026-05-04T12:41:02.791Z</time></trkpt><trkpt lat="51.988965" lon="-0.5330633"><ele>83.0</ele><time>2026-05-04T12:41:03.795Z</time></trkpt><trkpt lat="51.98877" lon="-0.5328967"><ele>83.0</ele><time>2026-05-04T12:41:04.791Z</time></trkpt><trkpt lat="51.988575" lon="-0.5327333"><ele>83.0</ele><time>2026-05-04T12:41:05.795Z</time></trkpt><trkpt lat="51.9883783" lon="-0.5325683"><ele>83.0</ele><time>2026-05-04T12:41:06.795Z</time></trkpt><trkpt lat="51.988175" lon="-0.5323983"><ele>83.0</ele><time>2026-05-04T12:41:07.796Z</time></trkpt><trkpt lat="51.987975" lon="-0.5322267"><ele>83.0</ele><time>2026-05-04T12:41:08.794Z</time></trkpt><trkpt lat="51.9877783" lon="-0.53206"><ele>83.0</ele><time>2026-05-04T12:41:09.794Z</time></trkpt><trkpt lat="51.9875833" lon="-0.5318933"><ele>83.0</ele><time>2026-05-04T12:41:10.791Z</time></trkpt><trkpt lat="51.98739" lon="-0.5317267"><ele>83.66666666666667</ele><time>2026-05-04T12:41:11.794Z</time></trkpt><trkpt lat="51.987195" lon="-0.53156"><ele>84.33333333333333</ele><time>2026-05-04T12:41:12.791Z</time></trkpt><trkpt lat="51.986995" lon="-0.531395"><ele>85.0</ele><time>2026-05-04T12:41:13.792Z</time></trkpt><trkpt lat="51.986795" lon="-0.5312283"><ele>84.0</ele><time>2026-05-04T12:41:14.795Z</time></trkpt><trkpt lat="51.9865917" lon="-0.53106"><ele>83.0</ele><time>2026-05-04T12:41:15.79Z</time></trkpt><trkpt lat="51.9863917" lon="-0.53089"><ele>83.0</ele><time>2026-05-04T12:41:16.792Z</time></trkpt><trkpt lat="51.9861933" lon="-0.53072"><ele>83.0</ele><time>2026-05-04T12:41:17.793Z</time></trkpt><trkpt lat="51.9859917" lon="-0.53055"><ele>83.5</ele><time>2026-05-04T12:41:18.79Z</time></trkpt><trkpt lat="51.9857917" lon="-0.53038"><ele>84.0</ele><time>2026-05-04T12:41:19.792Z</time></trkpt><trkpt lat="51.9855917" lon="-0.5302067"><ele>84.0</ele><time>2026-05-04T12:41:20.798Z</time></trkpt><trkpt lat="51.9853883" lon="-0.5300367"><ele>84.0</ele><time>2026-05-04T12:41:21.791Z</time></trkpt><trkpt lat="51.985185" lon="-0.5298683"><ele>84.0</ele><time>2026-05-04T12:41:22.791Z</time></trkpt><trkpt lat="51.9849817" lon="-0.5296967"><ele>84.0</ele><time>2026-05-04T12:41:23.795Z</time></trkpt><trkpt lat="51.98478" lon="-0.5295267"><ele>84.0</ele><time>2026-05-04T12:41:24.793Z</time></trkpt><trkpt lat="51.98458" lon="-0.529355"><ele>84.0</ele><time>2026-05-04T12:41:25.795Z</time></trkpt><trkpt lat="51.9843767" lon="-0.529185"><ele>85.0</ele><time>2026-05-04T12:41:26.791Z</time></trkpt><trkpt lat="51.9841733" lon="-0.5290117"><ele>86.0</ele><time>2026-05-04T12:41:27.791Z</time></trkpt><trkpt lat="51.9839717" lon="-0.52884"><ele>85.0</ele><time>2026-05-04T12:41:28.79Z</time></trkpt><trkpt lat="51.9837683" lon="-0.5286667"><ele>84.0</ele><time>2026-05-04T12:41:29.795Z</time></trkpt><trkpt lat="51.9835667" lon="-0.5285017"><ele>84.0</ele><time>2026-05-04T12:41:30.794Z</time></trkpt><trkpt lat="51.983365" lon="-0.5283383"><ele>84.0</ele><time>2026-05-04T12:41:31.795Z</time></trkpt><trkpt lat="51.98316" lon="-0.5281783"><ele>83.66666666666667</ele><time>2026-05-04T12:41:32.794Z</time></trkpt><trkpt lat="51.982955" lon="-0.5280267"><ele>83.33333333333334</ele><time>2026-05-04T12:41:33.795Z</time></trkpt><trkpt lat="51.98275" lon="-0.527885"><ele>83.0</ele><time>2026-05-04T12:41:34.795Z</time></trkpt><trkpt lat="51.98254" lon="-0.52775"><ele>84.5</ele><time>2026-05-04T12:41:35.795Z</time></trkpt><trkpt lat="51.9823267" lon="-0.5276183"><ele>86.0</ele><time>2026-05-04T12:41:36.79Z</time></trkpt><trkpt lat="51.9821167" lon="-0.5274917"><ele>86.0</ele><time>2026-05-04T12:41:37.795Z</time></trkpt><trkpt lat="51.9819067" lon="-0.527365"><ele>86.0</ele><time>2026-05-04T12:41:38.793Z</time></trkpt><trkpt lat="51.9816933" lon="-0.5272433"><ele>86.5</ele><time>2026-05-04T12:41:39.795Z</time></trkpt><trkpt lat="51.9814767" lon="-0.5271317"><ele>87.0</ele><time>2026-05-04T12:41:40.791Z</time></trkpt><trkpt lat="51.9812617" lon="-0.5270217"><ele>87.0</ele><time>2026-05-04T12:41:41.791Z</time></trkpt><trkpt lat="51.9810417" lon="-0.526915"><ele>87.0</ele><time>2026-05-04T12:41:42.796Z</time></trkpt><trkpt lat="51.9808167" lon="-0.5268133"><ele>88.5</ele><time>2026-05-04T12:41:43.795Z</time></trkpt><trkpt lat="51.98059" lon="-0.5267183"><ele>90.0</ele><time>2026-05-04T12:41:44.796Z</time></trkpt><trkpt lat="51.9803667" lon="-0.52663"><ele>90.0</ele><time>2026-05-04T12:41:45.795Z</time></trkpt><trkpt lat="51.9801433" lon="-0.52655"><ele>90.0</ele><time>2026-05-04T12:41:46.796Z</time></trkpt><trkpt lat="51.9799217" lon="-0.5264767"><ele>91.0</ele><time>2026-05-04T12:41:47.794Z</time></trkpt><trkpt lat="51.9797017" lon="-0.5264083"><ele>92.0</ele><time>2026-05-04T12:41:48.793Z</time></trkpt><trkpt lat="51.9794817" lon="-0.526345"><ele>93.0</ele><time>2026-05-04T12:41:49.791Z</time></trkpt><trkpt lat="51.9792617" lon="-0.5262867"><ele>93.66666666666667</ele><time>2026-05-04T12:41:50.794Z</time></trkpt><trkpt lat="51.9790433" lon="-0.526235"><ele>94.33333333333334</ele><time>2026-05-04T12:41:51.795Z</time></trkpt><trkpt lat="51.978825" lon="-0.5261883"><ele>95.0</ele><time>2026-05-04T12:41:52.793Z</time></trkpt><trkpt lat="51.978605" lon="-0.52615"><ele>95.0</ele><time>2026-05-04T12:41:53.79Z</time></trkpt><trkpt lat="51.978385" lon="-0.5261133"><ele>95.0</ele><time>2026-05-04T12:41:54.794Z</time></trkpt><trkpt lat="51.9781567" lon="-0.526085"><ele>95.5</ele><time>2026-05-04T12:41:55.791Z</time></trkpt><trkpt lat="51.977925" lon="-0.52606"><ele>96.0</ele><time>2026-05-04T12:41:56.791Z</time></trkpt><trkpt lat="51.9776967" lon="-0.526045"><ele>95.5</ele><time>2026-05-04T12:41:57.794Z</time></trkpt><trkpt lat="51.97747" lon="-0.5260383"><ele>95.0</ele><time>2026-05-04T12:41:58.79Z</time></trkpt><trkpt lat="51.97724" lon="-0.5260367"><ele>95.0</ele><time>2026-05-04T12:41:59.795Z</time></trkpt><trkpt lat="51.9770117" lon="-0.5260383"><ele>95.0</ele><time>2026-05-04T12:42:00.794Z</time></trkpt><trkpt lat="51.9767817" lon="-0.5260483"><ele>95.5</ele><time>2026-05-04T12:42:01.795Z</time></trkpt><trkpt lat="51.9765517" lon="-0.5260583"><ele>96.0</ele><time>2026-05-04T12:42:02.792Z</time></trkpt><trkpt lat="51.9763217" lon="-0.5260683"><ele>96.0</ele><time>2026-05-04T12:42:03.795Z</time></trkpt><trkpt lat="51.976095" lon="-0.5260767"><ele>96.0</ele><time>2026-05-04T12:42:04.795Z</time></trkpt><trkpt lat="51.9758633" lon="-0.526085"><ele>97.0</ele><time>2026-05-04T12:42:05.795Z</time></trkpt><trkpt lat="51.975635" lon="-0.5260933"><ele>98.0</ele><time>2026-05-04T12:42:06.791Z</time></trkpt><trkpt lat="51.9754067" lon="-0.5261017"><ele>98.0</ele><time>2026-05-04T12:42:07.792Z</time></trkpt><trkpt lat="51.9751817" lon="-0.5261083"><ele>98.0</ele><time>2026-05-04T12:42:08.791Z</time></trkpt><trkpt lat="51.9749583" lon="-0.5261133"><ele>98.0</ele><time>2026-05-04T12:42:09.791Z</time></trkpt><trkpt lat="51.9747383" lon="-0.526115"><ele>98.0</ele><time>2026-05-04T12:42:10.792Z</time></trkpt><trkpt lat="51.974515" lon="-0.52611"><ele>98.0</ele><time>2026-05-04T12:42:11.791Z</time></trkpt><trkpt lat="51.97429" lon="-0.5261017"><ele>98.0</ele><time>2026-05-04T12:42:12.791Z</time></trkpt><trkpt lat="51.97407" lon="-0.5260917"><ele>98.0</ele><time>2026-05-04T12:42:13.793Z</time></trkpt><trkpt lat="51.973845" lon="-0.5260767"><ele>98.0</ele><time>2026-05-04T12:42:14.791Z</time></trkpt><trkpt lat="51.9736233" lon="-0.526055"><ele>98.0</ele><time>2026-05-04T12:42:15.791Z</time></trkpt><trkpt lat="51.9734" lon="-0.5260333"><ele>98.0</ele><time>2026-05-04T12:42:16.792Z</time></trkpt><trkpt lat="51.9731733" lon="-0.52601"><ele>98.0</ele><time>2026-05-04T12:42:17.792Z</time></trkpt><trkpt lat="51.9733383" lon="-0.5257267"><ele>98.0</ele><time>2026-05-04T12:42:19.067Z</time></trkpt><trkpt lat="51.9726317" lon="-0.5258733"><ele>98.0</ele><time>2026-05-04T12:42:20.254Z</time></trkpt><trkpt lat="51.97228" lon="-0.5258267"><ele>98.0</ele><time>2026-05-04T12:42:21.791Z</time></trkpt><trkpt lat="51.9720467" lon="-0.5257967"><ele>98.0</ele><time>2026-05-04T12:42:22.792Z</time></trkpt><trkpt lat="51.9718167" lon="-0.52576"><ele>98.0</ele><time>2026-05-04T12:42:23.791Z</time></trkpt><trkpt lat="51.9715817" lon="-0.52572"><ele>96.5</ele><time>2026-05-04T12:42:24.792Z</time></trkpt><trkpt lat="51.9713483" lon="-0.525675"><ele>95.0</ele><time>2026-05-04T12:42:25.792Z</time></trkpt><trkpt lat="51.9711167" lon="-0.5256333"><ele>95.0</ele><time>2026-05-04T12:42:26.793Z</time></trkpt><trkpt lat="51.9708867" lon="-0.5255883"><ele>95.0</ele><time>2026-05-04T12:42:27.791Z</time></trkpt><trkpt lat="51.9706583" lon="-0.525535"><ele>95.0</ele><time>2026-05-04T12:42:28.792Z</time></trkpt><trkpt lat="51.9704333" lon="-0.52548"><ele>95.0</ele><time>2026-05-04T12:42:29.793Z</time></trkpt><trkpt lat="51.97021" lon="-0.5254217"><ele>94.0</ele><time>2026-05-04T12:42:30.793Z</time></trkpt><trkpt lat="51.9699867" lon="-0.5253583"><ele>93.0</ele><time>2026-05-04T12:42:31.793Z</time></trkpt><trkpt lat="51.9697633" lon="-0.52529"><ele>93.0</ele><time>2026-05-04T12:42:32.793Z</time></trkpt><trkpt lat="51.9695417" lon="-0.5252183"><ele>93.0</ele><time>2026-05-04T12:42:33.792Z</time></trkpt><trkpt lat="51.9693183" lon="-0.5251467"><ele>93.5</ele><time>2026-05-04T12:42:34.791Z</time></trkpt><trkpt lat="51.9690967" lon="-0.5250717"><ele>94.0</ele><time>2026-05-04T12:42:35.796Z</time></trkpt><trkpt lat="51.9688717" lon="-0.5249917"><ele>94.0</ele><time>2026-05-04T12:42:36.792Z</time></trkpt><trkpt lat="51.96865" lon="-0.5249083"><ele>94.0</ele><time>2026-05-04T12:42:37.792Z</time></trkpt><trkpt lat="51.96843" lon="-0.52482"><ele>94.0</ele><time>2026-05-04T12:42:38.792Z</time></trkpt><trkpt lat="51.9682133" lon="-0.5247317"><ele>94.0</ele><time>2026-05-04T12:42:39.791Z</time></trkpt><trkpt lat="51.9679967" lon="-0.5246367"><ele>94.0</ele><time>2026-05-04T12:42:40.791Z</time></trkpt><trkpt lat="51.96778" lon="-0.5245383"><ele>94.0</ele><time>2026-05-04T12:42:41.792Z</time></trkpt><trkpt lat="51.96756" lon="-0.52444"><ele>94.0</ele><time>2026-05-04T12:42:42.792Z</time></trkpt><trkpt lat="51.96734" lon="-0.5243367"><ele>95.0</ele><time>2026-05-04T12:42:43.791Z</time></trkpt><trkpt lat="51.9671217" lon="-0.5242333"><ele>96.0</ele><time>2026-05-04T12:42:44.791Z</time></trkpt><trkpt lat="51.9669017" lon="-0.524125"><ele>98.5</ele><time>2026-05-04T12:42:45.791Z</time></trkpt><trkpt lat="51.9666817" lon="-0.5240167"><ele>101.0</ele><time>2026-05-04T12:42:46.79Z</time></trkpt><trkpt lat="51.9664583" lon="-0.523905"><ele>101.0</ele><time>2026-05-04T12:42:47.791Z</time></trkpt><trkpt lat="51.9662367" lon="-0.5237867"><ele>101.0</ele><time>2026-05-04T12:42:48.792Z</time></trkpt><trkpt lat="51.9660133" lon="-0.5236633"><ele>102.0</ele><time>2026-05-04T12:42:49.791Z</time></trkpt><trkpt lat="51.9657883" lon="-0.523535"><ele>103.0</ele><time>2026-05-04T12:42:50.79Z</time></trkpt><trkpt lat="51.9655617" lon="-0.523405"><ele>103.0</ele><time>2026-05-04T12:42:51.791Z</time></trkpt><trkpt lat="51.9653367" lon="-0.52327"><ele>103.0</ele><time>2026-05-04T12:42:52.79Z</time></trkpt><trkpt lat="51.96511" lon="-0.52313"><ele>102.0</ele><time>2026-05-04T12:42:53.795Z</time></trkpt><trkpt lat="51.9648817" lon="-0.5229867"><ele>101.0</ele><time>2026-05-04T12:42:54.791Z</time></trkpt><trkpt lat="51.9646567" lon="-0.52284"><ele>101.0</ele><time>2026-05-04T12:42:55.792Z</time></trkpt><trkpt lat="51.96443" lon="-0.52269"><ele>101.0</ele><time>2026-05-04T12:42:56.791Z</time></trkpt><trkpt lat="51.964205" lon="-0.5225367"><ele>100.0</ele><time>2026-05-04T12:42:57.791Z</time></trkpt><trkpt lat="51.9639817" lon="-0.52238"><ele>99.0</ele><time>2026-05-04T12:42:58.791Z</time></trkpt><trkpt lat="51.96376" lon="-0.5222217"><ele>99.0</ele><time>2026-05-04T12:42:59.79Z</time></trkpt><trkpt lat="51.9635417" lon="-0.5220617"><ele>99.0</ele><time>2026-05-04T12:43:00.79Z</time></trkpt><trkpt lat="51.9633233" lon="-0.5219"><ele>99.5</ele><time>2026-05-04T12:43:01.792Z</time></trkpt><trkpt lat="51.9631067" lon="-0.521735"><ele>100.0</ele><time>2026-05-04T12:43:02.79Z</time></trkpt><trkpt lat="51.9628933" lon="-0.521565"><ele>100.0</ele><time>2026-05-04T12:43:03.791Z</time></trkpt><trkpt lat="51.9626767" lon="-0.5213933"><ele>100.0</ele><time>2026-05-04T12:43:04.791Z</time></trkpt><trkpt lat="51.9624633" lon="-0.52122"><ele>100.5</ele><time>2026-05-04T12:43:05.792Z</time></trkpt><trkpt lat="51.9622567" lon="-0.521045"><ele>101.0</ele><time>2026-05-04T12:43:06.79Z</time></trkpt><trkpt lat="51.96205" lon="-0.5208683"><ele>101.0</ele><time>2026-05-04T12:43:07.791Z</time></trkpt><trkpt lat="51.961845" lon="-0.52069"><ele>101.0</ele><time>2026-05-04T12:43:08.793Z</time></trkpt><trkpt lat="51.9616433" lon="-0.5205067"><ele>99.0</ele><time>2026-05-04T12:43:09.791Z</time></trkpt><trkpt lat="51.9614433" lon="-0.5203267"><ele>97.0</ele><time>2026-05-04T12:43:10.79Z</time></trkpt><trkpt lat="51.9612417" lon="-0.520145"><ele>97.0</ele><time>2026-05-04T12:43:11.791Z</time></trkpt><trkpt lat="51.9610433" lon="-0.5199617"><ele>97.0</ele><time>2026-05-04T12:43:12.792Z</time></trkpt><trkpt lat="51.960845" lon="-0.519775"><ele>94.5</ele><time>2026-05-04T12:43:13.792Z</time></trkpt><trkpt lat="51.960645" lon="-0.5195817"><ele>92.0</ele><time>2026-05-04T12:43:14.79Z</time></trkpt><trkpt lat="51.9604467" lon="-0.5193833"><ele>91.5</ele><time>2026-05-04T12:43:15.791Z</time></trkpt><trkpt lat="51.96025" lon="-0.5191833"><ele>91.0</ele><time>2026-05-04T12:43:16.791Z</time></trkpt><trkpt lat="51.960055" lon="-0.5189783"><ele>91.5</ele><time>2026-05-04T12:43:17.792Z</time></trkpt><trkpt lat="51.95986" lon="-0.51877"><ele>92.0</ele><time>2026-05-04T12:43:18.79Z</time></trkpt><trkpt lat="51.959665" lon="-0.5185633"><ele>92.0</ele><time>2026-05-04T12:43:19.792Z</time></trkpt><trkpt lat="51.9594767" lon="-0.5183567"><ele>92.0</ele><time>2026-05-04T12:43:20.791Z</time></trkpt><trkpt lat="51.9592917" lon="-0.5181483"><ele>92.0</ele><time>2026-05-04T12:43:21.792Z</time></trkpt><trkpt lat="51.9591067" lon="-0.51794"><ele>92.0</ele><time>2026-05-04T12:43:22.79Z</time></trkpt><trkpt lat="51.9589233" lon="-0.517725"><ele>92.0</ele><time>2026-05-04T12:43:23.791Z</time></trkpt><trkpt lat="51.95874" lon="-0.517515"><ele>92.0</ele><time>2026-05-04T12:43:24.792Z</time></trkpt><trkpt lat="51.9585583" lon="-0.517305"><ele>92.0</ele><time>2026-05-04T12:43:25.792Z</time></trkpt><trkpt lat="51.9583783" lon="-0.5170933"><ele>92.66666666666667</ele><time>2026-05-04T12:43:26.791Z</time></trkpt><trkpt lat="51.958205" lon="-0.5168783"><ele>93.33333333333333</ele><time>2026-05-04T12:43:27.794Z</time></trkpt><trkpt lat="51.95803" lon="-0.5166633"><ele>94.0</ele><time>2026-05-04T12:43:28.791Z</time></trkpt><trkpt lat="51.957855" lon="-0.516445"><ele>94.0</ele><time>2026-05-04T12:43:29.79Z</time></trkpt><trkpt lat="51.9576867" lon="-0.51622"><ele>94.0</ele><time>2026-05-04T12:43:30.791Z</time></trkpt><trkpt lat="51.9575183" lon="-0.5159933"><ele>94.0</ele><time>2026-05-04T12:43:31.791Z</time></trkpt><trkpt lat="51.9573483" lon="-0.515765"><ele>94.0</ele><time>2026-05-04T12:43:32.791Z</time></trkpt><trkpt lat="51.9571767" lon="-0.5155383"><ele>94.0</ele><time>2026-05-04T12:43:33.791Z</time></trkpt><trkpt lat="51.9570083" lon="-0.5153083"><ele>94.0</ele><time>2026-05-04T12:43:34.791Z</time></trkpt><trkpt lat="51.95684" lon="-0.5150733"><ele>94.33333333333333</ele><time>2026-05-04T12:43:35.791Z</time></trkpt><trkpt lat="51.956675" lon="-0.5148367"><ele>94.66666666666667</ele><time>2026-05-04T12:43:36.791Z</time></trkpt><trkpt lat="51.95651" lon="-0.5145983"><ele>95.0</ele><time>2026-05-04T12:43:37.791Z</time></trkpt><trkpt lat="51.9563467" lon="-0.5143567"><ele>93.0</ele><time>2026-05-04T12:43:38.791Z</time></trkpt><trkpt lat="51.9561833" lon="-0.5141083"><ele>91.0</ele><time>2026-05-04T12:43:39.791Z</time></trkpt><trkpt lat="51.9560183" lon="-0.513855"><ele>90.5</ele><time>2026-05-04T12:43:40.79Z</time></trkpt><trkpt lat="51.9558533" lon="-0.5135983"><ele>90.0</ele><time>2026-05-04T12:43:41.791Z</time></trkpt><trkpt lat="51.95569" lon="-0.5133383"><ele>90.0</ele><time>2026-05-04T12:43:42.79Z</time></trkpt><trkpt lat="51.9555317" lon="-0.5130733"><ele>90.0</ele><time>2026-05-04T12:43:43.793Z</time></trkpt><trkpt lat="51.9553733" lon="-0.512805"><ele>90.0</ele><time>2026-05-04T12:43:44.79Z</time></trkpt><trkpt lat="51.955215" lon="-0.512535"><ele>90.0</ele><time>2026-05-04T12:43:45.79Z</time></trkpt><trkpt lat="51.9550567" lon="-0.5122633"><ele>90.0</ele><time>2026-05-04T12:43:46.791Z</time></trkpt><trkpt lat="51.9549" lon="-0.51199"><ele>90.0</ele><time>2026-05-04T12:43:47.791Z</time></trkpt><trkpt lat="51.954745" lon="-0.5117183"><ele>90.0</ele><time>2026-05-04T12:43:48.791Z</time></trkpt><trkpt lat="51.9545917" lon="-0.5114467"><ele>90.0</ele><time>2026-05-04T12:43:49.791Z</time></trkpt><trkpt lat="51.9544367" lon="-0.5111767"><ele>90.0</ele><time>2026-05-04T12:43:50.791Z</time></trkpt><trkpt lat="51.9542783" lon="-0.5109067"><ele>90.0</ele><time>2026-05-04T12:43:51.791Z</time></trkpt><trkpt lat="51.9541217" lon="-0.51064"><ele>89.5</ele><time>2026-05-04T12:43:52.79Z</time></trkpt><trkpt lat="51.9539633" lon="-0.510375"><ele>89.0</ele><time>2026-05-04T12:43:53.792Z</time></trkpt><trkpt lat="51.9538083" lon="-0.5101117"><ele>89.0</ele><time>2026-05-04T12:43:54.791Z</time></trkpt><trkpt lat="51.953655" lon="-0.50985"><ele>89.0</ele><time>2026-05-04T12:43:55.795Z</time></trkpt><trkpt lat="51.9535" lon="-0.5095967"><ele>89.0</ele><time>2026-05-04T12:43:56.791Z</time></trkpt><trkpt lat="51.9533467" lon="-0.5093433"><ele>89.33333333333334</ele><time>2026-05-04T12:43:57.79Z</time></trkpt><trkpt lat="51.9531917" lon="-0.509095"><ele>89.66666666666667</ele><time>2026-05-04T12:43:58.79Z</time></trkpt><trkpt lat="51.953035" lon="-0.50885"><ele>90.0</ele><time>2026-05-04T12:43:59.791Z</time></trkpt><trkpt lat="51.95288" lon="-0.508605"><ele>90.0</ele><time>2026-05-04T12:44:00.791Z</time></trkpt><trkpt lat="51.9527233" lon="-0.5083617"><ele>90.0</ele><time>2026-05-04T12:44:01.791Z</time></trkpt><trkpt lat="51.9525617" lon="-0.5081183"><ele>90.0</ele><time>2026-05-04T12:44:02.792Z</time></trkpt><trkpt lat="51.952395" lon="-0.50788"><ele>90.0</ele><time>2026-05-04T12:44:03.791Z</time></trkpt><trkpt lat="51.9522283" lon="-0.5076383"><ele>90.0</ele><time>2026-05-04T12:44:04.791Z</time></trkpt><trkpt lat="51.9520567" lon="-0.507395"><ele>90.0</ele><time>2026-05-04T12:44:05.792Z</time></trkpt><trkpt lat="51.9518817" lon="-0.50715"><ele>90.0</ele><time>2026-05-04T12:44:06.791Z</time></trkpt><trkpt lat="51.951705" lon="-0.50691"><ele>90.5</ele><time>2026-05-04T12:44:07.793Z</time></trkpt><trkpt lat="51.9515283" lon="-0.506675"><ele>91.0</ele><time>2026-05-04T12:44:08.794Z</time></trkpt><trkpt lat="51.9513517" lon="-0.5064417"><ele>90.5</ele><time>2026-05-04T12:44:09.791Z</time></trkpt><trkpt lat="51.9511733" lon="-0.5062117"><ele>90.0</ele><time>2026-05-04T12:44:10.791Z</time></trkpt><trkpt lat="51.9509933" lon="-0.5059833"><ele>90.0</ele><time>2026-05-04T12:44:11.791Z</time></trkpt><trkpt lat="51.950815" lon="-0.5057617"><ele>90.0</ele><time>2026-05-04T12:44:12.791Z</time></trkpt><trkpt lat="51.9506367" lon="-0.5055433"><ele>90.0</ele><time>2026-05-04T12:44:13.791Z</time></trkpt><trkpt lat="51.9504583" lon="-0.505325"><ele>90.0</ele><time>2026-05-04T12:44:14.792Z</time></trkpt><trkpt lat="51.95028" lon="-0.50511"><ele>90.0</ele><time>2026-05-04T12:44:15.791Z</time></trkpt><trkpt lat="51.9501017" lon="-0.5048983"><ele>90.0</ele><time>2026-05-04T12:44:16.791Z</time></trkpt><trkpt lat="51.94992" lon="-0.5046917"><ele>90.33333333333333</ele><time>2026-05-04T12:44:17.791Z</time></trkpt><trkpt lat="51.949735" lon="-0.5044883"><ele>90.66666666666666</ele><time>2026-05-04T12:44:18.79Z</time></trkpt><trkpt lat="51.94955" lon="-0.5042883"><ele>91.0</ele><time>2026-05-04T12:44:19.791Z</time></trkpt><trkpt lat="51.9493633" lon="-0.504095"><ele>91.66666666666666</ele><time>2026-05-04T12:44:20.791Z</time></trkpt><trkpt lat="51.9491783" lon="-0.5039017"><ele>92.33333333333333</ele><time>2026-05-04T12:44:21.791Z</time></trkpt><trkpt lat="51.9489983" lon="-0.50371"><ele>93.0</ele><time>2026-05-04T12:44:22.791Z</time></trkpt><trkpt lat="51.948815" lon="-0.5035217"><ele>93.33333333333333</ele><time>2026-05-04T12:44:23.79Z</time></trkpt><trkpt lat="51.9486333" lon="-0.5033383"><ele>93.66666666666666</ele><time>2026-05-04T12:44:24.791Z</time></trkpt><trkpt lat="51.94845" lon="-0.503155"><ele>94.0</ele><time>2026-05-04T12:44:25.792Z</time></trkpt><trkpt lat="51.9482667" lon="-0.502975"><ele>94.66666666666666</ele><time>2026-05-04T12:44:26.791Z</time></trkpt><trkpt lat="51.9480817" lon="-0.5028017"><ele>95.33333333333333</ele><time>2026-05-04T12:44:27.79Z</time></trkpt><trkpt lat="51.9478967" lon="-0.5026283"><ele>96.0</ele><time>2026-05-04T12:44:28.791Z</time></trkpt><trkpt lat="51.9477117" lon="-0.5024583"><ele>97.0</ele><time>2026-05-04T12:44:29.791Z</time></trkpt><trkpt lat="51.9475267" lon="-0.5022867"><ele>98.0</ele><time>2026-05-04T12:44:30.791Z</time></trkpt><trkpt lat="51.9473417" lon="-0.5021183"><ele>99.0</ele><time>2026-05-04T12:44:31.791Z</time></trkpt><trkpt lat="51.947155" lon="-0.5019567"><ele>99.33333333333334</ele><time>2026-05-04T12:44:32.792Z</time></trkpt><trkpt lat="51.9469633" lon="-0.5017983"><ele>99.66666666666667</ele><time>2026-05-04T12:44:33.791Z</time></trkpt><trkpt lat="51.9467717" lon="-0.5016383"><ele>100.0</ele><time>2026-05-04T12:44:34.791Z</time></trkpt><trkpt lat="51.9465783" lon="-0.5014783"><ele>100.0</ele><time>2026-05-04T12:44:35.792Z</time></trkpt><trkpt lat="51.9463817" lon="-0.5013217"><ele>100.0</ele><time>2026-05-04T12:44:36.791Z</time></trkpt><trkpt lat="51.946185" lon="-0.5011617"><ele>100.0</ele><time>2026-05-04T12:44:37.79Z</time></trkpt><trkpt lat="51.9459833" lon="-0.501005"><ele>99.5</ele><time>2026-05-04T12:44:38.792Z</time></trkpt><trkpt lat="51.94578" lon="-0.5008533"><ele>99.0</ele><time>2026-05-04T12:44:39.791Z</time></trkpt><trkpt lat="51.9455733" lon="-0.500705"><ele>99.0</ele><time>2026-05-04T12:44:40.79Z</time></trkpt><trkpt lat="51.945365" lon="-0.5005567"><ele>99.0</ele><time>2026-05-04T12:44:41.791Z</time></trkpt><trkpt lat="51.945155" lon="-0.5004083"><ele>98.5</ele><time>2026-05-04T12:44:42.791Z</time></trkpt><trkpt lat="51.9449433" lon="-0.5002633"><ele>98.0</ele><time>2026-05-04T12:44:43.792Z</time></trkpt><trkpt lat="51.9447317" lon="-0.5001233"><ele>98.0</ele><time>2026-05-04T12:44:44.792Z</time></trkpt><trkpt lat="51.9445167" lon="-0.499985"><ele>98.0</ele><time>2026-05-04T12:44:45.79Z</time></trkpt><trkpt lat="51.9443033" lon="-0.49985"><ele>99.0</ele><time>2026-05-04T12:44:46.791Z</time></trkpt><trkpt lat="51.94409" lon="-0.4997167"><ele>100.0</ele><time>2026-05-04T12:44:47.791Z</time></trkpt><trkpt lat="51.9438783" lon="-0.499585"><ele>101.5</ele><time>2026-05-04T12:44:48.791Z</time></trkpt><trkpt lat="51.943665" lon="-0.49946"><ele>103.0</ele><time>2026-05-04T12:44:49.79Z</time></trkpt><trkpt lat="51.9434517" lon="-0.4993383"><ele>101.5</ele><time>2026-05-04T12:44:50.791Z</time></trkpt><trkpt lat="51.9432367" lon="-0.4992217"><ele>100.0</ele><time>2026-05-04T12:44:51.791Z</time></trkpt><trkpt lat="51.94302" lon="-0.4991067"><ele>100.0</ele><time>2026-05-04T12:44:52.791Z</time></trkpt><trkpt lat="51.9428033" lon="-0.498995"><ele>100.0</ele><time>2026-05-04T12:44:53.791Z</time></trkpt><trkpt lat="51.9425883" lon="-0.4988883"><ele>100.33333333333334</ele><time>2026-05-04T12:44:54.79Z</time></trkpt><trkpt lat="51.942375" lon="-0.4987833"><ele>100.66666666666666</ele><time>2026-05-04T12:44:55.792Z</time></trkpt><trkpt lat="51.94216" lon="-0.4986817"><ele>101.0</ele><time>2026-05-04T12:44:56.792Z</time></trkpt><trkpt lat="51.9419467" lon="-0.4985817"><ele>101.0</ele><time>2026-05-04T12:44:57.791Z</time></trkpt><trkpt lat="51.94173" lon="-0.498485"><ele>101.0</ele><time>2026-05-04T12:44:58.791Z</time></trkpt><trkpt lat="51.9415133" lon="-0.4983917"><ele>101.0</ele><time>2026-05-04T12:44:59.791Z</time></trkpt><trkpt lat="51.9413017" lon="-0.4982983"><ele>101.66666666666666</ele><time>2026-05-04T12:45:00.79Z</time></trkpt><trkpt lat="51.9410867" lon="-0.4982117"><ele>102.33333333333334</ele><time>2026-05-04T12:45:01.795Z</time></trkpt><trkpt lat="51.940875" lon="-0.498125"><ele>103.0</ele><time>2026-05-04T12:45:02.79Z</time></trkpt><trkpt lat="51.9406617" lon="-0.498045"><ele>103.0</ele><time>2026-05-04T12:45:03.791Z</time></trkpt><trkpt lat="51.940445" lon="-0.497965"><ele>103.0</ele><time>2026-05-04T12:45:04.796Z</time></trkpt><trkpt lat="51.9402267" lon="-0.4978917"><ele>103.0</ele><time>2026-05-04T12:45:05.79Z</time></trkpt><trkpt lat="51.9400083" lon="-0.4978183"><ele>103.0</ele><time>2026-05-04T12:45:06.791Z</time></trkpt><trkpt lat="51.9397933" lon="-0.4977467"><ele>103.0</ele><time>2026-05-04T12:45:07.791Z</time></trkpt><trkpt lat="51.93958" lon="-0.49768"><ele>103.0</ele><time>2026-05-04T12:45:08.791Z</time></trkpt><trkpt lat="51.939365" lon="-0.4976183"><ele>104.0</ele><time>2026-05-04T12:45:09.792Z</time></trkpt><trkpt lat="51.9391467" lon="-0.49756"><ele>105.0</ele><time>2026-05-04T12:45:10.79Z</time></trkpt><trkpt lat="51.93893" lon="-0.4975033"><ele>106.0</ele><time>2026-05-04T12:45:11.79Z</time></trkpt><trkpt lat="51.9387117" lon="-0.4974483"><ele>106.0</ele><time>2026-05-04T12:45:12.792Z</time></trkpt><trkpt lat="51.938495" lon="-0.4973983"><ele>106.0</ele><time>2026-05-04T12:45:13.792Z</time></trkpt><trkpt lat="51.938275" lon="-0.4973533"><ele>106.0</ele><time>2026-05-04T12:45:14.793Z</time></trkpt><trkpt lat="51.93806" lon="-0.4973067"><ele>106.66666666666667</ele><time>2026-05-04T12:45:15.791Z</time></trkpt><trkpt lat="51.9378467" lon="-0.4972633"><ele>107.33333333333334</ele><time>2026-05-04T12:45:16.791Z</time></trkpt><trkpt lat="51.9376317" lon="-0.4972217"><ele>108.0</ele><time>2026-05-04T12:45:17.791Z</time></trkpt><trkpt lat="51.9374133" lon="-0.4971867"><ele>108.66666666666666</ele><time>2026-05-04T12:45:18.795Z</time></trkpt><trkpt lat="51.9371933" lon="-0.497155"><ele>109.33333333333333</ele><time>2026-05-04T12:45:19.791Z</time></trkpt><trkpt lat="51.9369733" lon="-0.497125"><ele>110.0</ele><time>2026-05-04T12:45:20.791Z</time></trkpt><trkpt lat="51.9367567" lon="-0.4970967"><ele>111.33333333333333</ele><time>2026-05-04T12:45:21.791Z</time></trkpt><trkpt lat="51.9365333" lon="-0.4970767"><ele>112.66666666666666</ele><time>2026-05-04T12:45:22.792Z</time></trkpt><trkpt lat="51.936315" lon="-0.4970517"><ele>114.0</ele><time>2026-05-04T12:45:23.79Z</time></trkpt><trkpt lat="51.9360967" lon="-0.497035"><ele>113.66666666666666</ele><time>2026-05-04T12:45:24.791Z</time></trkpt><trkpt lat="51.935875" lon="-0.4970167"><ele>113.33333333333333</ele><time>2026-05-04T12:45:25.793Z</time></trkpt><trkpt lat="51.9356583" lon="-0.497"><ele>113.0</ele><time>2026-05-04T12:45:26.792Z</time></trkpt><trkpt lat="51.935435" lon="-0.4969883"><ele>113.0</ele><time>2026-05-04T12:45:27.791Z</time></trkpt><trkpt lat="51.935205" lon="-0.4969733"><ele>113.0</ele><time>2026-05-04T12:45:28.791Z</time></trkpt><trkpt lat="51.9349733" lon="-0.49696"><ele>112.0</ele><time>2026-05-04T12:45:29.791Z</time></trkpt><trkpt lat="51.9347417" lon="-0.49695"><ele>111.0</ele><time>2026-05-04T12:45:30.793Z</time></trkpt><trkpt lat="51.9345083" lon="-0.49694"><ele>111.0</ele><time>2026-05-04T12:45:31.793Z</time></trkpt><trkpt lat="51.9342767" lon="-0.4969267"><ele>111.0</ele><time>2026-05-04T12:45:32.793Z</time></trkpt><trkpt lat="51.9340433" lon="-0.4969133"><ele>110.5</ele><time>2026-05-04T12:45:33.792Z</time></trkpt><trkpt lat="51.9338117" lon="-0.4969017"><ele>110.0</ele><time>2026-05-04T12:45:34.792Z</time></trkpt><trkpt lat="51.93358" lon="-0.4968833"><ele>109.5</ele><time>2026-05-04T12:45:35.794Z</time></trkpt><trkpt lat="51.93335" lon="-0.4968667"><ele>109.0</ele><time>2026-05-04T12:45:36.793Z</time></trkpt><trkpt lat="51.9331217" lon="-0.4968467"><ele>109.0</ele><time>2026-05-04T12:45:37.793Z</time></trkpt><trkpt lat="51.9328933" lon="-0.4968233"><ele>109.0</ele><time>2026-05-04T12:45:38.792Z</time></trkpt><trkpt lat="51.932665" lon="-0.4967917"><ele>109.5</ele><time>2026-05-04T12:45:39.793Z</time></trkpt><trkpt lat="51.9324367" lon="-0.4967633"><ele>110.0</ele><time>2026-05-04T12:45:40.794Z</time></trkpt><trkpt lat="51.9322083" lon="-0.49673"><ele>110.0</ele><time>2026-05-04T12:45:41.792Z</time></trkpt><trkpt lat="51.9319817" lon="-0.4966967"><ele>110.0</ele><time>2026-05-04T12:45:42.793Z</time></trkpt><trkpt lat="51.9317583" lon="-0.4966517"><ele>110.0</ele><time>2026-05-04T12:45:43.792Z</time></trkpt><trkpt lat="51.9315333" lon="-0.4966067"><ele>110.0</ele><time>2026-05-04T12:45:44.793Z</time></trkpt><trkpt lat="51.9313117" lon="-0.496555"><ele>110.0</ele><time>2026-05-04T12:45:45.792Z</time></trkpt><trkpt lat="51.93109" lon="-0.4965017"><ele>110.0</ele><time>2026-05-04T12:45:46.793Z</time></trkpt><trkpt lat="51.9308667" lon="-0.4964483"><ele>111.0</ele><time>2026-05-04T12:45:47.793Z</time></trkpt><trkpt lat="51.9306417" lon="-0.4963867"><ele>112.0</ele><time>2026-05-04T12:45:48.793Z</time></trkpt><trkpt lat="51.9304133" lon="-0.49633"><ele>112.0</ele><time>2026-05-04T12:45:49.794Z</time></trkpt><trkpt lat="51.93018" lon="-0.4962717"><ele>112.0</ele><time>2026-05-04T12:45:50.794Z</time></trkpt><trkpt lat="51.9299533" lon="-0.4962033"><ele>112.33333333333334</ele><time>2026-05-04T12:45:51.793Z</time></trkpt><trkpt lat="51.9297333" lon="-0.4961283"><ele>112.66666666666666</ele><time>2026-05-04T12:45:52.791Z</time></trkpt><trkpt lat="51.9295167" lon="-0.4960533"><ele>113.0</ele><time>2026-05-04T12:45:53.792Z</time></trkpt><trkpt lat="51.9293017" lon="-0.495975"><ele>112.66666666666666</ele><time>2026-05-04T12:45:54.791Z</time></trkpt><trkpt lat="51.9290833" lon="-0.4958883"><ele>112.33333333333334</ele><time>2026-05-04T12:45:55.792Z</time></trkpt><trkpt lat="51.9288683" lon="-0.4958017"><ele>112.0</ele><time>2026-05-04T12:45:56.793Z</time></trkpt><trkpt lat="51.92865" lon="-0.4957117"><ele>112.0</ele><time>2026-05-04T12:45:57.791Z</time></trkpt><trkpt lat="51.9284367" lon="-0.49562"><ele>112.0</ele><time>2026-05-04T12:45:58.793Z</time></trkpt><trkpt lat="51.9282233" lon="-0.495525"><ele>112.0</ele><time>2026-05-04T12:45:59.792Z</time></trkpt><trkpt lat="51.9280117" lon="-0.4954283"><ele>112.33333333333334</ele><time>2026-05-04T12:46:00.794Z</time></trkpt><trkpt lat="51.9278033" lon="-0.4953333"><ele>112.66666666666666</ele><time>2026-05-04T12:46:01.794Z</time></trkpt><trkpt lat="51.92759" lon="-0.4952383"><ele>113.0</ele><time>2026-05-04T12:46:02.793Z</time></trkpt><trkpt lat="51.9273767" lon="-0.4951383"><ele>113.0</ele><time>2026-05-04T12:46:03.794Z</time></trkpt><trkpt lat="51.9271683" lon="-0.49504"><ele>113.0</ele><time>2026-05-04T12:46:04.793Z</time></trkpt><trkpt lat="51.9269583" lon="-0.4949417"><ele>113.0</ele><time>2026-05-04T12:46:05.794Z</time></trkpt><trkpt lat="51.9267467" lon="-0.49484"><ele>113.0</ele><time>2026-05-04T12:46:06.793Z</time></trkpt><trkpt lat="51.926545" lon="-0.49473"><ele>113.0</ele><time>2026-05-04T12:46:07.792Z</time></trkpt><trkpt lat="51.9263483" lon="-0.4946167"><ele>113.0</ele><time>2026-05-04T12:46:08.794Z</time></trkpt><trkpt lat="51.92615" lon="-0.4945017"><ele>113.0</ele><time>2026-05-04T12:46:09.792Z</time></trkpt><trkpt lat="51.9259467" lon="-0.4943833"><ele>113.0</ele><time>2026-05-04T12:46:10.793Z</time></trkpt><trkpt lat="51.9257467" lon="-0.4942633"><ele>113.0</ele><time>2026-05-04T12:46:11.792Z</time></trkpt><trkpt lat="51.925545" lon="-0.4941417"><ele>113.33333333333333</ele><time>2026-05-04T12:46:12.793Z</time></trkpt><trkpt lat="51.925345" lon="-0.4940167"><ele>113.66666666666666</ele><time>2026-05-04T12:46:13.793Z</time></trkpt><trkpt lat="51.9251417" lon="-0.4938867"><ele>114.0</ele><time>2026-05-04T12:46:14.793Z</time></trkpt><trkpt lat="51.92494" lon="-0.49375"><ele>117.0</ele><time>2026-05-04T12:46:15.793Z</time></trkpt><trkpt lat="51.9247317" lon="-0.49361"><ele>120.0</ele><time>2026-05-04T12:46:16.794Z</time></trkpt><trkpt lat="51.924525" lon="-0.4934683"><ele>120.0</ele><time>2026-05-04T12:46:17.793Z</time></trkpt><trkpt lat="51.9243167" lon="-0.4933233"><ele>120.0</ele><time>2026-05-04T12:46:18.793Z</time></trkpt><trkpt lat="51.9241117" lon="-0.493175"><ele>122.0</ele><time>2026-05-04T12:46:19.795Z</time></trkpt><trkpt lat="51.9239083" lon="-0.493025"><ele>124.0</ele><time>2026-05-04T12:46:20.791Z</time></trkpt><trkpt lat="51.9237033" lon="-0.4928767"><ele>126.0</ele><time>2026-05-04T12:46:21.794Z</time></trkpt><trkpt lat="51.9235017" lon="-0.49273"><ele>128.5</ele><time>2026-05-04T12:46:22.794Z</time></trkpt><trkpt lat="51.923295" lon="-0.49258"><ele>131.0</ele><time>2026-05-04T12:46:23.791Z</time></trkpt><trkpt lat="51.9230917" lon="-0.4924283"><ele>131.0</ele><time>2026-05-04T12:46:24.791Z</time></trkpt><trkpt lat="51.9228883" lon="-0.4922783"><ele>131.0</ele><time>2026-05-04T12:46:25.79Z</time></trkpt><trkpt lat="51.9226883" lon="-0.4921283"><ele>131.0</ele><time>2026-05-04T12:46:26.795Z</time></trkpt><trkpt lat="51.9224867" lon="-0.4919783"><ele>132.66666666666666</ele><time>2026-05-04T12:46:27.79Z</time></trkpt><trkpt lat="51.9222867" lon="-0.4918283"><ele>134.33333333333334</ele><time>2026-05-04T12:46:28.792Z</time></trkpt><trkpt lat="51.922085" lon="-0.4916767"><ele>136.0</ele><time>2026-05-04T12:46:29.792Z</time></trkpt><trkpt lat="51.9218817" lon="-0.491525"><ele>135.5</ele><time>2026-05-04T12:46:30.791Z</time></trkpt><trkpt lat="51.9216767" lon="-0.4913733"><ele>135.0</ele><time>2026-05-04T12:46:31.792Z</time></trkpt><trkpt lat="51.9214717" lon="-0.49122"><ele>135.0</ele><time>2026-05-04T12:46:32.792Z</time></trkpt><trkpt lat="51.92127" lon="-0.49106"><ele>135.0</ele><time>2026-05-04T12:46:33.791Z</time></trkpt><trkpt lat="51.9210667" lon="-0.4909"><ele>133.5</ele><time>2026-05-04T12:46:34.791Z</time></trkpt><trkpt lat="51.9208517" lon="-0.4907433"><ele>132.0</ele><time>2026-05-04T12:46:35.79Z</time></trkpt><trkpt lat="51.9206333" lon="-0.4905817"><ele>132.5</ele><time>2026-05-04T12:46:36.79Z</time></trkpt><trkpt lat="51.92042" lon="-0.4904217"><ele>133.0</ele><time>2026-05-04T12:46:37.792Z</time></trkpt><trkpt lat="51.920205" lon="-0.490265"><ele>132.0</ele><time>2026-05-04T12:46:38.791Z</time></trkpt><trkpt lat="51.91999" lon="-0.49011"><ele>131.0</ele><time>2026-05-04T12:46:39.791Z</time></trkpt><trkpt lat="51.9197717" lon="-0.48995"><ele>131.0</ele><time>2026-05-04T12:46:40.79Z</time></trkpt><trkpt lat="51.9195533" lon="-0.4897883"><ele>131.0</ele><time>2026-05-04T12:46:41.791Z</time></trkpt><trkpt lat="51.91934" lon="-0.489625"><ele>130.0</ele><time>2026-05-04T12:46:42.792Z</time></trkpt><trkpt lat="51.9191233" lon="-0.489465"><ele>129.0</ele><time>2026-05-04T12:46:43.791Z</time></trkpt><trkpt lat="51.9189067" lon="-0.4893083"><ele>129.0</ele><time>2026-05-04T12:46:44.792Z</time></trkpt><trkpt lat="51.9186917" lon="-0.4891533"><ele>129.0</ele><time>2026-05-04T12:46:45.791Z</time></trkpt><trkpt lat="51.9184817" lon="-0.4889983"><ele>129.0</ele><time>2026-05-04T12:46:46.795Z</time></trkpt><trkpt lat="51.918275" lon="-0.488845"><ele>129.0</ele><time>2026-05-04T12:46:47.795Z</time></trkpt><trkpt lat="51.9180683" lon="-0.4886883"><ele>129.0</ele><time>2026-05-04T12:46:48.793Z</time></trkpt><trkpt lat="51.9178617" lon="-0.48853"><ele>129.0</ele><time>2026-05-04T12:46:49.793Z</time></trkpt><trkpt lat="51.91765" lon="-0.4883733"><ele>128.5</ele><time>2026-05-04T12:46:50.794Z</time></trkpt><trkpt lat="51.91744" lon="-0.4882183"><ele>128.0</ele><time>2026-05-04T12:46:51.793Z</time></trkpt><trkpt lat="51.9172283" lon="-0.4880633"><ele>128.0</ele><time>2026-05-04T12:46:52.793Z</time></trkpt><trkpt lat="51.9170183" lon="-0.4879067"><ele>128.0</ele><time>2026-05-04T12:46:53.792Z</time></trkpt><trkpt lat="51.9168033" lon="-0.4877467"><ele>127.5</ele><time>2026-05-04T12:46:54.793Z</time></trkpt><trkpt lat="51.9165867" lon="-0.4875867"><ele>127.0</ele><time>2026-05-04T12:46:55.793Z</time></trkpt><trkpt lat="51.9163717" lon="-0.487425"><ele>127.0</ele><time>2026-05-04T12:46:56.793Z</time></trkpt><trkpt lat="51.9161583" lon="-0.487265"><ele>127.0</ele><time>2026-05-04T12:46:57.792Z</time></trkpt><trkpt lat="51.9159417" lon="-0.4871033"><ele>128.5</ele><time>2026-05-04T12:46:58.794Z</time></trkpt><trkpt lat="51.9157267" lon="-0.4869483"><ele>130.0</ele><time>2026-05-04T12:46:59.793Z</time></trkpt><trkpt lat="51.9155117" lon="-0.48679"><ele>130.0</ele><time>2026-05-04T12:47:00.791Z</time></trkpt><trkpt lat="51.9152967" lon="-0.4866283"><ele>130.0</ele><time>2026-05-04T12:47:01.794Z</time></trkpt><trkpt lat="51.91508" lon="-0.486465"><ele>129.0</ele><time>2026-05-04T12:47:02.792Z</time></trkpt><trkpt lat="51.9148633" lon="-0.4863017"><ele>128.0</ele><time>2026-05-04T12:47:03.793Z</time></trkpt><trkpt lat="51.9146483" lon="-0.4861383"><ele>127.0</ele><time>2026-05-04T12:47:04.793Z</time></trkpt><trkpt lat="51.9144317" lon="-0.4859767"><ele>126.0</ele><time>2026-05-04T12:47:05.793Z</time></trkpt><trkpt lat="51.9142133" lon="-0.4858133"><ele>125.5</ele><time>2026-05-04T12:47:06.791Z</time></trkpt><trkpt lat="51.9139967" lon="-0.4856517"><ele>125.0</ele><time>2026-05-04T12:47:07.792Z</time></trkpt><trkpt lat="51.9137783" lon="-0.4854883"><ele>124.5</ele><time>2026-05-04T12:47:08.792Z</time></trkpt><trkpt lat="51.91356" lon="-0.4853283"><ele>124.0</ele><time>2026-05-04T12:47:09.793Z</time></trkpt><trkpt lat="51.913345" lon="-0.4851667"><ele>124.0</ele><time>2026-05-04T12:47:10.793Z</time></trkpt><trkpt lat="51.9131267" lon="-0.485005"><ele>124.0</ele><time>2026-05-04T12:47:11.791Z</time></trkpt><trkpt lat="51.9129083" lon="-0.4848433"><ele>124.0</ele><time>2026-05-04T12:47:12.795Z</time></trkpt><trkpt lat="51.91269" lon="-0.4846833"><ele>124.0</ele><time>2026-05-04T12:47:13.794Z</time></trkpt><trkpt lat="51.9124733" lon="-0.484525"><ele>123.5</ele><time>2026-05-04T12:47:14.791Z</time></trkpt><trkpt lat="51.91226" lon="-0.4843683"><ele>123.0</ele><time>2026-05-04T12:47:15.794Z</time></trkpt><trkpt lat="51.9120483" lon="-0.4842083"><ele>123.0</ele><time>2026-05-04T12:47:16.791Z</time></trkpt><trkpt lat="51.9118383" lon="-0.4840483"><ele>123.0</ele><time>2026-05-04T12:47:17.795Z</time></trkpt><trkpt lat="51.9116317" lon="-0.48389"><ele>123.0</ele><time>2026-05-04T12:47:18.794Z</time></trkpt><trkpt lat="51.9114267" lon="-0.4837317"><ele>123.0</ele><time>2026-05-04T12:47:19.793Z</time></trkpt><trkpt lat="51.9112183" lon="-0.483575"><ele>123.0</ele><time>2026-05-04T12:47:20.793Z</time></trkpt><trkpt lat="51.9110067" lon="-0.48342"><ele>123.0</ele><time>2026-05-04T12:47:21.79Z</time></trkpt><trkpt lat="51.9108917" lon="-0.48327"><ele>123.0</ele><time>2026-05-04T12:47:23.316Z</time></trkpt><trkpt lat="51.910455" lon="-0.482935"><ele>123.5</ele><time>2026-05-04T12:47:24.791Z</time></trkpt><trkpt lat="51.9102417" lon="-0.4827833"><ele>124.0</ele><time>2026-05-04T12:47:25.793Z</time></trkpt><trkpt lat="51.910025" lon="-0.4826283"><ele>124.5</ele><time>2026-05-04T12:47:26.79Z</time></trkpt><trkpt lat="51.9098217" lon="-0.4824717"><ele>125.0</ele><time>2026-05-04T12:47:27.79Z</time></trkpt><trkpt lat="51.9096183" lon="-0.4823133"><ele>125.0</ele><time>2026-05-04T12:47:28.795Z</time></trkpt><trkpt lat="51.90941" lon="-0.4821533"><ele>125.0</ele><time>2026-05-04T12:47:29.791Z</time></trkpt><trkpt lat="51.909195" lon="-0.4819917"><ele>125.5</ele><time>2026-05-04T12:47:30.791Z</time></trkpt><trkpt lat="51.9089817" lon="-0.481835"><ele>126.0</ele><time>2026-05-04T12:47:31.791Z</time></trkpt><trkpt lat="51.90877" lon="-0.48168"><ele>126.0</ele><time>2026-05-04T12:47:32.79Z</time></trkpt><trkpt lat="51.9085583" lon="-0.4815233"><ele>126.0</ele><time>2026-05-04T12:47:33.791Z</time></trkpt><trkpt lat="51.9083467" lon="-0.4813683"><ele>125.0</ele><time>2026-05-04T12:47:34.79Z</time></trkpt><trkpt lat="51.9081333" lon="-0.48122"><ele>124.0</ele><time>2026-05-04T12:47:35.79Z</time></trkpt><trkpt lat="51.907925" lon="-0.4810717"><ele>124.0</ele><time>2026-05-04T12:47:36.791Z</time></trkpt><trkpt lat="51.9077183" lon="-0.4809217"><ele>124.0</ele><time>2026-05-04T12:47:37.792Z</time></trkpt><trkpt lat="51.9075167" lon="-0.4807667"><ele>124.5</ele><time>2026-05-04T12:47:38.791Z</time></trkpt><trkpt lat="51.9073117" lon="-0.48061"><ele>125.0</ele><time>2026-05-04T12:47:39.79Z</time></trkpt><trkpt lat="51.9071033" lon="-0.4804533"><ele>126.0</ele><time>2026-05-04T12:47:40.791Z</time></trkpt><trkpt lat="51.90689" lon="-0.480295"><ele>127.0</ele><time>2026-05-04T12:47:41.791Z</time></trkpt><trkpt lat="51.906675" lon="-0.4801317"><ele>127.0</ele><time>2026-05-04T12:47:42.791Z</time></trkpt><trkpt lat="51.906465" lon="-0.479965"><ele>127.0</ele><time>2026-05-04T12:47:43.792Z</time></trkpt><trkpt lat="51.9062583" lon="-0.4797967"><ele>127.0</ele><time>2026-05-04T12:47:44.791Z</time></trkpt><trkpt lat="51.9060533" lon="-0.4796233"><ele>127.0</ele><time>2026-05-04T12:47:45.792Z</time></trkpt><trkpt lat="51.90585" lon="-0.4794467"><ele>127.0</ele><time>2026-05-04T12:47:46.792Z</time></trkpt><trkpt lat="51.9056483" lon="-0.4792683"><ele>127.0</ele><time>2026-05-04T12:47:47.791Z</time></trkpt><trkpt lat="51.9054483" lon="-0.479085"><ele>127.0</ele><time>2026-05-04T12:47:48.792Z</time></trkpt><trkpt lat="51.9052517" lon="-0.4789017"><ele>127.0</ele><time>2026-05-04T12:47:49.793Z</time></trkpt><trkpt lat="51.9050583" lon="-0.4787167"><ele>127.33333333333334</ele><time>2026-05-04T12:47:50.792Z</time></trkpt><trkpt lat="51.9048667" lon="-0.4785283"><ele>127.66666666666666</ele><time>2026-05-04T12:47:51.791Z</time></trkpt><trkpt lat="51.9046783" lon="-0.4783317"><ele>128.0</ele><time>2026-05-04T12:47:52.79Z</time></trkpt><trkpt lat="51.9044933" lon="-0.4781333"><ele>128.0</ele><time>2026-05-04T12:47:53.79Z</time></trkpt><trkpt lat="51.9043117" lon="-0.47793"><ele>128.0</ele><time>2026-05-04T12:47:54.792Z</time></trkpt><trkpt lat="51.9041317" lon="-0.4777217"><ele>128.0</ele><time>2026-05-04T12:47:55.792Z</time></trkpt><trkpt lat="51.9039517" lon="-0.4775083"><ele>129.0</ele><time>2026-05-04T12:47:56.792Z</time></trkpt><trkpt lat="51.9037683" lon="-0.477285"><ele>130.0</ele><time>2026-05-04T12:47:57.791Z</time></trkpt><trkpt lat="51.9035867" lon="-0.4770567"><ele>131.5</ele><time>2026-05-04T12:47:58.791Z</time></trkpt><trkpt lat="51.903405" lon="-0.476825"><ele>133.0</ele><time>2026-05-04T12:47:59.792Z</time></trkpt><trkpt lat="51.9032117" lon="-0.4765933"><ele>133.0</ele><time>2026-05-04T12:48:00.791Z</time></trkpt><trkpt lat="51.9030167" lon="-0.4763633"><ele>133.0</ele><time>2026-05-04T12:48:01.791Z</time></trkpt><trkpt lat="51.90283" lon="-0.4761317"><ele>132.0</ele><time>2026-05-04T12:48:02.794Z</time></trkpt><trkpt lat="51.9026383" lon="-0.4759067"><ele>131.0</ele><time>2026-05-04T12:48:03.791Z</time></trkpt><trkpt lat="51.9024433" lon="-0.4756833"><ele>131.0</ele><time>2026-05-04T12:48:04.791Z</time></trkpt><trkpt lat="51.9022433" lon="-0.4754583"><ele>131.0</ele><time>2026-05-04T12:48:05.791Z</time></trkpt><trkpt lat="51.9020483" lon="-0.4752267"><ele>131.0</ele><time>2026-05-04T12:48:06.792Z</time></trkpt><trkpt lat="51.9018517" lon="-0.474985"><ele>131.0</ele><time>2026-05-04T12:48:07.79Z</time></trkpt><trkpt lat="51.9016533" lon="-0.474745"><ele>128.5</ele><time>2026-05-04T12:48:08.791Z</time></trkpt><trkpt lat="51.9014517" lon="-0.4745033"><ele>126.0</ele><time>2026-05-04T12:48:09.791Z</time></trkpt><trkpt lat="51.9012517" lon="-0.4742683"><ele>126.0</ele><time>2026-05-04T12:48:10.791Z</time></trkpt><trkpt lat="51.9010517" lon="-0.4740383"><ele>126.0</ele><time>2026-05-04T12:48:11.79Z</time></trkpt><trkpt lat="51.900855" lon="-0.4738067"><ele>126.5</ele><time>2026-05-04T12:48:12.791Z</time></trkpt><trkpt lat="51.9006583" lon="-0.473575"><ele>127.0</ele><time>2026-05-04T12:48:13.792Z</time></trkpt><trkpt lat="51.9004617" lon="-0.4733467"><ele>127.0</ele><time>2026-05-04T12:48:14.791Z</time></trkpt><trkpt lat="51.90027" lon="-0.4731233"><ele>127.0</ele><time>2026-05-04T12:48:15.793Z</time></trkpt><trkpt lat="51.900075" lon="-0.4729033"><ele>127.0</ele><time>2026-05-04T12:48:16.794Z</time></trkpt><trkpt lat="51.8998833" lon="-0.472685"><ele>127.0</ele><time>2026-05-04T12:48:17.791Z</time></trkpt><trkpt lat="51.89969" lon="-0.4724717"><ele>127.0</ele><time>2026-05-04T12:48:18.791Z</time></trkpt><trkpt lat="51.899495" lon="-0.472265"><ele>127.0</ele><time>2026-05-04T12:48:19.791Z</time></trkpt><trkpt lat="51.8993033" lon="-0.472065"><ele>128.5</ele><time>2026-05-04T12:48:20.795Z</time></trkpt><trkpt lat="51.8991083" lon="-0.4718717"><ele>130.0</ele><time>2026-05-04T12:48:21.792Z</time></trkpt><trkpt lat="51.89891" lon="-0.4716867"><ele>130.0</ele><time>2026-05-04T12:48:22.791Z</time></trkpt><trkpt lat="51.8987083" lon="-0.4715117"><ele>130.0</ele><time>2026-05-04T12:48:23.792Z</time></trkpt><trkpt lat="51.8985033" lon="-0.4713467"><ele>132.0</ele><time>2026-05-04T12:48:24.79Z</time></trkpt><trkpt lat="51.8982967" lon="-0.4711933"><ele>134.0</ele><time>2026-05-04T12:48:25.792Z</time></trkpt><trkpt lat="51.8980883" lon="-0.4710467"><ele>134.0</ele><time>2026-05-04T12:48:26.792Z</time></trkpt><trkpt lat="51.8978817" lon="-0.4709083"><ele>134.0</ele><time>2026-05-04T12:48:27.79Z</time></trkpt><trkpt lat="51.8976717" lon="-0.4707767"><ele>134.0</ele><time>2026-05-04T12:48:28.791Z</time></trkpt><trkpt lat="51.8974567" lon="-0.470655"><ele>133.0</ele><time>2026-05-04T12:48:29.791Z</time></trkpt><trkpt lat="51.89724" lon="-0.47054"><ele>132.0</ele><time>2026-05-04T12:48:30.79Z</time></trkpt><trkpt lat="51.8970217" lon="-0.47044"><ele>131.5</ele><time>2026-05-04T12:48:31.792Z</time></trkpt><trkpt lat="51.8967933" lon="-0.470355"><ele>131.0</ele><time>2026-05-04T12:48:32.792Z</time></trkpt><trkpt lat="51.896565" lon="-0.4702783"><ele>129.5</ele><time>2026-05-04T12:48:33.794Z</time></trkpt><trkpt lat="51.896335" lon="-0.47021"><ele>128.0</ele><time>2026-05-04T12:48:34.791Z</time></trkpt><trkpt lat="51.8961083" lon="-0.47015"><ele>129.5</ele><time>2026-05-04T12:48:35.795Z</time></trkpt><trkpt lat="51.8958817" lon="-0.470095"><ele>131.0</ele><time>2026-05-04T12:48:36.792Z</time></trkpt><trkpt lat="51.8956517" lon="-0.47005"><ele>131.0</ele><time>2026-05-04T12:48:37.793Z</time></trkpt><trkpt lat="51.8954217" lon="-0.4700067"><ele>131.0</ele><time>2026-05-04T12:48:38.793Z</time></trkpt><trkpt lat="51.8951883" lon="-0.4699683"><ele>132.5</ele><time>2026-05-04T12:48:39.791Z</time></trkpt><trkpt lat="51.8949567" lon="-0.46993"><ele>134.0</ele><time>2026-05-04T12:48:40.79Z</time></trkpt><trkpt lat="51.8947233" lon="-0.4698917"><ele>134.0</ele><time>2026-05-04T12:48:41.792Z</time></trkpt><trkpt lat="51.894495" lon="-0.46985"><ele>134.0</ele><time>2026-05-04T12:48:42.792Z</time></trkpt><trkpt lat="51.8942667" lon="-0.469805"><ele>133.0</ele><time>2026-05-04T12:48:43.791Z</time></trkpt><trkpt lat="51.8940367" lon="-0.469765"><ele>132.0</ele><time>2026-05-04T12:48:44.791Z</time></trkpt><trkpt lat="51.893805" lon="-0.4697283"><ele>132.0</ele><time>2026-05-04T12:48:45.791Z</time></trkpt><trkpt lat="51.893575" lon="-0.4696883"><ele>132.0</ele><time>2026-05-04T12:48:46.791Z</time></trkpt><trkpt lat="51.8933417" lon="-0.4696533"><ele>132.0</ele><time>2026-05-04T12:48:47.795Z</time></trkpt><trkpt lat="51.89311" lon="-0.469615"><ele>132.0</ele><time>2026-05-04T12:48:48.791Z</time></trkpt><trkpt lat="51.892875" lon="-0.469575"><ele>132.5</ele><time>2026-05-04T12:48:49.791Z</time></trkpt><trkpt lat="51.8926367" lon="-0.4695367"><ele>133.0</ele><time>2026-05-04T12:48:50.791Z</time></trkpt><trkpt lat="51.892405" lon="-0.4694967"><ele>134.0</ele><time>2026-05-04T12:48:51.791Z</time></trkpt><trkpt lat="51.8921683" lon="-0.469455"><ele>135.0</ele><time>2026-05-04T12:48:52.791Z</time></trkpt><trkpt lat="51.891935" lon="-0.4694083"><ele>135.5</ele><time>2026-05-04T12:48:53.793Z</time></trkpt><trkpt lat="51.8917017" lon="-0.469355"><ele>136.0</ele><time>2026-05-04T12:48:54.791Z</time></trkpt><trkpt lat="51.89147" lon="-0.469295"><ele>136.0</ele><time>2026-05-04T12:48:55.792Z</time></trkpt><trkpt lat="51.8912383" lon="-0.469225"><ele>136.0</ele><time>2026-05-04T12:48:56.79Z</time></trkpt><trkpt lat="51.8910083" lon="-0.469145"><ele>137.0</ele><time>2026-05-04T12:48:57.792Z</time></trkpt><trkpt lat="51.8907833" lon="-0.4690483"><ele>138.0</ele><time>2026-05-04T12:48:58.79Z</time></trkpt><trkpt lat="51.8905583" lon="-0.4689417"><ele>138.0</ele><time>2026-05-04T12:48:59.792Z</time></trkpt><trkpt lat="51.89033" lon="-0.4688233"><ele>138.0</ele><time>2026-05-04T12:49:00.792Z</time></trkpt><trkpt lat="51.8901033" lon="-0.4686867"><ele>139.5</ele><time>2026-05-04T12:49:01.791Z</time></trkpt><trkpt lat="51.8898767" lon="-0.4685367"><ele>141.0</ele><time>2026-05-04T12:49:02.791Z</time></trkpt><trkpt lat="51.889655" lon="-0.468375"><ele>141.0</ele><time>2026-05-04T12:49:03.791Z</time></trkpt><trkpt lat="51.8894333" lon="-0.4682017"><ele>141.0</ele><time>2026-05-04T12:49:04.792Z</time></trkpt><trkpt lat="51.8892117" lon="-0.4680167"><ele>143.0</ele><time>2026-05-04T12:49:05.791Z</time></trkpt><trkpt lat="51.888995" lon="-0.467815"><ele>145.0</ele><time>2026-05-04T12:49:06.791Z</time></trkpt><trkpt lat="51.8887767" lon="-0.4676083"><ele>145.0</ele><time>2026-05-04T12:49:07.791Z</time></trkpt><trkpt lat="51.8885683" lon="-0.4673883"><ele>145.0</ele><time>2026-05-04T12:49:08.791Z</time></trkpt><trkpt lat="51.88837" lon="-0.4671567"><ele>144.5</ele><time>2026-05-04T12:49:09.791Z</time></trkpt><trkpt lat="51.8881717" lon="-0.4669233"><ele>144.0</ele><time>2026-05-04T12:49:10.791Z</time></trkpt><trkpt lat="51.8879817" lon="-0.4666767"><ele>144.0</ele><time>2026-05-04T12:49:11.79Z</time></trkpt><trkpt lat="51.8877967" lon="-0.4664283"><ele>144.0</ele><time>2026-05-04T12:49:12.79Z</time></trkpt><trkpt lat="51.8876283" lon="-0.466175"><ele>143.5</ele><time>2026-05-04T12:49:13.791Z</time></trkpt><trkpt lat="51.8874583" lon="-0.4659167"><ele>143.0</ele><time>2026-05-04T12:49:14.79Z</time></trkpt><trkpt lat="51.8873017" lon="-0.4656517"><ele>142.66666666666666</ele><time>2026-05-04T12:49:15.791Z</time></trkpt><trkpt lat="51.8871533" lon="-0.46538"><ele>142.33333333333334</ele><time>2026-05-04T12:49:16.791Z</time></trkpt><trkpt lat="51.88701" lon="-0.4651067"><ele>142.0</ele><time>2026-05-04T12:49:17.792Z</time></trkpt><trkpt lat="51.8868683" lon="-0.4648367"><ele>143.0</ele><time>2026-05-04T12:49:18.79Z</time></trkpt><trkpt lat="51.8867267" lon="-0.4645683"><ele>144.0</ele><time>2026-05-04T12:49:19.792Z</time></trkpt><trkpt lat="51.88658" lon="-0.4642983"><ele>145.0</ele><time>2026-05-04T12:49:20.791Z</time></trkpt><trkpt lat="51.8864333" lon="-0.4640283"><ele>145.0</ele><time>2026-05-04T12:49:21.792Z</time></trkpt><trkpt lat="51.8862867" lon="-0.4637533"><ele>145.0</ele><time>2026-05-04T12:49:22.791Z</time></trkpt><trkpt lat="51.8861367" lon="-0.4634783"><ele>145.0</ele><time>2026-05-04T12:49:23.791Z</time></trkpt><trkpt lat="51.8859917" lon="-0.4632017"><ele>145.0</ele><time>2026-05-04T12:49:24.792Z</time></trkpt><trkpt lat="51.8858483" lon="-0.4629267"><ele>145.0</ele><time>2026-05-04T12:49:25.791Z</time></trkpt><trkpt lat="51.885705" lon="-0.4626517"><ele>146.66666666666669</ele><time>2026-05-04T12:49:26.793Z</time></trkpt><trkpt lat="51.88556" lon="-0.46238"><ele>148.33333333333334</ele><time>2026-05-04T12:49:27.796Z</time></trkpt><trkpt lat="51.8854217" lon="-0.4621067"><ele>150.0</ele><time>2026-05-04T12:49:28.792Z</time></trkpt><trkpt lat="51.885275" lon="-0.4618317"><ele>150.0</ele><time>2026-05-04T12:49:29.792Z</time></trkpt><trkpt lat="51.88512" lon="-0.4615617"><ele>150.0</ele><time>2026-05-04T12:49:30.792Z</time></trkpt><trkpt lat="51.8849733" lon="-0.4612867"><ele>149.66666666666666</ele><time>2026-05-04T12:49:31.792Z</time></trkpt><trkpt lat="51.8848283" lon="-0.4610167"><ele>149.33333333333331</ele><time>2026-05-04T12:49:32.792Z</time></trkpt><trkpt lat="51.8846833" lon="-0.4607483"><ele>149.0</ele><time>2026-05-04T12:49:33.792Z</time></trkpt><trkpt lat="51.88454" lon="-0.4604783"><ele>149.0</ele><time>2026-05-04T12:49:34.792Z</time></trkpt><trkpt lat="51.8843967" lon="-0.4602083"><ele>149.0</ele><time>2026-05-04T12:49:35.792Z</time></trkpt><trkpt lat="51.884255" lon="-0.4599383"><ele>149.0</ele><time>2026-05-04T12:49:36.793Z</time></trkpt><trkpt lat="51.8841083" lon="-0.459675"><ele>148.33333333333331</ele><time>2026-05-04T12:49:37.791Z</time></trkpt><trkpt lat="51.8839633" lon="-0.4594183"><ele>147.66666666666666</ele><time>2026-05-04T12:49:38.793Z</time></trkpt><trkpt lat="51.8838167" lon="-0.4591567"><ele>147.0</ele><time>2026-05-04T12:49:39.791Z</time></trkpt><trkpt lat="51.8836683" lon="-0.4588933"><ele>146.0</ele><time>2026-05-04T12:49:40.798Z</time></trkpt><trkpt lat="51.8835217" lon="-0.4586333"><ele>145.0</ele><time>2026-05-04T12:49:41.792Z</time></trkpt><trkpt lat="51.88338" lon="-0.458375"><ele>144.0</ele><time>2026-05-04T12:49:42.791Z</time></trkpt><trkpt lat="51.8832417" lon="-0.4581183"><ele>145.66666666666666</ele><time>2026-05-04T12:49:43.793Z</time></trkpt><trkpt lat="51.883105" lon="-0.4578717"><ele>147.33333333333331</ele><time>2026-05-04T12:49:44.793Z</time></trkpt><trkpt lat="51.88297" lon="-0.4576333"><ele>149.0</ele><time>2026-05-04T12:49:45.793Z</time></trkpt><trkpt lat="51.88284" lon="-0.4574"><ele>149.0</ele><time>2026-05-04T12:49:46.792Z</time></trkpt><trkpt lat="51.8827017" lon="-0.457155"><ele>149.0</ele><time>2026-05-04T12:49:47.793Z</time></trkpt><trkpt lat="51.8825583" lon="-0.4569033"><ele>149.0</ele><time>2026-05-04T12:49:48.793Z</time></trkpt><trkpt lat="51.8814217" lon="-0.4550217"><ele>150.0</ele><time>2026-05-04T12:49:56.09Z</time></trkpt><trkpt lat="51.8813233" lon="-0.4546867"><ele>151.0</ele><time>2026-05-04T12:49:57.291Z</time></trkpt><trkpt lat="51.8811" lon="-0.4542733"><ele>151.0</ele><time>2026-05-04T12:49:58.791Z</time></trkpt><trkpt lat="51.8809367" lon="-0.4540017"><ele>151.0</ele><time>2026-05-04T12:49:59.791Z</time></trkpt><trkpt lat="51.88077" lon="-0.4537367"><ele>157.5</ele><time>2026-05-04T12:50:00.79Z</time></trkpt><trkpt lat="51.8806083" lon="-0.45348"><ele>164.0</ele><time>2026-05-04T12:50:01.791Z</time></trkpt><trkpt lat="51.88045" lon="-0.4532217"><ele>164.0</ele><time>2026-05-04T12:50:02.792Z</time></trkpt><trkpt lat="51.8802983" lon="-0.452965"><ele>164.0</ele><time>2026-05-04T12:50:03.79Z</time></trkpt><trkpt lat="51.8801417" lon="-0.4527117"><ele>164.0</ele><time>2026-05-04T12:50:04.79Z</time></trkpt><trkpt lat="51.879985" lon="-0.4524617"><ele>168.0</ele><time>2026-05-04T12:50:05.791Z</time></trkpt><trkpt lat="51.879825" lon="-0.4522067"><ele>172.0</ele><time>2026-05-04T12:50:06.791Z</time></trkpt><trkpt lat="51.8796617" lon="-0.451945"><ele>172.5</ele><time>2026-05-04T12:50:07.794Z</time></trkpt><trkpt lat="51.879495" lon="-0.4516833"><ele>173.0</ele><time>2026-05-04T12:50:08.793Z</time></trkpt><trkpt lat="51.8793233" lon="-0.4514267"><ele>175.5</ele><time>2026-05-04T12:50:09.791Z</time></trkpt><trkpt lat="51.8791533" lon="-0.4511717"><ele>178.0</ele><time>2026-05-04T12:50:10.792Z</time></trkpt><trkpt lat="51.8789867" lon="-0.450915"><ele>178.0</ele><time>2026-05-04T12:50:11.791Z</time></trkpt><trkpt lat="51.8788217" lon="-0.4506533"><ele>178.0</ele><time>2026-05-04T12:50:12.791Z</time></trkpt><trkpt lat="51.8786533" lon="-0.4503933"><ele>178.0</ele><time>2026-05-04T12:50:13.791Z</time></trkpt><trkpt lat="51.878485" lon="-0.4501333"><ele>178.0</ele><time>2026-05-04T12:50:14.792Z</time></trkpt><trkpt lat="51.8783167" lon="-0.4498767"><ele>177.5</ele><time>2026-05-04T12:50:15.791Z</time></trkpt><trkpt lat="51.8781467" lon="-0.4496217"><ele>177.0</ele><time>2026-05-04T12:50:16.791Z</time></trkpt><trkpt lat="51.8779717" lon="-0.4493667"><ele>177.0</ele><time>2026-05-04T12:50:17.791Z</time></trkpt><trkpt lat="51.877795" lon="-0.4491117"><ele>177.0</ele><time>2026-05-04T12:50:18.792Z</time></trkpt><trkpt lat="51.877615" lon="-0.4488567"><ele>175.0</ele><time>2026-05-04T12:50:19.791Z</time></trkpt><trkpt lat="51.8774333" lon="-0.4486017"><ele>173.0</ele><time>2026-05-04T12:50:20.793Z</time></trkpt><trkpt lat="51.8772483" lon="-0.44835"><ele>173.0</ele><time>2026-05-04T12:50:21.79Z</time></trkpt><trkpt lat="51.8770633" lon="-0.4480967"><ele>173.0</ele><time>2026-05-04T12:50:22.792Z</time></trkpt><trkpt lat="51.8768767" lon="-0.44784"><ele>171.0</ele><time>2026-05-04T12:50:23.791Z</time></trkpt><trkpt lat="51.87669" lon="-0.447585"><ele>169.0</ele><time>2026-05-04T12:50:24.793Z</time></trkpt><trkpt lat="51.8765017" lon="-0.4473283"><ele>169.0</ele><time>2026-05-04T12:50:25.791Z</time></trkpt><trkpt lat="51.8763117" lon="-0.44707"><ele>169.0</ele><time>2026-05-04T12:50:26.791Z</time></trkpt><trkpt lat="51.87612" lon="-0.4468117"><ele>169.5</ele><time>2026-05-04T12:50:27.79Z</time></trkpt><trkpt lat="51.8759233" lon="-0.4465533"><ele>170.0</ele><time>2026-05-04T12:50:28.792Z</time></trkpt><trkpt lat="51.87573" lon="-0.446295"><ele>172.0</ele><time>2026-05-04T12:50:29.791Z</time></trkpt><trkpt lat="51.875535" lon="-0.44604"><ele>174.0</ele><time>2026-05-04T12:50:30.791Z</time></trkpt><trkpt lat="51.8753433" lon="-0.4457867"><ele>174.0</ele><time>2026-05-04T12:50:31.791Z</time></trkpt><trkpt lat="51.8751483" lon="-0.4455367"><ele>174.0</ele><time>2026-05-04T12:50:32.792Z</time></trkpt><trkpt lat="51.8749583" lon="-0.4452917"><ele>172.5</ele><time>2026-05-04T12:50:33.795Z</time></trkpt><trkpt lat="51.87477" lon="-0.445055"><ele>171.0</ele><time>2026-05-04T12:50:34.791Z</time></trkpt><trkpt lat="51.8745817" lon="-0.4448267"><ele>172.5</ele><time>2026-05-04T12:50:35.792Z</time></trkpt><trkpt lat="51.874395" lon="-0.4446017"><ele>174.0</ele><time>2026-05-04T12:50:36.792Z</time></trkpt><trkpt lat="51.8742133" lon="-0.4443783"><ele>171.0</ele><time>2026-05-04T12:50:37.791Z</time></trkpt><trkpt lat="51.8740317" lon="-0.4441567"><ele>168.0</ele><time>2026-05-04T12:50:38.792Z</time></trkpt><trkpt lat="51.873845" lon="-0.44394"><ele>169.5</ele><time>2026-05-04T12:50:39.791Z</time></trkpt><trkpt lat="51.8736617" lon="-0.443725"><ele>171.0</ele><time>2026-05-04T12:50:40.793Z</time></trkpt><trkpt lat="51.8734767" lon="-0.44351"><ele>167.5</ele><time>2026-05-04T12:50:41.791Z</time></trkpt><trkpt lat="51.8732917" lon="-0.4432967"><ele>164.0</ele><time>2026-05-04T12:50:42.792Z</time></trkpt><trkpt lat="51.873105" lon="-0.443085"><ele>166.0</ele><time>2026-05-04T12:50:43.791Z</time></trkpt><trkpt lat="51.8729167" lon="-0.4428733"><ele>168.0</ele><time>2026-05-04T12:50:44.792Z</time></trkpt><trkpt lat="51.8727267" lon="-0.4426583"><ele>166.0</ele><time>2026-05-04T12:50:45.791Z</time></trkpt><trkpt lat="51.8725383" lon="-0.4424433"><ele>164.0</ele><time>2026-05-04T12:50:46.792Z</time></trkpt><trkpt lat="51.8723467" lon="-0.4422317"><ele>165.0</ele><time>2026-05-04T12:50:47.791Z</time></trkpt><trkpt lat="51.8721567" lon="-0.4420183"><ele>166.0</ele><time>2026-05-04T12:50:48.791Z</time></trkpt><trkpt lat="51.8719633" lon="-0.4418033"><ele>164.0</ele><time>2026-05-04T12:50:49.792Z</time></trkpt><trkpt lat="51.8717667" lon="-0.4415883"><ele>162.0</ele><time>2026-05-04T12:50:50.791Z</time></trkpt><trkpt lat="51.871565" lon="-0.4413767"><ele>164.0</ele><time>2026-05-04T12:50:51.795Z</time></trkpt><trkpt lat="51.871365" lon="-0.4411633"><ele>166.0</ele><time>2026-05-04T12:50:52.792Z</time></trkpt><trkpt lat="51.871165" lon="-0.44095"><ele>166.0</ele><time>2026-05-04T12:50:53.79Z</time></trkpt><trkpt lat="51.870965" lon="-0.4407433"><ele>166.0</ele><time>2026-05-04T12:50:54.792Z</time></trkpt><trkpt lat="51.8707633" lon="-0.44054"><ele>166.5</ele><time>2026-05-04T12:50:55.792Z</time></trkpt><trkpt lat="51.8705583" lon="-0.4403367"><ele>167.0</ele><time>2026-05-04T12:50:56.792Z</time></trkpt><trkpt lat="51.8703483" lon="-0.440135"><ele>167.0</ele><time>2026-05-04T12:50:57.795Z</time></trkpt><trkpt lat="51.8701433" lon="-0.4399317"><ele>167.0</ele><time>2026-05-04T12:50:58.791Z</time></trkpt><trkpt lat="51.86994" lon="-0.43973"><ele>166.5</ele><time>2026-05-04T12:50:59.791Z</time></trkpt><trkpt lat="51.8697333" lon="-0.4395267"><ele>166.0</ele><time>2026-05-04T12:51:00.792Z</time></trkpt><trkpt lat="51.8695233" lon="-0.4393233"><ele>166.0</ele><time>2026-05-04T12:51:01.795Z</time></trkpt><trkpt lat="51.8693133" lon="-0.4391217"><ele>166.0</ele><time>2026-05-04T12:51:02.793Z</time></trkpt><trkpt lat="51.8691017" lon="-0.4389233"><ele>165.5</ele><time>2026-05-04T12:51:03.794Z</time></trkpt><trkpt lat="51.8688933" lon="-0.4387267"><ele>165.0</ele><time>2026-05-04T12:51:04.792Z</time></trkpt><trkpt lat="51.86868" lon="-0.4385283"><ele>165.0</ele><time>2026-05-04T12:51:05.793Z</time></trkpt><trkpt lat="51.8684683" lon="-0.4383317"><ele>165.0</ele><time>2026-05-04T12:51:06.792Z</time></trkpt><trkpt lat="51.8682583" lon="-0.4381383"><ele>163.5</ele><time>2026-05-04T12:51:07.793Z</time></trkpt><trkpt lat="51.8680417" lon="-0.4379467"><ele>162.0</ele><time>2026-05-04T12:51:08.792Z</time></trkpt><trkpt lat="51.8678233" lon="-0.4377567"><ele>160.5</ele><time>2026-05-04T12:51:09.792Z</time></trkpt><trkpt lat="51.8676033" lon="-0.4375717"><ele>159.0</ele><time>2026-05-04T12:51:10.792Z</time></trkpt><trkpt lat="51.86739" lon="-0.43739"><ele>159.0</ele><time>2026-05-04T12:51:11.794Z</time></trkpt><trkpt lat="51.8671833" lon="-0.43721"><ele>159.0</ele><time>2026-05-04T12:51:12.796Z</time></trkpt><trkpt lat="51.8669767" lon="-0.4370333"><ele>159.0</ele><time>2026-05-04T12:51:13.791Z</time></trkpt><trkpt lat="51.8667683" lon="-0.4368567"><ele>159.0</ele><time>2026-05-04T12:51:14.793Z</time></trkpt><trkpt lat="51.8665633" lon="-0.436685"><ele>159.0</ele><time>2026-05-04T12:51:15.795Z</time></trkpt><trkpt lat="51.8663533" lon="-0.4365167"><ele>159.0</ele><time>2026-05-04T12:51:16.792Z</time></trkpt><trkpt lat="51.8661433" lon="-0.4363483"><ele>157.5</ele><time>2026-05-04T12:51:17.793Z</time></trkpt><trkpt lat="51.8659367" lon="-0.4361817"><ele>156.0</ele><time>2026-05-04T12:51:18.791Z</time></trkpt><trkpt lat="51.8657267" lon="-0.436015"><ele>156.0</ele><time>2026-05-04T12:51:19.792Z</time></trkpt><trkpt lat="51.86552" lon="-0.4358417"><ele>156.0</ele><time>2026-05-04T12:51:20.79Z</time></trkpt><trkpt lat="51.86531" lon="-0.4356683"><ele>157.0</ele><time>2026-05-04T12:51:21.792Z</time></trkpt><trkpt lat="51.8651" lon="-0.4354917"><ele>158.0</ele><time>2026-05-04T12:51:22.792Z</time></trkpt><trkpt lat="51.8648917" lon="-0.43532"><ele>156.0</ele><time>2026-05-04T12:51:23.792Z</time></trkpt><trkpt lat="51.864685" lon="-0.4351483"><ele>154.0</ele><time>2026-05-04T12:51:24.79Z</time></trkpt><trkpt lat="51.8644767" lon="-0.4349783"><ele>154.0</ele><time>2026-05-04T12:51:25.793Z</time></trkpt><trkpt lat="51.86427" lon="-0.4348017"><ele>154.0</ele><time>2026-05-04T12:51:26.792Z</time></trkpt><trkpt lat="51.864065" lon="-0.4346183"><ele>154.0</ele><time>2026-05-04T12:51:27.791Z</time></trkpt><trkpt lat="51.8638633" lon="-0.43443"><ele>154.0</ele><time>2026-05-04T12:51:28.792Z</time></trkpt><trkpt lat="51.8636633" lon="-0.4342383"><ele>154.0</ele><time>2026-05-04T12:51:29.793Z</time></trkpt><trkpt lat="51.8634617" lon="-0.434045"><ele>154.0</ele><time>2026-05-04T12:51:30.791Z</time></trkpt><trkpt lat="51.86326" lon="-0.4338517"><ele>154.0</ele><time>2026-05-04T12:51:31.793Z</time></trkpt><trkpt lat="51.86306" lon="-0.4336533"><ele>154.0</ele><time>2026-05-04T12:51:32.792Z</time></trkpt><trkpt lat="51.8628617" lon="-0.4334467"><ele>154.0</ele><time>2026-05-04T12:51:33.792Z</time></trkpt><trkpt lat="51.862665" lon="-0.4332333"><ele>154.0</ele><time>2026-05-04T12:51:34.792Z</time></trkpt><trkpt lat="51.8624717" lon="-0.43302"><ele>154.0</ele><time>2026-05-04T12:51:35.791Z</time></trkpt><trkpt lat="51.86228" lon="-0.4328033"><ele>154.0</ele><time>2026-05-04T12:51:36.792Z</time></trkpt><trkpt lat="51.8620883" lon="-0.432585"><ele>154.0</ele><time>2026-05-04T12:51:37.793Z</time></trkpt><trkpt lat="51.8618967" lon="-0.43236"><ele>154.0</ele><time>2026-05-04T12:51:38.791Z</time></trkpt><trkpt lat="51.8617083" lon="-0.43213"><ele>155.0</ele><time>2026-05-04T12:51:39.792Z</time></trkpt><trkpt lat="51.8615267" lon="-0.4318967"><ele>156.0</ele><time>2026-05-04T12:51:40.791Z</time></trkpt><trkpt lat="51.8613467" lon="-0.4316617"><ele>156.0</ele><time>2026-05-04T12:51:41.792Z</time></trkpt><trkpt lat="51.8611667" lon="-0.4314217"><ele>156.0</ele><time>2026-05-04T12:51:42.791Z</time></trkpt><trkpt lat="51.8609833" lon="-0.4311867"><ele>155.5</ele><time>2026-05-04T12:51:43.793Z</time></trkpt><trkpt lat="51.8608" lon="-0.43095"><ele>155.0</ele><time>2026-05-04T12:51:44.791Z</time></trkpt><trkpt lat="51.8606217" lon="-0.430715"><ele>155.0</ele><time>2026-05-04T12:51:45.791Z</time></trkpt><trkpt lat="51.86044" lon="-0.430485"><ele>155.0</ele><time>2026-05-04T12:51:46.792Z</time></trkpt><trkpt lat="51.8602567" lon="-0.4302517"><ele>154.0</ele><time>2026-05-04T12:51:47.793Z</time></trkpt><trkpt lat="51.860075" lon="-0.43002"><ele>153.0</ele><time>2026-05-04T12:51:48.792Z</time></trkpt><trkpt lat="51.8598917" lon="-0.429785"><ele>151.0</ele><time>2026-05-04T12:51:49.792Z</time></trkpt><trkpt lat="51.859705" lon="-0.4295467"><ele>149.0</ele><time>2026-05-04T12:51:50.791Z</time></trkpt><trkpt lat="51.8595183" lon="-0.4293083"><ele>149.0</ele><time>2026-05-04T12:51:51.79Z</time></trkpt><trkpt lat="51.8593367" lon="-0.42907"><ele>149.0</ele><time>2026-05-04T12:51:52.792Z</time></trkpt><trkpt lat="51.8591567" lon="-0.428835"><ele>150.0</ele><time>2026-05-04T12:51:53.792Z</time></trkpt><trkpt lat="51.8589733" lon="-0.4285967"><ele>151.0</ele><time>2026-05-04T12:51:54.793Z</time></trkpt><trkpt lat="51.85879" lon="-0.4283533"><ele>151.0</ele><time>2026-05-04T12:51:55.793Z</time></trkpt><trkpt lat="51.8586083" lon="-0.428115"><ele>151.0</ele><time>2026-05-04T12:51:56.793Z</time></trkpt><trkpt lat="51.8584267" lon="-0.4278767"><ele>150.5</ele><time>2026-05-04T12:51:57.792Z</time></trkpt><trkpt lat="51.8582483" lon="-0.42764"><ele>150.0</ele><time>2026-05-04T12:51:58.792Z</time></trkpt><trkpt lat="51.85807" lon="-0.4274033"><ele>150.0</ele><time>2026-05-04T12:51:59.791Z</time></trkpt><trkpt lat="51.8578883" lon="-0.4271667"><ele>150.0</ele><time>2026-05-04T12:52:00.793Z</time></trkpt><trkpt lat="51.85771" lon="-0.4269333"><ele>151.5</ele><time>2026-05-04T12:52:01.791Z</time></trkpt><trkpt lat="51.8575317" lon="-0.4267017"><ele>153.0</ele><time>2026-05-04T12:52:02.791Z</time></trkpt><trkpt lat="51.8573483" lon="-0.4264783"><ele>150.5</ele><time>2026-05-04T12:52:03.792Z</time></trkpt><trkpt lat="51.85716" lon="-0.4262583"><ele>148.0</ele><time>2026-05-04T12:52:04.793Z</time></trkpt><trkpt lat="51.8569683" lon="-0.4260433"><ele>150.0</ele><time>2026-05-04T12:52:05.792Z</time></trkpt><trkpt lat="51.856775" lon="-0.425835"><ele>152.0</ele><time>2026-05-04T12:52:06.793Z</time></trkpt><trkpt lat="51.8565783" lon="-0.42563"><ele>150.5</ele><time>2026-05-04T12:52:07.792Z</time></trkpt><trkpt lat="51.85638" lon="-0.4254317"><ele>149.0</ele><time>2026-05-04T12:52:08.792Z</time></trkpt><trkpt lat="51.8561817" lon="-0.4252383"><ele>149.0</ele><time>2026-05-04T12:52:09.79Z</time></trkpt><trkpt lat="51.85598" lon="-0.4250483"><ele>149.0</ele><time>2026-05-04T12:52:10.793Z</time></trkpt><trkpt lat="51.8557767" lon="-0.4248633"><ele>152.0</ele><time>2026-05-04T12:52:11.791Z</time></trkpt><trkpt lat="51.8555733" lon="-0.42468"><ele>155.0</ele><time>2026-05-04T12:52:12.791Z</time></trkpt><trkpt lat="51.8553683" lon="-0.4245067"><ele>155.0</ele><time>2026-05-04T12:52:13.793Z</time></trkpt><trkpt lat="51.8551617" lon="-0.42434"><ele>155.0</ele><time>2026-05-04T12:52:14.791Z</time></trkpt><trkpt lat="51.8549517" lon="-0.424175"><ele>157.0</ele><time>2026-05-04T12:52:15.792Z</time></trkpt><trkpt lat="51.8547383" lon="-0.424015"><ele>159.0</ele><time>2026-05-04T12:52:16.792Z</time></trkpt><trkpt lat="51.8545267" lon="-0.423855"><ele>158.5</ele><time>2026-05-04T12:52:17.795Z</time></trkpt><trkpt lat="51.8543117" lon="-0.4237"><ele>158.0</ele><time>2026-05-04T12:52:18.791Z</time></trkpt><trkpt lat="51.8540933" lon="-0.423555"><ele>158.0</ele><time>2026-05-04T12:52:19.792Z</time></trkpt><trkpt lat="51.8538767" lon="-0.4234167"><ele>158.0</ele><time>2026-05-04T12:52:20.79Z</time></trkpt><trkpt lat="51.8536617" lon="-0.4232867"><ele>157.5</ele><time>2026-05-04T12:52:21.791Z</time></trkpt><trkpt lat="51.8534433" lon="-0.4231667"><ele>157.0</ele><time>2026-05-04T12:52:22.793Z</time></trkpt><trkpt lat="51.8532183" lon="-0.4230517"><ele>157.5</ele><time>2026-05-04T12:52:23.794Z</time></trkpt><trkpt lat="51.853" lon="-0.4229417"><ele>158.0</ele><time>2026-05-04T12:52:24.793Z</time></trkpt><trkpt lat="51.8527767" lon="-0.4228283"><ele>157.5</ele><time>2026-05-04T12:52:25.792Z</time></trkpt><trkpt lat="51.852555" lon="-0.4227217"><ele>157.0</ele><time>2026-05-04T12:52:26.792Z</time></trkpt><trkpt lat="51.8523333" lon="-0.4226217"><ele>157.0</ele><time>2026-05-04T12:52:27.792Z</time></trkpt><trkpt lat="51.85201" lon="-0.4226383"><ele>157.0</ele><time>2026-05-04T12:52:28.834Z</time></trkpt><trkpt lat="51.8516767" lon="-0.4224433"><ele>156.5</ele><time>2026-05-04T12:52:30.041Z</time></trkpt><trkpt lat="51.851355" lon="-0.422325"><ele>156.0</ele><time>2026-05-04T12:52:31.792Z</time></trkpt><trkpt lat="51.8511483" lon="-0.4222517"><ele>156.0</ele><time>2026-05-04T12:52:32.792Z</time></trkpt><trkpt lat="51.8509167" lon="-0.422185"><ele>156.0</ele><time>2026-05-04T12:52:33.791Z</time></trkpt><trkpt lat="51.8506767" lon="-0.4221283"><ele>155.0</ele><time>2026-05-04T12:52:34.792Z</time></trkpt><trkpt lat="51.850435" lon="-0.4220833"><ele>154.0</ele><time>2026-05-04T12:52:35.791Z</time></trkpt><trkpt lat="51.8502017" lon="-0.4220433"><ele>155.0</ele><time>2026-05-04T12:52:36.792Z</time></trkpt><trkpt lat="51.8499683" lon="-0.4220133"><ele>156.0</ele><time>2026-05-04T12:52:37.794Z</time></trkpt><trkpt lat="51.84974" lon="-0.4219817"><ele>156.0</ele><time>2026-05-04T12:52:38.791Z</time></trkpt><trkpt lat="51.8495083" lon="-0.4219533"><ele>156.0</ele><time>2026-05-04T12:52:39.792Z</time></trkpt><trkpt lat="51.8492767" lon="-0.421925"><ele>155.5</ele><time>2026-05-04T12:52:40.79Z</time></trkpt><trkpt lat="51.8490467" lon="-0.4218933"><ele>155.0</ele><time>2026-05-04T12:52:41.79Z</time></trkpt><trkpt lat="51.8488167" lon="-0.42186"><ele>155.0</ele><time>2026-05-04T12:52:42.793Z</time></trkpt><trkpt lat="51.848585" lon="-0.4218267"><ele>155.0</ele><time>2026-05-04T12:52:43.791Z</time></trkpt><trkpt lat="51.8483467" lon="-0.42179"><ele>154.5</ele><time>2026-05-04T12:52:44.791Z</time></trkpt><trkpt lat="51.8481" lon="-0.421745"><ele>154.0</ele><time>2026-05-04T12:52:45.792Z</time></trkpt><trkpt lat="51.8478467" lon="-0.4216967"><ele>153.5</ele><time>2026-05-04T12:52:46.793Z</time></trkpt><trkpt lat="51.8475933" lon="-0.4216483"><ele>153.0</ele><time>2026-05-04T12:52:47.791Z</time></trkpt><trkpt lat="51.84734" lon="-0.4216033"><ele>153.0</ele><time>2026-05-04T12:52:48.792Z</time></trkpt><trkpt lat="51.847085" lon="-0.42156"><ele>153.0</ele><time>2026-05-04T12:52:49.793Z</time></trkpt><trkpt lat="51.84683" lon="-0.421515"><ele>153.0</ele><time>2026-05-04T12:52:50.792Z</time></trkpt><trkpt lat="51.846575" lon="-0.4214717"><ele>153.0</ele><time>2026-05-04T12:52:51.794Z</time></trkpt><trkpt lat="51.84632" lon="-0.421425"><ele>153.0</ele><time>2026-05-04T12:52:52.792Z</time></trkpt><trkpt lat="51.8460667" lon="-0.42138"><ele>153.0</ele><time>2026-05-04T12:52:53.792Z</time></trkpt><trkpt lat="51.8458133" lon="-0.4213367"><ele>154.0</ele><time>2026-05-04T12:52:54.791Z</time></trkpt><trkpt lat="51.8455583" lon="-0.4212917"><ele>155.0</ele><time>2026-05-04T12:52:55.792Z</time></trkpt><trkpt lat="51.845305" lon="-0.4212467"><ele>155.0</ele><time>2026-05-04T12:52:56.793Z</time></trkpt><trkpt lat="51.8450517" lon="-0.4211967"><ele>155.0</ele><time>2026-05-04T12:52:57.793Z</time></trkpt><trkpt lat="51.8447917" lon="-0.4211517"><ele>155.0</ele><time>2026-05-04T12:52:58.792Z</time></trkpt><trkpt lat="51.8445317" lon="-0.4211033"><ele>155.0</ele><time>2026-05-04T12:52:59.793Z</time></trkpt><trkpt lat="51.844275" lon="-0.42106"><ele>155.5</ele><time>2026-05-04T12:53:00.792Z</time></trkpt><trkpt lat="51.844015" lon="-0.421015"><ele>156.0</ele><time>2026-05-04T12:53:01.793Z</time></trkpt><trkpt lat="51.843755" lon="-0.4209717"><ele>156.0</ele><time>2026-05-04T12:53:02.793Z</time></trkpt><trkpt lat="51.8434917" lon="-0.4209333"><ele>156.0</ele><time>2026-05-04T12:53:03.793Z</time></trkpt><trkpt lat="51.84323" lon="-0.42089"><ele>156.0</ele><time>2026-05-04T12:53:04.792Z</time></trkpt><trkpt lat="51.8429667" lon="-0.420845"><ele>156.0</ele><time>2026-05-04T12:53:05.792Z</time></trkpt><trkpt lat="51.8427017" lon="-0.4208017"><ele>156.0</ele><time>2026-05-04T12:53:06.792Z</time></trkpt><trkpt lat="51.8424367" lon="-0.420755"><ele>156.0</ele><time>2026-05-04T12:53:07.792Z</time></trkpt><trkpt lat="51.8421717" lon="-0.4207133"><ele>156.0</ele><time>2026-05-04T12:53:08.793Z</time></trkpt><trkpt lat="51.8419067" lon="-0.4206667"><ele>156.0</ele><time>2026-05-04T12:53:09.792Z</time></trkpt><trkpt lat="51.8416417" lon="-0.42062"><ele>156.5</ele><time>2026-05-04T12:53:10.792Z</time></trkpt><trkpt lat="51.84138" lon="-0.4205717"><ele>157.0</ele><time>2026-05-04T12:53:11.791Z</time></trkpt><trkpt lat="51.8411233" lon="-0.4205267"><ele>156.0</ele><time>2026-05-04T12:53:12.791Z</time></trkpt><trkpt lat="51.840865" lon="-0.4204817"><ele>155.0</ele><time>2026-05-04T12:53:13.792Z</time></trkpt><trkpt lat="51.8406017" lon="-0.420435"><ele>155.0</ele><time>2026-05-04T12:53:14.793Z</time></trkpt><trkpt lat="51.8403383" lon="-0.4203917"><ele>155.0</ele><time>2026-05-04T12:53:15.793Z</time></trkpt><trkpt lat="51.8400767" lon="-0.4203483"><ele>155.0</ele><time>2026-05-04T12:53:16.797Z</time></trkpt><trkpt lat="51.8398167" lon="-0.4203083"><ele>155.0</ele><time>2026-05-04T12:53:17.793Z</time></trkpt><trkpt lat="51.8395567" lon="-0.420265"><ele>154.5</ele><time>2026-05-04T12:53:18.791Z</time></trkpt><trkpt lat="51.8392967" lon="-0.42022"><ele>154.0</ele><time>2026-05-04T12:53:19.792Z</time></trkpt><trkpt lat="51.8390317" lon="-0.420175"><ele>154.0</ele><time>2026-05-04T12:53:20.797Z</time></trkpt><trkpt lat="51.8387667" lon="-0.4201283"><ele>154.0</ele><time>2026-05-04T12:53:21.792Z</time></trkpt><trkpt lat="51.8385" lon="-0.42008"><ele>154.0</ele><time>2026-05-04T12:53:22.792Z</time></trkpt><trkpt lat="51.8382283" lon="-0.420035"><ele>154.0</ele><time>2026-05-04T12:53:23.792Z</time></trkpt><trkpt lat="51.8379583" lon="-0.419985"><ele>154.0</ele><time>2026-05-04T12:53:24.792Z</time></trkpt><trkpt lat="51.8376867" lon="-0.4199383"><ele>154.0</ele><time>2026-05-04T12:53:25.793Z</time></trkpt><trkpt lat="51.8374167" lon="-0.4198917"><ele>154.5</ele><time>2026-05-04T12:53:26.793Z</time></trkpt><trkpt lat="51.8371467" lon="-0.41984"><ele>155.0</ele><time>2026-05-04T12:53:27.793Z</time></trkpt><trkpt lat="51.83688" lon="-0.4197867"><ele>154.5</ele><time>2026-05-04T12:53:28.792Z</time></trkpt><trkpt lat="51.8366117" lon="-0.4197283"><ele>154.0</ele><time>2026-05-04T12:53:29.791Z</time></trkpt><trkpt lat="51.836345" lon="-0.4196683"><ele>154.0</ele><time>2026-05-04T12:53:30.792Z</time></trkpt><trkpt lat="51.836075" lon="-0.419615"><ele>154.0</ele><time>2026-05-04T12:53:31.794Z</time></trkpt><trkpt lat="51.8358067" lon="-0.4195667"><ele>154.0</ele><time>2026-05-04T12:53:32.791Z</time></trkpt><trkpt lat="51.8355367" lon="-0.4195233"><ele>154.0</ele><time>2026-05-04T12:53:33.792Z</time></trkpt><trkpt lat="51.83527" lon="-0.4194783"><ele>153.5</ele><time>2026-05-04T12:53:34.792Z</time></trkpt><trkpt lat="51.8350017" lon="-0.419435"><ele>153.0</ele><time>2026-05-04T12:53:35.794Z</time></trkpt><trkpt lat="51.8347333" lon="-0.4193917"><ele>153.0</ele><time>2026-05-04T12:53:36.793Z</time></trkpt><trkpt lat="51.8344633" lon="-0.4193467"><ele>153.0</ele><time>2026-05-04T12:53:37.794Z</time></trkpt><trkpt lat="51.8341933" lon="-0.4193017"><ele>152.0</ele><time>2026-05-04T12:53:38.791Z</time></trkpt><trkpt lat="51.8339217" lon="-0.4192583"><ele>151.0</ele><time>2026-05-04T12:53:39.794Z</time></trkpt><trkpt lat="51.8336517" lon="-0.4192117"><ele>150.0</ele><time>2026-05-04T12:53:40.792Z</time></trkpt><trkpt lat="51.8333817" lon="-0.4191667"><ele>149.0</ele><time>2026-05-04T12:53:41.791Z</time></trkpt><trkpt lat="51.8331133" lon="-0.4191183"><ele>149.0</ele><time>2026-05-04T12:53:42.792Z</time></trkpt><trkpt lat="51.8328433" lon="-0.4190683"><ele>149.0</ele><time>2026-05-04T12:53:43.792Z</time></trkpt><trkpt lat="51.832575" lon="-0.4190217"><ele>148.5</ele><time>2026-05-04T12:53:44.793Z</time></trkpt><trkpt lat="51.832305" lon="-0.4189733"><ele>148.0</ele><time>2026-05-04T12:53:45.795Z</time></trkpt><trkpt lat="51.8320383" lon="-0.4189233"><ele>147.0</ele><time>2026-05-04T12:53:46.794Z</time></trkpt><trkpt lat="51.8317717" lon="-0.4188767"><ele>146.0</ele><time>2026-05-04T12:53:47.795Z</time></trkpt><trkpt lat="51.8315017" lon="-0.4188317"><ele>146.5</ele><time>2026-05-04T12:53:48.795Z</time></trkpt><trkpt lat="51.8312317" lon="-0.418785"><ele>147.0</ele><time>2026-05-04T12:53:49.795Z</time></trkpt><trkpt lat="51.8309633" lon="-0.4187383"><ele>145.5</ele><time>2026-05-04T12:53:50.792Z</time></trkpt><trkpt lat="51.8306933" lon="-0.4186917"><ele>144.0</ele><time>2026-05-04T12:53:51.791Z</time></trkpt><trkpt lat="51.8304217" lon="-0.418645"><ele>144.0</ele><time>2026-05-04T12:53:52.791Z</time></trkpt><trkpt lat="51.83015" lon="-0.4186"><ele>144.0</ele><time>2026-05-04T12:53:53.792Z</time></trkpt><trkpt lat="51.8298783" lon="-0.4185567"><ele>142.0</ele><time>2026-05-04T12:53:54.791Z</time></trkpt><trkpt lat="51.829605" lon="-0.4185133"><ele>140.0</ele><time>2026-05-04T12:53:55.793Z</time></trkpt><trkpt lat="51.829335" lon="-0.4184667"><ele>138.5</ele><time>2026-05-04T12:53:56.791Z</time></trkpt><trkpt lat="51.829065" lon="-0.4184233"><ele>137.0</ele><time>2026-05-04T12:53:57.793Z</time></trkpt><trkpt lat="51.8287933" lon="-0.4183817"><ele>137.0</ele><time>2026-05-04T12:53:58.796Z</time></trkpt><trkpt lat="51.8285183" lon="-0.41834"><ele>137.0</ele><time>2026-05-04T12:53:59.792Z</time></trkpt><trkpt lat="51.8282517" lon="-0.418295"><ele>135.5</ele><time>2026-05-04T12:54:00.792Z</time></trkpt><trkpt lat="51.8279817" lon="-0.41825"><ele>134.0</ele><time>2026-05-04T12:54:01.792Z</time></trkpt><trkpt lat="51.82771" lon="-0.4182017"><ele>133.0</ele><time>2026-05-04T12:54:02.793Z</time></trkpt><trkpt lat="51.82744" lon="-0.4181583"><ele>132.0</ele><time>2026-05-04T12:54:03.794Z</time></trkpt><trkpt lat="51.82717" lon="-0.4181133"><ele>132.0</ele><time>2026-05-04T12:54:04.793Z</time></trkpt><trkpt lat="51.8269" lon="-0.4180667"><ele>132.0</ele><time>2026-05-04T12:54:05.796Z</time></trkpt><trkpt lat="51.826635" lon="-0.4180183"><ele>133.0</ele><time>2026-05-04T12:54:06.792Z</time></trkpt><trkpt lat="51.8263717" lon="-0.4179733"><ele>134.0</ele><time>2026-05-04T12:54:07.792Z</time></trkpt><trkpt lat="51.82611" lon="-0.4179283"><ele>132.5</ele><time>2026-05-04T12:54:08.793Z</time></trkpt><trkpt lat="51.8258517" lon="-0.4178867"><ele>131.0</ele><time>2026-05-04T12:54:09.792Z</time></trkpt><trkpt lat="51.8256" lon="-0.4178417"><ele>131.0</ele><time>2026-05-04T12:54:10.793Z</time></trkpt><trkpt lat="51.8253533" lon="-0.4177983"><ele>131.0</ele><time>2026-05-04T12:54:11.793Z</time></trkpt><trkpt lat="51.8251133" lon="-0.417755"><ele>130.0</ele><time>2026-05-04T12:54:12.796Z</time></trkpt><trkpt lat="51.82488" lon="-0.4177167"><ele>129.0</ele><time>2026-05-04T12:54:13.793Z</time></trkpt><trkpt lat="51.8246533" lon="-0.4176783"><ele>129.0</ele><time>2026-05-04T12:54:14.795Z</time></trkpt><trkpt lat="51.8244317" lon="-0.417645"><ele>129.0</ele><time>2026-05-04T12:54:15.793Z</time></trkpt><trkpt lat="51.8242117" lon="-0.41761"><ele>129.0</ele><time>2026-05-04T12:54:16.796Z</time></trkpt><trkpt lat="51.8239917" lon="-0.4175733"><ele>126.0</ele><time>2026-05-04T12:54:17.791Z</time></trkpt><trkpt lat="51.8237683" lon="-0.417535"><ele>123.0</ele><time>2026-05-04T12:54:18.791Z</time></trkpt><trkpt lat="51.8235433" lon="-0.4174983"><ele>121.66666666666666</ele><time>2026-05-04T12:54:19.79Z</time></trkpt><trkpt lat="51.82332" lon="-0.4174583"><ele>120.33333333333333</ele><time>2026-05-04T12:54:20.792Z</time></trkpt><trkpt lat="51.8231" lon="-0.4174133"><ele>119.0</ele><time>2026-05-04T12:54:21.793Z</time></trkpt><trkpt lat="51.8228833" lon="-0.4173667"><ele>119.0</ele><time>2026-05-04T12:54:22.796Z</time></trkpt><trkpt lat="51.8226633" lon="-0.417325"><ele>119.0</ele><time>2026-05-04T12:54:23.792Z</time></trkpt><trkpt lat="51.8224417" lon="-0.417285"><ele>119.0</ele><time>2026-05-04T12:54:24.79Z</time></trkpt><trkpt lat="51.82222" lon="-0.41725"><ele>118.66666666666666</ele><time>2026-05-04T12:54:25.792Z</time></trkpt><trkpt lat="51.8219967" lon="-0.417215"><ele>118.33333333333334</ele><time>2026-05-04T12:54:26.792Z</time></trkpt><trkpt lat="51.821775" lon="-0.41718"><ele>118.0</ele><time>2026-05-04T12:54:27.792Z</time></trkpt><trkpt lat="51.8215533" lon="-0.4171433"><ele>117.66666666666667</ele><time>2026-05-04T12:54:28.795Z</time></trkpt><trkpt lat="51.8213317" lon="-0.4171067"><ele>117.33333333333334</ele><time>2026-05-04T12:54:29.794Z</time></trkpt><trkpt lat="51.8211067" lon="-0.41707"><ele>117.0</ele><time>2026-05-04T12:54:30.791Z</time></trkpt><trkpt lat="51.8208817" lon="-0.417035"><ele>115.5</ele><time>2026-05-04T12:54:31.791Z</time></trkpt><trkpt lat="51.8206583" lon="-0.4169983"><ele>114.0</ele><time>2026-05-04T12:54:32.792Z</time></trkpt><trkpt lat="51.8204283" lon="-0.4169617"><ele>114.0</ele><time>2026-05-04T12:54:33.791Z</time></trkpt><trkpt lat="51.820205" lon="-0.4169217"><ele>114.0</ele><time>2026-05-04T12:54:34.792Z</time></trkpt><trkpt lat="51.8199817" lon="-0.4168817"><ele>114.0</ele><time>2026-05-04T12:54:35.792Z</time></trkpt><trkpt lat="51.81976" lon="-0.41684"><ele>114.0</ele><time>2026-05-04T12:54:36.796Z</time></trkpt><trkpt lat="51.81954" lon="-0.4168"><ele>114.0</ele><time>2026-05-04T12:54:37.792Z</time></trkpt><trkpt lat="51.8193183" lon="-0.4167617"><ele>114.0</ele><time>2026-05-04T12:54:38.793Z</time></trkpt><trkpt lat="51.8190967" lon="-0.4167233"><ele>115.0</ele><time>2026-05-04T12:54:39.792Z</time></trkpt><trkpt lat="51.818875" lon="-0.41668"><ele>116.0</ele><time>2026-05-04T12:54:40.793Z</time></trkpt><trkpt lat="51.8186567" lon="-0.4166317"><ele>117.0</ele><time>2026-05-04T12:54:41.792Z</time></trkpt><trkpt lat="51.818435" lon="-0.41658"><ele>118.0</ele><time>2026-05-04T12:54:42.794Z</time></trkpt><trkpt lat="51.818215" lon="-0.4165283"><ele>119.0</ele><time>2026-05-04T12:54:43.793Z</time></trkpt><trkpt lat="51.8179917" lon="-0.4164833"><ele>120.0</ele><time>2026-05-04T12:54:44.793Z</time></trkpt><trkpt lat="51.81777" lon="-0.41644"><ele>121.33333333333334</ele><time>2026-05-04T12:54:45.793Z</time></trkpt><trkpt lat="51.81755" lon="-0.4164"><ele>122.66666666666667</ele><time>2026-05-04T12:54:46.796Z</time></trkpt><trkpt lat="51.8173283" lon="-0.41636"><ele>124.0</ele><time>2026-05-04T12:54:47.792Z</time></trkpt><trkpt lat="51.81711" lon="-0.4163183"><ele>124.5</ele><time>2026-05-04T12:54:48.791Z</time></trkpt><trkpt lat="51.8168883" lon="-0.4162817"><ele>125.0</ele><time>2026-05-04T12:54:49.792Z</time></trkpt><trkpt lat="51.8166617" lon="-0.4162467"><ele>125.66666666666666</ele><time>2026-05-04T12:54:50.79Z</time></trkpt><trkpt lat="51.8164383" lon="-0.41621"><ele>126.33333333333334</ele><time>2026-05-04T12:54:51.792Z</time></trkpt><trkpt lat="51.816215" lon="-0.4161733"><ele>127.0</ele><time>2026-05-04T12:54:52.792Z</time></trkpt><trkpt lat="51.8159933" lon="-0.416135"><ele>128.5</ele><time>2026-05-04T12:54:53.792Z</time></trkpt><trkpt lat="51.8157683" lon="-0.4161"><ele>130.0</ele><time>2026-05-04T12:54:54.791Z</time></trkpt><trkpt lat="51.815545" lon="-0.4160617"><ele>130.0</ele><time>2026-05-04T12:54:55.791Z</time></trkpt><trkpt lat="51.8153233" lon="-0.4160217"><ele>130.0</ele><time>2026-05-04T12:54:56.793Z</time></trkpt><trkpt lat="51.8151017" lon="-0.4159817"><ele>130.0</ele><time>2026-05-04T12:54:57.79Z</time></trkpt><trkpt lat="51.81488" lon="-0.4159417"><ele>131.33333333333334</ele><time>2026-05-04T12:54:58.793Z</time></trkpt><trkpt lat="51.8146617" lon="-0.4159033"><ele>132.66666666666666</ele><time>2026-05-04T12:54:59.791Z</time></trkpt><trkpt lat="51.8144383" lon="-0.4158683"><ele>134.0</ele><time>2026-05-04T12:55:00.793Z</time></trkpt><trkpt lat="51.8142167" lon="-0.41583"><ele>134.66666666666666</ele><time>2026-05-04T12:55:01.792Z</time></trkpt><trkpt lat="51.8139933" lon="-0.4157917"><ele>135.33333333333334</ele><time>2026-05-04T12:55:02.792Z</time></trkpt><trkpt lat="51.8137733" lon="-0.4157567"><ele>136.0</ele><time>2026-05-04T12:55:03.791Z</time></trkpt><trkpt lat="51.813555" lon="-0.4157167"><ele>137.5</ele><time>2026-05-04T12:55:04.792Z</time></trkpt><trkpt lat="51.8133317" lon="-0.4156767"><ele>139.0</ele><time>2026-05-04T12:55:05.792Z</time></trkpt><trkpt lat="51.8131083" lon="-0.415635"><ele>139.0</ele><time>2026-05-04T12:55:06.792Z</time></trkpt><trkpt lat="51.812885" lon="-0.415595"><ele>139.0</ele><time>2026-05-04T12:55:07.79Z</time></trkpt><trkpt lat="51.812665" lon="-0.415555"><ele>139.0</ele><time>2026-05-04T12:55:08.793Z</time></trkpt><trkpt lat="51.8124417" lon="-0.4155233"><ele>139.5</ele><time>2026-05-04T12:55:09.792Z</time></trkpt><trkpt lat="51.8122167" lon="-0.4154933"><ele>140.0</ele><time>2026-05-04T12:55:10.793Z</time></trkpt><trkpt lat="51.811985" lon="-0.41547"><ele>142.0</ele><time>2026-05-04T12:55:11.791Z</time></trkpt><trkpt lat="51.8117583" lon="-0.41544"><ele>144.0</ele><time>2026-05-04T12:55:12.792Z</time></trkpt><trkpt lat="51.81153" lon="-0.4154067"><ele>144.0</ele><time>2026-05-04T12:55:13.792Z</time></trkpt><trkpt lat="51.8113067" lon="-0.4153667"><ele>144.0</ele><time>2026-05-04T12:55:14.79Z</time></trkpt><trkpt lat="51.81108" lon="-0.4153283"><ele>143.5</ele><time>2026-05-04T12:55:15.792Z</time></trkpt><trkpt lat="51.8108533" lon="-0.4152883"><ele>143.0</ele><time>2026-05-04T12:55:16.793Z</time></trkpt><trkpt lat="51.81063" lon="-0.415245"><ele>143.0</ele><time>2026-05-04T12:55:17.795Z</time></trkpt><trkpt lat="51.8104067" lon="-0.4152017"><ele>143.0</ele><time>2026-05-04T12:55:18.792Z</time></trkpt><trkpt lat="51.8101833" lon="-0.4151567"><ele>142.33333333333331</ele><time>2026-05-04T12:55:19.793Z</time></trkpt><trkpt lat="51.8099617" lon="-0.4151117"><ele>141.66666666666666</ele><time>2026-05-04T12:55:20.792Z</time></trkpt><trkpt lat="51.80974" lon="-0.4150683"><ele>141.0</ele><time>2026-05-04T12:55:21.792Z</time></trkpt><trkpt lat="51.8095183" lon="-0.4150267"><ele>139.0</ele><time>2026-05-04T12:55:22.793Z</time></trkpt><trkpt lat="51.8092983" lon="-0.414985"><ele>137.0</ele><time>2026-05-04T12:55:23.792Z</time></trkpt><trkpt lat="51.8090717" lon="-0.4149417"><ele>137.0</ele><time>2026-05-04T12:55:24.791Z</time></trkpt><trkpt lat="51.8088467" lon="-0.4148983"><ele>137.0</ele><time>2026-05-04T12:55:25.792Z</time></trkpt><trkpt lat="51.8086233" lon="-0.4148533"><ele>136.0</ele><time>2026-05-04T12:55:26.792Z</time></trkpt><trkpt lat="51.8083983" lon="-0.4148117"><ele>135.0</ele><time>2026-05-04T12:55:27.791Z</time></trkpt><trkpt lat="51.8081717" lon="-0.4147683"><ele>135.0</ele><time>2026-05-04T12:55:28.792Z</time></trkpt><trkpt lat="51.8079483" lon="-0.4147167"><ele>135.0</ele><time>2026-05-04T12:55:29.793Z</time></trkpt><trkpt lat="51.807725" lon="-0.4146667"><ele>134.5</ele><time>2026-05-04T12:55:30.791Z</time></trkpt><trkpt lat="51.8075" lon="-0.414615"><ele>134.0</ele><time>2026-05-04T12:55:31.791Z</time></trkpt><trkpt lat="51.8072767" lon="-0.41457"><ele>134.0</ele><time>2026-05-04T12:55:32.792Z</time></trkpt><trkpt lat="51.8070567" lon="-0.414525"><ele>134.0</ele><time>2026-05-04T12:55:33.792Z</time></trkpt><trkpt lat="51.806835" lon="-0.41448"><ele>134.0</ele><time>2026-05-04T12:55:34.793Z</time></trkpt><trkpt lat="51.80661" lon="-0.4144333"><ele>133.5</ele><time>2026-05-04T12:55:35.791Z</time></trkpt><trkpt lat="51.8063833" lon="-0.4143883"><ele>133.0</ele><time>2026-05-04T12:55:36.791Z</time></trkpt><trkpt lat="51.8061583" lon="-0.41434"><ele>133.0</ele><time>2026-05-04T12:55:37.793Z</time></trkpt><trkpt lat="51.8059367" lon="-0.4142917"><ele>133.0</ele><time>2026-05-04T12:55:38.793Z</time></trkpt><trkpt lat="51.8057117" lon="-0.4142483"><ele>133.0</ele><time>2026-05-04T12:55:39.793Z</time></trkpt><trkpt lat="51.8054883" lon="-0.414205"><ele>133.0</ele><time>2026-05-04T12:55:40.793Z</time></trkpt><trkpt lat="51.8052633" lon="-0.41416"><ele>132.0</ele><time>2026-05-04T12:55:41.793Z</time></trkpt><trkpt lat="51.8050417" lon="-0.4141167"><ele>131.0</ele><time>2026-05-04T12:55:42.793Z</time></trkpt><trkpt lat="51.8048167" lon="-0.4140717"><ele>131.0</ele><time>2026-05-04T12:55:43.792Z</time></trkpt><trkpt lat="51.8045933" lon="-0.4140233"><ele>131.0</ele><time>2026-05-04T12:55:44.795Z</time></trkpt><trkpt lat="51.8043733" lon="-0.4139733"><ele>131.0</ele><time>2026-05-04T12:55:45.791Z</time></trkpt><trkpt lat="51.8041517" lon="-0.4139267"><ele>132.0</ele><time>2026-05-04T12:55:46.794Z</time></trkpt><trkpt lat="51.8039283" lon="-0.41388"><ele>133.0</ele><time>2026-05-04T12:55:47.793Z</time></trkpt><trkpt lat="51.803705" lon="-0.4138333"><ele>132.5</ele><time>2026-05-04T12:55:48.791Z</time></trkpt><trkpt lat="51.80348" lon="-0.41379"><ele>132.0</ele><time>2026-05-04T12:55:49.79Z</time></trkpt><trkpt lat="51.803255" lon="-0.413745"><ele>132.0</ele><time>2026-05-04T12:55:50.792Z</time></trkpt><trkpt lat="51.8030333" lon="-0.4137"><ele>132.0</ele><time>2026-05-04T12:55:51.792Z</time></trkpt><trkpt lat="51.8028083" lon="-0.413655"><ele>131.0</ele><time>2026-05-04T12:55:52.792Z</time></trkpt><trkpt lat="51.8025833" lon="-0.4136083"><ele>130.0</ele><time>2026-05-04T12:55:53.798Z</time></trkpt><trkpt lat="51.80236" lon="-0.4135617"><ele>130.0</ele><time>2026-05-04T12:55:54.793Z</time></trkpt><trkpt lat="51.8021333" lon="-0.4135183"><ele>130.0</ele><time>2026-05-04T12:55:55.794Z</time></trkpt><trkpt lat="51.80191" lon="-0.4134767"><ele>129.66666666666669</ele><time>2026-05-04T12:55:56.792Z</time></trkpt><trkpt lat="51.8016867" lon="-0.4134333"><ele>129.33333333333334</ele><time>2026-05-04T12:55:57.791Z</time></trkpt><trkpt lat="51.801465" lon="-0.4133867"><ele>129.0</ele><time>2026-05-04T12:55:58.791Z</time></trkpt><trkpt lat="51.8012417" lon="-0.41334"><ele>129.0</ele><time>2026-05-04T12:55:59.793Z</time></trkpt><trkpt lat="51.80102" lon="-0.4132917"><ele>129.0</ele><time>2026-05-04T12:56:00.795Z</time></trkpt><trkpt lat="51.8007967" lon="-0.413245"><ele>129.0</ele><time>2026-05-04T12:56:01.793Z</time></trkpt><trkpt lat="51.8005717" lon="-0.4132"><ele>126.5</ele><time>2026-05-04T12:56:02.796Z</time></trkpt><trkpt lat="51.8003433" lon="-0.4131583"><ele>124.0</ele><time>2026-05-04T12:56:03.792Z</time></trkpt><trkpt lat="51.8001167" lon="-0.413115"><ele>121.5</ele><time>2026-05-04T12:56:04.79Z</time></trkpt><trkpt lat="51.7998917" lon="-0.41307"><ele>119.0</ele><time>2026-05-04T12:56:05.791Z</time></trkpt><trkpt lat="51.7996667" lon="-0.4130217"><ele>119.33333333333333</ele><time>2026-05-04T12:56:06.791Z</time></trkpt><trkpt lat="51.799445" lon="-0.412975"><ele>119.66666666666666</ele><time>2026-05-04T12:56:07.792Z</time></trkpt><trkpt lat="51.7992217" lon="-0.41293"><ele>120.0</ele><time>2026-05-04T12:56:08.797Z</time></trkpt><trkpt lat="51.7989983" lon="-0.4128833"><ele>117.0</ele><time>2026-05-04T12:56:09.793Z</time></trkpt><trkpt lat="51.7987767" lon="-0.4128367"><ele>114.0</ele><time>2026-05-04T12:56:10.792Z</time></trkpt><trkpt lat="51.7985517" lon="-0.4127917"><ele>113.33333333333334</ele><time>2026-05-04T12:56:11.793Z</time></trkpt><trkpt lat="51.7983283" lon="-0.4127467"><ele>112.66666666666667</ele><time>2026-05-04T12:56:12.791Z</time></trkpt><trkpt lat="51.7981067" lon="-0.4127017"><ele>112.0</ele><time>2026-05-04T12:56:13.795Z</time></trkpt><trkpt lat="51.7978783" lon="-0.4126583"><ele>112.66666666666667</ele><time>2026-05-04T12:56:14.792Z</time></trkpt><trkpt lat="51.7976567" lon="-0.4126117"><ele>113.33333333333334</ele><time>2026-05-04T12:56:15.792Z</time></trkpt><trkpt lat="51.7974333" lon="-0.4125667"><ele>114.0</ele><time>2026-05-04T12:56:16.796Z</time></trkpt><trkpt lat="51.7972083" lon="-0.41252"><ele>114.0</ele><time>2026-05-04T12:56:17.793Z</time></trkpt><trkpt lat="51.7969867" lon="-0.41247"><ele>114.0</ele><time>2026-05-04T12:56:18.794Z</time></trkpt><trkpt lat="51.7967667" lon="-0.41242"><ele>114.0</ele><time>2026-05-04T12:56:19.792Z</time></trkpt><trkpt lat="51.7965433" lon="-0.412375"><ele>114.33333333333334</ele><time>2026-05-04T12:56:20.796Z</time></trkpt><trkpt lat="51.79632" lon="-0.41233"><ele>114.66666666666667</ele><time>2026-05-04T12:56:21.791Z</time></trkpt><trkpt lat="51.7961" lon="-0.4122833"><ele>115.0</ele><time>2026-05-04T12:56:22.793Z</time></trkpt><trkpt lat="51.7958833" lon="-0.4122367"><ele>114.0</ele><time>2026-05-04T12:56:23.795Z</time></trkpt><trkpt lat="51.7956617" lon="-0.41219"><ele>113.0</ele><time>2026-05-04T12:56:24.794Z</time></trkpt><trkpt lat="51.795435" lon="-0.4121467"><ele>112.5</ele><time>2026-05-04T12:56:25.793Z</time></trkpt><trkpt lat="51.795205" lon="-0.4121"><ele>112.0</ele><time>2026-05-04T12:56:26.794Z</time></trkpt><trkpt lat="51.7949733" lon="-0.41205"><ele>112.0</ele><time>2026-05-04T12:56:27.794Z</time></trkpt><trkpt lat="51.79474" lon="-0.4119983"><ele>112.0</ele><time>2026-05-04T12:56:28.792Z</time></trkpt><trkpt lat="51.7945117" lon="-0.4119517"><ele>111.0</ele><time>2026-05-04T12:56:29.793Z</time></trkpt><trkpt lat="51.794285" lon="-0.411905"><ele>110.0</ele><time>2026-05-04T12:56:30.793Z</time></trkpt><trkpt lat="51.7940617" lon="-0.4118567"><ele>110.0</ele><time>2026-05-04T12:56:31.794Z</time></trkpt><trkpt lat="51.79384" lon="-0.411805"><ele>110.0</ele><time>2026-05-04T12:56:32.793Z</time></trkpt><trkpt lat="51.7936183" lon="-0.411755"><ele>110.0</ele><time>2026-05-04T12:56:33.793Z</time></trkpt><trkpt lat="51.7933983" lon="-0.4117117"><ele>109.33333333333333</ele><time>2026-05-04T12:56:34.793Z</time></trkpt><trkpt lat="51.7931767" lon="-0.4116717"><ele>108.66666666666666</ele><time>2026-05-04T12:56:35.795Z</time></trkpt><trkpt lat="51.7929533" lon="-0.4116317"><ele>108.0</ele><time>2026-05-04T12:56:36.794Z</time></trkpt><trkpt lat="51.7927283" lon="-0.4115883"><ele>107.0</ele><time>2026-05-04T12:56:37.799Z</time></trkpt><trkpt lat="51.7925067" lon="-0.4115417"><ele>106.0</ele><time>2026-05-04T12:56:38.792Z</time></trkpt><trkpt lat="51.7922833" lon="-0.4114933"><ele>105.0</ele><time>2026-05-04T12:56:39.794Z</time></trkpt><trkpt lat="51.7920617" lon="-0.4114433"><ele>104.33333333333334</ele><time>2026-05-04T12:56:40.795Z</time></trkpt><trkpt lat="51.79184" lon="-0.4113933"><ele>103.66666666666667</ele><time>2026-05-04T12:56:41.796Z</time></trkpt><trkpt lat="51.7916183" lon="-0.4113483"><ele>103.0</ele><time>2026-05-04T12:56:42.796Z</time></trkpt><trkpt lat="51.7913933" lon="-0.4113033"><ele>102.5</ele><time>2026-05-04T12:56:43.793Z</time></trkpt><trkpt lat="51.79117" lon="-0.4112567"><ele>102.0</ele><time>2026-05-04T12:56:44.795Z</time></trkpt><trkpt lat="51.7909467" lon="-0.4112133"><ele>102.0</ele><time>2026-05-04T12:56:45.795Z</time></trkpt><trkpt lat="51.790725" lon="-0.4111667"><ele>102.0</ele><time>2026-05-04T12:56:46.796Z</time></trkpt><trkpt lat="51.7905017" lon="-0.411125"><ele>102.0</ele><time>2026-05-04T12:56:47.795Z</time></trkpt><trkpt lat="51.790275" lon="-0.4110833"><ele>102.5</ele><time>2026-05-04T12:56:48.795Z</time></trkpt><trkpt lat="51.79005" lon="-0.4110483"><ele>103.0</ele><time>2026-05-04T12:56:49.797Z</time></trkpt><trkpt lat="51.789825" lon="-0.41101"><ele>103.0</ele><time>2026-05-04T12:56:50.794Z</time></trkpt><trkpt lat="51.7896017" lon="-0.4109733"><ele>103.0</ele><time>2026-05-04T12:56:51.793Z</time></trkpt><trkpt lat="51.7893767" lon="-0.4109417"><ele>103.0</ele><time>2026-05-04T12:56:52.795Z</time></trkpt><trkpt lat="51.78915" lon="-0.4109133"><ele>103.0</ele><time>2026-05-04T12:56:53.798Z</time></trkpt><trkpt lat="51.7889233" lon="-0.4108867"><ele>103.0</ele><time>2026-05-04T12:56:54.793Z</time></trkpt><trkpt lat="51.7886983" lon="-0.4108617"><ele>103.0</ele><time>2026-05-04T12:56:55.795Z</time></trkpt><trkpt lat="51.788475" lon="-0.41084"><ele>103.0</ele><time>2026-05-04T12:56:56.797Z</time></trkpt><trkpt lat="51.7882533" lon="-0.4108183"><ele>103.0</ele><time>2026-05-04T12:56:57.795Z</time></trkpt><trkpt lat="51.78803" lon="-0.4107983"><ele>103.0</ele><time>2026-05-04T12:56:58.794Z</time></trkpt><trkpt lat="51.787805" lon="-0.41078"><ele>103.0</ele><time>2026-05-04T12:56:59.793Z</time></trkpt><trkpt lat="51.78758" lon="-0.410765"><ele>103.66666666666667</ele><time>2026-05-04T12:57:00.802Z</time></trkpt><trkpt lat="51.78736" lon="-0.4107517"><ele>104.33333333333334</ele><time>2026-05-04T12:57:01.79Z</time></trkpt><trkpt lat="51.7871383" lon="-0.4107417"><ele>105.0</ele><time>2026-05-04T12:57:02.793Z</time></trkpt><trkpt lat="51.786915" lon="-0.4107333"><ele>106.0</ele><time>2026-05-04T12:57:03.791Z</time></trkpt><trkpt lat="51.78669" lon="-0.4107267"><ele>107.0</ele><time>2026-05-04T12:57:04.793Z</time></trkpt><trkpt lat="51.7864633" lon="-0.41072"><ele>107.0</ele><time>2026-05-04T12:57:05.793Z</time></trkpt><trkpt lat="51.7862383" lon="-0.4107183"><ele>107.0</ele><time>2026-05-04T12:57:06.793Z</time></trkpt><trkpt lat="51.7860117" lon="-0.410715"><ele>109.5</ele><time>2026-05-04T12:57:07.796Z</time></trkpt><trkpt lat="51.785785" lon="-0.4107133"><ele>112.0</ele><time>2026-05-04T12:57:08.793Z</time></trkpt><trkpt lat="51.78556" lon="-0.4107183"><ele>112.0</ele><time>2026-05-04T12:57:09.792Z</time></trkpt><trkpt lat="51.785335" lon="-0.4107233"><ele>112.0</ele><time>2026-05-04T12:57:10.791Z</time></trkpt><trkpt lat="51.78511" lon="-0.4107333"><ele>113.66666666666667</ele><time>2026-05-04T12:57:11.791Z</time></trkpt><trkpt lat="51.7848883" lon="-0.410745"><ele>115.33333333333334</ele><time>2026-05-04T12:57:12.792Z</time></trkpt><trkpt lat="51.784665" lon="-0.4107567"><ele>117.0</ele><time>2026-05-04T12:57:13.793Z</time></trkpt><trkpt lat="51.7844417" lon="-0.4107683"><ele>118.0</ele><time>2026-05-04T12:57:14.792Z</time></trkpt><trkpt lat="51.78422" lon="-0.4107833"><ele>119.0</ele><time>2026-05-04T12:57:15.793Z</time></trkpt><trkpt lat="51.7839967" lon="-0.4108"><ele>120.0</ele><time>2026-05-04T12:57:16.791Z</time></trkpt><trkpt lat="51.7837733" lon="-0.41082"><ele>120.0</ele><time>2026-05-04T12:57:17.792Z</time></trkpt><trkpt lat="51.7835483" lon="-0.41084"><ele>120.0</ele><time>2026-05-04T12:57:18.792Z</time></trkpt><trkpt lat="51.7833233" lon="-0.4108633"><ele>120.66666666666666</ele><time>2026-05-04T12:57:19.796Z</time></trkpt><trkpt lat="51.7831" lon="-0.4108933"><ele>121.33333333333333</ele><time>2026-05-04T12:57:20.791Z</time></trkpt><trkpt lat="51.7828767" lon="-0.4109317"><ele>122.0</ele><time>2026-05-04T12:57:21.791Z</time></trkpt><trkpt lat="51.7826533" lon="-0.4109717"><ele>123.5</ele><time>2026-05-04T12:57:22.792Z</time></trkpt><trkpt lat="51.7824283" lon="-0.4110117"><ele>125.0</ele><time>2026-05-04T12:57:23.793Z</time></trkpt><trkpt lat="51.782205" lon="-0.4110533"><ele>125.0</ele><time>2026-05-04T12:57:24.793Z</time></trkpt><trkpt lat="51.78198" lon="-0.411095"><ele>125.0</ele><time>2026-05-04T12:57:25.792Z</time></trkpt><trkpt lat="51.7817567" lon="-0.4111317"><ele>125.33333333333333</ele><time>2026-05-04T12:57:26.792Z</time></trkpt><trkpt lat="51.7815317" lon="-0.4111683"><ele>125.66666666666666</ele><time>2026-05-04T12:57:27.793Z</time></trkpt><trkpt lat="51.7813117" lon="-0.4112083"><ele>126.0</ele><time>2026-05-04T12:57:28.792Z</time></trkpt><trkpt lat="51.78109" lon="-0.4112517"><ele>126.5</ele><time>2026-05-04T12:57:29.792Z</time></trkpt><trkpt lat="51.7808667" lon="-0.4112983"><ele>127.0</ele><time>2026-05-04T12:57:30.792Z</time></trkpt><trkpt lat="51.7806433" lon="-0.411345"><ele>127.0</ele><time>2026-05-04T12:57:31.793Z</time></trkpt><trkpt lat="51.78042" lon="-0.411395"><ele>127.0</ele><time>2026-05-04T12:57:32.792Z</time></trkpt><trkpt lat="51.7802" lon="-0.411445"><ele>127.0</ele><time>2026-05-04T12:57:33.791Z</time></trkpt><trkpt lat="51.77998" lon="-0.4114933"><ele>127.0</ele><time>2026-05-04T12:57:34.794Z</time></trkpt><trkpt lat="51.7797567" lon="-0.4115433"><ele>127.0</ele><time>2026-05-04T12:57:35.792Z</time></trkpt><trkpt lat="51.7795367" lon="-0.4115983"><ele>127.0</ele><time>2026-05-04T12:57:36.791Z</time></trkpt><trkpt lat="51.77932" lon="-0.411655"><ele>128.66666666666669</ele><time>2026-05-04T12:57:37.791Z</time></trkpt><trkpt lat="51.7791" lon="-0.4117133"><ele>130.33333333333334</ele><time>2026-05-04T12:57:38.791Z</time></trkpt><trkpt lat="51.7788817" lon="-0.4117733"><ele>132.0</ele><time>2026-05-04T12:57:39.791Z</time></trkpt><trkpt lat="51.7786617" lon="-0.41184"><ele>132.33333333333334</ele><time>2026-05-04T12:57:40.791Z</time></trkpt><trkpt lat="51.778445" lon="-0.411905"><ele>132.66666666666669</ele><time>2026-05-04T12:57:41.792Z</time></trkpt><trkpt lat="51.7782267" lon="-0.4119667"><ele>133.0</ele><time>2026-05-04T12:57:42.792Z</time></trkpt><trkpt lat="51.7780083" lon="-0.41203"><ele>133.0</ele><time>2026-05-04T12:57:43.795Z</time></trkpt><trkpt lat="51.7777883" lon="-0.4120933"><ele>133.0</ele><time>2026-05-04T12:57:44.792Z</time></trkpt><trkpt lat="51.7775667" lon="-0.4121567"><ele>133.0</ele><time>2026-05-04T12:57:45.791Z</time></trkpt><trkpt lat="51.777345" lon="-0.4122183"><ele>134.0</ele><time>2026-05-04T12:57:46.793Z</time></trkpt><trkpt lat="51.7771217" lon="-0.4122833"><ele>135.0</ele><time>2026-05-04T12:57:47.793Z</time></trkpt><trkpt lat="51.7769" lon="-0.4123483"><ele>135.0</ele><time>2026-05-04T12:57:48.792Z</time></trkpt><trkpt lat="51.77668" lon="-0.4124133"><ele>135.0</ele><time>2026-05-04T12:57:49.792Z</time></trkpt><trkpt lat="51.77646" lon="-0.41248"><ele>135.0</ele><time>2026-05-04T12:57:50.792Z</time></trkpt><trkpt lat="51.77624" lon="-0.412545"><ele>135.66666666666666</ele><time>2026-05-04T12:57:51.791Z</time></trkpt><trkpt lat="51.7760183" lon="-0.41261"><ele>136.33333333333331</ele><time>2026-05-04T12:57:52.792Z</time></trkpt><trkpt lat="51.7757983" lon="-0.41267"><ele>137.0</ele><time>2026-05-04T12:57:53.792Z</time></trkpt><trkpt lat="51.7755783" lon="-0.4127283"><ele>137.0</ele><time>2026-05-04T12:57:54.793Z</time></trkpt><trkpt lat="51.7753617" lon="-0.4127883"><ele>137.0</ele><time>2026-05-04T12:57:55.791Z</time></trkpt><trkpt lat="51.77514" lon="-0.41285"><ele>137.0</ele><time>2026-05-04T12:57:56.793Z</time></trkpt><trkpt lat="51.77491" lon="-0.4129167"><ele>137.0</ele><time>2026-05-04T12:57:57.793Z</time></trkpt><trkpt lat="51.774675" lon="-0.4129867"><ele>137.0</ele><time>2026-05-04T12:57:58.792Z</time></trkpt><trkpt lat="51.7744367" lon="-0.4130567"><ele>137.0</ele><time>2026-05-04T12:57:59.792Z</time></trkpt><trkpt lat="51.7742017" lon="-0.4131233"><ele>137.0</ele><time>2026-05-04T12:58:00.793Z</time></trkpt><trkpt lat="51.7739667" lon="-0.4131883"><ele>137.0</ele><time>2026-05-04T12:58:01.792Z</time></trkpt><trkpt lat="51.7737333" lon="-0.4132533"><ele>137.0</ele><time>2026-05-04T12:58:02.791Z</time></trkpt><trkpt lat="51.773505" lon="-0.413315"><ele>136.5</ele><time>2026-05-04T12:58:03.793Z</time></trkpt><trkpt lat="51.7732783" lon="-0.41338"><ele>136.0</ele><time>2026-05-04T12:58:04.796Z</time></trkpt><trkpt lat="51.77305" lon="-0.4134483"><ele>136.0</ele><time>2026-05-04T12:58:05.793Z</time></trkpt><trkpt lat="51.77282" lon="-0.4135117"><ele>136.0</ele><time>2026-05-04T12:58:06.793Z</time></trkpt><trkpt lat="51.7725933" lon="-0.4135783"><ele>137.0</ele><time>2026-05-04T12:58:07.793Z</time></trkpt><trkpt lat="51.7723717" lon="-0.4136467"><ele>138.0</ele><time>2026-05-04T12:58:08.791Z</time></trkpt><trkpt lat="51.7721483" lon="-0.4137117"><ele>138.0</ele><time>2026-05-04T12:58:09.791Z</time></trkpt><trkpt lat="51.77193" lon="-0.4137683"><ele>138.0</ele><time>2026-05-04T12:58:10.793Z</time></trkpt><trkpt lat="51.77171" lon="-0.4138283"><ele>138.0</ele><time>2026-05-04T12:58:11.793Z</time></trkpt><trkpt lat="51.7714883" lon="-0.4138867"><ele>138.5</ele><time>2026-05-04T12:58:12.791Z</time></trkpt><trkpt lat="51.7712683" lon="-0.41395"><ele>139.0</ele><time>2026-05-04T12:58:13.793Z</time></trkpt><trkpt lat="51.7710433" lon="-0.414015"><ele>138.5</ele><time>2026-05-04T12:58:14.794Z</time></trkpt><trkpt lat="51.7708083" lon="-0.4140817"><ele>138.0</ele><time>2026-05-04T12:58:15.791Z</time></trkpt><trkpt lat="51.7705667" lon="-0.41415"><ele>138.0</ele><time>2026-05-04T12:58:16.794Z</time></trkpt><trkpt lat="51.770325" lon="-0.4142183"><ele>138.0</ele><time>2026-05-04T12:58:17.794Z</time></trkpt><trkpt lat="51.7700817" lon="-0.4142883"><ele>137.0</ele><time>2026-05-04T12:58:18.791Z</time></trkpt><trkpt lat="51.7698417" lon="-0.4143617"><ele>136.0</ele><time>2026-05-04T12:58:19.792Z</time></trkpt><trkpt lat="51.769605" lon="-0.414435"><ele>136.0</ele><time>2026-05-04T12:58:20.794Z</time></trkpt><trkpt lat="51.7693717" lon="-0.4145033"><ele>136.0</ele><time>2026-05-04T12:58:21.792Z</time></trkpt><trkpt lat="51.7691383" lon="-0.414575"><ele>135.5</ele><time>2026-05-04T12:58:22.792Z</time></trkpt><trkpt lat="51.768905" lon="-0.4146433"><ele>135.0</ele><time>2026-05-04T12:58:23.794Z</time></trkpt><trkpt lat="51.76867" lon="-0.4147133"><ele>135.0</ele><time>2026-05-04T12:58:24.793Z</time></trkpt><trkpt lat="51.7684367" lon="-0.4147767"><ele>135.0</ele><time>2026-05-04T12:58:25.793Z</time></trkpt><trkpt lat="51.7682067" lon="-0.41484"><ele>135.0</ele><time>2026-05-04T12:58:26.792Z</time></trkpt><trkpt lat="51.7679783" lon="-0.4149033"><ele>135.0</ele><time>2026-05-04T12:58:27.792Z</time></trkpt><trkpt lat="51.7677517" lon="-0.414965"><ele>135.0</ele><time>2026-05-04T12:58:28.793Z</time></trkpt><trkpt lat="51.7675233" lon="-0.41503"><ele>135.0</ele><time>2026-05-04T12:58:29.793Z</time></trkpt><trkpt lat="51.7672933" lon="-0.41509"><ele>135.0</ele><time>2026-05-04T12:58:30.792Z</time></trkpt><trkpt lat="51.7670583" lon="-0.4151533"><ele>135.0</ele><time>2026-05-04T12:58:31.792Z</time></trkpt><trkpt lat="51.7668233" lon="-0.4152217"><ele>134.0</ele><time>2026-05-04T12:58:32.791Z</time></trkpt><trkpt lat="51.7665883" lon="-0.4152883"><ele>133.0</ele><time>2026-05-04T12:58:33.793Z</time></trkpt><trkpt lat="51.7663533" lon="-0.41536"><ele>133.0</ele><time>2026-05-04T12:58:34.793Z</time></trkpt><trkpt lat="51.7661133" lon="-0.415425"><ele>133.0</ele><time>2026-05-04T12:58:35.793Z</time></trkpt><trkpt lat="51.7658683" lon="-0.4154917"><ele>131.0</ele><time>2026-05-04T12:58:36.792Z</time></trkpt><trkpt lat="51.7656133" lon="-0.41557"><ele>129.0</ele><time>2026-05-04T12:58:37.793Z</time></trkpt><trkpt lat="51.7653583" lon="-0.41564"><ele>127.5</ele><time>2026-05-04T12:58:38.791Z</time></trkpt><trkpt lat="51.7651017" lon="-0.415715"><ele>126.0</ele><time>2026-05-04T12:58:39.792Z</time></trkpt><trkpt lat="51.7648417" lon="-0.415795"><ele>126.0</ele><time>2026-05-04T12:58:40.793Z</time></trkpt><trkpt lat="51.7645833" lon="-0.4158717"><ele>126.0</ele><time>2026-05-04T12:58:41.792Z</time></trkpt><trkpt lat="51.76433" lon="-0.4159433"><ele>126.0</ele><time>2026-05-04T12:58:42.793Z</time></trkpt><trkpt lat="51.76408" lon="-0.4160133"><ele>126.0</ele><time>2026-05-04T12:58:43.792Z</time></trkpt><trkpt lat="51.7638333" lon="-0.4160817"><ele>126.0</ele><time>2026-05-04T12:58:44.792Z</time></trkpt><trkpt lat="51.7635883" lon="-0.41615"><ele>126.0</ele><time>2026-05-04T12:58:45.791Z</time></trkpt><trkpt lat="51.763345" lon="-0.41622"><ele>127.0</ele><time>2026-05-04T12:58:46.792Z</time></trkpt><trkpt lat="51.7631" lon="-0.4162867"><ele>128.0</ele><time>2026-05-04T12:58:47.791Z</time></trkpt><trkpt lat="51.76286" lon="-0.41635"><ele>130.0</ele><time>2026-05-04T12:58:48.792Z</time></trkpt><trkpt lat="51.76262" lon="-0.4164133"><ele>132.0</ele><time>2026-05-04T12:58:49.791Z</time></trkpt><trkpt lat="51.762375" lon="-0.41648"><ele>132.0</ele><time>2026-05-04T12:58:50.791Z</time></trkpt><trkpt lat="51.7621217" lon="-0.416545"><ele>132.0</ele><time>2026-05-04T12:58:51.791Z</time></trkpt><trkpt lat="51.761865" lon="-0.416605"><ele>133.5</ele><time>2026-05-04T12:58:52.793Z</time></trkpt><trkpt lat="51.7616117" lon="-0.416655"><ele>135.0</ele><time>2026-05-04T12:58:53.793Z</time></trkpt><trkpt lat="51.7613667" lon="-0.41669"><ele>135.0</ele><time>2026-05-04T12:58:54.793Z</time></trkpt><trkpt lat="51.76113" lon="-0.4167183"><ele>135.0</ele><time>2026-05-04T12:58:55.793Z</time></trkpt><trkpt lat="51.7609033" lon="-0.4167417"><ele>135.0</ele><time>2026-05-04T12:58:56.792Z</time></trkpt><trkpt lat="51.7606817" lon="-0.4167617"><ele>135.0</ele><time>2026-05-04T12:58:57.792Z</time></trkpt><trkpt lat="51.76046" lon="-0.4167767"><ele>135.0</ele><time>2026-05-04T12:58:58.79Z</time></trkpt><trkpt lat="51.7602383" lon="-0.4167817"><ele>135.33333333333334</ele><time>2026-05-04T12:58:59.793Z</time></trkpt><trkpt lat="51.760015" lon="-0.41678"><ele>135.66666666666669</ele><time>2026-05-04T12:59:00.79Z</time></trkpt><trkpt lat="51.75979" lon="-0.4167767"><ele>136.0</ele><time>2026-05-04T12:59:01.793Z</time></trkpt><trkpt lat="51.7595633" lon="-0.41677"><ele>137.0</ele><time>2026-05-04T12:59:02.792Z</time></trkpt><trkpt lat="51.7593383" lon="-0.4167533"><ele>138.0</ele><time>2026-05-04T12:59:03.797Z</time></trkpt><trkpt lat="51.7591133" lon="-0.4167233"><ele>138.0</ele><time>2026-05-04T12:59:04.795Z</time></trkpt><trkpt lat="51.7588883" lon="-0.4166933"><ele>138.0</ele><time>2026-05-04T12:59:05.795Z</time></trkpt><trkpt lat="51.758665" lon="-0.4166567"><ele>138.0</ele><time>2026-05-04T12:59:06.792Z</time></trkpt><trkpt lat="51.7584433" lon="-0.41662"><ele>138.0</ele><time>2026-05-04T12:59:07.794Z</time></trkpt><trkpt lat="51.7582217" lon="-0.416575"><ele>138.0</ele><time>2026-05-04T12:59:08.795Z</time></trkpt><trkpt lat="51.7579967" lon="-0.4165267"><ele>138.0</ele><time>2026-05-04T12:59:09.795Z</time></trkpt><trkpt lat="51.7577733" lon="-0.4164733"><ele>138.0</ele><time>2026-05-04T12:59:10.792Z</time></trkpt><trkpt lat="51.7575517" lon="-0.4164117"><ele>138.0</ele><time>2026-05-04T12:59:11.792Z</time></trkpt><trkpt lat="51.7573283" lon="-0.4163433"><ele>138.0</ele><time>2026-05-04T12:59:12.791Z</time></trkpt><trkpt lat="51.7571067" lon="-0.4162717"><ele>138.0</ele><time>2026-05-04T12:59:13.791Z</time></trkpt><trkpt lat="51.7568883" lon="-0.4162"><ele>138.0</ele><time>2026-05-04T12:59:14.792Z</time></trkpt><trkpt lat="51.7566667" lon="-0.4161183"><ele>138.0</ele><time>2026-05-04T12:59:15.792Z</time></trkpt><trkpt lat="51.7564517" lon="-0.4160267"><ele>138.0</ele><time>2026-05-04T12:59:16.792Z</time></trkpt><trkpt lat="51.75624" lon="-0.4159283"><ele>138.0</ele><time>2026-05-04T12:59:17.792Z</time></trkpt><trkpt lat="51.7560233" lon="-0.4158283"><ele>137.66666666666666</ele><time>2026-05-04T12:59:18.791Z</time></trkpt><trkpt lat="51.7558083" lon="-0.415725"><ele>137.33333333333331</ele><time>2026-05-04T12:59:19.792Z</time></trkpt><trkpt lat="51.755595" lon="-0.4156167"><ele>137.0</ele><time>2026-05-04T12:59:20.79Z</time></trkpt><trkpt lat="51.7553817" lon="-0.4155017"><ele>136.33333333333331</ele><time>2026-05-04T12:59:21.792Z</time></trkpt><trkpt lat="51.7551717" lon="-0.4153783"><ele>135.66666666666666</ele><time>2026-05-04T12:59:22.79Z</time></trkpt><trkpt lat="51.7549633" lon="-0.4152517"><ele>135.0</ele><time>2026-05-04T12:59:23.792Z</time></trkpt><trkpt lat="51.7547567" lon="-0.4151217"><ele>135.0</ele><time>2026-05-04T12:59:24.792Z</time></trkpt><trkpt lat="51.7545517" lon="-0.4149817"><ele>135.0</ele><time>2026-05-04T12:59:25.795Z</time></trkpt><trkpt lat="51.754345" lon="-0.41484"><ele>135.0</ele><time>2026-05-04T12:59:26.792Z</time></trkpt><trkpt lat="51.75414" lon="-0.4146917"><ele>133.0</ele><time>2026-05-04T12:59:27.795Z</time></trkpt><trkpt lat="51.753935" lon="-0.4145333"><ele>131.0</ele><time>2026-05-04T12:59:28.795Z</time></trkpt><trkpt lat="51.7537333" lon="-0.4143667"><ele>130.0</ele><time>2026-05-04T12:59:29.795Z</time></trkpt><trkpt lat="51.753535" lon="-0.4141983"><ele>129.0</ele><time>2026-05-04T12:59:30.793Z</time></trkpt><trkpt lat="51.753335" lon="-0.4140317"><ele>128.0</ele><time>2026-05-04T12:59:31.793Z</time></trkpt><trkpt lat="51.7531383" lon="-0.4138617"><ele>127.5</ele><time>2026-05-04T12:59:32.792Z</time></trkpt><trkpt lat="51.7529417" lon="-0.413685"><ele>127.0</ele><time>2026-05-04T12:59:33.793Z</time></trkpt><trkpt lat="51.752745" lon="-0.4135033"><ele>126.5</ele><time>2026-05-04T12:59:34.792Z</time></trkpt><trkpt lat="51.752555" lon="-0.4133133"><ele>126.0</ele><time>2026-05-04T12:59:35.793Z</time></trkpt><trkpt lat="51.752365" lon="-0.413115"><ele>126.0</ele><time>2026-05-04T12:59:36.795Z</time></trkpt><trkpt lat="51.7521783" lon="-0.4129083"><ele>126.0</ele><time>2026-05-04T12:59:37.795Z</time></trkpt><trkpt lat="51.7519983" lon="-0.4126967"><ele>126.0</ele><time>2026-05-04T12:59:38.794Z</time></trkpt><trkpt lat="51.75182" lon="-0.41248"><ele>125.33333333333334</ele><time>2026-05-04T12:59:39.791Z</time></trkpt><trkpt lat="51.7516383" lon="-0.412265"><ele>124.66666666666667</ele><time>2026-05-04T12:59:40.795Z</time></trkpt><trkpt lat="51.75146" lon="-0.4120483"><ele>124.0</ele><time>2026-05-04T12:59:41.79Z</time></trkpt><trkpt lat="51.7512883" lon="-0.4118333"><ele>124.0</ele><time>2026-05-04T12:59:42.792Z</time></trkpt><trkpt lat="51.75112" lon="-0.4116183"><ele>124.0</ele><time>2026-05-04T12:59:43.794Z</time></trkpt><trkpt lat="51.7509633" lon="-0.4114067"><ele>124.0</ele><time>2026-05-04T12:59:44.791Z</time></trkpt><trkpt lat="51.7508117" lon="-0.4112"><ele>122.33333333333334</ele><time>2026-05-04T12:59:45.795Z</time></trkpt><trkpt lat="51.75066" lon="-0.4109967"><ele>120.66666666666666</ele><time>2026-05-04T12:59:46.792Z</time></trkpt><trkpt lat="51.7505133" lon="-0.4107967"><ele>119.0</ele><time>2026-05-04T12:59:47.792Z</time></trkpt><trkpt lat="51.7503683" lon="-0.410595"><ele>119.0</ele><time>2026-05-04T12:59:48.793Z</time></trkpt><trkpt lat="51.7502267" lon="-0.410395"><ele>119.0</ele><time>2026-05-04T12:59:49.792Z</time></trkpt><trkpt lat="51.7500883" lon="-0.4101967"><ele>119.0</ele><time>2026-05-04T12:59:50.795Z</time></trkpt><trkpt lat="51.7499467" lon="-0.41"><ele>118.0</ele><time>2026-05-04T12:59:51.791Z</time></trkpt><trkpt lat="51.7498017" lon="-0.4098067"><ele>117.0</ele><time>2026-05-04T12:59:52.792Z</time></trkpt><trkpt lat="51.74966" lon="-0.4096133"><ele>116.0</ele><time>2026-05-04T12:59:53.794Z</time></trkpt><trkpt lat="51.74952" lon="-0.4094183"><ele>115.33333333333333</ele><time>2026-05-04T12:59:54.795Z</time></trkpt><trkpt lat="51.7493817" lon="-0.4092233"><ele>114.66666666666666</ele><time>2026-05-04T12:59:55.794Z</time></trkpt><trkpt lat="51.7492417" lon="-0.4090233"><ele>114.0</ele><time>2026-05-04T12:59:56.795Z</time></trkpt><trkpt lat="51.7491" lon="-0.4088217"><ele>113.33333333333334</ele><time>2026-05-04T12:59:57.791Z</time></trkpt><trkpt lat="51.74896" lon="-0.4086183"><ele>112.66666666666667</ele><time>2026-05-04T12:59:58.792Z</time></trkpt><trkpt lat="51.7488217" lon="-0.4084183"><ele>112.0</ele><time>2026-05-04T12:59:59.792Z</time></trkpt><trkpt lat="51.7486833" lon="-0.4082167"><ele>112.0</ele><time>2026-05-04T13:00:00.792Z</time></trkpt><trkpt lat="51.748545" lon="-0.4080167"><ele>112.0</ele><time>2026-05-04T13:00:01.793Z</time></trkpt><trkpt lat="51.7484067" lon="-0.407815"><ele>112.0</ele><time>2026-05-04T13:00:02.793Z</time></trkpt><trkpt lat="51.7482717" lon="-0.4076167"><ele>112.33333333333334</ele><time>2026-05-04T13:00:03.791Z</time></trkpt><trkpt lat="51.7481467" lon="-0.4074283"><ele>112.66666666666666</ele><time>2026-05-04T13:00:04.792Z</time></trkpt><trkpt lat="51.7480317" lon="-0.407255"><ele>113.0</ele><time>2026-05-04T13:00:05.792Z</time></trkpt><trkpt lat="51.7479217" lon="-0.4070983"><ele>113.0</ele><time>2026-05-04T13:00:06.792Z</time></trkpt><trkpt lat="51.747825" lon="-0.4069467"><ele>113.0</ele><time>2026-05-04T13:00:07.792Z</time></trkpt><trkpt lat="51.74773" lon="-0.4067983"><ele>113.0</ele><time>2026-05-04T13:00:08.792Z</time></trkpt><trkpt lat="51.7476383" lon="-0.4066583"><ele>113.0</ele><time>2026-05-04T13:00:09.792Z</time></trkpt><trkpt lat="51.7475533" lon="-0.406525"><ele>114.4</ele><time>2026-05-04T13:00:10.793Z</time></trkpt><trkpt lat="51.74747" lon="-0.4064"><ele>115.80000000000001</ele><time>2026-05-04T13:00:11.791Z</time></trkpt><trkpt lat="51.74739" lon="-0.4062783"><ele>117.2</ele><time>2026-05-04T13:00:12.792Z</time></trkpt><trkpt lat="51.7473117" lon="-0.4061567"><ele>118.6</ele><time>2026-05-04T13:00:13.793Z</time></trkpt><trkpt lat="51.7472267" lon="-0.406035"><ele>120.0</ele><time>2026-05-04T13:00:14.792Z</time></trkpt><trkpt lat="51.7471417" lon="-0.4059117"><ele>120.0</ele><time>2026-05-04T13:00:15.791Z</time></trkpt><trkpt lat="51.74705" lon="-0.40578"><ele>120.0</ele><time>2026-05-04T13:00:16.79Z</time></trkpt><trkpt lat="51.7469567" lon="-0.40564"><ele>120.0</ele><time>2026-05-04T13:00:17.796Z</time></trkpt><trkpt lat="51.7468617" lon="-0.40549"><ele>120.0</ele><time>2026-05-04T13:00:18.793Z</time></trkpt><trkpt lat="51.7467683" lon="-0.405335"><ele>121.25</ele><time>2026-05-04T13:00:19.796Z</time></trkpt><trkpt lat="51.74667" lon="-0.4051733"><ele>122.5</ele><time>2026-05-04T13:00:20.793Z</time></trkpt><trkpt lat="51.74657" lon="-0.4050083"><ele>123.75</ele><time>2026-05-04T13:00:21.794Z</time></trkpt><trkpt lat="51.74647" lon="-0.4048383"><ele>125.0</ele><time>2026-05-04T13:00:22.792Z</time></trkpt><trkpt lat="51.7463667" lon="-0.4046667"><ele>124.66666666666666</ele><time>2026-05-04T13:00:23.793Z</time></trkpt><trkpt lat="51.7462633" lon="-0.4044933"><ele>124.33333333333334</ele><time>2026-05-04T13:00:24.794Z</time></trkpt><trkpt lat="51.7461567" lon="-0.4043167"><ele>124.0</ele><time>2026-05-04T13:00:25.794Z</time></trkpt><trkpt lat="51.746045" lon="-0.4041317"><ele>125.66666666666667</ele><time>2026-05-04T13:00:26.794Z</time></trkpt><trkpt lat="51.745935" lon="-0.403945"><ele>127.33333333333334</ele><time>2026-05-04T13:00:27.793Z</time></trkpt><trkpt lat="51.74582" lon="-0.40376"><ele>129.0</ele><time>2026-05-04T13:00:28.794Z</time></trkpt><trkpt lat="51.74571" lon="-0.403575"><ele>129.0</ele><time>2026-05-04T13:00:29.796Z</time></trkpt><trkpt lat="51.7456" lon="-0.4033933"><ele>129.0</ele><time>2026-05-04T13:00:30.794Z</time></trkpt><trkpt lat="51.7454917" lon="-0.403215"><ele>129.0</ele><time>2026-05-04T13:00:31.794Z</time></trkpt><trkpt lat="51.74538" lon="-0.40304"><ele>128.66666666666666</ele><time>2026-05-04T13:00:32.793Z</time></trkpt><trkpt lat="51.7452717" lon="-0.402865"><ele>128.33333333333331</ele><time>2026-05-04T13:00:33.793Z</time></trkpt><trkpt lat="51.7451583" lon="-0.4026867"><ele>128.0</ele><time>2026-05-04T13:00:34.794Z</time></trkpt><trkpt lat="51.74504" lon="-0.4025083"><ele>128.66666666666666</ele><time>2026-05-04T13:00:35.794Z</time></trkpt><trkpt lat="51.7449217" lon="-0.402325"><ele>129.33333333333334</ele><time>2026-05-04T13:00:36.794Z</time></trkpt><trkpt lat="51.7448" lon="-0.40214"><ele>130.0</ele><time>2026-05-04T13:00:37.794Z</time></trkpt><trkpt lat="51.7446767" lon="-0.40195"><ele>130.0</ele><time>2026-05-04T13:00:38.792Z</time></trkpt><trkpt lat="51.7445583" lon="-0.4017683"><ele>130.0</ele><time>2026-05-04T13:00:39.795Z</time></trkpt><trkpt lat="51.7444383" lon="-0.401595"><ele>130.0</ele><time>2026-05-04T13:00:40.794Z</time></trkpt><trkpt lat="51.744325" lon="-0.4014283"><ele>129.66666666666669</ele><time>2026-05-04T13:00:41.795Z</time></trkpt><trkpt lat="51.74421" lon="-0.4012667"><ele>129.33333333333334</ele><time>2026-05-04T13:00:42.791Z</time></trkpt><trkpt lat="51.7440967" lon="-0.40111"><ele>129.0</ele><time>2026-05-04T13:00:43.792Z</time></trkpt><trkpt lat="51.7439867" lon="-0.40095"><ele>129.0</ele><time>2026-05-04T13:00:44.792Z</time></trkpt><trkpt lat="51.74388" lon="-0.40079"><ele>129.0</ele><time>2026-05-04T13:00:45.791Z</time></trkpt><trkpt lat="51.7437667" lon="-0.4006333"><ele>129.0</ele><time>2026-05-04T13:00:46.792Z</time></trkpt><trkpt lat="51.7436567" lon="-0.4004783"><ele>129.0</ele><time>2026-05-04T13:00:47.79Z</time></trkpt><trkpt lat="51.7435517" lon="-0.4003317"><ele>128.66666666666666</ele><time>2026-05-04T13:00:48.792Z</time></trkpt><trkpt lat="51.7434367" lon="-0.4001767"><ele>128.33333333333331</ele><time>2026-05-04T13:00:49.794Z</time></trkpt><trkpt lat="51.7433183" lon="-0.40001"><ele>128.0</ele><time>2026-05-04T13:00:50.792Z</time></trkpt><trkpt lat="51.7431917" lon="-0.3998583"><ele>128.0</ele><time>2026-05-04T13:00:51.797Z</time></trkpt><trkpt lat="51.7430783" lon="-0.3997"><ele>128.0</ele><time>2026-05-04T13:00:52.796Z</time></trkpt><trkpt lat="51.7429583" lon="-0.39955"><ele>128.0</ele><time>2026-05-04T13:00:53.794Z</time></trkpt><trkpt lat="51.7428433" lon="-0.3993983"><ele>128.0</ele><time>2026-05-04T13:00:54.793Z</time></trkpt><trkpt lat="51.7427317" lon="-0.399245"><ele>128.0</ele><time>2026-05-04T13:00:55.797Z</time></trkpt><trkpt lat="51.7426217" lon="-0.3990917"><ele>128.0</ele><time>2026-05-04T13:00:56.791Z</time></trkpt><trkpt lat="51.7425133" lon="-0.398935"><ele>128.0</ele><time>2026-05-04T13:00:57.793Z</time></trkpt><trkpt lat="51.7424017" lon="-0.39878"><ele>128.0</ele><time>2026-05-04T13:00:58.797Z</time></trkpt><trkpt lat="51.74229" lon="-0.3986217"><ele>128.0</ele><time>2026-05-04T13:00:59.793Z</time></trkpt><trkpt lat="51.742175" lon="-0.39847"><ele>128.0</ele><time>2026-05-04T13:01:00.791Z</time></trkpt><trkpt lat="51.7420583" lon="-0.39832"><ele>128.0</ele><time>2026-05-04T13:01:01.792Z</time></trkpt><trkpt lat="51.741945" lon="-0.3981717"><ele>127.75</ele><time>2026-05-04T13:01:02.791Z</time></trkpt><trkpt lat="51.7418217" lon="-0.3980267"><ele>127.5</ele><time>2026-05-04T13:01:03.792Z</time></trkpt><trkpt lat="51.74172" lon="-0.397865"><ele>127.25</ele><time>2026-05-04T13:01:04.791Z</time></trkpt><trkpt lat="51.74161" lon="-0.3977133"><ele>127.0</ele><time>2026-05-04T13:01:05.794Z</time></trkpt><trkpt lat="51.741505" lon="-0.39755"><ele>126.75</ele><time>2026-05-04T13:01:06.792Z</time></trkpt><trkpt lat="51.7413883" lon="-0.3974017"><ele>126.5</ele><time>2026-05-04T13:01:07.794Z</time></trkpt><trkpt lat="51.74127" lon="-0.3972533"><ele>126.25</ele><time>2026-05-04T13:01:08.793Z</time></trkpt><trkpt lat="51.74115" lon="-0.3971083"><ele>126.0</ele><time>2026-05-04T13:01:09.791Z</time></trkpt><trkpt lat="51.7410283" lon="-0.396965"><ele>125.0</ele><time>2026-05-04T13:01:10.792Z</time></trkpt><trkpt lat="51.740905" lon="-0.396825"><ele>124.0</ele><time>2026-05-04T13:01:11.792Z</time></trkpt><trkpt lat="51.7407833" lon="-0.396685"><ele>123.0</ele><time>2026-05-04T13:01:12.792Z</time></trkpt><trkpt lat="51.7406583" lon="-0.396545"><ele>123.0</ele><time>2026-05-04T13:01:13.797Z</time></trkpt><trkpt lat="51.7405333" lon="-0.3964067"><ele>123.0</ele><time>2026-05-04T13:01:14.793Z</time></trkpt><trkpt lat="51.7404117" lon="-0.39627"><ele>123.0</ele><time>2026-05-04T13:01:15.793Z</time></trkpt><trkpt lat="51.7402867" lon="-0.39614"><ele>123.0</ele><time>2026-05-04T13:01:16.793Z</time></trkpt><trkpt lat="51.74016" lon="-0.396015"><ele>122.5</ele><time>2026-05-04T13:01:17.793Z</time></trkpt><trkpt lat="51.7400367" lon="-0.3958867"><ele>122.0</ele><time>2026-05-04T13:01:18.792Z</time></trkpt><trkpt lat="51.73991" lon="-0.39576"><ele>121.5</ele><time>2026-05-04T13:01:19.793Z</time></trkpt><trkpt lat="51.7397833" lon="-0.3956367"><ele>121.0</ele><time>2026-05-04T13:01:20.795Z</time></trkpt><trkpt lat="51.7396567" lon="-0.3955183"><ele>120.75</ele><time>2026-05-04T13:01:21.792Z</time></trkpt><trkpt lat="51.739525" lon="-0.3954"><ele>120.5</ele><time>2026-05-04T13:01:22.799Z</time></trkpt><trkpt lat="51.7394" lon="-0.3952817"><ele>120.25</ele><time>2026-05-04T13:01:23.794Z</time></trkpt><trkpt lat="51.7392733" lon="-0.3951633"><ele>120.0</ele><time>2026-05-04T13:01:24.792Z</time></trkpt><trkpt lat="51.7391467" lon="-0.3950433"><ele>119.75</ele><time>2026-05-04T13:01:25.791Z</time></trkpt><trkpt lat="51.7390183" lon="-0.3949267"><ele>119.5</ele><time>2026-05-04T13:01:26.792Z</time></trkpt><trkpt lat="51.7388867" lon="-0.3948117"><ele>119.25</ele><time>2026-05-04T13:01:27.79Z</time></trkpt><trkpt lat="51.738755" lon="-0.3947"><ele>119.0</ele><time>2026-05-04T13:01:28.792Z</time></trkpt><trkpt lat="51.7386217" lon="-0.3945883"><ele>117.75</ele><time>2026-05-04T13:01:29.793Z</time></trkpt><trkpt lat="51.7384883" lon="-0.3944833"><ele>116.5</ele><time>2026-05-04T13:01:30.79Z</time></trkpt><trkpt lat="51.73835" lon="-0.3943817"><ele>115.25</ele><time>2026-05-04T13:01:31.791Z</time></trkpt><trkpt lat="51.7382167" lon="-0.39428"><ele>114.0</ele><time>2026-05-04T13:01:32.795Z</time></trkpt><trkpt lat="51.7380817" lon="-0.3941783"><ele>114.0</ele><time>2026-05-04T13:01:33.792Z</time></trkpt><trkpt lat="51.737945" lon="-0.3940767"><ele>114.0</ele><time>2026-05-04T13:01:34.794Z</time></trkpt><trkpt lat="51.7378117" lon="-0.3939783"><ele>114.0</ele><time>2026-05-04T13:01:35.792Z</time></trkpt><trkpt lat="51.737675" lon="-0.3938833"><ele>114.0</ele><time>2026-05-04T13:01:36.795Z</time></trkpt><trkpt lat="51.73754" lon="-0.3937867"><ele>115.33333333333334</ele><time>2026-05-04T13:01:37.793Z</time></trkpt><trkpt lat="51.7374" lon="-0.3936917"><ele>116.66666666666667</ele><time>2026-05-04T13:01:38.793Z</time></trkpt><trkpt lat="51.7372533" lon="-0.3935917"><ele>118.0</ele><time>2026-05-04T13:01:39.793Z</time></trkpt><trkpt lat="51.7370983" lon="-0.39349"><ele>118.0</ele><time>2026-05-04T13:01:40.791Z</time></trkpt><trkpt lat="51.7369333" lon="-0.3933867"><ele>118.0</ele><time>2026-05-04T13:01:41.793Z</time></trkpt><trkpt lat="51.7367617" lon="-0.3932783"><ele>118.0</ele><time>2026-05-04T13:01:42.791Z</time></trkpt><trkpt lat="51.73658" lon="-0.3931717"><ele>118.0</ele><time>2026-05-04T13:01:43.795Z</time></trkpt><trkpt lat="51.7363917" lon="-0.3930567"><ele>118.0</ele><time>2026-05-04T13:01:44.795Z</time></trkpt><trkpt lat="51.7361917" lon="-0.3929467"><ele>118.0</ele><time>2026-05-04T13:01:45.793Z</time></trkpt><trkpt lat="51.7359867" lon="-0.3928417"><ele>118.66666666666667</ele><time>2026-05-04T13:01:46.793Z</time></trkpt><trkpt lat="51.7357833" lon="-0.3927367"><ele>119.33333333333334</ele><time>2026-05-04T13:01:47.792Z</time></trkpt><trkpt lat="51.7355733" lon="-0.3926283"><ele>120.0</ele><time>2026-05-04T13:01:48.792Z</time></trkpt><trkpt lat="51.7353567" lon="-0.3925217"><ele>119.0</ele><time>2026-05-04T13:01:49.792Z</time></trkpt><trkpt lat="51.7351367" lon="-0.3924183"><ele>118.0</ele><time>2026-05-04T13:01:50.793Z</time></trkpt><trkpt lat="51.7349097" lon="-0.3923206"><ele>118.0</ele><time>2026-05-04T13:01:51.793Z</time></trkpt><trkpt lat="51.734673" lon="-0.3922308"><ele>118.0</ele><time>2026-05-04T13:01:52.793Z</time></trkpt><trkpt lat="51.7344347" lon="-0.3921444"><ele>116.0</ele><time>2026-05-04T13:01:53.793Z</time></trkpt><trkpt lat="51.7341943" lon="-0.3920593"><ele>114.0</ele><time>2026-05-04T13:01:54.793Z</time></trkpt><trkpt lat="51.7339524" lon="-0.3919722"><ele>114.0</ele><time>2026-05-04T13:01:55.792Z</time></trkpt><trkpt lat="51.7337023" lon="-0.3918887"><ele>114.0</ele><time>2026-05-04T13:01:56.794Z</time></trkpt><trkpt lat="51.7334462" lon="-0.3918087"><ele>112.0</ele><time>2026-05-04T13:01:57.792Z</time></trkpt><trkpt lat="51.7331872" lon="-0.3917234"><ele>110.0</ele><time>2026-05-04T13:01:58.793Z</time></trkpt><trkpt lat="51.7329256" lon="-0.3916318"><ele>109.0</ele><time>2026-05-04T13:01:59.793Z</time></trkpt><trkpt lat="51.7326672" lon="-0.3915399"><ele>108.0</ele><time>2026-05-04T13:02:00.794Z</time></trkpt><trkpt lat="51.7324104" lon="-0.3914507"><ele>108.0</ele><time>2026-05-04T13:02:01.793Z</time></trkpt><trkpt lat="51.7321536" lon="-0.3913676"><ele>108.0</ele><time>2026-05-04T13:02:02.793Z</time></trkpt><trkpt lat="51.7318973" lon="-0.3912808"><ele>107.0</ele><time>2026-05-04T13:02:03.795Z</time></trkpt><trkpt lat="51.7316394" lon="-0.3911948"><ele>106.0</ele><time>2026-05-04T13:02:04.794Z</time></trkpt><trkpt lat="51.7313802" lon="-0.3911043"><ele>106.0</ele><time>2026-05-04T13:02:05.792Z</time></trkpt><trkpt lat="51.7311188" lon="-0.3910151"><ele>106.0</ele><time>2026-05-04T13:02:06.792Z</time></trkpt><trkpt lat="51.7308571" lon="-0.3909259"><ele>105.0</ele><time>2026-05-04T13:02:07.792Z</time></trkpt><trkpt lat="51.730598" lon="-0.390831"><ele>104.0</ele><time>2026-05-04T13:02:08.793Z</time></trkpt><trkpt lat="51.7303419" lon="-0.3907348"><ele>102.5</ele><time>2026-05-04T13:02:09.796Z</time></trkpt><trkpt lat="51.7300859" lon="-0.3906408"><ele>101.0</ele><time>2026-05-04T13:02:10.793Z</time></trkpt><trkpt lat="51.7298282" lon="-0.3905472"><ele>100.0</ele><time>2026-05-04T13:02:11.791Z</time></trkpt><trkpt lat="51.7295685" lon="-0.3904547"><ele>99.0</ele><time>2026-05-04T13:02:12.794Z</time></trkpt><trkpt lat="51.7293077" lon="-0.3903603"><ele>98.5</ele><time>2026-05-04T13:02:13.792Z</time></trkpt><trkpt lat="51.7290425" lon="-0.3902635"><ele>98.0</ele><time>2026-05-04T13:02:14.795Z</time></trkpt><trkpt lat="51.7287827" lon="-0.3901644"><ele>100.5</ele><time>2026-05-04T13:02:15.796Z</time></trkpt><trkpt lat="51.7285252" lon="-0.3900606"><ele>103.0</ele><time>2026-05-04T13:02:16.796Z</time></trkpt><trkpt lat="51.728268" lon="-0.3899625"><ele>103.0</ele><time>2026-05-04T13:02:17.794Z</time></trkpt><trkpt lat="51.7280073" lon="-0.3898671"><ele>103.0</ele><time>2026-05-04T13:02:18.793Z</time></trkpt><trkpt lat="51.7277466" lon="-0.3897665"><ele>104.0</ele><time>2026-05-04T13:02:19.798Z</time></trkpt><trkpt lat="51.7274912" lon="-0.3896631"><ele>105.0</ele><time>2026-05-04T13:02:20.79Z</time></trkpt><trkpt lat="51.7272345" lon="-0.3895575"><ele>105.0</ele><time>2026-05-04T13:02:21.795Z</time></trkpt><trkpt lat="51.7269784" lon="-0.3894476"><ele>105.0</ele><time>2026-05-04T13:02:22.795Z</time></trkpt><trkpt lat="51.7267209" lon="-0.3893348"><ele>106.0</ele><time>2026-05-04T13:02:23.792Z</time></trkpt><trkpt lat="51.72646" lon="-0.3892283"><ele>107.0</ele><time>2026-05-04T13:02:24.793Z</time></trkpt><trkpt lat="51.7262" lon="-0.3891233"><ele>106.0</ele><time>2026-05-04T13:02:25.795Z</time></trkpt><trkpt lat="51.7259383" lon="-0.38902"><ele>105.0</ele><time>2026-05-04T13:02:26.794Z</time></trkpt><trkpt lat="51.7256783" lon="-0.38891"><ele>103.5</ele><time>2026-05-04T13:02:27.791Z</time></trkpt><trkpt lat="51.72542" lon="-0.3887967"><ele>102.0</ele><time>2026-05-04T13:02:28.792Z</time></trkpt><trkpt lat="51.7251617" lon="-0.3886833"><ele>102.0</ele><time>2026-05-04T13:02:29.793Z</time></trkpt><trkpt lat="51.7249017" lon="-0.3885717"><ele>102.0</ele><time>2026-05-04T13:02:30.79Z</time></trkpt><trkpt lat="51.7246433" lon="-0.38846"><ele>103.0</ele><time>2026-05-04T13:02:31.792Z</time></trkpt><trkpt lat="51.7243817" lon="-0.3883483"><ele>104.0</ele><time>2026-05-04T13:02:32.791Z</time></trkpt><trkpt lat="51.724125" lon="-0.3882367"><ele>104.0</ele><time>2026-05-04T13:02:33.791Z</time></trkpt><trkpt lat="51.7238667" lon="-0.3881233"><ele>104.0</ele><time>2026-05-04T13:02:34.793Z</time></trkpt><trkpt lat="51.7236117" lon="-0.3880083"><ele>103.5</ele><time>2026-05-04T13:02:35.795Z</time></trkpt><trkpt lat="51.7233567" lon="-0.3878967"><ele>103.0</ele><time>2026-05-04T13:02:36.793Z</time></trkpt><trkpt lat="51.7231" lon="-0.387785"><ele>103.0</ele><time>2026-05-04T13:02:37.798Z</time></trkpt><trkpt lat="51.7228417" lon="-0.387675"><ele>103.0</ele><time>2026-05-04T13:02:38.792Z</time></trkpt><trkpt lat="51.7225833" lon="-0.3875667"><ele>103.5</ele><time>2026-05-04T13:02:39.793Z</time></trkpt><trkpt lat="51.7223267" lon="-0.3874517"><ele>104.0</ele><time>2026-05-04T13:02:40.792Z</time></trkpt><trkpt lat="51.72207" lon="-0.3873367"><ele>104.0</ele><time>2026-05-04T13:02:41.794Z</time></trkpt><trkpt lat="51.7218083" lon="-0.3872233"><ele>104.0</ele><time>2026-05-04T13:02:42.795Z</time></trkpt><trkpt lat="51.72155" lon="-0.3871133"><ele>103.0</ele><time>2026-05-04T13:02:43.794Z</time></trkpt><trkpt lat="51.721295" lon="-0.3870017"><ele>102.0</ele><time>2026-05-04T13:02:44.792Z</time></trkpt><trkpt lat="51.7210367" lon="-0.386895"><ele>101.5</ele><time>2026-05-04T13:02:45.792Z</time></trkpt><trkpt lat="51.7207767" lon="-0.3867883"><ele>101.0</ele><time>2026-05-04T13:02:46.791Z</time></trkpt><trkpt lat="51.7205233" lon="-0.3866767"><ele>101.0</ele><time>2026-05-04T13:02:47.791Z</time></trkpt><trkpt lat="51.7202633" lon="-0.386565"><ele>101.0</ele><time>2026-05-04T13:02:48.791Z</time></trkpt><trkpt lat="51.720005" lon="-0.38645"><ele>101.0</ele><time>2026-05-04T13:02:49.791Z</time></trkpt><trkpt lat="51.7197467" lon="-0.3863367"><ele>101.0</ele><time>2026-05-04T13:02:50.791Z</time></trkpt><trkpt lat="51.7194867" lon="-0.3862267"><ele>99.0</ele><time>2026-05-04T13:02:51.792Z</time></trkpt><trkpt lat="51.7192317" lon="-0.386115"><ele>97.0</ele><time>2026-05-04T13:02:52.793Z</time></trkpt><trkpt lat="51.718975" lon="-0.386005"><ele>97.0</ele><time>2026-05-04T13:02:53.792Z</time></trkpt><trkpt lat="51.71872" lon="-0.3858917"><ele>97.0</ele><time>2026-05-04T13:02:54.79Z</time></trkpt><trkpt lat="51.71846" lon="-0.3857817"><ele>97.0</ele><time>2026-05-04T13:02:55.791Z</time></trkpt><trkpt lat="51.7182017" lon="-0.385675"><ele>97.0</ele><time>2026-05-04T13:02:56.792Z</time></trkpt><trkpt lat="51.717945" lon="-0.3855683"><ele>95.5</ele><time>2026-05-04T13:02:57.791Z</time></trkpt><trkpt lat="51.717685" lon="-0.3854683"><ele>94.0</ele><time>2026-05-04T13:02:58.791Z</time></trkpt><trkpt lat="51.717425" lon="-0.3853733"><ele>94.0</ele><time>2026-05-04T13:02:59.793Z</time></trkpt><trkpt lat="51.717165" lon="-0.3852817"><ele>94.0</ele><time>2026-05-04T13:03:00.792Z</time></trkpt><trkpt lat="51.716905" lon="-0.385195"><ele>92.0</ele><time>2026-05-04T13:03:01.793Z</time></trkpt><trkpt lat="51.716645" lon="-0.38511"><ele>90.0</ele><time>2026-05-04T13:03:02.793Z</time></trkpt><trkpt lat="51.7163933" lon="-0.385025"><ele>90.0</ele><time>2026-05-04T13:03:03.792Z</time></trkpt><trkpt lat="51.716135" lon="-0.3849433"><ele>90.0</ele><time>2026-05-04T13:03:04.794Z</time></trkpt><trkpt lat="51.7158733" lon="-0.3848633"><ele>89.5</ele><time>2026-05-04T13:03:05.792Z</time></trkpt><trkpt lat="51.7156067" lon="-0.38479"><ele>89.0</ele><time>2026-05-04T13:03:06.793Z</time></trkpt><trkpt lat="51.7153367" lon="-0.384725"><ele>90.5</ele><time>2026-05-04T13:03:07.792Z</time></trkpt><trkpt lat="51.7150667" lon="-0.3846633"><ele>92.0</ele><time>2026-05-04T13:03:08.793Z</time></trkpt><trkpt lat="51.7147967" lon="-0.3846"><ele>92.0</ele><time>2026-05-04T13:03:09.791Z</time></trkpt><trkpt lat="51.7145367" lon="-0.38453"><ele>92.0</ele><time>2026-05-04T13:03:10.792Z</time></trkpt><trkpt lat="51.7142733" lon="-0.3844583"><ele>92.5</ele><time>2026-05-04T13:03:11.791Z</time></trkpt><trkpt lat="51.7140033" lon="-0.3843917"><ele>93.0</ele><time>2026-05-04T13:03:12.792Z</time></trkpt><trkpt lat="51.713735" lon="-0.3843233"><ele>90.5</ele><time>2026-05-04T13:03:13.792Z</time></trkpt><trkpt lat="51.713475" lon="-0.38425"><ele>88.0</ele><time>2026-05-04T13:03:14.793Z</time></trkpt><trkpt lat="51.71321" lon="-0.3841783"><ele>88.0</ele><time>2026-05-04T13:03:15.793Z</time></trkpt><trkpt lat="51.712945" lon="-0.3841083"><ele>88.0</ele><time>2026-05-04T13:03:16.793Z</time></trkpt><trkpt lat="51.7126817" lon="-0.3840383"><ele>86.5</ele><time>2026-05-04T13:03:17.792Z</time></trkpt><trkpt lat="51.712415" lon="-0.383975"><ele>85.0</ele><time>2026-05-04T13:03:18.791Z</time></trkpt><trkpt lat="51.71215" lon="-0.3839083"><ele>83.5</ele><time>2026-05-04T13:03:19.794Z</time></trkpt><trkpt lat="51.7118883" lon="-0.3838367"><ele>82.0</ele><time>2026-05-04T13:03:20.793Z</time></trkpt><trkpt lat="51.7116267" lon="-0.3837617"><ele>82.0</ele><time>2026-05-04T13:03:21.792Z</time></trkpt><trkpt lat="51.711365" lon="-0.3836883"><ele>82.0</ele><time>2026-05-04T13:03:22.795Z</time></trkpt><trkpt lat="51.711105" lon="-0.3836133"><ele>83.5</ele><time>2026-05-04T13:03:23.792Z</time></trkpt><trkpt lat="51.7108417" lon="-0.38354"><ele>85.0</ele><time>2026-05-04T13:03:24.792Z</time></trkpt><trkpt lat="51.7105783" lon="-0.3834667"><ele>85.0</ele><time>2026-05-04T13:03:25.793Z</time></trkpt><trkpt lat="51.710315" lon="-0.3833917"><ele>85.0</ele><time>2026-05-04T13:03:26.793Z</time></trkpt><trkpt lat="51.710055" lon="-0.3833117"><ele>84.0</ele><time>2026-05-04T13:03:27.791Z</time></trkpt><trkpt lat="51.7097933" lon="-0.3832283"><ele>83.0</ele><time>2026-05-04T13:03:28.791Z</time></trkpt><trkpt lat="51.7095317" lon="-0.38314"><ele>82.5</ele><time>2026-05-04T13:03:29.792Z</time></trkpt><trkpt lat="51.70927" lon="-0.3830517"><ele>82.0</ele><time>2026-05-04T13:03:30.793Z</time></trkpt><trkpt lat="51.709005" lon="-0.3829617"><ele>81.0</ele><time>2026-05-04T13:03:31.794Z</time></trkpt><trkpt lat="51.7087433" lon="-0.38287"><ele>80.0</ele><time>2026-05-04T13:03:32.792Z</time></trkpt><trkpt lat="51.7084883" lon="-0.3827667"><ele>78.0</ele><time>2026-05-04T13:03:33.795Z</time></trkpt><trkpt lat="51.7082383" lon="-0.3826583"><ele>76.0</ele><time>2026-05-04T13:03:34.793Z</time></trkpt><trkpt lat="51.7079817" lon="-0.382545"><ele>75.0</ele><time>2026-05-04T13:03:35.795Z</time></trkpt><trkpt lat="51.7077233" lon="-0.3824283"><ele>74.0</ele><time>2026-05-04T13:03:36.791Z</time></trkpt><trkpt lat="51.7074667" lon="-0.38231"><ele>74.0</ele><time>2026-05-04T13:03:37.793Z</time></trkpt><trkpt lat="51.7072117" lon="-0.3821933"><ele>74.0</ele><time>2026-05-04T13:03:38.791Z</time></trkpt><trkpt lat="51.7069567" lon="-0.382075"><ele>73.0</ele><time>2026-05-04T13:03:39.795Z</time></trkpt><trkpt lat="51.7066983" lon="-0.3819567"><ele>72.0</ele><time>2026-05-04T13:03:40.795Z</time></trkpt><trkpt lat="51.7064433" lon="-0.381835"><ele>72.0</ele><time>2026-05-04T13:03:41.792Z</time></trkpt><trkpt lat="51.7061867" lon="-0.38171"><ele>72.0</ele><time>2026-05-04T13:03:42.792Z</time></trkpt><trkpt lat="51.7059333" lon="-0.381585"><ele>72.5</ele><time>2026-05-04T13:03:43.792Z</time></trkpt><trkpt lat="51.70568" lon="-0.3814583"><ele>73.0</ele><time>2026-05-04T13:03:44.792Z</time></trkpt><trkpt lat="51.7054217" lon="-0.3813317"><ele>73.0</ele><time>2026-05-04T13:03:45.792Z</time></trkpt><trkpt lat="51.7051667" lon="-0.381205"><ele>73.0</ele><time>2026-05-04T13:03:46.792Z</time></trkpt><trkpt lat="51.7049133" lon="-0.3810767"><ele>73.0</ele><time>2026-05-04T13:03:47.793Z</time></trkpt><trkpt lat="51.70466" lon="-0.380945"><ele>73.0</ele><time>2026-05-04T13:03:48.791Z</time></trkpt><trkpt lat="51.704405" lon="-0.380805"><ele>73.0</ele><time>2026-05-04T13:03:49.792Z</time></trkpt><trkpt lat="51.704155" lon="-0.380655"><ele>73.0</ele><time>2026-05-04T13:03:50.792Z</time></trkpt><trkpt lat="51.703905" lon="-0.380495"><ele>71.5</ele><time>2026-05-04T13:03:51.791Z</time></trkpt><trkpt lat="51.7036567" lon="-0.3803267"><ele>70.0</ele><time>2026-05-04T13:03:52.792Z</time></trkpt><trkpt lat="51.7034117" lon="-0.3801533"><ele>70.0</ele><time>2026-05-04T13:03:53.793Z</time></trkpt><trkpt lat="51.703165" lon="-0.3799767"><ele>70.0</ele><time>2026-05-04T13:03:54.792Z</time></trkpt><trkpt lat="51.7029233" lon="-0.379795"><ele>69.5</ele><time>2026-05-04T13:03:55.791Z</time></trkpt><trkpt lat="51.70268" lon="-0.3796183"><ele>69.0</ele><time>2026-05-04T13:03:56.793Z</time></trkpt><trkpt lat="51.7024383" lon="-0.3794417"><ele>69.0</ele><time>2026-05-04T13:03:57.792Z</time></trkpt><trkpt lat="51.7021933" lon="-0.3792633"><ele>69.0</ele><time>2026-05-04T13:03:58.795Z</time></trkpt><trkpt lat="51.7019517" lon="-0.37908"><ele>70.0</ele><time>2026-05-04T13:03:59.791Z</time></trkpt><trkpt lat="51.7017083" lon="-0.3788983"><ele>71.0</ele><time>2026-05-04T13:04:00.795Z</time></trkpt><trkpt lat="51.70147" lon="-0.3787133"><ele>70.0</ele><time>2026-05-04T13:04:01.795Z</time></trkpt><trkpt lat="51.7012283" lon="-0.3785317"><ele>69.0</ele><time>2026-05-04T13:04:02.794Z</time></trkpt><trkpt lat="51.700985" lon="-0.3783533"><ele>69.0</ele><time>2026-05-04T13:04:03.794Z</time></trkpt><trkpt lat="51.70074" lon="-0.3781767"><ele>69.0</ele><time>2026-05-04T13:04:04.795Z</time></trkpt><trkpt lat="51.7004933" lon="-0.3780017"><ele>70.5</ele><time>2026-05-04T13:04:05.795Z</time></trkpt><trkpt lat="51.70025" lon="-0.3778233"><ele>72.0</ele><time>2026-05-04T13:04:06.794Z</time></trkpt><trkpt lat="51.700005" lon="-0.3776467"><ele>72.5</ele><time>2026-05-04T13:04:07.792Z</time></trkpt><trkpt lat="51.6997567" lon="-0.3774717"><ele>73.0</ele><time>2026-05-04T13:04:08.792Z</time></trkpt><trkpt lat="51.6995133" lon="-0.377295"><ele>71.0</ele><time>2026-05-04T13:04:09.791Z</time></trkpt><trkpt lat="51.6992717" lon="-0.3771183"><ele>69.0</ele><time>2026-05-04T13:04:10.791Z</time></trkpt><trkpt lat="51.699025" lon="-0.3769467"><ele>69.0</ele><time>2026-05-04T13:04:11.795Z</time></trkpt><trkpt lat="51.6987733" lon="-0.3767867"><ele>69.0</ele><time>2026-05-04T13:04:12.792Z</time></trkpt><trkpt lat="51.69853" lon="-0.37663"><ele>68.5</ele><time>2026-05-04T13:04:13.792Z</time></trkpt><trkpt lat="51.6982883" lon="-0.37648"><ele>68.0</ele><time>2026-05-04T13:04:14.792Z</time></trkpt><trkpt lat="51.698045" lon="-0.3763417"><ele>70.5</ele><time>2026-05-04T13:04:15.791Z</time></trkpt><trkpt lat="51.6978267" lon="-0.3762017"><ele>73.0</ele><time>2026-05-04T13:04:16.791Z</time></trkpt><trkpt lat="51.6975967" lon="-0.3760833"><ele>73.0</ele><time>2026-05-04T13:04:17.791Z</time></trkpt><trkpt lat="51.6973633" lon="-0.375975"><ele>73.0</ele><time>2026-05-04T13:04:18.792Z</time></trkpt><trkpt lat="51.6971283" lon="-0.37587"><ele>73.5</ele><time>2026-05-04T13:04:19.792Z</time></trkpt><trkpt lat="51.6968917" lon="-0.3757683"><ele>74.0</ele><time>2026-05-04T13:04:20.792Z</time></trkpt><trkpt lat="51.69665" lon="-0.375675"><ele>74.0</ele><time>2026-05-04T13:04:21.792Z</time></trkpt><trkpt lat="51.6964067" lon="-0.3755867"><ele>74.0</ele><time>2026-05-04T13:04:22.792Z</time></trkpt><trkpt lat="51.69616" lon="-0.3755117"><ele>77.0</ele><time>2026-05-04T13:04:23.791Z</time></trkpt><trkpt lat="51.6959117" lon="-0.3754367"><ele>80.0</ele><time>2026-05-04T13:04:24.793Z</time></trkpt><trkpt lat="51.69566" lon="-0.3753733"><ele>80.0</ele><time>2026-05-04T13:04:25.792Z</time></trkpt><trkpt lat="51.69541" lon="-0.375315"><ele>80.0</ele><time>2026-05-04T13:04:26.793Z</time></trkpt><trkpt lat="51.695165" lon="-0.3752583"><ele>80.0</ele><time>2026-05-04T13:04:27.791Z</time></trkpt><trkpt lat="51.69492" lon="-0.37521"><ele>80.0</ele><time>2026-05-04T13:04:28.792Z</time></trkpt><trkpt lat="51.6946717" lon="-0.3751667"><ele>80.5</ele><time>2026-05-04T13:04:29.792Z</time></trkpt><trkpt lat="51.6944183" lon="-0.3751283"><ele>81.0</ele><time>2026-05-04T13:04:30.793Z</time></trkpt><trkpt lat="51.6941617" lon="-0.3750967"><ele>81.0</ele><time>2026-05-04T13:04:31.792Z</time></trkpt><trkpt lat="51.6939033" lon="-0.3750767"><ele>81.0</ele><time>2026-05-04T13:04:32.791Z</time></trkpt><trkpt lat="51.6936433" lon="-0.37506"><ele>81.0</ele><time>2026-05-04T13:04:33.793Z</time></trkpt><trkpt lat="51.6933833" lon="-0.3750517"><ele>81.0</ele><time>2026-05-04T13:04:34.792Z</time></trkpt><trkpt lat="51.6931267" lon="-0.3750533"><ele>81.0</ele><time>2026-05-04T13:04:35.791Z</time></trkpt><trkpt lat="51.6928667" lon="-0.3750683"><ele>81.0</ele><time>2026-05-04T13:04:36.792Z</time></trkpt><trkpt lat="51.6926067" lon="-0.3750883"><ele>80.0</ele><time>2026-05-04T13:04:37.793Z</time></trkpt><trkpt lat="51.6923467" lon="-0.3751083"><ele>79.0</ele><time>2026-05-04T13:04:38.793Z</time></trkpt><trkpt lat="51.692085" lon="-0.375135"><ele>76.0</ele><time>2026-05-04T13:04:39.792Z</time></trkpt><trkpt lat="51.691555" lon="-0.3752167"><ele>76.0</ele><time>2026-05-04T13:04:41.791Z</time></trkpt><trkpt lat="51.69129" lon="-0.3752767"><ele>76.0</ele><time>2026-05-04T13:04:42.792Z</time></trkpt><trkpt lat="51.6910267" lon="-0.375345"><ele>76.0</ele><time>2026-05-04T13:04:43.791Z</time></trkpt><trkpt lat="51.6907667" lon="-0.375415"><ele>76.0</ele><time>2026-05-04T13:04:44.796Z</time></trkpt><trkpt lat="51.6905067" lon="-0.37549"><ele>75.5</ele><time>2026-05-04T13:04:45.79Z</time></trkpt><trkpt lat="51.6902483" lon="-0.3755717"><ele>75.0</ele><time>2026-05-04T13:04:46.793Z</time></trkpt><trkpt lat="51.6899917" lon="-0.3756567"><ele>75.0</ele><time>2026-05-04T13:04:47.792Z</time></trkpt><trkpt lat="51.689735" lon="-0.3757417"><ele>75.0</ele><time>2026-05-04T13:04:48.793Z</time></trkpt><trkpt lat="51.6894767" lon="-0.3758233"><ele>73.0</ele><time>2026-05-04T13:04:49.793Z</time></trkpt><trkpt lat="51.689215" lon="-0.37591"><ele>71.0</ele><time>2026-05-04T13:04:50.791Z</time></trkpt><trkpt lat="51.6889583" lon="-0.3759967"><ele>71.0</ele><time>2026-05-04T13:04:51.795Z</time></trkpt><trkpt lat="51.6886983" lon="-0.376085"><ele>71.0</ele><time>2026-05-04T13:04:52.791Z</time></trkpt><trkpt lat="51.68844" lon="-0.3761683"><ele>69.5</ele><time>2026-05-04T13:04:53.793Z</time></trkpt><trkpt lat="51.6881817" lon="-0.3762433"><ele>68.0</ele><time>2026-05-04T13:04:54.792Z</time></trkpt><trkpt lat="51.6879217" lon="-0.3763117"><ele>67.0</ele><time>2026-05-04T13:04:55.792Z</time></trkpt><trkpt lat="51.6876633" lon="-0.376375"><ele>66.0</ele><time>2026-05-04T13:04:56.792Z</time></trkpt><trkpt lat="51.687405" lon="-0.3764383"><ele>66.0</ele><time>2026-05-04T13:04:57.792Z</time></trkpt><trkpt lat="51.687145" lon="-0.3764867"><ele>66.0</ele><time>2026-05-04T13:04:58.792Z</time></trkpt><trkpt lat="51.6868883" lon="-0.3765233"><ele>65.0</ele><time>2026-05-04T13:04:59.795Z</time></trkpt><trkpt lat="51.6866267" lon="-0.3765583"><ele>64.0</ele><time>2026-05-04T13:05:00.793Z</time></trkpt><trkpt lat="51.686365" lon="-0.3765867"><ele>64.0</ele><time>2026-05-04T13:05:01.793Z</time></trkpt><trkpt lat="51.6861" lon="-0.376615"><ele>64.0</ele><time>2026-05-04T13:05:02.793Z</time></trkpt><trkpt lat="51.6858333" lon="-0.376635"><ele>64.0</ele><time>2026-05-04T13:05:03.791Z</time></trkpt><trkpt lat="51.68557" lon="-0.3766417"><ele>64.0</ele><time>2026-05-04T13:05:04.793Z</time></trkpt><trkpt lat="51.6853067" lon="-0.3766267"><ele>65.5</ele><time>2026-05-04T13:05:05.792Z</time></trkpt><trkpt lat="51.685045" lon="-0.3766"><ele>67.0</ele><time>2026-05-04T13:05:06.791Z</time></trkpt><trkpt lat="51.684785" lon="-0.3765667"><ele>67.0</ele><time>2026-05-04T13:05:07.791Z</time></trkpt><trkpt lat="51.68452" lon="-0.376535"><ele>67.0</ele><time>2026-05-04T13:05:08.792Z</time></trkpt><trkpt lat="51.6842567" lon="-0.376505"><ele>66.5</ele><time>2026-05-04T13:05:09.793Z</time></trkpt><trkpt lat="51.6839917" lon="-0.3764717"><ele>66.0</ele><time>2026-05-04T13:05:10.791Z</time></trkpt><trkpt lat="51.683725" lon="-0.3764283"><ele>65.5</ele><time>2026-05-04T13:05:11.792Z</time></trkpt><trkpt lat="51.68346" lon="-0.37638"><ele>65.0</ele><time>2026-05-04T13:05:12.794Z</time></trkpt><trkpt lat="51.6832033" lon="-0.37632"><ele>64.0</ele><time>2026-05-04T13:05:13.794Z</time></trkpt><trkpt lat="51.6829467" lon="-0.3762533"><ele>63.0</ele><time>2026-05-04T13:05:14.791Z</time></trkpt><trkpt lat="51.6826917" lon="-0.37618"><ele>62.5</ele><time>2026-05-04T13:05:15.793Z</time></trkpt><trkpt lat="51.68244" lon="-0.3760967"><ele>62.0</ele><time>2026-05-04T13:05:16.793Z</time></trkpt><trkpt lat="51.6821817" lon="-0.37601"><ele>62.5</ele><time>2026-05-04T13:05:17.793Z</time></trkpt><trkpt lat="51.68193" lon="-0.3759167"><ele>63.0</ele><time>2026-05-04T13:05:18.792Z</time></trkpt><trkpt lat="51.68168" lon="-0.3758133"><ele>63.0</ele><time>2026-05-04T13:05:19.792Z</time></trkpt><trkpt lat="51.68143" lon="-0.3757"><ele>63.0</ele><time>2026-05-04T13:05:20.792Z</time></trkpt><trkpt lat="51.6811783" lon="-0.3755817"><ele>61.5</ele><time>2026-05-04T13:05:21.795Z</time></trkpt><trkpt lat="51.68093" lon="-0.37546"><ele>60.0</ele><time>2026-05-04T13:05:22.791Z</time></trkpt><trkpt lat="51.6806767" lon="-0.375335"><ele>60.0</ele><time>2026-05-04T13:05:23.793Z</time></trkpt><trkpt lat="51.6804283" lon="-0.375205"><ele>60.0</ele><time>2026-05-04T13:05:24.793Z</time></trkpt><trkpt lat="51.6801783" lon="-0.37508"><ele>61.0</ele><time>2026-05-04T13:05:25.794Z</time></trkpt><trkpt lat="51.6799217" lon="-0.3749567"><ele>62.0</ele><time>2026-05-04T13:05:26.797Z</time></trkpt><trkpt lat="51.67967" lon="-0.3748333"><ele>62.0</ele><time>2026-05-04T13:05:27.791Z</time></trkpt><trkpt lat="51.679415" lon="-0.37471"><ele>62.0</ele><time>2026-05-04T13:05:28.792Z</time></trkpt><trkpt lat="51.679165" lon="-0.3745867"><ele>61.5</ele><time>2026-05-04T13:05:29.793Z</time></trkpt><trkpt lat="51.678915" lon="-0.3744633"><ele>61.0</ele><time>2026-05-04T13:05:30.793Z</time></trkpt><trkpt lat="51.6786633" lon="-0.3743467"><ele>61.5</ele><time>2026-05-04T13:05:31.792Z</time></trkpt><trkpt lat="51.6784083" lon="-0.3742317"><ele>62.0</ele><time>2026-05-04T13:05:32.793Z</time></trkpt><trkpt lat="51.6781617" lon="-0.3741083"><ele>62.0</ele><time>2026-05-04T13:05:33.791Z</time></trkpt><trkpt lat="51.6779033" lon="-0.3739917"><ele>62.0</ele><time>2026-05-04T13:05:34.792Z</time></trkpt><trkpt lat="51.6776467" lon="-0.373875"><ele>60.0</ele><time>2026-05-04T13:05:35.793Z</time></trkpt><trkpt lat="51.677395" lon="-0.3737517"><ele>58.0</ele><time>2026-05-04T13:05:36.792Z</time></trkpt><trkpt lat="51.67714" lon="-0.3736333"><ele>58.0</ele><time>2026-05-04T13:05:37.792Z</time></trkpt><trkpt lat="51.6768817" lon="-0.37352"><ele>58.0</ele><time>2026-05-04T13:05:38.792Z</time></trkpt><trkpt lat="51.6766233" lon="-0.373405"><ele>58.0</ele><time>2026-05-04T13:05:39.793Z</time></trkpt><trkpt lat="51.6763717" lon="-0.37329"><ele>58.0</ele><time>2026-05-04T13:05:40.793Z</time></trkpt><trkpt lat="51.6761167" lon="-0.373175"><ele>58.5</ele><time>2026-05-04T13:05:41.791Z</time></trkpt><trkpt lat="51.675865" lon="-0.3730583"><ele>59.0</ele><time>2026-05-04T13:05:42.793Z</time></trkpt><trkpt lat="51.6756117" lon="-0.37294"><ele>59.5</ele><time>2026-05-04T13:05:43.792Z</time></trkpt><trkpt lat="51.6753617" lon="-0.37281"><ele>60.0</ele><time>2026-05-04T13:05:44.795Z</time></trkpt><trkpt lat="51.675115" lon="-0.372675"><ele>61.0</ele><time>2026-05-04T13:05:45.793Z</time></trkpt><trkpt lat="51.6748683" lon="-0.3725317"><ele>62.0</ele><time>2026-05-04T13:05:46.792Z</time></trkpt><trkpt lat="51.674625" lon="-0.3723783"><ele>63.5</ele><time>2026-05-04T13:05:47.795Z</time></trkpt><trkpt lat="51.6743883" lon="-0.3722067"><ele>65.0</ele><time>2026-05-04T13:05:48.793Z</time></trkpt><trkpt lat="51.6741567" lon="-0.372025"><ele>66.0</ele><time>2026-05-04T13:05:49.793Z</time></trkpt><trkpt lat="51.6739267" lon="-0.3718317"><ele>67.0</ele><time>2026-05-04T13:05:50.792Z</time></trkpt><trkpt lat="51.6736983" lon="-0.37163"><ele>68.5</ele><time>2026-05-04T13:05:51.793Z</time></trkpt><trkpt lat="51.673475" lon="-0.3714167"><ele>70.0</ele><time>2026-05-04T13:05:52.791Z</time></trkpt><trkpt lat="51.6732567" lon="-0.37119"><ele>70.0</ele><time>2026-05-04T13:05:53.794Z</time></trkpt><trkpt lat="51.6730467" lon="-0.37095"><ele>70.0</ele><time>2026-05-04T13:05:54.793Z</time></trkpt><trkpt lat="51.6728383" lon="-0.3706983"><ele>71.5</ele><time>2026-05-04T13:05:55.791Z</time></trkpt><trkpt lat="51.672635" lon="-0.370435"><ele>73.0</ele><time>2026-05-04T13:05:56.792Z</time></trkpt><trkpt lat="51.6724383" lon="-0.370155"><ele>73.0</ele><time>2026-05-04T13:05:57.791Z</time></trkpt><trkpt lat="51.6722433" lon="-0.3698667"><ele>73.0</ele><time>2026-05-04T13:05:58.794Z</time></trkpt><trkpt lat="51.672055" lon="-0.3695683"><ele>73.0</ele><time>2026-05-04T13:05:59.792Z</time></trkpt><trkpt lat="51.6718667" lon="-0.36926"><ele>73.0</ele><time>2026-05-04T13:06:00.791Z</time></trkpt><trkpt lat="51.6716867" lon="-0.3689467"><ele>73.0</ele><time>2026-05-04T13:06:01.792Z</time></trkpt><trkpt lat="51.6715067" lon="-0.3686283"><ele>73.0</ele><time>2026-05-04T13:06:02.792Z</time></trkpt><trkpt lat="51.671335" lon="-0.3683083"><ele>73.0</ele><time>2026-05-04T13:06:03.793Z</time></trkpt><trkpt lat="51.67117" lon="-0.3679833"><ele>73.0</ele><time>2026-05-04T13:06:04.793Z</time></trkpt><trkpt lat="51.671005" lon="-0.3676583"><ele>73.0</ele><time>2026-05-04T13:06:05.793Z</time></trkpt><trkpt lat="51.67084" lon="-0.3673267"><ele>73.0</ele><time>2026-05-04T13:06:06.792Z</time></trkpt><trkpt lat="51.6705067" lon="-0.3666833"><ele>73.5</ele><time>2026-05-04T13:06:08.791Z</time></trkpt><trkpt lat="51.67034" lon="-0.36636"><ele>74.0</ele><time>2026-05-04T13:06:09.792Z</time></trkpt><trkpt lat="51.6701817" lon="-0.36603"><ele>74.0</ele><time>2026-05-04T13:06:10.791Z</time></trkpt><trkpt lat="51.6700233" lon="-0.3656967"><ele>74.0</ele><time>2026-05-04T13:06:11.795Z</time></trkpt><trkpt lat="51.669865" lon="-0.3653667"><ele>75.0</ele><time>2026-05-04T13:06:12.793Z</time></trkpt><trkpt lat="51.6697" lon="-0.3650417"><ele>76.0</ele><time>2026-05-04T13:06:13.793Z</time></trkpt><trkpt lat="51.6695333" lon="-0.3647167"><ele>76.5</ele><time>2026-05-04T13:06:14.791Z</time></trkpt><trkpt lat="51.6693633" lon="-0.364395"><ele>77.0</ele><time>2026-05-04T13:06:15.793Z</time></trkpt><trkpt lat="51.669195" lon="-0.3640717"><ele>77.0</ele><time>2026-05-04T13:06:16.791Z</time></trkpt><trkpt lat="51.66903" lon="-0.36375"><ele>77.0</ele><time>2026-05-04T13:06:17.792Z</time></trkpt><trkpt lat="51.6688633" lon="-0.3634283"><ele>77.0</ele><time>2026-05-04T13:06:18.793Z</time></trkpt><trkpt lat="51.6686933" lon="-0.3631017"><ele>77.0</ele><time>2026-05-04T13:06:19.792Z</time></trkpt><trkpt lat="51.6685233" lon="-0.3627767"><ele>76.0</ele><time>2026-05-04T13:06:20.794Z</time></trkpt><trkpt lat="51.6683583" lon="-0.3624517"><ele>75.0</ele><time>2026-05-04T13:06:21.795Z</time></trkpt><trkpt lat="51.6681933" lon="-0.3621283"><ele>74.5</ele><time>2026-05-04T13:06:22.793Z</time></trkpt><trkpt lat="51.668025" lon="-0.3618083"><ele>74.0</ele><time>2026-05-04T13:06:23.792Z</time></trkpt><trkpt lat="51.667855" lon="-0.3614833"><ele>72.5</ele><time>2026-05-04T13:06:24.795Z</time></trkpt><trkpt lat="51.6676833" lon="-0.3611567"><ele>71.0</ele><time>2026-05-04T13:06:25.792Z</time></trkpt><trkpt lat="51.667515" lon="-0.36083"><ele>70.5</ele><time>2026-05-04T13:06:26.794Z</time></trkpt><trkpt lat="51.667345" lon="-0.3605017"><ele>70.0</ele><time>2026-05-04T13:06:27.791Z</time></trkpt><trkpt lat="51.6671783" lon="-0.3601717"><ele>70.0</ele><time>2026-05-04T13:06:28.795Z</time></trkpt><trkpt lat="51.667005" lon="-0.3598417"><ele>70.0</ele><time>2026-05-04T13:06:29.791Z</time></trkpt><trkpt lat="51.6668267" lon="-0.3595067"><ele>71.5</ele><time>2026-05-04T13:06:30.792Z</time></trkpt><trkpt lat="51.6666533" lon="-0.359175"><ele>73.0</ele><time>2026-05-04T13:06:31.793Z</time></trkpt><trkpt lat="51.66648" lon="-0.3588417"><ele>74.0</ele><time>2026-05-04T13:06:32.791Z</time></trkpt><trkpt lat="51.6663083" lon="-0.35851"><ele>75.0</ele><time>2026-05-04T13:06:33.795Z</time></trkpt><trkpt lat="51.66614" lon="-0.35818"><ele>74.0</ele><time>2026-05-04T13:06:34.793Z</time></trkpt><trkpt lat="51.6659717" lon="-0.3578483"><ele>73.0</ele><time>2026-05-04T13:06:35.793Z</time></trkpt><trkpt lat="51.6658017" lon="-0.3575183"><ele>73.5</ele><time>2026-05-04T13:06:36.793Z</time></trkpt><trkpt lat="51.6656317" lon="-0.3571883"><ele>74.0</ele><time>2026-05-04T13:06:37.794Z</time></trkpt><trkpt lat="51.6654617" lon="-0.356855"><ele>74.0</ele><time>2026-05-04T13:06:38.793Z</time></trkpt><trkpt lat="51.6652967" lon="-0.3565217"><ele>74.0</ele><time>2026-05-04T13:06:39.792Z</time></trkpt><trkpt lat="51.665125" lon="-0.3561883"><ele>74.5</ele><time>2026-05-04T13:06:40.792Z</time></trkpt><trkpt lat="51.66495" lon="-0.35586"><ele>75.0</ele><time>2026-05-04T13:06:41.793Z</time></trkpt><trkpt lat="51.66478" lon="-0.35553"><ele>75.5</ele><time>2026-05-04T13:06:42.793Z</time></trkpt><trkpt lat="51.6646067" lon="-0.3551967"><ele>76.0</ele><time>2026-05-04T13:06:43.792Z</time></trkpt><trkpt lat="51.664435" lon="-0.35487"><ele>75.0</ele><time>2026-05-04T13:06:44.795Z</time></trkpt><trkpt lat="51.664265" lon="-0.3545417"><ele>74.0</ele><time>2026-05-04T13:06:45.79Z</time></trkpt><trkpt lat="51.6640917" lon="-0.354215"><ele>74.0</ele><time>2026-05-04T13:06:46.793Z</time></trkpt><trkpt lat="51.663915" lon="-0.35389"><ele>74.0</ele><time>2026-05-04T13:06:47.794Z</time></trkpt><trkpt lat="51.663745" lon="-0.3535583"><ele>73.5</ele><time>2026-05-04T13:06:48.796Z</time></trkpt><trkpt lat="51.6635783" lon="-0.3532233"><ele>73.0</ele><time>2026-05-04T13:06:49.792Z</time></trkpt><trkpt lat="51.6634133" lon="-0.3528933"><ele>73.0</ele><time>2026-05-04T13:06:50.791Z</time></trkpt><trkpt lat="51.6632417" lon="-0.35256"><ele>73.0</ele><time>2026-05-04T13:06:51.793Z</time></trkpt><trkpt lat="51.663065" lon="-0.35223"><ele>73.0</ele><time>2026-05-04T13:06:52.792Z</time></trkpt><trkpt lat="51.66289" lon="-0.351895"><ele>73.0</ele><time>2026-05-04T13:06:53.793Z</time></trkpt><trkpt lat="51.662715" lon="-0.351565"><ele>74.0</ele><time>2026-05-04T13:06:54.794Z</time></trkpt><trkpt lat="51.662535" lon="-0.3512333"><ele>75.0</ele><time>2026-05-04T13:06:55.793Z</time></trkpt><trkpt lat="51.6623567" lon="-0.350905"><ele>75.0</ele><time>2026-05-04T13:06:56.792Z</time></trkpt><trkpt lat="51.66218" lon="-0.3505767"><ele>75.0</ele><time>2026-05-04T13:06:57.792Z</time></trkpt><trkpt lat="51.6620067" lon="-0.3502517"><ele>77.0</ele><time>2026-05-04T13:06:58.793Z</time></trkpt><trkpt lat="51.6618317" lon="-0.3499283"><ele>79.0</ele><time>2026-05-04T13:06:59.792Z</time></trkpt><trkpt lat="51.6616633" lon="-0.349595"><ele>79.5</ele><time>2026-05-04T13:07:00.791Z</time></trkpt><trkpt lat="51.6614967" lon="-0.3492617"><ele>80.0</ele><time>2026-05-04T13:07:01.791Z</time></trkpt><trkpt lat="51.661325" lon="-0.3489283"><ele>81.0</ele><time>2026-05-04T13:07:02.79Z</time></trkpt><trkpt lat="51.661155" lon="-0.3485983"><ele>82.0</ele><time>2026-05-04T13:07:03.797Z</time></trkpt><trkpt lat="51.6609817" lon="-0.3482783"><ele>80.5</ele><time>2026-05-04T13:07:04.792Z</time></trkpt><trkpt lat="51.6608033" lon="-0.3479567"><ele>79.0</ele><time>2026-05-04T13:07:05.792Z</time></trkpt><trkpt lat="51.6606233" lon="-0.3476433"><ele>79.0</ele><time>2026-05-04T13:07:06.792Z</time></trkpt><trkpt lat="51.6604317" lon="-0.3473433"><ele>79.0</ele><time>2026-05-04T13:07:07.793Z</time></trkpt><trkpt lat="51.6602467" lon="-0.34704"><ele>78.5</ele><time>2026-05-04T13:07:08.793Z</time></trkpt><trkpt lat="51.6600433" lon="-0.3467583"><ele>78.0</ele><time>2026-05-04T13:07:09.792Z</time></trkpt><trkpt lat="51.65984" lon="-0.3464883"><ele>77.0</ele><time>2026-05-04T13:07:10.792Z</time></trkpt><trkpt lat="51.65963" lon="-0.3462283"><ele>76.0</ele><time>2026-05-04T13:07:11.79Z</time></trkpt><trkpt lat="51.6594133" lon="-0.34598"><ele>76.0</ele><time>2026-05-04T13:07:12.793Z</time></trkpt><trkpt lat="51.6591917" lon="-0.3457467"><ele>76.0</ele><time>2026-05-04T13:07:13.793Z</time></trkpt><trkpt lat="51.6589667" lon="-0.3455167"><ele>76.5</ele><time>2026-05-04T13:07:14.792Z</time></trkpt><trkpt lat="51.6587367" lon="-0.345305"><ele>77.0</ele><time>2026-05-04T13:07:15.79Z</time></trkpt><trkpt lat="51.6584967" lon="-0.3451083"><ele>77.0</ele><time>2026-05-04T13:07:16.791Z</time></trkpt><trkpt lat="51.658255" lon="-0.3449267"><ele>77.0</ele><time>2026-05-04T13:07:17.793Z</time></trkpt><trkpt lat="51.6580133" lon="-0.3447467"><ele>76.5</ele><time>2026-05-04T13:07:18.794Z</time></trkpt><trkpt lat="51.6577683" lon="-0.3445833"><ele>76.0</ele><time>2026-05-04T13:07:19.792Z</time></trkpt><trkpt lat="51.6575133" lon="-0.3444383"><ele>76.0</ele><time>2026-05-04T13:07:20.791Z</time></trkpt><trkpt lat="51.6572567" lon="-0.3443083"><ele>76.0</ele><time>2026-05-04T13:07:21.79Z</time></trkpt><trkpt lat="51.6569983" lon="-0.34419"><ele>76.0</ele><time>2026-05-04T13:07:22.793Z</time></trkpt><trkpt lat="51.6567367" lon="-0.3440933"><ele>76.0</ele><time>2026-05-04T13:07:23.793Z</time></trkpt><trkpt lat="51.6564767" lon="-0.3440067"><ele>76.0</ele><time>2026-05-04T13:07:24.791Z</time></trkpt><trkpt lat="51.6562117" lon="-0.343935"><ele>76.0</ele><time>2026-05-04T13:07:25.792Z</time></trkpt><trkpt lat="51.6559433" lon="-0.3438717"><ele>76.5</ele><time>2026-05-04T13:07:26.792Z</time></trkpt><trkpt lat="51.6556783" lon="-0.3438133"><ele>77.0</ele><time>2026-05-04T13:07:27.791Z</time></trkpt><trkpt lat="51.6554083" lon="-0.343765"><ele>78.0</ele><time>2026-05-04T13:07:28.793Z</time></trkpt><trkpt lat="51.6551383" lon="-0.3437167"><ele>79.0</ele><time>2026-05-04T13:07:29.794Z</time></trkpt><trkpt lat="51.6548667" lon="-0.3436767"><ele>79.0</ele><time>2026-05-04T13:07:30.791Z</time></trkpt><trkpt lat="51.6546" lon="-0.3436283"><ele>79.0</ele><time>2026-05-04T13:07:31.794Z</time></trkpt><trkpt lat="51.6543317" lon="-0.3435817"><ele>79.0</ele><time>2026-05-04T13:07:32.793Z</time></trkpt><trkpt lat="51.6540633" lon="-0.34353"><ele>79.0</ele><time>2026-05-04T13:07:33.792Z</time></trkpt><trkpt lat="51.6537983" lon="-0.3434767"><ele>81.0</ele><time>2026-05-04T13:07:34.794Z</time></trkpt><trkpt lat="51.6535333" lon="-0.3434233"><ele>83.0</ele><time>2026-05-04T13:07:35.791Z</time></trkpt><trkpt lat="51.6532667" lon="-0.34337"><ele>83.0</ele><time>2026-05-04T13:07:36.793Z</time></trkpt><trkpt lat="51.653005" lon="-0.343315"><ele>83.0</ele><time>2026-05-04T13:07:37.793Z</time></trkpt><trkpt lat="51.6527483" lon="-0.3432483"><ele>84.0</ele><time>2026-05-04T13:07:38.792Z</time></trkpt><trkpt lat="51.65249" lon="-0.3431667"><ele>85.0</ele><time>2026-05-04T13:07:39.791Z</time></trkpt><trkpt lat="51.6522267" lon="-0.3430767"><ele>85.0</ele><time>2026-05-04T13:07:40.792Z</time></trkpt><trkpt lat="51.651965" lon="-0.3429717"><ele>85.0</ele><time>2026-05-04T13:07:41.791Z</time></trkpt><trkpt lat="51.651705" lon="-0.34285"><ele>85.5</ele><time>2026-05-04T13:07:42.793Z</time></trkpt><trkpt lat="51.65145" lon="-0.342715"><ele>86.0</ele><time>2026-05-04T13:07:43.792Z</time></trkpt><trkpt lat="51.6511983" lon="-0.3425633"><ele>84.5</ele><time>2026-05-04T13:07:44.792Z</time></trkpt><trkpt lat="51.65095" lon="-0.342405"><ele>83.0</ele><time>2026-05-04T13:07:45.791Z</time></trkpt><trkpt lat="51.6507033" lon="-0.3422333"><ele>83.5</ele><time>2026-05-04T13:07:46.792Z</time></trkpt><trkpt lat="51.650465" lon="-0.342045"><ele>84.0</ele><time>2026-05-04T13:07:47.794Z</time></trkpt><trkpt lat="51.6502283" lon="-0.3418467"><ele>84.0</ele><time>2026-05-04T13:07:48.791Z</time></trkpt><trkpt lat="51.6499967" lon="-0.3416317"><ele>84.0</ele><time>2026-05-04T13:07:49.791Z</time></trkpt><trkpt lat="51.6497683" lon="-0.3414033"><ele>84.5</ele><time>2026-05-04T13:07:50.792Z</time></trkpt><trkpt lat="51.6495433" lon="-0.3411617"><ele>85.0</ele><time>2026-05-04T13:07:51.795Z</time></trkpt><trkpt lat="51.6493267" lon="-0.3409067"><ele>85.0</ele><time>2026-05-04T13:07:52.796Z</time></trkpt><trkpt lat="51.6491117" lon="-0.3406467"><ele>85.0</ele><time>2026-05-04T13:07:53.792Z</time></trkpt><trkpt lat="51.6489" lon="-0.34038"><ele>87.0</ele><time>2026-05-04T13:07:54.793Z</time></trkpt><trkpt lat="51.6486983" lon="-0.3401017"><ele>89.0</ele><time>2026-05-04T13:07:55.792Z</time></trkpt><trkpt lat="51.648505" lon="-0.3398083"><ele>90.0</ele><time>2026-05-04T13:07:56.791Z</time></trkpt><trkpt lat="51.6483183" lon="-0.3395033"><ele>91.0</ele><time>2026-05-04T13:07:57.791Z</time></trkpt><trkpt lat="51.6481383" lon="-0.33919"><ele>92.5</ele><time>2026-05-04T13:07:58.792Z</time></trkpt><trkpt lat="51.6479683" lon="-0.3388633"><ele>94.0</ele><time>2026-05-04T13:07:59.793Z</time></trkpt><trkpt lat="51.6478033" lon="-0.338525"><ele>93.0</ele><time>2026-05-04T13:08:00.793Z</time></trkpt><trkpt lat="51.647645" lon="-0.338175"><ele>92.0</ele><time>2026-05-04T13:08:01.794Z</time></trkpt><trkpt lat="51.6474983" lon="-0.3378183"><ele>92.0</ele><time>2026-05-04T13:08:02.794Z</time></trkpt><trkpt lat="51.64736" lon="-0.3374533"><ele>92.0</ele><time>2026-05-04T13:08:03.792Z</time></trkpt><trkpt lat="51.647225" lon="-0.3370817"><ele>93.5</ele><time>2026-05-04T13:08:04.792Z</time></trkpt><trkpt lat="51.6470983" lon="-0.3367"><ele>95.0</ele><time>2026-05-04T13:08:05.792Z</time></trkpt><trkpt lat="51.6469767" lon="-0.336315"><ele>96.5</ele><time>2026-05-04T13:08:06.792Z</time></trkpt><trkpt lat="51.6468633" lon="-0.3359233"><ele>98.0</ele><time>2026-05-04T13:08:07.797Z</time></trkpt><trkpt lat="51.64676" lon="-0.3355233"><ele>98.0</ele><time>2026-05-04T13:08:08.792Z</time></trkpt><trkpt lat="51.6466667" lon="-0.3351217"><ele>98.0</ele><time>2026-05-04T13:08:09.792Z</time></trkpt><trkpt lat="51.646575" lon="-0.334715"><ele>99.5</ele><time>2026-05-04T13:08:10.792Z</time></trkpt><trkpt lat="51.646495" lon="-0.33431"><ele>101.0</ele><time>2026-05-04T13:08:11.792Z</time></trkpt><trkpt lat="51.6464167" lon="-0.3339"><ele>101.5</ele><time>2026-05-04T13:08:12.793Z</time></trkpt><trkpt lat="51.6463433" lon="-0.3334883"><ele>102.0</ele><time>2026-05-04T13:08:13.792Z</time></trkpt><trkpt lat="51.6462717" lon="-0.3330767"><ele>102.0</ele><time>2026-05-04T13:08:14.795Z</time></trkpt><trkpt lat="51.6462" lon="-0.332665"><ele>102.0</ele><time>2026-05-04T13:08:15.792Z</time></trkpt><trkpt lat="51.646125" lon="-0.332255"><ele>105.5</ele><time>2026-05-04T13:08:16.793Z</time></trkpt><trkpt lat="51.6460483" lon="-0.3318483"><ele>109.0</ele><time>2026-05-04T13:08:17.792Z</time></trkpt><trkpt lat="51.64597" lon="-0.3314417"><ele>109.0</ele><time>2026-05-04T13:08:18.791Z</time></trkpt><trkpt lat="51.6458867" lon="-0.3310317"><ele>109.0</ele><time>2026-05-04T13:08:19.794Z</time></trkpt><trkpt lat="51.6457967" lon="-0.33063"><ele>109.0</ele><time>2026-05-04T13:08:20.793Z</time></trkpt><trkpt lat="51.6457" lon="-0.3302333"><ele>109.0</ele><time>2026-05-04T13:08:21.793Z</time></trkpt><trkpt lat="51.6456033" lon="-0.3298333"><ele>109.5</ele><time>2026-05-04T13:08:22.792Z</time></trkpt><trkpt lat="51.6455033" lon="-0.329435"><ele>110.0</ele><time>2026-05-04T13:08:23.792Z</time></trkpt><trkpt lat="51.6454" lon="-0.3290367"><ele>112.5</ele><time>2026-05-04T13:08:24.793Z</time></trkpt><trkpt lat="51.6452883" lon="-0.328645"><ele>115.0</ele><time>2026-05-04T13:08:25.793Z</time></trkpt><trkpt lat="51.64517" lon="-0.32826"><ele>114.5</ele><time>2026-05-04T13:08:26.791Z</time></trkpt><trkpt lat="51.6450467" lon="-0.3278817"><ele>114.0</ele><time>2026-05-04T13:08:27.793Z</time></trkpt><trkpt lat="51.644915" lon="-0.3275067"><ele>114.5</ele><time>2026-05-04T13:08:28.791Z</time></trkpt><trkpt lat="51.6447833" lon="-0.327135"><ele>115.0</ele><time>2026-05-04T13:08:29.793Z</time></trkpt><trkpt lat="51.6446433" lon="-0.3267633"><ele>115.0</ele><time>2026-05-04T13:08:30.793Z</time></trkpt><trkpt lat="51.6444983" lon="-0.3264033"><ele>115.0</ele><time>2026-05-04T13:08:31.797Z</time></trkpt><trkpt lat="51.64435" lon="-0.3260467"><ele>115.5</ele><time>2026-05-04T13:08:32.793Z</time></trkpt><trkpt lat="51.6442" lon="-0.3256933"><ele>116.0</ele><time>2026-05-04T13:08:33.791Z</time></trkpt><trkpt lat="51.6440417" lon="-0.32535"><ele>116.0</ele><time>2026-05-04T13:08:34.793Z</time></trkpt><trkpt lat="51.6438833" lon="-0.3250083"><ele>116.0</ele><time>2026-05-04T13:08:35.793Z</time></trkpt><trkpt lat="51.6437167" lon="-0.3246683"><ele>115.5</ele><time>2026-05-04T13:08:36.796Z</time></trkpt><trkpt lat="51.64355" lon="-0.3243333"><ele>115.0</ele><time>2026-05-04T13:08:37.791Z</time></trkpt><trkpt lat="51.6433817" lon="-0.3240033"><ele>114.5</ele><time>2026-05-04T13:08:38.794Z</time></trkpt><trkpt lat="51.64321" lon="-0.3236717"><ele>114.0</ele><time>2026-05-04T13:08:39.791Z</time></trkpt><trkpt lat="51.6430367" lon="-0.32334"><ele>114.0</ele><time>2026-05-04T13:08:40.794Z</time></trkpt><trkpt lat="51.64286" lon="-0.32301"><ele>114.0</ele><time>2026-05-04T13:08:41.793Z</time></trkpt><trkpt lat="51.6426817" lon="-0.3226767"><ele>114.0</ele><time>2026-05-04T13:08:42.793Z</time></trkpt><trkpt lat="51.642505" lon="-0.3223467"><ele>114.0</ele><time>2026-05-04T13:08:43.794Z</time></trkpt><trkpt lat="51.6423333" lon="-0.3220117"><ele>113.0</ele><time>2026-05-04T13:08:44.793Z</time></trkpt><trkpt lat="51.6421667" lon="-0.3216733"><ele>112.0</ele><time>2026-05-04T13:08:45.792Z</time></trkpt><trkpt lat="51.64201" lon="-0.3213333"><ele>112.5</ele><time>2026-05-04T13:08:46.793Z</time></trkpt><trkpt lat="51.6418467" lon="-0.3209967"><ele>113.0</ele><time>2026-05-04T13:08:47.794Z</time></trkpt><trkpt lat="51.6416867" lon="-0.320655"><ele>112.5</ele><time>2026-05-04T13:08:48.793Z</time></trkpt><trkpt lat="51.6415283" lon="-0.3203133"><ele>112.0</ele><time>2026-05-04T13:08:49.793Z</time></trkpt><trkpt lat="51.6413733" lon="-0.3199717"><ele>112.0</ele><time>2026-05-04T13:08:50.794Z</time></trkpt><trkpt lat="51.6412117" lon="-0.3196283"><ele>112.0</ele><time>2026-05-04T13:08:51.793Z</time></trkpt><trkpt lat="51.64105" lon="-0.31929"><ele>112.0</ele><time>2026-05-04T13:08:52.794Z</time></trkpt><trkpt lat="51.64089" lon="-0.3189567"><ele>112.0</ele><time>2026-05-04T13:08:53.793Z</time></trkpt><trkpt lat="51.6407317" lon="-0.3186133"><ele>111.5</ele><time>2026-05-04T13:08:54.795Z</time></trkpt><trkpt lat="51.6405817" lon="-0.3182567"><ele>111.0</ele><time>2026-05-04T13:08:55.792Z</time></trkpt><trkpt lat="51.64043" lon="-0.3179017"><ele>110.5</ele><time>2026-05-04T13:08:56.793Z</time></trkpt><trkpt lat="51.64028" lon="-0.31754"><ele>110.0</ele><time>2026-05-04T13:08:57.793Z</time></trkpt><trkpt lat="51.64013" lon="-0.3171783"><ele>110.0</ele><time>2026-05-04T13:08:58.792Z</time></trkpt><trkpt lat="51.639985" lon="-0.3168183"><ele>110.0</ele><time>2026-05-04T13:08:59.793Z</time></trkpt><trkpt lat="51.6398417" lon="-0.3164567"><ele>109.0</ele><time>2026-05-04T13:09:00.793Z</time></trkpt><trkpt lat="51.6396983" lon="-0.3160933"><ele>108.0</ele><time>2026-05-04T13:09:01.793Z</time></trkpt><trkpt lat="51.639555" lon="-0.3157267"><ele>108.5</ele><time>2026-05-04T13:09:02.794Z</time></trkpt><trkpt lat="51.6394133" lon="-0.3153633"><ele>109.0</ele><time>2026-05-04T13:09:03.793Z</time></trkpt><trkpt lat="51.6392733" lon="-0.314995"><ele>109.0</ele><time>2026-05-04T13:09:04.792Z</time></trkpt><trkpt lat="51.63914" lon="-0.3146217"><ele>109.0</ele><time>2026-05-04T13:09:05.793Z</time></trkpt><trkpt lat="51.63901" lon="-0.3142483"><ele>108.5</ele><time>2026-05-04T13:09:06.793Z</time></trkpt><trkpt lat="51.63888" lon="-0.3138717"><ele>108.0</ele><time>2026-05-04T13:09:07.793Z</time></trkpt><trkpt lat="51.6387533" lon="-0.3134983"><ele>109.5</ele><time>2026-05-04T13:09:08.794Z</time></trkpt><trkpt lat="51.63862" lon="-0.3131217"><ele>111.0</ele><time>2026-05-04T13:09:09.791Z</time></trkpt><trkpt lat="51.6384883" lon="-0.312745"><ele>111.0</ele><time>2026-05-04T13:09:10.793Z</time></trkpt><trkpt lat="51.63836" lon="-0.312365"><ele>111.0</ele><time>2026-05-04T13:09:11.793Z</time></trkpt><trkpt lat="51.638235" lon="-0.3119867"><ele>111.5</ele><time>2026-05-04T13:09:12.793Z</time></trkpt><trkpt lat="51.6381117" lon="-0.3116067"><ele>112.0</ele><time>2026-05-04T13:09:13.794Z</time></trkpt><trkpt lat="51.63799" lon="-0.311225"><ele>111.5</ele><time>2026-05-04T13:09:14.794Z</time></trkpt><trkpt lat="51.6378717" lon="-0.3108433"><ele>111.0</ele><time>2026-05-04T13:09:15.793Z</time></trkpt><trkpt lat="51.637755" lon="-0.3104583"><ele>111.0</ele><time>2026-05-04T13:09:16.792Z</time></trkpt><trkpt lat="51.6376367" lon="-0.3100717"><ele>111.0</ele><time>2026-05-04T13:09:17.793Z</time></trkpt><trkpt lat="51.63752" lon="-0.309685"><ele>111.5</ele><time>2026-05-04T13:09:18.793Z</time></trkpt><trkpt lat="51.6374017" lon="-0.3092967"><ele>112.0</ele><time>2026-05-04T13:09:19.792Z</time></trkpt><trkpt lat="51.637285" lon="-0.30891"><ele>113.5</ele><time>2026-05-04T13:09:20.793Z</time></trkpt><trkpt lat="51.6371717" lon="-0.3085183"><ele>115.0</ele><time>2026-05-04T13:09:21.794Z</time></trkpt><trkpt lat="51.6370633" lon="-0.3081233"><ele>115.5</ele><time>2026-05-04T13:09:22.794Z</time></trkpt><trkpt lat="51.6369633" lon="-0.307725"><ele>116.0</ele><time>2026-05-04T13:09:23.798Z</time></trkpt><trkpt lat="51.6368617" lon="-0.3073283"><ele>116.0</ele><time>2026-05-04T13:09:24.793Z</time></trkpt><trkpt lat="51.6367567" lon="-0.3069283"><ele>116.0</ele><time>2026-05-04T13:09:25.794Z</time></trkpt><trkpt lat="51.636655" lon="-0.3065267"><ele>115.5</ele><time>2026-05-04T13:09:26.792Z</time></trkpt><trkpt lat="51.6365533" lon="-0.3061283"><ele>115.0</ele><time>2026-05-04T13:09:27.793Z</time></trkpt><trkpt lat="51.63645" lon="-0.3057283"><ele>114.5</ele><time>2026-05-04T13:09:28.794Z</time></trkpt><trkpt lat="51.6363483" lon="-0.30533"><ele>114.0</ele><time>2026-05-04T13:09:29.793Z</time></trkpt><trkpt lat="51.6362517" lon="-0.3049283"><ele>114.0</ele><time>2026-05-04T13:09:30.793Z</time></trkpt><trkpt lat="51.6361567" lon="-0.3045233"><ele>114.0</ele><time>2026-05-04T13:09:31.792Z</time></trkpt><trkpt lat="51.6360683" lon="-0.3041183"><ele>113.5</ele><time>2026-05-04T13:09:32.792Z</time></trkpt><trkpt lat="51.6359767" lon="-0.3037117"><ele>113.0</ele><time>2026-05-04T13:09:33.793Z</time></trkpt><trkpt lat="51.6358883" lon="-0.303305"><ele>114.0</ele><time>2026-05-04T13:09:34.795Z</time></trkpt><trkpt lat="51.6358017" lon="-0.3029"><ele>115.0</ele><time>2026-05-04T13:09:35.795Z</time></trkpt><trkpt lat="51.6357183" lon="-0.3024917"><ele>115.5</ele><time>2026-05-04T13:09:36.792Z</time></trkpt><trkpt lat="51.635635" lon="-0.3020783"><ele>116.0</ele><time>2026-05-04T13:09:37.793Z</time></trkpt><trkpt lat="51.6355517" lon="-0.30167"><ele>115.0</ele><time>2026-05-04T13:09:38.793Z</time></trkpt><trkpt lat="51.63548" lon="-0.3012667"><ele>114.0</ele><time>2026-05-04T13:09:39.797Z</time></trkpt><trkpt lat="51.63542" lon="-0.3008467"><ele>114.0</ele><time>2026-05-04T13:09:40.792Z</time></trkpt><trkpt lat="51.6353617" lon="-0.3004333"><ele>114.0</ele><time>2026-05-04T13:09:41.793Z</time></trkpt><trkpt lat="51.6353133" lon="-0.30001"><ele>112.5</ele><time>2026-05-04T13:09:42.792Z</time></trkpt><trkpt lat="51.63527" lon="-0.2995833"><ele>111.0</ele><time>2026-05-04T13:09:43.791Z</time></trkpt><trkpt lat="51.63523" lon="-0.2991633"><ele>109.5</ele><time>2026-05-04T13:09:44.793Z</time></trkpt><trkpt lat="51.63519" lon="-0.2987433"><ele>108.0</ele><time>2026-05-04T13:09:45.793Z</time></trkpt><trkpt lat="51.6351683" lon="-0.2983117"><ele>107.5</ele><time>2026-05-04T13:09:46.791Z</time></trkpt><trkpt lat="51.6351433" lon="-0.29789"><ele>107.0</ele><time>2026-05-04T13:09:47.792Z</time></trkpt><trkpt lat="51.635145" lon="-0.2974533"><ele>106.5</ele><time>2026-05-04T13:09:48.792Z</time></trkpt><trkpt lat="51.6351517" lon="-0.297015"><ele>106.0</ele><time>2026-05-04T13:09:49.793Z</time></trkpt><trkpt lat="51.6351617" lon="-0.296585"><ele>105.0</ele><time>2026-05-04T13:09:50.793Z</time></trkpt><trkpt lat="51.6351783" lon="-0.29615"><ele>104.0</ele><time>2026-05-04T13:09:51.793Z</time></trkpt><trkpt lat="51.635205" lon="-0.2957133"><ele>103.5</ele><time>2026-05-04T13:09:52.793Z</time></trkpt><trkpt lat="51.6352333" lon="-0.2952783"><ele>103.0</ele><time>2026-05-04T13:09:53.792Z</time></trkpt><trkpt lat="51.635265" lon="-0.2948517"><ele>103.0</ele><time>2026-05-04T13:09:54.793Z</time></trkpt><trkpt lat="51.6353" lon="-0.2944283"><ele>103.0</ele><time>2026-05-04T13:09:55.793Z</time></trkpt><trkpt lat="51.6353417" lon="-0.294005"><ele>106.5</ele><time>2026-05-04T13:09:56.793Z</time></trkpt><trkpt lat="51.6353917" lon="-0.2935833"><ele>110.0</ele><time>2026-05-04T13:09:57.792Z</time></trkpt><trkpt lat="51.63544" lon="-0.2931617"><ele>110.0</ele><time>2026-05-04T13:09:58.791Z</time></trkpt><trkpt lat="51.6354833" lon="-0.2927433"><ele>110.0</ele><time>2026-05-04T13:09:59.793Z</time></trkpt><trkpt lat="51.6355383" lon="-0.2923183"><ele>109.5</ele><time>2026-05-04T13:10:00.792Z</time></trkpt><trkpt lat="51.635585" lon="-0.291895"><ele>109.0</ele><time>2026-05-04T13:10:01.791Z</time></trkpt><trkpt lat="51.6356467" lon="-0.29147"><ele>109.0</ele><time>2026-05-04T13:10:02.794Z</time></trkpt><trkpt lat="51.6357083" lon="-0.2910483"><ele>109.0</ele><time>2026-05-04T13:10:03.792Z</time></trkpt><trkpt lat="51.6357667" lon="-0.2906267"><ele>108.0</ele><time>2026-05-04T13:10:04.793Z</time></trkpt><trkpt lat="51.635825" lon="-0.2902083"><ele>107.0</ele><time>2026-05-04T13:10:05.792Z</time></trkpt><trkpt lat="51.6358883" lon="-0.2897967"><ele>105.0</ele><time>2026-05-04T13:10:06.792Z</time></trkpt><trkpt lat="51.6359533" lon="-0.2893883"><ele>103.0</ele><time>2026-05-04T13:10:07.793Z</time></trkpt><trkpt lat="51.6360233" lon="-0.2889817"><ele>101.0</ele><time>2026-05-04T13:10:08.793Z</time></trkpt><trkpt lat="51.636095" lon="-0.2885733"><ele>99.0</ele><time>2026-05-04T13:10:09.792Z</time></trkpt><trkpt lat="51.6361667" lon="-0.2881683"><ele>103.0</ele><time>2026-05-04T13:10:10.792Z</time></trkpt><trkpt lat="51.63624" lon="-0.2877567"><ele>107.0</ele><time>2026-05-04T13:10:11.791Z</time></trkpt><trkpt lat="51.6363183" lon="-0.28734"><ele>106.5</ele><time>2026-05-04T13:10:12.793Z</time></trkpt><trkpt lat="51.6363983" lon="-0.2869233"><ele>106.0</ele><time>2026-05-04T13:10:13.792Z</time></trkpt><trkpt lat="51.6364833" lon="-0.2865117"><ele>104.5</ele><time>2026-05-04T13:10:14.793Z</time></trkpt><trkpt lat="51.636565" lon="-0.286105"><ele>103.0</ele><time>2026-05-04T13:10:15.793Z</time></trkpt><trkpt lat="51.6366517" lon="-0.2857033"><ele>102.5</ele><time>2026-05-04T13:10:16.793Z</time></trkpt><trkpt lat="51.63674" lon="-0.2852967"><ele>102.0</ele><time>2026-05-04T13:10:17.793Z</time></trkpt><trkpt lat="51.6368333" lon="-0.2848883"><ele>103.5</ele><time>2026-05-04T13:10:18.792Z</time></trkpt><trkpt lat="51.6369283" lon="-0.2844867"><ele>105.0</ele><time>2026-05-04T13:10:19.793Z</time></trkpt><trkpt lat="51.6370233" lon="-0.28408"><ele>107.5</ele><time>2026-05-04T13:10:20.793Z</time></trkpt><trkpt lat="51.6371233" lon="-0.2836783"><ele>110.0</ele><time>2026-05-04T13:10:21.793Z</time></trkpt><trkpt lat="51.6372233" lon="-0.2832817"><ele>110.0</ele><time>2026-05-04T13:10:22.792Z</time></trkpt><trkpt lat="51.637325" lon="-0.282885"><ele>110.0</ele><time>2026-05-04T13:10:23.792Z</time></trkpt><trkpt lat="51.637425" lon="-0.2824867"><ele>110.0</ele><time>2026-05-04T13:10:24.793Z</time></trkpt><trkpt lat="51.6375233" lon="-0.28208"><ele>110.0</ele><time>2026-05-04T13:10:25.792Z</time></trkpt><trkpt lat="51.6376283" lon="-0.2816767"><ele>110.5</ele><time>2026-05-04T13:10:26.793Z</time></trkpt><trkpt lat="51.6377233" lon="-0.2812683"><ele>111.0</ele><time>2026-05-04T13:10:27.792Z</time></trkpt><trkpt lat="51.6378117" lon="-0.28086"><ele>109.0</ele><time>2026-05-04T13:10:28.793Z</time></trkpt><trkpt lat="51.637895" lon="-0.2804483"><ele>107.0</ele><time>2026-05-04T13:10:29.792Z</time></trkpt><trkpt lat="51.6379717" lon="-0.2800367"><ele>106.0</ele><time>2026-05-04T13:10:30.792Z</time></trkpt><trkpt lat="51.6380383" lon="-0.2796217"><ele>105.0</ele><time>2026-05-04T13:10:31.792Z</time></trkpt><trkpt lat="51.6380917" lon="-0.2792017"><ele>103.0</ele><time>2026-05-04T13:10:32.792Z</time></trkpt><trkpt lat="51.6381383" lon="-0.2787833"><ele>101.0</ele><time>2026-05-04T13:10:33.793Z</time></trkpt><trkpt lat="51.6381767" lon="-0.2783567"><ele>100.5</ele><time>2026-05-04T13:10:34.792Z</time></trkpt><trkpt lat="51.6382067" lon="-0.27793"><ele>100.0</ele><time>2026-05-04T13:10:35.793Z</time></trkpt><trkpt lat="51.63823" lon="-0.2775033"><ele>99.5</ele><time>2026-05-04T13:10:36.793Z</time></trkpt><trkpt lat="51.6382417" lon="-0.2770767"><ele>99.0</ele><time>2026-05-04T13:10:37.793Z</time></trkpt><trkpt lat="51.638245" lon="-0.2766517"><ele>98.0</ele><time>2026-05-04T13:10:38.794Z</time></trkpt><trkpt lat="51.6382433" lon="-0.2762233"><ele>97.0</ele><time>2026-05-04T13:10:39.792Z</time></trkpt><trkpt lat="51.638235" lon="-0.2757933"><ele>96.0</ele><time>2026-05-04T13:10:40.792Z</time></trkpt><trkpt lat="51.63822" lon="-0.2753583"><ele>95.0</ele><time>2026-05-04T13:10:41.792Z</time></trkpt><trkpt lat="51.6382" lon="-0.274925"><ele>94.5</ele><time>2026-05-04T13:10:42.792Z</time></trkpt><trkpt lat="51.63817" lon="-0.274495"><ele>94.0</ele><time>2026-05-04T13:10:43.793Z</time></trkpt><trkpt lat="51.6381283" lon="-0.2740667"><ele>93.5</ele><time>2026-05-04T13:10:44.792Z</time></trkpt><trkpt lat="51.6380767" lon="-0.2736467"><ele>93.0</ele><time>2026-05-04T13:10:45.792Z</time></trkpt><trkpt lat="51.638015" lon="-0.2732267"><ele>91.5</ele><time>2026-05-04T13:10:46.792Z</time></trkpt><trkpt lat="51.6379433" lon="-0.2728117"><ele>90.0</ele><time>2026-05-04T13:10:47.792Z</time></trkpt><trkpt lat="51.6378667" lon="-0.2724033"><ele>88.0</ele><time>2026-05-04T13:10:48.793Z</time></trkpt><trkpt lat="51.6377867" lon="-0.271995"><ele>86.0</ele><time>2026-05-04T13:10:49.792Z</time></trkpt><trkpt lat="51.637695" lon="-0.2715933"><ele>86.0</ele><time>2026-05-04T13:10:50.793Z</time></trkpt><trkpt lat="51.6376" lon="-0.271195"><ele>86.0</ele><time>2026-05-04T13:10:51.793Z</time></trkpt><trkpt lat="51.6374983" lon="-0.2707983"><ele>86.5</ele><time>2026-05-04T13:10:52.794Z</time></trkpt><trkpt lat="51.6373817" lon="-0.270405"><ele>87.0</ele><time>2026-05-04T13:10:53.794Z</time></trkpt><trkpt lat="51.6372617" lon="-0.27002"><ele>86.5</ele><time>2026-05-04T13:10:54.793Z</time></trkpt><trkpt lat="51.6371283" lon="-0.2696417"><ele>86.0</ele><time>2026-05-04T13:10:55.792Z</time></trkpt><trkpt lat="51.6369933" lon="-0.2692667"><ele>84.5</ele><time>2026-05-04T13:10:56.792Z</time></trkpt><trkpt lat="51.63685" lon="-0.2688983"><ele>83.0</ele><time>2026-05-04T13:10:57.791Z</time></trkpt><trkpt lat="51.6367" lon="-0.2685383"><ele>83.0</ele><time>2026-05-04T13:10:58.793Z</time></trkpt><trkpt lat="51.6365417" lon="-0.26819"><ele>83.0</ele><time>2026-05-04T13:10:59.793Z</time></trkpt><trkpt lat="51.636375" lon="-0.2678517"><ele>82.0</ele><time>2026-05-04T13:11:00.792Z</time></trkpt><trkpt lat="51.6362033" lon="-0.2675183"><ele>81.0</ele><time>2026-05-04T13:11:01.797Z</time></trkpt><trkpt lat="51.6360283" lon="-0.2671883"><ele>83.0</ele><time>2026-05-04T13:11:02.793Z</time></trkpt><trkpt lat="51.6358433" lon="-0.26687"><ele>85.0</ele><time>2026-05-04T13:11:03.791Z</time></trkpt><trkpt lat="51.6356517" lon="-0.2665617"><ele>85.0</ele><time>2026-05-04T13:11:04.792Z</time></trkpt><trkpt lat="51.6354567" lon="-0.2662617"><ele>85.0</ele><time>2026-05-04T13:11:05.793Z</time></trkpt><trkpt lat="51.635255" lon="-0.26597"><ele>83.5</ele><time>2026-05-04T13:11:06.792Z</time></trkpt><trkpt lat="51.63505" lon="-0.2656867"><ele>82.0</ele><time>2026-05-04T13:11:07.793Z</time></trkpt><trkpt lat="51.6348367" lon="-0.2654233"><ele>82.0</ele><time>2026-05-04T13:11:08.793Z</time></trkpt><trkpt lat="51.63463" lon="-0.2651667"><ele>82.0</ele><time>2026-05-04T13:11:09.793Z</time></trkpt><trkpt lat="51.63441" lon="-0.2649217"><ele>80.5</ele><time>2026-05-04T13:11:10.793Z</time></trkpt><trkpt lat="51.6341867" lon="-0.2646883"><ele>79.0</ele><time>2026-05-04T13:11:11.795Z</time></trkpt><trkpt lat="51.63395" lon="-0.26447"><ele>79.0</ele><time>2026-05-04T13:11:12.793Z</time></trkpt><trkpt lat="51.6337183" lon="-0.264255"><ele>79.0</ele><time>2026-05-04T13:11:13.794Z</time></trkpt><trkpt lat="51.633475" lon="-0.2640567"><ele>78.0</ele><time>2026-05-04T13:11:14.794Z</time></trkpt><trkpt lat="51.6332333" lon="-0.2638733"><ele>77.0</ele><time>2026-05-04T13:11:15.796Z</time></trkpt><trkpt lat="51.6329883" lon="-0.2637017"><ele>76.0</ele><time>2026-05-04T13:11:16.792Z</time></trkpt><trkpt lat="51.6327417" lon="-0.26354"><ele>75.0</ele><time>2026-05-04T13:11:17.793Z</time></trkpt><trkpt lat="51.632495" lon="-0.26339"><ele>75.0</ele><time>2026-05-04T13:11:18.792Z</time></trkpt><trkpt lat="51.6322367" lon="-0.26325"><ele>75.0</ele><time>2026-05-04T13:11:19.793Z</time></trkpt><trkpt lat="51.6319767" lon="-0.2631217"><ele>74.5</ele><time>2026-05-04T13:11:20.793Z</time></trkpt><trkpt lat="51.6317183" lon="-0.263005"><ele>74.0</ele><time>2026-05-04T13:11:21.792Z</time></trkpt><trkpt lat="51.6314617" lon="-0.2629"><ele>74.0</ele><time>2026-05-04T13:11:22.792Z</time></trkpt><trkpt lat="51.6312083" lon="-0.262805"><ele>74.0</ele><time>2026-05-04T13:11:23.792Z</time></trkpt><trkpt lat="51.63095" lon="-0.262725"><ele>73.5</ele><time>2026-05-04T13:11:24.792Z</time></trkpt><trkpt lat="51.63069" lon="-0.2626533"><ele>73.0</ele><time>2026-05-04T13:11:25.792Z</time></trkpt><trkpt lat="51.63043" lon="-0.26259"><ele>73.0</ele><time>2026-05-04T13:11:26.791Z</time></trkpt><trkpt lat="51.6301617" lon="-0.26254"><ele>73.0</ele><time>2026-05-04T13:11:27.792Z</time></trkpt><trkpt lat="51.6298917" lon="-0.2624917"><ele>73.0</ele><time>2026-05-04T13:11:28.792Z</time></trkpt><trkpt lat="51.6296183" lon="-0.262435"><ele>73.0</ele><time>2026-05-04T13:11:29.793Z</time></trkpt><trkpt lat="51.62935" lon="-0.2623783"><ele>72.5</ele><time>2026-05-04T13:11:30.793Z</time></trkpt><trkpt lat="51.6290817" lon="-0.2623217"><ele>72.0</ele><time>2026-05-04T13:11:31.793Z</time></trkpt><trkpt lat="51.628815" lon="-0.2622567"><ele>71.0</ele><time>2026-05-04T13:11:32.793Z</time></trkpt><trkpt lat="51.6285467" lon="-0.2621933"><ele>70.0</ele><time>2026-05-04T13:11:33.793Z</time></trkpt><trkpt lat="51.6282817" lon="-0.2621267"><ele>70.0</ele><time>2026-05-04T13:11:34.792Z</time></trkpt><trkpt lat="51.6280183" lon="-0.2620517"><ele>70.0</ele><time>2026-05-04T13:11:35.79Z</time></trkpt><trkpt lat="51.62776" lon="-0.2619617"><ele>70.5</ele><time>2026-05-04T13:11:36.793Z</time></trkpt><trkpt lat="51.6275017" lon="-0.2618583"><ele>71.0</ele><time>2026-05-04T13:11:37.793Z</time></trkpt><trkpt lat="51.627245" lon="-0.26174"><ele>71.0</ele><time>2026-05-04T13:11:38.793Z</time></trkpt><trkpt lat="51.626995" lon="-0.26161"><ele>71.0</ele><time>2026-05-04T13:11:39.793Z</time></trkpt><trkpt lat="51.6267417" lon="-0.26147"><ele>71.0</ele><time>2026-05-04T13:11:40.792Z</time></trkpt><trkpt lat="51.6264917" lon="-0.2613217"><ele>71.0</ele><time>2026-05-04T13:11:41.791Z</time></trkpt><trkpt lat="51.626245" lon="-0.261165"><ele>70.5</ele><time>2026-05-04T13:11:42.793Z</time></trkpt><trkpt lat="51.6260017" lon="-0.2609983"><ele>70.0</ele><time>2026-05-04T13:11:43.792Z</time></trkpt><trkpt lat="51.6257583" lon="-0.2608283"><ele>70.0</ele><time>2026-05-04T13:11:44.792Z</time></trkpt><trkpt lat="51.6255183" lon="-0.2606467"><ele>70.0</ele><time>2026-05-04T13:11:45.792Z</time></trkpt><trkpt lat="51.6252817" lon="-0.2604533"><ele>71.5</ele><time>2026-05-04T13:11:46.793Z</time></trkpt><trkpt lat="51.625045" lon="-0.2602483"><ele>73.0</ele><time>2026-05-04T13:11:47.793Z</time></trkpt><trkpt lat="51.6248117" lon="-0.2600367"><ele>73.0</ele><time>2026-05-04T13:11:48.79Z</time></trkpt><trkpt lat="51.6245783" lon="-0.2598233"><ele>73.0</ele><time>2026-05-04T13:11:49.793Z</time></trkpt><trkpt lat="51.6243467" lon="-0.259605"><ele>74.0</ele><time>2026-05-04T13:11:50.792Z</time></trkpt><trkpt lat="51.624115" lon="-0.2593817"><ele>75.0</ele><time>2026-05-04T13:11:51.791Z</time></trkpt><trkpt lat="51.623885" lon="-0.2591567"><ele>76.0</ele><time>2026-05-04T13:11:52.791Z</time></trkpt><trkpt lat="51.6236567" lon="-0.2589283"><ele>77.0</ele><time>2026-05-04T13:11:53.793Z</time></trkpt><trkpt lat="51.62343" lon="-0.2586983"><ele>77.0</ele><time>2026-05-04T13:11:54.793Z</time></trkpt><trkpt lat="51.6232033" lon="-0.2584733"><ele>77.0</ele><time>2026-05-04T13:11:55.793Z</time></trkpt><trkpt lat="51.622975" lon="-0.2582567"><ele>78.5</ele><time>2026-05-04T13:11:56.791Z</time></trkpt><trkpt lat="51.6227433" lon="-0.25803"><ele>80.0</ele><time>2026-05-04T13:11:57.79Z</time></trkpt><trkpt lat="51.622515" lon="-0.2578033"><ele>80.0</ele><time>2026-05-04T13:11:58.793Z</time></trkpt><trkpt lat="51.622285" lon="-0.2575783"><ele>80.0</ele><time>2026-05-04T13:11:59.792Z</time></trkpt><trkpt lat="51.622055" lon="-0.257355"><ele>80.0</ele><time>2026-05-04T13:12:00.795Z</time></trkpt><trkpt lat="51.6218233" lon="-0.2571333"><ele>80.0</ele><time>2026-05-04T13:12:01.793Z</time></trkpt><trkpt lat="51.6216" lon="-0.2569067"><ele>80.0</ele><time>2026-05-04T13:12:02.791Z</time></trkpt><trkpt lat="51.6213733" lon="-0.2566767"><ele>80.0</ele><time>2026-05-04T13:12:03.792Z</time></trkpt><trkpt lat="51.6211517" lon="-0.25644"><ele>80.5</ele><time>2026-05-04T13:12:04.792Z</time></trkpt><trkpt lat="51.6209233" lon="-0.2562133"><ele>81.0</ele><time>2026-05-04T13:12:05.793Z</time></trkpt><trkpt lat="51.6206983" lon="-0.255985"><ele>81.0</ele><time>2026-05-04T13:12:06.793Z</time></trkpt><trkpt lat="51.620475" lon="-0.2557483"><ele>81.0</ele><time>2026-05-04T13:12:07.793Z</time></trkpt><trkpt lat="51.62025" lon="-0.2555183"><ele>80.0</ele><time>2026-05-04T13:12:08.793Z</time></trkpt><trkpt lat="51.6200167" lon="-0.2552983"><ele>79.0</ele><time>2026-05-04T13:12:09.792Z</time></trkpt><trkpt lat="51.619785" lon="-0.25508"><ele>79.0</ele><time>2026-05-04T13:12:10.793Z</time></trkpt><trkpt lat="51.61956" lon="-0.2548483"><ele>79.0</ele><time>2026-05-04T13:12:11.79Z</time></trkpt><trkpt lat="51.6193233" lon="-0.254625"><ele>79.0</ele><time>2026-05-04T13:12:12.792Z</time></trkpt><trkpt lat="51.619095" lon="-0.2543933"><ele>79.0</ele><time>2026-05-04T13:12:13.793Z</time></trkpt><trkpt lat="51.6188633" lon="-0.2541683"><ele>77.5</ele><time>2026-05-04T13:12:14.792Z</time></trkpt><trkpt lat="51.6186317" lon="-0.253945"><ele>76.0</ele><time>2026-05-04T13:12:15.79Z</time></trkpt><trkpt lat="51.6184067" lon="-0.2537217"><ele>76.0</ele><time>2026-05-04T13:12:16.792Z</time></trkpt><trkpt lat="51.618175" lon="-0.2535033"><ele>76.0</ele><time>2026-05-04T13:12:17.792Z</time></trkpt><trkpt lat="51.6179467" lon="-0.2532817"><ele>76.0</ele><time>2026-05-04T13:12:18.792Z</time></trkpt><trkpt lat="51.6177167" lon="-0.25306"><ele>76.0</ele><time>2026-05-04T13:12:19.793Z</time></trkpt><trkpt lat="51.6174933" lon="-0.2528383"><ele>76.0</ele><time>2026-05-04T13:12:20.792Z</time></trkpt><trkpt lat="51.6172683" lon="-0.252615"><ele>76.0</ele><time>2026-05-04T13:12:21.793Z</time></trkpt><trkpt lat="51.6170417" lon="-0.25239"><ele>75.5</ele><time>2026-05-04T13:12:22.792Z</time></trkpt><trkpt lat="51.6168133" lon="-0.2521667"><ele>75.0</ele><time>2026-05-04T13:12:23.797Z</time></trkpt><trkpt lat="51.6165833" lon="-0.2519433"><ele>75.0</ele><time>2026-05-04T13:12:24.792Z</time></trkpt><trkpt lat="51.616355" lon="-0.2517167"><ele>75.0</ele><time>2026-05-04T13:12:25.793Z</time></trkpt><trkpt lat="51.6161283" lon="-0.2514883"><ele>73.5</ele><time>2026-05-04T13:12:26.793Z</time></trkpt><trkpt lat="51.6159017" lon="-0.2512583"><ele>72.0</ele><time>2026-05-04T13:12:27.79Z</time></trkpt><trkpt lat="51.6156717" lon="-0.25104"><ele>72.0</ele><time>2026-05-04T13:12:28.793Z</time></trkpt><trkpt lat="51.6154433" lon="-0.25082"><ele>72.0</ele><time>2026-05-04T13:12:29.792Z</time></trkpt><trkpt lat="51.615215" lon="-0.2506"><ele>70.5</ele><time>2026-05-04T13:12:30.79Z</time></trkpt><trkpt lat="51.61499" lon="-0.2503783"><ele>69.0</ele><time>2026-05-04T13:12:31.792Z</time></trkpt><trkpt lat="51.61476" lon="-0.250155"><ele>69.0</ele><time>2026-05-04T13:12:32.793Z</time></trkpt><trkpt lat="51.6145333" lon="-0.24993"><ele>69.0</ele><time>2026-05-04T13:12:33.791Z</time></trkpt><trkpt lat="51.614305" lon="-0.249705"><ele>68.0</ele><time>2026-05-04T13:12:34.79Z</time></trkpt><trkpt lat="51.6140783" lon="-0.2494767"><ele>67.0</ele><time>2026-05-04T13:12:35.793Z</time></trkpt><trkpt lat="51.6138517" lon="-0.249245"><ele>67.5</ele><time>2026-05-04T13:12:36.792Z</time></trkpt><trkpt lat="51.613625" lon="-0.2490167"><ele>68.0</ele><time>2026-05-04T13:12:37.793Z</time></trkpt><trkpt lat="51.6133983" lon="-0.2487933"><ele>68.0</ele><time>2026-05-04T13:12:38.792Z</time></trkpt><trkpt lat="51.6131733" lon="-0.2485717"><ele>68.0</ele><time>2026-05-04T13:12:39.791Z</time></trkpt><trkpt lat="51.61294" lon="-0.2483533"><ele>68.0</ele><time>2026-05-04T13:12:40.79Z</time></trkpt><trkpt lat="51.61271" lon="-0.24813"><ele>68.0</ele><time>2026-05-04T13:12:41.791Z</time></trkpt><trkpt lat="51.6124833" lon="-0.2479067"><ele>68.0</ele><time>2026-05-04T13:12:42.793Z</time></trkpt><trkpt lat="51.6122517" lon="-0.247685"><ele>68.0</ele><time>2026-05-04T13:12:43.792Z</time></trkpt><trkpt lat="51.612025" lon="-0.2474583"><ele>69.0</ele><time>2026-05-04T13:12:44.792Z</time></trkpt><trkpt lat="51.6117967" lon="-0.2472333"><ele>70.0</ele><time>2026-05-04T13:12:45.795Z</time></trkpt><trkpt lat="51.61157" lon="-0.247005"><ele>70.0</ele><time>2026-05-04T13:12:46.793Z</time></trkpt><trkpt lat="51.6113417" lon="-0.24678"><ele>70.0</ele><time>2026-05-04T13:12:47.791Z</time></trkpt><trkpt lat="51.6111183" lon="-0.2465533"><ele>69.5</ele><time>2026-05-04T13:12:48.793Z</time></trkpt><trkpt lat="51.6108883" lon="-0.2463333"><ele>69.0</ele><time>2026-05-04T13:12:49.793Z</time></trkpt><trkpt lat="51.6106583" lon="-0.2461117"><ele>69.0</ele><time>2026-05-04T13:12:50.79Z</time></trkpt><trkpt lat="51.61043" lon="-0.2458867"><ele>69.0</ele><time>2026-05-04T13:12:51.793Z</time></trkpt><trkpt lat="51.6102017" lon="-0.245665"><ele>67.0</ele><time>2026-05-04T13:12:52.793Z</time></trkpt><trkpt lat="51.60997" lon="-0.245445"><ele>65.0</ele><time>2026-05-04T13:12:53.791Z</time></trkpt><trkpt lat="51.6097367" lon="-0.245225"><ele>65.0</ele><time>2026-05-04T13:12:54.792Z</time></trkpt><trkpt lat="51.6095033" lon="-0.2450067"><ele>65.0</ele><time>2026-05-04T13:12:55.792Z</time></trkpt><trkpt lat="51.6092767" lon="-0.2447883"><ele>65.5</ele><time>2026-05-04T13:12:56.791Z</time></trkpt><trkpt lat="51.60905" lon="-0.24457"><ele>66.0</ele><time>2026-05-04T13:12:57.793Z</time></trkpt><trkpt lat="51.60882" lon="-0.2443467"><ele>66.0</ele><time>2026-05-04T13:12:58.793Z</time></trkpt><trkpt lat="51.6085917" lon="-0.2441233"><ele>66.0</ele><time>2026-05-04T13:12:59.792Z</time></trkpt><trkpt lat="51.6083633" lon="-0.2438983"><ele>66.0</ele><time>2026-05-04T13:13:00.791Z</time></trkpt><trkpt lat="51.6081317" lon="-0.2436733"><ele>66.0</ele><time>2026-05-04T13:13:01.79Z</time></trkpt><trkpt lat="51.6079017" lon="-0.243455"><ele>65.5</ele><time>2026-05-04T13:13:02.794Z</time></trkpt><trkpt lat="51.6076683" lon="-0.2432333"><ele>65.0</ele><time>2026-05-04T13:13:03.792Z</time></trkpt><trkpt lat="51.6074383" lon="-0.2430083"><ele>64.5</ele><time>2026-05-04T13:13:04.792Z</time></trkpt><trkpt lat="51.6072117" lon="-0.2427767"><ele>64.0</ele><time>2026-05-04T13:13:05.791Z</time></trkpt><trkpt lat="51.606985" lon="-0.242545"><ele>64.0</ele><time>2026-05-04T13:13:06.793Z</time></trkpt><trkpt lat="51.60676" lon="-0.2423183"><ele>64.0</ele><time>2026-05-04T13:13:07.793Z</time></trkpt><trkpt lat="51.6065317" lon="-0.2420933"><ele>65.5</ele><time>2026-05-04T13:13:08.792Z</time></trkpt><trkpt lat="51.6063083" lon="-0.2418667"><ele>67.0</ele><time>2026-05-04T13:13:09.791Z</time></trkpt><trkpt lat="51.60608" lon="-0.2416417"><ele>65.5</ele><time>2026-05-04T13:13:10.791Z</time></trkpt><trkpt lat="51.6058533" lon="-0.2414167"><ele>64.0</ele><time>2026-05-04T13:13:11.791Z</time></trkpt><trkpt lat="51.60562" lon="-0.24119"><ele>64.0</ele><time>2026-05-04T13:13:12.793Z</time></trkpt><trkpt lat="51.60539" lon="-0.240965"><ele>64.0</ele><time>2026-05-04T13:13:13.792Z</time></trkpt><trkpt lat="51.60516" lon="-0.24074"><ele>62.0</ele><time>2026-05-04T13:13:14.793Z</time></trkpt><trkpt lat="51.6049283" lon="-0.24052"><ele>60.0</ele><time>2026-05-04T13:13:15.792Z</time></trkpt><trkpt lat="51.6046983" lon="-0.2402967"><ele>59.5</ele><time>2026-05-04T13:13:16.792Z</time></trkpt><trkpt lat="51.6044683" lon="-0.2400717"><ele>59.0</ele><time>2026-05-04T13:13:17.794Z</time></trkpt><trkpt lat="51.60424" lon="-0.2398467"><ele>59.0</ele><time>2026-05-04T13:13:18.793Z</time></trkpt><trkpt lat="51.6040167" lon="-0.23962"><ele>59.0</ele><time>2026-05-04T13:13:19.794Z</time></trkpt><trkpt lat="51.6037917" lon="-0.239395"><ele>58.5</ele><time>2026-05-04T13:13:20.792Z</time></trkpt><trkpt lat="51.60356" lon="-0.2391767"><ele>58.0</ele><time>2026-05-04T13:13:21.792Z</time></trkpt><trkpt lat="51.6033233" lon="-0.238965"><ele>58.0</ele><time>2026-05-04T13:13:22.794Z</time></trkpt><trkpt lat="51.6030867" lon="-0.23876"><ele>58.0</ele><time>2026-05-04T13:13:23.793Z</time></trkpt><trkpt lat="51.6028517" lon="-0.23856"><ele>57.5</ele><time>2026-05-04T13:13:24.792Z</time></trkpt><trkpt lat="51.6026117" lon="-0.2383667"><ele>57.0</ele><time>2026-05-04T13:13:25.792Z</time></trkpt><trkpt lat="51.6023717" lon="-0.23818"><ele>57.5</ele><time>2026-05-04T13:13:26.792Z</time></trkpt><trkpt lat="51.6021317" lon="-0.238"><ele>58.0</ele><time>2026-05-04T13:13:27.791Z</time></trkpt><trkpt lat="51.6018933" lon="-0.2378267"><ele>58.5</ele><time>2026-05-04T13:13:28.795Z</time></trkpt><trkpt lat="51.6016517" lon="-0.2376617"><ele>59.0</ele><time>2026-05-04T13:13:29.792Z</time></trkpt><trkpt lat="51.601405" lon="-0.2375033"><ele>57.0</ele><time>2026-05-04T13:13:30.792Z</time></trkpt><trkpt lat="51.6011567" lon="-0.23734"><ele>55.0</ele><time>2026-05-04T13:13:31.794Z</time></trkpt><trkpt lat="51.6009117" lon="-0.2371833"><ele>55.0</ele><time>2026-05-04T13:13:32.792Z</time></trkpt><trkpt lat="51.6006617" lon="-0.2370317"><ele>55.0</ele><time>2026-05-04T13:13:33.792Z</time></trkpt><trkpt lat="51.6004117" lon="-0.236895"><ele>54.0</ele><time>2026-05-04T13:13:34.792Z</time></trkpt><trkpt lat="51.6001567" lon="-0.2367633"><ele>53.0</ele><time>2026-05-04T13:13:35.793Z</time></trkpt><trkpt lat="51.5998967" lon="-0.2366433"><ele>53.0</ele><time>2026-05-04T13:13:36.793Z</time></trkpt><trkpt lat="51.5996383" lon="-0.2365267"><ele>53.0</ele><time>2026-05-04T13:13:37.793Z</time></trkpt><trkpt lat="51.59938" lon="-0.2364133"><ele>53.0</ele><time>2026-05-04T13:13:38.792Z</time></trkpt><trkpt lat="51.5991167" lon="-0.2363033"><ele>53.0</ele><time>2026-05-04T13:13:39.793Z</time></trkpt><trkpt lat="51.59886" lon="-0.2362"><ele>52.5</ele><time>2026-05-04T13:13:40.794Z</time></trkpt><trkpt lat="51.598595" lon="-0.2361067"><ele>52.0</ele><time>2026-05-04T13:13:41.792Z</time></trkpt><trkpt lat="51.5983317" lon="-0.2360217"><ele>52.0</ele><time>2026-05-04T13:13:42.793Z</time></trkpt><trkpt lat="51.59807" lon="-0.23594"><ele>52.0</ele><time>2026-05-04T13:13:43.793Z</time></trkpt><trkpt lat="51.5978117" lon="-0.2358633"><ele>52.5</ele><time>2026-05-04T13:13:44.793Z</time></trkpt><trkpt lat="51.5975483" lon="-0.2357933"><ele>53.0</ele><time>2026-05-04T13:13:45.793Z</time></trkpt><trkpt lat="51.5972833" lon="-0.2357317"><ele>53.0</ele><time>2026-05-04T13:13:46.793Z</time></trkpt><trkpt lat="51.5970183" lon="-0.2356767"><ele>53.0</ele><time>2026-05-04T13:13:47.792Z</time></trkpt><trkpt lat="51.5967517" lon="-0.2356267"><ele>53.5</ele><time>2026-05-04T13:13:48.793Z</time></trkpt><trkpt lat="51.5964833" lon="-0.2355867"><ele>54.0</ele><time>2026-05-04T13:13:49.793Z</time></trkpt><trkpt lat="51.5962183" lon="-0.23555"><ele>55.5</ele><time>2026-05-04T13:13:50.793Z</time></trkpt><trkpt lat="51.595955" lon="-0.2355183"><ele>57.0</ele><time>2026-05-04T13:13:51.793Z</time></trkpt><trkpt lat="51.59569" lon="-0.2354983"><ele>57.0</ele><time>2026-05-04T13:13:52.793Z</time></trkpt><trkpt lat="51.5954233" lon="-0.2354867"><ele>57.0</ele><time>2026-05-04T13:13:53.793Z</time></trkpt><trkpt lat="51.59516" lon="-0.23548"><ele>56.0</ele><time>2026-05-04T13:13:54.793Z</time></trkpt><trkpt lat="51.5948917" lon="-0.23548"><ele>55.0</ele><time>2026-05-04T13:13:55.794Z</time></trkpt><trkpt lat="51.5946217" lon="-0.23549"><ele>56.0</ele><time>2026-05-04T13:13:56.794Z</time></trkpt><trkpt lat="51.5943533" lon="-0.2354983"><ele>57.0</ele><time>2026-05-04T13:13:57.791Z</time></trkpt><trkpt lat="51.59409" lon="-0.2355133"><ele>57.0</ele><time>2026-05-04T13:13:58.792Z</time></trkpt><trkpt lat="51.5938233" lon="-0.2355333"><ele>57.0</ele><time>2026-05-04T13:13:59.792Z</time></trkpt><trkpt lat="51.5935583" lon="-0.2355667"><ele>57.0</ele><time>2026-05-04T13:14:00.792Z</time></trkpt><trkpt lat="51.59329" lon="-0.2356133"><ele>57.0</ele><time>2026-05-04T13:14:01.792Z</time></trkpt><trkpt lat="51.5930233" lon="-0.2356633"><ele>56.5</ele><time>2026-05-04T13:14:02.793Z</time></trkpt><trkpt lat="51.592755" lon="-0.2357183"><ele>56.0</ele><time>2026-05-04T13:14:03.792Z</time></trkpt><trkpt lat="51.5924883" lon="-0.2357783"><ele>56.0</ele><time>2026-05-04T13:14:04.793Z</time></trkpt><trkpt lat="51.5922217" lon="-0.2358433"><ele>56.0</ele><time>2026-05-04T13:14:05.792Z</time></trkpt><trkpt lat="51.591955" lon="-0.235925"><ele>57.0</ele><time>2026-05-04T13:14:06.792Z</time></trkpt><trkpt lat="51.5916917" lon="-0.23601"><ele>58.0</ele><time>2026-05-04T13:14:07.792Z</time></trkpt><trkpt lat="51.5914283" lon="-0.2361"><ele>59.0</ele><time>2026-05-04T13:14:08.792Z</time></trkpt><trkpt lat="51.5911683" lon="-0.2361917"><ele>60.0</ele><time>2026-05-04T13:14:09.793Z</time></trkpt><trkpt lat="51.5909083" lon="-0.23629"><ele>60.0</ele><time>2026-05-04T13:14:10.793Z</time></trkpt><trkpt lat="51.5906467" lon="-0.2363983"><ele>60.0</ele><time>2026-05-04T13:14:11.791Z</time></trkpt><trkpt lat="51.590385" lon="-0.2365133"><ele>59.5</ele><time>2026-05-04T13:14:12.793Z</time></trkpt><trkpt lat="51.590125" lon="-0.2366317"><ele>59.0</ele><time>2026-05-04T13:14:13.793Z</time></trkpt><trkpt lat="51.589865" lon="-0.2367567"><ele>59.0</ele><time>2026-05-04T13:14:14.792Z</time></trkpt><trkpt lat="51.58961" lon="-0.2368817"><ele>59.0</ele><time>2026-05-04T13:14:15.793Z</time></trkpt><trkpt lat="51.5893533" lon="-0.2370067"><ele>60.5</ele><time>2026-05-04T13:14:16.794Z</time></trkpt><trkpt lat="51.5890967" lon="-0.2371233"><ele>62.0</ele><time>2026-05-04T13:14:17.793Z</time></trkpt><trkpt lat="51.5888383" lon="-0.2372383"><ele>60.5</ele><time>2026-05-04T13:14:18.793Z</time></trkpt><trkpt lat="51.5885833" lon="-0.2373533"><ele>59.0</ele><time>2026-05-04T13:14:19.796Z</time></trkpt><trkpt lat="51.5883267" lon="-0.2374667"><ele>59.0</ele><time>2026-05-04T13:14:20.793Z</time></trkpt><trkpt lat="51.5880717" lon="-0.2375717"><ele>59.0</ele><time>2026-05-04T13:14:21.792Z</time></trkpt><trkpt lat="51.5878133" lon="-0.2376783"><ele>59.5</ele><time>2026-05-04T13:14:22.792Z</time></trkpt><trkpt lat="51.5875517" lon="-0.237775"><ele>60.0</ele><time>2026-05-04T13:14:23.794Z</time></trkpt><trkpt lat="51.5872867" lon="-0.237865"><ele>60.0</ele><time>2026-05-04T13:14:24.792Z</time></trkpt><trkpt lat="51.58702" lon="-0.23795"><ele>60.0</ele><time>2026-05-04T13:14:25.792Z</time></trkpt><trkpt lat="51.5867567" lon="-0.2380183"><ele>61.0</ele><time>2026-05-04T13:14:26.793Z</time></trkpt><trkpt lat="51.5864917" lon="-0.2380967"><ele>62.0</ele><time>2026-05-04T13:14:27.793Z</time></trkpt><trkpt lat="51.58623" lon="-0.2381683"><ele>60.0</ele><time>2026-05-04T13:14:28.792Z</time></trkpt><trkpt lat="51.5859667" lon="-0.238235"><ele>58.0</ele><time>2026-05-04T13:14:29.792Z</time></trkpt><trkpt lat="51.585705" lon="-0.2383017"><ele>58.0</ele><time>2026-05-04T13:14:30.792Z</time></trkpt><trkpt lat="51.58544" lon="-0.2383583"><ele>58.0</ele><time>2026-05-04T13:14:31.792Z</time></trkpt><trkpt lat="51.585175" lon="-0.2384067"><ele>58.5</ele><time>2026-05-04T13:14:32.793Z</time></trkpt><trkpt lat="51.5849117" lon="-0.2384433"><ele>59.0</ele><time>2026-05-04T13:14:33.791Z</time></trkpt><trkpt lat="51.5846417" lon="-0.2384783"><ele>59.5</ele><time>2026-05-04T13:14:34.792Z</time></trkpt><trkpt lat="51.58437" lon="-0.2385083"><ele>60.0</ele><time>2026-05-04T13:14:35.792Z</time></trkpt><trkpt lat="51.5840983" lon="-0.2385367"><ele>60.0</ele><time>2026-05-04T13:14:36.793Z</time></trkpt><trkpt lat="51.58383" lon="-0.2385583"><ele>60.0</ele><time>2026-05-04T13:14:37.792Z</time></trkpt><trkpt lat="51.58356" lon="-0.238585"><ele>58.0</ele><time>2026-05-04T13:14:38.793Z</time></trkpt><trkpt lat="51.583295" lon="-0.238605"><ele>56.0</ele><time>2026-05-04T13:14:39.796Z</time></trkpt><trkpt lat="51.5830283" lon="-0.2386233"><ele>57.0</ele><time>2026-05-04T13:14:40.793Z</time></trkpt><trkpt lat="51.5827633" lon="-0.2386317"><ele>58.0</ele><time>2026-05-04T13:14:41.793Z</time></trkpt><trkpt lat="51.5824967" lon="-0.2386283"><ele>58.0</ele><time>2026-05-04T13:14:42.792Z</time></trkpt><trkpt lat="51.5822317" lon="-0.23861"><ele>58.0</ele><time>2026-05-04T13:14:43.793Z</time></trkpt><trkpt lat="51.5819633" lon="-0.2385867"><ele>57.5</ele><time>2026-05-04T13:14:44.792Z</time></trkpt><trkpt lat="51.581695" lon="-0.238545"><ele>57.0</ele><time>2026-05-04T13:14:45.792Z</time></trkpt><trkpt lat="51.5814317" lon="-0.2384883"><ele>58.0</ele><time>2026-05-04T13:14:46.793Z</time></trkpt><trkpt lat="51.581165" lon="-0.2384333"><ele>59.0</ele><time>2026-05-04T13:14:47.793Z</time></trkpt><trkpt lat="51.5809" lon="-0.2383683"><ele>59.0</ele><time>2026-05-04T13:14:48.792Z</time></trkpt><trkpt lat="51.5806333" lon="-0.2383067"><ele>59.0</ele><time>2026-05-04T13:14:49.793Z</time></trkpt><trkpt lat="51.5803667" lon="-0.2382367"><ele>58.0</ele><time>2026-05-04T13:14:50.793Z</time></trkpt><trkpt lat="51.5801033" lon="-0.238155"><ele>57.0</ele><time>2026-05-04T13:14:51.793Z</time></trkpt><trkpt lat="51.579845" lon="-0.2380617"><ele>56.0</ele><time>2026-05-04T13:14:52.793Z</time></trkpt><trkpt lat="51.579585" lon="-0.23795"><ele>55.0</ele><time>2026-05-04T13:14:53.794Z</time></trkpt><trkpt lat="51.579335" lon="-0.2378267"><ele>55.0</ele><time>2026-05-04T13:14:54.793Z</time></trkpt><trkpt lat="51.5790783" lon="-0.2377067"><ele>55.0</ele><time>2026-05-04T13:14:55.793Z</time></trkpt><trkpt lat="51.5788217" lon="-0.23758"><ele>54.0</ele><time>2026-05-04T13:14:56.793Z</time></trkpt><trkpt lat="51.5785733" lon="-0.237445"><ele>53.0</ele><time>2026-05-04T13:14:57.792Z</time></trkpt><trkpt lat="51.578325" lon="-0.237305"><ele>55.0</ele><time>2026-05-04T13:14:58.792Z</time></trkpt><trkpt lat="51.5780767" lon="-0.2371633"><ele>57.0</ele><time>2026-05-04T13:14:59.793Z</time></trkpt><trkpt lat="51.57783" lon="-0.2370183"><ele>57.0</ele><time>2026-05-04T13:15:00.792Z</time></trkpt><trkpt lat="51.577585" lon="-0.23686"><ele>57.0</ele><time>2026-05-04T13:15:01.793Z</time></trkpt><trkpt lat="51.577335" lon="-0.2366933"><ele>57.0</ele><time>2026-05-04T13:15:02.793Z</time></trkpt><trkpt lat="51.57709" lon="-0.2365217"><ele>57.0</ele><time>2026-05-04T13:15:03.791Z</time></trkpt><trkpt lat="51.5768467" lon="-0.236335"><ele>57.0</ele><time>2026-05-04T13:15:04.793Z</time></trkpt><trkpt lat="51.5766133" lon="-0.2361317"><ele>57.0</ele><time>2026-05-04T13:15:05.793Z</time></trkpt><trkpt lat="51.57638" lon="-0.2359183"><ele>56.0</ele><time>2026-05-04T13:15:06.795Z</time></trkpt><trkpt lat="51.576165" lon="-0.2356867"><ele>55.0</ele><time>2026-05-04T13:15:07.792Z</time></trkpt><trkpt lat="51.5759583" lon="-0.2354567"><ele>55.0</ele><time>2026-05-04T13:15:08.793Z</time></trkpt><trkpt lat="51.575765" lon="-0.2352333"><ele>55.0</ele><time>2026-05-04T13:15:09.792Z</time></trkpt><trkpt lat="51.5755783" lon="-0.2350183"><ele>55.33333333333333</ele><time>2026-05-04T13:15:10.793Z</time></trkpt><trkpt lat="51.5753983" lon="-0.2348033"><ele>55.66666666666667</ele><time>2026-05-04T13:15:11.791Z</time></trkpt><trkpt lat="51.5752333" lon="-0.2345783"><ele>56.0</ele><time>2026-05-04T13:15:12.793Z</time></trkpt><trkpt lat="51.575075" lon="-0.2343417"><ele>54.66666666666667</ele><time>2026-05-04T13:15:13.793Z</time></trkpt><trkpt lat="51.5749217" lon="-0.2340933"><ele>53.33333333333333</ele><time>2026-05-04T13:15:14.793Z</time></trkpt><trkpt lat="51.5747733" lon="-0.233835"><ele>52.0</ele><time>2026-05-04T13:15:15.792Z</time></trkpt><trkpt lat="51.5746217" lon="-0.2335683"><ele>51.33333333333333</ele><time>2026-05-04T13:15:16.792Z</time></trkpt><trkpt lat="51.5744767" lon="-0.2333017"><ele>50.66666666666667</ele><time>2026-05-04T13:15:17.793Z</time></trkpt><trkpt lat="51.574335" lon="-0.2330383"><ele>50.0</ele><time>2026-05-04T13:15:18.792Z</time></trkpt><trkpt lat="51.57421" lon="-0.2327833"><ele>50.0</ele><time>2026-05-04T13:15:19.794Z</time></trkpt><trkpt lat="51.574095" lon="-0.23254"><ele>50.0</ele><time>2026-05-04T13:15:20.792Z</time></trkpt><trkpt lat="51.5739883" lon="-0.2323033"><ele>50.0</ele><time>2026-05-04T13:15:21.793Z</time></trkpt><trkpt lat="51.5738883" lon="-0.2320783"><ele>49.66666666666667</ele><time>2026-05-04T13:15:22.793Z</time></trkpt><trkpt lat="51.573785" lon="-0.2318617"><ele>49.33333333333333</ele><time>2026-05-04T13:15:23.793Z</time></trkpt><trkpt lat="51.5736933" lon="-0.2316517"><ele>49.0</ele><time>2026-05-04T13:15:24.792Z</time></trkpt><trkpt lat="51.5736083" lon="-0.2314417"><ele>47.25</ele><time>2026-05-04T13:15:25.793Z</time></trkpt><trkpt lat="51.5735317" lon="-0.2312317"><ele>45.5</ele><time>2026-05-04T13:15:26.793Z</time></trkpt><trkpt lat="51.57346" lon="-0.2310233"><ele>43.75</ele><time>2026-05-04T13:15:27.793Z</time></trkpt><trkpt lat="51.5734033" lon="-0.230825"><ele>42.0</ele><time>2026-05-04T13:15:28.793Z</time></trkpt><trkpt lat="51.5733483" lon="-0.2306317"><ele>41.5</ele><time>2026-05-04T13:15:29.793Z</time></trkpt><trkpt lat="51.573295" lon="-0.2304467"><ele>41.0</ele><time>2026-05-04T13:15:30.793Z</time></trkpt><trkpt lat="51.57325" lon="-0.2302683"><ele>40.5</ele><time>2026-05-04T13:15:31.793Z</time></trkpt><trkpt lat="51.5732083" lon="-0.2301033"><ele>40.0</ele><time>2026-05-04T13:15:32.792Z</time></trkpt><trkpt lat="51.57318" lon="-0.229955"><ele>40.0</ele><time>2026-05-04T13:15:33.793Z</time></trkpt><trkpt lat="51.5731583" lon="-0.2298283"><ele>40.0</ele><time>2026-05-04T13:15:34.792Z</time></trkpt><trkpt lat="51.5731417" lon="-0.2296633"><ele>40.0</ele><time>2026-05-04T13:15:36.792Z</time></trkpt><trkpt lat="51.5731383" lon="-0.229545"><ele>40.0</ele><time>2026-05-04T13:15:45.793Z</time></trkpt><trkpt lat="51.5731283" lon="-0.2294133"><ele>40.0</ele><time>2026-05-04T13:15:46.791Z</time></trkpt><trkpt lat="51.573115" lon="-0.2292567"><ele>40.0</ele><time>2026-05-04T13:15:47.794Z</time></trkpt><trkpt lat="51.5730883" lon="-0.2290617"><ele>40.5</ele><time>2026-05-04T13:15:48.791Z</time></trkpt><trkpt lat="51.5730667" lon="-0.22887"><ele>41.0</ele><time>2026-05-04T13:15:49.792Z</time></trkpt><trkpt lat="51.57304" lon="-0.2286717"><ele>41.5</ele><time>2026-05-04T13:15:50.792Z</time></trkpt><trkpt lat="51.573015" lon="-0.2284767"><ele>42.0</ele><time>2026-05-04T13:15:51.793Z</time></trkpt><trkpt lat="51.5729967" lon="-0.2283"><ele>41.8</ele><time>2026-05-04T13:15:52.793Z</time></trkpt><trkpt lat="51.5729683" lon="-0.2281333"><ele>41.6</ele><time>2026-05-04T13:15:53.792Z</time></trkpt><trkpt lat="51.5729383" lon="-0.2279817"><ele>41.4</ele><time>2026-05-04T13:15:54.792Z</time></trkpt><trkpt lat="51.5729033" lon="-0.227835"><ele>41.199999999999996</ele><time>2026-05-04T13:15:55.793Z</time></trkpt><trkpt lat="51.5728533" lon="-0.2277"><ele>41.0</ele><time>2026-05-04T13:15:56.792Z</time></trkpt><trkpt lat="51.5727867" lon="-0.2275817"><ele>41.8</ele><time>2026-05-04T13:15:57.793Z</time></trkpt><trkpt lat="51.5727033" lon="-0.2275"><ele>42.599999999999994</ele><time>2026-05-04T13:15:58.793Z</time></trkpt><trkpt lat="51.572615" lon="-0.227445"><ele>43.4</ele><time>2026-05-04T13:15:59.794Z</time></trkpt><trkpt lat="51.5725133" lon="-0.2274183"><ele>44.2</ele><time>2026-05-04T13:16:00.791Z</time></trkpt><trkpt lat="51.5724083" lon="-0.227435"><ele>45.0</ele><time>2026-05-04T13:16:01.794Z</time></trkpt><trkpt lat="51.5723067" lon="-0.2274683"><ele>45.0</ele><time>2026-05-04T13:16:02.793Z</time></trkpt><trkpt lat="51.5722033" lon="-0.2275067"><ele>45.0</ele><time>2026-05-04T13:16:03.792Z</time></trkpt><trkpt lat="51.5720983" lon="-0.22755"><ele>45.0</ele><time>2026-05-04T13:16:04.792Z</time></trkpt><trkpt lat="51.5719967" lon="-0.2275967"><ele>45.0</ele><time>2026-05-04T13:16:05.792Z</time></trkpt><trkpt lat="51.5718983" lon="-0.227655"><ele>45.0</ele><time>2026-05-04T13:16:06.793Z</time></trkpt><trkpt lat="51.571805" lon="-0.2277217"><ele>45.0</ele><time>2026-05-04T13:16:07.793Z</time></trkpt><trkpt lat="51.57172" lon="-0.2277967"><ele>45.0</ele><time>2026-05-04T13:16:08.792Z</time></trkpt><trkpt lat="51.5716567" lon="-0.2278783"><ele>45.0</ele><time>2026-05-04T13:16:09.793Z</time></trkpt><trkpt lat="51.5716067" lon="-0.227965"><ele>45.0</ele><time>2026-05-04T13:16:10.793Z</time></trkpt><trkpt lat="51.57157" lon="-0.228055"><ele>45.0</ele><time>2026-05-04T13:16:11.792Z</time></trkpt><trkpt lat="51.5715433" lon="-0.228155"><ele>45.0</ele><time>2026-05-04T13:16:12.793Z</time></trkpt><trkpt lat="51.5715233" lon="-0.2282717"><ele>45.0</ele><time>2026-05-04T13:16:13.793Z</time></trkpt><trkpt lat="51.571515" lon="-0.2283983"><ele>45.0</ele><time>2026-05-04T13:16:14.793Z</time></trkpt><trkpt lat="51.5715117" lon="-0.228525"><ele>45.0</ele><time>2026-05-04T13:16:15.793Z</time></trkpt><trkpt lat="51.57152" lon="-0.2286567"><ele>45.0</ele><time>2026-05-04T13:16:16.793Z</time></trkpt><trkpt lat="51.57154" lon="-0.228785"><ele>45.0</ele><time>2026-05-04T13:16:17.793Z</time></trkpt><trkpt lat="51.5715767" lon="-0.2289183"><ele>45.0</ele><time>2026-05-04T13:16:18.792Z</time></trkpt><trkpt lat="51.5716167" lon="-0.22904"><ele>45.0</ele><time>2026-05-04T13:16:19.793Z</time></trkpt><trkpt lat="51.57166" lon="-0.229155"><ele>45.0</ele><time>2026-05-04T13:16:20.793Z</time></trkpt><trkpt lat="51.5717033" lon="-0.2292683"><ele>45.0</ele><time>2026-05-04T13:16:21.793Z</time></trkpt><trkpt lat="51.57175" lon="-0.2293833"><ele>45.0</ele><time>2026-05-04T13:16:22.793Z</time></trkpt><trkpt lat="51.5717933" lon="-0.2294967"><ele>45.0</ele><time>2026-05-04T13:16:23.792Z</time></trkpt><trkpt lat="51.5718367" lon="-0.2296017"><ele>45.0</ele><time>2026-05-04T13:16:24.793Z</time></trkpt><trkpt lat="51.5718767" lon="-0.229695"><ele>45.0</ele><time>2026-05-04T13:16:25.793Z</time></trkpt><trkpt lat="51.57191" lon="-0.2297883"><ele>45.0</ele><time>2026-05-04T13:16:26.793Z</time></trkpt><trkpt lat="51.57192" lon="-0.2298917"><ele>45.0</ele><time>2026-05-04T13:16:27.792Z</time></trkpt><trkpt lat="51.571915" lon="-0.2300883"><ele>45.0</ele><time>2026-05-04T13:16:29.793Z</time></trkpt><trkpt lat="51.5718983" lon="-0.2302767"><ele>45.0</ele><time>2026-05-04T13:16:31.793Z</time></trkpt><trkpt lat="51.5718583" lon="-0.2304233"><ele>45.166666666666664</ele><time>2026-05-04T13:16:33.791Z</time></trkpt><trkpt lat="51.5717983" lon="-0.23057"><ele>45.333333333333336</ele><time>2026-05-04T13:16:35.793Z</time></trkpt><trkpt lat="51.5717267" lon="-0.2307233"><ele>45.5</ele><time>2026-05-04T13:16:37.793Z</time></trkpt><trkpt lat="51.5716783" lon="-0.230815"><ele>45.66666666666667</ele><time>2026-05-04T13:16:38.794Z</time></trkpt><trkpt lat="51.5716367" lon="-0.2309"><ele>45.833333333333336</ele><time>2026-05-04T13:16:39.796Z</time></trkpt><trkpt lat="51.571595" lon="-0.2309933"><ele>46.0</ele><time>2026-05-04T13:16:40.793Z</time></trkpt><trkpt lat="51.5715533" lon="-0.2310833"><ele>46.0</ele><time>2026-05-04T13:16:41.793Z</time></trkpt><trkpt lat="51.5714983" lon="-0.2311817"><ele>46.0</ele><time>2026-05-04T13:16:43.793Z</time></trkpt><trkpt lat="51.5714367" lon="-0.2312233"><ele>46.0</ele><time>2026-05-04T13:17:08.792Z</time></trkpt><trkpt lat="51.57135" lon="-0.231265"><ele>46.0</ele><time>2026-05-04T13:17:10.791Z</time></trkpt><trkpt lat="51.5712733" lon="-0.2313017"><ele>46.0</ele><time>2026-05-04T13:17:11.792Z</time></trkpt><trkpt lat="51.57112" lon="-0.231385"><ele>46.25</ele><time>2026-05-04T13:17:12.793Z</time></trkpt><trkpt lat="51.5709867" lon="-0.2313733"><ele>46.5</ele><time>2026-05-04T13:17:13.796Z</time></trkpt><trkpt lat="51.5708733" lon="-0.2313567"><ele>46.75</ele><time>2026-05-04T13:17:14.793Z</time></trkpt><trkpt lat="51.5707617" lon="-0.2313217"><ele>47.0</ele><time>2026-05-04T13:17:15.793Z</time></trkpt><trkpt lat="51.5706517" lon="-0.2312633"><ele>47.0</ele><time>2026-05-04T13:17:16.792Z</time></trkpt><trkpt lat="51.5705533" lon="-0.231205"><ele>47.0</ele><time>2026-05-04T13:17:17.793Z</time></trkpt><trkpt lat="51.5704617" lon="-0.2311383"><ele>47.0</ele><time>2026-05-04T13:17:18.793Z</time></trkpt><trkpt lat="51.570385" lon="-0.231085"><ele>47.0</ele><time>2026-05-04T13:17:19.792Z</time></trkpt><trkpt lat="51.5703283" lon="-0.2310217"><ele>47.0</ele><time>2026-05-04T13:17:20.793Z</time></trkpt><trkpt lat="51.5702333" lon="-0.230945"><ele>47.166666666666664</ele><time>2026-05-04T13:17:22.792Z</time></trkpt><trkpt lat="51.5701683" lon="-0.230905"><ele>47.33333333333333</ele><time>2026-05-04T13:17:24.792Z</time></trkpt><trkpt lat="51.5700633" lon="-0.2308083"><ele>47.5</ele><time>2026-05-04T13:17:37.792Z</time></trkpt><trkpt lat="51.5699933" lon="-0.2307383"><ele>47.666666666666664</ele><time>2026-05-04T13:17:38.793Z</time></trkpt><trkpt lat="51.5699283" lon="-0.2306583"><ele>47.833333333333336</ele><time>2026-05-04T13:17:39.793Z</time></trkpt><trkpt lat="51.5698533" lon="-0.230575"><ele>48.0</ele><time>2026-05-04T13:17:40.793Z</time></trkpt><trkpt lat="51.5697733" lon="-0.2304833"><ele>48.0</ele><time>2026-05-04T13:17:41.793Z</time></trkpt><trkpt lat="51.56969" lon="-0.2303867"><ele>48.0</ele><time>2026-05-04T13:17:42.793Z</time></trkpt><trkpt lat="51.5696" lon="-0.2302833"><ele>48.0</ele><time>2026-05-04T13:17:43.793Z</time></trkpt><trkpt lat="51.5695067" lon="-0.230185"><ele>48.0</ele><time>2026-05-04T13:17:44.792Z</time></trkpt><trkpt lat="51.5694133" lon="-0.23008"><ele>48.0</ele><time>2026-05-04T13:17:45.792Z</time></trkpt><trkpt lat="51.56932" lon="-0.22997"><ele>48.25</ele><time>2026-05-04T13:17:46.792Z</time></trkpt><trkpt lat="51.5692183" lon="-0.2298617"><ele>48.5</ele><time>2026-05-04T13:17:47.793Z</time></trkpt><trkpt lat="51.5691183" lon="-0.2297517"><ele>48.75</ele><time>2026-05-04T13:17:48.792Z</time></trkpt><trkpt lat="51.5690233" lon="-0.2296333"><ele>49.0</ele><time>2026-05-04T13:17:49.793Z</time></trkpt><trkpt lat="51.5689367" lon="-0.2295283"><ele>49.0</ele><time>2026-05-04T13:17:50.793Z</time></trkpt><trkpt lat="51.5688567" lon="-0.2294283"><ele>49.0</ele><time>2026-05-04T13:17:51.794Z</time></trkpt><trkpt lat="51.5687717" lon="-0.2293317"><ele>49.0</ele><time>2026-05-04T13:17:52.793Z</time></trkpt><trkpt lat="51.5686867" lon="-0.229235"><ele>49.0</ele><time>2026-05-04T13:17:53.792Z</time></trkpt><trkpt lat="51.5685917" lon="-0.2291283"><ele>49.0</ele><time>2026-05-04T13:17:54.792Z</time></trkpt><trkpt lat="51.5684883" lon="-0.2290133"><ele>49.5</ele><time>2026-05-04T13:17:55.796Z</time></trkpt><trkpt lat="51.5683817" lon="-0.2288983"><ele>50.0</ele><time>2026-05-04T13:17:56.792Z</time></trkpt><trkpt lat="51.5682667" lon="-0.2287833"><ele>50.5</ele><time>2026-05-04T13:17:57.793Z</time></trkpt><trkpt lat="51.5681467" lon="-0.2286683"><ele>51.0</ele><time>2026-05-04T13:17:58.792Z</time></trkpt><trkpt lat="51.5680317" lon="-0.2285483"><ele>51.0</ele><time>2026-05-04T13:17:59.792Z</time></trkpt><trkpt lat="51.5679183" lon="-0.2284167"><ele>51.0</ele><time>2026-05-04T13:18:00.793Z</time></trkpt><trkpt lat="51.5678117" lon="-0.228275"><ele>51.0</ele><time>2026-05-04T13:18:01.792Z</time></trkpt><trkpt lat="51.5677117" lon="-0.2281267"><ele>51.0</ele><time>2026-05-04T13:18:02.795Z</time></trkpt><trkpt lat="51.5676117" lon="-0.2279717"><ele>51.25</ele><time>2026-05-04T13:18:03.791Z</time></trkpt><trkpt lat="51.567515" lon="-0.2278167"><ele>51.5</ele><time>2026-05-04T13:18:04.795Z</time></trkpt><trkpt lat="51.5674183" lon="-0.2276667"><ele>51.75</ele><time>2026-05-04T13:18:05.793Z</time></trkpt><trkpt lat="51.567335" lon="-0.2275233"><ele>52.0</ele><time>2026-05-04T13:18:06.792Z</time></trkpt><trkpt lat="51.5672517" lon="-0.2273867"><ele>52.400000000000006</ele><time>2026-05-04T13:18:07.792Z</time></trkpt><trkpt lat="51.5671683" lon="-0.2272533"><ele>52.800000000000004</ele><time>2026-05-04T13:18:08.793Z</time></trkpt><trkpt lat="51.5670917" lon="-0.2271267"><ele>53.2</ele><time>2026-05-04T13:18:09.793Z</time></trkpt><trkpt lat="51.567015" lon="-0.22701"><ele>53.6</ele><time>2026-05-04T13:18:10.793Z</time></trkpt><trkpt lat="51.566945" lon="-0.226905"><ele>54.0</ele><time>2026-05-04T13:18:11.792Z</time></trkpt><trkpt lat="51.5668783" lon="-0.2268083"><ele>54.2</ele><time>2026-05-04T13:18:12.793Z</time></trkpt><trkpt lat="51.56682" lon="-0.2267217"><ele>54.400000000000006</ele><time>2026-05-04T13:18:13.794Z</time></trkpt><trkpt lat="51.5667717" lon="-0.2266433"><ele>54.6</ele><time>2026-05-04T13:18:14.794Z</time></trkpt><trkpt lat="51.5666883" lon="-0.2265117"><ele>54.8</ele><time>2026-05-04T13:18:16.793Z</time></trkpt><trkpt lat="51.5666217" lon="-0.226415"><ele>55.0</ele><time>2026-05-04T13:18:18.794Z</time></trkpt><trkpt lat="51.56181" lon="-0.2207683"><ele>54.25</ele><time>2026-05-04T13:20:16.791Z</time></trkpt><trkpt lat="51.5617183" lon="-0.2207117"><ele>53.5</ele><time>2026-05-04T13:20:17.791Z</time></trkpt><trkpt lat="51.56157" lon="-0.2205783"><ele>52.75</ele><time>2026-05-04T13:20:19.792Z</time></trkpt><trkpt lat="51.561495" lon="-0.2205067"><ele>52.0</ele><time>2026-05-04T13:20:20.792Z</time></trkpt><trkpt lat="51.5613183" lon="-0.2203717"><ele>52.0</ele><time>2026-05-04T13:20:22.792Z</time></trkpt><trkpt lat="51.5612333" lon="-0.2203133"><ele>52.0</ele><time>2026-05-04T13:20:23.791Z</time></trkpt><trkpt lat="51.5611417" lon="-0.22024"><ele>52.0</ele><time>2026-05-04T13:20:24.791Z</time></trkpt><trkpt lat="51.5610683" lon="-0.220165"><ele>52.0</ele><time>2026-05-04T13:20:25.792Z</time></trkpt><trkpt lat="51.5609967" lon="-0.220085"><ele>52.0</ele><time>2026-05-04T13:20:26.794Z</time></trkpt><trkpt lat="51.5609117" lon="-0.2200067"><ele>52.0</ele><time>2026-05-04T13:20:27.791Z</time></trkpt><trkpt lat="51.56082" lon="-0.2199183"><ele>52.0</ele><time>2026-05-04T13:20:28.791Z</time></trkpt><trkpt lat="51.5607267" lon="-0.21983"><ele>52.0</ele><time>2026-05-04T13:20:29.792Z</time></trkpt><trkpt lat="51.5606383" lon="-0.2197283"><ele>52.0</ele><time>2026-05-04T13:20:30.792Z</time></trkpt><trkpt lat="51.5605517" lon="-0.2196383"><ele>52.0</ele><time>2026-05-04T13:20:31.792Z</time></trkpt><trkpt lat="51.56046" lon="-0.21956"><ele>51.99999999999999</ele><time>2026-05-04T13:20:32.791Z</time></trkpt><trkpt lat="51.5603717" lon="-0.21949"><ele>52.0</ele><time>2026-05-04T13:20:33.791Z</time></trkpt><trkpt lat="51.560295" lon="-0.21942"><ele>52.0</ele><time>2026-05-04T13:20:34.792Z</time></trkpt><trkpt lat="51.5602217" lon="-0.2193567"><ele>52.0</ele><time>2026-05-04T13:20:35.791Z</time></trkpt><trkpt lat="51.560155" lon="-0.2192983"><ele>51.99999999999999</ele><time>2026-05-04T13:20:36.79Z</time></trkpt><trkpt lat="51.5600833" lon="-0.2192483"><ele>52.0</ele><time>2026-05-04T13:20:37.792Z</time></trkpt><trkpt lat="51.5600133" lon="-0.2191983"><ele>52.166666666666664</ele><time>2026-05-04T13:20:38.798Z</time></trkpt><trkpt lat="51.5599467" lon="-0.2191483"><ele>52.33333333333333</ele><time>2026-05-04T13:20:39.791Z</time></trkpt><trkpt lat="51.5598817" lon="-0.2190967"><ele>52.5</ele><time>2026-05-04T13:20:40.792Z</time></trkpt><trkpt lat="51.55978" lon="-0.2190083"><ele>52.66666666666667</ele><time>2026-05-04T13:20:42.792Z</time></trkpt><trkpt lat="51.5596983" lon="-0.218945"><ele>52.833333333333336</ele><time>2026-05-04T13:20:44.792Z</time></trkpt><trkpt lat="51.5596267" lon="-0.2189017"><ele>53.0</ele><time>2026-05-04T13:20:47.793Z</time></trkpt><trkpt lat="51.5595617" lon="-0.2188517"><ele>53.333333333333336</ele><time>2026-05-04T13:20:52.793Z</time></trkpt><trkpt lat="51.5595017" lon="-0.2187883"><ele>53.66666666666667</ele><time>2026-05-04T13:20:54.796Z</time></trkpt><trkpt lat="51.5594067" lon="-0.21871"><ele>54.0</ele><time>2026-05-04T13:20:56.794Z</time></trkpt><trkpt lat="51.5593133" lon="-0.2185883"><ele>54.33333333333333</ele><time>2026-05-04T13:20:58.793Z</time></trkpt><trkpt lat="51.55926" lon="-0.2185333"><ele>54.666666666666664</ele><time>2026-05-04T13:20:59.793Z</time></trkpt><trkpt lat="51.559195" lon="-0.2184767"><ele>55.0</ele><time>2026-05-04T13:21:00.792Z</time></trkpt><trkpt lat="51.55913" lon="-0.218415"><ele>54.99999999999999</ele><time>2026-05-04T13:21:01.793Z</time></trkpt><trkpt lat="51.5590633" lon="-0.21835"><ele>55.0</ele><time>2026-05-04T13:21:02.793Z</time></trkpt><trkpt lat="51.5590033" lon="-0.21828"><ele>55.0</ele><time>2026-05-04T13:21:03.791Z</time></trkpt><trkpt lat="51.5589417" lon="-0.2182133"><ele>55.0</ele><time>2026-05-04T13:21:04.793Z</time></trkpt><trkpt lat="51.5588833" lon="-0.21814"><ele>55.0</ele><time>2026-05-04T13:21:05.793Z</time></trkpt><trkpt lat="51.5588267" lon="-0.2180683"><ele>54.99999999999999</ele><time>2026-05-04T13:21:06.794Z</time></trkpt><trkpt lat="51.5587633" lon="-0.218"><ele>55.0</ele><time>2026-05-04T13:21:07.793Z</time></trkpt><trkpt lat="51.5587" lon="-0.21793"><ele>54.99999999999999</ele><time>2026-05-04T13:21:08.793Z</time></trkpt><trkpt lat="51.55864" lon="-0.217855"><ele>55.0</ele><time>2026-05-04T13:21:09.791Z</time></trkpt><trkpt lat="51.55858" lon="-0.2177783"><ele>55.0</ele><time>2026-05-04T13:21:10.792Z</time></trkpt><trkpt lat="51.5585217" lon="-0.2177"><ele>55.0</ele><time>2026-05-04T13:21:11.792Z</time></trkpt><trkpt lat="51.5584633" lon="-0.2176217"><ele>54.99999999999999</ele><time>2026-05-04T13:21:12.792Z</time></trkpt><trkpt lat="51.5583983" lon="-0.2175433"><ele>55.0</ele><time>2026-05-04T13:21:13.792Z</time></trkpt><trkpt lat="51.5583333" lon="-0.2174533"><ele>54.99999999999999</ele><time>2026-05-04T13:21:14.791Z</time></trkpt><trkpt lat="51.5582667" lon="-0.2173633"><ele>55.0</ele><time>2026-05-04T13:21:15.792Z</time></trkpt><trkpt lat="51.5582017" lon="-0.21727"><ele>55.0</ele><time>2026-05-04T13:21:16.791Z</time></trkpt><trkpt lat="51.5581317" lon="-0.217185"><ele>55.0</ele><time>2026-05-04T13:21:17.793Z</time></trkpt><trkpt lat="51.55806" lon="-0.217095"><ele>54.99999999999999</ele><time>2026-05-04T13:21:18.793Z</time></trkpt><trkpt lat="51.5579967" lon="-0.2169967"><ele>55.0</ele><time>2026-05-04T13:21:19.792Z</time></trkpt><trkpt lat="51.5579333" lon="-0.2169133"><ele>54.99999999999999</ele><time>2026-05-04T13:21:20.794Z</time></trkpt><trkpt lat="51.5578767" lon="-0.2168483"><ele>55.0</ele><time>2026-05-04T13:21:21.792Z</time></trkpt><trkpt lat="51.55782" lon="-0.2167733"><ele>55.0</ele><time>2026-05-04T13:21:23.793Z</time></trkpt><trkpt lat="51.5577433" lon="-0.21671"><ele>55.0</ele><time>2026-05-04T13:22:09.791Z</time></trkpt><trkpt lat="51.5576933" lon="-0.2166417"><ele>55.0</ele><time>2026-05-04T13:22:10.794Z</time></trkpt><trkpt lat="51.5576417" lon="-0.2165683"><ele>54.99999999999999</ele><time>2026-05-04T13:22:11.792Z</time></trkpt><trkpt lat="51.5575867" lon="-0.216495"><ele>55.0</ele><time>2026-05-04T13:22:12.791Z</time></trkpt><trkpt lat="51.55753" lon="-0.2164133"><ele>55.0</ele><time>2026-05-04T13:22:13.793Z</time></trkpt><trkpt lat="51.557475" lon="-0.216325"><ele>55.0</ele><time>2026-05-04T13:22:14.793Z</time></trkpt><trkpt lat="51.5574133" lon="-0.2162367"><ele>55.0</ele><time>2026-05-04T13:22:15.792Z</time></trkpt><trkpt lat="51.5573467" lon="-0.2161383"><ele>55.0</ele><time>2026-05-04T13:22:16.792Z</time></trkpt><trkpt lat="51.55727" lon="-0.21603"><ele>55.0</ele><time>2026-05-04T13:22:17.793Z</time></trkpt><trkpt lat="51.5571967" lon="-0.215925"><ele>55.0</ele><time>2026-05-04T13:22:18.791Z</time></trkpt><trkpt lat="51.557115" lon="-0.2158333"><ele>55.0</ele><time>2026-05-04T13:22:19.792Z</time></trkpt><trkpt lat="51.5570483" lon="-0.2157317"><ele>55.0</ele><time>2026-05-04T13:22:20.792Z</time></trkpt><trkpt lat="51.55698" lon="-0.2156433"><ele>55.0</ele><time>2026-05-04T13:22:21.792Z</time></trkpt><trkpt lat="51.5569133" lon="-0.2155517"><ele>55.0</ele><time>2026-05-04T13:22:22.792Z</time></trkpt><trkpt lat="51.5568467" lon="-0.21546"><ele>55.2</ele><time>2026-05-04T13:22:23.793Z</time></trkpt><trkpt lat="51.5567817" lon="-0.2153683"><ele>55.4</ele><time>2026-05-04T13:22:24.791Z</time></trkpt><trkpt lat="51.5567133" lon="-0.2152767"><ele>55.599999999999994</ele><time>2026-05-04T13:22:25.792Z</time></trkpt><trkpt lat="51.5566417" lon="-0.215185"><ele>55.8</ele><time>2026-05-04T13:22:26.792Z</time></trkpt><trkpt lat="51.5565633" lon="-0.2150967"><ele>56.0</ele><time>2026-05-04T13:22:27.791Z</time></trkpt><trkpt lat="51.55649" lon="-0.215005"><ele>56.0</ele><time>2026-05-04T13:22:28.792Z</time></trkpt><trkpt lat="51.5564133" lon="-0.2149233"><ele>55.99999999999999</ele><time>2026-05-04T13:22:29.793Z</time></trkpt><trkpt lat="51.55634" lon="-0.2148383"><ele>55.99999999999999</ele><time>2026-05-04T13:22:30.792Z</time></trkpt><trkpt lat="51.5562667" lon="-0.2147483"><ele>56.0</ele><time>2026-05-04T13:22:31.791Z</time></trkpt><trkpt lat="51.5561917" lon="-0.214655"><ele>56.0</ele><time>2026-05-04T13:22:32.791Z</time></trkpt><trkpt lat="51.5561133" lon="-0.2145633"><ele>55.50000000000001</ele><time>2026-05-04T13:22:33.791Z</time></trkpt><trkpt lat="51.556035" lon="-0.214485"><ele>55.0</ele><time>2026-05-04T13:22:34.792Z</time></trkpt><trkpt lat="51.555965" lon="-0.2144"><ele>54.5</ele><time>2026-05-04T13:22:35.792Z</time></trkpt><trkpt lat="51.5558917" lon="-0.2143167"><ele>54.0</ele><time>2026-05-04T13:22:36.792Z</time></trkpt><trkpt lat="51.5558167" lon="-0.2142383"><ele>53.50000000000001</ele><time>2026-05-04T13:22:37.794Z</time></trkpt><trkpt lat="51.5557417" lon="-0.2141617"><ele>53.0</ele><time>2026-05-04T13:22:38.793Z</time></trkpt><trkpt lat="51.5556683" lon="-0.2140817"><ele>53.0</ele><time>2026-05-04T13:22:39.793Z</time></trkpt><trkpt lat="51.55559" lon="-0.2139983"><ele>53.0</ele><time>2026-05-04T13:22:40.796Z</time></trkpt><trkpt lat="51.5555067" lon="-0.213915"><ele>53.0</ele><time>2026-05-04T13:22:41.796Z</time></trkpt><trkpt lat="51.555425" lon="-0.21382"><ele>53.0</ele><time>2026-05-04T13:22:42.792Z</time></trkpt><trkpt lat="51.5553483" lon="-0.2137267"><ele>53.0</ele><time>2026-05-04T13:22:43.793Z</time></trkpt><trkpt lat="51.5552633" lon="-0.2136417"><ele>53.0</ele><time>2026-05-04T13:22:44.793Z</time></trkpt><trkpt lat="51.5551833" lon="-0.2135533"><ele>53.0</ele><time>2026-05-04T13:22:45.792Z</time></trkpt><trkpt lat="51.5551" lon="-0.2134733"><ele>53.0</ele><time>2026-05-04T13:22:46.792Z</time></trkpt><trkpt lat="51.55502" lon="-0.21339"><ele>53.0</ele><time>2026-05-04T13:22:47.793Z</time></trkpt><trkpt lat="51.5549433" lon="-0.2133067"><ele>53.0</ele><time>2026-05-04T13:22:48.792Z</time></trkpt><trkpt lat="51.55486" lon="-0.2132333"><ele>53.00000000000001</ele><time>2026-05-04T13:22:49.795Z</time></trkpt><trkpt lat="51.5547933" lon="-0.2131617"><ele>53.0</ele><time>2026-05-04T13:22:50.793Z</time></trkpt><trkpt lat="51.55474" lon="-0.2131033"><ele>53.0</ele><time>2026-05-04T13:22:51.794Z</time></trkpt><trkpt lat="51.5546583" lon="-0.2130317"><ele>53.0</ele><time>2026-05-04T13:22:53.793Z</time></trkpt><trkpt lat="51.55459" lon="-0.2129817"><ele>53.00000000000001</ele><time>2026-05-04T13:22:55.793Z</time></trkpt><trkpt lat="51.5545167" lon="-0.2129317"><ele>53.0</ele><time>2026-05-04T13:22:57.792Z</time></trkpt><trkpt lat="51.55443" lon="-0.21286"><ele>53.333333333333336</ele><time>2026-05-04T13:22:59.792Z</time></trkpt><trkpt lat="51.554355" lon="-0.2127933"><ele>53.66666666666667</ele><time>2026-05-04T13:23:01.792Z</time></trkpt><trkpt lat="51.55431" lon="-0.2127067"><ele>54.0</ele><time>2026-05-04T13:23:03.793Z</time></trkpt><trkpt lat="51.5542783" lon="-0.2126133"><ele>54.33333333333333</ele><time>2026-05-04T13:23:05.793Z</time></trkpt><trkpt lat="51.5541967" lon="-0.2125233"><ele>54.666666666666664</ele><time>2026-05-04T13:23:07.796Z</time></trkpt><trkpt lat="51.5541083" lon="-0.2124383"><ele>55.0</ele><time>2026-05-04T13:23:09.794Z</time></trkpt><trkpt lat="51.5540183" lon="-0.2123567"><ele>55.0</ele><time>2026-05-04T13:23:11.793Z</time></trkpt><trkpt lat="51.5539183" lon="-0.2122733"><ele>55.0</ele><time>2026-05-04T13:23:13.792Z</time></trkpt><trkpt lat="51.5538267" lon="-0.2121783"><ele>55.0</ele><time>2026-05-04T13:23:15.793Z</time></trkpt><trkpt lat="51.55377" lon="-0.21212"><ele>55.0</ele><time>2026-05-04T13:23:16.795Z</time></trkpt><trkpt lat="51.5536683" lon="-0.2120133"><ele>55.0</ele><time>2026-05-04T13:23:18.792Z</time></trkpt><trkpt lat="51.55361" lon="-0.2119617"><ele>55.0</ele><time>2026-05-04T13:23:19.792Z</time></trkpt><trkpt lat="51.5535167" lon="-0.2118433"><ele>55.0</ele><time>2026-05-04T13:23:21.791Z</time></trkpt><trkpt lat="51.5534183" lon="-0.2117283"><ele>55.0</ele><time>2026-05-04T13:23:23.793Z</time></trkpt><trkpt lat="51.5533283" lon="-0.2115967"><ele>55.0</ele><time>2026-05-04T13:23:25.795Z</time></trkpt><trkpt lat="51.553235" lon="-0.21146"><ele>55.166666666666664</ele><time>2026-05-04T13:23:27.791Z</time></trkpt><trkpt lat="51.5531867" lon="-0.2113917"><ele>55.33333333333333</ele><time>2026-05-04T13:23:28.794Z</time></trkpt><trkpt lat="51.5530967" lon="-0.211255"><ele>55.5</ele><time>2026-05-04T13:23:30.792Z</time></trkpt><trkpt lat="51.5530433" lon="-0.2111933"><ele>55.66666666666667</ele><time>2026-05-04T13:23:31.792Z</time></trkpt><trkpt lat="51.552985" lon="-0.2111283"><ele>55.833333333333336</ele><time>2026-05-04T13:23:32.793Z</time></trkpt><trkpt lat="51.5529317" lon="-0.211055"><ele>56.0</ele><time>2026-05-04T13:23:33.791Z</time></trkpt><trkpt lat="51.5528733" lon="-0.2109867"><ele>56.00000000000001</ele><time>2026-05-04T13:23:34.793Z</time></trkpt><trkpt lat="51.552815" lon="-0.2109167"><ele>56.0</ele><time>2026-05-04T13:23:35.792Z</time></trkpt><trkpt lat="51.5527517" lon="-0.210855"><ele>56.0</ele><time>2026-05-04T13:23:36.792Z</time></trkpt><trkpt lat="51.5526933" lon="-0.210795"><ele>56.0</ele><time>2026-05-04T13:23:37.791Z</time></trkpt><trkpt lat="51.5526017" lon="-0.21069"><ele>56.00000000000001</ele><time>2026-05-04T13:23:39.79Z</time></trkpt><trkpt lat="51.5525467" lon="-0.2106217"><ele>56.0</ele><time>2026-05-04T13:23:42.791Z</time></trkpt><trkpt lat="51.5524933" lon="-0.210555"><ele>56.199999999999996</ele><time>2026-05-04T13:23:45.792Z</time></trkpt><trkpt lat="51.5524417" lon="-0.2104467"><ele>56.39999999999999</ele><time>2026-05-04T13:23:47.791Z</time></trkpt><trkpt lat="51.55241" lon="-0.210355"><ele>56.6</ele><time>2026-05-04T13:23:49.792Z</time></trkpt><trkpt lat="51.5523333" lon="-0.2101917"><ele>56.8</ele><time>2026-05-04T13:23:59.791Z</time></trkpt><trkpt lat="51.5522683" lon="-0.2100967"><ele>57.0</ele><time>2026-05-04T13:24:00.794Z</time></trkpt><trkpt lat="51.552205" lon="-0.2100033"><ele>57.0</ele><time>2026-05-04T13:24:01.791Z</time></trkpt><trkpt lat="51.55214" lon="-0.209915"><ele>57.0</ele><time>2026-05-04T13:24:02.794Z</time></trkpt><trkpt lat="51.5520717" lon="-0.2098267"><ele>57.0</ele><time>2026-05-04T13:24:03.79Z</time></trkpt><trkpt lat="51.5520033" lon="-0.2097333"><ele>57.0</ele><time>2026-05-04T13:24:04.792Z</time></trkpt><trkpt lat="51.5519317" lon="-0.209635"><ele>57.0</ele><time>2026-05-04T13:24:05.793Z</time></trkpt><trkpt lat="51.55186" lon="-0.209535"><ele>57.400000000000006</ele><time>2026-05-04T13:24:06.792Z</time></trkpt><trkpt lat="51.551785" lon="-0.2094317"><ele>57.800000000000004</ele><time>2026-05-04T13:24:07.793Z</time></trkpt><trkpt lat="51.551715" lon="-0.2093317"><ele>58.2</ele><time>2026-05-04T13:24:08.795Z</time></trkpt><trkpt lat="51.551645" lon="-0.2092283"><ele>58.6</ele><time>2026-05-04T13:24:09.791Z</time></trkpt><trkpt lat="51.551575" lon="-0.2091283"><ele>59.0</ele><time>2026-05-04T13:24:10.795Z</time></trkpt><trkpt lat="51.5515067" lon="-0.2090283"><ele>59.2</ele><time>2026-05-04T13:24:11.791Z</time></trkpt><trkpt lat="51.5514383" lon="-0.2089217"><ele>59.400000000000006</ele><time>2026-05-04T13:24:12.792Z</time></trkpt><trkpt lat="51.5513667" lon="-0.208815"><ele>59.6</ele><time>2026-05-04T13:24:13.795Z</time></trkpt><trkpt lat="51.55129" lon="-0.2087083"><ele>59.8</ele><time>2026-05-04T13:24:14.792Z</time></trkpt><trkpt lat="51.5512117" lon="-0.2086083"><ele>60.0</ele><time>2026-05-04T13:24:15.793Z</time></trkpt><trkpt lat="51.55114" lon="-0.2085067"><ele>60.666666666666664</ele><time>2026-05-04T13:24:16.791Z</time></trkpt><trkpt lat="51.5510667" lon="-0.20842"><ele>61.33333333333333</ele><time>2026-05-04T13:24:17.793Z</time></trkpt><trkpt lat="51.5509983" lon="-0.2083367"><ele>62.0</ele><time>2026-05-04T13:24:18.792Z</time></trkpt><trkpt lat="51.5509333" lon="-0.20826"><ele>62.666666666666664</ele><time>2026-05-04T13:24:19.793Z</time></trkpt><trkpt lat="51.5508733" lon="-0.20819"><ele>63.33333333333333</ele><time>2026-05-04T13:24:20.793Z</time></trkpt><trkpt lat="51.55082" lon="-0.208115"><ele>64.0</ele><time>2026-05-04T13:24:21.791Z</time></trkpt><trkpt lat="51.5507633" lon="-0.208035"><ele>64.2</ele><time>2026-05-04T13:24:22.792Z</time></trkpt><trkpt lat="51.55071" lon="-0.2079617"><ele>64.4</ele><time>2026-05-04T13:24:23.793Z</time></trkpt><trkpt lat="51.5506567" lon="-0.2078967"><ele>64.6</ele><time>2026-05-04T13:24:24.792Z</time></trkpt><trkpt lat="51.5505583" lon="-0.2077783"><ele>64.8</ele><time>2026-05-04T13:24:26.794Z</time></trkpt><trkpt lat="51.5504733" lon="-0.2076733"><ele>65.0</ele><time>2026-05-04T13:24:28.793Z</time></trkpt><trkpt lat="51.5503883" lon="-0.20758"><ele>64.66666666666667</ele><time>2026-05-04T13:24:30.794Z</time></trkpt><trkpt lat="51.550315" lon="-0.207495"><ele>64.33333333333334</ele><time>2026-05-04T13:24:32.793Z</time></trkpt><trkpt lat="51.5502367" lon="-0.207395"><ele>64.0</ele><time>2026-05-04T13:24:34.794Z</time></trkpt><trkpt lat="51.5501767" lon="-0.2073267"><ele>63.66666666666667</ele><time>2026-05-04T13:24:35.792Z</time></trkpt><trkpt lat="51.55012" lon="-0.2072483"><ele>63.333333333333336</ele><time>2026-05-04T13:24:36.793Z</time></trkpt><trkpt lat="51.55006" lon="-0.2071633"><ele>63.0</ele><time>2026-05-04T13:24:37.791Z</time></trkpt><trkpt lat="51.550005" lon="-0.2070783"><ele>63.666666666666664</ele><time>2026-05-04T13:24:38.792Z</time></trkpt><trkpt lat="51.549945" lon="-0.2069967"><ele>64.33333333333333</ele><time>2026-05-04T13:24:39.791Z</time></trkpt><trkpt lat="51.54988" lon="-0.206925"><ele>65.0</ele><time>2026-05-04T13:24:40.791Z</time></trkpt><trkpt lat="51.5498217" lon="-0.2068483"><ele>65.66666666666666</ele><time>2026-05-04T13:24:41.792Z</time></trkpt><trkpt lat="51.5497633" lon="-0.2067717"><ele>66.33333333333333</ele><time>2026-05-04T13:24:42.791Z</time></trkpt><trkpt lat="51.549705" lon="-0.2066967"><ele>67.0</ele><time>2026-05-04T13:24:43.79Z</time></trkpt><trkpt lat="51.5496483" lon="-0.206625"><ele>67.0</ele><time>2026-05-04T13:24:44.796Z</time></trkpt><trkpt lat="51.5495983" lon="-0.206545"><ele>67.0</ele><time>2026-05-04T13:24:45.79Z</time></trkpt><trkpt lat="51.54954" lon="-0.2064733"><ele>67.0</ele><time>2026-05-04T13:24:46.792Z</time></trkpt><trkpt lat="51.54949" lon="-0.206395"><ele>67.0</ele><time>2026-05-04T13:24:47.792Z</time></trkpt><trkpt lat="51.5493633" lon="-0.2062633"><ele>67.0</ele><time>2026-05-04T13:24:49.792Z</time></trkpt><trkpt lat="51.5493017" lon="-0.2061967"><ele>67.0</ele><time>2026-05-04T13:24:50.795Z</time></trkpt><trkpt lat="51.54924" lon="-0.2061317"><ele>66.0</ele><time>2026-05-04T13:24:51.79Z</time></trkpt><trkpt lat="51.5491733" lon="-0.2060717"><ele>65.0</ele><time>2026-05-04T13:24:52.792Z</time></trkpt><trkpt lat="51.549105" lon="-0.2060133"><ele>64.0</ele><time>2026-05-04T13:24:53.793Z</time></trkpt><trkpt lat="51.549045" lon="-0.2059383"><ele>63.0</ele><time>2026-05-04T13:24:54.792Z</time></trkpt><trkpt lat="51.54898" lon="-0.2058683"><ele>61.99999999999999</ele><time>2026-05-04T13:24:55.793Z</time></trkpt><trkpt lat="51.5489117" lon="-0.205795"><ele>61.0</ele><time>2026-05-04T13:24:56.792Z</time></trkpt><trkpt lat="51.5488483" lon="-0.205715"><ele>60.666666666666664</ele><time>2026-05-04T13:24:57.79Z</time></trkpt><trkpt lat="51.5487817" lon="-0.2056333"><ele>60.33333333333333</ele><time>2026-05-04T13:24:58.792Z</time></trkpt><trkpt lat="51.548715" lon="-0.20555"><ele>60.0</ele><time>2026-05-04T13:24:59.794Z</time></trkpt><trkpt lat="51.5486567" lon="-0.20547"><ele>59.66666666666667</ele><time>2026-05-04T13:25:00.791Z</time></trkpt><trkpt lat="51.5485933" lon="-0.2053933"><ele>59.333333333333336</ele><time>2026-05-04T13:25:01.792Z</time></trkpt><trkpt lat="51.5485317" lon="-0.2053117"><ele>59.0</ele><time>2026-05-04T13:25:02.791Z</time></trkpt><trkpt lat="51.5484633" lon="-0.2052383"><ele>58.66666666666667</ele><time>2026-05-04T13:25:03.794Z</time></trkpt><trkpt lat="51.5484067" lon="-0.20516"><ele>58.333333333333336</ele><time>2026-05-04T13:25:04.792Z</time></trkpt><trkpt lat="51.54834" lon="-0.2050867"><ele>58.0</ele><time>2026-05-04T13:25:05.792Z</time></trkpt><trkpt lat="51.5482733" lon="-0.2050117"><ele>57.66666666666667</ele><time>2026-05-04T13:25:06.792Z</time></trkpt><trkpt lat="51.5482033" lon="-0.2049417"><ele>57.333333333333336</ele><time>2026-05-04T13:25:07.791Z</time></trkpt><trkpt lat="51.548135" lon="-0.2048767"><ele>57.0</ele><time>2026-05-04T13:25:08.792Z</time></trkpt><trkpt lat="51.5480633" lon="-0.2048183"><ele>57.0</ele><time>2026-05-04T13:25:09.791Z</time></trkpt><trkpt lat="51.548" lon="-0.2047483"><ele>57.0</ele><time>2026-05-04T13:25:10.791Z</time></trkpt><trkpt lat="51.547925" lon="-0.2046817"><ele>57.0</ele><time>2026-05-04T13:25:11.791Z</time></trkpt><trkpt lat="51.547865" lon="-0.2046083"><ele>57.0</ele><time>2026-05-04T13:25:12.792Z</time></trkpt><trkpt lat="51.5478" lon="-0.2045433"><ele>57.0</ele><time>2026-05-04T13:25:13.791Z</time></trkpt><trkpt lat="51.5477267" lon="-0.20448"><ele>57.0</ele><time>2026-05-04T13:25:14.791Z</time></trkpt><trkpt lat="51.54766" lon="-0.2044067"><ele>56.5</ele><time>2026-05-04T13:25:15.792Z</time></trkpt><trkpt lat="51.547595" lon="-0.2043367"><ele>56.0</ele><time>2026-05-04T13:25:16.791Z</time></trkpt><trkpt lat="51.54752" lon="-0.2042817"><ele>55.5</ele><time>2026-05-04T13:25:17.791Z</time></trkpt><trkpt lat="51.5474517" lon="-0.2042167"><ele>55.0</ele><time>2026-05-04T13:25:18.791Z</time></trkpt><trkpt lat="51.5473867" lon="-0.2041433"><ele>54.5</ele><time>2026-05-04T13:25:19.791Z</time></trkpt><trkpt lat="51.5473217" lon="-0.2040683"><ele>54.0</ele><time>2026-05-04T13:25:20.792Z</time></trkpt><trkpt lat="51.5472583" lon="-0.20399"><ele>53.666666666666664</ele><time>2026-05-04T13:25:21.791Z</time></trkpt><trkpt lat="51.5471933" lon="-0.2039133"><ele>53.33333333333333</ele><time>2026-05-04T13:25:22.793Z</time></trkpt><trkpt lat="51.5471283" lon="-0.2038317"><ele>53.0</ele><time>2026-05-04T13:25:23.792Z</time></trkpt><trkpt lat="51.547065" lon="-0.2037583"><ele>52.666666666666664</ele><time>2026-05-04T13:25:24.792Z</time></trkpt><trkpt lat="51.5470117" lon="-0.2036867"><ele>52.33333333333333</ele><time>2026-05-04T13:25:25.792Z</time></trkpt><trkpt lat="51.5469633" lon="-0.2036083"><ele>52.0</ele><time>2026-05-04T13:25:26.791Z</time></trkpt><trkpt lat="51.5468833" lon="-0.20349"><ele>51.8</ele><time>2026-05-04T13:25:28.792Z</time></trkpt><trkpt lat="51.54681" lon="-0.2033733"><ele>51.6</ele><time>2026-05-04T13:25:30.792Z</time></trkpt><trkpt lat="51.5467333" lon="-0.2032083"><ele>51.4</ele><time>2026-05-04T13:25:32.791Z</time></trkpt><trkpt lat="51.5466717" lon="-0.2031367"><ele>51.199999999999996</ele><time>2026-05-04T13:25:33.794Z</time></trkpt><trkpt lat="51.5465817" lon="-0.2030867"><ele>51.0</ele><time>2026-05-04T13:25:34.792Z</time></trkpt><trkpt lat="51.5465133" lon="-0.203025"><ele>51.0</ele><time>2026-05-04T13:25:35.791Z</time></trkpt><trkpt lat="51.5464533" lon="-0.2029583"><ele>51.0</ele><time>2026-05-04T13:25:36.791Z</time></trkpt><trkpt lat="51.5463883" lon="-0.20289"><ele>51.0</ele><time>2026-05-04T13:25:37.793Z</time></trkpt><trkpt lat="51.546325" lon="-0.2028083"><ele>51.0</ele><time>2026-05-04T13:25:38.792Z</time></trkpt><trkpt lat="51.5462633" lon="-0.2027333"><ele>51.0</ele><time>2026-05-04T13:25:39.791Z</time></trkpt><trkpt lat="51.54621" lon="-0.20266"><ele>51.0</ele><time>2026-05-04T13:25:40.791Z</time></trkpt><trkpt lat="51.5461183" lon="-0.2025433"><ele>50.599999999999994</ele><time>2026-05-04T13:25:42.794Z</time></trkpt><trkpt lat="51.546045" lon="-0.20248"><ele>50.2</ele><time>2026-05-04T13:25:44.791Z</time></trkpt><trkpt lat="51.5459333" lon="-0.2025033"><ele>49.8</ele><time>2026-05-04T13:26:11.793Z</time></trkpt><trkpt lat="51.5458667" lon="-0.2024317"><ele>49.400000000000006</ele><time>2026-05-04T13:26:13.791Z</time></trkpt><trkpt lat="51.5457683" lon="-0.2023417"><ele>49.0</ele><time>2026-05-04T13:26:15.79Z</time></trkpt><trkpt lat="51.5457067" lon="-0.202295"><ele>48.99999999999999</ele><time>2026-05-04T13:26:16.791Z</time></trkpt><trkpt lat="51.5456417" lon="-0.2022367"><ele>49.0</ele><time>2026-05-04T13:26:17.793Z</time></trkpt><trkpt lat="51.54558" lon="-0.20217"><ele>49.0</ele><time>2026-05-04T13:26:18.791Z</time></trkpt><trkpt lat="51.5455167" lon="-0.202105"><ele>49.0</ele><time>2026-05-04T13:26:19.79Z</time></trkpt><trkpt lat="51.5454483" lon="-0.2020467"><ele>48.99999999999999</ele><time>2026-05-04T13:26:20.791Z</time></trkpt><trkpt lat="51.54538" lon="-0.2019833"><ele>49.0</ele><time>2026-05-04T13:26:21.79Z</time></trkpt><trkpt lat="51.54531" lon="-0.201925"><ele>48.666666666666664</ele><time>2026-05-04T13:26:22.793Z</time></trkpt><trkpt lat="51.5452417" lon="-0.2018617"><ele>48.33333333333333</ele><time>2026-05-04T13:26:23.791Z</time></trkpt><trkpt lat="51.5451767" lon="-0.2017983"><ele>48.0</ele><time>2026-05-04T13:26:24.79Z</time></trkpt><trkpt lat="51.54512" lon="-0.2017417"><ele>47.666666666666664</ele><time>2026-05-04T13:26:25.791Z</time></trkpt><trkpt lat="51.5450433" lon="-0.2016967"><ele>47.33333333333333</ele><time>2026-05-04T13:26:27.791Z</time></trkpt><trkpt lat="51.54499" lon="-0.2015567"><ele>47.0</ele><time>2026-05-04T13:26:48.792Z</time></trkpt><trkpt lat="51.5449267" lon="-0.2014883"><ele>46.83333333333333</ele><time>2026-05-04T13:26:50.793Z</time></trkpt><trkpt lat="51.5448633" lon="-0.201415"><ele>46.666666666666664</ele><time>2026-05-04T13:26:52.79Z</time></trkpt><trkpt lat="51.54476" lon="-0.2013267"><ele>46.5</ele><time>2026-05-04T13:26:54.794Z</time></trkpt><trkpt lat="51.5446983" lon="-0.2012733"><ele>46.333333333333336</ele><time>2026-05-04T13:26:55.791Z</time></trkpt><trkpt lat="51.5446333" lon="-0.2012233"><ele>46.16666666666667</ele><time>2026-05-04T13:26:56.791Z</time></trkpt><trkpt lat="51.544575" lon="-0.2011617"><ele>46.0</ele><time>2026-05-04T13:26:57.791Z</time></trkpt><trkpt lat="51.54451" lon="-0.20109"><ele>46.0</ele><time>2026-05-04T13:26:58.79Z</time></trkpt><trkpt lat="51.54444" lon="-0.20102"><ele>46.0</ele><time>2026-05-04T13:26:59.792Z</time></trkpt><trkpt lat="51.5443633" lon="-0.2009517"><ele>46.0</ele><time>2026-05-04T13:27:00.791Z</time></trkpt><trkpt lat="51.5442883" lon="-0.2008733"><ele>46.0</ele><time>2026-05-04T13:27:01.791Z</time></trkpt><trkpt lat="51.5442183" lon="-0.20079"><ele>46.0</ele><time>2026-05-04T13:27:02.791Z</time></trkpt><trkpt lat="51.5441367" lon="-0.2007067"><ele>46.0</ele><time>2026-05-04T13:27:03.79Z</time></trkpt><trkpt lat="51.5440583" lon="-0.20063"><ele>46.0</ele><time>2026-05-04T13:27:04.791Z</time></trkpt><trkpt lat="51.5439833" lon="-0.2005517"><ele>46.0</ele><time>2026-05-04T13:27:05.79Z</time></trkpt><trkpt lat="51.54391" lon="-0.2004783"><ele>46.0</ele><time>2026-05-04T13:27:06.791Z</time></trkpt><trkpt lat="51.54384" lon="-0.200405"><ele>46.0</ele><time>2026-05-04T13:27:07.79Z</time></trkpt><trkpt lat="51.5437733" lon="-0.2003283"><ele>46.0</ele><time>2026-05-04T13:27:08.791Z</time></trkpt><trkpt lat="51.5437017" lon="-0.200255"><ele>46.0</ele><time>2026-05-04T13:27:09.791Z</time></trkpt><trkpt lat="51.5436267" lon="-0.200185"><ele>46.0</ele><time>2026-05-04T13:27:10.79Z</time></trkpt><trkpt lat="51.5435617" lon="-0.200105"><ele>46.0</ele><time>2026-05-04T13:27:11.791Z</time></trkpt><trkpt lat="51.5434967" lon="-0.2000317"><ele>46.0</ele><time>2026-05-04T13:27:12.79Z</time></trkpt><trkpt lat="51.5434317" lon="-0.1999583"><ele>46.0</ele><time>2026-05-04T13:27:13.79Z</time></trkpt><trkpt lat="51.5433667" lon="-0.19989"><ele>46.0</ele><time>2026-05-04T13:27:14.79Z</time></trkpt><trkpt lat="51.5433017" lon="-0.1998183"><ele>46.0</ele><time>2026-05-04T13:27:15.791Z</time></trkpt><trkpt lat="51.5432367" lon="-0.1997467"><ele>45.833333333333336</ele><time>2026-05-04T13:27:16.791Z</time></trkpt><trkpt lat="51.54317" lon="-0.199675"><ele>45.66666666666667</ele><time>2026-05-04T13:27:17.79Z</time></trkpt><trkpt lat="51.5431067" lon="-0.1996033"><ele>45.5</ele><time>2026-05-04T13:27:18.79Z</time></trkpt><trkpt lat="51.5430467" lon="-0.1995267"><ele>45.333333333333336</ele><time>2026-05-04T13:27:19.791Z</time></trkpt><trkpt lat="51.5429883" lon="-0.1994467"><ele>45.166666666666664</ele><time>2026-05-04T13:27:20.791Z</time></trkpt><trkpt lat="51.5429283" lon="-0.1993683"><ele>45.0</ele><time>2026-05-04T13:27:21.793Z</time></trkpt><trkpt lat="51.5428667" lon="-0.19929"><ele>45.0</ele><time>2026-05-04T13:27:22.791Z</time></trkpt><trkpt lat="51.5428083" lon="-0.1992133"><ele>45.0</ele><time>2026-05-04T13:27:23.79Z</time></trkpt><trkpt lat="51.5427483" lon="-0.19914"><ele>45.0</ele><time>2026-05-04T13:27:24.792Z</time></trkpt><trkpt lat="51.5426883" lon="-0.199065"><ele>45.0</ele><time>2026-05-04T13:27:25.79Z</time></trkpt><trkpt lat="51.5426217" lon="-0.1989967"><ele>45.0</ele><time>2026-05-04T13:27:26.79Z</time></trkpt><trkpt lat="51.54256" lon="-0.1989233"><ele>45.0</ele><time>2026-05-04T13:27:27.791Z</time></trkpt><trkpt lat="51.5424917" lon="-0.1988517"><ele>45.5</ele><time>2026-05-04T13:27:28.791Z</time></trkpt><trkpt lat="51.54243" lon="-0.1987767"><ele>46.0</ele><time>2026-05-04T13:27:29.791Z</time></trkpt><trkpt lat="51.5423617" lon="-0.1987117"><ele>46.5</ele><time>2026-05-04T13:27:30.792Z</time></trkpt><trkpt lat="51.5423083" lon="-0.1986317"><ele>47.0</ele><time>2026-05-04T13:27:31.797Z</time></trkpt><trkpt lat="51.5422417" lon="-0.1985567"><ele>47.5</ele><time>2026-05-04T13:27:32.791Z</time></trkpt><trkpt lat="51.5421817" lon="-0.1984733"><ele>48.0</ele><time>2026-05-04T13:27:33.792Z</time></trkpt><trkpt lat="51.542125" lon="-0.1983983"><ele>48.0</ele><time>2026-05-04T13:27:34.79Z</time></trkpt><trkpt lat="51.5420633" lon="-0.1983383"><ele>48.0</ele><time>2026-05-04T13:27:35.791Z</time></trkpt><trkpt lat="51.541985" lon="-0.1982567"><ele>48.0</ele><time>2026-05-04T13:27:37.791Z</time></trkpt><trkpt lat="51.54192" lon="-0.198185"><ele>48.0</ele><time>2026-05-04T13:27:55.79Z</time></trkpt><trkpt lat="51.541875" lon="-0.1980817"><ele>48.0</ele><time>2026-05-04T13:27:57.793Z</time></trkpt><trkpt lat="51.541835" lon="-0.1980033"><ele>48.0</ele><time>2026-05-04T13:27:58.791Z</time></trkpt><trkpt lat="51.54177" lon="-0.197915"><ele>47.4</ele><time>2026-05-04T13:27:59.793Z</time></trkpt><trkpt lat="51.54168" lon="-0.197815"><ele>46.8</ele><time>2026-05-04T13:28:00.791Z</time></trkpt><trkpt lat="51.5415967" lon="-0.19773"><ele>46.2</ele><time>2026-05-04T13:28:01.791Z</time></trkpt><trkpt lat="51.5415217" lon="-0.1976483"><ele>45.6</ele><time>2026-05-04T13:28:02.793Z</time></trkpt><trkpt lat="51.5414433" lon="-0.1975683"><ele>45.0</ele><time>2026-05-04T13:28:03.79Z</time></trkpt><trkpt lat="51.5413817" lon="-0.1974683"><ele>45.0</ele><time>2026-05-04T13:28:04.791Z</time></trkpt><trkpt lat="51.54132" lon="-0.1973833"><ele>45.0</ele><time>2026-05-04T13:28:05.791Z</time></trkpt><trkpt lat="51.541255" lon="-0.1973"><ele>45.0</ele><time>2026-05-04T13:28:06.791Z</time></trkpt><trkpt lat="51.54118" lon="-0.1972217"><ele>45.0</ele><time>2026-05-04T13:28:07.79Z</time></trkpt><trkpt lat="51.5411217" lon="-0.1971417"><ele>45.0</ele><time>2026-05-04T13:28:08.79Z</time></trkpt><trkpt lat="51.5410583" lon="-0.1970683"><ele>45.0</ele><time>2026-05-04T13:28:09.791Z</time></trkpt><trkpt lat="51.5409983" lon="-0.196995"><ele>44.57142857142857</ele><time>2026-05-04T13:28:10.791Z</time></trkpt><trkpt lat="51.54094" lon="-0.1969167"><ele>44.142857142857146</ele><time>2026-05-04T13:28:11.79Z</time></trkpt><trkpt lat="51.5408783" lon="-0.196845"><ele>43.714285714285715</ele><time>2026-05-04T13:28:12.79Z</time></trkpt><trkpt lat="51.540815" lon="-0.1967733"><ele>43.285714285714285</ele><time>2026-05-04T13:28:13.791Z</time></trkpt><trkpt lat="51.5407583" lon="-0.1966983"><ele>42.85714285714286</ele><time>2026-05-04T13:28:14.792Z</time></trkpt><trkpt lat="51.5406983" lon="-0.1966233"><ele>42.42857142857143</ele><time>2026-05-04T13:28:15.79Z</time></trkpt><trkpt lat="51.5406483" lon="-0.1965467"><ele>42.0</ele><time>2026-05-04T13:28:16.79Z</time></trkpt><trkpt lat="51.5405883" lon="-0.1964767"><ele>42.0</ele><time>2026-05-04T13:28:17.792Z</time></trkpt><trkpt lat="51.5405233" lon="-0.19641"><ele>42.0</ele><time>2026-05-04T13:28:18.791Z</time></trkpt><trkpt lat="51.5404617" lon="-0.1963567"><ele>42.0</ele><time>2026-05-04T13:28:19.791Z</time></trkpt><trkpt lat="51.5404" lon="-0.1963083"><ele>42.0</ele><time>2026-05-04T13:28:20.792Z</time></trkpt><trkpt lat="51.5403383" lon="-0.1962583"><ele>42.0</ele><time>2026-05-04T13:28:21.791Z</time></trkpt><trkpt lat="51.5402867" lon="-0.1961933"><ele>42.0</ele><time>2026-05-04T13:28:22.791Z</time></trkpt><trkpt lat="51.5402367" lon="-0.19612"><ele>42.0</ele><time>2026-05-04T13:28:23.791Z</time></trkpt><trkpt lat="51.54018" lon="-0.1960483"><ele>42.0</ele><time>2026-05-04T13:28:24.793Z</time></trkpt><trkpt lat="51.5401267" lon="-0.1959817"><ele>42.0</ele><time>2026-05-04T13:28:25.79Z</time></trkpt><trkpt lat="51.5400717" lon="-0.1959283"><ele>42.0</ele><time>2026-05-04T13:28:26.792Z</time></trkpt><trkpt lat="51.5399833" lon="-0.195815"><ele>42.0</ele><time>2026-05-04T13:28:28.791Z</time></trkpt><trkpt lat="51.5399" lon="-0.19574"><ele>42.0</ele><time>2026-05-04T13:28:30.793Z</time></trkpt><trkpt lat="51.53984" lon="-0.195635"><ele>42.0</ele><time>2026-05-04T13:28:33.79Z</time></trkpt><trkpt lat="51.5397817" lon="-0.1955417"><ele>42.0</ele><time>2026-05-04T13:28:35.79Z</time></trkpt><trkpt lat="51.53969" lon="-0.1954233"><ele>42.0</ele><time>2026-05-04T13:28:37.79Z</time></trkpt><trkpt lat="51.5396317" lon="-0.1953517"><ele>42.0</ele><time>2026-05-04T13:28:38.796Z</time></trkpt><trkpt lat="51.5395667" lon="-0.195285"><ele>42.0</ele><time>2026-05-04T13:28:39.789Z</time></trkpt><trkpt lat="51.5395067" lon="-0.19522"><ele>42.0</ele><time>2026-05-04T13:28:40.792Z</time></trkpt><trkpt lat="51.5394483" lon="-0.1951583"><ele>42.0</ele><time>2026-05-04T13:28:41.79Z</time></trkpt><trkpt lat="51.53939" lon="-0.1950967"><ele>41.857142857142854</ele><time>2026-05-04T13:28:42.792Z</time></trkpt><trkpt lat="51.5393383" lon="-0.1950283"><ele>41.714285714285715</ele><time>2026-05-04T13:28:43.791Z</time></trkpt><trkpt lat="51.53928" lon="-0.1949633"><ele>41.57142857142857</ele><time>2026-05-04T13:28:44.791Z</time></trkpt><trkpt lat="51.5392283" lon="-0.1948983"><ele>41.42857142857143</ele><time>2026-05-04T13:28:45.791Z</time></trkpt><trkpt lat="51.5391767" lon="-0.1948367"><ele>41.285714285714285</ele><time>2026-05-04T13:28:46.79Z</time></trkpt><trkpt lat="51.539125" lon="-0.1947767"><ele>41.14285714285714</ele><time>2026-05-04T13:28:47.791Z</time></trkpt><trkpt lat="51.5390733" lon="-0.1947167"><ele>41.0</ele><time>2026-05-04T13:28:48.791Z</time></trkpt><trkpt lat="51.5390167" lon="-0.194655"><ele>41.0</ele><time>2026-05-04T13:28:49.793Z</time></trkpt><trkpt lat="51.5389583" lon="-0.19459"><ele>41.0</ele><time>2026-05-04T13:28:50.791Z</time></trkpt><trkpt lat="51.538905" lon="-0.194525"><ele>41.0</ele><time>2026-05-04T13:28:51.793Z</time></trkpt><trkpt lat="51.53881" lon="-0.1943983"><ele>41.0</ele><time>2026-05-04T13:28:53.791Z</time></trkpt><trkpt lat="51.538765" lon="-0.194325"><ele>41.0</ele><time>2026-05-04T13:28:54.791Z</time></trkpt><trkpt lat="51.5387133" lon="-0.1942567"><ele>41.0</ele><time>2026-05-04T13:28:55.79Z</time></trkpt><trkpt lat="51.5386633" lon="-0.1941933"><ele>41.0</ele><time>2026-05-04T13:28:56.791Z</time></trkpt><trkpt lat="51.5385733" lon="-0.1940767"><ele>41.0</ele><time>2026-05-04T13:28:58.79Z</time></trkpt><trkpt lat="51.5384783" lon="-0.1939733"><ele>41.0</ele><time>2026-05-04T13:29:00.793Z</time></trkpt><trkpt lat="51.53838" lon="-0.1938733"><ele>41.0</ele><time>2026-05-04T13:29:02.792Z</time></trkpt><trkpt lat="51.5382933" lon="-0.193765"><ele>41.0</ele><time>2026-05-04T13:29:04.791Z</time></trkpt><trkpt lat="51.5382067" lon="-0.19367"><ele>41.0</ele><time>2026-05-04T13:29:06.79Z</time></trkpt><trkpt lat="51.5381183" lon="-0.19359"><ele>41.0</ele><time>2026-05-04T13:29:08.791Z</time></trkpt><trkpt lat="51.5380317" lon="-0.1935333"><ele>41.0</ele><time>2026-05-04T13:29:11.793Z</time></trkpt><trkpt lat="51.5379483" lon="-0.1934533"><ele>41.0</ele><time>2026-05-04T13:29:13.791Z</time></trkpt><trkpt lat="51.537865" lon="-0.1933517"><ele>40.599999999999994</ele><time>2026-05-04T13:29:15.794Z</time></trkpt><trkpt lat="51.537775" lon="-0.19325"><ele>40.199999999999996</ele><time>2026-05-04T13:29:17.792Z</time></trkpt><trkpt lat="51.537695" lon="-0.1931117"><ele>39.8</ele><time>2026-05-04T13:29:19.791Z</time></trkpt><trkpt lat="51.5376117" lon="-0.1930083"><ele>39.4</ele><time>2026-05-04T13:29:21.791Z</time></trkpt><trkpt lat="51.537525" lon="-0.1929017"><ele>39.0</ele><time>2026-05-04T13:29:23.791Z</time></trkpt><trkpt lat="51.537435" lon="-0.192785"><ele>39.0</ele><time>2026-05-04T13:29:25.791Z</time></trkpt><trkpt lat="51.5373467" lon="-0.192655"><ele>39.0</ele><time>2026-05-04T13:29:27.791Z</time></trkpt><trkpt lat="51.5372717" lon="-0.1925633"><ele>39.0</ele><time>2026-05-04T13:29:29.791Z</time></trkpt><trkpt lat="51.5372067" lon="-0.1924983"><ele>39.0</ele><time>2026-05-04T13:29:31.791Z</time></trkpt><trkpt lat="51.537135" lon="-0.1924083"><ele>39.0</ele><time>2026-05-04T13:29:33.791Z</time></trkpt><trkpt lat="51.5370583" lon="-0.192315"><ele>39.0</ele><time>2026-05-04T13:29:35.792Z</time></trkpt><trkpt lat="51.5369867" lon="-0.192215"><ele>39.0</ele><time>2026-05-04T13:29:37.79Z</time></trkpt><trkpt lat="51.536905" lon="-0.192105"><ele>39.0</ele><time>2026-05-04T13:29:39.79Z</time></trkpt><trkpt lat="51.5368117" lon="-0.19199"><ele>39.0</ele><time>2026-05-04T13:29:41.793Z</time></trkpt><trkpt lat="51.53671" lon="-0.1918833"><ele>39.0</ele><time>2026-05-04T13:29:43.791Z</time></trkpt><trkpt lat="51.53665" lon="-0.191825"><ele>39.0</ele><time>2026-05-04T13:29:44.79Z</time></trkpt><trkpt lat="51.53659" lon="-0.19176"><ele>39.0</ele><time>2026-05-04T13:29:45.79Z</time></trkpt><trkpt lat="51.5365333" lon="-0.1916883"><ele>39.0</ele><time>2026-05-04T13:29:46.79Z</time></trkpt><trkpt lat="51.5364733" lon="-0.19162"><ele>39.0</ele><time>2026-05-04T13:29:47.794Z</time></trkpt><trkpt lat="51.5364133" lon="-0.19155"><ele>39.0</ele><time>2026-05-04T13:29:48.79Z</time></trkpt><trkpt lat="51.536365" lon="-0.19148"><ele>39.0</ele><time>2026-05-04T13:29:49.79Z</time></trkpt><trkpt lat="51.536305" lon="-0.19139"><ele>39.0</ele><time>2026-05-04T13:29:51.792Z</time></trkpt><trkpt lat="51.5362617" lon="-0.1912933"><ele>39.166666666666664</ele><time>2026-05-04T13:29:56.791Z</time></trkpt><trkpt lat="51.5361917" lon="-0.191235"><ele>39.333333333333336</ele><time>2026-05-04T13:29:58.793Z</time></trkpt><trkpt lat="51.5361283" lon="-0.1911933"><ele>39.5</ele><time>2026-05-04T13:29:59.792Z</time></trkpt><trkpt lat="51.53607" lon="-0.1911283"><ele>39.66666666666667</ele><time>2026-05-04T13:30:00.79Z</time></trkpt><trkpt lat="51.536005" lon="-0.1910583"><ele>39.833333333333336</ele><time>2026-05-04T13:30:01.791Z</time></trkpt><trkpt lat="51.535935" lon="-0.1909817"><ele>40.0</ele><time>2026-05-04T13:30:02.791Z</time></trkpt><trkpt lat="51.535865" lon="-0.1908933"><ele>40.0</ele><time>2026-05-04T13:30:03.791Z</time></trkpt><trkpt lat="51.5357933" lon="-0.1908067"><ele>40.0</ele><time>2026-05-04T13:30:04.791Z</time></trkpt><trkpt lat="51.5357267" lon="-0.1907217"><ele>40.0</ele><time>2026-05-04T13:30:05.792Z</time></trkpt><trkpt lat="51.535665" lon="-0.1906383"><ele>40.0</ele><time>2026-05-04T13:30:06.791Z</time></trkpt><trkpt lat="51.5356067" lon="-0.1905567"><ele>40.0</ele><time>2026-05-04T13:30:07.791Z</time></trkpt><trkpt lat="51.5355567" lon="-0.1904717"><ele>40.0</ele><time>2026-05-04T13:30:08.791Z</time></trkpt><trkpt lat="51.5355117" lon="-0.190375"><ele>39.833333333333336</ele><time>2026-05-04T13:30:09.791Z</time></trkpt><trkpt lat="51.5354583" lon="-0.1902933"><ele>39.66666666666667</ele><time>2026-05-04T13:30:10.79Z</time></trkpt><trkpt lat="51.5354133" lon="-0.19022"><ele>39.5</ele><time>2026-05-04T13:30:11.792Z</time></trkpt><trkpt lat="51.53535" lon="-0.1900717"><ele>39.333333333333336</ele><time>2026-05-04T13:30:13.791Z</time></trkpt><trkpt lat="51.5353067" lon="-0.1899333"><ele>39.166666666666664</ele><time>2026-05-04T13:30:15.791Z</time></trkpt><trkpt lat="51.5352633" lon="-0.189855"><ele>39.0</ele><time>2026-05-04T13:30:17.791Z</time></trkpt><trkpt lat="51.5352433" lon="-0.189745"><ele>39.0</ele><time>2026-05-04T13:30:23.791Z</time></trkpt><trkpt lat="51.5351767" lon="-0.1896183"><ele>39.0</ele><time>2026-05-04T13:30:25.79Z</time></trkpt><trkpt lat="51.535085" lon="-0.1894617"><ele>39.0</ele><time>2026-05-04T13:30:27.791Z</time></trkpt><trkpt lat="51.5350333" lon="-0.18937"><ele>39.0</ele><time>2026-05-04T13:30:28.792Z</time></trkpt><trkpt lat="51.5349783" lon="-0.1892783"><ele>39.0</ele><time>2026-05-04T13:30:29.792Z</time></trkpt><trkpt lat="51.53492" lon="-0.18919"><ele>39.0</ele><time>2026-05-04T13:30:30.796Z</time></trkpt><trkpt lat="51.5348533" lon="-0.1891067"><ele>39.0</ele><time>2026-05-04T13:30:31.791Z</time></trkpt><trkpt lat="51.53478" lon="-0.18903"><ele>39.0</ele><time>2026-05-04T13:30:32.791Z</time></trkpt><trkpt lat="51.5347083" lon="-0.1889467"><ele>39.0</ele><time>2026-05-04T13:30:33.791Z</time></trkpt><trkpt lat="51.534635" lon="-0.1888633"><ele>39.0</ele><time>2026-05-04T13:30:34.794Z</time></trkpt><trkpt lat="51.5345617" lon="-0.18877"><ele>39.0</ele><time>2026-05-04T13:30:35.791Z</time></trkpt><trkpt lat="51.5344817" lon="-0.1886767"><ele>38.8</ele><time>2026-05-04T13:30:36.791Z</time></trkpt><trkpt lat="51.53441" lon="-0.1885717"><ele>38.599999999999994</ele><time>2026-05-04T13:30:37.791Z</time></trkpt><trkpt lat="51.5343283" lon="-0.1884717"><ele>38.4</ele><time>2026-05-04T13:30:38.791Z</time></trkpt><trkpt lat="51.534245" lon="-0.1883783"><ele>38.199999999999996</ele><time>2026-05-04T13:30:39.791Z</time></trkpt><trkpt lat="51.53416" lon="-0.18829"><ele>38.0</ele><time>2026-05-04T13:30:40.791Z</time></trkpt><trkpt lat="51.5340833" lon="-0.1882033"><ele>37.666666666666664</ele><time>2026-05-04T13:30:41.791Z</time></trkpt><trkpt lat="51.5340017" lon="-0.18813"><ele>37.33333333333333</ele><time>2026-05-04T13:30:42.79Z</time></trkpt><trkpt lat="51.5339283" lon="-0.188065"><ele>37.0</ele><time>2026-05-04T13:30:43.79Z</time></trkpt><trkpt lat="51.5338717" lon="-0.1880033"><ele>36.666666666666664</ele><time>2026-05-04T13:30:44.795Z</time></trkpt><trkpt lat="51.53382" lon="-0.1879433"><ele>36.333333333333336</ele><time>2026-05-04T13:30:45.792Z</time></trkpt><trkpt lat="51.5337333" lon="-0.1878483"><ele>36.0</ele><time>2026-05-04T13:30:47.795Z</time></trkpt><trkpt lat="51.533665" lon="-0.1877717"><ele>35.833333333333336</ele><time>2026-05-04T13:30:49.791Z</time></trkpt><trkpt lat="51.533605" lon="-0.18771"><ele>35.666666666666664</ele><time>2026-05-04T13:30:52.792Z</time></trkpt><trkpt lat="51.53357" lon="-0.1876233"><ele>35.5</ele><time>2026-05-04T13:31:01.792Z</time></trkpt><trkpt lat="51.5334667" lon="-0.1874867"><ele>35.33333333333333</ele><time>2026-05-04T13:31:03.792Z</time></trkpt><trkpt lat="51.5334017" lon="-0.1874033"><ele>35.166666666666664</ele><time>2026-05-04T13:31:04.797Z</time></trkpt><trkpt lat="51.5333317" lon="-0.1873133"><ele>35.0</ele><time>2026-05-04T13:31:05.793Z</time></trkpt><trkpt lat="51.5332533" lon="-0.18722"><ele>35.0</ele><time>2026-05-04T13:31:06.795Z</time></trkpt><trkpt lat="51.533175" lon="-0.1871283"><ele>35.0</ele><time>2026-05-04T13:31:07.792Z</time></trkpt><trkpt lat="51.5330883" lon="-0.187035"><ele>35.0</ele><time>2026-05-04T13:31:08.791Z</time></trkpt><trkpt lat="51.5330083" lon="-0.1869383"><ele>35.0</ele><time>2026-05-04T13:31:09.792Z</time></trkpt><trkpt lat="51.5329283" lon="-0.1868417"><ele>35.0</ele><time>2026-05-04T13:31:10.791Z</time></trkpt><trkpt lat="51.532845" lon="-0.1867467"><ele>35.0</ele><time>2026-05-04T13:31:11.792Z</time></trkpt><trkpt lat="51.53276" lon="-0.1866567"><ele>35.0</ele><time>2026-05-04T13:31:12.791Z</time></trkpt><trkpt lat="51.53268" lon="-0.1865733"><ele>35.0</ele><time>2026-05-04T13:31:13.792Z</time></trkpt><trkpt lat="51.5326067" lon="-0.1864833"><ele>35.0</ele><time>2026-05-04T13:31:14.791Z</time></trkpt><trkpt lat="51.53254" lon="-0.1864"><ele>35.0</ele><time>2026-05-04T13:31:15.792Z</time></trkpt><trkpt lat="51.5324833" lon="-0.186315"><ele>35.33333333333333</ele><time>2026-05-04T13:31:16.792Z</time></trkpt><trkpt lat="51.5324267" lon="-0.1862383"><ele>35.666666666666664</ele><time>2026-05-04T13:31:17.793Z</time></trkpt><trkpt lat="51.5323567" lon="-0.1861617"><ele>36.0</ele><time>2026-05-04T13:31:18.792Z</time></trkpt><trkpt lat="51.5322917" lon="-0.1860817"><ele>36.333333333333336</ele><time>2026-05-04T13:31:19.791Z</time></trkpt><trkpt lat="51.532225" lon="-0.186"><ele>36.66666666666667</ele><time>2026-05-04T13:31:20.792Z</time></trkpt><trkpt lat="51.5321617" lon="-0.185915"><ele>37.0</ele><time>2026-05-04T13:31:21.792Z</time></trkpt><trkpt lat="51.532095" lon="-0.1858433"><ele>36.833333333333336</ele><time>2026-05-04T13:31:22.792Z</time></trkpt><trkpt lat="51.5320283" lon="-0.1857667"><ele>36.66666666666667</ele><time>2026-05-04T13:31:23.792Z</time></trkpt><trkpt lat="51.53196" lon="-0.1856933"><ele>36.5</ele><time>2026-05-04T13:31:24.791Z</time></trkpt><trkpt lat="51.5318933" lon="-0.1856133"><ele>36.333333333333336</ele><time>2026-05-04T13:31:25.792Z</time></trkpt><trkpt lat="51.53183" lon="-0.185535"><ele>36.166666666666664</ele><time>2026-05-04T13:31:26.793Z</time></trkpt><trkpt lat="51.5317583" lon="-0.1854583"><ele>36.0</ele><time>2026-05-04T13:31:27.792Z</time></trkpt><trkpt lat="51.53169" lon="-0.1853833"><ele>36.333333333333336</ele><time>2026-05-04T13:31:28.791Z</time></trkpt><trkpt lat="51.531625" lon="-0.1853117"><ele>36.666666666666664</ele><time>2026-05-04T13:31:29.793Z</time></trkpt><trkpt lat="51.5315633" lon="-0.185235"><ele>37.0</ele><time>2026-05-04T13:31:30.792Z</time></trkpt><trkpt lat="51.5315" lon="-0.18516"><ele>37.33333333333333</ele><time>2026-05-04T13:31:31.792Z</time></trkpt><trkpt lat="51.5314367" lon="-0.1850833"><ele>37.666666666666664</ele><time>2026-05-04T13:31:32.793Z</time></trkpt><trkpt lat="51.53137" lon="-0.1850067"><ele>38.0</ele><time>2026-05-04T13:31:33.793Z</time></trkpt><trkpt lat="51.5313133" lon="-0.1849233"><ele>38.33333333333333</ele><time>2026-05-04T13:31:34.792Z</time></trkpt><trkpt lat="51.5312583" lon="-0.1848367"><ele>38.666666666666664</ele><time>2026-05-04T13:31:35.794Z</time></trkpt><trkpt lat="51.5311983" lon="-0.1847617"><ele>39.0</ele><time>2026-05-04T13:31:36.791Z</time></trkpt><trkpt lat="51.5311483" lon="-0.1846933"><ele>39.333333333333336</ele><time>2026-05-04T13:31:37.793Z</time></trkpt><trkpt lat="51.5310783" lon="-0.18459"><ele>39.66666666666667</ele><time>2026-05-04T13:31:39.791Z</time></trkpt><trkpt lat="51.5310183" lon="-0.1844933"><ele>40.0</ele><time>2026-05-04T13:31:41.796Z</time></trkpt><trkpt lat="51.5309633" lon="-0.184415"><ele>39.8</ele><time>2026-05-04T13:31:44.791Z</time></trkpt><trkpt lat="51.5308983" lon="-0.1843467"><ele>39.6</ele><time>2026-05-04T13:31:49.793Z</time></trkpt><trkpt lat="51.5308183" lon="-0.184245"><ele>39.4</ele><time>2026-05-04T13:31:51.794Z</time></trkpt><trkpt lat="51.530715" lon="-0.1841333"><ele>39.2</ele><time>2026-05-04T13:31:53.795Z</time></trkpt><trkpt lat="51.5306533" lon="-0.1840683"><ele>39.0</ele><time>2026-05-04T13:31:54.791Z</time></trkpt><trkpt lat="51.5305817" lon="-0.184"><ele>39.0</ele><time>2026-05-04T13:31:55.79Z</time></trkpt><trkpt lat="51.5305117" lon="-0.1839333"><ele>39.0</ele><time>2026-05-04T13:31:56.793Z</time></trkpt><trkpt lat="51.5304467" lon="-0.1838683"><ele>39.0</ele><time>2026-05-04T13:31:57.792Z</time></trkpt><trkpt lat="51.53038" lon="-0.1837983"><ele>39.0</ele><time>2026-05-04T13:31:58.795Z</time></trkpt><trkpt lat="51.5303083" lon="-0.18372"><ele>39.0</ele><time>2026-05-04T13:31:59.79Z</time></trkpt><trkpt lat="51.530245" lon="-0.183635"><ele>39.0</ele><time>2026-05-04T13:32:00.791Z</time></trkpt><trkpt lat="51.530175" lon="-0.1835367"><ele>39.0</ele><time>2026-05-04T13:32:01.79Z</time></trkpt><trkpt lat="51.5300967" lon="-0.1834467"><ele>39.0</ele><time>2026-05-04T13:32:02.791Z</time></trkpt><trkpt lat="51.5300217" lon="-0.1833617"><ele>39.0</ele><time>2026-05-04T13:32:03.791Z</time></trkpt><trkpt lat="51.5299483" lon="-0.18328"><ele>39.0</ele><time>2026-05-04T13:32:04.791Z</time></trkpt><trkpt lat="51.5298767" lon="-0.1832017"><ele>39.0</ele><time>2026-05-04T13:32:05.792Z</time></trkpt><trkpt lat="51.529815" lon="-0.18313"><ele>39.0</ele><time>2026-05-04T13:32:06.791Z</time></trkpt><trkpt lat="51.5297533" lon="-0.1830667"><ele>39.0</ele><time>2026-05-04T13:32:07.791Z</time></trkpt><trkpt lat="51.5296983" lon="-0.1829967"><ele>39.0</ele><time>2026-05-04T13:32:08.791Z</time></trkpt><trkpt lat="51.5296433" lon="-0.1829167"><ele>39.0</ele><time>2026-05-04T13:32:09.79Z</time></trkpt><trkpt lat="51.5295867" lon="-0.1828417"><ele>39.0</ele><time>2026-05-04T13:32:10.79Z</time></trkpt><trkpt lat="51.5295333" lon="-0.182755"><ele>39.0</ele><time>2026-05-04T13:32:11.79Z</time></trkpt><trkpt lat="51.5294783" lon="-0.1826733"><ele>39.0</ele><time>2026-05-04T13:32:12.791Z</time></trkpt><trkpt lat="51.5294133" lon="-0.1826"><ele>39.0</ele><time>2026-05-04T13:32:13.792Z</time></trkpt><trkpt lat="51.5293433" lon="-0.182535"><ele>38.5</ele><time>2026-05-04T13:32:14.792Z</time></trkpt><trkpt lat="51.5292767" lon="-0.1824633"><ele>38.0</ele><time>2026-05-04T13:32:15.791Z</time></trkpt><trkpt lat="51.52921" lon="-0.182395"><ele>37.5</ele><time>2026-05-04T13:32:16.792Z</time></trkpt><trkpt lat="51.5291417" lon="-0.1823283"><ele>37.0</ele><time>2026-05-04T13:32:17.791Z</time></trkpt><trkpt lat="51.5290717" lon="-0.18226"><ele>36.5</ele><time>2026-05-04T13:32:18.79Z</time></trkpt><trkpt lat="51.5290067" lon="-0.18219"><ele>36.0</ele><time>2026-05-04T13:32:19.792Z</time></trkpt><trkpt lat="51.5289433" lon="-0.1821183"><ele>36.0</ele><time>2026-05-04T13:32:20.791Z</time></trkpt><trkpt lat="51.52888" lon="-0.18204"><ele>36.0</ele><time>2026-05-04T13:32:21.79Z</time></trkpt><trkpt lat="51.52882" lon="-0.1819617"><ele>36.0</ele><time>2026-05-04T13:32:22.79Z</time></trkpt><trkpt lat="51.5287667" lon="-0.1818917"><ele>36.0</ele><time>2026-05-04T13:32:23.792Z</time></trkpt><trkpt lat="51.5286867" lon="-0.1817683"><ele>36.0</ele><time>2026-05-04T13:32:25.791Z</time></trkpt><trkpt lat="51.52863" lon="-0.181675"><ele>36.0</ele><time>2026-05-04T13:32:27.79Z</time></trkpt><trkpt lat="51.5285783" lon="-0.1816117"><ele>36.0</ele><time>2026-05-04T13:32:29.793Z</time></trkpt><trkpt lat="51.5284933" lon="-0.1814683"><ele>36.0</ele><time>2026-05-04T13:33:04.792Z</time></trkpt><trkpt lat="51.52843" lon="-0.1813817"><ele>36.0</ele><time>2026-05-04T13:33:06.791Z</time></trkpt><trkpt lat="51.528275" lon="-0.1811767"><ele>36.0</ele><time>2026-05-04T13:33:09.791Z</time></trkpt><trkpt lat="51.528215" lon="-0.1810967"><ele>36.00000000000001</ele><time>2026-05-04T13:33:10.79Z</time></trkpt><trkpt lat="51.528155" lon="-0.181025"><ele>36.0</ele><time>2026-05-04T13:33:11.791Z</time></trkpt><trkpt lat="51.52809" lon="-0.1809583"><ele>36.0</ele><time>2026-05-04T13:33:12.791Z</time></trkpt><trkpt lat="51.5280367" lon="-0.1808833"><ele>36.0</ele><time>2026-05-04T13:33:13.79Z</time></trkpt><trkpt lat="51.5279767" lon="-0.180815"><ele>36.0</ele><time>2026-05-04T13:33:14.791Z</time></trkpt><trkpt lat="51.52792" lon="-0.1807483"><ele>36.00000000000001</ele><time>2026-05-04T13:33:15.792Z</time></trkpt><trkpt lat="51.5278683" lon="-0.1806783"><ele>36.0</ele><time>2026-05-04T13:33:16.79Z</time></trkpt><trkpt lat="51.527825" lon="-0.1806"><ele>36.28571428571429</ele><time>2026-05-04T13:33:17.792Z</time></trkpt><trkpt lat="51.52777" lon="-0.180525"><ele>36.57142857142857</ele><time>2026-05-04T13:33:18.791Z</time></trkpt><trkpt lat="51.5277167" lon="-0.1804533"><ele>36.85714285714286</ele><time>2026-05-04T13:33:19.79Z</time></trkpt><trkpt lat="51.52766" lon="-0.1803783"><ele>37.142857142857146</ele><time>2026-05-04T13:33:20.79Z</time></trkpt><trkpt lat="51.5275983" lon="-0.1803117"><ele>37.42857142857143</ele><time>2026-05-04T13:33:21.79Z</time></trkpt><trkpt lat="51.52754" lon="-0.1802433"><ele>37.714285714285715</ele><time>2026-05-04T13:33:22.791Z</time></trkpt><trkpt lat="51.5274783" lon="-0.1801783"><ele>38.0</ele><time>2026-05-04T13:33:23.791Z</time></trkpt><trkpt lat="51.527415" lon="-0.1801067"><ele>38.0</ele><time>2026-05-04T13:33:24.792Z</time></trkpt><trkpt lat="51.527355" lon="-0.1800333"><ele>38.0</ele><time>2026-05-04T13:33:25.792Z</time></trkpt><trkpt lat="51.5272933" lon="-0.179955"><ele>38.0</ele><time>2026-05-04T13:33:26.791Z</time></trkpt><trkpt lat="51.5272317" lon="-0.179875"><ele>38.0</ele><time>2026-05-04T13:33:27.791Z</time></trkpt><trkpt lat="51.52717" lon="-0.1798"><ele>38.0</ele><time>2026-05-04T13:33:28.792Z</time></trkpt><trkpt lat="51.5271083" lon="-0.1797233"><ele>38.0</ele><time>2026-05-04T13:33:29.792Z</time></trkpt><trkpt lat="51.5270483" lon="-0.1796433"><ele>38.33333333333333</ele><time>2026-05-04T13:33:30.791Z</time></trkpt><trkpt lat="51.5269817" lon="-0.179575"><ele>38.666666666666664</ele><time>2026-05-04T13:33:31.791Z</time></trkpt><trkpt lat="51.5269216" lon="-0.1794994"><ele>39.0</ele><time>2026-05-04T13:33:32.792Z</time></trkpt><trkpt lat="51.5268557" lon="-0.1794219"><ele>39.333333333333336</ele><time>2026-05-04T13:33:33.791Z</time></trkpt><trkpt lat="51.5267965" lon="-0.1793435"><ele>39.66666666666667</ele><time>2026-05-04T13:33:34.794Z</time></trkpt><trkpt lat="51.5267384" lon="-0.1792659"><ele>40.0</ele><time>2026-05-04T13:33:35.791Z</time></trkpt><trkpt lat="51.5266788" lon="-0.1791924"><ele>40.0</ele><time>2026-05-04T13:33:36.791Z</time></trkpt><trkpt lat="51.5266186" lon="-0.1791192"><ele>40.0</ele><time>2026-05-04T13:33:37.792Z</time></trkpt><trkpt lat="51.5265536" lon="-0.1790423"><ele>40.0</ele><time>2026-05-04T13:33:38.79Z</time></trkpt><trkpt lat="51.5264879" lon="-0.1789715"><ele>40.0</ele><time>2026-05-04T13:33:39.791Z</time></trkpt><trkpt lat="51.5264271" lon="-0.1789029"><ele>40.0</ele><time>2026-05-04T13:33:40.79Z</time></trkpt><trkpt lat="51.5263621" lon="-0.1788379"><ele>40.0</ele><time>2026-05-04T13:33:41.793Z</time></trkpt><trkpt lat="51.5262995" lon="-0.178774"><ele>40.0</ele><time>2026-05-04T13:33:42.791Z</time></trkpt><trkpt lat="51.5262446" lon="-0.1787171"><ele>40.0</ele><time>2026-05-04T13:33:43.792Z</time></trkpt><trkpt lat="51.526155" lon="-0.178621"><ele>40.0</ele><time>2026-05-04T13:33:45.792Z</time></trkpt><trkpt lat="51.5260932" lon="-0.1785761"><ele>40.0</ele><time>2026-05-04T13:33:47.793Z</time></trkpt><trkpt lat="51.5260497" lon="-0.1785006"><ele>40.0</ele><time>2026-05-04T13:34:10.795Z</time></trkpt><trkpt lat="51.5259643" lon="-0.1783943"><ele>40.0</ele><time>2026-05-04T13:34:12.793Z</time></trkpt><trkpt lat="51.5258536" lon="-0.1782545"><ele>39.857142857142854</ele><time>2026-05-04T13:34:14.792Z</time></trkpt><trkpt lat="51.5257923" lon="-0.1781893"><ele>39.714285714285715</ele><time>2026-05-04T13:34:15.791Z</time></trkpt><trkpt lat="51.5257294" lon="-0.1781235"><ele>39.57142857142857</ele><time>2026-05-04T13:34:16.799Z</time></trkpt><trkpt lat="51.5256671" lon="-0.1780595"><ele>39.42857142857143</ele><time>2026-05-04T13:34:17.791Z</time></trkpt><trkpt lat="51.5256075" lon="-0.1779987"><ele>39.285714285714285</ele><time>2026-05-04T13:34:18.791Z</time></trkpt><trkpt lat="51.5255475" lon="-0.1779412"><ele>39.142857142857146</ele><time>2026-05-04T13:34:19.792Z</time></trkpt><trkpt lat="51.5254863" lon="-0.177883"><ele>39.0</ele><time>2026-05-04T13:34:20.792Z</time></trkpt><trkpt lat="51.5254258" lon="-0.1778193"><ele>39.42857142857143</ele><time>2026-05-04T13:34:21.8Z</time></trkpt><trkpt lat="51.5253673" lon="-0.177752"><ele>39.857142857142854</ele><time>2026-05-04T13:34:22.792Z</time></trkpt><trkpt lat="51.5253115" lon="-0.1776828"><ele>40.285714285714285</ele><time>2026-05-04T13:34:23.792Z</time></trkpt><trkpt lat="51.5252539" lon="-0.1776178"><ele>40.714285714285715</ele><time>2026-05-04T13:34:24.791Z</time></trkpt><trkpt lat="51.5251905" lon="-0.1775517"><ele>41.14285714285714</ele><time>2026-05-04T13:34:25.793Z</time></trkpt><trkpt lat="51.525132" lon="-0.1774828"><ele>41.57142857142857</ele><time>2026-05-04T13:34:26.792Z</time></trkpt><trkpt lat="51.525076" lon="-0.1774155"><ele>42.0</ele><time>2026-05-04T13:34:27.791Z</time></trkpt><trkpt lat="51.5250232" lon="-0.1773423"><ele>42.0</ele><time>2026-05-04T13:34:28.792Z</time></trkpt><trkpt lat="51.5249639" lon="-0.1772749"><ele>42.0</ele><time>2026-05-04T13:34:29.793Z</time></trkpt><trkpt lat="51.5249118" lon="-0.1772055"><ele>42.0</ele><time>2026-05-04T13:34:30.793Z</time></trkpt><trkpt lat="51.5248594" lon="-0.1771368"><ele>42.0</ele><time>2026-05-04T13:34:31.791Z</time></trkpt><trkpt lat="51.5248152" lon="-0.1770572"><ele>42.0</ele><time>2026-05-04T13:34:32.793Z</time></trkpt><trkpt lat="51.5247683" lon="-0.1769832"><ele>42.0</ele><time>2026-05-04T13:34:33.791Z</time></trkpt><trkpt lat="51.5247206" lon="-0.1769095"><ele>42.0</ele><time>2026-05-04T13:34:34.792Z</time></trkpt><trkpt lat="51.5246713" lon="-0.1768345"><ele>42.0</ele><time>2026-05-04T13:34:35.792Z</time></trkpt><trkpt lat="51.5246215" lon="-0.1767604"><ele>42.0</ele><time>2026-05-04T13:34:36.792Z</time></trkpt><trkpt lat="51.5245704" lon="-0.1766874"><ele>42.0</ele><time>2026-05-04T13:34:37.792Z</time></trkpt><trkpt lat="51.5245265" lon="-0.1766076"><ele>42.0</ele><time>2026-05-04T13:34:38.792Z</time></trkpt><trkpt lat="51.5244859" lon="-0.176522"><ele>42.0</ele><time>2026-05-04T13:34:39.791Z</time></trkpt><trkpt lat="51.5244449" lon="-0.1764353"><ele>42.0</ele><time>2026-05-04T13:34:40.79Z</time></trkpt><trkpt lat="51.5244024" lon="-0.1763497"><ele>42.0</ele><time>2026-05-04T13:34:41.792Z</time></trkpt><trkpt lat="51.524354" lon="-0.176266"><ele>41.714285714285715</ele><time>2026-05-04T13:34:42.791Z</time></trkpt><trkpt lat="51.5243042" lon="-0.1761813"><ele>41.42857142857143</ele><time>2026-05-04T13:34:43.791Z</time></trkpt><trkpt lat="51.5242529" lon="-0.1761"><ele>41.14285714285714</ele><time>2026-05-04T13:34:44.791Z</time></trkpt><trkpt lat="51.5242052" lon="-0.1760238"><ele>40.85714285714286</ele><time>2026-05-04T13:34:45.792Z</time></trkpt><trkpt lat="51.5241558" lon="-0.1759544"><ele>40.57142857142857</ele><time>2026-05-04T13:34:46.791Z</time></trkpt><trkpt lat="51.5241058" lon="-0.1758864"><ele>40.285714285714285</ele><time>2026-05-04T13:34:47.791Z</time></trkpt><trkpt lat="51.5240543" lon="-0.1758169"><ele>40.0</ele><time>2026-05-04T13:34:48.791Z</time></trkpt><trkpt lat="51.5240092" lon="-0.1757367"><ele>40.14285714285714</ele><time>2026-05-04T13:34:49.794Z</time></trkpt><trkpt lat="51.5239669" lon="-0.1756478"><ele>40.285714285714285</ele><time>2026-05-04T13:34:50.792Z</time></trkpt><trkpt lat="51.5239217" lon="-0.1755637"><ele>40.42857142857143</ele><time>2026-05-04T13:34:51.791Z</time></trkpt><trkpt lat="51.5238594" lon="-0.1754726"><ele>40.57142857142857</ele><time>2026-05-04T13:34:52.791Z</time></trkpt><trkpt lat="51.5238043" lon="-0.1753857"><ele>40.714285714285715</ele><time>2026-05-04T13:34:53.797Z</time></trkpt><trkpt lat="51.5237477" lon="-0.1753095"><ele>40.857142857142854</ele><time>2026-05-04T13:34:54.792Z</time></trkpt><trkpt lat="51.5236995" lon="-0.1752332"><ele>41.0</ele><time>2026-05-04T13:34:55.792Z</time></trkpt><trkpt lat="51.5236577" lon="-0.1751535"><ele>41.166666666666664</ele><time>2026-05-04T13:34:56.792Z</time></trkpt><trkpt lat="51.5235765" lon="-0.1750063"><ele>41.33333333333333</ele><time>2026-05-04T13:34:58.791Z</time></trkpt><trkpt lat="51.5235134" lon="-0.1748805"><ele>41.5</ele><time>2026-05-04T13:35:00.792Z</time></trkpt><trkpt lat="51.5234639" lon="-0.1747869"><ele>41.666666666666664</ele><time>2026-05-04T13:35:02.794Z</time></trkpt><trkpt lat="51.5234086" lon="-0.1747206"><ele>41.833333333333336</ele><time>2026-05-04T13:35:04.792Z</time></trkpt><trkpt lat="51.5233499" lon="-0.1746639"><ele>42.0</ele><time>2026-05-04T13:35:07.791Z</time></trkpt><trkpt lat="51.5232784" lon="-0.1745922"><ele>42.0</ele><time>2026-05-04T13:35:11.792Z</time></trkpt><trkpt lat="51.5232037" lon="-0.1744794"><ele>42.0</ele><time>2026-05-04T13:35:13.797Z</time></trkpt><trkpt lat="51.5231552" lon="-0.1744086"><ele>42.0</ele><time>2026-05-04T13:35:14.793Z</time></trkpt><trkpt lat="51.5231017" lon="-0.1743304"><ele>42.0</ele><time>2026-05-04T13:35:15.792Z</time></trkpt><trkpt lat="51.5230417" lon="-0.1742498"><ele>42.0</ele><time>2026-05-04T13:35:16.792Z</time></trkpt><trkpt lat="51.5229803" lon="-0.1741671"><ele>42.0</ele><time>2026-05-04T13:35:17.792Z</time></trkpt><trkpt lat="51.5229203" lon="-0.1740834"><ele>41.5</ele><time>2026-05-04T13:35:18.792Z</time></trkpt><trkpt lat="51.5228636" lon="-0.173996"><ele>41.0</ele><time>2026-05-04T13:35:19.791Z</time></trkpt><trkpt lat="51.522807" lon="-0.1739099"><ele>40.5</ele><time>2026-05-04T13:35:20.791Z</time></trkpt><trkpt lat="51.5227489" lon="-0.1738256"><ele>40.0</ele><time>2026-05-04T13:35:21.792Z</time></trkpt><trkpt lat="51.5226858" lon="-0.1737467"><ele>39.5</ele><time>2026-05-04T13:35:22.79Z</time></trkpt><trkpt lat="51.522631" lon="-0.1736634"><ele>39.0</ele><time>2026-05-04T13:35:23.796Z</time></trkpt><trkpt lat="51.5225751" lon="-0.1735842"><ele>39.0</ele><time>2026-05-04T13:35:24.791Z</time></trkpt><trkpt lat="51.5225137" lon="-0.1735121"><ele>39.0</ele><time>2026-05-04T13:35:25.791Z</time></trkpt><trkpt lat="51.5224559" lon="-0.173437"><ele>39.0</ele><time>2026-05-04T13:35:26.792Z</time></trkpt><trkpt lat="51.5224003" lon="-0.1733609"><ele>39.0</ele><time>2026-05-04T13:35:27.791Z</time></trkpt><trkpt lat="51.522345" lon="-0.1732817"><ele>39.0</ele><time>2026-05-04T13:35:28.792Z</time></trkpt><trkpt lat="51.5222873" lon="-0.1732016"><ele>39.0</ele><time>2026-05-04T13:35:29.794Z</time></trkpt><trkpt lat="51.5222268" lon="-0.1731254"><ele>38.833333333333336</ele><time>2026-05-04T13:35:30.791Z</time></trkpt><trkpt lat="51.5221679" lon="-0.1730461"><ele>38.666666666666664</ele><time>2026-05-04T13:35:31.793Z</time></trkpt><trkpt lat="51.5221055" lon="-0.1729671"><ele>38.5</ele><time>2026-05-04T13:35:32.797Z</time></trkpt><trkpt lat="51.5220488" lon="-0.1728826"><ele>38.33333333333333</ele><time>2026-05-04T13:35:33.792Z</time></trkpt><trkpt lat="51.5219924" lon="-0.1727997"><ele>38.166666666666664</ele><time>2026-05-04T13:35:34.792Z</time></trkpt><trkpt lat="51.521936" lon="-0.1727135"><ele>38.0</ele><time>2026-05-04T13:35:35.791Z</time></trkpt><trkpt lat="51.5218809" lon="-0.1726283"><ele>38.0</ele><time>2026-05-04T13:35:36.792Z</time></trkpt><trkpt lat="51.5218299" lon="-0.172546"><ele>38.0</ele><time>2026-05-04T13:35:37.792Z</time></trkpt><trkpt lat="51.5217762" lon="-0.1724643"><ele>38.0</ele><time>2026-05-04T13:35:38.791Z</time></trkpt><trkpt lat="51.5217187" lon="-0.1723838"><ele>38.0</ele><time>2026-05-04T13:35:39.793Z</time></trkpt><trkpt lat="51.521659" lon="-0.1723039"><ele>38.0</ele><time>2026-05-04T13:35:40.792Z</time></trkpt><trkpt lat="51.5216027" lon="-0.1722215"><ele>38.0</ele><time>2026-05-04T13:35:41.793Z</time></trkpt><trkpt lat="51.5215489" lon="-0.1721409"><ele>38.0</ele><time>2026-05-04T13:35:42.792Z</time></trkpt><trkpt lat="51.5214968" lon="-0.1720569"><ele>38.0</ele><time>2026-05-04T13:35:43.792Z</time></trkpt><trkpt lat="51.5214453" lon="-0.1719757"><ele>38.0</ele><time>2026-05-04T13:35:44.791Z</time></trkpt><trkpt lat="51.5205267" lon="-0.1706767"><ele>38.199999999999996</ele><time>2026-05-04T13:37:18.641Z</time></trkpt><trkpt lat="51.5204283" lon="-0.17058"><ele>38.4</ele><time>2026-05-04T13:37:21.791Z</time></trkpt><trkpt lat="51.5203583" lon="-0.170555"><ele>38.599999999999994</ele><time>2026-05-04T13:37:27.793Z</time></trkpt><trkpt lat="51.52031" lon="-0.1704267"><ele>38.8</ele><time>2026-05-04T13:37:29.79Z</time></trkpt><trkpt lat="51.5202283" lon="-0.1702617"><ele>39.0</ele><time>2026-05-04T13:37:31.795Z</time></trkpt><trkpt lat="51.5201783" lon="-0.17017"><ele>40.4</ele><time>2026-05-04T13:37:32.792Z</time></trkpt><trkpt lat="51.5200967" lon="-0.1700567"><ele>41.8</ele><time>2026-05-04T13:37:33.792Z</time></trkpt><trkpt lat="51.5200133" lon="-0.16994"><ele>43.199999999999996</ele><time>2026-05-04T13:37:34.804Z</time></trkpt><trkpt lat="51.5199583" lon="-0.16983"><ele>44.599999999999994</ele><time>2026-05-04T13:37:35.797Z</time></trkpt><trkpt lat="51.5199017" lon="-0.1697417"><ele>46.0</ele><time>2026-05-04T13:37:36.792Z</time></trkpt><trkpt lat="51.519855" lon="-0.1696483"><ele>46.0</ele><time>2026-05-04T13:37:37.791Z</time></trkpt><trkpt lat="51.5198083" lon="-0.169565"><ele>46.0</ele><time>2026-05-04T13:37:38.795Z</time></trkpt><trkpt lat="51.5197517" lon="-0.1694817"><ele>46.0</ele><time>2026-05-04T13:37:39.791Z</time></trkpt><trkpt lat="51.5197033" lon="-0.169405"><ele>46.0</ele><time>2026-05-04T13:37:40.792Z</time></trkpt><trkpt lat="51.5196333" lon="-0.1693233"><ele>46.0</ele><time>2026-05-04T13:37:41.792Z</time></trkpt><trkpt lat="51.5195733" lon="-0.1692433"><ele>46.0</ele><time>2026-05-04T13:37:42.791Z</time></trkpt><trkpt lat="51.51952" lon="-0.1691633"><ele>45.57142857142858</ele><time>2026-05-04T13:37:43.79Z</time></trkpt><trkpt lat="51.519465" lon="-0.1690883"><ele>45.14285714285714</ele><time>2026-05-04T13:37:44.792Z</time></trkpt><trkpt lat="51.5194067" lon="-0.16902"><ele>44.714285714285715</ele><time>2026-05-04T13:37:45.793Z</time></trkpt><trkpt lat="51.519355" lon="-0.1689467"><ele>44.28571428571429</ele><time>2026-05-04T13:37:46.792Z</time></trkpt><trkpt lat="51.5193033" lon="-0.1688717"><ele>43.85714285714286</ele><time>2026-05-04T13:37:47.793Z</time></trkpt><trkpt lat="51.519245" lon="-0.1688033"><ele>43.42857142857143</ele><time>2026-05-04T13:37:48.79Z</time></trkpt><trkpt lat="51.51919" lon="-0.1687317"><ele>43.0</ele><time>2026-05-04T13:37:49.793Z</time></trkpt><trkpt lat="51.5191317" lon="-0.1686433"><ele>42.57142857142858</ele><time>2026-05-04T13:37:50.79Z</time></trkpt><trkpt lat="51.51908" lon="-0.1685583"><ele>42.142857142857146</ele><time>2026-05-04T13:37:51.791Z</time></trkpt><trkpt lat="51.51902" lon="-0.1684883"><ele>41.714285714285715</ele><time>2026-05-04T13:37:52.797Z</time></trkpt><trkpt lat="51.5189683" lon="-0.1684017"><ele>41.28571428571429</ele><time>2026-05-04T13:37:53.792Z</time></trkpt><trkpt lat="51.5189133" lon="-0.1683217"><ele>40.85714285714286</ele><time>2026-05-04T13:37:54.791Z</time></trkpt><trkpt lat="51.5188783" lon="-0.1682133"><ele>40.42857142857143</ele><time>2026-05-04T13:37:55.791Z</time></trkpt><trkpt lat="51.51883" lon="-0.16814"><ele>40.0</ele><time>2026-05-04T13:37:56.793Z</time></trkpt><trkpt lat="51.518755" lon="-0.1680467"><ele>39.0</ele><time>2026-05-04T13:37:58.791Z</time></trkpt><trkpt lat="51.5186767" lon="-0.1679833"><ele>38.0</ele><time>2026-05-04T13:38:23.793Z</time></trkpt><trkpt lat="51.5186183" lon="-0.167885"><ele>37.0</ele><time>2026-05-04T13:38:25.791Z</time></trkpt><trkpt lat="51.5185667" lon="-0.1677933"><ele>36.0</ele><time>2026-05-04T13:38:27.791Z</time></trkpt><trkpt lat="51.51851" lon="-0.167715"><ele>35.0</ele><time>2026-05-04T13:38:29.796Z</time></trkpt><trkpt lat="51.5184483" lon="-0.167655"><ele>34.0</ele><time>2026-05-04T13:38:31.791Z</time></trkpt><trkpt lat="51.5183767" lon="-0.1676117"><ele>34.0</ele><time>2026-05-04T13:38:33.794Z</time></trkpt><trkpt lat="51.5183067" lon="-0.1675933"><ele>34.0</ele><time>2026-05-04T13:38:35.792Z</time></trkpt><trkpt lat="51.5182433" lon="-0.167485"><ele>34.0</ele><time>2026-05-04T13:38:46.793Z</time></trkpt><trkpt lat="51.5181383" lon="-0.16732"><ele>34.0</ele><time>2026-05-04T13:38:48.793Z</time></trkpt><trkpt lat="51.5180717" lon="-0.1672383"><ele>34.0</ele><time>2026-05-04T13:38:49.793Z</time></trkpt><trkpt lat="51.5180017" lon="-0.16716"><ele>34.5</ele><time>2026-05-04T13:38:50.794Z</time></trkpt><trkpt lat="51.5179317" lon="-0.1670733"><ele>35.0</ele><time>2026-05-04T13:38:51.793Z</time></trkpt><trkpt lat="51.5178767" lon="-0.1669833"><ele>35.5</ele><time>2026-05-04T13:38:52.794Z</time></trkpt><trkpt lat="51.517815" lon="-0.166885"><ele>36.0</ele><time>2026-05-04T13:38:53.792Z</time></trkpt><trkpt lat="51.5177483" lon="-0.16679"><ele>36.5</ele><time>2026-05-04T13:38:54.791Z</time></trkpt><trkpt lat="51.5176933" lon="-0.166695"><ele>37.0</ele><time>2026-05-04T13:38:55.796Z</time></trkpt><trkpt lat="51.5176283" lon="-0.166615"><ele>37.333333333333336</ele><time>2026-05-04T13:38:56.792Z</time></trkpt><trkpt lat="51.5175667" lon="-0.1665333"><ele>37.66666666666667</ele><time>2026-05-04T13:38:57.794Z</time></trkpt><trkpt lat="51.5175083" lon="-0.16645"><ele>38.0</ele><time>2026-05-04T13:38:58.791Z</time></trkpt><trkpt lat="51.5174467" lon="-0.1663683"><ele>38.333333333333336</ele><time>2026-05-04T13:38:59.795Z</time></trkpt><trkpt lat="51.5173917" lon="-0.16628"><ele>38.666666666666664</ele><time>2026-05-04T13:39:00.792Z</time></trkpt><trkpt lat="51.517335" lon="-0.1661867"><ele>39.0</ele><time>2026-05-04T13:39:01.791Z</time></trkpt><trkpt lat="51.5172767" lon="-0.1660933"><ele>39.0</ele><time>2026-05-04T13:39:02.793Z</time></trkpt><trkpt lat="51.5172217" lon="-0.1660033"><ele>39.0</ele><time>2026-05-04T13:39:03.792Z</time></trkpt><trkpt lat="51.51717" lon="-0.1659167"><ele>39.0</ele><time>2026-05-04T13:39:04.791Z</time></trkpt><trkpt lat="51.5171183" lon="-0.16584"><ele>39.0</ele><time>2026-05-04T13:39:05.792Z</time></trkpt><trkpt lat="51.5170667" lon="-0.1657617"><ele>39.0</ele><time>2026-05-04T13:39:06.792Z</time></trkpt><trkpt lat="51.5170117" lon="-0.1656817"><ele>39.0</ele><time>2026-05-04T13:39:07.793Z</time></trkpt><trkpt lat="51.5169533" lon="-0.1655917"><ele>38.333333333333336</ele><time>2026-05-04T13:39:08.793Z</time></trkpt><trkpt lat="51.51689" lon="-0.1655067"><ele>37.666666666666664</ele><time>2026-05-04T13:39:09.792Z</time></trkpt><trkpt lat="51.5168267" lon="-0.1654233"><ele>37.0</ele><time>2026-05-04T13:39:10.792Z</time></trkpt><trkpt lat="51.51677" lon="-0.1653317"><ele>36.33333333333333</ele><time>2026-05-04T13:39:11.796Z</time></trkpt><trkpt lat="51.51671" lon="-0.1652433"><ele>35.666666666666664</ele><time>2026-05-04T13:39:12.792Z</time></trkpt><trkpt lat="51.5166467" lon="-0.1651617"><ele>35.0</ele><time>2026-05-04T13:39:13.792Z</time></trkpt><trkpt lat="51.516555" lon="-0.1651067"><ele>35.0</ele><time>2026-05-04T13:39:14.792Z</time></trkpt><trkpt lat="51.5164917" lon="-0.1650333"><ele>35.0</ele><time>2026-05-04T13:39:15.791Z</time></trkpt><trkpt lat="51.51643" lon="-0.1649517"><ele>35.0</ele><time>2026-05-04T13:39:16.794Z</time></trkpt><trkpt lat="51.51638" lon="-0.1648683"><ele>35.0</ele><time>2026-05-04T13:39:17.793Z</time></trkpt><trkpt lat="51.516325" lon="-0.1647917"><ele>35.0</ele><time>2026-05-04T13:39:18.796Z</time></trkpt><trkpt lat="51.516265" lon="-0.16472"><ele>35.0</ele><time>2026-05-04T13:39:19.792Z</time></trkpt><trkpt lat="51.5162117" lon="-0.1646417"><ele>35.0</ele><time>2026-05-04T13:39:20.798Z</time></trkpt><trkpt lat="51.5161683" lon="-0.1645567"><ele>35.0</ele><time>2026-05-04T13:39:21.791Z</time></trkpt><trkpt lat="51.516115" lon="-0.1644867"><ele>35.0</ele><time>2026-05-04T13:39:22.793Z</time></trkpt><trkpt lat="51.5160433" lon="-0.16436"><ele>35.0</ele><time>2026-05-04T13:39:24.792Z</time></trkpt><trkpt lat="51.5161967" lon="-0.163765"><ele>35.0</ele><time>2026-05-04T13:40:18.841Z</time></trkpt><trkpt lat="51.51584" lon="-0.163545"><ele>35.0</ele><time>2026-05-04T13:40:20.79Z</time></trkpt><trkpt lat="51.515755" lon="-0.1633783"><ele>35.0</ele><time>2026-05-04T13:40:21.791Z</time></trkpt><trkpt lat="51.5156333" lon="-0.163265"><ele>35.0</ele><time>2026-05-04T13:40:22.79Z</time></trkpt><trkpt lat="51.515535" lon="-0.163155"><ele>35.0</ele><time>2026-05-04T13:40:23.79Z</time></trkpt><trkpt lat="51.5154333" lon="-0.1630583"><ele>35.0</ele><time>2026-05-04T13:40:24.791Z</time></trkpt><trkpt lat="51.5153283" lon="-0.1629733"><ele>34.6</ele><time>2026-05-04T13:40:25.791Z</time></trkpt><trkpt lat="51.515205" lon="-0.1628767"><ele>34.2</ele><time>2026-05-04T13:40:26.79Z</time></trkpt><trkpt lat="51.5151317" lon="-0.1627867"><ele>33.8</ele><time>2026-05-04T13:40:27.79Z</time></trkpt><trkpt lat="51.5150367" lon="-0.1626833"><ele>33.4</ele><time>2026-05-04T13:40:28.796Z</time></trkpt><trkpt lat="51.5149667" lon="-0.1625833"><ele>33.0</ele><time>2026-05-04T13:40:29.79Z</time></trkpt><trkpt lat="51.5148483" lon="-0.1624833"><ele>33.0</ele><time>2026-05-04T13:40:30.792Z</time></trkpt><trkpt lat="51.5147683" lon="-0.1624017"><ele>33.0</ele><time>2026-05-04T13:40:31.791Z</time></trkpt><trkpt lat="51.51469" lon="-0.162325"><ele>33.0</ele><time>2026-05-04T13:40:32.793Z</time></trkpt><trkpt lat="51.5146167" lon="-0.162235"><ele>33.0</ele><time>2026-05-04T13:40:33.79Z</time></trkpt><trkpt lat="51.51455" lon="-0.16214"><ele>33.0</ele><time>2026-05-04T13:40:34.792Z</time></trkpt><trkpt lat="51.5144833" lon="-0.1620517"><ele>33.166666666666664</ele><time>2026-05-04T13:40:35.792Z</time></trkpt><trkpt lat="51.514415" lon="-0.1619633"><ele>33.333333333333336</ele><time>2026-05-04T13:40:36.791Z</time></trkpt><trkpt lat="51.5143517" lon="-0.16187"><ele>33.5</ele><time>2026-05-04T13:40:37.792Z</time></trkpt><trkpt lat="51.514295" lon="-0.1617817"><ele>33.66666666666667</ele><time>2026-05-04T13:40:38.792Z</time></trkpt><trkpt lat="51.51426" lon="-0.161645"><ele>33.833333333333336</ele><time>2026-05-04T13:40:39.792Z</time></trkpt><trkpt lat="51.514215" lon="-0.1615483"><ele>34.0</ele><time>2026-05-04T13:40:40.795Z</time></trkpt><trkpt lat="51.5141667" lon="-0.1614667"><ele>34.0</ele><time>2026-05-04T13:40:41.791Z</time></trkpt><trkpt lat="51.5141233" lon="-0.1613733"><ele>34.0</ele><time>2026-05-04T13:40:42.79Z</time></trkpt><trkpt lat="51.5140717" lon="-0.1612767"><ele>34.0</ele><time>2026-05-04T13:40:43.79Z</time></trkpt><trkpt lat="51.5140133" lon="-0.1611883"><ele>34.0</ele><time>2026-05-04T13:40:44.79Z</time></trkpt><trkpt lat="51.5139567" lon="-0.1610917"><ele>34.0</ele><time>2026-05-04T13:40:45.791Z</time></trkpt><trkpt lat="51.51389" lon="-0.1609983"><ele>34.0</ele><time>2026-05-04T13:40:46.791Z</time></trkpt><trkpt lat="51.5138267" lon="-0.16091"><ele>34.0</ele><time>2026-05-04T13:40:47.792Z</time></trkpt><trkpt lat="51.5137767" lon="-0.16082"><ele>34.0</ele><time>2026-05-04T13:40:48.789Z</time></trkpt><trkpt lat="51.5137317" lon="-0.1607333"><ele>34.0</ele><time>2026-05-04T13:40:49.791Z</time></trkpt><trkpt lat="51.5136667" lon="-0.160585"><ele>34.0</ele><time>2026-05-04T13:40:51.79Z</time></trkpt><trkpt lat="51.51361" lon="-0.1604783"><ele>34.0</ele><time>2026-05-04T13:40:53.791Z</time></trkpt><trkpt lat="51.5135567" lon="-0.16039"><ele>34.0</ele><time>2026-05-04T13:40:55.79Z</time></trkpt><trkpt lat="51.5152583" lon="-0.1630083"><ele>34.0</ele><time>2026-05-04T13:41:52.366Z</time></trkpt><trkpt lat="51.5136733" lon="-0.159845"><ele>34.0</ele><time>2026-05-04T13:41:54.793Z</time></trkpt><trkpt lat="51.5137217" lon="-0.1596"><ele>34.0</ele><time>2026-05-04T13:41:55.791Z</time></trkpt><trkpt lat="51.51371" lon="-0.1594367"><ele>34.0</ele><time>2026-05-04T13:41:56.791Z</time></trkpt><trkpt lat="51.5136867" lon="-0.1592583"><ele>34.0</ele><time>2026-05-04T13:41:57.793Z</time></trkpt><trkpt lat="51.5136483" lon="-0.159055"><ele>34.75</ele><time>2026-05-04T13:41:58.791Z</time></trkpt><trkpt lat="51.513575" lon="-0.1589233"><ele>35.5</ele><time>2026-05-04T13:41:59.791Z</time></trkpt><trkpt lat="51.513455" lon="-0.1587833"><ele>36.25</ele><time>2026-05-04T13:42:00.791Z</time></trkpt><trkpt lat="51.5133533" lon="-0.158665"><ele>37.0</ele><time>2026-05-04T13:42:01.791Z</time></trkpt><trkpt lat="51.513255" lon="-0.1585667"><ele>37.0</ele><time>2026-05-04T13:42:02.791Z</time></trkpt><trkpt lat="51.51307" lon="-0.1583417"><ele>37.0</ele><time>2026-05-04T13:42:03.791Z</time></trkpt><trkpt lat="51.512405" lon="-0.1583917"><ele>36.25</ele><time>2026-05-04T13:42:06.402Z</time></trkpt><trkpt lat="51.512285" lon="-0.1582917"><ele>35.5</ele><time>2026-05-04T13:42:08.791Z</time></trkpt><trkpt lat="51.5121167" lon="-0.1581633"><ele>34.75</ele><time>2026-05-04T13:42:10.79Z</time></trkpt><trkpt lat="51.5120467" lon="-0.1581117"><ele>34.0</ele><time>2026-05-04T13:42:11.79Z</time></trkpt><trkpt lat="51.51191" lon="-0.1579917"><ele>33.833333333333336</ele><time>2026-05-04T13:42:13.791Z</time></trkpt><trkpt lat="51.5118417" lon="-0.15795"><ele>33.66666666666667</ele><time>2026-05-04T13:42:14.79Z</time></trkpt><trkpt lat="51.51177" lon="-0.15791"><ele>33.5</ele><time>2026-05-04T13:42:15.792Z</time></trkpt><trkpt lat="51.5116983" lon="-0.1578633"><ele>33.333333333333336</ele><time>2026-05-04T13:42:16.79Z</time></trkpt><trkpt lat="51.511625" lon="-0.1578083"><ele>33.166666666666664</ele><time>2026-05-04T13:42:17.791Z</time></trkpt><trkpt lat="51.5115717" lon="-0.1577183"><ele>33.0</ele><time>2026-05-04T13:42:18.791Z</time></trkpt><trkpt lat="51.5115033" lon="-0.1576383"><ele>33.0</ele><time>2026-05-04T13:42:19.79Z</time></trkpt><trkpt lat="51.5114383" lon="-0.15756"><ele>33.0</ele><time>2026-05-04T13:42:20.791Z</time></trkpt><trkpt lat="51.5113783" lon="-0.157505"><ele>33.0</ele><time>2026-05-04T13:42:21.792Z</time></trkpt><trkpt lat="51.5112983" lon="-0.1574133"><ele>33.0</ele><time>2026-05-04T13:42:23.791Z</time></trkpt><trkpt lat="51.5112517" lon="-0.1573183"><ele>33.0</ele><time>2026-05-04T13:42:26.791Z</time></trkpt><trkpt lat="51.5112" lon="-0.1572317"><ele>33.0</ele><time>2026-05-04T13:42:31.791Z</time></trkpt><trkpt lat="51.51114" lon="-0.1571517"><ele>34.0</ele><time>2026-05-04T13:42:36.791Z</time></trkpt><trkpt lat="51.5110633" lon="-0.1570883"><ele>35.0</ele><time>2026-05-04T13:42:38.79Z</time></trkpt><trkpt lat="51.511005" lon="-0.1570483"><ele>36.0</ele><time>2026-05-04T13:42:39.792Z</time></trkpt><trkpt lat="51.5108867" lon="-0.1569633"><ele>37.0</ele><time>2026-05-04T13:42:40.793Z</time></trkpt><trkpt lat="51.5107483" lon="-0.15688"><ele>38.0</ele><time>2026-05-04T13:42:41.791Z</time></trkpt><trkpt lat="51.5105833" lon="-0.1567667"><ele>37.666666666666664</ele><time>2026-05-04T13:42:42.791Z</time></trkpt><trkpt lat="51.5104033" lon="-0.156615"><ele>37.333333333333336</ele><time>2026-05-04T13:42:43.793Z</time></trkpt><trkpt lat="51.5102617" lon="-0.15646"><ele>37.0</ele><time>2026-05-04T13:42:44.791Z</time></trkpt><trkpt lat="51.5101267" lon="-0.15628"><ele>37.0</ele><time>2026-05-04T13:42:45.792Z</time></trkpt><trkpt lat="51.5100067" lon="-0.1561133"><ele>37.0</ele><time>2026-05-04T13:42:46.792Z</time></trkpt><trkpt lat="51.50989" lon="-0.1559367"><ele>37.0</ele><time>2026-05-04T13:42:47.791Z</time></trkpt><trkpt lat="51.5097867" lon="-0.155765"><ele>37.66666666666667</ele><time>2026-05-04T13:42:48.791Z</time></trkpt><trkpt lat="51.509685" lon="-0.1556017"><ele>38.333333333333336</ele><time>2026-05-04T13:42:49.791Z</time></trkpt><trkpt lat="51.50958" lon="-0.155425"><ele>39.0</ele><time>2026-05-04T13:42:50.79Z</time></trkpt><trkpt lat="51.5094317" lon="-0.1552433"><ele>39.0</ele><time>2026-05-04T13:42:51.791Z</time></trkpt><trkpt lat="51.50928" lon="-0.1550717"><ele>39.0</ele><time>2026-05-04T13:42:52.793Z</time></trkpt><trkpt lat="51.5091367" lon="-0.1549"><ele>39.0</ele><time>2026-05-04T13:42:53.797Z</time></trkpt><trkpt lat="51.5090033" lon="-0.1547117"><ele>38.666666666666664</ele><time>2026-05-04T13:42:54.791Z</time></trkpt><trkpt lat="51.5088683" lon="-0.1545483"><ele>38.33333333333333</ele><time>2026-05-04T13:42:55.792Z</time></trkpt><trkpt lat="51.5087133" lon="-0.1543817"><ele>38.0</ele><time>2026-05-04T13:42:56.792Z</time></trkpt><trkpt lat="51.5085467" lon="-0.154225"><ele>38.0</ele><time>2026-05-04T13:42:57.791Z</time></trkpt><trkpt lat="51.508385" lon="-0.1540733"><ele>38.0</ele><time>2026-05-04T13:42:58.791Z</time></trkpt><trkpt lat="51.5082383" lon="-0.15392"><ele>38.0</ele><time>2026-05-04T13:42:59.791Z</time></trkpt><trkpt lat="51.5080917" lon="-0.1537633"><ele>37.666666666666664</ele><time>2026-05-04T13:43:00.792Z</time></trkpt><trkpt lat="51.5079517" lon="-0.1535967"><ele>37.333333333333336</ele><time>2026-05-04T13:43:01.792Z</time></trkpt><trkpt lat="51.50782" lon="-0.1534317"><ele>37.0</ele><time>2026-05-04T13:43:02.792Z</time></trkpt><trkpt lat="51.50769" lon="-0.15328"><ele>38.66666666666667</ele><time>2026-05-04T13:43:03.792Z</time></trkpt><trkpt lat="51.5075633" lon="-0.153135"><ele>40.333333333333336</ele><time>2026-05-04T13:43:04.791Z</time></trkpt><trkpt lat="51.50743" lon="-0.1529833"><ele>42.0</ele><time>2026-05-04T13:43:05.791Z</time></trkpt><trkpt lat="51.50732" lon="-0.1528433"><ele>42.0</ele><time>2026-05-04T13:43:06.792Z</time></trkpt><trkpt lat="51.50721" lon="-0.1527"><ele>42.0</ele><time>2026-05-04T13:43:07.791Z</time></trkpt><trkpt lat="51.5071083" lon="-0.1525567"><ele>42.0</ele><time>2026-05-04T13:43:08.793Z</time></trkpt><trkpt lat="51.50702" lon="-0.152425"><ele>42.0</ele><time>2026-05-04T13:43:09.792Z</time></trkpt><trkpt lat="51.50695" lon="-0.1523133"><ele>41.666666666666664</ele><time>2026-05-04T13:43:10.792Z</time></trkpt><trkpt lat="51.5068917" lon="-0.1522267"><ele>41.333333333333336</ele><time>2026-05-04T13:43:11.792Z</time></trkpt><trkpt lat="51.5068467" lon="-0.152155"><ele>41.0</ele><time>2026-05-04T13:43:12.79Z</time></trkpt><trkpt lat="51.506785" lon="-0.15208"><ele>40.66666666666667</ele><time>2026-05-04T13:43:14.792Z</time></trkpt><trkpt lat="51.5067" lon="-0.1519767"><ele>40.333333333333336</ele><time>2026-05-04T13:43:17.791Z</time></trkpt><trkpt lat="51.5066517" lon="-0.15191"><ele>40.0</ele><time>2026-05-04T13:43:18.791Z</time></trkpt><trkpt lat="51.506565" lon="-0.151805"><ele>40.0</ele><time>2026-05-04T13:43:19.792Z</time></trkpt><trkpt lat="51.506485" lon="-0.151695"><ele>40.0</ele><time>2026-05-04T13:43:20.794Z</time></trkpt><trkpt lat="51.50635" lon="-0.1515467"><ele>40.0</ele><time>2026-05-04T13:43:21.791Z</time></trkpt><trkpt lat="51.50618" lon="-0.1513633"><ele>38.333333333333336</ele><time>2026-05-04T13:43:22.79Z</time></trkpt><trkpt lat="51.5060533" lon="-0.1511983"><ele>36.666666666666664</ele><time>2026-05-04T13:43:23.792Z</time></trkpt><trkpt lat="51.505885" lon="-0.1510517"><ele>35.0</ele><time>2026-05-04T13:43:24.792Z</time></trkpt><trkpt lat="51.5057133" lon="-0.1509267"><ele>35.0</ele><time>2026-05-04T13:43:25.794Z</time></trkpt><trkpt lat="51.5055283" lon="-0.1508217"><ele>35.0</ele><time>2026-05-04T13:43:26.792Z</time></trkpt><trkpt lat="51.505335" lon="-0.1507267"><ele>35.0</ele><time>2026-05-04T13:43:27.792Z</time></trkpt><trkpt lat="51.5051383" lon="-0.1506967"><ele>34.666666666666664</ele><time>2026-05-04T13:43:28.792Z</time></trkpt><trkpt lat="51.5049717" lon="-0.150705"><ele>34.333333333333336</ele><time>2026-05-04T13:43:29.794Z</time></trkpt><trkpt lat="51.50481" lon="-0.1507283"><ele>34.0</ele><time>2026-05-04T13:43:30.792Z</time></trkpt><trkpt lat="51.5046567" lon="-0.15076"><ele>32.25</ele><time>2026-05-04T13:43:31.792Z</time></trkpt><trkpt lat="51.5045133" lon="-0.1508"><ele>30.5</ele><time>2026-05-04T13:43:32.792Z</time></trkpt><trkpt lat="51.5043867" lon="-0.150835"><ele>28.75</ele><time>2026-05-04T13:43:33.792Z</time></trkpt><trkpt lat="51.5042733" lon="-0.1508617"><ele>27.0</ele><time>2026-05-04T13:43:34.791Z</time></trkpt><trkpt lat="51.5041633" lon="-0.15088"><ele>27.0</ele><time>2026-05-04T13:43:35.792Z</time></trkpt><trkpt lat="51.504065" lon="-0.1508833"><ele>27.0</ele><time>2026-05-04T13:43:36.792Z</time></trkpt><trkpt lat="51.503975" lon="-0.15087"><ele>27.0</ele><time>2026-05-04T13:43:37.792Z</time></trkpt><trkpt lat="51.503885" lon="-0.15085"><ele>27.0</ele><time>2026-05-04T13:43:38.792Z</time></trkpt><trkpt lat="51.503805" lon="-0.1508267"><ele>27.0</ele><time>2026-05-04T13:43:39.79Z</time></trkpt><trkpt lat="51.5037317" lon="-0.150795"><ele>27.0</ele><time>2026-05-04T13:43:40.79Z</time></trkpt><trkpt lat="51.503665" lon="-0.150765"><ele>27.0</ele><time>2026-05-04T13:43:41.792Z</time></trkpt><trkpt lat="51.5035667" lon="-0.15073"><ele>27.000000000000004</ele><time>2026-05-04T13:43:43.792Z</time></trkpt><trkpt lat="51.503475" lon="-0.1508"><ele>27.000000000000004</ele><time>2026-05-04T13:44:21.795Z</time></trkpt><trkpt lat="51.50341" lon="-0.1507383"><ele>27.0</ele><time>2026-05-04T13:44:23.794Z</time></trkpt><trkpt lat="51.5033617" lon="-0.1505567"><ele>27.0</ele><time>2026-05-04T13:44:25.791Z</time></trkpt><trkpt lat="51.503355" lon="-0.15042"><ele>27.0</ele><time>2026-05-04T13:44:26.791Z</time></trkpt><trkpt lat="51.5033483" lon="-0.1502967"><ele>27.0</ele><time>2026-05-04T13:44:27.791Z</time></trkpt><trkpt lat="51.5033283" lon="-0.1501783"><ele>27.0</ele><time>2026-05-04T13:44:28.793Z</time></trkpt><trkpt lat="51.5032967" lon="-0.1500633"><ele>27.0</ele><time>2026-05-04T13:44:29.793Z</time></trkpt><trkpt lat="51.5032617" lon="-0.1499667"><ele>27.0</ele><time>2026-05-04T13:44:30.791Z</time></trkpt><trkpt lat="51.50321" lon="-0.1498917"><ele>27.0</ele><time>2026-05-04T13:44:31.794Z</time></trkpt><trkpt lat="51.50315" lon="-0.14984"><ele>27.0</ele><time>2026-05-04T13:44:32.795Z</time></trkpt><trkpt lat="51.5030717" lon="-0.1498083"><ele>26.6</ele><time>2026-05-04T13:44:33.796Z</time></trkpt><trkpt lat="51.5029833" lon="-0.1498083"><ele>26.200000000000003</ele><time>2026-05-04T13:44:34.792Z</time></trkpt><trkpt lat="51.5028883" lon="-0.1498167"><ele>25.8</ele><time>2026-05-04T13:44:35.794Z</time></trkpt><trkpt lat="51.5027933" lon="-0.1498383"><ele>25.4</ele><time>2026-05-04T13:44:36.793Z</time></trkpt><trkpt lat="51.502695" lon="-0.1498767"><ele>25.0</ele><time>2026-05-04T13:44:37.793Z</time></trkpt><trkpt lat="51.5026033" lon="-0.1499167"><ele>23.75</ele><time>2026-05-04T13:44:38.793Z</time></trkpt><trkpt lat="51.502515" lon="-0.1500067"><ele>22.5</ele><time>2026-05-04T13:44:39.793Z</time></trkpt><trkpt lat="51.5024167" lon="-0.1501283"><ele>21.25</ele><time>2026-05-04T13:44:40.791Z</time></trkpt><trkpt lat="51.5023267" lon="-0.1503033"><ele>20.0</ele><time>2026-05-04T13:44:41.793Z</time></trkpt><trkpt lat="51.5022433" lon="-0.1504833"><ele>20.0</ele><time>2026-05-04T13:44:42.793Z</time></trkpt><trkpt lat="51.5021717" lon="-0.1506467"><ele>20.0</ele><time>2026-05-04T13:44:43.792Z</time></trkpt><trkpt lat="51.5021117" lon="-0.1507833"><ele>20.0</ele><time>2026-05-04T13:44:44.792Z</time></trkpt><trkpt lat="51.502055" lon="-0.1509233"><ele>20.0</ele><time>2026-05-04T13:44:46.794Z</time></trkpt><trkpt lat="51.5020283" lon="-0.1510167"><ele>20.0</ele><time>2026-05-04T13:44:50.794Z</time></trkpt><trkpt lat="51.5019817" lon="-0.1511283"><ele>19.0</ele><time>2026-05-04T13:45:06.792Z</time></trkpt><trkpt lat="51.50191" lon="-0.1512267"><ele>18.0</ele><time>2026-05-04T13:45:08.792Z</time></trkpt><trkpt lat="51.5018083" lon="-0.1512833"><ele>17.0</ele><time>2026-05-04T13:45:10.793Z</time></trkpt><trkpt lat="51.5016817" lon="-0.1512583"><ele>16.0</ele><time>2026-05-04T13:45:12.793Z</time></trkpt><trkpt lat="51.5016167" lon="-0.1511983"><ele>15.0</ele><time>2026-05-04T13:45:13.794Z</time></trkpt><trkpt lat="51.5015483" lon="-0.15111"><ele>15.0</ele><time>2026-05-04T13:45:14.792Z</time></trkpt><trkpt lat="51.5014767" lon="-0.1510083"><ele>15.0</ele><time>2026-05-04T13:45:15.792Z</time></trkpt><trkpt lat="51.5014067" lon="-0.150915"><ele>15.0</ele><time>2026-05-04T13:45:16.792Z</time></trkpt><trkpt lat="51.50134" lon="-0.150815"><ele>15.0</ele><time>2026-05-04T13:45:17.794Z</time></trkpt><trkpt lat="51.5012783" lon="-0.1507133"><ele>15.0</ele><time>2026-05-04T13:45:18.79Z</time></trkpt><trkpt lat="51.501205" lon="-0.1506283"><ele>15.666666666666666</ele><time>2026-05-04T13:45:19.792Z</time></trkpt><trkpt lat="51.5011417" lon="-0.1505417"><ele>16.333333333333332</ele><time>2026-05-04T13:45:20.794Z</time></trkpt><trkpt lat="51.50108" lon="-0.150455"><ele>17.0</ele><time>2026-05-04T13:45:21.792Z</time></trkpt><trkpt lat="51.5010217" lon="-0.150365"><ele>17.666666666666664</ele><time>2026-05-04T13:45:22.799Z</time></trkpt><trkpt lat="51.5009617" lon="-0.150275"><ele>18.333333333333332</ele><time>2026-05-04T13:45:23.792Z</time></trkpt><trkpt lat="51.5009017" lon="-0.1501917"><ele>19.0</ele><time>2026-05-04T13:45:24.794Z</time></trkpt><trkpt lat="51.500835" lon="-0.150115"><ele>19.0</ele><time>2026-05-04T13:45:25.791Z</time></trkpt><trkpt lat="51.5007717" lon="-0.1500383"><ele>19.0</ele><time>2026-05-04T13:45:26.793Z</time></trkpt><trkpt lat="51.500715" lon="-0.1499567"><ele>19.0</ele><time>2026-05-04T13:45:27.791Z</time></trkpt><trkpt lat="51.5006583" lon="-0.1498733"><ele>19.0</ele><time>2026-05-04T13:45:28.791Z</time></trkpt><trkpt lat="51.5005967" lon="-0.14978"><ele>19.0</ele><time>2026-05-04T13:45:29.792Z</time></trkpt><trkpt lat="51.5005283" lon="-0.1496767"><ele>19.0</ele><time>2026-05-04T13:45:30.792Z</time></trkpt><trkpt lat="51.5004617" lon="-0.14957"><ele>19.6</ele><time>2026-05-04T13:45:31.792Z</time></trkpt><trkpt lat="51.5003917" lon="-0.1494667"><ele>20.2</ele><time>2026-05-04T13:45:32.792Z</time></trkpt><trkpt lat="51.5003133" lon="-0.149365"><ele>20.8</ele><time>2026-05-04T13:45:33.791Z</time></trkpt><trkpt lat="51.5002333" lon="-0.1492567"><ele>21.400000000000002</ele><time>2026-05-04T13:45:34.792Z</time></trkpt><trkpt lat="51.5001517" lon="-0.1491517"><ele>22.0</ele><time>2026-05-04T13:45:35.792Z</time></trkpt><trkpt lat="51.50007" lon="-0.1490533"><ele>21.0</ele><time>2026-05-04T13:45:36.791Z</time></trkpt><trkpt lat="51.5" lon="-0.1489433"><ele>20.0</ele><time>2026-05-04T13:45:37.793Z</time></trkpt><trkpt lat="51.4999233" lon="-0.1488467"><ele>19.0</ele><time>2026-05-04T13:45:38.799Z</time></trkpt><trkpt lat="51.4998483" lon="-0.148745"><ele>18.0</ele><time>2026-05-04T13:45:39.799Z</time></trkpt><trkpt lat="51.4997833" lon="-0.1486433"><ele>17.0</ele><time>2026-05-04T13:45:40.792Z</time></trkpt><trkpt lat="51.4997067" lon="-0.1485417"><ele>17.0</ele><time>2026-05-04T13:45:41.791Z</time></trkpt><trkpt lat="51.4996217" lon="-0.14844"><ele>17.0</ele><time>2026-05-04T13:45:42.791Z</time></trkpt><trkpt lat="51.49953" lon="-0.1483367"><ele>17.0</ele><time>2026-05-04T13:45:43.791Z</time></trkpt><trkpt lat="51.4994367" lon="-0.1482367"><ele>17.0</ele><time>2026-05-04T13:45:44.792Z</time></trkpt><trkpt lat="51.49935" lon="-0.148135"><ele>17.0</ele><time>2026-05-04T13:45:45.792Z</time></trkpt><trkpt lat="51.4992617" lon="-0.1480367"><ele>16.75</ele><time>2026-05-04T13:45:46.791Z</time></trkpt><trkpt lat="51.499165" lon="-0.1479433"><ele>16.5</ele><time>2026-05-04T13:45:47.791Z</time></trkpt><trkpt lat="51.4990617" lon="-0.1478433"><ele>16.25</ele><time>2026-05-04T13:45:48.791Z</time></trkpt><trkpt lat="51.49894" lon="-0.1477417"><ele>16.0</ele><time>2026-05-04T13:45:49.792Z</time></trkpt><trkpt lat="51.4988" lon="-0.14762"><ele>16.666666666666664</ele><time>2026-05-04T13:45:50.794Z</time></trkpt><trkpt lat="51.4986417" lon="-0.147505"><ele>17.333333333333332</ele><time>2026-05-04T13:45:51.792Z</time></trkpt><trkpt lat="51.4984867" lon="-0.1473883"><ele>18.0</ele><time>2026-05-04T13:45:52.791Z</time></trkpt><trkpt lat="51.49836" lon="-0.147275"><ele>16.75</ele><time>2026-05-04T13:45:53.792Z</time></trkpt><trkpt lat="51.4982533" lon="-0.1471633"><ele>15.5</ele><time>2026-05-04T13:45:54.792Z</time></trkpt><trkpt lat="51.498195" lon="-0.1470133"><ele>14.25</ele><time>2026-05-04T13:45:55.792Z</time></trkpt><trkpt lat="51.49815" lon="-0.14683"><ele>13.0</ele><time>2026-05-04T13:45:56.792Z</time></trkpt><trkpt lat="51.4980967" lon="-0.146635"><ele>13.0</ele><time>2026-05-04T13:45:57.792Z</time></trkpt><trkpt lat="51.49807" lon="-0.1464183"><ele>13.0</ele><time>2026-05-04T13:45:58.792Z</time></trkpt><trkpt lat="51.4980717" lon="-0.14616"><ele>13.0</ele><time>2026-05-04T13:45:59.792Z</time></trkpt><trkpt lat="51.49807" lon="-0.1459167"><ele>12.75</ele><time>2026-05-04T13:46:00.792Z</time></trkpt><trkpt lat="51.4980733" lon="-0.145705"><ele>12.5</ele><time>2026-05-04T13:46:01.791Z</time></trkpt><trkpt lat="51.4981217" lon="-0.1454867"><ele>12.25</ele><time>2026-05-04T13:46:02.791Z</time></trkpt><trkpt lat="51.49814" lon="-0.1453133"><ele>12.0</ele><time>2026-05-04T13:46:03.797Z</time></trkpt><trkpt lat="51.498145" lon="-0.1451717"><ele>12.0</ele><time>2026-05-04T13:46:04.793Z</time></trkpt><trkpt lat="51.4981433" lon="-0.1450467"><ele>12.0</ele><time>2026-05-04T13:46:05.791Z</time></trkpt><trkpt lat="51.4981433" lon="-0.14493"><ele>12.0</ele><time>2026-05-04T13:46:06.793Z</time></trkpt><trkpt lat="51.4981217" lon="-0.1447733"><ele>12.0</ele><time>2026-05-04T13:46:08.793Z</time></trkpt><trkpt lat="51.49813" lon="-0.144625"><ele>12.0</ele><time>2026-05-04T13:46:10.793Z</time></trkpt><trkpt lat="51.4981133" lon="-0.1444367"><ele>11.666666666666666</ele><time>2026-05-04T13:46:12.794Z</time></trkpt><trkpt lat="51.4980983" lon="-0.1443317"><ele>11.333333333333334</ele><time>2026-05-04T13:46:13.806Z</time></trkpt><trkpt lat="51.4980817" lon="-0.1442167"><ele>11.0</ele><time>2026-05-04T13:46:14.792Z</time></trkpt><trkpt lat="51.4980567" lon="-0.1440983"><ele>10.666666666666668</ele><time>2026-05-04T13:46:15.792Z</time></trkpt><trkpt lat="51.4980217" lon="-0.1439683"><ele>10.333333333333334</ele><time>2026-05-04T13:46:16.791Z</time></trkpt><trkpt lat="51.49798" lon="-0.14383"><ele>10.0</ele><time>2026-05-04T13:46:17.792Z</time></trkpt><trkpt lat="51.4979417" lon="-0.143675"><ele>12.2</ele><time>2026-05-04T13:46:18.792Z</time></trkpt><trkpt lat="51.4979083" lon="-0.1435217"><ele>14.4</ele><time>2026-05-04T13:46:19.791Z</time></trkpt><trkpt lat="51.497875" lon="-0.1433667"><ele>16.6</ele><time>2026-05-04T13:46:20.791Z</time></trkpt><trkpt lat="51.4978383" lon="-0.143215"><ele>18.8</ele><time>2026-05-04T13:46:21.792Z</time></trkpt><trkpt lat="51.4978083" lon="-0.1430683"><ele>21.0</ele><time>2026-05-04T13:46:22.792Z</time></trkpt><trkpt lat="51.4977817" lon="-0.1429417"><ele>21.0</ele><time>2026-05-04T13:46:23.792Z</time></trkpt><trkpt lat="51.4977417" lon="-0.1428383"><ele>21.0</ele><time>2026-05-04T13:46:24.791Z</time></trkpt><trkpt lat="51.497715" lon="-0.1427317"><ele>21.0</ele><time>2026-05-04T13:46:25.791Z</time></trkpt><trkpt lat="51.4977283" lon="-0.1425883"><ele>21.0</ele><time>2026-05-04T13:46:26.792Z</time></trkpt><trkpt lat="51.4977067" lon="-0.1424883"><ele>21.0</ele><time>2026-05-04T13:46:27.792Z</time></trkpt><trkpt lat="51.4976233" lon="-0.1423483"><ele>21.0</ele><time>2026-05-04T13:46:29.792Z</time></trkpt><trkpt lat="51.4975333" lon="-0.1422317"><ele>21.0</ele><time>2026-05-04T13:46:31.792Z</time></trkpt><trkpt lat="51.497455" lon="-0.1421517"><ele>21.0</ele><time>2026-05-04T13:46:33.792Z</time></trkpt><trkpt lat="51.4973533" lon="-0.1421233"><ele>21.0</ele><time>2026-05-04T13:46:35.792Z</time></trkpt><trkpt lat="51.4972683" lon="-0.142105"><ele>21.0</ele><time>2026-05-04T13:46:38.792Z</time></trkpt><trkpt lat="51.497205" lon="-0.1420933"><ele>21.0</ele><time>2026-05-04T13:46:40.791Z</time></trkpt><trkpt lat="51.4971233" lon="-0.1420633"><ele>21.0</ele><time>2026-05-04T13:46:42.792Z</time></trkpt><trkpt lat="51.4970283" lon="-0.1419983"><ele>20.666666666666668</ele><time>2026-05-04T13:46:44.791Z</time></trkpt><trkpt lat="51.4969533" lon="-0.141965"><ele>20.333333333333332</ele><time>2026-05-04T13:46:46.791Z</time></trkpt><trkpt lat="51.4968733" lon="-0.1419117"><ele>20.0</ele><time>2026-05-04T13:47:12.792Z</time></trkpt><trkpt lat="51.4968083" lon="-0.14189"><ele>19.666666666666664</ele><time>2026-05-04T13:47:14.792Z</time></trkpt><trkpt lat="51.4967133" lon="-0.1419083"><ele>19.333333333333332</ele><time>2026-05-04T13:47:16.79Z</time></trkpt><trkpt lat="51.4966517" lon="-0.141975"><ele>19.0</ele><time>2026-05-04T13:47:18.792Z</time></trkpt><trkpt lat="51.4966017" lon="-0.14211"><ele>19.0</ele><time>2026-05-04T13:47:20.792Z</time></trkpt><trkpt lat="51.4965667" lon="-0.142265"><ele>19.0</ele><time>2026-05-04T13:47:22.791Z</time></trkpt><trkpt lat="51.4965217" lon="-0.1423933"><ele>19.0</ele><time>2026-05-04T13:47:24.791Z</time></trkpt><trkpt lat="51.4964333" lon="-0.1424683"><ele>19.0</ele><time>2026-05-04T13:47:27.791Z</time></trkpt><trkpt lat="51.4962717" lon="-0.1424633"><ele>18.8</ele><time>2026-05-04T13:47:29.791Z</time></trkpt><trkpt lat="51.4961983" lon="-0.14243"><ele>18.599999999999998</ele><time>2026-05-04T13:47:30.789Z</time></trkpt><trkpt lat="51.49611" lon="-0.14239"><ele>18.4</ele><time>2026-05-04T13:47:31.79Z</time></trkpt><trkpt lat="51.4960067" lon="-0.14235"><ele>18.2</ele><time>2026-05-04T13:47:32.792Z</time></trkpt><trkpt lat="51.495895" lon="-0.14229"><ele>18.0</ele><time>2026-05-04T13:47:33.792Z</time></trkpt><trkpt lat="51.4957633" lon="-0.14221"><ele>17.666666666666668</ele><time>2026-05-04T13:47:34.79Z</time></trkpt><trkpt lat="51.4956183" lon="-0.1421133"><ele>17.333333333333336</ele><time>2026-05-04T13:47:35.791Z</time></trkpt><trkpt lat="51.4954833" lon="-0.141995"><ele>17.0</ele><time>2026-05-04T13:47:36.791Z</time></trkpt><trkpt lat="51.4953433" lon="-0.14189"><ele>17.0</ele><time>2026-05-04T13:47:37.791Z</time></trkpt><trkpt lat="51.4951983" lon="-0.141795"><ele>17.0</ele><time>2026-05-04T13:47:38.79Z</time></trkpt><trkpt lat="51.4950433" lon="-0.1416933"><ele>17.0</ele><time>2026-05-04T13:47:39.791Z</time></trkpt><trkpt lat="51.49488" lon="-0.141575"><ele>16.666666666666668</ele><time>2026-05-04T13:47:40.791Z</time></trkpt><trkpt lat="51.49469" lon="-0.1414833"><ele>16.333333333333332</ele><time>2026-05-04T13:47:41.791Z</time></trkpt><trkpt lat="51.4945417" lon="-0.14135"><ele>16.0</ele><time>2026-05-04T13:47:42.792Z</time></trkpt><trkpt lat="51.4944067" lon="-0.14121"><ele>14.25</ele><time>2026-05-04T13:47:43.791Z</time></trkpt><trkpt lat="51.4942733" lon="-0.1410967"><ele>12.5</ele><time>2026-05-04T13:47:44.791Z</time></trkpt><trkpt lat="51.4941667" lon="-0.14098"><ele>10.75</ele><time>2026-05-04T13:47:45.79Z</time></trkpt><trkpt lat="51.494075" lon="-0.1408767"><ele>9.0</ele><time>2026-05-04T13:47:46.791Z</time></trkpt><trkpt lat="51.494" lon="-0.1407833"><ele>9.5</ele><time>2026-05-04T13:47:47.791Z</time></trkpt><trkpt lat="51.4939467" lon="-0.1406983"><ele>10.0</ele><time>2026-05-04T13:47:48.791Z</time></trkpt><trkpt lat="51.493905" lon="-0.14062"><ele>10.5</ele><time>2026-05-04T13:47:49.791Z</time></trkpt><trkpt lat="51.49386" lon="-0.1404933"><ele>11.0</ele><time>2026-05-04T13:47:51.791Z</time></trkpt><trkpt lat="51.4938133" lon="-0.1404033"><ele>11.5</ele><time>2026-05-04T13:47:53.791Z</time></trkpt><trkpt lat="51.4938333" lon="-0.1402717"><ele>12.0</ele><time>2026-05-04T13:47:56.792Z</time></trkpt><trkpt lat="51.4938083" lon="-0.1401533"><ele>11.833333333333334</ele><time>2026-05-04T13:48:08.791Z</time></trkpt><trkpt lat="51.4937467" lon="-0.140025"><ele>11.666666666666666</ele><time>2026-05-04T13:48:10.791Z</time></trkpt><trkpt lat="51.4937083" lon="-0.1399433"><ele>11.5</ele><time>2026-05-04T13:48:11.791Z</time></trkpt><trkpt lat="51.493665" lon="-0.139855"><ele>11.333333333333332</ele><time>2026-05-04T13:48:12.792Z</time></trkpt><trkpt lat="51.4936167" lon="-0.1397583"><ele>11.166666666666666</ele><time>2026-05-04T13:48:13.791Z</time></trkpt><trkpt lat="51.4935633" lon="-0.1396667"><ele>11.0</ele><time>2026-05-04T13:48:14.792Z</time></trkpt><trkpt lat="51.49351" lon="-0.1395633"><ele>10.8</ele><time>2026-05-04T13:48:15.791Z</time></trkpt><trkpt lat="51.4934617" lon="-0.139455"><ele>10.600000000000001</ele><time>2026-05-04T13:48:16.791Z</time></trkpt><trkpt lat="51.4934083" lon="-0.13933"><ele>10.4</ele><time>2026-05-04T13:48:17.791Z</time></trkpt><trkpt lat="51.4933483" lon="-0.1392067"><ele>10.2</ele><time>2026-05-04T13:48:18.791Z</time></trkpt><trkpt lat="51.4932883" lon="-0.13908"><ele>10.0</ele><time>2026-05-04T13:48:19.79Z</time></trkpt><trkpt lat="51.49324" lon="-0.1389417"><ele>10.0</ele><time>2026-05-04T13:48:20.792Z</time></trkpt><trkpt lat="51.4931883" lon="-0.1388017"><ele>10.0</ele><time>2026-05-04T13:48:21.789Z</time></trkpt><trkpt lat="51.4931283" lon="-0.1386683"><ele>10.0</ele><time>2026-05-04T13:48:22.791Z</time></trkpt><trkpt lat="51.4930667" lon="-0.1385383"><ele>10.0</ele><time>2026-05-04T13:48:23.793Z</time></trkpt><trkpt lat="51.4930033" lon="-0.1384117"><ele>10.0</ele><time>2026-05-04T13:48:24.791Z</time></trkpt><trkpt lat="51.4929383" lon="-0.13828"><ele>10.0</ele><time>2026-05-04T13:48:25.791Z</time></trkpt><trkpt lat="51.4928883" lon="-0.1381417"><ele>10.0</ele><time>2026-05-04T13:48:26.791Z</time></trkpt><trkpt lat="51.492825" lon="-0.13802"><ele>10.0</ele><time>2026-05-04T13:48:27.791Z</time></trkpt><trkpt lat="51.49276" lon="-0.1379117"><ele>10.0</ele><time>2026-05-04T13:48:28.79Z</time></trkpt><trkpt lat="51.4927" lon="-0.1378"><ele>10.0</ele><time>2026-05-04T13:48:29.79Z</time></trkpt><trkpt lat="51.492665" lon="-0.137635"><ele>10.0</ele><time>2026-05-04T13:48:30.791Z</time></trkpt><trkpt lat="51.4926017" lon="-0.1375083"><ele>10.0</ele><time>2026-05-04T13:48:31.79Z</time></trkpt><trkpt lat="51.4925367" lon="-0.137385"><ele>10.0</ele><time>2026-05-04T13:48:32.789Z</time></trkpt><trkpt lat="51.4924783" lon="-0.1372583"><ele>10.0</ele><time>2026-05-04T13:48:33.791Z</time></trkpt><trkpt lat="51.4924183" lon="-0.13714"><ele>10.0</ele><time>2026-05-04T13:48:34.791Z</time></trkpt><trkpt lat="51.4923583" lon="-0.13702"><ele>10.0</ele><time>2026-05-04T13:48:35.791Z</time></trkpt><trkpt lat="51.4923033" lon="-0.1369083"><ele>10.0</ele><time>2026-05-04T13:48:36.79Z</time></trkpt><trkpt lat="51.4922433" lon="-0.1368017"><ele>10.0</ele><time>2026-05-04T13:48:37.791Z</time></trkpt><trkpt lat="51.49219" lon="-0.1366917"><ele>10.0</ele><time>2026-05-04T13:48:38.79Z</time></trkpt><trkpt lat="51.49214" lon="-0.13658"><ele>10.0</ele><time>2026-05-04T13:48:39.791Z</time></trkpt><trkpt lat="51.4920917" lon="-0.136475"><ele>10.0</ele><time>2026-05-04T13:48:40.79Z</time></trkpt><trkpt lat="51.4920417" lon="-0.1363683"><ele>10.333333333333334</ele><time>2026-05-04T13:48:41.791Z</time></trkpt><trkpt lat="51.4919967" lon="-0.1362583"><ele>10.666666666666668</ele><time>2026-05-04T13:48:42.791Z</time></trkpt><trkpt lat="51.491945" lon="-0.1361533"><ele>11.0</ele><time>2026-05-04T13:48:43.791Z</time></trkpt><trkpt lat="51.491895" lon="-0.136045"><ele>11.333333333333334</ele><time>2026-05-04T13:48:44.79Z</time></trkpt><trkpt lat="51.4918417" lon="-0.1359483"><ele>11.666666666666666</ele><time>2026-05-04T13:48:45.791Z</time></trkpt><trkpt lat="51.491795" lon="-0.13585"><ele>12.0</ele><time>2026-05-04T13:48:46.791Z</time></trkpt><trkpt lat="51.4917467" lon="-0.1357583"><ele>12.0</ele><time>2026-05-04T13:48:47.79Z</time></trkpt><trkpt lat="51.4916983" lon="-0.1356567"><ele>12.0</ele><time>2026-05-04T13:48:48.791Z</time></trkpt><trkpt lat="51.49165" lon="-0.1355483"><ele>12.0</ele><time>2026-05-04T13:48:49.791Z</time></trkpt><trkpt lat="51.4916033" lon="-0.135435"><ele>12.0</ele><time>2026-05-04T13:48:50.792Z</time></trkpt><trkpt lat="51.4915533" lon="-0.13532"><ele>12.0</ele><time>2026-05-04T13:48:51.791Z</time></trkpt><trkpt lat="51.4914967" lon="-0.13521"><ele>12.0</ele><time>2026-05-04T13:48:52.792Z</time></trkpt><trkpt lat="51.4914433" lon="-0.135095"><ele>12.0</ele><time>2026-05-04T13:48:53.791Z</time></trkpt><trkpt lat="51.4913883" lon="-0.1349867"><ele>12.0</ele><time>2026-05-04T13:48:54.789Z</time></trkpt><trkpt lat="51.4913317" lon="-0.1348733"><ele>12.0</ele><time>2026-05-04T13:48:55.791Z</time></trkpt><trkpt lat="51.4912833" lon="-0.134755"><ele>12.0</ele><time>2026-05-04T13:48:56.791Z</time></trkpt><trkpt lat="51.4912283" lon="-0.13464"><ele>12.0</ele><time>2026-05-04T13:48:57.79Z</time></trkpt><trkpt lat="51.4911717" lon="-0.134525"><ele>12.0</ele><time>2026-05-04T13:48:58.791Z</time></trkpt><trkpt lat="51.4911183" lon="-0.1344083"><ele>11.666666666666666</ele><time>2026-05-04T13:48:59.792Z</time></trkpt><trkpt lat="51.491065" lon="-0.134295"><ele>11.333333333333334</ele><time>2026-05-04T13:49:00.79Z</time></trkpt><trkpt lat="51.491015" lon="-0.1341833"><ele>11.0</ele><time>2026-05-04T13:49:01.79Z</time></trkpt><trkpt lat="51.49097" lon="-0.1340783"><ele>10.666666666666668</ele><time>2026-05-04T13:49:02.791Z</time></trkpt><trkpt lat="51.4909233" lon="-0.1339833"><ele>10.333333333333334</ele><time>2026-05-04T13:49:03.791Z</time></trkpt><trkpt lat="51.49088" lon="-0.133885"><ele>10.0</ele><time>2026-05-04T13:49:04.79Z</time></trkpt><trkpt lat="51.490835" lon="-0.133795"><ele>10.0</ele><time>2026-05-04T13:49:05.791Z</time></trkpt><trkpt lat="51.4907917" lon="-0.1336983"><ele>10.0</ele><time>2026-05-04T13:49:06.792Z</time></trkpt><trkpt lat="51.4907483" lon="-0.1336"><ele>10.0</ele><time>2026-05-04T13:49:07.791Z</time></trkpt><trkpt lat="51.4907067" lon="-0.1334967"><ele>10.0</ele><time>2026-05-04T13:49:08.79Z</time></trkpt><trkpt lat="51.4906633" lon="-0.1333933"><ele>10.0</ele><time>2026-05-04T13:49:09.79Z</time></trkpt><trkpt lat="51.4906167" lon="-0.1332933"><ele>10.0</ele><time>2026-05-04T13:49:10.791Z</time></trkpt><trkpt lat="51.4905733" lon="-0.13319"><ele>10.0</ele><time>2026-05-04T13:49:11.79Z</time></trkpt><trkpt lat="51.49053" lon="-0.1330883"><ele>10.0</ele><time>2026-05-04T13:49:12.791Z</time></trkpt><trkpt lat="51.4904833" lon="-0.1329833"><ele>10.0</ele><time>2026-05-04T13:49:13.792Z</time></trkpt><trkpt lat="51.4904367" lon="-0.1328717"><ele>10.0</ele><time>2026-05-04T13:49:14.792Z</time></trkpt><trkpt lat="51.4903833" lon="-0.1327733"><ele>10.0</ele><time>2026-05-04T13:49:15.791Z</time></trkpt><trkpt lat="51.4903317" lon="-0.1326867"><ele>10.0</ele><time>2026-05-04T13:49:16.791Z</time></trkpt><trkpt lat="51.490275" lon="-0.132605"><ele>9.5</ele><time>2026-05-04T13:49:17.791Z</time></trkpt><trkpt lat="51.4902183" lon="-0.1325167"><ele>9.0</ele><time>2026-05-04T13:49:18.791Z</time></trkpt><trkpt lat="51.4901633" lon="-0.1324267"><ele>8.5</ele><time>2026-05-04T13:49:19.792Z</time></trkpt><trkpt lat="51.4901167" lon="-0.13234"><ele>8.0</ele><time>2026-05-04T13:49:20.791Z</time></trkpt><trkpt lat="51.490075" lon="-0.1322617"><ele>7.500000000000001</ele><time>2026-05-04T13:49:21.79Z</time></trkpt><trkpt lat="51.4900181" lon="-0.1321542"><ele>7.0</ele><time>2026-05-04T13:49:23.79Z</time></trkpt><trkpt lat="51.489995" lon="-0.1320433"><ele>8.0</ele><time>2026-05-04T13:50:00.79Z</time></trkpt><trkpt lat="51.4899433" lon="-0.131915"><ele>9.0</ele><time>2026-05-04T13:50:02.791Z</time></trkpt><trkpt lat="51.4898667" lon="-0.131745"><ele>10.0</ele><time>2026-05-04T13:50:04.791Z</time></trkpt><trkpt lat="51.4898267" lon="-0.1316583"><ele>11.0</ele><time>2026-05-04T13:50:05.791Z</time></trkpt><trkpt lat="51.4897883" lon="-0.1315767"><ele>12.0</ele><time>2026-05-04T13:50:06.791Z</time></trkpt><trkpt lat="51.4897167" lon="-0.1314283"><ele>12.0</ele><time>2026-05-04T13:50:08.791Z</time></trkpt><trkpt lat="51.489665" lon="-0.131305"><ele>12.0</ele><time>2026-05-04T13:50:10.791Z</time></trkpt><trkpt lat="51.48963" lon="-0.1312083"><ele>12.0</ele><time>2026-05-04T13:50:12.791Z</time></trkpt><trkpt lat="51.4895867" lon="-0.1311167"><ele>12.0</ele><time>2026-05-04T13:50:15.791Z</time></trkpt><trkpt lat="51.48954" lon="-0.1310367"><ele>12.0</ele><time>2026-05-04T13:50:19.792Z</time></trkpt><trkpt lat="51.4894983" lon="-0.1309467"><ele>12.0</ele><time>2026-05-04T13:50:43.79Z</time></trkpt><trkpt lat="51.4894417" lon="-0.13083"><ele>11.666666666666666</ele><time>2026-05-04T13:50:45.79Z</time></trkpt><trkpt lat="51.4893483" lon="-0.1306667"><ele>11.333333333333334</ele><time>2026-05-04T13:50:47.791Z</time></trkpt><trkpt lat="51.4893017" lon="-0.130575"><ele>11.0</ele><time>2026-05-04T13:50:48.791Z</time></trkpt><trkpt lat="51.4892517" lon="-0.1304833"><ele>10.666666666666668</ele><time>2026-05-04T13:50:49.791Z</time></trkpt><trkpt lat="51.4892067" lon="-0.1303883"><ele>10.333333333333334</ele><time>2026-05-04T13:50:50.792Z</time></trkpt><trkpt lat="51.489165" lon="-0.1302933"><ele>10.0</ele><time>2026-05-04T13:50:51.79Z</time></trkpt><trkpt lat="51.489125" lon="-0.1302"><ele>10.0</ele><time>2026-05-04T13:50:52.791Z</time></trkpt><trkpt lat="51.48909" lon="-0.1301033"><ele>10.0</ele><time>2026-05-04T13:50:53.792Z</time></trkpt><trkpt lat="51.4890567" lon="-0.1300067"><ele>10.0</ele><time>2026-05-04T13:50:54.792Z</time></trkpt><trkpt lat="51.4890183" lon="-0.1299133"><ele>10.0</ele><time>2026-05-04T13:50:55.791Z</time></trkpt><trkpt lat="51.488985" lon="-0.1298217"><ele>10.0</ele><time>2026-05-04T13:50:56.792Z</time></trkpt><trkpt lat="51.4889383" lon="-0.129685"><ele>10.0</ele><time>2026-05-04T13:50:58.791Z</time></trkpt><trkpt lat="51.4888617" lon="-0.1295583"><ele>10.2</ele><time>2026-05-04T13:52:22.791Z</time></trkpt><trkpt lat="51.48883" lon="-0.1294633"><ele>10.4</ele><time>2026-05-04T13:52:23.79Z</time></trkpt><trkpt lat="51.4887833" lon="-0.129345"><ele>10.600000000000001</ele><time>2026-05-04T13:52:24.792Z</time></trkpt><trkpt lat="51.4887283" lon="-0.1292217"><ele>10.8</ele><time>2026-05-04T13:52:25.792Z</time></trkpt><trkpt lat="51.4886717" lon="-0.1290867"><ele>11.0</ele><time>2026-05-04T13:52:26.791Z</time></trkpt><trkpt lat="51.4886067" lon="-0.1289383"><ele>10.5</ele><time>2026-05-04T13:52:27.791Z</time></trkpt><trkpt lat="51.48854" lon="-0.1287683"><ele>10.0</ele><time>2026-05-04T13:52:28.791Z</time></trkpt><trkpt lat="51.4884683" lon="-0.1286067"><ele>9.5</ele><time>2026-05-04T13:52:29.794Z</time></trkpt><trkpt lat="51.4883933" lon="-0.1284417"><ele>9.0</ele><time>2026-05-04T13:52:30.792Z</time></trkpt><trkpt lat="51.4883167" lon="-0.1282833"><ele>7.5</ele><time>2026-05-04T13:52:31.791Z</time></trkpt><trkpt lat="51.4882317" lon="-0.1281283"><ele>6.0</ele><time>2026-05-04T13:52:32.791Z</time></trkpt><trkpt lat="51.4881533" lon="-0.1279683"><ele>4.5</ele><time>2026-05-04T13:52:33.792Z</time></trkpt><trkpt lat="51.48808" lon="-0.1278117"><ele>3.0</ele><time>2026-05-04T13:52:34.792Z</time></trkpt><trkpt lat="51.4880017" lon="-0.1276517"><ele>3.0</ele><time>2026-05-04T13:52:35.792Z</time></trkpt><trkpt lat="51.48792" lon="-0.1274917"><ele>3.0</ele><time>2026-05-04T13:52:36.791Z</time></trkpt><trkpt lat="51.4878417" lon="-0.127325"><ele>3.0</ele><time>2026-05-04T13:52:37.792Z</time></trkpt><trkpt lat="51.487745" lon="-0.1271533"><ele>3.0</ele><time>2026-05-04T13:52:38.792Z</time></trkpt><trkpt lat="51.4876467" lon="-0.126975"><ele>3.0</ele><time>2026-05-04T13:52:39.792Z</time></trkpt><trkpt lat="51.4875517" lon="-0.1268017"><ele>3.0</ele><time>2026-05-04T13:52:40.793Z</time></trkpt><trkpt lat="51.4874667" lon="-0.1266317"><ele>3.0</ele><time>2026-05-04T13:52:41.795Z</time></trkpt><trkpt lat="51.4873833" lon="-0.1264667"><ele>3.0</ele><time>2026-05-04T13:52:42.792Z</time></trkpt><trkpt lat="51.4873117" lon="-0.1263017"><ele>3.0</ele><time>2026-05-04T13:52:43.792Z</time></trkpt><trkpt lat="51.4872367" lon="-0.126135"><ele>3.0</ele><time>2026-05-04T13:52:44.792Z</time></trkpt><trkpt lat="51.4871517" lon="-0.1259633"><ele>3.0</ele><time>2026-05-04T13:52:45.791Z</time></trkpt><trkpt lat="51.4870733" lon="-0.125795"><ele>3.0</ele><time>2026-05-04T13:52:46.791Z</time></trkpt><trkpt lat="51.487" lon="-0.1256383"><ele>5.75</ele><time>2026-05-04T13:52:47.791Z</time></trkpt><trkpt lat="51.486935" lon="-0.12549"><ele>8.5</ele><time>2026-05-04T13:52:48.791Z</time></trkpt><trkpt lat="51.4868683" lon="-0.1253333"><ele>11.25</ele><time>2026-05-04T13:52:49.793Z</time></trkpt><trkpt lat="51.4867983" lon="-0.1251633"><ele>14.0</ele><time>2026-05-04T13:52:50.792Z</time></trkpt><trkpt lat="51.4867433" lon="-0.1249767"><ele>15.5</ele><time>2026-05-04T13:52:51.791Z</time></trkpt><trkpt lat="51.486685" lon="-0.12479"><ele>17.0</ele><time>2026-05-04T13:52:52.791Z</time></trkpt><trkpt lat="51.4866333" lon="-0.1246067"><ele>18.5</ele><time>2026-05-04T13:52:53.791Z</time></trkpt><trkpt lat="51.4865867" lon="-0.1244183"><ele>20.0</ele><time>2026-05-04T13:52:54.792Z</time></trkpt><trkpt lat="51.4865467" lon="-0.12422"><ele>19.0</ele><time>2026-05-04T13:52:55.791Z</time></trkpt><trkpt lat="51.4865067" lon="-0.12403"><ele>18.0</ele><time>2026-05-04T13:52:56.791Z</time></trkpt><trkpt lat="51.48647" lon="-0.12384"><ele>17.0</ele><time>2026-05-04T13:52:57.791Z</time></trkpt><trkpt lat="51.4864383" lon="-0.1236433"><ele>16.0</ele><time>2026-05-04T13:52:58.792Z</time></trkpt><trkpt lat="51.4863983" lon="-0.12347"><ele>16.0</ele><time>2026-05-04T13:52:59.793Z</time></trkpt><trkpt lat="51.4863533" lon="-0.1233217"><ele>16.0</ele><time>2026-05-04T13:53:00.792Z</time></trkpt><trkpt lat="51.4863017" lon="-0.1231867"><ele>16.0</ele><time>2026-05-04T13:53:01.792Z</time></trkpt><trkpt lat="51.4862567" lon="-0.123065"><ele>16.0</ele><time>2026-05-04T13:53:02.792Z</time></trkpt><trkpt lat="51.4862167" lon="-0.1229483"><ele>16.0</ele><time>2026-05-04T13:53:03.791Z</time></trkpt><trkpt lat="51.4861733" lon="-0.1228383"><ele>15.4</ele><time>2026-05-04T13:53:04.792Z</time></trkpt><trkpt lat="51.4861333" lon="-0.12272"><ele>14.8</ele><time>2026-05-04T13:53:05.79Z</time></trkpt><trkpt lat="51.486085" lon="-0.1226217"><ele>14.200000000000001</ele><time>2026-05-04T13:53:06.791Z</time></trkpt><trkpt lat="51.4860433" lon="-0.1225333"><ele>13.600000000000001</ele><time>2026-05-04T13:53:07.791Z</time></trkpt><trkpt lat="51.4859733" lon="-0.122365"><ele>13.0</ele><time>2026-05-04T13:53:09.792Z</time></trkpt><trkpt lat="51.4858917" lon="-0.1222667"><ele>12.600000000000001</ele><time>2026-05-04T13:53:11.793Z</time></trkpt><trkpt lat="51.4858233" lon="-0.1222633"><ele>12.200000000000001</ele><time>2026-05-04T13:53:13.791Z</time></trkpt><trkpt lat="51.485935" lon="-0.1222283"><ele>11.8</ele><time>2026-05-04T13:53:17.79Z</time></trkpt><trkpt lat="51.4860767" lon="-0.1222683"><ele>11.4</ele><time>2026-05-04T13:53:19.792Z</time></trkpt><trkpt lat="51.4861483" lon="-0.1223017"><ele>11.0</ele><time>2026-05-04T13:53:21.793Z</time></trkpt><trkpt lat="51.48623" lon="-0.1222883"><ele>11.0</ele><time>2026-05-04T13:53:24.791Z</time></trkpt><trkpt lat="51.486305" lon="-0.122195"><ele>11.0</ele><time>2026-05-04T13:53:29.791Z</time></trkpt><trkpt lat="51.4862683" lon="-0.12228"><ele>11.0</ele><time>2026-05-04T13:53:30.791Z</time></trkpt><trkpt lat="51.4862183" lon="-0.1220567"><ele>11.0</ele><time>2026-05-04T13:53:32.792Z</time></trkpt><trkpt lat="51.4861967" lon="-0.1219467"><ele>11.0</ele><time>2026-05-04T13:53:33.79Z</time></trkpt><trkpt lat="51.486205" lon="-0.12182"><ele>11.0</ele><time>2026-05-04T13:53:34.791Z</time></trkpt><trkpt lat="51.4862017" lon="-0.1216767"><ele>11.0</ele><time>2026-05-04T13:53:35.79Z</time></trkpt><trkpt lat="51.4862067" lon="-0.1215167"><ele>11.0</ele><time>2026-05-04T13:53:36.791Z</time></trkpt><trkpt lat="51.4862033" lon="-0.1213617"><ele>11.0</ele><time>2026-05-04T13:53:37.792Z</time></trkpt><trkpt lat="51.4862033" lon="-0.121225"><ele>11.0</ele><time>2026-05-04T13:53:38.79Z</time></trkpt><trkpt lat="51.4862067" lon="-0.1210983"><ele>10.200000000000001</ele><time>2026-05-04T13:53:39.791Z</time></trkpt><trkpt lat="51.486215" lon="-0.1209683"><ele>9.4</ele><time>2026-05-04T13:53:40.791Z</time></trkpt><trkpt lat="51.4862233" lon="-0.1208267"><ele>8.6</ele><time>2026-05-04T13:53:41.792Z</time></trkpt><trkpt lat="51.486225" lon="-0.1206783"><ele>7.8</ele><time>2026-05-04T13:53:42.791Z</time></trkpt><trkpt lat="51.48623" lon="-0.1205233"><ele>7.0</ele><time>2026-05-04T13:53:43.791Z</time></trkpt><trkpt lat="51.4862367" lon="-0.1203333"><ele>6.75</ele><time>2026-05-04T13:53:44.791Z</time></trkpt><trkpt lat="51.4862617" lon="-0.1201217"><ele>6.5</ele><time>2026-05-04T13:53:45.79Z</time></trkpt><trkpt lat="51.4862867" lon="-0.11992"><ele>6.25</ele><time>2026-05-04T13:53:46.79Z</time></trkpt><trkpt lat="51.4863183" lon="-0.1197283"><ele>6.0</ele><time>2026-05-04T13:53:47.791Z</time></trkpt><trkpt lat="51.48635" lon="-0.119555"><ele>6.4</ele><time>2026-05-04T13:53:48.791Z</time></trkpt><trkpt lat="51.4863717" lon="-0.1194167"><ele>6.8</ele><time>2026-05-04T13:53:49.791Z</time></trkpt><trkpt lat="51.4864" lon="-0.1192817"><ele>7.200000000000001</ele><time>2026-05-04T13:53:50.791Z</time></trkpt><trkpt lat="51.4864233" lon="-0.1191683"><ele>7.6000000000000005</ele><time>2026-05-04T13:53:51.792Z</time></trkpt><trkpt lat="51.4864267" lon="-0.11897"><ele>8.0</ele><time>2026-05-04T13:53:53.793Z</time></trkpt><trkpt lat="51.4863696" lon="-0.1187902"><ele>8.0</ele><time>2026-05-04T13:53:55.792Z</time></trkpt><trkpt lat="51.4863071" lon="-0.118701"><ele>8.0</ele><time>2026-05-04T13:53:56.79Z</time></trkpt><trkpt lat="51.4861938" lon="-0.1186206"><ele>8.0</ele><time>2026-05-04T13:53:57.792Z</time></trkpt><trkpt lat="51.4860671" lon="-0.1185252"><ele>8.0</ele><time>2026-05-04T13:53:58.79Z</time></trkpt><trkpt lat="51.4858759" lon="-0.1184611"><ele>7.333333333333333</ele><time>2026-05-04T13:53:59.792Z</time></trkpt><trkpt lat="51.4856777" lon="-0.1184053"><ele>6.666666666666666</ele><time>2026-05-04T13:54:00.792Z</time></trkpt><trkpt lat="51.4854665" lon="-0.1183777"><ele>6.0</ele><time>2026-05-04T13:54:01.791Z</time></trkpt><trkpt lat="51.4852917" lon="-0.1183377"><ele>5.75</ele><time>2026-05-04T13:54:02.792Z</time></trkpt><trkpt lat="51.4851388" lon="-0.1182992"><ele>5.5</ele><time>2026-05-04T13:54:03.79Z</time></trkpt><trkpt lat="51.4850161" lon="-0.118252"><ele>5.25</ele><time>2026-05-04T13:54:04.791Z</time></trkpt><trkpt lat="51.4848713" lon="-0.1182129"><ele>5.0</ele><time>2026-05-04T13:54:05.792Z</time></trkpt><trkpt lat="51.4847609" lon="-0.1181298"><ele>5.166666666666667</ele><time>2026-05-04T13:54:06.791Z</time></trkpt><trkpt lat="51.484675" lon="-0.1180332"><ele>5.333333333333334</ele><time>2026-05-04T13:54:07.791Z</time></trkpt><trkpt lat="51.4846155" lon="-0.1179314"><ele>5.5</ele><time>2026-05-04T13:54:08.792Z</time></trkpt><trkpt lat="51.4845663" lon="-0.1178405"><ele>5.666666666666667</ele><time>2026-05-04T13:54:09.79Z</time></trkpt><trkpt lat="51.4845254" lon="-0.117754"><ele>5.833333333333333</ele><time>2026-05-04T13:54:10.792Z</time></trkpt><trkpt lat="51.4844838" lon="-0.1176635"><ele>6.0</ele><time>2026-05-04T13:54:11.792Z</time></trkpt><trkpt lat="51.4844412" lon="-0.1175659"><ele>6.0</ele><time>2026-05-04T13:54:12.792Z</time></trkpt><trkpt lat="51.4843968" lon="-0.117463"><ele>6.0</ele><time>2026-05-04T13:54:13.791Z</time></trkpt><trkpt lat="51.4843502" lon="-0.1173608"><ele>6.0</ele><time>2026-05-04T13:54:14.793Z</time></trkpt><trkpt lat="51.4842971" lon="-0.1172582"><ele>6.0</ele><time>2026-05-04T13:54:15.792Z</time></trkpt><trkpt lat="51.4842433" lon="-0.1171476"><ele>6.0</ele><time>2026-05-04T13:54:16.791Z</time></trkpt><trkpt lat="51.4841828" lon="-0.1170406"><ele>6.0</ele><time>2026-05-04T13:54:17.792Z</time></trkpt><trkpt lat="51.4841209" lon="-0.1169417"><ele>6.166666666666667</ele><time>2026-05-04T13:54:18.791Z</time></trkpt><trkpt lat="51.4840537" lon="-0.1168636"><ele>6.333333333333334</ele><time>2026-05-04T13:54:19.792Z</time></trkpt><trkpt lat="51.4839839" lon="-0.116815"><ele>6.5</ele><time>2026-05-04T13:54:20.794Z</time></trkpt><trkpt lat="51.4839133" lon="-0.1167848"><ele>6.666666666666667</ele><time>2026-05-04T13:54:21.799Z</time></trkpt><trkpt lat="51.4838483" lon="-0.1167582"><ele>6.833333333333334</ele><time>2026-05-04T13:54:22.795Z</time></trkpt><trkpt lat="51.4837437" lon="-0.116723"><ele>7.0</ele><time>2026-05-04T13:54:24.795Z</time></trkpt><trkpt lat="51.4836801" lon="-0.1167031"><ele>7.199999999999999</ele><time>2026-05-04T13:54:26.791Z</time></trkpt><trkpt lat="51.4835883" lon="-0.11666"><ele>7.3999999999999995</ele><time>2026-05-04T13:54:41.791Z</time></trkpt><trkpt lat="51.483515" lon="-0.11656"><ele>7.6000000000000005</ele><time>2026-05-04T13:54:43.792Z</time></trkpt><trkpt lat="51.4834167" lon="-0.1164167"><ele>7.800000000000001</ele><time>2026-05-04T13:54:45.792Z</time></trkpt><trkpt lat="51.4833467" lon="-0.1163"><ele>8.0</ele><time>2026-05-04T13:54:46.791Z</time></trkpt><trkpt lat="51.4832583" lon="-0.116165"><ele>8.0</ele><time>2026-05-04T13:54:47.792Z</time></trkpt><trkpt lat="51.4831567" lon="-0.115975"><ele>8.0</ele><time>2026-05-04T13:54:48.791Z</time></trkpt><trkpt lat="51.48307" lon="-0.1157817"><ele>8.0</ele><time>2026-05-04T13:54:49.793Z</time></trkpt><trkpt lat="51.4829933" lon="-0.1155933"><ele>8.0</ele><time>2026-05-04T13:54:50.791Z</time></trkpt><trkpt lat="51.48293" lon="-0.115395"><ele>8.75</ele><time>2026-05-04T13:54:51.791Z</time></trkpt><trkpt lat="51.48288" lon="-0.1151917"><ele>9.5</ele><time>2026-05-04T13:54:52.792Z</time></trkpt><trkpt lat="51.4828433" lon="-0.114985"><ele>10.25</ele><time>2026-05-04T13:54:53.792Z</time></trkpt><trkpt lat="51.4828167" lon="-0.1147783"><ele>11.0</ele><time>2026-05-04T13:54:54.792Z</time></trkpt><trkpt lat="51.4828033" lon="-0.1145633"><ele>11.0</ele><time>2026-05-04T13:54:55.792Z</time></trkpt><trkpt lat="51.482795" lon="-0.1143567"><ele>11.0</ele><time>2026-05-04T13:54:56.791Z</time></trkpt><trkpt lat="51.4828067" lon="-0.11415"><ele>11.0</ele><time>2026-05-04T13:54:57.79Z</time></trkpt><trkpt lat="51.4828167" lon="-0.1139667"><ele>11.0</ele><time>2026-05-04T13:54:58.792Z</time></trkpt><trkpt lat="51.482835" lon="-0.113775"><ele>10.600000000000001</ele><time>2026-05-04T13:54:59.792Z</time></trkpt><trkpt lat="51.4828467" lon="-0.1136117"><ele>10.200000000000001</ele><time>2026-05-04T13:55:00.791Z</time></trkpt><trkpt lat="51.4828467" lon="-0.113465"><ele>9.8</ele><time>2026-05-04T13:55:01.792Z</time></trkpt><trkpt lat="51.4828283" lon="-0.1133267"><ele>9.4</ele><time>2026-05-04T13:55:02.792Z</time></trkpt><trkpt lat="51.4827933" lon="-0.1131483"><ele>9.0</ele><time>2026-05-04T13:55:04.791Z</time></trkpt><trkpt lat="51.4827217" lon="-0.113045"><ele>9.0</ele><time>2026-05-04T13:55:06.791Z</time></trkpt><trkpt lat="51.4826317" lon="-0.112975"><ele>9.0</ele><time>2026-05-04T13:55:08.793Z</time></trkpt><trkpt lat="51.48255" lon="-0.1128933"><ele>9.0</ele><time>2026-05-04T13:55:10.792Z</time></trkpt><trkpt lat="51.4824717" lon="-0.11282"><ele>9.0</ele><time>2026-05-04T13:55:12.792Z</time></trkpt><trkpt lat="51.4824083" lon="-0.1127567"><ele>9.0</ele><time>2026-05-04T13:55:14.791Z</time></trkpt><trkpt lat="51.4823333" lon="-0.1127033"><ele>9.0</ele><time>2026-05-04T13:55:17.792Z</time></trkpt><trkpt lat="51.4822617" lon="-0.1126083"><ele>9.0</ele><time>2026-05-04T13:55:58.79Z</time></trkpt><trkpt lat="51.4821883" lon="-0.1124967"><ele>9.0</ele><time>2026-05-04T13:56:00.791Z</time></trkpt><trkpt lat="51.4821067" lon="-0.11239"><ele>9.0</ele><time>2026-05-04T13:56:02.791Z</time></trkpt><trkpt lat="51.4820417" lon="-0.1122833"><ele>9.0</ele><time>2026-05-04T13:56:04.792Z</time></trkpt><trkpt lat="51.4819967" lon="-0.1121983"><ele>9.0</ele><time>2026-05-04T13:56:06.791Z</time></trkpt><trkpt lat="51.48195" lon="-0.1121183"><ele>9.0</ele><time>2026-05-04T13:56:10.791Z</time></trkpt><trkpt lat="51.4818867" lon="-0.1120133"><ele>8.8</ele><time>2026-05-04T13:56:14.792Z</time></trkpt><trkpt lat="51.4818317" lon="-0.1118633"><ele>8.600000000000001</ele><time>2026-05-04T13:56:16.792Z</time></trkpt><trkpt lat="51.4817867" lon="-0.1117183"><ele>8.4</ele><time>2026-05-04T13:56:18.79Z</time></trkpt><trkpt lat="51.481715" lon="-0.1115567"><ele>8.200000000000001</ele><time>2026-05-04T13:56:20.791Z</time></trkpt><trkpt lat="51.48168" lon="-0.1114683"><ele>8.0</ele><time>2026-05-04T13:56:21.792Z</time></trkpt><trkpt lat="51.48162" lon="-0.1112967"><ele>7.999999999999999</ele><time>2026-05-04T13:56:23.792Z</time></trkpt><trkpt lat="51.4815583" lon="-0.111135"><ele>8.0</ele><time>2026-05-04T13:56:25.792Z</time></trkpt><trkpt lat="51.4814983" lon="-0.111"><ele>8.0</ele><time>2026-05-04T13:56:27.79Z</time></trkpt><trkpt lat="51.481465" lon="-0.1109"><ele>8.0</ele><time>2026-05-04T13:56:29.79Z</time></trkpt><trkpt lat="51.481405" lon="-0.110835"><ele>7.999999999999999</ele><time>2026-05-04T13:56:47.792Z</time></trkpt><trkpt lat="51.4813433" lon="-0.110765"><ele>8.0</ele><time>2026-05-04T13:56:49.792Z</time></trkpt><trkpt lat="51.4812167" lon="-0.1107467"><ele>8.200000000000001</ele><time>2026-05-04T13:56:51.791Z</time></trkpt><trkpt lat="51.4811283" lon="-0.11077"><ele>8.4</ele><time>2026-05-04T13:56:52.792Z</time></trkpt><trkpt lat="51.4810267" lon="-0.11081"><ele>8.600000000000001</ele><time>2026-05-04T13:56:53.793Z</time></trkpt><trkpt lat="51.480925" lon="-0.11085"><ele>8.8</ele><time>2026-05-04T13:56:54.791Z</time></trkpt><trkpt lat="51.4808367" lon="-0.1108967"><ele>9.0</ele><time>2026-05-04T13:56:55.792Z</time></trkpt><trkpt lat="51.4807517" lon="-0.11094"><ele>9.0</ele><time>2026-05-04T13:56:56.791Z</time></trkpt><trkpt lat="51.4806683" lon="-0.1109833"><ele>9.0</ele><time>2026-05-04T13:56:57.792Z</time></trkpt><trkpt lat="51.4805883" lon="-0.1110267"><ele>9.0</ele><time>2026-05-04T13:56:58.791Z</time></trkpt><trkpt lat="51.480505" lon="-0.1110717"><ele>9.0</ele><time>2026-05-04T13:56:59.792Z</time></trkpt><trkpt lat="51.4804183" lon="-0.1111117"><ele>9.0</ele><time>2026-05-04T13:57:00.792Z</time></trkpt><trkpt lat="51.48033" lon="-0.11116"><ele>9.0</ele><time>2026-05-04T13:57:01.792Z</time></trkpt><trkpt lat="51.48024" lon="-0.11121"><ele>9.166666666666666</ele><time>2026-05-04T13:57:02.791Z</time></trkpt><trkpt lat="51.4801567" lon="-0.1112617"><ele>9.333333333333334</ele><time>2026-05-04T13:57:03.791Z</time></trkpt><trkpt lat="51.4800783" lon="-0.1113083"><ele>9.5</ele><time>2026-05-04T13:57:04.792Z</time></trkpt><trkpt lat="51.4799983" lon="-0.1113583"><ele>9.666666666666668</ele><time>2026-05-04T13:57:05.792Z</time></trkpt><trkpt lat="51.4799167" lon="-0.1114083"><ele>9.833333333333334</ele><time>2026-05-04T13:57:06.792Z</time></trkpt><trkpt lat="51.4798383" lon="-0.111455"><ele>10.0</ele><time>2026-05-04T13:57:07.792Z</time></trkpt><trkpt lat="51.479765" lon="-0.1115067"><ele>10.0</ele><time>2026-05-04T13:57:08.792Z</time></trkpt><trkpt lat="51.479685" lon="-0.1115483"><ele>10.0</ele><time>2026-05-04T13:57:09.793Z</time></trkpt><trkpt lat="51.4796083" lon="-0.1115967"><ele>10.0</ele><time>2026-05-04T13:57:10.792Z</time></trkpt><trkpt lat="51.4795317" lon="-0.11164"><ele>10.0</ele><time>2026-05-04T13:57:11.792Z</time></trkpt><trkpt lat="51.4794583" lon="-0.1116783"><ele>10.0</ele><time>2026-05-04T13:57:12.793Z</time></trkpt><trkpt lat="51.4793833" lon="-0.111715"><ele>10.0</ele><time>2026-05-04T13:57:13.792Z</time></trkpt><trkpt lat="51.4793067" lon="-0.1117383"><ele>9.833333333333334</ele><time>2026-05-04T13:57:14.792Z</time></trkpt><trkpt lat="51.479235" lon="-0.11176"><ele>9.666666666666668</ele><time>2026-05-04T13:57:15.792Z</time></trkpt><trkpt lat="51.4791633" lon="-0.1117817"><ele>9.5</ele><time>2026-05-04T13:57:16.794Z</time></trkpt><trkpt lat="51.4790917" lon="-0.1118067"><ele>9.333333333333334</ele><time>2026-05-04T13:57:17.794Z</time></trkpt><trkpt lat="51.4790183" lon="-0.1118417"><ele>9.166666666666666</ele><time>2026-05-04T13:57:18.791Z</time></trkpt><trkpt lat="51.4789417" lon="-0.111885"><ele>9.0</ele><time>2026-05-04T13:57:19.792Z</time></trkpt><trkpt lat="51.4788617" lon="-0.1119183"><ele>9.0</ele><time>2026-05-04T13:57:20.79Z</time></trkpt><trkpt lat="51.47878" lon="-0.1119633"><ele>9.0</ele><time>2026-05-04T13:57:21.792Z</time></trkpt><trkpt lat="51.478705" lon="-0.111995"><ele>9.0</ele><time>2026-05-04T13:57:22.792Z</time></trkpt><trkpt lat="51.4786233" lon="-0.1120217"><ele>9.0</ele><time>2026-05-04T13:57:23.793Z</time></trkpt><trkpt lat="51.4785433" lon="-0.1120583"><ele>9.0</ele><time>2026-05-04T13:57:24.792Z</time></trkpt><trkpt lat="51.4784633" lon="-0.1120883"><ele>9.0</ele><time>2026-05-04T13:57:25.792Z</time></trkpt><trkpt lat="51.4783817" lon="-0.1121167"><ele>9.0</ele><time>2026-05-04T13:57:26.793Z</time></trkpt><trkpt lat="51.4783017" lon="-0.1121383"><ele>9.0</ele><time>2026-05-04T13:57:27.792Z</time></trkpt><trkpt lat="51.4782233" lon="-0.1121617"><ele>9.0</ele><time>2026-05-04T13:57:28.792Z</time></trkpt><trkpt lat="51.478145" lon="-0.1121817"><ele>9.0</ele><time>2026-05-04T13:57:29.791Z</time></trkpt><trkpt lat="51.4780633" lon="-0.1122017"><ele>9.0</ele><time>2026-05-04T13:57:30.791Z</time></trkpt><trkpt lat="51.4779833" lon="-0.112215"><ele>9.0</ele><time>2026-05-04T13:57:31.792Z</time></trkpt><trkpt lat="51.4779033" lon="-0.1122267"><ele>9.0</ele><time>2026-05-04T13:57:32.793Z</time></trkpt><trkpt lat="51.4778233" lon="-0.112235"><ele>9.0</ele><time>2026-05-04T13:57:33.79Z</time></trkpt><trkpt lat="51.47774" lon="-0.112245"><ele>9.0</ele><time>2026-05-04T13:57:34.792Z</time></trkpt><trkpt lat="51.47766" lon="-0.1122683"><ele>9.0</ele><time>2026-05-04T13:57:35.793Z</time></trkpt><trkpt lat="51.4775783" lon="-0.11228"><ele>9.0</ele><time>2026-05-04T13:57:36.791Z</time></trkpt><trkpt lat="51.4774967" lon="-0.1122933"><ele>9.0</ele><time>2026-05-04T13:57:37.791Z</time></trkpt><trkpt lat="51.4774233" lon="-0.1123083"><ele>9.0</ele><time>2026-05-04T13:57:38.791Z</time></trkpt><trkpt lat="51.4773517" lon="-0.112325"><ele>9.0</ele><time>2026-05-04T13:57:39.789Z</time></trkpt><trkpt lat="51.4772883" lon="-0.1123383"><ele>9.0</ele><time>2026-05-04T13:57:40.791Z</time></trkpt><trkpt lat="51.4771783" lon="-0.1123667"><ele>9.0</ele><time>2026-05-04T13:57:42.791Z</time></trkpt><trkpt lat="51.477095" lon="-0.1123833"><ele>9.0</ele><time>2026-05-04T13:57:44.79Z</time></trkpt><trkpt lat="51.47702" lon="-0.1124033"><ele>9.0</ele><time>2026-05-04T13:57:46.791Z</time></trkpt><trkpt lat="51.47693" lon="-0.1124183"><ele>9.166666666666666</ele><time>2026-05-04T13:57:48.792Z</time></trkpt><trkpt lat="51.4768167" lon="-0.1124217"><ele>9.333333333333334</ele><time>2026-05-04T13:57:50.792Z</time></trkpt><trkpt lat="51.47675" lon="-0.1124183"><ele>9.5</ele><time>2026-05-04T13:57:51.791Z</time></trkpt><trkpt lat="51.4766733" lon="-0.1124217"><ele>9.666666666666668</ele><time>2026-05-04T13:57:52.79Z</time></trkpt><trkpt lat="51.4765933" lon="-0.112425"><ele>9.833333333333334</ele><time>2026-05-04T13:57:53.79Z</time></trkpt><trkpt lat="51.47651" lon="-0.1124317"><ele>10.0</ele><time>2026-05-04T13:57:54.79Z</time></trkpt><trkpt lat="51.476425" lon="-0.1124483"><ele>10.0</ele><time>2026-05-04T13:57:55.79Z</time></trkpt><trkpt lat="51.47634" lon="-0.1124733"><ele>10.0</ele><time>2026-05-04T13:57:56.791Z</time></trkpt><trkpt lat="51.4762583" lon="-0.112495"><ele>10.0</ele><time>2026-05-04T13:57:57.791Z</time></trkpt><trkpt lat="51.4761783" lon="-0.1125133"><ele>10.0</ele><time>2026-05-04T13:57:58.791Z</time></trkpt><trkpt lat="51.476095" lon="-0.1125183"><ele>10.0</ele><time>2026-05-04T13:57:59.791Z</time></trkpt><trkpt lat="51.476015" lon="-0.11252"><ele>10.0</ele><time>2026-05-04T13:58:00.79Z</time></trkpt><trkpt lat="51.47593" lon="-0.1125317"><ele>10.0</ele><time>2026-05-04T13:58:01.791Z</time></trkpt><trkpt lat="51.4758483" lon="-0.1125383"><ele>10.0</ele><time>2026-05-04T13:58:02.792Z</time></trkpt><trkpt lat="51.4757617" lon="-0.11255"><ele>10.0</ele><time>2026-05-04T13:58:03.791Z</time></trkpt><trkpt lat="51.4756783" lon="-0.11256"><ele>10.0</ele><time>2026-05-04T13:58:04.79Z</time></trkpt><trkpt lat="51.475595" lon="-0.1125683"><ele>10.0</ele><time>2026-05-04T13:58:05.791Z</time></trkpt><trkpt lat="51.475515" lon="-0.1125767"><ele>10.0</ele><time>2026-05-04T13:58:06.791Z</time></trkpt><trkpt lat="51.4754333" lon="-0.1125833"><ele>10.166666666666668</ele><time>2026-05-04T13:58:07.79Z</time></trkpt><trkpt lat="51.4753533" lon="-0.1125917"><ele>10.333333333333334</ele><time>2026-05-04T13:58:08.79Z</time></trkpt><trkpt lat="51.4752717" lon="-0.1126017"><ele>10.5</ele><time>2026-05-04T13:58:09.789Z</time></trkpt><trkpt lat="51.4751883" lon="-0.1126167"><ele>10.666666666666666</ele><time>2026-05-04T13:58:10.791Z</time></trkpt><trkpt lat="51.4751067" lon="-0.112625"><ele>10.833333333333332</ele><time>2026-05-04T13:58:11.791Z</time></trkpt><trkpt lat="51.475025" lon="-0.1126267"><ele>11.0</ele><time>2026-05-04T13:58:12.791Z</time></trkpt><trkpt lat="51.4749483" lon="-0.11263"><ele>11.0</ele><time>2026-05-04T13:58:13.791Z</time></trkpt><trkpt lat="51.4748667" lon="-0.1126383"><ele>11.0</ele><time>2026-05-04T13:58:14.791Z</time></trkpt><trkpt lat="51.474785" lon="-0.1126567"><ele>11.0</ele><time>2026-05-04T13:58:15.791Z</time></trkpt><trkpt lat="51.4747033" lon="-0.11267"><ele>11.0</ele><time>2026-05-04T13:58:16.79Z</time></trkpt><trkpt lat="51.4746217" lon="-0.11268"><ele>11.0</ele><time>2026-05-04T13:58:17.791Z</time></trkpt><trkpt lat="51.4745383" lon="-0.1126917"><ele>11.0</ele><time>2026-05-04T13:58:18.79Z</time></trkpt><trkpt lat="51.4744533" lon="-0.1126983"><ele>10.666666666666666</ele><time>2026-05-04T13:58:19.791Z</time></trkpt><trkpt lat="51.4743733" lon="-0.112705"><ele>10.333333333333332</ele><time>2026-05-04T13:58:20.792Z</time></trkpt><trkpt lat="51.474295" lon="-0.112705"><ele>10.0</ele><time>2026-05-04T13:58:21.791Z</time></trkpt><trkpt lat="51.4742133" lon="-0.1127067"><ele>9.666666666666666</ele><time>2026-05-04T13:58:22.79Z</time></trkpt><trkpt lat="51.4741333" lon="-0.112705"><ele>9.333333333333334</ele><time>2026-05-04T13:58:23.79Z</time></trkpt><trkpt lat="51.4740517" lon="-0.1127083"><ele>9.0</ele><time>2026-05-04T13:58:24.79Z</time></trkpt><trkpt lat="51.473975" lon="-0.1127117"><ele>9.0</ele><time>2026-05-04T13:58:25.792Z</time></trkpt><trkpt lat="51.47391" lon="-0.1127083"><ele>9.0</ele><time>2026-05-04T13:58:26.79Z</time></trkpt><trkpt lat="51.4738183" lon="-0.1126617"><ele>9.0</ele><time>2026-05-04T13:58:28.791Z</time></trkpt><trkpt lat="51.4737633" lon="-0.1125767"><ele>9.0</ele><time>2026-05-04T13:58:30.792Z</time></trkpt><trkpt lat="51.4737367" lon="-0.1123833"><ele>9.0</ele><time>2026-05-04T13:58:32.791Z</time></trkpt><trkpt lat="51.4737267" lon="-0.1122483"><ele>9.0</ele><time>2026-05-04T13:58:33.79Z</time></trkpt><trkpt lat="51.4737133" lon="-0.112075"><ele>9.25</ele><time>2026-05-04T13:58:34.79Z</time></trkpt><trkpt lat="51.4736867" lon="-0.1118533"><ele>9.5</ele><time>2026-05-04T13:58:35.792Z</time></trkpt><trkpt lat="51.4736567" lon="-0.111605"><ele>9.75</ele><time>2026-05-04T13:58:36.791Z</time></trkpt><trkpt lat="51.473615" lon="-0.1113817"><ele>10.0</ele><time>2026-05-04T13:58:37.791Z</time></trkpt><trkpt lat="51.47358" lon="-0.1111567"><ele>9.6</ele><time>2026-05-04T13:58:38.791Z</time></trkpt><trkpt lat="51.4735467" lon="-0.1109383"><ele>9.2</ele><time>2026-05-04T13:58:39.791Z</time></trkpt><trkpt lat="51.4735167" lon="-0.11077"><ele>8.8</ele><time>2026-05-04T13:58:40.791Z</time></trkpt><trkpt lat="51.4735017" lon="-0.1106283"><ele>8.4</ele><time>2026-05-04T13:58:41.791Z</time></trkpt><trkpt lat="51.473485" lon="-0.1105217"><ele>8.0</ele><time>2026-05-04T13:58:42.79Z</time></trkpt><trkpt lat="51.4734817" lon="-0.1103317"><ele>8.0</ele><time>2026-05-04T13:58:44.791Z</time></trkpt><trkpt lat="51.4734917" lon="-0.1102017"><ele>8.0</ele><time>2026-05-04T13:58:45.791Z</time></trkpt><trkpt lat="51.4735117" lon="-0.1100367"><ele>8.0</ele><time>2026-05-04T13:58:46.79Z</time></trkpt><trkpt lat="51.4735367" lon="-0.1098717"><ele>8.0</ele><time>2026-05-04T13:58:47.79Z</time></trkpt><trkpt lat="51.4735583" lon="-0.1097083"><ele>8.0</ele><time>2026-05-04T13:58:48.791Z</time></trkpt><trkpt lat="51.4735667" lon="-0.1095433"><ele>7.666666666666666</ele><time>2026-05-04T13:58:49.791Z</time></trkpt><trkpt lat="51.4735817" lon="-0.109375"><ele>7.333333333333333</ele><time>2026-05-04T13:58:50.792Z</time></trkpt><trkpt lat="51.4735917" lon="-0.10921"><ele>7.0</ele><time>2026-05-04T13:58:51.791Z</time></trkpt><trkpt lat="51.4736083" lon="-0.1090617"><ele>6.666666666666666</ele><time>2026-05-04T13:58:52.79Z</time></trkpt><trkpt lat="51.473625" lon="-0.1089417"><ele>6.333333333333333</ele><time>2026-05-04T13:58:53.791Z</time></trkpt><trkpt lat="51.47364" lon="-0.108835"><ele>6.0</ele><time>2026-05-04T13:58:54.791Z</time></trkpt><trkpt lat="51.473645" lon="-0.10873"><ele>6.0</ele><time>2026-05-04T13:58:56.79Z</time></trkpt><trkpt lat="51.47364" lon="-0.10857"><ele>6.0</ele><time>2026-05-04T13:58:58.795Z</time></trkpt><trkpt lat="51.473645" lon="-0.108455"><ele>6.0</ele><time>2026-05-04T13:58:59.792Z</time></trkpt><trkpt lat="51.4736633" lon="-0.1083"><ele>6.0</ele><time>2026-05-04T13:59:00.795Z</time></trkpt><trkpt lat="51.473685" lon="-0.1081133"><ele>6.0</ele><time>2026-05-04T13:59:01.791Z</time></trkpt><trkpt lat="51.4737183" lon="-0.1078967"><ele>6.4</ele><time>2026-05-04T13:59:02.791Z</time></trkpt><trkpt lat="51.4737433" lon="-0.1077067"><ele>6.8</ele><time>2026-05-04T13:59:03.79Z</time></trkpt><trkpt lat="51.4737717" lon="-0.107555"><ele>7.200000000000001</ele><time>2026-05-04T13:59:04.789Z</time></trkpt><trkpt lat="51.473795" lon="-0.1074233"><ele>7.6000000000000005</ele><time>2026-05-04T13:59:05.791Z</time></trkpt><trkpt lat="51.4738017" lon="-0.107295"><ele>8.0</ele><time>2026-05-04T13:59:06.79Z</time></trkpt><trkpt lat="51.4737917" lon="-0.10719"><ele>8.333333333333332</ele><time>2026-05-04T13:59:07.794Z</time></trkpt><trkpt lat="51.473775" lon="-0.1070183"><ele>8.666666666666666</ele><time>2026-05-04T13:59:09.789Z</time></trkpt><trkpt lat="51.4737167" lon="-0.1069583"><ele>9.0</ele><time>2026-05-04T13:59:11.795Z</time></trkpt><trkpt lat="51.4736533" lon="-0.1069667"><ele>9.333333333333334</ele><time>2026-05-04T13:59:13.791Z</time></trkpt><trkpt lat="51.47359" lon="-0.1070183"><ele>9.666666666666668</ele><time>2026-05-04T13:59:14.791Z</time></trkpt><trkpt lat="51.4735183" lon="-0.1070867"><ele>10.0</ele><time>2026-05-04T13:59:15.791Z</time></trkpt><trkpt lat="51.4734367" lon="-0.107155"><ele>10.25</ele><time>2026-05-04T13:59:16.79Z</time></trkpt><trkpt lat="51.473375" lon="-0.1072067"><ele>10.5</ele><time>2026-05-04T13:59:17.791Z</time></trkpt><trkpt lat="51.4733017" lon="-0.10726"><ele>10.75</ele><time>2026-05-04T13:59:18.791Z</time></trkpt><trkpt lat="51.4732217" lon="-0.1073183"><ele>11.0</ele><time>2026-05-04T13:59:20.792Z</time></trkpt><trkpt lat="51.47345" lon="-0.1078367"><ele>10.4</ele><time>2026-05-04T13:59:51.73Z</time></trkpt><trkpt lat="51.4732633" lon="-0.10774"><ele>9.8</ele><time>2026-05-04T13:59:53.791Z</time></trkpt><trkpt lat="51.4732183" lon="-0.10766"><ele>9.200000000000001</ele><time>2026-05-04T13:59:56.791Z</time></trkpt><trkpt lat="51.4731667" lon="-0.1076"><ele>8.600000000000001</ele><time>2026-05-04T14:00:07.792Z</time></trkpt><trkpt lat="51.4730517" lon="-0.1075583"><ele>8.0</ele><time>2026-05-04T14:00:09.79Z</time></trkpt><trkpt lat="51.4729433" lon="-0.1075317"><ele>8.0</ele><time>2026-05-04T14:00:10.792Z</time></trkpt><trkpt lat="51.47284" lon="-0.1075267"><ele>8.0</ele><time>2026-05-04T14:00:11.794Z</time></trkpt><trkpt lat="51.4727267" lon="-0.1075183"><ele>8.0</ele><time>2026-05-04T14:00:12.792Z</time></trkpt><trkpt lat="51.4726117" lon="-0.1075017"><ele>8.0</ele><time>2026-05-04T14:00:13.793Z</time></trkpt><trkpt lat="51.4725" lon="-0.107485"><ele>8.0</ele><time>2026-05-04T14:00:14.793Z</time></trkpt><trkpt lat="51.472395" lon="-0.1074733"><ele>8.0</ele><time>2026-05-04T14:00:15.793Z</time></trkpt><trkpt lat="51.47228" lon="-0.1074467"><ele>8.0</ele><time>2026-05-04T14:00:16.792Z</time></trkpt><trkpt lat="51.4721683" lon="-0.1074133"><ele>8.0</ele><time>2026-05-04T14:00:17.79Z</time></trkpt><trkpt lat="51.47205" lon="-0.10738"><ele>8.0</ele><time>2026-05-04T14:00:18.792Z</time></trkpt><trkpt lat="51.4719467" lon="-0.1073517"><ele>7.999999999999999</ele><time>2026-05-04T14:00:19.792Z</time></trkpt><trkpt lat="51.4718533" lon="-0.1073267"><ele>8.0</ele><time>2026-05-04T14:00:20.792Z</time></trkpt><trkpt lat="51.4717667" lon="-0.1073133"><ele>8.0</ele><time>2026-05-04T14:00:21.791Z</time></trkpt><trkpt lat="51.4716717" lon="-0.107295"><ele>8.0</ele><time>2026-05-04T14:00:22.791Z</time></trkpt><trkpt lat="51.4715867" lon="-0.10729"><ele>7.999999999999999</ele><time>2026-05-04T14:00:23.792Z</time></trkpt><trkpt lat="51.4715117" lon="-0.1072967"><ele>8.0</ele><time>2026-05-04T14:00:24.791Z</time></trkpt><trkpt lat="51.4714467" lon="-0.10729"><ele>7.999999999999999</ele><time>2026-05-04T14:00:25.793Z</time></trkpt><trkpt lat="51.4713417" lon="-0.1072733"><ele>8.0</ele><time>2026-05-04T14:00:27.792Z</time></trkpt><trkpt lat="51.4712583" lon="-0.1072617"><ele>8.0</ele><time>2026-05-04T14:00:30.792Z</time></trkpt><trkpt lat="51.4711767" lon="-0.1072533"><ele>8.0</ele><time>2026-05-04T14:00:32.792Z</time></trkpt><trkpt lat="51.4711117" lon="-0.10724"><ele>7.999999999999999</ele><time>2026-05-04T14:00:33.792Z</time></trkpt><trkpt lat="51.4710317" lon="-0.1072217"><ele>8.0</ele><time>2026-05-04T14:00:34.791Z</time></trkpt><trkpt lat="51.4709517" lon="-0.107205"><ele>8.4</ele><time>2026-05-04T14:00:35.792Z</time></trkpt><trkpt lat="51.47087" lon="-0.1071867"><ele>8.8</ele><time>2026-05-04T14:00:36.792Z</time></trkpt><trkpt lat="51.4707567" lon="-0.1071767"><ele>9.2</ele><time>2026-05-04T14:00:38.791Z</time></trkpt><trkpt lat="51.4706883" lon="-0.107165"><ele>9.6</ele><time>2026-05-04T14:00:40.791Z</time></trkpt><trkpt lat="51.470625" lon="-0.1070717"><ele>10.0</ele><time>2026-05-04T14:01:24.791Z</time></trkpt><trkpt lat="51.4705133" lon="-0.1069633"><ele>10.25</ele><time>2026-05-04T14:01:26.792Z</time></trkpt><trkpt lat="51.4704317" lon="-0.10689"><ele>10.5</ele><time>2026-05-04T14:01:27.792Z</time></trkpt><trkpt lat="51.470325" lon="-0.1068083"><ele>10.75</ele><time>2026-05-04T14:01:28.792Z</time></trkpt><trkpt lat="51.4702033" lon="-0.1067283"><ele>11.0</ele><time>2026-05-04T14:01:29.79Z</time></trkpt><trkpt lat="51.47008" lon="-0.1066483"><ele>11.0</ele><time>2026-05-04T14:01:30.79Z</time></trkpt><trkpt lat="51.469955" lon="-0.1065633"><ele>11.0</ele><time>2026-05-04T14:01:31.791Z</time></trkpt><trkpt lat="51.46983" lon="-0.1064933"><ele>11.0</ele><time>2026-05-04T14:01:32.792Z</time></trkpt><trkpt lat="51.4696867" lon="-0.1064117"><ele>11.0</ele><time>2026-05-04T14:01:33.79Z</time></trkpt><trkpt lat="51.46953" lon="-0.1063283"><ele>10.666666666666666</ele><time>2026-05-04T14:01:34.791Z</time></trkpt><trkpt lat="51.469365" lon="-0.1062383"><ele>10.333333333333334</ele><time>2026-05-04T14:01:35.791Z</time></trkpt><trkpt lat="51.469205" lon="-0.106165"><ele>10.0</ele><time>2026-05-04T14:01:36.791Z</time></trkpt><trkpt lat="51.469045" lon="-0.1060917"><ele>10.0</ele><time>2026-05-04T14:01:37.792Z</time></trkpt><trkpt lat="51.4688933" lon="-0.106015"><ele>10.0</ele><time>2026-05-04T14:01:38.79Z</time></trkpt><trkpt lat="51.468755" lon="-0.1059433"><ele>10.0</ele><time>2026-05-04T14:01:39.791Z</time></trkpt><trkpt lat="51.4686217" lon="-0.1058717"><ele>10.0</ele><time>2026-05-04T14:01:40.791Z</time></trkpt><trkpt lat="51.4684833" lon="-0.1057983"><ele>10.5</ele><time>2026-05-04T14:01:41.792Z</time></trkpt><trkpt lat="51.4683383" lon="-0.1057333"><ele>11.0</ele><time>2026-05-04T14:01:42.792Z</time></trkpt><trkpt lat="51.4682" lon="-0.1056583"><ele>11.5</ele><time>2026-05-04T14:01:43.792Z</time></trkpt><trkpt lat="51.4680617" lon="-0.1055817"><ele>12.0</ele><time>2026-05-04T14:01:44.792Z</time></trkpt><trkpt lat="51.4679283" lon="-0.1055083"><ele>12.0</ele><time>2026-05-04T14:01:45.79Z</time></trkpt><trkpt lat="51.4678067" lon="-0.10544"><ele>12.0</ele><time>2026-05-04T14:01:46.791Z</time></trkpt><trkpt lat="51.4677017" lon="-0.10538"><ele>12.0</ele><time>2026-05-04T14:01:47.792Z</time></trkpt><trkpt lat="51.4676133" lon="-0.105335"><ele>12.0</ele><time>2026-05-04T14:01:48.792Z</time></trkpt><trkpt lat="51.4675467" lon="-0.1052767"><ele>12.0</ele><time>2026-05-04T14:01:49.792Z</time></trkpt><trkpt lat="51.4674617" lon="-0.1052383"><ele>12.0</ele><time>2026-05-04T14:01:50.792Z</time></trkpt><trkpt lat="51.4673758" lon="-0.1051937"><ele>12.0</ele><time>2026-05-04T14:01:51.791Z</time></trkpt><trkpt lat="51.4673021" lon="-0.1051452"><ele>12.0</ele><time>2026-05-04T14:01:52.791Z</time></trkpt><trkpt lat="51.4672455" lon="-0.1050934"><ele>12.0</ele><time>2026-05-04T14:01:53.791Z</time></trkpt><trkpt lat="51.4671291" lon="-0.1049726"><ele>12.0</ele><time>2026-05-04T14:01:55.792Z</time></trkpt><trkpt lat="51.4670539" lon="-0.1048764"><ele>12.75</ele><time>2026-05-04T14:01:56.791Z</time></trkpt><trkpt lat="51.4669681" lon="-0.1047558"><ele>13.5</ele><time>2026-05-04T14:01:57.79Z</time></trkpt><trkpt lat="51.4668731" lon="-0.1046166"><ele>14.25</ele><time>2026-05-04T14:01:58.791Z</time></trkpt><trkpt lat="51.4667761" lon="-0.1044752"><ele>15.0</ele><time>2026-05-04T14:01:59.791Z</time></trkpt><trkpt lat="51.4666684" lon="-0.1043427"><ele>15.0</ele><time>2026-05-04T14:02:00.791Z</time></trkpt><trkpt lat="51.4665589" lon="-0.1042154"><ele>15.0</ele><time>2026-05-04T14:02:01.792Z</time></trkpt><trkpt lat="51.4664446" lon="-0.1040873"><ele>15.0</ele><time>2026-05-04T14:02:02.79Z</time></trkpt><trkpt lat="51.4663325" lon="-0.1039617"><ele>15.0</ele><time>2026-05-04T14:02:03.791Z</time></trkpt><trkpt lat="51.4662263" lon="-0.1038407"><ele>15.2</ele><time>2026-05-04T14:02:04.792Z</time></trkpt><trkpt lat="51.4661174" lon="-0.10374"><ele>15.4</ele><time>2026-05-04T14:02:05.791Z</time></trkpt><trkpt lat="51.4660324" lon="-0.1036334"><ele>15.600000000000001</ele><time>2026-05-04T14:02:06.791Z</time></trkpt><trkpt lat="51.4659583" lon="-0.103533"><ele>15.8</ele><time>2026-05-04T14:02:07.792Z</time></trkpt><trkpt lat="51.4658934" lon="-0.1034451"><ele>16.0</ele><time>2026-05-04T14:02:08.791Z</time></trkpt><trkpt lat="51.465832" lon="-0.1033673"><ele>15.999999999999998</ele><time>2026-05-04T14:02:09.792Z</time></trkpt><trkpt lat="51.4657799" lon="-0.1032998"><ele>16.0</ele><time>2026-05-04T14:02:10.792Z</time></trkpt><trkpt lat="51.4657261" lon="-0.1031938"><ele>16.0</ele><time>2026-05-04T14:02:12.791Z</time></trkpt><trkpt lat="51.4656933" lon="-0.103075"><ele>16.0</ele><time>2026-05-04T14:02:26.791Z</time></trkpt><trkpt lat="51.46565" lon="-0.1029783"><ele>15.999999999999998</ele><time>2026-05-04T14:02:27.791Z</time></trkpt><trkpt lat="51.4655867" lon="-0.10286"><ele>16.0</ele><time>2026-05-04T14:02:28.791Z</time></trkpt><trkpt lat="51.4655033" lon="-0.1027317"><ele>16.25</ele><time>2026-05-04T14:02:29.79Z</time></trkpt><trkpt lat="51.4653933" lon="-0.1025867"><ele>16.5</ele><time>2026-05-04T14:02:30.79Z</time></trkpt><trkpt lat="51.4652767" lon="-0.1024467"><ele>16.75</ele><time>2026-05-04T14:02:31.79Z</time></trkpt><trkpt lat="51.4651567" lon="-0.1023"><ele>17.0</ele><time>2026-05-04T14:02:32.791Z</time></trkpt><trkpt lat="51.4650433" lon="-0.1021533"><ele>17.0</ele><time>2026-05-04T14:02:33.792Z</time></trkpt><trkpt lat="51.464925" lon="-0.1020133"><ele>17.0</ele><time>2026-05-04T14:02:34.791Z</time></trkpt><trkpt lat="51.4648083" lon="-0.1018233"><ele>17.0</ele><time>2026-05-04T14:02:35.792Z</time></trkpt><trkpt lat="51.4646833" lon="-0.1016767"><ele>17.0</ele><time>2026-05-04T14:02:36.794Z</time></trkpt><trkpt lat="51.464575" lon="-0.10154"><ele>17.0</ele><time>2026-05-04T14:02:37.791Z</time></trkpt><trkpt lat="51.4644783" lon="-0.1014267"><ele>17.0</ele><time>2026-05-04T14:02:38.792Z</time></trkpt><trkpt lat="51.4644133" lon="-0.10133"><ele>17.0</ele><time>2026-05-04T14:02:39.791Z</time></trkpt><trkpt lat="51.4643467" lon="-0.1012433"><ele>17.0</ele><time>2026-05-04T14:02:40.791Z</time></trkpt><trkpt lat="51.4642683" lon="-0.1011617"><ele>17.0</ele><time>2026-05-04T14:02:41.791Z</time></trkpt><trkpt lat="51.46417" lon="-0.1011"><ele>17.0</ele><time>2026-05-04T14:02:42.795Z</time></trkpt><trkpt lat="51.4640617" lon="-0.1010567"><ele>17.0</ele><time>2026-05-04T14:02:43.792Z</time></trkpt><trkpt lat="51.463955" lon="-0.101015"><ele>17.0</ele><time>2026-05-04T14:02:44.792Z</time></trkpt><trkpt lat="51.4638033" lon="-0.101035"><ele>17.75</ele><time>2026-05-04T14:02:45.792Z</time></trkpt><trkpt lat="51.4636633" lon="-0.1010517"><ele>18.5</ele><time>2026-05-04T14:02:46.792Z</time></trkpt><trkpt lat="51.4635333" lon="-0.1010633"><ele>19.25</ele><time>2026-05-04T14:02:47.795Z</time></trkpt><trkpt lat="51.463415" lon="-0.1010917"><ele>20.0</ele><time>2026-05-04T14:02:48.792Z</time></trkpt><trkpt lat="51.4632983" lon="-0.1011167"><ele>20.0</ele><time>2026-05-04T14:02:49.791Z</time></trkpt><trkpt lat="51.4631733" lon="-0.10115"><ele>20.0</ele><time>2026-05-04T14:02:50.791Z</time></trkpt><trkpt lat="51.4630433" lon="-0.1011833"><ele>20.0</ele><time>2026-05-04T14:02:51.79Z</time></trkpt><trkpt lat="51.4629183" lon="-0.10122"><ele>20.0</ele><time>2026-05-04T14:02:52.793Z</time></trkpt><trkpt lat="51.4627967" lon="-0.1012433"><ele>19.8</ele><time>2026-05-04T14:02:53.792Z</time></trkpt><trkpt lat="51.4626833" lon="-0.1012467"><ele>19.6</ele><time>2026-05-04T14:02:54.79Z</time></trkpt><trkpt lat="51.4625733" lon="-0.1012283"><ele>19.4</ele><time>2026-05-04T14:02:55.792Z</time></trkpt><trkpt lat="51.4624683" lon="-0.1012033"><ele>19.2</ele><time>2026-05-04T14:02:56.791Z</time></trkpt><trkpt lat="51.4623717" lon="-0.101175"><ele>19.0</ele><time>2026-05-04T14:02:57.791Z</time></trkpt><trkpt lat="51.462265" lon="-0.1011467"><ele>19.0</ele><time>2026-05-04T14:02:58.79Z</time></trkpt><trkpt lat="51.4621383" lon="-0.1011433"><ele>19.0</ele><time>2026-05-04T14:02:59.791Z</time></trkpt><trkpt lat="51.4620067" lon="-0.1011617"><ele>19.0</ele><time>2026-05-04T14:03:00.792Z</time></trkpt><trkpt lat="51.4618783" lon="-0.1011883"><ele>19.0</ele><time>2026-05-04T14:03:01.791Z</time></trkpt><trkpt lat="51.46175" lon="-0.1012217"><ele>19.333333333333332</ele><time>2026-05-04T14:03:02.79Z</time></trkpt><trkpt lat="51.4616117" lon="-0.1012717"><ele>19.666666666666668</ele><time>2026-05-04T14:03:03.791Z</time></trkpt><trkpt lat="51.461455" lon="-0.101345"><ele>20.0</ele><time>2026-05-04T14:03:04.791Z</time></trkpt><trkpt lat="51.46129" lon="-0.1014167"><ele>20.0</ele><time>2026-05-04T14:03:05.791Z</time></trkpt><trkpt lat="51.4611183" lon="-0.1014933"><ele>20.0</ele><time>2026-05-04T14:03:06.792Z</time></trkpt><trkpt lat="51.46095" lon="-0.101555"><ele>20.0</ele><time>2026-05-04T14:03:07.792Z</time></trkpt><trkpt lat="51.46077" lon="-0.1016233"><ele>20.333333333333336</ele><time>2026-05-04T14:03:08.791Z</time></trkpt><trkpt lat="51.460575" lon="-0.101695"><ele>20.666666666666668</ele><time>2026-05-04T14:03:09.791Z</time></trkpt><trkpt lat="51.4603817" lon="-0.101765"><ele>21.0</ele><time>2026-05-04T14:03:10.791Z</time></trkpt><trkpt lat="51.4601917" lon="-0.1018383"><ele>21.0</ele><time>2026-05-04T14:03:11.792Z</time></trkpt><trkpt lat="51.460005" lon="-0.10191"><ele>21.0</ele><time>2026-05-04T14:03:12.792Z</time></trkpt><trkpt lat="51.4598167" lon="-0.1019767"><ele>21.0</ele><time>2026-05-04T14:03:13.792Z</time></trkpt><trkpt lat="51.4596167" lon="-0.1020533"><ele>22.666666666666664</ele><time>2026-05-04T14:03:14.79Z</time></trkpt><trkpt lat="51.4594067" lon="-0.1021317"><ele>24.333333333333332</ele><time>2026-05-04T14:03:15.792Z</time></trkpt><trkpt lat="51.4591983" lon="-0.1022067"><ele>26.0</ele><time>2026-05-04T14:03:16.791Z</time></trkpt><trkpt lat="51.4590017" lon="-0.1022733"><ele>26.0</ele><time>2026-05-04T14:03:17.792Z</time></trkpt><trkpt lat="51.4588267" lon="-0.1023333"><ele>26.0</ele><time>2026-05-04T14:03:18.792Z</time></trkpt><trkpt lat="51.4586617" lon="-0.1023933"><ele>26.0</ele><time>2026-05-04T14:03:19.792Z</time></trkpt><trkpt lat="51.458505" lon="-0.1024533"><ele>25.0</ele><time>2026-05-04T14:03:20.792Z</time></trkpt><trkpt lat="51.4583467" lon="-0.102525"><ele>24.0</ele><time>2026-05-04T14:03:21.79Z</time></trkpt><trkpt lat="51.4581967" lon="-0.1026183"><ele>23.0</ele><time>2026-05-04T14:03:22.791Z</time></trkpt><trkpt lat="51.458045" lon="-0.1027217"><ele>25.0</ele><time>2026-05-04T14:03:23.792Z</time></trkpt><trkpt lat="51.4578883" lon="-0.10283"><ele>27.0</ele><time>2026-05-04T14:03:24.792Z</time></trkpt><trkpt lat="51.457735" lon="-0.1029367"><ele>29.0</ele><time>2026-05-04T14:03:25.792Z</time></trkpt><trkpt lat="51.45758" lon="-0.1030333"><ele>29.0</ele><time>2026-05-04T14:03:26.792Z</time></trkpt><trkpt lat="51.457435" lon="-0.1031167"><ele>29.0</ele><time>2026-05-04T14:03:27.792Z</time></trkpt><trkpt lat="51.4573" lon="-0.103195"><ele>29.0</ele><time>2026-05-04T14:03:28.791Z</time></trkpt><trkpt lat="51.457175" lon="-0.1032667"><ele>29.0</ele><time>2026-05-04T14:03:29.792Z</time></trkpt><trkpt lat="51.457055" lon="-0.1033267"><ele>28.25</ele><time>2026-05-04T14:03:30.792Z</time></trkpt><trkpt lat="51.45693" lon="-0.1033767"><ele>27.5</ele><time>2026-05-04T14:03:31.793Z</time></trkpt><trkpt lat="51.4568117" lon="-0.1034283"><ele>26.75</ele><time>2026-05-04T14:03:32.791Z</time></trkpt><trkpt lat="51.4566983" lon="-0.1034683"><ele>26.0</ele><time>2026-05-04T14:03:33.791Z</time></trkpt><trkpt lat="51.456585" lon="-0.1035067"><ele>25.999999999999996</ele><time>2026-05-04T14:03:34.792Z</time></trkpt><trkpt lat="51.4564817" lon="-0.103535"><ele>26.0</ele><time>2026-05-04T14:03:35.791Z</time></trkpt><trkpt lat="51.4563817" lon="-0.1035283"><ele>26.0</ele><time>2026-05-04T14:03:36.79Z</time></trkpt><trkpt lat="51.4563" lon="-0.1035017"><ele>26.0</ele><time>2026-05-04T14:03:37.791Z</time></trkpt><trkpt lat="51.456225" lon="-0.10348"><ele>25.999999999999996</ele><time>2026-05-04T14:03:38.792Z</time></trkpt><trkpt lat="51.4561617" lon="-0.1034533"><ele>26.0</ele><time>2026-05-04T14:03:39.792Z</time></trkpt><trkpt lat="51.4560417" lon="-0.1033883"><ele>26.200000000000003</ele><time>2026-05-04T14:03:41.792Z</time></trkpt><trkpt lat="51.45593" lon="-0.103315"><ele>26.400000000000002</ele><time>2026-05-04T14:03:43.791Z</time></trkpt><trkpt lat="51.4558683" lon="-0.1032883"><ele>26.6</ele><time>2026-05-04T14:03:44.792Z</time></trkpt><trkpt lat="51.455805" lon="-0.10327"><ele>26.8</ele><time>2026-05-04T14:03:45.791Z</time></trkpt><trkpt lat="51.45569" lon="-0.103225"><ele>27.0</ele><time>2026-05-04T14:03:47.791Z</time></trkpt><trkpt lat="51.4555833" lon="-0.1031933"><ele>27.333333333333332</ele><time>2026-05-04T14:03:49.792Z</time></trkpt><trkpt lat="51.4554983" lon="-0.1031833"><ele>27.666666666666664</ele><time>2026-05-04T14:03:51.791Z</time></trkpt><trkpt lat="51.4554" lon="-0.1031417"><ele>28.0</ele><time>2026-05-04T14:03:53.792Z</time></trkpt><trkpt lat="51.4553367" lon="-0.10312"><ele>28.333333333333332</ele><time>2026-05-04T14:03:54.791Z</time></trkpt><trkpt lat="51.4552583" lon="-0.1030983"><ele>28.666666666666664</ele><time>2026-05-04T14:03:55.791Z</time></trkpt><trkpt lat="51.4551717" lon="-0.1030683"><ele>29.0</ele><time>2026-05-04T14:03:56.791Z</time></trkpt><trkpt lat="51.4550717" lon="-0.10303"><ele>29.0</ele><time>2026-05-04T14:03:57.791Z</time></trkpt><trkpt lat="51.454955" lon="-0.10297"><ele>29.0</ele><time>2026-05-04T14:03:58.791Z</time></trkpt><trkpt lat="51.4548367" lon="-0.1028933"><ele>29.0</ele><time>2026-05-04T14:03:59.798Z</time></trkpt><trkpt lat="51.4547167" lon="-0.1028117"><ele>29.0</ele><time>2026-05-04T14:04:00.793Z</time></trkpt><trkpt lat="51.45461" lon="-0.1027333"><ele>28.6</ele><time>2026-05-04T14:04:01.793Z</time></trkpt><trkpt lat="51.4545083" lon="-0.10267"><ele>28.2</ele><time>2026-05-04T14:04:02.792Z</time></trkpt><trkpt lat="51.4544183" lon="-0.102605"><ele>27.800000000000004</ele><time>2026-05-04T14:04:03.793Z</time></trkpt><trkpt lat="51.4543267" lon="-0.10253"><ele>27.400000000000002</ele><time>2026-05-04T14:04:04.793Z</time></trkpt><trkpt lat="51.45424" lon="-0.1024583"><ele>27.0</ele><time>2026-05-04T14:04:05.792Z</time></trkpt><trkpt lat="51.4541683" lon="-0.1023967"><ele>27.0</ele><time>2026-05-04T14:04:06.791Z</time></trkpt><trkpt lat="51.4541083" lon="-0.10235"><ele>27.0</ele><time>2026-05-04T14:04:07.793Z</time></trkpt><trkpt lat="51.4540517" lon="-0.102305"><ele>27.0</ele><time>2026-05-04T14:04:08.793Z</time></trkpt><trkpt lat="51.4539883" lon="-0.102265"><ele>27.0</ele><time>2026-05-04T14:04:09.793Z</time></trkpt><trkpt lat="51.4539117" lon="-0.1022067"><ele>27.0</ele><time>2026-05-04T14:04:10.793Z</time></trkpt><trkpt lat="51.4538333" lon="-0.1021317"><ele>27.0</ele><time>2026-05-04T14:04:11.794Z</time></trkpt><trkpt lat="51.4537617" lon="-0.1020533"><ele>26.666666666666668</ele><time>2026-05-04T14:04:12.79Z</time></trkpt><trkpt lat="51.4536933" lon="-0.1019717"><ele>26.333333333333336</ele><time>2026-05-04T14:04:13.791Z</time></trkpt><trkpt lat="51.4536317" lon="-0.1019017"><ele>26.0</ele><time>2026-05-04T14:04:14.792Z</time></trkpt><trkpt lat="51.45355" lon="-0.1018133"><ele>25.666666666666668</ele><time>2026-05-04T14:04:16.796Z</time></trkpt><trkpt lat="51.4534833" lon="-0.1017667"><ele>25.333333333333336</ele><time>2026-05-04T14:04:20.792Z</time></trkpt><trkpt lat="51.4534233" lon="-0.1017217"><ele>25.0</ele><time>2026-05-04T14:04:21.791Z</time></trkpt><trkpt lat="51.4533483" lon="-0.1016633"><ele>25.000000000000004</ele><time>2026-05-04T14:04:22.792Z</time></trkpt><trkpt lat="51.4532683" lon="-0.101605"><ele>25.0</ele><time>2026-05-04T14:04:23.792Z</time></trkpt><trkpt lat="51.453195" lon="-0.1015533"><ele>25.0</ele><time>2026-05-04T14:04:24.791Z</time></trkpt><trkpt lat="51.4531183" lon="-0.1015067"><ele>25.0</ele><time>2026-05-04T14:04:25.792Z</time></trkpt><trkpt lat="51.4530567" lon="-0.1014533"><ele>25.000000000000004</ele><time>2026-05-04T14:04:26.791Z</time></trkpt><trkpt lat="51.45296" lon="-0.1013633"><ele>25.0</ele><time>2026-05-04T14:04:28.791Z</time></trkpt><trkpt lat="51.4528933" lon="-0.10132"><ele>24.8</ele><time>2026-05-04T14:05:56.791Z</time></trkpt><trkpt lat="51.45279" lon="-0.101255"><ele>24.6</ele><time>2026-05-04T14:05:58.79Z</time></trkpt><trkpt lat="51.4526867" lon="-0.1012317"><ele>24.4</ele><time>2026-05-04T14:06:00.792Z</time></trkpt><trkpt lat="51.4526" lon="-0.1012467"><ele>24.2</ele><time>2026-05-04T14:06:02.793Z</time></trkpt><trkpt lat="51.452545" lon="-0.1012983"><ele>24.0</ele><time>2026-05-04T14:06:05.792Z</time></trkpt><trkpt lat="51.4524867" lon="-0.101415"><ele>24.0</ele><time>2026-05-04T14:06:21.793Z</time></trkpt><trkpt lat="51.45237" lon="-0.101375"><ele>24.0</ele><time>2026-05-04T14:06:23.792Z</time></trkpt><trkpt lat="51.4523" lon="-0.1013683"><ele>24.0</ele><time>2026-05-04T14:06:24.791Z</time></trkpt><trkpt lat="51.4521983" lon="-0.101355"><ele>24.0</ele><time>2026-05-04T14:06:25.792Z</time></trkpt><trkpt lat="51.4521033" lon="-0.10133"><ele>24.0</ele><time>2026-05-04T14:06:26.792Z</time></trkpt><trkpt lat="51.45197" lon="-0.1012833"><ele>23.666666666666668</ele><time>2026-05-04T14:06:27.792Z</time></trkpt><trkpt lat="51.451785" lon="-0.101185"><ele>23.333333333333336</ele><time>2026-05-04T14:06:28.791Z</time></trkpt><trkpt lat="51.4516083" lon="-0.1010533"><ele>23.0</ele><time>2026-05-04T14:06:29.795Z</time></trkpt><trkpt lat="51.451465" lon="-0.1009383"><ele>23.0</ele><time>2026-05-04T14:06:30.791Z</time></trkpt><trkpt lat="51.4513183" lon="-0.1008383"><ele>23.0</ele><time>2026-05-04T14:06:31.791Z</time></trkpt><trkpt lat="51.4511817" lon="-0.1007633"><ele>23.0</ele><time>2026-05-04T14:06:32.792Z</time></trkpt><trkpt lat="51.4510517" lon="-0.1007067"><ele>23.0</ele><time>2026-05-04T14:06:33.791Z</time></trkpt><trkpt lat="51.4509283" lon="-0.1006717"><ele>23.5</ele><time>2026-05-04T14:06:34.792Z</time></trkpt><trkpt lat="51.4508333" lon="-0.100655"><ele>24.0</ele><time>2026-05-04T14:06:35.792Z</time></trkpt><trkpt lat="51.4507417" lon="-0.1006483"><ele>24.5</ele><time>2026-05-04T14:06:36.793Z</time></trkpt><trkpt lat="51.4506683" lon="-0.1006433"><ele>25.0</ele><time>2026-05-04T14:06:37.793Z</time></trkpt><trkpt lat="51.4505883" lon="-0.10063"><ele>25.499999999999996</ele><time>2026-05-04T14:06:39.793Z</time></trkpt><trkpt lat="51.45052" lon="-0.10063"><ele>26.0</ele><time>2026-05-04T14:06:47.794Z</time></trkpt><trkpt lat="51.45045" lon="-0.1006133"><ele>26.200000000000003</ele><time>2026-05-04T14:06:49.793Z</time></trkpt><trkpt lat="51.4503783" lon="-0.100505"><ele>26.400000000000002</ele><time>2026-05-04T14:06:51.792Z</time></trkpt><trkpt lat="51.45033" lon="-0.1003217"><ele>26.6</ele><time>2026-05-04T14:06:53.794Z</time></trkpt><trkpt lat="51.4503317" lon="-0.1002183"><ele>26.8</ele><time>2026-05-04T14:06:54.792Z</time></trkpt><trkpt lat="51.4502833" lon="-0.1000267"><ele>27.0</ele><time>2026-05-04T14:06:56.791Z</time></trkpt><trkpt lat="51.4502517" lon="-0.099915"><ele>27.400000000000002</ele><time>2026-05-04T14:06:57.792Z</time></trkpt><trkpt lat="51.450205" lon="-0.0998183"><ele>27.800000000000004</ele><time>2026-05-04T14:06:58.79Z</time></trkpt><trkpt lat="51.4501467" lon="-0.0997167"><ele>28.2</ele><time>2026-05-04T14:06:59.791Z</time></trkpt><trkpt lat="51.4500583" lon="-0.0996133"><ele>28.6</ele><time>2026-05-04T14:07:00.792Z</time></trkpt><trkpt lat="51.4499567" lon="-0.099515"><ele>29.0</ele><time>2026-05-04T14:07:01.792Z</time></trkpt><trkpt lat="51.44983" lon="-0.0994333"><ele>29.0</ele><time>2026-05-04T14:07:02.793Z</time></trkpt><trkpt lat="51.4497067" lon="-0.0993733"><ele>29.0</ele><time>2026-05-04T14:07:03.792Z</time></trkpt><trkpt lat="51.4495917" lon="-0.0993217"><ele>29.0</ele><time>2026-05-04T14:07:04.792Z</time></trkpt><trkpt lat="51.449475" lon="-0.0992817"><ele>29.0</ele><time>2026-05-04T14:07:05.793Z</time></trkpt><trkpt lat="51.4493583" lon="-0.0992367"><ele>29.2</ele><time>2026-05-04T14:07:06.79Z</time></trkpt><trkpt lat="51.44924" lon="-0.0991983"><ele>29.4</ele><time>2026-05-04T14:07:07.792Z</time></trkpt><trkpt lat="51.44913" lon="-0.0991617"><ele>29.6</ele><time>2026-05-04T14:07:08.792Z</time></trkpt><trkpt lat="51.449035" lon="-0.0991083"><ele>29.8</ele><time>2026-05-04T14:07:09.796Z</time></trkpt><trkpt lat="51.4489533" lon="-0.09904"><ele>30.0</ele><time>2026-05-04T14:07:10.792Z</time></trkpt><trkpt lat="51.4488767" lon="-0.0989667"><ele>30.2</ele><time>2026-05-04T14:07:11.793Z</time></trkpt><trkpt lat="51.4488017" lon="-0.098875"><ele>30.4</ele><time>2026-05-04T14:07:12.791Z</time></trkpt><trkpt lat="51.44873" lon="-0.0987717"><ele>30.6</ele><time>2026-05-04T14:07:13.793Z</time></trkpt><trkpt lat="51.448655" lon="-0.0986683"><ele>30.8</ele><time>2026-05-04T14:07:14.805Z</time></trkpt><trkpt lat="51.44858" lon="-0.0985617"><ele>31.0</ele><time>2026-05-04T14:07:15.792Z</time></trkpt><trkpt lat="51.44851" lon="-0.0984567"><ele>31.200000000000003</ele><time>2026-05-04T14:07:16.793Z</time></trkpt><trkpt lat="51.4484433" lon="-0.0983517"><ele>31.400000000000002</ele><time>2026-05-04T14:07:17.792Z</time></trkpt><trkpt lat="51.4483783" lon="-0.09824"><ele>31.6</ele><time>2026-05-04T14:07:18.794Z</time></trkpt><trkpt lat="51.4483117" lon="-0.0981233"><ele>31.8</ele><time>2026-05-04T14:07:19.792Z</time></trkpt><trkpt lat="51.4482533" lon="-0.0980133"><ele>32.0</ele><time>2026-05-04T14:07:20.794Z</time></trkpt><trkpt lat="51.4481917" lon="-0.0979133"><ele>31.999999999999996</ele><time>2026-05-04T14:07:21.792Z</time></trkpt><trkpt lat="51.4481283" lon="-0.0978217"><ele>32.0</ele><time>2026-05-04T14:07:22.795Z</time></trkpt><trkpt lat="51.448065" lon="-0.0977383"><ele>32.0</ele><time>2026-05-04T14:07:23.792Z</time></trkpt><trkpt lat="51.448005" lon="-0.0976533"><ele>32.0</ele><time>2026-05-04T14:07:24.793Z</time></trkpt><trkpt lat="51.4479383" lon="-0.097565"><ele>31.999999999999996</ele><time>2026-05-04T14:07:25.793Z</time></trkpt><trkpt lat="51.4478683" lon="-0.09747"><ele>32.0</ele><time>2026-05-04T14:07:26.793Z</time></trkpt><trkpt lat="51.447795" lon="-0.097375"><ele>31.8</ele><time>2026-05-04T14:07:27.794Z</time></trkpt><trkpt lat="51.4477183" lon="-0.0972883"><ele>31.6</ele><time>2026-05-04T14:07:28.791Z</time></trkpt><trkpt lat="51.447655" lon="-0.0971983"><ele>31.400000000000002</ele><time>2026-05-04T14:07:29.793Z</time></trkpt><trkpt lat="51.447585" lon="-0.0971067"><ele>31.200000000000003</ele><time>2026-05-04T14:07:30.793Z</time></trkpt><trkpt lat="51.4475033" lon="-0.0970183"><ele>31.0</ele><time>2026-05-04T14:07:31.792Z</time></trkpt><trkpt lat="51.4474117" lon="-0.0969117"><ele>31.0</ele><time>2026-05-04T14:07:32.791Z</time></trkpt><trkpt lat="51.4473117" lon="-0.096785"><ele>31.0</ele><time>2026-05-04T14:07:33.79Z</time></trkpt><trkpt lat="51.4472233" lon="-0.0966483"><ele>31.0</ele><time>2026-05-04T14:07:34.792Z</time></trkpt><trkpt lat="51.4471383" lon="-0.0965183"><ele>31.0</ele><time>2026-05-04T14:07:35.793Z</time></trkpt><trkpt lat="51.4470583" lon="-0.0963967"><ele>31.200000000000003</ele><time>2026-05-04T14:07:36.792Z</time></trkpt><trkpt lat="51.4469783" lon="-0.0962967"><ele>31.400000000000002</ele><time>2026-05-04T14:07:37.792Z</time></trkpt><trkpt lat="51.4469117" lon="-0.09621"><ele>31.6</ele><time>2026-05-04T14:07:38.794Z</time></trkpt><trkpt lat="51.4468567" lon="-0.0961433"><ele>31.8</ele><time>2026-05-04T14:07:39.792Z</time></trkpt><trkpt lat="51.44678" lon="-0.0960733"><ele>32.0</ele><time>2026-05-04T14:07:41.792Z</time></trkpt><trkpt lat="51.4466683" lon="-0.0959517"><ele>32.0</ele><time>2026-05-04T14:08:03.791Z</time></trkpt><trkpt lat="51.4465833" lon="-0.0958667"><ele>32.0</ele><time>2026-05-04T14:08:04.791Z</time></trkpt><trkpt lat="51.44649" lon="-0.095785"><ele>32.0</ele><time>2026-05-04T14:08:05.791Z</time></trkpt><trkpt lat="51.44639" lon="-0.0957017"><ele>32.0</ele><time>2026-05-04T14:08:06.791Z</time></trkpt><trkpt lat="51.4462867" lon="-0.0956067"><ele>32.0</ele><time>2026-05-04T14:08:07.792Z</time></trkpt><trkpt lat="51.4461767" lon="-0.0955167"><ele>31.75</ele><time>2026-05-04T14:08:08.792Z</time></trkpt><trkpt lat="51.4460533" lon="-0.0954283"><ele>31.5</ele><time>2026-05-04T14:08:09.794Z</time></trkpt><trkpt lat="51.4459133" lon="-0.0953383"><ele>31.25</ele><time>2026-05-04T14:08:10.791Z</time></trkpt><trkpt lat="51.445765" lon="-0.0952467"><ele>31.0</ele><time>2026-05-04T14:08:11.797Z</time></trkpt><trkpt lat="51.445615" lon="-0.0951683"><ele>31.0</ele><time>2026-05-04T14:08:12.796Z</time></trkpt><trkpt lat="51.44547" lon="-0.0950917"><ele>31.0</ele><time>2026-05-04T14:08:13.792Z</time></trkpt><trkpt lat="51.4453167" lon="-0.0950283"><ele>31.0</ele><time>2026-05-04T14:08:14.792Z</time></trkpt><trkpt lat="51.4451467" lon="-0.0949917"><ele>31.666666666666668</ele><time>2026-05-04T14:08:15.794Z</time></trkpt><trkpt lat="51.44498" lon="-0.09497"><ele>32.333333333333336</ele><time>2026-05-04T14:08:16.795Z</time></trkpt><trkpt lat="51.4448183" lon="-0.094955"><ele>33.0</ele><time>2026-05-04T14:08:17.791Z</time></trkpt><trkpt lat="51.44466" lon="-0.0949367"><ele>33.0</ele><time>2026-05-04T14:08:18.791Z</time></trkpt><trkpt lat="51.4445083" lon="-0.0949067"><ele>33.0</ele><time>2026-05-04T14:08:19.792Z</time></trkpt><trkpt lat="51.4443517" lon="-0.0948767"><ele>33.0</ele><time>2026-05-04T14:08:20.791Z</time></trkpt><trkpt lat="51.44419" lon="-0.094835"><ele>33.0</ele><time>2026-05-04T14:08:21.791Z</time></trkpt><trkpt lat="51.44403" lon="-0.0947917"><ele>33.0</ele><time>2026-05-04T14:08:22.791Z</time></trkpt><trkpt lat="51.4438667" lon="-0.09473"><ele>33.0</ele><time>2026-05-04T14:08:23.791Z</time></trkpt><trkpt lat="51.443705" lon="-0.0946567"><ele>33.0</ele><time>2026-05-04T14:08:24.792Z</time></trkpt><trkpt lat="51.4435333" lon="-0.094575"><ele>33.0</ele><time>2026-05-04T14:08:25.792Z</time></trkpt><trkpt lat="51.4433583" lon="-0.0944783"><ele>33.0</ele><time>2026-05-04T14:08:26.792Z</time></trkpt><trkpt lat="51.4431683" lon="-0.0943717"><ele>33.0</ele><time>2026-05-04T14:08:27.793Z</time></trkpt><trkpt lat="51.4429817" lon="-0.0942567"><ele>33.0</ele><time>2026-05-04T14:08:28.791Z</time></trkpt><trkpt lat="51.4427967" lon="-0.094125"><ele>33.0</ele><time>2026-05-04T14:08:29.791Z</time></trkpt><trkpt lat="51.4426083" lon="-0.0939817"><ele>33.333333333333336</ele><time>2026-05-04T14:08:30.79Z</time></trkpt><trkpt lat="51.4424233" lon="-0.0938183"><ele>33.66666666666667</ele><time>2026-05-04T14:08:31.791Z</time></trkpt><trkpt lat="51.4422517" lon="-0.0936583"><ele>34.0</ele><time>2026-05-04T14:08:32.792Z</time></trkpt><trkpt lat="51.4420967" lon="-0.093515"><ele>34.0</ele><time>2026-05-04T14:08:33.791Z</time></trkpt><trkpt lat="51.44196" lon="-0.09339"><ele>34.0</ele><time>2026-05-04T14:08:34.792Z</time></trkpt><trkpt lat="51.441835" lon="-0.0932817"><ele>34.0</ele><time>2026-05-04T14:08:35.792Z</time></trkpt><trkpt lat="51.4417233" lon="-0.0931917"><ele>34.0</ele><time>2026-05-04T14:08:36.791Z</time></trkpt><trkpt lat="51.4416133" lon="-0.0931233"><ele>34.0</ele><time>2026-05-04T14:08:37.791Z</time></trkpt><trkpt lat="51.4415167" lon="-0.093075"><ele>34.0</ele><time>2026-05-04T14:08:38.793Z</time></trkpt><trkpt lat="51.4414417" lon="-0.0930433"><ele>34.0</ele><time>2026-05-04T14:08:39.792Z</time></trkpt><trkpt lat="51.4413783" lon="-0.0930167"><ele>34.0</ele><time>2026-05-04T14:08:40.792Z</time></trkpt><trkpt lat="51.4412833" lon="-0.0929817"><ele>34.0</ele><time>2026-05-04T14:08:42.792Z</time></trkpt><trkpt lat="51.4411733" lon="-0.092895"><ele>34.0</ele><time>2026-05-04T14:08:54.792Z</time></trkpt><trkpt lat="51.4410933" lon="-0.0928517"><ele>34.0</ele><time>2026-05-04T14:08:55.792Z</time></trkpt><trkpt lat="51.4410083" lon="-0.0928017"><ele>34.0</ele><time>2026-05-04T14:08:56.792Z</time></trkpt><trkpt lat="51.4409067" lon="-0.0927533"><ele>34.0</ele><time>2026-05-04T14:08:57.794Z</time></trkpt><trkpt lat="51.4407867" lon="-0.0927067"><ele>34.0</ele><time>2026-05-04T14:08:58.793Z</time></trkpt><trkpt lat="51.4406667" lon="-0.0926583"><ele>34.0</ele><time>2026-05-04T14:08:59.793Z</time></trkpt><trkpt lat="51.4405383" lon="-0.0926067"><ele>34.0</ele><time>2026-05-04T14:09:00.791Z</time></trkpt><trkpt lat="51.4404033" lon="-0.0925567"><ele>34.0</ele><time>2026-05-04T14:09:01.793Z</time></trkpt><trkpt lat="51.4402567" lon="-0.0925067"><ele>34.0</ele><time>2026-05-04T14:09:02.791Z</time></trkpt><trkpt lat="51.440105" lon="-0.0924483"><ele>34.333333333333336</ele><time>2026-05-04T14:09:03.791Z</time></trkpt><trkpt lat="51.43995" lon="-0.0923883"><ele>34.666666666666664</ele><time>2026-05-04T14:09:04.792Z</time></trkpt><trkpt lat="51.4397933" lon="-0.09233"><ele>35.0</ele><time>2026-05-04T14:09:05.794Z</time></trkpt><trkpt lat="51.4396367" lon="-0.0922717"><ele>35.666666666666664</ele><time>2026-05-04T14:09:06.793Z</time></trkpt><trkpt lat="51.4394817" lon="-0.092215"><ele>36.333333333333336</ele><time>2026-05-04T14:09:07.792Z</time></trkpt><trkpt lat="51.439325" lon="-0.0921567"><ele>37.0</ele><time>2026-05-04T14:09:08.793Z</time></trkpt><trkpt lat="51.4391733" lon="-0.0920883"><ele>37.0</ele><time>2026-05-04T14:09:09.792Z</time></trkpt><trkpt lat="51.4390267" lon="-0.0920167"><ele>37.0</ele><time>2026-05-04T14:09:10.792Z</time></trkpt><trkpt lat="51.4388867" lon="-0.09191"><ele>37.0</ele><time>2026-05-04T14:09:11.792Z</time></trkpt><trkpt lat="51.438745" lon="-0.0918017"><ele>37.0</ele><time>2026-05-04T14:09:12.794Z</time></trkpt><trkpt lat="51.4386067" lon="-0.0916917"><ele>37.0</ele><time>2026-05-04T14:09:13.794Z</time></trkpt><trkpt lat="51.4384733" lon="-0.091585"><ele>37.0</ele><time>2026-05-04T14:09:14.792Z</time></trkpt><trkpt lat="51.4383383" lon="-0.0914833"><ele>37.0</ele><time>2026-05-04T14:09:15.796Z</time></trkpt><trkpt lat="51.4382" lon="-0.0913817"><ele>37.0</ele><time>2026-05-04T14:09:16.792Z</time></trkpt><trkpt lat="51.4380617" lon="-0.0912817"><ele>37.0</ele><time>2026-05-04T14:09:17.793Z</time></trkpt><trkpt lat="51.4379217" lon="-0.0911933"><ele>38.0</ele><time>2026-05-04T14:09:18.794Z</time></trkpt><trkpt lat="51.4377833" lon="-0.0911083"><ele>39.0</ele><time>2026-05-04T14:09:19.792Z</time></trkpt><trkpt lat="51.4376367" lon="-0.0910283"><ele>40.0</ele><time>2026-05-04T14:09:20.795Z</time></trkpt><trkpt lat="51.43748" lon="-0.0909583"><ele>40.0</ele><time>2026-05-04T14:09:21.791Z</time></trkpt><trkpt lat="51.4373267" lon="-0.090895"><ele>40.0</ele><time>2026-05-04T14:09:22.793Z</time></trkpt><trkpt lat="51.4371833" lon="-0.0908333"><ele>40.0</ele><time>2026-05-04T14:09:23.792Z</time></trkpt><trkpt lat="51.4370417" lon="-0.090775"><ele>40.5</ele><time>2026-05-04T14:09:24.792Z</time></trkpt><trkpt lat="51.4369" lon="-0.0907167"><ele>41.0</ele><time>2026-05-04T14:09:25.792Z</time></trkpt><trkpt lat="51.4367683" lon="-0.090665"><ele>41.5</ele><time>2026-05-04T14:09:26.792Z</time></trkpt><trkpt lat="51.4366483" lon="-0.09062"><ele>42.0</ele><time>2026-05-04T14:09:27.793Z</time></trkpt><trkpt lat="51.4365383" lon="-0.0905767"><ele>42.0</ele><time>2026-05-04T14:09:28.792Z</time></trkpt><trkpt lat="51.43644" lon="-0.0905483"><ele>42.0</ele><time>2026-05-04T14:09:29.793Z</time></trkpt><trkpt lat="51.4363567" lon="-0.09053"><ele>42.0</ele><time>2026-05-04T14:09:30.793Z</time></trkpt><trkpt lat="51.4362917" lon="-0.09052"><ele>42.0</ele><time>2026-05-04T14:09:31.793Z</time></trkpt><trkpt lat="51.43623" lon="-0.0904983"><ele>42.0</ele><time>2026-05-04T14:09:34.79Z</time></trkpt><trkpt lat="51.4361083" lon="-0.09046"><ele>42.0</ele><time>2026-05-04T14:10:04.795Z</time></trkpt><trkpt lat="51.4360417" lon="-0.09044"><ele>42.142857142857146</ele><time>2026-05-04T14:10:05.793Z</time></trkpt><trkpt lat="51.4359733" lon="-0.0904217"><ele>42.285714285714285</ele><time>2026-05-04T14:10:06.791Z</time></trkpt><trkpt lat="51.4359017" lon="-0.0904017"><ele>42.42857142857143</ele><time>2026-05-04T14:10:07.791Z</time></trkpt><trkpt lat="51.4358283" lon="-0.0903783"><ele>42.57142857142857</ele><time>2026-05-04T14:10:08.792Z</time></trkpt><trkpt lat="51.43576" lon="-0.090365"><ele>42.714285714285715</ele><time>2026-05-04T14:10:09.791Z</time></trkpt><trkpt lat="51.4356883" lon="-0.09036"><ele>42.85714285714286</ele><time>2026-05-04T14:10:10.791Z</time></trkpt><trkpt lat="51.4356133" lon="-0.0903467"><ele>43.0</ele><time>2026-05-04T14:10:11.791Z</time></trkpt><trkpt lat="51.4355283" lon="-0.0903317"><ele>43.4</ele><time>2026-05-04T14:10:12.795Z</time></trkpt><trkpt lat="51.4354367" lon="-0.0903167"><ele>43.8</ele><time>2026-05-04T14:10:13.791Z</time></trkpt><trkpt lat="51.4353417" lon="-0.090295"><ele>44.2</ele><time>2026-05-04T14:10:14.795Z</time></trkpt><trkpt lat="51.4352433" lon="-0.0902617"><ele>44.6</ele><time>2026-05-04T14:10:15.793Z</time></trkpt><trkpt lat="51.435135" lon="-0.09023"><ele>45.0</ele><time>2026-05-04T14:10:16.79Z</time></trkpt><trkpt lat="51.4350267" lon="-0.0902"><ele>45.0</ele><time>2026-05-04T14:10:17.791Z</time></trkpt><trkpt lat="51.4349183" lon="-0.0901683"><ele>45.0</ele><time>2026-05-04T14:10:18.792Z</time></trkpt><trkpt lat="51.434805" lon="-0.090135"><ele>45.0</ele><time>2026-05-04T14:10:19.791Z</time></trkpt><trkpt lat="51.4346883" lon="-0.0901"><ele>45.0</ele><time>2026-05-04T14:10:20.791Z</time></trkpt><trkpt lat="51.4345683" lon="-0.0900683"><ele>44.75</ele><time>2026-05-04T14:10:21.79Z</time></trkpt><trkpt lat="51.4344483" lon="-0.090035"><ele>44.5</ele><time>2026-05-04T14:10:22.791Z</time></trkpt><trkpt lat="51.4343267" lon="-0.09"><ele>44.25</ele><time>2026-05-04T14:10:23.79Z</time></trkpt><trkpt lat="51.4342067" lon="-0.089965"><ele>44.0</ele><time>2026-05-04T14:10:24.791Z</time></trkpt><trkpt lat="51.4340817" lon="-0.0899333"><ele>44.25</ele><time>2026-05-04T14:10:25.792Z</time></trkpt><trkpt lat="51.433955" lon="-0.0899033"><ele>44.5</ele><time>2026-05-04T14:10:26.791Z</time></trkpt><trkpt lat="51.433825" lon="-0.08987"><ele>44.75</ele><time>2026-05-04T14:10:27.791Z</time></trkpt><trkpt lat="51.433695" lon="-0.0898317"><ele>45.0</ele><time>2026-05-04T14:10:28.793Z</time></trkpt><trkpt lat="51.433565" lon="-0.0897917"><ele>45.6</ele><time>2026-05-04T14:10:29.791Z</time></trkpt><trkpt lat="51.4334467" lon="-0.0897533"><ele>46.2</ele><time>2026-05-04T14:10:30.79Z</time></trkpt><trkpt lat="51.433345" lon="-0.0897233"><ele>46.8</ele><time>2026-05-04T14:10:31.79Z</time></trkpt><trkpt lat="51.4332617" lon="-0.0896933"><ele>47.4</ele><time>2026-05-04T14:10:32.791Z</time></trkpt><trkpt lat="51.43318" lon="-0.0896683"><ele>48.0</ele><time>2026-05-04T14:10:33.795Z</time></trkpt><trkpt lat="51.4330967" lon="-0.08964"><ele>48.0</ele><time>2026-05-04T14:10:34.791Z</time></trkpt><trkpt lat="51.4330067" lon="-0.0896133"><ele>48.0</ele><time>2026-05-04T14:10:35.791Z</time></trkpt><trkpt lat="51.43291" lon="-0.089585"><ele>48.0</ele><time>2026-05-04T14:10:36.79Z</time></trkpt><trkpt lat="51.4328083" lon="-0.0895583"><ele>48.0</ele><time>2026-05-04T14:10:37.792Z</time></trkpt><trkpt lat="51.4327117" lon="-0.0895333"><ele>48.0</ele><time>2026-05-04T14:10:38.791Z</time></trkpt><trkpt lat="51.4326267" lon="-0.08951"><ele>47.599999999999994</ele><time>2026-05-04T14:10:39.794Z</time></trkpt><trkpt lat="51.4325517" lon="-0.0894883"><ele>47.199999999999996</ele><time>2026-05-04T14:10:40.792Z</time></trkpt><trkpt lat="51.432425" lon="-0.0894617"><ele>46.8</ele><time>2026-05-04T14:10:42.794Z</time></trkpt><trkpt lat="51.4323517" lon="-0.08944"><ele>46.4</ele><time>2026-05-04T14:10:43.793Z</time></trkpt><trkpt lat="51.4322717" lon="-0.089415"><ele>46.0</ele><time>2026-05-04T14:10:44.794Z</time></trkpt><trkpt lat="51.4321783" lon="-0.0893933"><ele>46.199999999999996</ele><time>2026-05-04T14:10:45.793Z</time></trkpt><trkpt lat="51.4320767" lon="-0.0893667"><ele>46.4</ele><time>2026-05-04T14:10:46.792Z</time></trkpt><trkpt lat="51.4319767" lon="-0.0893367"><ele>46.6</ele><time>2026-05-04T14:10:47.792Z</time></trkpt><trkpt lat="51.4318783" lon="-0.0893083"><ele>46.8</ele><time>2026-05-04T14:10:48.793Z</time></trkpt><trkpt lat="51.4317883" lon="-0.089275"><ele>47.0</ele><time>2026-05-04T14:10:49.791Z</time></trkpt><trkpt lat="51.4317017" lon="-0.0892433"><ele>47.0</ele><time>2026-05-04T14:10:50.791Z</time></trkpt><trkpt lat="51.4316233" lon="-0.0892183"><ele>47.0</ele><time>2026-05-04T14:10:51.791Z</time></trkpt><trkpt lat="51.43155" lon="-0.0891883"><ele>47.0</ele><time>2026-05-04T14:10:52.791Z</time></trkpt><trkpt lat="51.4314817" lon="-0.0891633"><ele>47.0</ele><time>2026-05-04T14:10:53.791Z</time></trkpt><trkpt lat="51.4314083" lon="-0.0891333"><ele>47.0</ele><time>2026-05-04T14:10:54.791Z</time></trkpt><trkpt lat="51.4313267" lon="-0.089105"><ele>47.0</ele><time>2026-05-04T14:10:55.792Z</time></trkpt><trkpt lat="51.43124" lon="-0.08907"><ele>47.33333333333333</ele><time>2026-05-04T14:10:56.791Z</time></trkpt><trkpt lat="51.4311517" lon="-0.0890367"><ele>47.666666666666664</ele><time>2026-05-04T14:10:57.792Z</time></trkpt><trkpt lat="51.431065" lon="-0.089015"><ele>48.0</ele><time>2026-05-04T14:10:58.791Z</time></trkpt><trkpt lat="51.4309817" lon="-0.0889917"><ele>48.33333333333333</ele><time>2026-05-04T14:10:59.79Z</time></trkpt><trkpt lat="51.430905" lon="-0.0889617"><ele>48.666666666666664</ele><time>2026-05-04T14:11:00.79Z</time></trkpt><trkpt lat="51.4308267" lon="-0.0889283"><ele>49.0</ele><time>2026-05-04T14:11:01.792Z</time></trkpt><trkpt lat="51.4307483" lon="-0.0888983"><ele>48.99999999999999</ele><time>2026-05-04T14:11:02.791Z</time></trkpt><trkpt lat="51.43067" lon="-0.088865"><ele>49.0</ele><time>2026-05-04T14:11:03.79Z</time></trkpt><trkpt lat="51.43059" lon="-0.0888367"><ele>49.0</ele><time>2026-05-04T14:11:04.791Z</time></trkpt><trkpt lat="51.43051" lon="-0.08881"><ele>49.0</ele><time>2026-05-04T14:11:05.791Z</time></trkpt><trkpt lat="51.4304217" lon="-0.08878"><ele>48.99999999999999</ele><time>2026-05-04T14:11:06.792Z</time></trkpt><trkpt lat="51.4303217" lon="-0.0887417"><ele>49.0</ele><time>2026-05-04T14:11:07.793Z</time></trkpt><trkpt lat="51.4302033" lon="-0.0886883"><ele>49.0</ele><time>2026-05-04T14:11:08.79Z</time></trkpt><trkpt lat="51.43007" lon="-0.0886333"><ele>49.0</ele><time>2026-05-04T14:11:09.791Z</time></trkpt><trkpt lat="51.42993" lon="-0.08856"><ele>49.0</ele><time>2026-05-04T14:11:10.791Z</time></trkpt><trkpt lat="51.4297883" lon="-0.0884717"><ele>49.0</ele><time>2026-05-04T14:11:11.792Z</time></trkpt><trkpt lat="51.4296383" lon="-0.0883717"><ele>49.33333333333333</ele><time>2026-05-04T14:11:12.792Z</time></trkpt><trkpt lat="51.42949" lon="-0.088265"><ele>49.66666666666667</ele><time>2026-05-04T14:11:13.791Z</time></trkpt><trkpt lat="51.4293517" lon="-0.0881517"><ele>50.0</ele><time>2026-05-04T14:11:14.791Z</time></trkpt><trkpt lat="51.4292233" lon="-0.08801"><ele>50.66666666666667</ele><time>2026-05-04T14:11:15.794Z</time></trkpt><trkpt lat="51.429105" lon="-0.0878283"><ele>51.33333333333333</ele><time>2026-05-04T14:11:16.79Z</time></trkpt><trkpt lat="51.428995" lon="-0.0876133"><ele>52.0</ele><time>2026-05-04T14:11:17.792Z</time></trkpt><trkpt lat="51.4289133" lon="-0.0873683"><ele>52.666666666666664</ele><time>2026-05-04T14:11:18.791Z</time></trkpt><trkpt lat="51.428845" lon="-0.08711"><ele>53.33333333333333</ele><time>2026-05-04T14:11:19.792Z</time></trkpt><trkpt lat="51.42878" lon="-0.0868533"><ele>54.0</ele><time>2026-05-04T14:11:20.792Z</time></trkpt><trkpt lat="51.4287317" lon="-0.0866083"><ele>54.75</ele><time>2026-05-04T14:11:21.79Z</time></trkpt><trkpt lat="51.428685" lon="-0.08638"><ele>55.5</ele><time>2026-05-04T14:11:22.791Z</time></trkpt><trkpt lat="51.428635" lon="-0.0861883"><ele>56.25</ele><time>2026-05-04T14:11:23.791Z</time></trkpt><trkpt lat="51.4285917" lon="-0.0860083"><ele>57.0</ele><time>2026-05-04T14:11:24.793Z</time></trkpt><trkpt lat="51.4285333" lon="-0.0858667"><ele>57.666666666666664</ele><time>2026-05-04T14:11:25.792Z</time></trkpt><trkpt lat="51.4284683" lon="-0.0857567"><ele>58.33333333333333</ele><time>2026-05-04T14:11:26.792Z</time></trkpt><trkpt lat="51.4283933" lon="-0.0856667"><ele>59.0</ele><time>2026-05-04T14:11:27.791Z</time></trkpt><trkpt lat="51.428325" lon="-0.0855933"><ele>59.666666666666664</ele><time>2026-05-04T14:11:28.793Z</time></trkpt><trkpt lat="51.428265" lon="-0.085535"><ele>60.33333333333333</ele><time>2026-05-04T14:11:29.792Z</time></trkpt><trkpt lat="51.4282083" lon="-0.0854767"><ele>61.0</ele><time>2026-05-04T14:11:30.792Z</time></trkpt><trkpt lat="51.4281567" lon="-0.085415"><ele>60.99999999999999</ele><time>2026-05-04T14:11:31.792Z</time></trkpt><trkpt lat="51.4280883" lon="-0.0853683"><ele>61.0</ele><time>2026-05-04T14:11:32.791Z</time></trkpt><trkpt lat="51.4280233" lon="-0.085355"><ele>61.0</ele><time>2026-05-04T14:11:33.79Z</time></trkpt><trkpt lat="51.4279617" lon="-0.0853933"><ele>61.0</ele><time>2026-05-04T14:11:34.791Z</time></trkpt><trkpt lat="51.4278833" lon="-0.085565"><ele>60.99999999999999</ele><time>2026-05-04T14:11:36.792Z</time></trkpt><trkpt lat="51.42787" lon="-0.0856917"><ele>61.0</ele><time>2026-05-04T14:11:37.792Z</time></trkpt><trkpt lat="51.4278467" lon="-0.0858"><ele>60.599999999999994</ele><time>2026-05-04T14:11:38.791Z</time></trkpt><trkpt lat="51.4277883" lon="-0.0859267"><ele>60.199999999999996</ele><time>2026-05-04T14:11:40.791Z</time></trkpt><trkpt lat="51.427715" lon="-0.0859017"><ele>59.800000000000004</ele><time>2026-05-04T14:11:42.795Z</time></trkpt><trkpt lat="51.4276267" lon="-0.08573"><ele>59.400000000000006</ele><time>2026-05-04T14:11:44.79Z</time></trkpt><trkpt lat="51.4275717" lon="-0.0856217"><ele>59.0</ele><time>2026-05-04T14:11:45.791Z</time></trkpt><trkpt lat="51.4275017" lon="-0.0854883"><ele>59.0</ele><time>2026-05-04T14:11:46.791Z</time></trkpt><trkpt lat="51.4273983" lon="-0.0853467"><ele>59.0</ele><time>2026-05-04T14:11:47.791Z</time></trkpt><trkpt lat="51.42728" lon="-0.0852167"><ele>59.0</ele><time>2026-05-04T14:11:48.79Z</time></trkpt><trkpt lat="51.4271417" lon="-0.0850967"><ele>59.0</ele><time>2026-05-04T14:11:49.791Z</time></trkpt><trkpt lat="51.426995" lon="-0.0849683"><ele>59.0</ele><time>2026-05-04T14:11:50.792Z</time></trkpt><trkpt lat="51.4268367" lon="-0.0848517"><ele>59.0</ele><time>2026-05-04T14:11:51.792Z</time></trkpt><trkpt lat="51.42667" lon="-0.0847367"><ele>59.0</ele><time>2026-05-04T14:11:52.79Z</time></trkpt><trkpt lat="51.4265067" lon="-0.084615"><ele>59.0</ele><time>2026-05-04T14:11:53.792Z</time></trkpt><trkpt lat="51.4263383" lon="-0.0844967"><ele>59.0</ele><time>2026-05-04T14:11:54.794Z</time></trkpt><trkpt lat="51.4261683" lon="-0.08438"><ele>59.0</ele><time>2026-05-04T14:11:55.79Z</time></trkpt><trkpt lat="51.426005" lon="-0.08425"><ele>60.66666666666667</ele><time>2026-05-04T14:11:56.791Z</time></trkpt><trkpt lat="51.4258367" lon="-0.084125"><ele>62.33333333333333</ele><time>2026-05-04T14:11:57.792Z</time></trkpt><trkpt lat="51.4256767" lon="-0.0840167"><ele>64.0</ele><time>2026-05-04T14:11:58.791Z</time></trkpt><trkpt lat="51.4255283" lon="-0.0839167"><ele>65.5</ele><time>2026-05-04T14:11:59.792Z</time></trkpt><trkpt lat="51.42539" lon="-0.083825"><ele>67.0</ele><time>2026-05-04T14:12:00.792Z</time></trkpt><trkpt lat="51.4252583" lon="-0.0837433"><ele>68.5</ele><time>2026-05-04T14:12:01.791Z</time></trkpt><trkpt lat="51.42514" lon="-0.0836783"><ele>70.0</ele><time>2026-05-04T14:12:02.794Z</time></trkpt><trkpt lat="51.4250267" lon="-0.083635"><ele>70.0</ele><time>2026-05-04T14:12:03.794Z</time></trkpt><trkpt lat="51.424925" lon="-0.0835983"><ele>70.0</ele><time>2026-05-04T14:12:04.791Z</time></trkpt><trkpt lat="51.424815" lon="-0.08356"><ele>70.0</ele><time>2026-05-04T14:12:05.791Z</time></trkpt><trkpt lat="51.4246967" lon="-0.0835433"><ele>70.0</ele><time>2026-05-04T14:12:06.793Z</time></trkpt><trkpt lat="51.42458" lon="-0.0835267"><ele>70.6</ele><time>2026-05-04T14:12:07.797Z</time></trkpt><trkpt lat="51.4244683" lon="-0.0835067"><ele>71.2</ele><time>2026-05-04T14:12:08.792Z</time></trkpt><trkpt lat="51.4243617" lon="-0.0835017"><ele>71.8</ele><time>2026-05-04T14:12:09.795Z</time></trkpt><trkpt lat="51.4242633" lon="-0.0834967"><ele>72.4</ele><time>2026-05-04T14:12:10.791Z</time></trkpt><trkpt lat="51.4241717" lon="-0.0834933"><ele>73.0</ele><time>2026-05-04T14:12:11.792Z</time></trkpt><trkpt lat="51.4240933" lon="-0.0835017"><ele>73.0</ele><time>2026-05-04T14:12:12.792Z</time></trkpt><trkpt lat="51.423975" lon="-0.0835317"><ele>73.0</ele><time>2026-05-04T14:12:14.795Z</time></trkpt><trkpt lat="51.4239117" lon="-0.0836433"><ele>73.0</ele><time>2026-05-04T14:12:16.792Z</time></trkpt><trkpt lat="51.4239367" lon="-0.08375"><ele>73.0</ele><time>2026-05-04T14:12:17.792Z</time></trkpt><trkpt lat="51.424055" lon="-0.0839183"><ele>73.0</ele><time>2026-05-04T14:12:18.791Z</time></trkpt><trkpt lat="51.42413" lon="-0.08405"><ele>73.0</ele><time>2026-05-04T14:12:19.792Z</time></trkpt><trkpt lat="51.4241783" lon="-0.08416"><ele>73.0</ele><time>2026-05-04T14:12:20.792Z</time></trkpt><trkpt lat="51.424225" lon="-0.0842683"><ele>73.0</ele><time>2026-05-04T14:12:21.792Z</time></trkpt><trkpt lat="51.4242717" lon="-0.0843683"><ele>73.0</ele><time>2026-05-04T14:12:22.795Z</time></trkpt><trkpt lat="51.4243367" lon="-0.0844733"><ele>73.0</ele><time>2026-05-04T14:12:24.792Z</time></trkpt><trkpt lat="51.424385" lon="-0.0845433"><ele>73.0</ele><time>2026-05-04T14:12:33.794Z</time></trkpt><trkpt lat="51.4244433" lon="-0.084705"><ele>73.0</ele><time>2026-05-04T14:12:35.796Z</time></trkpt><trkpt lat="51.4244817" lon="-0.0848833"><ele>73.0</ele><time>2026-05-04T14:12:37.791Z</time></trkpt><trkpt lat="51.4244867" lon="-0.0849883"><ele>73.0</ele><time>2026-05-04T14:12:38.793Z</time></trkpt><trkpt lat="51.4244767" lon="-0.0851083"><ele>73.0</ele><time>2026-05-04T14:12:39.791Z</time></trkpt><trkpt lat="51.42443" lon="-0.0852517"><ele>73.0</ele><time>2026-05-04T14:12:40.793Z</time></trkpt><trkpt lat="51.4243683" lon="-0.0854317"><ele>73.0</ele><time>2026-05-04T14:12:41.793Z</time></trkpt><trkpt lat="51.4242933" lon="-0.0856067"><ele>73.0</ele><time>2026-05-04T14:12:42.795Z</time></trkpt><trkpt lat="51.4242167" lon="-0.085785"><ele>73.0</ele><time>2026-05-04T14:12:43.791Z</time></trkpt><trkpt lat="51.424135" lon="-0.0859633"><ele>73.0</ele><time>2026-05-04T14:12:44.79Z</time></trkpt><trkpt lat="51.42405" lon="-0.0861467"><ele>72.75</ele><time>2026-05-04T14:12:45.791Z</time></trkpt><trkpt lat="51.4239667" lon="-0.086315"><ele>72.5</ele><time>2026-05-04T14:12:46.792Z</time></trkpt><trkpt lat="51.4238867" lon="-0.08649"><ele>72.25</ele><time>2026-05-04T14:12:47.791Z</time></trkpt><trkpt lat="51.4238033" lon="-0.08667"><ele>72.0</ele><time>2026-05-04T14:12:48.791Z</time></trkpt><trkpt lat="51.4237083" lon="-0.0868383"><ele>72.0</ele><time>2026-05-04T14:12:49.792Z</time></trkpt><trkpt lat="51.4236067" lon="-0.0870033"><ele>72.0</ele><time>2026-05-04T14:12:50.791Z</time></trkpt><trkpt lat="51.42349" lon="-0.0871617"><ele>72.0</ele><time>2026-05-04T14:12:51.791Z</time></trkpt><trkpt lat="51.42336" lon="-0.0873133"><ele>72.33333333333333</ele><time>2026-05-04T14:12:52.791Z</time></trkpt><trkpt lat="51.4232133" lon="-0.0874483"><ele>72.66666666666666</ele><time>2026-05-04T14:12:53.793Z</time></trkpt><trkpt lat="51.42307" lon="-0.0876083"><ele>73.0</ele><time>2026-05-04T14:12:54.792Z</time></trkpt><trkpt lat="51.42293" lon="-0.0877667"><ele>75.0</ele><time>2026-05-04T14:12:55.79Z</time></trkpt><trkpt lat="51.42279" lon="-0.087915"><ele>77.0</ele><time>2026-05-04T14:12:56.792Z</time></trkpt><trkpt lat="51.4226533" lon="-0.08806"><ele>79.0</ele><time>2026-05-04T14:12:57.792Z</time></trkpt><trkpt lat="51.4225233" lon="-0.0882017"><ele>79.4</ele><time>2026-05-04T14:12:58.79Z</time></trkpt><trkpt lat="51.4224033" lon="-0.0883183"><ele>79.80000000000001</ele><time>2026-05-04T14:12:59.791Z</time></trkpt><trkpt lat="51.4222983" lon="-0.0884233"><ele>80.19999999999999</ele><time>2026-05-04T14:13:00.791Z</time></trkpt><trkpt lat="51.42222" lon="-0.0885017"><ele>80.6</ele><time>2026-05-04T14:13:01.79Z</time></trkpt><trkpt lat="51.4221567" lon="-0.0885667"><ele>81.0</ele><time>2026-05-04T14:13:02.792Z</time></trkpt><trkpt lat="51.4220967" lon="-0.088685"><ele>81.0</ele><time>2026-05-04T14:13:04.792Z</time></trkpt><trkpt lat="51.4221533" lon="-0.0887817"><ele>81.0</ele><time>2026-05-04T14:13:06.792Z</time></trkpt><trkpt lat="51.4222" lon="-0.0889183"><ele>81.0</ele><time>2026-05-04T14:13:08.792Z</time></trkpt><trkpt lat="51.42227" lon="-0.089075"><ele>81.0</ele><time>2026-05-04T14:13:10.792Z</time></trkpt><trkpt lat="51.422345" lon="-0.0892217"><ele>81.0</ele><time>2026-05-04T14:13:12.793Z</time></trkpt><trkpt lat="51.422365" lon="-0.089345"><ele>82.0</ele><time>2026-05-04T14:13:14.792Z</time></trkpt><trkpt lat="51.4223217" lon="-0.0895117"><ele>83.0</ele><time>2026-05-04T14:13:16.793Z</time></trkpt><trkpt lat="51.42228" lon="-0.0896033"><ele>84.0</ele><time>2026-05-04T14:13:17.794Z</time></trkpt><trkpt lat="51.422225" lon="-0.0897033"><ele>85.0</ele><time>2026-05-04T14:13:18.792Z</time></trkpt><trkpt lat="51.42214" lon="-0.089815"><ele>86.0</ele><time>2026-05-04T14:13:19.791Z</time></trkpt><trkpt lat="51.422055" lon="-0.0899267"><ele>88.6</ele><time>2026-05-04T14:13:20.791Z</time></trkpt><trkpt lat="51.4219867" lon="-0.0900217"><ele>91.19999999999999</ele><time>2026-05-04T14:13:21.791Z</time></trkpt><trkpt lat="51.4219083" lon="-0.090125"><ele>93.80000000000001</ele><time>2026-05-04T14:13:22.79Z</time></trkpt><trkpt lat="51.4218267" lon="-0.090235"><ele>96.4</ele><time>2026-05-04T14:13:23.792Z</time></trkpt><trkpt lat="51.4217333" lon="-0.0903433"><ele>99.0</ele><time>2026-05-04T14:13:24.791Z</time></trkpt><trkpt lat="51.4216467" lon="-0.0904117"><ele>99.0</ele><time>2026-05-04T14:13:25.792Z</time></trkpt><trkpt lat="51.4215817" lon="-0.0904683"><ele>99.0</ele><time>2026-05-04T14:13:26.792Z</time></trkpt><trkpt lat="51.421485" lon="-0.0905533"><ele>99.0</ele><time>2026-05-04T14:13:28.791Z</time></trkpt><trkpt lat="51.421415" lon="-0.0905367"><ele>99.0</ele><time>2026-05-04T14:13:30.794Z</time></trkpt><trkpt lat="51.4213567" lon="-0.0904033"><ele>99.0</ele><time>2026-05-04T14:13:32.792Z</time></trkpt><trkpt lat="51.4213083" lon="-0.0903333"><ele>99.0</ele><time>2026-05-04T14:13:33.796Z</time></trkpt><trkpt lat="51.4212517" lon="-0.0902083"><ele>99.0</ele><time>2026-05-04T14:13:34.792Z</time></trkpt><trkpt lat="51.4211883" lon="-0.0900333"><ele>99.0</ele><time>2026-05-04T14:13:35.79Z</time></trkpt><trkpt lat="51.4211117" lon="-0.0898583"><ele>99.0</ele><time>2026-05-04T14:13:36.792Z</time></trkpt><trkpt lat="51.42103" lon="-0.0897133"><ele>99.0</ele><time>2026-05-04T14:13:37.793Z</time></trkpt><trkpt lat="51.4209483" lon="-0.0895783"><ele>99.0</ele><time>2026-05-04T14:13:38.792Z</time></trkpt><trkpt lat="51.420865" lon="-0.089455"><ele>99.0</ele><time>2026-05-04T14:13:39.792Z</time></trkpt><trkpt lat="51.4207867" lon="-0.0893333"><ele>99.0</ele><time>2026-05-04T14:13:40.792Z</time></trkpt><trkpt lat="51.42071" lon="-0.08922"><ele>99.0</ele><time>2026-05-04T14:13:41.794Z</time></trkpt><trkpt lat="51.42063" lon="-0.0891183"><ele>99.0</ele><time>2026-05-04T14:13:42.793Z</time></trkpt><trkpt lat="51.4205483" lon="-0.08902"><ele>98.4</ele><time>2026-05-04T14:13:43.793Z</time></trkpt><trkpt lat="51.4204767" lon="-0.0889233"><ele>97.80000000000001</ele><time>2026-05-04T14:13:44.795Z</time></trkpt><trkpt lat="51.4204033" lon="-0.0888317"><ele>97.19999999999999</ele><time>2026-05-04T14:13:45.792Z</time></trkpt><trkpt lat="51.420325" lon="-0.0887483"><ele>96.6</ele><time>2026-05-04T14:13:46.792Z</time></trkpt><trkpt lat="51.4202533" lon="-0.0886617"><ele>96.0</ele><time>2026-05-04T14:13:47.791Z</time></trkpt><trkpt lat="51.420185" lon="-0.0885717"><ele>96.0</ele><time>2026-05-04T14:13:48.792Z</time></trkpt><trkpt lat="51.4201217" lon="-0.0884733"><ele>96.0</ele><time>2026-05-04T14:13:49.792Z</time></trkpt><trkpt lat="51.4200633" lon="-0.0883667"><ele>96.0</ele><time>2026-05-04T14:13:50.792Z</time></trkpt><trkpt lat="51.4200033" lon="-0.0882567"><ele>96.0</ele><time>2026-05-04T14:13:51.795Z</time></trkpt><trkpt lat="51.419955" lon="-0.0881467"><ele>96.0</ele><time>2026-05-04T14:13:52.794Z</time></trkpt><trkpt lat="51.419905" lon="-0.08804"><ele>96.0</ele><time>2026-05-04T14:13:53.795Z</time></trkpt><trkpt lat="51.4198567" lon="-0.087925"><ele>96.0</ele><time>2026-05-04T14:13:54.792Z</time></trkpt><trkpt lat="51.4198117" lon="-0.0878017"><ele>96.0</ele><time>2026-05-04T14:13:55.793Z</time></trkpt><trkpt lat="51.41977" lon="-0.0876883"><ele>96.0</ele><time>2026-05-04T14:13:56.794Z</time></trkpt><trkpt lat="51.419735" lon="-0.0875917"><ele>96.0</ele><time>2026-05-04T14:13:57.791Z</time></trkpt><trkpt lat="51.419675" lon="-0.0874567"><ele>96.0</ele><time>2026-05-04T14:13:59.794Z</time></trkpt><trkpt lat="51.4196217" lon="-0.0873883"><ele>96.0</ele><time>2026-05-04T14:14:01.791Z</time></trkpt><trkpt lat="51.419555" lon="-0.0874383"><ele>96.6</ele><time>2026-05-04T14:14:03.793Z</time></trkpt><trkpt lat="51.41947" lon="-0.0875417"><ele>97.19999999999999</ele><time>2026-05-04T14:14:05.79Z</time></trkpt><trkpt lat="51.4193633" lon="-0.0876333"><ele>97.80000000000001</ele><time>2026-05-04T14:14:07.793Z</time></trkpt><trkpt lat="51.4193067" lon="-0.0876883"><ele>98.4</ele><time>2026-05-04T14:14:08.791Z</time></trkpt><trkpt lat="51.419255" lon="-0.0877533"><ele>99.0</ele><time>2026-05-04T14:14:09.792Z</time></trkpt><trkpt lat="51.4191433" lon="-0.0878567"><ele>99.0</ele><time>2026-05-04T14:14:11.792Z</time></trkpt><trkpt lat="51.419085" lon="-0.0879083"><ele>99.0</ele><time>2026-05-04T14:14:12.791Z</time></trkpt><trkpt lat="51.41897" lon="-0.087965"><ele>99.0</ele><time>2026-05-04T14:14:14.794Z</time></trkpt><trkpt lat="51.4188433" lon="-0.0879317"><ele>99.0</ele><time>2026-05-04T14:14:16.794Z</time></trkpt><trkpt lat="51.4187317" lon="-0.08785"><ele>99.0</ele><time>2026-05-04T14:14:18.794Z</time></trkpt><trkpt lat="51.418615" lon="-0.087765"><ele>98.42857142857143</ele><time>2026-05-04T14:14:20.794Z</time></trkpt><trkpt lat="51.4185417" lon="-0.08771"><ele>97.85714285714285</ele><time>2026-05-04T14:14:21.795Z</time></trkpt><trkpt lat="51.418475" lon="-0.0876567"><ele>97.28571428571428</ele><time>2026-05-04T14:14:22.797Z</time></trkpt><trkpt lat="51.4184083" lon="-0.0876017"><ele>96.71428571428572</ele><time>2026-05-04T14:14:23.794Z</time></trkpt><trkpt lat="51.41834" lon="-0.0875433"><ele>96.14285714285714</ele><time>2026-05-04T14:14:24.792Z</time></trkpt><trkpt lat="51.4182733" lon="-0.0874933"><ele>95.57142857142857</ele><time>2026-05-04T14:14:25.795Z</time></trkpt><trkpt lat="51.418215" lon="-0.087445"><ele>95.0</ele><time>2026-05-04T14:14:26.795Z</time></trkpt><trkpt lat="51.4181183" lon="-0.0873583"><ele>95.0</ele><time>2026-05-04T14:14:28.794Z</time></trkpt><trkpt lat="51.4180317" lon="-0.0872567"><ele>95.0</ele><time>2026-05-04T14:14:30.795Z</time></trkpt><trkpt lat="51.417975" lon="-0.0871967"><ele>91.0</ele><time>2026-05-04T14:14:32.794Z</time></trkpt><trkpt lat="51.4179017" lon="-0.0872767"><ele>91.0</ele><time>2026-05-04T14:14:42.795Z</time></trkpt></trkseg></trk></gpx>